<?xml version="1.0" encoding="UTF-8" standalone="no" ?>
<gpx xmlns="http://www.topografix.com/GPX/1/1" xmlns:xsi="http://www.w3.org/2001/XMLSchema-instance" xsi:schemaLocation="http://www.topografix.com/GPX/1/1 http://www.topografix.com/GPX/1/1/gpx.xsd" version="1.1" creator="VisuGPX - https://www.visugpx.com">
  <metadata>
    <name>Rimbach </name>
    <desc><![CDATA[Magnifique chemin ]]></desc>
  </metadata>
  <trk>
    <name><![CDATA[Rimbach _1]]></name>
    <trkseg>
      <trkpt lat="47.82858" lon="6.95218">
        <ele>584</ele>
        <time>2026-05-09T04:22:05.181Z</time>
      </trkpt>
      <trkpt lat="47.82858" lon="6.95218">
        <ele>584</ele>
        <time>2026-05-09T04:22:06.181Z</time>
      </trkpt>
      <trkpt lat="47.82859" lon="6.95217">
        <ele>584</ele>
        <time>2026-05-09T04:22:07.181Z</time>
      </trkpt>
      <trkpt lat="47.82859" lon="6.95217">
        <ele>584</ele>
        <time>2026-05-09T04:22:08.181Z</time>
      </trkpt>
      <trkpt lat="47.8286" lon="6.95216">
        <ele>584</ele>
        <time>2026-05-09T04:22:09.181Z</time>
      </trkpt>
      <trkpt lat="47.8286" lon="6.95216">
        <ele>584</ele>
        <time>2026-05-09T04:22:10.181Z</time>
      </trkpt>
      <trkpt lat="47.82861" lon="6.95215">
        <ele>584</ele>
        <time>2026-05-09T04:22:11.182Z</time>
      </trkpt>
      <trkpt lat="47.82862" lon="6.95215">
        <ele>584</ele>
        <time>2026-05-09T04:22:12.182Z</time>
      </trkpt>
      <trkpt lat="47.82863" lon="6.95215">
        <ele>584</ele>
        <time>2026-05-09T04:22:13.182Z</time>
      </trkpt>
      <trkpt lat="47.82865" lon="6.95215">
        <ele>584</ele>
        <time>2026-05-09T04:22:14.182Z</time>
      </trkpt>
      <trkpt lat="47.82866" lon="6.95215">
        <ele>584</ele>
        <time>2026-05-09T04:22:15.181Z</time>
      </trkpt>
      <trkpt lat="47.82866" lon="6.95215">
        <ele>584</ele>
        <time>2026-05-09T04:22:16.182Z</time>
      </trkpt>
      <trkpt lat="47.82867" lon="6.95215">
        <ele>584</ele>
        <time>2026-05-09T04:22:17.182Z</time>
      </trkpt>
      <trkpt lat="47.82868" lon="6.95216">
        <ele>584</ele>
        <time>2026-05-09T04:22:18.182Z</time>
      </trkpt>
      <trkpt lat="47.82869" lon="6.95216">
        <ele>585</ele>
        <time>2026-05-09T04:22:19.181Z</time>
      </trkpt>
      <trkpt lat="47.8287" lon="6.95217">
        <ele>585</ele>
        <time>2026-05-09T04:22:20.181Z</time>
      </trkpt>
      <trkpt lat="47.8287" lon="6.95218">
        <ele>585</ele>
        <time>2026-05-09T04:22:21.181Z</time>
      </trkpt>
      <trkpt lat="47.82871" lon="6.95218">
        <ele>585</ele>
        <time>2026-05-09T04:22:22.182Z</time>
      </trkpt>
      <trkpt lat="47.82871" lon="6.95219">
        <ele>585</ele>
        <time>2026-05-09T04:22:23.181Z</time>
      </trkpt>
      <trkpt lat="47.82872" lon="6.95219">
        <ele>584</ele>
        <time>2026-05-09T04:22:24.181Z</time>
      </trkpt>
      <trkpt lat="47.82873" lon="6.9522">
        <ele>585</ele>
        <time>2026-05-09T04:22:25.181Z</time>
      </trkpt>
      <trkpt lat="47.82874" lon="6.95221">
        <ele>585</ele>
        <time>2026-05-09T04:22:26.181Z</time>
      </trkpt>
      <trkpt lat="47.82874" lon="6.95221">
        <ele>585</ele>
        <time>2026-05-09T04:22:27.181Z</time>
      </trkpt>
      <trkpt lat="47.82875" lon="6.95222">
        <ele>585</ele>
        <time>2026-05-09T04:22:28.181Z</time>
      </trkpt>
      <trkpt lat="47.82875" lon="6.95223">
        <ele>585</ele>
        <time>2026-05-09T04:22:29.181Z</time>
      </trkpt>
      <trkpt lat="47.82875" lon="6.95224">
        <ele>585</ele>
        <time>2026-05-09T04:22:30.181Z</time>
      </trkpt>
      <trkpt lat="47.82876" lon="6.95225">
        <ele>585</ele>
        <time>2026-05-09T04:22:31.182Z</time>
      </trkpt>
      <trkpt lat="47.82877" lon="6.95226">
        <ele>585</ele>
        <time>2026-05-09T04:22:32.181Z</time>
      </trkpt>
      <trkpt lat="47.82877" lon="6.95226">
        <ele>585</ele>
        <time>2026-05-09T04:22:33.181Z</time>
      </trkpt>
      <trkpt lat="47.82878" lon="6.95227">
        <ele>585</ele>
        <time>2026-05-09T04:22:34.181Z</time>
      </trkpt>
      <trkpt lat="47.82879" lon="6.95228">
        <ele>585</ele>
        <time>2026-05-09T04:22:35.182Z</time>
      </trkpt>
      <trkpt lat="47.82879" lon="6.95228">
        <ele>585</ele>
        <time>2026-05-09T04:22:36.182Z</time>
      </trkpt>
      <trkpt lat="47.8288" lon="6.95229">
        <ele>584</ele>
        <time>2026-05-09T04:22:37.182Z</time>
      </trkpt>
      <trkpt lat="47.82881" lon="6.9523">
        <ele>584</ele>
        <time>2026-05-09T04:22:38.182Z</time>
      </trkpt>
      <trkpt lat="47.82881" lon="6.9523">
        <ele>584</ele>
        <time>2026-05-09T04:22:39.182Z</time>
      </trkpt>
      <trkpt lat="47.82882" lon="6.95231">
        <ele>584</ele>
        <time>2026-05-09T04:22:40.181Z</time>
      </trkpt>
      <trkpt lat="47.82883" lon="6.95232">
        <ele>584</ele>
        <time>2026-05-09T04:22:41.181Z</time>
      </trkpt>
      <trkpt lat="47.82883" lon="6.95233">
        <ele>584</ele>
        <time>2026-05-09T04:22:42.181Z</time>
      </trkpt>
      <trkpt lat="47.82884" lon="6.95234">
        <ele>585</ele>
        <time>2026-05-09T04:22:43.181Z</time>
      </trkpt>
      <trkpt lat="47.82885" lon="6.95236">
        <ele>585</ele>
        <time>2026-05-09T04:22:44.181Z</time>
      </trkpt>
      <trkpt lat="47.82885" lon="6.95238">
        <ele>585</ele>
        <time>2026-05-09T04:22:45.182Z</time>
      </trkpt>
      <trkpt lat="47.82884" lon="6.9524">
        <ele>586</ele>
        <time>2026-05-09T04:22:46.182Z</time>
      </trkpt>
      <trkpt lat="47.82884" lon="6.95243">
        <ele>586</ele>
        <time>2026-05-09T04:22:47.181Z</time>
      </trkpt>
      <trkpt lat="47.82885" lon="6.95244">
        <ele>586</ele>
        <time>2026-05-09T04:22:48.181Z</time>
      </trkpt>
      <trkpt lat="47.82886" lon="6.95244">
        <ele>586</ele>
        <time>2026-05-09T04:22:49.182Z</time>
      </trkpt>
      <trkpt lat="47.82886" lon="6.95243">
        <ele>585</ele>
        <time>2026-05-09T04:22:50.182Z</time>
      </trkpt>
      <trkpt lat="47.82887" lon="6.95243">
        <ele>585</ele>
        <time>2026-05-09T04:22:51.182Z</time>
      </trkpt>
      <trkpt lat="47.82888" lon="6.95244">
        <ele>584</ele>
        <time>2026-05-09T04:22:52.182Z</time>
      </trkpt>
      <trkpt lat="47.82889" lon="6.95245">
        <ele>584</ele>
        <time>2026-05-09T04:22:53.181Z</time>
      </trkpt>
      <trkpt lat="47.82889" lon="6.95246">
        <ele>583</ele>
        <time>2026-05-09T04:22:54.181Z</time>
      </trkpt>
      <trkpt lat="47.8289" lon="6.95246">
        <ele>583</ele>
        <time>2026-05-09T04:22:55.181Z</time>
      </trkpt>
      <trkpt lat="47.8289" lon="6.95247">
        <ele>583</ele>
        <time>2026-05-09T04:22:56.181Z</time>
      </trkpt>
      <trkpt lat="47.82891" lon="6.95248">
        <ele>582</ele>
        <time>2026-05-09T04:22:57.181Z</time>
      </trkpt>
      <trkpt lat="47.82892" lon="6.95249">
        <ele>582</ele>
        <time>2026-05-09T04:22:58.182Z</time>
      </trkpt>
      <trkpt lat="47.82893" lon="6.9525">
        <ele>582</ele>
        <time>2026-05-09T04:22:59.181Z</time>
      </trkpt>
      <trkpt lat="47.82894" lon="6.95251">
        <ele>582</ele>
        <time>2026-05-09T04:23:00.182Z</time>
      </trkpt>
      <trkpt lat="47.82895" lon="6.95252">
        <ele>582</ele>
        <time>2026-05-09T04:23:01.182Z</time>
      </trkpt>
      <trkpt lat="47.82896" lon="6.95253">
        <ele>582</ele>
        <time>2026-05-09T04:23:02.182Z</time>
      </trkpt>
      <trkpt lat="47.82897" lon="6.95253">
        <ele>582</ele>
        <time>2026-05-09T04:23:03.182Z</time>
      </trkpt>
      <trkpt lat="47.82897" lon="6.95254">
        <ele>582</ele>
        <time>2026-05-09T04:23:04.182Z</time>
      </trkpt>
      <trkpt lat="47.82898" lon="6.95255">
        <ele>582</ele>
        <time>2026-05-09T04:23:05.181Z</time>
      </trkpt>
      <trkpt lat="47.82899" lon="6.95256">
        <ele>582</ele>
        <time>2026-05-09T04:23:06.182Z</time>
      </trkpt>
      <trkpt lat="47.82899" lon="6.95257">
        <ele>582</ele>
        <time>2026-05-09T04:23:07.181Z</time>
      </trkpt>
      <trkpt lat="47.829" lon="6.95257">
        <ele>582</ele>
        <time>2026-05-09T04:23:08.181Z</time>
      </trkpt>
      <trkpt lat="47.82901" lon="6.95258">
        <ele>582</ele>
        <time>2026-05-09T04:23:09.181Z</time>
      </trkpt>
      <trkpt lat="47.82901" lon="6.95259">
        <ele>583</ele>
        <time>2026-05-09T04:23:10.182Z</time>
      </trkpt>
      <trkpt lat="47.82902" lon="6.9526">
        <ele>583</ele>
        <time>2026-05-09T04:23:11.182Z</time>
      </trkpt>
      <trkpt lat="47.82903" lon="6.95261">
        <ele>583</ele>
        <time>2026-05-09T04:23:12.182Z</time>
      </trkpt>
      <trkpt lat="47.82904" lon="6.95262">
        <ele>583</ele>
        <time>2026-05-09T04:23:13.181Z</time>
      </trkpt>
      <trkpt lat="47.82905" lon="6.95263">
        <ele>583</ele>
        <time>2026-05-09T04:23:14.182Z</time>
      </trkpt>
      <trkpt lat="47.82906" lon="6.95264">
        <ele>583</ele>
        <time>2026-05-09T04:23:15.182Z</time>
      </trkpt>
      <trkpt lat="47.82907" lon="6.95264">
        <ele>583</ele>
        <time>2026-05-09T04:23:16.182Z</time>
      </trkpt>
      <trkpt lat="47.82908" lon="6.95265">
        <ele>583</ele>
        <time>2026-05-09T04:23:17.182Z</time>
      </trkpt>
      <trkpt lat="47.82909" lon="6.95266">
        <ele>583</ele>
        <time>2026-05-09T04:23:18.181Z</time>
      </trkpt>
      <trkpt lat="47.8291" lon="6.95267">
        <ele>583</ele>
        <time>2026-05-09T04:23:19.181Z</time>
      </trkpt>
      <trkpt lat="47.82911" lon="6.95268">
        <ele>583</ele>
        <time>2026-05-09T04:23:20.181Z</time>
      </trkpt>
      <trkpt lat="47.82912" lon="6.95269">
        <ele>582</ele>
        <time>2026-05-09T04:23:21.181Z</time>
      </trkpt>
      <trkpt lat="47.82912" lon="6.9527">
        <ele>582</ele>
        <time>2026-05-09T04:23:22.181Z</time>
      </trkpt>
      <trkpt lat="47.82913" lon="6.95272">
        <ele>582</ele>
        <time>2026-05-09T04:23:23.181Z</time>
      </trkpt>
      <trkpt lat="47.82914" lon="6.95274">
        <ele>582</ele>
        <time>2026-05-09T04:23:24.181Z</time>
      </trkpt>
      <trkpt lat="47.82914" lon="6.95276">
        <ele>582</ele>
        <time>2026-05-09T04:23:25.181Z</time>
      </trkpt>
      <trkpt lat="47.82914" lon="6.95278">
        <ele>581</ele>
        <time>2026-05-09T04:23:26.181Z</time>
      </trkpt>
      <trkpt lat="47.82914" lon="6.95279">
        <ele>581</ele>
        <time>2026-05-09T04:23:27.182Z</time>
      </trkpt>
      <trkpt lat="47.82913" lon="6.95281">
        <ele>581</ele>
        <time>2026-05-09T04:23:28.182Z</time>
      </trkpt>
      <trkpt lat="47.82912" lon="6.95283">
        <ele>581</ele>
        <time>2026-05-09T04:23:29.181Z</time>
      </trkpt>
      <trkpt lat="47.82912" lon="6.95285">
        <ele>581</ele>
        <time>2026-05-09T04:23:30.182Z</time>
      </trkpt>
      <trkpt lat="47.82912" lon="6.95287">
        <ele>581</ele>
        <time>2026-05-09T04:23:31.181Z</time>
      </trkpt>
      <trkpt lat="47.82912" lon="6.95288">
        <ele>581</ele>
        <time>2026-05-09T04:23:32.181Z</time>
      </trkpt>
      <trkpt lat="47.82912" lon="6.9529">
        <ele>582</ele>
        <time>2026-05-09T04:23:33.181Z</time>
      </trkpt>
      <trkpt lat="47.82912" lon="6.95291">
        <ele>582</ele>
        <time>2026-05-09T04:23:34.181Z</time>
      </trkpt>
      <trkpt lat="47.82912" lon="6.95292">
        <ele>582</ele>
        <time>2026-05-09T04:23:35.182Z</time>
      </trkpt>
      <trkpt lat="47.82912" lon="6.95294">
        <ele>582</ele>
        <time>2026-05-09T04:23:36.181Z</time>
      </trkpt>
      <trkpt lat="47.82912" lon="6.95295">
        <ele>583</ele>
        <time>2026-05-09T04:23:37.182Z</time>
      </trkpt>
      <trkpt lat="47.82912" lon="6.95297">
        <ele>583</ele>
        <time>2026-05-09T04:23:38.182Z</time>
      </trkpt>
      <trkpt lat="47.82911" lon="6.95298">
        <ele>583</ele>
        <time>2026-05-09T04:23:39.181Z</time>
      </trkpt>
      <trkpt lat="47.82911" lon="6.95299">
        <ele>583</ele>
        <time>2026-05-09T04:23:40.181Z</time>
      </trkpt>
      <trkpt lat="47.82911" lon="6.95301">
        <ele>583</ele>
        <time>2026-05-09T04:23:41.181Z</time>
      </trkpt>
      <trkpt lat="47.82912" lon="6.95302">
        <ele>584</ele>
        <time>2026-05-09T04:23:42.181Z</time>
      </trkpt>
      <trkpt lat="47.82913" lon="6.95304">
        <ele>584</ele>
        <time>2026-05-09T04:23:43.181Z</time>
      </trkpt>
      <trkpt lat="47.82913" lon="6.95307">
        <ele>584</ele>
        <time>2026-05-09T04:23:44.181Z</time>
      </trkpt>
      <trkpt lat="47.82914" lon="6.95308">
        <ele>584</ele>
        <time>2026-05-09T04:23:45.181Z</time>
      </trkpt>
      <trkpt lat="47.82914" lon="6.95311">
        <ele>584</ele>
        <time>2026-05-09T04:23:46.181Z</time>
      </trkpt>
      <trkpt lat="47.82914" lon="6.95313">
        <ele>584</ele>
        <time>2026-05-09T04:23:47.181Z</time>
      </trkpt>
      <trkpt lat="47.82914" lon="6.95314">
        <ele>584</ele>
        <time>2026-05-09T04:23:48.182Z</time>
      </trkpt>
      <trkpt lat="47.82915" lon="6.95316">
        <ele>584</ele>
        <time>2026-05-09T04:23:49.182Z</time>
      </trkpt>
      <trkpt lat="47.82915" lon="6.95318">
        <ele>585</ele>
        <time>2026-05-09T04:23:50.182Z</time>
      </trkpt>
      <trkpt lat="47.82916" lon="6.95319">
        <ele>585</ele>
        <time>2026-05-09T04:23:51.182Z</time>
      </trkpt>
      <trkpt lat="47.82917" lon="6.9532">
        <ele>585</ele>
        <time>2026-05-09T04:23:52.182Z</time>
      </trkpt>
      <trkpt lat="47.82918" lon="6.95321">
        <ele>586</ele>
        <time>2026-05-09T04:23:53.182Z</time>
      </trkpt>
      <trkpt lat="47.82919" lon="6.95321">
        <ele>586</ele>
        <time>2026-05-09T04:23:54.182Z</time>
      </trkpt>
      <trkpt lat="47.8292" lon="6.95322">
        <ele>587</ele>
        <time>2026-05-09T04:23:55.181Z</time>
      </trkpt>
      <trkpt lat="47.82921" lon="6.95323">
        <ele>587</ele>
        <time>2026-05-09T04:23:56.182Z</time>
      </trkpt>
      <trkpt lat="47.82921" lon="6.95324">
        <ele>587</ele>
        <time>2026-05-09T04:23:57.182Z</time>
      </trkpt>
      <trkpt lat="47.82922" lon="6.95324">
        <ele>587</ele>
        <time>2026-05-09T04:23:58.182Z</time>
      </trkpt>
      <trkpt lat="47.82923" lon="6.95324">
        <ele>587</ele>
        <time>2026-05-09T04:23:59.182Z</time>
      </trkpt>
      <trkpt lat="47.82923" lon="6.95324">
        <ele>587</ele>
        <time>2026-05-09T04:24:00.181Z</time>
      </trkpt>
      <trkpt lat="47.82926" lon="6.95328">
        <ele>586</ele>
        <time>2026-05-09T04:24:06.566Z</time>
      </trkpt>
      <trkpt lat="47.82928" lon="6.95329">
        <ele>586</ele>
        <time>2026-05-09T04:24:07.566Z</time>
      </trkpt>
      <trkpt lat="47.82929" lon="6.9533">
        <ele>586</ele>
        <time>2026-05-09T04:24:08.565Z</time>
      </trkpt>
      <trkpt lat="47.82931" lon="6.95331">
        <ele>585</ele>
        <time>2026-05-09T04:24:09.566Z</time>
      </trkpt>
      <trkpt lat="47.82933" lon="6.95333">
        <ele>585</ele>
        <time>2026-05-09T04:24:10.565Z</time>
      </trkpt>
      <trkpt lat="47.82934" lon="6.95334">
        <ele>586</ele>
        <time>2026-05-09T04:24:11.566Z</time>
      </trkpt>
      <trkpt lat="47.82935" lon="6.95335">
        <ele>586</ele>
        <time>2026-05-09T04:24:12.565Z</time>
      </trkpt>
      <trkpt lat="47.82936" lon="6.95336">
        <ele>586</ele>
        <time>2026-05-09T04:24:13.566Z</time>
      </trkpt>
      <trkpt lat="47.82937" lon="6.95337">
        <ele>586</ele>
        <time>2026-05-09T04:24:14.565Z</time>
      </trkpt>
      <trkpt lat="47.82939" lon="6.95338">
        <ele>587</ele>
        <time>2026-05-09T04:24:15.566Z</time>
      </trkpt>
      <trkpt lat="47.82942" lon="6.95338">
        <ele>587</ele>
        <time>2026-05-09T04:24:16.565Z</time>
      </trkpt>
      <trkpt lat="47.82943" lon="6.95339">
        <ele>587</ele>
        <time>2026-05-09T04:24:17.565Z</time>
      </trkpt>
      <trkpt lat="47.82944" lon="6.9534">
        <ele>587</ele>
        <time>2026-05-09T04:24:18.565Z</time>
      </trkpt>
      <trkpt lat="47.82945" lon="6.95341">
        <ele>586</ele>
        <time>2026-05-09T04:24:19.566Z</time>
      </trkpt>
      <trkpt lat="47.82945" lon="6.95341">
        <ele>586</ele>
        <time>2026-05-09T04:24:20.565Z</time>
      </trkpt>
      <trkpt lat="47.82946" lon="6.95343">
        <ele>586</ele>
        <time>2026-05-09T04:24:21.566Z</time>
      </trkpt>
      <trkpt lat="47.82947" lon="6.95343">
        <ele>586</ele>
        <time>2026-05-09T04:24:22.565Z</time>
      </trkpt>
      <trkpt lat="47.82948" lon="6.95344">
        <ele>586</ele>
        <time>2026-05-09T04:24:23.566Z</time>
      </trkpt>
      <trkpt lat="47.82949" lon="6.95344">
        <ele>586</ele>
        <time>2026-05-09T04:24:24.565Z</time>
      </trkpt>
      <trkpt lat="47.82949" lon="6.95345">
        <ele>585</ele>
        <time>2026-05-09T04:24:25.565Z</time>
      </trkpt>
      <trkpt lat="47.8295" lon="6.95346">
        <ele>585</ele>
        <time>2026-05-09T04:24:26.566Z</time>
      </trkpt>
      <trkpt lat="47.82952" lon="6.95347">
        <ele>585</ele>
        <time>2026-05-09T04:24:27.565Z</time>
      </trkpt>
      <trkpt lat="47.82953" lon="6.95348">
        <ele>585</ele>
        <time>2026-05-09T04:24:28.566Z</time>
      </trkpt>
      <trkpt lat="47.82954" lon="6.95348">
        <ele>585</ele>
        <time>2026-05-09T04:24:29.565Z</time>
      </trkpt>
      <trkpt lat="47.82954" lon="6.95349">
        <ele>584</ele>
        <time>2026-05-09T04:24:30.566Z</time>
      </trkpt>
      <trkpt lat="47.82955" lon="6.9535">
        <ele>584</ele>
        <time>2026-05-09T04:24:31.565Z</time>
      </trkpt>
      <trkpt lat="47.82956" lon="6.95351">
        <ele>584</ele>
        <time>2026-05-09T04:24:32.566Z</time>
      </trkpt>
      <trkpt lat="47.82957" lon="6.95352">
        <ele>583</ele>
        <time>2026-05-09T04:24:33.565Z</time>
      </trkpt>
      <trkpt lat="47.82958" lon="6.95354">
        <ele>583</ele>
        <time>2026-05-09T04:24:34.566Z</time>
      </trkpt>
      <trkpt lat="47.82959" lon="6.95355">
        <ele>583</ele>
        <time>2026-05-09T04:24:35.565Z</time>
      </trkpt>
      <trkpt lat="47.82961" lon="6.95356">
        <ele>582</ele>
        <time>2026-05-09T04:24:36.565Z</time>
      </trkpt>
      <trkpt lat="47.82961" lon="6.95357">
        <ele>582</ele>
        <time>2026-05-09T04:24:37.565Z</time>
      </trkpt>
      <trkpt lat="47.82962" lon="6.95358">
        <ele>581</ele>
        <time>2026-05-09T04:24:38.566Z</time>
      </trkpt>
      <trkpt lat="47.82962" lon="6.95359">
        <ele>581</ele>
        <time>2026-05-09T04:24:39.566Z</time>
      </trkpt>
      <trkpt lat="47.82962" lon="6.9536">
        <ele>580</ele>
        <time>2026-05-09T04:24:40.565Z</time>
      </trkpt>
      <trkpt lat="47.82963" lon="6.9536">
        <ele>580</ele>
        <time>2026-05-09T04:24:41.566Z</time>
      </trkpt>
      <trkpt lat="47.82963" lon="6.95361">
        <ele>580</ele>
        <time>2026-05-09T04:24:42.565Z</time>
      </trkpt>
      <trkpt lat="47.82964" lon="6.95362">
        <ele>579</ele>
        <time>2026-05-09T04:24:43.566Z</time>
      </trkpt>
      <trkpt lat="47.82964" lon="6.95363">
        <ele>579</ele>
        <time>2026-05-09T04:24:44.565Z</time>
      </trkpt>
      <trkpt lat="47.82965" lon="6.95364">
        <ele>578</ele>
        <time>2026-05-09T04:24:45.566Z</time>
      </trkpt>
      <trkpt lat="47.82966" lon="6.95365">
        <ele>578</ele>
        <time>2026-05-09T04:24:46.565Z</time>
      </trkpt>
      <trkpt lat="47.82966" lon="6.95365">
        <ele>578</ele>
        <time>2026-05-09T04:24:47.566Z</time>
      </trkpt>
      <trkpt lat="47.82967" lon="6.95366">
        <ele>578</ele>
        <time>2026-05-09T04:24:48.565Z</time>
      </trkpt>
      <trkpt lat="47.82968" lon="6.95366">
        <ele>578</ele>
        <time>2026-05-09T04:24:49.566Z</time>
      </trkpt>
      <trkpt lat="47.82969" lon="6.95367">
        <ele>578</ele>
        <time>2026-05-09T04:24:50.565Z</time>
      </trkpt>
      <trkpt lat="47.82969" lon="6.95368">
        <ele>578</ele>
        <time>2026-05-09T04:24:51.565Z</time>
      </trkpt>
      <trkpt lat="47.8297" lon="6.95369">
        <ele>578</ele>
        <time>2026-05-09T04:24:52.566Z</time>
      </trkpt>
      <trkpt lat="47.82971" lon="6.9537">
        <ele>578</ele>
        <time>2026-05-09T04:24:53.565Z</time>
      </trkpt>
      <trkpt lat="47.82972" lon="6.9537">
        <ele>577</ele>
        <time>2026-05-09T04:24:54.565Z</time>
      </trkpt>
      <trkpt lat="47.82973" lon="6.95371">
        <ele>577</ele>
        <time>2026-05-09T04:24:55.566Z</time>
      </trkpt>
      <trkpt lat="47.82974" lon="6.95372">
        <ele>577</ele>
        <time>2026-05-09T04:24:56.566Z</time>
      </trkpt>
      <trkpt lat="47.82976" lon="6.95372">
        <ele>577</ele>
        <time>2026-05-09T04:24:57.565Z</time>
      </trkpt>
      <trkpt lat="47.82977" lon="6.95372">
        <ele>577</ele>
        <time>2026-05-09T04:24:58.565Z</time>
      </trkpt>
      <trkpt lat="47.82978" lon="6.95372">
        <ele>577</ele>
        <time>2026-05-09T04:24:59.565Z</time>
      </trkpt>
      <trkpt lat="47.82979" lon="6.95371">
        <ele>577</ele>
        <time>2026-05-09T04:25:00.566Z</time>
      </trkpt>
      <trkpt lat="47.8298" lon="6.95371">
        <ele>577</ele>
        <time>2026-05-09T04:25:01.565Z</time>
      </trkpt>
      <trkpt lat="47.82981" lon="6.95369">
        <ele>578</ele>
        <time>2026-05-09T04:25:02.566Z</time>
      </trkpt>
      <trkpt lat="47.82983" lon="6.95367">
        <ele>578</ele>
        <time>2026-05-09T04:25:03.565Z</time>
      </trkpt>
      <trkpt lat="47.82984" lon="6.95367">
        <ele>579</ele>
        <time>2026-05-09T04:25:04.566Z</time>
      </trkpt>
      <trkpt lat="47.82985" lon="6.95367">
        <ele>579</ele>
        <time>2026-05-09T04:25:05.565Z</time>
      </trkpt>
      <trkpt lat="47.82986" lon="6.95368">
        <ele>579</ele>
        <time>2026-05-09T04:25:06.565Z</time>
      </trkpt>
      <trkpt lat="47.82987" lon="6.95368">
        <ele>580</ele>
        <time>2026-05-09T04:25:07.566Z</time>
      </trkpt>
      <trkpt lat="47.82988" lon="6.95369">
        <ele>580</ele>
        <time>2026-05-09T04:25:08.565Z</time>
      </trkpt>
      <trkpt lat="47.82989" lon="6.95369">
        <ele>581</ele>
        <time>2026-05-09T04:25:09.565Z</time>
      </trkpt>
      <trkpt lat="47.82991" lon="6.95369">
        <ele>581</ele>
        <time>2026-05-09T04:25:10.565Z</time>
      </trkpt>
      <trkpt lat="47.82992" lon="6.95369">
        <ele>581</ele>
        <time>2026-05-09T04:25:11.565Z</time>
      </trkpt>
      <trkpt lat="47.82993" lon="6.95369">
        <ele>582</ele>
        <time>2026-05-09T04:25:12.566Z</time>
      </trkpt>
      <trkpt lat="47.82994" lon="6.95369">
        <ele>582</ele>
        <time>2026-05-09T04:25:13.565Z</time>
      </trkpt>
      <trkpt lat="47.82995" lon="6.95369">
        <ele>582</ele>
        <time>2026-05-09T04:25:14.565Z</time>
      </trkpt>
      <trkpt lat="47.82996" lon="6.95369">
        <ele>583</ele>
        <time>2026-05-09T04:25:15.566Z</time>
      </trkpt>
      <trkpt lat="47.82998" lon="6.95369">
        <ele>583</ele>
        <time>2026-05-09T04:25:16.565Z</time>
      </trkpt>
      <trkpt lat="47.82999" lon="6.9537">
        <ele>583</ele>
        <time>2026-05-09T04:25:17.566Z</time>
      </trkpt>
      <trkpt lat="47.82999" lon="6.9537">
        <ele>583</ele>
        <time>2026-05-09T04:25:18.565Z</time>
      </trkpt>
      <trkpt lat="47.83" lon="6.95371">
        <ele>583</ele>
        <time>2026-05-09T04:25:19.566Z</time>
      </trkpt>
      <trkpt lat="47.83002" lon="6.95371">
        <ele>583</ele>
        <time>2026-05-09T04:25:20.565Z</time>
      </trkpt>
      <trkpt lat="47.83003" lon="6.95371">
        <ele>583</ele>
        <time>2026-05-09T04:25:21.566Z</time>
      </trkpt>
      <trkpt lat="47.83004" lon="6.95372">
        <ele>583</ele>
        <time>2026-05-09T04:25:22.565Z</time>
      </trkpt>
      <trkpt lat="47.83005" lon="6.95372">
        <ele>583</ele>
        <time>2026-05-09T04:25:23.566Z</time>
      </trkpt>
      <trkpt lat="47.83005" lon="6.95373">
        <ele>583</ele>
        <time>2026-05-09T04:25:24.565Z</time>
      </trkpt>
      <trkpt lat="47.83006" lon="6.95373">
        <ele>584</ele>
        <time>2026-05-09T04:25:25.565Z</time>
      </trkpt>
      <trkpt lat="47.83007" lon="6.95373">
        <ele>584</ele>
        <time>2026-05-09T04:25:26.565Z</time>
      </trkpt>
      <trkpt lat="47.83008" lon="6.95373">
        <ele>584</ele>
        <time>2026-05-09T04:25:27.566Z</time>
      </trkpt>
      <trkpt lat="47.83009" lon="6.95373">
        <ele>585</ele>
        <time>2026-05-09T04:25:28.566Z</time>
      </trkpt>
      <trkpt lat="47.8301" lon="6.95374">
        <ele>585</ele>
        <time>2026-05-09T04:25:29.566Z</time>
      </trkpt>
      <trkpt lat="47.83011" lon="6.95374">
        <ele>585</ele>
        <time>2026-05-09T04:25:30.566Z</time>
      </trkpt>
      <trkpt lat="47.83012" lon="6.95374">
        <ele>585</ele>
        <time>2026-05-09T04:25:31.565Z</time>
      </trkpt>
      <trkpt lat="47.83014" lon="6.95374">
        <ele>585</ele>
        <time>2026-05-09T04:25:32.566Z</time>
      </trkpt>
      <trkpt lat="47.83015" lon="6.95375">
        <ele>585</ele>
        <time>2026-05-09T04:25:33.565Z</time>
      </trkpt>
      <trkpt lat="47.83016" lon="6.95375">
        <ele>585</ele>
        <time>2026-05-09T04:25:34.566Z</time>
      </trkpt>
      <trkpt lat="47.83017" lon="6.95375">
        <ele>585</ele>
        <time>2026-05-09T04:25:35.565Z</time>
      </trkpt>
      <trkpt lat="47.83018" lon="6.95376">
        <ele>585</ele>
        <time>2026-05-09T04:25:36.566Z</time>
      </trkpt>
      <trkpt lat="47.83019" lon="6.95377">
        <ele>585</ele>
        <time>2026-05-09T04:25:37.565Z</time>
      </trkpt>
      <trkpt lat="47.8302" lon="6.95377">
        <ele>585</ele>
        <time>2026-05-09T04:25:38.565Z</time>
      </trkpt>
      <trkpt lat="47.83021" lon="6.95377">
        <ele>584</ele>
        <time>2026-05-09T04:25:39.565Z</time>
      </trkpt>
      <trkpt lat="47.83022" lon="6.95378">
        <ele>584</ele>
        <time>2026-05-09T04:25:40.566Z</time>
      </trkpt>
      <trkpt lat="47.83023" lon="6.95378">
        <ele>584</ele>
        <time>2026-05-09T04:25:41.565Z</time>
      </trkpt>
      <trkpt lat="47.83025" lon="6.95379">
        <ele>584</ele>
        <time>2026-05-09T04:25:42.566Z</time>
      </trkpt>
      <trkpt lat="47.83025" lon="6.95379">
        <ele>584</ele>
        <time>2026-05-09T04:25:43.565Z</time>
      </trkpt>
      <trkpt lat="47.83026" lon="6.95379">
        <ele>584</ele>
        <time>2026-05-09T04:25:44.566Z</time>
      </trkpt>
      <trkpt lat="47.83027" lon="6.9538">
        <ele>584</ele>
        <time>2026-05-09T04:25:45.566Z</time>
      </trkpt>
      <trkpt lat="47.83028" lon="6.9538">
        <ele>584</ele>
        <time>2026-05-09T04:25:46.565Z</time>
      </trkpt>
      <trkpt lat="47.83029" lon="6.9538">
        <ele>584</ele>
        <time>2026-05-09T04:25:47.566Z</time>
      </trkpt>
      <trkpt lat="47.8303" lon="6.95381">
        <ele>584</ele>
        <time>2026-05-09T04:25:48.565Z</time>
      </trkpt>
      <trkpt lat="47.83031" lon="6.95381">
        <ele>585</ele>
        <time>2026-05-09T04:25:49.566Z</time>
      </trkpt>
      <trkpt lat="47.83032" lon="6.95382">
        <ele>585</ele>
        <time>2026-05-09T04:25:50.565Z</time>
      </trkpt>
      <trkpt lat="47.83033" lon="6.95382">
        <ele>585</ele>
        <time>2026-05-09T04:25:51.566Z</time>
      </trkpt>
      <trkpt lat="47.83034" lon="6.95382">
        <ele>586</ele>
        <time>2026-05-09T04:25:52.565Z</time>
      </trkpt>
      <trkpt lat="47.83035" lon="6.95383">
        <ele>587</ele>
        <time>2026-05-09T04:25:53.566Z</time>
      </trkpt>
      <trkpt lat="47.83036" lon="6.95383">
        <ele>587</ele>
        <time>2026-05-09T04:25:54.565Z</time>
      </trkpt>
      <trkpt lat="47.83037" lon="6.95383">
        <ele>588</ele>
        <time>2026-05-09T04:25:55.565Z</time>
      </trkpt>
      <trkpt lat="47.83038" lon="6.95384">
        <ele>589</ele>
        <time>2026-05-09T04:25:56.565Z</time>
      </trkpt>
      <trkpt lat="47.83039" lon="6.95385">
        <ele>589</ele>
        <time>2026-05-09T04:25:57.566Z</time>
      </trkpt>
      <trkpt lat="47.8304" lon="6.95385">
        <ele>590</ele>
        <time>2026-05-09T04:25:58.565Z</time>
      </trkpt>
      <trkpt lat="47.83041" lon="6.95386">
        <ele>591</ele>
        <time>2026-05-09T04:25:59.565Z</time>
      </trkpt>
      <trkpt lat="47.83041" lon="6.95387">
        <ele>591</ele>
        <time>2026-05-09T04:26:00.565Z</time>
      </trkpt>
      <trkpt lat="47.83041" lon="6.95387">
        <ele>592</ele>
        <time>2026-05-09T04:26:01.566Z</time>
      </trkpt>
      <trkpt lat="47.83041" lon="6.95387">
        <ele>592</ele>
        <time>2026-05-09T04:26:02.566Z</time>
      </trkpt>
      <trkpt lat="47.83041" lon="6.95386">
        <ele>596</ele>
        <time>2026-05-09T04:26:08.881Z</time>
      </trkpt>
      <trkpt lat="47.83041" lon="6.95386">
        <ele>596</ele>
        <time>2026-05-09T04:26:09.881Z</time>
      </trkpt>
      <trkpt lat="47.83041" lon="6.95387">
        <ele>596</ele>
        <time>2026-05-09T04:26:10.881Z</time>
      </trkpt>
      <trkpt lat="47.83042" lon="6.95387">
        <ele>596</ele>
        <time>2026-05-09T04:26:11.881Z</time>
      </trkpt>
      <trkpt lat="47.83043" lon="6.95387">
        <ele>595</ele>
        <time>2026-05-09T04:26:12.881Z</time>
      </trkpt>
      <trkpt lat="47.83044" lon="6.95387">
        <ele>594</ele>
        <time>2026-05-09T04:26:13.881Z</time>
      </trkpt>
      <trkpt lat="47.83045" lon="6.95388">
        <ele>594</ele>
        <time>2026-05-09T04:26:14.882Z</time>
      </trkpt>
      <trkpt lat="47.83046" lon="6.95388">
        <ele>593</ele>
        <time>2026-05-09T04:26:15.882Z</time>
      </trkpt>
      <trkpt lat="47.83047" lon="6.95389">
        <ele>593</ele>
        <time>2026-05-09T04:26:16.881Z</time>
      </trkpt>
      <trkpt lat="47.83048" lon="6.95389">
        <ele>593</ele>
        <time>2026-05-09T04:26:17.881Z</time>
      </trkpt>
      <trkpt lat="47.83048" lon="6.95389">
        <ele>593</ele>
        <time>2026-05-09T04:26:18.881Z</time>
      </trkpt>
      <trkpt lat="47.83051" lon="6.9539">
        <ele>593</ele>
        <time>2026-05-09T04:26:19.881Z</time>
      </trkpt>
      <trkpt lat="47.83052" lon="6.9539">
        <ele>593</ele>
        <time>2026-05-09T04:26:20.881Z</time>
      </trkpt>
      <trkpt lat="47.83053" lon="6.95391">
        <ele>593</ele>
        <time>2026-05-09T04:26:21.881Z</time>
      </trkpt>
      <trkpt lat="47.83053" lon="6.95391">
        <ele>593</ele>
        <time>2026-05-09T04:26:22.882Z</time>
      </trkpt>
      <trkpt lat="47.83055" lon="6.95392">
        <ele>593</ele>
        <time>2026-05-09T04:26:23.881Z</time>
      </trkpt>
      <trkpt lat="47.83056" lon="6.95393">
        <ele>593</ele>
        <time>2026-05-09T04:26:24.881Z</time>
      </trkpt>
      <trkpt lat="47.83057" lon="6.95393">
        <ele>593</ele>
        <time>2026-05-09T04:26:25.881Z</time>
      </trkpt>
      <trkpt lat="47.83057" lon="6.95393">
        <ele>593</ele>
        <time>2026-05-09T04:26:26.881Z</time>
      </trkpt>
      <trkpt lat="47.8306" lon="6.95394">
        <ele>593</ele>
        <time>2026-05-09T04:26:27.881Z</time>
      </trkpt>
      <trkpt lat="47.83061" lon="6.95394">
        <ele>593</ele>
        <time>2026-05-09T04:26:28.881Z</time>
      </trkpt>
      <trkpt lat="47.83062" lon="6.95395">
        <ele>592</ele>
        <time>2026-05-09T04:26:29.881Z</time>
      </trkpt>
      <trkpt lat="47.83062" lon="6.95395">
        <ele>592</ele>
        <time>2026-05-09T04:26:30.881Z</time>
      </trkpt>
      <trkpt lat="47.83063" lon="6.95396">
        <ele>592</ele>
        <time>2026-05-09T04:26:31.881Z</time>
      </trkpt>
      <trkpt lat="47.83064" lon="6.95396">
        <ele>591</ele>
        <time>2026-05-09T04:26:32.881Z</time>
      </trkpt>
      <trkpt lat="47.83065" lon="6.95397">
        <ele>591</ele>
        <time>2026-05-09T04:26:33.881Z</time>
      </trkpt>
      <trkpt lat="47.83065" lon="6.95397">
        <ele>591</ele>
        <time>2026-05-09T04:26:34.881Z</time>
      </trkpt>
      <trkpt lat="47.83067" lon="6.95398">
        <ele>590</ele>
        <time>2026-05-09T04:26:35.881Z</time>
      </trkpt>
      <trkpt lat="47.83068" lon="6.95399">
        <ele>590</ele>
        <time>2026-05-09T04:26:36.881Z</time>
      </trkpt>
      <trkpt lat="47.83069" lon="6.95399">
        <ele>590</ele>
        <time>2026-05-09T04:26:37.881Z</time>
      </trkpt>
      <trkpt lat="47.8307" lon="6.954">
        <ele>590</ele>
        <time>2026-05-09T04:26:38.881Z</time>
      </trkpt>
      <trkpt lat="47.83071" lon="6.95401">
        <ele>590</ele>
        <time>2026-05-09T04:26:39.881Z</time>
      </trkpt>
      <trkpt lat="47.83072" lon="6.95401">
        <ele>589</ele>
        <time>2026-05-09T04:26:40.881Z</time>
      </trkpt>
      <trkpt lat="47.83073" lon="6.95402">
        <ele>589</ele>
        <time>2026-05-09T04:26:41.881Z</time>
      </trkpt>
      <trkpt lat="47.83074" lon="6.95402">
        <ele>589</ele>
        <time>2026-05-09T04:26:42.882Z</time>
      </trkpt>
      <trkpt lat="47.83074" lon="6.95402">
        <ele>589</ele>
        <time>2026-05-09T04:26:43.881Z</time>
      </trkpt>
      <trkpt lat="47.83075" lon="6.95404">
        <ele>589</ele>
        <time>2026-05-09T04:26:44.881Z</time>
      </trkpt>
      <trkpt lat="47.83076" lon="6.95404">
        <ele>589</ele>
        <time>2026-05-09T04:26:45.881Z</time>
      </trkpt>
      <trkpt lat="47.83077" lon="6.95405">
        <ele>589</ele>
        <time>2026-05-09T04:26:46.882Z</time>
      </trkpt>
      <trkpt lat="47.83077" lon="6.95405">
        <ele>589</ele>
        <time>2026-05-09T04:26:47.882Z</time>
      </trkpt>
      <trkpt lat="47.83079" lon="6.95407">
        <ele>590</ele>
        <time>2026-05-09T04:26:48.881Z</time>
      </trkpt>
      <trkpt lat="47.8308" lon="6.95408">
        <ele>591</ele>
        <time>2026-05-09T04:26:49.881Z</time>
      </trkpt>
      <trkpt lat="47.8308" lon="6.95409">
        <ele>591</ele>
        <time>2026-05-09T04:26:50.881Z</time>
      </trkpt>
      <trkpt lat="47.8308" lon="6.95409">
        <ele>591</ele>
        <time>2026-05-09T04:26:51.881Z</time>
      </trkpt>
      <trkpt lat="47.83082" lon="6.95411">
        <ele>591</ele>
        <time>2026-05-09T04:26:52.881Z</time>
      </trkpt>
      <trkpt lat="47.83083" lon="6.95412">
        <ele>591</ele>
        <time>2026-05-09T04:26:53.881Z</time>
      </trkpt>
      <trkpt lat="47.83084" lon="6.95412">
        <ele>591</ele>
        <time>2026-05-09T04:26:54.881Z</time>
      </trkpt>
      <trkpt lat="47.83084" lon="6.95412">
        <ele>591</ele>
        <time>2026-05-09T04:26:55.882Z</time>
      </trkpt>
      <trkpt lat="47.83085" lon="6.95413">
        <ele>591</ele>
        <time>2026-05-09T04:26:56.881Z</time>
      </trkpt>
      <trkpt lat="47.83086" lon="6.95415">
        <ele>590</ele>
        <time>2026-05-09T04:26:57.881Z</time>
      </trkpt>
      <trkpt lat="47.83087" lon="6.95415">
        <ele>591</ele>
        <time>2026-05-09T04:26:58.881Z</time>
      </trkpt>
      <trkpt lat="47.83087" lon="6.95415">
        <ele>591</ele>
        <time>2026-05-09T04:26:59.881Z</time>
      </trkpt>
      <trkpt lat="47.83089" lon="6.95417">
        <ele>592</ele>
        <time>2026-05-09T04:27:00.882Z</time>
      </trkpt>
      <trkpt lat="47.8309" lon="6.95418">
        <ele>592</ele>
        <time>2026-05-09T04:27:01.881Z</time>
      </trkpt>
      <trkpt lat="47.8309" lon="6.95418">
        <ele>592</ele>
        <time>2026-05-09T04:27:02.882Z</time>
      </trkpt>
      <trkpt lat="47.83091" lon="6.95419">
        <ele>592</ele>
        <time>2026-05-09T04:27:03.881Z</time>
      </trkpt>
      <trkpt lat="47.83093" lon="6.9542">
        <ele>593</ele>
        <time>2026-05-09T04:27:04.881Z</time>
      </trkpt>
      <trkpt lat="47.83094" lon="6.95421">
        <ele>593</ele>
        <time>2026-05-09T04:27:05.881Z</time>
      </trkpt>
      <trkpt lat="47.83095" lon="6.95422">
        <ele>593</ele>
        <time>2026-05-09T04:27:06.881Z</time>
      </trkpt>
      <trkpt lat="47.83095" lon="6.95422">
        <ele>593</ele>
        <time>2026-05-09T04:27:07.881Z</time>
      </trkpt>
      <trkpt lat="47.83096" lon="6.95424">
        <ele>593</ele>
        <time>2026-05-09T04:27:08.881Z</time>
      </trkpt>
      <trkpt lat="47.83097" lon="6.95425">
        <ele>593</ele>
        <time>2026-05-09T04:27:09.882Z</time>
      </trkpt>
      <trkpt lat="47.83098" lon="6.95425">
        <ele>593</ele>
        <time>2026-05-09T04:27:10.881Z</time>
      </trkpt>
      <trkpt lat="47.83098" lon="6.95425">
        <ele>593</ele>
        <time>2026-05-09T04:27:11.882Z</time>
      </trkpt>
      <trkpt lat="47.83098" lon="6.95426">
        <ele>593</ele>
        <time>2026-05-09T04:27:12.881Z</time>
      </trkpt>
      <trkpt lat="47.83099" lon="6.95428">
        <ele>593</ele>
        <time>2026-05-09T04:27:13.882Z</time>
      </trkpt>
      <trkpt lat="47.831" lon="6.95429">
        <ele>593</ele>
        <time>2026-05-09T04:27:14.882Z</time>
      </trkpt>
      <trkpt lat="47.831" lon="6.95429">
        <ele>593</ele>
        <time>2026-05-09T04:27:15.882Z</time>
      </trkpt>
      <trkpt lat="47.831" lon="6.95429">
        <ele>593</ele>
        <time>2026-05-09T04:27:16.881Z</time>
      </trkpt>
      <trkpt lat="47.83101" lon="6.9543">
        <ele>593</ele>
        <time>2026-05-09T04:27:17.881Z</time>
      </trkpt>
      <trkpt lat="47.83102" lon="6.95432">
        <ele>593</ele>
        <time>2026-05-09T04:27:18.881Z</time>
      </trkpt>
      <trkpt lat="47.83103" lon="6.95433">
        <ele>593</ele>
        <time>2026-05-09T04:27:19.881Z</time>
      </trkpt>
      <trkpt lat="47.83103" lon="6.95433">
        <ele>593</ele>
        <time>2026-05-09T04:27:20.881Z</time>
      </trkpt>
      <trkpt lat="47.83104" lon="6.95434">
        <ele>593</ele>
        <time>2026-05-09T04:27:21.881Z</time>
      </trkpt>
      <trkpt lat="47.83105" lon="6.95435">
        <ele>593</ele>
        <time>2026-05-09T04:27:22.881Z</time>
      </trkpt>
      <trkpt lat="47.83107" lon="6.95436">
        <ele>594</ele>
        <time>2026-05-09T04:27:23.881Z</time>
      </trkpt>
      <trkpt lat="47.83107" lon="6.95436">
        <ele>594</ele>
        <time>2026-05-09T04:27:24.881Z</time>
      </trkpt>
      <trkpt lat="47.83109" lon="6.95438">
        <ele>594</ele>
        <time>2026-05-09T04:27:25.881Z</time>
      </trkpt>
      <trkpt lat="47.83109" lon="6.95438">
        <ele>594</ele>
        <time>2026-05-09T04:27:26.882Z</time>
      </trkpt>
      <trkpt lat="47.83111" lon="6.95438">
        <ele>594</ele>
        <time>2026-05-09T04:27:27.881Z</time>
      </trkpt>
      <trkpt lat="47.83111" lon="6.95439">
        <ele>594</ele>
        <time>2026-05-09T04:27:28.881Z</time>
      </trkpt>
      <trkpt lat="47.83113" lon="6.9544">
        <ele>594</ele>
        <time>2026-05-09T04:27:29.881Z</time>
      </trkpt>
      <trkpt lat="47.83113" lon="6.9544">
        <ele>594</ele>
        <time>2026-05-09T04:27:30.881Z</time>
      </trkpt>
      <trkpt lat="47.83114" lon="6.95441">
        <ele>593</ele>
        <time>2026-05-09T04:27:31.881Z</time>
      </trkpt>
      <trkpt lat="47.83114" lon="6.95442">
        <ele>593</ele>
        <time>2026-05-09T04:27:32.881Z</time>
      </trkpt>
      <trkpt lat="47.83115" lon="6.95442">
        <ele>592</ele>
        <time>2026-05-09T04:27:33.881Z</time>
      </trkpt>
      <trkpt lat="47.83116" lon="6.95443">
        <ele>592</ele>
        <time>2026-05-09T04:27:34.882Z</time>
      </trkpt>
      <trkpt lat="47.83116" lon="6.95443">
        <ele>592</ele>
        <time>2026-05-09T04:27:35.881Z</time>
      </trkpt>
      <trkpt lat="47.83116" lon="6.95444">
        <ele>592</ele>
        <time>2026-05-09T04:27:36.881Z</time>
      </trkpt>
      <trkpt lat="47.83117" lon="6.95445">
        <ele>592</ele>
        <time>2026-05-09T04:27:37.882Z</time>
      </trkpt>
      <trkpt lat="47.83118" lon="6.95446">
        <ele>592</ele>
        <time>2026-05-09T04:27:38.881Z</time>
      </trkpt>
      <trkpt lat="47.83118" lon="6.95446">
        <ele>593</ele>
        <time>2026-05-09T04:27:39.881Z</time>
      </trkpt>
      <trkpt lat="47.83118" lon="6.95446">
        <ele>593</ele>
        <time>2026-05-09T04:27:40.882Z</time>
      </trkpt>
      <trkpt lat="47.83119" lon="6.95447">
        <ele>593</ele>
        <time>2026-05-09T04:27:41.881Z</time>
      </trkpt>
      <trkpt lat="47.83119" lon="6.95448">
        <ele>593</ele>
        <time>2026-05-09T04:27:42.881Z</time>
      </trkpt>
      <trkpt lat="47.83122" lon="6.95449">
        <ele>594</ele>
        <time>2026-05-09T04:27:43.881Z</time>
      </trkpt>
      <trkpt lat="47.83123" lon="6.9545">
        <ele>594</ele>
        <time>2026-05-09T04:27:44.882Z</time>
      </trkpt>
      <trkpt lat="47.83123" lon="6.9545">
        <ele>594</ele>
        <time>2026-05-09T04:27:45.882Z</time>
      </trkpt>
      <trkpt lat="47.83124" lon="6.95451">
        <ele>594</ele>
        <time>2026-05-09T04:27:46.881Z</time>
      </trkpt>
      <trkpt lat="47.83126" lon="6.95452">
        <ele>595</ele>
        <time>2026-05-09T04:27:47.882Z</time>
      </trkpt>
      <trkpt lat="47.83128" lon="6.95454">
        <ele>595</ele>
        <time>2026-05-09T04:27:48.881Z</time>
      </trkpt>
      <trkpt lat="47.83128" lon="6.95454">
        <ele>595</ele>
        <time>2026-05-09T04:27:49.881Z</time>
      </trkpt>
      <trkpt lat="47.83129" lon="6.95455">
        <ele>596</ele>
        <time>2026-05-09T04:27:50.881Z</time>
      </trkpt>
      <trkpt lat="47.83129" lon="6.95456">
        <ele>596</ele>
        <time>2026-05-09T04:27:51.881Z</time>
      </trkpt>
      <trkpt lat="47.8313" lon="6.95457">
        <ele>596</ele>
        <time>2026-05-09T04:27:52.881Z</time>
      </trkpt>
      <trkpt lat="47.83131" lon="6.95458">
        <ele>597</ele>
        <time>2026-05-09T04:27:53.882Z</time>
      </trkpt>
      <trkpt lat="47.83134" lon="6.9546">
        <ele>598</ele>
        <time>2026-05-09T04:27:54.882Z</time>
      </trkpt>
      <trkpt lat="47.83134" lon="6.9546">
        <ele>598</ele>
        <time>2026-05-09T04:27:55.881Z</time>
      </trkpt>
      <trkpt lat="47.83135" lon="6.95461">
        <ele>598</ele>
        <time>2026-05-09T04:27:56.881Z</time>
      </trkpt>
      <trkpt lat="47.83137" lon="6.95461">
        <ele>598</ele>
        <time>2026-05-09T04:27:57.881Z</time>
      </trkpt>
      <trkpt lat="47.83139" lon="6.95463">
        <ele>598</ele>
        <time>2026-05-09T04:27:58.881Z</time>
      </trkpt>
      <trkpt lat="47.8314" lon="6.95465">
        <ele>598</ele>
        <time>2026-05-09T04:27:59.881Z</time>
      </trkpt>
      <trkpt lat="47.8314" lon="6.95465">
        <ele>598</ele>
        <time>2026-05-09T04:28:00.881Z</time>
      </trkpt>
      <trkpt lat="47.83141" lon="6.95465">
        <ele>597</ele>
        <time>2026-05-09T04:28:01.881Z</time>
      </trkpt>
      <trkpt lat="47.83143" lon="6.95466">
        <ele>597</ele>
        <time>2026-05-09T04:28:02.881Z</time>
      </trkpt>
      <trkpt lat="47.83144" lon="6.95469">
        <ele>597</ele>
        <time>2026-05-09T04:28:03.881Z</time>
      </trkpt>
      <trkpt lat="47.83145" lon="6.9547">
        <ele>597</ele>
        <time>2026-05-09T04:28:04.881Z</time>
      </trkpt>
      <trkpt lat="47.83145" lon="6.9547">
        <ele>597</ele>
        <time>2026-05-09T04:28:05.881Z</time>
      </trkpt>
      <trkpt lat="47.83146" lon="6.95472">
        <ele>598</ele>
        <time>2026-05-09T04:28:06.881Z</time>
      </trkpt>
      <trkpt lat="47.83146" lon="6.95473">
        <ele>598</ele>
        <time>2026-05-09T04:28:07.881Z</time>
      </trkpt>
      <trkpt lat="47.83147" lon="6.95475">
        <ele>598</ele>
        <time>2026-05-09T04:28:08.881Z</time>
      </trkpt>
      <trkpt lat="47.83147" lon="6.95475">
        <ele>598</ele>
        <time>2026-05-09T04:28:09.881Z</time>
      </trkpt>
      <trkpt lat="47.83148" lon="6.95477">
        <ele>598</ele>
        <time>2026-05-09T04:28:10.881Z</time>
      </trkpt>
      <trkpt lat="47.83148" lon="6.95478">
        <ele>598</ele>
        <time>2026-05-09T04:28:11.881Z</time>
      </trkpt>
      <trkpt lat="47.83148" lon="6.95479">
        <ele>598</ele>
        <time>2026-05-09T04:28:12.881Z</time>
      </trkpt>
      <trkpt lat="47.83149" lon="6.95482">
        <ele>598</ele>
        <time>2026-05-09T04:28:13.882Z</time>
      </trkpt>
      <trkpt lat="47.83149" lon="6.95482">
        <ele>598</ele>
        <time>2026-05-09T04:28:14.881Z</time>
      </trkpt>
      <trkpt lat="47.83149" lon="6.95483">
        <ele>598</ele>
        <time>2026-05-09T04:28:15.881Z</time>
      </trkpt>
      <trkpt lat="47.8315" lon="6.95485">
        <ele>598</ele>
        <time>2026-05-09T04:28:16.882Z</time>
      </trkpt>
      <trkpt lat="47.8315" lon="6.95487">
        <ele>598</ele>
        <time>2026-05-09T04:28:17.881Z</time>
      </trkpt>
      <trkpt lat="47.83151" lon="6.95488">
        <ele>598</ele>
        <time>2026-05-09T04:28:18.882Z</time>
      </trkpt>
      <trkpt lat="47.83151" lon="6.95491">
        <ele>599</ele>
        <time>2026-05-09T04:28:19.881Z</time>
      </trkpt>
      <trkpt lat="47.83151" lon="6.95491">
        <ele>599</ele>
        <time>2026-05-09T04:28:20.881Z</time>
      </trkpt>
      <trkpt lat="47.83151" lon="6.95492">
        <ele>599</ele>
        <time>2026-05-09T04:28:21.882Z</time>
      </trkpt>
      <trkpt lat="47.83151" lon="6.95494">
        <ele>599</ele>
        <time>2026-05-09T04:28:22.881Z</time>
      </trkpt>
      <trkpt lat="47.83152" lon="6.95496">
        <ele>600</ele>
        <time>2026-05-09T04:28:23.881Z</time>
      </trkpt>
      <trkpt lat="47.83153" lon="6.95497">
        <ele>600</ele>
        <time>2026-05-09T04:28:24.881Z</time>
      </trkpt>
      <trkpt lat="47.83153" lon="6.95497">
        <ele>600</ele>
        <time>2026-05-09T04:28:25.881Z</time>
      </trkpt>
      <trkpt lat="47.83153" lon="6.95498">
        <ele>600</ele>
        <time>2026-05-09T04:28:26.881Z</time>
      </trkpt>
      <trkpt lat="47.83154" lon="6.95499">
        <ele>600</ele>
        <time>2026-05-09T04:28:27.882Z</time>
      </trkpt>
      <trkpt lat="47.83155" lon="6.95502">
        <ele>600</ele>
        <time>2026-05-09T04:28:28.881Z</time>
      </trkpt>
      <trkpt lat="47.83155" lon="6.95502">
        <ele>600</ele>
        <time>2026-05-09T04:28:29.882Z</time>
      </trkpt>
      <trkpt lat="47.83156" lon="6.95503">
        <ele>600</ele>
        <time>2026-05-09T04:28:30.881Z</time>
      </trkpt>
      <trkpt lat="47.83157" lon="6.95505">
        <ele>600</ele>
        <time>2026-05-09T04:28:31.881Z</time>
      </trkpt>
      <trkpt lat="47.83159" lon="6.95508">
        <ele>600</ele>
        <time>2026-05-09T04:28:32.881Z</time>
      </trkpt>
      <trkpt lat="47.83161" lon="6.9551">
        <ele>600</ele>
        <time>2026-05-09T04:28:33.881Z</time>
      </trkpt>
      <trkpt lat="47.83163" lon="6.95512">
        <ele>600</ele>
        <time>2026-05-09T04:28:34.882Z</time>
      </trkpt>
      <trkpt lat="47.83166" lon="6.95512">
        <ele>600</ele>
        <time>2026-05-09T04:28:35.881Z</time>
      </trkpt>
      <trkpt lat="47.83167" lon="6.95515">
        <ele>600</ele>
        <time>2026-05-09T04:28:36.881Z</time>
      </trkpt>
      <trkpt lat="47.83169" lon="6.95518">
        <ele>599</ele>
        <time>2026-05-09T04:28:37.881Z</time>
      </trkpt>
      <trkpt lat="47.83172" lon="6.95518">
        <ele>599</ele>
        <time>2026-05-09T04:28:38.881Z</time>
      </trkpt>
      <trkpt lat="47.83174" lon="6.95519">
        <ele>598</ele>
        <time>2026-05-09T04:28:39.881Z</time>
      </trkpt>
      <trkpt lat="47.83174" lon="6.95519">
        <ele>598</ele>
        <time>2026-05-09T04:28:40.882Z</time>
      </trkpt>
      <trkpt lat="47.83176" lon="6.9552">
        <ele>598</ele>
        <time>2026-05-09T04:28:41.881Z</time>
      </trkpt>
      <trkpt lat="47.83177" lon="6.9552">
        <ele>598</ele>
        <time>2026-05-09T04:28:42.881Z</time>
      </trkpt>
      <trkpt lat="47.83177" lon="6.95521">
        <ele>598</ele>
        <time>2026-05-09T04:28:43.881Z</time>
      </trkpt>
      <trkpt lat="47.83179" lon="6.95521">
        <ele>598</ele>
        <time>2026-05-09T04:28:44.881Z</time>
      </trkpt>
      <trkpt lat="47.83179" lon="6.95521">
        <ele>598</ele>
        <time>2026-05-09T04:28:45.881Z</time>
      </trkpt>
      <trkpt lat="47.8318" lon="6.95521">
        <ele>598</ele>
        <time>2026-05-09T04:28:46.881Z</time>
      </trkpt>
      <trkpt lat="47.83181" lon="6.9552">
        <ele>598</ele>
        <time>2026-05-09T04:28:47.881Z</time>
      </trkpt>
      <trkpt lat="47.83182" lon="6.95519">
        <ele>598</ele>
        <time>2026-05-09T04:28:48.881Z</time>
      </trkpt>
      <trkpt lat="47.83184" lon="6.95519">
        <ele>598</ele>
        <time>2026-05-09T04:28:49.881Z</time>
      </trkpt>
      <trkpt lat="47.83186" lon="6.9552">
        <ele>598</ele>
        <time>2026-05-09T04:28:50.881Z</time>
      </trkpt>
      <trkpt lat="47.83187" lon="6.95522">
        <ele>598</ele>
        <time>2026-05-09T04:28:51.881Z</time>
      </trkpt>
      <trkpt lat="47.83187" lon="6.95524">
        <ele>599</ele>
        <time>2026-05-09T04:28:52.881Z</time>
      </trkpt>
      <trkpt lat="47.83189" lon="6.95525">
        <ele>599</ele>
        <time>2026-05-09T04:28:53.881Z</time>
      </trkpt>
      <trkpt lat="47.83189" lon="6.95527">
        <ele>599</ele>
        <time>2026-05-09T04:28:54.881Z</time>
      </trkpt>
      <trkpt lat="47.8319" lon="6.95528">
        <ele>599</ele>
        <time>2026-05-09T04:28:55.881Z</time>
      </trkpt>
      <trkpt lat="47.8319" lon="6.95529">
        <ele>599</ele>
        <time>2026-05-09T04:28:56.881Z</time>
      </trkpt>
      <trkpt lat="47.83189" lon="6.95532">
        <ele>599</ele>
        <time>2026-05-09T04:28:57.882Z</time>
      </trkpt>
      <trkpt lat="47.83187" lon="6.95533">
        <ele>600</ele>
        <time>2026-05-09T04:28:58.881Z</time>
      </trkpt>
      <trkpt lat="47.83188" lon="6.95536">
        <ele>600</ele>
        <time>2026-05-09T04:28:59.881Z</time>
      </trkpt>
      <trkpt lat="47.83189" lon="6.9554">
        <ele>600</ele>
        <time>2026-05-09T04:29:00.881Z</time>
      </trkpt>
      <trkpt lat="47.83189" lon="6.95543">
        <ele>600</ele>
        <time>2026-05-09T04:29:01.881Z</time>
      </trkpt>
      <trkpt lat="47.83191" lon="6.95545">
        <ele>600</ele>
        <time>2026-05-09T04:29:02.881Z</time>
      </trkpt>
      <trkpt lat="47.83193" lon="6.95546">
        <ele>600</ele>
        <time>2026-05-09T04:29:03.881Z</time>
      </trkpt>
      <trkpt lat="47.83192" lon="6.95547">
        <ele>600</ele>
        <time>2026-05-09T04:29:04.881Z</time>
      </trkpt>
      <trkpt lat="47.83192" lon="6.95549">
        <ele>601</ele>
        <time>2026-05-09T04:29:05.882Z</time>
      </trkpt>
      <trkpt lat="47.83193" lon="6.95549">
        <ele>601</ele>
        <time>2026-05-09T04:29:06.881Z</time>
      </trkpt>
      <trkpt lat="47.83193" lon="6.95549">
        <ele>601</ele>
        <time>2026-05-09T04:29:07.881Z</time>
      </trkpt>
      <trkpt lat="47.83194" lon="6.95549">
        <ele>601</ele>
        <time>2026-05-09T04:29:08.881Z</time>
      </trkpt>
      <trkpt lat="47.83194" lon="6.95549">
        <ele>601</ele>
        <time>2026-05-09T04:29:09.881Z</time>
      </trkpt>
      <trkpt lat="47.83193" lon="6.9555">
        <ele>602</ele>
        <time>2026-05-09T04:29:10.882Z</time>
      </trkpt>
      <trkpt lat="47.83194" lon="6.95551">
        <ele>602</ele>
        <time>2026-05-09T04:29:11.881Z</time>
      </trkpt>
      <trkpt lat="47.83194" lon="6.95552">
        <ele>602</ele>
        <time>2026-05-09T04:29:12.881Z</time>
      </trkpt>
      <trkpt lat="47.83195" lon="6.95553">
        <ele>602</ele>
        <time>2026-05-09T04:29:13.881Z</time>
      </trkpt>
      <trkpt lat="47.83195" lon="6.95554">
        <ele>602</ele>
        <time>2026-05-09T04:29:14.881Z</time>
      </trkpt>
      <trkpt lat="47.83196" lon="6.95554">
        <ele>602</ele>
        <time>2026-05-09T04:29:15.881Z</time>
      </trkpt>
      <trkpt lat="47.83197" lon="6.95555">
        <ele>602</ele>
        <time>2026-05-09T04:29:16.882Z</time>
      </trkpt>
      <trkpt lat="47.83198" lon="6.95556">
        <ele>602</ele>
        <time>2026-05-09T04:29:17.882Z</time>
      </trkpt>
      <trkpt lat="47.83198" lon="6.95557">
        <ele>602</ele>
        <time>2026-05-09T04:29:18.881Z</time>
      </trkpt>
      <trkpt lat="47.83199" lon="6.95557">
        <ele>602</ele>
        <time>2026-05-09T04:29:19.881Z</time>
      </trkpt>
      <trkpt lat="47.832" lon="6.95558">
        <ele>602</ele>
        <time>2026-05-09T04:29:20.881Z</time>
      </trkpt>
      <trkpt lat="47.83201" lon="6.95559">
        <ele>601</ele>
        <time>2026-05-09T04:29:21.881Z</time>
      </trkpt>
      <trkpt lat="47.83203" lon="6.9556">
        <ele>601</ele>
        <time>2026-05-09T04:29:22.881Z</time>
      </trkpt>
      <trkpt lat="47.83204" lon="6.95561">
        <ele>601</ele>
        <time>2026-05-09T04:29:23.881Z</time>
      </trkpt>
      <trkpt lat="47.83205" lon="6.95562">
        <ele>602</ele>
        <time>2026-05-09T04:29:24.882Z</time>
      </trkpt>
      <trkpt lat="47.83206" lon="6.95563">
        <ele>602</ele>
        <time>2026-05-09T04:29:25.881Z</time>
      </trkpt>
      <trkpt lat="47.83207" lon="6.95564">
        <ele>602</ele>
        <time>2026-05-09T04:29:26.881Z</time>
      </trkpt>
      <trkpt lat="47.83208" lon="6.95565">
        <ele>602</ele>
        <time>2026-05-09T04:29:27.881Z</time>
      </trkpt>
      <trkpt lat="47.83209" lon="6.95566">
        <ele>602</ele>
        <time>2026-05-09T04:29:28.881Z</time>
      </trkpt>
      <trkpt lat="47.8321" lon="6.95568">
        <ele>602</ele>
        <time>2026-05-09T04:29:29.881Z</time>
      </trkpt>
      <trkpt lat="47.8321" lon="6.95568">
        <ele>602</ele>
        <time>2026-05-09T04:29:30.881Z</time>
      </trkpt>
      <trkpt lat="47.8321" lon="6.95569">
        <ele>602</ele>
        <time>2026-05-09T04:29:31.881Z</time>
      </trkpt>
      <trkpt lat="47.83211" lon="6.95569">
        <ele>602</ele>
        <time>2026-05-09T04:29:32.881Z</time>
      </trkpt>
      <trkpt lat="47.83212" lon="6.95571">
        <ele>602</ele>
        <time>2026-05-09T04:29:33.881Z</time>
      </trkpt>
      <trkpt lat="47.83213" lon="6.95571">
        <ele>602</ele>
        <time>2026-05-09T04:29:34.881Z</time>
      </trkpt>
      <trkpt lat="47.83213" lon="6.95571">
        <ele>602</ele>
        <time>2026-05-09T04:29:35.881Z</time>
      </trkpt>
      <trkpt lat="47.83213" lon="6.95572">
        <ele>602</ele>
        <time>2026-05-09T04:29:36.881Z</time>
      </trkpt>
      <trkpt lat="47.83214" lon="6.95572">
        <ele>602</ele>
        <time>2026-05-09T04:29:37.881Z</time>
      </trkpt>
      <trkpt lat="47.83215" lon="6.95574">
        <ele>602</ele>
        <time>2026-05-09T04:29:38.881Z</time>
      </trkpt>
      <trkpt lat="47.83216" lon="6.95575">
        <ele>602</ele>
        <time>2026-05-09T04:29:39.882Z</time>
      </trkpt>
      <trkpt lat="47.83216" lon="6.95575">
        <ele>602</ele>
        <time>2026-05-09T04:29:40.881Z</time>
      </trkpt>
      <trkpt lat="47.83218" lon="6.95576">
        <ele>602</ele>
        <time>2026-05-09T04:29:41.881Z</time>
      </trkpt>
      <trkpt lat="47.83219" lon="6.95577">
        <ele>602</ele>
        <time>2026-05-09T04:29:42.881Z</time>
      </trkpt>
      <trkpt lat="47.83221" lon="6.9558">
        <ele>603</ele>
        <time>2026-05-09T04:29:43.881Z</time>
      </trkpt>
      <trkpt lat="47.83222" lon="6.95581">
        <ele>602</ele>
        <time>2026-05-09T04:29:44.881Z</time>
      </trkpt>
      <trkpt lat="47.83222" lon="6.95581">
        <ele>602</ele>
        <time>2026-05-09T04:29:45.881Z</time>
      </trkpt>
      <trkpt lat="47.83223" lon="6.95582">
        <ele>602</ele>
        <time>2026-05-09T04:29:46.881Z</time>
      </trkpt>
      <trkpt lat="47.83224" lon="6.95583">
        <ele>602</ele>
        <time>2026-05-09T04:29:47.881Z</time>
      </trkpt>
      <trkpt lat="47.83226" lon="6.95585">
        <ele>602</ele>
        <time>2026-05-09T04:29:48.881Z</time>
      </trkpt>
      <trkpt lat="47.83226" lon="6.95585">
        <ele>602</ele>
        <time>2026-05-09T04:29:49.882Z</time>
      </trkpt>
      <trkpt lat="47.83227" lon="6.95586">
        <ele>601</ele>
        <time>2026-05-09T04:29:50.881Z</time>
      </trkpt>
      <trkpt lat="47.83228" lon="6.95587">
        <ele>601</ele>
        <time>2026-05-09T04:29:51.881Z</time>
      </trkpt>
      <trkpt lat="47.83229" lon="6.95588">
        <ele>601</ele>
        <time>2026-05-09T04:29:52.882Z</time>
      </trkpt>
      <trkpt lat="47.83229" lon="6.95589">
        <ele>601</ele>
        <time>2026-05-09T04:29:53.882Z</time>
      </trkpt>
      <trkpt lat="47.83231" lon="6.95591">
        <ele>600</ele>
        <time>2026-05-09T04:29:54.881Z</time>
      </trkpt>
      <trkpt lat="47.83231" lon="6.95591">
        <ele>600</ele>
        <time>2026-05-09T04:29:55.881Z</time>
      </trkpt>
      <trkpt lat="47.83231" lon="6.95592">
        <ele>600</ele>
        <time>2026-05-09T04:29:56.881Z</time>
      </trkpt>
      <trkpt lat="47.83231" lon="6.95592">
        <ele>600</ele>
        <time>2026-05-09T04:29:57.882Z</time>
      </trkpt>
      <trkpt lat="47.83232" lon="6.95593">
        <ele>599</ele>
        <time>2026-05-09T04:29:58.882Z</time>
      </trkpt>
      <trkpt lat="47.83232" lon="6.95592">
        <ele>599</ele>
        <time>2026-05-09T04:29:59.881Z</time>
      </trkpt>
      <trkpt lat="47.83232" lon="6.95592">
        <ele>599</ele>
        <time>2026-05-09T04:30:00.881Z</time>
      </trkpt>
      <trkpt lat="47.83233" lon="6.95593">
        <ele>599</ele>
        <time>2026-05-09T04:30:01.881Z</time>
      </trkpt>
      <trkpt lat="47.83234" lon="6.95594">
        <ele>599</ele>
        <time>2026-05-09T04:30:02.881Z</time>
      </trkpt>
      <trkpt lat="47.83234" lon="6.95596">
        <ele>598</ele>
        <time>2026-05-09T04:30:03.881Z</time>
      </trkpt>
      <trkpt lat="47.83235" lon="6.95597">
        <ele>598</ele>
        <time>2026-05-09T04:30:04.882Z</time>
      </trkpt>
      <trkpt lat="47.83236" lon="6.95599">
        <ele>597</ele>
        <time>2026-05-09T04:30:05.881Z</time>
      </trkpt>
      <trkpt lat="47.83236" lon="6.956">
        <ele>597</ele>
        <time>2026-05-09T04:30:06.882Z</time>
      </trkpt>
      <trkpt lat="47.83237" lon="6.95602">
        <ele>596</ele>
        <time>2026-05-09T04:30:07.881Z</time>
      </trkpt>
      <trkpt lat="47.83237" lon="6.95603">
        <ele>596</ele>
        <time>2026-05-09T04:30:08.881Z</time>
      </trkpt>
      <trkpt lat="47.83239" lon="6.95604">
        <ele>596</ele>
        <time>2026-05-09T04:30:09.881Z</time>
      </trkpt>
      <trkpt lat="47.83239" lon="6.95604">
        <ele>596</ele>
        <time>2026-05-09T04:30:10.881Z</time>
      </trkpt>
      <trkpt lat="47.8324" lon="6.95606">
        <ele>596</ele>
        <time>2026-05-09T04:30:11.881Z</time>
      </trkpt>
      <trkpt lat="47.83242" lon="6.95608">
        <ele>597</ele>
        <time>2026-05-09T04:30:12.881Z</time>
      </trkpt>
      <trkpt lat="47.83243" lon="6.95609">
        <ele>597</ele>
        <time>2026-05-09T04:30:13.882Z</time>
      </trkpt>
      <trkpt lat="47.83243" lon="6.95609">
        <ele>597</ele>
        <time>2026-05-09T04:30:14.882Z</time>
      </trkpt>
      <trkpt lat="47.83243" lon="6.9561">
        <ele>598</ele>
        <time>2026-05-09T04:30:15.881Z</time>
      </trkpt>
      <trkpt lat="47.83243" lon="6.9561">
        <ele>598</ele>
        <time>2026-05-09T04:30:16.881Z</time>
      </trkpt>
      <trkpt lat="47.83245" lon="6.95613">
        <ele>598</ele>
        <time>2026-05-09T04:30:17.881Z</time>
      </trkpt>
      <trkpt lat="47.83245" lon="6.95613">
        <ele>598</ele>
        <time>2026-05-09T04:30:18.881Z</time>
      </trkpt>
      <trkpt lat="47.83246" lon="6.95615">
        <ele>599</ele>
        <time>2026-05-09T04:30:19.881Z</time>
      </trkpt>
      <trkpt lat="47.83246" lon="6.95616">
        <ele>600</ele>
        <time>2026-05-09T04:30:20.881Z</time>
      </trkpt>
      <trkpt lat="47.83246" lon="6.95616">
        <ele>600</ele>
        <time>2026-05-09T04:30:21.881Z</time>
      </trkpt>
      <trkpt lat="47.83248" lon="6.95619">
        <ele>601</ele>
        <time>2026-05-09T04:30:22.881Z</time>
      </trkpt>
      <trkpt lat="47.83249" lon="6.9562">
        <ele>601</ele>
        <time>2026-05-09T04:30:23.881Z</time>
      </trkpt>
      <trkpt lat="47.83249" lon="6.95621">
        <ele>602</ele>
        <time>2026-05-09T04:30:24.881Z</time>
      </trkpt>
      <trkpt lat="47.83251" lon="6.95623">
        <ele>602</ele>
        <time>2026-05-09T04:30:25.881Z</time>
      </trkpt>
      <trkpt lat="47.83252" lon="6.95624">
        <ele>602</ele>
        <time>2026-05-09T04:30:26.881Z</time>
      </trkpt>
      <trkpt lat="47.83253" lon="6.95625">
        <ele>603</ele>
        <time>2026-05-09T04:30:27.881Z</time>
      </trkpt>
      <trkpt lat="47.83254" lon="6.95626">
        <ele>603</ele>
        <time>2026-05-09T04:30:28.881Z</time>
      </trkpt>
      <trkpt lat="47.83255" lon="6.95628">
        <ele>604</ele>
        <time>2026-05-09T04:30:29.881Z</time>
      </trkpt>
      <trkpt lat="47.83256" lon="6.95629">
        <ele>604</ele>
        <time>2026-05-09T04:30:30.881Z</time>
      </trkpt>
      <trkpt lat="47.83258" lon="6.95631">
        <ele>604</ele>
        <time>2026-05-09T04:30:31.882Z</time>
      </trkpt>
      <trkpt lat="47.8326" lon="6.95633">
        <ele>604</ele>
        <time>2026-05-09T04:30:32.881Z</time>
      </trkpt>
      <trkpt lat="47.83261" lon="6.95634">
        <ele>604</ele>
        <time>2026-05-09T04:30:33.881Z</time>
      </trkpt>
      <trkpt lat="47.83261" lon="6.95634">
        <ele>604</ele>
        <time>2026-05-09T04:30:34.882Z</time>
      </trkpt>
      <trkpt lat="47.83262" lon="6.95636">
        <ele>604</ele>
        <time>2026-05-09T04:30:35.881Z</time>
      </trkpt>
      <trkpt lat="47.83263" lon="6.95637">
        <ele>605</ele>
        <time>2026-05-09T04:30:36.882Z</time>
      </trkpt>
      <trkpt lat="47.83263" lon="6.95638">
        <ele>605</ele>
        <time>2026-05-09T04:30:37.881Z</time>
      </trkpt>
      <trkpt lat="47.83263" lon="6.95638">
        <ele>605</ele>
        <time>2026-05-09T04:30:38.882Z</time>
      </trkpt>
      <trkpt lat="47.83264" lon="6.9564">
        <ele>605</ele>
        <time>2026-05-09T04:30:39.882Z</time>
      </trkpt>
      <trkpt lat="47.83265" lon="6.95641">
        <ele>605</ele>
        <time>2026-05-09T04:30:40.881Z</time>
      </trkpt>
      <trkpt lat="47.83266" lon="6.95642">
        <ele>605</ele>
        <time>2026-05-09T04:30:41.882Z</time>
      </trkpt>
      <trkpt lat="47.83267" lon="6.95644">
        <ele>605</ele>
        <time>2026-05-09T04:30:42.881Z</time>
      </trkpt>
      <trkpt lat="47.83267" lon="6.95644">
        <ele>605</ele>
        <time>2026-05-09T04:30:43.881Z</time>
      </trkpt>
      <trkpt lat="47.83268" lon="6.95646">
        <ele>605</ele>
        <time>2026-05-09T04:30:44.881Z</time>
      </trkpt>
      <trkpt lat="47.83269" lon="6.95647">
        <ele>605</ele>
        <time>2026-05-09T04:30:45.882Z</time>
      </trkpt>
      <trkpt lat="47.8327" lon="6.95649">
        <ele>605</ele>
        <time>2026-05-09T04:30:46.881Z</time>
      </trkpt>
      <trkpt lat="47.83271" lon="6.9565">
        <ele>605</ele>
        <time>2026-05-09T04:30:47.882Z</time>
      </trkpt>
      <trkpt lat="47.83272" lon="6.95652">
        <ele>605</ele>
        <time>2026-05-09T04:30:48.881Z</time>
      </trkpt>
      <trkpt lat="47.83272" lon="6.95653">
        <ele>605</ele>
        <time>2026-05-09T04:30:49.881Z</time>
      </trkpt>
      <trkpt lat="47.83273" lon="6.95654">
        <ele>605</ele>
        <time>2026-05-09T04:30:50.881Z</time>
      </trkpt>
      <trkpt lat="47.83273" lon="6.95656">
        <ele>605</ele>
        <time>2026-05-09T04:30:51.881Z</time>
      </trkpt>
      <trkpt lat="47.83273" lon="6.95657">
        <ele>605</ele>
        <time>2026-05-09T04:30:52.881Z</time>
      </trkpt>
      <trkpt lat="47.83273" lon="6.95658">
        <ele>606</ele>
        <time>2026-05-09T04:30:53.881Z</time>
      </trkpt>
      <trkpt lat="47.83273" lon="6.9566">
        <ele>606</ele>
        <time>2026-05-09T04:30:54.881Z</time>
      </trkpt>
      <trkpt lat="47.83273" lon="6.95661">
        <ele>606</ele>
        <time>2026-05-09T04:30:55.881Z</time>
      </trkpt>
      <trkpt lat="47.83273" lon="6.95662">
        <ele>606</ele>
        <time>2026-05-09T04:30:56.882Z</time>
      </trkpt>
      <trkpt lat="47.83274" lon="6.95664">
        <ele>606</ele>
        <time>2026-05-09T04:30:57.881Z</time>
      </trkpt>
      <trkpt lat="47.83274" lon="6.95665">
        <ele>606</ele>
        <time>2026-05-09T04:30:58.881Z</time>
      </trkpt>
      <trkpt lat="47.83274" lon="6.95665">
        <ele>606</ele>
        <time>2026-05-09T04:30:59.881Z</time>
      </trkpt>
      <trkpt lat="47.83275" lon="6.95669">
        <ele>606</ele>
        <time>2026-05-09T04:31:00.881Z</time>
      </trkpt>
      <trkpt lat="47.83275" lon="6.9567">
        <ele>606</ele>
        <time>2026-05-09T04:31:01.882Z</time>
      </trkpt>
      <trkpt lat="47.83275" lon="6.95672">
        <ele>607</ele>
        <time>2026-05-09T04:31:02.881Z</time>
      </trkpt>
      <trkpt lat="47.83275" lon="6.95672">
        <ele>607</ele>
        <time>2026-05-09T04:31:03.882Z</time>
      </trkpt>
      <trkpt lat="47.83277" lon="6.95674">
        <ele>606</ele>
        <time>2026-05-09T04:31:04.881Z</time>
      </trkpt>
      <trkpt lat="47.83277" lon="6.95675">
        <ele>606</ele>
        <time>2026-05-09T04:31:05.881Z</time>
      </trkpt>
      <trkpt lat="47.83277" lon="6.95677">
        <ele>606</ele>
        <time>2026-05-09T04:31:06.881Z</time>
      </trkpt>
      <trkpt lat="47.83278" lon="6.95678">
        <ele>606</ele>
        <time>2026-05-09T04:31:07.881Z</time>
      </trkpt>
      <trkpt lat="47.83278" lon="6.95679">
        <ele>606</ele>
        <time>2026-05-09T04:31:08.881Z</time>
      </trkpt>
      <trkpt lat="47.83278" lon="6.95681">
        <ele>606</ele>
        <time>2026-05-09T04:31:09.881Z</time>
      </trkpt>
      <trkpt lat="47.83279" lon="6.95682">
        <ele>606</ele>
        <time>2026-05-09T04:31:10.881Z</time>
      </trkpt>
      <trkpt lat="47.8328" lon="6.95684">
        <ele>606</ele>
        <time>2026-05-09T04:31:11.882Z</time>
      </trkpt>
      <trkpt lat="47.8328" lon="6.95685">
        <ele>606</ele>
        <time>2026-05-09T04:31:12.881Z</time>
      </trkpt>
      <trkpt lat="47.83281" lon="6.95687">
        <ele>606</ele>
        <time>2026-05-09T04:31:13.881Z</time>
      </trkpt>
      <trkpt lat="47.83281" lon="6.95689">
        <ele>606</ele>
        <time>2026-05-09T04:31:14.881Z</time>
      </trkpt>
      <trkpt lat="47.83281" lon="6.9569">
        <ele>605</ele>
        <time>2026-05-09T04:31:15.881Z</time>
      </trkpt>
      <trkpt lat="47.83282" lon="6.95692">
        <ele>605</ele>
        <time>2026-05-09T04:31:16.881Z</time>
      </trkpt>
      <trkpt lat="47.83282" lon="6.95693">
        <ele>605</ele>
        <time>2026-05-09T04:31:17.881Z</time>
      </trkpt>
      <trkpt lat="47.83283" lon="6.95695">
        <ele>604</ele>
        <time>2026-05-09T04:31:18.882Z</time>
      </trkpt>
      <trkpt lat="47.83284" lon="6.95696">
        <ele>604</ele>
        <time>2026-05-09T04:31:19.881Z</time>
      </trkpt>
      <trkpt lat="47.83285" lon="6.95698">
        <ele>604</ele>
        <time>2026-05-09T04:31:20.881Z</time>
      </trkpt>
      <trkpt lat="47.83285" lon="6.95699">
        <ele>604</ele>
        <time>2026-05-09T04:31:21.881Z</time>
      </trkpt>
      <trkpt lat="47.83286" lon="6.95701">
        <ele>604</ele>
        <time>2026-05-09T04:31:22.881Z</time>
      </trkpt>
      <trkpt lat="47.83287" lon="6.95702">
        <ele>605</ele>
        <time>2026-05-09T04:31:23.881Z</time>
      </trkpt>
      <trkpt lat="47.83287" lon="6.95702">
        <ele>605</ele>
        <time>2026-05-09T04:31:24.881Z</time>
      </trkpt>
      <trkpt lat="47.83288" lon="6.95705">
        <ele>605</ele>
        <time>2026-05-09T04:31:25.881Z</time>
      </trkpt>
      <trkpt lat="47.83287" lon="6.95707">
        <ele>605</ele>
        <time>2026-05-09T04:31:26.881Z</time>
      </trkpt>
      <trkpt lat="47.83286" lon="6.95709">
        <ele>605</ele>
        <time>2026-05-09T04:31:27.881Z</time>
      </trkpt>
      <trkpt lat="47.83286" lon="6.95709">
        <ele>605</ele>
        <time>2026-05-09T04:31:28.882Z</time>
      </trkpt>
      <trkpt lat="47.83286" lon="6.95713">
        <ele>605</ele>
        <time>2026-05-09T04:31:29.881Z</time>
      </trkpt>
      <trkpt lat="47.83286" lon="6.95714">
        <ele>606</ele>
        <time>2026-05-09T04:31:30.881Z</time>
      </trkpt>
      <trkpt lat="47.83286" lon="6.95715">
        <ele>606</ele>
        <time>2026-05-09T04:31:31.882Z</time>
      </trkpt>
      <trkpt lat="47.83287" lon="6.95716">
        <ele>607</ele>
        <time>2026-05-09T04:31:32.882Z</time>
      </trkpt>
      <trkpt lat="47.83287" lon="6.95718">
        <ele>607</ele>
        <time>2026-05-09T04:31:33.881Z</time>
      </trkpt>
      <trkpt lat="47.83288" lon="6.95719">
        <ele>607</ele>
        <time>2026-05-09T04:31:34.882Z</time>
      </trkpt>
      <trkpt lat="47.83288" lon="6.95719">
        <ele>608</ele>
        <time>2026-05-09T04:31:35.881Z</time>
      </trkpt>
      <trkpt lat="47.83289" lon="6.9572">
        <ele>608</ele>
        <time>2026-05-09T04:31:36.881Z</time>
      </trkpt>
      <trkpt lat="47.83289" lon="6.95722">
        <ele>608</ele>
        <time>2026-05-09T04:31:37.882Z</time>
      </trkpt>
      <trkpt lat="47.8329" lon="6.95723">
        <ele>608</ele>
        <time>2026-05-09T04:31:38.881Z</time>
      </trkpt>
      <trkpt lat="47.8329" lon="6.95724">
        <ele>609</ele>
        <time>2026-05-09T04:31:39.881Z</time>
      </trkpt>
      <trkpt lat="47.83291" lon="6.95725">
        <ele>609</ele>
        <time>2026-05-09T04:31:40.881Z</time>
      </trkpt>
      <trkpt lat="47.83292" lon="6.95727">
        <ele>609</ele>
        <time>2026-05-09T04:31:41.881Z</time>
      </trkpt>
      <trkpt lat="47.83292" lon="6.95728">
        <ele>609</ele>
        <time>2026-05-09T04:31:42.882Z</time>
      </trkpt>
      <trkpt lat="47.83293" lon="6.9573">
        <ele>609</ele>
        <time>2026-05-09T04:31:43.881Z</time>
      </trkpt>
      <trkpt lat="47.83293" lon="6.95731">
        <ele>609</ele>
        <time>2026-05-09T04:31:44.881Z</time>
      </trkpt>
      <trkpt lat="47.83294" lon="6.95732">
        <ele>608</ele>
        <time>2026-05-09T04:31:45.882Z</time>
      </trkpt>
      <trkpt lat="47.83294" lon="6.95734">
        <ele>608</ele>
        <time>2026-05-09T04:31:46.881Z</time>
      </trkpt>
      <trkpt lat="47.83295" lon="6.95735">
        <ele>607</ele>
        <time>2026-05-09T04:31:47.881Z</time>
      </trkpt>
      <trkpt lat="47.83295" lon="6.95736">
        <ele>607</ele>
        <time>2026-05-09T04:31:48.881Z</time>
      </trkpt>
      <trkpt lat="47.83295" lon="6.95736">
        <ele>607</ele>
        <time>2026-05-09T04:31:49.881Z</time>
      </trkpt>
      <trkpt lat="47.83295" lon="6.95739">
        <ele>607</ele>
        <time>2026-05-09T04:31:50.881Z</time>
      </trkpt>
      <trkpt lat="47.83294" lon="6.95741">
        <ele>607</ele>
        <time>2026-05-09T04:31:51.881Z</time>
      </trkpt>
      <trkpt lat="47.83294" lon="6.95742">
        <ele>607</ele>
        <time>2026-05-09T04:31:52.881Z</time>
      </trkpt>
      <trkpt lat="47.83294" lon="6.95742">
        <ele>607</ele>
        <time>2026-05-09T04:31:53.881Z</time>
      </trkpt>
      <trkpt lat="47.83294" lon="6.95745">
        <ele>607</ele>
        <time>2026-05-09T04:31:54.881Z</time>
      </trkpt>
      <trkpt lat="47.83294" lon="6.95746">
        <ele>607</ele>
        <time>2026-05-09T04:31:55.882Z</time>
      </trkpt>
      <trkpt lat="47.83294" lon="6.95747">
        <ele>607</ele>
        <time>2026-05-09T04:31:56.882Z</time>
      </trkpt>
      <trkpt lat="47.83294" lon="6.95749">
        <ele>607</ele>
        <time>2026-05-09T04:31:57.881Z</time>
      </trkpt>
      <trkpt lat="47.83294" lon="6.9575">
        <ele>607</ele>
        <time>2026-05-09T04:31:58.881Z</time>
      </trkpt>
      <trkpt lat="47.83295" lon="6.95752">
        <ele>607</ele>
        <time>2026-05-09T04:31:59.881Z</time>
      </trkpt>
      <trkpt lat="47.83295" lon="6.95753">
        <ele>608</ele>
        <time>2026-05-09T04:32:00.881Z</time>
      </trkpt>
      <trkpt lat="47.83295" lon="6.95754">
        <ele>608</ele>
        <time>2026-05-09T04:32:01.882Z</time>
      </trkpt>
      <trkpt lat="47.83295" lon="6.95756">
        <ele>608</ele>
        <time>2026-05-09T04:32:02.881Z</time>
      </trkpt>
      <trkpt lat="47.83296" lon="6.95757">
        <ele>609</ele>
        <time>2026-05-09T04:32:03.882Z</time>
      </trkpt>
      <trkpt lat="47.83297" lon="6.95758">
        <ele>609</ele>
        <time>2026-05-09T04:32:04.881Z</time>
      </trkpt>
      <trkpt lat="47.83298" lon="6.95761">
        <ele>610</ele>
        <time>2026-05-09T04:32:05.882Z</time>
      </trkpt>
      <trkpt lat="47.833" lon="6.95761">
        <ele>610</ele>
        <time>2026-05-09T04:32:06.881Z</time>
      </trkpt>
      <trkpt lat="47.83301" lon="6.95764">
        <ele>610</ele>
        <time>2026-05-09T04:32:07.881Z</time>
      </trkpt>
      <trkpt lat="47.83301" lon="6.95766">
        <ele>611</ele>
        <time>2026-05-09T04:32:08.882Z</time>
      </trkpt>
      <trkpt lat="47.83302" lon="6.95768">
        <ele>612</ele>
        <time>2026-05-09T04:32:09.881Z</time>
      </trkpt>
      <trkpt lat="47.83302" lon="6.95771">
        <ele>612</ele>
        <time>2026-05-09T04:32:10.881Z</time>
      </trkpt>
      <trkpt lat="47.83303" lon="6.95772">
        <ele>613</ele>
        <time>2026-05-09T04:32:11.881Z</time>
      </trkpt>
      <trkpt lat="47.83303" lon="6.95774">
        <ele>613</ele>
        <time>2026-05-09T04:32:12.881Z</time>
      </trkpt>
      <trkpt lat="47.83303" lon="6.95774">
        <ele>613</ele>
        <time>2026-05-09T04:32:13.882Z</time>
      </trkpt>
      <trkpt lat="47.83304" lon="6.95775">
        <ele>613</ele>
        <time>2026-05-09T04:32:14.882Z</time>
      </trkpt>
      <trkpt lat="47.83305" lon="6.95779">
        <ele>613</ele>
        <time>2026-05-09T04:32:15.882Z</time>
      </trkpt>
      <trkpt lat="47.83305" lon="6.95781">
        <ele>613</ele>
        <time>2026-05-09T04:32:16.881Z</time>
      </trkpt>
      <trkpt lat="47.83305" lon="6.95782">
        <ele>613</ele>
        <time>2026-05-09T04:32:17.881Z</time>
      </trkpt>
      <trkpt lat="47.83305" lon="6.95782">
        <ele>613</ele>
        <time>2026-05-09T04:32:18.881Z</time>
      </trkpt>
      <trkpt lat="47.83306" lon="6.95785">
        <ele>613</ele>
        <time>2026-05-09T04:32:19.882Z</time>
      </trkpt>
      <trkpt lat="47.83306" lon="6.95787">
        <ele>613</ele>
        <time>2026-05-09T04:32:20.881Z</time>
      </trkpt>
      <trkpt lat="47.83307" lon="6.95788">
        <ele>612</ele>
        <time>2026-05-09T04:32:21.881Z</time>
      </trkpt>
      <trkpt lat="47.83307" lon="6.9579">
        <ele>612</ele>
        <time>2026-05-09T04:32:22.881Z</time>
      </trkpt>
      <trkpt lat="47.83308" lon="6.95792">
        <ele>612</ele>
        <time>2026-05-09T04:32:23.882Z</time>
      </trkpt>
      <trkpt lat="47.83308" lon="6.95793">
        <ele>612</ele>
        <time>2026-05-09T04:32:24.882Z</time>
      </trkpt>
      <trkpt lat="47.83307" lon="6.95795">
        <ele>612</ele>
        <time>2026-05-09T04:32:25.881Z</time>
      </trkpt>
      <trkpt lat="47.83307" lon="6.95797">
        <ele>612</ele>
        <time>2026-05-09T04:32:26.881Z</time>
      </trkpt>
      <trkpt lat="47.83308" lon="6.95799">
        <ele>611</ele>
        <time>2026-05-09T04:32:27.881Z</time>
      </trkpt>
      <trkpt lat="47.83308" lon="6.958">
        <ele>612</ele>
        <time>2026-05-09T04:32:28.882Z</time>
      </trkpt>
      <trkpt lat="47.83308" lon="6.95801">
        <ele>612</ele>
        <time>2026-05-09T04:32:29.882Z</time>
      </trkpt>
      <trkpt lat="47.83308" lon="6.95803">
        <ele>612</ele>
        <time>2026-05-09T04:32:30.881Z</time>
      </trkpt>
      <trkpt lat="47.83308" lon="6.95805">
        <ele>612</ele>
        <time>2026-05-09T04:32:31.882Z</time>
      </trkpt>
      <trkpt lat="47.83309" lon="6.95806">
        <ele>612</ele>
        <time>2026-05-09T04:32:32.882Z</time>
      </trkpt>
      <trkpt lat="47.83309" lon="6.95807">
        <ele>612</ele>
        <time>2026-05-09T04:32:33.881Z</time>
      </trkpt>
      <trkpt lat="47.83309" lon="6.95807">
        <ele>612</ele>
        <time>2026-05-09T04:32:34.881Z</time>
      </trkpt>
      <trkpt lat="47.83309" lon="6.95811">
        <ele>612</ele>
        <time>2026-05-09T04:32:35.881Z</time>
      </trkpt>
      <trkpt lat="47.83309" lon="6.95812">
        <ele>612</ele>
        <time>2026-05-09T04:32:36.881Z</time>
      </trkpt>
      <trkpt lat="47.83309" lon="6.95814">
        <ele>613</ele>
        <time>2026-05-09T04:32:37.882Z</time>
      </trkpt>
      <trkpt lat="47.83309" lon="6.95816">
        <ele>613</ele>
        <time>2026-05-09T04:32:38.881Z</time>
      </trkpt>
      <trkpt lat="47.83309" lon="6.95818">
        <ele>613</ele>
        <time>2026-05-09T04:32:39.882Z</time>
      </trkpt>
      <trkpt lat="47.83309" lon="6.95819">
        <ele>613</ele>
        <time>2026-05-09T04:32:40.881Z</time>
      </trkpt>
      <trkpt lat="47.83309" lon="6.95821">
        <ele>613</ele>
        <time>2026-05-09T04:32:41.881Z</time>
      </trkpt>
      <trkpt lat="47.83309" lon="6.95823">
        <ele>613</ele>
        <time>2026-05-09T04:32:42.881Z</time>
      </trkpt>
      <trkpt lat="47.83309" lon="6.95823">
        <ele>613</ele>
        <time>2026-05-09T04:32:43.882Z</time>
      </trkpt>
      <trkpt lat="47.8331" lon="6.95826">
        <ele>613</ele>
        <time>2026-05-09T04:32:44.881Z</time>
      </trkpt>
      <trkpt lat="47.8331" lon="6.95828">
        <ele>613</ele>
        <time>2026-05-09T04:32:45.881Z</time>
      </trkpt>
      <trkpt lat="47.8331" lon="6.95829">
        <ele>613</ele>
        <time>2026-05-09T04:32:46.881Z</time>
      </trkpt>
      <trkpt lat="47.83311" lon="6.95831">
        <ele>613</ele>
        <time>2026-05-09T04:32:47.882Z</time>
      </trkpt>
      <trkpt lat="47.83311" lon="6.95833">
        <ele>613</ele>
        <time>2026-05-09T04:32:48.882Z</time>
      </trkpt>
      <trkpt lat="47.83311" lon="6.95834">
        <ele>613</ele>
        <time>2026-05-09T04:32:49.881Z</time>
      </trkpt>
      <trkpt lat="47.83311" lon="6.95836">
        <ele>613</ele>
        <time>2026-05-09T04:32:50.882Z</time>
      </trkpt>
      <trkpt lat="47.83311" lon="6.95837">
        <ele>613</ele>
        <time>2026-05-09T04:32:51.881Z</time>
      </trkpt>
      <trkpt lat="47.83311" lon="6.95838">
        <ele>613</ele>
        <time>2026-05-09T04:32:52.881Z</time>
      </trkpt>
      <trkpt lat="47.83311" lon="6.95839">
        <ele>613</ele>
        <time>2026-05-09T04:32:53.881Z</time>
      </trkpt>
      <trkpt lat="47.83311" lon="6.95841">
        <ele>613</ele>
        <time>2026-05-09T04:32:54.881Z</time>
      </trkpt>
      <trkpt lat="47.83311" lon="6.95842">
        <ele>613</ele>
        <time>2026-05-09T04:32:55.882Z</time>
      </trkpt>
      <trkpt lat="47.83312" lon="6.95844">
        <ele>613</ele>
        <time>2026-05-09T04:32:56.881Z</time>
      </trkpt>
      <trkpt lat="47.83312" lon="6.95846">
        <ele>613</ele>
        <time>2026-05-09T04:32:57.881Z</time>
      </trkpt>
      <trkpt lat="47.83312" lon="6.95847">
        <ele>613</ele>
        <time>2026-05-09T04:32:58.881Z</time>
      </trkpt>
      <trkpt lat="47.83312" lon="6.95847">
        <ele>613</ele>
        <time>2026-05-09T04:32:59.882Z</time>
      </trkpt>
      <trkpt lat="47.83313" lon="6.9585">
        <ele>613</ele>
        <time>2026-05-09T04:33:00.882Z</time>
      </trkpt>
      <trkpt lat="47.83313" lon="6.95852">
        <ele>613</ele>
        <time>2026-05-09T04:33:01.881Z</time>
      </trkpt>
      <trkpt lat="47.83314" lon="6.95854">
        <ele>613</ele>
        <time>2026-05-09T04:33:02.881Z</time>
      </trkpt>
      <trkpt lat="47.83314" lon="6.95854">
        <ele>613</ele>
        <time>2026-05-09T04:33:03.881Z</time>
      </trkpt>
      <trkpt lat="47.83315" lon="6.95857">
        <ele>613</ele>
        <time>2026-05-09T04:33:04.881Z</time>
      </trkpt>
      <trkpt lat="47.83315" lon="6.95858">
        <ele>613</ele>
        <time>2026-05-09T04:33:05.882Z</time>
      </trkpt>
      <trkpt lat="47.83315" lon="6.9586">
        <ele>613</ele>
        <time>2026-05-09T04:33:06.881Z</time>
      </trkpt>
      <trkpt lat="47.83315" lon="6.95862">
        <ele>613</ele>
        <time>2026-05-09T04:33:07.881Z</time>
      </trkpt>
      <trkpt lat="47.83315" lon="6.95863">
        <ele>613</ele>
        <time>2026-05-09T04:33:08.881Z</time>
      </trkpt>
      <trkpt lat="47.83315" lon="6.95865">
        <ele>613</ele>
        <time>2026-05-09T04:33:09.882Z</time>
      </trkpt>
      <trkpt lat="47.83315" lon="6.95867">
        <ele>613</ele>
        <time>2026-05-09T04:33:10.882Z</time>
      </trkpt>
      <trkpt lat="47.83315" lon="6.95868">
        <ele>613</ele>
        <time>2026-05-09T04:33:11.882Z</time>
      </trkpt>
      <trkpt lat="47.83315" lon="6.95869">
        <ele>613</ele>
        <time>2026-05-09T04:33:12.882Z</time>
      </trkpt>
      <trkpt lat="47.83316" lon="6.9587">
        <ele>612</ele>
        <time>2026-05-09T04:33:13.881Z</time>
      </trkpt>
      <trkpt lat="47.83316" lon="6.95872">
        <ele>612</ele>
        <time>2026-05-09T04:33:14.881Z</time>
      </trkpt>
      <trkpt lat="47.83316" lon="6.95873">
        <ele>612</ele>
        <time>2026-05-09T04:33:15.881Z</time>
      </trkpt>
      <trkpt lat="47.83316" lon="6.95875">
        <ele>612</ele>
        <time>2026-05-09T04:33:16.881Z</time>
      </trkpt>
      <trkpt lat="47.83316" lon="6.95877">
        <ele>612</ele>
        <time>2026-05-09T04:33:17.881Z</time>
      </trkpt>
      <trkpt lat="47.83316" lon="6.95879">
        <ele>612</ele>
        <time>2026-05-09T04:33:18.881Z</time>
      </trkpt>
      <trkpt lat="47.83317" lon="6.9588">
        <ele>612</ele>
        <time>2026-05-09T04:33:19.882Z</time>
      </trkpt>
      <trkpt lat="47.83317" lon="6.95882">
        <ele>612</ele>
        <time>2026-05-09T04:33:20.881Z</time>
      </trkpt>
      <trkpt lat="47.83317" lon="6.95883">
        <ele>613</ele>
        <time>2026-05-09T04:33:21.881Z</time>
      </trkpt>
      <trkpt lat="47.83317" lon="6.95885">
        <ele>613</ele>
        <time>2026-05-09T04:33:22.882Z</time>
      </trkpt>
      <trkpt lat="47.83318" lon="6.95886">
        <ele>613</ele>
        <time>2026-05-09T04:33:23.882Z</time>
      </trkpt>
      <trkpt lat="47.83318" lon="6.95886">
        <ele>613</ele>
        <time>2026-05-09T04:33:24.882Z</time>
      </trkpt>
      <trkpt lat="47.83319" lon="6.95888">
        <ele>613</ele>
        <time>2026-05-09T04:33:25.882Z</time>
      </trkpt>
      <trkpt lat="47.83319" lon="6.9589">
        <ele>613</ele>
        <time>2026-05-09T04:33:26.881Z</time>
      </trkpt>
      <trkpt lat="47.8332" lon="6.95892">
        <ele>614</ele>
        <time>2026-05-09T04:33:27.881Z</time>
      </trkpt>
      <trkpt lat="47.8332" lon="6.95892">
        <ele>614</ele>
        <time>2026-05-09T04:33:28.882Z</time>
      </trkpt>
      <trkpt lat="47.8332" lon="6.95895">
        <ele>614</ele>
        <time>2026-05-09T04:33:29.881Z</time>
      </trkpt>
      <trkpt lat="47.8332" lon="6.95897">
        <ele>614</ele>
        <time>2026-05-09T04:33:30.882Z</time>
      </trkpt>
      <trkpt lat="47.83321" lon="6.95898">
        <ele>614</ele>
        <time>2026-05-09T04:33:31.881Z</time>
      </trkpt>
      <trkpt lat="47.8332" lon="6.959">
        <ele>614</ele>
        <time>2026-05-09T04:33:32.881Z</time>
      </trkpt>
      <trkpt lat="47.83321" lon="6.95901">
        <ele>614</ele>
        <time>2026-05-09T04:33:33.881Z</time>
      </trkpt>
      <trkpt lat="47.8332" lon="6.95903">
        <ele>614</ele>
        <time>2026-05-09T04:33:34.881Z</time>
      </trkpt>
      <trkpt lat="47.8332" lon="6.95905">
        <ele>615</ele>
        <time>2026-05-09T04:33:35.882Z</time>
      </trkpt>
      <trkpt lat="47.8332" lon="6.95907">
        <ele>615</ele>
        <time>2026-05-09T04:33:36.881Z</time>
      </trkpt>
      <trkpt lat="47.8332" lon="6.95908">
        <ele>615</ele>
        <time>2026-05-09T04:33:37.882Z</time>
      </trkpt>
      <trkpt lat="47.8332" lon="6.9591">
        <ele>615</ele>
        <time>2026-05-09T04:33:38.881Z</time>
      </trkpt>
      <trkpt lat="47.8332" lon="6.95912">
        <ele>615</ele>
        <time>2026-05-09T04:33:39.881Z</time>
      </trkpt>
      <trkpt lat="47.83319" lon="6.95914">
        <ele>616</ele>
        <time>2026-05-09T04:33:40.881Z</time>
      </trkpt>
      <trkpt lat="47.83319" lon="6.95915">
        <ele>616</ele>
        <time>2026-05-09T04:33:41.881Z</time>
      </trkpt>
      <trkpt lat="47.83319" lon="6.95917">
        <ele>616</ele>
        <time>2026-05-09T04:33:42.882Z</time>
      </trkpt>
      <trkpt lat="47.83319" lon="6.95919">
        <ele>616</ele>
        <time>2026-05-09T04:33:43.881Z</time>
      </trkpt>
      <trkpt lat="47.83318" lon="6.95921">
        <ele>617</ele>
        <time>2026-05-09T04:33:44.881Z</time>
      </trkpt>
      <trkpt lat="47.83318" lon="6.95923">
        <ele>617</ele>
        <time>2026-05-09T04:33:45.881Z</time>
      </trkpt>
      <trkpt lat="47.83318" lon="6.95924">
        <ele>617</ele>
        <time>2026-05-09T04:33:46.881Z</time>
      </trkpt>
      <trkpt lat="47.83319" lon="6.95926">
        <ele>617</ele>
        <time>2026-05-09T04:33:47.881Z</time>
      </trkpt>
      <trkpt lat="47.83318" lon="6.95927">
        <ele>617</ele>
        <time>2026-05-09T04:33:48.882Z</time>
      </trkpt>
      <trkpt lat="47.83318" lon="6.95927">
        <ele>617</ele>
        <time>2026-05-09T04:33:49.882Z</time>
      </trkpt>
      <trkpt lat="47.83319" lon="6.95931">
        <ele>617</ele>
        <time>2026-05-09T04:33:50.881Z</time>
      </trkpt>
      <trkpt lat="47.8332" lon="6.95933">
        <ele>617</ele>
        <time>2026-05-09T04:33:51.881Z</time>
      </trkpt>
      <trkpt lat="47.83321" lon="6.95934">
        <ele>617</ele>
        <time>2026-05-09T04:33:52.881Z</time>
      </trkpt>
      <trkpt lat="47.83321" lon="6.95934">
        <ele>617</ele>
        <time>2026-05-09T04:33:53.882Z</time>
      </trkpt>
      <trkpt lat="47.83323" lon="6.95936">
        <ele>616</ele>
        <time>2026-05-09T04:33:54.881Z</time>
      </trkpt>
      <trkpt lat="47.83323" lon="6.95938">
        <ele>616</ele>
        <time>2026-05-09T04:33:55.881Z</time>
      </trkpt>
      <trkpt lat="47.83323" lon="6.95939">
        <ele>616</ele>
        <time>2026-05-09T04:33:56.881Z</time>
      </trkpt>
      <trkpt lat="47.83323" lon="6.95941">
        <ele>616</ele>
        <time>2026-05-09T04:33:57.881Z</time>
      </trkpt>
      <trkpt lat="47.83323" lon="6.95943">
        <ele>616</ele>
        <time>2026-05-09T04:33:58.881Z</time>
      </trkpt>
      <trkpt lat="47.83323" lon="6.95945">
        <ele>617</ele>
        <time>2026-05-09T04:33:59.881Z</time>
      </trkpt>
      <trkpt lat="47.83323" lon="6.95946">
        <ele>617</ele>
        <time>2026-05-09T04:34:00.882Z</time>
      </trkpt>
      <trkpt lat="47.83324" lon="6.95948">
        <ele>617</ele>
        <time>2026-05-09T04:34:01.881Z</time>
      </trkpt>
      <trkpt lat="47.83325" lon="6.95949">
        <ele>617</ele>
        <time>2026-05-09T04:34:02.881Z</time>
      </trkpt>
      <trkpt lat="47.83325" lon="6.95951">
        <ele>617</ele>
        <time>2026-05-09T04:34:03.881Z</time>
      </trkpt>
      <trkpt lat="47.83325" lon="6.95952">
        <ele>617</ele>
        <time>2026-05-09T04:34:04.881Z</time>
      </trkpt>
      <trkpt lat="47.83325" lon="6.95953">
        <ele>618</ele>
        <time>2026-05-09T04:34:05.882Z</time>
      </trkpt>
      <trkpt lat="47.83326" lon="6.95955">
        <ele>618</ele>
        <time>2026-05-09T04:34:06.881Z</time>
      </trkpt>
      <trkpt lat="47.83326" lon="6.95955">
        <ele>618</ele>
        <time>2026-05-09T04:34:07.881Z</time>
      </trkpt>
      <trkpt lat="47.83326" lon="6.95956">
        <ele>618</ele>
        <time>2026-05-09T04:34:08.881Z</time>
      </trkpt>
      <trkpt lat="47.83326" lon="6.95956">
        <ele>618</ele>
        <time>2026-05-09T04:34:09.881Z</time>
      </trkpt>
      <trkpt lat="47.83326" lon="6.95958">
        <ele>618</ele>
        <time>2026-05-09T04:34:10.882Z</time>
      </trkpt>
      <trkpt lat="47.83326" lon="6.9596">
        <ele>618</ele>
        <time>2026-05-09T04:34:11.881Z</time>
      </trkpt>
      <trkpt lat="47.83326" lon="6.95961">
        <ele>618</ele>
        <time>2026-05-09T04:34:12.881Z</time>
      </trkpt>
      <trkpt lat="47.83327" lon="6.95962">
        <ele>618</ele>
        <time>2026-05-09T04:34:13.881Z</time>
      </trkpt>
      <trkpt lat="47.83327" lon="6.95962">
        <ele>618</ele>
        <time>2026-05-09T04:34:14.881Z</time>
      </trkpt>
      <trkpt lat="47.83328" lon="6.95965">
        <ele>619</ele>
        <time>2026-05-09T04:34:15.881Z</time>
      </trkpt>
      <trkpt lat="47.83328" lon="6.95966">
        <ele>619</ele>
        <time>2026-05-09T04:34:16.881Z</time>
      </trkpt>
      <trkpt lat="47.83329" lon="6.95968">
        <ele>619</ele>
        <time>2026-05-09T04:34:17.881Z</time>
      </trkpt>
      <trkpt lat="47.83329" lon="6.95968">
        <ele>619</ele>
        <time>2026-05-09T04:34:18.881Z</time>
      </trkpt>
      <trkpt lat="47.8333" lon="6.95971">
        <ele>620</ele>
        <time>2026-05-09T04:34:19.881Z</time>
      </trkpt>
      <trkpt lat="47.83331" lon="6.95973">
        <ele>620</ele>
        <time>2026-05-09T04:34:20.881Z</time>
      </trkpt>
      <trkpt lat="47.83331" lon="6.95975">
        <ele>620</ele>
        <time>2026-05-09T04:34:21.881Z</time>
      </trkpt>
      <trkpt lat="47.83332" lon="6.95977">
        <ele>620</ele>
        <time>2026-05-09T04:34:22.881Z</time>
      </trkpt>
      <trkpt lat="47.83332" lon="6.95978">
        <ele>620</ele>
        <time>2026-05-09T04:34:23.881Z</time>
      </trkpt>
      <trkpt lat="47.83333" lon="6.9598">
        <ele>620</ele>
        <time>2026-05-09T04:34:24.881Z</time>
      </trkpt>
      <trkpt lat="47.83334" lon="6.95982">
        <ele>620</ele>
        <time>2026-05-09T04:34:25.882Z</time>
      </trkpt>
      <trkpt lat="47.83334" lon="6.95984">
        <ele>620</ele>
        <time>2026-05-09T04:34:26.882Z</time>
      </trkpt>
      <trkpt lat="47.83335" lon="6.95985">
        <ele>620</ele>
        <time>2026-05-09T04:34:27.881Z</time>
      </trkpt>
      <trkpt lat="47.83335" lon="6.95986">
        <ele>620</ele>
        <time>2026-05-09T04:34:28.881Z</time>
      </trkpt>
      <trkpt lat="47.83336" lon="6.95987">
        <ele>621</ele>
        <time>2026-05-09T04:34:29.881Z</time>
      </trkpt>
      <trkpt lat="47.83336" lon="6.95989">
        <ele>621</ele>
        <time>2026-05-09T04:34:30.881Z</time>
      </trkpt>
      <trkpt lat="47.83336" lon="6.9599">
        <ele>621</ele>
        <time>2026-05-09T04:34:31.881Z</time>
      </trkpt>
      <trkpt lat="47.83336" lon="6.95993">
        <ele>621</ele>
        <time>2026-05-09T04:34:32.881Z</time>
      </trkpt>
      <trkpt lat="47.83336" lon="6.95995">
        <ele>621</ele>
        <time>2026-05-09T04:34:33.881Z</time>
      </trkpt>
      <trkpt lat="47.83336" lon="6.95995">
        <ele>621</ele>
        <time>2026-05-09T04:34:34.881Z</time>
      </trkpt>
      <trkpt lat="47.83337" lon="6.95999">
        <ele>621</ele>
        <time>2026-05-09T04:34:35.881Z</time>
      </trkpt>
      <trkpt lat="47.83337" lon="6.96001">
        <ele>622</ele>
        <time>2026-05-09T04:34:36.881Z</time>
      </trkpt>
      <trkpt lat="47.83337" lon="6.96003">
        <ele>622</ele>
        <time>2026-05-09T04:34:37.881Z</time>
      </trkpt>
      <trkpt lat="47.83337" lon="6.96003">
        <ele>622</ele>
        <time>2026-05-09T04:34:38.882Z</time>
      </trkpt>
      <trkpt lat="47.83338" lon="6.96007">
        <ele>622</ele>
        <time>2026-05-09T04:34:39.882Z</time>
      </trkpt>
      <trkpt lat="47.83338" lon="6.96008">
        <ele>622</ele>
        <time>2026-05-09T04:34:40.881Z</time>
      </trkpt>
      <trkpt lat="47.83338" lon="6.9601">
        <ele>622</ele>
        <time>2026-05-09T04:34:41.882Z</time>
      </trkpt>
      <trkpt lat="47.83339" lon="6.96012">
        <ele>622</ele>
        <time>2026-05-09T04:34:42.881Z</time>
      </trkpt>
      <trkpt lat="47.83339" lon="6.96012">
        <ele>622</ele>
        <time>2026-05-09T04:34:43.881Z</time>
      </trkpt>
      <trkpt lat="47.83339" lon="6.96015">
        <ele>622</ele>
        <time>2026-05-09T04:34:44.881Z</time>
      </trkpt>
      <trkpt lat="47.8334" lon="6.96016">
        <ele>622</ele>
        <time>2026-05-09T04:34:45.882Z</time>
      </trkpt>
      <trkpt lat="47.8334" lon="6.96018">
        <ele>622</ele>
        <time>2026-05-09T04:34:46.881Z</time>
      </trkpt>
      <trkpt lat="47.83341" lon="6.96019">
        <ele>623</ele>
        <time>2026-05-09T04:34:47.882Z</time>
      </trkpt>
      <trkpt lat="47.83341" lon="6.96021">
        <ele>623</ele>
        <time>2026-05-09T04:34:48.882Z</time>
      </trkpt>
      <trkpt lat="47.83341" lon="6.96022">
        <ele>623</ele>
        <time>2026-05-09T04:34:49.881Z</time>
      </trkpt>
      <trkpt lat="47.83341" lon="6.96023">
        <ele>623</ele>
        <time>2026-05-09T04:34:50.881Z</time>
      </trkpt>
      <trkpt lat="47.83341" lon="6.96025">
        <ele>623</ele>
        <time>2026-05-09T04:34:51.882Z</time>
      </trkpt>
      <trkpt lat="47.83341" lon="6.96027">
        <ele>623</ele>
        <time>2026-05-09T04:34:52.882Z</time>
      </trkpt>
      <trkpt lat="47.83341" lon="6.96028">
        <ele>623</ele>
        <time>2026-05-09T04:34:53.881Z</time>
      </trkpt>
      <trkpt lat="47.83341" lon="6.9603">
        <ele>622</ele>
        <time>2026-05-09T04:34:54.882Z</time>
      </trkpt>
      <trkpt lat="47.83341" lon="6.96032">
        <ele>622</ele>
        <time>2026-05-09T04:34:55.881Z</time>
      </trkpt>
      <trkpt lat="47.83341" lon="6.96033">
        <ele>622</ele>
        <time>2026-05-09T04:34:56.882Z</time>
      </trkpt>
      <trkpt lat="47.83341" lon="6.96035">
        <ele>622</ele>
        <time>2026-05-09T04:34:57.881Z</time>
      </trkpt>
      <trkpt lat="47.8334" lon="6.96037">
        <ele>622</ele>
        <time>2026-05-09T04:34:58.881Z</time>
      </trkpt>
      <trkpt lat="47.8334" lon="6.96037">
        <ele>622</ele>
        <time>2026-05-09T04:34:59.881Z</time>
      </trkpt>
      <trkpt lat="47.8334" lon="6.96041">
        <ele>622</ele>
        <time>2026-05-09T04:35:00.881Z</time>
      </trkpt>
      <trkpt lat="47.8334" lon="6.96043">
        <ele>622</ele>
        <time>2026-05-09T04:35:01.881Z</time>
      </trkpt>
      <trkpt lat="47.8334" lon="6.96044">
        <ele>622</ele>
        <time>2026-05-09T04:35:02.882Z</time>
      </trkpt>
      <trkpt lat="47.8334" lon="6.96044">
        <ele>622</ele>
        <time>2026-05-09T04:35:03.882Z</time>
      </trkpt>
      <trkpt lat="47.83339" lon="6.96047">
        <ele>622</ele>
        <time>2026-05-09T04:35:04.881Z</time>
      </trkpt>
      <trkpt lat="47.83338" lon="6.9605">
        <ele>622</ele>
        <time>2026-05-09T04:35:05.881Z</time>
      </trkpt>
      <trkpt lat="47.83338" lon="6.96051">
        <ele>622</ele>
        <time>2026-05-09T04:35:06.881Z</time>
      </trkpt>
      <trkpt lat="47.83337" lon="6.96053">
        <ele>622</ele>
        <time>2026-05-09T04:35:07.881Z</time>
      </trkpt>
      <trkpt lat="47.83337" lon="6.96054">
        <ele>622</ele>
        <time>2026-05-09T04:35:08.881Z</time>
      </trkpt>
      <trkpt lat="47.83337" lon="6.96056">
        <ele>622</ele>
        <time>2026-05-09T04:35:09.881Z</time>
      </trkpt>
      <trkpt lat="47.83338" lon="6.96058">
        <ele>622</ele>
        <time>2026-05-09T04:35:10.881Z</time>
      </trkpt>
      <trkpt lat="47.83338" lon="6.9606">
        <ele>622</ele>
        <time>2026-05-09T04:35:11.881Z</time>
      </trkpt>
      <trkpt lat="47.83338" lon="6.96062">
        <ele>622</ele>
        <time>2026-05-09T04:35:12.882Z</time>
      </trkpt>
      <trkpt lat="47.83337" lon="6.96064">
        <ele>622</ele>
        <time>2026-05-09T04:35:13.881Z</time>
      </trkpt>
      <trkpt lat="47.83337" lon="6.96066">
        <ele>622</ele>
        <time>2026-05-09T04:35:14.881Z</time>
      </trkpt>
      <trkpt lat="47.83336" lon="6.96068">
        <ele>623</ele>
        <time>2026-05-09T04:35:15.882Z</time>
      </trkpt>
      <trkpt lat="47.83336" lon="6.96069">
        <ele>623</ele>
        <time>2026-05-09T04:35:16.881Z</time>
      </trkpt>
      <trkpt lat="47.83336" lon="6.96071">
        <ele>623</ele>
        <time>2026-05-09T04:35:17.881Z</time>
      </trkpt>
      <trkpt lat="47.83336" lon="6.96073">
        <ele>623</ele>
        <time>2026-05-09T04:35:18.881Z</time>
      </trkpt>
      <trkpt lat="47.83335" lon="6.96075">
        <ele>624</ele>
        <time>2026-05-09T04:35:19.881Z</time>
      </trkpt>
      <trkpt lat="47.83335" lon="6.96076">
        <ele>624</ele>
        <time>2026-05-09T04:35:20.882Z</time>
      </trkpt>
      <trkpt lat="47.83334" lon="6.96078">
        <ele>624</ele>
        <time>2026-05-09T04:35:21.881Z</time>
      </trkpt>
      <trkpt lat="47.83334" lon="6.9608">
        <ele>623</ele>
        <time>2026-05-09T04:35:22.881Z</time>
      </trkpt>
      <trkpt lat="47.83333" lon="6.96083">
        <ele>623</ele>
        <time>2026-05-09T04:35:23.881Z</time>
      </trkpt>
      <trkpt lat="47.83333" lon="6.96083">
        <ele>623</ele>
        <time>2026-05-09T04:35:24.881Z</time>
      </trkpt>
      <trkpt lat="47.83335" lon="6.96085">
        <ele>623</ele>
        <time>2026-05-09T04:35:25.882Z</time>
      </trkpt>
      <trkpt lat="47.83335" lon="6.96087">
        <ele>623</ele>
        <time>2026-05-09T04:35:26.881Z</time>
      </trkpt>
      <trkpt lat="47.83336" lon="6.96088">
        <ele>622</ele>
        <time>2026-05-09T04:35:27.881Z</time>
      </trkpt>
      <trkpt lat="47.83336" lon="6.96088">
        <ele>622</ele>
        <time>2026-05-09T04:35:28.882Z</time>
      </trkpt>
      <trkpt lat="47.83336" lon="6.96091">
        <ele>622</ele>
        <time>2026-05-09T04:35:29.881Z</time>
      </trkpt>
      <trkpt lat="47.83336" lon="6.96093">
        <ele>622</ele>
        <time>2026-05-09T04:35:30.881Z</time>
      </trkpt>
      <trkpt lat="47.83337" lon="6.96095">
        <ele>622</ele>
        <time>2026-05-09T04:35:31.882Z</time>
      </trkpt>
      <trkpt lat="47.83337" lon="6.96097">
        <ele>622</ele>
        <time>2026-05-09T04:35:32.881Z</time>
      </trkpt>
      <trkpt lat="47.83337" lon="6.96098">
        <ele>622</ele>
        <time>2026-05-09T04:35:33.881Z</time>
      </trkpt>
      <trkpt lat="47.83338" lon="6.961">
        <ele>622</ele>
        <time>2026-05-09T04:35:34.881Z</time>
      </trkpt>
      <trkpt lat="47.83338" lon="6.96101">
        <ele>622</ele>
        <time>2026-05-09T04:35:35.881Z</time>
      </trkpt>
      <trkpt lat="47.83338" lon="6.96103">
        <ele>622</ele>
        <time>2026-05-09T04:35:36.882Z</time>
      </trkpt>
      <trkpt lat="47.83339" lon="6.96105">
        <ele>623</ele>
        <time>2026-05-09T04:35:37.882Z</time>
      </trkpt>
      <trkpt lat="47.83339" lon="6.96106">
        <ele>623</ele>
        <time>2026-05-09T04:35:38.881Z</time>
      </trkpt>
      <trkpt lat="47.8334" lon="6.96108">
        <ele>623</ele>
        <time>2026-05-09T04:35:39.881Z</time>
      </trkpt>
      <trkpt lat="47.8334" lon="6.9611">
        <ele>623</ele>
        <time>2026-05-09T04:35:40.881Z</time>
      </trkpt>
      <trkpt lat="47.83341" lon="6.96112">
        <ele>623</ele>
        <time>2026-05-09T04:35:41.881Z</time>
      </trkpt>
      <trkpt lat="47.8334" lon="6.96114">
        <ele>623</ele>
        <time>2026-05-09T04:35:42.882Z</time>
      </trkpt>
      <trkpt lat="47.8334" lon="6.96116">
        <ele>624</ele>
        <time>2026-05-09T04:35:43.881Z</time>
      </trkpt>
      <trkpt lat="47.8334" lon="6.96117">
        <ele>624</ele>
        <time>2026-05-09T04:35:44.881Z</time>
      </trkpt>
      <trkpt lat="47.8334" lon="6.96119">
        <ele>624</ele>
        <time>2026-05-09T04:35:45.881Z</time>
      </trkpt>
      <trkpt lat="47.83341" lon="6.96121">
        <ele>625</ele>
        <time>2026-05-09T04:35:46.881Z</time>
      </trkpt>
      <trkpt lat="47.83341" lon="6.96123">
        <ele>625</ele>
        <time>2026-05-09T04:35:47.881Z</time>
      </trkpt>
      <trkpt lat="47.83342" lon="6.96124">
        <ele>626</ele>
        <time>2026-05-09T04:35:48.881Z</time>
      </trkpt>
      <trkpt lat="47.83342" lon="6.96124">
        <ele>626</ele>
        <time>2026-05-09T04:35:49.881Z</time>
      </trkpt>
      <trkpt lat="47.83342" lon="6.96126">
        <ele>626</ele>
        <time>2026-05-09T04:35:50.881Z</time>
      </trkpt>
      <trkpt lat="47.83342" lon="6.96128">
        <ele>626</ele>
        <time>2026-05-09T04:35:51.881Z</time>
      </trkpt>
      <trkpt lat="47.83343" lon="6.96129">
        <ele>626</ele>
        <time>2026-05-09T04:35:52.881Z</time>
      </trkpt>
      <trkpt lat="47.83343" lon="6.96129">
        <ele>626</ele>
        <time>2026-05-09T04:35:53.882Z</time>
      </trkpt>
      <trkpt lat="47.83344" lon="6.96132">
        <ele>625</ele>
        <time>2026-05-09T04:35:54.881Z</time>
      </trkpt>
      <trkpt lat="47.83344" lon="6.96133">
        <ele>625</ele>
        <time>2026-05-09T04:35:55.881Z</time>
      </trkpt>
      <trkpt lat="47.83345" lon="6.96135">
        <ele>625</ele>
        <time>2026-05-09T04:35:56.881Z</time>
      </trkpt>
      <trkpt lat="47.83345" lon="6.96136">
        <ele>625</ele>
        <time>2026-05-09T04:35:57.881Z</time>
      </trkpt>
      <trkpt lat="47.83345" lon="6.96138">
        <ele>625</ele>
        <time>2026-05-09T04:35:58.881Z</time>
      </trkpt>
      <trkpt lat="47.83345" lon="6.96139">
        <ele>624</ele>
        <time>2026-05-09T04:35:59.881Z</time>
      </trkpt>
      <trkpt lat="47.83345" lon="6.96141">
        <ele>624</ele>
        <time>2026-05-09T04:36:00.882Z</time>
      </trkpt>
      <trkpt lat="47.83345" lon="6.96143">
        <ele>624</ele>
        <time>2026-05-09T04:36:01.881Z</time>
      </trkpt>
      <trkpt lat="47.83345" lon="6.96144">
        <ele>624</ele>
        <time>2026-05-09T04:36:02.881Z</time>
      </trkpt>
      <trkpt lat="47.83346" lon="6.96146">
        <ele>624</ele>
        <time>2026-05-09T04:36:03.881Z</time>
      </trkpt>
      <trkpt lat="47.83346" lon="6.96147">
        <ele>624</ele>
        <time>2026-05-09T04:36:04.882Z</time>
      </trkpt>
      <trkpt lat="47.83346" lon="6.96148">
        <ele>623</ele>
        <time>2026-05-09T04:36:05.881Z</time>
      </trkpt>
      <trkpt lat="47.83347" lon="6.9615">
        <ele>623</ele>
        <time>2026-05-09T04:36:06.881Z</time>
      </trkpt>
      <trkpt lat="47.83346" lon="6.96152">
        <ele>623</ele>
        <time>2026-05-09T04:36:07.881Z</time>
      </trkpt>
      <trkpt lat="47.83346" lon="6.96154">
        <ele>623</ele>
        <time>2026-05-09T04:36:08.881Z</time>
      </trkpt>
      <trkpt lat="47.83346" lon="6.96154">
        <ele>623</ele>
        <time>2026-05-09T04:36:09.881Z</time>
      </trkpt>
      <trkpt lat="47.83346" lon="6.96157">
        <ele>623</ele>
        <time>2026-05-09T04:36:10.881Z</time>
      </trkpt>
      <trkpt lat="47.83346" lon="6.96158">
        <ele>623</ele>
        <time>2026-05-09T04:36:11.881Z</time>
      </trkpt>
      <trkpt lat="47.83347" lon="6.96159">
        <ele>623</ele>
        <time>2026-05-09T04:36:12.882Z</time>
      </trkpt>
      <trkpt lat="47.83347" lon="6.96161">
        <ele>623</ele>
        <time>2026-05-09T04:36:13.881Z</time>
      </trkpt>
      <trkpt lat="47.83347" lon="6.96161">
        <ele>623</ele>
        <time>2026-05-09T04:36:14.882Z</time>
      </trkpt>
      <trkpt lat="47.83347" lon="6.96164">
        <ele>623</ele>
        <time>2026-05-09T04:36:15.881Z</time>
      </trkpt>
      <trkpt lat="47.83347" lon="6.96166">
        <ele>623</ele>
        <time>2026-05-09T04:36:16.881Z</time>
      </trkpt>
      <trkpt lat="47.83348" lon="6.96168">
        <ele>624</ele>
        <time>2026-05-09T04:36:17.882Z</time>
      </trkpt>
      <trkpt lat="47.83348" lon="6.96168">
        <ele>624</ele>
        <time>2026-05-09T04:36:18.881Z</time>
      </trkpt>
      <trkpt lat="47.83348" lon="6.96171">
        <ele>624</ele>
        <time>2026-05-09T04:36:19.881Z</time>
      </trkpt>
      <trkpt lat="47.83347" lon="6.96174">
        <ele>624</ele>
        <time>2026-05-09T04:36:20.881Z</time>
      </trkpt>
      <trkpt lat="47.83347" lon="6.96176">
        <ele>624</ele>
        <time>2026-05-09T04:36:21.881Z</time>
      </trkpt>
      <trkpt lat="47.83347" lon="6.96177">
        <ele>624</ele>
        <time>2026-05-09T04:36:22.881Z</time>
      </trkpt>
      <trkpt lat="47.83347" lon="6.96179">
        <ele>624</ele>
        <time>2026-05-09T04:36:23.881Z</time>
      </trkpt>
      <trkpt lat="47.83346" lon="6.96181">
        <ele>624</ele>
        <time>2026-05-09T04:36:24.882Z</time>
      </trkpt>
      <trkpt lat="47.83346" lon="6.96183">
        <ele>624</ele>
        <time>2026-05-09T04:36:25.881Z</time>
      </trkpt>
      <trkpt lat="47.83346" lon="6.96184">
        <ele>624</ele>
        <time>2026-05-09T04:36:26.882Z</time>
      </trkpt>
      <trkpt lat="47.83346" lon="6.96186">
        <ele>625</ele>
        <time>2026-05-09T04:36:27.882Z</time>
      </trkpt>
      <trkpt lat="47.83346" lon="6.96187">
        <ele>625</ele>
        <time>2026-05-09T04:36:28.881Z</time>
      </trkpt>
      <trkpt lat="47.83346" lon="6.96189">
        <ele>625</ele>
        <time>2026-05-09T04:36:29.881Z</time>
      </trkpt>
      <trkpt lat="47.83346" lon="6.9619">
        <ele>625</ele>
        <time>2026-05-09T04:36:30.881Z</time>
      </trkpt>
      <trkpt lat="47.83346" lon="6.96192">
        <ele>625</ele>
        <time>2026-05-09T04:36:31.881Z</time>
      </trkpt>
      <trkpt lat="47.83345" lon="6.96194">
        <ele>625</ele>
        <time>2026-05-09T04:36:32.881Z</time>
      </trkpt>
      <trkpt lat="47.83345" lon="6.96195">
        <ele>625</ele>
        <time>2026-05-09T04:36:33.882Z</time>
      </trkpt>
      <trkpt lat="47.83345" lon="6.96195">
        <ele>625</ele>
        <time>2026-05-09T04:36:34.882Z</time>
      </trkpt>
      <trkpt lat="47.83345" lon="6.96198">
        <ele>626</ele>
        <time>2026-05-09T04:36:35.881Z</time>
      </trkpt>
      <trkpt lat="47.83344" lon="6.962">
        <ele>627</ele>
        <time>2026-05-09T04:36:36.882Z</time>
      </trkpt>
      <trkpt lat="47.83344" lon="6.96202">
        <ele>627</ele>
        <time>2026-05-09T04:36:37.881Z</time>
      </trkpt>
      <trkpt lat="47.83344" lon="6.96202">
        <ele>627</ele>
        <time>2026-05-09T04:36:38.881Z</time>
      </trkpt>
      <trkpt lat="47.83343" lon="6.96205">
        <ele>627</ele>
        <time>2026-05-09T04:36:39.882Z</time>
      </trkpt>
      <trkpt lat="47.83343" lon="6.96206">
        <ele>626</ele>
        <time>2026-05-09T04:36:40.881Z</time>
      </trkpt>
      <trkpt lat="47.83342" lon="6.96208">
        <ele>626</ele>
        <time>2026-05-09T04:36:41.881Z</time>
      </trkpt>
      <trkpt lat="47.83342" lon="6.96209">
        <ele>626</ele>
        <time>2026-05-09T04:36:42.881Z</time>
      </trkpt>
      <trkpt lat="47.83342" lon="6.96209">
        <ele>626</ele>
        <time>2026-05-09T04:36:43.881Z</time>
      </trkpt>
      <trkpt lat="47.83342" lon="6.96212">
        <ele>626</ele>
        <time>2026-05-09T04:36:44.881Z</time>
      </trkpt>
      <trkpt lat="47.83342" lon="6.96214">
        <ele>626</ele>
        <time>2026-05-09T04:36:45.881Z</time>
      </trkpt>
      <trkpt lat="47.83342" lon="6.96215">
        <ele>626</ele>
        <time>2026-05-09T04:36:46.882Z</time>
      </trkpt>
      <trkpt lat="47.83341" lon="6.96216">
        <ele>626</ele>
        <time>2026-05-09T04:36:47.881Z</time>
      </trkpt>
      <trkpt lat="47.83341" lon="6.96218">
        <ele>626</ele>
        <time>2026-05-09T04:36:48.881Z</time>
      </trkpt>
      <trkpt lat="47.8334" lon="6.96219">
        <ele>627</ele>
        <time>2026-05-09T04:36:49.882Z</time>
      </trkpt>
      <trkpt lat="47.8334" lon="6.96221">
        <ele>627</ele>
        <time>2026-05-09T04:36:50.881Z</time>
      </trkpt>
      <trkpt lat="47.8334" lon="6.96223">
        <ele>627</ele>
        <time>2026-05-09T04:36:51.882Z</time>
      </trkpt>
      <trkpt lat="47.8334" lon="6.96225">
        <ele>627</ele>
        <time>2026-05-09T04:36:52.881Z</time>
      </trkpt>
      <trkpt lat="47.8334" lon="6.96227">
        <ele>627</ele>
        <time>2026-05-09T04:36:53.881Z</time>
      </trkpt>
      <trkpt lat="47.83339" lon="6.96228">
        <ele>628</ele>
        <time>2026-05-09T04:36:54.881Z</time>
      </trkpt>
      <trkpt lat="47.83339" lon="6.96229">
        <ele>628</ele>
        <time>2026-05-09T04:36:55.881Z</time>
      </trkpt>
      <trkpt lat="47.83339" lon="6.96229">
        <ele>628</ele>
        <time>2026-05-09T04:36:56.881Z</time>
      </trkpt>
      <trkpt lat="47.83339" lon="6.96232">
        <ele>628</ele>
        <time>2026-05-09T04:36:57.881Z</time>
      </trkpt>
      <trkpt lat="47.83338" lon="6.96234">
        <ele>629</ele>
        <time>2026-05-09T04:36:58.881Z</time>
      </trkpt>
      <trkpt lat="47.83338" lon="6.96234">
        <ele>629</ele>
        <time>2026-05-09T04:36:59.881Z</time>
      </trkpt>
      <trkpt lat="47.83338" lon="6.96237">
        <ele>630</ele>
        <time>2026-05-09T04:37:00.881Z</time>
      </trkpt>
      <trkpt lat="47.83338" lon="6.96239">
        <ele>630</ele>
        <time>2026-05-09T04:37:01.881Z</time>
      </trkpt>
      <trkpt lat="47.83338" lon="6.9624">
        <ele>631</ele>
        <time>2026-05-09T04:37:02.882Z</time>
      </trkpt>
      <trkpt lat="47.83338" lon="6.9624">
        <ele>631</ele>
        <time>2026-05-09T04:37:03.881Z</time>
      </trkpt>
      <trkpt lat="47.83337" lon="6.96242">
        <ele>631</ele>
        <time>2026-05-09T04:37:04.881Z</time>
      </trkpt>
      <trkpt lat="47.83337" lon="6.96246">
        <ele>632</ele>
        <time>2026-05-09T04:37:05.881Z</time>
      </trkpt>
      <trkpt lat="47.83336" lon="6.96248">
        <ele>632</ele>
        <time>2026-05-09T04:37:06.882Z</time>
      </trkpt>
      <trkpt lat="47.83336" lon="6.96249">
        <ele>632</ele>
        <time>2026-05-09T04:37:07.882Z</time>
      </trkpt>
      <trkpt lat="47.83336" lon="6.9625">
        <ele>632</ele>
        <time>2026-05-09T04:37:08.881Z</time>
      </trkpt>
      <trkpt lat="47.83335" lon="6.96252">
        <ele>632</ele>
        <time>2026-05-09T04:37:09.881Z</time>
      </trkpt>
      <trkpt lat="47.83335" lon="6.96253">
        <ele>632</ele>
        <time>2026-05-09T04:37:10.881Z</time>
      </trkpt>
      <trkpt lat="47.83335" lon="6.96255">
        <ele>632</ele>
        <time>2026-05-09T04:37:11.881Z</time>
      </trkpt>
      <trkpt lat="47.83334" lon="6.96256">
        <ele>632</ele>
        <time>2026-05-09T04:37:12.881Z</time>
      </trkpt>
      <trkpt lat="47.83333" lon="6.96258">
        <ele>632</ele>
        <time>2026-05-09T04:37:13.881Z</time>
      </trkpt>
      <trkpt lat="47.83333" lon="6.96258">
        <ele>632</ele>
        <time>2026-05-09T04:37:14.881Z</time>
      </trkpt>
      <trkpt lat="47.83332" lon="6.96261">
        <ele>632</ele>
        <time>2026-05-09T04:37:15.881Z</time>
      </trkpt>
      <trkpt lat="47.83332" lon="6.96262">
        <ele>632</ele>
        <time>2026-05-09T04:37:16.881Z</time>
      </trkpt>
      <trkpt lat="47.83332" lon="6.96263">
        <ele>632</ele>
        <time>2026-05-09T04:37:17.881Z</time>
      </trkpt>
      <trkpt lat="47.83332" lon="6.96265">
        <ele>632</ele>
        <time>2026-05-09T04:37:18.881Z</time>
      </trkpt>
      <trkpt lat="47.83332" lon="6.96265">
        <ele>632</ele>
        <time>2026-05-09T04:37:19.881Z</time>
      </trkpt>
      <trkpt lat="47.83331" lon="6.96268">
        <ele>632</ele>
        <time>2026-05-09T04:37:20.881Z</time>
      </trkpt>
      <trkpt lat="47.83331" lon="6.9627">
        <ele>632</ele>
        <time>2026-05-09T04:37:21.881Z</time>
      </trkpt>
      <trkpt lat="47.8333" lon="6.96271">
        <ele>632</ele>
        <time>2026-05-09T04:37:22.881Z</time>
      </trkpt>
      <trkpt lat="47.8333" lon="6.96271">
        <ele>632</ele>
        <time>2026-05-09T04:37:23.882Z</time>
      </trkpt>
      <trkpt lat="47.8333" lon="6.96273">
        <ele>632</ele>
        <time>2026-05-09T04:37:24.881Z</time>
      </trkpt>
      <trkpt lat="47.83329" lon="6.96275">
        <ele>632</ele>
        <time>2026-05-09T04:37:25.881Z</time>
      </trkpt>
      <trkpt lat="47.83329" lon="6.96277">
        <ele>633</ele>
        <time>2026-05-09T04:37:26.881Z</time>
      </trkpt>
      <trkpt lat="47.83328" lon="6.96279">
        <ele>633</ele>
        <time>2026-05-09T04:37:27.881Z</time>
      </trkpt>
      <trkpt lat="47.83328" lon="6.96279">
        <ele>633</ele>
        <time>2026-05-09T04:37:28.882Z</time>
      </trkpt>
      <trkpt lat="47.83328" lon="6.96281">
        <ele>633</ele>
        <time>2026-05-09T04:37:29.881Z</time>
      </trkpt>
      <trkpt lat="47.83327" lon="6.96283">
        <ele>633</ele>
        <time>2026-05-09T04:37:30.881Z</time>
      </trkpt>
      <trkpt lat="47.83327" lon="6.96285">
        <ele>633</ele>
        <time>2026-05-09T04:37:31.881Z</time>
      </trkpt>
      <trkpt lat="47.83327" lon="6.96286">
        <ele>633</ele>
        <time>2026-05-09T04:37:32.882Z</time>
      </trkpt>
      <trkpt lat="47.83327" lon="6.96286">
        <ele>633</ele>
        <time>2026-05-09T04:37:33.881Z</time>
      </trkpt>
      <trkpt lat="47.83326" lon="6.96288">
        <ele>633</ele>
        <time>2026-05-09T04:37:34.881Z</time>
      </trkpt>
      <trkpt lat="47.83326" lon="6.9629">
        <ele>633</ele>
        <time>2026-05-09T04:37:35.881Z</time>
      </trkpt>
      <trkpt lat="47.83325" lon="6.96291">
        <ele>633</ele>
        <time>2026-05-09T04:37:36.881Z</time>
      </trkpt>
      <trkpt lat="47.83325" lon="6.96293">
        <ele>632</ele>
        <time>2026-05-09T04:37:37.881Z</time>
      </trkpt>
      <trkpt lat="47.83325" lon="6.96293">
        <ele>632</ele>
        <time>2026-05-09T04:37:38.881Z</time>
      </trkpt>
      <trkpt lat="47.83324" lon="6.96295">
        <ele>632</ele>
        <time>2026-05-09T04:37:39.881Z</time>
      </trkpt>
      <trkpt lat="47.83324" lon="6.96298">
        <ele>632</ele>
        <time>2026-05-09T04:37:40.881Z</time>
      </trkpt>
      <trkpt lat="47.83324" lon="6.96299">
        <ele>633</ele>
        <time>2026-05-09T04:37:41.881Z</time>
      </trkpt>
      <trkpt lat="47.83324" lon="6.96301">
        <ele>633</ele>
        <time>2026-05-09T04:37:42.881Z</time>
      </trkpt>
      <trkpt lat="47.83324" lon="6.96301">
        <ele>633</ele>
        <time>2026-05-09T04:37:43.881Z</time>
      </trkpt>
      <trkpt lat="47.83324" lon="6.96302">
        <ele>633</ele>
        <time>2026-05-09T04:37:44.881Z</time>
      </trkpt>
      <trkpt lat="47.83323" lon="6.96306">
        <ele>633</ele>
        <time>2026-05-09T04:37:45.881Z</time>
      </trkpt>
      <trkpt lat="47.83322" lon="6.96307">
        <ele>633</ele>
        <time>2026-05-09T04:37:46.881Z</time>
      </trkpt>
      <trkpt lat="47.83322" lon="6.96309">
        <ele>632</ele>
        <time>2026-05-09T04:37:47.881Z</time>
      </trkpt>
      <trkpt lat="47.83322" lon="6.96309">
        <ele>632</ele>
        <time>2026-05-09T04:37:48.881Z</time>
      </trkpt>
      <trkpt lat="47.83322" lon="6.9631">
        <ele>632</ele>
        <time>2026-05-09T04:37:49.881Z</time>
      </trkpt>
      <trkpt lat="47.83321" lon="6.96313">
        <ele>632</ele>
        <time>2026-05-09T04:37:50.882Z</time>
      </trkpt>
      <trkpt lat="47.83322" lon="6.96315">
        <ele>632</ele>
        <time>2026-05-09T04:37:51.881Z</time>
      </trkpt>
      <trkpt lat="47.83322" lon="6.96319">
        <ele>632</ele>
        <time>2026-05-09T04:37:52.881Z</time>
      </trkpt>
      <trkpt lat="47.83322" lon="6.96319">
        <ele>632</ele>
        <time>2026-05-09T04:37:53.881Z</time>
      </trkpt>
      <trkpt lat="47.83322" lon="6.96322">
        <ele>632</ele>
        <time>2026-05-09T04:37:54.882Z</time>
      </trkpt>
      <trkpt lat="47.83321" lon="6.96327">
        <ele>632</ele>
        <time>2026-05-09T04:37:55.881Z</time>
      </trkpt>
      <trkpt lat="47.83321" lon="6.96329">
        <ele>632</ele>
        <time>2026-05-09T04:37:56.882Z</time>
      </trkpt>
      <trkpt lat="47.83321" lon="6.96331">
        <ele>633</ele>
        <time>2026-05-09T04:37:57.882Z</time>
      </trkpt>
      <trkpt lat="47.83321" lon="6.96331">
        <ele>633</ele>
        <time>2026-05-09T04:37:58.882Z</time>
      </trkpt>
      <trkpt lat="47.83321" lon="6.96333">
        <ele>633</ele>
        <time>2026-05-09T04:37:59.881Z</time>
      </trkpt>
      <trkpt lat="47.83321" lon="6.96336">
        <ele>634</ele>
        <time>2026-05-09T04:38:00.881Z</time>
      </trkpt>
      <trkpt lat="47.83321" lon="6.96337">
        <ele>635</ele>
        <time>2026-05-09T04:38:01.882Z</time>
      </trkpt>
      <trkpt lat="47.8332" lon="6.96338">
        <ele>635</ele>
        <time>2026-05-09T04:38:02.882Z</time>
      </trkpt>
      <trkpt lat="47.8332" lon="6.96338">
        <ele>635</ele>
        <time>2026-05-09T04:38:03.881Z</time>
      </trkpt>
      <trkpt lat="47.8332" lon="6.9634">
        <ele>635</ele>
        <time>2026-05-09T04:38:04.881Z</time>
      </trkpt>
      <trkpt lat="47.83319" lon="6.96343">
        <ele>635</ele>
        <time>2026-05-09T04:38:05.881Z</time>
      </trkpt>
      <trkpt lat="47.83319" lon="6.96344">
        <ele>635</ele>
        <time>2026-05-09T04:38:06.881Z</time>
      </trkpt>
      <trkpt lat="47.83319" lon="6.96346">
        <ele>635</ele>
        <time>2026-05-09T04:38:07.881Z</time>
      </trkpt>
      <trkpt lat="47.83319" lon="6.96346">
        <ele>635</ele>
        <time>2026-05-09T04:38:08.881Z</time>
      </trkpt>
      <trkpt lat="47.83319" lon="6.96348">
        <ele>635</ele>
        <time>2026-05-09T04:38:09.881Z</time>
      </trkpt>
      <trkpt lat="47.83318" lon="6.96351">
        <ele>636</ele>
        <time>2026-05-09T04:38:10.881Z</time>
      </trkpt>
      <trkpt lat="47.83318" lon="6.96352">
        <ele>636</ele>
        <time>2026-05-09T04:38:11.881Z</time>
      </trkpt>
      <trkpt lat="47.83317" lon="6.96354">
        <ele>636</ele>
        <time>2026-05-09T04:38:12.881Z</time>
      </trkpt>
      <trkpt lat="47.83317" lon="6.96354">
        <ele>636</ele>
        <time>2026-05-09T04:38:13.881Z</time>
      </trkpt>
      <trkpt lat="47.83317" lon="6.96355">
        <ele>636</ele>
        <time>2026-05-09T04:38:14.881Z</time>
      </trkpt>
      <trkpt lat="47.83316" lon="6.96358">
        <ele>636</ele>
        <time>2026-05-09T04:38:15.881Z</time>
      </trkpt>
      <trkpt lat="47.83316" lon="6.9636">
        <ele>636</ele>
        <time>2026-05-09T04:38:16.881Z</time>
      </trkpt>
      <trkpt lat="47.83316" lon="6.96362">
        <ele>636</ele>
        <time>2026-05-09T04:38:17.881Z</time>
      </trkpt>
      <trkpt lat="47.83316" lon="6.96362">
        <ele>636</ele>
        <time>2026-05-09T04:38:18.882Z</time>
      </trkpt>
      <trkpt lat="47.83316" lon="6.96363">
        <ele>636</ele>
        <time>2026-05-09T04:38:19.882Z</time>
      </trkpt>
      <trkpt lat="47.83315" lon="6.96366">
        <ele>636</ele>
        <time>2026-05-09T04:38:20.881Z</time>
      </trkpt>
      <trkpt lat="47.83314" lon="6.96367">
        <ele>636</ele>
        <time>2026-05-09T04:38:21.882Z</time>
      </trkpt>
      <trkpt lat="47.83314" lon="6.96369">
        <ele>637</ele>
        <time>2026-05-09T04:38:22.882Z</time>
      </trkpt>
      <trkpt lat="47.83314" lon="6.96369">
        <ele>637</ele>
        <time>2026-05-09T04:38:23.881Z</time>
      </trkpt>
      <trkpt lat="47.83314" lon="6.96371">
        <ele>637</ele>
        <time>2026-05-09T04:38:24.882Z</time>
      </trkpt>
      <trkpt lat="47.83313" lon="6.96374">
        <ele>637</ele>
        <time>2026-05-09T04:38:25.881Z</time>
      </trkpt>
      <trkpt lat="47.83312" lon="6.96376">
        <ele>637</ele>
        <time>2026-05-09T04:38:26.881Z</time>
      </trkpt>
      <trkpt lat="47.83312" lon="6.96377">
        <ele>637</ele>
        <time>2026-05-09T04:38:27.881Z</time>
      </trkpt>
      <trkpt lat="47.83312" lon="6.96377">
        <ele>637</ele>
        <time>2026-05-09T04:38:28.881Z</time>
      </trkpt>
      <trkpt lat="47.83312" lon="6.96379">
        <ele>637</ele>
        <time>2026-05-09T04:38:29.881Z</time>
      </trkpt>
      <trkpt lat="47.83311" lon="6.96381">
        <ele>637</ele>
        <time>2026-05-09T04:38:30.881Z</time>
      </trkpt>
      <trkpt lat="47.83311" lon="6.96382">
        <ele>637</ele>
        <time>2026-05-09T04:38:31.881Z</time>
      </trkpt>
      <trkpt lat="47.8331" lon="6.96383">
        <ele>637</ele>
        <time>2026-05-09T04:38:32.881Z</time>
      </trkpt>
      <trkpt lat="47.8331" lon="6.96383">
        <ele>637</ele>
        <time>2026-05-09T04:38:33.881Z</time>
      </trkpt>
      <trkpt lat="47.8331" lon="6.96384">
        <ele>637</ele>
        <time>2026-05-09T04:38:34.882Z</time>
      </trkpt>
      <trkpt lat="47.83309" lon="6.96387">
        <ele>637</ele>
        <time>2026-05-09T04:38:35.881Z</time>
      </trkpt>
      <trkpt lat="47.83309" lon="6.96391">
        <ele>638</ele>
        <time>2026-05-09T04:38:36.881Z</time>
      </trkpt>
      <trkpt lat="47.83309" lon="6.96394">
        <ele>638</ele>
        <time>2026-05-09T04:38:37.881Z</time>
      </trkpt>
      <trkpt lat="47.83309" lon="6.96394">
        <ele>638</ele>
        <time>2026-05-09T04:38:38.882Z</time>
      </trkpt>
      <trkpt lat="47.83309" lon="6.96398">
        <ele>638</ele>
        <time>2026-05-09T04:38:39.881Z</time>
      </trkpt>
      <trkpt lat="47.83309" lon="6.964">
        <ele>638</ele>
        <time>2026-05-09T04:38:40.881Z</time>
      </trkpt>
      <trkpt lat="47.83309" lon="6.96402">
        <ele>638</ele>
        <time>2026-05-09T04:38:41.882Z</time>
      </trkpt>
      <trkpt lat="47.83309" lon="6.96404">
        <ele>638</ele>
        <time>2026-05-09T04:38:42.881Z</time>
      </trkpt>
      <trkpt lat="47.83309" lon="6.96404">
        <ele>638</ele>
        <time>2026-05-09T04:38:43.881Z</time>
      </trkpt>
      <trkpt lat="47.83309" lon="6.96408">
        <ele>638</ele>
        <time>2026-05-09T04:38:44.881Z</time>
      </trkpt>
      <trkpt lat="47.83308" lon="6.9641">
        <ele>638</ele>
        <time>2026-05-09T04:38:45.881Z</time>
      </trkpt>
      <trkpt lat="47.83308" lon="6.96412">
        <ele>638</ele>
        <time>2026-05-09T04:38:46.881Z</time>
      </trkpt>
      <trkpt lat="47.83308" lon="6.96414">
        <ele>638</ele>
        <time>2026-05-09T04:38:47.881Z</time>
      </trkpt>
      <trkpt lat="47.83308" lon="6.96415">
        <ele>638</ele>
        <time>2026-05-09T04:38:48.881Z</time>
      </trkpt>
      <trkpt lat="47.83308" lon="6.96417">
        <ele>638</ele>
        <time>2026-05-09T04:38:49.881Z</time>
      </trkpt>
      <trkpt lat="47.83307" lon="6.96419">
        <ele>638</ele>
        <time>2026-05-09T04:38:50.882Z</time>
      </trkpt>
      <trkpt lat="47.83306" lon="6.9642">
        <ele>638</ele>
        <time>2026-05-09T04:38:51.881Z</time>
      </trkpt>
      <trkpt lat="47.83306" lon="6.96422">
        <ele>638</ele>
        <time>2026-05-09T04:38:52.882Z</time>
      </trkpt>
      <trkpt lat="47.83306" lon="6.96423">
        <ele>637</ele>
        <time>2026-05-09T04:38:53.881Z</time>
      </trkpt>
      <trkpt lat="47.83306" lon="6.96424">
        <ele>638</ele>
        <time>2026-05-09T04:38:54.882Z</time>
      </trkpt>
      <trkpt lat="47.83306" lon="6.96426">
        <ele>638</ele>
        <time>2026-05-09T04:38:55.882Z</time>
      </trkpt>
      <trkpt lat="47.83306" lon="6.96427">
        <ele>638</ele>
        <time>2026-05-09T04:38:56.881Z</time>
      </trkpt>
      <trkpt lat="47.83306" lon="6.96429">
        <ele>638</ele>
        <time>2026-05-09T04:38:57.882Z</time>
      </trkpt>
      <trkpt lat="47.83306" lon="6.96432">
        <ele>638</ele>
        <time>2026-05-09T04:38:58.881Z</time>
      </trkpt>
      <trkpt lat="47.83306" lon="6.96432">
        <ele>638</ele>
        <time>2026-05-09T04:38:59.881Z</time>
      </trkpt>
      <trkpt lat="47.83305" lon="6.96435">
        <ele>639</ele>
        <time>2026-05-09T04:39:00.881Z</time>
      </trkpt>
      <trkpt lat="47.83305" lon="6.96437">
        <ele>639</ele>
        <time>2026-05-09T04:39:01.881Z</time>
      </trkpt>
      <trkpt lat="47.83305" lon="6.96439">
        <ele>639</ele>
        <time>2026-05-09T04:39:02.881Z</time>
      </trkpt>
      <trkpt lat="47.83305" lon="6.96439">
        <ele>639</ele>
        <time>2026-05-09T04:39:03.881Z</time>
      </trkpt>
      <trkpt lat="47.83305" lon="6.96442">
        <ele>639</ele>
        <time>2026-05-09T04:39:04.881Z</time>
      </trkpt>
      <trkpt lat="47.83304" lon="6.96444">
        <ele>639</ele>
        <time>2026-05-09T04:39:05.882Z</time>
      </trkpt>
      <trkpt lat="47.83304" lon="6.96446">
        <ele>639</ele>
        <time>2026-05-09T04:39:06.881Z</time>
      </trkpt>
      <trkpt lat="47.83304" lon="6.96447">
        <ele>639</ele>
        <time>2026-05-09T04:39:07.881Z</time>
      </trkpt>
      <trkpt lat="47.83304" lon="6.96449">
        <ele>639</ele>
        <time>2026-05-09T04:39:08.881Z</time>
      </trkpt>
      <trkpt lat="47.83304" lon="6.9645">
        <ele>639</ele>
        <time>2026-05-09T04:39:09.881Z</time>
      </trkpt>
      <trkpt lat="47.83303" lon="6.96451">
        <ele>640</ele>
        <time>2026-05-09T04:39:10.881Z</time>
      </trkpt>
      <trkpt lat="47.83303" lon="6.96453">
        <ele>640</ele>
        <time>2026-05-09T04:39:11.881Z</time>
      </trkpt>
      <trkpt lat="47.83303" lon="6.96454">
        <ele>640</ele>
        <time>2026-05-09T04:39:12.881Z</time>
      </trkpt>
      <trkpt lat="47.83302" lon="6.96456">
        <ele>639</ele>
        <time>2026-05-09T04:39:13.881Z</time>
      </trkpt>
      <trkpt lat="47.83302" lon="6.96457">
        <ele>639</ele>
        <time>2026-05-09T04:39:14.881Z</time>
      </trkpt>
      <trkpt lat="47.83302" lon="6.96458">
        <ele>639</ele>
        <time>2026-05-09T04:39:15.881Z</time>
      </trkpt>
      <trkpt lat="47.83302" lon="6.9646">
        <ele>639</ele>
        <time>2026-05-09T04:39:16.881Z</time>
      </trkpt>
      <trkpt lat="47.83301" lon="6.96461">
        <ele>639</ele>
        <time>2026-05-09T04:39:17.881Z</time>
      </trkpt>
      <trkpt lat="47.83301" lon="6.96462">
        <ele>639</ele>
        <time>2026-05-09T04:39:18.881Z</time>
      </trkpt>
      <trkpt lat="47.833" lon="6.96464">
        <ele>639</ele>
        <time>2026-05-09T04:39:19.882Z</time>
      </trkpt>
      <trkpt lat="47.83299" lon="6.96465">
        <ele>639</ele>
        <time>2026-05-09T04:39:20.881Z</time>
      </trkpt>
      <trkpt lat="47.83299" lon="6.96466">
        <ele>639</ele>
        <time>2026-05-09T04:39:21.881Z</time>
      </trkpt>
      <trkpt lat="47.83299" lon="6.96469">
        <ele>638</ele>
        <time>2026-05-09T04:39:22.881Z</time>
      </trkpt>
      <trkpt lat="47.83299" lon="6.96471">
        <ele>638</ele>
        <time>2026-05-09T04:39:23.881Z</time>
      </trkpt>
      <trkpt lat="47.83299" lon="6.96471">
        <ele>638</ele>
        <time>2026-05-09T04:39:24.882Z</time>
      </trkpt>
      <trkpt lat="47.83298" lon="6.96476">
        <ele>638</ele>
        <time>2026-05-09T04:39:25.882Z</time>
      </trkpt>
      <trkpt lat="47.83298" lon="6.96477">
        <ele>638</ele>
        <time>2026-05-09T04:39:26.882Z</time>
      </trkpt>
      <trkpt lat="47.83298" lon="6.96479">
        <ele>638</ele>
        <time>2026-05-09T04:39:27.881Z</time>
      </trkpt>
      <trkpt lat="47.83298" lon="6.96479">
        <ele>638</ele>
        <time>2026-05-09T04:39:28.881Z</time>
      </trkpt>
      <trkpt lat="47.83299" lon="6.96484">
        <ele>638</ele>
        <time>2026-05-09T04:39:29.881Z</time>
      </trkpt>
      <trkpt lat="47.83298" lon="6.96485">
        <ele>638</ele>
        <time>2026-05-09T04:39:30.881Z</time>
      </trkpt>
      <trkpt lat="47.83297" lon="6.96486">
        <ele>638</ele>
        <time>2026-05-09T04:39:31.881Z</time>
      </trkpt>
      <trkpt lat="47.83297" lon="6.96487">
        <ele>639</ele>
        <time>2026-05-09T04:39:32.881Z</time>
      </trkpt>
      <trkpt lat="47.83297" lon="6.96489">
        <ele>639</ele>
        <time>2026-05-09T04:39:33.881Z</time>
      </trkpt>
      <trkpt lat="47.83297" lon="6.9649">
        <ele>639</ele>
        <time>2026-05-09T04:39:34.881Z</time>
      </trkpt>
      <trkpt lat="47.83297" lon="6.96492">
        <ele>639</ele>
        <time>2026-05-09T04:39:35.881Z</time>
      </trkpt>
      <trkpt lat="47.83298" lon="6.96494">
        <ele>639</ele>
        <time>2026-05-09T04:39:36.881Z</time>
      </trkpt>
      <trkpt lat="47.83299" lon="6.965">
        <ele>639</ele>
        <time>2026-05-09T04:39:37.881Z</time>
      </trkpt>
      <trkpt lat="47.833" lon="6.96504">
        <ele>640</ele>
        <time>2026-05-09T04:39:38.881Z</time>
      </trkpt>
      <trkpt lat="47.833" lon="6.96508">
        <ele>640</ele>
        <time>2026-05-09T04:39:39.882Z</time>
      </trkpt>
      <trkpt lat="47.833" lon="6.96511">
        <ele>640</ele>
        <time>2026-05-09T04:39:40.881Z</time>
      </trkpt>
      <trkpt lat="47.83302" lon="6.96513">
        <ele>640</ele>
        <time>2026-05-09T04:39:41.882Z</time>
      </trkpt>
      <trkpt lat="47.83302" lon="6.96515">
        <ele>641</ele>
        <time>2026-05-09T04:39:42.881Z</time>
      </trkpt>
      <trkpt lat="47.83302" lon="6.96518">
        <ele>641</ele>
        <time>2026-05-09T04:39:43.882Z</time>
      </trkpt>
      <trkpt lat="47.83302" lon="6.96518">
        <ele>641</ele>
        <time>2026-05-09T04:39:44.881Z</time>
      </trkpt>
      <trkpt lat="47.83302" lon="6.96522">
        <ele>641</ele>
        <time>2026-05-09T04:39:45.882Z</time>
      </trkpt>
      <trkpt lat="47.83301" lon="6.96524">
        <ele>642</ele>
        <time>2026-05-09T04:39:46.881Z</time>
      </trkpt>
      <trkpt lat="47.83302" lon="6.96525">
        <ele>642</ele>
        <time>2026-05-09T04:39:47.881Z</time>
      </trkpt>
      <trkpt lat="47.83303" lon="6.96526">
        <ele>642</ele>
        <time>2026-05-09T04:39:48.881Z</time>
      </trkpt>
      <trkpt lat="47.83303" lon="6.96526">
        <ele>642</ele>
        <time>2026-05-09T04:39:49.881Z</time>
      </trkpt>
      <trkpt lat="47.83306" lon="6.96527">
        <ele>642</ele>
        <time>2026-05-09T04:39:50.881Z</time>
      </trkpt>
      <trkpt lat="47.83306" lon="6.96528">
        <ele>642</ele>
        <time>2026-05-09T04:39:51.882Z</time>
      </trkpt>
      <trkpt lat="47.83304" lon="6.9653">
        <ele>642</ele>
        <time>2026-05-09T04:39:52.881Z</time>
      </trkpt>
      <trkpt lat="47.83304" lon="6.9653">
        <ele>642</ele>
        <time>2026-05-09T04:39:53.881Z</time>
      </trkpt>
      <trkpt lat="47.83302" lon="6.96533">
        <ele>643</ele>
        <time>2026-05-09T04:39:54.882Z</time>
      </trkpt>
      <trkpt lat="47.83302" lon="6.96535">
        <ele>643</ele>
        <time>2026-05-09T04:39:55.881Z</time>
      </trkpt>
      <trkpt lat="47.83302" lon="6.96536">
        <ele>643</ele>
        <time>2026-05-09T04:39:56.881Z</time>
      </trkpt>
      <trkpt lat="47.83301" lon="6.96538">
        <ele>644</ele>
        <time>2026-05-09T04:39:57.881Z</time>
      </trkpt>
      <trkpt lat="47.83301" lon="6.96539">
        <ele>644</ele>
        <time>2026-05-09T04:39:58.881Z</time>
      </trkpt>
      <trkpt lat="47.833" lon="6.9654">
        <ele>644</ele>
        <time>2026-05-09T04:39:59.881Z</time>
      </trkpt>
      <trkpt lat="47.83299" lon="6.9654">
        <ele>644</ele>
        <time>2026-05-09T04:40:00.881Z</time>
      </trkpt>
      <trkpt lat="47.83298" lon="6.96542">
        <ele>645</ele>
        <time>2026-05-09T04:40:01.881Z</time>
      </trkpt>
      <trkpt lat="47.83298" lon="6.96542">
        <ele>645</ele>
        <time>2026-05-09T04:40:02.881Z</time>
      </trkpt>
      <trkpt lat="47.83297" lon="6.96543">
        <ele>645</ele>
        <time>2026-05-09T04:40:03.881Z</time>
      </trkpt>
      <trkpt lat="47.83296" lon="6.96545">
        <ele>645</ele>
        <time>2026-05-09T04:40:04.881Z</time>
      </trkpt>
      <trkpt lat="47.83296" lon="6.96546">
        <ele>645</ele>
        <time>2026-05-09T04:40:05.881Z</time>
      </trkpt>
      <trkpt lat="47.83296" lon="6.96547">
        <ele>645</ele>
        <time>2026-05-09T04:40:06.881Z</time>
      </trkpt>
      <trkpt lat="47.83296" lon="6.96548">
        <ele>645</ele>
        <time>2026-05-09T04:40:07.882Z</time>
      </trkpt>
      <trkpt lat="47.83296" lon="6.9655">
        <ele>645</ele>
        <time>2026-05-09T04:40:08.881Z</time>
      </trkpt>
      <trkpt lat="47.83296" lon="6.9655">
        <ele>645</ele>
        <time>2026-05-09T04:40:09.881Z</time>
      </trkpt>
      <trkpt lat="47.83295" lon="6.96552">
        <ele>645</ele>
        <time>2026-05-09T04:40:10.881Z</time>
      </trkpt>
      <trkpt lat="47.83295" lon="6.96554">
        <ele>644</ele>
        <time>2026-05-09T04:40:11.882Z</time>
      </trkpt>
      <trkpt lat="47.83296" lon="6.96556">
        <ele>644</ele>
        <time>2026-05-09T04:40:12.881Z</time>
      </trkpt>
      <trkpt lat="47.83296" lon="6.96556">
        <ele>644</ele>
        <time>2026-05-09T04:40:13.881Z</time>
      </trkpt>
      <trkpt lat="47.83296" lon="6.96557">
        <ele>644</ele>
        <time>2026-05-09T04:40:14.881Z</time>
      </trkpt>
      <trkpt lat="47.83295" lon="6.96561">
        <ele>644</ele>
        <time>2026-05-09T04:40:15.881Z</time>
      </trkpt>
      <trkpt lat="47.83295" lon="6.96562">
        <ele>644</ele>
        <time>2026-05-09T04:40:16.881Z</time>
      </trkpt>
      <trkpt lat="47.83295" lon="6.96563">
        <ele>644</ele>
        <time>2026-05-09T04:40:17.881Z</time>
      </trkpt>
      <trkpt lat="47.83295" lon="6.96563">
        <ele>644</ele>
        <time>2026-05-09T04:40:18.881Z</time>
      </trkpt>
      <trkpt lat="47.83294" lon="6.96565">
        <ele>645</ele>
        <time>2026-05-09T04:40:19.882Z</time>
      </trkpt>
      <trkpt lat="47.83292" lon="6.96566">
        <ele>645</ele>
        <time>2026-05-09T04:40:20.882Z</time>
      </trkpt>
      <trkpt lat="47.83291" lon="6.96567">
        <ele>645</ele>
        <time>2026-05-09T04:40:21.882Z</time>
      </trkpt>
      <trkpt lat="47.8329" lon="6.96568">
        <ele>645</ele>
        <time>2026-05-09T04:40:22.881Z</time>
      </trkpt>
      <trkpt lat="47.8329" lon="6.96569">
        <ele>646</ele>
        <time>2026-05-09T04:40:23.881Z</time>
      </trkpt>
      <trkpt lat="47.83289" lon="6.9657">
        <ele>646</ele>
        <time>2026-05-09T04:40:24.881Z</time>
      </trkpt>
      <trkpt lat="47.83289" lon="6.96571">
        <ele>646</ele>
        <time>2026-05-09T04:40:25.881Z</time>
      </trkpt>
      <trkpt lat="47.83288" lon="6.96573">
        <ele>646</ele>
        <time>2026-05-09T04:40:26.881Z</time>
      </trkpt>
      <trkpt lat="47.83288" lon="6.96574">
        <ele>646</ele>
        <time>2026-05-09T04:40:27.882Z</time>
      </trkpt>
      <trkpt lat="47.83288" lon="6.96575">
        <ele>646</ele>
        <time>2026-05-09T04:40:28.881Z</time>
      </trkpt>
      <trkpt lat="47.83287" lon="6.96577">
        <ele>646</ele>
        <time>2026-05-09T04:40:29.881Z</time>
      </trkpt>
      <trkpt lat="47.83287" lon="6.96578">
        <ele>646</ele>
        <time>2026-05-09T04:40:30.881Z</time>
      </trkpt>
      <trkpt lat="47.83287" lon="6.9658">
        <ele>647</ele>
        <time>2026-05-09T04:40:31.881Z</time>
      </trkpt>
      <trkpt lat="47.83286" lon="6.96581">
        <ele>647</ele>
        <time>2026-05-09T04:40:32.882Z</time>
      </trkpt>
      <trkpt lat="47.83286" lon="6.96583">
        <ele>647</ele>
        <time>2026-05-09T04:40:33.881Z</time>
      </trkpt>
      <trkpt lat="47.83286" lon="6.96583">
        <ele>647</ele>
        <time>2026-05-09T04:40:34.882Z</time>
      </trkpt>
      <trkpt lat="47.83285" lon="6.96586">
        <ele>648</ele>
        <time>2026-05-09T04:40:35.881Z</time>
      </trkpt>
      <trkpt lat="47.83286" lon="6.96588">
        <ele>648</ele>
        <time>2026-05-09T04:40:36.881Z</time>
      </trkpt>
      <trkpt lat="47.83286" lon="6.9659">
        <ele>648</ele>
        <time>2026-05-09T04:40:37.881Z</time>
      </trkpt>
      <trkpt lat="47.83286" lon="6.9659">
        <ele>648</ele>
        <time>2026-05-09T04:40:38.882Z</time>
      </trkpt>
      <trkpt lat="47.83287" lon="6.96593">
        <ele>647</ele>
        <time>2026-05-09T04:40:39.881Z</time>
      </trkpt>
      <trkpt lat="47.83286" lon="6.96594">
        <ele>647</ele>
        <time>2026-05-09T04:40:40.881Z</time>
      </trkpt>
      <trkpt lat="47.83286" lon="6.96596">
        <ele>647</ele>
        <time>2026-05-09T04:40:41.881Z</time>
      </trkpt>
      <trkpt lat="47.83286" lon="6.96598">
        <ele>647</ele>
        <time>2026-05-09T04:40:42.881Z</time>
      </trkpt>
      <trkpt lat="47.83286" lon="6.96598">
        <ele>647</ele>
        <time>2026-05-09T04:40:43.882Z</time>
      </trkpt>
      <trkpt lat="47.83286" lon="6.96602">
        <ele>646</ele>
        <time>2026-05-09T04:40:44.881Z</time>
      </trkpt>
      <trkpt lat="47.83286" lon="6.96604">
        <ele>646</ele>
        <time>2026-05-09T04:40:45.881Z</time>
      </trkpt>
      <trkpt lat="47.83286" lon="6.96605">
        <ele>646</ele>
        <time>2026-05-09T04:40:46.881Z</time>
      </trkpt>
      <trkpt lat="47.83286" lon="6.96607">
        <ele>646</ele>
        <time>2026-05-09T04:40:47.881Z</time>
      </trkpt>
      <trkpt lat="47.83286" lon="6.96608">
        <ele>646</ele>
        <time>2026-05-09T04:40:48.881Z</time>
      </trkpt>
      <trkpt lat="47.83285" lon="6.9661">
        <ele>646</ele>
        <time>2026-05-09T04:40:49.881Z</time>
      </trkpt>
      <trkpt lat="47.83285" lon="6.96611">
        <ele>646</ele>
        <time>2026-05-09T04:40:50.881Z</time>
      </trkpt>
      <trkpt lat="47.83285" lon="6.96613">
        <ele>646</ele>
        <time>2026-05-09T04:40:51.881Z</time>
      </trkpt>
      <trkpt lat="47.83285" lon="6.96614">
        <ele>646</ele>
        <time>2026-05-09T04:40:52.881Z</time>
      </trkpt>
      <trkpt lat="47.83285" lon="6.96615">
        <ele>646</ele>
        <time>2026-05-09T04:40:53.881Z</time>
      </trkpt>
      <trkpt lat="47.83284" lon="6.96617">
        <ele>646</ele>
        <time>2026-05-09T04:40:54.881Z</time>
      </trkpt>
      <trkpt lat="47.83284" lon="6.96618">
        <ele>646</ele>
        <time>2026-05-09T04:40:55.881Z</time>
      </trkpt>
      <trkpt lat="47.83284" lon="6.9662">
        <ele>646</ele>
        <time>2026-05-09T04:40:56.881Z</time>
      </trkpt>
      <trkpt lat="47.83284" lon="6.96621">
        <ele>646</ele>
        <time>2026-05-09T04:40:57.882Z</time>
      </trkpt>
      <trkpt lat="47.83284" lon="6.96623">
        <ele>646</ele>
        <time>2026-05-09T04:40:58.881Z</time>
      </trkpt>
      <trkpt lat="47.83284" lon="6.96623">
        <ele>646</ele>
        <time>2026-05-09T04:40:59.882Z</time>
      </trkpt>
      <trkpt lat="47.83284" lon="6.96626">
        <ele>646</ele>
        <time>2026-05-09T04:41:00.882Z</time>
      </trkpt>
      <trkpt lat="47.83284" lon="6.96628">
        <ele>646</ele>
        <time>2026-05-09T04:41:01.881Z</time>
      </trkpt>
      <trkpt lat="47.83285" lon="6.96631">
        <ele>645</ele>
        <time>2026-05-09T04:41:02.881Z</time>
      </trkpt>
      <trkpt lat="47.83285" lon="6.96631">
        <ele>645</ele>
        <time>2026-05-09T04:41:03.882Z</time>
      </trkpt>
      <trkpt lat="47.83287" lon="6.96635">
        <ele>645</ele>
        <time>2026-05-09T04:41:04.881Z</time>
      </trkpt>
      <trkpt lat="47.83288" lon="6.96637">
        <ele>645</ele>
        <time>2026-05-09T04:41:05.882Z</time>
      </trkpt>
      <trkpt lat="47.83288" lon="6.96639">
        <ele>645</ele>
        <time>2026-05-09T04:41:06.881Z</time>
      </trkpt>
      <trkpt lat="47.8329" lon="6.96641">
        <ele>645</ele>
        <time>2026-05-09T04:41:07.882Z</time>
      </trkpt>
      <trkpt lat="47.83291" lon="6.96643">
        <ele>644</ele>
        <time>2026-05-09T04:41:08.881Z</time>
      </trkpt>
      <trkpt lat="47.83292" lon="6.96645">
        <ele>644</ele>
        <time>2026-05-09T04:41:09.882Z</time>
      </trkpt>
      <trkpt lat="47.83293" lon="6.96647">
        <ele>645</ele>
        <time>2026-05-09T04:41:10.881Z</time>
      </trkpt>
      <trkpt lat="47.83293" lon="6.96649">
        <ele>645</ele>
        <time>2026-05-09T04:41:11.882Z</time>
      </trkpt>
      <trkpt lat="47.83294" lon="6.96651">
        <ele>645</ele>
        <time>2026-05-09T04:41:12.881Z</time>
      </trkpt>
      <trkpt lat="47.83294" lon="6.96652">
        <ele>645</ele>
        <time>2026-05-09T04:41:13.882Z</time>
      </trkpt>
      <trkpt lat="47.83295" lon="6.96654">
        <ele>645</ele>
        <time>2026-05-09T04:41:14.881Z</time>
      </trkpt>
      <trkpt lat="47.83295" lon="6.96655">
        <ele>645</ele>
        <time>2026-05-09T04:41:15.881Z</time>
      </trkpt>
      <trkpt lat="47.83295" lon="6.96657">
        <ele>645</ele>
        <time>2026-05-09T04:41:16.881Z</time>
      </trkpt>
      <trkpt lat="47.83295" lon="6.96658">
        <ele>644</ele>
        <time>2026-05-09T04:41:17.881Z</time>
      </trkpt>
      <trkpt lat="47.83295" lon="6.96658">
        <ele>644</ele>
        <time>2026-05-09T04:41:18.881Z</time>
      </trkpt>
      <trkpt lat="47.83295" lon="6.96661">
        <ele>644</ele>
        <time>2026-05-09T04:41:19.882Z</time>
      </trkpt>
      <trkpt lat="47.83295" lon="6.96663">
        <ele>644</ele>
        <time>2026-05-09T04:41:20.881Z</time>
      </trkpt>
      <trkpt lat="47.83295" lon="6.96665">
        <ele>644</ele>
        <time>2026-05-09T04:41:21.881Z</time>
      </trkpt>
      <trkpt lat="47.83296" lon="6.96666">
        <ele>644</ele>
        <time>2026-05-09T04:41:22.881Z</time>
      </trkpt>
      <trkpt lat="47.83296" lon="6.96668">
        <ele>643</ele>
        <time>2026-05-09T04:41:23.881Z</time>
      </trkpt>
      <trkpt lat="47.83296" lon="6.96668">
        <ele>643</ele>
        <time>2026-05-09T04:41:24.882Z</time>
      </trkpt>
      <trkpt lat="47.83296" lon="6.96672">
        <ele>643</ele>
        <time>2026-05-09T04:41:25.881Z</time>
      </trkpt>
      <trkpt lat="47.83296" lon="6.96674">
        <ele>643</ele>
        <time>2026-05-09T04:41:26.881Z</time>
      </trkpt>
      <trkpt lat="47.83296" lon="6.96675">
        <ele>643</ele>
        <time>2026-05-09T04:41:27.881Z</time>
      </trkpt>
      <trkpt lat="47.83296" lon="6.96675">
        <ele>643</ele>
        <time>2026-05-09T04:41:28.881Z</time>
      </trkpt>
      <trkpt lat="47.83296" lon="6.96678">
        <ele>643</ele>
        <time>2026-05-09T04:41:29.881Z</time>
      </trkpt>
      <trkpt lat="47.83296" lon="6.9668">
        <ele>643</ele>
        <time>2026-05-09T04:41:30.882Z</time>
      </trkpt>
      <trkpt lat="47.83296" lon="6.96681">
        <ele>643</ele>
        <time>2026-05-09T04:41:31.881Z</time>
      </trkpt>
      <trkpt lat="47.83296" lon="6.96683">
        <ele>643</ele>
        <time>2026-05-09T04:41:32.881Z</time>
      </trkpt>
      <trkpt lat="47.83296" lon="6.96684">
        <ele>643</ele>
        <time>2026-05-09T04:41:33.882Z</time>
      </trkpt>
      <trkpt lat="47.83296" lon="6.96686">
        <ele>643</ele>
        <time>2026-05-09T04:41:34.881Z</time>
      </trkpt>
      <trkpt lat="47.83296" lon="6.96688">
        <ele>644</ele>
        <time>2026-05-09T04:41:35.881Z</time>
      </trkpt>
      <trkpt lat="47.83296" lon="6.96689">
        <ele>644</ele>
        <time>2026-05-09T04:41:36.882Z</time>
      </trkpt>
      <trkpt lat="47.83296" lon="6.96691">
        <ele>644</ele>
        <time>2026-05-09T04:41:37.881Z</time>
      </trkpt>
      <trkpt lat="47.83296" lon="6.96692">
        <ele>644</ele>
        <time>2026-05-09T04:41:38.881Z</time>
      </trkpt>
      <trkpt lat="47.83295" lon="6.96694">
        <ele>644</ele>
        <time>2026-05-09T04:41:39.881Z</time>
      </trkpt>
      <trkpt lat="47.83295" lon="6.96695">
        <ele>644</ele>
        <time>2026-05-09T04:41:40.881Z</time>
      </trkpt>
      <trkpt lat="47.83295" lon="6.96697">
        <ele>644</ele>
        <time>2026-05-09T04:41:41.881Z</time>
      </trkpt>
      <trkpt lat="47.83295" lon="6.96698">
        <ele>644</ele>
        <time>2026-05-09T04:41:42.882Z</time>
      </trkpt>
      <trkpt lat="47.83295" lon="6.967">
        <ele>644</ele>
        <time>2026-05-09T04:41:43.882Z</time>
      </trkpt>
      <trkpt lat="47.83295" lon="6.967">
        <ele>644</ele>
        <time>2026-05-09T04:41:44.881Z</time>
      </trkpt>
      <trkpt lat="47.83295" lon="6.96703">
        <ele>644</ele>
        <time>2026-05-09T04:41:45.881Z</time>
      </trkpt>
      <trkpt lat="47.83295" lon="6.96705">
        <ele>644</ele>
        <time>2026-05-09T04:41:46.881Z</time>
      </trkpt>
      <trkpt lat="47.83295" lon="6.96707">
        <ele>644</ele>
        <time>2026-05-09T04:41:47.881Z</time>
      </trkpt>
      <trkpt lat="47.83294" lon="6.96708">
        <ele>645</ele>
        <time>2026-05-09T04:41:48.881Z</time>
      </trkpt>
      <trkpt lat="47.83294" lon="6.96708">
        <ele>645</ele>
        <time>2026-05-09T04:41:49.881Z</time>
      </trkpt>
      <trkpt lat="47.83294" lon="6.96711">
        <ele>644</ele>
        <time>2026-05-09T04:41:50.881Z</time>
      </trkpt>
      <trkpt lat="47.83294" lon="6.96713">
        <ele>644</ele>
        <time>2026-05-09T04:41:51.881Z</time>
      </trkpt>
      <trkpt lat="47.83294" lon="6.96715">
        <ele>644</ele>
        <time>2026-05-09T04:41:52.881Z</time>
      </trkpt>
      <trkpt lat="47.83294" lon="6.96715">
        <ele>644</ele>
        <time>2026-05-09T04:41:53.881Z</time>
      </trkpt>
      <trkpt lat="47.83294" lon="6.96718">
        <ele>645</ele>
        <time>2026-05-09T04:41:54.881Z</time>
      </trkpt>
      <trkpt lat="47.83294" lon="6.9672">
        <ele>645</ele>
        <time>2026-05-09T04:41:55.881Z</time>
      </trkpt>
      <trkpt lat="47.83294" lon="6.96721">
        <ele>645</ele>
        <time>2026-05-09T04:41:56.881Z</time>
      </trkpt>
      <trkpt lat="47.83294" lon="6.96723">
        <ele>645</ele>
        <time>2026-05-09T04:41:57.882Z</time>
      </trkpt>
      <trkpt lat="47.83294" lon="6.96725">
        <ele>645</ele>
        <time>2026-05-09T04:41:58.882Z</time>
      </trkpt>
      <trkpt lat="47.83294" lon="6.96726">
        <ele>645</ele>
        <time>2026-05-09T04:41:59.882Z</time>
      </trkpt>
      <trkpt lat="47.83294" lon="6.96728">
        <ele>646</ele>
        <time>2026-05-09T04:42:00.882Z</time>
      </trkpt>
      <trkpt lat="47.83294" lon="6.9673">
        <ele>646</ele>
        <time>2026-05-09T04:42:01.881Z</time>
      </trkpt>
      <trkpt lat="47.83294" lon="6.96731">
        <ele>646</ele>
        <time>2026-05-09T04:42:02.882Z</time>
      </trkpt>
      <trkpt lat="47.83294" lon="6.96733">
        <ele>647</ele>
        <time>2026-05-09T04:42:03.881Z</time>
      </trkpt>
      <trkpt lat="47.83294" lon="6.96735">
        <ele>647</ele>
        <time>2026-05-09T04:42:04.881Z</time>
      </trkpt>
      <trkpt lat="47.83293" lon="6.96736">
        <ele>648</ele>
        <time>2026-05-09T04:42:05.881Z</time>
      </trkpt>
      <trkpt lat="47.83293" lon="6.96738">
        <ele>648</ele>
        <time>2026-05-09T04:42:06.881Z</time>
      </trkpt>
      <trkpt lat="47.83293" lon="6.96739">
        <ele>648</ele>
        <time>2026-05-09T04:42:07.881Z</time>
      </trkpt>
      <trkpt lat="47.83292" lon="6.96741">
        <ele>648</ele>
        <time>2026-05-09T04:42:08.881Z</time>
      </trkpt>
      <trkpt lat="47.83292" lon="6.96741">
        <ele>648</ele>
        <time>2026-05-09T04:42:09.881Z</time>
      </trkpt>
      <trkpt lat="47.83292" lon="6.96744">
        <ele>649</ele>
        <time>2026-05-09T04:42:10.881Z</time>
      </trkpt>
      <trkpt lat="47.83292" lon="6.96745">
        <ele>649</ele>
        <time>2026-05-09T04:42:11.882Z</time>
      </trkpt>
      <trkpt lat="47.83291" lon="6.96747">
        <ele>649</ele>
        <time>2026-05-09T04:42:12.882Z</time>
      </trkpt>
      <trkpt lat="47.83291" lon="6.96747">
        <ele>649</ele>
        <time>2026-05-09T04:42:13.881Z</time>
      </trkpt>
      <trkpt lat="47.83291" lon="6.96748">
        <ele>649</ele>
        <time>2026-05-09T04:42:14.881Z</time>
      </trkpt>
      <trkpt lat="47.83291" lon="6.96752">
        <ele>650</ele>
        <time>2026-05-09T04:42:15.882Z</time>
      </trkpt>
      <trkpt lat="47.83291" lon="6.96753">
        <ele>650</ele>
        <time>2026-05-09T04:42:16.881Z</time>
      </trkpt>
      <trkpt lat="47.8329" lon="6.96755">
        <ele>650</ele>
        <time>2026-05-09T04:42:17.881Z</time>
      </trkpt>
      <trkpt lat="47.8329" lon="6.96755">
        <ele>650</ele>
        <time>2026-05-09T04:42:18.881Z</time>
      </trkpt>
      <trkpt lat="47.8329" lon="6.96758">
        <ele>651</ele>
        <time>2026-05-09T04:42:19.881Z</time>
      </trkpt>
      <trkpt lat="47.8329" lon="6.96759">
        <ele>651</ele>
        <time>2026-05-09T04:42:20.882Z</time>
      </trkpt>
      <trkpt lat="47.8329" lon="6.96761">
        <ele>651</ele>
        <time>2026-05-09T04:42:21.881Z</time>
      </trkpt>
      <trkpt lat="47.8329" lon="6.96762">
        <ele>651</ele>
        <time>2026-05-09T04:42:22.882Z</time>
      </trkpt>
      <trkpt lat="47.83289" lon="6.96764">
        <ele>651</ele>
        <time>2026-05-09T04:42:23.881Z</time>
      </trkpt>
      <trkpt lat="47.83289" lon="6.96766">
        <ele>651</ele>
        <time>2026-05-09T04:42:24.881Z</time>
      </trkpt>
      <trkpt lat="47.83289" lon="6.96768">
        <ele>651</ele>
        <time>2026-05-09T04:42:25.881Z</time>
      </trkpt>
      <trkpt lat="47.83289" lon="6.96769">
        <ele>652</ele>
        <time>2026-05-09T04:42:26.881Z</time>
      </trkpt>
      <trkpt lat="47.83289" lon="6.96771">
        <ele>652</ele>
        <time>2026-05-09T04:42:27.881Z</time>
      </trkpt>
      <trkpt lat="47.83289" lon="6.96773">
        <ele>652</ele>
        <time>2026-05-09T04:42:28.881Z</time>
      </trkpt>
      <trkpt lat="47.83288" lon="6.96774">
        <ele>652</ele>
        <time>2026-05-09T04:42:29.882Z</time>
      </trkpt>
      <trkpt lat="47.83287" lon="6.96775">
        <ele>652</ele>
        <time>2026-05-09T04:42:30.882Z</time>
      </trkpt>
      <trkpt lat="47.83287" lon="6.96777">
        <ele>652</ele>
        <time>2026-05-09T04:42:31.881Z</time>
      </trkpt>
      <trkpt lat="47.83287" lon="6.96779">
        <ele>652</ele>
        <time>2026-05-09T04:42:32.881Z</time>
      </trkpt>
      <trkpt lat="47.83286" lon="6.9678">
        <ele>652</ele>
        <time>2026-05-09T04:42:33.882Z</time>
      </trkpt>
      <trkpt lat="47.83286" lon="6.9678">
        <ele>652</ele>
        <time>2026-05-09T04:42:34.881Z</time>
      </trkpt>
      <trkpt lat="47.83286" lon="6.96784">
        <ele>652</ele>
        <time>2026-05-09T04:42:35.881Z</time>
      </trkpt>
      <trkpt lat="47.83285" lon="6.96786">
        <ele>653</ele>
        <time>2026-05-09T04:42:36.881Z</time>
      </trkpt>
      <trkpt lat="47.83285" lon="6.96788">
        <ele>653</ele>
        <time>2026-05-09T04:42:37.881Z</time>
      </trkpt>
      <trkpt lat="47.83285" lon="6.96788">
        <ele>653</ele>
        <time>2026-05-09T04:42:38.881Z</time>
      </trkpt>
      <trkpt lat="47.83285" lon="6.96791">
        <ele>652</ele>
        <time>2026-05-09T04:42:39.881Z</time>
      </trkpt>
      <trkpt lat="47.83284" lon="6.96792">
        <ele>652</ele>
        <time>2026-05-09T04:42:40.882Z</time>
      </trkpt>
      <trkpt lat="47.83284" lon="6.96794">
        <ele>653</ele>
        <time>2026-05-09T04:42:41.882Z</time>
      </trkpt>
      <trkpt lat="47.83284" lon="6.96795">
        <ele>653</ele>
        <time>2026-05-09T04:42:42.881Z</time>
      </trkpt>
      <trkpt lat="47.83284" lon="6.96797">
        <ele>653</ele>
        <time>2026-05-09T04:42:43.881Z</time>
      </trkpt>
      <trkpt lat="47.83283" lon="6.96798">
        <ele>653</ele>
        <time>2026-05-09T04:42:44.881Z</time>
      </trkpt>
      <trkpt lat="47.83283" lon="6.968">
        <ele>653</ele>
        <time>2026-05-09T04:42:45.881Z</time>
      </trkpt>
      <trkpt lat="47.83282" lon="6.96802">
        <ele>654</ele>
        <time>2026-05-09T04:42:46.881Z</time>
      </trkpt>
      <trkpt lat="47.83282" lon="6.96803">
        <ele>654</ele>
        <time>2026-05-09T04:42:47.881Z</time>
      </trkpt>
      <trkpt lat="47.83282" lon="6.96805">
        <ele>655</ele>
        <time>2026-05-09T04:42:48.881Z</time>
      </trkpt>
      <trkpt lat="47.83281" lon="6.96806">
        <ele>655</ele>
        <time>2026-05-09T04:42:49.881Z</time>
      </trkpt>
      <trkpt lat="47.83281" lon="6.96808">
        <ele>655</ele>
        <time>2026-05-09T04:42:50.881Z</time>
      </trkpt>
      <trkpt lat="47.83282" lon="6.9681">
        <ele>655</ele>
        <time>2026-05-09T04:42:51.881Z</time>
      </trkpt>
      <trkpt lat="47.83282" lon="6.96812">
        <ele>655</ele>
        <time>2026-05-09T04:42:52.881Z</time>
      </trkpt>
      <trkpt lat="47.83281" lon="6.96814">
        <ele>655</ele>
        <time>2026-05-09T04:42:53.882Z</time>
      </trkpt>
      <trkpt lat="47.83281" lon="6.96816">
        <ele>655</ele>
        <time>2026-05-09T04:42:54.882Z</time>
      </trkpt>
      <trkpt lat="47.8328" lon="6.96818">
        <ele>655</ele>
        <time>2026-05-09T04:42:55.881Z</time>
      </trkpt>
      <trkpt lat="47.8328" lon="6.96819">
        <ele>654</ele>
        <time>2026-05-09T04:42:56.881Z</time>
      </trkpt>
      <trkpt lat="47.8328" lon="6.96821">
        <ele>654</ele>
        <time>2026-05-09T04:42:57.881Z</time>
      </trkpt>
      <trkpt lat="47.83279" lon="6.96822">
        <ele>654</ele>
        <time>2026-05-09T04:42:58.881Z</time>
      </trkpt>
      <trkpt lat="47.83279" lon="6.96822">
        <ele>654</ele>
        <time>2026-05-09T04:42:59.881Z</time>
      </trkpt>
      <trkpt lat="47.83279" lon="6.96825">
        <ele>654</ele>
        <time>2026-05-09T04:43:00.882Z</time>
      </trkpt>
      <trkpt lat="47.83278" lon="6.96826">
        <ele>654</ele>
        <time>2026-05-09T04:43:01.881Z</time>
      </trkpt>
      <trkpt lat="47.83277" lon="6.96828">
        <ele>654</ele>
        <time>2026-05-09T04:43:02.881Z</time>
      </trkpt>
      <trkpt lat="47.83277" lon="6.96828">
        <ele>654</ele>
        <time>2026-05-09T04:43:03.882Z</time>
      </trkpt>
      <trkpt lat="47.83276" lon="6.96831">
        <ele>653</ele>
        <time>2026-05-09T04:43:04.882Z</time>
      </trkpt>
      <trkpt lat="47.83276" lon="6.96832">
        <ele>653</ele>
        <time>2026-05-09T04:43:05.882Z</time>
      </trkpt>
      <trkpt lat="47.83275" lon="6.96834">
        <ele>653</ele>
        <time>2026-05-09T04:43:06.881Z</time>
      </trkpt>
      <trkpt lat="47.83275" lon="6.96835">
        <ele>653</ele>
        <time>2026-05-09T04:43:07.881Z</time>
      </trkpt>
      <trkpt lat="47.83274" lon="6.96837">
        <ele>653</ele>
        <time>2026-05-09T04:43:08.881Z</time>
      </trkpt>
      <trkpt lat="47.83274" lon="6.96839">
        <ele>653</ele>
        <time>2026-05-09T04:43:09.881Z</time>
      </trkpt>
      <trkpt lat="47.83274" lon="6.96841">
        <ele>653</ele>
        <time>2026-05-09T04:43:10.881Z</time>
      </trkpt>
      <trkpt lat="47.83273" lon="6.96843">
        <ele>654</ele>
        <time>2026-05-09T04:43:11.882Z</time>
      </trkpt>
      <trkpt lat="47.83273" lon="6.96845">
        <ele>654</ele>
        <time>2026-05-09T04:43:12.881Z</time>
      </trkpt>
      <trkpt lat="47.83273" lon="6.96847">
        <ele>655</ele>
        <time>2026-05-09T04:43:13.882Z</time>
      </trkpt>
      <trkpt lat="47.83272" lon="6.96848">
        <ele>656</ele>
        <time>2026-05-09T04:43:14.881Z</time>
      </trkpt>
      <trkpt lat="47.83272" lon="6.9685">
        <ele>656</ele>
        <time>2026-05-09T04:43:15.881Z</time>
      </trkpt>
      <trkpt lat="47.83271" lon="6.96851">
        <ele>656</ele>
        <time>2026-05-09T04:43:16.881Z</time>
      </trkpt>
      <trkpt lat="47.83271" lon="6.96853">
        <ele>656</ele>
        <time>2026-05-09T04:43:17.881Z</time>
      </trkpt>
      <trkpt lat="47.83271" lon="6.96854">
        <ele>656</ele>
        <time>2026-05-09T04:43:18.881Z</time>
      </trkpt>
      <trkpt lat="47.8327" lon="6.96855">
        <ele>656</ele>
        <time>2026-05-09T04:43:19.881Z</time>
      </trkpt>
      <trkpt lat="47.8327" lon="6.96857">
        <ele>656</ele>
        <time>2026-05-09T04:43:20.882Z</time>
      </trkpt>
      <trkpt lat="47.83269" lon="6.96858">
        <ele>656</ele>
        <time>2026-05-09T04:43:21.882Z</time>
      </trkpt>
      <trkpt lat="47.83268" lon="6.9686">
        <ele>656</ele>
        <time>2026-05-09T04:43:22.881Z</time>
      </trkpt>
      <trkpt lat="47.83268" lon="6.96861">
        <ele>656</ele>
        <time>2026-05-09T04:43:23.881Z</time>
      </trkpt>
      <trkpt lat="47.83268" lon="6.96861">
        <ele>656</ele>
        <time>2026-05-09T04:43:24.881Z</time>
      </trkpt>
      <trkpt lat="47.83267" lon="6.96864">
        <ele>656</ele>
        <time>2026-05-09T04:43:25.882Z</time>
      </trkpt>
      <trkpt lat="47.83266" lon="6.96865">
        <ele>656</ele>
        <time>2026-05-09T04:43:26.881Z</time>
      </trkpt>
      <trkpt lat="47.83266" lon="6.96867">
        <ele>656</ele>
        <time>2026-05-09T04:43:27.881Z</time>
      </trkpt>
      <trkpt lat="47.83266" lon="6.96867">
        <ele>656</ele>
        <time>2026-05-09T04:43:28.882Z</time>
      </trkpt>
      <trkpt lat="47.83265" lon="6.96869">
        <ele>657</ele>
        <time>2026-05-09T04:43:29.882Z</time>
      </trkpt>
      <trkpt lat="47.83264" lon="6.9687">
        <ele>657</ele>
        <time>2026-05-09T04:43:30.881Z</time>
      </trkpt>
      <trkpt lat="47.83264" lon="6.96871">
        <ele>657</ele>
        <time>2026-05-09T04:43:31.881Z</time>
      </trkpt>
      <trkpt lat="47.83264" lon="6.96872">
        <ele>657</ele>
        <time>2026-05-09T04:43:32.881Z</time>
      </trkpt>
      <trkpt lat="47.83264" lon="6.96874">
        <ele>657</ele>
        <time>2026-05-09T04:43:33.882Z</time>
      </trkpt>
      <trkpt lat="47.83264" lon="6.96875">
        <ele>657</ele>
        <time>2026-05-09T04:43:34.882Z</time>
      </trkpt>
      <trkpt lat="47.83264" lon="6.96876">
        <ele>657</ele>
        <time>2026-05-09T04:43:35.881Z</time>
      </trkpt>
      <trkpt lat="47.83263" lon="6.96877">
        <ele>657</ele>
        <time>2026-05-09T04:43:36.881Z</time>
      </trkpt>
      <trkpt lat="47.83263" lon="6.96879">
        <ele>657</ele>
        <time>2026-05-09T04:43:37.881Z</time>
      </trkpt>
      <trkpt lat="47.83262" lon="6.96881">
        <ele>657</ele>
        <time>2026-05-09T04:43:38.881Z</time>
      </trkpt>
      <trkpt lat="47.83262" lon="6.96882">
        <ele>657</ele>
        <time>2026-05-09T04:43:39.882Z</time>
      </trkpt>
      <trkpt lat="47.83262" lon="6.96884">
        <ele>657</ele>
        <time>2026-05-09T04:43:40.882Z</time>
      </trkpt>
      <trkpt lat="47.83262" lon="6.96885">
        <ele>657</ele>
        <time>2026-05-09T04:43:41.881Z</time>
      </trkpt>
      <trkpt lat="47.83262" lon="6.96887">
        <ele>657</ele>
        <time>2026-05-09T04:43:42.882Z</time>
      </trkpt>
      <trkpt lat="47.83262" lon="6.9689">
        <ele>657</ele>
        <time>2026-05-09T04:43:43.881Z</time>
      </trkpt>
      <trkpt lat="47.83262" lon="6.9689">
        <ele>657</ele>
        <time>2026-05-09T04:43:44.882Z</time>
      </trkpt>
      <trkpt lat="47.83262" lon="6.96893">
        <ele>657</ele>
        <time>2026-05-09T04:43:45.881Z</time>
      </trkpt>
      <trkpt lat="47.83262" lon="6.96895">
        <ele>657</ele>
        <time>2026-05-09T04:43:46.881Z</time>
      </trkpt>
      <trkpt lat="47.83261" lon="6.96897">
        <ele>657</ele>
        <time>2026-05-09T04:43:47.882Z</time>
      </trkpt>
      <trkpt lat="47.83261" lon="6.969">
        <ele>657</ele>
        <time>2026-05-09T04:43:48.881Z</time>
      </trkpt>
      <trkpt lat="47.83261" lon="6.969">
        <ele>657</ele>
        <time>2026-05-09T04:43:49.881Z</time>
      </trkpt>
      <trkpt lat="47.83262" lon="6.96904">
        <ele>657</ele>
        <time>2026-05-09T04:43:50.881Z</time>
      </trkpt>
      <trkpt lat="47.83263" lon="6.96906">
        <ele>657</ele>
        <time>2026-05-09T04:43:51.881Z</time>
      </trkpt>
      <trkpt lat="47.83263" lon="6.96908">
        <ele>657</ele>
        <time>2026-05-09T04:43:52.881Z</time>
      </trkpt>
      <trkpt lat="47.83263" lon="6.96908">
        <ele>657</ele>
        <time>2026-05-09T04:43:53.882Z</time>
      </trkpt>
      <trkpt lat="47.83264" lon="6.96912">
        <ele>657</ele>
        <time>2026-05-09T04:43:54.881Z</time>
      </trkpt>
      <trkpt lat="47.83264" lon="6.96914">
        <ele>657</ele>
        <time>2026-05-09T04:43:55.881Z</time>
      </trkpt>
      <trkpt lat="47.83264" lon="6.96916">
        <ele>657</ele>
        <time>2026-05-09T04:43:56.881Z</time>
      </trkpt>
      <trkpt lat="47.83265" lon="6.96918">
        <ele>657</ele>
        <time>2026-05-09T04:43:57.881Z</time>
      </trkpt>
      <trkpt lat="47.83265" lon="6.96919">
        <ele>656</ele>
        <time>2026-05-09T04:43:58.881Z</time>
      </trkpt>
      <trkpt lat="47.83265" lon="6.96921">
        <ele>656</ele>
        <time>2026-05-09T04:43:59.881Z</time>
      </trkpt>
      <trkpt lat="47.83266" lon="6.96923">
        <ele>656</ele>
        <time>2026-05-09T04:44:00.882Z</time>
      </trkpt>
      <trkpt lat="47.83266" lon="6.96924">
        <ele>656</ele>
        <time>2026-05-09T04:44:01.881Z</time>
      </trkpt>
      <trkpt lat="47.83267" lon="6.96926">
        <ele>655</ele>
        <time>2026-05-09T04:44:02.882Z</time>
      </trkpt>
      <trkpt lat="47.83267" lon="6.96928">
        <ele>655</ele>
        <time>2026-05-09T04:44:03.881Z</time>
      </trkpt>
      <trkpt lat="47.83268" lon="6.9693">
        <ele>655</ele>
        <time>2026-05-09T04:44:04.881Z</time>
      </trkpt>
      <trkpt lat="47.83268" lon="6.96932">
        <ele>655</ele>
        <time>2026-05-09T04:44:05.881Z</time>
      </trkpt>
      <trkpt lat="47.83268" lon="6.96934">
        <ele>656</ele>
        <time>2026-05-09T04:44:06.881Z</time>
      </trkpt>
      <trkpt lat="47.83268" lon="6.96935">
        <ele>656</ele>
        <time>2026-05-09T04:44:07.881Z</time>
      </trkpt>
      <trkpt lat="47.83269" lon="6.96937">
        <ele>656</ele>
        <time>2026-05-09T04:44:08.881Z</time>
      </trkpt>
      <trkpt lat="47.83269" lon="6.96937">
        <ele>656</ele>
        <time>2026-05-09T04:44:09.882Z</time>
      </trkpt>
      <trkpt lat="47.8327" lon="6.9694">
        <ele>656</ele>
        <time>2026-05-09T04:44:10.881Z</time>
      </trkpt>
      <trkpt lat="47.8327" lon="6.96942">
        <ele>656</ele>
        <time>2026-05-09T04:44:11.881Z</time>
      </trkpt>
      <trkpt lat="47.8327" lon="6.96943">
        <ele>656</ele>
        <time>2026-05-09T04:44:12.881Z</time>
      </trkpt>
      <trkpt lat="47.8327" lon="6.96943">
        <ele>656</ele>
        <time>2026-05-09T04:44:13.882Z</time>
      </trkpt>
      <trkpt lat="47.83271" lon="6.96945">
        <ele>655</ele>
        <time>2026-05-09T04:44:14.881Z</time>
      </trkpt>
      <trkpt lat="47.83271" lon="6.96948">
        <ele>656</ele>
        <time>2026-05-09T04:44:15.881Z</time>
      </trkpt>
      <trkpt lat="47.83271" lon="6.9695">
        <ele>655</ele>
        <time>2026-05-09T04:44:16.881Z</time>
      </trkpt>
      <trkpt lat="47.83271" lon="6.96952">
        <ele>655</ele>
        <time>2026-05-09T04:44:17.881Z</time>
      </trkpt>
      <trkpt lat="47.83271" lon="6.96952">
        <ele>655</ele>
        <time>2026-05-09T04:44:18.882Z</time>
      </trkpt>
      <trkpt lat="47.83272" lon="6.96957">
        <ele>655</ele>
        <time>2026-05-09T04:44:19.882Z</time>
      </trkpt>
      <trkpt lat="47.83273" lon="6.96958">
        <ele>655</ele>
        <time>2026-05-09T04:44:20.881Z</time>
      </trkpt>
      <trkpt lat="47.83273" lon="6.9696">
        <ele>655</ele>
        <time>2026-05-09T04:44:21.881Z</time>
      </trkpt>
      <trkpt lat="47.83273" lon="6.96962">
        <ele>655</ele>
        <time>2026-05-09T04:44:22.881Z</time>
      </trkpt>
      <trkpt lat="47.83273" lon="6.96963">
        <ele>656</ele>
        <time>2026-05-09T04:44:23.881Z</time>
      </trkpt>
      <trkpt lat="47.83273" lon="6.96966">
        <ele>656</ele>
        <time>2026-05-09T04:44:24.881Z</time>
      </trkpt>
      <trkpt lat="47.83273" lon="6.96967">
        <ele>656</ele>
        <time>2026-05-09T04:44:25.881Z</time>
      </trkpt>
      <trkpt lat="47.83272" lon="6.96969">
        <ele>656</ele>
        <time>2026-05-09T04:44:26.882Z</time>
      </trkpt>
      <trkpt lat="47.83272" lon="6.9697">
        <ele>657</ele>
        <time>2026-05-09T04:44:27.881Z</time>
      </trkpt>
      <trkpt lat="47.83271" lon="6.96971">
        <ele>657</ele>
        <time>2026-05-09T04:44:28.881Z</time>
      </trkpt>
      <trkpt lat="47.83271" lon="6.96973">
        <ele>658</ele>
        <time>2026-05-09T04:44:29.881Z</time>
      </trkpt>
      <trkpt lat="47.83271" lon="6.96974">
        <ele>658</ele>
        <time>2026-05-09T04:44:30.881Z</time>
      </trkpt>
      <trkpt lat="47.8327" lon="6.96975">
        <ele>658</ele>
        <time>2026-05-09T04:44:31.881Z</time>
      </trkpt>
      <trkpt lat="47.8327" lon="6.96976">
        <ele>658</ele>
        <time>2026-05-09T04:44:32.881Z</time>
      </trkpt>
      <trkpt lat="47.8327" lon="6.96976">
        <ele>658</ele>
        <time>2026-05-09T04:44:33.881Z</time>
      </trkpt>
      <trkpt lat="47.83269" lon="6.96979">
        <ele>659</ele>
        <time>2026-05-09T04:44:34.881Z</time>
      </trkpt>
      <trkpt lat="47.83268" lon="6.96981">
        <ele>659</ele>
        <time>2026-05-09T04:44:35.881Z</time>
      </trkpt>
      <trkpt lat="47.83267" lon="6.96982">
        <ele>659</ele>
        <time>2026-05-09T04:44:36.881Z</time>
      </trkpt>
      <trkpt lat="47.83266" lon="6.96983">
        <ele>659</ele>
        <time>2026-05-09T04:44:37.881Z</time>
      </trkpt>
      <trkpt lat="47.83266" lon="6.96983">
        <ele>659</ele>
        <time>2026-05-09T04:44:38.882Z</time>
      </trkpt>
      <trkpt lat="47.83265" lon="6.96986">
        <ele>660</ele>
        <time>2026-05-09T04:44:39.881Z</time>
      </trkpt>
      <trkpt lat="47.83264" lon="6.96987">
        <ele>660</ele>
        <time>2026-05-09T04:44:40.882Z</time>
      </trkpt>
      <trkpt lat="47.83264" lon="6.96989">
        <ele>660</ele>
        <time>2026-05-09T04:44:41.881Z</time>
      </trkpt>
      <trkpt lat="47.83264" lon="6.9699">
        <ele>660</ele>
        <time>2026-05-09T04:44:42.882Z</time>
      </trkpt>
      <trkpt lat="47.83264" lon="6.96991">
        <ele>660</ele>
        <time>2026-05-09T04:44:43.882Z</time>
      </trkpt>
      <trkpt lat="47.83263" lon="6.96993">
        <ele>660</ele>
        <time>2026-05-09T04:44:44.881Z</time>
      </trkpt>
      <trkpt lat="47.83263" lon="6.96994">
        <ele>660</ele>
        <time>2026-05-09T04:44:45.881Z</time>
      </trkpt>
      <trkpt lat="47.83262" lon="6.96995">
        <ele>660</ele>
        <time>2026-05-09T04:44:46.881Z</time>
      </trkpt>
      <trkpt lat="47.83262" lon="6.96996">
        <ele>660</ele>
        <time>2026-05-09T04:44:47.881Z</time>
      </trkpt>
      <trkpt lat="47.83262" lon="6.96998">
        <ele>660</ele>
        <time>2026-05-09T04:44:48.881Z</time>
      </trkpt>
      <trkpt lat="47.83262" lon="6.96998">
        <ele>660</ele>
        <time>2026-05-09T04:44:49.881Z</time>
      </trkpt>
      <trkpt lat="47.83262" lon="6.97001">
        <ele>661</ele>
        <time>2026-05-09T04:44:50.881Z</time>
      </trkpt>
      <trkpt lat="47.83262" lon="6.97003">
        <ele>661</ele>
        <time>2026-05-09T04:44:51.881Z</time>
      </trkpt>
      <trkpt lat="47.83262" lon="6.97005">
        <ele>661</ele>
        <time>2026-05-09T04:44:52.881Z</time>
      </trkpt>
      <trkpt lat="47.83262" lon="6.97005">
        <ele>661</ele>
        <time>2026-05-09T04:44:53.881Z</time>
      </trkpt>
      <trkpt lat="47.83262" lon="6.97006">
        <ele>662</ele>
        <time>2026-05-09T04:44:54.881Z</time>
      </trkpt>
      <trkpt lat="47.83262" lon="6.9701">
        <ele>662</ele>
        <time>2026-05-09T04:44:55.881Z</time>
      </trkpt>
      <trkpt lat="47.83262" lon="6.97012">
        <ele>662</ele>
        <time>2026-05-09T04:44:56.881Z</time>
      </trkpt>
      <trkpt lat="47.83262" lon="6.97013">
        <ele>662</ele>
        <time>2026-05-09T04:44:57.881Z</time>
      </trkpt>
      <trkpt lat="47.83262" lon="6.97013">
        <ele>662</ele>
        <time>2026-05-09T04:44:58.882Z</time>
      </trkpt>
      <trkpt lat="47.83262" lon="6.97015">
        <ele>662</ele>
        <time>2026-05-09T04:44:59.881Z</time>
      </trkpt>
      <trkpt lat="47.83261" lon="6.97018">
        <ele>662</ele>
        <time>2026-05-09T04:45:00.881Z</time>
      </trkpt>
      <trkpt lat="47.8326" lon="6.9702">
        <ele>662</ele>
        <time>2026-05-09T04:45:01.881Z</time>
      </trkpt>
      <trkpt lat="47.8326" lon="6.97021">
        <ele>663</ele>
        <time>2026-05-09T04:45:02.881Z</time>
      </trkpt>
      <trkpt lat="47.8326" lon="6.97021">
        <ele>663</ele>
        <time>2026-05-09T04:45:03.881Z</time>
      </trkpt>
      <trkpt lat="47.83259" lon="6.97023">
        <ele>663</ele>
        <time>2026-05-09T04:45:04.882Z</time>
      </trkpt>
      <trkpt lat="47.83258" lon="6.97025">
        <ele>663</ele>
        <time>2026-05-09T04:45:05.881Z</time>
      </trkpt>
      <trkpt lat="47.83258" lon="6.97027">
        <ele>663</ele>
        <time>2026-05-09T04:45:06.881Z</time>
      </trkpt>
      <trkpt lat="47.83258" lon="6.97028">
        <ele>664</ele>
        <time>2026-05-09T04:45:07.881Z</time>
      </trkpt>
      <trkpt lat="47.83258" lon="6.97028">
        <ele>664</ele>
        <time>2026-05-09T04:45:08.881Z</time>
      </trkpt>
      <trkpt lat="47.83258" lon="6.9703">
        <ele>664</ele>
        <time>2026-05-09T04:45:09.881Z</time>
      </trkpt>
      <trkpt lat="47.83258" lon="6.97033">
        <ele>665</ele>
        <time>2026-05-09T04:45:10.881Z</time>
      </trkpt>
      <trkpt lat="47.83257" lon="6.97035">
        <ele>665</ele>
        <time>2026-05-09T04:45:11.881Z</time>
      </trkpt>
      <trkpt lat="47.83257" lon="6.97037">
        <ele>665</ele>
        <time>2026-05-09T04:45:12.881Z</time>
      </trkpt>
      <trkpt lat="47.83257" lon="6.97037">
        <ele>665</ele>
        <time>2026-05-09T04:45:13.881Z</time>
      </trkpt>
      <trkpt lat="47.83258" lon="6.97038">
        <ele>666</ele>
        <time>2026-05-09T04:45:14.882Z</time>
      </trkpt>
      <trkpt lat="47.83258" lon="6.97042">
        <ele>666</ele>
        <time>2026-05-09T04:45:15.882Z</time>
      </trkpt>
      <trkpt lat="47.83258" lon="6.97043">
        <ele>666</ele>
        <time>2026-05-09T04:45:16.881Z</time>
      </trkpt>
      <trkpt lat="47.83258" lon="6.97045">
        <ele>666</ele>
        <time>2026-05-09T04:45:17.881Z</time>
      </trkpt>
      <trkpt lat="47.83257" lon="6.97046">
        <ele>666</ele>
        <time>2026-05-09T04:45:18.881Z</time>
      </trkpt>
      <trkpt lat="47.83256" lon="6.97047">
        <ele>665</ele>
        <time>2026-05-09T04:45:19.881Z</time>
      </trkpt>
      <trkpt lat="47.83256" lon="6.97047">
        <ele>665</ele>
        <time>2026-05-09T04:45:20.882Z</time>
      </trkpt>
      <trkpt lat="47.83255" lon="6.9705">
        <ele>665</ele>
        <time>2026-05-09T04:45:21.881Z</time>
      </trkpt>
      <trkpt lat="47.83255" lon="6.97051">
        <ele>665</ele>
        <time>2026-05-09T04:45:22.881Z</time>
      </trkpt>
      <trkpt lat="47.83256" lon="6.97054">
        <ele>665</ele>
        <time>2026-05-09T04:45:23.881Z</time>
      </trkpt>
      <trkpt lat="47.83256" lon="6.97054">
        <ele>665</ele>
        <time>2026-05-09T04:45:24.881Z</time>
      </trkpt>
      <trkpt lat="47.83257" lon="6.97057">
        <ele>665</ele>
        <time>2026-05-09T04:45:25.881Z</time>
      </trkpt>
      <trkpt lat="47.83257" lon="6.97057">
        <ele>665</ele>
        <time>2026-05-09T04:45:26.881Z</time>
      </trkpt>
      <trkpt lat="47.83257" lon="6.97058">
        <ele>665</ele>
        <time>2026-05-09T04:45:27.882Z</time>
      </trkpt>
      <trkpt lat="47.83257" lon="6.97058">
        <ele>665</ele>
        <time>2026-05-09T04:45:28.882Z</time>
      </trkpt>
      <trkpt lat="47.83254" lon="6.97056">
        <ele>664</ele>
        <time>2026-05-09T04:45:29.881Z</time>
      </trkpt>
      <trkpt lat="47.83253" lon="6.97057">
        <ele>663</ele>
        <time>2026-05-09T04:45:30.881Z</time>
      </trkpt>
      <trkpt lat="47.83252" lon="6.97058">
        <ele>663</ele>
        <time>2026-05-09T04:45:31.881Z</time>
      </trkpt>
      <trkpt lat="47.83251" lon="6.97059">
        <ele>662</ele>
        <time>2026-05-09T04:45:32.882Z</time>
      </trkpt>
      <trkpt lat="47.8325" lon="6.97059">
        <ele>661</ele>
        <time>2026-05-09T04:45:33.882Z</time>
      </trkpt>
      <trkpt lat="47.8325" lon="6.9706">
        <ele>661</ele>
        <time>2026-05-09T04:45:34.881Z</time>
      </trkpt>
      <trkpt lat="47.8325" lon="6.9706">
        <ele>660</ele>
        <time>2026-05-09T04:45:35.881Z</time>
      </trkpt>
      <trkpt lat="47.8325" lon="6.9706">
        <ele>660</ele>
        <time>2026-05-09T04:45:36.881Z</time>
      </trkpt>
      <trkpt lat="47.8325" lon="6.97059">
        <ele>655</ele>
        <time>2026-05-09T04:45:49.055Z</time>
      </trkpt>
      <trkpt lat="47.8325" lon="6.97059">
        <ele>670</ele>
        <time>2026-05-09T04:46:18.239Z</time>
      </trkpt>
      <trkpt lat="47.8325" lon="6.97059">
        <ele>671</ele>
        <time>2026-05-09T04:46:19.240Z</time>
      </trkpt>
      <trkpt lat="47.83247" lon="6.97104">
        <ele>672</ele>
        <time>2026-05-09T04:48:09.299Z</time>
      </trkpt>
      <trkpt lat="47.83246" lon="6.97105">
        <ele>672</ele>
        <time>2026-05-09T04:48:10.299Z</time>
      </trkpt>
      <trkpt lat="47.83246" lon="6.97106">
        <ele>672</ele>
        <time>2026-05-09T04:48:11.300Z</time>
      </trkpt>
      <trkpt lat="47.83245" lon="6.97107">
        <ele>671</ele>
        <time>2026-05-09T04:48:12.300Z</time>
      </trkpt>
      <trkpt lat="47.83245" lon="6.97108">
        <ele>671</ele>
        <time>2026-05-09T04:48:13.299Z</time>
      </trkpt>
      <trkpt lat="47.83244" lon="6.9711">
        <ele>671</ele>
        <time>2026-05-09T04:48:14.299Z</time>
      </trkpt>
      <trkpt lat="47.83243" lon="6.97111">
        <ele>671</ele>
        <time>2026-05-09T04:48:15.300Z</time>
      </trkpt>
      <trkpt lat="47.83243" lon="6.97112">
        <ele>671</ele>
        <time>2026-05-09T04:48:16.299Z</time>
      </trkpt>
      <trkpt lat="47.83243" lon="6.97113">
        <ele>671</ele>
        <time>2026-05-09T04:48:17.300Z</time>
      </trkpt>
      <trkpt lat="47.83243" lon="6.97114">
        <ele>671</ele>
        <time>2026-05-09T04:48:18.299Z</time>
      </trkpt>
      <trkpt lat="47.83242" lon="6.97115">
        <ele>671</ele>
        <time>2026-05-09T04:48:19.300Z</time>
      </trkpt>
      <trkpt lat="47.83241" lon="6.97117">
        <ele>671</ele>
        <time>2026-05-09T04:48:20.299Z</time>
      </trkpt>
      <trkpt lat="47.83241" lon="6.97118">
        <ele>671</ele>
        <time>2026-05-09T04:48:21.299Z</time>
      </trkpt>
      <trkpt lat="47.83241" lon="6.97119">
        <ele>671</ele>
        <time>2026-05-09T04:48:22.300Z</time>
      </trkpt>
      <trkpt lat="47.83241" lon="6.97121">
        <ele>671</ele>
        <time>2026-05-09T04:48:23.299Z</time>
      </trkpt>
      <trkpt lat="47.8324" lon="6.97122">
        <ele>671</ele>
        <time>2026-05-09T04:48:24.300Z</time>
      </trkpt>
      <trkpt lat="47.8324" lon="6.97124">
        <ele>670</ele>
        <time>2026-05-09T04:48:25.299Z</time>
      </trkpt>
      <trkpt lat="47.83239" lon="6.97126">
        <ele>670</ele>
        <time>2026-05-09T04:48:26.299Z</time>
      </trkpt>
      <trkpt lat="47.83239" lon="6.97128">
        <ele>669</ele>
        <time>2026-05-09T04:48:27.300Z</time>
      </trkpt>
      <trkpt lat="47.83239" lon="6.9713">
        <ele>669</ele>
        <time>2026-05-09T04:48:28.299Z</time>
      </trkpt>
      <trkpt lat="47.83238" lon="6.97132">
        <ele>669</ele>
        <time>2026-05-09T04:48:29.300Z</time>
      </trkpt>
      <trkpt lat="47.8324" lon="6.97133">
        <ele>669</ele>
        <time>2026-05-09T04:48:30.299Z</time>
      </trkpt>
      <trkpt lat="47.83241" lon="6.97135">
        <ele>669</ele>
        <time>2026-05-09T04:48:31.300Z</time>
      </trkpt>
      <trkpt lat="47.83241" lon="6.97136">
        <ele>669</ele>
        <time>2026-05-09T04:48:32.300Z</time>
      </trkpt>
      <trkpt lat="47.83242" lon="6.97137">
        <ele>670</ele>
        <time>2026-05-09T04:48:33.299Z</time>
      </trkpt>
      <trkpt lat="47.83242" lon="6.97139">
        <ele>670</ele>
        <time>2026-05-09T04:48:34.300Z</time>
      </trkpt>
      <trkpt lat="47.83241" lon="6.97141">
        <ele>670</ele>
        <time>2026-05-09T04:48:35.299Z</time>
      </trkpt>
      <trkpt lat="47.8324" lon="6.97142">
        <ele>670</ele>
        <time>2026-05-09T04:48:36.299Z</time>
      </trkpt>
      <trkpt lat="47.8324" lon="6.97143">
        <ele>670</ele>
        <time>2026-05-09T04:48:37.299Z</time>
      </trkpt>
      <trkpt lat="47.83241" lon="6.97144">
        <ele>670</ele>
        <time>2026-05-09T04:48:38.300Z</time>
      </trkpt>
      <trkpt lat="47.83242" lon="6.97146">
        <ele>671</ele>
        <time>2026-05-09T04:48:39.300Z</time>
      </trkpt>
      <trkpt lat="47.83242" lon="6.97148">
        <ele>671</ele>
        <time>2026-05-09T04:48:40.299Z</time>
      </trkpt>
      <trkpt lat="47.83242" lon="6.9715">
        <ele>671</ele>
        <time>2026-05-09T04:48:41.299Z</time>
      </trkpt>
      <trkpt lat="47.83243" lon="6.97152">
        <ele>672</ele>
        <time>2026-05-09T04:48:42.299Z</time>
      </trkpt>
      <trkpt lat="47.83243" lon="6.97153">
        <ele>672</ele>
        <time>2026-05-09T04:48:43.300Z</time>
      </trkpt>
      <trkpt lat="47.83243" lon="6.97155">
        <ele>672</ele>
        <time>2026-05-09T04:48:44.299Z</time>
      </trkpt>
      <trkpt lat="47.83243" lon="6.97155">
        <ele>673</ele>
        <time>2026-05-09T04:48:45.299Z</time>
      </trkpt>
      <trkpt lat="47.83243" lon="6.97156">
        <ele>673</ele>
        <time>2026-05-09T04:48:46.299Z</time>
      </trkpt>
      <trkpt lat="47.83243" lon="6.97158">
        <ele>673</ele>
        <time>2026-05-09T04:48:47.299Z</time>
      </trkpt>
      <trkpt lat="47.83243" lon="6.97159">
        <ele>674</ele>
        <time>2026-05-09T04:48:48.300Z</time>
      </trkpt>
      <trkpt lat="47.83244" lon="6.9716">
        <ele>674</ele>
        <time>2026-05-09T04:48:49.299Z</time>
      </trkpt>
      <trkpt lat="47.83245" lon="6.97162">
        <ele>674</ele>
        <time>2026-05-09T04:48:50.300Z</time>
      </trkpt>
      <trkpt lat="47.83245" lon="6.97163">
        <ele>675</ele>
        <time>2026-05-09T04:48:51.299Z</time>
      </trkpt>
      <trkpt lat="47.83245" lon="6.97164">
        <ele>674</ele>
        <time>2026-05-09T04:48:52.299Z</time>
      </trkpt>
      <trkpt lat="47.83245" lon="6.97165">
        <ele>674</ele>
        <time>2026-05-09T04:48:53.300Z</time>
      </trkpt>
      <trkpt lat="47.83245" lon="6.97167">
        <ele>674</ele>
        <time>2026-05-09T04:48:54.299Z</time>
      </trkpt>
      <trkpt lat="47.83244" lon="6.97168">
        <ele>674</ele>
        <time>2026-05-09T04:48:55.300Z</time>
      </trkpt>
      <trkpt lat="47.83244" lon="6.9717">
        <ele>674</ele>
        <time>2026-05-09T04:48:56.299Z</time>
      </trkpt>
      <trkpt lat="47.83243" lon="6.9717">
        <ele>674</ele>
        <time>2026-05-09T04:48:57.300Z</time>
      </trkpt>
      <trkpt lat="47.83242" lon="6.97172">
        <ele>674</ele>
        <time>2026-05-09T04:48:58.299Z</time>
      </trkpt>
      <trkpt lat="47.83241" lon="6.97172">
        <ele>674</ele>
        <time>2026-05-09T04:48:59.299Z</time>
      </trkpt>
      <trkpt lat="47.8324" lon="6.97173">
        <ele>673</ele>
        <time>2026-05-09T04:49:00.299Z</time>
      </trkpt>
      <trkpt lat="47.8324" lon="6.97174">
        <ele>672</ele>
        <time>2026-05-09T04:49:01.300Z</time>
      </trkpt>
      <trkpt lat="47.83239" lon="6.97176">
        <ele>672</ele>
        <time>2026-05-09T04:49:02.299Z</time>
      </trkpt>
      <trkpt lat="47.83238" lon="6.97177">
        <ele>671</ele>
        <time>2026-05-09T04:49:03.300Z</time>
      </trkpt>
      <trkpt lat="47.83238" lon="6.97178">
        <ele>671</ele>
        <time>2026-05-09T04:49:04.299Z</time>
      </trkpt>
      <trkpt lat="47.83238" lon="6.9718">
        <ele>670</ele>
        <time>2026-05-09T04:49:05.299Z</time>
      </trkpt>
      <trkpt lat="47.83238" lon="6.97181">
        <ele>670</ele>
        <time>2026-05-09T04:49:06.299Z</time>
      </trkpt>
      <trkpt lat="47.83238" lon="6.97183">
        <ele>670</ele>
        <time>2026-05-09T04:49:07.299Z</time>
      </trkpt>
      <trkpt lat="47.83237" lon="6.97184">
        <ele>670</ele>
        <time>2026-05-09T04:49:08.299Z</time>
      </trkpt>
      <trkpt lat="47.83237" lon="6.97185">
        <ele>669</ele>
        <time>2026-05-09T04:49:09.299Z</time>
      </trkpt>
      <trkpt lat="47.83238" lon="6.97187">
        <ele>669</ele>
        <time>2026-05-09T04:49:10.299Z</time>
      </trkpt>
      <trkpt lat="47.83238" lon="6.97188">
        <ele>670</ele>
        <time>2026-05-09T04:49:11.300Z</time>
      </trkpt>
      <trkpt lat="47.83238" lon="6.9719">
        <ele>670</ele>
        <time>2026-05-09T04:49:12.299Z</time>
      </trkpt>
      <trkpt lat="47.83238" lon="6.97191">
        <ele>670</ele>
        <time>2026-05-09T04:49:13.300Z</time>
      </trkpt>
      <trkpt lat="47.83239" lon="6.97193">
        <ele>670</ele>
        <time>2026-05-09T04:49:14.300Z</time>
      </trkpt>
      <trkpt lat="47.83239" lon="6.97194">
        <ele>670</ele>
        <time>2026-05-09T04:49:15.299Z</time>
      </trkpt>
      <trkpt lat="47.83239" lon="6.97195">
        <ele>670</ele>
        <time>2026-05-09T04:49:16.300Z</time>
      </trkpt>
      <trkpt lat="47.83238" lon="6.97197">
        <ele>670</ele>
        <time>2026-05-09T04:49:17.299Z</time>
      </trkpt>
      <trkpt lat="47.83238" lon="6.97199">
        <ele>671</ele>
        <time>2026-05-09T04:49:18.300Z</time>
      </trkpt>
      <trkpt lat="47.83238" lon="6.972">
        <ele>671</ele>
        <time>2026-05-09T04:49:19.299Z</time>
      </trkpt>
      <trkpt lat="47.83237" lon="6.97201">
        <ele>672</ele>
        <time>2026-05-09T04:49:20.300Z</time>
      </trkpt>
      <trkpt lat="47.83237" lon="6.97202">
        <ele>672</ele>
        <time>2026-05-09T04:49:21.300Z</time>
      </trkpt>
      <trkpt lat="47.83237" lon="6.97203">
        <ele>672</ele>
        <time>2026-05-09T04:49:22.299Z</time>
      </trkpt>
      <trkpt lat="47.83237" lon="6.97204">
        <ele>673</ele>
        <time>2026-05-09T04:49:23.300Z</time>
      </trkpt>
      <trkpt lat="47.83238" lon="6.97205">
        <ele>673</ele>
        <time>2026-05-09T04:49:24.299Z</time>
      </trkpt>
      <trkpt lat="47.83238" lon="6.97207">
        <ele>673</ele>
        <time>2026-05-09T04:49:25.300Z</time>
      </trkpt>
      <trkpt lat="47.83238" lon="6.97208">
        <ele>673</ele>
        <time>2026-05-09T04:49:26.299Z</time>
      </trkpt>
      <trkpt lat="47.83238" lon="6.9721">
        <ele>672</ele>
        <time>2026-05-09T04:49:27.300Z</time>
      </trkpt>
      <trkpt lat="47.83237" lon="6.97211">
        <ele>672</ele>
        <time>2026-05-09T04:49:28.300Z</time>
      </trkpt>
      <trkpt lat="47.83237" lon="6.97213">
        <ele>672</ele>
        <time>2026-05-09T04:49:29.299Z</time>
      </trkpt>
      <trkpt lat="47.83237" lon="6.97214">
        <ele>672</ele>
        <time>2026-05-09T04:49:30.299Z</time>
      </trkpt>
      <trkpt lat="47.83237" lon="6.97215">
        <ele>671</ele>
        <time>2026-05-09T04:49:31.299Z</time>
      </trkpt>
      <trkpt lat="47.83237" lon="6.97217">
        <ele>671</ele>
        <time>2026-05-09T04:49:32.299Z</time>
      </trkpt>
      <trkpt lat="47.83237" lon="6.97218">
        <ele>671</ele>
        <time>2026-05-09T04:49:33.299Z</time>
      </trkpt>
      <trkpt lat="47.83237" lon="6.9722">
        <ele>671</ele>
        <time>2026-05-09T04:49:34.299Z</time>
      </trkpt>
      <trkpt lat="47.83238" lon="6.97222">
        <ele>670</ele>
        <time>2026-05-09T04:49:35.300Z</time>
      </trkpt>
      <trkpt lat="47.83238" lon="6.97223">
        <ele>670</ele>
        <time>2026-05-09T04:49:36.300Z</time>
      </trkpt>
      <trkpt lat="47.83238" lon="6.97225">
        <ele>670</ele>
        <time>2026-05-09T04:49:37.299Z</time>
      </trkpt>
      <trkpt lat="47.83238" lon="6.97226">
        <ele>670</ele>
        <time>2026-05-09T04:49:38.299Z</time>
      </trkpt>
      <trkpt lat="47.83238" lon="6.97228">
        <ele>671</ele>
        <time>2026-05-09T04:49:39.300Z</time>
      </trkpt>
      <trkpt lat="47.83238" lon="6.97229">
        <ele>671</ele>
        <time>2026-05-09T04:49:40.299Z</time>
      </trkpt>
      <trkpt lat="47.83237" lon="6.97231">
        <ele>671</ele>
        <time>2026-05-09T04:49:41.299Z</time>
      </trkpt>
      <trkpt lat="47.83238" lon="6.97232">
        <ele>671</ele>
        <time>2026-05-09T04:49:42.299Z</time>
      </trkpt>
      <trkpt lat="47.83237" lon="6.97234">
        <ele>671</ele>
        <time>2026-05-09T04:49:43.300Z</time>
      </trkpt>
      <trkpt lat="47.83238" lon="6.97236">
        <ele>672</ele>
        <time>2026-05-09T04:49:44.299Z</time>
      </trkpt>
      <trkpt lat="47.83238" lon="6.97238">
        <ele>672</ele>
        <time>2026-05-09T04:49:45.300Z</time>
      </trkpt>
      <trkpt lat="47.83238" lon="6.97239">
        <ele>672</ele>
        <time>2026-05-09T04:49:46.300Z</time>
      </trkpt>
      <trkpt lat="47.83238" lon="6.97241">
        <ele>672</ele>
        <time>2026-05-09T04:49:47.299Z</time>
      </trkpt>
      <trkpt lat="47.83239" lon="6.97243">
        <ele>673</ele>
        <time>2026-05-09T04:49:48.299Z</time>
      </trkpt>
      <trkpt lat="47.83239" lon="6.97244">
        <ele>673</ele>
        <time>2026-05-09T04:49:49.300Z</time>
      </trkpt>
      <trkpt lat="47.8324" lon="6.97245">
        <ele>674</ele>
        <time>2026-05-09T04:49:50.300Z</time>
      </trkpt>
      <trkpt lat="47.83239" lon="6.97247">
        <ele>675</ele>
        <time>2026-05-09T04:49:51.299Z</time>
      </trkpt>
      <trkpt lat="47.83239" lon="6.97249">
        <ele>675</ele>
        <time>2026-05-09T04:49:52.299Z</time>
      </trkpt>
      <trkpt lat="47.83238" lon="6.97251">
        <ele>676</ele>
        <time>2026-05-09T04:49:53.299Z</time>
      </trkpt>
      <trkpt lat="47.83237" lon="6.97252">
        <ele>676</ele>
        <time>2026-05-09T04:49:54.299Z</time>
      </trkpt>
      <trkpt lat="47.83236" lon="6.97253">
        <ele>676</ele>
        <time>2026-05-09T04:49:55.300Z</time>
      </trkpt>
      <trkpt lat="47.83237" lon="6.97256">
        <ele>676</ele>
        <time>2026-05-09T04:49:56.300Z</time>
      </trkpt>
      <trkpt lat="47.83237" lon="6.97257">
        <ele>676</ele>
        <time>2026-05-09T04:49:57.299Z</time>
      </trkpt>
      <trkpt lat="47.83236" lon="6.97258">
        <ele>676</ele>
        <time>2026-05-09T04:49:58.300Z</time>
      </trkpt>
      <trkpt lat="47.83236" lon="6.97259">
        <ele>676</ele>
        <time>2026-05-09T04:49:59.300Z</time>
      </trkpt>
      <trkpt lat="47.83236" lon="6.97261">
        <ele>676</ele>
        <time>2026-05-09T04:50:00.299Z</time>
      </trkpt>
      <trkpt lat="47.83236" lon="6.97262">
        <ele>676</ele>
        <time>2026-05-09T04:50:01.299Z</time>
      </trkpt>
      <trkpt lat="47.83236" lon="6.97264">
        <ele>677</ele>
        <time>2026-05-09T04:50:02.299Z</time>
      </trkpt>
      <trkpt lat="47.83236" lon="6.97265">
        <ele>677</ele>
        <time>2026-05-09T04:50:03.299Z</time>
      </trkpt>
      <trkpt lat="47.83236" lon="6.97266">
        <ele>677</ele>
        <time>2026-05-09T04:50:04.299Z</time>
      </trkpt>
      <trkpt lat="47.83236" lon="6.97268">
        <ele>677</ele>
        <time>2026-05-09T04:50:05.299Z</time>
      </trkpt>
      <trkpt lat="47.83236" lon="6.9727">
        <ele>677</ele>
        <time>2026-05-09T04:50:06.299Z</time>
      </trkpt>
      <trkpt lat="47.83235" lon="6.97271">
        <ele>677</ele>
        <time>2026-05-09T04:50:07.299Z</time>
      </trkpt>
      <trkpt lat="47.83235" lon="6.97273">
        <ele>678</ele>
        <time>2026-05-09T04:50:08.299Z</time>
      </trkpt>
      <trkpt lat="47.83235" lon="6.97274">
        <ele>678</ele>
        <time>2026-05-09T04:50:09.300Z</time>
      </trkpt>
      <trkpt lat="47.83235" lon="6.97275">
        <ele>678</ele>
        <time>2026-05-09T04:50:10.299Z</time>
      </trkpt>
      <trkpt lat="47.83234" lon="6.97276">
        <ele>678</ele>
        <time>2026-05-09T04:50:11.299Z</time>
      </trkpt>
      <trkpt lat="47.83234" lon="6.97278">
        <ele>678</ele>
        <time>2026-05-09T04:50:12.299Z</time>
      </trkpt>
      <trkpt lat="47.83233" lon="6.9728">
        <ele>678</ele>
        <time>2026-05-09T04:50:13.299Z</time>
      </trkpt>
      <trkpt lat="47.83232" lon="6.97281">
        <ele>679</ele>
        <time>2026-05-09T04:50:14.299Z</time>
      </trkpt>
      <trkpt lat="47.83232" lon="6.97282">
        <ele>679</ele>
        <time>2026-05-09T04:50:15.299Z</time>
      </trkpt>
      <trkpt lat="47.83232" lon="6.97284">
        <ele>680</ele>
        <time>2026-05-09T04:50:16.299Z</time>
      </trkpt>
      <trkpt lat="47.83231" lon="6.97287">
        <ele>680</ele>
        <time>2026-05-09T04:50:17.299Z</time>
      </trkpt>
      <trkpt lat="47.83231" lon="6.97288">
        <ele>681</ele>
        <time>2026-05-09T04:50:18.299Z</time>
      </trkpt>
      <trkpt lat="47.83231" lon="6.9729">
        <ele>681</ele>
        <time>2026-05-09T04:50:19.300Z</time>
      </trkpt>
      <trkpt lat="47.83231" lon="6.97292">
        <ele>682</ele>
        <time>2026-05-09T04:50:20.299Z</time>
      </trkpt>
      <trkpt lat="47.83231" lon="6.97293">
        <ele>682</ele>
        <time>2026-05-09T04:50:21.299Z</time>
      </trkpt>
      <trkpt lat="47.83231" lon="6.97294">
        <ele>682</ele>
        <time>2026-05-09T04:50:22.299Z</time>
      </trkpt>
      <trkpt lat="47.8323" lon="6.97295">
        <ele>683</ele>
        <time>2026-05-09T04:50:23.299Z</time>
      </trkpt>
      <trkpt lat="47.83231" lon="6.97296">
        <ele>684</ele>
        <time>2026-05-09T04:50:24.299Z</time>
      </trkpt>
      <trkpt lat="47.8323" lon="6.97297">
        <ele>684</ele>
        <time>2026-05-09T04:50:25.299Z</time>
      </trkpt>
      <trkpt lat="47.8323" lon="6.97298">
        <ele>685</ele>
        <time>2026-05-09T04:50:26.300Z</time>
      </trkpt>
      <trkpt lat="47.8323" lon="6.973">
        <ele>685</ele>
        <time>2026-05-09T04:50:27.299Z</time>
      </trkpt>
      <trkpt lat="47.83229" lon="6.97301">
        <ele>686</ele>
        <time>2026-05-09T04:50:28.299Z</time>
      </trkpt>
      <trkpt lat="47.83229" lon="6.97302">
        <ele>686</ele>
        <time>2026-05-09T04:50:29.299Z</time>
      </trkpt>
      <trkpt lat="47.83229" lon="6.97304">
        <ele>687</ele>
        <time>2026-05-09T04:50:30.300Z</time>
      </trkpt>
      <trkpt lat="47.83228" lon="6.97305">
        <ele>687</ele>
        <time>2026-05-09T04:50:31.299Z</time>
      </trkpt>
      <trkpt lat="47.83229" lon="6.97306">
        <ele>687</ele>
        <time>2026-05-09T04:50:32.299Z</time>
      </trkpt>
      <trkpt lat="47.83229" lon="6.97308">
        <ele>687</ele>
        <time>2026-05-09T04:50:33.299Z</time>
      </trkpt>
      <trkpt lat="47.83229" lon="6.97309">
        <ele>687</ele>
        <time>2026-05-09T04:50:34.299Z</time>
      </trkpt>
      <trkpt lat="47.83229" lon="6.97311">
        <ele>687</ele>
        <time>2026-05-09T04:50:35.300Z</time>
      </trkpt>
      <trkpt lat="47.83229" lon="6.97313">
        <ele>687</ele>
        <time>2026-05-09T04:50:36.299Z</time>
      </trkpt>
      <trkpt lat="47.83228" lon="6.97314">
        <ele>687</ele>
        <time>2026-05-09T04:50:37.300Z</time>
      </trkpt>
      <trkpt lat="47.83228" lon="6.97315">
        <ele>688</ele>
        <time>2026-05-09T04:50:38.299Z</time>
      </trkpt>
      <trkpt lat="47.83228" lon="6.97317">
        <ele>688</ele>
        <time>2026-05-09T04:50:39.300Z</time>
      </trkpt>
      <trkpt lat="47.83227" lon="6.97318">
        <ele>687</ele>
        <time>2026-05-09T04:50:40.300Z</time>
      </trkpt>
      <trkpt lat="47.83228" lon="6.97319">
        <ele>687</ele>
        <time>2026-05-09T04:50:41.299Z</time>
      </trkpt>
      <trkpt lat="47.83228" lon="6.97321">
        <ele>687</ele>
        <time>2026-05-09T04:50:42.300Z</time>
      </trkpt>
      <trkpt lat="47.83228" lon="6.97323">
        <ele>687</ele>
        <time>2026-05-09T04:50:43.300Z</time>
      </trkpt>
      <trkpt lat="47.83228" lon="6.97325">
        <ele>687</ele>
        <time>2026-05-09T04:50:44.299Z</time>
      </trkpt>
      <trkpt lat="47.83228" lon="6.97326">
        <ele>687</ele>
        <time>2026-05-09T04:50:45.300Z</time>
      </trkpt>
      <trkpt lat="47.83228" lon="6.97328">
        <ele>687</ele>
        <time>2026-05-09T04:50:46.300Z</time>
      </trkpt>
      <trkpt lat="47.83227" lon="6.97329">
        <ele>687</ele>
        <time>2026-05-09T04:50:47.300Z</time>
      </trkpt>
      <trkpt lat="47.83226" lon="6.9733">
        <ele>687</ele>
        <time>2026-05-09T04:50:48.299Z</time>
      </trkpt>
      <trkpt lat="47.83225" lon="6.97332">
        <ele>687</ele>
        <time>2026-05-09T04:50:49.299Z</time>
      </trkpt>
      <trkpt lat="47.83225" lon="6.97333">
        <ele>686</ele>
        <time>2026-05-09T04:50:50.299Z</time>
      </trkpt>
      <trkpt lat="47.83224" lon="6.97335">
        <ele>686</ele>
        <time>2026-05-09T04:50:51.299Z</time>
      </trkpt>
      <trkpt lat="47.83224" lon="6.97336">
        <ele>686</ele>
        <time>2026-05-09T04:50:52.300Z</time>
      </trkpt>
      <trkpt lat="47.83223" lon="6.97338">
        <ele>685</ele>
        <time>2026-05-09T04:50:53.300Z</time>
      </trkpt>
      <trkpt lat="47.83222" lon="6.9734">
        <ele>685</ele>
        <time>2026-05-09T04:50:54.299Z</time>
      </trkpt>
      <trkpt lat="47.83222" lon="6.97341">
        <ele>685</ele>
        <time>2026-05-09T04:50:55.300Z</time>
      </trkpt>
      <trkpt lat="47.83222" lon="6.97343">
        <ele>685</ele>
        <time>2026-05-09T04:50:56.299Z</time>
      </trkpt>
      <trkpt lat="47.83221" lon="6.97344">
        <ele>685</ele>
        <time>2026-05-09T04:50:57.299Z</time>
      </trkpt>
      <trkpt lat="47.83221" lon="6.97346">
        <ele>685</ele>
        <time>2026-05-09T04:50:58.300Z</time>
      </trkpt>
      <trkpt lat="47.83221" lon="6.97347">
        <ele>685</ele>
        <time>2026-05-09T04:50:59.300Z</time>
      </trkpt>
      <trkpt lat="47.83221" lon="6.97348">
        <ele>685</ele>
        <time>2026-05-09T04:51:00.300Z</time>
      </trkpt>
      <trkpt lat="47.83221" lon="6.97349">
        <ele>685</ele>
        <time>2026-05-09T04:51:01.299Z</time>
      </trkpt>
      <trkpt lat="47.83221" lon="6.97351">
        <ele>685</ele>
        <time>2026-05-09T04:51:02.299Z</time>
      </trkpt>
      <trkpt lat="47.83222" lon="6.97353">
        <ele>685</ele>
        <time>2026-05-09T04:51:03.299Z</time>
      </trkpt>
      <trkpt lat="47.83221" lon="6.97355">
        <ele>686</ele>
        <time>2026-05-09T04:51:04.299Z</time>
      </trkpt>
      <trkpt lat="47.83222" lon="6.97357">
        <ele>686</ele>
        <time>2026-05-09T04:51:05.300Z</time>
      </trkpt>
      <trkpt lat="47.83222" lon="6.97359">
        <ele>687</ele>
        <time>2026-05-09T04:51:06.300Z</time>
      </trkpt>
      <trkpt lat="47.83222" lon="6.97362">
        <ele>688</ele>
        <time>2026-05-09T04:51:07.300Z</time>
      </trkpt>
      <trkpt lat="47.83223" lon="6.97364">
        <ele>689</ele>
        <time>2026-05-09T04:51:08.300Z</time>
      </trkpt>
      <trkpt lat="47.83222" lon="6.97365">
        <ele>689</ele>
        <time>2026-05-09T04:51:09.299Z</time>
      </trkpt>
      <trkpt lat="47.83222" lon="6.97366">
        <ele>689</ele>
        <time>2026-05-09T04:51:10.299Z</time>
      </trkpt>
      <trkpt lat="47.83221" lon="6.97367">
        <ele>689</ele>
        <time>2026-05-09T04:51:11.299Z</time>
      </trkpt>
      <trkpt lat="47.8322" lon="6.97368">
        <ele>689</ele>
        <time>2026-05-09T04:51:12.300Z</time>
      </trkpt>
      <trkpt lat="47.8322" lon="6.9737">
        <ele>689</ele>
        <time>2026-05-09T04:51:13.299Z</time>
      </trkpt>
      <trkpt lat="47.8322" lon="6.97372">
        <ele>690</ele>
        <time>2026-05-09T04:51:14.299Z</time>
      </trkpt>
      <trkpt lat="47.83221" lon="6.97374">
        <ele>690</ele>
        <time>2026-05-09T04:51:15.299Z</time>
      </trkpt>
      <trkpt lat="47.8322" lon="6.97376">
        <ele>691</ele>
        <time>2026-05-09T04:51:16.299Z</time>
      </trkpt>
      <trkpt lat="47.8322" lon="6.97377">
        <ele>691</ele>
        <time>2026-05-09T04:51:17.299Z</time>
      </trkpt>
      <trkpt lat="47.8322" lon="6.97378">
        <ele>691</ele>
        <time>2026-05-09T04:51:18.299Z</time>
      </trkpt>
      <trkpt lat="47.83219" lon="6.97379">
        <ele>691</ele>
        <time>2026-05-09T04:51:19.300Z</time>
      </trkpt>
      <trkpt lat="47.83219" lon="6.97381">
        <ele>692</ele>
        <time>2026-05-09T04:51:20.300Z</time>
      </trkpt>
      <trkpt lat="47.83219" lon="6.97382">
        <ele>692</ele>
        <time>2026-05-09T04:51:21.300Z</time>
      </trkpt>
      <trkpt lat="47.83219" lon="6.97383">
        <ele>693</ele>
        <time>2026-05-09T04:51:22.299Z</time>
      </trkpt>
      <trkpt lat="47.83219" lon="6.97384">
        <ele>693</ele>
        <time>2026-05-09T04:51:23.300Z</time>
      </trkpt>
      <trkpt lat="47.83219" lon="6.97385">
        <ele>694</ele>
        <time>2026-05-09T04:51:24.300Z</time>
      </trkpt>
      <trkpt lat="47.83219" lon="6.97387">
        <ele>694</ele>
        <time>2026-05-09T04:51:25.299Z</time>
      </trkpt>
      <trkpt lat="47.83219" lon="6.97388">
        <ele>694</ele>
        <time>2026-05-09T04:51:26.300Z</time>
      </trkpt>
      <trkpt lat="47.83218" lon="6.9739">
        <ele>694</ele>
        <time>2026-05-09T04:51:27.300Z</time>
      </trkpt>
      <trkpt lat="47.83218" lon="6.97391">
        <ele>694</ele>
        <time>2026-05-09T04:51:28.299Z</time>
      </trkpt>
      <trkpt lat="47.83218" lon="6.97393">
        <ele>694</ele>
        <time>2026-05-09T04:51:29.300Z</time>
      </trkpt>
      <trkpt lat="47.83218" lon="6.97394">
        <ele>694</ele>
        <time>2026-05-09T04:51:30.300Z</time>
      </trkpt>
      <trkpt lat="47.83218" lon="6.97396">
        <ele>693</ele>
        <time>2026-05-09T04:51:31.300Z</time>
      </trkpt>
      <trkpt lat="47.83217" lon="6.97397">
        <ele>693</ele>
        <time>2026-05-09T04:51:32.299Z</time>
      </trkpt>
      <trkpt lat="47.83218" lon="6.97398">
        <ele>693</ele>
        <time>2026-05-09T04:51:33.300Z</time>
      </trkpt>
      <trkpt lat="47.83218" lon="6.974">
        <ele>692</ele>
        <time>2026-05-09T04:51:34.299Z</time>
      </trkpt>
      <trkpt lat="47.83217" lon="6.97401">
        <ele>692</ele>
        <time>2026-05-09T04:51:35.299Z</time>
      </trkpt>
      <trkpt lat="47.83216" lon="6.97401">
        <ele>691</ele>
        <time>2026-05-09T04:51:36.299Z</time>
      </trkpt>
      <trkpt lat="47.83215" lon="6.97401">
        <ele>691</ele>
        <time>2026-05-09T04:51:37.299Z</time>
      </trkpt>
      <trkpt lat="47.83214" lon="6.97402">
        <ele>690</ele>
        <time>2026-05-09T04:51:38.299Z</time>
      </trkpt>
      <trkpt lat="47.83213" lon="6.97404">
        <ele>690</ele>
        <time>2026-05-09T04:51:39.300Z</time>
      </trkpt>
      <trkpt lat="47.83213" lon="6.97405">
        <ele>689</ele>
        <time>2026-05-09T04:51:40.300Z</time>
      </trkpt>
      <trkpt lat="47.83213" lon="6.97406">
        <ele>689</ele>
        <time>2026-05-09T04:51:41.299Z</time>
      </trkpt>
      <trkpt lat="47.83213" lon="6.97407">
        <ele>688</ele>
        <time>2026-05-09T04:51:42.299Z</time>
      </trkpt>
      <trkpt lat="47.83213" lon="6.97408">
        <ele>688</ele>
        <time>2026-05-09T04:51:43.299Z</time>
      </trkpt>
      <trkpt lat="47.83212" lon="6.9741">
        <ele>688</ele>
        <time>2026-05-09T04:51:44.300Z</time>
      </trkpt>
      <trkpt lat="47.83212" lon="6.97411">
        <ele>687</ele>
        <time>2026-05-09T04:51:45.300Z</time>
      </trkpt>
      <trkpt lat="47.83212" lon="6.97412">
        <ele>687</ele>
        <time>2026-05-09T04:51:46.299Z</time>
      </trkpt>
      <trkpt lat="47.83212" lon="6.97414">
        <ele>687</ele>
        <time>2026-05-09T04:51:47.300Z</time>
      </trkpt>
      <trkpt lat="47.83212" lon="6.97415">
        <ele>687</ele>
        <time>2026-05-09T04:51:48.300Z</time>
      </trkpt>
      <trkpt lat="47.83212" lon="6.97417">
        <ele>686</ele>
        <time>2026-05-09T04:51:49.300Z</time>
      </trkpt>
      <trkpt lat="47.83212" lon="6.97419">
        <ele>686</ele>
        <time>2026-05-09T04:51:50.299Z</time>
      </trkpt>
      <trkpt lat="47.83212" lon="6.9742">
        <ele>687</ele>
        <time>2026-05-09T04:51:51.299Z</time>
      </trkpt>
      <trkpt lat="47.83212" lon="6.97422">
        <ele>687</ele>
        <time>2026-05-09T04:51:52.299Z</time>
      </trkpt>
      <trkpt lat="47.83212" lon="6.97422">
        <ele>687</ele>
        <time>2026-05-09T04:51:53.299Z</time>
      </trkpt>
      <trkpt lat="47.83212" lon="6.97423">
        <ele>687</ele>
        <time>2026-05-09T04:51:54.299Z</time>
      </trkpt>
      <trkpt lat="47.83212" lon="6.97424">
        <ele>687</ele>
        <time>2026-05-09T04:51:55.300Z</time>
      </trkpt>
      <trkpt lat="47.83211" lon="6.97425">
        <ele>687</ele>
        <time>2026-05-09T04:51:56.299Z</time>
      </trkpt>
      <trkpt lat="47.83211" lon="6.97426">
        <ele>688</ele>
        <time>2026-05-09T04:51:57.299Z</time>
      </trkpt>
      <trkpt lat="47.83211" lon="6.97427">
        <ele>688</ele>
        <time>2026-05-09T04:51:58.299Z</time>
      </trkpt>
      <trkpt lat="47.8321" lon="6.97428">
        <ele>689</ele>
        <time>2026-05-09T04:51:59.299Z</time>
      </trkpt>
      <trkpt lat="47.8321" lon="6.97429">
        <ele>689</ele>
        <time>2026-05-09T04:52:00.299Z</time>
      </trkpt>
      <trkpt lat="47.83211" lon="6.97431">
        <ele>689</ele>
        <time>2026-05-09T04:52:01.299Z</time>
      </trkpt>
      <trkpt lat="47.83212" lon="6.97432">
        <ele>690</ele>
        <time>2026-05-09T04:52:02.299Z</time>
      </trkpt>
      <trkpt lat="47.83212" lon="6.97434">
        <ele>690</ele>
        <time>2026-05-09T04:52:03.299Z</time>
      </trkpt>
      <trkpt lat="47.83211" lon="6.97436">
        <ele>691</ele>
        <time>2026-05-09T04:52:04.299Z</time>
      </trkpt>
      <trkpt lat="47.83211" lon="6.97437">
        <ele>691</ele>
        <time>2026-05-09T04:52:05.299Z</time>
      </trkpt>
      <trkpt lat="47.83211" lon="6.97438">
        <ele>692</ele>
        <time>2026-05-09T04:52:06.300Z</time>
      </trkpt>
      <trkpt lat="47.83211" lon="6.97439">
        <ele>692</ele>
        <time>2026-05-09T04:52:07.300Z</time>
      </trkpt>
      <trkpt lat="47.83211" lon="6.97439">
        <ele>693</ele>
        <time>2026-05-09T04:52:08.300Z</time>
      </trkpt>
      <trkpt lat="47.83211" lon="6.9744">
        <ele>693</ele>
        <time>2026-05-09T04:52:09.300Z</time>
      </trkpt>
      <trkpt lat="47.83211" lon="6.97441">
        <ele>694</ele>
        <time>2026-05-09T04:52:10.299Z</time>
      </trkpt>
      <trkpt lat="47.8321" lon="6.97442">
        <ele>694</ele>
        <time>2026-05-09T04:52:11.299Z</time>
      </trkpt>
      <trkpt lat="47.83209" lon="6.97444">
        <ele>694</ele>
        <time>2026-05-09T04:52:12.299Z</time>
      </trkpt>
      <trkpt lat="47.83209" lon="6.97445">
        <ele>694</ele>
        <time>2026-05-09T04:52:13.300Z</time>
      </trkpt>
      <trkpt lat="47.83208" lon="6.97446">
        <ele>695</ele>
        <time>2026-05-09T04:52:14.300Z</time>
      </trkpt>
      <trkpt lat="47.83208" lon="6.97446">
        <ele>695</ele>
        <time>2026-05-09T04:52:15.299Z</time>
      </trkpt>
      <trkpt lat="47.83208" lon="6.97447">
        <ele>695</ele>
        <time>2026-05-09T04:52:16.300Z</time>
      </trkpt>
      <trkpt lat="47.83208" lon="6.97448">
        <ele>695</ele>
        <time>2026-05-09T04:52:17.300Z</time>
      </trkpt>
      <trkpt lat="47.83208" lon="6.9745">
        <ele>696</ele>
        <time>2026-05-09T04:52:18.300Z</time>
      </trkpt>
      <trkpt lat="47.83208" lon="6.97451">
        <ele>696</ele>
        <time>2026-05-09T04:52:19.300Z</time>
      </trkpt>
      <trkpt lat="47.83207" lon="6.97453">
        <ele>696</ele>
        <time>2026-05-09T04:52:20.299Z</time>
      </trkpt>
      <trkpt lat="47.83207" lon="6.97454">
        <ele>696</ele>
        <time>2026-05-09T04:52:21.299Z</time>
      </trkpt>
      <trkpt lat="47.83207" lon="6.97455">
        <ele>697</ele>
        <time>2026-05-09T04:52:22.299Z</time>
      </trkpt>
      <trkpt lat="47.83207" lon="6.97456">
        <ele>697</ele>
        <time>2026-05-09T04:52:23.300Z</time>
      </trkpt>
      <trkpt lat="47.83207" lon="6.97458">
        <ele>697</ele>
        <time>2026-05-09T04:52:24.300Z</time>
      </trkpt>
      <trkpt lat="47.83207" lon="6.97458">
        <ele>698</ele>
        <time>2026-05-09T04:52:25.300Z</time>
      </trkpt>
      <trkpt lat="47.83208" lon="6.97459">
        <ele>698</ele>
        <time>2026-05-09T04:52:26.300Z</time>
      </trkpt>
      <trkpt lat="47.83208" lon="6.9746">
        <ele>698</ele>
        <time>2026-05-09T04:52:27.300Z</time>
      </trkpt>
      <trkpt lat="47.83208" lon="6.97462">
        <ele>699</ele>
        <time>2026-05-09T04:52:28.300Z</time>
      </trkpt>
      <trkpt lat="47.83208" lon="6.97464">
        <ele>699</ele>
        <time>2026-05-09T04:52:29.299Z</time>
      </trkpt>
      <trkpt lat="47.83208" lon="6.97466">
        <ele>699</ele>
        <time>2026-05-09T04:52:30.299Z</time>
      </trkpt>
      <trkpt lat="47.83208" lon="6.97468">
        <ele>699</ele>
        <time>2026-05-09T04:52:31.299Z</time>
      </trkpt>
      <trkpt lat="47.83208" lon="6.97468">
        <ele>699</ele>
        <time>2026-05-09T04:52:32.299Z</time>
      </trkpt>
      <trkpt lat="47.83208" lon="6.97469">
        <ele>699</ele>
        <time>2026-05-09T04:52:33.299Z</time>
      </trkpt>
      <trkpt lat="47.83207" lon="6.9747">
        <ele>699</ele>
        <time>2026-05-09T04:52:34.299Z</time>
      </trkpt>
      <trkpt lat="47.83207" lon="6.97471">
        <ele>699</ele>
        <time>2026-05-09T04:52:35.300Z</time>
      </trkpt>
      <trkpt lat="47.83207" lon="6.97473">
        <ele>699</ele>
        <time>2026-05-09T04:52:36.299Z</time>
      </trkpt>
      <trkpt lat="47.83207" lon="6.97474">
        <ele>699</ele>
        <time>2026-05-09T04:52:37.299Z</time>
      </trkpt>
      <trkpt lat="47.83207" lon="6.97474">
        <ele>699</ele>
        <time>2026-05-09T04:52:38.299Z</time>
      </trkpt>
      <trkpt lat="47.83206" lon="6.97475">
        <ele>698</ele>
        <time>2026-05-09T04:52:39.299Z</time>
      </trkpt>
      <trkpt lat="47.83206" lon="6.97476">
        <ele>698</ele>
        <time>2026-05-09T04:52:40.300Z</time>
      </trkpt>
      <trkpt lat="47.83206" lon="6.97477">
        <ele>698</ele>
        <time>2026-05-09T04:52:41.299Z</time>
      </trkpt>
      <trkpt lat="47.83205" lon="6.97479">
        <ele>697</ele>
        <time>2026-05-09T04:52:42.299Z</time>
      </trkpt>
      <trkpt lat="47.83205" lon="6.97481">
        <ele>697</ele>
        <time>2026-05-09T04:52:43.299Z</time>
      </trkpt>
      <trkpt lat="47.83206" lon="6.97482">
        <ele>697</ele>
        <time>2026-05-09T04:52:44.300Z</time>
      </trkpt>
      <trkpt lat="47.83206" lon="6.97483">
        <ele>697</ele>
        <time>2026-05-09T04:52:45.299Z</time>
      </trkpt>
      <trkpt lat="47.83206" lon="6.97484">
        <ele>696</ele>
        <time>2026-05-09T04:52:46.299Z</time>
      </trkpt>
      <trkpt lat="47.83207" lon="6.97486">
        <ele>696</ele>
        <time>2026-05-09T04:52:47.299Z</time>
      </trkpt>
      <trkpt lat="47.83207" lon="6.97487">
        <ele>695</ele>
        <time>2026-05-09T04:52:48.299Z</time>
      </trkpt>
      <trkpt lat="47.83207" lon="6.97489">
        <ele>695</ele>
        <time>2026-05-09T04:52:49.299Z</time>
      </trkpt>
      <trkpt lat="47.83207" lon="6.9749">
        <ele>694</ele>
        <time>2026-05-09T04:52:50.299Z</time>
      </trkpt>
      <trkpt lat="47.83207" lon="6.97491">
        <ele>694</ele>
        <time>2026-05-09T04:52:51.299Z</time>
      </trkpt>
      <trkpt lat="47.83207" lon="6.97493">
        <ele>694</ele>
        <time>2026-05-09T04:52:52.299Z</time>
      </trkpt>
      <trkpt lat="47.83207" lon="6.97493">
        <ele>695</ele>
        <time>2026-05-09T04:52:53.300Z</time>
      </trkpt>
      <trkpt lat="47.83207" lon="6.97494">
        <ele>695</ele>
        <time>2026-05-09T04:52:54.300Z</time>
      </trkpt>
      <trkpt lat="47.83206" lon="6.97495">
        <ele>695</ele>
        <time>2026-05-09T04:52:55.300Z</time>
      </trkpt>
      <trkpt lat="47.83206" lon="6.97496">
        <ele>695</ele>
        <time>2026-05-09T04:52:56.299Z</time>
      </trkpt>
      <trkpt lat="47.83206" lon="6.97497">
        <ele>696</ele>
        <time>2026-05-09T04:52:57.300Z</time>
      </trkpt>
      <trkpt lat="47.83207" lon="6.97499">
        <ele>696</ele>
        <time>2026-05-09T04:52:58.300Z</time>
      </trkpt>
      <trkpt lat="47.83207" lon="6.975">
        <ele>696</ele>
        <time>2026-05-09T04:52:59.300Z</time>
      </trkpt>
      <trkpt lat="47.83207" lon="6.97501">
        <ele>697</ele>
        <time>2026-05-09T04:53:00.300Z</time>
      </trkpt>
      <trkpt lat="47.83208" lon="6.97502">
        <ele>697</ele>
        <time>2026-05-09T04:53:01.299Z</time>
      </trkpt>
      <trkpt lat="47.83208" lon="6.97503">
        <ele>697</ele>
        <time>2026-05-09T04:53:02.299Z</time>
      </trkpt>
      <trkpt lat="47.83208" lon="6.97504">
        <ele>697</ele>
        <time>2026-05-09T04:53:03.300Z</time>
      </trkpt>
      <trkpt lat="47.83209" lon="6.97505">
        <ele>698</ele>
        <time>2026-05-09T04:53:04.300Z</time>
      </trkpt>
      <trkpt lat="47.83209" lon="6.97507">
        <ele>698</ele>
        <time>2026-05-09T04:53:05.299Z</time>
      </trkpt>
      <trkpt lat="47.83209" lon="6.97508">
        <ele>698</ele>
        <time>2026-05-09T04:53:06.300Z</time>
      </trkpt>
      <trkpt lat="47.83209" lon="6.9751">
        <ele>698</ele>
        <time>2026-05-09T04:53:07.299Z</time>
      </trkpt>
      <trkpt lat="47.83209" lon="6.97511">
        <ele>698</ele>
        <time>2026-05-09T04:53:08.300Z</time>
      </trkpt>
      <trkpt lat="47.83209" lon="6.97513">
        <ele>698</ele>
        <time>2026-05-09T04:53:09.299Z</time>
      </trkpt>
      <trkpt lat="47.83209" lon="6.97514">
        <ele>698</ele>
        <time>2026-05-09T04:53:10.300Z</time>
      </trkpt>
      <trkpt lat="47.8321" lon="6.97517">
        <ele>699</ele>
        <time>2026-05-09T04:53:11.300Z</time>
      </trkpt>
      <trkpt lat="47.83211" lon="6.97519">
        <ele>698</ele>
        <time>2026-05-09T04:53:12.300Z</time>
      </trkpt>
      <trkpt lat="47.83212" lon="6.97522">
        <ele>698</ele>
        <time>2026-05-09T04:53:13.300Z</time>
      </trkpt>
      <trkpt lat="47.83213" lon="6.97524">
        <ele>697</ele>
        <time>2026-05-09T04:53:14.300Z</time>
      </trkpt>
      <trkpt lat="47.83213" lon="6.97526">
        <ele>697</ele>
        <time>2026-05-09T04:53:15.300Z</time>
      </trkpt>
      <trkpt lat="47.83213" lon="6.97528">
        <ele>696</ele>
        <time>2026-05-09T04:53:16.300Z</time>
      </trkpt>
      <trkpt lat="47.83213" lon="6.9753">
        <ele>696</ele>
        <time>2026-05-09T04:53:17.299Z</time>
      </trkpt>
      <trkpt lat="47.83213" lon="6.97532">
        <ele>695</ele>
        <time>2026-05-09T04:53:18.299Z</time>
      </trkpt>
      <trkpt lat="47.83213" lon="6.97533">
        <ele>695</ele>
        <time>2026-05-09T04:53:19.299Z</time>
      </trkpt>
      <trkpt lat="47.83214" lon="6.97534">
        <ele>694</ele>
        <time>2026-05-09T04:53:20.300Z</time>
      </trkpt>
      <trkpt lat="47.83214" lon="6.97536">
        <ele>694</ele>
        <time>2026-05-09T04:53:21.300Z</time>
      </trkpt>
      <trkpt lat="47.83214" lon="6.97537">
        <ele>694</ele>
        <time>2026-05-09T04:53:22.300Z</time>
      </trkpt>
      <trkpt lat="47.83214" lon="6.97538">
        <ele>694</ele>
        <time>2026-05-09T04:53:23.299Z</time>
      </trkpt>
      <trkpt lat="47.83214" lon="6.9754">
        <ele>694</ele>
        <time>2026-05-09T04:53:24.299Z</time>
      </trkpt>
      <trkpt lat="47.83214" lon="6.97541">
        <ele>695</ele>
        <time>2026-05-09T04:53:25.299Z</time>
      </trkpt>
      <trkpt lat="47.83214" lon="6.97542">
        <ele>695</ele>
        <time>2026-05-09T04:53:26.299Z</time>
      </trkpt>
      <trkpt lat="47.83213" lon="6.97544">
        <ele>696</ele>
        <time>2026-05-09T04:53:27.299Z</time>
      </trkpt>
      <trkpt lat="47.83212" lon="6.97546">
        <ele>697</ele>
        <time>2026-05-09T04:53:28.299Z</time>
      </trkpt>
      <trkpt lat="47.83212" lon="6.97547">
        <ele>698</ele>
        <time>2026-05-09T04:53:29.299Z</time>
      </trkpt>
      <trkpt lat="47.83212" lon="6.97549">
        <ele>699</ele>
        <time>2026-05-09T04:53:30.300Z</time>
      </trkpt>
      <trkpt lat="47.83212" lon="6.97551">
        <ele>699</ele>
        <time>2026-05-09T04:53:31.299Z</time>
      </trkpt>
      <trkpt lat="47.83212" lon="6.97553">
        <ele>700</ele>
        <time>2026-05-09T04:53:32.299Z</time>
      </trkpt>
      <trkpt lat="47.83212" lon="6.97555">
        <ele>700</ele>
        <time>2026-05-09T04:53:33.299Z</time>
      </trkpt>
      <trkpt lat="47.83212" lon="6.97557">
        <ele>701</ele>
        <time>2026-05-09T04:53:34.299Z</time>
      </trkpt>
      <trkpt lat="47.83211" lon="6.9756">
        <ele>701</ele>
        <time>2026-05-09T04:53:35.300Z</time>
      </trkpt>
      <trkpt lat="47.8321" lon="6.97561">
        <ele>701</ele>
        <time>2026-05-09T04:53:36.300Z</time>
      </trkpt>
      <trkpt lat="47.83209" lon="6.97563">
        <ele>702</ele>
        <time>2026-05-09T04:53:37.299Z</time>
      </trkpt>
      <trkpt lat="47.83208" lon="6.97565">
        <ele>703</ele>
        <time>2026-05-09T04:53:38.299Z</time>
      </trkpt>
      <trkpt lat="47.83207" lon="6.97566">
        <ele>703</ele>
        <time>2026-05-09T04:53:39.299Z</time>
      </trkpt>
      <trkpt lat="47.83206" lon="6.97568">
        <ele>704</ele>
        <time>2026-05-09T04:53:40.300Z</time>
      </trkpt>
      <trkpt lat="47.83205" lon="6.9757">
        <ele>704</ele>
        <time>2026-05-09T04:53:41.300Z</time>
      </trkpt>
      <trkpt lat="47.83205" lon="6.97572">
        <ele>704</ele>
        <time>2026-05-09T04:53:42.300Z</time>
      </trkpt>
      <trkpt lat="47.83204" lon="6.97574">
        <ele>704</ele>
        <time>2026-05-09T04:53:43.300Z</time>
      </trkpt>
      <trkpt lat="47.83204" lon="6.97576">
        <ele>704</ele>
        <time>2026-05-09T04:53:44.300Z</time>
      </trkpt>
      <trkpt lat="47.83204" lon="6.97578">
        <ele>704</ele>
        <time>2026-05-09T04:53:45.299Z</time>
      </trkpt>
      <trkpt lat="47.83204" lon="6.9758">
        <ele>704</ele>
        <time>2026-05-09T04:53:46.299Z</time>
      </trkpt>
      <trkpt lat="47.83203" lon="6.97582">
        <ele>704</ele>
        <time>2026-05-09T04:53:47.300Z</time>
      </trkpt>
      <trkpt lat="47.83203" lon="6.97584">
        <ele>703</ele>
        <time>2026-05-09T04:53:48.300Z</time>
      </trkpt>
      <trkpt lat="47.83203" lon="6.97587">
        <ele>703</ele>
        <time>2026-05-09T04:53:49.300Z</time>
      </trkpt>
      <trkpt lat="47.83203" lon="6.97589">
        <ele>703</ele>
        <time>2026-05-09T04:53:50.299Z</time>
      </trkpt>
      <trkpt lat="47.83204" lon="6.97591">
        <ele>703</ele>
        <time>2026-05-09T04:53:51.300Z</time>
      </trkpt>
      <trkpt lat="47.83204" lon="6.97593">
        <ele>702</ele>
        <time>2026-05-09T04:53:52.300Z</time>
      </trkpt>
      <trkpt lat="47.83204" lon="6.97594">
        <ele>702</ele>
        <time>2026-05-09T04:53:53.300Z</time>
      </trkpt>
      <trkpt lat="47.83204" lon="6.97596">
        <ele>702</ele>
        <time>2026-05-09T04:53:54.300Z</time>
      </trkpt>
      <trkpt lat="47.83204" lon="6.97597">
        <ele>702</ele>
        <time>2026-05-09T04:53:55.299Z</time>
      </trkpt>
      <trkpt lat="47.83203" lon="6.97598">
        <ele>702</ele>
        <time>2026-05-09T04:53:56.300Z</time>
      </trkpt>
      <trkpt lat="47.83203" lon="6.976">
        <ele>702</ele>
        <time>2026-05-09T04:53:57.299Z</time>
      </trkpt>
      <trkpt lat="47.83202" lon="6.97601">
        <ele>702</ele>
        <time>2026-05-09T04:53:58.299Z</time>
      </trkpt>
      <trkpt lat="47.83202" lon="6.97603">
        <ele>701</ele>
        <time>2026-05-09T04:53:59.299Z</time>
      </trkpt>
      <trkpt lat="47.83201" lon="6.97605">
        <ele>701</ele>
        <time>2026-05-09T04:54:00.300Z</time>
      </trkpt>
      <trkpt lat="47.83201" lon="6.97606">
        <ele>701</ele>
        <time>2026-05-09T04:54:01.300Z</time>
      </trkpt>
      <trkpt lat="47.832" lon="6.97608">
        <ele>701</ele>
        <time>2026-05-09T04:54:02.300Z</time>
      </trkpt>
      <trkpt lat="47.832" lon="6.97609">
        <ele>701</ele>
        <time>2026-05-09T04:54:03.300Z</time>
      </trkpt>
      <trkpt lat="47.832" lon="6.9761">
        <ele>701</ele>
        <time>2026-05-09T04:54:04.300Z</time>
      </trkpt>
      <trkpt lat="47.832" lon="6.97611">
        <ele>702</ele>
        <time>2026-05-09T04:54:05.299Z</time>
      </trkpt>
      <trkpt lat="47.832" lon="6.97611">
        <ele>702</ele>
        <time>2026-05-09T04:54:06.299Z</time>
      </trkpt>
      <trkpt lat="47.832" lon="6.97611">
        <ele>703</ele>
        <time>2026-05-09T04:54:07.300Z</time>
      </trkpt>
      <trkpt lat="47.83201" lon="6.97612">
        <ele>703</ele>
        <time>2026-05-09T04:54:08.300Z</time>
      </trkpt>
      <trkpt lat="47.83201" lon="6.97612">
        <ele>704</ele>
        <time>2026-05-09T04:54:09.299Z</time>
      </trkpt>
      <trkpt lat="47.83202" lon="6.97612">
        <ele>704</ele>
        <time>2026-05-09T04:54:10.299Z</time>
      </trkpt>
      <trkpt lat="47.83202" lon="6.97612">
        <ele>705</ele>
        <time>2026-05-09T04:54:11.300Z</time>
      </trkpt>
      <trkpt lat="47.83203" lon="6.97611">
        <ele>705</ele>
        <time>2026-05-09T04:54:12.299Z</time>
      </trkpt>
      <trkpt lat="47.83203" lon="6.97611">
        <ele>706</ele>
        <time>2026-05-09T04:54:13.299Z</time>
      </trkpt>
      <trkpt lat="47.83203" lon="6.97611">
        <ele>706</ele>
        <time>2026-05-09T04:54:14.300Z</time>
      </trkpt>
      <trkpt lat="47.83203" lon="6.9761">
        <ele>707</ele>
        <time>2026-05-09T04:54:15.299Z</time>
      </trkpt>
      <trkpt lat="47.83203" lon="6.9761">
        <ele>708</ele>
        <time>2026-05-09T04:54:16.300Z</time>
      </trkpt>
      <trkpt lat="47.83203" lon="6.9761">
        <ele>709</ele>
        <time>2026-05-09T04:54:17.300Z</time>
      </trkpt>
      <trkpt lat="47.83203" lon="6.97611">
        <ele>710</ele>
        <time>2026-05-09T04:54:18.300Z</time>
      </trkpt>
      <trkpt lat="47.83203" lon="6.97611">
        <ele>711</ele>
        <time>2026-05-09T04:54:19.299Z</time>
      </trkpt>
      <trkpt lat="47.83203" lon="6.97611">
        <ele>712</ele>
        <time>2026-05-09T04:54:20.300Z</time>
      </trkpt>
      <trkpt lat="47.83203" lon="6.97611">
        <ele>713</ele>
        <time>2026-05-09T04:54:21.299Z</time>
      </trkpt>
      <trkpt lat="47.83203" lon="6.97611">
        <ele>714</ele>
        <time>2026-05-09T04:54:22.299Z</time>
      </trkpt>
      <trkpt lat="47.83203" lon="6.97611">
        <ele>715</ele>
        <time>2026-05-09T04:54:23.299Z</time>
      </trkpt>
      <trkpt lat="47.83203" lon="6.97612">
        <ele>716</ele>
        <time>2026-05-09T04:54:24.299Z</time>
      </trkpt>
      <trkpt lat="47.83204" lon="6.97613">
        <ele>717</ele>
        <time>2026-05-09T04:54:25.300Z</time>
      </trkpt>
      <trkpt lat="47.83207" lon="6.97617">
        <ele>718</ele>
        <time>2026-05-09T04:54:26.299Z</time>
      </trkpt>
      <trkpt lat="47.83209" lon="6.9762">
        <ele>718</ele>
        <time>2026-05-09T04:54:27.300Z</time>
      </trkpt>
      <trkpt lat="47.83209" lon="6.97622">
        <ele>719</ele>
        <time>2026-05-09T04:54:28.300Z</time>
      </trkpt>
      <trkpt lat="47.83209" lon="6.97623">
        <ele>719</ele>
        <time>2026-05-09T04:54:29.299Z</time>
      </trkpt>
      <trkpt lat="47.83209" lon="6.97624">
        <ele>719</ele>
        <time>2026-05-09T04:54:30.300Z</time>
      </trkpt>
      <trkpt lat="47.83209" lon="6.97624">
        <ele>720</ele>
        <time>2026-05-09T04:54:31.300Z</time>
      </trkpt>
      <trkpt lat="47.8321" lon="6.97625">
        <ele>719</ele>
        <time>2026-05-09T04:54:32.300Z</time>
      </trkpt>
      <trkpt lat="47.8321" lon="6.97626">
        <ele>719</ele>
        <time>2026-05-09T04:54:33.300Z</time>
      </trkpt>
      <trkpt lat="47.8321" lon="6.97626">
        <ele>719</ele>
        <time>2026-05-09T04:54:34.300Z</time>
      </trkpt>
      <trkpt lat="47.8321" lon="6.97626">
        <ele>719</ele>
        <time>2026-05-09T04:54:35.300Z</time>
      </trkpt>
      <trkpt lat="47.8321" lon="6.97627">
        <ele>719</ele>
        <time>2026-05-09T04:54:36.299Z</time>
      </trkpt>
      <trkpt lat="47.8321" lon="6.97628">
        <ele>719</ele>
        <time>2026-05-09T04:54:37.300Z</time>
      </trkpt>
      <trkpt lat="47.83209" lon="6.9763">
        <ele>719</ele>
        <time>2026-05-09T04:54:38.300Z</time>
      </trkpt>
      <trkpt lat="47.83209" lon="6.9763">
        <ele>719</ele>
        <time>2026-05-09T04:54:39.299Z</time>
      </trkpt>
      <trkpt lat="47.83209" lon="6.9763">
        <ele>720</ele>
        <time>2026-05-09T04:54:40.299Z</time>
      </trkpt>
      <trkpt lat="47.83209" lon="6.97631">
        <ele>720</ele>
        <time>2026-05-09T04:54:41.300Z</time>
      </trkpt>
      <trkpt lat="47.83208" lon="6.97632">
        <ele>720</ele>
        <time>2026-05-09T04:54:42.300Z</time>
      </trkpt>
      <trkpt lat="47.83208" lon="6.97633">
        <ele>720</ele>
        <time>2026-05-09T04:54:43.300Z</time>
      </trkpt>
      <trkpt lat="47.83208" lon="6.97635">
        <ele>720</ele>
        <time>2026-05-09T04:54:44.300Z</time>
      </trkpt>
      <trkpt lat="47.83208" lon="6.97637">
        <ele>721</ele>
        <time>2026-05-09T04:54:45.299Z</time>
      </trkpt>
      <trkpt lat="47.83208" lon="6.97639">
        <ele>721</ele>
        <time>2026-05-09T04:54:46.299Z</time>
      </trkpt>
      <trkpt lat="47.83208" lon="6.9764">
        <ele>721</ele>
        <time>2026-05-09T04:54:47.299Z</time>
      </trkpt>
      <trkpt lat="47.83208" lon="6.97642">
        <ele>721</ele>
        <time>2026-05-09T04:54:48.299Z</time>
      </trkpt>
      <trkpt lat="47.83208" lon="6.97643">
        <ele>721</ele>
        <time>2026-05-09T04:54:49.299Z</time>
      </trkpt>
      <trkpt lat="47.83209" lon="6.97646">
        <ele>721</ele>
        <time>2026-05-09T04:54:50.300Z</time>
      </trkpt>
      <trkpt lat="47.8321" lon="6.97648">
        <ele>721</ele>
        <time>2026-05-09T04:54:51.300Z</time>
      </trkpt>
      <trkpt lat="47.8321" lon="6.9765">
        <ele>722</ele>
        <time>2026-05-09T04:54:52.300Z</time>
      </trkpt>
      <trkpt lat="47.8321" lon="6.97652">
        <ele>722</ele>
        <time>2026-05-09T04:54:53.299Z</time>
      </trkpt>
      <trkpt lat="47.8321" lon="6.97655">
        <ele>722</ele>
        <time>2026-05-09T04:54:54.299Z</time>
      </trkpt>
      <trkpt lat="47.83211" lon="6.97657">
        <ele>722</ele>
        <time>2026-05-09T04:54:55.300Z</time>
      </trkpt>
      <trkpt lat="47.83211" lon="6.97659">
        <ele>722</ele>
        <time>2026-05-09T04:54:56.300Z</time>
      </trkpt>
      <trkpt lat="47.8321" lon="6.97659">
        <ele>722</ele>
        <time>2026-05-09T04:54:57.300Z</time>
      </trkpt>
      <trkpt lat="47.83209" lon="6.97661">
        <ele>722</ele>
        <time>2026-05-09T04:54:58.300Z</time>
      </trkpt>
      <trkpt lat="47.83209" lon="6.97664">
        <ele>722</ele>
        <time>2026-05-09T04:54:59.300Z</time>
      </trkpt>
      <trkpt lat="47.83208" lon="6.97667">
        <ele>722</ele>
        <time>2026-05-09T04:55:00.300Z</time>
      </trkpt>
      <trkpt lat="47.83209" lon="6.9767">
        <ele>722</ele>
        <time>2026-05-09T04:55:01.299Z</time>
      </trkpt>
      <trkpt lat="47.83209" lon="6.97673">
        <ele>722</ele>
        <time>2026-05-09T04:55:02.299Z</time>
      </trkpt>
      <trkpt lat="47.83209" lon="6.97675">
        <ele>721</ele>
        <time>2026-05-09T04:55:03.300Z</time>
      </trkpt>
      <trkpt lat="47.83209" lon="6.97677">
        <ele>721</ele>
        <time>2026-05-09T04:55:04.300Z</time>
      </trkpt>
      <trkpt lat="47.83209" lon="6.97678">
        <ele>721</ele>
        <time>2026-05-09T04:55:05.299Z</time>
      </trkpt>
      <trkpt lat="47.83208" lon="6.9768">
        <ele>720</ele>
        <time>2026-05-09T04:55:06.299Z</time>
      </trkpt>
      <trkpt lat="47.83208" lon="6.97682">
        <ele>720</ele>
        <time>2026-05-09T04:55:07.300Z</time>
      </trkpt>
      <trkpt lat="47.83209" lon="6.97684">
        <ele>720</ele>
        <time>2026-05-09T04:55:08.300Z</time>
      </trkpt>
      <trkpt lat="47.83209" lon="6.97685">
        <ele>720</ele>
        <time>2026-05-09T04:55:09.300Z</time>
      </trkpt>
      <trkpt lat="47.83209" lon="6.97687">
        <ele>720</ele>
        <time>2026-05-09T04:55:10.299Z</time>
      </trkpt>
      <trkpt lat="47.83209" lon="6.97688">
        <ele>720</ele>
        <time>2026-05-09T04:55:11.300Z</time>
      </trkpt>
      <trkpt lat="47.83209" lon="6.97689">
        <ele>720</ele>
        <time>2026-05-09T04:55:12.300Z</time>
      </trkpt>
      <trkpt lat="47.83209" lon="6.9769">
        <ele>721</ele>
        <time>2026-05-09T04:55:13.300Z</time>
      </trkpt>
      <trkpt lat="47.83208" lon="6.97691">
        <ele>721</ele>
        <time>2026-05-09T04:55:14.299Z</time>
      </trkpt>
      <trkpt lat="47.83207" lon="6.97693">
        <ele>722</ele>
        <time>2026-05-09T04:55:15.300Z</time>
      </trkpt>
      <trkpt lat="47.83206" lon="6.97695">
        <ele>722</ele>
        <time>2026-05-09T04:55:16.299Z</time>
      </trkpt>
      <trkpt lat="47.83205" lon="6.97697">
        <ele>722</ele>
        <time>2026-05-09T04:55:17.299Z</time>
      </trkpt>
      <trkpt lat="47.83205" lon="6.97699">
        <ele>722</ele>
        <time>2026-05-09T04:55:18.299Z</time>
      </trkpt>
      <trkpt lat="47.83204" lon="6.977">
        <ele>722</ele>
        <time>2026-05-09T04:55:19.299Z</time>
      </trkpt>
      <trkpt lat="47.83204" lon="6.97701">
        <ele>722</ele>
        <time>2026-05-09T04:55:20.300Z</time>
      </trkpt>
      <trkpt lat="47.83204" lon="6.97702">
        <ele>722</ele>
        <time>2026-05-09T04:55:21.299Z</time>
      </trkpt>
      <trkpt lat="47.83205" lon="6.97703">
        <ele>722</ele>
        <time>2026-05-09T04:55:22.299Z</time>
      </trkpt>
      <trkpt lat="47.83205" lon="6.97705">
        <ele>722</ele>
        <time>2026-05-09T04:55:23.300Z</time>
      </trkpt>
      <trkpt lat="47.83204" lon="6.97707">
        <ele>722</ele>
        <time>2026-05-09T04:55:24.300Z</time>
      </trkpt>
      <trkpt lat="47.83204" lon="6.97708">
        <ele>722</ele>
        <time>2026-05-09T04:55:25.300Z</time>
      </trkpt>
      <trkpt lat="47.83204" lon="6.97709">
        <ele>723</ele>
        <time>2026-05-09T04:55:26.299Z</time>
      </trkpt>
      <trkpt lat="47.83204" lon="6.9771">
        <ele>723</ele>
        <time>2026-05-09T04:55:27.299Z</time>
      </trkpt>
      <trkpt lat="47.83204" lon="6.97711">
        <ele>723</ele>
        <time>2026-05-09T04:55:28.299Z</time>
      </trkpt>
      <trkpt lat="47.83204" lon="6.97712">
        <ele>723</ele>
        <time>2026-05-09T04:55:29.300Z</time>
      </trkpt>
      <trkpt lat="47.83204" lon="6.97714">
        <ele>724</ele>
        <time>2026-05-09T04:55:30.299Z</time>
      </trkpt>
      <trkpt lat="47.83204" lon="6.97715">
        <ele>724</ele>
        <time>2026-05-09T04:55:31.299Z</time>
      </trkpt>
      <trkpt lat="47.83204" lon="6.97716">
        <ele>724</ele>
        <time>2026-05-09T04:55:32.299Z</time>
      </trkpt>
      <trkpt lat="47.83204" lon="6.97716">
        <ele>724</ele>
        <time>2026-05-09T04:55:33.300Z</time>
      </trkpt>
      <trkpt lat="47.83204" lon="6.9772">
        <ele>724</ele>
        <time>2026-05-09T04:55:34.300Z</time>
      </trkpt>
      <trkpt lat="47.83204" lon="6.97721">
        <ele>725</ele>
        <time>2026-05-09T04:55:35.299Z</time>
      </trkpt>
      <trkpt lat="47.83204" lon="6.97722">
        <ele>725</ele>
        <time>2026-05-09T04:55:36.300Z</time>
      </trkpt>
      <trkpt lat="47.83201" lon="6.97725">
        <ele>725</ele>
        <time>2026-05-09T04:55:37.300Z</time>
      </trkpt>
      <trkpt lat="47.832" lon="6.97728">
        <ele>725</ele>
        <time>2026-05-09T04:55:38.300Z</time>
      </trkpt>
      <trkpt lat="47.83201" lon="6.97729">
        <ele>724</ele>
        <time>2026-05-09T04:55:39.300Z</time>
      </trkpt>
      <trkpt lat="47.83203" lon="6.97731">
        <ele>724</ele>
        <time>2026-05-09T04:55:40.299Z</time>
      </trkpt>
      <trkpt lat="47.83204" lon="6.97732">
        <ele>724</ele>
        <time>2026-05-09T04:55:41.300Z</time>
      </trkpt>
      <trkpt lat="47.83204" lon="6.97733">
        <ele>724</ele>
        <time>2026-05-09T04:55:42.300Z</time>
      </trkpt>
      <trkpt lat="47.83206" lon="6.97734">
        <ele>725</ele>
        <time>2026-05-09T04:55:43.299Z</time>
      </trkpt>
      <trkpt lat="47.83204" lon="6.97735">
        <ele>725</ele>
        <time>2026-05-09T04:55:44.299Z</time>
      </trkpt>
      <trkpt lat="47.83201" lon="6.97736">
        <ele>725</ele>
        <time>2026-05-09T04:55:45.300Z</time>
      </trkpt>
      <trkpt lat="47.83199" lon="6.97738">
        <ele>725</ele>
        <time>2026-05-09T04:55:46.299Z</time>
      </trkpt>
      <trkpt lat="47.83196" lon="6.9774">
        <ele>725</ele>
        <time>2026-05-09T04:55:47.299Z</time>
      </trkpt>
      <trkpt lat="47.83194" lon="6.97742">
        <ele>725</ele>
        <time>2026-05-09T04:55:48.299Z</time>
      </trkpt>
      <trkpt lat="47.83193" lon="6.97743">
        <ele>726</ele>
        <time>2026-05-09T04:55:49.299Z</time>
      </trkpt>
      <trkpt lat="47.83191" lon="6.97744">
        <ele>726</ele>
        <time>2026-05-09T04:55:50.299Z</time>
      </trkpt>
      <trkpt lat="47.8319" lon="6.97744">
        <ele>726</ele>
        <time>2026-05-09T04:55:51.300Z</time>
      </trkpt>
      <trkpt lat="47.8319" lon="6.97745">
        <ele>726</ele>
        <time>2026-05-09T04:55:52.299Z</time>
      </trkpt>
      <trkpt lat="47.83189" lon="6.97746">
        <ele>726</ele>
        <time>2026-05-09T04:55:53.300Z</time>
      </trkpt>
      <trkpt lat="47.83189" lon="6.97748">
        <ele>727</ele>
        <time>2026-05-09T04:55:54.299Z</time>
      </trkpt>
      <trkpt lat="47.83188" lon="6.97749">
        <ele>727</ele>
        <time>2026-05-09T04:55:55.299Z</time>
      </trkpt>
      <trkpt lat="47.83188" lon="6.97752">
        <ele>727</ele>
        <time>2026-05-09T04:55:56.299Z</time>
      </trkpt>
      <trkpt lat="47.83188" lon="6.97752">
        <ele>728</ele>
        <time>2026-05-09T04:55:57.299Z</time>
      </trkpt>
      <trkpt lat="47.8319" lon="6.97752">
        <ele>728</ele>
        <time>2026-05-09T04:55:58.300Z</time>
      </trkpt>
      <trkpt lat="47.83187" lon="6.97753">
        <ele>728</ele>
        <time>2026-05-09T04:55:59.299Z</time>
      </trkpt>
      <trkpt lat="47.83186" lon="6.97755">
        <ele>728</ele>
        <time>2026-05-09T04:56:00.299Z</time>
      </trkpt>
      <trkpt lat="47.83185" lon="6.97756">
        <ele>728</ele>
        <time>2026-05-09T04:56:01.300Z</time>
      </trkpt>
      <trkpt lat="47.83185" lon="6.97757">
        <ele>728</ele>
        <time>2026-05-09T04:56:02.299Z</time>
      </trkpt>
      <trkpt lat="47.83185" lon="6.97758">
        <ele>728</ele>
        <time>2026-05-09T04:56:03.300Z</time>
      </trkpt>
      <trkpt lat="47.83184" lon="6.9776">
        <ele>728</ele>
        <time>2026-05-09T04:56:04.300Z</time>
      </trkpt>
      <trkpt lat="47.83184" lon="6.97761">
        <ele>727</ele>
        <time>2026-05-09T04:56:05.299Z</time>
      </trkpt>
      <trkpt lat="47.83183" lon="6.97762">
        <ele>727</ele>
        <time>2026-05-09T04:56:06.299Z</time>
      </trkpt>
      <trkpt lat="47.83183" lon="6.97762">
        <ele>727</ele>
        <time>2026-05-09T04:56:07.300Z</time>
      </trkpt>
      <trkpt lat="47.83182" lon="6.97764">
        <ele>727</ele>
        <time>2026-05-09T04:56:08.299Z</time>
      </trkpt>
      <trkpt lat="47.83182" lon="6.97765">
        <ele>726</ele>
        <time>2026-05-09T04:56:09.300Z</time>
      </trkpt>
      <trkpt lat="47.83181" lon="6.97767">
        <ele>726</ele>
        <time>2026-05-09T04:56:10.299Z</time>
      </trkpt>
      <trkpt lat="47.83181" lon="6.97767">
        <ele>726</ele>
        <time>2026-05-09T04:56:11.300Z</time>
      </trkpt>
      <trkpt lat="47.8318" lon="6.97768">
        <ele>725</ele>
        <time>2026-05-09T04:56:12.299Z</time>
      </trkpt>
      <trkpt lat="47.8318" lon="6.97769">
        <ele>725</ele>
        <time>2026-05-09T04:56:13.300Z</time>
      </trkpt>
      <trkpt lat="47.83179" lon="6.97769">
        <ele>725</ele>
        <time>2026-05-09T04:56:14.299Z</time>
      </trkpt>
      <trkpt lat="47.83178" lon="6.9777">
        <ele>725</ele>
        <time>2026-05-09T04:56:15.299Z</time>
      </trkpt>
      <trkpt lat="47.83177" lon="6.97771">
        <ele>725</ele>
        <time>2026-05-09T04:56:16.300Z</time>
      </trkpt>
      <trkpt lat="47.83177" lon="6.97772">
        <ele>725</ele>
        <time>2026-05-09T04:56:17.299Z</time>
      </trkpt>
      <trkpt lat="47.83178" lon="6.97774">
        <ele>725</ele>
        <time>2026-05-09T04:56:18.300Z</time>
      </trkpt>
      <trkpt lat="47.83178" lon="6.97776">
        <ele>725</ele>
        <time>2026-05-09T04:56:19.299Z</time>
      </trkpt>
      <trkpt lat="47.83178" lon="6.97777">
        <ele>725</ele>
        <time>2026-05-09T04:56:20.299Z</time>
      </trkpt>
      <trkpt lat="47.83177" lon="6.97778">
        <ele>725</ele>
        <time>2026-05-09T04:56:21.299Z</time>
      </trkpt>
      <trkpt lat="47.83177" lon="6.97779">
        <ele>725</ele>
        <time>2026-05-09T04:56:22.300Z</time>
      </trkpt>
      <trkpt lat="47.83177" lon="6.9778">
        <ele>726</ele>
        <time>2026-05-09T04:56:23.299Z</time>
      </trkpt>
      <trkpt lat="47.83177" lon="6.9778">
        <ele>726</ele>
        <time>2026-05-09T04:56:24.299Z</time>
      </trkpt>
      <trkpt lat="47.83177" lon="6.97781">
        <ele>726</ele>
        <time>2026-05-09T04:56:25.299Z</time>
      </trkpt>
      <trkpt lat="47.83177" lon="6.97782">
        <ele>726</ele>
        <time>2026-05-09T04:56:26.300Z</time>
      </trkpt>
      <trkpt lat="47.83177" lon="6.97782">
        <ele>726</ele>
        <time>2026-05-09T04:56:27.299Z</time>
      </trkpt>
      <trkpt lat="47.83177" lon="6.97782">
        <ele>726</ele>
        <time>2026-05-09T04:56:28.299Z</time>
      </trkpt>
      <trkpt lat="47.83176" lon="6.97783">
        <ele>726</ele>
        <time>2026-05-09T04:56:29.299Z</time>
      </trkpt>
      <trkpt lat="47.83176" lon="6.97783">
        <ele>726</ele>
        <time>2026-05-09T04:56:30.299Z</time>
      </trkpt>
      <trkpt lat="47.83175" lon="6.97784">
        <ele>726</ele>
        <time>2026-05-09T04:56:31.299Z</time>
      </trkpt>
      <trkpt lat="47.83175" lon="6.97785">
        <ele>726</ele>
        <time>2026-05-09T04:56:32.300Z</time>
      </trkpt>
      <trkpt lat="47.83175" lon="6.97786">
        <ele>726</ele>
        <time>2026-05-09T04:56:33.300Z</time>
      </trkpt>
      <trkpt lat="47.83174" lon="6.97787">
        <ele>726</ele>
        <time>2026-05-09T04:56:34.299Z</time>
      </trkpt>
      <trkpt lat="47.83174" lon="6.97788">
        <ele>726</ele>
        <time>2026-05-09T04:56:35.299Z</time>
      </trkpt>
      <trkpt lat="47.83173" lon="6.97788">
        <ele>726</ele>
        <time>2026-05-09T04:56:36.299Z</time>
      </trkpt>
      <trkpt lat="47.83173" lon="6.97789">
        <ele>726</ele>
        <time>2026-05-09T04:56:37.300Z</time>
      </trkpt>
      <trkpt lat="47.83172" lon="6.97789">
        <ele>726</ele>
        <time>2026-05-09T04:56:38.299Z</time>
      </trkpt>
      <trkpt lat="47.83171" lon="6.97789">
        <ele>726</ele>
        <time>2026-05-09T04:56:39.300Z</time>
      </trkpt>
      <trkpt lat="47.8317" lon="6.9779">
        <ele>726</ele>
        <time>2026-05-09T04:56:40.299Z</time>
      </trkpt>
      <trkpt lat="47.83169" lon="6.9779">
        <ele>726</ele>
        <time>2026-05-09T04:56:41.300Z</time>
      </trkpt>
      <trkpt lat="47.83168" lon="6.97791">
        <ele>726</ele>
        <time>2026-05-09T04:56:42.299Z</time>
      </trkpt>
      <trkpt lat="47.83167" lon="6.97793">
        <ele>726</ele>
        <time>2026-05-09T04:56:43.300Z</time>
      </trkpt>
      <trkpt lat="47.83167" lon="6.97794">
        <ele>726</ele>
        <time>2026-05-09T04:56:44.299Z</time>
      </trkpt>
      <trkpt lat="47.83166" lon="6.97796">
        <ele>726</ele>
        <time>2026-05-09T04:56:45.300Z</time>
      </trkpt>
      <trkpt lat="47.83166" lon="6.97798">
        <ele>726</ele>
        <time>2026-05-09T04:56:46.299Z</time>
      </trkpt>
      <trkpt lat="47.83166" lon="6.97799">
        <ele>726</ele>
        <time>2026-05-09T04:56:47.300Z</time>
      </trkpt>
      <trkpt lat="47.83166" lon="6.978">
        <ele>726</ele>
        <time>2026-05-09T04:56:48.300Z</time>
      </trkpt>
      <trkpt lat="47.83166" lon="6.97801">
        <ele>727</ele>
        <time>2026-05-09T04:56:49.300Z</time>
      </trkpt>
      <trkpt lat="47.83165" lon="6.97802">
        <ele>727</ele>
        <time>2026-05-09T04:56:50.300Z</time>
      </trkpt>
      <trkpt lat="47.83165" lon="6.97803">
        <ele>727</ele>
        <time>2026-05-09T04:56:51.299Z</time>
      </trkpt>
      <trkpt lat="47.83165" lon="6.97804">
        <ele>727</ele>
        <time>2026-05-09T04:56:52.300Z</time>
      </trkpt>
      <trkpt lat="47.83165" lon="6.97805">
        <ele>727</ele>
        <time>2026-05-09T04:56:53.299Z</time>
      </trkpt>
      <trkpt lat="47.83165" lon="6.97807">
        <ele>727</ele>
        <time>2026-05-09T04:56:54.299Z</time>
      </trkpt>
      <trkpt lat="47.83164" lon="6.97808">
        <ele>727</ele>
        <time>2026-05-09T04:56:55.299Z</time>
      </trkpt>
      <trkpt lat="47.83164" lon="6.9781">
        <ele>727</ele>
        <time>2026-05-09T04:56:56.300Z</time>
      </trkpt>
      <trkpt lat="47.83163" lon="6.97811">
        <ele>727</ele>
        <time>2026-05-09T04:56:57.299Z</time>
      </trkpt>
      <trkpt lat="47.83163" lon="6.97813">
        <ele>727</ele>
        <time>2026-05-09T04:56:58.300Z</time>
      </trkpt>
      <trkpt lat="47.83163" lon="6.97814">
        <ele>727</ele>
        <time>2026-05-09T04:56:59.299Z</time>
      </trkpt>
      <trkpt lat="47.83163" lon="6.97814">
        <ele>727</ele>
        <time>2026-05-09T04:57:00.300Z</time>
      </trkpt>
      <trkpt lat="47.83163" lon="6.97815">
        <ele>727</ele>
        <time>2026-05-09T04:57:01.300Z</time>
      </trkpt>
      <trkpt lat="47.83162" lon="6.97815">
        <ele>727</ele>
        <time>2026-05-09T04:57:02.300Z</time>
      </trkpt>
      <trkpt lat="47.83161" lon="6.97816">
        <ele>727</ele>
        <time>2026-05-09T04:57:03.299Z</time>
      </trkpt>
      <trkpt lat="47.8316" lon="6.97818">
        <ele>727</ele>
        <time>2026-05-09T04:57:04.300Z</time>
      </trkpt>
      <trkpt lat="47.8316" lon="6.97819">
        <ele>727</ele>
        <time>2026-05-09T04:57:05.300Z</time>
      </trkpt>
      <trkpt lat="47.8316" lon="6.97819">
        <ele>727</ele>
        <time>2026-05-09T04:57:06.300Z</time>
      </trkpt>
      <trkpt lat="47.8316" lon="6.97821">
        <ele>727</ele>
        <time>2026-05-09T04:57:07.300Z</time>
      </trkpt>
      <trkpt lat="47.8316" lon="6.97822">
        <ele>727</ele>
        <time>2026-05-09T04:57:08.299Z</time>
      </trkpt>
      <trkpt lat="47.8316" lon="6.97822">
        <ele>727</ele>
        <time>2026-05-09T04:57:09.300Z</time>
      </trkpt>
      <trkpt lat="47.8316" lon="6.97822">
        <ele>728</ele>
        <time>2026-05-09T04:57:10.300Z</time>
      </trkpt>
      <trkpt lat="47.8316" lon="6.97823">
        <ele>728</ele>
        <time>2026-05-09T04:57:11.300Z</time>
      </trkpt>
      <trkpt lat="47.83157" lon="6.97828">
        <ele>730</ele>
        <time>2026-05-09T04:57:17.643Z</time>
      </trkpt>
      <trkpt lat="47.83157" lon="6.97829">
        <ele>730</ele>
        <time>2026-05-09T04:57:18.643Z</time>
      </trkpt>
      <trkpt lat="47.83155" lon="6.97831">
        <ele>730</ele>
        <time>2026-05-09T04:57:19.643Z</time>
      </trkpt>
      <trkpt lat="47.83154" lon="6.97833">
        <ele>730</ele>
        <time>2026-05-09T04:57:20.643Z</time>
      </trkpt>
      <trkpt lat="47.83152" lon="6.97835">
        <ele>729</ele>
        <time>2026-05-09T04:57:21.643Z</time>
      </trkpt>
      <trkpt lat="47.83152" lon="6.97836">
        <ele>728</ele>
        <time>2026-05-09T04:57:22.643Z</time>
      </trkpt>
      <trkpt lat="47.83151" lon="6.97837">
        <ele>728</ele>
        <time>2026-05-09T04:57:23.643Z</time>
      </trkpt>
      <trkpt lat="47.8315" lon="6.97838">
        <ele>728</ele>
        <time>2026-05-09T04:57:24.643Z</time>
      </trkpt>
      <trkpt lat="47.8315" lon="6.9784">
        <ele>727</ele>
        <time>2026-05-09T04:57:25.643Z</time>
      </trkpt>
      <trkpt lat="47.83149" lon="6.97842">
        <ele>727</ele>
        <time>2026-05-09T04:57:26.643Z</time>
      </trkpt>
      <trkpt lat="47.83149" lon="6.97842">
        <ele>726</ele>
        <time>2026-05-09T04:57:27.643Z</time>
      </trkpt>
      <trkpt lat="47.83149" lon="6.97842">
        <ele>726</ele>
        <time>2026-05-09T04:57:28.643Z</time>
      </trkpt>
      <trkpt lat="47.83148" lon="6.97843">
        <ele>726</ele>
        <time>2026-05-09T04:57:29.643Z</time>
      </trkpt>
      <trkpt lat="47.83148" lon="6.97844">
        <ele>725</ele>
        <time>2026-05-09T04:57:30.643Z</time>
      </trkpt>
      <trkpt lat="47.83148" lon="6.97846">
        <ele>725</ele>
        <time>2026-05-09T04:57:31.643Z</time>
      </trkpt>
      <trkpt lat="47.83148" lon="6.97846">
        <ele>725</ele>
        <time>2026-05-09T04:57:32.643Z</time>
      </trkpt>
      <trkpt lat="47.83148" lon="6.97847">
        <ele>724</ele>
        <time>2026-05-09T04:57:33.643Z</time>
      </trkpt>
      <trkpt lat="47.83148" lon="6.97849">
        <ele>724</ele>
        <time>2026-05-09T04:57:34.643Z</time>
      </trkpt>
      <trkpt lat="47.83146" lon="6.97851">
        <ele>724</ele>
        <time>2026-05-09T04:57:35.643Z</time>
      </trkpt>
      <trkpt lat="47.83144" lon="6.97854">
        <ele>724</ele>
        <time>2026-05-09T04:57:36.643Z</time>
      </trkpt>
      <trkpt lat="47.83142" lon="6.97856">
        <ele>723</ele>
        <time>2026-05-09T04:57:37.643Z</time>
      </trkpt>
      <trkpt lat="47.8314" lon="6.97857">
        <ele>723</ele>
        <time>2026-05-09T04:57:38.643Z</time>
      </trkpt>
      <trkpt lat="47.83138" lon="6.97859">
        <ele>723</ele>
        <time>2026-05-09T04:57:39.643Z</time>
      </trkpt>
      <trkpt lat="47.83138" lon="6.9786">
        <ele>723</ele>
        <time>2026-05-09T04:57:40.643Z</time>
      </trkpt>
      <trkpt lat="47.83137" lon="6.9786">
        <ele>723</ele>
        <time>2026-05-09T04:57:41.643Z</time>
      </trkpt>
      <trkpt lat="47.83137" lon="6.97861">
        <ele>723</ele>
        <time>2026-05-09T04:57:42.643Z</time>
      </trkpt>
      <trkpt lat="47.83136" lon="6.97861">
        <ele>722</ele>
        <time>2026-05-09T04:57:43.643Z</time>
      </trkpt>
      <trkpt lat="47.83136" lon="6.97863">
        <ele>722</ele>
        <time>2026-05-09T04:57:44.643Z</time>
      </trkpt>
      <trkpt lat="47.83136" lon="6.97868">
        <ele>722</ele>
        <time>2026-05-09T04:57:45.643Z</time>
      </trkpt>
      <trkpt lat="47.83136" lon="6.97872">
        <ele>722</ele>
        <time>2026-05-09T04:57:46.643Z</time>
      </trkpt>
      <trkpt lat="47.83136" lon="6.97875">
        <ele>722</ele>
        <time>2026-05-09T04:57:47.643Z</time>
      </trkpt>
      <trkpt lat="47.83135" lon="6.97879">
        <ele>722</ele>
        <time>2026-05-09T04:57:48.643Z</time>
      </trkpt>
      <trkpt lat="47.83135" lon="6.97881">
        <ele>722</ele>
        <time>2026-05-09T04:57:49.643Z</time>
      </trkpt>
      <trkpt lat="47.83132" lon="6.97881">
        <ele>722</ele>
        <time>2026-05-09T04:57:50.643Z</time>
      </trkpt>
      <trkpt lat="47.8313" lon="6.97879">
        <ele>722</ele>
        <time>2026-05-09T04:57:51.643Z</time>
      </trkpt>
      <trkpt lat="47.83127" lon="6.97879">
        <ele>722</ele>
        <time>2026-05-09T04:57:52.643Z</time>
      </trkpt>
      <trkpt lat="47.83125" lon="6.9788">
        <ele>722</ele>
        <time>2026-05-09T04:57:53.643Z</time>
      </trkpt>
      <trkpt lat="47.83125" lon="6.97881">
        <ele>722</ele>
        <time>2026-05-09T04:57:54.643Z</time>
      </trkpt>
      <trkpt lat="47.83126" lon="6.97885">
        <ele>722</ele>
        <time>2026-05-09T04:57:55.643Z</time>
      </trkpt>
      <trkpt lat="47.83125" lon="6.97886">
        <ele>722</ele>
        <time>2026-05-09T04:57:56.643Z</time>
      </trkpt>
      <trkpt lat="47.83124" lon="6.97887">
        <ele>722</ele>
        <time>2026-05-09T04:57:57.643Z</time>
      </trkpt>
      <trkpt lat="47.83123" lon="6.97888">
        <ele>722</ele>
        <time>2026-05-09T04:57:58.643Z</time>
      </trkpt>
      <trkpt lat="47.83123" lon="6.97888">
        <ele>722</ele>
        <time>2026-05-09T04:57:59.643Z</time>
      </trkpt>
      <trkpt lat="47.83122" lon="6.97888">
        <ele>722</ele>
        <time>2026-05-09T04:58:00.643Z</time>
      </trkpt>
      <trkpt lat="47.83122" lon="6.97888">
        <ele>723</ele>
        <time>2026-05-09T04:58:01.643Z</time>
      </trkpt>
      <trkpt lat="47.83122" lon="6.97889">
        <ele>723</ele>
        <time>2026-05-09T04:58:02.643Z</time>
      </trkpt>
      <trkpt lat="47.83122" lon="6.97891">
        <ele>723</ele>
        <time>2026-05-09T04:58:03.643Z</time>
      </trkpt>
      <trkpt lat="47.83122" lon="6.97894">
        <ele>723</ele>
        <time>2026-05-09T04:58:04.643Z</time>
      </trkpt>
      <trkpt lat="47.83122" lon="6.97896">
        <ele>723</ele>
        <time>2026-05-09T04:58:05.643Z</time>
      </trkpt>
      <trkpt lat="47.8312" lon="6.97896">
        <ele>723</ele>
        <time>2026-05-09T04:58:06.643Z</time>
      </trkpt>
      <trkpt lat="47.83117" lon="6.97896">
        <ele>723</ele>
        <time>2026-05-09T04:58:07.643Z</time>
      </trkpt>
      <trkpt lat="47.83115" lon="6.97897">
        <ele>723</ele>
        <time>2026-05-09T04:58:08.643Z</time>
      </trkpt>
      <trkpt lat="47.83113" lon="6.97897">
        <ele>723</ele>
        <time>2026-05-09T04:58:09.643Z</time>
      </trkpt>
      <trkpt lat="47.83112" lon="6.97898">
        <ele>723</ele>
        <time>2026-05-09T04:58:10.643Z</time>
      </trkpt>
      <trkpt lat="47.8311" lon="6.97899">
        <ele>724</ele>
        <time>2026-05-09T04:58:11.643Z</time>
      </trkpt>
      <trkpt lat="47.83108" lon="6.97901">
        <ele>724</ele>
        <time>2026-05-09T04:58:12.643Z</time>
      </trkpt>
      <trkpt lat="47.83106" lon="6.97902">
        <ele>724</ele>
        <time>2026-05-09T04:58:13.643Z</time>
      </trkpt>
      <trkpt lat="47.83105" lon="6.97904">
        <ele>724</ele>
        <time>2026-05-09T04:58:14.643Z</time>
      </trkpt>
      <trkpt lat="47.83103" lon="6.97905">
        <ele>724</ele>
        <time>2026-05-09T04:58:15.643Z</time>
      </trkpt>
      <trkpt lat="47.83102" lon="6.97908">
        <ele>724</ele>
        <time>2026-05-09T04:58:16.643Z</time>
      </trkpt>
      <trkpt lat="47.83101" lon="6.9791">
        <ele>724</ele>
        <time>2026-05-09T04:58:17.643Z</time>
      </trkpt>
      <trkpt lat="47.83101" lon="6.97911">
        <ele>724</ele>
        <time>2026-05-09T04:58:18.643Z</time>
      </trkpt>
      <trkpt lat="47.83101" lon="6.97914">
        <ele>724</ele>
        <time>2026-05-09T04:58:19.643Z</time>
      </trkpt>
      <trkpt lat="47.83101" lon="6.97917">
        <ele>724</ele>
        <time>2026-05-09T04:58:20.643Z</time>
      </trkpt>
      <trkpt lat="47.83102" lon="6.9792">
        <ele>724</ele>
        <time>2026-05-09T04:58:21.643Z</time>
      </trkpt>
      <trkpt lat="47.83104" lon="6.97923">
        <ele>724</ele>
        <time>2026-05-09T04:58:22.643Z</time>
      </trkpt>
      <trkpt lat="47.83104" lon="6.97927">
        <ele>724</ele>
        <time>2026-05-09T04:58:23.643Z</time>
      </trkpt>
      <trkpt lat="47.83104" lon="6.97929">
        <ele>724</ele>
        <time>2026-05-09T04:58:24.643Z</time>
      </trkpt>
      <trkpt lat="47.83104" lon="6.97931">
        <ele>724</ele>
        <time>2026-05-09T04:58:25.643Z</time>
      </trkpt>
      <trkpt lat="47.83105" lon="6.97933">
        <ele>725</ele>
        <time>2026-05-09T04:58:26.643Z</time>
      </trkpt>
      <trkpt lat="47.83107" lon="6.97936">
        <ele>725</ele>
        <time>2026-05-09T04:58:27.643Z</time>
      </trkpt>
      <trkpt lat="47.83108" lon="6.97939">
        <ele>725</ele>
        <time>2026-05-09T04:58:28.643Z</time>
      </trkpt>
      <trkpt lat="47.83109" lon="6.97939">
        <ele>725</ele>
        <time>2026-05-09T04:58:29.643Z</time>
      </trkpt>
      <trkpt lat="47.83109" lon="6.9794">
        <ele>725</ele>
        <time>2026-05-09T04:58:30.643Z</time>
      </trkpt>
      <trkpt lat="47.83108" lon="6.97938">
        <ele>725</ele>
        <time>2026-05-09T04:58:31.643Z</time>
      </trkpt>
      <trkpt lat="47.83108" lon="6.97938">
        <ele>725</ele>
        <time>2026-05-09T04:58:32.643Z</time>
      </trkpt>
      <trkpt lat="47.83108" lon="6.97939">
        <ele>725</ele>
        <time>2026-05-09T04:58:33.643Z</time>
      </trkpt>
      <trkpt lat="47.83107" lon="6.97941">
        <ele>725</ele>
        <time>2026-05-09T04:58:34.643Z</time>
      </trkpt>
      <trkpt lat="47.83107" lon="6.9794">
        <ele>726</ele>
        <time>2026-05-09T04:58:35.643Z</time>
      </trkpt>
      <trkpt lat="47.83106" lon="6.97943">
        <ele>726</ele>
        <time>2026-05-09T04:58:36.643Z</time>
      </trkpt>
      <trkpt lat="47.83104" lon="6.97943">
        <ele>726</ele>
        <time>2026-05-09T04:58:37.643Z</time>
      </trkpt>
      <trkpt lat="47.83107" lon="6.97943">
        <ele>726</ele>
        <time>2026-05-09T04:58:38.643Z</time>
      </trkpt>
      <trkpt lat="47.83107" lon="6.97944">
        <ele>726</ele>
        <time>2026-05-09T04:58:39.643Z</time>
      </trkpt>
      <trkpt lat="47.83107" lon="6.97946">
        <ele>727</ele>
        <time>2026-05-09T04:58:40.643Z</time>
      </trkpt>
      <trkpt lat="47.83107" lon="6.97947">
        <ele>727</ele>
        <time>2026-05-09T04:58:41.643Z</time>
      </trkpt>
      <trkpt lat="47.83106" lon="6.97947">
        <ele>727</ele>
        <time>2026-05-09T04:58:42.643Z</time>
      </trkpt>
      <trkpt lat="47.83106" lon="6.97946">
        <ele>727</ele>
        <time>2026-05-09T04:58:43.643Z</time>
      </trkpt>
      <trkpt lat="47.83106" lon="6.97947">
        <ele>727</ele>
        <time>2026-05-09T04:58:44.643Z</time>
      </trkpt>
      <trkpt lat="47.83105" lon="6.97946">
        <ele>728</ele>
        <time>2026-05-09T04:58:45.643Z</time>
      </trkpt>
      <trkpt lat="47.83105" lon="6.97947">
        <ele>728</ele>
        <time>2026-05-09T04:58:46.643Z</time>
      </trkpt>
      <trkpt lat="47.83105" lon="6.97949">
        <ele>728</ele>
        <time>2026-05-09T04:58:47.643Z</time>
      </trkpt>
      <trkpt lat="47.83104" lon="6.97951">
        <ele>729</ele>
        <time>2026-05-09T04:58:48.643Z</time>
      </trkpt>
      <trkpt lat="47.83102" lon="6.97951">
        <ele>729</ele>
        <time>2026-05-09T04:58:49.643Z</time>
      </trkpt>
      <trkpt lat="47.83101" lon="6.97952">
        <ele>730</ele>
        <time>2026-05-09T04:58:50.643Z</time>
      </trkpt>
      <trkpt lat="47.83099" lon="6.97952">
        <ele>730</ele>
        <time>2026-05-09T04:58:51.643Z</time>
      </trkpt>
      <trkpt lat="47.83098" lon="6.97952">
        <ele>730</ele>
        <time>2026-05-09T04:58:52.643Z</time>
      </trkpt>
      <trkpt lat="47.83096" lon="6.97951">
        <ele>731</ele>
        <time>2026-05-09T04:58:53.643Z</time>
      </trkpt>
      <trkpt lat="47.83093" lon="6.97949">
        <ele>731</ele>
        <time>2026-05-09T04:58:54.643Z</time>
      </trkpt>
      <trkpt lat="47.83093" lon="6.97948">
        <ele>732</ele>
        <time>2026-05-09T04:58:55.643Z</time>
      </trkpt>
      <trkpt lat="47.83093" lon="6.97948">
        <ele>732</ele>
        <time>2026-05-09T04:58:56.643Z</time>
      </trkpt>
      <trkpt lat="47.83091" lon="6.97948">
        <ele>732</ele>
        <time>2026-05-09T04:58:57.643Z</time>
      </trkpt>
      <trkpt lat="47.83078" lon="6.97951">
        <ele>737</ele>
        <time>2026-05-09T04:59:04.965Z</time>
      </trkpt>
      <trkpt lat="47.83078" lon="6.97951">
        <ele>738</ele>
        <time>2026-05-09T04:59:05.965Z</time>
      </trkpt>
      <trkpt lat="47.83071" lon="6.97959">
        <ele>741</ele>
        <time>2026-05-09T04:59:11.412Z</time>
      </trkpt>
      <trkpt lat="47.83069" lon="6.97961">
        <ele>742</ele>
        <time>2026-05-09T04:59:12.412Z</time>
      </trkpt>
      <trkpt lat="47.83069" lon="6.97961">
        <ele>743</ele>
        <time>2026-05-09T04:59:13.412Z</time>
      </trkpt>
      <trkpt lat="47.83068" lon="6.97963">
        <ele>743</ele>
        <time>2026-05-09T04:59:14.411Z</time>
      </trkpt>
      <trkpt lat="47.83067" lon="6.97964">
        <ele>743</ele>
        <time>2026-05-09T04:59:15.412Z</time>
      </trkpt>
      <trkpt lat="47.83067" lon="6.97966">
        <ele>743</ele>
        <time>2026-05-09T04:59:16.411Z</time>
      </trkpt>
      <trkpt lat="47.83066" lon="6.97967">
        <ele>744</ele>
        <time>2026-05-09T04:59:17.412Z</time>
      </trkpt>
      <trkpt lat="47.83065" lon="6.97969">
        <ele>744</ele>
        <time>2026-05-09T04:59:18.411Z</time>
      </trkpt>
      <trkpt lat="47.83065" lon="6.97969">
        <ele>744</ele>
        <time>2026-05-09T04:59:19.411Z</time>
      </trkpt>
      <trkpt lat="47.83064" lon="6.9797">
        <ele>745</ele>
        <time>2026-05-09T04:59:20.411Z</time>
      </trkpt>
      <trkpt lat="47.83063" lon="6.97971">
        <ele>745</ele>
        <time>2026-05-09T04:59:21.411Z</time>
      </trkpt>
      <trkpt lat="47.83062" lon="6.97971">
        <ele>745</ele>
        <time>2026-05-09T04:59:22.412Z</time>
      </trkpt>
      <trkpt lat="47.83062" lon="6.97972">
        <ele>744</ele>
        <time>2026-05-09T04:59:23.411Z</time>
      </trkpt>
      <trkpt lat="47.83062" lon="6.97972">
        <ele>744</ele>
        <time>2026-05-09T04:59:24.412Z</time>
      </trkpt>
      <trkpt lat="47.83061" lon="6.97973">
        <ele>744</ele>
        <time>2026-05-09T04:59:25.411Z</time>
      </trkpt>
      <trkpt lat="47.83061" lon="6.97974">
        <ele>744</ele>
        <time>2026-05-09T04:59:26.412Z</time>
      </trkpt>
      <trkpt lat="47.8306" lon="6.97975">
        <ele>743</ele>
        <time>2026-05-09T04:59:27.411Z</time>
      </trkpt>
      <trkpt lat="47.83059" lon="6.97977">
        <ele>743</ele>
        <time>2026-05-09T04:59:28.412Z</time>
      </trkpt>
      <trkpt lat="47.83059" lon="6.97978">
        <ele>743</ele>
        <time>2026-05-09T04:59:29.411Z</time>
      </trkpt>
      <trkpt lat="47.83058" lon="6.9798">
        <ele>743</ele>
        <time>2026-05-09T04:59:30.412Z</time>
      </trkpt>
      <trkpt lat="47.83057" lon="6.97981">
        <ele>743</ele>
        <time>2026-05-09T04:59:31.411Z</time>
      </trkpt>
      <trkpt lat="47.83056" lon="6.97983">
        <ele>742</ele>
        <time>2026-05-09T04:59:32.412Z</time>
      </trkpt>
      <trkpt lat="47.83054" lon="6.97985">
        <ele>742</ele>
        <time>2026-05-09T04:59:33.411Z</time>
      </trkpt>
      <trkpt lat="47.83054" lon="6.97986">
        <ele>741</ele>
        <time>2026-05-09T04:59:34.412Z</time>
      </trkpt>
      <trkpt lat="47.83053" lon="6.97987">
        <ele>741</ele>
        <time>2026-05-09T04:59:35.411Z</time>
      </trkpt>
      <trkpt lat="47.83052" lon="6.97988">
        <ele>741</ele>
        <time>2026-05-09T04:59:36.412Z</time>
      </trkpt>
      <trkpt lat="47.8305" lon="6.97989">
        <ele>740</ele>
        <time>2026-05-09T04:59:37.411Z</time>
      </trkpt>
      <trkpt lat="47.83049" lon="6.97991">
        <ele>740</ele>
        <time>2026-05-09T04:59:38.412Z</time>
      </trkpt>
      <trkpt lat="47.83048" lon="6.97992">
        <ele>739</ele>
        <time>2026-05-09T04:59:39.412Z</time>
      </trkpt>
      <trkpt lat="47.83046" lon="6.97993">
        <ele>739</ele>
        <time>2026-05-09T04:59:40.411Z</time>
      </trkpt>
      <trkpt lat="47.83044" lon="6.97994">
        <ele>739</ele>
        <time>2026-05-09T04:59:41.412Z</time>
      </trkpt>
      <trkpt lat="47.83042" lon="6.97995">
        <ele>739</ele>
        <time>2026-05-09T04:59:42.411Z</time>
      </trkpt>
      <trkpt lat="47.83041" lon="6.97997">
        <ele>738</ele>
        <time>2026-05-09T04:59:43.412Z</time>
      </trkpt>
      <trkpt lat="47.83039" lon="6.97998">
        <ele>738</ele>
        <time>2026-05-09T04:59:44.411Z</time>
      </trkpt>
      <trkpt lat="47.83038" lon="6.98">
        <ele>737</ele>
        <time>2026-05-09T04:59:45.412Z</time>
      </trkpt>
      <trkpt lat="47.83036" lon="6.98002">
        <ele>737</ele>
        <time>2026-05-09T04:59:46.411Z</time>
      </trkpt>
      <trkpt lat="47.83035" lon="6.98003">
        <ele>737</ele>
        <time>2026-05-09T04:59:47.412Z</time>
      </trkpt>
      <trkpt lat="47.83034" lon="6.98004">
        <ele>736</ele>
        <time>2026-05-09T04:59:48.411Z</time>
      </trkpt>
      <trkpt lat="47.83033" lon="6.98005">
        <ele>736</ele>
        <time>2026-05-09T04:59:49.412Z</time>
      </trkpt>
      <trkpt lat="47.83031" lon="6.98005">
        <ele>736</ele>
        <time>2026-05-09T04:59:50.411Z</time>
      </trkpt>
      <trkpt lat="47.8303" lon="6.98005">
        <ele>735</ele>
        <time>2026-05-09T04:59:51.411Z</time>
      </trkpt>
      <trkpt lat="47.83029" lon="6.98006">
        <ele>735</ele>
        <time>2026-05-09T04:59:52.412Z</time>
      </trkpt>
      <trkpt lat="47.83028" lon="6.98006">
        <ele>734</ele>
        <time>2026-05-09T04:59:53.412Z</time>
      </trkpt>
      <trkpt lat="47.83027" lon="6.98008">
        <ele>734</ele>
        <time>2026-05-09T04:59:54.412Z</time>
      </trkpt>
      <trkpt lat="47.83026" lon="6.98009">
        <ele>733</ele>
        <time>2026-05-09T04:59:55.412Z</time>
      </trkpt>
      <trkpt lat="47.83024" lon="6.9801">
        <ele>733</ele>
        <time>2026-05-09T04:59:56.412Z</time>
      </trkpt>
      <trkpt lat="47.83024" lon="6.98012">
        <ele>732</ele>
        <time>2026-05-09T04:59:57.412Z</time>
      </trkpt>
      <trkpt lat="47.83023" lon="6.98013">
        <ele>732</ele>
        <time>2026-05-09T04:59:58.411Z</time>
      </trkpt>
      <trkpt lat="47.83023" lon="6.98015">
        <ele>732</ele>
        <time>2026-05-09T04:59:59.412Z</time>
      </trkpt>
      <trkpt lat="47.83022" lon="6.98016">
        <ele>731</ele>
        <time>2026-05-09T05:00:00.411Z</time>
      </trkpt>
      <trkpt lat="47.83022" lon="6.98017">
        <ele>731</ele>
        <time>2026-05-09T05:00:01.412Z</time>
      </trkpt>
      <trkpt lat="47.83021" lon="6.98019">
        <ele>731</ele>
        <time>2026-05-09T05:00:02.411Z</time>
      </trkpt>
      <trkpt lat="47.8302" lon="6.98019">
        <ele>731</ele>
        <time>2026-05-09T05:00:03.412Z</time>
      </trkpt>
      <trkpt lat="47.8302" lon="6.98021">
        <ele>730</ele>
        <time>2026-05-09T05:00:04.412Z</time>
      </trkpt>
      <trkpt lat="47.8302" lon="6.98022">
        <ele>730</ele>
        <time>2026-05-09T05:00:05.412Z</time>
      </trkpt>
      <trkpt lat="47.8302" lon="6.98023">
        <ele>731</ele>
        <time>2026-05-09T05:00:06.411Z</time>
      </trkpt>
      <trkpt lat="47.8302" lon="6.98024">
        <ele>731</ele>
        <time>2026-05-09T05:00:07.411Z</time>
      </trkpt>
      <trkpt lat="47.8302" lon="6.98025">
        <ele>731</ele>
        <time>2026-05-09T05:00:08.411Z</time>
      </trkpt>
      <trkpt lat="47.8302" lon="6.98026">
        <ele>732</ele>
        <time>2026-05-09T05:00:09.411Z</time>
      </trkpt>
      <trkpt lat="47.8302" lon="6.98027">
        <ele>732</ele>
        <time>2026-05-09T05:00:10.411Z</time>
      </trkpt>
      <trkpt lat="47.83021" lon="6.98027">
        <ele>732</ele>
        <time>2026-05-09T05:00:11.411Z</time>
      </trkpt>
      <trkpt lat="47.83021" lon="6.98027">
        <ele>733</ele>
        <time>2026-05-09T05:00:12.411Z</time>
      </trkpt>
      <trkpt lat="47.8302" lon="6.98028">
        <ele>733</ele>
        <time>2026-05-09T05:00:13.412Z</time>
      </trkpt>
      <trkpt lat="47.83019" lon="6.98029">
        <ele>734</ele>
        <time>2026-05-09T05:00:14.411Z</time>
      </trkpt>
      <trkpt lat="47.83016" lon="6.98037">
        <ele>740</ele>
        <time>2026-05-09T05:00:23.852Z</time>
      </trkpt>
      <trkpt lat="47.83015" lon="6.98038">
        <ele>741</ele>
        <time>2026-05-09T05:00:24.852Z</time>
      </trkpt>
      <trkpt lat="47.83014" lon="6.98039">
        <ele>741</ele>
        <time>2026-05-09T05:00:25.852Z</time>
      </trkpt>
      <trkpt lat="47.83014" lon="6.9804">
        <ele>742</ele>
        <time>2026-05-09T05:00:26.853Z</time>
      </trkpt>
      <trkpt lat="47.83013" lon="6.98041">
        <ele>742</ele>
        <time>2026-05-09T05:00:27.852Z</time>
      </trkpt>
      <trkpt lat="47.83013" lon="6.98042">
        <ele>743</ele>
        <time>2026-05-09T05:00:28.853Z</time>
      </trkpt>
      <trkpt lat="47.83013" lon="6.98042">
        <ele>743</ele>
        <time>2026-05-09T05:00:29.852Z</time>
      </trkpt>
      <trkpt lat="47.83013" lon="6.98042">
        <ele>743</ele>
        <time>2026-05-09T05:00:30.852Z</time>
      </trkpt>
      <trkpt lat="47.83013" lon="6.98044">
        <ele>743</ele>
        <time>2026-05-09T05:00:31.852Z</time>
      </trkpt>
      <trkpt lat="47.83012" lon="6.98045">
        <ele>743</ele>
        <time>2026-05-09T05:00:32.852Z</time>
      </trkpt>
      <trkpt lat="47.83011" lon="6.98046">
        <ele>743</ele>
        <time>2026-05-09T05:00:33.852Z</time>
      </trkpt>
      <trkpt lat="47.8301" lon="6.98047">
        <ele>744</ele>
        <time>2026-05-09T05:00:34.852Z</time>
      </trkpt>
      <trkpt lat="47.8301" lon="6.98048">
        <ele>744</ele>
        <time>2026-05-09T05:00:35.853Z</time>
      </trkpt>
      <trkpt lat="47.83009" lon="6.9805">
        <ele>743</ele>
        <time>2026-05-09T05:00:36.852Z</time>
      </trkpt>
      <trkpt lat="47.83008" lon="6.98051">
        <ele>743</ele>
        <time>2026-05-09T05:00:37.853Z</time>
      </trkpt>
      <trkpt lat="47.83008" lon="6.98052">
        <ele>743</ele>
        <time>2026-05-09T05:00:38.853Z</time>
      </trkpt>
      <trkpt lat="47.83007" lon="6.98054">
        <ele>742</ele>
        <time>2026-05-09T05:00:39.853Z</time>
      </trkpt>
      <trkpt lat="47.83007" lon="6.98056">
        <ele>742</ele>
        <time>2026-05-09T05:00:40.853Z</time>
      </trkpt>
      <trkpt lat="47.83007" lon="6.98058">
        <ele>741</ele>
        <time>2026-05-09T05:00:41.852Z</time>
      </trkpt>
      <trkpt lat="47.83007" lon="6.9806">
        <ele>740</ele>
        <time>2026-05-09T05:00:42.852Z</time>
      </trkpt>
      <trkpt lat="47.83007" lon="6.98062">
        <ele>740</ele>
        <time>2026-05-09T05:00:43.853Z</time>
      </trkpt>
      <trkpt lat="47.83007" lon="6.98064">
        <ele>739</ele>
        <time>2026-05-09T05:00:44.853Z</time>
      </trkpt>
      <trkpt lat="47.83008" lon="6.98066">
        <ele>738</ele>
        <time>2026-05-09T05:00:45.852Z</time>
      </trkpt>
      <trkpt lat="47.83008" lon="6.98069">
        <ele>737</ele>
        <time>2026-05-09T05:00:46.853Z</time>
      </trkpt>
      <trkpt lat="47.83007" lon="6.98072">
        <ele>737</ele>
        <time>2026-05-09T05:00:47.853Z</time>
      </trkpt>
      <trkpt lat="47.83007" lon="6.98075">
        <ele>737</ele>
        <time>2026-05-09T05:00:48.853Z</time>
      </trkpt>
      <trkpt lat="47.83006" lon="6.98077">
        <ele>737</ele>
        <time>2026-05-09T05:00:49.852Z</time>
      </trkpt>
      <trkpt lat="47.83005" lon="6.9808">
        <ele>738</ele>
        <time>2026-05-09T05:00:50.852Z</time>
      </trkpt>
      <trkpt lat="47.83005" lon="6.98082">
        <ele>738</ele>
        <time>2026-05-09T05:00:51.853Z</time>
      </trkpt>
      <trkpt lat="47.83004" lon="6.98084">
        <ele>738</ele>
        <time>2026-05-09T05:00:52.853Z</time>
      </trkpt>
      <trkpt lat="47.83003" lon="6.98085">
        <ele>739</ele>
        <time>2026-05-09T05:00:53.852Z</time>
      </trkpt>
      <trkpt lat="47.83003" lon="6.98087">
        <ele>739</ele>
        <time>2026-05-09T05:00:54.852Z</time>
      </trkpt>
      <trkpt lat="47.83002" lon="6.9809">
        <ele>739</ele>
        <time>2026-05-09T05:00:55.852Z</time>
      </trkpt>
      <trkpt lat="47.83001" lon="6.98092">
        <ele>740</ele>
        <time>2026-05-09T05:00:56.853Z</time>
      </trkpt>
      <trkpt lat="47.83" lon="6.98095">
        <ele>740</ele>
        <time>2026-05-09T05:00:57.852Z</time>
      </trkpt>
      <trkpt lat="47.83" lon="6.98097">
        <ele>741</ele>
        <time>2026-05-09T05:00:58.853Z</time>
      </trkpt>
      <trkpt lat="47.82999" lon="6.98099">
        <ele>741</ele>
        <time>2026-05-09T05:00:59.852Z</time>
      </trkpt>
      <trkpt lat="47.82998" lon="6.981">
        <ele>742</ele>
        <time>2026-05-09T05:01:00.853Z</time>
      </trkpt>
      <trkpt lat="47.82998" lon="6.98102">
        <ele>742</ele>
        <time>2026-05-09T05:01:01.852Z</time>
      </trkpt>
      <trkpt lat="47.82997" lon="6.98104">
        <ele>742</ele>
        <time>2026-05-09T05:01:02.852Z</time>
      </trkpt>
      <trkpt lat="47.82996" lon="6.98105">
        <ele>742</ele>
        <time>2026-05-09T05:01:03.852Z</time>
      </trkpt>
      <trkpt lat="47.82996" lon="6.98107">
        <ele>742</ele>
        <time>2026-05-09T05:01:04.853Z</time>
      </trkpt>
      <trkpt lat="47.82996" lon="6.98109">
        <ele>742</ele>
        <time>2026-05-09T05:01:05.852Z</time>
      </trkpt>
      <trkpt lat="47.82996" lon="6.9811">
        <ele>742</ele>
        <time>2026-05-09T05:01:06.852Z</time>
      </trkpt>
      <trkpt lat="47.82996" lon="6.98111">
        <ele>743</ele>
        <time>2026-05-09T05:01:07.852Z</time>
      </trkpt>
      <trkpt lat="47.82995" lon="6.98113">
        <ele>743</ele>
        <time>2026-05-09T05:01:08.852Z</time>
      </trkpt>
      <trkpt lat="47.82995" lon="6.98114">
        <ele>743</ele>
        <time>2026-05-09T05:01:09.853Z</time>
      </trkpt>
      <trkpt lat="47.82995" lon="6.98117">
        <ele>743</ele>
        <time>2026-05-09T05:01:10.852Z</time>
      </trkpt>
      <trkpt lat="47.82995" lon="6.98119">
        <ele>743</ele>
        <time>2026-05-09T05:01:11.853Z</time>
      </trkpt>
      <trkpt lat="47.82995" lon="6.98121">
        <ele>743</ele>
        <time>2026-05-09T05:01:12.852Z</time>
      </trkpt>
      <trkpt lat="47.82995" lon="6.98123">
        <ele>743</ele>
        <time>2026-05-09T05:01:13.852Z</time>
      </trkpt>
      <trkpt lat="47.82995" lon="6.98124">
        <ele>743</ele>
        <time>2026-05-09T05:01:14.852Z</time>
      </trkpt>
      <trkpt lat="47.82994" lon="6.98126">
        <ele>743</ele>
        <time>2026-05-09T05:01:15.852Z</time>
      </trkpt>
      <trkpt lat="47.82994" lon="6.98127">
        <ele>743</ele>
        <time>2026-05-09T05:01:16.852Z</time>
      </trkpt>
      <trkpt lat="47.82994" lon="6.98128">
        <ele>743</ele>
        <time>2026-05-09T05:01:17.852Z</time>
      </trkpt>
      <trkpt lat="47.82993" lon="6.98129">
        <ele>742</ele>
        <time>2026-05-09T05:01:18.853Z</time>
      </trkpt>
      <trkpt lat="47.82993" lon="6.9813">
        <ele>742</ele>
        <time>2026-05-09T05:01:19.853Z</time>
      </trkpt>
      <trkpt lat="47.82992" lon="6.98132">
        <ele>742</ele>
        <time>2026-05-09T05:01:20.853Z</time>
      </trkpt>
      <trkpt lat="47.82991" lon="6.98135">
        <ele>741</ele>
        <time>2026-05-09T05:01:21.852Z</time>
      </trkpt>
      <trkpt lat="47.82991" lon="6.98137">
        <ele>741</ele>
        <time>2026-05-09T05:01:22.852Z</time>
      </trkpt>
      <trkpt lat="47.82991" lon="6.9814">
        <ele>741</ele>
        <time>2026-05-09T05:01:23.853Z</time>
      </trkpt>
      <trkpt lat="47.82991" lon="6.98142">
        <ele>741</ele>
        <time>2026-05-09T05:01:24.852Z</time>
      </trkpt>
      <trkpt lat="47.82991" lon="6.98142">
        <ele>741</ele>
        <time>2026-05-09T05:01:25.852Z</time>
      </trkpt>
      <trkpt lat="47.82992" lon="6.98143">
        <ele>741</ele>
        <time>2026-05-09T05:01:26.852Z</time>
      </trkpt>
      <trkpt lat="47.82992" lon="6.98144">
        <ele>741</ele>
        <time>2026-05-09T05:01:27.852Z</time>
      </trkpt>
      <trkpt lat="47.82992" lon="6.98144">
        <ele>741</ele>
        <time>2026-05-09T05:01:28.853Z</time>
      </trkpt>
      <trkpt lat="47.82992" lon="6.98144">
        <ele>741</ele>
        <time>2026-05-09T05:01:29.852Z</time>
      </trkpt>
      <trkpt lat="47.82993" lon="6.98145">
        <ele>741</ele>
        <time>2026-05-09T05:01:30.852Z</time>
      </trkpt>
      <trkpt lat="47.82992" lon="6.98146">
        <ele>741</ele>
        <time>2026-05-09T05:01:31.853Z</time>
      </trkpt>
      <trkpt lat="47.82992" lon="6.98149">
        <ele>742</ele>
        <time>2026-05-09T05:01:32.852Z</time>
      </trkpt>
      <trkpt lat="47.82991" lon="6.98151">
        <ele>742</ele>
        <time>2026-05-09T05:01:33.853Z</time>
      </trkpt>
      <trkpt lat="47.82991" lon="6.98152">
        <ele>742</ele>
        <time>2026-05-09T05:01:34.852Z</time>
      </trkpt>
      <trkpt lat="47.82991" lon="6.98152">
        <ele>742</ele>
        <time>2026-05-09T05:01:35.852Z</time>
      </trkpt>
      <trkpt lat="47.82991" lon="6.98153">
        <ele>743</ele>
        <time>2026-05-09T05:01:36.853Z</time>
      </trkpt>
      <trkpt lat="47.82991" lon="6.98155">
        <ele>743</ele>
        <time>2026-05-09T05:01:37.853Z</time>
      </trkpt>
      <trkpt lat="47.8299" lon="6.98156">
        <ele>743</ele>
        <time>2026-05-09T05:01:38.852Z</time>
      </trkpt>
      <trkpt lat="47.82988" lon="6.98158">
        <ele>743</ele>
        <time>2026-05-09T05:01:39.852Z</time>
      </trkpt>
      <trkpt lat="47.82986" lon="6.98159">
        <ele>743</ele>
        <time>2026-05-09T05:01:40.852Z</time>
      </trkpt>
      <trkpt lat="47.82986" lon="6.9816">
        <ele>744</ele>
        <time>2026-05-09T05:01:41.852Z</time>
      </trkpt>
      <trkpt lat="47.82986" lon="6.9816">
        <ele>744</ele>
        <time>2026-05-09T05:01:42.852Z</time>
      </trkpt>
      <trkpt lat="47.82986" lon="6.9816">
        <ele>744</ele>
        <time>2026-05-09T05:01:43.852Z</time>
      </trkpt>
      <trkpt lat="47.82986" lon="6.98161">
        <ele>744</ele>
        <time>2026-05-09T05:01:44.852Z</time>
      </trkpt>
      <trkpt lat="47.82986" lon="6.98162">
        <ele>744</ele>
        <time>2026-05-09T05:01:45.852Z</time>
      </trkpt>
      <trkpt lat="47.82987" lon="6.98162">
        <ele>744</ele>
        <time>2026-05-09T05:01:46.852Z</time>
      </trkpt>
      <trkpt lat="47.82987" lon="6.98164">
        <ele>744</ele>
        <time>2026-05-09T05:01:47.852Z</time>
      </trkpt>
      <trkpt lat="47.82987" lon="6.98166">
        <ele>745</ele>
        <time>2026-05-09T05:01:48.853Z</time>
      </trkpt>
      <trkpt lat="47.82987" lon="6.98166">
        <ele>745</ele>
        <time>2026-05-09T05:01:49.853Z</time>
      </trkpt>
      <trkpt lat="47.8299" lon="6.98168">
        <ele>746</ele>
        <time>2026-05-09T05:01:50.853Z</time>
      </trkpt>
      <trkpt lat="47.82991" lon="6.98171">
        <ele>747</ele>
        <time>2026-05-09T05:01:51.853Z</time>
      </trkpt>
      <trkpt lat="47.82991" lon="6.98173">
        <ele>747</ele>
        <time>2026-05-09T05:01:52.853Z</time>
      </trkpt>
      <trkpt lat="47.8299" lon="6.98175">
        <ele>747</ele>
        <time>2026-05-09T05:01:53.852Z</time>
      </trkpt>
      <trkpt lat="47.8299" lon="6.98175">
        <ele>747</ele>
        <time>2026-05-09T05:01:54.853Z</time>
      </trkpt>
      <trkpt lat="47.8299" lon="6.98177">
        <ele>747</ele>
        <time>2026-05-09T05:01:55.852Z</time>
      </trkpt>
      <trkpt lat="47.82991" lon="6.98179">
        <ele>747</ele>
        <time>2026-05-09T05:01:56.852Z</time>
      </trkpt>
      <trkpt lat="47.82991" lon="6.98181">
        <ele>748</ele>
        <time>2026-05-09T05:01:57.852Z</time>
      </trkpt>
      <trkpt lat="47.82991" lon="6.98184">
        <ele>747</ele>
        <time>2026-05-09T05:01:58.852Z</time>
      </trkpt>
      <trkpt lat="47.82991" lon="6.98186">
        <ele>747</ele>
        <time>2026-05-09T05:01:59.853Z</time>
      </trkpt>
      <trkpt lat="47.82991" lon="6.98188">
        <ele>747</ele>
        <time>2026-05-09T05:02:00.852Z</time>
      </trkpt>
      <trkpt lat="47.82992" lon="6.9819">
        <ele>747</ele>
        <time>2026-05-09T05:02:01.853Z</time>
      </trkpt>
      <trkpt lat="47.82992" lon="6.98192">
        <ele>747</ele>
        <time>2026-05-09T05:02:02.852Z</time>
      </trkpt>
      <trkpt lat="47.82991" lon="6.98194">
        <ele>747</ele>
        <time>2026-05-09T05:02:03.853Z</time>
      </trkpt>
      <trkpt lat="47.82991" lon="6.98197">
        <ele>747</ele>
        <time>2026-05-09T05:02:04.852Z</time>
      </trkpt>
      <trkpt lat="47.82991" lon="6.982">
        <ele>747</ele>
        <time>2026-05-09T05:02:05.852Z</time>
      </trkpt>
      <trkpt lat="47.82991" lon="6.98202">
        <ele>747</ele>
        <time>2026-05-09T05:02:06.853Z</time>
      </trkpt>
      <trkpt lat="47.82991" lon="6.98204">
        <ele>747</ele>
        <time>2026-05-09T05:02:07.853Z</time>
      </trkpt>
      <trkpt lat="47.82993" lon="6.98206">
        <ele>747</ele>
        <time>2026-05-09T05:02:08.853Z</time>
      </trkpt>
      <trkpt lat="47.82994" lon="6.98207">
        <ele>747</ele>
        <time>2026-05-09T05:02:09.852Z</time>
      </trkpt>
      <trkpt lat="47.82994" lon="6.98209">
        <ele>747</ele>
        <time>2026-05-09T05:02:10.852Z</time>
      </trkpt>
      <trkpt lat="47.82995" lon="6.9821">
        <ele>747</ele>
        <time>2026-05-09T05:02:11.853Z</time>
      </trkpt>
      <trkpt lat="47.82994" lon="6.98211">
        <ele>746</ele>
        <time>2026-05-09T05:02:12.853Z</time>
      </trkpt>
      <trkpt lat="47.82994" lon="6.98213">
        <ele>746</ele>
        <time>2026-05-09T05:02:13.852Z</time>
      </trkpt>
      <trkpt lat="47.82994" lon="6.98215">
        <ele>746</ele>
        <time>2026-05-09T05:02:14.853Z</time>
      </trkpt>
      <trkpt lat="47.82994" lon="6.98216">
        <ele>746</ele>
        <time>2026-05-09T05:02:15.852Z</time>
      </trkpt>
      <trkpt lat="47.82995" lon="6.98218">
        <ele>746</ele>
        <time>2026-05-09T05:02:16.852Z</time>
      </trkpt>
      <trkpt lat="47.82995" lon="6.98219">
        <ele>746</ele>
        <time>2026-05-09T05:02:17.852Z</time>
      </trkpt>
      <trkpt lat="47.82996" lon="6.9822">
        <ele>746</ele>
        <time>2026-05-09T05:02:18.853Z</time>
      </trkpt>
      <trkpt lat="47.82997" lon="6.98221">
        <ele>746</ele>
        <time>2026-05-09T05:02:19.852Z</time>
      </trkpt>
      <trkpt lat="47.82998" lon="6.98222">
        <ele>746</ele>
        <time>2026-05-09T05:02:20.852Z</time>
      </trkpt>
      <trkpt lat="47.82998" lon="6.98222">
        <ele>746</ele>
        <time>2026-05-09T05:02:21.852Z</time>
      </trkpt>
      <trkpt lat="47.82998" lon="6.98223">
        <ele>747</ele>
        <time>2026-05-09T05:02:22.853Z</time>
      </trkpt>
      <trkpt lat="47.82999" lon="6.98223">
        <ele>747</ele>
        <time>2026-05-09T05:02:23.852Z</time>
      </trkpt>
      <trkpt lat="47.82999" lon="6.98224">
        <ele>747</ele>
        <time>2026-05-09T05:02:24.852Z</time>
      </trkpt>
      <trkpt lat="47.82999" lon="6.98225">
        <ele>747</ele>
        <time>2026-05-09T05:02:25.852Z</time>
      </trkpt>
      <trkpt lat="47.82999" lon="6.98226">
        <ele>747</ele>
        <time>2026-05-09T05:02:26.852Z</time>
      </trkpt>
      <trkpt lat="47.82999" lon="6.98227">
        <ele>747</ele>
        <time>2026-05-09T05:02:27.852Z</time>
      </trkpt>
      <trkpt lat="47.83" lon="6.98228">
        <ele>748</ele>
        <time>2026-05-09T05:02:28.852Z</time>
      </trkpt>
      <trkpt lat="47.83001" lon="6.98228">
        <ele>748</ele>
        <time>2026-05-09T05:02:29.853Z</time>
      </trkpt>
      <trkpt lat="47.83002" lon="6.98229">
        <ele>748</ele>
        <time>2026-05-09T05:02:30.852Z</time>
      </trkpt>
      <trkpt lat="47.83002" lon="6.9823">
        <ele>748</ele>
        <time>2026-05-09T05:02:31.852Z</time>
      </trkpt>
      <trkpt lat="47.83002" lon="6.9823">
        <ele>748</ele>
        <time>2026-05-09T05:02:32.852Z</time>
      </trkpt>
      <trkpt lat="47.83003" lon="6.98231">
        <ele>748</ele>
        <time>2026-05-09T05:02:33.853Z</time>
      </trkpt>
      <trkpt lat="47.83003" lon="6.98232">
        <ele>748</ele>
        <time>2026-05-09T05:02:34.853Z</time>
      </trkpt>
      <trkpt lat="47.83003" lon="6.98232">
        <ele>748</ele>
        <time>2026-05-09T05:02:35.852Z</time>
      </trkpt>
      <trkpt lat="47.83003" lon="6.98233">
        <ele>748</ele>
        <time>2026-05-09T05:02:36.852Z</time>
      </trkpt>
      <trkpt lat="47.83004" lon="6.98234">
        <ele>748</ele>
        <time>2026-05-09T05:02:37.853Z</time>
      </trkpt>
      <trkpt lat="47.83004" lon="6.98235">
        <ele>749</ele>
        <time>2026-05-09T05:02:38.852Z</time>
      </trkpt>
      <trkpt lat="47.83005" lon="6.98236">
        <ele>749</ele>
        <time>2026-05-09T05:02:39.852Z</time>
      </trkpt>
      <trkpt lat="47.83005" lon="6.98238">
        <ele>748</ele>
        <time>2026-05-09T05:02:40.853Z</time>
      </trkpt>
      <trkpt lat="47.83006" lon="6.98239">
        <ele>748</ele>
        <time>2026-05-09T05:02:41.853Z</time>
      </trkpt>
      <trkpt lat="47.83007" lon="6.98241">
        <ele>748</ele>
        <time>2026-05-09T05:02:42.853Z</time>
      </trkpt>
      <trkpt lat="47.83007" lon="6.98242">
        <ele>748</ele>
        <time>2026-05-09T05:02:43.852Z</time>
      </trkpt>
      <trkpt lat="47.83008" lon="6.98243">
        <ele>748</ele>
        <time>2026-05-09T05:02:44.853Z</time>
      </trkpt>
      <trkpt lat="47.83008" lon="6.98245">
        <ele>748</ele>
        <time>2026-05-09T05:02:45.853Z</time>
      </trkpt>
      <trkpt lat="47.83008" lon="6.98246">
        <ele>748</ele>
        <time>2026-05-09T05:02:46.853Z</time>
      </trkpt>
      <trkpt lat="47.83008" lon="6.98247">
        <ele>748</ele>
        <time>2026-05-09T05:02:47.853Z</time>
      </trkpt>
      <trkpt lat="47.83008" lon="6.98249">
        <ele>748</ele>
        <time>2026-05-09T05:02:48.853Z</time>
      </trkpt>
      <trkpt lat="47.83008" lon="6.9825">
        <ele>748</ele>
        <time>2026-05-09T05:02:49.853Z</time>
      </trkpt>
      <trkpt lat="47.83008" lon="6.98252">
        <ele>748</ele>
        <time>2026-05-09T05:02:50.852Z</time>
      </trkpt>
      <trkpt lat="47.83008" lon="6.98253">
        <ele>748</ele>
        <time>2026-05-09T05:02:51.852Z</time>
      </trkpt>
      <trkpt lat="47.83008" lon="6.98255">
        <ele>748</ele>
        <time>2026-05-09T05:02:52.853Z</time>
      </trkpt>
      <trkpt lat="47.83008" lon="6.98257">
        <ele>748</ele>
        <time>2026-05-09T05:02:53.852Z</time>
      </trkpt>
      <trkpt lat="47.83008" lon="6.98258">
        <ele>748</ele>
        <time>2026-05-09T05:02:54.852Z</time>
      </trkpt>
      <trkpt lat="47.83008" lon="6.9826">
        <ele>749</ele>
        <time>2026-05-09T05:02:55.853Z</time>
      </trkpt>
      <trkpt lat="47.83008" lon="6.98262">
        <ele>749</ele>
        <time>2026-05-09T05:02:56.852Z</time>
      </trkpt>
      <trkpt lat="47.83008" lon="6.98263">
        <ele>749</ele>
        <time>2026-05-09T05:02:57.852Z</time>
      </trkpt>
      <trkpt lat="47.83008" lon="6.98265">
        <ele>749</ele>
        <time>2026-05-09T05:02:58.852Z</time>
      </trkpt>
      <trkpt lat="47.83008" lon="6.98266">
        <ele>750</ele>
        <time>2026-05-09T05:02:59.853Z</time>
      </trkpt>
      <trkpt lat="47.83007" lon="6.98268">
        <ele>750</ele>
        <time>2026-05-09T05:03:00.852Z</time>
      </trkpt>
      <trkpt lat="47.83007" lon="6.98269">
        <ele>751</ele>
        <time>2026-05-09T05:03:01.852Z</time>
      </trkpt>
      <trkpt lat="47.83006" lon="6.98271">
        <ele>751</ele>
        <time>2026-05-09T05:03:02.853Z</time>
      </trkpt>
      <trkpt lat="47.83006" lon="6.98273">
        <ele>752</ele>
        <time>2026-05-09T05:03:03.852Z</time>
      </trkpt>
      <trkpt lat="47.83005" lon="6.98274">
        <ele>752</ele>
        <time>2026-05-09T05:03:04.853Z</time>
      </trkpt>
      <trkpt lat="47.83005" lon="6.98275">
        <ele>752</ele>
        <time>2026-05-09T05:03:05.853Z</time>
      </trkpt>
      <trkpt lat="47.83005" lon="6.98276">
        <ele>753</ele>
        <time>2026-05-09T05:03:06.852Z</time>
      </trkpt>
      <trkpt lat="47.83005" lon="6.98278">
        <ele>753</ele>
        <time>2026-05-09T05:03:07.852Z</time>
      </trkpt>
      <trkpt lat="47.83005" lon="6.98279">
        <ele>753</ele>
        <time>2026-05-09T05:03:08.852Z</time>
      </trkpt>
      <trkpt lat="47.83005" lon="6.98281">
        <ele>752</ele>
        <time>2026-05-09T05:03:09.853Z</time>
      </trkpt>
      <trkpt lat="47.83005" lon="6.98282">
        <ele>752</ele>
        <time>2026-05-09T05:03:10.852Z</time>
      </trkpt>
      <trkpt lat="47.83006" lon="6.98283">
        <ele>752</ele>
        <time>2026-05-09T05:03:11.852Z</time>
      </trkpt>
      <trkpt lat="47.83006" lon="6.98284">
        <ele>752</ele>
        <time>2026-05-09T05:03:12.852Z</time>
      </trkpt>
      <trkpt lat="47.83007" lon="6.98285">
        <ele>751</ele>
        <time>2026-05-09T05:03:13.853Z</time>
      </trkpt>
      <trkpt lat="47.83007" lon="6.98286">
        <ele>751</ele>
        <time>2026-05-09T05:03:14.853Z</time>
      </trkpt>
      <trkpt lat="47.83008" lon="6.98287">
        <ele>751</ele>
        <time>2026-05-09T05:03:15.852Z</time>
      </trkpt>
      <trkpt lat="47.83008" lon="6.98289">
        <ele>752</ele>
        <time>2026-05-09T05:03:16.852Z</time>
      </trkpt>
      <trkpt lat="47.83008" lon="6.9829">
        <ele>752</ele>
        <time>2026-05-09T05:03:17.852Z</time>
      </trkpt>
      <trkpt lat="47.83008" lon="6.98291">
        <ele>752</ele>
        <time>2026-05-09T05:03:18.852Z</time>
      </trkpt>
      <trkpt lat="47.83008" lon="6.98292">
        <ele>752</ele>
        <time>2026-05-09T05:03:19.853Z</time>
      </trkpt>
      <trkpt lat="47.83008" lon="6.98292">
        <ele>752</ele>
        <time>2026-05-09T05:03:20.853Z</time>
      </trkpt>
      <trkpt lat="47.83008" lon="6.98293">
        <ele>753</ele>
        <time>2026-05-09T05:03:21.853Z</time>
      </trkpt>
      <trkpt lat="47.83008" lon="6.98294">
        <ele>753</ele>
        <time>2026-05-09T05:03:22.852Z</time>
      </trkpt>
      <trkpt lat="47.83008" lon="6.98295">
        <ele>753</ele>
        <time>2026-05-09T05:03:23.852Z</time>
      </trkpt>
      <trkpt lat="47.83009" lon="6.98296">
        <ele>754</ele>
        <time>2026-05-09T05:03:24.852Z</time>
      </trkpt>
      <trkpt lat="47.83009" lon="6.98296">
        <ele>754</ele>
        <time>2026-05-09T05:03:25.853Z</time>
      </trkpt>
      <trkpt lat="47.83009" lon="6.98298">
        <ele>754</ele>
        <time>2026-05-09T05:03:26.853Z</time>
      </trkpt>
      <trkpt lat="47.83009" lon="6.98299">
        <ele>754</ele>
        <time>2026-05-09T05:03:27.853Z</time>
      </trkpt>
      <trkpt lat="47.83009" lon="6.983">
        <ele>754</ele>
        <time>2026-05-09T05:03:28.853Z</time>
      </trkpt>
      <trkpt lat="47.83009" lon="6.98302">
        <ele>754</ele>
        <time>2026-05-09T05:03:29.852Z</time>
      </trkpt>
      <trkpt lat="47.83009" lon="6.98303">
        <ele>754</ele>
        <time>2026-05-09T05:03:30.852Z</time>
      </trkpt>
      <trkpt lat="47.83009" lon="6.98305">
        <ele>754</ele>
        <time>2026-05-09T05:03:31.852Z</time>
      </trkpt>
      <trkpt lat="47.8301" lon="6.98306">
        <ele>754</ele>
        <time>2026-05-09T05:03:32.852Z</time>
      </trkpt>
      <trkpt lat="47.8301" lon="6.98306">
        <ele>754</ele>
        <time>2026-05-09T05:03:33.853Z</time>
      </trkpt>
      <trkpt lat="47.8301" lon="6.98306">
        <ele>754</ele>
        <time>2026-05-09T05:03:34.853Z</time>
      </trkpt>
      <trkpt lat="47.8301" lon="6.98307">
        <ele>754</ele>
        <time>2026-05-09T05:03:35.853Z</time>
      </trkpt>
      <trkpt lat="47.8301" lon="6.98309">
        <ele>754</ele>
        <time>2026-05-09T05:03:36.853Z</time>
      </trkpt>
      <trkpt lat="47.8301" lon="6.9831">
        <ele>754</ele>
        <time>2026-05-09T05:03:37.852Z</time>
      </trkpt>
      <trkpt lat="47.8301" lon="6.98311">
        <ele>755</ele>
        <time>2026-05-09T05:03:38.853Z</time>
      </trkpt>
      <trkpt lat="47.83011" lon="6.98312">
        <ele>755</ele>
        <time>2026-05-09T05:03:39.853Z</time>
      </trkpt>
      <trkpt lat="47.83011" lon="6.98314">
        <ele>755</ele>
        <time>2026-05-09T05:03:40.852Z</time>
      </trkpt>
      <trkpt lat="47.83011" lon="6.98315">
        <ele>754</ele>
        <time>2026-05-09T05:03:41.852Z</time>
      </trkpt>
      <trkpt lat="47.83011" lon="6.98317">
        <ele>754</ele>
        <time>2026-05-09T05:03:42.853Z</time>
      </trkpt>
      <trkpt lat="47.83012" lon="6.98319">
        <ele>754</ele>
        <time>2026-05-09T05:03:43.852Z</time>
      </trkpt>
      <trkpt lat="47.83012" lon="6.9832">
        <ele>754</ele>
        <time>2026-05-09T05:03:44.852Z</time>
      </trkpt>
      <trkpt lat="47.83013" lon="6.9832">
        <ele>755</ele>
        <time>2026-05-09T05:03:45.852Z</time>
      </trkpt>
      <trkpt lat="47.83013" lon="6.98322">
        <ele>755</ele>
        <time>2026-05-09T05:03:46.852Z</time>
      </trkpt>
      <trkpt lat="47.83014" lon="6.98323">
        <ele>755</ele>
        <time>2026-05-09T05:03:47.853Z</time>
      </trkpt>
      <trkpt lat="47.83014" lon="6.98325">
        <ele>755</ele>
        <time>2026-05-09T05:03:48.852Z</time>
      </trkpt>
      <trkpt lat="47.83014" lon="6.98326">
        <ele>756</ele>
        <time>2026-05-09T05:03:49.853Z</time>
      </trkpt>
      <trkpt lat="47.83014" lon="6.98327">
        <ele>757</ele>
        <time>2026-05-09T05:03:50.852Z</time>
      </trkpt>
      <trkpt lat="47.83015" lon="6.98328">
        <ele>757</ele>
        <time>2026-05-09T05:03:51.853Z</time>
      </trkpt>
      <trkpt lat="47.83016" lon="6.98329">
        <ele>758</ele>
        <time>2026-05-09T05:03:52.852Z</time>
      </trkpt>
      <trkpt lat="47.83017" lon="6.9833">
        <ele>759</ele>
        <time>2026-05-09T05:03:53.852Z</time>
      </trkpt>
      <trkpt lat="47.83017" lon="6.98331">
        <ele>759</ele>
        <time>2026-05-09T05:03:54.852Z</time>
      </trkpt>
      <trkpt lat="47.83018" lon="6.98332">
        <ele>759</ele>
        <time>2026-05-09T05:03:55.852Z</time>
      </trkpt>
      <trkpt lat="47.83018" lon="6.98332">
        <ele>760</ele>
        <time>2026-05-09T05:03:56.853Z</time>
      </trkpt>
      <trkpt lat="47.83019" lon="6.98332">
        <ele>760</ele>
        <time>2026-05-09T05:03:57.852Z</time>
      </trkpt>
      <trkpt lat="47.8302" lon="6.98332">
        <ele>760</ele>
        <time>2026-05-09T05:03:58.852Z</time>
      </trkpt>
      <trkpt lat="47.8302" lon="6.98332">
        <ele>761</ele>
        <time>2026-05-09T05:03:59.853Z</time>
      </trkpt>
      <trkpt lat="47.8302" lon="6.98332">
        <ele>761</ele>
        <time>2026-05-09T05:04:00.852Z</time>
      </trkpt>
      <trkpt lat="47.83019" lon="6.98332">
        <ele>761</ele>
        <time>2026-05-09T05:04:01.853Z</time>
      </trkpt>
      <trkpt lat="47.8302" lon="6.98331">
        <ele>762</ele>
        <time>2026-05-09T05:04:02.852Z</time>
      </trkpt>
      <trkpt lat="47.83021" lon="6.98331">
        <ele>762</ele>
        <time>2026-05-09T05:04:03.852Z</time>
      </trkpt>
      <trkpt lat="47.83021" lon="6.98331">
        <ele>763</ele>
        <time>2026-05-09T05:04:04.852Z</time>
      </trkpt>
      <trkpt lat="47.83021" lon="6.98331">
        <ele>763</ele>
        <time>2026-05-09T05:04:05.852Z</time>
      </trkpt>
      <trkpt lat="47.83021" lon="6.98332">
        <ele>764</ele>
        <time>2026-05-09T05:04:06.852Z</time>
      </trkpt>
      <trkpt lat="47.83022" lon="6.98334">
        <ele>764</ele>
        <time>2026-05-09T05:04:07.852Z</time>
      </trkpt>
      <trkpt lat="47.83023" lon="6.98335">
        <ele>765</ele>
        <time>2026-05-09T05:04:08.852Z</time>
      </trkpt>
      <trkpt lat="47.83023" lon="6.98335">
        <ele>765</ele>
        <time>2026-05-09T05:04:09.853Z</time>
      </trkpt>
      <trkpt lat="47.83023" lon="6.98337">
        <ele>765</ele>
        <time>2026-05-09T05:04:10.853Z</time>
      </trkpt>
      <trkpt lat="47.83023" lon="6.98337">
        <ele>765</ele>
        <time>2026-05-09T05:04:11.852Z</time>
      </trkpt>
      <trkpt lat="47.83023" lon="6.98337">
        <ele>765</ele>
        <time>2026-05-09T05:04:12.853Z</time>
      </trkpt>
      <trkpt lat="47.83023" lon="6.98338">
        <ele>766</ele>
        <time>2026-05-09T05:04:13.852Z</time>
      </trkpt>
      <trkpt lat="47.83023" lon="6.98338">
        <ele>766</ele>
        <time>2026-05-09T05:04:14.852Z</time>
      </trkpt>
      <trkpt lat="47.83023" lon="6.98339">
        <ele>767</ele>
        <time>2026-05-09T05:04:15.852Z</time>
      </trkpt>
      <trkpt lat="47.83023" lon="6.98339">
        <ele>768</ele>
        <time>2026-05-09T05:04:16.852Z</time>
      </trkpt>
      <trkpt lat="47.83023" lon="6.9834">
        <ele>768</ele>
        <time>2026-05-09T05:04:17.853Z</time>
      </trkpt>
      <trkpt lat="47.83023" lon="6.98341">
        <ele>769</ele>
        <time>2026-05-09T05:04:18.852Z</time>
      </trkpt>
      <trkpt lat="47.83023" lon="6.98342">
        <ele>769</ele>
        <time>2026-05-09T05:04:19.852Z</time>
      </trkpt>
      <trkpt lat="47.83023" lon="6.98343">
        <ele>770</ele>
        <time>2026-05-09T05:04:20.853Z</time>
      </trkpt>
      <trkpt lat="47.83023" lon="6.98344">
        <ele>770</ele>
        <time>2026-05-09T05:04:21.852Z</time>
      </trkpt>
      <trkpt lat="47.83022" lon="6.98346">
        <ele>770</ele>
        <time>2026-05-09T05:04:22.853Z</time>
      </trkpt>
      <trkpt lat="47.83021" lon="6.98347">
        <ele>770</ele>
        <time>2026-05-09T05:04:23.853Z</time>
      </trkpt>
      <trkpt lat="47.83021" lon="6.98349">
        <ele>770</ele>
        <time>2026-05-09T05:04:24.852Z</time>
      </trkpt>
      <trkpt lat="47.83021" lon="6.98351">
        <ele>770</ele>
        <time>2026-05-09T05:04:25.852Z</time>
      </trkpt>
      <trkpt lat="47.83022" lon="6.98352">
        <ele>770</ele>
        <time>2026-05-09T05:04:26.852Z</time>
      </trkpt>
      <trkpt lat="47.83022" lon="6.98354">
        <ele>770</ele>
        <time>2026-05-09T05:04:27.853Z</time>
      </trkpt>
      <trkpt lat="47.83022" lon="6.98355">
        <ele>770</ele>
        <time>2026-05-09T05:04:28.852Z</time>
      </trkpt>
      <trkpt lat="47.83023" lon="6.98357">
        <ele>770</ele>
        <time>2026-05-09T05:04:29.852Z</time>
      </trkpt>
      <trkpt lat="47.83023" lon="6.98358">
        <ele>770</ele>
        <time>2026-05-09T05:04:30.853Z</time>
      </trkpt>
      <trkpt lat="47.83022" lon="6.9836">
        <ele>770</ele>
        <time>2026-05-09T05:04:31.852Z</time>
      </trkpt>
      <trkpt lat="47.83022" lon="6.98361">
        <ele>770</ele>
        <time>2026-05-09T05:04:32.853Z</time>
      </trkpt>
      <trkpt lat="47.83021" lon="6.98363">
        <ele>770</ele>
        <time>2026-05-09T05:04:33.853Z</time>
      </trkpt>
      <trkpt lat="47.83021" lon="6.98364">
        <ele>770</ele>
        <time>2026-05-09T05:04:34.852Z</time>
      </trkpt>
      <trkpt lat="47.83021" lon="6.98365">
        <ele>770</ele>
        <time>2026-05-09T05:04:35.852Z</time>
      </trkpt>
      <trkpt lat="47.8302" lon="6.98366">
        <ele>770</ele>
        <time>2026-05-09T05:04:36.852Z</time>
      </trkpt>
      <trkpt lat="47.8302" lon="6.98368">
        <ele>771</ele>
        <time>2026-05-09T05:04:37.853Z</time>
      </trkpt>
      <trkpt lat="47.83019" lon="6.98369">
        <ele>771</ele>
        <time>2026-05-09T05:04:38.852Z</time>
      </trkpt>
      <trkpt lat="47.83019" lon="6.9837">
        <ele>771</ele>
        <time>2026-05-09T05:04:39.853Z</time>
      </trkpt>
      <trkpt lat="47.83019" lon="6.98371">
        <ele>771</ele>
        <time>2026-05-09T05:04:40.852Z</time>
      </trkpt>
      <trkpt lat="47.83019" lon="6.98372">
        <ele>771</ele>
        <time>2026-05-09T05:04:41.852Z</time>
      </trkpt>
      <trkpt lat="47.83019" lon="6.98373">
        <ele>771</ele>
        <time>2026-05-09T05:04:42.853Z</time>
      </trkpt>
      <trkpt lat="47.83019" lon="6.98373">
        <ele>770</ele>
        <time>2026-05-09T05:04:43.852Z</time>
      </trkpt>
      <trkpt lat="47.8302" lon="6.98374">
        <ele>771</ele>
        <time>2026-05-09T05:04:44.852Z</time>
      </trkpt>
      <trkpt lat="47.8302" lon="6.98375">
        <ele>771</ele>
        <time>2026-05-09T05:04:45.852Z</time>
      </trkpt>
      <trkpt lat="47.83021" lon="6.98376">
        <ele>771</ele>
        <time>2026-05-09T05:04:46.852Z</time>
      </trkpt>
      <trkpt lat="47.83021" lon="6.98377">
        <ele>771</ele>
        <time>2026-05-09T05:04:47.853Z</time>
      </trkpt>
      <trkpt lat="47.83022" lon="6.98379">
        <ele>772</ele>
        <time>2026-05-09T05:04:48.853Z</time>
      </trkpt>
      <trkpt lat="47.83022" lon="6.9838">
        <ele>772</ele>
        <time>2026-05-09T05:04:49.852Z</time>
      </trkpt>
      <trkpt lat="47.83023" lon="6.98382">
        <ele>772</ele>
        <time>2026-05-09T05:04:50.852Z</time>
      </trkpt>
      <trkpt lat="47.83023" lon="6.98384">
        <ele>772</ele>
        <time>2026-05-09T05:04:51.852Z</time>
      </trkpt>
      <trkpt lat="47.83023" lon="6.98384">
        <ele>772</ele>
        <time>2026-05-09T05:04:52.853Z</time>
      </trkpt>
      <trkpt lat="47.83023" lon="6.98386">
        <ele>772</ele>
        <time>2026-05-09T05:04:53.852Z</time>
      </trkpt>
      <trkpt lat="47.83024" lon="6.98388">
        <ele>772</ele>
        <time>2026-05-09T05:04:54.852Z</time>
      </trkpt>
      <trkpt lat="47.83026" lon="6.9839">
        <ele>773</ele>
        <time>2026-05-09T05:04:55.852Z</time>
      </trkpt>
      <trkpt lat="47.83026" lon="6.98393">
        <ele>773</ele>
        <time>2026-05-09T05:04:56.853Z</time>
      </trkpt>
      <trkpt lat="47.83028" lon="6.98395">
        <ele>773</ele>
        <time>2026-05-09T05:04:57.852Z</time>
      </trkpt>
      <trkpt lat="47.83028" lon="6.98397">
        <ele>773</ele>
        <time>2026-05-09T05:04:58.852Z</time>
      </trkpt>
      <trkpt lat="47.83029" lon="6.98399">
        <ele>773</ele>
        <time>2026-05-09T05:04:59.853Z</time>
      </trkpt>
      <trkpt lat="47.8303" lon="6.98401">
        <ele>773</ele>
        <time>2026-05-09T05:05:00.852Z</time>
      </trkpt>
      <trkpt lat="47.83031" lon="6.98403">
        <ele>773</ele>
        <time>2026-05-09T05:05:01.853Z</time>
      </trkpt>
      <trkpt lat="47.83031" lon="6.98405">
        <ele>773</ele>
        <time>2026-05-09T05:05:02.852Z</time>
      </trkpt>
      <trkpt lat="47.83032" lon="6.98406">
        <ele>773</ele>
        <time>2026-05-09T05:05:03.852Z</time>
      </trkpt>
      <trkpt lat="47.83032" lon="6.98407">
        <ele>773</ele>
        <time>2026-05-09T05:05:04.852Z</time>
      </trkpt>
      <trkpt lat="47.83032" lon="6.98407">
        <ele>773</ele>
        <time>2026-05-09T05:05:05.852Z</time>
      </trkpt>
      <trkpt lat="47.83033" lon="6.98408">
        <ele>773</ele>
        <time>2026-05-09T05:05:06.853Z</time>
      </trkpt>
      <trkpt lat="47.83033" lon="6.98409">
        <ele>773</ele>
        <time>2026-05-09T05:05:07.852Z</time>
      </trkpt>
      <trkpt lat="47.83033" lon="6.98409">
        <ele>773</ele>
        <time>2026-05-09T05:05:08.852Z</time>
      </trkpt>
      <trkpt lat="47.83033" lon="6.98409">
        <ele>772</ele>
        <time>2026-05-09T05:05:09.852Z</time>
      </trkpt>
      <trkpt lat="47.83034" lon="6.98411">
        <ele>773</ele>
        <time>2026-05-09T05:05:10.852Z</time>
      </trkpt>
      <trkpt lat="47.83034" lon="6.98412">
        <ele>773</ele>
        <time>2026-05-09T05:05:11.853Z</time>
      </trkpt>
      <trkpt lat="47.83035" lon="6.98413">
        <ele>773</ele>
        <time>2026-05-09T05:05:12.852Z</time>
      </trkpt>
      <trkpt lat="47.83035" lon="6.98414">
        <ele>773</ele>
        <time>2026-05-09T05:05:13.852Z</time>
      </trkpt>
      <trkpt lat="47.83035" lon="6.98415">
        <ele>773</ele>
        <time>2026-05-09T05:05:14.852Z</time>
      </trkpt>
      <trkpt lat="47.83036" lon="6.98417">
        <ele>773</ele>
        <time>2026-05-09T05:05:15.853Z</time>
      </trkpt>
      <trkpt lat="47.83036" lon="6.98419">
        <ele>774</ele>
        <time>2026-05-09T05:05:16.853Z</time>
      </trkpt>
      <trkpt lat="47.83037" lon="6.98421">
        <ele>774</ele>
        <time>2026-05-09T05:05:17.853Z</time>
      </trkpt>
      <trkpt lat="47.83037" lon="6.98423">
        <ele>774</ele>
        <time>2026-05-09T05:05:18.852Z</time>
      </trkpt>
      <trkpt lat="47.83037" lon="6.98424">
        <ele>774</ele>
        <time>2026-05-09T05:05:19.852Z</time>
      </trkpt>
      <trkpt lat="47.83038" lon="6.98427">
        <ele>775</ele>
        <time>2026-05-09T05:05:20.852Z</time>
      </trkpt>
      <trkpt lat="47.83037" lon="6.98428">
        <ele>775</ele>
        <time>2026-05-09T05:05:21.853Z</time>
      </trkpt>
      <trkpt lat="47.83037" lon="6.98428">
        <ele>775</ele>
        <time>2026-05-09T05:05:22.852Z</time>
      </trkpt>
      <trkpt lat="47.83037" lon="6.98429">
        <ele>775</ele>
        <time>2026-05-09T05:05:23.853Z</time>
      </trkpt>
      <trkpt lat="47.83037" lon="6.9843">
        <ele>775</ele>
        <time>2026-05-09T05:05:24.853Z</time>
      </trkpt>
      <trkpt lat="47.83038" lon="6.98432">
        <ele>776</ele>
        <time>2026-05-09T05:05:25.853Z</time>
      </trkpt>
      <trkpt lat="47.83038" lon="6.98433">
        <ele>776</ele>
        <time>2026-05-09T05:05:26.852Z</time>
      </trkpt>
      <trkpt lat="47.8304" lon="6.98434">
        <ele>777</ele>
        <time>2026-05-09T05:05:27.852Z</time>
      </trkpt>
      <trkpt lat="47.83041" lon="6.98435">
        <ele>777</ele>
        <time>2026-05-09T05:05:28.853Z</time>
      </trkpt>
      <trkpt lat="47.83041" lon="6.98435">
        <ele>778</ele>
        <time>2026-05-09T05:05:29.853Z</time>
      </trkpt>
      <trkpt lat="47.83041" lon="6.98436">
        <ele>779</ele>
        <time>2026-05-09T05:05:30.852Z</time>
      </trkpt>
      <trkpt lat="47.83042" lon="6.98437">
        <ele>779</ele>
        <time>2026-05-09T05:05:31.852Z</time>
      </trkpt>
      <trkpt lat="47.83042" lon="6.98438">
        <ele>780</ele>
        <time>2026-05-09T05:05:32.853Z</time>
      </trkpt>
      <trkpt lat="47.83042" lon="6.9844">
        <ele>780</ele>
        <time>2026-05-09T05:05:33.852Z</time>
      </trkpt>
      <trkpt lat="47.83043" lon="6.98441">
        <ele>781</ele>
        <time>2026-05-09T05:05:34.853Z</time>
      </trkpt>
      <trkpt lat="47.83043" lon="6.98443">
        <ele>780</ele>
        <time>2026-05-09T05:05:35.853Z</time>
      </trkpt>
      <trkpt lat="47.83044" lon="6.98445">
        <ele>780</ele>
        <time>2026-05-09T05:05:36.852Z</time>
      </trkpt>
      <trkpt lat="47.83043" lon="6.98447">
        <ele>780</ele>
        <time>2026-05-09T05:05:37.853Z</time>
      </trkpt>
      <trkpt lat="47.83044" lon="6.98449">
        <ele>780</ele>
        <time>2026-05-09T05:05:38.853Z</time>
      </trkpt>
      <trkpt lat="47.83044" lon="6.98451">
        <ele>780</ele>
        <time>2026-05-09T05:05:39.853Z</time>
      </trkpt>
      <trkpt lat="47.83044" lon="6.98452">
        <ele>780</ele>
        <time>2026-05-09T05:05:40.853Z</time>
      </trkpt>
      <trkpt lat="47.83043" lon="6.98452">
        <ele>780</ele>
        <time>2026-05-09T05:05:41.852Z</time>
      </trkpt>
      <trkpt lat="47.83045" lon="6.98455">
        <ele>781</ele>
        <time>2026-05-09T05:05:42.853Z</time>
      </trkpt>
      <trkpt lat="47.83045" lon="6.98455">
        <ele>781</ele>
        <time>2026-05-09T05:05:43.853Z</time>
      </trkpt>
      <trkpt lat="47.83045" lon="6.98455">
        <ele>782</ele>
        <time>2026-05-09T05:05:44.853Z</time>
      </trkpt>
      <trkpt lat="47.83046" lon="6.98457">
        <ele>782</ele>
        <time>2026-05-09T05:05:45.852Z</time>
      </trkpt>
      <trkpt lat="47.83047" lon="6.98458">
        <ele>782</ele>
        <time>2026-05-09T05:05:46.852Z</time>
      </trkpt>
      <trkpt lat="47.8305" lon="6.98461">
        <ele>787</ele>
        <time>2026-05-09T05:05:53.233Z</time>
      </trkpt>
      <trkpt lat="47.83051" lon="6.9846">
        <ele>787</ele>
        <time>2026-05-09T05:05:54.234Z</time>
      </trkpt>
      <trkpt lat="47.83052" lon="6.9846">
        <ele>788</ele>
        <time>2026-05-09T05:05:55.234Z</time>
      </trkpt>
      <trkpt lat="47.83053" lon="6.98459">
        <ele>788</ele>
        <time>2026-05-09T05:05:56.234Z</time>
      </trkpt>
      <trkpt lat="47.83053" lon="6.98459">
        <ele>788</ele>
        <time>2026-05-09T05:05:57.233Z</time>
      </trkpt>
      <trkpt lat="47.83053" lon="6.98459">
        <ele>788</ele>
        <time>2026-05-09T05:05:58.234Z</time>
      </trkpt>
      <trkpt lat="47.83054" lon="6.98458">
        <ele>788</ele>
        <time>2026-05-09T05:05:59.234Z</time>
      </trkpt>
      <trkpt lat="47.83054" lon="6.98457">
        <ele>788</ele>
        <time>2026-05-09T05:06:00.233Z</time>
      </trkpt>
      <trkpt lat="47.83055" lon="6.98456">
        <ele>788</ele>
        <time>2026-05-09T05:06:01.233Z</time>
      </trkpt>
      <trkpt lat="47.83055" lon="6.98454">
        <ele>788</ele>
        <time>2026-05-09T05:06:02.233Z</time>
      </trkpt>
      <trkpt lat="47.83055" lon="6.98452">
        <ele>788</ele>
        <time>2026-05-09T05:06:03.233Z</time>
      </trkpt>
      <trkpt lat="47.83056" lon="6.98451">
        <ele>787</ele>
        <time>2026-05-09T05:06:04.234Z</time>
      </trkpt>
      <trkpt lat="47.83055" lon="6.9845">
        <ele>787</ele>
        <time>2026-05-09T05:06:05.234Z</time>
      </trkpt>
      <trkpt lat="47.83055" lon="6.98448">
        <ele>787</ele>
        <time>2026-05-09T05:06:06.234Z</time>
      </trkpt>
      <trkpt lat="47.83056" lon="6.98447">
        <ele>787</ele>
        <time>2026-05-09T05:06:07.234Z</time>
      </trkpt>
      <trkpt lat="47.83056" lon="6.98445">
        <ele>787</ele>
        <time>2026-05-09T05:06:08.234Z</time>
      </trkpt>
      <trkpt lat="47.83057" lon="6.98443">
        <ele>787</ele>
        <time>2026-05-09T05:06:09.233Z</time>
      </trkpt>
      <trkpt lat="47.83057" lon="6.98442">
        <ele>787</ele>
        <time>2026-05-09T05:06:10.234Z</time>
      </trkpt>
      <trkpt lat="47.83058" lon="6.98441">
        <ele>787</ele>
        <time>2026-05-09T05:06:11.234Z</time>
      </trkpt>
      <trkpt lat="47.83058" lon="6.98439">
        <ele>787</ele>
        <time>2026-05-09T05:06:12.233Z</time>
      </trkpt>
      <trkpt lat="47.83059" lon="6.98439">
        <ele>788</ele>
        <time>2026-05-09T05:06:13.234Z</time>
      </trkpt>
      <trkpt lat="47.83059" lon="6.98437">
        <ele>788</ele>
        <time>2026-05-09T05:06:14.233Z</time>
      </trkpt>
      <trkpt lat="47.8306" lon="6.98436">
        <ele>788</ele>
        <time>2026-05-09T05:06:15.234Z</time>
      </trkpt>
      <trkpt lat="47.83061" lon="6.98435">
        <ele>788</ele>
        <time>2026-05-09T05:06:16.233Z</time>
      </trkpt>
      <trkpt lat="47.83062" lon="6.98435">
        <ele>788</ele>
        <time>2026-05-09T05:06:17.233Z</time>
      </trkpt>
      <trkpt lat="47.83062" lon="6.98434">
        <ele>788</ele>
        <time>2026-05-09T05:06:18.233Z</time>
      </trkpt>
      <trkpt lat="47.83063" lon="6.98433">
        <ele>788</ele>
        <time>2026-05-09T05:06:19.234Z</time>
      </trkpt>
      <trkpt lat="47.83064" lon="6.98432">
        <ele>788</ele>
        <time>2026-05-09T05:06:20.234Z</time>
      </trkpt>
      <trkpt lat="47.83065" lon="6.98432">
        <ele>788</ele>
        <time>2026-05-09T05:06:21.234Z</time>
      </trkpt>
      <trkpt lat="47.83065" lon="6.98431">
        <ele>789</ele>
        <time>2026-05-09T05:06:22.234Z</time>
      </trkpt>
      <trkpt lat="47.83065" lon="6.9843">
        <ele>789</ele>
        <time>2026-05-09T05:06:23.233Z</time>
      </trkpt>
      <trkpt lat="47.83065" lon="6.98429">
        <ele>789</ele>
        <time>2026-05-09T05:06:24.234Z</time>
      </trkpt>
      <trkpt lat="47.83065" lon="6.98427">
        <ele>789</ele>
        <time>2026-05-09T05:06:25.233Z</time>
      </trkpt>
      <trkpt lat="47.83066" lon="6.98428">
        <ele>790</ele>
        <time>2026-05-09T05:06:26.233Z</time>
      </trkpt>
      <trkpt lat="47.83067" lon="6.9843">
        <ele>790</ele>
        <time>2026-05-09T05:06:27.234Z</time>
      </trkpt>
      <trkpt lat="47.83067" lon="6.98431">
        <ele>790</ele>
        <time>2026-05-09T05:06:28.233Z</time>
      </trkpt>
      <trkpt lat="47.83067" lon="6.98431">
        <ele>791</ele>
        <time>2026-05-09T05:06:29.233Z</time>
      </trkpt>
      <trkpt lat="47.83067" lon="6.98431">
        <ele>791</ele>
        <time>2026-05-09T05:06:30.233Z</time>
      </trkpt>
      <trkpt lat="47.83068" lon="6.98431">
        <ele>791</ele>
        <time>2026-05-09T05:06:31.233Z</time>
      </trkpt>
      <trkpt lat="47.83068" lon="6.98432">
        <ele>791</ele>
        <time>2026-05-09T05:06:32.234Z</time>
      </trkpt>
      <trkpt lat="47.83068" lon="6.98433">
        <ele>791</ele>
        <time>2026-05-09T05:06:33.234Z</time>
      </trkpt>
      <trkpt lat="47.83068" lon="6.98433">
        <ele>791</ele>
        <time>2026-05-09T05:06:34.233Z</time>
      </trkpt>
      <trkpt lat="47.83068" lon="6.98433">
        <ele>791</ele>
        <time>2026-05-09T05:06:35.233Z</time>
      </trkpt>
      <trkpt lat="47.83077" lon="6.98437">
        <ele>792</ele>
        <time>2026-05-09T05:12:53.067Z</time>
      </trkpt>
      <trkpt lat="47.83077" lon="6.98436">
        <ele>793</ele>
        <time>2026-05-09T05:12:54.066Z</time>
      </trkpt>
      <trkpt lat="47.83078" lon="6.98435">
        <ele>793</ele>
        <time>2026-05-09T05:12:55.066Z</time>
      </trkpt>
      <trkpt lat="47.83079" lon="6.98434">
        <ele>794</ele>
        <time>2026-05-09T05:12:56.066Z</time>
      </trkpt>
      <trkpt lat="47.83079" lon="6.98433">
        <ele>794</ele>
        <time>2026-05-09T05:12:57.066Z</time>
      </trkpt>
      <trkpt lat="47.83079" lon="6.98432">
        <ele>794</ele>
        <time>2026-05-09T05:12:58.066Z</time>
      </trkpt>
      <trkpt lat="47.83079" lon="6.9843">
        <ele>794</ele>
        <time>2026-05-09T05:12:59.066Z</time>
      </trkpt>
      <trkpt lat="47.83079" lon="6.98429">
        <ele>795</ele>
        <time>2026-05-09T05:13:00.066Z</time>
      </trkpt>
      <trkpt lat="47.8308" lon="6.98427">
        <ele>795</ele>
        <time>2026-05-09T05:13:01.066Z</time>
      </trkpt>
      <trkpt lat="47.8308" lon="6.98426">
        <ele>795</ele>
        <time>2026-05-09T05:13:02.066Z</time>
      </trkpt>
      <trkpt lat="47.83081" lon="6.98425">
        <ele>795</ele>
        <time>2026-05-09T05:13:03.067Z</time>
      </trkpt>
      <trkpt lat="47.83081" lon="6.98422">
        <ele>795</ele>
        <time>2026-05-09T05:13:04.066Z</time>
      </trkpt>
      <trkpt lat="47.83081" lon="6.9842">
        <ele>795</ele>
        <time>2026-05-09T05:13:05.066Z</time>
      </trkpt>
      <trkpt lat="47.83082" lon="6.98417">
        <ele>796</ele>
        <time>2026-05-09T05:13:06.066Z</time>
      </trkpt>
      <trkpt lat="47.83082" lon="6.98415">
        <ele>796</ele>
        <time>2026-05-09T05:13:07.066Z</time>
      </trkpt>
      <trkpt lat="47.83083" lon="6.98413">
        <ele>795</ele>
        <time>2026-05-09T05:13:08.066Z</time>
      </trkpt>
      <trkpt lat="47.83083" lon="6.98411">
        <ele>795</ele>
        <time>2026-05-09T05:13:09.066Z</time>
      </trkpt>
      <trkpt lat="47.83084" lon="6.98409">
        <ele>795</ele>
        <time>2026-05-09T05:13:10.066Z</time>
      </trkpt>
      <trkpt lat="47.83083" lon="6.98408">
        <ele>795</ele>
        <time>2026-05-09T05:13:11.067Z</time>
      </trkpt>
      <trkpt lat="47.83082" lon="6.98405">
        <ele>796</ele>
        <time>2026-05-09T05:13:12.066Z</time>
      </trkpt>
      <trkpt lat="47.83083" lon="6.98402">
        <ele>796</ele>
        <time>2026-05-09T05:13:13.066Z</time>
      </trkpt>
      <trkpt lat="47.83084" lon="6.98401">
        <ele>796</ele>
        <time>2026-05-09T05:13:14.066Z</time>
      </trkpt>
      <trkpt lat="47.83084" lon="6.984">
        <ele>797</ele>
        <time>2026-05-09T05:13:15.067Z</time>
      </trkpt>
      <trkpt lat="47.83084" lon="6.98399">
        <ele>797</ele>
        <time>2026-05-09T05:13:16.066Z</time>
      </trkpt>
      <trkpt lat="47.83083" lon="6.98398">
        <ele>797</ele>
        <time>2026-05-09T05:13:17.066Z</time>
      </trkpt>
      <trkpt lat="47.83083" lon="6.98397">
        <ele>797</ele>
        <time>2026-05-09T05:13:18.067Z</time>
      </trkpt>
      <trkpt lat="47.83084" lon="6.98395">
        <ele>797</ele>
        <time>2026-05-09T05:13:19.066Z</time>
      </trkpt>
      <trkpt lat="47.83084" lon="6.98393">
        <ele>797</ele>
        <time>2026-05-09T05:13:20.066Z</time>
      </trkpt>
      <trkpt lat="47.83083" lon="6.98391">
        <ele>798</ele>
        <time>2026-05-09T05:13:21.066Z</time>
      </trkpt>
      <trkpt lat="47.83083" lon="6.9839">
        <ele>798</ele>
        <time>2026-05-09T05:13:22.067Z</time>
      </trkpt>
      <trkpt lat="47.83084" lon="6.98389">
        <ele>798</ele>
        <time>2026-05-09T05:13:23.066Z</time>
      </trkpt>
      <trkpt lat="47.83084" lon="6.98387">
        <ele>798</ele>
        <time>2026-05-09T05:13:24.066Z</time>
      </trkpt>
      <trkpt lat="47.83084" lon="6.98386">
        <ele>799</ele>
        <time>2026-05-09T05:13:25.066Z</time>
      </trkpt>
      <trkpt lat="47.83084" lon="6.98385">
        <ele>799</ele>
        <time>2026-05-09T05:13:26.066Z</time>
      </trkpt>
      <trkpt lat="47.83084" lon="6.98383">
        <ele>799</ele>
        <time>2026-05-09T05:13:27.066Z</time>
      </trkpt>
      <trkpt lat="47.83083" lon="6.98381">
        <ele>799</ele>
        <time>2026-05-09T05:13:28.066Z</time>
      </trkpt>
      <trkpt lat="47.83083" lon="6.98379">
        <ele>799</ele>
        <time>2026-05-09T05:13:29.066Z</time>
      </trkpt>
      <trkpt lat="47.83082" lon="6.98377">
        <ele>799</ele>
        <time>2026-05-09T05:13:30.066Z</time>
      </trkpt>
      <trkpt lat="47.83081" lon="6.98376">
        <ele>799</ele>
        <time>2026-05-09T05:13:31.066Z</time>
      </trkpt>
      <trkpt lat="47.83081" lon="6.98375">
        <ele>799</ele>
        <time>2026-05-09T05:13:32.067Z</time>
      </trkpt>
      <trkpt lat="47.83081" lon="6.98375">
        <ele>799</ele>
        <time>2026-05-09T05:13:33.067Z</time>
      </trkpt>
      <trkpt lat="47.83081" lon="6.98374">
        <ele>798</ele>
        <time>2026-05-09T05:13:34.066Z</time>
      </trkpt>
      <trkpt lat="47.8308" lon="6.98372">
        <ele>798</ele>
        <time>2026-05-09T05:13:35.067Z</time>
      </trkpt>
      <trkpt lat="47.8308" lon="6.98371">
        <ele>798</ele>
        <time>2026-05-09T05:13:36.067Z</time>
      </trkpt>
      <trkpt lat="47.83079" lon="6.9837">
        <ele>798</ele>
        <time>2026-05-09T05:13:37.067Z</time>
      </trkpt>
      <trkpt lat="47.83078" lon="6.98368">
        <ele>798</ele>
        <time>2026-05-09T05:13:38.067Z</time>
      </trkpt>
      <trkpt lat="47.83077" lon="6.98366">
        <ele>797</ele>
        <time>2026-05-09T05:13:39.066Z</time>
      </trkpt>
      <trkpt lat="47.83076" lon="6.98365">
        <ele>797</ele>
        <time>2026-05-09T05:13:40.067Z</time>
      </trkpt>
      <trkpt lat="47.83075" lon="6.98364">
        <ele>796</ele>
        <time>2026-05-09T05:13:41.066Z</time>
      </trkpt>
      <trkpt lat="47.83075" lon="6.98362">
        <ele>796</ele>
        <time>2026-05-09T05:13:42.067Z</time>
      </trkpt>
      <trkpt lat="47.83074" lon="6.98361">
        <ele>795</ele>
        <time>2026-05-09T05:13:43.067Z</time>
      </trkpt>
      <trkpt lat="47.83073" lon="6.9836">
        <ele>795</ele>
        <time>2026-05-09T05:13:44.066Z</time>
      </trkpt>
      <trkpt lat="47.83071" lon="6.9836">
        <ele>795</ele>
        <time>2026-05-09T05:13:45.067Z</time>
      </trkpt>
      <trkpt lat="47.8307" lon="6.9836">
        <ele>794</ele>
        <time>2026-05-09T05:13:46.067Z</time>
      </trkpt>
      <trkpt lat="47.83069" lon="6.98359">
        <ele>794</ele>
        <time>2026-05-09T05:13:47.067Z</time>
      </trkpt>
      <trkpt lat="47.83068" lon="6.98358">
        <ele>794</ele>
        <time>2026-05-09T05:13:48.067Z</time>
      </trkpt>
      <trkpt lat="47.83069" lon="6.98357">
        <ele>794</ele>
        <time>2026-05-09T05:13:49.066Z</time>
      </trkpt>
      <trkpt lat="47.83069" lon="6.98355">
        <ele>794</ele>
        <time>2026-05-09T05:13:50.066Z</time>
      </trkpt>
      <trkpt lat="47.83069" lon="6.98354">
        <ele>793</ele>
        <time>2026-05-09T05:13:51.066Z</time>
      </trkpt>
      <trkpt lat="47.83068" lon="6.98353">
        <ele>793</ele>
        <time>2026-05-09T05:13:52.066Z</time>
      </trkpt>
      <trkpt lat="47.83068" lon="6.98352">
        <ele>793</ele>
        <time>2026-05-09T05:13:53.066Z</time>
      </trkpt>
      <trkpt lat="47.83067" lon="6.98351">
        <ele>793</ele>
        <time>2026-05-09T05:13:54.066Z</time>
      </trkpt>
      <trkpt lat="47.83067" lon="6.98349">
        <ele>793</ele>
        <time>2026-05-09T05:13:55.066Z</time>
      </trkpt>
      <trkpt lat="47.83067" lon="6.98348">
        <ele>793</ele>
        <time>2026-05-09T05:13:56.066Z</time>
      </trkpt>
      <trkpt lat="47.83067" lon="6.98346">
        <ele>793</ele>
        <time>2026-05-09T05:13:57.067Z</time>
      </trkpt>
      <trkpt lat="47.83067" lon="6.98344">
        <ele>793</ele>
        <time>2026-05-09T05:13:58.066Z</time>
      </trkpt>
      <trkpt lat="47.83066" lon="6.98342">
        <ele>793</ele>
        <time>2026-05-09T05:13:59.066Z</time>
      </trkpt>
      <trkpt lat="47.83066" lon="6.98341">
        <ele>793</ele>
        <time>2026-05-09T05:14:00.066Z</time>
      </trkpt>
      <trkpt lat="47.83065" lon="6.98339">
        <ele>792</ele>
        <time>2026-05-09T05:14:01.066Z</time>
      </trkpt>
      <trkpt lat="47.83065" lon="6.98337">
        <ele>792</ele>
        <time>2026-05-09T05:14:02.066Z</time>
      </trkpt>
      <trkpt lat="47.83066" lon="6.98335">
        <ele>792</ele>
        <time>2026-05-09T05:14:03.066Z</time>
      </trkpt>
      <trkpt lat="47.83066" lon="6.98334">
        <ele>792</ele>
        <time>2026-05-09T05:14:04.066Z</time>
      </trkpt>
      <trkpt lat="47.83067" lon="6.98332">
        <ele>792</ele>
        <time>2026-05-09T05:14:05.066Z</time>
      </trkpt>
      <trkpt lat="47.83067" lon="6.9833">
        <ele>792</ele>
        <time>2026-05-09T05:14:06.066Z</time>
      </trkpt>
      <trkpt lat="47.83067" lon="6.98328">
        <ele>792</ele>
        <time>2026-05-09T05:14:07.067Z</time>
      </trkpt>
      <trkpt lat="47.83068" lon="6.98326">
        <ele>792</ele>
        <time>2026-05-09T05:14:08.066Z</time>
      </trkpt>
      <trkpt lat="47.83068" lon="6.98325">
        <ele>791</ele>
        <time>2026-05-09T05:14:09.066Z</time>
      </trkpt>
      <trkpt lat="47.83068" lon="6.98323">
        <ele>791</ele>
        <time>2026-05-09T05:14:10.066Z</time>
      </trkpt>
      <trkpt lat="47.83068" lon="6.98321">
        <ele>791</ele>
        <time>2026-05-09T05:14:11.066Z</time>
      </trkpt>
      <trkpt lat="47.83068" lon="6.98319">
        <ele>791</ele>
        <time>2026-05-09T05:14:12.066Z</time>
      </trkpt>
      <trkpt lat="47.83068" lon="6.98318">
        <ele>792</ele>
        <time>2026-05-09T05:14:13.066Z</time>
      </trkpt>
      <trkpt lat="47.83067" lon="6.98317">
        <ele>791</ele>
        <time>2026-05-09T05:14:14.066Z</time>
      </trkpt>
      <trkpt lat="47.83066" lon="6.98315">
        <ele>791</ele>
        <time>2026-05-09T05:14:15.066Z</time>
      </trkpt>
      <trkpt lat="47.83066" lon="6.98314">
        <ele>791</ele>
        <time>2026-05-09T05:14:16.066Z</time>
      </trkpt>
      <trkpt lat="47.83066" lon="6.98312">
        <ele>791</ele>
        <time>2026-05-09T05:14:17.066Z</time>
      </trkpt>
      <trkpt lat="47.83065" lon="6.9831">
        <ele>791</ele>
        <time>2026-05-09T05:14:18.066Z</time>
      </trkpt>
      <trkpt lat="47.83065" lon="6.98307">
        <ele>792</ele>
        <time>2026-05-09T05:14:19.066Z</time>
      </trkpt>
      <trkpt lat="47.83067" lon="6.98304">
        <ele>792</ele>
        <time>2026-05-09T05:14:20.066Z</time>
      </trkpt>
      <trkpt lat="47.83068" lon="6.98302">
        <ele>792</ele>
        <time>2026-05-09T05:14:21.066Z</time>
      </trkpt>
      <trkpt lat="47.83068" lon="6.983">
        <ele>792</ele>
        <time>2026-05-09T05:14:22.066Z</time>
      </trkpt>
      <trkpt lat="47.83069" lon="6.98299">
        <ele>792</ele>
        <time>2026-05-09T05:14:23.067Z</time>
      </trkpt>
      <trkpt lat="47.83068" lon="6.98297">
        <ele>793</ele>
        <time>2026-05-09T05:14:24.066Z</time>
      </trkpt>
      <trkpt lat="47.83069" lon="6.98295">
        <ele>793</ele>
        <time>2026-05-09T05:14:25.066Z</time>
      </trkpt>
      <trkpt lat="47.8307" lon="6.98293">
        <ele>793</ele>
        <time>2026-05-09T05:14:26.066Z</time>
      </trkpt>
      <trkpt lat="47.83071" lon="6.9829">
        <ele>793</ele>
        <time>2026-05-09T05:14:27.066Z</time>
      </trkpt>
      <trkpt lat="47.83072" lon="6.98289">
        <ele>793</ele>
        <time>2026-05-09T05:14:28.066Z</time>
      </trkpt>
      <trkpt lat="47.83072" lon="6.98286">
        <ele>793</ele>
        <time>2026-05-09T05:14:29.066Z</time>
      </trkpt>
      <trkpt lat="47.83072" lon="6.98284">
        <ele>794</ele>
        <time>2026-05-09T05:14:30.066Z</time>
      </trkpt>
      <trkpt lat="47.83073" lon="6.98282">
        <ele>795</ele>
        <time>2026-05-09T05:14:31.066Z</time>
      </trkpt>
      <trkpt lat="47.83073" lon="6.98279">
        <ele>795</ele>
        <time>2026-05-09T05:14:32.067Z</time>
      </trkpt>
      <trkpt lat="47.83072" lon="6.98277">
        <ele>796</ele>
        <time>2026-05-09T05:14:33.066Z</time>
      </trkpt>
      <trkpt lat="47.83072" lon="6.98273">
        <ele>797</ele>
        <time>2026-05-09T05:14:34.066Z</time>
      </trkpt>
      <trkpt lat="47.83071" lon="6.98269">
        <ele>797</ele>
        <time>2026-05-09T05:14:35.066Z</time>
      </trkpt>
      <trkpt lat="47.83071" lon="6.98265">
        <ele>798</ele>
        <time>2026-05-09T05:14:36.067Z</time>
      </trkpt>
      <trkpt lat="47.8307" lon="6.98262">
        <ele>799</ele>
        <time>2026-05-09T05:14:37.066Z</time>
      </trkpt>
      <trkpt lat="47.83071" lon="6.98258">
        <ele>800</ele>
        <time>2026-05-09T05:14:38.067Z</time>
      </trkpt>
      <trkpt lat="47.83071" lon="6.98256">
        <ele>800</ele>
        <time>2026-05-09T05:14:39.066Z</time>
      </trkpt>
      <trkpt lat="47.83071" lon="6.98253">
        <ele>801</ele>
        <time>2026-05-09T05:14:40.066Z</time>
      </trkpt>
      <trkpt lat="47.83073" lon="6.98254">
        <ele>801</ele>
        <time>2026-05-09T05:14:41.066Z</time>
      </trkpt>
      <trkpt lat="47.83074" lon="6.98253">
        <ele>801</ele>
        <time>2026-05-09T05:14:42.067Z</time>
      </trkpt>
      <trkpt lat="47.83073" lon="6.9825">
        <ele>801</ele>
        <time>2026-05-09T05:14:43.067Z</time>
      </trkpt>
      <trkpt lat="47.83073" lon="6.98249">
        <ele>802</ele>
        <time>2026-05-09T05:14:44.066Z</time>
      </trkpt>
      <trkpt lat="47.83073" lon="6.98248">
        <ele>802</ele>
        <time>2026-05-09T05:14:45.066Z</time>
      </trkpt>
      <trkpt lat="47.83074" lon="6.98247">
        <ele>802</ele>
        <time>2026-05-09T05:14:46.066Z</time>
      </trkpt>
      <trkpt lat="47.83075" lon="6.98247">
        <ele>802</ele>
        <time>2026-05-09T05:14:47.067Z</time>
      </trkpt>
      <trkpt lat="47.83075" lon="6.98246">
        <ele>802</ele>
        <time>2026-05-09T05:14:48.066Z</time>
      </trkpt>
      <trkpt lat="47.83076" lon="6.98245">
        <ele>802</ele>
        <time>2026-05-09T05:14:49.067Z</time>
      </trkpt>
      <trkpt lat="47.83076" lon="6.98244">
        <ele>801</ele>
        <time>2026-05-09T05:14:50.066Z</time>
      </trkpt>
      <trkpt lat="47.83077" lon="6.98242">
        <ele>801</ele>
        <time>2026-05-09T05:14:51.066Z</time>
      </trkpt>
      <trkpt lat="47.83077" lon="6.98241">
        <ele>801</ele>
        <time>2026-05-09T05:14:52.066Z</time>
      </trkpt>
      <trkpt lat="47.83078" lon="6.9824">
        <ele>801</ele>
        <time>2026-05-09T05:14:53.066Z</time>
      </trkpt>
      <trkpt lat="47.83078" lon="6.98238">
        <ele>801</ele>
        <time>2026-05-09T05:14:54.066Z</time>
      </trkpt>
      <trkpt lat="47.83079" lon="6.98237">
        <ele>801</ele>
        <time>2026-05-09T05:14:55.067Z</time>
      </trkpt>
      <trkpt lat="47.83079" lon="6.98236">
        <ele>801</ele>
        <time>2026-05-09T05:14:56.066Z</time>
      </trkpt>
      <trkpt lat="47.8308" lon="6.98235">
        <ele>801</ele>
        <time>2026-05-09T05:14:57.066Z</time>
      </trkpt>
      <trkpt lat="47.8308" lon="6.98235">
        <ele>801</ele>
        <time>2026-05-09T05:14:58.066Z</time>
      </trkpt>
      <trkpt lat="47.8308" lon="6.98235">
        <ele>801</ele>
        <time>2026-05-09T05:14:59.067Z</time>
      </trkpt>
      <trkpt lat="47.83081" lon="6.98234">
        <ele>800</ele>
        <time>2026-05-09T05:15:00.066Z</time>
      </trkpt>
      <trkpt lat="47.83081" lon="6.98234">
        <ele>800</ele>
        <time>2026-05-09T05:15:01.066Z</time>
      </trkpt>
      <trkpt lat="47.83082" lon="6.98233">
        <ele>799</ele>
        <time>2026-05-09T05:15:02.066Z</time>
      </trkpt>
      <trkpt lat="47.83082" lon="6.98233">
        <ele>799</ele>
        <time>2026-05-09T05:15:03.066Z</time>
      </trkpt>
      <trkpt lat="47.83081" lon="6.98232">
        <ele>799</ele>
        <time>2026-05-09T05:15:04.067Z</time>
      </trkpt>
      <trkpt lat="47.83081" lon="6.98231">
        <ele>799</ele>
        <time>2026-05-09T05:15:05.066Z</time>
      </trkpt>
      <trkpt lat="47.83081" lon="6.9823">
        <ele>799</ele>
        <time>2026-05-09T05:15:06.067Z</time>
      </trkpt>
      <trkpt lat="47.83081" lon="6.98228">
        <ele>799</ele>
        <time>2026-05-09T05:15:07.067Z</time>
      </trkpt>
      <trkpt lat="47.83082" lon="6.98227">
        <ele>799</ele>
        <time>2026-05-09T05:15:08.066Z</time>
      </trkpt>
      <trkpt lat="47.83082" lon="6.98226">
        <ele>799</ele>
        <time>2026-05-09T05:15:09.066Z</time>
      </trkpt>
      <trkpt lat="47.83082" lon="6.98224">
        <ele>799</ele>
        <time>2026-05-09T05:15:10.067Z</time>
      </trkpt>
      <trkpt lat="47.83082" lon="6.98223">
        <ele>799</ele>
        <time>2026-05-09T05:15:11.066Z</time>
      </trkpt>
      <trkpt lat="47.83083" lon="6.98221">
        <ele>800</ele>
        <time>2026-05-09T05:15:12.067Z</time>
      </trkpt>
      <trkpt lat="47.83084" lon="6.98219">
        <ele>800</ele>
        <time>2026-05-09T05:15:13.066Z</time>
      </trkpt>
      <trkpt lat="47.83085" lon="6.98217">
        <ele>800</ele>
        <time>2026-05-09T05:15:14.066Z</time>
      </trkpt>
      <trkpt lat="47.83086" lon="6.98215">
        <ele>800</ele>
        <time>2026-05-09T05:15:15.066Z</time>
      </trkpt>
      <trkpt lat="47.83086" lon="6.98213">
        <ele>801</ele>
        <time>2026-05-09T05:15:16.066Z</time>
      </trkpt>
      <trkpt lat="47.83087" lon="6.98212">
        <ele>801</ele>
        <time>2026-05-09T05:15:17.066Z</time>
      </trkpt>
      <trkpt lat="47.83089" lon="6.9821">
        <ele>800</ele>
        <time>2026-05-09T05:15:18.066Z</time>
      </trkpt>
      <trkpt lat="47.83089" lon="6.9821">
        <ele>800</ele>
        <time>2026-05-09T05:15:19.067Z</time>
      </trkpt>
      <trkpt lat="47.83089" lon="6.98209">
        <ele>801</ele>
        <time>2026-05-09T05:15:20.066Z</time>
      </trkpt>
      <trkpt lat="47.8309" lon="6.98209">
        <ele>801</ele>
        <time>2026-05-09T05:15:21.066Z</time>
      </trkpt>
      <trkpt lat="47.8309" lon="6.98209">
        <ele>801</ele>
        <time>2026-05-09T05:15:22.067Z</time>
      </trkpt>
      <trkpt lat="47.8309" lon="6.98207">
        <ele>801</ele>
        <time>2026-05-09T05:15:23.067Z</time>
      </trkpt>
      <trkpt lat="47.83091" lon="6.98204">
        <ele>801</ele>
        <time>2026-05-09T05:15:24.066Z</time>
      </trkpt>
      <trkpt lat="47.83092" lon="6.98202">
        <ele>802</ele>
        <time>2026-05-09T05:15:25.066Z</time>
      </trkpt>
      <trkpt lat="47.83093" lon="6.982">
        <ele>802</ele>
        <time>2026-05-09T05:15:26.066Z</time>
      </trkpt>
      <trkpt lat="47.83093" lon="6.98198">
        <ele>802</ele>
        <time>2026-05-09T05:15:27.067Z</time>
      </trkpt>
      <trkpt lat="47.83094" lon="6.98197">
        <ele>803</ele>
        <time>2026-05-09T05:15:28.066Z</time>
      </trkpt>
      <trkpt lat="47.83095" lon="6.98196">
        <ele>803</ele>
        <time>2026-05-09T05:15:29.066Z</time>
      </trkpt>
      <trkpt lat="47.83095" lon="6.98195">
        <ele>803</ele>
        <time>2026-05-09T05:15:30.066Z</time>
      </trkpt>
      <trkpt lat="47.83096" lon="6.98193">
        <ele>803</ele>
        <time>2026-05-09T05:15:31.066Z</time>
      </trkpt>
      <trkpt lat="47.83097" lon="6.98191">
        <ele>803</ele>
        <time>2026-05-09T05:15:32.066Z</time>
      </trkpt>
      <trkpt lat="47.83098" lon="6.9819">
        <ele>803</ele>
        <time>2026-05-09T05:15:33.066Z</time>
      </trkpt>
      <trkpt lat="47.83099" lon="6.98188">
        <ele>803</ele>
        <time>2026-05-09T05:15:34.067Z</time>
      </trkpt>
      <trkpt lat="47.83099" lon="6.98187">
        <ele>803</ele>
        <time>2026-05-09T05:15:35.066Z</time>
      </trkpt>
      <trkpt lat="47.831" lon="6.98185">
        <ele>803</ele>
        <time>2026-05-09T05:15:36.067Z</time>
      </trkpt>
      <trkpt lat="47.831" lon="6.98183">
        <ele>803</ele>
        <time>2026-05-09T05:15:37.066Z</time>
      </trkpt>
      <trkpt lat="47.83101" lon="6.98179">
        <ele>804</ele>
        <time>2026-05-09T05:15:38.066Z</time>
      </trkpt>
      <trkpt lat="47.83102" lon="6.98178">
        <ele>804</ele>
        <time>2026-05-09T05:15:39.066Z</time>
      </trkpt>
      <trkpt lat="47.83103" lon="6.98176">
        <ele>804</ele>
        <time>2026-05-09T05:15:40.066Z</time>
      </trkpt>
      <trkpt lat="47.83104" lon="6.98176">
        <ele>803</ele>
        <time>2026-05-09T05:15:41.066Z</time>
      </trkpt>
      <trkpt lat="47.83105" lon="6.98175">
        <ele>803</ele>
        <time>2026-05-09T05:15:42.066Z</time>
      </trkpt>
      <trkpt lat="47.83106" lon="6.98174">
        <ele>803</ele>
        <time>2026-05-09T05:15:43.067Z</time>
      </trkpt>
      <trkpt lat="47.83107" lon="6.98172">
        <ele>803</ele>
        <time>2026-05-09T05:15:44.066Z</time>
      </trkpt>
      <trkpt lat="47.83108" lon="6.98172">
        <ele>802</ele>
        <time>2026-05-09T05:15:45.066Z</time>
      </trkpt>
      <trkpt lat="47.83109" lon="6.98171">
        <ele>802</ele>
        <time>2026-05-09T05:15:46.066Z</time>
      </trkpt>
      <trkpt lat="47.8311" lon="6.98169">
        <ele>802</ele>
        <time>2026-05-09T05:15:47.066Z</time>
      </trkpt>
      <trkpt lat="47.83111" lon="6.98168">
        <ele>802</ele>
        <time>2026-05-09T05:15:48.067Z</time>
      </trkpt>
      <trkpt lat="47.83112" lon="6.98168">
        <ele>802</ele>
        <time>2026-05-09T05:15:49.066Z</time>
      </trkpt>
      <trkpt lat="47.83113" lon="6.98167">
        <ele>802</ele>
        <time>2026-05-09T05:15:50.067Z</time>
      </trkpt>
      <trkpt lat="47.83114" lon="6.98166">
        <ele>802</ele>
        <time>2026-05-09T05:15:51.067Z</time>
      </trkpt>
      <trkpt lat="47.83115" lon="6.98166">
        <ele>802</ele>
        <time>2026-05-09T05:15:52.067Z</time>
      </trkpt>
      <trkpt lat="47.83116" lon="6.98165">
        <ele>802</ele>
        <time>2026-05-09T05:15:53.067Z</time>
      </trkpt>
      <trkpt lat="47.83118" lon="6.98165">
        <ele>802</ele>
        <time>2026-05-09T05:15:54.067Z</time>
      </trkpt>
      <trkpt lat="47.83119" lon="6.98164">
        <ele>802</ele>
        <time>2026-05-09T05:15:55.066Z</time>
      </trkpt>
      <trkpt lat="47.8312" lon="6.98163">
        <ele>802</ele>
        <time>2026-05-09T05:15:56.066Z</time>
      </trkpt>
      <trkpt lat="47.83121" lon="6.98162">
        <ele>802</ele>
        <time>2026-05-09T05:15:57.067Z</time>
      </trkpt>
      <trkpt lat="47.83121" lon="6.9816">
        <ele>802</ele>
        <time>2026-05-09T05:15:58.067Z</time>
      </trkpt>
      <trkpt lat="47.83122" lon="6.98159">
        <ele>802</ele>
        <time>2026-05-09T05:15:59.066Z</time>
      </trkpt>
      <trkpt lat="47.83123" lon="6.98157">
        <ele>803</ele>
        <time>2026-05-09T05:16:00.067Z</time>
      </trkpt>
      <trkpt lat="47.83125" lon="6.98157">
        <ele>803</ele>
        <time>2026-05-09T05:16:01.066Z</time>
      </trkpt>
      <trkpt lat="47.83126" lon="6.98156">
        <ele>803</ele>
        <time>2026-05-09T05:16:02.066Z</time>
      </trkpt>
      <trkpt lat="47.83127" lon="6.98156">
        <ele>803</ele>
        <time>2026-05-09T05:16:03.067Z</time>
      </trkpt>
      <trkpt lat="47.83128" lon="6.98155">
        <ele>803</ele>
        <time>2026-05-09T05:16:04.066Z</time>
      </trkpt>
      <trkpt lat="47.8313" lon="6.98155">
        <ele>803</ele>
        <time>2026-05-09T05:16:05.067Z</time>
      </trkpt>
      <trkpt lat="47.83131" lon="6.98154">
        <ele>803</ele>
        <time>2026-05-09T05:16:06.066Z</time>
      </trkpt>
      <trkpt lat="47.83132" lon="6.98153">
        <ele>803</ele>
        <time>2026-05-09T05:16:07.067Z</time>
      </trkpt>
      <trkpt lat="47.83133" lon="6.98152">
        <ele>803</ele>
        <time>2026-05-09T05:16:08.066Z</time>
      </trkpt>
      <trkpt lat="47.83134" lon="6.98151">
        <ele>803</ele>
        <time>2026-05-09T05:16:09.067Z</time>
      </trkpt>
      <trkpt lat="47.83135" lon="6.9815">
        <ele>802</ele>
        <time>2026-05-09T05:16:10.066Z</time>
      </trkpt>
      <trkpt lat="47.83136" lon="6.98149">
        <ele>803</ele>
        <time>2026-05-09T05:16:11.067Z</time>
      </trkpt>
      <trkpt lat="47.83138" lon="6.98149">
        <ele>803</ele>
        <time>2026-05-09T05:16:12.066Z</time>
      </trkpt>
      <trkpt lat="47.83139" lon="6.98148">
        <ele>803</ele>
        <time>2026-05-09T05:16:13.067Z</time>
      </trkpt>
      <trkpt lat="47.8314" lon="6.98147">
        <ele>804</ele>
        <time>2026-05-09T05:16:14.066Z</time>
      </trkpt>
      <trkpt lat="47.83141" lon="6.98146">
        <ele>804</ele>
        <time>2026-05-09T05:16:15.067Z</time>
      </trkpt>
      <trkpt lat="47.83142" lon="6.98144">
        <ele>804</ele>
        <time>2026-05-09T05:16:16.066Z</time>
      </trkpt>
      <trkpt lat="47.83144" lon="6.98143">
        <ele>804</ele>
        <time>2026-05-09T05:16:17.067Z</time>
      </trkpt>
      <trkpt lat="47.83145" lon="6.98143">
        <ele>805</ele>
        <time>2026-05-09T05:16:18.067Z</time>
      </trkpt>
      <trkpt lat="47.83146" lon="6.98143">
        <ele>804</ele>
        <time>2026-05-09T05:16:19.067Z</time>
      </trkpt>
      <trkpt lat="47.83147" lon="6.98144">
        <ele>804</ele>
        <time>2026-05-09T05:16:20.067Z</time>
      </trkpt>
      <trkpt lat="47.83148" lon="6.98145">
        <ele>804</ele>
        <time>2026-05-09T05:16:21.066Z</time>
      </trkpt>
      <trkpt lat="47.83149" lon="6.98145">
        <ele>804</ele>
        <time>2026-05-09T05:16:22.067Z</time>
      </trkpt>
      <trkpt lat="47.8315" lon="6.98145">
        <ele>804</ele>
        <time>2026-05-09T05:16:23.066Z</time>
      </trkpt>
      <trkpt lat="47.83152" lon="6.98145">
        <ele>803</ele>
        <time>2026-05-09T05:16:24.066Z</time>
      </trkpt>
      <trkpt lat="47.83153" lon="6.98144">
        <ele>804</ele>
        <time>2026-05-09T05:16:25.067Z</time>
      </trkpt>
      <trkpt lat="47.83154" lon="6.98144">
        <ele>804</ele>
        <time>2026-05-09T05:16:26.066Z</time>
      </trkpt>
      <trkpt lat="47.83155" lon="6.98143">
        <ele>804</ele>
        <time>2026-05-09T05:16:27.066Z</time>
      </trkpt>
      <trkpt lat="47.83157" lon="6.98143">
        <ele>804</ele>
        <time>2026-05-09T05:16:28.066Z</time>
      </trkpt>
      <trkpt lat="47.83157" lon="6.98142">
        <ele>804</ele>
        <time>2026-05-09T05:16:29.066Z</time>
      </trkpt>
      <trkpt lat="47.83158" lon="6.98141">
        <ele>804</ele>
        <time>2026-05-09T05:16:30.067Z</time>
      </trkpt>
      <trkpt lat="47.83159" lon="6.98141">
        <ele>804</ele>
        <time>2026-05-09T05:16:31.067Z</time>
      </trkpt>
      <trkpt lat="47.8316" lon="6.98141">
        <ele>804</ele>
        <time>2026-05-09T05:16:32.067Z</time>
      </trkpt>
      <trkpt lat="47.83161" lon="6.98141">
        <ele>805</ele>
        <time>2026-05-09T05:16:33.067Z</time>
      </trkpt>
      <trkpt lat="47.83162" lon="6.98141">
        <ele>805</ele>
        <time>2026-05-09T05:16:34.066Z</time>
      </trkpt>
      <trkpt lat="47.83163" lon="6.98141">
        <ele>805</ele>
        <time>2026-05-09T05:16:35.066Z</time>
      </trkpt>
      <trkpt lat="47.83164" lon="6.98141">
        <ele>805</ele>
        <time>2026-05-09T05:16:36.067Z</time>
      </trkpt>
      <trkpt lat="47.83165" lon="6.98141">
        <ele>806</ele>
        <time>2026-05-09T05:16:37.066Z</time>
      </trkpt>
      <trkpt lat="47.83166" lon="6.98139">
        <ele>806</ele>
        <time>2026-05-09T05:16:38.066Z</time>
      </trkpt>
      <trkpt lat="47.83167" lon="6.98138">
        <ele>806</ele>
        <time>2026-05-09T05:16:39.066Z</time>
      </trkpt>
      <trkpt lat="47.83168" lon="6.98138">
        <ele>807</ele>
        <time>2026-05-09T05:16:40.067Z</time>
      </trkpt>
      <trkpt lat="47.83169" lon="6.98138">
        <ele>807</ele>
        <time>2026-05-09T05:16:41.066Z</time>
      </trkpt>
      <trkpt lat="47.8317" lon="6.98138">
        <ele>807</ele>
        <time>2026-05-09T05:16:42.066Z</time>
      </trkpt>
      <trkpt lat="47.83171" lon="6.98138">
        <ele>807</ele>
        <time>2026-05-09T05:16:43.067Z</time>
      </trkpt>
      <trkpt lat="47.83172" lon="6.98138">
        <ele>808</ele>
        <time>2026-05-09T05:16:44.067Z</time>
      </trkpt>
      <trkpt lat="47.83173" lon="6.98138">
        <ele>808</ele>
        <time>2026-05-09T05:16:45.067Z</time>
      </trkpt>
      <trkpt lat="47.83174" lon="6.98138">
        <ele>807</ele>
        <time>2026-05-09T05:16:46.066Z</time>
      </trkpt>
      <trkpt lat="47.83175" lon="6.98138">
        <ele>807</ele>
        <time>2026-05-09T05:16:47.066Z</time>
      </trkpt>
      <trkpt lat="47.83176" lon="6.98137">
        <ele>807</ele>
        <time>2026-05-09T05:16:48.066Z</time>
      </trkpt>
      <trkpt lat="47.83177" lon="6.98137">
        <ele>807</ele>
        <time>2026-05-09T05:16:49.067Z</time>
      </trkpt>
      <trkpt lat="47.83178" lon="6.98137">
        <ele>807</ele>
        <time>2026-05-09T05:16:50.067Z</time>
      </trkpt>
      <trkpt lat="47.83179" lon="6.98137">
        <ele>807</ele>
        <time>2026-05-09T05:16:51.066Z</time>
      </trkpt>
      <trkpt lat="47.83181" lon="6.98138">
        <ele>806</ele>
        <time>2026-05-09T05:16:52.066Z</time>
      </trkpt>
      <trkpt lat="47.83183" lon="6.98137">
        <ele>806</ele>
        <time>2026-05-09T05:16:53.067Z</time>
      </trkpt>
      <trkpt lat="47.83184" lon="6.98136">
        <ele>806</ele>
        <time>2026-05-09T05:16:54.066Z</time>
      </trkpt>
      <trkpt lat="47.83185" lon="6.98136">
        <ele>806</ele>
        <time>2026-05-09T05:16:55.066Z</time>
      </trkpt>
      <trkpt lat="47.83186" lon="6.98136">
        <ele>806</ele>
        <time>2026-05-09T05:16:56.067Z</time>
      </trkpt>
      <trkpt lat="47.83187" lon="6.98136">
        <ele>806</ele>
        <time>2026-05-09T05:16:57.066Z</time>
      </trkpt>
      <trkpt lat="47.83188" lon="6.98136">
        <ele>805</ele>
        <time>2026-05-09T05:16:58.067Z</time>
      </trkpt>
      <trkpt lat="47.83189" lon="6.98136">
        <ele>805</ele>
        <time>2026-05-09T05:16:59.066Z</time>
      </trkpt>
      <trkpt lat="47.83191" lon="6.98136">
        <ele>805</ele>
        <time>2026-05-09T05:17:00.067Z</time>
      </trkpt>
      <trkpt lat="47.83192" lon="6.98137">
        <ele>805</ele>
        <time>2026-05-09T05:17:01.066Z</time>
      </trkpt>
      <trkpt lat="47.83193" lon="6.98137">
        <ele>804</ele>
        <time>2026-05-09T05:17:02.066Z</time>
      </trkpt>
      <trkpt lat="47.83194" lon="6.98136">
        <ele>804</ele>
        <time>2026-05-09T05:17:03.066Z</time>
      </trkpt>
      <trkpt lat="47.83196" lon="6.98136">
        <ele>804</ele>
        <time>2026-05-09T05:17:04.066Z</time>
      </trkpt>
      <trkpt lat="47.83197" lon="6.98136">
        <ele>803</ele>
        <time>2026-05-09T05:17:05.066Z</time>
      </trkpt>
      <trkpt lat="47.83198" lon="6.98136">
        <ele>803</ele>
        <time>2026-05-09T05:17:06.067Z</time>
      </trkpt>
      <trkpt lat="47.83199" lon="6.98136">
        <ele>803</ele>
        <time>2026-05-09T05:17:07.067Z</time>
      </trkpt>
      <trkpt lat="47.832" lon="6.98135">
        <ele>802</ele>
        <time>2026-05-09T05:17:08.066Z</time>
      </trkpt>
      <trkpt lat="47.83201" lon="6.98135">
        <ele>802</ele>
        <time>2026-05-09T05:17:09.067Z</time>
      </trkpt>
      <trkpt lat="47.83203" lon="6.98134">
        <ele>802</ele>
        <time>2026-05-09T05:17:10.066Z</time>
      </trkpt>
      <trkpt lat="47.83204" lon="6.98134">
        <ele>801</ele>
        <time>2026-05-09T05:17:11.067Z</time>
      </trkpt>
      <trkpt lat="47.83205" lon="6.98133">
        <ele>801</ele>
        <time>2026-05-09T05:17:12.066Z</time>
      </trkpt>
      <trkpt lat="47.83206" lon="6.98133">
        <ele>801</ele>
        <time>2026-05-09T05:17:13.067Z</time>
      </trkpt>
      <trkpt lat="47.83207" lon="6.98132">
        <ele>801</ele>
        <time>2026-05-09T05:17:14.066Z</time>
      </trkpt>
      <trkpt lat="47.83208" lon="6.98132">
        <ele>802</ele>
        <time>2026-05-09T05:17:15.067Z</time>
      </trkpt>
      <trkpt lat="47.8321" lon="6.98132">
        <ele>802</ele>
        <time>2026-05-09T05:17:16.067Z</time>
      </trkpt>
      <trkpt lat="47.83211" lon="6.98132">
        <ele>802</ele>
        <time>2026-05-09T05:17:17.067Z</time>
      </trkpt>
      <trkpt lat="47.83212" lon="6.98132">
        <ele>802</ele>
        <time>2026-05-09T05:17:18.067Z</time>
      </trkpt>
      <trkpt lat="47.83213" lon="6.98132">
        <ele>802</ele>
        <time>2026-05-09T05:17:19.066Z</time>
      </trkpt>
      <trkpt lat="47.83214" lon="6.98132">
        <ele>802</ele>
        <time>2026-05-09T05:17:20.067Z</time>
      </trkpt>
      <trkpt lat="47.83215" lon="6.98132">
        <ele>802</ele>
        <time>2026-05-09T05:17:21.066Z</time>
      </trkpt>
      <trkpt lat="47.83216" lon="6.98132">
        <ele>802</ele>
        <time>2026-05-09T05:17:22.067Z</time>
      </trkpt>
      <trkpt lat="47.83216" lon="6.98131">
        <ele>802</ele>
        <time>2026-05-09T05:17:23.067Z</time>
      </trkpt>
      <trkpt lat="47.83217" lon="6.98131">
        <ele>803</ele>
        <time>2026-05-09T05:17:24.067Z</time>
      </trkpt>
      <trkpt lat="47.83218" lon="6.9813">
        <ele>803</ele>
        <time>2026-05-09T05:17:25.066Z</time>
      </trkpt>
      <trkpt lat="47.83219" lon="6.98129">
        <ele>803</ele>
        <time>2026-05-09T05:17:26.067Z</time>
      </trkpt>
      <trkpt lat="47.83221" lon="6.98127">
        <ele>804</ele>
        <time>2026-05-09T05:17:27.067Z</time>
      </trkpt>
      <trkpt lat="47.83222" lon="6.98127">
        <ele>804</ele>
        <time>2026-05-09T05:17:28.067Z</time>
      </trkpt>
      <trkpt lat="47.83223" lon="6.98127">
        <ele>804</ele>
        <time>2026-05-09T05:17:29.066Z</time>
      </trkpt>
      <trkpt lat="47.83225" lon="6.98127">
        <ele>805</ele>
        <time>2026-05-09T05:17:30.067Z</time>
      </trkpt>
      <trkpt lat="47.83226" lon="6.98127">
        <ele>805</ele>
        <time>2026-05-09T05:17:31.066Z</time>
      </trkpt>
      <trkpt lat="47.83226" lon="6.98127">
        <ele>805</ele>
        <time>2026-05-09T05:17:32.067Z</time>
      </trkpt>
      <trkpt lat="47.83227" lon="6.98127">
        <ele>805</ele>
        <time>2026-05-09T05:17:33.066Z</time>
      </trkpt>
      <trkpt lat="47.83227" lon="6.98126">
        <ele>805</ele>
        <time>2026-05-09T05:17:34.066Z</time>
      </trkpt>
      <trkpt lat="47.83228" lon="6.98126">
        <ele>805</ele>
        <time>2026-05-09T05:17:35.066Z</time>
      </trkpt>
      <trkpt lat="47.83229" lon="6.98125">
        <ele>805</ele>
        <time>2026-05-09T05:17:36.066Z</time>
      </trkpt>
      <trkpt lat="47.8323" lon="6.98125">
        <ele>805</ele>
        <time>2026-05-09T05:17:37.066Z</time>
      </trkpt>
      <trkpt lat="47.8323" lon="6.98125">
        <ele>805</ele>
        <time>2026-05-09T05:17:38.066Z</time>
      </trkpt>
      <trkpt lat="47.83231" lon="6.98124">
        <ele>805</ele>
        <time>2026-05-09T05:17:39.066Z</time>
      </trkpt>
      <trkpt lat="47.83232" lon="6.98123">
        <ele>805</ele>
        <time>2026-05-09T05:17:40.066Z</time>
      </trkpt>
      <trkpt lat="47.83232" lon="6.98122">
        <ele>805</ele>
        <time>2026-05-09T05:17:41.067Z</time>
      </trkpt>
      <trkpt lat="47.83233" lon="6.98121">
        <ele>806</ele>
        <time>2026-05-09T05:17:42.066Z</time>
      </trkpt>
      <trkpt lat="47.83234" lon="6.9812">
        <ele>806</ele>
        <time>2026-05-09T05:17:43.067Z</time>
      </trkpt>
      <trkpt lat="47.83234" lon="6.98119">
        <ele>806</ele>
        <time>2026-05-09T05:17:44.066Z</time>
      </trkpt>
      <trkpt lat="47.83235" lon="6.98118">
        <ele>806</ele>
        <time>2026-05-09T05:17:45.067Z</time>
      </trkpt>
      <trkpt lat="47.83236" lon="6.98118">
        <ele>807</ele>
        <time>2026-05-09T05:17:46.067Z</time>
      </trkpt>
      <trkpt lat="47.83238" lon="6.98117">
        <ele>807</ele>
        <time>2026-05-09T05:17:47.067Z</time>
      </trkpt>
      <trkpt lat="47.83238" lon="6.98116">
        <ele>807</ele>
        <time>2026-05-09T05:17:48.066Z</time>
      </trkpt>
      <trkpt lat="47.83239" lon="6.98116">
        <ele>807</ele>
        <time>2026-05-09T05:17:49.067Z</time>
      </trkpt>
      <trkpt lat="47.8324" lon="6.98115">
        <ele>807</ele>
        <time>2026-05-09T05:17:50.066Z</time>
      </trkpt>
      <trkpt lat="47.83241" lon="6.98114">
        <ele>807</ele>
        <time>2026-05-09T05:17:51.067Z</time>
      </trkpt>
      <trkpt lat="47.83242" lon="6.98113">
        <ele>807</ele>
        <time>2026-05-09T05:17:52.066Z</time>
      </trkpt>
      <trkpt lat="47.83243" lon="6.9811">
        <ele>807</ele>
        <time>2026-05-09T05:17:53.067Z</time>
      </trkpt>
      <trkpt lat="47.83244" lon="6.98108">
        <ele>807</ele>
        <time>2026-05-09T05:17:54.066Z</time>
      </trkpt>
      <trkpt lat="47.83244" lon="6.98107">
        <ele>807</ele>
        <time>2026-05-09T05:17:55.066Z</time>
      </trkpt>
      <trkpt lat="47.83245" lon="6.98105">
        <ele>807</ele>
        <time>2026-05-09T05:17:56.067Z</time>
      </trkpt>
      <trkpt lat="47.83245" lon="6.98104">
        <ele>807</ele>
        <time>2026-05-09T05:17:57.067Z</time>
      </trkpt>
      <trkpt lat="47.83245" lon="6.98102">
        <ele>807</ele>
        <time>2026-05-09T05:17:58.066Z</time>
      </trkpt>
      <trkpt lat="47.83246" lon="6.98101">
        <ele>808</ele>
        <time>2026-05-09T05:17:59.067Z</time>
      </trkpt>
      <trkpt lat="47.83247" lon="6.98099">
        <ele>808</ele>
        <time>2026-05-09T05:18:00.067Z</time>
      </trkpt>
      <trkpt lat="47.83248" lon="6.98098">
        <ele>808</ele>
        <time>2026-05-09T05:18:01.067Z</time>
      </trkpt>
      <trkpt lat="47.83248" lon="6.98098">
        <ele>808</ele>
        <time>2026-05-09T05:18:02.066Z</time>
      </trkpt>
      <trkpt lat="47.83249" lon="6.98096">
        <ele>807</ele>
        <time>2026-05-09T05:18:03.066Z</time>
      </trkpt>
      <trkpt lat="47.8325" lon="6.98095">
        <ele>807</ele>
        <time>2026-05-09T05:18:04.066Z</time>
      </trkpt>
      <trkpt lat="47.8325" lon="6.98094">
        <ele>808</ele>
        <time>2026-05-09T05:18:05.066Z</time>
      </trkpt>
      <trkpt lat="47.83251" lon="6.98092">
        <ele>808</ele>
        <time>2026-05-09T05:18:06.066Z</time>
      </trkpt>
      <trkpt lat="47.83252" lon="6.98091">
        <ele>808</ele>
        <time>2026-05-09T05:18:07.067Z</time>
      </trkpt>
      <trkpt lat="47.83253" lon="6.98089">
        <ele>808</ele>
        <time>2026-05-09T05:18:08.066Z</time>
      </trkpt>
      <trkpt lat="47.83253" lon="6.98087">
        <ele>808</ele>
        <time>2026-05-09T05:18:09.066Z</time>
      </trkpt>
      <trkpt lat="47.83254" lon="6.98086">
        <ele>808</ele>
        <time>2026-05-09T05:18:10.067Z</time>
      </trkpt>
      <trkpt lat="47.83255" lon="6.98084">
        <ele>808</ele>
        <time>2026-05-09T05:18:11.066Z</time>
      </trkpt>
      <trkpt lat="47.83255" lon="6.98082">
        <ele>808</ele>
        <time>2026-05-09T05:18:12.066Z</time>
      </trkpt>
      <trkpt lat="47.83256" lon="6.98081">
        <ele>808</ele>
        <time>2026-05-09T05:18:13.066Z</time>
      </trkpt>
      <trkpt lat="47.83258" lon="6.98078">
        <ele>808</ele>
        <time>2026-05-09T05:18:14.066Z</time>
      </trkpt>
      <trkpt lat="47.83259" lon="6.98076">
        <ele>809</ele>
        <time>2026-05-09T05:18:15.066Z</time>
      </trkpt>
      <trkpt lat="47.83259" lon="6.98075">
        <ele>809</ele>
        <time>2026-05-09T05:18:16.066Z</time>
      </trkpt>
      <trkpt lat="47.83259" lon="6.98073">
        <ele>809</ele>
        <time>2026-05-09T05:18:17.066Z</time>
      </trkpt>
      <trkpt lat="47.83259" lon="6.98071">
        <ele>809</ele>
        <time>2026-05-09T05:18:18.066Z</time>
      </trkpt>
      <trkpt lat="47.83259" lon="6.98069">
        <ele>810</ele>
        <time>2026-05-09T05:18:19.066Z</time>
      </trkpt>
      <trkpt lat="47.8326" lon="6.98068">
        <ele>810</ele>
        <time>2026-05-09T05:18:20.066Z</time>
      </trkpt>
      <trkpt lat="47.8326" lon="6.98068">
        <ele>810</ele>
        <time>2026-05-09T05:18:21.066Z</time>
      </trkpt>
      <trkpt lat="47.83261" lon="6.98066">
        <ele>810</ele>
        <time>2026-05-09T05:18:22.067Z</time>
      </trkpt>
      <trkpt lat="47.83261" lon="6.98065">
        <ele>810</ele>
        <time>2026-05-09T05:18:23.066Z</time>
      </trkpt>
      <trkpt lat="47.83262" lon="6.98065">
        <ele>810</ele>
        <time>2026-05-09T05:18:24.066Z</time>
      </trkpt>
      <trkpt lat="47.83263" lon="6.98064">
        <ele>810</ele>
        <time>2026-05-09T05:18:25.066Z</time>
      </trkpt>
      <trkpt lat="47.83263" lon="6.98062">
        <ele>810</ele>
        <time>2026-05-09T05:18:26.067Z</time>
      </trkpt>
      <trkpt lat="47.83264" lon="6.9806">
        <ele>810</ele>
        <time>2026-05-09T05:18:27.066Z</time>
      </trkpt>
      <trkpt lat="47.83265" lon="6.98059">
        <ele>811</ele>
        <time>2026-05-09T05:18:28.066Z</time>
      </trkpt>
      <trkpt lat="47.83266" lon="6.98058">
        <ele>811</ele>
        <time>2026-05-09T05:18:29.066Z</time>
      </trkpt>
      <trkpt lat="47.83267" lon="6.98057">
        <ele>811</ele>
        <time>2026-05-09T05:18:30.066Z</time>
      </trkpt>
      <trkpt lat="47.83267" lon="6.98055">
        <ele>811</ele>
        <time>2026-05-09T05:18:31.066Z</time>
      </trkpt>
      <trkpt lat="47.83268" lon="6.98054">
        <ele>812</ele>
        <time>2026-05-09T05:18:32.067Z</time>
      </trkpt>
      <trkpt lat="47.83269" lon="6.98053">
        <ele>812</ele>
        <time>2026-05-09T05:18:33.066Z</time>
      </trkpt>
      <trkpt lat="47.83269" lon="6.98051">
        <ele>812</ele>
        <time>2026-05-09T05:18:34.066Z</time>
      </trkpt>
      <trkpt lat="47.8327" lon="6.9805">
        <ele>812</ele>
        <time>2026-05-09T05:18:35.066Z</time>
      </trkpt>
      <trkpt lat="47.83271" lon="6.9805">
        <ele>812</ele>
        <time>2026-05-09T05:18:36.066Z</time>
      </trkpt>
      <trkpt lat="47.83272" lon="6.98049">
        <ele>812</ele>
        <time>2026-05-09T05:18:37.066Z</time>
      </trkpt>
      <trkpt lat="47.83273" lon="6.98048">
        <ele>811</ele>
        <time>2026-05-09T05:18:38.066Z</time>
      </trkpt>
      <trkpt lat="47.83273" lon="6.98047">
        <ele>811</ele>
        <time>2026-05-09T05:18:39.066Z</time>
      </trkpt>
      <trkpt lat="47.83274" lon="6.98045">
        <ele>811</ele>
        <time>2026-05-09T05:18:40.066Z</time>
      </trkpt>
      <trkpt lat="47.83275" lon="6.98043">
        <ele>811</ele>
        <time>2026-05-09T05:18:41.067Z</time>
      </trkpt>
      <trkpt lat="47.83276" lon="6.98041">
        <ele>811</ele>
        <time>2026-05-09T05:18:42.066Z</time>
      </trkpt>
      <trkpt lat="47.83277" lon="6.9804">
        <ele>811</ele>
        <time>2026-05-09T05:18:43.066Z</time>
      </trkpt>
      <trkpt lat="47.83278" lon="6.98039">
        <ele>811</ele>
        <time>2026-05-09T05:18:44.066Z</time>
      </trkpt>
      <trkpt lat="47.83278" lon="6.98038">
        <ele>811</ele>
        <time>2026-05-09T05:18:45.067Z</time>
      </trkpt>
      <trkpt lat="47.83279" lon="6.98037">
        <ele>811</ele>
        <time>2026-05-09T05:18:46.067Z</time>
      </trkpt>
      <trkpt lat="47.8328" lon="6.98036">
        <ele>811</ele>
        <time>2026-05-09T05:18:47.067Z</time>
      </trkpt>
      <trkpt lat="47.83281" lon="6.98034">
        <ele>812</ele>
        <time>2026-05-09T05:18:48.066Z</time>
      </trkpt>
      <trkpt lat="47.83282" lon="6.98034">
        <ele>812</ele>
        <time>2026-05-09T05:18:49.066Z</time>
      </trkpt>
      <trkpt lat="47.83283" lon="6.98032">
        <ele>813</ele>
        <time>2026-05-09T05:18:50.066Z</time>
      </trkpt>
      <trkpt lat="47.83284" lon="6.9803">
        <ele>814</ele>
        <time>2026-05-09T05:18:51.066Z</time>
      </trkpt>
      <trkpt lat="47.83285" lon="6.98028">
        <ele>814</ele>
        <time>2026-05-09T05:18:52.066Z</time>
      </trkpt>
      <trkpt lat="47.83286" lon="6.98026">
        <ele>815</ele>
        <time>2026-05-09T05:18:53.066Z</time>
      </trkpt>
      <trkpt lat="47.83287" lon="6.98025">
        <ele>815</ele>
        <time>2026-05-09T05:18:54.066Z</time>
      </trkpt>
      <trkpt lat="47.83288" lon="6.98022">
        <ele>816</ele>
        <time>2026-05-09T05:18:55.066Z</time>
      </trkpt>
      <trkpt lat="47.83289" lon="6.98021">
        <ele>816</ele>
        <time>2026-05-09T05:18:56.066Z</time>
      </trkpt>
      <trkpt lat="47.8329" lon="6.9802">
        <ele>816</ele>
        <time>2026-05-09T05:18:57.066Z</time>
      </trkpt>
      <trkpt lat="47.83291" lon="6.98018">
        <ele>816</ele>
        <time>2026-05-09T05:18:58.066Z</time>
      </trkpt>
      <trkpt lat="47.83292" lon="6.98017">
        <ele>817</ele>
        <time>2026-05-09T05:18:59.066Z</time>
      </trkpt>
      <trkpt lat="47.83293" lon="6.98016">
        <ele>817</ele>
        <time>2026-05-09T05:19:00.066Z</time>
      </trkpt>
      <trkpt lat="47.83294" lon="6.98015">
        <ele>817</ele>
        <time>2026-05-09T05:19:01.066Z</time>
      </trkpt>
      <trkpt lat="47.83295" lon="6.98014">
        <ele>817</ele>
        <time>2026-05-09T05:19:02.066Z</time>
      </trkpt>
      <trkpt lat="47.83296" lon="6.98012">
        <ele>818</ele>
        <time>2026-05-09T05:19:03.067Z</time>
      </trkpt>
      <trkpt lat="47.83297" lon="6.98011">
        <ele>819</ele>
        <time>2026-05-09T05:19:04.066Z</time>
      </trkpt>
      <trkpt lat="47.83298" lon="6.9801">
        <ele>819</ele>
        <time>2026-05-09T05:19:05.066Z</time>
      </trkpt>
      <trkpt lat="47.83298" lon="6.98009">
        <ele>819</ele>
        <time>2026-05-09T05:19:06.066Z</time>
      </trkpt>
      <trkpt lat="47.83299" lon="6.98007">
        <ele>819</ele>
        <time>2026-05-09T05:19:07.067Z</time>
      </trkpt>
      <trkpt lat="47.833" lon="6.98006">
        <ele>819</ele>
        <time>2026-05-09T05:19:08.066Z</time>
      </trkpt>
      <trkpt lat="47.83301" lon="6.98005">
        <ele>819</ele>
        <time>2026-05-09T05:19:09.066Z</time>
      </trkpt>
      <trkpt lat="47.83302" lon="6.98003">
        <ele>820</ele>
        <time>2026-05-09T05:19:10.066Z</time>
      </trkpt>
      <trkpt lat="47.83303" lon="6.98002">
        <ele>820</ele>
        <time>2026-05-09T05:19:11.066Z</time>
      </trkpt>
      <trkpt lat="47.83304" lon="6.98">
        <ele>820</ele>
        <time>2026-05-09T05:19:12.066Z</time>
      </trkpt>
      <trkpt lat="47.83304" lon="6.97998">
        <ele>820</ele>
        <time>2026-05-09T05:19:13.066Z</time>
      </trkpt>
      <trkpt lat="47.83305" lon="6.97996">
        <ele>821</ele>
        <time>2026-05-09T05:19:14.067Z</time>
      </trkpt>
      <trkpt lat="47.83305" lon="6.97992">
        <ele>821</ele>
        <time>2026-05-09T05:19:15.067Z</time>
      </trkpt>
      <trkpt lat="47.83306" lon="6.9799">
        <ele>821</ele>
        <time>2026-05-09T05:19:16.066Z</time>
      </trkpt>
      <trkpt lat="47.83307" lon="6.97988">
        <ele>822</ele>
        <time>2026-05-09T05:19:17.066Z</time>
      </trkpt>
      <trkpt lat="47.83307" lon="6.97987">
        <ele>822</ele>
        <time>2026-05-09T05:19:18.067Z</time>
      </trkpt>
      <trkpt lat="47.83308" lon="6.97986">
        <ele>822</ele>
        <time>2026-05-09T05:19:19.067Z</time>
      </trkpt>
      <trkpt lat="47.83308" lon="6.97985">
        <ele>822</ele>
        <time>2026-05-09T05:19:20.067Z</time>
      </trkpt>
      <trkpt lat="47.83309" lon="6.97984">
        <ele>823</ele>
        <time>2026-05-09T05:19:21.067Z</time>
      </trkpt>
      <trkpt lat="47.8331" lon="6.97982">
        <ele>823</ele>
        <time>2026-05-09T05:19:22.066Z</time>
      </trkpt>
      <trkpt lat="47.8331" lon="6.97982">
        <ele>823</ele>
        <time>2026-05-09T05:19:23.066Z</time>
      </trkpt>
      <trkpt lat="47.83311" lon="6.97981">
        <ele>822</ele>
        <time>2026-05-09T05:19:24.066Z</time>
      </trkpt>
      <trkpt lat="47.83312" lon="6.97979">
        <ele>822</ele>
        <time>2026-05-09T05:19:25.066Z</time>
      </trkpt>
      <trkpt lat="47.83312" lon="6.97979">
        <ele>822</ele>
        <time>2026-05-09T05:19:26.067Z</time>
      </trkpt>
      <trkpt lat="47.83313" lon="6.97977">
        <ele>822</ele>
        <time>2026-05-09T05:19:27.066Z</time>
      </trkpt>
      <trkpt lat="47.83313" lon="6.97976">
        <ele>822</ele>
        <time>2026-05-09T05:19:28.066Z</time>
      </trkpt>
      <trkpt lat="47.83314" lon="6.97975">
        <ele>821</ele>
        <time>2026-05-09T05:19:29.066Z</time>
      </trkpt>
      <trkpt lat="47.83315" lon="6.97974">
        <ele>821</ele>
        <time>2026-05-09T05:19:30.066Z</time>
      </trkpt>
      <trkpt lat="47.83315" lon="6.97972">
        <ele>821</ele>
        <time>2026-05-09T05:19:31.066Z</time>
      </trkpt>
      <trkpt lat="47.83316" lon="6.9797">
        <ele>821</ele>
        <time>2026-05-09T05:19:32.066Z</time>
      </trkpt>
      <trkpt lat="47.83316" lon="6.97969">
        <ele>821</ele>
        <time>2026-05-09T05:19:33.066Z</time>
      </trkpt>
      <trkpt lat="47.83317" lon="6.97967">
        <ele>822</ele>
        <time>2026-05-09T05:19:34.066Z</time>
      </trkpt>
      <trkpt lat="47.83317" lon="6.97967">
        <ele>822</ele>
        <time>2026-05-09T05:19:35.067Z</time>
      </trkpt>
      <trkpt lat="47.83318" lon="6.97967">
        <ele>822</ele>
        <time>2026-05-09T05:19:36.066Z</time>
      </trkpt>
      <trkpt lat="47.83318" lon="6.97966">
        <ele>822</ele>
        <time>2026-05-09T05:19:37.067Z</time>
      </trkpt>
      <trkpt lat="47.83319" lon="6.97965">
        <ele>822</ele>
        <time>2026-05-09T05:19:38.066Z</time>
      </trkpt>
      <trkpt lat="47.83319" lon="6.97964">
        <ele>822</ele>
        <time>2026-05-09T05:19:39.067Z</time>
      </trkpt>
      <trkpt lat="47.8332" lon="6.97963">
        <ele>822</ele>
        <time>2026-05-09T05:19:40.066Z</time>
      </trkpt>
      <trkpt lat="47.83321" lon="6.97962">
        <ele>822</ele>
        <time>2026-05-09T05:19:41.066Z</time>
      </trkpt>
      <trkpt lat="47.83322" lon="6.97961">
        <ele>822</ele>
        <time>2026-05-09T05:19:42.067Z</time>
      </trkpt>
      <trkpt lat="47.83322" lon="6.97959">
        <ele>822</ele>
        <time>2026-05-09T05:19:43.066Z</time>
      </trkpt>
      <trkpt lat="47.83322" lon="6.97958">
        <ele>822</ele>
        <time>2026-05-09T05:19:44.066Z</time>
      </trkpt>
      <trkpt lat="47.83322" lon="6.97958">
        <ele>822</ele>
        <time>2026-05-09T05:19:45.066Z</time>
      </trkpt>
      <trkpt lat="47.83323" lon="6.97957">
        <ele>822</ele>
        <time>2026-05-09T05:19:46.066Z</time>
      </trkpt>
      <trkpt lat="47.83323" lon="6.97956">
        <ele>822</ele>
        <time>2026-05-09T05:19:47.066Z</time>
      </trkpt>
      <trkpt lat="47.83323" lon="6.97955">
        <ele>822</ele>
        <time>2026-05-09T05:19:48.066Z</time>
      </trkpt>
      <trkpt lat="47.83324" lon="6.97954">
        <ele>822</ele>
        <time>2026-05-09T05:19:49.066Z</time>
      </trkpt>
      <trkpt lat="47.83325" lon="6.97953">
        <ele>822</ele>
        <time>2026-05-09T05:19:50.067Z</time>
      </trkpt>
      <trkpt lat="47.83326" lon="6.97952">
        <ele>822</ele>
        <time>2026-05-09T05:19:51.066Z</time>
      </trkpt>
      <trkpt lat="47.83327" lon="6.97951">
        <ele>822</ele>
        <time>2026-05-09T05:19:52.067Z</time>
      </trkpt>
      <trkpt lat="47.83327" lon="6.97949">
        <ele>822</ele>
        <time>2026-05-09T05:19:53.066Z</time>
      </trkpt>
      <trkpt lat="47.83328" lon="6.97948">
        <ele>822</ele>
        <time>2026-05-09T05:19:54.066Z</time>
      </trkpt>
      <trkpt lat="47.83329" lon="6.97946">
        <ele>822</ele>
        <time>2026-05-09T05:19:55.067Z</time>
      </trkpt>
      <trkpt lat="47.8333" lon="6.97946">
        <ele>822</ele>
        <time>2026-05-09T05:19:56.067Z</time>
      </trkpt>
      <trkpt lat="47.83331" lon="6.97946">
        <ele>822</ele>
        <time>2026-05-09T05:19:57.066Z</time>
      </trkpt>
      <trkpt lat="47.83332" lon="6.97945">
        <ele>821</ele>
        <time>2026-05-09T05:19:58.067Z</time>
      </trkpt>
      <trkpt lat="47.83333" lon="6.97945">
        <ele>821</ele>
        <time>2026-05-09T05:19:59.067Z</time>
      </trkpt>
      <trkpt lat="47.83334" lon="6.97944">
        <ele>821</ele>
        <time>2026-05-09T05:20:00.067Z</time>
      </trkpt>
      <trkpt lat="47.83335" lon="6.97944">
        <ele>821</ele>
        <time>2026-05-09T05:20:01.067Z</time>
      </trkpt>
      <trkpt lat="47.83336" lon="6.97943">
        <ele>820</ele>
        <time>2026-05-09T05:20:02.066Z</time>
      </trkpt>
      <trkpt lat="47.83337" lon="6.97942">
        <ele>820</ele>
        <time>2026-05-09T05:20:03.067Z</time>
      </trkpt>
      <trkpt lat="47.83338" lon="6.97941">
        <ele>820</ele>
        <time>2026-05-09T05:20:04.066Z</time>
      </trkpt>
      <trkpt lat="47.8334" lon="6.9794">
        <ele>820</ele>
        <time>2026-05-09T05:20:05.066Z</time>
      </trkpt>
      <trkpt lat="47.83341" lon="6.97939">
        <ele>820</ele>
        <time>2026-05-09T05:20:06.066Z</time>
      </trkpt>
      <trkpt lat="47.83342" lon="6.97939">
        <ele>820</ele>
        <time>2026-05-09T05:20:07.067Z</time>
      </trkpt>
      <trkpt lat="47.83343" lon="6.97939">
        <ele>819</ele>
        <time>2026-05-09T05:20:08.067Z</time>
      </trkpt>
      <trkpt lat="47.83344" lon="6.97939">
        <ele>819</ele>
        <time>2026-05-09T05:20:09.066Z</time>
      </trkpt>
      <trkpt lat="47.83345" lon="6.97938">
        <ele>819</ele>
        <time>2026-05-09T05:20:10.067Z</time>
      </trkpt>
      <trkpt lat="47.83347" lon="6.97937">
        <ele>819</ele>
        <time>2026-05-09T05:20:11.066Z</time>
      </trkpt>
      <trkpt lat="47.83348" lon="6.97937">
        <ele>819</ele>
        <time>2026-05-09T05:20:12.067Z</time>
      </trkpt>
      <trkpt lat="47.83349" lon="6.97936">
        <ele>818</ele>
        <time>2026-05-09T05:20:13.066Z</time>
      </trkpt>
      <trkpt lat="47.8335" lon="6.97936">
        <ele>818</ele>
        <time>2026-05-09T05:20:14.066Z</time>
      </trkpt>
      <trkpt lat="47.83352" lon="6.97934">
        <ele>818</ele>
        <time>2026-05-09T05:20:15.067Z</time>
      </trkpt>
      <trkpt lat="47.83353" lon="6.97933">
        <ele>818</ele>
        <time>2026-05-09T05:20:16.066Z</time>
      </trkpt>
      <trkpt lat="47.83354" lon="6.97932">
        <ele>818</ele>
        <time>2026-05-09T05:20:17.066Z</time>
      </trkpt>
      <trkpt lat="47.83355" lon="6.97931">
        <ele>818</ele>
        <time>2026-05-09T05:20:18.067Z</time>
      </trkpt>
      <trkpt lat="47.83356" lon="6.9793">
        <ele>819</ele>
        <time>2026-05-09T05:20:19.067Z</time>
      </trkpt>
      <trkpt lat="47.83357" lon="6.9793">
        <ele>819</ele>
        <time>2026-05-09T05:20:20.066Z</time>
      </trkpt>
      <trkpt lat="47.83358" lon="6.97929">
        <ele>819</ele>
        <time>2026-05-09T05:20:21.067Z</time>
      </trkpt>
      <trkpt lat="47.83359" lon="6.97927">
        <ele>820</ele>
        <time>2026-05-09T05:20:22.066Z</time>
      </trkpt>
      <trkpt lat="47.8336" lon="6.97926">
        <ele>820</ele>
        <time>2026-05-09T05:20:23.066Z</time>
      </trkpt>
      <trkpt lat="47.83361" lon="6.97924">
        <ele>820</ele>
        <time>2026-05-09T05:20:24.067Z</time>
      </trkpt>
      <trkpt lat="47.83362" lon="6.97924">
        <ele>821</ele>
        <time>2026-05-09T05:20:25.067Z</time>
      </trkpt>
      <trkpt lat="47.83363" lon="6.97924">
        <ele>821</ele>
        <time>2026-05-09T05:20:26.066Z</time>
      </trkpt>
      <trkpt lat="47.83365" lon="6.97924">
        <ele>821</ele>
        <time>2026-05-09T05:20:27.066Z</time>
      </trkpt>
      <trkpt lat="47.83366" lon="6.97924">
        <ele>822</ele>
        <time>2026-05-09T05:20:28.066Z</time>
      </trkpt>
      <trkpt lat="47.83367" lon="6.97923">
        <ele>822</ele>
        <time>2026-05-09T05:20:29.066Z</time>
      </trkpt>
      <trkpt lat="47.83368" lon="6.97922">
        <ele>822</ele>
        <time>2026-05-09T05:20:30.066Z</time>
      </trkpt>
      <trkpt lat="47.83369" lon="6.97921">
        <ele>822</ele>
        <time>2026-05-09T05:20:31.066Z</time>
      </trkpt>
      <trkpt lat="47.8337" lon="6.97919">
        <ele>823</ele>
        <time>2026-05-09T05:20:32.066Z</time>
      </trkpt>
      <trkpt lat="47.83371" lon="6.97918">
        <ele>823</ele>
        <time>2026-05-09T05:20:33.066Z</time>
      </trkpt>
      <trkpt lat="47.83372" lon="6.97917">
        <ele>823</ele>
        <time>2026-05-09T05:20:34.066Z</time>
      </trkpt>
      <trkpt lat="47.83373" lon="6.97916">
        <ele>823</ele>
        <time>2026-05-09T05:20:35.066Z</time>
      </trkpt>
      <trkpt lat="47.83374" lon="6.97915">
        <ele>824</ele>
        <time>2026-05-09T05:20:36.067Z</time>
      </trkpt>
      <trkpt lat="47.83375" lon="6.97915">
        <ele>824</ele>
        <time>2026-05-09T05:20:37.066Z</time>
      </trkpt>
      <trkpt lat="47.83376" lon="6.97914">
        <ele>824</ele>
        <time>2026-05-09T05:20:38.066Z</time>
      </trkpt>
      <trkpt lat="47.83376" lon="6.97913">
        <ele>824</ele>
        <time>2026-05-09T05:20:39.066Z</time>
      </trkpt>
      <trkpt lat="47.83377" lon="6.97912">
        <ele>824</ele>
        <time>2026-05-09T05:20:40.067Z</time>
      </trkpt>
      <trkpt lat="47.83377" lon="6.97913">
        <ele>825</ele>
        <time>2026-05-09T05:20:41.066Z</time>
      </trkpt>
      <trkpt lat="47.83379" lon="6.97912">
        <ele>825</ele>
        <time>2026-05-09T05:20:42.067Z</time>
      </trkpt>
      <trkpt lat="47.8338" lon="6.97912">
        <ele>825</ele>
        <time>2026-05-09T05:20:43.067Z</time>
      </trkpt>
      <trkpt lat="47.8338" lon="6.9791">
        <ele>825</ele>
        <time>2026-05-09T05:20:44.066Z</time>
      </trkpt>
      <trkpt lat="47.83381" lon="6.97909">
        <ele>825</ele>
        <time>2026-05-09T05:20:45.066Z</time>
      </trkpt>
      <trkpt lat="47.83381" lon="6.97908">
        <ele>825</ele>
        <time>2026-05-09T05:20:46.066Z</time>
      </trkpt>
      <trkpt lat="47.83382" lon="6.97906">
        <ele>826</ele>
        <time>2026-05-09T05:20:47.066Z</time>
      </trkpt>
      <trkpt lat="47.83382" lon="6.97905">
        <ele>826</ele>
        <time>2026-05-09T05:20:48.067Z</time>
      </trkpt>
      <trkpt lat="47.83383" lon="6.97904">
        <ele>827</ele>
        <time>2026-05-09T05:20:49.066Z</time>
      </trkpt>
      <trkpt lat="47.83385" lon="6.97903">
        <ele>827</ele>
        <time>2026-05-09T05:20:50.066Z</time>
      </trkpt>
      <trkpt lat="47.83386" lon="6.97902">
        <ele>827</ele>
        <time>2026-05-09T05:20:51.066Z</time>
      </trkpt>
      <trkpt lat="47.83387" lon="6.97901">
        <ele>827</ele>
        <time>2026-05-09T05:20:52.066Z</time>
      </trkpt>
      <trkpt lat="47.83388" lon="6.979">
        <ele>827</ele>
        <time>2026-05-09T05:20:53.067Z</time>
      </trkpt>
      <trkpt lat="47.83389" lon="6.97899">
        <ele>827</ele>
        <time>2026-05-09T05:20:54.066Z</time>
      </trkpt>
      <trkpt lat="47.83391" lon="6.97897">
        <ele>827</ele>
        <time>2026-05-09T05:20:55.066Z</time>
      </trkpt>
      <trkpt lat="47.83392" lon="6.97896">
        <ele>827</ele>
        <time>2026-05-09T05:20:56.066Z</time>
      </trkpt>
      <trkpt lat="47.83393" lon="6.97895">
        <ele>827</ele>
        <time>2026-05-09T05:20:57.066Z</time>
      </trkpt>
      <trkpt lat="47.83394" lon="6.97894">
        <ele>827</ele>
        <time>2026-05-09T05:20:58.067Z</time>
      </trkpt>
      <trkpt lat="47.83395" lon="6.97893">
        <ele>827</ele>
        <time>2026-05-09T05:20:59.066Z</time>
      </trkpt>
      <trkpt lat="47.83394" lon="6.97893">
        <ele>827</ele>
        <time>2026-05-09T05:21:00.066Z</time>
      </trkpt>
      <trkpt lat="47.83395" lon="6.97892">
        <ele>827</ele>
        <time>2026-05-09T05:21:01.066Z</time>
      </trkpt>
      <trkpt lat="47.83395" lon="6.97892">
        <ele>827</ele>
        <time>2026-05-09T05:21:02.066Z</time>
      </trkpt>
      <trkpt lat="47.83396" lon="6.97892">
        <ele>827</ele>
        <time>2026-05-09T05:21:03.066Z</time>
      </trkpt>
      <trkpt lat="47.83397" lon="6.97892">
        <ele>827</ele>
        <time>2026-05-09T05:21:04.067Z</time>
      </trkpt>
      <trkpt lat="47.83398" lon="6.97891">
        <ele>827</ele>
        <time>2026-05-09T05:21:05.066Z</time>
      </trkpt>
      <trkpt lat="47.83399" lon="6.9789">
        <ele>827</ele>
        <time>2026-05-09T05:21:06.067Z</time>
      </trkpt>
      <trkpt lat="47.834" lon="6.9789">
        <ele>827</ele>
        <time>2026-05-09T05:21:07.066Z</time>
      </trkpt>
      <trkpt lat="47.834" lon="6.97888">
        <ele>827</ele>
        <time>2026-05-09T05:21:08.067Z</time>
      </trkpt>
      <trkpt lat="47.834" lon="6.97886">
        <ele>827</ele>
        <time>2026-05-09T05:21:09.066Z</time>
      </trkpt>
      <trkpt lat="47.83401" lon="6.97885">
        <ele>828</ele>
        <time>2026-05-09T05:21:10.067Z</time>
      </trkpt>
      <trkpt lat="47.83401" lon="6.97883">
        <ele>828</ele>
        <time>2026-05-09T05:21:11.066Z</time>
      </trkpt>
      <trkpt lat="47.83401" lon="6.97882">
        <ele>828</ele>
        <time>2026-05-09T05:21:12.066Z</time>
      </trkpt>
      <trkpt lat="47.83402" lon="6.9788">
        <ele>828</ele>
        <time>2026-05-09T05:21:13.066Z</time>
      </trkpt>
      <trkpt lat="47.83403" lon="6.97879">
        <ele>828</ele>
        <time>2026-05-09T05:21:14.067Z</time>
      </trkpt>
      <trkpt lat="47.83403" lon="6.97878">
        <ele>829</ele>
        <time>2026-05-09T05:21:15.066Z</time>
      </trkpt>
      <trkpt lat="47.83404" lon="6.97877">
        <ele>829</ele>
        <time>2026-05-09T05:21:16.067Z</time>
      </trkpt>
      <trkpt lat="47.83405" lon="6.97876">
        <ele>829</ele>
        <time>2026-05-09T05:21:17.067Z</time>
      </trkpt>
      <trkpt lat="47.83406" lon="6.97875">
        <ele>829</ele>
        <time>2026-05-09T05:21:18.067Z</time>
      </trkpt>
      <trkpt lat="47.83407" lon="6.97874">
        <ele>829</ele>
        <time>2026-05-09T05:21:19.067Z</time>
      </trkpt>
      <trkpt lat="47.83408" lon="6.97874">
        <ele>829</ele>
        <time>2026-05-09T05:21:20.066Z</time>
      </trkpt>
      <trkpt lat="47.83409" lon="6.97874">
        <ele>829</ele>
        <time>2026-05-09T05:21:21.067Z</time>
      </trkpt>
      <trkpt lat="47.8341" lon="6.97873">
        <ele>829</ele>
        <time>2026-05-09T05:21:22.066Z</time>
      </trkpt>
      <trkpt lat="47.8341" lon="6.97873">
        <ele>829</ele>
        <time>2026-05-09T05:21:23.067Z</time>
      </trkpt>
      <trkpt lat="47.83409" lon="6.97872">
        <ele>829</ele>
        <time>2026-05-09T05:21:24.066Z</time>
      </trkpt>
      <trkpt lat="47.83409" lon="6.97871">
        <ele>829</ele>
        <time>2026-05-09T05:21:25.066Z</time>
      </trkpt>
      <trkpt lat="47.8341" lon="6.97869">
        <ele>829</ele>
        <time>2026-05-09T05:21:26.066Z</time>
      </trkpt>
      <trkpt lat="47.83411" lon="6.97868">
        <ele>829</ele>
        <time>2026-05-09T05:21:27.067Z</time>
      </trkpt>
      <trkpt lat="47.83413" lon="6.97867">
        <ele>830</ele>
        <time>2026-05-09T05:21:28.066Z</time>
      </trkpt>
      <trkpt lat="47.83414" lon="6.97866">
        <ele>830</ele>
        <time>2026-05-09T05:21:29.067Z</time>
      </trkpt>
      <trkpt lat="47.83416" lon="6.97866">
        <ele>830</ele>
        <time>2026-05-09T05:21:30.067Z</time>
      </trkpt>
      <trkpt lat="47.83417" lon="6.97865">
        <ele>831</ele>
        <time>2026-05-09T05:21:31.066Z</time>
      </trkpt>
      <trkpt lat="47.83418" lon="6.97864">
        <ele>831</ele>
        <time>2026-05-09T05:21:32.067Z</time>
      </trkpt>
      <trkpt lat="47.83418" lon="6.97863">
        <ele>832</ele>
        <time>2026-05-09T05:21:33.066Z</time>
      </trkpt>
      <trkpt lat="47.8342" lon="6.97862">
        <ele>832</ele>
        <time>2026-05-09T05:21:34.066Z</time>
      </trkpt>
      <trkpt lat="47.83422" lon="6.9786">
        <ele>833</ele>
        <time>2026-05-09T05:21:35.067Z</time>
      </trkpt>
      <trkpt lat="47.83423" lon="6.97859">
        <ele>833</ele>
        <time>2026-05-09T05:21:36.067Z</time>
      </trkpt>
      <trkpt lat="47.83424" lon="6.97858">
        <ele>834</ele>
        <time>2026-05-09T05:21:37.067Z</time>
      </trkpt>
      <trkpt lat="47.83425" lon="6.97857">
        <ele>834</ele>
        <time>2026-05-09T05:21:38.066Z</time>
      </trkpt>
      <trkpt lat="47.83426" lon="6.97855">
        <ele>834</ele>
        <time>2026-05-09T05:21:39.067Z</time>
      </trkpt>
      <trkpt lat="47.83428" lon="6.97854">
        <ele>834</ele>
        <time>2026-05-09T05:21:40.066Z</time>
      </trkpt>
      <trkpt lat="47.83429" lon="6.97853">
        <ele>834</ele>
        <time>2026-05-09T05:21:41.066Z</time>
      </trkpt>
      <trkpt lat="47.83432" lon="6.97853">
        <ele>834</ele>
        <time>2026-05-09T05:21:42.066Z</time>
      </trkpt>
      <trkpt lat="47.83434" lon="6.97853">
        <ele>834</ele>
        <time>2026-05-09T05:21:43.067Z</time>
      </trkpt>
      <trkpt lat="47.83435" lon="6.97854">
        <ele>833</ele>
        <time>2026-05-09T05:21:44.066Z</time>
      </trkpt>
      <trkpt lat="47.83437" lon="6.97853">
        <ele>833</ele>
        <time>2026-05-09T05:21:45.066Z</time>
      </trkpt>
      <trkpt lat="47.83438" lon="6.97852">
        <ele>832</ele>
        <time>2026-05-09T05:21:46.067Z</time>
      </trkpt>
      <trkpt lat="47.83439" lon="6.97851">
        <ele>832</ele>
        <time>2026-05-09T05:21:47.066Z</time>
      </trkpt>
      <trkpt lat="47.8344" lon="6.9785">
        <ele>832</ele>
        <time>2026-05-09T05:21:48.066Z</time>
      </trkpt>
      <trkpt lat="47.83441" lon="6.97849">
        <ele>832</ele>
        <time>2026-05-09T05:21:49.067Z</time>
      </trkpt>
      <trkpt lat="47.83442" lon="6.97848">
        <ele>832</ele>
        <time>2026-05-09T05:21:50.066Z</time>
      </trkpt>
      <trkpt lat="47.83443" lon="6.97848">
        <ele>832</ele>
        <time>2026-05-09T05:21:51.067Z</time>
      </trkpt>
      <trkpt lat="47.83444" lon="6.97848">
        <ele>832</ele>
        <time>2026-05-09T05:21:52.066Z</time>
      </trkpt>
      <trkpt lat="47.83446" lon="6.97848">
        <ele>832</ele>
        <time>2026-05-09T05:21:53.066Z</time>
      </trkpt>
      <trkpt lat="47.83447" lon="6.97848">
        <ele>833</ele>
        <time>2026-05-09T05:21:54.067Z</time>
      </trkpt>
      <trkpt lat="47.83447" lon="6.97848">
        <ele>833</ele>
        <time>2026-05-09T05:21:55.066Z</time>
      </trkpt>
      <trkpt lat="47.83448" lon="6.97847">
        <ele>834</ele>
        <time>2026-05-09T05:21:56.066Z</time>
      </trkpt>
      <trkpt lat="47.83449" lon="6.97847">
        <ele>834</ele>
        <time>2026-05-09T05:21:57.067Z</time>
      </trkpt>
      <trkpt lat="47.8345" lon="6.97847">
        <ele>835</ele>
        <time>2026-05-09T05:21:58.066Z</time>
      </trkpt>
      <trkpt lat="47.83451" lon="6.97847">
        <ele>836</ele>
        <time>2026-05-09T05:21:59.066Z</time>
      </trkpt>
      <trkpt lat="47.83452" lon="6.97847">
        <ele>836</ele>
        <time>2026-05-09T05:22:00.066Z</time>
      </trkpt>
      <trkpt lat="47.83453" lon="6.97847">
        <ele>837</ele>
        <time>2026-05-09T05:22:01.066Z</time>
      </trkpt>
      <trkpt lat="47.83455" lon="6.97848">
        <ele>837</ele>
        <time>2026-05-09T05:22:02.067Z</time>
      </trkpt>
      <trkpt lat="47.83456" lon="6.97848">
        <ele>837</ele>
        <time>2026-05-09T05:22:03.066Z</time>
      </trkpt>
      <trkpt lat="47.83458" lon="6.97849">
        <ele>837</ele>
        <time>2026-05-09T05:22:04.067Z</time>
      </trkpt>
      <trkpt lat="47.83459" lon="6.97849">
        <ele>838</ele>
        <time>2026-05-09T05:22:05.066Z</time>
      </trkpt>
      <trkpt lat="47.83459" lon="6.9785">
        <ele>838</ele>
        <time>2026-05-09T05:22:06.067Z</time>
      </trkpt>
      <trkpt lat="47.83459" lon="6.9785">
        <ele>838</ele>
        <time>2026-05-09T05:22:07.067Z</time>
      </trkpt>
      <trkpt lat="47.8346" lon="6.9785">
        <ele>838</ele>
        <time>2026-05-09T05:22:08.066Z</time>
      </trkpt>
      <trkpt lat="47.83462" lon="6.9785">
        <ele>839</ele>
        <time>2026-05-09T05:22:09.066Z</time>
      </trkpt>
      <trkpt lat="47.83463" lon="6.9785">
        <ele>839</ele>
        <time>2026-05-09T05:22:10.066Z</time>
      </trkpt>
      <trkpt lat="47.83464" lon="6.9785">
        <ele>839</ele>
        <time>2026-05-09T05:22:11.067Z</time>
      </trkpt>
      <trkpt lat="47.83465" lon="6.9785">
        <ele>839</ele>
        <time>2026-05-09T05:22:12.066Z</time>
      </trkpt>
      <trkpt lat="47.83467" lon="6.9785">
        <ele>840</ele>
        <time>2026-05-09T05:22:13.066Z</time>
      </trkpt>
      <trkpt lat="47.83468" lon="6.97851">
        <ele>840</ele>
        <time>2026-05-09T05:22:14.067Z</time>
      </trkpt>
      <trkpt lat="47.83469" lon="6.97852">
        <ele>840</ele>
        <time>2026-05-09T05:22:15.066Z</time>
      </trkpt>
      <trkpt lat="47.8347" lon="6.97853">
        <ele>840</ele>
        <time>2026-05-09T05:22:16.066Z</time>
      </trkpt>
      <trkpt lat="47.83472" lon="6.97853">
        <ele>841</ele>
        <time>2026-05-09T05:22:17.066Z</time>
      </trkpt>
      <trkpt lat="47.83473" lon="6.97853">
        <ele>841</ele>
        <time>2026-05-09T05:22:18.066Z</time>
      </trkpt>
      <trkpt lat="47.83474" lon="6.97854">
        <ele>841</ele>
        <time>2026-05-09T05:22:19.066Z</time>
      </trkpt>
      <trkpt lat="47.83475" lon="6.97854">
        <ele>841</ele>
        <time>2026-05-09T05:22:20.067Z</time>
      </trkpt>
      <trkpt lat="47.83477" lon="6.97855">
        <ele>841</ele>
        <time>2026-05-09T05:22:21.066Z</time>
      </trkpt>
      <trkpt lat="47.83478" lon="6.97856">
        <ele>841</ele>
        <time>2026-05-09T05:22:22.066Z</time>
      </trkpt>
      <trkpt lat="47.8348" lon="6.97856">
        <ele>841</ele>
        <time>2026-05-09T05:22:23.066Z</time>
      </trkpt>
      <trkpt lat="47.83482" lon="6.97856">
        <ele>841</ele>
        <time>2026-05-09T05:22:24.066Z</time>
      </trkpt>
      <trkpt lat="47.83483" lon="6.97855">
        <ele>841</ele>
        <time>2026-05-09T05:22:25.066Z</time>
      </trkpt>
      <trkpt lat="47.83485" lon="6.97855">
        <ele>841</ele>
        <time>2026-05-09T05:22:26.067Z</time>
      </trkpt>
      <trkpt lat="47.83486" lon="6.97855">
        <ele>841</ele>
        <time>2026-05-09T05:22:27.067Z</time>
      </trkpt>
      <trkpt lat="47.83487" lon="6.97855">
        <ele>841</ele>
        <time>2026-05-09T05:22:28.066Z</time>
      </trkpt>
      <trkpt lat="47.83487" lon="6.97855">
        <ele>841</ele>
        <time>2026-05-09T05:22:29.066Z</time>
      </trkpt>
      <trkpt lat="47.83488" lon="6.97855">
        <ele>841</ele>
        <time>2026-05-09T05:22:30.066Z</time>
      </trkpt>
      <trkpt lat="47.83488" lon="6.97855">
        <ele>841</ele>
        <time>2026-05-09T05:22:31.067Z</time>
      </trkpt>
      <trkpt lat="47.83489" lon="6.97856">
        <ele>842</ele>
        <time>2026-05-09T05:22:32.066Z</time>
      </trkpt>
      <trkpt lat="47.8349" lon="6.97856">
        <ele>842</ele>
        <time>2026-05-09T05:22:33.066Z</time>
      </trkpt>
      <trkpt lat="47.83491" lon="6.97856">
        <ele>842</ele>
        <time>2026-05-09T05:22:34.066Z</time>
      </trkpt>
      <trkpt lat="47.83492" lon="6.97857">
        <ele>843</ele>
        <time>2026-05-09T05:22:35.066Z</time>
      </trkpt>
      <trkpt lat="47.83492" lon="6.97857">
        <ele>843</ele>
        <time>2026-05-09T05:22:36.067Z</time>
      </trkpt>
      <trkpt lat="47.83494" lon="6.97858">
        <ele>843</ele>
        <time>2026-05-09T05:22:37.066Z</time>
      </trkpt>
      <trkpt lat="47.83495" lon="6.97858">
        <ele>843</ele>
        <time>2026-05-09T05:22:38.067Z</time>
      </trkpt>
      <trkpt lat="47.83496" lon="6.97858">
        <ele>843</ele>
        <time>2026-05-09T05:22:39.067Z</time>
      </trkpt>
      <trkpt lat="47.83498" lon="6.97858">
        <ele>843</ele>
        <time>2026-05-09T05:22:40.067Z</time>
      </trkpt>
      <trkpt lat="47.83498" lon="6.97859">
        <ele>843</ele>
        <time>2026-05-09T05:22:41.066Z</time>
      </trkpt>
      <trkpt lat="47.83499" lon="6.9786">
        <ele>843</ele>
        <time>2026-05-09T05:22:42.067Z</time>
      </trkpt>
      <trkpt lat="47.835" lon="6.97862">
        <ele>843</ele>
        <time>2026-05-09T05:22:43.066Z</time>
      </trkpt>
      <trkpt lat="47.835" lon="6.97864">
        <ele>843</ele>
        <time>2026-05-09T05:22:44.066Z</time>
      </trkpt>
      <trkpt lat="47.83502" lon="6.97866">
        <ele>843</ele>
        <time>2026-05-09T05:22:45.066Z</time>
      </trkpt>
      <trkpt lat="47.83503" lon="6.97867">
        <ele>843</ele>
        <time>2026-05-09T05:22:46.066Z</time>
      </trkpt>
      <trkpt lat="47.83504" lon="6.97867">
        <ele>843</ele>
        <time>2026-05-09T05:22:47.066Z</time>
      </trkpt>
      <trkpt lat="47.83506" lon="6.97868">
        <ele>843</ele>
        <time>2026-05-09T05:22:48.066Z</time>
      </trkpt>
      <trkpt lat="47.83507" lon="6.97869">
        <ele>843</ele>
        <time>2026-05-09T05:22:49.067Z</time>
      </trkpt>
      <trkpt lat="47.83508" lon="6.9787">
        <ele>843</ele>
        <time>2026-05-09T05:22:50.067Z</time>
      </trkpt>
      <trkpt lat="47.83509" lon="6.9787">
        <ele>843</ele>
        <time>2026-05-09T05:22:51.066Z</time>
      </trkpt>
      <trkpt lat="47.8351" lon="6.9787">
        <ele>843</ele>
        <time>2026-05-09T05:22:52.066Z</time>
      </trkpt>
      <trkpt lat="47.83511" lon="6.97871">
        <ele>843</ele>
        <time>2026-05-09T05:22:53.066Z</time>
      </trkpt>
      <trkpt lat="47.83513" lon="6.97871">
        <ele>843</ele>
        <time>2026-05-09T05:22:54.067Z</time>
      </trkpt>
      <trkpt lat="47.83514" lon="6.97872">
        <ele>843</ele>
        <time>2026-05-09T05:22:55.066Z</time>
      </trkpt>
      <trkpt lat="47.83515" lon="6.97872">
        <ele>842</ele>
        <time>2026-05-09T05:22:56.066Z</time>
      </trkpt>
      <trkpt lat="47.83517" lon="6.97873">
        <ele>842</ele>
        <time>2026-05-09T05:22:57.067Z</time>
      </trkpt>
      <trkpt lat="47.83518" lon="6.97874">
        <ele>842</ele>
        <time>2026-05-09T05:22:58.066Z</time>
      </trkpt>
      <trkpt lat="47.83519" lon="6.97875">
        <ele>842</ele>
        <time>2026-05-09T05:22:59.066Z</time>
      </trkpt>
      <trkpt lat="47.83521" lon="6.97876">
        <ele>842</ele>
        <time>2026-05-09T05:23:00.066Z</time>
      </trkpt>
      <trkpt lat="47.83522" lon="6.97877">
        <ele>841</ele>
        <time>2026-05-09T05:23:01.066Z</time>
      </trkpt>
      <trkpt lat="47.83524" lon="6.97878">
        <ele>841</ele>
        <time>2026-05-09T05:23:02.066Z</time>
      </trkpt>
      <trkpt lat="47.83525" lon="6.97878">
        <ele>841</ele>
        <time>2026-05-09T05:23:03.066Z</time>
      </trkpt>
      <trkpt lat="47.83526" lon="6.97879">
        <ele>841</ele>
        <time>2026-05-09T05:23:04.066Z</time>
      </trkpt>
      <trkpt lat="47.83528" lon="6.9788">
        <ele>841</ele>
        <time>2026-05-09T05:23:05.066Z</time>
      </trkpt>
      <trkpt lat="47.8353" lon="6.97881">
        <ele>841</ele>
        <time>2026-05-09T05:23:06.066Z</time>
      </trkpt>
      <trkpt lat="47.8353" lon="6.97882">
        <ele>841</ele>
        <time>2026-05-09T05:23:07.066Z</time>
      </trkpt>
      <trkpt lat="47.83531" lon="6.97883">
        <ele>841</ele>
        <time>2026-05-09T05:23:08.067Z</time>
      </trkpt>
      <trkpt lat="47.83532" lon="6.97884">
        <ele>841</ele>
        <time>2026-05-09T05:23:09.067Z</time>
      </trkpt>
      <trkpt lat="47.83533" lon="6.97885">
        <ele>841</ele>
        <time>2026-05-09T05:23:10.066Z</time>
      </trkpt>
      <trkpt lat="47.83534" lon="6.97886">
        <ele>841</ele>
        <time>2026-05-09T05:23:11.067Z</time>
      </trkpt>
      <trkpt lat="47.83535" lon="6.97886">
        <ele>841</ele>
        <time>2026-05-09T05:23:12.066Z</time>
      </trkpt>
      <trkpt lat="47.83536" lon="6.97887">
        <ele>841</ele>
        <time>2026-05-09T05:23:13.067Z</time>
      </trkpt>
      <trkpt lat="47.83537" lon="6.97888">
        <ele>841</ele>
        <time>2026-05-09T05:23:14.066Z</time>
      </trkpt>
      <trkpt lat="47.83539" lon="6.9789">
        <ele>841</ele>
        <time>2026-05-09T05:23:15.066Z</time>
      </trkpt>
      <trkpt lat="47.83541" lon="6.97891">
        <ele>842</ele>
        <time>2026-05-09T05:23:16.067Z</time>
      </trkpt>
      <trkpt lat="47.83542" lon="6.97892">
        <ele>842</ele>
        <time>2026-05-09T05:23:17.066Z</time>
      </trkpt>
      <trkpt lat="47.83544" lon="6.97894">
        <ele>842</ele>
        <time>2026-05-09T05:23:18.067Z</time>
      </trkpt>
      <trkpt lat="47.83546" lon="6.97895">
        <ele>842</ele>
        <time>2026-05-09T05:23:19.066Z</time>
      </trkpt>
      <trkpt lat="47.83548" lon="6.97897">
        <ele>843</ele>
        <time>2026-05-09T05:23:20.066Z</time>
      </trkpt>
      <trkpt lat="47.83554" lon="6.97898">
        <ele>843</ele>
        <time>2026-05-09T05:23:21.066Z</time>
      </trkpt>
      <trkpt lat="47.83556" lon="6.979">
        <ele>843</ele>
        <time>2026-05-09T05:23:22.066Z</time>
      </trkpt>
      <trkpt lat="47.83559" lon="6.97901">
        <ele>844</ele>
        <time>2026-05-09T05:23:23.066Z</time>
      </trkpt>
      <trkpt lat="47.83559" lon="6.97903">
        <ele>844</ele>
        <time>2026-05-09T05:23:24.066Z</time>
      </trkpt>
      <trkpt lat="47.8356" lon="6.97905">
        <ele>844</ele>
        <time>2026-05-09T05:23:25.066Z</time>
      </trkpt>
      <trkpt lat="47.83562" lon="6.97907">
        <ele>845</ele>
        <time>2026-05-09T05:23:26.067Z</time>
      </trkpt>
      <trkpt lat="47.83563" lon="6.97908">
        <ele>845</ele>
        <time>2026-05-09T05:23:27.066Z</time>
      </trkpt>
      <trkpt lat="47.83564" lon="6.9791">
        <ele>846</ele>
        <time>2026-05-09T05:23:28.067Z</time>
      </trkpt>
      <trkpt lat="47.83564" lon="6.97912">
        <ele>846</ele>
        <time>2026-05-09T05:23:29.066Z</time>
      </trkpt>
      <trkpt lat="47.83564" lon="6.97914">
        <ele>846</ele>
        <time>2026-05-09T05:23:30.066Z</time>
      </trkpt>
      <trkpt lat="47.83564" lon="6.97914">
        <ele>847</ele>
        <time>2026-05-09T05:23:31.066Z</time>
      </trkpt>
      <trkpt lat="47.83565" lon="6.97915">
        <ele>847</ele>
        <time>2026-05-09T05:23:32.066Z</time>
      </trkpt>
      <trkpt lat="47.83565" lon="6.97916">
        <ele>847</ele>
        <time>2026-05-09T05:23:33.066Z</time>
      </trkpt>
      <trkpt lat="47.83565" lon="6.97917">
        <ele>847</ele>
        <time>2026-05-09T05:23:34.066Z</time>
      </trkpt>
      <trkpt lat="47.83565" lon="6.97919">
        <ele>847</ele>
        <time>2026-05-09T05:23:35.066Z</time>
      </trkpt>
      <trkpt lat="47.83566" lon="6.9792">
        <ele>847</ele>
        <time>2026-05-09T05:23:36.066Z</time>
      </trkpt>
      <trkpt lat="47.83566" lon="6.97921">
        <ele>847</ele>
        <time>2026-05-09T05:23:37.067Z</time>
      </trkpt>
      <trkpt lat="47.83565" lon="6.97922">
        <ele>847</ele>
        <time>2026-05-09T05:23:38.066Z</time>
      </trkpt>
      <trkpt lat="47.83565" lon="6.97924">
        <ele>846</ele>
        <time>2026-05-09T05:23:39.066Z</time>
      </trkpt>
      <trkpt lat="47.83565" lon="6.97925">
        <ele>846</ele>
        <time>2026-05-09T05:23:40.066Z</time>
      </trkpt>
      <trkpt lat="47.83565" lon="6.97927">
        <ele>845</ele>
        <time>2026-05-09T05:23:41.066Z</time>
      </trkpt>
      <trkpt lat="47.83564" lon="6.97929">
        <ele>845</ele>
        <time>2026-05-09T05:23:42.066Z</time>
      </trkpt>
      <trkpt lat="47.83563" lon="6.9793">
        <ele>844</ele>
        <time>2026-05-09T05:23:43.066Z</time>
      </trkpt>
      <trkpt lat="47.83563" lon="6.97932">
        <ele>844</ele>
        <time>2026-05-09T05:23:44.066Z</time>
      </trkpt>
      <trkpt lat="47.83563" lon="6.97934">
        <ele>844</ele>
        <time>2026-05-09T05:23:45.066Z</time>
      </trkpt>
      <trkpt lat="47.83563" lon="6.97935">
        <ele>843</ele>
        <time>2026-05-09T05:23:46.066Z</time>
      </trkpt>
      <trkpt lat="47.83563" lon="6.97937">
        <ele>843</ele>
        <time>2026-05-09T05:23:47.066Z</time>
      </trkpt>
      <trkpt lat="47.83563" lon="6.97938">
        <ele>842</ele>
        <time>2026-05-09T05:23:48.066Z</time>
      </trkpt>
      <trkpt lat="47.83564" lon="6.9794">
        <ele>842</ele>
        <time>2026-05-09T05:23:49.067Z</time>
      </trkpt>
      <trkpt lat="47.83564" lon="6.97942">
        <ele>841</ele>
        <time>2026-05-09T05:23:50.066Z</time>
      </trkpt>
      <trkpt lat="47.83564" lon="6.97943">
        <ele>841</ele>
        <time>2026-05-09T05:23:51.066Z</time>
      </trkpt>
      <trkpt lat="47.83564" lon="6.97945">
        <ele>840</ele>
        <time>2026-05-09T05:23:52.066Z</time>
      </trkpt>
      <trkpt lat="47.83564" lon="6.97946">
        <ele>840</ele>
        <time>2026-05-09T05:23:53.066Z</time>
      </trkpt>
      <trkpt lat="47.83563" lon="6.97948">
        <ele>840</ele>
        <time>2026-05-09T05:23:54.066Z</time>
      </trkpt>
      <trkpt lat="47.83563" lon="6.9795">
        <ele>840</ele>
        <time>2026-05-09T05:23:55.067Z</time>
      </trkpt>
      <trkpt lat="47.83563" lon="6.97952">
        <ele>840</ele>
        <time>2026-05-09T05:23:56.067Z</time>
      </trkpt>
      <trkpt lat="47.83562" lon="6.97954">
        <ele>840</ele>
        <time>2026-05-09T05:23:57.066Z</time>
      </trkpt>
      <trkpt lat="47.83562" lon="6.97956">
        <ele>840</ele>
        <time>2026-05-09T05:23:58.066Z</time>
      </trkpt>
      <trkpt lat="47.83562" lon="6.97958">
        <ele>841</ele>
        <time>2026-05-09T05:23:59.066Z</time>
      </trkpt>
      <trkpt lat="47.83562" lon="6.9796">
        <ele>841</ele>
        <time>2026-05-09T05:24:00.066Z</time>
      </trkpt>
      <trkpt lat="47.83562" lon="6.97961">
        <ele>841</ele>
        <time>2026-05-09T05:24:01.067Z</time>
      </trkpt>
      <trkpt lat="47.83562" lon="6.97962">
        <ele>841</ele>
        <time>2026-05-09T05:24:02.066Z</time>
      </trkpt>
      <trkpt lat="47.83562" lon="6.97963">
        <ele>841</ele>
        <time>2026-05-09T05:24:03.067Z</time>
      </trkpt>
      <trkpt lat="47.83562" lon="6.97963">
        <ele>842</ele>
        <time>2026-05-09T05:24:04.066Z</time>
      </trkpt>
      <trkpt lat="47.83562" lon="6.97963">
        <ele>842</ele>
        <time>2026-05-09T05:24:05.067Z</time>
      </trkpt>
      <trkpt lat="47.83559" lon="6.97969">
        <ele>844</ele>
        <time>2026-05-09T05:24:28.343Z</time>
      </trkpt>
      <trkpt lat="47.83559" lon="6.97971">
        <ele>844</ele>
        <time>2026-05-09T05:24:29.342Z</time>
      </trkpt>
      <trkpt lat="47.83558" lon="6.97972">
        <ele>844</ele>
        <time>2026-05-09T05:24:30.343Z</time>
      </trkpt>
      <trkpt lat="47.83558" lon="6.97974">
        <ele>844</ele>
        <time>2026-05-09T05:24:31.342Z</time>
      </trkpt>
      <trkpt lat="47.83558" lon="6.97975">
        <ele>845</ele>
        <time>2026-05-09T05:24:32.343Z</time>
      </trkpt>
      <trkpt lat="47.83557" lon="6.97976">
        <ele>845</ele>
        <time>2026-05-09T05:24:33.342Z</time>
      </trkpt>
      <trkpt lat="47.83556" lon="6.97977">
        <ele>845</ele>
        <time>2026-05-09T05:24:34.343Z</time>
      </trkpt>
      <trkpt lat="47.83556" lon="6.97979">
        <ele>844</ele>
        <time>2026-05-09T05:24:35.342Z</time>
      </trkpt>
      <trkpt lat="47.83555" lon="6.9798">
        <ele>844</ele>
        <time>2026-05-09T05:24:36.342Z</time>
      </trkpt>
      <trkpt lat="47.83554" lon="6.97981">
        <ele>844</ele>
        <time>2026-05-09T05:24:37.342Z</time>
      </trkpt>
      <trkpt lat="47.83553" lon="6.97983">
        <ele>844</ele>
        <time>2026-05-09T05:24:38.343Z</time>
      </trkpt>
      <trkpt lat="47.83552" lon="6.97984">
        <ele>843</ele>
        <time>2026-05-09T05:24:39.342Z</time>
      </trkpt>
      <trkpt lat="47.83551" lon="6.97984">
        <ele>843</ele>
        <time>2026-05-09T05:24:40.343Z</time>
      </trkpt>
      <trkpt lat="47.83551" lon="6.97984">
        <ele>843</ele>
        <time>2026-05-09T05:24:41.343Z</time>
      </trkpt>
      <trkpt lat="47.83551" lon="6.97984">
        <ele>842</ele>
        <time>2026-05-09T05:24:42.342Z</time>
      </trkpt>
      <trkpt lat="47.83548" lon="6.97988">
        <ele>838</ele>
        <time>2026-05-09T05:25:00.330Z</time>
      </trkpt>
      <trkpt lat="47.83548" lon="6.9799">
        <ele>838</ele>
        <time>2026-05-09T05:25:01.330Z</time>
      </trkpt>
      <trkpt lat="47.83547" lon="6.97991">
        <ele>838</ele>
        <time>2026-05-09T05:25:02.330Z</time>
      </trkpt>
      <trkpt lat="47.83547" lon="6.97992">
        <ele>839</ele>
        <time>2026-05-09T05:25:03.331Z</time>
      </trkpt>
      <trkpt lat="47.83546" lon="6.97994">
        <ele>840</ele>
        <time>2026-05-09T05:25:04.330Z</time>
      </trkpt>
      <trkpt lat="47.83545" lon="6.97995">
        <ele>840</ele>
        <time>2026-05-09T05:25:05.330Z</time>
      </trkpt>
      <trkpt lat="47.83545" lon="6.97997">
        <ele>841</ele>
        <time>2026-05-09T05:25:06.330Z</time>
      </trkpt>
      <trkpt lat="47.83544" lon="6.97999">
        <ele>841</ele>
        <time>2026-05-09T05:25:07.331Z</time>
      </trkpt>
      <trkpt lat="47.83543" lon="6.98001">
        <ele>842</ele>
        <time>2026-05-09T05:25:08.330Z</time>
      </trkpt>
      <trkpt lat="47.83542" lon="6.98003">
        <ele>842</ele>
        <time>2026-05-09T05:25:09.331Z</time>
      </trkpt>
      <trkpt lat="47.83542" lon="6.98005">
        <ele>843</ele>
        <time>2026-05-09T05:25:10.330Z</time>
      </trkpt>
      <trkpt lat="47.83541" lon="6.98007">
        <ele>843</ele>
        <time>2026-05-09T05:25:11.330Z</time>
      </trkpt>
      <trkpt lat="47.83541" lon="6.98009">
        <ele>844</ele>
        <time>2026-05-09T05:25:12.331Z</time>
      </trkpt>
      <trkpt lat="47.8354" lon="6.9801">
        <ele>844</ele>
        <time>2026-05-09T05:25:13.330Z</time>
      </trkpt>
      <trkpt lat="47.8354" lon="6.98012">
        <ele>845</ele>
        <time>2026-05-09T05:25:14.331Z</time>
      </trkpt>
      <trkpt lat="47.83539" lon="6.98013">
        <ele>845</ele>
        <time>2026-05-09T05:25:15.330Z</time>
      </trkpt>
      <trkpt lat="47.83539" lon="6.98014">
        <ele>846</ele>
        <time>2026-05-09T05:25:16.331Z</time>
      </trkpt>
      <trkpt lat="47.83538" lon="6.98015">
        <ele>847</ele>
        <time>2026-05-09T05:25:17.330Z</time>
      </trkpt>
      <trkpt lat="47.83538" lon="6.98017">
        <ele>848</ele>
        <time>2026-05-09T05:25:18.331Z</time>
      </trkpt>
      <trkpt lat="47.83538" lon="6.98018">
        <ele>849</ele>
        <time>2026-05-09T05:25:19.330Z</time>
      </trkpt>
      <trkpt lat="47.83538" lon="6.9802">
        <ele>849</ele>
        <time>2026-05-09T05:25:20.331Z</time>
      </trkpt>
      <trkpt lat="47.83537" lon="6.98021">
        <ele>849</ele>
        <time>2026-05-09T05:25:21.330Z</time>
      </trkpt>
      <trkpt lat="47.83537" lon="6.98023">
        <ele>850</ele>
        <time>2026-05-09T05:25:22.331Z</time>
      </trkpt>
      <trkpt lat="47.83537" lon="6.98024">
        <ele>850</ele>
        <time>2026-05-09T05:25:23.330Z</time>
      </trkpt>
      <trkpt lat="47.83536" lon="6.98025">
        <ele>850</ele>
        <time>2026-05-09T05:25:24.331Z</time>
      </trkpt>
      <trkpt lat="47.83536" lon="6.98026">
        <ele>850</ele>
        <time>2026-05-09T05:25:25.330Z</time>
      </trkpt>
      <trkpt lat="47.83535" lon="6.98027">
        <ele>851</ele>
        <time>2026-05-09T05:25:26.331Z</time>
      </trkpt>
      <trkpt lat="47.83535" lon="6.98029">
        <ele>851</ele>
        <time>2026-05-09T05:25:27.330Z</time>
      </trkpt>
      <trkpt lat="47.83534" lon="6.9803">
        <ele>850</ele>
        <time>2026-05-09T05:25:28.331Z</time>
      </trkpt>
      <trkpt lat="47.83534" lon="6.98031">
        <ele>850</ele>
        <time>2026-05-09T05:25:29.331Z</time>
      </trkpt>
      <trkpt lat="47.83533" lon="6.98033">
        <ele>850</ele>
        <time>2026-05-09T05:25:30.330Z</time>
      </trkpt>
      <trkpt lat="47.83532" lon="6.98034">
        <ele>849</ele>
        <time>2026-05-09T05:25:31.331Z</time>
      </trkpt>
      <trkpt lat="47.83531" lon="6.98035">
        <ele>849</ele>
        <time>2026-05-09T05:25:32.330Z</time>
      </trkpt>
      <trkpt lat="47.83531" lon="6.98037">
        <ele>849</ele>
        <time>2026-05-09T05:25:33.331Z</time>
      </trkpt>
      <trkpt lat="47.8353" lon="6.98038">
        <ele>848</ele>
        <time>2026-05-09T05:25:34.330Z</time>
      </trkpt>
      <trkpt lat="47.83529" lon="6.98039">
        <ele>848</ele>
        <time>2026-05-09T05:25:35.331Z</time>
      </trkpt>
      <trkpt lat="47.83529" lon="6.98041">
        <ele>847</ele>
        <time>2026-05-09T05:25:36.330Z</time>
      </trkpt>
      <trkpt lat="47.83528" lon="6.98043">
        <ele>847</ele>
        <time>2026-05-09T05:25:37.331Z</time>
      </trkpt>
      <trkpt lat="47.83528" lon="6.98044">
        <ele>847</ele>
        <time>2026-05-09T05:25:38.330Z</time>
      </trkpt>
      <trkpt lat="47.83526" lon="6.98048">
        <ele>847</ele>
        <time>2026-05-09T05:25:39.331Z</time>
      </trkpt>
      <trkpt lat="47.83526" lon="6.98051">
        <ele>847</ele>
        <time>2026-05-09T05:25:40.330Z</time>
      </trkpt>
      <trkpt lat="47.83526" lon="6.98054">
        <ele>847</ele>
        <time>2026-05-09T05:25:41.331Z</time>
      </trkpt>
      <trkpt lat="47.83525" lon="6.98056">
        <ele>848</ele>
        <time>2026-05-09T05:25:42.330Z</time>
      </trkpt>
      <trkpt lat="47.83524" lon="6.98057">
        <ele>848</ele>
        <time>2026-05-09T05:25:43.331Z</time>
      </trkpt>
      <trkpt lat="47.83523" lon="6.98058">
        <ele>848</ele>
        <time>2026-05-09T05:25:44.330Z</time>
      </trkpt>
      <trkpt lat="47.83523" lon="6.98058">
        <ele>849</ele>
        <time>2026-05-09T05:25:45.330Z</time>
      </trkpt>
      <trkpt lat="47.83523" lon="6.98059">
        <ele>849</ele>
        <time>2026-05-09T05:25:46.330Z</time>
      </trkpt>
      <trkpt lat="47.83523" lon="6.98061">
        <ele>850</ele>
        <time>2026-05-09T05:25:47.330Z</time>
      </trkpt>
      <trkpt lat="47.83523" lon="6.98063">
        <ele>850</ele>
        <time>2026-05-09T05:25:48.331Z</time>
      </trkpt>
      <trkpt lat="47.83522" lon="6.98065">
        <ele>850</ele>
        <time>2026-05-09T05:25:49.330Z</time>
      </trkpt>
      <trkpt lat="47.83522" lon="6.98065">
        <ele>850</ele>
        <time>2026-05-09T05:25:50.331Z</time>
      </trkpt>
      <trkpt lat="47.83522" lon="6.98066">
        <ele>850</ele>
        <time>2026-05-09T05:25:51.330Z</time>
      </trkpt>
      <trkpt lat="47.83522" lon="6.98066">
        <ele>850</ele>
        <time>2026-05-09T05:25:52.331Z</time>
      </trkpt>
      <trkpt lat="47.83518" lon="6.98072">
        <ele>851</ele>
        <time>2026-05-09T05:25:58.651Z</time>
      </trkpt>
      <trkpt lat="47.83517" lon="6.98074">
        <ele>851</ele>
        <time>2026-05-09T05:25:59.650Z</time>
      </trkpt>
      <trkpt lat="47.83517" lon="6.98076">
        <ele>852</ele>
        <time>2026-05-09T05:26:00.650Z</time>
      </trkpt>
      <trkpt lat="47.83517" lon="6.98078">
        <ele>852</ele>
        <time>2026-05-09T05:26:01.650Z</time>
      </trkpt>
      <trkpt lat="47.83516" lon="6.9808">
        <ele>852</ele>
        <time>2026-05-09T05:26:02.650Z</time>
      </trkpt>
      <trkpt lat="47.83516" lon="6.98081">
        <ele>853</ele>
        <time>2026-05-09T05:26:03.651Z</time>
      </trkpt>
      <trkpt lat="47.83516" lon="6.98083">
        <ele>853</ele>
        <time>2026-05-09T05:26:04.650Z</time>
      </trkpt>
      <trkpt lat="47.83515" lon="6.98085">
        <ele>853</ele>
        <time>2026-05-09T05:26:05.651Z</time>
      </trkpt>
      <trkpt lat="47.83515" lon="6.98086">
        <ele>853</ele>
        <time>2026-05-09T05:26:06.651Z</time>
      </trkpt>
      <trkpt lat="47.83515" lon="6.98088">
        <ele>852</ele>
        <time>2026-05-09T05:26:07.650Z</time>
      </trkpt>
      <trkpt lat="47.83514" lon="6.9809">
        <ele>852</ele>
        <time>2026-05-09T05:26:08.650Z</time>
      </trkpt>
      <trkpt lat="47.83514" lon="6.98091">
        <ele>852</ele>
        <time>2026-05-09T05:26:09.651Z</time>
      </trkpt>
      <trkpt lat="47.83513" lon="6.98092">
        <ele>852</ele>
        <time>2026-05-09T05:26:10.650Z</time>
      </trkpt>
      <trkpt lat="47.83513" lon="6.98093">
        <ele>852</ele>
        <time>2026-05-09T05:26:11.651Z</time>
      </trkpt>
      <trkpt lat="47.83512" lon="6.98095">
        <ele>852</ele>
        <time>2026-05-09T05:26:12.650Z</time>
      </trkpt>
      <trkpt lat="47.83512" lon="6.98096">
        <ele>852</ele>
        <time>2026-05-09T05:26:13.650Z</time>
      </trkpt>
      <trkpt lat="47.83512" lon="6.98098">
        <ele>852</ele>
        <time>2026-05-09T05:26:14.651Z</time>
      </trkpt>
      <trkpt lat="47.83511" lon="6.98099">
        <ele>852</ele>
        <time>2026-05-09T05:26:15.650Z</time>
      </trkpt>
      <trkpt lat="47.83511" lon="6.98101">
        <ele>851</ele>
        <time>2026-05-09T05:26:16.650Z</time>
      </trkpt>
      <trkpt lat="47.83512" lon="6.98102">
        <ele>851</ele>
        <time>2026-05-09T05:26:17.651Z</time>
      </trkpt>
      <trkpt lat="47.83513" lon="6.98103">
        <ele>852</ele>
        <time>2026-05-09T05:26:18.650Z</time>
      </trkpt>
      <trkpt lat="47.83513" lon="6.98104">
        <ele>852</ele>
        <time>2026-05-09T05:26:19.651Z</time>
      </trkpt>
      <trkpt lat="47.83513" lon="6.98105">
        <ele>851</ele>
        <time>2026-05-09T05:26:20.650Z</time>
      </trkpt>
      <trkpt lat="47.83512" lon="6.98107">
        <ele>851</ele>
        <time>2026-05-09T05:26:21.650Z</time>
      </trkpt>
      <trkpt lat="47.83511" lon="6.98109">
        <ele>851</ele>
        <time>2026-05-09T05:26:22.651Z</time>
      </trkpt>
      <trkpt lat="47.83511" lon="6.9811">
        <ele>851</ele>
        <time>2026-05-09T05:26:23.651Z</time>
      </trkpt>
      <trkpt lat="47.83511" lon="6.98111">
        <ele>851</ele>
        <time>2026-05-09T05:26:24.650Z</time>
      </trkpt>
      <trkpt lat="47.83511" lon="6.98112">
        <ele>851</ele>
        <time>2026-05-09T05:26:25.650Z</time>
      </trkpt>
      <trkpt lat="47.83511" lon="6.98114">
        <ele>851</ele>
        <time>2026-05-09T05:26:26.650Z</time>
      </trkpt>
      <trkpt lat="47.83511" lon="6.98115">
        <ele>851</ele>
        <time>2026-05-09T05:26:27.650Z</time>
      </trkpt>
      <trkpt lat="47.83511" lon="6.98118">
        <ele>852</ele>
        <time>2026-05-09T05:26:28.651Z</time>
      </trkpt>
      <trkpt lat="47.83511" lon="6.9812">
        <ele>852</ele>
        <time>2026-05-09T05:26:29.650Z</time>
      </trkpt>
      <trkpt lat="47.83511" lon="6.98122">
        <ele>852</ele>
        <time>2026-05-09T05:26:30.650Z</time>
      </trkpt>
      <trkpt lat="47.8351" lon="6.98123">
        <ele>852</ele>
        <time>2026-05-09T05:26:31.650Z</time>
      </trkpt>
      <trkpt lat="47.8351" lon="6.98125">
        <ele>852</ele>
        <time>2026-05-09T05:26:32.650Z</time>
      </trkpt>
      <trkpt lat="47.8351" lon="6.98126">
        <ele>851</ele>
        <time>2026-05-09T05:26:33.650Z</time>
      </trkpt>
      <trkpt lat="47.83509" lon="6.98128">
        <ele>851</ele>
        <time>2026-05-09T05:26:34.650Z</time>
      </trkpt>
      <trkpt lat="47.83508" lon="6.9813">
        <ele>851</ele>
        <time>2026-05-09T05:26:35.650Z</time>
      </trkpt>
      <trkpt lat="47.83507" lon="6.98132">
        <ele>851</ele>
        <time>2026-05-09T05:26:36.650Z</time>
      </trkpt>
      <trkpt lat="47.83507" lon="6.98134">
        <ele>851</ele>
        <time>2026-05-09T05:26:37.651Z</time>
      </trkpt>
      <trkpt lat="47.83506" lon="6.98136">
        <ele>851</ele>
        <time>2026-05-09T05:26:38.651Z</time>
      </trkpt>
      <trkpt lat="47.83506" lon="6.98137">
        <ele>851</ele>
        <time>2026-05-09T05:26:39.650Z</time>
      </trkpt>
      <trkpt lat="47.83506" lon="6.98139">
        <ele>851</ele>
        <time>2026-05-09T05:26:40.650Z</time>
      </trkpt>
      <trkpt lat="47.83506" lon="6.98139">
        <ele>851</ele>
        <time>2026-05-09T05:26:41.650Z</time>
      </trkpt>
      <trkpt lat="47.83506" lon="6.9814">
        <ele>851</ele>
        <time>2026-05-09T05:26:42.651Z</time>
      </trkpt>
      <trkpt lat="47.83506" lon="6.98141">
        <ele>851</ele>
        <time>2026-05-09T05:26:43.650Z</time>
      </trkpt>
      <trkpt lat="47.83506" lon="6.98143">
        <ele>850</ele>
        <time>2026-05-09T05:26:44.651Z</time>
      </trkpt>
      <trkpt lat="47.83506" lon="6.98144">
        <ele>850</ele>
        <time>2026-05-09T05:26:45.650Z</time>
      </trkpt>
      <trkpt lat="47.83505" lon="6.98145">
        <ele>850</ele>
        <time>2026-05-09T05:26:46.650Z</time>
      </trkpt>
      <trkpt lat="47.83505" lon="6.98146">
        <ele>849</ele>
        <time>2026-05-09T05:26:47.651Z</time>
      </trkpt>
      <trkpt lat="47.83504" lon="6.98147">
        <ele>849</ele>
        <time>2026-05-09T05:26:48.650Z</time>
      </trkpt>
      <trkpt lat="47.83504" lon="6.98148">
        <ele>849</ele>
        <time>2026-05-09T05:26:49.651Z</time>
      </trkpt>
      <trkpt lat="47.83503" lon="6.9815">
        <ele>849</ele>
        <time>2026-05-09T05:26:50.650Z</time>
      </trkpt>
      <trkpt lat="47.83504" lon="6.98151">
        <ele>849</ele>
        <time>2026-05-09T05:26:51.651Z</time>
      </trkpt>
      <trkpt lat="47.83504" lon="6.98151">
        <ele>849</ele>
        <time>2026-05-09T05:26:52.651Z</time>
      </trkpt>
      <trkpt lat="47.83504" lon="6.98153">
        <ele>849</ele>
        <time>2026-05-09T05:26:53.650Z</time>
      </trkpt>
      <trkpt lat="47.83504" lon="6.98155">
        <ele>849</ele>
        <time>2026-05-09T05:26:54.651Z</time>
      </trkpt>
      <trkpt lat="47.83504" lon="6.98157">
        <ele>849</ele>
        <time>2026-05-09T05:26:55.650Z</time>
      </trkpt>
      <trkpt lat="47.83504" lon="6.9816">
        <ele>849</ele>
        <time>2026-05-09T05:26:56.651Z</time>
      </trkpt>
      <trkpt lat="47.83505" lon="6.98162">
        <ele>850</ele>
        <time>2026-05-09T05:26:57.650Z</time>
      </trkpt>
      <trkpt lat="47.83505" lon="6.98163">
        <ele>850</ele>
        <time>2026-05-09T05:26:58.651Z</time>
      </trkpt>
      <trkpt lat="47.83504" lon="6.98165">
        <ele>851</ele>
        <time>2026-05-09T05:26:59.650Z</time>
      </trkpt>
      <trkpt lat="47.83503" lon="6.98166">
        <ele>852</ele>
        <time>2026-05-09T05:27:00.650Z</time>
      </trkpt>
      <trkpt lat="47.83503" lon="6.98168">
        <ele>852</ele>
        <time>2026-05-09T05:27:01.651Z</time>
      </trkpt>
      <trkpt lat="47.83503" lon="6.9817">
        <ele>853</ele>
        <time>2026-05-09T05:27:02.650Z</time>
      </trkpt>
      <trkpt lat="47.83502" lon="6.98172">
        <ele>853</ele>
        <time>2026-05-09T05:27:03.651Z</time>
      </trkpt>
      <trkpt lat="47.83502" lon="6.98174">
        <ele>853</ele>
        <time>2026-05-09T05:27:04.650Z</time>
      </trkpt>
      <trkpt lat="47.83501" lon="6.98176">
        <ele>854</ele>
        <time>2026-05-09T05:27:05.651Z</time>
      </trkpt>
      <trkpt lat="47.835" lon="6.98178">
        <ele>854</ele>
        <time>2026-05-09T05:27:06.651Z</time>
      </trkpt>
      <trkpt lat="47.835" lon="6.98179">
        <ele>855</ele>
        <time>2026-05-09T05:27:07.650Z</time>
      </trkpt>
      <trkpt lat="47.83501" lon="6.9818">
        <ele>855</ele>
        <time>2026-05-09T05:27:08.651Z</time>
      </trkpt>
      <trkpt lat="47.83502" lon="6.98182">
        <ele>855</ele>
        <time>2026-05-09T05:27:09.650Z</time>
      </trkpt>
      <trkpt lat="47.83503" lon="6.98183">
        <ele>855</ele>
        <time>2026-05-09T05:27:10.650Z</time>
      </trkpt>
      <trkpt lat="47.83503" lon="6.98185">
        <ele>855</ele>
        <time>2026-05-09T05:27:11.650Z</time>
      </trkpt>
      <trkpt lat="47.83503" lon="6.98186">
        <ele>856</ele>
        <time>2026-05-09T05:27:12.651Z</time>
      </trkpt>
      <trkpt lat="47.83503" lon="6.98187">
        <ele>856</ele>
        <time>2026-05-09T05:27:13.650Z</time>
      </trkpt>
      <trkpt lat="47.83504" lon="6.98189">
        <ele>856</ele>
        <time>2026-05-09T05:27:14.651Z</time>
      </trkpt>
      <trkpt lat="47.83505" lon="6.98191">
        <ele>856</ele>
        <time>2026-05-09T05:27:15.650Z</time>
      </trkpt>
      <trkpt lat="47.83506" lon="6.98193">
        <ele>856</ele>
        <time>2026-05-09T05:27:16.651Z</time>
      </trkpt>
      <trkpt lat="47.83507" lon="6.98195">
        <ele>856</ele>
        <time>2026-05-09T05:27:17.650Z</time>
      </trkpt>
      <trkpt lat="47.83507" lon="6.98197">
        <ele>855</ele>
        <time>2026-05-09T05:27:18.651Z</time>
      </trkpt>
      <trkpt lat="47.83507" lon="6.982">
        <ele>855</ele>
        <time>2026-05-09T05:27:19.650Z</time>
      </trkpt>
      <trkpt lat="47.83507" lon="6.98202">
        <ele>855</ele>
        <time>2026-05-09T05:27:20.651Z</time>
      </trkpt>
      <trkpt lat="47.83508" lon="6.98204">
        <ele>855</ele>
        <time>2026-05-09T05:27:21.650Z</time>
      </trkpt>
      <trkpt lat="47.83508" lon="6.98206">
        <ele>856</ele>
        <time>2026-05-09T05:27:22.651Z</time>
      </trkpt>
      <trkpt lat="47.83508" lon="6.98208">
        <ele>856</ele>
        <time>2026-05-09T05:27:23.651Z</time>
      </trkpt>
      <trkpt lat="47.83508" lon="6.98209">
        <ele>856</ele>
        <time>2026-05-09T05:27:24.650Z</time>
      </trkpt>
      <trkpt lat="47.83508" lon="6.9821">
        <ele>856</ele>
        <time>2026-05-09T05:27:25.651Z</time>
      </trkpt>
      <trkpt lat="47.83508" lon="6.98212">
        <ele>857</ele>
        <time>2026-05-09T05:27:26.651Z</time>
      </trkpt>
      <trkpt lat="47.83509" lon="6.98213">
        <ele>857</ele>
        <time>2026-05-09T05:27:27.651Z</time>
      </trkpt>
      <trkpt lat="47.83509" lon="6.98215">
        <ele>857</ele>
        <time>2026-05-09T05:27:28.650Z</time>
      </trkpt>
      <trkpt lat="47.83509" lon="6.98217">
        <ele>857</ele>
        <time>2026-05-09T05:27:29.651Z</time>
      </trkpt>
      <trkpt lat="47.83509" lon="6.98219">
        <ele>857</ele>
        <time>2026-05-09T05:27:30.650Z</time>
      </trkpt>
      <trkpt lat="47.8351" lon="6.98221">
        <ele>858</ele>
        <time>2026-05-09T05:27:31.651Z</time>
      </trkpt>
      <trkpt lat="47.83511" lon="6.98223">
        <ele>858</ele>
        <time>2026-05-09T05:27:32.650Z</time>
      </trkpt>
      <trkpt lat="47.83511" lon="6.98224">
        <ele>858</ele>
        <time>2026-05-09T05:27:33.650Z</time>
      </trkpt>
      <trkpt lat="47.83511" lon="6.98226">
        <ele>858</ele>
        <time>2026-05-09T05:27:34.651Z</time>
      </trkpt>
      <trkpt lat="47.83511" lon="6.98228">
        <ele>858</ele>
        <time>2026-05-09T05:27:35.650Z</time>
      </trkpt>
      <trkpt lat="47.83511" lon="6.98229">
        <ele>858</ele>
        <time>2026-05-09T05:27:36.651Z</time>
      </trkpt>
      <trkpt lat="47.83511" lon="6.98231">
        <ele>858</ele>
        <time>2026-05-09T05:27:37.650Z</time>
      </trkpt>
      <trkpt lat="47.83511" lon="6.98233">
        <ele>858</ele>
        <time>2026-05-09T05:27:38.651Z</time>
      </trkpt>
      <trkpt lat="47.83511" lon="6.98235">
        <ele>858</ele>
        <time>2026-05-09T05:27:39.650Z</time>
      </trkpt>
      <trkpt lat="47.83511" lon="6.98237">
        <ele>858</ele>
        <time>2026-05-09T05:27:40.651Z</time>
      </trkpt>
      <trkpt lat="47.83511" lon="6.98239">
        <ele>858</ele>
        <time>2026-05-09T05:27:41.650Z</time>
      </trkpt>
      <trkpt lat="47.83511" lon="6.98241">
        <ele>858</ele>
        <time>2026-05-09T05:27:42.651Z</time>
      </trkpt>
      <trkpt lat="47.83512" lon="6.98243">
        <ele>858</ele>
        <time>2026-05-09T05:27:43.650Z</time>
      </trkpt>
      <trkpt lat="47.83512" lon="6.98245">
        <ele>858</ele>
        <time>2026-05-09T05:27:44.650Z</time>
      </trkpt>
      <trkpt lat="47.83512" lon="6.98247">
        <ele>858</ele>
        <time>2026-05-09T05:27:45.650Z</time>
      </trkpt>
      <trkpt lat="47.83512" lon="6.98249">
        <ele>858</ele>
        <time>2026-05-09T05:27:46.651Z</time>
      </trkpt>
      <trkpt lat="47.83512" lon="6.9825">
        <ele>858</ele>
        <time>2026-05-09T05:27:47.650Z</time>
      </trkpt>
      <trkpt lat="47.83512" lon="6.98252">
        <ele>858</ele>
        <time>2026-05-09T05:27:48.651Z</time>
      </trkpt>
      <trkpt lat="47.83513" lon="6.98253">
        <ele>858</ele>
        <time>2026-05-09T05:27:49.651Z</time>
      </trkpt>
      <trkpt lat="47.83513" lon="6.98255">
        <ele>858</ele>
        <time>2026-05-09T05:27:50.650Z</time>
      </trkpt>
      <trkpt lat="47.83513" lon="6.98257">
        <ele>858</ele>
        <time>2026-05-09T05:27:51.650Z</time>
      </trkpt>
      <trkpt lat="47.83514" lon="6.98259">
        <ele>859</ele>
        <time>2026-05-09T05:27:52.651Z</time>
      </trkpt>
      <trkpt lat="47.83514" lon="6.9826">
        <ele>859</ele>
        <time>2026-05-09T05:27:53.650Z</time>
      </trkpt>
      <trkpt lat="47.83514" lon="6.98262">
        <ele>859</ele>
        <time>2026-05-09T05:27:54.651Z</time>
      </trkpt>
      <trkpt lat="47.83515" lon="6.98264">
        <ele>859</ele>
        <time>2026-05-09T05:27:55.650Z</time>
      </trkpt>
      <trkpt lat="47.83515" lon="6.98265">
        <ele>859</ele>
        <time>2026-05-09T05:27:56.650Z</time>
      </trkpt>
      <trkpt lat="47.83515" lon="6.98267">
        <ele>859</ele>
        <time>2026-05-09T05:27:57.651Z</time>
      </trkpt>
      <trkpt lat="47.83515" lon="6.98269">
        <ele>860</ele>
        <time>2026-05-09T05:27:58.650Z</time>
      </trkpt>
      <trkpt lat="47.83514" lon="6.9827">
        <ele>860</ele>
        <time>2026-05-09T05:27:59.651Z</time>
      </trkpt>
      <trkpt lat="47.83514" lon="6.98272">
        <ele>861</ele>
        <time>2026-05-09T05:28:00.650Z</time>
      </trkpt>
      <trkpt lat="47.83514" lon="6.98274">
        <ele>862</ele>
        <time>2026-05-09T05:28:01.651Z</time>
      </trkpt>
      <trkpt lat="47.83513" lon="6.98276">
        <ele>862</ele>
        <time>2026-05-09T05:28:02.650Z</time>
      </trkpt>
      <trkpt lat="47.83513" lon="6.98278">
        <ele>862</ele>
        <time>2026-05-09T05:28:03.651Z</time>
      </trkpt>
      <trkpt lat="47.83513" lon="6.98279">
        <ele>863</ele>
        <time>2026-05-09T05:28:04.650Z</time>
      </trkpt>
      <trkpt lat="47.83513" lon="6.98282">
        <ele>863</ele>
        <time>2026-05-09T05:28:05.651Z</time>
      </trkpt>
      <trkpt lat="47.83512" lon="6.98284">
        <ele>863</ele>
        <time>2026-05-09T05:28:06.650Z</time>
      </trkpt>
      <trkpt lat="47.83511" lon="6.98286">
        <ele>863</ele>
        <time>2026-05-09T05:28:07.651Z</time>
      </trkpt>
      <trkpt lat="47.83511" lon="6.98288">
        <ele>863</ele>
        <time>2026-05-09T05:28:08.650Z</time>
      </trkpt>
      <trkpt lat="47.83511" lon="6.9829">
        <ele>863</ele>
        <time>2026-05-09T05:28:09.651Z</time>
      </trkpt>
      <trkpt lat="47.83509" lon="6.98292">
        <ele>863</ele>
        <time>2026-05-09T05:28:10.650Z</time>
      </trkpt>
      <trkpt lat="47.83509" lon="6.98294">
        <ele>863</ele>
        <time>2026-05-09T05:28:11.651Z</time>
      </trkpt>
      <trkpt lat="47.83509" lon="6.98295">
        <ele>863</ele>
        <time>2026-05-09T05:28:12.650Z</time>
      </trkpt>
      <trkpt lat="47.83508" lon="6.98297">
        <ele>863</ele>
        <time>2026-05-09T05:28:13.651Z</time>
      </trkpt>
      <trkpt lat="47.83508" lon="6.98298">
        <ele>863</ele>
        <time>2026-05-09T05:28:14.651Z</time>
      </trkpt>
      <trkpt lat="47.83508" lon="6.98299">
        <ele>864</ele>
        <time>2026-05-09T05:28:15.650Z</time>
      </trkpt>
      <trkpt lat="47.83507" lon="6.98301">
        <ele>864</ele>
        <time>2026-05-09T05:28:16.651Z</time>
      </trkpt>
      <trkpt lat="47.83507" lon="6.98302">
        <ele>864</ele>
        <time>2026-05-09T05:28:17.650Z</time>
      </trkpt>
      <trkpt lat="47.83506" lon="6.98304">
        <ele>865</ele>
        <time>2026-05-09T05:28:18.651Z</time>
      </trkpt>
      <trkpt lat="47.83505" lon="6.98305">
        <ele>865</ele>
        <time>2026-05-09T05:28:19.650Z</time>
      </trkpt>
      <trkpt lat="47.83504" lon="6.98307">
        <ele>866</ele>
        <time>2026-05-09T05:28:20.650Z</time>
      </trkpt>
      <trkpt lat="47.83504" lon="6.98308">
        <ele>866</ele>
        <time>2026-05-09T05:28:21.651Z</time>
      </trkpt>
      <trkpt lat="47.83503" lon="6.9831">
        <ele>866</ele>
        <time>2026-05-09T05:28:22.651Z</time>
      </trkpt>
      <trkpt lat="47.83503" lon="6.98312">
        <ele>867</ele>
        <time>2026-05-09T05:28:23.651Z</time>
      </trkpt>
      <trkpt lat="47.83502" lon="6.98313">
        <ele>867</ele>
        <time>2026-05-09T05:28:24.651Z</time>
      </trkpt>
      <trkpt lat="47.83502" lon="6.98316">
        <ele>867</ele>
        <time>2026-05-09T05:28:25.650Z</time>
      </trkpt>
      <trkpt lat="47.83501" lon="6.98318">
        <ele>867</ele>
        <time>2026-05-09T05:28:26.651Z</time>
      </trkpt>
      <trkpt lat="47.83501" lon="6.98319">
        <ele>867</ele>
        <time>2026-05-09T05:28:27.650Z</time>
      </trkpt>
      <trkpt lat="47.835" lon="6.98321">
        <ele>867</ele>
        <time>2026-05-09T05:28:28.651Z</time>
      </trkpt>
      <trkpt lat="47.83499" lon="6.98323">
        <ele>867</ele>
        <time>2026-05-09T05:28:29.650Z</time>
      </trkpt>
      <trkpt lat="47.83499" lon="6.98324">
        <ele>868</ele>
        <time>2026-05-09T05:28:30.651Z</time>
      </trkpt>
      <trkpt lat="47.83499" lon="6.98326">
        <ele>868</ele>
        <time>2026-05-09T05:28:31.651Z</time>
      </trkpt>
      <trkpt lat="47.83498" lon="6.98328">
        <ele>868</ele>
        <time>2026-05-09T05:28:32.651Z</time>
      </trkpt>
      <trkpt lat="47.83497" lon="6.98329">
        <ele>869</ele>
        <time>2026-05-09T05:28:33.651Z</time>
      </trkpt>
      <trkpt lat="47.83496" lon="6.9833">
        <ele>869</ele>
        <time>2026-05-09T05:28:34.650Z</time>
      </trkpt>
      <trkpt lat="47.83496" lon="6.98331">
        <ele>869</ele>
        <time>2026-05-09T05:28:35.651Z</time>
      </trkpt>
      <trkpt lat="47.83496" lon="6.98332">
        <ele>869</ele>
        <time>2026-05-09T05:28:36.650Z</time>
      </trkpt>
      <trkpt lat="47.83495" lon="6.98333">
        <ele>869</ele>
        <time>2026-05-09T05:28:37.651Z</time>
      </trkpt>
      <trkpt lat="47.83495" lon="6.98333">
        <ele>869</ele>
        <time>2026-05-09T05:28:38.650Z</time>
      </trkpt>
      <trkpt lat="47.83495" lon="6.98334">
        <ele>869</ele>
        <time>2026-05-09T05:28:39.651Z</time>
      </trkpt>
      <trkpt lat="47.83496" lon="6.98334">
        <ele>869</ele>
        <time>2026-05-09T05:28:40.650Z</time>
      </trkpt>
      <trkpt lat="47.83496" lon="6.98335">
        <ele>870</ele>
        <time>2026-05-09T05:28:41.651Z</time>
      </trkpt>
      <trkpt lat="47.83497" lon="6.98336">
        <ele>870</ele>
        <time>2026-05-09T05:28:42.650Z</time>
      </trkpt>
      <trkpt lat="47.83497" lon="6.98336">
        <ele>870</ele>
        <time>2026-05-09T05:28:43.651Z</time>
      </trkpt>
      <trkpt lat="47.83498" lon="6.98337">
        <ele>870</ele>
        <time>2026-05-09T05:28:44.650Z</time>
      </trkpt>
      <trkpt lat="47.83499" lon="6.98338">
        <ele>870</ele>
        <time>2026-05-09T05:28:45.651Z</time>
      </trkpt>
      <trkpt lat="47.835" lon="6.98338">
        <ele>870</ele>
        <time>2026-05-09T05:28:46.650Z</time>
      </trkpt>
      <trkpt lat="47.83501" lon="6.98339">
        <ele>870</ele>
        <time>2026-05-09T05:28:47.651Z</time>
      </trkpt>
      <trkpt lat="47.83502" lon="6.9834">
        <ele>870</ele>
        <time>2026-05-09T05:28:48.650Z</time>
      </trkpt>
      <trkpt lat="47.83503" lon="6.98342">
        <ele>870</ele>
        <time>2026-05-09T05:28:49.651Z</time>
      </trkpt>
      <trkpt lat="47.83504" lon="6.98343">
        <ele>870</ele>
        <time>2026-05-09T05:28:50.650Z</time>
      </trkpt>
      <trkpt lat="47.83505" lon="6.98344">
        <ele>870</ele>
        <time>2026-05-09T05:28:51.651Z</time>
      </trkpt>
      <trkpt lat="47.83505" lon="6.98344">
        <ele>870</ele>
        <time>2026-05-09T05:28:52.650Z</time>
      </trkpt>
      <trkpt lat="47.83505" lon="6.98344">
        <ele>870</ele>
        <time>2026-05-09T05:28:53.650Z</time>
      </trkpt>
      <trkpt lat="47.83506" lon="6.98346">
        <ele>870</ele>
        <time>2026-05-09T05:29:00.962Z</time>
      </trkpt>
      <trkpt lat="47.83507" lon="6.98347">
        <ele>870</ele>
        <time>2026-05-09T05:29:01.961Z</time>
      </trkpt>
      <trkpt lat="47.83508" lon="6.98348">
        <ele>870</ele>
        <time>2026-05-09T05:29:02.961Z</time>
      </trkpt>
      <trkpt lat="47.83508" lon="6.98348">
        <ele>870</ele>
        <time>2026-05-09T05:29:03.961Z</time>
      </trkpt>
      <trkpt lat="47.83508" lon="6.98347">
        <ele>870</ele>
        <time>2026-05-09T05:29:04.962Z</time>
      </trkpt>
      <trkpt lat="47.83508" lon="6.98347">
        <ele>870</ele>
        <time>2026-05-09T05:29:05.961Z</time>
      </trkpt>
      <trkpt lat="47.83508" lon="6.98348">
        <ele>869</ele>
        <time>2026-05-09T05:29:06.962Z</time>
      </trkpt>
      <trkpt lat="47.83508" lon="6.98347">
        <ele>869</ele>
        <time>2026-05-09T05:29:07.961Z</time>
      </trkpt>
      <trkpt lat="47.83508" lon="6.98347">
        <ele>869</ele>
        <time>2026-05-09T05:29:08.961Z</time>
      </trkpt>
      <trkpt lat="47.83508" lon="6.98347">
        <ele>869</ele>
        <time>2026-05-09T05:29:09.961Z</time>
      </trkpt>
      <trkpt lat="47.83507" lon="6.98346">
        <ele>868</ele>
        <time>2026-05-09T05:29:10.961Z</time>
      </trkpt>
      <trkpt lat="47.83507" lon="6.98346">
        <ele>868</ele>
        <time>2026-05-09T05:29:11.961Z</time>
      </trkpt>
      <trkpt lat="47.83507" lon="6.98346">
        <ele>868</ele>
        <time>2026-05-09T05:29:12.961Z</time>
      </trkpt>
      <trkpt lat="47.83507" lon="6.98346">
        <ele>868</ele>
        <time>2026-05-09T05:29:13.961Z</time>
      </trkpt>
      <trkpt lat="47.83507" lon="6.98347">
        <ele>868</ele>
        <time>2026-05-09T05:29:14.961Z</time>
      </trkpt>
      <trkpt lat="47.83507" lon="6.98347">
        <ele>868</ele>
        <time>2026-05-09T05:29:15.961Z</time>
      </trkpt>
      <trkpt lat="47.83507" lon="6.98347">
        <ele>867</ele>
        <time>2026-05-09T05:29:16.961Z</time>
      </trkpt>
      <trkpt lat="47.83507" lon="6.98348">
        <ele>867</ele>
        <time>2026-05-09T05:29:17.962Z</time>
      </trkpt>
      <trkpt lat="47.83508" lon="6.98348">
        <ele>867</ele>
        <time>2026-05-09T05:29:18.961Z</time>
      </trkpt>
      <trkpt lat="47.8351" lon="6.98349">
        <ele>867</ele>
        <time>2026-05-09T05:29:19.961Z</time>
      </trkpt>
      <trkpt lat="47.8351" lon="6.9835">
        <ele>867</ele>
        <time>2026-05-09T05:29:20.961Z</time>
      </trkpt>
      <trkpt lat="47.83511" lon="6.9835">
        <ele>867</ele>
        <time>2026-05-09T05:29:21.961Z</time>
      </trkpt>
      <trkpt lat="47.83511" lon="6.98348">
        <ele>867</ele>
        <time>2026-05-09T05:29:22.962Z</time>
      </trkpt>
      <trkpt lat="47.83512" lon="6.98348">
        <ele>867</ele>
        <time>2026-05-09T05:29:23.961Z</time>
      </trkpt>
      <trkpt lat="47.83512" lon="6.98348">
        <ele>867</ele>
        <time>2026-05-09T05:29:24.961Z</time>
      </trkpt>
      <trkpt lat="47.83513" lon="6.98348">
        <ele>867</ele>
        <time>2026-05-09T05:29:25.961Z</time>
      </trkpt>
      <trkpt lat="47.83514" lon="6.98348">
        <ele>867</ele>
        <time>2026-05-09T05:29:26.962Z</time>
      </trkpt>
      <trkpt lat="47.83515" lon="6.98349">
        <ele>867</ele>
        <time>2026-05-09T05:29:27.961Z</time>
      </trkpt>
      <trkpt lat="47.83516" lon="6.9835">
        <ele>867</ele>
        <time>2026-05-09T05:29:28.961Z</time>
      </trkpt>
      <trkpt lat="47.83517" lon="6.98351">
        <ele>867</ele>
        <time>2026-05-09T05:29:29.961Z</time>
      </trkpt>
      <trkpt lat="47.83517" lon="6.98352">
        <ele>867</ele>
        <time>2026-05-09T05:29:30.961Z</time>
      </trkpt>
      <trkpt lat="47.83517" lon="6.98352">
        <ele>867</ele>
        <time>2026-05-09T05:29:31.961Z</time>
      </trkpt>
      <trkpt lat="47.83519" lon="6.98353">
        <ele>867</ele>
        <time>2026-05-09T05:29:32.962Z</time>
      </trkpt>
      <trkpt lat="47.8352" lon="6.98354">
        <ele>867</ele>
        <time>2026-05-09T05:29:33.961Z</time>
      </trkpt>
      <trkpt lat="47.83521" lon="6.98355">
        <ele>868</ele>
        <time>2026-05-09T05:29:34.961Z</time>
      </trkpt>
      <trkpt lat="47.83522" lon="6.98355">
        <ele>868</ele>
        <time>2026-05-09T05:29:35.961Z</time>
      </trkpt>
      <trkpt lat="47.83522" lon="6.98355">
        <ele>868</ele>
        <time>2026-05-09T05:29:36.961Z</time>
      </trkpt>
      <trkpt lat="47.83523" lon="6.98355">
        <ele>868</ele>
        <time>2026-05-09T05:29:37.961Z</time>
      </trkpt>
      <trkpt lat="47.83524" lon="6.98355">
        <ele>868</ele>
        <time>2026-05-09T05:29:38.961Z</time>
      </trkpt>
      <trkpt lat="47.83525" lon="6.98355">
        <ele>868</ele>
        <time>2026-05-09T05:29:39.962Z</time>
      </trkpt>
      <trkpt lat="47.83526" lon="6.98355">
        <ele>868</ele>
        <time>2026-05-09T05:29:40.961Z</time>
      </trkpt>
      <trkpt lat="47.83526" lon="6.98355">
        <ele>868</ele>
        <time>2026-05-09T05:29:41.961Z</time>
      </trkpt>
      <trkpt lat="47.83527" lon="6.98356">
        <ele>868</ele>
        <time>2026-05-09T05:29:42.961Z</time>
      </trkpt>
      <trkpt lat="47.83528" lon="6.98356">
        <ele>868</ele>
        <time>2026-05-09T05:29:43.962Z</time>
      </trkpt>
      <trkpt lat="47.83529" lon="6.98357">
        <ele>868</ele>
        <time>2026-05-09T05:29:44.961Z</time>
      </trkpt>
      <trkpt lat="47.8353" lon="6.98357">
        <ele>868</ele>
        <time>2026-05-09T05:29:45.961Z</time>
      </trkpt>
      <trkpt lat="47.83531" lon="6.98357">
        <ele>869</ele>
        <time>2026-05-09T05:29:46.961Z</time>
      </trkpt>
      <trkpt lat="47.83532" lon="6.98357">
        <ele>869</ele>
        <time>2026-05-09T05:29:47.961Z</time>
      </trkpt>
      <trkpt lat="47.83532" lon="6.98357">
        <ele>869</ele>
        <time>2026-05-09T05:29:48.961Z</time>
      </trkpt>
      <trkpt lat="47.83533" lon="6.98358">
        <ele>869</ele>
        <time>2026-05-09T05:29:49.961Z</time>
      </trkpt>
      <trkpt lat="47.83533" lon="6.98358">
        <ele>869</ele>
        <time>2026-05-09T05:29:50.961Z</time>
      </trkpt>
      <trkpt lat="47.83534" lon="6.98359">
        <ele>869</ele>
        <time>2026-05-09T05:29:51.961Z</time>
      </trkpt>
      <trkpt lat="47.83535" lon="6.98359">
        <ele>869</ele>
        <time>2026-05-09T05:29:52.961Z</time>
      </trkpt>
      <trkpt lat="47.83535" lon="6.9836">
        <ele>869</ele>
        <time>2026-05-09T05:29:53.961Z</time>
      </trkpt>
      <trkpt lat="47.83536" lon="6.9836">
        <ele>870</ele>
        <time>2026-05-09T05:29:54.961Z</time>
      </trkpt>
      <trkpt lat="47.83537" lon="6.98361">
        <ele>870</ele>
        <time>2026-05-09T05:29:55.961Z</time>
      </trkpt>
      <trkpt lat="47.83538" lon="6.98362">
        <ele>870</ele>
        <time>2026-05-09T05:29:56.962Z</time>
      </trkpt>
      <trkpt lat="47.83539" lon="6.98362">
        <ele>870</ele>
        <time>2026-05-09T05:29:57.961Z</time>
      </trkpt>
      <trkpt lat="47.8354" lon="6.98362">
        <ele>870</ele>
        <time>2026-05-09T05:29:58.961Z</time>
      </trkpt>
      <trkpt lat="47.83541" lon="6.98362">
        <ele>870</ele>
        <time>2026-05-09T05:29:59.962Z</time>
      </trkpt>
      <trkpt lat="47.83542" lon="6.98362">
        <ele>871</ele>
        <time>2026-05-09T05:30:00.961Z</time>
      </trkpt>
      <trkpt lat="47.83543" lon="6.98363">
        <ele>871</ele>
        <time>2026-05-09T05:30:01.961Z</time>
      </trkpt>
      <trkpt lat="47.83544" lon="6.98364">
        <ele>871</ele>
        <time>2026-05-09T05:30:02.961Z</time>
      </trkpt>
      <trkpt lat="47.83545" lon="6.98365">
        <ele>871</ele>
        <time>2026-05-09T05:30:03.961Z</time>
      </trkpt>
      <trkpt lat="47.83545" lon="6.98366">
        <ele>870</ele>
        <time>2026-05-09T05:30:04.961Z</time>
      </trkpt>
      <trkpt lat="47.83546" lon="6.98368">
        <ele>870</ele>
        <time>2026-05-09T05:30:05.961Z</time>
      </trkpt>
      <trkpt lat="47.83547" lon="6.98369">
        <ele>870</ele>
        <time>2026-05-09T05:30:06.962Z</time>
      </trkpt>
      <trkpt lat="47.83547" lon="6.9837">
        <ele>870</ele>
        <time>2026-05-09T05:30:07.961Z</time>
      </trkpt>
      <trkpt lat="47.83549" lon="6.98372">
        <ele>870</ele>
        <time>2026-05-09T05:30:08.962Z</time>
      </trkpt>
      <trkpt lat="47.8355" lon="6.98372">
        <ele>870</ele>
        <time>2026-05-09T05:30:09.961Z</time>
      </trkpt>
      <trkpt lat="47.8355" lon="6.98373">
        <ele>870</ele>
        <time>2026-05-09T05:30:10.961Z</time>
      </trkpt>
      <trkpt lat="47.83551" lon="6.98373">
        <ele>869</ele>
        <time>2026-05-09T05:30:11.962Z</time>
      </trkpt>
      <trkpt lat="47.83551" lon="6.98373">
        <ele>869</ele>
        <time>2026-05-09T05:30:12.961Z</time>
      </trkpt>
      <trkpt lat="47.83552" lon="6.98374">
        <ele>869</ele>
        <time>2026-05-09T05:30:13.961Z</time>
      </trkpt>
      <trkpt lat="47.83553" lon="6.98375">
        <ele>868</ele>
        <time>2026-05-09T05:30:14.961Z</time>
      </trkpt>
      <trkpt lat="47.83554" lon="6.98376">
        <ele>868</ele>
        <time>2026-05-09T05:30:15.961Z</time>
      </trkpt>
      <trkpt lat="47.83555" lon="6.98377">
        <ele>867</ele>
        <time>2026-05-09T05:30:16.962Z</time>
      </trkpt>
      <trkpt lat="47.83556" lon="6.98379">
        <ele>867</ele>
        <time>2026-05-09T05:30:17.961Z</time>
      </trkpt>
      <trkpt lat="47.83558" lon="6.9838">
        <ele>867</ele>
        <time>2026-05-09T05:30:18.961Z</time>
      </trkpt>
      <trkpt lat="47.83559" lon="6.98381">
        <ele>867</ele>
        <time>2026-05-09T05:30:19.961Z</time>
      </trkpt>
      <trkpt lat="47.83559" lon="6.98383">
        <ele>867</ele>
        <time>2026-05-09T05:30:20.961Z</time>
      </trkpt>
      <trkpt lat="47.83559" lon="6.98384">
        <ele>866</ele>
        <time>2026-05-09T05:30:21.961Z</time>
      </trkpt>
      <trkpt lat="47.8356" lon="6.98386">
        <ele>866</ele>
        <time>2026-05-09T05:30:22.961Z</time>
      </trkpt>
      <trkpt lat="47.83561" lon="6.98387">
        <ele>866</ele>
        <time>2026-05-09T05:30:23.961Z</time>
      </trkpt>
      <trkpt lat="47.83562" lon="6.98389">
        <ele>866</ele>
        <time>2026-05-09T05:30:24.961Z</time>
      </trkpt>
      <trkpt lat="47.83561" lon="6.98391">
        <ele>867</ele>
        <time>2026-05-09T05:30:25.961Z</time>
      </trkpt>
      <trkpt lat="47.83561" lon="6.98393">
        <ele>866</ele>
        <time>2026-05-09T05:30:26.961Z</time>
      </trkpt>
      <trkpt lat="47.83561" lon="6.98394">
        <ele>866</ele>
        <time>2026-05-09T05:30:27.961Z</time>
      </trkpt>
      <trkpt lat="47.83562" lon="6.98396">
        <ele>867</ele>
        <time>2026-05-09T05:30:28.962Z</time>
      </trkpt>
      <trkpt lat="47.83561" lon="6.98397">
        <ele>866</ele>
        <time>2026-05-09T05:30:29.961Z</time>
      </trkpt>
      <trkpt lat="47.83562" lon="6.98399">
        <ele>866</ele>
        <time>2026-05-09T05:30:30.961Z</time>
      </trkpt>
      <trkpt lat="47.83563" lon="6.984">
        <ele>866</ele>
        <time>2026-05-09T05:30:31.961Z</time>
      </trkpt>
      <trkpt lat="47.83563" lon="6.98401">
        <ele>866</ele>
        <time>2026-05-09T05:30:32.961Z</time>
      </trkpt>
      <trkpt lat="47.83564" lon="6.98402">
        <ele>866</ele>
        <time>2026-05-09T05:30:33.962Z</time>
      </trkpt>
      <trkpt lat="47.83565" lon="6.98403">
        <ele>866</ele>
        <time>2026-05-09T05:30:34.961Z</time>
      </trkpt>
      <trkpt lat="47.83565" lon="6.98404">
        <ele>866</ele>
        <time>2026-05-09T05:30:35.961Z</time>
      </trkpt>
      <trkpt lat="47.83566" lon="6.98405">
        <ele>866</ele>
        <time>2026-05-09T05:30:36.961Z</time>
      </trkpt>
      <trkpt lat="47.83567" lon="6.98407">
        <ele>866</ele>
        <time>2026-05-09T05:30:37.962Z</time>
      </trkpt>
      <trkpt lat="47.83567" lon="6.98409">
        <ele>867</ele>
        <time>2026-05-09T05:30:38.961Z</time>
      </trkpt>
      <trkpt lat="47.83568" lon="6.9841">
        <ele>867</ele>
        <time>2026-05-09T05:30:39.961Z</time>
      </trkpt>
      <trkpt lat="47.83569" lon="6.98412">
        <ele>867</ele>
        <time>2026-05-09T05:30:40.962Z</time>
      </trkpt>
      <trkpt lat="47.8357" lon="6.98413">
        <ele>868</ele>
        <time>2026-05-09T05:30:41.961Z</time>
      </trkpt>
      <trkpt lat="47.83571" lon="6.98415">
        <ele>869</ele>
        <time>2026-05-09T05:30:42.961Z</time>
      </trkpt>
      <trkpt lat="47.83572" lon="6.98417">
        <ele>870</ele>
        <time>2026-05-09T05:30:43.962Z</time>
      </trkpt>
      <trkpt lat="47.83573" lon="6.98419">
        <ele>871</ele>
        <time>2026-05-09T05:30:44.961Z</time>
      </trkpt>
      <trkpt lat="47.83574" lon="6.9842">
        <ele>872</ele>
        <time>2026-05-09T05:30:45.962Z</time>
      </trkpt>
      <trkpt lat="47.83574" lon="6.9842">
        <ele>872</ele>
        <time>2026-05-09T05:30:46.961Z</time>
      </trkpt>
      <trkpt lat="47.83575" lon="6.98423">
        <ele>873</ele>
        <time>2026-05-09T05:30:47.962Z</time>
      </trkpt>
      <trkpt lat="47.83575" lon="6.98425">
        <ele>874</ele>
        <time>2026-05-09T05:30:48.961Z</time>
      </trkpt>
      <trkpt lat="47.83575" lon="6.98426">
        <ele>874</ele>
        <time>2026-05-09T05:30:49.961Z</time>
      </trkpt>
      <trkpt lat="47.83576" lon="6.98427">
        <ele>874</ele>
        <time>2026-05-09T05:30:50.961Z</time>
      </trkpt>
      <trkpt lat="47.83577" lon="6.98428">
        <ele>874</ele>
        <time>2026-05-09T05:30:51.961Z</time>
      </trkpt>
      <trkpt lat="47.83578" lon="6.9843">
        <ele>874</ele>
        <time>2026-05-09T05:30:52.961Z</time>
      </trkpt>
      <trkpt lat="47.83579" lon="6.98432">
        <ele>874</ele>
        <time>2026-05-09T05:30:53.961Z</time>
      </trkpt>
      <trkpt lat="47.8358" lon="6.98434">
        <ele>874</ele>
        <time>2026-05-09T05:30:54.961Z</time>
      </trkpt>
      <trkpt lat="47.83581" lon="6.98435">
        <ele>874</ele>
        <time>2026-05-09T05:30:55.961Z</time>
      </trkpt>
      <trkpt lat="47.83581" lon="6.98436">
        <ele>873</ele>
        <time>2026-05-09T05:30:56.962Z</time>
      </trkpt>
      <trkpt lat="47.83582" lon="6.98437">
        <ele>873</ele>
        <time>2026-05-09T05:30:57.961Z</time>
      </trkpt>
      <trkpt lat="47.83583" lon="6.98438">
        <ele>873</ele>
        <time>2026-05-09T05:30:58.962Z</time>
      </trkpt>
      <trkpt lat="47.83583" lon="6.98439">
        <ele>873</ele>
        <time>2026-05-09T05:30:59.961Z</time>
      </trkpt>
      <trkpt lat="47.83584" lon="6.9844">
        <ele>873</ele>
        <time>2026-05-09T05:31:00.961Z</time>
      </trkpt>
      <trkpt lat="47.83584" lon="6.98441">
        <ele>873</ele>
        <time>2026-05-09T05:31:01.961Z</time>
      </trkpt>
      <trkpt lat="47.83585" lon="6.98442">
        <ele>874</ele>
        <time>2026-05-09T05:31:02.961Z</time>
      </trkpt>
      <trkpt lat="47.83586" lon="6.98443">
        <ele>874</ele>
        <time>2026-05-09T05:31:03.961Z</time>
      </trkpt>
      <trkpt lat="47.83587" lon="6.98444">
        <ele>874</ele>
        <time>2026-05-09T05:31:04.961Z</time>
      </trkpt>
      <trkpt lat="47.83587" lon="6.98445">
        <ele>874</ele>
        <time>2026-05-09T05:31:05.961Z</time>
      </trkpt>
      <trkpt lat="47.83587" lon="6.98446">
        <ele>874</ele>
        <time>2026-05-09T05:31:06.961Z</time>
      </trkpt>
      <trkpt lat="47.83588" lon="6.98447">
        <ele>874</ele>
        <time>2026-05-09T05:31:07.962Z</time>
      </trkpt>
      <trkpt lat="47.83588" lon="6.98448">
        <ele>874</ele>
        <time>2026-05-09T05:31:08.961Z</time>
      </trkpt>
      <trkpt lat="47.83589" lon="6.98449">
        <ele>873</ele>
        <time>2026-05-09T05:31:09.961Z</time>
      </trkpt>
      <trkpt lat="47.8359" lon="6.9845">
        <ele>873</ele>
        <time>2026-05-09T05:31:10.961Z</time>
      </trkpt>
      <trkpt lat="47.83591" lon="6.98452">
        <ele>873</ele>
        <time>2026-05-09T05:31:11.961Z</time>
      </trkpt>
      <trkpt lat="47.83592" lon="6.98453">
        <ele>873</ele>
        <time>2026-05-09T05:31:12.961Z</time>
      </trkpt>
      <trkpt lat="47.83593" lon="6.98455">
        <ele>873</ele>
        <time>2026-05-09T05:31:13.962Z</time>
      </trkpt>
      <trkpt lat="47.83593" lon="6.98456">
        <ele>874</ele>
        <time>2026-05-09T05:31:14.961Z</time>
      </trkpt>
      <trkpt lat="47.83593" lon="6.98456">
        <ele>874</ele>
        <time>2026-05-09T05:31:15.962Z</time>
      </trkpt>
      <trkpt lat="47.83595" lon="6.98458">
        <ele>874</ele>
        <time>2026-05-09T05:31:16.962Z</time>
      </trkpt>
      <trkpt lat="47.83595" lon="6.98458">
        <ele>874</ele>
        <time>2026-05-09T05:31:17.961Z</time>
      </trkpt>
      <trkpt lat="47.83596" lon="6.9846">
        <ele>874</ele>
        <time>2026-05-09T05:31:18.961Z</time>
      </trkpt>
      <trkpt lat="47.83596" lon="6.98461">
        <ele>874</ele>
        <time>2026-05-09T05:31:19.961Z</time>
      </trkpt>
      <trkpt lat="47.83597" lon="6.98463">
        <ele>874</ele>
        <time>2026-05-09T05:31:20.962Z</time>
      </trkpt>
      <trkpt lat="47.83598" lon="6.98466">
        <ele>875</ele>
        <time>2026-05-09T05:31:21.961Z</time>
      </trkpt>
      <trkpt lat="47.83599" lon="6.98468">
        <ele>875</ele>
        <time>2026-05-09T05:31:22.961Z</time>
      </trkpt>
      <trkpt lat="47.83599" lon="6.9847">
        <ele>875</ele>
        <time>2026-05-09T05:31:23.961Z</time>
      </trkpt>
      <trkpt lat="47.836" lon="6.98472">
        <ele>876</ele>
        <time>2026-05-09T05:31:24.961Z</time>
      </trkpt>
      <trkpt lat="47.83601" lon="6.98474">
        <ele>876</ele>
        <time>2026-05-09T05:31:25.961Z</time>
      </trkpt>
      <trkpt lat="47.83602" lon="6.98475">
        <ele>876</ele>
        <time>2026-05-09T05:31:26.961Z</time>
      </trkpt>
      <trkpt lat="47.83602" lon="6.98477">
        <ele>876</ele>
        <time>2026-05-09T05:31:27.962Z</time>
      </trkpt>
      <trkpt lat="47.83602" lon="6.98478">
        <ele>877</ele>
        <time>2026-05-09T05:31:28.962Z</time>
      </trkpt>
      <trkpt lat="47.83602" lon="6.9848">
        <ele>877</ele>
        <time>2026-05-09T05:31:29.962Z</time>
      </trkpt>
      <trkpt lat="47.83602" lon="6.98481">
        <ele>877</ele>
        <time>2026-05-09T05:31:30.962Z</time>
      </trkpt>
      <trkpt lat="47.83603" lon="6.98482">
        <ele>877</ele>
        <time>2026-05-09T05:31:31.961Z</time>
      </trkpt>
      <trkpt lat="47.83603" lon="6.98483">
        <ele>877</ele>
        <time>2026-05-09T05:31:32.962Z</time>
      </trkpt>
      <trkpt lat="47.83604" lon="6.98484">
        <ele>877</ele>
        <time>2026-05-09T05:31:33.961Z</time>
      </trkpt>
      <trkpt lat="47.83604" lon="6.98485">
        <ele>878</ele>
        <time>2026-05-09T05:31:34.962Z</time>
      </trkpt>
      <trkpt lat="47.83605" lon="6.98488">
        <ele>878</ele>
        <time>2026-05-09T05:31:35.961Z</time>
      </trkpt>
      <trkpt lat="47.83606" lon="6.98491">
        <ele>878</ele>
        <time>2026-05-09T05:31:36.961Z</time>
      </trkpt>
      <trkpt lat="47.83607" lon="6.98492">
        <ele>878</ele>
        <time>2026-05-09T05:31:37.961Z</time>
      </trkpt>
      <trkpt lat="47.83607" lon="6.98494">
        <ele>878</ele>
        <time>2026-05-09T05:31:38.961Z</time>
      </trkpt>
      <trkpt lat="47.83608" lon="6.98496">
        <ele>878</ele>
        <time>2026-05-09T05:31:39.961Z</time>
      </trkpt>
      <trkpt lat="47.83608" lon="6.98497">
        <ele>879</ele>
        <time>2026-05-09T05:31:40.961Z</time>
      </trkpt>
      <trkpt lat="47.83609" lon="6.98498">
        <ele>879</ele>
        <time>2026-05-09T05:31:41.961Z</time>
      </trkpt>
      <trkpt lat="47.8361" lon="6.98499">
        <ele>879</ele>
        <time>2026-05-09T05:31:42.961Z</time>
      </trkpt>
      <trkpt lat="47.8361" lon="6.985">
        <ele>880</ele>
        <time>2026-05-09T05:31:43.962Z</time>
      </trkpt>
      <trkpt lat="47.83611" lon="6.98501">
        <ele>880</ele>
        <time>2026-05-09T05:31:44.962Z</time>
      </trkpt>
      <trkpt lat="47.83611" lon="6.98502">
        <ele>880</ele>
        <time>2026-05-09T05:31:45.962Z</time>
      </trkpt>
      <trkpt lat="47.83612" lon="6.98503">
        <ele>880</ele>
        <time>2026-05-09T05:31:46.961Z</time>
      </trkpt>
      <trkpt lat="47.83613" lon="6.98504">
        <ele>881</ele>
        <time>2026-05-09T05:31:47.961Z</time>
      </trkpt>
      <trkpt lat="47.83614" lon="6.98505">
        <ele>881</ele>
        <time>2026-05-09T05:31:48.961Z</time>
      </trkpt>
      <trkpt lat="47.83615" lon="6.98507">
        <ele>881</ele>
        <time>2026-05-09T05:31:49.961Z</time>
      </trkpt>
      <trkpt lat="47.83616" lon="6.98508">
        <ele>881</ele>
        <time>2026-05-09T05:31:50.962Z</time>
      </trkpt>
      <trkpt lat="47.83617" lon="6.98508">
        <ele>881</ele>
        <time>2026-05-09T05:31:51.961Z</time>
      </trkpt>
      <trkpt lat="47.83618" lon="6.98508">
        <ele>881</ele>
        <time>2026-05-09T05:31:52.961Z</time>
      </trkpt>
      <trkpt lat="47.83618" lon="6.98507">
        <ele>881</ele>
        <time>2026-05-09T05:31:53.962Z</time>
      </trkpt>
      <trkpt lat="47.83619" lon="6.98506">
        <ele>881</ele>
        <time>2026-05-09T05:31:54.961Z</time>
      </trkpt>
      <trkpt lat="47.83619" lon="6.98504">
        <ele>881</ele>
        <time>2026-05-09T05:31:55.961Z</time>
      </trkpt>
      <trkpt lat="47.8362" lon="6.98502">
        <ele>881</ele>
        <time>2026-05-09T05:31:56.961Z</time>
      </trkpt>
      <trkpt lat="47.83621" lon="6.985">
        <ele>881</ele>
        <time>2026-05-09T05:31:57.961Z</time>
      </trkpt>
      <trkpt lat="47.83621" lon="6.98499">
        <ele>881</ele>
        <time>2026-05-09T05:31:58.961Z</time>
      </trkpt>
      <trkpt lat="47.83622" lon="6.98498">
        <ele>881</ele>
        <time>2026-05-09T05:31:59.961Z</time>
      </trkpt>
      <trkpt lat="47.83622" lon="6.98495">
        <ele>882</ele>
        <time>2026-05-09T05:32:00.961Z</time>
      </trkpt>
      <trkpt lat="47.83622" lon="6.98494">
        <ele>882</ele>
        <time>2026-05-09T05:32:01.962Z</time>
      </trkpt>
      <trkpt lat="47.83623" lon="6.98494">
        <ele>882</ele>
        <time>2026-05-09T05:32:02.962Z</time>
      </trkpt>
      <trkpt lat="47.83624" lon="6.98493">
        <ele>883</ele>
        <time>2026-05-09T05:32:03.961Z</time>
      </trkpt>
      <trkpt lat="47.83624" lon="6.98493">
        <ele>883</ele>
        <time>2026-05-09T05:32:04.962Z</time>
      </trkpt>
      <trkpt lat="47.83625" lon="6.98492">
        <ele>883</ele>
        <time>2026-05-09T05:32:05.961Z</time>
      </trkpt>
      <trkpt lat="47.83626" lon="6.98492">
        <ele>883</ele>
        <time>2026-05-09T05:32:06.962Z</time>
      </trkpt>
      <trkpt lat="47.83627" lon="6.98492">
        <ele>883</ele>
        <time>2026-05-09T05:32:07.962Z</time>
      </trkpt>
      <trkpt lat="47.83628" lon="6.98491">
        <ele>883</ele>
        <time>2026-05-09T05:32:08.961Z</time>
      </trkpt>
      <trkpt lat="47.83629" lon="6.9849">
        <ele>883</ele>
        <time>2026-05-09T05:32:09.962Z</time>
      </trkpt>
      <trkpt lat="47.8363" lon="6.98488">
        <ele>883</ele>
        <time>2026-05-09T05:32:10.961Z</time>
      </trkpt>
      <trkpt lat="47.83631" lon="6.98486">
        <ele>884</ele>
        <time>2026-05-09T05:32:11.961Z</time>
      </trkpt>
      <trkpt lat="47.83632" lon="6.98483">
        <ele>884</ele>
        <time>2026-05-09T05:32:12.962Z</time>
      </trkpt>
      <trkpt lat="47.83633" lon="6.98481">
        <ele>884</ele>
        <time>2026-05-09T05:32:13.961Z</time>
      </trkpt>
      <trkpt lat="47.83633" lon="6.9848">
        <ele>885</ele>
        <time>2026-05-09T05:32:14.961Z</time>
      </trkpt>
      <trkpt lat="47.83635" lon="6.98479">
        <ele>885</ele>
        <time>2026-05-09T05:32:15.961Z</time>
      </trkpt>
      <trkpt lat="47.83636" lon="6.98478">
        <ele>885</ele>
        <time>2026-05-09T05:32:16.961Z</time>
      </trkpt>
      <trkpt lat="47.83637" lon="6.98477">
        <ele>884</ele>
        <time>2026-05-09T05:32:17.961Z</time>
      </trkpt>
      <trkpt lat="47.83638" lon="6.98477">
        <ele>884</ele>
        <time>2026-05-09T05:32:18.962Z</time>
      </trkpt>
      <trkpt lat="47.8364" lon="6.98476">
        <ele>884</ele>
        <time>2026-05-09T05:32:19.961Z</time>
      </trkpt>
      <trkpt lat="47.83641" lon="6.98474">
        <ele>883</ele>
        <time>2026-05-09T05:32:20.961Z</time>
      </trkpt>
      <trkpt lat="47.83642" lon="6.98473">
        <ele>883</ele>
        <time>2026-05-09T05:32:21.962Z</time>
      </trkpt>
      <trkpt lat="47.83643" lon="6.98472">
        <ele>882</ele>
        <time>2026-05-09T05:32:22.961Z</time>
      </trkpt>
      <trkpt lat="47.83643" lon="6.9847">
        <ele>882</ele>
        <time>2026-05-09T05:32:23.961Z</time>
      </trkpt>
      <trkpt lat="47.83644" lon="6.98468">
        <ele>882</ele>
        <time>2026-05-09T05:32:24.962Z</time>
      </trkpt>
      <trkpt lat="47.83645" lon="6.98466">
        <ele>882</ele>
        <time>2026-05-09T05:32:25.961Z</time>
      </trkpt>
      <trkpt lat="47.83646" lon="6.98465">
        <ele>882</ele>
        <time>2026-05-09T05:32:26.961Z</time>
      </trkpt>
      <trkpt lat="47.83647" lon="6.98464">
        <ele>882</ele>
        <time>2026-05-09T05:32:27.961Z</time>
      </trkpt>
      <trkpt lat="47.83648" lon="6.98463">
        <ele>882</ele>
        <time>2026-05-09T05:32:28.961Z</time>
      </trkpt>
      <trkpt lat="47.83649" lon="6.98462">
        <ele>882</ele>
        <time>2026-05-09T05:32:29.961Z</time>
      </trkpt>
      <trkpt lat="47.8365" lon="6.98461">
        <ele>882</ele>
        <time>2026-05-09T05:32:30.961Z</time>
      </trkpt>
      <trkpt lat="47.83651" lon="6.98461">
        <ele>882</ele>
        <time>2026-05-09T05:32:31.961Z</time>
      </trkpt>
      <trkpt lat="47.83652" lon="6.9846">
        <ele>883</ele>
        <time>2026-05-09T05:32:32.961Z</time>
      </trkpt>
      <trkpt lat="47.83653" lon="6.9846">
        <ele>883</ele>
        <time>2026-05-09T05:32:33.961Z</time>
      </trkpt>
      <trkpt lat="47.83656" lon="6.9846">
        <ele>883</ele>
        <time>2026-05-09T05:32:34.961Z</time>
      </trkpt>
      <trkpt lat="47.83657" lon="6.9846">
        <ele>883</ele>
        <time>2026-05-09T05:32:35.961Z</time>
      </trkpt>
      <trkpt lat="47.83658" lon="6.98459">
        <ele>883</ele>
        <time>2026-05-09T05:32:36.961Z</time>
      </trkpt>
      <trkpt lat="47.83659" lon="6.98459">
        <ele>883</ele>
        <time>2026-05-09T05:32:37.962Z</time>
      </trkpt>
      <trkpt lat="47.8366" lon="6.98458">
        <ele>883</ele>
        <time>2026-05-09T05:32:38.961Z</time>
      </trkpt>
      <trkpt lat="47.83661" lon="6.98457">
        <ele>883</ele>
        <time>2026-05-09T05:32:39.961Z</time>
      </trkpt>
      <trkpt lat="47.83662" lon="6.98456">
        <ele>883</ele>
        <time>2026-05-09T05:32:40.962Z</time>
      </trkpt>
      <trkpt lat="47.83663" lon="6.98456">
        <ele>883</ele>
        <time>2026-05-09T05:32:41.961Z</time>
      </trkpt>
      <trkpt lat="47.83665" lon="6.98455">
        <ele>883</ele>
        <time>2026-05-09T05:32:42.962Z</time>
      </trkpt>
      <trkpt lat="47.83666" lon="6.98454">
        <ele>882</ele>
        <time>2026-05-09T05:32:43.962Z</time>
      </trkpt>
      <trkpt lat="47.83667" lon="6.98454">
        <ele>882</ele>
        <time>2026-05-09T05:32:44.962Z</time>
      </trkpt>
      <trkpt lat="47.83669" lon="6.98455">
        <ele>882</ele>
        <time>2026-05-09T05:32:45.961Z</time>
      </trkpt>
      <trkpt lat="47.83669" lon="6.98455">
        <ele>882</ele>
        <time>2026-05-09T05:32:46.961Z</time>
      </trkpt>
      <trkpt lat="47.83671" lon="6.98454">
        <ele>881</ele>
        <time>2026-05-09T05:32:47.961Z</time>
      </trkpt>
      <trkpt lat="47.83672" lon="6.98454">
        <ele>881</ele>
        <time>2026-05-09T05:32:48.961Z</time>
      </trkpt>
      <trkpt lat="47.83674" lon="6.98454">
        <ele>880</ele>
        <time>2026-05-09T05:32:49.961Z</time>
      </trkpt>
      <trkpt lat="47.83675" lon="6.98454">
        <ele>880</ele>
        <time>2026-05-09T05:32:50.962Z</time>
      </trkpt>
      <trkpt lat="47.83676" lon="6.98455">
        <ele>880</ele>
        <time>2026-05-09T05:32:51.961Z</time>
      </trkpt>
      <trkpt lat="47.83677" lon="6.98455">
        <ele>879</ele>
        <time>2026-05-09T05:32:52.961Z</time>
      </trkpt>
      <trkpt lat="47.83679" lon="6.98456">
        <ele>879</ele>
        <time>2026-05-09T05:32:53.962Z</time>
      </trkpt>
      <trkpt lat="47.8368" lon="6.98456">
        <ele>879</ele>
        <time>2026-05-09T05:32:54.962Z</time>
      </trkpt>
      <trkpt lat="47.83681" lon="6.98456">
        <ele>879</ele>
        <time>2026-05-09T05:32:55.962Z</time>
      </trkpt>
      <trkpt lat="47.83682" lon="6.98457">
        <ele>879</ele>
        <time>2026-05-09T05:32:56.961Z</time>
      </trkpt>
      <trkpt lat="47.83683" lon="6.98458">
        <ele>879</ele>
        <time>2026-05-09T05:32:57.961Z</time>
      </trkpt>
      <trkpt lat="47.83684" lon="6.98459">
        <ele>879</ele>
        <time>2026-05-09T05:32:58.961Z</time>
      </trkpt>
      <trkpt lat="47.83685" lon="6.98459">
        <ele>879</ele>
        <time>2026-05-09T05:32:59.961Z</time>
      </trkpt>
      <trkpt lat="47.83685" lon="6.9846">
        <ele>879</ele>
        <time>2026-05-09T05:33:00.962Z</time>
      </trkpt>
      <trkpt lat="47.83686" lon="6.98461">
        <ele>879</ele>
        <time>2026-05-09T05:33:01.961Z</time>
      </trkpt>
      <trkpt lat="47.83687" lon="6.98462">
        <ele>879</ele>
        <time>2026-05-09T05:33:02.961Z</time>
      </trkpt>
      <trkpt lat="47.83688" lon="6.98463">
        <ele>879</ele>
        <time>2026-05-09T05:33:03.961Z</time>
      </trkpt>
      <trkpt lat="47.8369" lon="6.98464">
        <ele>879</ele>
        <time>2026-05-09T05:33:04.961Z</time>
      </trkpt>
      <trkpt lat="47.83691" lon="6.98465">
        <ele>879</ele>
        <time>2026-05-09T05:33:05.962Z</time>
      </trkpt>
      <trkpt lat="47.83692" lon="6.98466">
        <ele>880</ele>
        <time>2026-05-09T05:33:06.961Z</time>
      </trkpt>
      <trkpt lat="47.83692" lon="6.98467">
        <ele>880</ele>
        <time>2026-05-09T05:33:07.962Z</time>
      </trkpt>
      <trkpt lat="47.83693" lon="6.98467">
        <ele>880</ele>
        <time>2026-05-09T05:33:08.961Z</time>
      </trkpt>
      <trkpt lat="47.83694" lon="6.98468">
        <ele>881</ele>
        <time>2026-05-09T05:33:09.961Z</time>
      </trkpt>
      <trkpt lat="47.83695" lon="6.98469">
        <ele>881</ele>
        <time>2026-05-09T05:33:10.962Z</time>
      </trkpt>
      <trkpt lat="47.83696" lon="6.9847">
        <ele>882</ele>
        <time>2026-05-09T05:33:11.962Z</time>
      </trkpt>
      <trkpt lat="47.83697" lon="6.98471">
        <ele>882</ele>
        <time>2026-05-09T05:33:12.961Z</time>
      </trkpt>
      <trkpt lat="47.83698" lon="6.98472">
        <ele>883</ele>
        <time>2026-05-09T05:33:13.962Z</time>
      </trkpt>
      <trkpt lat="47.83698" lon="6.98473">
        <ele>883</ele>
        <time>2026-05-09T05:33:14.961Z</time>
      </trkpt>
      <trkpt lat="47.83698" lon="6.98473">
        <ele>883</ele>
        <time>2026-05-09T05:33:15.961Z</time>
      </trkpt>
      <trkpt lat="47.83698" lon="6.98474">
        <ele>884</ele>
        <time>2026-05-09T05:33:16.961Z</time>
      </trkpt>
      <trkpt lat="47.83699" lon="6.98474">
        <ele>884</ele>
        <time>2026-05-09T05:33:17.961Z</time>
      </trkpt>
      <trkpt lat="47.837" lon="6.98475">
        <ele>884</ele>
        <time>2026-05-09T05:33:18.961Z</time>
      </trkpt>
      <trkpt lat="47.83701" lon="6.98475">
        <ele>884</ele>
        <time>2026-05-09T05:33:19.961Z</time>
      </trkpt>
      <trkpt lat="47.83702" lon="6.98478">
        <ele>884</ele>
        <time>2026-05-09T05:33:20.961Z</time>
      </trkpt>
      <trkpt lat="47.83703" lon="6.98479">
        <ele>884</ele>
        <time>2026-05-09T05:33:21.961Z</time>
      </trkpt>
      <trkpt lat="47.83703" lon="6.9848">
        <ele>884</ele>
        <time>2026-05-09T05:33:22.962Z</time>
      </trkpt>
      <trkpt lat="47.83703" lon="6.9848">
        <ele>884</ele>
        <time>2026-05-09T05:33:23.961Z</time>
      </trkpt>
      <trkpt lat="47.83703" lon="6.9848">
        <ele>884</ele>
        <time>2026-05-09T05:33:24.961Z</time>
      </trkpt>
      <trkpt lat="47.83702" lon="6.98481">
        <ele>884</ele>
        <time>2026-05-09T05:33:39.282Z</time>
      </trkpt>
      <trkpt lat="47.83702" lon="6.9848">
        <ele>887</ele>
        <time>2026-05-09T05:33:49.452Z</time>
      </trkpt>
      <trkpt lat="47.83702" lon="6.9848">
        <ele>887</ele>
        <time>2026-05-09T05:33:50.452Z</time>
      </trkpt>
      <trkpt lat="47.83702" lon="6.9848">
        <ele>887</ele>
        <time>2026-05-09T05:33:51.452Z</time>
      </trkpt>
      <trkpt lat="47.83702" lon="6.9848">
        <ele>888</ele>
        <time>2026-05-09T05:33:52.452Z</time>
      </trkpt>
      <trkpt lat="47.83702" lon="6.9848">
        <ele>888</ele>
        <time>2026-05-09T05:33:53.452Z</time>
      </trkpt>
      <trkpt lat="47.83702" lon="6.9848">
        <ele>889</ele>
        <time>2026-05-09T05:33:54.452Z</time>
      </trkpt>
      <trkpt lat="47.83702" lon="6.9848">
        <ele>889</ele>
        <time>2026-05-09T05:33:55.451Z</time>
      </trkpt>
      <trkpt lat="47.83702" lon="6.9848">
        <ele>890</ele>
        <time>2026-05-09T05:33:56.451Z</time>
      </trkpt>
      <trkpt lat="47.83703" lon="6.9848">
        <ele>890</ele>
        <time>2026-05-09T05:33:57.452Z</time>
      </trkpt>
      <trkpt lat="47.83703" lon="6.9848">
        <ele>890</ele>
        <time>2026-05-09T05:33:58.452Z</time>
      </trkpt>
      <trkpt lat="47.83703" lon="6.9848">
        <ele>890</ele>
        <time>2026-05-09T05:33:59.452Z</time>
      </trkpt>
      <trkpt lat="47.83703" lon="6.98479">
        <ele>890</ele>
        <time>2026-05-09T05:34:00.451Z</time>
      </trkpt>
      <trkpt lat="47.83703" lon="6.9848">
        <ele>890</ele>
        <time>2026-05-09T05:34:01.452Z</time>
      </trkpt>
      <trkpt lat="47.83703" lon="6.9848">
        <ele>890</ele>
        <time>2026-05-09T05:34:02.451Z</time>
      </trkpt>
      <trkpt lat="47.83703" lon="6.98479">
        <ele>889</ele>
        <time>2026-05-09T05:34:03.451Z</time>
      </trkpt>
      <trkpt lat="47.83703" lon="6.98479">
        <ele>889</ele>
        <time>2026-05-09T05:34:04.451Z</time>
      </trkpt>
      <trkpt lat="47.83703" lon="6.98479">
        <ele>889</ele>
        <time>2026-05-09T05:34:05.451Z</time>
      </trkpt>
      <trkpt lat="47.83703" lon="6.98479">
        <ele>888</ele>
        <time>2026-05-09T05:34:06.451Z</time>
      </trkpt>
      <trkpt lat="47.83703" lon="6.98479">
        <ele>888</ele>
        <time>2026-05-09T05:34:07.451Z</time>
      </trkpt>
      <trkpt lat="47.83703" lon="6.98479">
        <ele>888</ele>
        <time>2026-05-09T05:34:08.451Z</time>
      </trkpt>
      <trkpt lat="47.83703" lon="6.98479">
        <ele>888</ele>
        <time>2026-05-09T05:34:09.451Z</time>
      </trkpt>
      <trkpt lat="47.83703" lon="6.98479">
        <ele>888</ele>
        <time>2026-05-09T05:34:10.452Z</time>
      </trkpt>
      <trkpt lat="47.83703" lon="6.9848">
        <ele>888</ele>
        <time>2026-05-09T05:34:11.452Z</time>
      </trkpt>
      <trkpt lat="47.83703" lon="6.9848">
        <ele>889</ele>
        <time>2026-05-09T05:34:12.452Z</time>
      </trkpt>
      <trkpt lat="47.83702" lon="6.9848">
        <ele>889</ele>
        <time>2026-05-09T05:34:13.452Z</time>
      </trkpt>
      <trkpt lat="47.83702" lon="6.9848">
        <ele>889</ele>
        <time>2026-05-09T05:34:14.452Z</time>
      </trkpt>
      <trkpt lat="47.83703" lon="6.9848">
        <ele>890</ele>
        <time>2026-05-09T05:34:15.451Z</time>
      </trkpt>
      <trkpt lat="47.83703" lon="6.9848">
        <ele>890</ele>
        <time>2026-05-09T05:34:16.451Z</time>
      </trkpt>
      <trkpt lat="47.83703" lon="6.98481">
        <ele>891</ele>
        <time>2026-05-09T05:34:17.452Z</time>
      </trkpt>
      <trkpt lat="47.83703" lon="6.98481">
        <ele>891</ele>
        <time>2026-05-09T05:34:18.452Z</time>
      </trkpt>
      <trkpt lat="47.83703" lon="6.98481">
        <ele>892</ele>
        <time>2026-05-09T05:34:19.451Z</time>
      </trkpt>
      <trkpt lat="47.83703" lon="6.98481">
        <ele>892</ele>
        <time>2026-05-09T05:34:20.452Z</time>
      </trkpt>
      <trkpt lat="47.83703" lon="6.98481">
        <ele>893</ele>
        <time>2026-05-09T05:34:21.452Z</time>
      </trkpt>
      <trkpt lat="47.83703" lon="6.98481">
        <ele>894</ele>
        <time>2026-05-09T05:34:22.451Z</time>
      </trkpt>
      <trkpt lat="47.83703" lon="6.98482">
        <ele>894</ele>
        <time>2026-05-09T05:34:23.452Z</time>
      </trkpt>
      <trkpt lat="47.83703" lon="6.98482">
        <ele>895</ele>
        <time>2026-05-09T05:34:24.452Z</time>
      </trkpt>
      <trkpt lat="47.83703" lon="6.98482">
        <ele>895</ele>
        <time>2026-05-09T05:34:25.452Z</time>
      </trkpt>
      <trkpt lat="47.83701" lon="6.98478">
        <ele>894</ele>
        <time>2026-05-09T05:34:35.846Z</time>
      </trkpt>
      <trkpt lat="47.83701" lon="6.98477">
        <ele>893</ele>
        <time>2026-05-09T05:34:36.846Z</time>
      </trkpt>
      <trkpt lat="47.83701" lon="6.98476">
        <ele>893</ele>
        <time>2026-05-09T05:34:37.846Z</time>
      </trkpt>
      <trkpt lat="47.83701" lon="6.98476">
        <ele>893</ele>
        <time>2026-05-09T05:34:38.846Z</time>
      </trkpt>
      <trkpt lat="47.83701" lon="6.98477">
        <ele>892</ele>
        <time>2026-05-09T05:34:39.846Z</time>
      </trkpt>
      <trkpt lat="47.83702" lon="6.98477">
        <ele>892</ele>
        <time>2026-05-09T05:34:40.846Z</time>
      </trkpt>
      <trkpt lat="47.83702" lon="6.98477">
        <ele>892</ele>
        <time>2026-05-09T05:34:41.846Z</time>
      </trkpt>
      <trkpt lat="47.83701" lon="6.98478">
        <ele>892</ele>
        <time>2026-05-09T05:34:42.847Z</time>
      </trkpt>
      <trkpt lat="47.83701" lon="6.98478">
        <ele>892</ele>
        <time>2026-05-09T05:34:43.847Z</time>
      </trkpt>
      <trkpt lat="47.83701" lon="6.98478">
        <ele>891</ele>
        <time>2026-05-09T05:34:44.847Z</time>
      </trkpt>
      <trkpt lat="47.83702" lon="6.98478">
        <ele>891</ele>
        <time>2026-05-09T05:34:45.846Z</time>
      </trkpt>
      <trkpt lat="47.83703" lon="6.98478">
        <ele>891</ele>
        <time>2026-05-09T05:34:46.846Z</time>
      </trkpt>
      <trkpt lat="47.83703" lon="6.98478">
        <ele>891</ele>
        <time>2026-05-09T05:34:47.847Z</time>
      </trkpt>
      <trkpt lat="47.83703" lon="6.98478">
        <ele>891</ele>
        <time>2026-05-09T05:34:48.846Z</time>
      </trkpt>
      <trkpt lat="47.83703" lon="6.9848">
        <ele>887</ele>
        <time>2026-05-09T05:35:49.134Z</time>
      </trkpt>
      <trkpt lat="47.83703" lon="6.98481">
        <ele>887</ele>
        <time>2026-05-09T05:35:50.133Z</time>
      </trkpt>
      <trkpt lat="47.83704" lon="6.98482">
        <ele>887</ele>
        <time>2026-05-09T05:35:51.134Z</time>
      </trkpt>
      <trkpt lat="47.83704" lon="6.98482">
        <ele>887</ele>
        <time>2026-05-09T05:35:52.133Z</time>
      </trkpt>
      <trkpt lat="47.83704" lon="6.98483">
        <ele>888</ele>
        <time>2026-05-09T05:35:53.134Z</time>
      </trkpt>
      <trkpt lat="47.83705" lon="6.98485">
        <ele>888</ele>
        <time>2026-05-09T05:35:54.133Z</time>
      </trkpt>
      <trkpt lat="47.83706" lon="6.98486">
        <ele>888</ele>
        <time>2026-05-09T05:35:55.133Z</time>
      </trkpt>
      <trkpt lat="47.83707" lon="6.98488">
        <ele>888</ele>
        <time>2026-05-09T05:35:56.133Z</time>
      </trkpt>
      <trkpt lat="47.83708" lon="6.98489">
        <ele>888</ele>
        <time>2026-05-09T05:35:57.134Z</time>
      </trkpt>
      <trkpt lat="47.83709" lon="6.9849">
        <ele>888</ele>
        <time>2026-05-09T05:35:58.133Z</time>
      </trkpt>
      <trkpt lat="47.8371" lon="6.98491">
        <ele>888</ele>
        <time>2026-05-09T05:35:59.133Z</time>
      </trkpt>
      <trkpt lat="47.8371" lon="6.98492">
        <ele>888</ele>
        <time>2026-05-09T05:36:00.133Z</time>
      </trkpt>
      <trkpt lat="47.83711" lon="6.98494">
        <ele>888</ele>
        <time>2026-05-09T05:36:01.133Z</time>
      </trkpt>
      <trkpt lat="47.83711" lon="6.98496">
        <ele>888</ele>
        <time>2026-05-09T05:36:02.134Z</time>
      </trkpt>
      <trkpt lat="47.83712" lon="6.98497">
        <ele>888</ele>
        <time>2026-05-09T05:36:03.133Z</time>
      </trkpt>
      <trkpt lat="47.83712" lon="6.98498">
        <ele>888</ele>
        <time>2026-05-09T05:36:04.133Z</time>
      </trkpt>
      <trkpt lat="47.83712" lon="6.98499">
        <ele>888</ele>
        <time>2026-05-09T05:36:05.134Z</time>
      </trkpt>
      <trkpt lat="47.83713" lon="6.98499">
        <ele>888</ele>
        <time>2026-05-09T05:36:06.133Z</time>
      </trkpt>
      <trkpt lat="47.83713" lon="6.985">
        <ele>888</ele>
        <time>2026-05-09T05:36:07.133Z</time>
      </trkpt>
      <trkpt lat="47.83714" lon="6.98501">
        <ele>889</ele>
        <time>2026-05-09T05:36:08.134Z</time>
      </trkpt>
      <trkpt lat="47.83715" lon="6.98501">
        <ele>889</ele>
        <time>2026-05-09T05:36:09.134Z</time>
      </trkpt>
      <trkpt lat="47.83716" lon="6.98502">
        <ele>889</ele>
        <time>2026-05-09T05:36:10.133Z</time>
      </trkpt>
      <trkpt lat="47.83716" lon="6.98503">
        <ele>889</ele>
        <time>2026-05-09T05:36:11.134Z</time>
      </trkpt>
      <trkpt lat="47.83717" lon="6.98503">
        <ele>889</ele>
        <time>2026-05-09T05:36:12.133Z</time>
      </trkpt>
      <trkpt lat="47.83718" lon="6.98504">
        <ele>889</ele>
        <time>2026-05-09T05:36:13.133Z</time>
      </trkpt>
      <trkpt lat="47.83718" lon="6.98505">
        <ele>889</ele>
        <time>2026-05-09T05:36:14.133Z</time>
      </trkpt>
      <trkpt lat="47.83719" lon="6.98505">
        <ele>889</ele>
        <time>2026-05-09T05:36:15.133Z</time>
      </trkpt>
      <trkpt lat="47.8372" lon="6.98506">
        <ele>888</ele>
        <time>2026-05-09T05:36:16.133Z</time>
      </trkpt>
      <trkpt lat="47.83721" lon="6.98507">
        <ele>888</ele>
        <time>2026-05-09T05:36:17.133Z</time>
      </trkpt>
      <trkpt lat="47.83721" lon="6.98507">
        <ele>888</ele>
        <time>2026-05-09T05:36:18.133Z</time>
      </trkpt>
      <trkpt lat="47.83722" lon="6.98509">
        <ele>888</ele>
        <time>2026-05-09T05:36:19.133Z</time>
      </trkpt>
      <trkpt lat="47.83722" lon="6.98509">
        <ele>888</ele>
        <time>2026-05-09T05:36:20.133Z</time>
      </trkpt>
      <trkpt lat="47.83723" lon="6.9851">
        <ele>888</ele>
        <time>2026-05-09T05:36:21.133Z</time>
      </trkpt>
      <trkpt lat="47.83723" lon="6.98511">
        <ele>888</ele>
        <time>2026-05-09T05:36:22.133Z</time>
      </trkpt>
      <trkpt lat="47.83724" lon="6.98513">
        <ele>888</ele>
        <time>2026-05-09T05:36:23.133Z</time>
      </trkpt>
      <trkpt lat="47.83725" lon="6.98514">
        <ele>888</ele>
        <time>2026-05-09T05:36:24.133Z</time>
      </trkpt>
      <trkpt lat="47.83725" lon="6.98516">
        <ele>888</ele>
        <time>2026-05-09T05:36:25.134Z</time>
      </trkpt>
      <trkpt lat="47.83725" lon="6.98516">
        <ele>888</ele>
        <time>2026-05-09T05:36:26.133Z</time>
      </trkpt>
      <trkpt lat="47.83725" lon="6.98517">
        <ele>888</ele>
        <time>2026-05-09T05:36:27.134Z</time>
      </trkpt>
      <trkpt lat="47.83725" lon="6.98518">
        <ele>888</ele>
        <time>2026-05-09T05:36:28.133Z</time>
      </trkpt>
      <trkpt lat="47.83726" lon="6.9852">
        <ele>888</ele>
        <time>2026-05-09T05:36:29.133Z</time>
      </trkpt>
      <trkpt lat="47.83727" lon="6.98521">
        <ele>888</ele>
        <time>2026-05-09T05:36:30.134Z</time>
      </trkpt>
      <trkpt lat="47.83728" lon="6.98522">
        <ele>888</ele>
        <time>2026-05-09T05:36:31.133Z</time>
      </trkpt>
      <trkpt lat="47.83728" lon="6.98523">
        <ele>888</ele>
        <time>2026-05-09T05:36:32.133Z</time>
      </trkpt>
      <trkpt lat="47.83729" lon="6.98524">
        <ele>888</ele>
        <time>2026-05-09T05:36:33.133Z</time>
      </trkpt>
      <trkpt lat="47.83729" lon="6.98524">
        <ele>888</ele>
        <time>2026-05-09T05:36:34.134Z</time>
      </trkpt>
      <trkpt lat="47.8373" lon="6.98525">
        <ele>888</ele>
        <time>2026-05-09T05:36:35.133Z</time>
      </trkpt>
      <trkpt lat="47.8373" lon="6.98526">
        <ele>888</ele>
        <time>2026-05-09T05:36:36.133Z</time>
      </trkpt>
      <trkpt lat="47.83731" lon="6.98527">
        <ele>888</ele>
        <time>2026-05-09T05:36:37.134Z</time>
      </trkpt>
      <trkpt lat="47.83731" lon="6.98529">
        <ele>888</ele>
        <time>2026-05-09T05:36:38.133Z</time>
      </trkpt>
      <trkpt lat="47.83732" lon="6.98529">
        <ele>888</ele>
        <time>2026-05-09T05:36:39.134Z</time>
      </trkpt>
      <trkpt lat="47.83732" lon="6.9853">
        <ele>888</ele>
        <time>2026-05-09T05:36:40.133Z</time>
      </trkpt>
      <trkpt lat="47.83733" lon="6.98531">
        <ele>888</ele>
        <time>2026-05-09T05:36:41.134Z</time>
      </trkpt>
      <trkpt lat="47.83733" lon="6.98532">
        <ele>888</ele>
        <time>2026-05-09T05:36:42.133Z</time>
      </trkpt>
      <trkpt lat="47.83733" lon="6.98531">
        <ele>888</ele>
        <time>2026-05-09T05:36:43.134Z</time>
      </trkpt>
      <trkpt lat="47.83733" lon="6.98531">
        <ele>888</ele>
        <time>2026-05-09T05:36:44.134Z</time>
      </trkpt>
      <trkpt lat="47.83732" lon="6.98531">
        <ele>889</ele>
        <time>2026-05-09T05:36:45.134Z</time>
      </trkpt>
      <trkpt lat="47.83732" lon="6.98531">
        <ele>889</ele>
        <time>2026-05-09T05:36:46.133Z</time>
      </trkpt>
      <trkpt lat="47.83732" lon="6.9853">
        <ele>890</ele>
        <time>2026-05-09T05:36:47.134Z</time>
      </trkpt>
      <trkpt lat="47.83731" lon="6.9853">
        <ele>890</ele>
        <time>2026-05-09T05:36:48.133Z</time>
      </trkpt>
      <trkpt lat="47.83731" lon="6.9853">
        <ele>890</ele>
        <time>2026-05-09T05:36:49.133Z</time>
      </trkpt>
      <trkpt lat="47.83731" lon="6.98529">
        <ele>891</ele>
        <time>2026-05-09T05:36:50.133Z</time>
      </trkpt>
      <trkpt lat="47.83732" lon="6.9853">
        <ele>891</ele>
        <time>2026-05-09T05:36:51.133Z</time>
      </trkpt>
      <trkpt lat="47.83732" lon="6.98531">
        <ele>891</ele>
        <time>2026-05-09T05:36:52.133Z</time>
      </trkpt>
      <trkpt lat="47.83732" lon="6.98531">
        <ele>891</ele>
        <time>2026-05-09T05:36:53.134Z</time>
      </trkpt>
      <trkpt lat="47.83733" lon="6.98531">
        <ele>892</ele>
        <time>2026-05-09T05:36:54.134Z</time>
      </trkpt>
      <trkpt lat="47.83733" lon="6.98531">
        <ele>892</ele>
        <time>2026-05-09T05:36:55.133Z</time>
      </trkpt>
      <trkpt lat="47.83733" lon="6.98531">
        <ele>892</ele>
        <time>2026-05-09T05:36:56.134Z</time>
      </trkpt>
      <trkpt lat="47.83734" lon="6.98533">
        <ele>893</ele>
        <time>2026-05-09T05:37:01.509Z</time>
      </trkpt>
      <trkpt lat="47.83735" lon="6.98534">
        <ele>893</ele>
        <time>2026-05-09T05:37:02.509Z</time>
      </trkpt>
      <trkpt lat="47.83735" lon="6.98534">
        <ele>894</ele>
        <time>2026-05-09T05:37:03.509Z</time>
      </trkpt>
      <trkpt lat="47.83735" lon="6.98534">
        <ele>894</ele>
        <time>2026-05-09T05:37:04.508Z</time>
      </trkpt>
      <trkpt lat="47.83736" lon="6.98535">
        <ele>894</ele>
        <time>2026-05-09T05:37:05.509Z</time>
      </trkpt>
      <trkpt lat="47.83736" lon="6.98535">
        <ele>895</ele>
        <time>2026-05-09T05:37:06.509Z</time>
      </trkpt>
      <trkpt lat="47.83736" lon="6.98535">
        <ele>895</ele>
        <time>2026-05-09T05:37:07.509Z</time>
      </trkpt>
      <trkpt lat="47.83737" lon="6.98535">
        <ele>895</ele>
        <time>2026-05-09T05:37:08.509Z</time>
      </trkpt>
      <trkpt lat="47.83737" lon="6.98535">
        <ele>895</ele>
        <time>2026-05-09T05:37:09.508Z</time>
      </trkpt>
      <trkpt lat="47.83737" lon="6.98536">
        <ele>896</ele>
        <time>2026-05-09T05:37:10.508Z</time>
      </trkpt>
      <trkpt lat="47.83737" lon="6.98536">
        <ele>896</ele>
        <time>2026-05-09T05:37:11.508Z</time>
      </trkpt>
      <trkpt lat="47.83738" lon="6.98536">
        <ele>896</ele>
        <time>2026-05-09T05:37:12.509Z</time>
      </trkpt>
      <trkpt lat="47.83738" lon="6.98536">
        <ele>897</ele>
        <time>2026-05-09T05:37:13.508Z</time>
      </trkpt>
      <trkpt lat="47.83739" lon="6.98536">
        <ele>897</ele>
        <time>2026-05-09T05:37:14.508Z</time>
      </trkpt>
      <trkpt lat="47.8374" lon="6.98537">
        <ele>897</ele>
        <time>2026-05-09T05:37:15.508Z</time>
      </trkpt>
      <trkpt lat="47.83741" lon="6.98537">
        <ele>898</ele>
        <time>2026-05-09T05:37:16.509Z</time>
      </trkpt>
      <trkpt lat="47.83741" lon="6.98537">
        <ele>898</ele>
        <time>2026-05-09T05:37:17.508Z</time>
      </trkpt>
      <trkpt lat="47.83742" lon="6.98537">
        <ele>899</ele>
        <time>2026-05-09T05:37:18.508Z</time>
      </trkpt>
      <trkpt lat="47.83742" lon="6.98537">
        <ele>899</ele>
        <time>2026-05-09T05:37:19.508Z</time>
      </trkpt>
      <trkpt lat="47.83743" lon="6.98538">
        <ele>899</ele>
        <time>2026-05-09T05:37:20.508Z</time>
      </trkpt>
      <trkpt lat="47.83743" lon="6.98538">
        <ele>900</ele>
        <time>2026-05-09T05:37:21.509Z</time>
      </trkpt>
      <trkpt lat="47.83749" lon="6.98545">
        <ele>904</ele>
        <time>2026-05-09T05:37:34.247Z</time>
      </trkpt>
      <trkpt lat="47.8375" lon="6.98545">
        <ele>904</ele>
        <time>2026-05-09T05:37:35.248Z</time>
      </trkpt>
      <trkpt lat="47.8375" lon="6.98545">
        <ele>904</ele>
        <time>2026-05-09T05:37:36.247Z</time>
      </trkpt>
      <trkpt lat="47.83751" lon="6.98545">
        <ele>904</ele>
        <time>2026-05-09T05:37:37.248Z</time>
      </trkpt>
      <trkpt lat="47.83752" lon="6.98546">
        <ele>905</ele>
        <time>2026-05-09T05:37:38.247Z</time>
      </trkpt>
      <trkpt lat="47.83753" lon="6.98547">
        <ele>905</ele>
        <time>2026-05-09T05:37:39.248Z</time>
      </trkpt>
      <trkpt lat="47.83754" lon="6.98548">
        <ele>905</ele>
        <time>2026-05-09T05:37:40.247Z</time>
      </trkpt>
      <trkpt lat="47.83755" lon="6.98549">
        <ele>906</ele>
        <time>2026-05-09T05:37:41.247Z</time>
      </trkpt>
      <trkpt lat="47.83756" lon="6.9855">
        <ele>906</ele>
        <time>2026-05-09T05:37:42.247Z</time>
      </trkpt>
      <trkpt lat="47.83757" lon="6.9855">
        <ele>906</ele>
        <time>2026-05-09T05:37:43.248Z</time>
      </trkpt>
      <trkpt lat="47.83757" lon="6.9855">
        <ele>907</ele>
        <time>2026-05-09T05:37:44.247Z</time>
      </trkpt>
      <trkpt lat="47.83758" lon="6.98551">
        <ele>907</ele>
        <time>2026-05-09T05:37:45.247Z</time>
      </trkpt>
      <trkpt lat="47.83759" lon="6.98552">
        <ele>907</ele>
        <time>2026-05-09T05:37:46.247Z</time>
      </trkpt>
      <trkpt lat="47.83759" lon="6.98552">
        <ele>907</ele>
        <time>2026-05-09T05:37:47.248Z</time>
      </trkpt>
      <trkpt lat="47.8376" lon="6.98553">
        <ele>907</ele>
        <time>2026-05-09T05:37:48.248Z</time>
      </trkpt>
      <trkpt lat="47.83761" lon="6.98553">
        <ele>907</ele>
        <time>2026-05-09T05:37:49.248Z</time>
      </trkpt>
      <trkpt lat="47.83761" lon="6.98554">
        <ele>908</ele>
        <time>2026-05-09T05:37:50.248Z</time>
      </trkpt>
      <trkpt lat="47.83762" lon="6.98554">
        <ele>908</ele>
        <time>2026-05-09T05:37:51.247Z</time>
      </trkpt>
      <trkpt lat="47.83762" lon="6.98553">
        <ele>908</ele>
        <time>2026-05-09T05:37:52.248Z</time>
      </trkpt>
      <trkpt lat="47.83763" lon="6.98554">
        <ele>908</ele>
        <time>2026-05-09T05:37:53.247Z</time>
      </trkpt>
      <trkpt lat="47.83764" lon="6.98555">
        <ele>908</ele>
        <time>2026-05-09T05:37:54.248Z</time>
      </trkpt>
      <trkpt lat="47.83765" lon="6.98556">
        <ele>908</ele>
        <time>2026-05-09T05:37:55.247Z</time>
      </trkpt>
      <trkpt lat="47.83766" lon="6.98557">
        <ele>909</ele>
        <time>2026-05-09T05:37:56.248Z</time>
      </trkpt>
      <trkpt lat="47.83765" lon="6.98558">
        <ele>909</ele>
        <time>2026-05-09T05:37:57.247Z</time>
      </trkpt>
      <trkpt lat="47.83766" lon="6.9856">
        <ele>909</ele>
        <time>2026-05-09T05:37:58.248Z</time>
      </trkpt>
      <trkpt lat="47.83767" lon="6.98561">
        <ele>909</ele>
        <time>2026-05-09T05:37:59.247Z</time>
      </trkpt>
      <trkpt lat="47.83768" lon="6.98561">
        <ele>909</ele>
        <time>2026-05-09T05:38:00.247Z</time>
      </trkpt>
      <trkpt lat="47.83768" lon="6.98562">
        <ele>910</ele>
        <time>2026-05-09T05:38:01.247Z</time>
      </trkpt>
      <trkpt lat="47.83769" lon="6.98563">
        <ele>910</ele>
        <time>2026-05-09T05:38:02.248Z</time>
      </trkpt>
      <trkpt lat="47.83769" lon="6.98563">
        <ele>910</ele>
        <time>2026-05-09T05:38:03.247Z</time>
      </trkpt>
      <trkpt lat="47.8377" lon="6.98564">
        <ele>911</ele>
        <time>2026-05-09T05:38:04.248Z</time>
      </trkpt>
      <trkpt lat="47.83771" lon="6.98565">
        <ele>911</ele>
        <time>2026-05-09T05:38:05.248Z</time>
      </trkpt>
      <trkpt lat="47.83771" lon="6.98565">
        <ele>911</ele>
        <time>2026-05-09T05:38:06.247Z</time>
      </trkpt>
      <trkpt lat="47.83772" lon="6.98566">
        <ele>912</ele>
        <time>2026-05-09T05:38:07.248Z</time>
      </trkpt>
      <trkpt lat="47.83773" lon="6.98566">
        <ele>912</ele>
        <time>2026-05-09T05:38:08.247Z</time>
      </trkpt>
      <trkpt lat="47.83773" lon="6.98566">
        <ele>912</ele>
        <time>2026-05-09T05:38:09.248Z</time>
      </trkpt>
      <trkpt lat="47.83774" lon="6.98567">
        <ele>913</ele>
        <time>2026-05-09T05:38:10.247Z</time>
      </trkpt>
      <trkpt lat="47.83773" lon="6.98567">
        <ele>913</ele>
        <time>2026-05-09T05:38:11.248Z</time>
      </trkpt>
      <trkpt lat="47.83774" lon="6.98568">
        <ele>914</ele>
        <time>2026-05-09T05:38:12.247Z</time>
      </trkpt>
      <trkpt lat="47.83774" lon="6.98568">
        <ele>914</ele>
        <time>2026-05-09T05:38:13.248Z</time>
      </trkpt>
      <trkpt lat="47.83775" lon="6.98569">
        <ele>915</ele>
        <time>2026-05-09T05:38:14.248Z</time>
      </trkpt>
      <trkpt lat="47.83776" lon="6.9857">
        <ele>915</ele>
        <time>2026-05-09T05:38:15.248Z</time>
      </trkpt>
      <trkpt lat="47.83777" lon="6.98571">
        <ele>916</ele>
        <time>2026-05-09T05:38:16.247Z</time>
      </trkpt>
      <trkpt lat="47.83777" lon="6.98571">
        <ele>916</ele>
        <time>2026-05-09T05:38:17.248Z</time>
      </trkpt>
      <trkpt lat="47.83777" lon="6.98571">
        <ele>916</ele>
        <time>2026-05-09T05:38:18.247Z</time>
      </trkpt>
      <trkpt lat="47.83778" lon="6.98571">
        <ele>917</ele>
        <time>2026-05-09T05:38:19.248Z</time>
      </trkpt>
      <trkpt lat="47.83778" lon="6.98571">
        <ele>917</ele>
        <time>2026-05-09T05:38:20.248Z</time>
      </trkpt>
      <trkpt lat="47.83778" lon="6.98571">
        <ele>918</ele>
        <time>2026-05-09T05:38:21.248Z</time>
      </trkpt>
      <trkpt lat="47.83779" lon="6.98573">
        <ele>918</ele>
        <time>2026-05-09T05:38:22.248Z</time>
      </trkpt>
      <trkpt lat="47.8378" lon="6.98575">
        <ele>918</ele>
        <time>2026-05-09T05:38:23.248Z</time>
      </trkpt>
      <trkpt lat="47.83781" lon="6.98575">
        <ele>918</ele>
        <time>2026-05-09T05:38:24.248Z</time>
      </trkpt>
      <trkpt lat="47.8378" lon="6.98576">
        <ele>919</ele>
        <time>2026-05-09T05:38:25.247Z</time>
      </trkpt>
      <trkpt lat="47.8378" lon="6.98576">
        <ele>919</ele>
        <time>2026-05-09T05:38:26.248Z</time>
      </trkpt>
      <trkpt lat="47.83782" lon="6.98578">
        <ele>920</ele>
        <time>2026-05-09T05:38:32.733Z</time>
      </trkpt>
      <trkpt lat="47.83783" lon="6.98579">
        <ele>921</ele>
        <time>2026-05-09T05:38:33.732Z</time>
      </trkpt>
      <trkpt lat="47.83783" lon="6.9858">
        <ele>921</ele>
        <time>2026-05-09T05:38:34.732Z</time>
      </trkpt>
      <trkpt lat="47.83784" lon="6.9858">
        <ele>921</ele>
        <time>2026-05-09T05:38:35.732Z</time>
      </trkpt>
      <trkpt lat="47.83785" lon="6.98581">
        <ele>921</ele>
        <time>2026-05-09T05:38:36.733Z</time>
      </trkpt>
      <trkpt lat="47.83785" lon="6.98582">
        <ele>921</ele>
        <time>2026-05-09T05:38:37.732Z</time>
      </trkpt>
      <trkpt lat="47.83786" lon="6.98582">
        <ele>921</ele>
        <time>2026-05-09T05:38:38.733Z</time>
      </trkpt>
      <trkpt lat="47.83786" lon="6.98582">
        <ele>922</ele>
        <time>2026-05-09T05:38:39.732Z</time>
      </trkpt>
      <trkpt lat="47.83787" lon="6.98583">
        <ele>922</ele>
        <time>2026-05-09T05:38:40.733Z</time>
      </trkpt>
      <trkpt lat="47.83788" lon="6.98585">
        <ele>922</ele>
        <time>2026-05-09T05:38:41.732Z</time>
      </trkpt>
      <trkpt lat="47.83789" lon="6.98586">
        <ele>922</ele>
        <time>2026-05-09T05:38:42.733Z</time>
      </trkpt>
      <trkpt lat="47.8379" lon="6.98587">
        <ele>922</ele>
        <time>2026-05-09T05:38:43.732Z</time>
      </trkpt>
      <trkpt lat="47.83791" lon="6.98589">
        <ele>922</ele>
        <time>2026-05-09T05:38:44.733Z</time>
      </trkpt>
      <trkpt lat="47.83792" lon="6.98591">
        <ele>922</ele>
        <time>2026-05-09T05:38:45.732Z</time>
      </trkpt>
      <trkpt lat="47.83794" lon="6.98594">
        <ele>922</ele>
        <time>2026-05-09T05:38:46.733Z</time>
      </trkpt>
      <trkpt lat="47.83795" lon="6.98595">
        <ele>922</ele>
        <time>2026-05-09T05:38:47.732Z</time>
      </trkpt>
      <trkpt lat="47.83796" lon="6.98596">
        <ele>922</ele>
        <time>2026-05-09T05:38:48.732Z</time>
      </trkpt>
      <trkpt lat="47.83797" lon="6.98597">
        <ele>922</ele>
        <time>2026-05-09T05:38:49.733Z</time>
      </trkpt>
      <trkpt lat="47.83797" lon="6.98598">
        <ele>922</ele>
        <time>2026-05-09T05:38:50.733Z</time>
      </trkpt>
      <trkpt lat="47.83798" lon="6.986">
        <ele>922</ele>
        <time>2026-05-09T05:38:51.732Z</time>
      </trkpt>
      <trkpt lat="47.83798" lon="6.986">
        <ele>922</ele>
        <time>2026-05-09T05:38:52.732Z</time>
      </trkpt>
      <trkpt lat="47.83798" lon="6.986">
        <ele>922</ele>
        <time>2026-05-09T05:38:53.733Z</time>
      </trkpt>
      <trkpt lat="47.83798" lon="6.98601">
        <ele>922</ele>
        <time>2026-05-09T05:38:54.733Z</time>
      </trkpt>
      <trkpt lat="47.83798" lon="6.98601">
        <ele>922</ele>
        <time>2026-05-09T05:38:55.733Z</time>
      </trkpt>
      <trkpt lat="47.83798" lon="6.98601">
        <ele>922</ele>
        <time>2026-05-09T05:38:56.732Z</time>
      </trkpt>
      <trkpt lat="47.838" lon="6.98605">
        <ele>923</ele>
        <time>2026-05-09T05:39:02.929Z</time>
      </trkpt>
      <trkpt lat="47.83801" lon="6.98607">
        <ele>923</ele>
        <time>2026-05-09T05:39:03.929Z</time>
      </trkpt>
      <trkpt lat="47.83802" lon="6.98607">
        <ele>923</ele>
        <time>2026-05-09T05:39:04.929Z</time>
      </trkpt>
      <trkpt lat="47.83802" lon="6.98607">
        <ele>923</ele>
        <time>2026-05-09T05:39:05.929Z</time>
      </trkpt>
      <trkpt lat="47.83802" lon="6.98607">
        <ele>923</ele>
        <time>2026-05-09T05:39:06.929Z</time>
      </trkpt>
      <trkpt lat="47.83803" lon="6.98608">
        <ele>924</ele>
        <time>2026-05-09T05:39:07.929Z</time>
      </trkpt>
      <trkpt lat="47.83803" lon="6.98608">
        <ele>924</ele>
        <time>2026-05-09T05:39:08.929Z</time>
      </trkpt>
      <trkpt lat="47.83804" lon="6.98609">
        <ele>924</ele>
        <time>2026-05-09T05:39:09.930Z</time>
      </trkpt>
      <trkpt lat="47.83805" lon="6.9861">
        <ele>925</ele>
        <time>2026-05-09T05:39:10.930Z</time>
      </trkpt>
      <trkpt lat="47.83805" lon="6.9861">
        <ele>925</ele>
        <time>2026-05-09T05:39:11.930Z</time>
      </trkpt>
      <trkpt lat="47.83806" lon="6.98611">
        <ele>925</ele>
        <time>2026-05-09T05:39:12.929Z</time>
      </trkpt>
      <trkpt lat="47.83807" lon="6.98612">
        <ele>925</ele>
        <time>2026-05-09T05:39:13.929Z</time>
      </trkpt>
      <trkpt lat="47.83807" lon="6.98612">
        <ele>926</ele>
        <time>2026-05-09T05:39:14.930Z</time>
      </trkpt>
      <trkpt lat="47.83807" lon="6.98612">
        <ele>926</ele>
        <time>2026-05-09T05:39:15.929Z</time>
      </trkpt>
      <trkpt lat="47.83809" lon="6.98615">
        <ele>926</ele>
        <time>2026-05-09T05:39:16.929Z</time>
      </trkpt>
      <trkpt lat="47.83809" lon="6.98615">
        <ele>926</ele>
        <time>2026-05-09T05:39:17.929Z</time>
      </trkpt>
      <trkpt lat="47.83809" lon="6.98615">
        <ele>926</ele>
        <time>2026-05-09T05:39:18.929Z</time>
      </trkpt>
      <trkpt lat="47.83809" lon="6.98615">
        <ele>926</ele>
        <time>2026-05-09T05:39:19.930Z</time>
      </trkpt>
      <trkpt lat="47.8381" lon="6.98617">
        <ele>926</ele>
        <time>2026-05-09T05:39:20.929Z</time>
      </trkpt>
      <trkpt lat="47.83811" lon="6.98618">
        <ele>926</ele>
        <time>2026-05-09T05:39:21.930Z</time>
      </trkpt>
      <trkpt lat="47.83811" lon="6.98618">
        <ele>926</ele>
        <time>2026-05-09T05:39:22.929Z</time>
      </trkpt>
      <trkpt lat="47.83812" lon="6.98619">
        <ele>926</ele>
        <time>2026-05-09T05:39:23.930Z</time>
      </trkpt>
      <trkpt lat="47.83812" lon="6.9862">
        <ele>925</ele>
        <time>2026-05-09T05:39:24.929Z</time>
      </trkpt>
      <trkpt lat="47.83813" lon="6.9862">
        <ele>925</ele>
        <time>2026-05-09T05:39:25.929Z</time>
      </trkpt>
      <trkpt lat="47.83813" lon="6.9862">
        <ele>925</ele>
        <time>2026-05-09T05:39:26.929Z</time>
      </trkpt>
      <trkpt lat="47.83813" lon="6.9862">
        <ele>925</ele>
        <time>2026-05-09T05:39:27.930Z</time>
      </trkpt>
      <trkpt lat="47.83814" lon="6.98622">
        <ele>926</ele>
        <time>2026-05-09T05:39:28.929Z</time>
      </trkpt>
      <trkpt lat="47.83814" lon="6.98623">
        <ele>926</ele>
        <time>2026-05-09T05:39:29.929Z</time>
      </trkpt>
      <trkpt lat="47.83815" lon="6.98623">
        <ele>925</ele>
        <time>2026-05-09T05:39:30.929Z</time>
      </trkpt>
      <trkpt lat="47.83815" lon="6.98623">
        <ele>925</ele>
        <time>2026-05-09T05:39:31.930Z</time>
      </trkpt>
      <trkpt lat="47.83816" lon="6.98624">
        <ele>925</ele>
        <time>2026-05-09T05:39:32.929Z</time>
      </trkpt>
      <trkpt lat="47.83817" lon="6.98625">
        <ele>925</ele>
        <time>2026-05-09T05:39:33.929Z</time>
      </trkpt>
      <trkpt lat="47.83817" lon="6.98625">
        <ele>925</ele>
        <time>2026-05-09T05:39:34.929Z</time>
      </trkpt>
      <trkpt lat="47.83817" lon="6.98625">
        <ele>925</ele>
        <time>2026-05-09T05:39:35.929Z</time>
      </trkpt>
      <trkpt lat="47.83817" lon="6.98626">
        <ele>925</ele>
        <time>2026-05-09T05:39:36.929Z</time>
      </trkpt>
      <trkpt lat="47.83818" lon="6.98627">
        <ele>925</ele>
        <time>2026-05-09T05:39:37.929Z</time>
      </trkpt>
      <trkpt lat="47.83818" lon="6.98627">
        <ele>925</ele>
        <time>2026-05-09T05:39:38.930Z</time>
      </trkpt>
      <trkpt lat="47.83819" lon="6.98628">
        <ele>925</ele>
        <time>2026-05-09T05:39:39.929Z</time>
      </trkpt>
      <trkpt lat="47.83819" lon="6.98628">
        <ele>925</ele>
        <time>2026-05-09T05:39:40.929Z</time>
      </trkpt>
      <trkpt lat="47.8382" lon="6.9863">
        <ele>925</ele>
        <time>2026-05-09T05:39:41.929Z</time>
      </trkpt>
      <trkpt lat="47.8382" lon="6.98631">
        <ele>925</ele>
        <time>2026-05-09T05:39:42.930Z</time>
      </trkpt>
      <trkpt lat="47.8382" lon="6.98631">
        <ele>925</ele>
        <time>2026-05-09T05:39:43.930Z</time>
      </trkpt>
      <trkpt lat="47.83821" lon="6.98631">
        <ele>924</ele>
        <time>2026-05-09T05:39:44.929Z</time>
      </trkpt>
      <trkpt lat="47.83824" lon="6.98637">
        <ele>925</ele>
        <time>2026-05-09T05:39:50.217Z</time>
      </trkpt>
      <trkpt lat="47.83824" lon="6.98638">
        <ele>925</ele>
        <time>2026-05-09T05:39:51.216Z</time>
      </trkpt>
      <trkpt lat="47.83825" lon="6.9864">
        <ele>925</ele>
        <time>2026-05-09T05:39:52.216Z</time>
      </trkpt>
      <trkpt lat="47.83825" lon="6.9864">
        <ele>925</ele>
        <time>2026-05-09T05:39:53.216Z</time>
      </trkpt>
      <trkpt lat="47.83825" lon="6.9864">
        <ele>926</ele>
        <time>2026-05-09T05:39:54.217Z</time>
      </trkpt>
      <trkpt lat="47.83829" lon="6.98644">
        <ele>928</ele>
        <time>2026-05-09T05:40:01.549Z</time>
      </trkpt>
      <trkpt lat="47.83829" lon="6.98646">
        <ele>929</ele>
        <time>2026-05-09T05:40:02.550Z</time>
      </trkpt>
      <trkpt lat="47.8383" lon="6.98647">
        <ele>929</ele>
        <time>2026-05-09T05:40:03.549Z</time>
      </trkpt>
      <trkpt lat="47.83831" lon="6.98649">
        <ele>929</ele>
        <time>2026-05-09T05:40:04.550Z</time>
      </trkpt>
      <trkpt lat="47.83833" lon="6.98651">
        <ele>929</ele>
        <time>2026-05-09T05:40:05.550Z</time>
      </trkpt>
      <trkpt lat="47.83833" lon="6.98652">
        <ele>930</ele>
        <time>2026-05-09T05:40:06.549Z</time>
      </trkpt>
      <trkpt lat="47.83833" lon="6.98652">
        <ele>930</ele>
        <time>2026-05-09T05:40:07.550Z</time>
      </trkpt>
      <trkpt lat="47.83832" lon="6.98652">
        <ele>930</ele>
        <time>2026-05-09T05:40:08.549Z</time>
      </trkpt>
      <trkpt lat="47.83832" lon="6.98653">
        <ele>930</ele>
        <time>2026-05-09T05:40:09.549Z</time>
      </trkpt>
      <trkpt lat="47.83833" lon="6.98653">
        <ele>931</ele>
        <time>2026-05-09T05:40:10.549Z</time>
      </trkpt>
      <trkpt lat="47.83834" lon="6.98654">
        <ele>932</ele>
        <time>2026-05-09T05:40:11.549Z</time>
      </trkpt>
      <trkpt lat="47.83835" lon="6.98656">
        <ele>932</ele>
        <time>2026-05-09T05:40:12.550Z</time>
      </trkpt>
      <trkpt lat="47.83836" lon="6.98657">
        <ele>933</ele>
        <time>2026-05-09T05:40:13.549Z</time>
      </trkpt>
      <trkpt lat="47.83837" lon="6.98658">
        <ele>933</ele>
        <time>2026-05-09T05:40:14.550Z</time>
      </trkpt>
      <trkpt lat="47.83838" lon="6.98658">
        <ele>934</ele>
        <time>2026-05-09T05:40:15.549Z</time>
      </trkpt>
      <trkpt lat="47.8384" lon="6.9866">
        <ele>934</ele>
        <time>2026-05-09T05:40:16.550Z</time>
      </trkpt>
      <trkpt lat="47.83841" lon="6.9866">
        <ele>935</ele>
        <time>2026-05-09T05:40:17.549Z</time>
      </trkpt>
      <trkpt lat="47.83842" lon="6.9866">
        <ele>935</ele>
        <time>2026-05-09T05:40:18.550Z</time>
      </trkpt>
      <trkpt lat="47.83844" lon="6.98661">
        <ele>936</ele>
        <time>2026-05-09T05:40:19.549Z</time>
      </trkpt>
      <trkpt lat="47.83844" lon="6.98661">
        <ele>936</ele>
        <time>2026-05-09T05:40:20.549Z</time>
      </trkpt>
      <trkpt lat="47.83844" lon="6.98661">
        <ele>937</ele>
        <time>2026-05-09T05:40:21.549Z</time>
      </trkpt>
      <trkpt lat="47.83845" lon="6.98662">
        <ele>937</ele>
        <time>2026-05-09T05:40:22.549Z</time>
      </trkpt>
      <trkpt lat="47.83846" lon="6.98663">
        <ele>937</ele>
        <time>2026-05-09T05:40:23.550Z</time>
      </trkpt>
      <trkpt lat="47.83847" lon="6.98664">
        <ele>938</ele>
        <time>2026-05-09T05:40:24.549Z</time>
      </trkpt>
      <trkpt lat="47.83847" lon="6.98664">
        <ele>938</ele>
        <time>2026-05-09T05:40:25.549Z</time>
      </trkpt>
      <trkpt lat="47.83848" lon="6.98663">
        <ele>939</ele>
        <time>2026-05-09T05:40:26.550Z</time>
      </trkpt>
      <trkpt lat="47.83848" lon="6.98661">
        <ele>939</ele>
        <time>2026-05-09T05:40:27.550Z</time>
      </trkpt>
      <trkpt lat="47.83848" lon="6.9866">
        <ele>940</ele>
        <time>2026-05-09T05:40:28.550Z</time>
      </trkpt>
      <trkpt lat="47.8385" lon="6.98661">
        <ele>940</ele>
        <time>2026-05-09T05:40:29.549Z</time>
      </trkpt>
      <trkpt lat="47.83851" lon="6.98661">
        <ele>940</ele>
        <time>2026-05-09T05:40:30.549Z</time>
      </trkpt>
      <trkpt lat="47.83852" lon="6.98662">
        <ele>940</ele>
        <time>2026-05-09T05:40:31.549Z</time>
      </trkpt>
      <trkpt lat="47.83853" lon="6.98662">
        <ele>940</ele>
        <time>2026-05-09T05:40:32.549Z</time>
      </trkpt>
      <trkpt lat="47.83853" lon="6.98663">
        <ele>940</ele>
        <time>2026-05-09T05:40:33.549Z</time>
      </trkpt>
      <trkpt lat="47.83853" lon="6.98663">
        <ele>941</ele>
        <time>2026-05-09T05:40:34.550Z</time>
      </trkpt>
      <trkpt lat="47.83854" lon="6.98664">
        <ele>941</ele>
        <time>2026-05-09T05:40:35.549Z</time>
      </trkpt>
      <trkpt lat="47.83854" lon="6.98665">
        <ele>942</ele>
        <time>2026-05-09T05:40:36.549Z</time>
      </trkpt>
      <trkpt lat="47.83855" lon="6.98665">
        <ele>942</ele>
        <time>2026-05-09T05:40:37.549Z</time>
      </trkpt>
      <trkpt lat="47.83855" lon="6.98666">
        <ele>943</ele>
        <time>2026-05-09T05:40:38.550Z</time>
      </trkpt>
      <trkpt lat="47.83856" lon="6.98667">
        <ele>943</ele>
        <time>2026-05-09T05:40:39.549Z</time>
      </trkpt>
      <trkpt lat="47.83856" lon="6.98667">
        <ele>944</ele>
        <time>2026-05-09T05:40:40.549Z</time>
      </trkpt>
      <trkpt lat="47.83856" lon="6.98667">
        <ele>944</ele>
        <time>2026-05-09T05:40:41.550Z</time>
      </trkpt>
      <trkpt lat="47.83857" lon="6.98667">
        <ele>945</ele>
        <time>2026-05-09T05:40:42.550Z</time>
      </trkpt>
      <trkpt lat="47.83857" lon="6.98668">
        <ele>946</ele>
        <time>2026-05-09T05:40:43.550Z</time>
      </trkpt>
      <trkpt lat="47.83857" lon="6.98668">
        <ele>946</ele>
        <time>2026-05-09T05:40:44.549Z</time>
      </trkpt>
      <trkpt lat="47.83858" lon="6.98669">
        <ele>947</ele>
        <time>2026-05-09T05:40:45.549Z</time>
      </trkpt>
      <trkpt lat="47.83858" lon="6.98669">
        <ele>948</ele>
        <time>2026-05-09T05:40:46.549Z</time>
      </trkpt>
      <trkpt lat="47.83859" lon="6.98669">
        <ele>948</ele>
        <time>2026-05-09T05:40:47.549Z</time>
      </trkpt>
      <trkpt lat="47.8386" lon="6.9867">
        <ele>949</ele>
        <time>2026-05-09T05:40:48.549Z</time>
      </trkpt>
      <trkpt lat="47.83861" lon="6.98671">
        <ele>949</ele>
        <time>2026-05-09T05:40:49.549Z</time>
      </trkpt>
      <trkpt lat="47.83861" lon="6.98671">
        <ele>949</ele>
        <time>2026-05-09T05:40:50.549Z</time>
      </trkpt>
      <trkpt lat="47.83862" lon="6.98672">
        <ele>949</ele>
        <time>2026-05-09T05:40:51.550Z</time>
      </trkpt>
      <trkpt lat="47.83862" lon="6.98673">
        <ele>949</ele>
        <time>2026-05-09T05:40:52.549Z</time>
      </trkpt>
      <trkpt lat="47.83863" lon="6.98674">
        <ele>949</ele>
        <time>2026-05-09T05:40:53.550Z</time>
      </trkpt>
      <trkpt lat="47.83863" lon="6.98675">
        <ele>950</ele>
        <time>2026-05-09T05:40:54.549Z</time>
      </trkpt>
      <trkpt lat="47.83863" lon="6.98675">
        <ele>950</ele>
        <time>2026-05-09T05:40:55.550Z</time>
      </trkpt>
      <trkpt lat="47.83864" lon="6.98677">
        <ele>950</ele>
        <time>2026-05-09T05:40:56.549Z</time>
      </trkpt>
      <trkpt lat="47.83865" lon="6.98677">
        <ele>950</ele>
        <time>2026-05-09T05:40:57.549Z</time>
      </trkpt>
      <trkpt lat="47.83865" lon="6.98678">
        <ele>950</ele>
        <time>2026-05-09T05:40:58.549Z</time>
      </trkpt>
      <trkpt lat="47.83866" lon="6.9868">
        <ele>950</ele>
        <time>2026-05-09T05:40:59.549Z</time>
      </trkpt>
      <trkpt lat="47.83867" lon="6.98681">
        <ele>950</ele>
        <time>2026-05-09T05:41:00.549Z</time>
      </trkpt>
      <trkpt lat="47.83868" lon="6.98681">
        <ele>950</ele>
        <time>2026-05-09T05:41:01.549Z</time>
      </trkpt>
      <trkpt lat="47.83869" lon="6.98682">
        <ele>950</ele>
        <time>2026-05-09T05:41:02.549Z</time>
      </trkpt>
      <trkpt lat="47.83869" lon="6.98682">
        <ele>951</ele>
        <time>2026-05-09T05:41:03.549Z</time>
      </trkpt>
      <trkpt lat="47.8387" lon="6.98682">
        <ele>951</ele>
        <time>2026-05-09T05:41:04.549Z</time>
      </trkpt>
      <trkpt lat="47.8387" lon="6.98682">
        <ele>951</ele>
        <time>2026-05-09T05:41:05.549Z</time>
      </trkpt>
      <trkpt lat="47.83871" lon="6.98681">
        <ele>952</ele>
        <time>2026-05-09T05:41:06.549Z</time>
      </trkpt>
      <trkpt lat="47.83871" lon="6.98681">
        <ele>952</ele>
        <time>2026-05-09T05:41:07.550Z</time>
      </trkpt>
      <trkpt lat="47.83872" lon="6.98681">
        <ele>953</ele>
        <time>2026-05-09T05:41:08.550Z</time>
      </trkpt>
      <trkpt lat="47.83872" lon="6.98681">
        <ele>953</ele>
        <time>2026-05-09T05:41:09.549Z</time>
      </trkpt>
      <trkpt lat="47.83873" lon="6.98681">
        <ele>954</ele>
        <time>2026-05-09T05:41:10.549Z</time>
      </trkpt>
      <trkpt lat="47.83874" lon="6.98682">
        <ele>954</ele>
        <time>2026-05-09T05:41:11.549Z</time>
      </trkpt>
      <trkpt lat="47.83875" lon="6.98682">
        <ele>955</ele>
        <time>2026-05-09T05:41:12.549Z</time>
      </trkpt>
      <trkpt lat="47.83876" lon="6.98682">
        <ele>955</ele>
        <time>2026-05-09T05:41:13.549Z</time>
      </trkpt>
      <trkpt lat="47.83877" lon="6.98683">
        <ele>956</ele>
        <time>2026-05-09T05:41:14.549Z</time>
      </trkpt>
      <trkpt lat="47.83877" lon="6.98684">
        <ele>956</ele>
        <time>2026-05-09T05:41:15.549Z</time>
      </trkpt>
      <trkpt lat="47.83878" lon="6.98684">
        <ele>956</ele>
        <time>2026-05-09T05:41:16.549Z</time>
      </trkpt>
      <trkpt lat="47.83879" lon="6.98684">
        <ele>957</ele>
        <time>2026-05-09T05:41:17.550Z</time>
      </trkpt>
      <trkpt lat="47.83879" lon="6.98685">
        <ele>957</ele>
        <time>2026-05-09T05:41:18.550Z</time>
      </trkpt>
      <trkpt lat="47.8388" lon="6.98686">
        <ele>957</ele>
        <time>2026-05-09T05:41:19.550Z</time>
      </trkpt>
      <trkpt lat="47.83881" lon="6.98686">
        <ele>958</ele>
        <time>2026-05-09T05:41:20.549Z</time>
      </trkpt>
      <trkpt lat="47.83881" lon="6.98685">
        <ele>958</ele>
        <time>2026-05-09T05:41:21.549Z</time>
      </trkpt>
      <trkpt lat="47.83882" lon="6.98686">
        <ele>958</ele>
        <time>2026-05-09T05:41:22.549Z</time>
      </trkpt>
      <trkpt lat="47.83883" lon="6.98687">
        <ele>959</ele>
        <time>2026-05-09T05:41:23.549Z</time>
      </trkpt>
      <trkpt lat="47.83884" lon="6.98687">
        <ele>959</ele>
        <time>2026-05-09T05:41:24.549Z</time>
      </trkpt>
      <trkpt lat="47.83885" lon="6.98687">
        <ele>959</ele>
        <time>2026-05-09T05:41:25.549Z</time>
      </trkpt>
      <trkpt lat="47.83885" lon="6.98687">
        <ele>960</ele>
        <time>2026-05-09T05:41:26.549Z</time>
      </trkpt>
      <trkpt lat="47.83886" lon="6.98687">
        <ele>960</ele>
        <time>2026-05-09T05:41:27.549Z</time>
      </trkpt>
      <trkpt lat="47.83886" lon="6.98688">
        <ele>960</ele>
        <time>2026-05-09T05:41:28.549Z</time>
      </trkpt>
      <trkpt lat="47.83886" lon="6.98689">
        <ele>961</ele>
        <time>2026-05-09T05:41:29.549Z</time>
      </trkpt>
      <trkpt lat="47.83887" lon="6.9869">
        <ele>961</ele>
        <time>2026-05-09T05:41:30.549Z</time>
      </trkpt>
      <trkpt lat="47.83889" lon="6.98691">
        <ele>961</ele>
        <time>2026-05-09T05:41:31.549Z</time>
      </trkpt>
      <trkpt lat="47.8389" lon="6.98693">
        <ele>961</ele>
        <time>2026-05-09T05:41:32.549Z</time>
      </trkpt>
      <trkpt lat="47.83891" lon="6.98693">
        <ele>960</ele>
        <time>2026-05-09T05:41:33.549Z</time>
      </trkpt>
      <trkpt lat="47.83892" lon="6.98694">
        <ele>960</ele>
        <time>2026-05-09T05:41:34.550Z</time>
      </trkpt>
      <trkpt lat="47.83893" lon="6.98695">
        <ele>960</ele>
        <time>2026-05-09T05:41:35.549Z</time>
      </trkpt>
      <trkpt lat="47.83893" lon="6.98696">
        <ele>960</ele>
        <time>2026-05-09T05:41:36.550Z</time>
      </trkpt>
      <trkpt lat="47.83894" lon="6.98698">
        <ele>960</ele>
        <time>2026-05-09T05:41:37.550Z</time>
      </trkpt>
      <trkpt lat="47.83895" lon="6.98699">
        <ele>960</ele>
        <time>2026-05-09T05:41:38.549Z</time>
      </trkpt>
      <trkpt lat="47.83895" lon="6.987">
        <ele>960</ele>
        <time>2026-05-09T05:41:39.549Z</time>
      </trkpt>
      <trkpt lat="47.83895" lon="6.98701">
        <ele>960</ele>
        <time>2026-05-09T05:41:40.549Z</time>
      </trkpt>
      <trkpt lat="47.83896" lon="6.98703">
        <ele>960</ele>
        <time>2026-05-09T05:41:41.549Z</time>
      </trkpt>
      <trkpt lat="47.83897" lon="6.98704">
        <ele>960</ele>
        <time>2026-05-09T05:41:42.549Z</time>
      </trkpt>
      <trkpt lat="47.83897" lon="6.98705">
        <ele>960</ele>
        <time>2026-05-09T05:41:43.549Z</time>
      </trkpt>
      <trkpt lat="47.83898" lon="6.98707">
        <ele>960</ele>
        <time>2026-05-09T05:41:44.549Z</time>
      </trkpt>
      <trkpt lat="47.83899" lon="6.98707">
        <ele>960</ele>
        <time>2026-05-09T05:41:45.549Z</time>
      </trkpt>
      <trkpt lat="47.839" lon="6.98708">
        <ele>960</ele>
        <time>2026-05-09T05:41:46.549Z</time>
      </trkpt>
      <trkpt lat="47.839" lon="6.98709">
        <ele>960</ele>
        <time>2026-05-09T05:41:47.549Z</time>
      </trkpt>
      <trkpt lat="47.839" lon="6.98709">
        <ele>960</ele>
        <time>2026-05-09T05:41:48.549Z</time>
      </trkpt>
      <trkpt lat="47.83901" lon="6.98709">
        <ele>959</ele>
        <time>2026-05-09T05:41:49.549Z</time>
      </trkpt>
      <trkpt lat="47.83901" lon="6.98709">
        <ele>959</ele>
        <time>2026-05-09T05:41:50.549Z</time>
      </trkpt>
      <trkpt lat="47.83904" lon="6.98711">
        <ele>959</ele>
        <time>2026-05-09T05:41:57.938Z</time>
      </trkpt>
      <trkpt lat="47.83905" lon="6.98711">
        <ele>960</ele>
        <time>2026-05-09T05:41:58.938Z</time>
      </trkpt>
      <trkpt lat="47.83906" lon="6.98711">
        <ele>960</ele>
        <time>2026-05-09T05:41:59.938Z</time>
      </trkpt>
      <trkpt lat="47.83906" lon="6.98711">
        <ele>960</ele>
        <time>2026-05-09T05:42:00.938Z</time>
      </trkpt>
      <trkpt lat="47.83906" lon="6.98711">
        <ele>960</ele>
        <time>2026-05-09T05:42:01.938Z</time>
      </trkpt>
      <trkpt lat="47.83906" lon="6.98711">
        <ele>960</ele>
        <time>2026-05-09T05:42:02.938Z</time>
      </trkpt>
      <trkpt lat="47.83906" lon="6.98711">
        <ele>960</ele>
        <time>2026-05-09T05:42:03.938Z</time>
      </trkpt>
      <trkpt lat="47.83906" lon="6.98711">
        <ele>961</ele>
        <time>2026-05-09T05:42:04.938Z</time>
      </trkpt>
      <trkpt lat="47.83907" lon="6.98711">
        <ele>961</ele>
        <time>2026-05-09T05:42:05.939Z</time>
      </trkpt>
      <trkpt lat="47.83907" lon="6.98711">
        <ele>961</ele>
        <time>2026-05-09T05:42:06.938Z</time>
      </trkpt>
      <trkpt lat="47.83908" lon="6.98712">
        <ele>961</ele>
        <time>2026-05-09T05:42:07.938Z</time>
      </trkpt>
      <trkpt lat="47.83909" lon="6.98713">
        <ele>961</ele>
        <time>2026-05-09T05:42:08.939Z</time>
      </trkpt>
      <trkpt lat="47.8391" lon="6.98714">
        <ele>961</ele>
        <time>2026-05-09T05:42:09.938Z</time>
      </trkpt>
      <trkpt lat="47.83911" lon="6.98715">
        <ele>961</ele>
        <time>2026-05-09T05:42:10.938Z</time>
      </trkpt>
      <trkpt lat="47.83912" lon="6.98715">
        <ele>961</ele>
        <time>2026-05-09T05:42:11.938Z</time>
      </trkpt>
      <trkpt lat="47.83913" lon="6.98716">
        <ele>961</ele>
        <time>2026-05-09T05:42:12.938Z</time>
      </trkpt>
      <trkpt lat="47.83914" lon="6.98717">
        <ele>961</ele>
        <time>2026-05-09T05:42:13.938Z</time>
      </trkpt>
      <trkpt lat="47.83915" lon="6.98719">
        <ele>961</ele>
        <time>2026-05-09T05:42:14.938Z</time>
      </trkpt>
      <trkpt lat="47.83917" lon="6.98721">
        <ele>961</ele>
        <time>2026-05-09T05:42:15.938Z</time>
      </trkpt>
      <trkpt lat="47.83918" lon="6.98722">
        <ele>961</ele>
        <time>2026-05-09T05:42:16.938Z</time>
      </trkpt>
      <trkpt lat="47.83918" lon="6.98723">
        <ele>961</ele>
        <time>2026-05-09T05:42:17.939Z</time>
      </trkpt>
      <trkpt lat="47.83919" lon="6.98725">
        <ele>961</ele>
        <time>2026-05-09T05:42:18.938Z</time>
      </trkpt>
      <trkpt lat="47.83921" lon="6.98727">
        <ele>962</ele>
        <time>2026-05-09T05:42:19.938Z</time>
      </trkpt>
      <trkpt lat="47.83923" lon="6.98729">
        <ele>962</ele>
        <time>2026-05-09T05:42:20.938Z</time>
      </trkpt>
      <trkpt lat="47.83923" lon="6.98729">
        <ele>962</ele>
        <time>2026-05-09T05:42:21.938Z</time>
      </trkpt>
      <trkpt lat="47.83926" lon="6.98731">
        <ele>962</ele>
        <time>2026-05-09T05:42:22.938Z</time>
      </trkpt>
      <trkpt lat="47.83927" lon="6.98731">
        <ele>963</ele>
        <time>2026-05-09T05:42:23.938Z</time>
      </trkpt>
      <trkpt lat="47.83928" lon="6.98732">
        <ele>963</ele>
        <time>2026-05-09T05:42:24.938Z</time>
      </trkpt>
      <trkpt lat="47.83928" lon="6.98732">
        <ele>963</ele>
        <time>2026-05-09T05:42:25.939Z</time>
      </trkpt>
      <trkpt lat="47.83929" lon="6.98735">
        <ele>963</ele>
        <time>2026-05-09T05:42:26.939Z</time>
      </trkpt>
      <trkpt lat="47.83931" lon="6.98736">
        <ele>963</ele>
        <time>2026-05-09T05:42:27.938Z</time>
      </trkpt>
      <trkpt lat="47.83931" lon="6.98738">
        <ele>964</ele>
        <time>2026-05-09T05:42:28.938Z</time>
      </trkpt>
      <trkpt lat="47.83932" lon="6.98739">
        <ele>964</ele>
        <time>2026-05-09T05:42:29.939Z</time>
      </trkpt>
      <trkpt lat="47.83932" lon="6.98741">
        <ele>964</ele>
        <time>2026-05-09T05:42:30.938Z</time>
      </trkpt>
      <trkpt lat="47.83933" lon="6.98742">
        <ele>964</ele>
        <time>2026-05-09T05:42:31.939Z</time>
      </trkpt>
      <trkpt lat="47.83934" lon="6.98743">
        <ele>964</ele>
        <time>2026-05-09T05:42:32.939Z</time>
      </trkpt>
      <trkpt lat="47.83935" lon="6.98744">
        <ele>964</ele>
        <time>2026-05-09T05:42:33.938Z</time>
      </trkpt>
      <trkpt lat="47.83936" lon="6.98745">
        <ele>964</ele>
        <time>2026-05-09T05:42:34.938Z</time>
      </trkpt>
      <trkpt lat="47.83937" lon="6.98745">
        <ele>964</ele>
        <time>2026-05-09T05:42:35.938Z</time>
      </trkpt>
      <trkpt lat="47.83937" lon="6.98745">
        <ele>964</ele>
        <time>2026-05-09T05:42:36.939Z</time>
      </trkpt>
      <trkpt lat="47.83937" lon="6.98746">
        <ele>964</ele>
        <time>2026-05-09T05:42:37.939Z</time>
      </trkpt>
      <trkpt lat="47.83937" lon="6.98746">
        <ele>964</ele>
        <time>2026-05-09T05:42:38.939Z</time>
      </trkpt>
      <trkpt lat="47.83937" lon="6.98747">
        <ele>964</ele>
        <time>2026-05-09T05:42:39.938Z</time>
      </trkpt>
      <trkpt lat="47.83938" lon="6.98749">
        <ele>964</ele>
        <time>2026-05-09T05:42:40.938Z</time>
      </trkpt>
      <trkpt lat="47.83939" lon="6.9875">
        <ele>964</ele>
        <time>2026-05-09T05:42:41.939Z</time>
      </trkpt>
      <trkpt lat="47.83939" lon="6.98752">
        <ele>964</ele>
        <time>2026-05-09T05:42:42.938Z</time>
      </trkpt>
      <trkpt lat="47.83939" lon="6.98753">
        <ele>964</ele>
        <time>2026-05-09T05:42:43.938Z</time>
      </trkpt>
      <trkpt lat="47.8394" lon="6.98754">
        <ele>964</ele>
        <time>2026-05-09T05:42:44.939Z</time>
      </trkpt>
      <trkpt lat="47.8394" lon="6.98754">
        <ele>964</ele>
        <time>2026-05-09T05:42:45.938Z</time>
      </trkpt>
      <trkpt lat="47.83942" lon="6.98755">
        <ele>964</ele>
        <time>2026-05-09T05:42:46.938Z</time>
      </trkpt>
      <trkpt lat="47.83943" lon="6.98756">
        <ele>964</ele>
        <time>2026-05-09T05:42:47.939Z</time>
      </trkpt>
      <trkpt lat="47.83943" lon="6.98757">
        <ele>964</ele>
        <time>2026-05-09T05:42:48.939Z</time>
      </trkpt>
      <trkpt lat="47.83944" lon="6.98758">
        <ele>964</ele>
        <time>2026-05-09T05:42:49.938Z</time>
      </trkpt>
      <trkpt lat="47.83944" lon="6.98759">
        <ele>963</ele>
        <time>2026-05-09T05:42:50.938Z</time>
      </trkpt>
      <trkpt lat="47.83945" lon="6.9876">
        <ele>963</ele>
        <time>2026-05-09T05:42:51.938Z</time>
      </trkpt>
      <trkpt lat="47.83946" lon="6.98761">
        <ele>963</ele>
        <time>2026-05-09T05:42:52.939Z</time>
      </trkpt>
      <trkpt lat="47.83946" lon="6.98763">
        <ele>963</ele>
        <time>2026-05-09T05:42:53.938Z</time>
      </trkpt>
      <trkpt lat="47.83947" lon="6.98764">
        <ele>963</ele>
        <time>2026-05-09T05:42:54.939Z</time>
      </trkpt>
      <trkpt lat="47.83947" lon="6.98764">
        <ele>963</ele>
        <time>2026-05-09T05:42:55.938Z</time>
      </trkpt>
      <trkpt lat="47.83948" lon="6.98766">
        <ele>964</ele>
        <time>2026-05-09T05:42:56.938Z</time>
      </trkpt>
      <trkpt lat="47.83949" lon="6.98767">
        <ele>963</ele>
        <time>2026-05-09T05:42:57.938Z</time>
      </trkpt>
      <trkpt lat="47.83949" lon="6.98768">
        <ele>964</ele>
        <time>2026-05-09T05:42:58.938Z</time>
      </trkpt>
      <trkpt lat="47.83949" lon="6.98769">
        <ele>964</ele>
        <time>2026-05-09T05:42:59.938Z</time>
      </trkpt>
      <trkpt lat="47.83949" lon="6.98771">
        <ele>963</ele>
        <time>2026-05-09T05:43:00.938Z</time>
      </trkpt>
      <trkpt lat="47.8395" lon="6.98772">
        <ele>963</ele>
        <time>2026-05-09T05:43:01.938Z</time>
      </trkpt>
      <trkpt lat="47.8395" lon="6.98772">
        <ele>963</ele>
        <time>2026-05-09T05:43:02.938Z</time>
      </trkpt>
      <trkpt lat="47.83951" lon="6.98774">
        <ele>963</ele>
        <time>2026-05-09T05:43:03.939Z</time>
      </trkpt>
      <trkpt lat="47.83951" lon="6.98775">
        <ele>963</ele>
        <time>2026-05-09T05:43:04.938Z</time>
      </trkpt>
      <trkpt lat="47.83951" lon="6.98777">
        <ele>963</ele>
        <time>2026-05-09T05:43:05.938Z</time>
      </trkpt>
      <trkpt lat="47.83952" lon="6.98779">
        <ele>963</ele>
        <time>2026-05-09T05:43:06.938Z</time>
      </trkpt>
      <trkpt lat="47.83953" lon="6.9878">
        <ele>964</ele>
        <time>2026-05-09T05:43:07.939Z</time>
      </trkpt>
      <trkpt lat="47.83953" lon="6.98782">
        <ele>964</ele>
        <time>2026-05-09T05:43:08.939Z</time>
      </trkpt>
      <trkpt lat="47.83954" lon="6.98783">
        <ele>965</ele>
        <time>2026-05-09T05:43:09.938Z</time>
      </trkpt>
      <trkpt lat="47.83954" lon="6.98785">
        <ele>965</ele>
        <time>2026-05-09T05:43:10.938Z</time>
      </trkpt>
      <trkpt lat="47.83955" lon="6.98786">
        <ele>966</ele>
        <time>2026-05-09T05:43:11.938Z</time>
      </trkpt>
      <trkpt lat="47.83955" lon="6.98787">
        <ele>966</ele>
        <time>2026-05-09T05:43:12.939Z</time>
      </trkpt>
      <trkpt lat="47.83955" lon="6.98789">
        <ele>966</ele>
        <time>2026-05-09T05:43:13.939Z</time>
      </trkpt>
      <trkpt lat="47.83956" lon="6.9879">
        <ele>966</ele>
        <time>2026-05-09T05:43:14.939Z</time>
      </trkpt>
      <trkpt lat="47.83956" lon="6.9879">
        <ele>966</ele>
        <time>2026-05-09T05:43:15.938Z</time>
      </trkpt>
      <trkpt lat="47.83956" lon="6.98792">
        <ele>966</ele>
        <time>2026-05-09T05:43:16.938Z</time>
      </trkpt>
      <trkpt lat="47.83956" lon="6.98794">
        <ele>967</ele>
        <time>2026-05-09T05:43:17.938Z</time>
      </trkpt>
      <trkpt lat="47.83957" lon="6.98795">
        <ele>967</ele>
        <time>2026-05-09T05:43:18.939Z</time>
      </trkpt>
      <trkpt lat="47.83957" lon="6.98796">
        <ele>967</ele>
        <time>2026-05-09T05:43:19.939Z</time>
      </trkpt>
      <trkpt lat="47.83957" lon="6.98797">
        <ele>968</ele>
        <time>2026-05-09T05:43:20.939Z</time>
      </trkpt>
      <trkpt lat="47.83958" lon="6.98798">
        <ele>968</ele>
        <time>2026-05-09T05:43:21.938Z</time>
      </trkpt>
      <trkpt lat="47.83958" lon="6.98799">
        <ele>968</ele>
        <time>2026-05-09T05:43:22.938Z</time>
      </trkpt>
      <trkpt lat="47.83959" lon="6.988">
        <ele>968</ele>
        <time>2026-05-09T05:43:23.938Z</time>
      </trkpt>
      <trkpt lat="47.83959" lon="6.98801">
        <ele>968</ele>
        <time>2026-05-09T05:43:24.938Z</time>
      </trkpt>
      <trkpt lat="47.8396" lon="6.98802">
        <ele>968</ele>
        <time>2026-05-09T05:43:25.938Z</time>
      </trkpt>
      <trkpt lat="47.83961" lon="6.98804">
        <ele>968</ele>
        <time>2026-05-09T05:43:26.939Z</time>
      </trkpt>
      <trkpt lat="47.83961" lon="6.98804">
        <ele>968</ele>
        <time>2026-05-09T05:43:27.939Z</time>
      </trkpt>
      <trkpt lat="47.83963" lon="6.98805">
        <ele>969</ele>
        <time>2026-05-09T05:43:28.938Z</time>
      </trkpt>
      <trkpt lat="47.83963" lon="6.98806">
        <ele>969</ele>
        <time>2026-05-09T05:43:29.938Z</time>
      </trkpt>
      <trkpt lat="47.83964" lon="6.98807">
        <ele>969</ele>
        <time>2026-05-09T05:43:30.938Z</time>
      </trkpt>
      <trkpt lat="47.83964" lon="6.98807">
        <ele>969</ele>
        <time>2026-05-09T05:43:31.938Z</time>
      </trkpt>
      <trkpt lat="47.83965" lon="6.98809">
        <ele>969</ele>
        <time>2026-05-09T05:43:32.938Z</time>
      </trkpt>
      <trkpt lat="47.83965" lon="6.9881">
        <ele>969</ele>
        <time>2026-05-09T05:43:33.939Z</time>
      </trkpt>
      <trkpt lat="47.83966" lon="6.98811">
        <ele>969</ele>
        <time>2026-05-09T05:43:34.938Z</time>
      </trkpt>
      <trkpt lat="47.83967" lon="6.98812">
        <ele>969</ele>
        <time>2026-05-09T05:43:35.938Z</time>
      </trkpt>
      <trkpt lat="47.83968" lon="6.98813">
        <ele>969</ele>
        <time>2026-05-09T05:43:36.939Z</time>
      </trkpt>
      <trkpt lat="47.83969" lon="6.98814">
        <ele>969</ele>
        <time>2026-05-09T05:43:37.938Z</time>
      </trkpt>
      <trkpt lat="47.8397" lon="6.98815">
        <ele>969</ele>
        <time>2026-05-09T05:43:38.938Z</time>
      </trkpt>
      <trkpt lat="47.8397" lon="6.98815">
        <ele>969</ele>
        <time>2026-05-09T05:43:39.938Z</time>
      </trkpt>
      <trkpt lat="47.8397" lon="6.98815">
        <ele>969</ele>
        <time>2026-05-09T05:43:40.938Z</time>
      </trkpt>
      <trkpt lat="47.83972" lon="6.98817">
        <ele>969</ele>
        <time>2026-05-09T05:43:41.938Z</time>
      </trkpt>
      <trkpt lat="47.83972" lon="6.98817">
        <ele>969</ele>
        <time>2026-05-09T05:43:42.938Z</time>
      </trkpt>
      <trkpt lat="47.83973" lon="6.98818">
        <ele>969</ele>
        <time>2026-05-09T05:43:43.938Z</time>
      </trkpt>
      <trkpt lat="47.83974" lon="6.9882">
        <ele>968</ele>
        <time>2026-05-09T05:43:44.938Z</time>
      </trkpt>
      <trkpt lat="47.83974" lon="6.98821">
        <ele>968</ele>
        <time>2026-05-09T05:43:45.939Z</time>
      </trkpt>
      <trkpt lat="47.83975" lon="6.98821">
        <ele>969</ele>
        <time>2026-05-09T05:43:46.938Z</time>
      </trkpt>
      <trkpt lat="47.83976" lon="6.98821">
        <ele>969</ele>
        <time>2026-05-09T05:43:47.939Z</time>
      </trkpt>
      <trkpt lat="47.83977" lon="6.98822">
        <ele>969</ele>
        <time>2026-05-09T05:43:48.939Z</time>
      </trkpt>
      <trkpt lat="47.83977" lon="6.98822">
        <ele>969</ele>
        <time>2026-05-09T05:43:49.938Z</time>
      </trkpt>
      <trkpt lat="47.83978" lon="6.98824">
        <ele>970</ele>
        <time>2026-05-09T05:43:50.939Z</time>
      </trkpt>
      <trkpt lat="47.8398" lon="6.98824">
        <ele>971</ele>
        <time>2026-05-09T05:43:51.938Z</time>
      </trkpt>
      <trkpt lat="47.8398" lon="6.98824">
        <ele>971</ele>
        <time>2026-05-09T05:43:52.938Z</time>
      </trkpt>
      <trkpt lat="47.83982" lon="6.98826">
        <ele>972</ele>
        <time>2026-05-09T05:43:53.938Z</time>
      </trkpt>
      <trkpt lat="47.83983" lon="6.98827">
        <ele>972</ele>
        <time>2026-05-09T05:43:54.938Z</time>
      </trkpt>
      <trkpt lat="47.83984" lon="6.98827">
        <ele>972</ele>
        <time>2026-05-09T05:43:55.939Z</time>
      </trkpt>
      <trkpt lat="47.83984" lon="6.98827">
        <ele>972</ele>
        <time>2026-05-09T05:43:56.939Z</time>
      </trkpt>
      <trkpt lat="47.83984" lon="6.98828">
        <ele>972</ele>
        <time>2026-05-09T05:43:57.938Z</time>
      </trkpt>
      <trkpt lat="47.83986" lon="6.98829">
        <ele>972</ele>
        <time>2026-05-09T05:43:58.939Z</time>
      </trkpt>
      <trkpt lat="47.83987" lon="6.9883">
        <ele>973</ele>
        <time>2026-05-09T05:43:59.938Z</time>
      </trkpt>
      <trkpt lat="47.83987" lon="6.9883">
        <ele>973</ele>
        <time>2026-05-09T05:44:00.938Z</time>
      </trkpt>
      <trkpt lat="47.83988" lon="6.9883">
        <ele>973</ele>
        <time>2026-05-09T05:44:01.938Z</time>
      </trkpt>
      <trkpt lat="47.83989" lon="6.98831">
        <ele>973</ele>
        <time>2026-05-09T05:44:02.938Z</time>
      </trkpt>
      <trkpt lat="47.8399" lon="6.98832">
        <ele>973</ele>
        <time>2026-05-09T05:44:03.938Z</time>
      </trkpt>
      <trkpt lat="47.83991" lon="6.98833">
        <ele>973</ele>
        <time>2026-05-09T05:44:04.939Z</time>
      </trkpt>
      <trkpt lat="47.83991" lon="6.98833">
        <ele>973</ele>
        <time>2026-05-09T05:44:05.938Z</time>
      </trkpt>
      <trkpt lat="47.83993" lon="6.98834">
        <ele>973</ele>
        <time>2026-05-09T05:44:06.939Z</time>
      </trkpt>
      <trkpt lat="47.83994" lon="6.98834">
        <ele>974</ele>
        <time>2026-05-09T05:44:07.938Z</time>
      </trkpt>
      <trkpt lat="47.83995" lon="6.98835">
        <ele>974</ele>
        <time>2026-05-09T05:44:08.938Z</time>
      </trkpt>
      <trkpt lat="47.83996" lon="6.98836">
        <ele>974</ele>
        <time>2026-05-09T05:44:09.939Z</time>
      </trkpt>
      <trkpt lat="47.83997" lon="6.98837">
        <ele>974</ele>
        <time>2026-05-09T05:44:10.938Z</time>
      </trkpt>
      <trkpt lat="47.83998" lon="6.98837">
        <ele>974</ele>
        <time>2026-05-09T05:44:11.938Z</time>
      </trkpt>
      <trkpt lat="47.83999" lon="6.98837">
        <ele>974</ele>
        <time>2026-05-09T05:44:12.938Z</time>
      </trkpt>
      <trkpt lat="47.84" lon="6.98837">
        <ele>975</ele>
        <time>2026-05-09T05:44:13.938Z</time>
      </trkpt>
      <trkpt lat="47.84001" lon="6.98837">
        <ele>975</ele>
        <time>2026-05-09T05:44:14.938Z</time>
      </trkpt>
      <trkpt lat="47.84001" lon="6.98838">
        <ele>975</ele>
        <time>2026-05-09T05:44:15.938Z</time>
      </trkpt>
      <trkpt lat="47.84002" lon="6.98839">
        <ele>975</ele>
        <time>2026-05-09T05:44:16.939Z</time>
      </trkpt>
      <trkpt lat="47.84002" lon="6.98839">
        <ele>975</ele>
        <time>2026-05-09T05:44:17.938Z</time>
      </trkpt>
      <trkpt lat="47.84004" lon="6.98838">
        <ele>975</ele>
        <time>2026-05-09T05:44:18.939Z</time>
      </trkpt>
      <trkpt lat="47.84005" lon="6.98838">
        <ele>976</ele>
        <time>2026-05-09T05:44:19.938Z</time>
      </trkpt>
      <trkpt lat="47.84006" lon="6.98838">
        <ele>976</ele>
        <time>2026-05-09T05:44:20.938Z</time>
      </trkpt>
      <trkpt lat="47.84007" lon="6.98838">
        <ele>976</ele>
        <time>2026-05-09T05:44:21.938Z</time>
      </trkpt>
      <trkpt lat="47.84008" lon="6.98839">
        <ele>977</ele>
        <time>2026-05-09T05:44:22.938Z</time>
      </trkpt>
      <trkpt lat="47.84009" lon="6.9884">
        <ele>977</ele>
        <time>2026-05-09T05:44:23.938Z</time>
      </trkpt>
      <trkpt lat="47.8401" lon="6.9884">
        <ele>977</ele>
        <time>2026-05-09T05:44:24.938Z</time>
      </trkpt>
      <trkpt lat="47.8401" lon="6.9884">
        <ele>977</ele>
        <time>2026-05-09T05:44:25.939Z</time>
      </trkpt>
      <trkpt lat="47.84011" lon="6.9884">
        <ele>977</ele>
        <time>2026-05-09T05:44:26.938Z</time>
      </trkpt>
      <trkpt lat="47.84013" lon="6.9884">
        <ele>978</ele>
        <time>2026-05-09T05:44:27.939Z</time>
      </trkpt>
      <trkpt lat="47.84014" lon="6.9884">
        <ele>978</ele>
        <time>2026-05-09T05:44:28.938Z</time>
      </trkpt>
      <trkpt lat="47.84015" lon="6.9884">
        <ele>978</ele>
        <time>2026-05-09T05:44:29.939Z</time>
      </trkpt>
      <trkpt lat="47.84015" lon="6.9884">
        <ele>978</ele>
        <time>2026-05-09T05:44:30.939Z</time>
      </trkpt>
      <trkpt lat="47.84017" lon="6.9884">
        <ele>978</ele>
        <time>2026-05-09T05:44:31.938Z</time>
      </trkpt>
      <trkpt lat="47.84018" lon="6.9884">
        <ele>978</ele>
        <time>2026-05-09T05:44:32.938Z</time>
      </trkpt>
      <trkpt lat="47.84019" lon="6.9884">
        <ele>979</ele>
        <time>2026-05-09T05:44:33.938Z</time>
      </trkpt>
      <trkpt lat="47.8402" lon="6.98841">
        <ele>979</ele>
        <time>2026-05-09T05:44:34.938Z</time>
      </trkpt>
      <trkpt lat="47.84021" lon="6.98841">
        <ele>979</ele>
        <time>2026-05-09T05:44:35.939Z</time>
      </trkpt>
      <trkpt lat="47.84022" lon="6.98842">
        <ele>979</ele>
        <time>2026-05-09T05:44:36.938Z</time>
      </trkpt>
      <trkpt lat="47.84023" lon="6.98842">
        <ele>979</ele>
        <time>2026-05-09T05:44:37.938Z</time>
      </trkpt>
      <trkpt lat="47.84024" lon="6.98842">
        <ele>980</ele>
        <time>2026-05-09T05:44:38.939Z</time>
      </trkpt>
      <trkpt lat="47.84025" lon="6.98842">
        <ele>980</ele>
        <time>2026-05-09T05:44:39.938Z</time>
      </trkpt>
      <trkpt lat="47.84026" lon="6.98842">
        <ele>980</ele>
        <time>2026-05-09T05:44:40.938Z</time>
      </trkpt>
      <trkpt lat="47.84026" lon="6.98842">
        <ele>980</ele>
        <time>2026-05-09T05:44:41.938Z</time>
      </trkpt>
      <trkpt lat="47.84026" lon="6.98842">
        <ele>980</ele>
        <time>2026-05-09T05:44:42.939Z</time>
      </trkpt>
      <trkpt lat="47.84028" lon="6.98843">
        <ele>980</ele>
        <time>2026-05-09T05:44:43.938Z</time>
      </trkpt>
      <trkpt lat="47.84029" lon="6.98843">
        <ele>980</ele>
        <time>2026-05-09T05:44:44.938Z</time>
      </trkpt>
      <trkpt lat="47.84029" lon="6.98843">
        <ele>980</ele>
        <time>2026-05-09T05:44:45.938Z</time>
      </trkpt>
      <trkpt lat="47.84029" lon="6.98843">
        <ele>980</ele>
        <time>2026-05-09T05:44:46.938Z</time>
      </trkpt>
      <trkpt lat="47.84031" lon="6.98844">
        <ele>980</ele>
        <time>2026-05-09T05:44:47.938Z</time>
      </trkpt>
      <trkpt lat="47.84032" lon="6.98844">
        <ele>980</ele>
        <time>2026-05-09T05:44:48.938Z</time>
      </trkpt>
      <trkpt lat="47.84032" lon="6.98845">
        <ele>980</ele>
        <time>2026-05-09T05:44:49.938Z</time>
      </trkpt>
      <trkpt lat="47.84032" lon="6.98845">
        <ele>980</ele>
        <time>2026-05-09T05:44:50.938Z</time>
      </trkpt>
      <trkpt lat="47.84033" lon="6.98847">
        <ele>979</ele>
        <time>2026-05-09T05:44:51.939Z</time>
      </trkpt>
      <trkpt lat="47.84033" lon="6.98849">
        <ele>980</ele>
        <time>2026-05-09T05:44:52.938Z</time>
      </trkpt>
      <trkpt lat="47.84033" lon="6.9885">
        <ele>980</ele>
        <time>2026-05-09T05:44:53.938Z</time>
      </trkpt>
      <trkpt lat="47.84033" lon="6.98851">
        <ele>980</ele>
        <time>2026-05-09T05:44:54.938Z</time>
      </trkpt>
      <trkpt lat="47.84033" lon="6.98851">
        <ele>980</ele>
        <time>2026-05-09T05:44:55.938Z</time>
      </trkpt>
      <trkpt lat="47.84033" lon="6.98854">
        <ele>981</ele>
        <time>2026-05-09T05:44:56.938Z</time>
      </trkpt>
      <trkpt lat="47.84033" lon="6.98856">
        <ele>981</ele>
        <time>2026-05-09T05:44:57.938Z</time>
      </trkpt>
      <trkpt lat="47.84033" lon="6.98858">
        <ele>981</ele>
        <time>2026-05-09T05:44:58.939Z</time>
      </trkpt>
      <trkpt lat="47.84033" lon="6.98858">
        <ele>981</ele>
        <time>2026-05-09T05:44:59.938Z</time>
      </trkpt>
      <trkpt lat="47.84033" lon="6.98861">
        <ele>981</ele>
        <time>2026-05-09T05:45:00.938Z</time>
      </trkpt>
      <trkpt lat="47.84033" lon="6.98862">
        <ele>981</ele>
        <time>2026-05-09T05:45:01.938Z</time>
      </trkpt>
      <trkpt lat="47.84033" lon="6.98862">
        <ele>981</ele>
        <time>2026-05-09T05:45:02.938Z</time>
      </trkpt>
      <trkpt lat="47.84033" lon="6.98865">
        <ele>981</ele>
        <time>2026-05-09T05:45:03.938Z</time>
      </trkpt>
      <trkpt lat="47.84033" lon="6.98866">
        <ele>981</ele>
        <time>2026-05-09T05:45:04.939Z</time>
      </trkpt>
      <trkpt lat="47.84033" lon="6.98866">
        <ele>981</ele>
        <time>2026-05-09T05:45:05.938Z</time>
      </trkpt>
      <trkpt lat="47.84033" lon="6.98866">
        <ele>981</ele>
        <time>2026-05-09T05:45:06.938Z</time>
      </trkpt>
      <trkpt lat="47.84033" lon="6.98866">
        <ele>981</ele>
        <time>2026-05-09T05:45:07.939Z</time>
      </trkpt>
      <trkpt lat="47.84036" lon="6.98859">
        <ele>983</ele>
        <time>2026-05-09T05:49:33.224Z</time>
      </trkpt>
      <trkpt lat="47.84037" lon="6.98858">
        <ele>983</ele>
        <time>2026-05-09T05:49:34.223Z</time>
      </trkpt>
      <trkpt lat="47.84038" lon="6.98858">
        <ele>983</ele>
        <time>2026-05-09T05:49:35.224Z</time>
      </trkpt>
      <trkpt lat="47.84039" lon="6.98856">
        <ele>983</ele>
        <time>2026-05-09T05:49:36.223Z</time>
      </trkpt>
      <trkpt lat="47.8404" lon="6.98855">
        <ele>983</ele>
        <time>2026-05-09T05:49:37.224Z</time>
      </trkpt>
      <trkpt lat="47.84041" lon="6.98855">
        <ele>982</ele>
        <time>2026-05-09T05:49:38.224Z</time>
      </trkpt>
      <trkpt lat="47.84042" lon="6.98854">
        <ele>982</ele>
        <time>2026-05-09T05:49:39.223Z</time>
      </trkpt>
      <trkpt lat="47.84043" lon="6.98853">
        <ele>982</ele>
        <time>2026-05-09T05:49:40.224Z</time>
      </trkpt>
      <trkpt lat="47.84044" lon="6.98852">
        <ele>982</ele>
        <time>2026-05-09T05:49:41.223Z</time>
      </trkpt>
      <trkpt lat="47.84045" lon="6.98851">
        <ele>982</ele>
        <time>2026-05-09T05:49:42.224Z</time>
      </trkpt>
      <trkpt lat="47.84046" lon="6.9885">
        <ele>982</ele>
        <time>2026-05-09T05:49:43.223Z</time>
      </trkpt>
      <trkpt lat="47.84047" lon="6.98849">
        <ele>982</ele>
        <time>2026-05-09T05:49:44.223Z</time>
      </trkpt>
      <trkpt lat="47.84048" lon="6.98849">
        <ele>982</ele>
        <time>2026-05-09T05:49:45.223Z</time>
      </trkpt>
      <trkpt lat="47.84048" lon="6.98848">
        <ele>982</ele>
        <time>2026-05-09T05:49:46.224Z</time>
      </trkpt>
      <trkpt lat="47.8405" lon="6.98847">
        <ele>982</ele>
        <time>2026-05-09T05:49:47.223Z</time>
      </trkpt>
      <trkpt lat="47.8405" lon="6.98846">
        <ele>982</ele>
        <time>2026-05-09T05:49:48.223Z</time>
      </trkpt>
      <trkpt lat="47.84051" lon="6.98844">
        <ele>982</ele>
        <time>2026-05-09T05:49:49.223Z</time>
      </trkpt>
      <trkpt lat="47.84051" lon="6.98843">
        <ele>982</ele>
        <time>2026-05-09T05:49:50.224Z</time>
      </trkpt>
      <trkpt lat="47.84052" lon="6.98842">
        <ele>982</ele>
        <time>2026-05-09T05:49:51.223Z</time>
      </trkpt>
      <trkpt lat="47.84053" lon="6.98841">
        <ele>982</ele>
        <time>2026-05-09T05:49:52.224Z</time>
      </trkpt>
      <trkpt lat="47.84054" lon="6.9884">
        <ele>982</ele>
        <time>2026-05-09T05:49:53.223Z</time>
      </trkpt>
      <trkpt lat="47.84054" lon="6.9884">
        <ele>982</ele>
        <time>2026-05-09T05:49:54.223Z</time>
      </trkpt>
      <trkpt lat="47.84055" lon="6.9884">
        <ele>982</ele>
        <time>2026-05-09T05:49:55.223Z</time>
      </trkpt>
      <trkpt lat="47.84056" lon="6.98839">
        <ele>982</ele>
        <time>2026-05-09T05:49:56.223Z</time>
      </trkpt>
      <trkpt lat="47.84056" lon="6.98838">
        <ele>982</ele>
        <time>2026-05-09T05:49:57.224Z</time>
      </trkpt>
      <trkpt lat="47.84057" lon="6.98838">
        <ele>982</ele>
        <time>2026-05-09T05:49:58.223Z</time>
      </trkpt>
      <trkpt lat="47.84058" lon="6.98837">
        <ele>982</ele>
        <time>2026-05-09T05:49:59.224Z</time>
      </trkpt>
      <trkpt lat="47.84058" lon="6.98837">
        <ele>981</ele>
        <time>2026-05-09T05:50:00.223Z</time>
      </trkpt>
      <trkpt lat="47.84059" lon="6.98836">
        <ele>981</ele>
        <time>2026-05-09T05:50:01.224Z</time>
      </trkpt>
      <trkpt lat="47.8406" lon="6.98836">
        <ele>981</ele>
        <time>2026-05-09T05:50:02.223Z</time>
      </trkpt>
      <trkpt lat="47.84061" lon="6.98835">
        <ele>981</ele>
        <time>2026-05-09T05:50:03.224Z</time>
      </trkpt>
      <trkpt lat="47.84062" lon="6.98835">
        <ele>981</ele>
        <time>2026-05-09T05:50:04.223Z</time>
      </trkpt>
      <trkpt lat="47.84062" lon="6.98834">
        <ele>981</ele>
        <time>2026-05-09T05:50:05.224Z</time>
      </trkpt>
      <trkpt lat="47.84063" lon="6.98834">
        <ele>981</ele>
        <time>2026-05-09T05:50:06.223Z</time>
      </trkpt>
      <trkpt lat="47.84064" lon="6.98833">
        <ele>981</ele>
        <time>2026-05-09T05:50:07.224Z</time>
      </trkpt>
      <trkpt lat="47.84065" lon="6.98833">
        <ele>981</ele>
        <time>2026-05-09T05:50:08.223Z</time>
      </trkpt>
      <trkpt lat="47.84066" lon="6.98832">
        <ele>982</ele>
        <time>2026-05-09T05:50:09.224Z</time>
      </trkpt>
      <trkpt lat="47.84067" lon="6.98832">
        <ele>982</ele>
        <time>2026-05-09T05:50:10.224Z</time>
      </trkpt>
      <trkpt lat="47.84068" lon="6.98831">
        <ele>982</ele>
        <time>2026-05-09T05:50:11.224Z</time>
      </trkpt>
      <trkpt lat="47.84068" lon="6.98829">
        <ele>982</ele>
        <time>2026-05-09T05:50:12.224Z</time>
      </trkpt>
      <trkpt lat="47.84069" lon="6.98828">
        <ele>982</ele>
        <time>2026-05-09T05:50:13.224Z</time>
      </trkpt>
      <trkpt lat="47.8407" lon="6.98827">
        <ele>982</ele>
        <time>2026-05-09T05:50:14.224Z</time>
      </trkpt>
      <trkpt lat="47.84071" lon="6.98826">
        <ele>982</ele>
        <time>2026-05-09T05:50:15.223Z</time>
      </trkpt>
      <trkpt lat="47.84071" lon="6.98825">
        <ele>982</ele>
        <time>2026-05-09T05:50:16.224Z</time>
      </trkpt>
      <trkpt lat="47.84072" lon="6.98824">
        <ele>982</ele>
        <time>2026-05-09T05:50:17.223Z</time>
      </trkpt>
      <trkpt lat="47.84073" lon="6.98823">
        <ele>982</ele>
        <time>2026-05-09T05:50:18.224Z</time>
      </trkpt>
      <trkpt lat="47.84073" lon="6.98822">
        <ele>982</ele>
        <time>2026-05-09T05:50:19.223Z</time>
      </trkpt>
      <trkpt lat="47.84074" lon="6.98821">
        <ele>982</ele>
        <time>2026-05-09T05:50:20.224Z</time>
      </trkpt>
      <trkpt lat="47.84074" lon="6.98819">
        <ele>982</ele>
        <time>2026-05-09T05:50:21.223Z</time>
      </trkpt>
      <trkpt lat="47.84075" lon="6.98818">
        <ele>982</ele>
        <time>2026-05-09T05:50:22.223Z</time>
      </trkpt>
      <trkpt lat="47.84075" lon="6.98817">
        <ele>982</ele>
        <time>2026-05-09T05:50:23.223Z</time>
      </trkpt>
      <trkpt lat="47.84076" lon="6.98815">
        <ele>982</ele>
        <time>2026-05-09T05:50:24.224Z</time>
      </trkpt>
      <trkpt lat="47.84076" lon="6.98813">
        <ele>982</ele>
        <time>2026-05-09T05:50:25.224Z</time>
      </trkpt>
      <trkpt lat="47.84077" lon="6.98812">
        <ele>982</ele>
        <time>2026-05-09T05:50:26.223Z</time>
      </trkpt>
      <trkpt lat="47.84077" lon="6.98811">
        <ele>982</ele>
        <time>2026-05-09T05:50:27.224Z</time>
      </trkpt>
      <trkpt lat="47.84078" lon="6.98809">
        <ele>982</ele>
        <time>2026-05-09T05:50:28.223Z</time>
      </trkpt>
      <trkpt lat="47.84078" lon="6.98808">
        <ele>982</ele>
        <time>2026-05-09T05:50:29.223Z</time>
      </trkpt>
      <trkpt lat="47.84079" lon="6.98807">
        <ele>982</ele>
        <time>2026-05-09T05:50:30.223Z</time>
      </trkpt>
      <trkpt lat="47.84079" lon="6.98806">
        <ele>982</ele>
        <time>2026-05-09T05:50:31.224Z</time>
      </trkpt>
      <trkpt lat="47.8408" lon="6.98805">
        <ele>982</ele>
        <time>2026-05-09T05:50:32.223Z</time>
      </trkpt>
      <trkpt lat="47.8408" lon="6.98804">
        <ele>982</ele>
        <time>2026-05-09T05:50:33.224Z</time>
      </trkpt>
      <trkpt lat="47.84081" lon="6.98803">
        <ele>982</ele>
        <time>2026-05-09T05:50:34.223Z</time>
      </trkpt>
      <trkpt lat="47.84081" lon="6.98802">
        <ele>982</ele>
        <time>2026-05-09T05:50:35.224Z</time>
      </trkpt>
      <trkpt lat="47.84081" lon="6.988">
        <ele>982</ele>
        <time>2026-05-09T05:50:36.223Z</time>
      </trkpt>
      <trkpt lat="47.84082" lon="6.988">
        <ele>982</ele>
        <time>2026-05-09T05:50:37.224Z</time>
      </trkpt>
      <trkpt lat="47.84082" lon="6.98799">
        <ele>982</ele>
        <time>2026-05-09T05:50:38.223Z</time>
      </trkpt>
      <trkpt lat="47.84083" lon="6.98798">
        <ele>982</ele>
        <time>2026-05-09T05:50:39.223Z</time>
      </trkpt>
      <trkpt lat="47.84082" lon="6.98796">
        <ele>982</ele>
        <time>2026-05-09T05:50:40.224Z</time>
      </trkpt>
      <trkpt lat="47.84083" lon="6.98796">
        <ele>981</ele>
        <time>2026-05-09T05:50:41.224Z</time>
      </trkpt>
      <trkpt lat="47.84083" lon="6.98795">
        <ele>981</ele>
        <time>2026-05-09T05:50:42.224Z</time>
      </trkpt>
      <trkpt lat="47.84083" lon="6.98795">
        <ele>981</ele>
        <time>2026-05-09T05:50:43.223Z</time>
      </trkpt>
      <trkpt lat="47.84083" lon="6.9879">
        <ele>978</ele>
        <time>2026-05-09T05:51:00.444Z</time>
      </trkpt>
      <trkpt lat="47.84083" lon="6.98789">
        <ele>978</ele>
        <time>2026-05-09T05:51:01.444Z</time>
      </trkpt>
      <trkpt lat="47.84083" lon="6.98788">
        <ele>978</ele>
        <time>2026-05-09T05:51:02.444Z</time>
      </trkpt>
      <trkpt lat="47.84084" lon="6.98787">
        <ele>978</ele>
        <time>2026-05-09T05:51:03.445Z</time>
      </trkpt>
      <trkpt lat="47.84084" lon="6.98785">
        <ele>978</ele>
        <time>2026-05-09T05:51:04.445Z</time>
      </trkpt>
      <trkpt lat="47.84084" lon="6.98784">
        <ele>978</ele>
        <time>2026-05-09T05:51:05.445Z</time>
      </trkpt>
      <trkpt lat="47.84084" lon="6.98782">
        <ele>978</ele>
        <time>2026-05-09T05:51:06.445Z</time>
      </trkpt>
      <trkpt lat="47.84084" lon="6.9878">
        <ele>978</ele>
        <time>2026-05-09T05:51:07.444Z</time>
      </trkpt>
      <trkpt lat="47.84084" lon="6.9878">
        <ele>978</ele>
        <time>2026-05-09T05:51:08.445Z</time>
      </trkpt>
      <trkpt lat="47.84084" lon="6.98778">
        <ele>978</ele>
        <time>2026-05-09T05:51:09.445Z</time>
      </trkpt>
      <trkpt lat="47.84084" lon="6.98777">
        <ele>977</ele>
        <time>2026-05-09T05:51:10.444Z</time>
      </trkpt>
      <trkpt lat="47.84085" lon="6.98776">
        <ele>977</ele>
        <time>2026-05-09T05:51:11.444Z</time>
      </trkpt>
      <trkpt lat="47.84085" lon="6.98774">
        <ele>976</ele>
        <time>2026-05-09T05:51:12.444Z</time>
      </trkpt>
      <trkpt lat="47.84085" lon="6.98773">
        <ele>976</ele>
        <time>2026-05-09T05:51:13.445Z</time>
      </trkpt>
      <trkpt lat="47.84086" lon="6.98771">
        <ele>976</ele>
        <time>2026-05-09T05:51:14.444Z</time>
      </trkpt>
      <trkpt lat="47.84086" lon="6.9877">
        <ele>976</ele>
        <time>2026-05-09T05:51:15.445Z</time>
      </trkpt>
      <trkpt lat="47.84087" lon="6.98769">
        <ele>976</ele>
        <time>2026-05-09T05:51:16.445Z</time>
      </trkpt>
      <trkpt lat="47.84087" lon="6.98768">
        <ele>976</ele>
        <time>2026-05-09T05:51:17.445Z</time>
      </trkpt>
      <trkpt lat="47.84088" lon="6.98767">
        <ele>976</ele>
        <time>2026-05-09T05:51:18.445Z</time>
      </trkpt>
      <trkpt lat="47.84088" lon="6.98766">
        <ele>977</ele>
        <time>2026-05-09T05:51:19.445Z</time>
      </trkpt>
      <trkpt lat="47.84088" lon="6.98764">
        <ele>977</ele>
        <time>2026-05-09T05:51:20.444Z</time>
      </trkpt>
      <trkpt lat="47.84088" lon="6.98763">
        <ele>978</ele>
        <time>2026-05-09T05:51:21.445Z</time>
      </trkpt>
      <trkpt lat="47.84088" lon="6.98761">
        <ele>978</ele>
        <time>2026-05-09T05:51:22.444Z</time>
      </trkpt>
      <trkpt lat="47.84089" lon="6.9876">
        <ele>978</ele>
        <time>2026-05-09T05:51:23.445Z</time>
      </trkpt>
      <trkpt lat="47.84089" lon="6.98759">
        <ele>978</ele>
        <time>2026-05-09T05:51:24.445Z</time>
      </trkpt>
      <trkpt lat="47.8409" lon="6.98757">
        <ele>978</ele>
        <time>2026-05-09T05:51:25.445Z</time>
      </trkpt>
      <trkpt lat="47.8409" lon="6.98756">
        <ele>978</ele>
        <time>2026-05-09T05:51:26.445Z</time>
      </trkpt>
      <trkpt lat="47.8409" lon="6.98755">
        <ele>978</ele>
        <time>2026-05-09T05:51:27.445Z</time>
      </trkpt>
      <trkpt lat="47.8409" lon="6.98753">
        <ele>978</ele>
        <time>2026-05-09T05:51:28.445Z</time>
      </trkpt>
      <trkpt lat="47.84091" lon="6.98752">
        <ele>978</ele>
        <time>2026-05-09T05:51:29.445Z</time>
      </trkpt>
      <trkpt lat="47.84091" lon="6.9875">
        <ele>978</ele>
        <time>2026-05-09T05:51:30.444Z</time>
      </trkpt>
      <trkpt lat="47.84091" lon="6.98749">
        <ele>978</ele>
        <time>2026-05-09T05:51:31.444Z</time>
      </trkpt>
      <trkpt lat="47.84091" lon="6.98748">
        <ele>979</ele>
        <time>2026-05-09T05:51:32.444Z</time>
      </trkpt>
      <trkpt lat="47.84091" lon="6.98746">
        <ele>979</ele>
        <time>2026-05-09T05:51:33.444Z</time>
      </trkpt>
      <trkpt lat="47.84091" lon="6.98745">
        <ele>979</ele>
        <time>2026-05-09T05:51:34.444Z</time>
      </trkpt>
      <trkpt lat="47.84091" lon="6.98743">
        <ele>979</ele>
        <time>2026-05-09T05:51:35.444Z</time>
      </trkpt>
      <trkpt lat="47.84091" lon="6.98742">
        <ele>979</ele>
        <time>2026-05-09T05:51:36.444Z</time>
      </trkpt>
      <trkpt lat="47.84092" lon="6.9874">
        <ele>979</ele>
        <time>2026-05-09T05:51:37.445Z</time>
      </trkpt>
      <trkpt lat="47.84091" lon="6.98738">
        <ele>979</ele>
        <time>2026-05-09T05:51:38.444Z</time>
      </trkpt>
      <trkpt lat="47.84091" lon="6.98736">
        <ele>979</ele>
        <time>2026-05-09T05:51:39.444Z</time>
      </trkpt>
      <trkpt lat="47.84092" lon="6.98735">
        <ele>980</ele>
        <time>2026-05-09T05:51:40.445Z</time>
      </trkpt>
      <trkpt lat="47.84092" lon="6.98734">
        <ele>980</ele>
        <time>2026-05-09T05:51:41.445Z</time>
      </trkpt>
      <trkpt lat="47.84093" lon="6.98733">
        <ele>980</ele>
        <time>2026-05-09T05:51:42.445Z</time>
      </trkpt>
      <trkpt lat="47.84092" lon="6.98731">
        <ele>980</ele>
        <time>2026-05-09T05:51:43.444Z</time>
      </trkpt>
      <trkpt lat="47.84092" lon="6.98729">
        <ele>980</ele>
        <time>2026-05-09T05:51:44.445Z</time>
      </trkpt>
      <trkpt lat="47.84092" lon="6.98727">
        <ele>980</ele>
        <time>2026-05-09T05:51:45.445Z</time>
      </trkpt>
      <trkpt lat="47.84092" lon="6.98725">
        <ele>980</ele>
        <time>2026-05-09T05:51:46.444Z</time>
      </trkpt>
      <trkpt lat="47.84092" lon="6.98724">
        <ele>979</ele>
        <time>2026-05-09T05:51:47.444Z</time>
      </trkpt>
      <trkpt lat="47.84092" lon="6.98722">
        <ele>979</ele>
        <time>2026-05-09T05:51:48.444Z</time>
      </trkpt>
      <trkpt lat="47.84093" lon="6.98719">
        <ele>979</ele>
        <time>2026-05-09T05:51:49.444Z</time>
      </trkpt>
      <trkpt lat="47.84093" lon="6.98717">
        <ele>978</ele>
        <time>2026-05-09T05:51:50.444Z</time>
      </trkpt>
      <trkpt lat="47.84093" lon="6.98715">
        <ele>978</ele>
        <time>2026-05-09T05:51:51.444Z</time>
      </trkpt>
      <trkpt lat="47.84093" lon="6.98713">
        <ele>977</ele>
        <time>2026-05-09T05:51:52.444Z</time>
      </trkpt>
      <trkpt lat="47.84092" lon="6.98711">
        <ele>977</ele>
        <time>2026-05-09T05:51:53.445Z</time>
      </trkpt>
      <trkpt lat="47.84092" lon="6.98709">
        <ele>976</ele>
        <time>2026-05-09T05:51:54.445Z</time>
      </trkpt>
      <trkpt lat="47.84092" lon="6.98708">
        <ele>975</ele>
        <time>2026-05-09T05:51:55.444Z</time>
      </trkpt>
      <trkpt lat="47.84092" lon="6.98706">
        <ele>974</ele>
        <time>2026-05-09T05:51:56.445Z</time>
      </trkpt>
      <trkpt lat="47.84093" lon="6.98704">
        <ele>973</ele>
        <time>2026-05-09T05:51:57.444Z</time>
      </trkpt>
      <trkpt lat="47.84093" lon="6.98701">
        <ele>973</ele>
        <time>2026-05-09T05:51:58.444Z</time>
      </trkpt>
      <trkpt lat="47.84093" lon="6.987">
        <ele>972</ele>
        <time>2026-05-09T05:51:59.444Z</time>
      </trkpt>
      <trkpt lat="47.84093" lon="6.98698">
        <ele>972</ele>
        <time>2026-05-09T05:52:00.444Z</time>
      </trkpt>
      <trkpt lat="47.84094" lon="6.98696">
        <ele>972</ele>
        <time>2026-05-09T05:52:01.444Z</time>
      </trkpt>
      <trkpt lat="47.84094" lon="6.98695">
        <ele>972</ele>
        <time>2026-05-09T05:52:02.445Z</time>
      </trkpt>
      <trkpt lat="47.84094" lon="6.98693">
        <ele>972</ele>
        <time>2026-05-09T05:52:03.445Z</time>
      </trkpt>
      <trkpt lat="47.84095" lon="6.98691">
        <ele>972</ele>
        <time>2026-05-09T05:52:04.445Z</time>
      </trkpt>
      <trkpt lat="47.84095" lon="6.9869">
        <ele>972</ele>
        <time>2026-05-09T05:52:05.445Z</time>
      </trkpt>
      <trkpt lat="47.84095" lon="6.98688">
        <ele>972</ele>
        <time>2026-05-09T05:52:06.445Z</time>
      </trkpt>
      <trkpt lat="47.84095" lon="6.98687">
        <ele>972</ele>
        <time>2026-05-09T05:52:07.445Z</time>
      </trkpt>
      <trkpt lat="47.84096" lon="6.98685">
        <ele>973</ele>
        <time>2026-05-09T05:52:08.445Z</time>
      </trkpt>
      <trkpt lat="47.84096" lon="6.98684">
        <ele>973</ele>
        <time>2026-05-09T05:52:09.445Z</time>
      </trkpt>
      <trkpt lat="47.84096" lon="6.98682">
        <ele>974</ele>
        <time>2026-05-09T05:52:10.445Z</time>
      </trkpt>
      <trkpt lat="47.84097" lon="6.98681">
        <ele>974</ele>
        <time>2026-05-09T05:52:11.445Z</time>
      </trkpt>
      <trkpt lat="47.84097" lon="6.98679">
        <ele>974</ele>
        <time>2026-05-09T05:52:12.444Z</time>
      </trkpt>
      <trkpt lat="47.84098" lon="6.98677">
        <ele>974</ele>
        <time>2026-05-09T05:52:13.444Z</time>
      </trkpt>
      <trkpt lat="47.84098" lon="6.98675">
        <ele>974</ele>
        <time>2026-05-09T05:52:14.445Z</time>
      </trkpt>
      <trkpt lat="47.84098" lon="6.98674">
        <ele>973</ele>
        <time>2026-05-09T05:52:15.444Z</time>
      </trkpt>
      <trkpt lat="47.84099" lon="6.98672">
        <ele>973</ele>
        <time>2026-05-09T05:52:16.445Z</time>
      </trkpt>
      <trkpt lat="47.84099" lon="6.9867">
        <ele>973</ele>
        <time>2026-05-09T05:52:17.444Z</time>
      </trkpt>
      <trkpt lat="47.84099" lon="6.98668">
        <ele>973</ele>
        <time>2026-05-09T05:52:18.444Z</time>
      </trkpt>
      <trkpt lat="47.84099" lon="6.98667">
        <ele>973</ele>
        <time>2026-05-09T05:52:19.445Z</time>
      </trkpt>
      <trkpt lat="47.841" lon="6.98665">
        <ele>973</ele>
        <time>2026-05-09T05:52:20.445Z</time>
      </trkpt>
      <trkpt lat="47.841" lon="6.98663">
        <ele>973</ele>
        <time>2026-05-09T05:52:21.445Z</time>
      </trkpt>
      <trkpt lat="47.841" lon="6.98661">
        <ele>973</ele>
        <time>2026-05-09T05:52:22.444Z</time>
      </trkpt>
      <trkpt lat="47.84101" lon="6.98659">
        <ele>973</ele>
        <time>2026-05-09T05:52:23.444Z</time>
      </trkpt>
      <trkpt lat="47.84101" lon="6.98658">
        <ele>974</ele>
        <time>2026-05-09T05:52:24.445Z</time>
      </trkpt>
      <trkpt lat="47.84102" lon="6.98656">
        <ele>974</ele>
        <time>2026-05-09T05:52:25.445Z</time>
      </trkpt>
      <trkpt lat="47.84102" lon="6.98655">
        <ele>974</ele>
        <time>2026-05-09T05:52:26.445Z</time>
      </trkpt>
      <trkpt lat="47.84103" lon="6.98654">
        <ele>974</ele>
        <time>2026-05-09T05:52:27.445Z</time>
      </trkpt>
      <trkpt lat="47.84104" lon="6.98652">
        <ele>974</ele>
        <time>2026-05-09T05:52:28.445Z</time>
      </trkpt>
      <trkpt lat="47.84104" lon="6.98651">
        <ele>974</ele>
        <time>2026-05-09T05:52:29.445Z</time>
      </trkpt>
      <trkpt lat="47.84105" lon="6.98649">
        <ele>975</ele>
        <time>2026-05-09T05:52:30.445Z</time>
      </trkpt>
      <trkpt lat="47.84105" lon="6.98647">
        <ele>975</ele>
        <time>2026-05-09T05:52:31.445Z</time>
      </trkpt>
      <trkpt lat="47.84106" lon="6.98645">
        <ele>975</ele>
        <time>2026-05-09T05:52:32.444Z</time>
      </trkpt>
      <trkpt lat="47.84106" lon="6.98643">
        <ele>976</ele>
        <time>2026-05-09T05:52:33.444Z</time>
      </trkpt>
      <trkpt lat="47.84106" lon="6.98642">
        <ele>976</ele>
        <time>2026-05-09T05:52:34.445Z</time>
      </trkpt>
      <trkpt lat="47.84107" lon="6.9864">
        <ele>976</ele>
        <time>2026-05-09T05:52:35.444Z</time>
      </trkpt>
      <trkpt lat="47.84107" lon="6.98639">
        <ele>976</ele>
        <time>2026-05-09T05:52:36.445Z</time>
      </trkpt>
      <trkpt lat="47.84108" lon="6.98638">
        <ele>976</ele>
        <time>2026-05-09T05:52:37.445Z</time>
      </trkpt>
      <trkpt lat="47.84109" lon="6.98637">
        <ele>976</ele>
        <time>2026-05-09T05:52:38.445Z</time>
      </trkpt>
      <trkpt lat="47.8411" lon="6.98635">
        <ele>976</ele>
        <time>2026-05-09T05:52:39.444Z</time>
      </trkpt>
      <trkpt lat="47.8411" lon="6.98633">
        <ele>976</ele>
        <time>2026-05-09T05:52:40.445Z</time>
      </trkpt>
      <trkpt lat="47.84111" lon="6.98632">
        <ele>976</ele>
        <time>2026-05-09T05:52:41.444Z</time>
      </trkpt>
      <trkpt lat="47.84112" lon="6.9863">
        <ele>976</ele>
        <time>2026-05-09T05:52:42.444Z</time>
      </trkpt>
      <trkpt lat="47.84113" lon="6.98628">
        <ele>976</ele>
        <time>2026-05-09T05:52:43.444Z</time>
      </trkpt>
      <trkpt lat="47.84113" lon="6.98627">
        <ele>976</ele>
        <time>2026-05-09T05:52:44.444Z</time>
      </trkpt>
      <trkpt lat="47.84114" lon="6.98626">
        <ele>977</ele>
        <time>2026-05-09T05:52:45.445Z</time>
      </trkpt>
      <trkpt lat="47.84115" lon="6.98625">
        <ele>977</ele>
        <time>2026-05-09T05:52:46.445Z</time>
      </trkpt>
      <trkpt lat="47.84116" lon="6.98624">
        <ele>977</ele>
        <time>2026-05-09T05:52:47.444Z</time>
      </trkpt>
      <trkpt lat="47.84117" lon="6.98623">
        <ele>977</ele>
        <time>2026-05-09T05:52:48.445Z</time>
      </trkpt>
      <trkpt lat="47.84117" lon="6.98622">
        <ele>977</ele>
        <time>2026-05-09T05:52:49.445Z</time>
      </trkpt>
      <trkpt lat="47.84118" lon="6.98621">
        <ele>977</ele>
        <time>2026-05-09T05:52:50.445Z</time>
      </trkpt>
      <trkpt lat="47.84119" lon="6.9862">
        <ele>977</ele>
        <time>2026-05-09T05:52:51.445Z</time>
      </trkpt>
      <trkpt lat="47.8412" lon="6.98618">
        <ele>977</ele>
        <time>2026-05-09T05:52:52.444Z</time>
      </trkpt>
      <trkpt lat="47.84121" lon="6.98617">
        <ele>977</ele>
        <time>2026-05-09T05:52:53.444Z</time>
      </trkpt>
      <trkpt lat="47.84122" lon="6.98616">
        <ele>977</ele>
        <time>2026-05-09T05:52:54.444Z</time>
      </trkpt>
      <trkpt lat="47.84122" lon="6.98614">
        <ele>977</ele>
        <time>2026-05-09T05:52:55.445Z</time>
      </trkpt>
      <trkpt lat="47.84123" lon="6.98612">
        <ele>977</ele>
        <time>2026-05-09T05:52:56.444Z</time>
      </trkpt>
      <trkpt lat="47.84124" lon="6.98611">
        <ele>977</ele>
        <time>2026-05-09T05:52:57.445Z</time>
      </trkpt>
      <trkpt lat="47.84125" lon="6.9861">
        <ele>977</ele>
        <time>2026-05-09T05:52:58.445Z</time>
      </trkpt>
      <trkpt lat="47.84125" lon="6.98609">
        <ele>977</ele>
        <time>2026-05-09T05:52:59.445Z</time>
      </trkpt>
      <trkpt lat="47.84126" lon="6.98607">
        <ele>977</ele>
        <time>2026-05-09T05:53:00.445Z</time>
      </trkpt>
      <trkpt lat="47.84127" lon="6.98606">
        <ele>977</ele>
        <time>2026-05-09T05:53:01.444Z</time>
      </trkpt>
      <trkpt lat="47.84128" lon="6.98605">
        <ele>978</ele>
        <time>2026-05-09T05:53:02.444Z</time>
      </trkpt>
      <trkpt lat="47.84129" lon="6.98603">
        <ele>978</ele>
        <time>2026-05-09T05:53:03.445Z</time>
      </trkpt>
      <trkpt lat="47.8413" lon="6.98602">
        <ele>978</ele>
        <time>2026-05-09T05:53:04.445Z</time>
      </trkpt>
      <trkpt lat="47.84131" lon="6.98601">
        <ele>978</ele>
        <time>2026-05-09T05:53:05.445Z</time>
      </trkpt>
      <trkpt lat="47.84131" lon="6.98599">
        <ele>978</ele>
        <time>2026-05-09T05:53:06.444Z</time>
      </trkpt>
      <trkpt lat="47.84132" lon="6.98598">
        <ele>978</ele>
        <time>2026-05-09T05:53:07.444Z</time>
      </trkpt>
      <trkpt lat="47.84133" lon="6.98597">
        <ele>978</ele>
        <time>2026-05-09T05:53:08.445Z</time>
      </trkpt>
      <trkpt lat="47.84133" lon="6.98596">
        <ele>978</ele>
        <time>2026-05-09T05:53:09.445Z</time>
      </trkpt>
      <trkpt lat="47.84134" lon="6.98595">
        <ele>978</ele>
        <time>2026-05-09T05:53:10.444Z</time>
      </trkpt>
      <trkpt lat="47.84136" lon="6.98593">
        <ele>978</ele>
        <time>2026-05-09T05:53:11.445Z</time>
      </trkpt>
      <trkpt lat="47.84136" lon="6.98592">
        <ele>979</ele>
        <time>2026-05-09T05:53:12.444Z</time>
      </trkpt>
      <trkpt lat="47.84137" lon="6.9859">
        <ele>979</ele>
        <time>2026-05-09T05:53:13.444Z</time>
      </trkpt>
      <trkpt lat="47.84139" lon="6.98589">
        <ele>979</ele>
        <time>2026-05-09T05:53:14.445Z</time>
      </trkpt>
      <trkpt lat="47.8414" lon="6.98587">
        <ele>980</ele>
        <time>2026-05-09T05:53:15.445Z</time>
      </trkpt>
      <trkpt lat="47.84141" lon="6.98586">
        <ele>980</ele>
        <time>2026-05-09T05:53:16.445Z</time>
      </trkpt>
      <trkpt lat="47.84142" lon="6.98586">
        <ele>981</ele>
        <time>2026-05-09T05:53:17.444Z</time>
      </trkpt>
      <trkpt lat="47.84143" lon="6.98585">
        <ele>981</ele>
        <time>2026-05-09T05:53:18.444Z</time>
      </trkpt>
      <trkpt lat="47.84144" lon="6.98584">
        <ele>981</ele>
        <time>2026-05-09T05:53:19.444Z</time>
      </trkpt>
      <trkpt lat="47.84145" lon="6.98583">
        <ele>981</ele>
        <time>2026-05-09T05:53:20.445Z</time>
      </trkpt>
      <trkpt lat="47.84147" lon="6.98582">
        <ele>981</ele>
        <time>2026-05-09T05:53:21.445Z</time>
      </trkpt>
      <trkpt lat="47.84147" lon="6.98581">
        <ele>981</ele>
        <time>2026-05-09T05:53:22.445Z</time>
      </trkpt>
      <trkpt lat="47.84148" lon="6.98579">
        <ele>981</ele>
        <time>2026-05-09T05:53:23.445Z</time>
      </trkpt>
      <trkpt lat="47.84149" lon="6.98579">
        <ele>981</ele>
        <time>2026-05-09T05:53:24.444Z</time>
      </trkpt>
      <trkpt lat="47.8415" lon="6.98578">
        <ele>980</ele>
        <time>2026-05-09T05:53:25.445Z</time>
      </trkpt>
      <trkpt lat="47.8415" lon="6.98576">
        <ele>980</ele>
        <time>2026-05-09T05:53:26.445Z</time>
      </trkpt>
      <trkpt lat="47.84151" lon="6.98575">
        <ele>979</ele>
        <time>2026-05-09T05:53:27.445Z</time>
      </trkpt>
      <trkpt lat="47.84152" lon="6.98574">
        <ele>979</ele>
        <time>2026-05-09T05:53:28.444Z</time>
      </trkpt>
      <trkpt lat="47.84153" lon="6.98573">
        <ele>978</ele>
        <time>2026-05-09T05:53:29.445Z</time>
      </trkpt>
      <trkpt lat="47.84154" lon="6.98572">
        <ele>978</ele>
        <time>2026-05-09T05:53:30.445Z</time>
      </trkpt>
      <trkpt lat="47.84154" lon="6.98571">
        <ele>977</ele>
        <time>2026-05-09T05:53:31.444Z</time>
      </trkpt>
      <trkpt lat="47.84156" lon="6.9857">
        <ele>976</ele>
        <time>2026-05-09T05:53:32.444Z</time>
      </trkpt>
      <trkpt lat="47.84157" lon="6.9857">
        <ele>976</ele>
        <time>2026-05-09T05:53:33.445Z</time>
      </trkpt>
      <trkpt lat="47.84157" lon="6.98569">
        <ele>975</ele>
        <time>2026-05-09T05:53:34.444Z</time>
      </trkpt>
      <trkpt lat="47.84158" lon="6.98567">
        <ele>974</ele>
        <time>2026-05-09T05:53:35.445Z</time>
      </trkpt>
      <trkpt lat="47.84158" lon="6.98566">
        <ele>974</ele>
        <time>2026-05-09T05:53:36.444Z</time>
      </trkpt>
      <trkpt lat="47.84158" lon="6.98565">
        <ele>973</ele>
        <time>2026-05-09T05:53:37.445Z</time>
      </trkpt>
      <trkpt lat="47.84159" lon="6.98563">
        <ele>973</ele>
        <time>2026-05-09T05:53:38.445Z</time>
      </trkpt>
      <trkpt lat="47.84159" lon="6.98562">
        <ele>973</ele>
        <time>2026-05-09T05:53:39.444Z</time>
      </trkpt>
      <trkpt lat="47.8416" lon="6.98561">
        <ele>972</ele>
        <time>2026-05-09T05:53:40.444Z</time>
      </trkpt>
      <trkpt lat="47.8416" lon="6.98559">
        <ele>972</ele>
        <time>2026-05-09T05:53:41.445Z</time>
      </trkpt>
      <trkpt lat="47.8416" lon="6.98557">
        <ele>972</ele>
        <time>2026-05-09T05:53:42.445Z</time>
      </trkpt>
      <trkpt lat="47.8416" lon="6.98555">
        <ele>972</ele>
        <time>2026-05-09T05:53:43.445Z</time>
      </trkpt>
      <trkpt lat="47.8416" lon="6.98553">
        <ele>972</ele>
        <time>2026-05-09T05:53:44.445Z</time>
      </trkpt>
      <trkpt lat="47.8416" lon="6.98551">
        <ele>971</ele>
        <time>2026-05-09T05:53:45.445Z</time>
      </trkpt>
      <trkpt lat="47.8416" lon="6.9855">
        <ele>971</ele>
        <time>2026-05-09T05:53:46.445Z</time>
      </trkpt>
      <trkpt lat="47.84159" lon="6.98548">
        <ele>971</ele>
        <time>2026-05-09T05:53:47.445Z</time>
      </trkpt>
      <trkpt lat="47.84159" lon="6.98546">
        <ele>971</ele>
        <time>2026-05-09T05:53:48.445Z</time>
      </trkpt>
      <trkpt lat="47.84159" lon="6.98544">
        <ele>971</ele>
        <time>2026-05-09T05:53:49.444Z</time>
      </trkpt>
      <trkpt lat="47.84159" lon="6.98542">
        <ele>971</ele>
        <time>2026-05-09T05:53:50.445Z</time>
      </trkpt>
      <trkpt lat="47.84159" lon="6.9854">
        <ele>971</ele>
        <time>2026-05-09T05:53:51.444Z</time>
      </trkpt>
      <trkpt lat="47.84158" lon="6.98538">
        <ele>971</ele>
        <time>2026-05-09T05:53:52.445Z</time>
      </trkpt>
      <trkpt lat="47.84158" lon="6.98535">
        <ele>971</ele>
        <time>2026-05-09T05:53:53.444Z</time>
      </trkpt>
      <trkpt lat="47.84157" lon="6.98533">
        <ele>971</ele>
        <time>2026-05-09T05:53:54.445Z</time>
      </trkpt>
      <trkpt lat="47.84157" lon="6.98531">
        <ele>971</ele>
        <time>2026-05-09T05:53:55.444Z</time>
      </trkpt>
      <trkpt lat="47.84157" lon="6.98529">
        <ele>971</ele>
        <time>2026-05-09T05:53:56.445Z</time>
      </trkpt>
      <trkpt lat="47.84157" lon="6.98527">
        <ele>971</ele>
        <time>2026-05-09T05:53:57.445Z</time>
      </trkpt>
      <trkpt lat="47.84157" lon="6.98525">
        <ele>971</ele>
        <time>2026-05-09T05:53:58.444Z</time>
      </trkpt>
      <trkpt lat="47.84157" lon="6.98523">
        <ele>970</ele>
        <time>2026-05-09T05:53:59.444Z</time>
      </trkpt>
      <trkpt lat="47.84157" lon="6.98521">
        <ele>970</ele>
        <time>2026-05-09T05:54:00.445Z</time>
      </trkpt>
      <trkpt lat="47.84157" lon="6.98519">
        <ele>970</ele>
        <time>2026-05-09T05:54:01.445Z</time>
      </trkpt>
      <trkpt lat="47.84156" lon="6.98517">
        <ele>971</ele>
        <time>2026-05-09T05:54:02.444Z</time>
      </trkpt>
      <trkpt lat="47.84156" lon="6.98515">
        <ele>971</ele>
        <time>2026-05-09T05:54:03.445Z</time>
      </trkpt>
      <trkpt lat="47.84156" lon="6.98514">
        <ele>972</ele>
        <time>2026-05-09T05:54:04.445Z</time>
      </trkpt>
      <trkpt lat="47.84156" lon="6.98512">
        <ele>972</ele>
        <time>2026-05-09T05:54:05.444Z</time>
      </trkpt>
      <trkpt lat="47.84156" lon="6.9851">
        <ele>972</ele>
        <time>2026-05-09T05:54:06.445Z</time>
      </trkpt>
      <trkpt lat="47.84156" lon="6.98509">
        <ele>972</ele>
        <time>2026-05-09T05:54:07.444Z</time>
      </trkpt>
      <trkpt lat="47.84156" lon="6.98507">
        <ele>972</ele>
        <time>2026-05-09T05:54:08.445Z</time>
      </trkpt>
      <trkpt lat="47.84156" lon="6.98505">
        <ele>972</ele>
        <time>2026-05-09T05:54:09.444Z</time>
      </trkpt>
      <trkpt lat="47.84156" lon="6.98504">
        <ele>972</ele>
        <time>2026-05-09T05:54:10.445Z</time>
      </trkpt>
      <trkpt lat="47.84156" lon="6.98502">
        <ele>972</ele>
        <time>2026-05-09T05:54:11.445Z</time>
      </trkpt>
      <trkpt lat="47.84156" lon="6.98501">
        <ele>972</ele>
        <time>2026-05-09T05:54:12.445Z</time>
      </trkpt>
      <trkpt lat="47.84156" lon="6.98499">
        <ele>972</ele>
        <time>2026-05-09T05:54:13.444Z</time>
      </trkpt>
      <trkpt lat="47.84156" lon="6.98497">
        <ele>972</ele>
        <time>2026-05-09T05:54:14.445Z</time>
      </trkpt>
      <trkpt lat="47.84156" lon="6.98495">
        <ele>972</ele>
        <time>2026-05-09T05:54:15.444Z</time>
      </trkpt>
      <trkpt lat="47.84156" lon="6.98493">
        <ele>973</ele>
        <time>2026-05-09T05:54:16.444Z</time>
      </trkpt>
      <trkpt lat="47.84155" lon="6.98491">
        <ele>973</ele>
        <time>2026-05-09T05:54:17.445Z</time>
      </trkpt>
      <trkpt lat="47.84155" lon="6.98489">
        <ele>973</ele>
        <time>2026-05-09T05:54:18.445Z</time>
      </trkpt>
      <trkpt lat="47.84155" lon="6.98487">
        <ele>973</ele>
        <time>2026-05-09T05:54:19.445Z</time>
      </trkpt>
      <trkpt lat="47.84154" lon="6.98485">
        <ele>973</ele>
        <time>2026-05-09T05:54:20.444Z</time>
      </trkpt>
      <trkpt lat="47.84154" lon="6.98483">
        <ele>972</ele>
        <time>2026-05-09T05:54:21.445Z</time>
      </trkpt>
      <trkpt lat="47.84155" lon="6.98481">
        <ele>972</ele>
        <time>2026-05-09T05:54:22.444Z</time>
      </trkpt>
      <trkpt lat="47.84155" lon="6.98479">
        <ele>972</ele>
        <time>2026-05-09T05:54:23.445Z</time>
      </trkpt>
      <trkpt lat="47.84155" lon="6.98477">
        <ele>972</ele>
        <time>2026-05-09T05:54:24.444Z</time>
      </trkpt>
      <trkpt lat="47.84155" lon="6.98475">
        <ele>972</ele>
        <time>2026-05-09T05:54:25.445Z</time>
      </trkpt>
      <trkpt lat="47.84154" lon="6.98472">
        <ele>972</ele>
        <time>2026-05-09T05:54:26.444Z</time>
      </trkpt>
      <trkpt lat="47.84154" lon="6.9847">
        <ele>972</ele>
        <time>2026-05-09T05:54:27.445Z</time>
      </trkpt>
      <trkpt lat="47.84154" lon="6.98469">
        <ele>972</ele>
        <time>2026-05-09T05:54:28.444Z</time>
      </trkpt>
      <trkpt lat="47.84154" lon="6.98468">
        <ele>972</ele>
        <time>2026-05-09T05:54:29.445Z</time>
      </trkpt>
      <trkpt lat="47.84154" lon="6.98466">
        <ele>972</ele>
        <time>2026-05-09T05:54:30.445Z</time>
      </trkpt>
      <trkpt lat="47.84154" lon="6.98465">
        <ele>971</ele>
        <time>2026-05-09T05:54:31.445Z</time>
      </trkpt>
      <trkpt lat="47.84154" lon="6.98463">
        <ele>971</ele>
        <time>2026-05-09T05:54:32.444Z</time>
      </trkpt>
      <trkpt lat="47.84154" lon="6.98462">
        <ele>971</ele>
        <time>2026-05-09T05:54:33.444Z</time>
      </trkpt>
      <trkpt lat="47.84154" lon="6.9846">
        <ele>971</ele>
        <time>2026-05-09T05:54:34.444Z</time>
      </trkpt>
      <trkpt lat="47.84153" lon="6.98458">
        <ele>971</ele>
        <time>2026-05-09T05:54:35.445Z</time>
      </trkpt>
      <trkpt lat="47.84153" lon="6.98457">
        <ele>971</ele>
        <time>2026-05-09T05:54:36.444Z</time>
      </trkpt>
      <trkpt lat="47.84153" lon="6.98455">
        <ele>971</ele>
        <time>2026-05-09T05:54:37.445Z</time>
      </trkpt>
      <trkpt lat="47.84153" lon="6.98453">
        <ele>972</ele>
        <time>2026-05-09T05:54:38.445Z</time>
      </trkpt>
      <trkpt lat="47.84153" lon="6.98452">
        <ele>972</ele>
        <time>2026-05-09T05:54:39.444Z</time>
      </trkpt>
      <trkpt lat="47.84152" lon="6.98451">
        <ele>972</ele>
        <time>2026-05-09T05:54:40.445Z</time>
      </trkpt>
      <trkpt lat="47.84152" lon="6.9845">
        <ele>972</ele>
        <time>2026-05-09T05:54:41.444Z</time>
      </trkpt>
      <trkpt lat="47.84151" lon="6.9845">
        <ele>973</ele>
        <time>2026-05-09T05:54:42.444Z</time>
      </trkpt>
      <trkpt lat="47.8415" lon="6.98448">
        <ele>974</ele>
        <time>2026-05-09T05:54:43.444Z</time>
      </trkpt>
      <trkpt lat="47.84148" lon="6.98447">
        <ele>974</ele>
        <time>2026-05-09T05:54:44.445Z</time>
      </trkpt>
      <trkpt lat="47.84147" lon="6.98445">
        <ele>975</ele>
        <time>2026-05-09T05:54:45.444Z</time>
      </trkpt>
      <trkpt lat="47.84146" lon="6.98444">
        <ele>976</ele>
        <time>2026-05-09T05:54:46.444Z</time>
      </trkpt>
      <trkpt lat="47.84145" lon="6.98442">
        <ele>977</ele>
        <time>2026-05-09T05:54:47.444Z</time>
      </trkpt>
      <trkpt lat="47.84145" lon="6.98441">
        <ele>977</ele>
        <time>2026-05-09T05:54:48.445Z</time>
      </trkpt>
      <trkpt lat="47.84144" lon="6.98439">
        <ele>978</ele>
        <time>2026-05-09T05:54:49.445Z</time>
      </trkpt>
      <trkpt lat="47.84143" lon="6.98438">
        <ele>978</ele>
        <time>2026-05-09T05:54:50.445Z</time>
      </trkpt>
      <trkpt lat="47.84142" lon="6.98436">
        <ele>978</ele>
        <time>2026-05-09T05:54:51.445Z</time>
      </trkpt>
      <trkpt lat="47.84141" lon="6.98435">
        <ele>979</ele>
        <time>2026-05-09T05:54:52.444Z</time>
      </trkpt>
      <trkpt lat="47.84141" lon="6.98433">
        <ele>979</ele>
        <time>2026-05-09T05:54:53.445Z</time>
      </trkpt>
      <trkpt lat="47.8414" lon="6.98432">
        <ele>980</ele>
        <time>2026-05-09T05:54:54.444Z</time>
      </trkpt>
      <trkpt lat="47.84139" lon="6.9843">
        <ele>980</ele>
        <time>2026-05-09T05:54:55.445Z</time>
      </trkpt>
      <trkpt lat="47.84138" lon="6.98429">
        <ele>980</ele>
        <time>2026-05-09T05:54:56.445Z</time>
      </trkpt>
      <trkpt lat="47.84138" lon="6.98428">
        <ele>980</ele>
        <time>2026-05-09T05:54:57.444Z</time>
      </trkpt>
      <trkpt lat="47.84137" lon="6.98427">
        <ele>980</ele>
        <time>2026-05-09T05:54:58.444Z</time>
      </trkpt>
      <trkpt lat="47.84136" lon="6.98426">
        <ele>980</ele>
        <time>2026-05-09T05:54:59.445Z</time>
      </trkpt>
      <trkpt lat="47.84136" lon="6.98425">
        <ele>980</ele>
        <time>2026-05-09T05:55:00.444Z</time>
      </trkpt>
      <trkpt lat="47.84135" lon="6.98424">
        <ele>980</ele>
        <time>2026-05-09T05:55:01.445Z</time>
      </trkpt>
      <trkpt lat="47.84134" lon="6.98423">
        <ele>980</ele>
        <time>2026-05-09T05:55:02.444Z</time>
      </trkpt>
      <trkpt lat="47.84134" lon="6.98422">
        <ele>980</ele>
        <time>2026-05-09T05:55:03.445Z</time>
      </trkpt>
      <trkpt lat="47.84133" lon="6.98421">
        <ele>980</ele>
        <time>2026-05-09T05:55:04.444Z</time>
      </trkpt>
      <trkpt lat="47.84132" lon="6.9842">
        <ele>980</ele>
        <time>2026-05-09T05:55:05.445Z</time>
      </trkpt>
      <trkpt lat="47.84132" lon="6.98419">
        <ele>980</ele>
        <time>2026-05-09T05:55:06.445Z</time>
      </trkpt>
      <trkpt lat="47.84132" lon="6.98419">
        <ele>981</ele>
        <time>2026-05-09T05:55:07.444Z</time>
      </trkpt>
      <trkpt lat="47.84132" lon="6.98418">
        <ele>981</ele>
        <time>2026-05-09T05:55:08.444Z</time>
      </trkpt>
      <trkpt lat="47.84132" lon="6.98417">
        <ele>981</ele>
        <time>2026-05-09T05:55:09.444Z</time>
      </trkpt>
      <trkpt lat="47.84132" lon="6.98417">
        <ele>981</ele>
        <time>2026-05-09T05:55:10.445Z</time>
      </trkpt>
      <trkpt lat="47.84132" lon="6.98417">
        <ele>981</ele>
        <time>2026-05-09T05:55:11.444Z</time>
      </trkpt>
      <trkpt lat="47.84132" lon="6.98416">
        <ele>981</ele>
        <time>2026-05-09T05:55:12.445Z</time>
      </trkpt>
      <trkpt lat="47.84132" lon="6.98416">
        <ele>981</ele>
        <time>2026-05-09T05:55:13.444Z</time>
      </trkpt>
      <trkpt lat="47.84133" lon="6.98416">
        <ele>981</ele>
        <time>2026-05-09T05:55:14.445Z</time>
      </trkpt>
      <trkpt lat="47.84133" lon="6.98415">
        <ele>981</ele>
        <time>2026-05-09T05:55:15.444Z</time>
      </trkpt>
      <trkpt lat="47.84132" lon="6.98415">
        <ele>981</ele>
        <time>2026-05-09T05:55:16.445Z</time>
      </trkpt>
      <trkpt lat="47.84132" lon="6.98415">
        <ele>981</ele>
        <time>2026-05-09T05:55:17.444Z</time>
      </trkpt>
      <trkpt lat="47.84131" lon="6.98414">
        <ele>981</ele>
        <time>2026-05-09T05:55:18.444Z</time>
      </trkpt>
      <trkpt lat="47.8413" lon="6.98413">
        <ele>981</ele>
        <time>2026-05-09T05:55:19.444Z</time>
      </trkpt>
      <trkpt lat="47.84129" lon="6.98412">
        <ele>981</ele>
        <time>2026-05-09T05:55:20.445Z</time>
      </trkpt>
      <trkpt lat="47.84129" lon="6.98411">
        <ele>981</ele>
        <time>2026-05-09T05:55:21.444Z</time>
      </trkpt>
      <trkpt lat="47.84128" lon="6.9841">
        <ele>980</ele>
        <time>2026-05-09T05:55:22.445Z</time>
      </trkpt>
      <trkpt lat="47.84127" lon="6.98409">
        <ele>980</ele>
        <time>2026-05-09T05:55:23.445Z</time>
      </trkpt>
      <trkpt lat="47.84126" lon="6.98408">
        <ele>980</ele>
        <time>2026-05-09T05:55:24.444Z</time>
      </trkpt>
      <trkpt lat="47.84125" lon="6.98408">
        <ele>980</ele>
        <time>2026-05-09T05:55:25.445Z</time>
      </trkpt>
      <trkpt lat="47.84124" lon="6.98407">
        <ele>980</ele>
        <time>2026-05-09T05:55:26.444Z</time>
      </trkpt>
      <trkpt lat="47.84123" lon="6.98406">
        <ele>980</ele>
        <time>2026-05-09T05:55:27.445Z</time>
      </trkpt>
      <trkpt lat="47.84122" lon="6.98405">
        <ele>980</ele>
        <time>2026-05-09T05:55:28.444Z</time>
      </trkpt>
      <trkpt lat="47.84121" lon="6.98404">
        <ele>980</ele>
        <time>2026-05-09T05:55:29.445Z</time>
      </trkpt>
      <trkpt lat="47.8412" lon="6.98403">
        <ele>980</ele>
        <time>2026-05-09T05:55:30.444Z</time>
      </trkpt>
      <trkpt lat="47.84119" lon="6.98403">
        <ele>980</ele>
        <time>2026-05-09T05:55:31.445Z</time>
      </trkpt>
      <trkpt lat="47.84118" lon="6.98402">
        <ele>980</ele>
        <time>2026-05-09T05:55:32.444Z</time>
      </trkpt>
      <trkpt lat="47.84117" lon="6.98402">
        <ele>981</ele>
        <time>2026-05-09T05:55:33.445Z</time>
      </trkpt>
      <trkpt lat="47.84117" lon="6.98401">
        <ele>981</ele>
        <time>2026-05-09T05:55:34.444Z</time>
      </trkpt>
      <trkpt lat="47.84116" lon="6.984">
        <ele>981</ele>
        <time>2026-05-09T05:55:35.445Z</time>
      </trkpt>
      <trkpt lat="47.84116" lon="6.98399">
        <ele>981</ele>
        <time>2026-05-09T05:55:36.444Z</time>
      </trkpt>
      <trkpt lat="47.84116" lon="6.98398">
        <ele>981</ele>
        <time>2026-05-09T05:55:37.445Z</time>
      </trkpt>
      <trkpt lat="47.84116" lon="6.98396">
        <ele>981</ele>
        <time>2026-05-09T05:55:38.445Z</time>
      </trkpt>
      <trkpt lat="47.84116" lon="6.98395">
        <ele>981</ele>
        <time>2026-05-09T05:55:39.444Z</time>
      </trkpt>
      <trkpt lat="47.84115" lon="6.98394">
        <ele>981</ele>
        <time>2026-05-09T05:55:40.445Z</time>
      </trkpt>
      <trkpt lat="47.84115" lon="6.98392">
        <ele>981</ele>
        <time>2026-05-09T05:55:41.444Z</time>
      </trkpt>
      <trkpt lat="47.84114" lon="6.98391">
        <ele>982</ele>
        <time>2026-05-09T05:55:42.444Z</time>
      </trkpt>
      <trkpt lat="47.84113" lon="6.98389">
        <ele>982</ele>
        <time>2026-05-09T05:55:43.444Z</time>
      </trkpt>
      <trkpt lat="47.84113" lon="6.98387">
        <ele>982</ele>
        <time>2026-05-09T05:55:44.445Z</time>
      </trkpt>
      <trkpt lat="47.84112" lon="6.98386">
        <ele>982</ele>
        <time>2026-05-09T05:55:45.444Z</time>
      </trkpt>
      <trkpt lat="47.84112" lon="6.98384">
        <ele>982</ele>
        <time>2026-05-09T05:55:46.445Z</time>
      </trkpt>
      <trkpt lat="47.84111" lon="6.98382">
        <ele>982</ele>
        <time>2026-05-09T05:55:47.445Z</time>
      </trkpt>
      <trkpt lat="47.84111" lon="6.9838">
        <ele>982</ele>
        <time>2026-05-09T05:55:48.445Z</time>
      </trkpt>
      <trkpt lat="47.84111" lon="6.98378">
        <ele>982</ele>
        <time>2026-05-09T05:55:49.444Z</time>
      </trkpt>
      <trkpt lat="47.8411" lon="6.98376">
        <ele>982</ele>
        <time>2026-05-09T05:55:50.445Z</time>
      </trkpt>
      <trkpt lat="47.8411" lon="6.98375">
        <ele>982</ele>
        <time>2026-05-09T05:55:51.445Z</time>
      </trkpt>
      <trkpt lat="47.8411" lon="6.98373">
        <ele>982</ele>
        <time>2026-05-09T05:55:52.444Z</time>
      </trkpt>
      <trkpt lat="47.8411" lon="6.98371">
        <ele>982</ele>
        <time>2026-05-09T05:55:53.445Z</time>
      </trkpt>
      <trkpt lat="47.8411" lon="6.98369">
        <ele>981</ele>
        <time>2026-05-09T05:55:54.444Z</time>
      </trkpt>
      <trkpt lat="47.8411" lon="6.98367">
        <ele>981</ele>
        <time>2026-05-09T05:55:55.445Z</time>
      </trkpt>
      <trkpt lat="47.8411" lon="6.98365">
        <ele>981</ele>
        <time>2026-05-09T05:55:56.444Z</time>
      </trkpt>
      <trkpt lat="47.8411" lon="6.98363">
        <ele>981</ele>
        <time>2026-05-09T05:55:57.445Z</time>
      </trkpt>
      <trkpt lat="47.8411" lon="6.98361">
        <ele>981</ele>
        <time>2026-05-09T05:55:58.444Z</time>
      </trkpt>
      <trkpt lat="47.8411" lon="6.9836">
        <ele>980</ele>
        <time>2026-05-09T05:55:59.445Z</time>
      </trkpt>
      <trkpt lat="47.8411" lon="6.98358">
        <ele>980</ele>
        <time>2026-05-09T05:56:00.444Z</time>
      </trkpt>
      <trkpt lat="47.84109" lon="6.98356">
        <ele>980</ele>
        <time>2026-05-09T05:56:01.445Z</time>
      </trkpt>
      <trkpt lat="47.84109" lon="6.98355">
        <ele>980</ele>
        <time>2026-05-09T05:56:02.445Z</time>
      </trkpt>
      <trkpt lat="47.84109" lon="6.98353">
        <ele>979</ele>
        <time>2026-05-09T05:56:03.444Z</time>
      </trkpt>
      <trkpt lat="47.84108" lon="6.98351">
        <ele>979</ele>
        <time>2026-05-09T05:56:04.445Z</time>
      </trkpt>
      <trkpt lat="47.84108" lon="6.9835">
        <ele>979</ele>
        <time>2026-05-09T05:56:05.444Z</time>
      </trkpt>
      <trkpt lat="47.84108" lon="6.98348">
        <ele>979</ele>
        <time>2026-05-09T05:56:06.445Z</time>
      </trkpt>
      <trkpt lat="47.84108" lon="6.98346">
        <ele>979</ele>
        <time>2026-05-09T05:56:07.444Z</time>
      </trkpt>
      <trkpt lat="47.84108" lon="6.98344">
        <ele>979</ele>
        <time>2026-05-09T05:56:08.445Z</time>
      </trkpt>
      <trkpt lat="47.84108" lon="6.98343">
        <ele>979</ele>
        <time>2026-05-09T05:56:09.444Z</time>
      </trkpt>
      <trkpt lat="47.84108" lon="6.98341">
        <ele>980</ele>
        <time>2026-05-09T05:56:10.445Z</time>
      </trkpt>
      <trkpt lat="47.84108" lon="6.98339">
        <ele>980</ele>
        <time>2026-05-09T05:56:11.445Z</time>
      </trkpt>
      <trkpt lat="47.84108" lon="6.98337">
        <ele>980</ele>
        <time>2026-05-09T05:56:12.444Z</time>
      </trkpt>
      <trkpt lat="47.84108" lon="6.98335">
        <ele>980</ele>
        <time>2026-05-09T05:56:13.444Z</time>
      </trkpt>
      <trkpt lat="47.84108" lon="6.98334">
        <ele>980</ele>
        <time>2026-05-09T05:56:14.445Z</time>
      </trkpt>
      <trkpt lat="47.84107" lon="6.98333">
        <ele>980</ele>
        <time>2026-05-09T05:56:15.444Z</time>
      </trkpt>
      <trkpt lat="47.84106" lon="6.98331">
        <ele>980</ele>
        <time>2026-05-09T05:56:16.444Z</time>
      </trkpt>
      <trkpt lat="47.84106" lon="6.9833">
        <ele>980</ele>
        <time>2026-05-09T05:56:17.445Z</time>
      </trkpt>
      <trkpt lat="47.84106" lon="6.98328">
        <ele>981</ele>
        <time>2026-05-09T05:56:18.444Z</time>
      </trkpt>
      <trkpt lat="47.84105" lon="6.98326">
        <ele>981</ele>
        <time>2026-05-09T05:56:19.445Z</time>
      </trkpt>
      <trkpt lat="47.84105" lon="6.98324">
        <ele>981</ele>
        <time>2026-05-09T05:56:20.444Z</time>
      </trkpt>
      <trkpt lat="47.84105" lon="6.98323">
        <ele>980</ele>
        <time>2026-05-09T05:56:21.445Z</time>
      </trkpt>
      <trkpt lat="47.84105" lon="6.98322">
        <ele>980</ele>
        <time>2026-05-09T05:56:22.444Z</time>
      </trkpt>
      <trkpt lat="47.84105" lon="6.9832">
        <ele>979</ele>
        <time>2026-05-09T05:56:23.444Z</time>
      </trkpt>
      <trkpt lat="47.84105" lon="6.98319">
        <ele>979</ele>
        <time>2026-05-09T05:56:24.445Z</time>
      </trkpt>
      <trkpt lat="47.84104" lon="6.98317">
        <ele>978</ele>
        <time>2026-05-09T05:56:25.445Z</time>
      </trkpt>
      <trkpt lat="47.84105" lon="6.98316">
        <ele>978</ele>
        <time>2026-05-09T05:56:26.445Z</time>
      </trkpt>
      <trkpt lat="47.84104" lon="6.98314">
        <ele>977</ele>
        <time>2026-05-09T05:56:27.445Z</time>
      </trkpt>
      <trkpt lat="47.84104" lon="6.98312">
        <ele>977</ele>
        <time>2026-05-09T05:56:28.444Z</time>
      </trkpt>
      <trkpt lat="47.84104" lon="6.98311">
        <ele>977</ele>
        <time>2026-05-09T05:56:29.445Z</time>
      </trkpt>
      <trkpt lat="47.84104" lon="6.98309">
        <ele>976</ele>
        <time>2026-05-09T05:56:30.444Z</time>
      </trkpt>
      <trkpt lat="47.84104" lon="6.98308">
        <ele>976</ele>
        <time>2026-05-09T05:56:31.445Z</time>
      </trkpt>
      <trkpt lat="47.84105" lon="6.98307">
        <ele>977</ele>
        <time>2026-05-09T05:56:32.444Z</time>
      </trkpt>
      <trkpt lat="47.84105" lon="6.98307">
        <ele>977</ele>
        <time>2026-05-09T05:56:33.445Z</time>
      </trkpt>
      <trkpt lat="47.84105" lon="6.98306">
        <ele>977</ele>
        <time>2026-05-09T05:56:34.445Z</time>
      </trkpt>
      <trkpt lat="47.84106" lon="6.98304">
        <ele>977</ele>
        <time>2026-05-09T05:56:35.445Z</time>
      </trkpt>
      <trkpt lat="47.84106" lon="6.98303">
        <ele>977</ele>
        <time>2026-05-09T05:56:36.445Z</time>
      </trkpt>
      <trkpt lat="47.84106" lon="6.98301">
        <ele>977</ele>
        <time>2026-05-09T05:56:37.444Z</time>
      </trkpt>
      <trkpt lat="47.84106" lon="6.983">
        <ele>977</ele>
        <time>2026-05-09T05:56:38.445Z</time>
      </trkpt>
      <trkpt lat="47.84107" lon="6.98298">
        <ele>977</ele>
        <time>2026-05-09T05:56:39.444Z</time>
      </trkpt>
      <trkpt lat="47.84107" lon="6.98297">
        <ele>977</ele>
        <time>2026-05-09T05:56:40.445Z</time>
      </trkpt>
      <trkpt lat="47.84107" lon="6.98295">
        <ele>976</ele>
        <time>2026-05-09T05:56:41.444Z</time>
      </trkpt>
      <trkpt lat="47.84107" lon="6.98293">
        <ele>976</ele>
        <time>2026-05-09T05:56:42.445Z</time>
      </trkpt>
      <trkpt lat="47.84107" lon="6.9829">
        <ele>976</ele>
        <time>2026-05-09T05:56:43.444Z</time>
      </trkpt>
      <trkpt lat="47.84106" lon="6.98288">
        <ele>976</ele>
        <time>2026-05-09T05:56:44.444Z</time>
      </trkpt>
      <trkpt lat="47.84106" lon="6.98286">
        <ele>976</ele>
        <time>2026-05-09T05:56:45.445Z</time>
      </trkpt>
      <trkpt lat="47.84106" lon="6.98284">
        <ele>976</ele>
        <time>2026-05-09T05:56:46.444Z</time>
      </trkpt>
      <trkpt lat="47.84107" lon="6.98282">
        <ele>976</ele>
        <time>2026-05-09T05:56:47.445Z</time>
      </trkpt>
      <trkpt lat="47.84107" lon="6.98279">
        <ele>976</ele>
        <time>2026-05-09T05:56:48.444Z</time>
      </trkpt>
      <trkpt lat="47.84107" lon="6.98277">
        <ele>976</ele>
        <time>2026-05-09T05:56:49.445Z</time>
      </trkpt>
      <trkpt lat="47.84107" lon="6.98274">
        <ele>976</ele>
        <time>2026-05-09T05:56:50.444Z</time>
      </trkpt>
      <trkpt lat="47.84107" lon="6.98272">
        <ele>976</ele>
        <time>2026-05-09T05:56:51.444Z</time>
      </trkpt>
      <trkpt lat="47.84106" lon="6.9827">
        <ele>977</ele>
        <time>2026-05-09T05:56:52.444Z</time>
      </trkpt>
      <trkpt lat="47.84106" lon="6.98268">
        <ele>977</ele>
        <time>2026-05-09T05:56:53.444Z</time>
      </trkpt>
      <trkpt lat="47.84106" lon="6.98266">
        <ele>978</ele>
        <time>2026-05-09T05:56:54.445Z</time>
      </trkpt>
      <trkpt lat="47.84106" lon="6.98264">
        <ele>978</ele>
        <time>2026-05-09T05:56:55.445Z</time>
      </trkpt>
      <trkpt lat="47.84106" lon="6.98262">
        <ele>978</ele>
        <time>2026-05-09T05:56:56.444Z</time>
      </trkpt>
      <trkpt lat="47.84107" lon="6.98261">
        <ele>978</ele>
        <time>2026-05-09T05:56:57.445Z</time>
      </trkpt>
      <trkpt lat="47.84107" lon="6.98259">
        <ele>978</ele>
        <time>2026-05-09T05:56:58.445Z</time>
      </trkpt>
      <trkpt lat="47.84107" lon="6.98257">
        <ele>978</ele>
        <time>2026-05-09T05:56:59.444Z</time>
      </trkpt>
      <trkpt lat="47.84107" lon="6.98255">
        <ele>979</ele>
        <time>2026-05-09T05:57:00.445Z</time>
      </trkpt>
      <trkpt lat="47.84107" lon="6.98253">
        <ele>979</ele>
        <time>2026-05-09T05:57:01.445Z</time>
      </trkpt>
      <trkpt lat="47.84108" lon="6.98251">
        <ele>978</ele>
        <time>2026-05-09T05:57:02.444Z</time>
      </trkpt>
      <trkpt lat="47.84108" lon="6.98249">
        <ele>978</ele>
        <time>2026-05-09T05:57:03.445Z</time>
      </trkpt>
      <trkpt lat="47.84108" lon="6.98247">
        <ele>978</ele>
        <time>2026-05-09T05:57:04.444Z</time>
      </trkpt>
      <trkpt lat="47.84108" lon="6.98245">
        <ele>978</ele>
        <time>2026-05-09T05:57:05.444Z</time>
      </trkpt>
      <trkpt lat="47.84108" lon="6.98243">
        <ele>978</ele>
        <time>2026-05-09T05:57:06.445Z</time>
      </trkpt>
      <trkpt lat="47.84108" lon="6.98242">
        <ele>978</ele>
        <time>2026-05-09T05:57:07.445Z</time>
      </trkpt>
      <trkpt lat="47.84108" lon="6.9824">
        <ele>978</ele>
        <time>2026-05-09T05:57:08.445Z</time>
      </trkpt>
      <trkpt lat="47.84108" lon="6.98239">
        <ele>978</ele>
        <time>2026-05-09T05:57:09.444Z</time>
      </trkpt>
      <trkpt lat="47.84108" lon="6.98237">
        <ele>978</ele>
        <time>2026-05-09T05:57:10.444Z</time>
      </trkpt>
      <trkpt lat="47.84107" lon="6.98235">
        <ele>978</ele>
        <time>2026-05-09T05:57:11.445Z</time>
      </trkpt>
      <trkpt lat="47.84107" lon="6.98233">
        <ele>978</ele>
        <time>2026-05-09T05:57:12.444Z</time>
      </trkpt>
      <trkpt lat="47.84107" lon="6.98231">
        <ele>978</ele>
        <time>2026-05-09T05:57:13.445Z</time>
      </trkpt>
      <trkpt lat="47.84108" lon="6.9823">
        <ele>978</ele>
        <time>2026-05-09T05:57:14.444Z</time>
      </trkpt>
      <trkpt lat="47.84108" lon="6.98229">
        <ele>978</ele>
        <time>2026-05-09T05:57:15.445Z</time>
      </trkpt>
      <trkpt lat="47.84108" lon="6.98227">
        <ele>978</ele>
        <time>2026-05-09T05:57:16.444Z</time>
      </trkpt>
      <trkpt lat="47.84108" lon="6.98226">
        <ele>978</ele>
        <time>2026-05-09T05:57:17.444Z</time>
      </trkpt>
      <trkpt lat="47.84108" lon="6.98225">
        <ele>978</ele>
        <time>2026-05-09T05:57:18.444Z</time>
      </trkpt>
      <trkpt lat="47.84108" lon="6.98223">
        <ele>978</ele>
        <time>2026-05-09T05:57:19.445Z</time>
      </trkpt>
      <trkpt lat="47.84107" lon="6.98221">
        <ele>979</ele>
        <time>2026-05-09T05:57:20.444Z</time>
      </trkpt>
      <trkpt lat="47.84107" lon="6.98219">
        <ele>979</ele>
        <time>2026-05-09T05:57:21.444Z</time>
      </trkpt>
      <trkpt lat="47.84107" lon="6.98218">
        <ele>980</ele>
        <time>2026-05-09T05:57:22.445Z</time>
      </trkpt>
      <trkpt lat="47.84107" lon="6.98217">
        <ele>980</ele>
        <time>2026-05-09T05:57:23.445Z</time>
      </trkpt>
      <trkpt lat="47.84107" lon="6.98216">
        <ele>980</ele>
        <time>2026-05-09T05:57:24.444Z</time>
      </trkpt>
      <trkpt lat="47.84107" lon="6.98215">
        <ele>980</ele>
        <time>2026-05-09T05:57:25.444Z</time>
      </trkpt>
      <trkpt lat="47.84107" lon="6.98213">
        <ele>981</ele>
        <time>2026-05-09T05:57:26.445Z</time>
      </trkpt>
      <trkpt lat="47.84107" lon="6.98212">
        <ele>981</ele>
        <time>2026-05-09T05:57:27.444Z</time>
      </trkpt>
      <trkpt lat="47.84107" lon="6.98209">
        <ele>982</ele>
        <time>2026-05-09T05:57:28.444Z</time>
      </trkpt>
      <trkpt lat="47.84108" lon="6.98207">
        <ele>982</ele>
        <time>2026-05-09T05:57:29.445Z</time>
      </trkpt>
      <trkpt lat="47.84108" lon="6.98206">
        <ele>982</ele>
        <time>2026-05-09T05:57:30.445Z</time>
      </trkpt>
      <trkpt lat="47.84108" lon="6.98205">
        <ele>983</ele>
        <time>2026-05-09T05:57:31.444Z</time>
      </trkpt>
      <trkpt lat="47.84108" lon="6.98205">
        <ele>983</ele>
        <time>2026-05-09T05:57:32.445Z</time>
      </trkpt>
      <trkpt lat="47.84108" lon="6.98205">
        <ele>983</ele>
        <time>2026-05-09T05:57:33.445Z</time>
      </trkpt>
      <trkpt lat="47.84107" lon="6.98203">
        <ele>984</ele>
        <time>2026-05-09T05:57:39.909Z</time>
      </trkpt>
      <trkpt lat="47.84107" lon="6.98203">
        <ele>984</ele>
        <time>2026-05-09T05:57:40.909Z</time>
      </trkpt>
      <trkpt lat="47.84107" lon="6.98204">
        <ele>984</ele>
        <time>2026-05-09T05:57:41.909Z</time>
      </trkpt>
      <trkpt lat="47.84107" lon="6.98204">
        <ele>984</ele>
        <time>2026-05-09T05:57:42.909Z</time>
      </trkpt>
      <trkpt lat="47.84107" lon="6.98203">
        <ele>984</ele>
        <time>2026-05-09T05:57:43.909Z</time>
      </trkpt>
      <trkpt lat="47.84107" lon="6.98203">
        <ele>984</ele>
        <time>2026-05-09T05:57:44.909Z</time>
      </trkpt>
      <trkpt lat="47.84107" lon="6.98202">
        <ele>984</ele>
        <time>2026-05-09T05:57:45.908Z</time>
      </trkpt>
      <trkpt lat="47.84106" lon="6.98201">
        <ele>984</ele>
        <time>2026-05-09T05:57:46.909Z</time>
      </trkpt>
      <trkpt lat="47.84106" lon="6.982">
        <ele>984</ele>
        <time>2026-05-09T05:57:47.909Z</time>
      </trkpt>
      <trkpt lat="47.84106" lon="6.98198">
        <ele>984</ele>
        <time>2026-05-09T05:57:48.909Z</time>
      </trkpt>
      <trkpt lat="47.84106" lon="6.98197">
        <ele>984</ele>
        <time>2026-05-09T05:57:49.909Z</time>
      </trkpt>
      <trkpt lat="47.84106" lon="6.98196">
        <ele>984</ele>
        <time>2026-05-09T05:57:50.908Z</time>
      </trkpt>
      <trkpt lat="47.84106" lon="6.98195">
        <ele>984</ele>
        <time>2026-05-09T05:57:51.908Z</time>
      </trkpt>
      <trkpt lat="47.84105" lon="6.98194">
        <ele>984</ele>
        <time>2026-05-09T05:57:52.908Z</time>
      </trkpt>
      <trkpt lat="47.84105" lon="6.98192">
        <ele>984</ele>
        <time>2026-05-09T05:57:53.908Z</time>
      </trkpt>
      <trkpt lat="47.84105" lon="6.98191">
        <ele>984</ele>
        <time>2026-05-09T05:57:54.909Z</time>
      </trkpt>
      <trkpt lat="47.84105" lon="6.9819">
        <ele>983</ele>
        <time>2026-05-09T05:57:55.909Z</time>
      </trkpt>
      <trkpt lat="47.84104" lon="6.98188">
        <ele>983</ele>
        <time>2026-05-09T05:57:56.909Z</time>
      </trkpt>
      <trkpt lat="47.84103" lon="6.98186">
        <ele>983</ele>
        <time>2026-05-09T05:57:57.909Z</time>
      </trkpt>
      <trkpt lat="47.84102" lon="6.98184">
        <ele>983</ele>
        <time>2026-05-09T05:57:58.909Z</time>
      </trkpt>
      <trkpt lat="47.84102" lon="6.98183">
        <ele>983</ele>
        <time>2026-05-09T05:57:59.909Z</time>
      </trkpt>
      <trkpt lat="47.84101" lon="6.98182">
        <ele>983</ele>
        <time>2026-05-09T05:58:00.909Z</time>
      </trkpt>
      <trkpt lat="47.84101" lon="6.98181">
        <ele>983</ele>
        <time>2026-05-09T05:58:01.909Z</time>
      </trkpt>
      <trkpt lat="47.841" lon="6.9818">
        <ele>983</ele>
        <time>2026-05-09T05:58:02.909Z</time>
      </trkpt>
      <trkpt lat="47.841" lon="6.98179">
        <ele>984</ele>
        <time>2026-05-09T05:58:03.909Z</time>
      </trkpt>
      <trkpt lat="47.84099" lon="6.98177">
        <ele>985</ele>
        <time>2026-05-09T05:58:04.908Z</time>
      </trkpt>
      <trkpt lat="47.84098" lon="6.98176">
        <ele>985</ele>
        <time>2026-05-09T05:58:05.908Z</time>
      </trkpt>
      <trkpt lat="47.84097" lon="6.98175">
        <ele>986</ele>
        <time>2026-05-09T05:58:06.909Z</time>
      </trkpt>
      <trkpt lat="47.84097" lon="6.98173">
        <ele>987</ele>
        <time>2026-05-09T05:58:07.909Z</time>
      </trkpt>
      <trkpt lat="47.84096" lon="6.98172">
        <ele>987</ele>
        <time>2026-05-09T05:58:08.909Z</time>
      </trkpt>
      <trkpt lat="47.84096" lon="6.98171">
        <ele>987</ele>
        <time>2026-05-09T05:58:09.908Z</time>
      </trkpt>
      <trkpt lat="47.84095" lon="6.98169">
        <ele>987</ele>
        <time>2026-05-09T05:58:10.909Z</time>
      </trkpt>
      <trkpt lat="47.84095" lon="6.98166">
        <ele>987</ele>
        <time>2026-05-09T05:58:11.908Z</time>
      </trkpt>
      <trkpt lat="47.84095" lon="6.98164">
        <ele>987</ele>
        <time>2026-05-09T05:58:12.909Z</time>
      </trkpt>
      <trkpt lat="47.84094" lon="6.98162">
        <ele>987</ele>
        <time>2026-05-09T05:58:13.908Z</time>
      </trkpt>
      <trkpt lat="47.84094" lon="6.9816">
        <ele>987</ele>
        <time>2026-05-09T05:58:14.908Z</time>
      </trkpt>
      <trkpt lat="47.84093" lon="6.98158">
        <ele>987</ele>
        <time>2026-05-09T05:58:15.909Z</time>
      </trkpt>
      <trkpt lat="47.84092" lon="6.98156">
        <ele>987</ele>
        <time>2026-05-09T05:58:16.908Z</time>
      </trkpt>
      <trkpt lat="47.84092" lon="6.98154">
        <ele>987</ele>
        <time>2026-05-09T05:58:17.908Z</time>
      </trkpt>
      <trkpt lat="47.84091" lon="6.98152">
        <ele>987</ele>
        <time>2026-05-09T05:58:18.908Z</time>
      </trkpt>
      <trkpt lat="47.84091" lon="6.9815">
        <ele>987</ele>
        <time>2026-05-09T05:58:19.908Z</time>
      </trkpt>
      <trkpt lat="47.8409" lon="6.98148">
        <ele>987</ele>
        <time>2026-05-09T05:58:20.909Z</time>
      </trkpt>
      <trkpt lat="47.84089" lon="6.98147">
        <ele>987</ele>
        <time>2026-05-09T05:58:21.909Z</time>
      </trkpt>
      <trkpt lat="47.84088" lon="6.98144">
        <ele>987</ele>
        <time>2026-05-09T05:58:22.908Z</time>
      </trkpt>
      <trkpt lat="47.84087" lon="6.98141">
        <ele>987</ele>
        <time>2026-05-09T05:58:23.909Z</time>
      </trkpt>
      <trkpt lat="47.84087" lon="6.98139">
        <ele>987</ele>
        <time>2026-05-09T05:58:24.909Z</time>
      </trkpt>
      <trkpt lat="47.84086" lon="6.98137">
        <ele>987</ele>
        <time>2026-05-09T05:58:25.908Z</time>
      </trkpt>
      <trkpt lat="47.84086" lon="6.98136">
        <ele>986</ele>
        <time>2026-05-09T05:58:26.908Z</time>
      </trkpt>
      <trkpt lat="47.84086" lon="6.98135">
        <ele>986</ele>
        <time>2026-05-09T05:58:27.908Z</time>
      </trkpt>
      <trkpt lat="47.84086" lon="6.98133">
        <ele>986</ele>
        <time>2026-05-09T05:58:28.909Z</time>
      </trkpt>
      <trkpt lat="47.84086" lon="6.98131">
        <ele>985</ele>
        <time>2026-05-09T05:58:29.908Z</time>
      </trkpt>
      <trkpt lat="47.84085" lon="6.98128">
        <ele>985</ele>
        <time>2026-05-09T05:58:30.908Z</time>
      </trkpt>
      <trkpt lat="47.84085" lon="6.98127">
        <ele>984</ele>
        <time>2026-05-09T05:58:31.908Z</time>
      </trkpt>
      <trkpt lat="47.84085" lon="6.98125">
        <ele>984</ele>
        <time>2026-05-09T05:58:32.909Z</time>
      </trkpt>
      <trkpt lat="47.84085" lon="6.98122">
        <ele>984</ele>
        <time>2026-05-09T05:58:33.908Z</time>
      </trkpt>
      <trkpt lat="47.84085" lon="6.9812">
        <ele>983</ele>
        <time>2026-05-09T05:58:34.908Z</time>
      </trkpt>
      <trkpt lat="47.84085" lon="6.98118">
        <ele>983</ele>
        <time>2026-05-09T05:58:35.909Z</time>
      </trkpt>
      <trkpt lat="47.84085" lon="6.98117">
        <ele>983</ele>
        <time>2026-05-09T05:58:36.908Z</time>
      </trkpt>
      <trkpt lat="47.84085" lon="6.98115">
        <ele>982</ele>
        <time>2026-05-09T05:58:37.909Z</time>
      </trkpt>
      <trkpt lat="47.84085" lon="6.98113">
        <ele>982</ele>
        <time>2026-05-09T05:58:38.908Z</time>
      </trkpt>
      <trkpt lat="47.84085" lon="6.98111">
        <ele>982</ele>
        <time>2026-05-09T05:58:39.908Z</time>
      </trkpt>
      <trkpt lat="47.84085" lon="6.98109">
        <ele>981</ele>
        <time>2026-05-09T05:58:40.908Z</time>
      </trkpt>
      <trkpt lat="47.84085" lon="6.98108">
        <ele>981</ele>
        <time>2026-05-09T05:58:41.908Z</time>
      </trkpt>
      <trkpt lat="47.84085" lon="6.98106">
        <ele>980</ele>
        <time>2026-05-09T05:58:42.908Z</time>
      </trkpt>
      <trkpt lat="47.84085" lon="6.98105">
        <ele>980</ele>
        <time>2026-05-09T05:58:43.908Z</time>
      </trkpt>
      <trkpt lat="47.84085" lon="6.98103">
        <ele>979</ele>
        <time>2026-05-09T05:58:44.908Z</time>
      </trkpt>
      <trkpt lat="47.84085" lon="6.98101">
        <ele>979</ele>
        <time>2026-05-09T05:58:45.908Z</time>
      </trkpt>
      <trkpt lat="47.84085" lon="6.981">
        <ele>979</ele>
        <time>2026-05-09T05:58:46.908Z</time>
      </trkpt>
      <trkpt lat="47.84086" lon="6.98098">
        <ele>979</ele>
        <time>2026-05-09T05:58:47.908Z</time>
      </trkpt>
      <trkpt lat="47.84086" lon="6.98096">
        <ele>978</ele>
        <time>2026-05-09T05:58:48.909Z</time>
      </trkpt>
      <trkpt lat="47.84086" lon="6.98095">
        <ele>978</ele>
        <time>2026-05-09T05:58:49.909Z</time>
      </trkpt>
      <trkpt lat="47.84087" lon="6.98093">
        <ele>979</ele>
        <time>2026-05-09T05:58:50.908Z</time>
      </trkpt>
      <trkpt lat="47.84088" lon="6.98092">
        <ele>979</ele>
        <time>2026-05-09T05:58:51.909Z</time>
      </trkpt>
      <trkpt lat="47.84088" lon="6.9809">
        <ele>979</ele>
        <time>2026-05-09T05:58:52.908Z</time>
      </trkpt>
      <trkpt lat="47.84089" lon="6.98089">
        <ele>979</ele>
        <time>2026-05-09T05:58:53.908Z</time>
      </trkpt>
      <trkpt lat="47.84089" lon="6.98087">
        <ele>978</ele>
        <time>2026-05-09T05:58:54.908Z</time>
      </trkpt>
      <trkpt lat="47.84089" lon="6.98085">
        <ele>978</ele>
        <time>2026-05-09T05:58:55.909Z</time>
      </trkpt>
      <trkpt lat="47.84089" lon="6.98083">
        <ele>978</ele>
        <time>2026-05-09T05:58:56.909Z</time>
      </trkpt>
      <trkpt lat="47.8409" lon="6.98082">
        <ele>977</ele>
        <time>2026-05-09T05:58:57.908Z</time>
      </trkpt>
      <trkpt lat="47.8409" lon="6.9808">
        <ele>977</ele>
        <time>2026-05-09T05:58:58.909Z</time>
      </trkpt>
      <trkpt lat="47.84091" lon="6.98079">
        <ele>976</ele>
        <time>2026-05-09T05:58:59.908Z</time>
      </trkpt>
      <trkpt lat="47.84091" lon="6.98077">
        <ele>976</ele>
        <time>2026-05-09T05:59:00.909Z</time>
      </trkpt>
      <trkpt lat="47.84091" lon="6.98075">
        <ele>975</ele>
        <time>2026-05-09T05:59:01.908Z</time>
      </trkpt>
      <trkpt lat="47.84091" lon="6.98072">
        <ele>975</ele>
        <time>2026-05-09T05:59:02.908Z</time>
      </trkpt>
      <trkpt lat="47.84091" lon="6.98071">
        <ele>975</ele>
        <time>2026-05-09T05:59:03.908Z</time>
      </trkpt>
      <trkpt lat="47.84092" lon="6.98069">
        <ele>975</ele>
        <time>2026-05-09T05:59:04.908Z</time>
      </trkpt>
      <trkpt lat="47.84093" lon="6.98066">
        <ele>974</ele>
        <time>2026-05-09T05:59:05.908Z</time>
      </trkpt>
      <trkpt lat="47.84093" lon="6.98063">
        <ele>974</ele>
        <time>2026-05-09T05:59:06.909Z</time>
      </trkpt>
      <trkpt lat="47.84093" lon="6.98061">
        <ele>974</ele>
        <time>2026-05-09T05:59:07.909Z</time>
      </trkpt>
      <trkpt lat="47.84094" lon="6.98059">
        <ele>973</ele>
        <time>2026-05-09T05:59:08.909Z</time>
      </trkpt>
      <trkpt lat="47.84095" lon="6.98058">
        <ele>973</ele>
        <time>2026-05-09T05:59:09.909Z</time>
      </trkpt>
      <trkpt lat="47.84096" lon="6.98057">
        <ele>973</ele>
        <time>2026-05-09T05:59:10.908Z</time>
      </trkpt>
      <trkpt lat="47.84096" lon="6.98056">
        <ele>973</ele>
        <time>2026-05-09T05:59:11.908Z</time>
      </trkpt>
      <trkpt lat="47.84097" lon="6.98054">
        <ele>973</ele>
        <time>2026-05-09T05:59:12.908Z</time>
      </trkpt>
      <trkpt lat="47.84097" lon="6.98052">
        <ele>973</ele>
        <time>2026-05-09T05:59:13.908Z</time>
      </trkpt>
      <trkpt lat="47.84098" lon="6.9805">
        <ele>973</ele>
        <time>2026-05-09T05:59:14.909Z</time>
      </trkpt>
      <trkpt lat="47.84098" lon="6.98049">
        <ele>973</ele>
        <time>2026-05-09T05:59:15.908Z</time>
      </trkpt>
      <trkpt lat="47.84099" lon="6.98047">
        <ele>972</ele>
        <time>2026-05-09T05:59:16.909Z</time>
      </trkpt>
      <trkpt lat="47.84099" lon="6.98045">
        <ele>972</ele>
        <time>2026-05-09T05:59:17.908Z</time>
      </trkpt>
      <trkpt lat="47.841" lon="6.98043">
        <ele>972</ele>
        <time>2026-05-09T05:59:18.908Z</time>
      </trkpt>
      <trkpt lat="47.84101" lon="6.98042">
        <ele>972</ele>
        <time>2026-05-09T05:59:19.908Z</time>
      </trkpt>
      <trkpt lat="47.84102" lon="6.98041">
        <ele>972</ele>
        <time>2026-05-09T05:59:20.908Z</time>
      </trkpt>
      <trkpt lat="47.84103" lon="6.98039">
        <ele>972</ele>
        <time>2026-05-09T05:59:21.908Z</time>
      </trkpt>
      <trkpt lat="47.84103" lon="6.98037">
        <ele>972</ele>
        <time>2026-05-09T05:59:22.908Z</time>
      </trkpt>
      <trkpt lat="47.84105" lon="6.98035">
        <ele>971</ele>
        <time>2026-05-09T05:59:23.908Z</time>
      </trkpt>
      <trkpt lat="47.84105" lon="6.98034">
        <ele>971</ele>
        <time>2026-05-09T05:59:24.908Z</time>
      </trkpt>
      <trkpt lat="47.84106" lon="6.98032">
        <ele>971</ele>
        <time>2026-05-09T05:59:25.908Z</time>
      </trkpt>
      <trkpt lat="47.84107" lon="6.98032">
        <ele>970</ele>
        <time>2026-05-09T05:59:26.908Z</time>
      </trkpt>
      <trkpt lat="47.84108" lon="6.9803">
        <ele>970</ele>
        <time>2026-05-09T05:59:27.908Z</time>
      </trkpt>
      <trkpt lat="47.84108" lon="6.98028">
        <ele>970</ele>
        <time>2026-05-09T05:59:28.908Z</time>
      </trkpt>
      <trkpt lat="47.8411" lon="6.98027">
        <ele>969</ele>
        <time>2026-05-09T05:59:29.908Z</time>
      </trkpt>
      <trkpt lat="47.84112" lon="6.98027">
        <ele>969</ele>
        <time>2026-05-09T05:59:30.908Z</time>
      </trkpt>
      <trkpt lat="47.84113" lon="6.98026">
        <ele>970</ele>
        <time>2026-05-09T05:59:31.908Z</time>
      </trkpt>
      <trkpt lat="47.84114" lon="6.98025">
        <ele>970</ele>
        <time>2026-05-09T05:59:32.908Z</time>
      </trkpt>
      <trkpt lat="47.84116" lon="6.98025">
        <ele>970</ele>
        <time>2026-05-09T05:59:33.908Z</time>
      </trkpt>
      <trkpt lat="47.84117" lon="6.98024">
        <ele>970</ele>
        <time>2026-05-09T05:59:34.908Z</time>
      </trkpt>
      <trkpt lat="47.84118" lon="6.98023">
        <ele>970</ele>
        <time>2026-05-09T05:59:35.908Z</time>
      </trkpt>
      <trkpt lat="47.84118" lon="6.98022">
        <ele>970</ele>
        <time>2026-05-09T05:59:36.908Z</time>
      </trkpt>
      <trkpt lat="47.84119" lon="6.98022">
        <ele>970</ele>
        <time>2026-05-09T05:59:37.908Z</time>
      </trkpt>
      <trkpt lat="47.8412" lon="6.98021">
        <ele>970</ele>
        <time>2026-05-09T05:59:38.909Z</time>
      </trkpt>
      <trkpt lat="47.84121" lon="6.9802">
        <ele>969</ele>
        <time>2026-05-09T05:59:39.908Z</time>
      </trkpt>
      <trkpt lat="47.84122" lon="6.98019">
        <ele>969</ele>
        <time>2026-05-09T05:59:40.909Z</time>
      </trkpt>
      <trkpt lat="47.84122" lon="6.98017">
        <ele>969</ele>
        <time>2026-05-09T05:59:41.909Z</time>
      </trkpt>
      <trkpt lat="47.84123" lon="6.98016">
        <ele>968</ele>
        <time>2026-05-09T05:59:42.909Z</time>
      </trkpt>
      <trkpt lat="47.84124" lon="6.98015">
        <ele>968</ele>
        <time>2026-05-09T05:59:43.908Z</time>
      </trkpt>
      <trkpt lat="47.84125" lon="6.98014">
        <ele>968</ele>
        <time>2026-05-09T05:59:44.908Z</time>
      </trkpt>
      <trkpt lat="47.84125" lon="6.98013">
        <ele>967</ele>
        <time>2026-05-09T05:59:45.909Z</time>
      </trkpt>
      <trkpt lat="47.84126" lon="6.98011">
        <ele>967</ele>
        <time>2026-05-09T05:59:46.908Z</time>
      </trkpt>
      <trkpt lat="47.84126" lon="6.9801">
        <ele>967</ele>
        <time>2026-05-09T05:59:47.909Z</time>
      </trkpt>
      <trkpt lat="47.84127" lon="6.98009">
        <ele>967</ele>
        <time>2026-05-09T05:59:48.909Z</time>
      </trkpt>
      <trkpt lat="47.84128" lon="6.98008">
        <ele>967</ele>
        <time>2026-05-09T05:59:49.909Z</time>
      </trkpt>
      <trkpt lat="47.84129" lon="6.98007">
        <ele>967</ele>
        <time>2026-05-09T05:59:50.908Z</time>
      </trkpt>
      <trkpt lat="47.84129" lon="6.98006">
        <ele>967</ele>
        <time>2026-05-09T05:59:51.908Z</time>
      </trkpt>
      <trkpt lat="47.8413" lon="6.98004">
        <ele>967</ele>
        <time>2026-05-09T05:59:52.909Z</time>
      </trkpt>
      <trkpt lat="47.84131" lon="6.98002">
        <ele>967</ele>
        <time>2026-05-09T05:59:53.908Z</time>
      </trkpt>
      <trkpt lat="47.84132" lon="6.98">
        <ele>968</ele>
        <time>2026-05-09T05:59:54.908Z</time>
      </trkpt>
      <trkpt lat="47.84133" lon="6.97998">
        <ele>968</ele>
        <time>2026-05-09T05:59:55.908Z</time>
      </trkpt>
      <trkpt lat="47.84133" lon="6.97995">
        <ele>968</ele>
        <time>2026-05-09T05:59:56.908Z</time>
      </trkpt>
      <trkpt lat="47.84134" lon="6.97995">
        <ele>968</ele>
        <time>2026-05-09T05:59:57.909Z</time>
      </trkpt>
      <trkpt lat="47.84134" lon="6.97995">
        <ele>968</ele>
        <time>2026-05-09T05:59:58.908Z</time>
      </trkpt>
      <trkpt lat="47.84134" lon="6.97994">
        <ele>968</ele>
        <time>2026-05-09T05:59:59.908Z</time>
      </trkpt>
      <trkpt lat="47.84136" lon="6.9799">
        <ele>967</ele>
        <time>2026-05-09T06:00:07.119Z</time>
      </trkpt>
      <trkpt lat="47.84137" lon="6.97987">
        <ele>967</ele>
        <time>2026-05-09T06:00:08.118Z</time>
      </trkpt>
      <trkpt lat="47.84138" lon="6.97986">
        <ele>967</ele>
        <time>2026-05-09T06:00:09.118Z</time>
      </trkpt>
      <trkpt lat="47.84138" lon="6.97984">
        <ele>967</ele>
        <time>2026-05-09T06:00:10.118Z</time>
      </trkpt>
      <trkpt lat="47.84139" lon="6.97982">
        <ele>967</ele>
        <time>2026-05-09T06:00:11.119Z</time>
      </trkpt>
      <trkpt lat="47.84139" lon="6.97981">
        <ele>967</ele>
        <time>2026-05-09T06:00:12.118Z</time>
      </trkpt>
      <trkpt lat="47.84139" lon="6.97979">
        <ele>967</ele>
        <time>2026-05-09T06:00:13.118Z</time>
      </trkpt>
      <trkpt lat="47.8414" lon="6.97978">
        <ele>967</ele>
        <time>2026-05-09T06:00:14.119Z</time>
      </trkpt>
      <trkpt lat="47.84141" lon="6.97977">
        <ele>967</ele>
        <time>2026-05-09T06:00:15.118Z</time>
      </trkpt>
      <trkpt lat="47.84142" lon="6.97976">
        <ele>967</ele>
        <time>2026-05-09T06:00:16.118Z</time>
      </trkpt>
      <trkpt lat="47.84142" lon="6.97976">
        <ele>968</ele>
        <time>2026-05-09T06:00:17.118Z</time>
      </trkpt>
      <trkpt lat="47.84142" lon="6.97976">
        <ele>968</ele>
        <time>2026-05-09T06:00:18.119Z</time>
      </trkpt>
      <trkpt lat="47.84143" lon="6.97976">
        <ele>968</ele>
        <time>2026-05-09T06:00:19.118Z</time>
      </trkpt>
      <trkpt lat="47.84143" lon="6.97976">
        <ele>963</ele>
        <time>2026-05-09T06:00:31.441Z</time>
      </trkpt>
      <trkpt lat="47.84142" lon="6.97975">
        <ele>963</ele>
        <time>2026-05-09T06:00:32.440Z</time>
      </trkpt>
      <trkpt lat="47.84143" lon="6.97975">
        <ele>962</ele>
        <time>2026-05-09T06:00:33.441Z</time>
      </trkpt>
      <trkpt lat="47.84143" lon="6.97975">
        <ele>962</ele>
        <time>2026-05-09T06:00:34.440Z</time>
      </trkpt>
      <trkpt lat="47.84144" lon="6.97974">
        <ele>962</ele>
        <time>2026-05-09T06:00:35.441Z</time>
      </trkpt>
      <trkpt lat="47.84144" lon="6.97974">
        <ele>962</ele>
        <time>2026-05-09T06:00:36.440Z</time>
      </trkpt>
      <trkpt lat="47.84144" lon="6.97973">
        <ele>962</ele>
        <time>2026-05-09T06:00:37.440Z</time>
      </trkpt>
      <trkpt lat="47.84147" lon="6.97967">
        <ele>963</ele>
        <time>2026-05-09T06:00:47.620Z</time>
      </trkpt>
      <trkpt lat="47.84148" lon="6.97967">
        <ele>963</ele>
        <time>2026-05-09T06:00:48.621Z</time>
      </trkpt>
      <trkpt lat="47.84149" lon="6.97965">
        <ele>963</ele>
        <time>2026-05-09T06:00:49.620Z</time>
      </trkpt>
      <trkpt lat="47.8415" lon="6.97965">
        <ele>963</ele>
        <time>2026-05-09T06:00:50.620Z</time>
      </trkpt>
      <trkpt lat="47.84151" lon="6.97963">
        <ele>963</ele>
        <time>2026-05-09T06:00:51.620Z</time>
      </trkpt>
      <trkpt lat="47.84152" lon="6.97962">
        <ele>963</ele>
        <time>2026-05-09T06:00:52.620Z</time>
      </trkpt>
      <trkpt lat="47.84152" lon="6.9796">
        <ele>962</ele>
        <time>2026-05-09T06:00:53.620Z</time>
      </trkpt>
      <trkpt lat="47.84152" lon="6.97958">
        <ele>962</ele>
        <time>2026-05-09T06:00:54.620Z</time>
      </trkpt>
      <trkpt lat="47.84152" lon="6.97956">
        <ele>962</ele>
        <time>2026-05-09T06:00:55.621Z</time>
      </trkpt>
      <trkpt lat="47.84153" lon="6.97954">
        <ele>962</ele>
        <time>2026-05-09T06:00:56.621Z</time>
      </trkpt>
      <trkpt lat="47.84153" lon="6.97952">
        <ele>962</ele>
        <time>2026-05-09T06:00:57.621Z</time>
      </trkpt>
      <trkpt lat="47.84153" lon="6.97951">
        <ele>962</ele>
        <time>2026-05-09T06:00:58.620Z</time>
      </trkpt>
      <trkpt lat="47.84154" lon="6.9795">
        <ele>962</ele>
        <time>2026-05-09T06:00:59.621Z</time>
      </trkpt>
      <trkpt lat="47.84155" lon="6.97949">
        <ele>962</ele>
        <time>2026-05-09T06:01:00.620Z</time>
      </trkpt>
      <trkpt lat="47.84156" lon="6.97947">
        <ele>962</ele>
        <time>2026-05-09T06:01:01.620Z</time>
      </trkpt>
      <trkpt lat="47.84157" lon="6.97945">
        <ele>963</ele>
        <time>2026-05-09T06:01:02.620Z</time>
      </trkpt>
      <trkpt lat="47.84157" lon="6.97944">
        <ele>963</ele>
        <time>2026-05-09T06:01:03.620Z</time>
      </trkpt>
      <trkpt lat="47.84158" lon="6.97943">
        <ele>963</ele>
        <time>2026-05-09T06:01:04.621Z</time>
      </trkpt>
      <trkpt lat="47.84158" lon="6.97941">
        <ele>963</ele>
        <time>2026-05-09T06:01:05.621Z</time>
      </trkpt>
      <trkpt lat="47.84159" lon="6.9794">
        <ele>963</ele>
        <time>2026-05-09T06:01:06.620Z</time>
      </trkpt>
      <trkpt lat="47.8416" lon="6.97938">
        <ele>962</ele>
        <time>2026-05-09T06:01:07.620Z</time>
      </trkpt>
      <trkpt lat="47.84162" lon="6.97937">
        <ele>962</ele>
        <time>2026-05-09T06:01:08.620Z</time>
      </trkpt>
      <trkpt lat="47.84162" lon="6.97935">
        <ele>962</ele>
        <time>2026-05-09T06:01:09.621Z</time>
      </trkpt>
      <trkpt lat="47.84163" lon="6.97933">
        <ele>962</ele>
        <time>2026-05-09T06:01:10.620Z</time>
      </trkpt>
      <trkpt lat="47.84163" lon="6.97931">
        <ele>962</ele>
        <time>2026-05-09T06:01:11.620Z</time>
      </trkpt>
      <trkpt lat="47.84163" lon="6.9793">
        <ele>962</ele>
        <time>2026-05-09T06:01:12.620Z</time>
      </trkpt>
      <trkpt lat="47.84163" lon="6.97928">
        <ele>962</ele>
        <time>2026-05-09T06:01:13.621Z</time>
      </trkpt>
      <trkpt lat="47.84163" lon="6.97927">
        <ele>962</ele>
        <time>2026-05-09T06:01:14.620Z</time>
      </trkpt>
      <trkpt lat="47.84163" lon="6.97925">
        <ele>962</ele>
        <time>2026-05-09T06:01:15.621Z</time>
      </trkpt>
      <trkpt lat="47.84163" lon="6.97924">
        <ele>962</ele>
        <time>2026-05-09T06:01:16.620Z</time>
      </trkpt>
      <trkpt lat="47.84162" lon="6.97922">
        <ele>962</ele>
        <time>2026-05-09T06:01:17.621Z</time>
      </trkpt>
      <trkpt lat="47.84162" lon="6.97921">
        <ele>962</ele>
        <time>2026-05-09T06:01:18.620Z</time>
      </trkpt>
      <trkpt lat="47.84162" lon="6.9792">
        <ele>962</ele>
        <time>2026-05-09T06:01:19.620Z</time>
      </trkpt>
      <trkpt lat="47.84162" lon="6.97919">
        <ele>962</ele>
        <time>2026-05-09T06:01:20.621Z</time>
      </trkpt>
      <trkpt lat="47.84163" lon="6.97918">
        <ele>962</ele>
        <time>2026-05-09T06:01:21.621Z</time>
      </trkpt>
      <trkpt lat="47.84163" lon="6.97917">
        <ele>962</ele>
        <time>2026-05-09T06:01:22.621Z</time>
      </trkpt>
      <trkpt lat="47.84163" lon="6.97917">
        <ele>962</ele>
        <time>2026-05-09T06:01:23.620Z</time>
      </trkpt>
      <trkpt lat="47.84163" lon="6.97915">
        <ele>962</ele>
        <time>2026-05-09T06:01:24.621Z</time>
      </trkpt>
      <trkpt lat="47.84164" lon="6.97914">
        <ele>961</ele>
        <time>2026-05-09T06:01:25.620Z</time>
      </trkpt>
      <trkpt lat="47.84164" lon="6.97912">
        <ele>961</ele>
        <time>2026-05-09T06:01:26.621Z</time>
      </trkpt>
      <trkpt lat="47.84164" lon="6.9791">
        <ele>961</ele>
        <time>2026-05-09T06:01:27.620Z</time>
      </trkpt>
      <trkpt lat="47.84164" lon="6.97909">
        <ele>961</ele>
        <time>2026-05-09T06:01:28.621Z</time>
      </trkpt>
      <trkpt lat="47.84165" lon="6.97908">
        <ele>960</ele>
        <time>2026-05-09T06:01:29.620Z</time>
      </trkpt>
      <trkpt lat="47.84166" lon="6.97907">
        <ele>960</ele>
        <time>2026-05-09T06:01:30.621Z</time>
      </trkpt>
      <trkpt lat="47.84166" lon="6.97905">
        <ele>959</ele>
        <time>2026-05-09T06:01:31.620Z</time>
      </trkpt>
      <trkpt lat="47.84166" lon="6.97904">
        <ele>959</ele>
        <time>2026-05-09T06:01:32.620Z</time>
      </trkpt>
      <trkpt lat="47.84166" lon="6.97902">
        <ele>959</ele>
        <time>2026-05-09T06:01:33.620Z</time>
      </trkpt>
      <trkpt lat="47.84167" lon="6.979">
        <ele>958</ele>
        <time>2026-05-09T06:01:34.620Z</time>
      </trkpt>
      <trkpt lat="47.84167" lon="6.97898">
        <ele>958</ele>
        <time>2026-05-09T06:01:35.621Z</time>
      </trkpt>
      <trkpt lat="47.84168" lon="6.97896">
        <ele>957</ele>
        <time>2026-05-09T06:01:36.620Z</time>
      </trkpt>
      <trkpt lat="47.84168" lon="6.97895">
        <ele>957</ele>
        <time>2026-05-09T06:01:37.621Z</time>
      </trkpt>
      <trkpt lat="47.84168" lon="6.97892">
        <ele>957</ele>
        <time>2026-05-09T06:01:38.620Z</time>
      </trkpt>
      <trkpt lat="47.84168" lon="6.97891">
        <ele>956</ele>
        <time>2026-05-09T06:01:39.621Z</time>
      </trkpt>
      <trkpt lat="47.84168" lon="6.97889">
        <ele>956</ele>
        <time>2026-05-09T06:01:40.620Z</time>
      </trkpt>
      <trkpt lat="47.84169" lon="6.97888">
        <ele>956</ele>
        <time>2026-05-09T06:01:41.620Z</time>
      </trkpt>
      <trkpt lat="47.84169" lon="6.97886">
        <ele>956</ele>
        <time>2026-05-09T06:01:42.620Z</time>
      </trkpt>
      <trkpt lat="47.8417" lon="6.97884">
        <ele>955</ele>
        <time>2026-05-09T06:01:43.620Z</time>
      </trkpt>
      <trkpt lat="47.8417" lon="6.97881">
        <ele>955</ele>
        <time>2026-05-09T06:01:44.620Z</time>
      </trkpt>
      <trkpt lat="47.8417" lon="6.97878">
        <ele>954</ele>
        <time>2026-05-09T06:01:45.621Z</time>
      </trkpt>
      <trkpt lat="47.84171" lon="6.97875">
        <ele>954</ele>
        <time>2026-05-09T06:01:46.620Z</time>
      </trkpt>
      <trkpt lat="47.84171" lon="6.97872">
        <ele>954</ele>
        <time>2026-05-09T06:01:47.620Z</time>
      </trkpt>
      <trkpt lat="47.84172" lon="6.9787">
        <ele>953</ele>
        <time>2026-05-09T06:01:48.620Z</time>
      </trkpt>
      <trkpt lat="47.84172" lon="6.97867">
        <ele>953</ele>
        <time>2026-05-09T06:01:49.620Z</time>
      </trkpt>
      <trkpt lat="47.84172" lon="6.97864">
        <ele>953</ele>
        <time>2026-05-09T06:01:50.620Z</time>
      </trkpt>
      <trkpt lat="47.84172" lon="6.97861">
        <ele>952</ele>
        <time>2026-05-09T06:01:51.620Z</time>
      </trkpt>
      <trkpt lat="47.84173" lon="6.97859">
        <ele>952</ele>
        <time>2026-05-09T06:01:52.620Z</time>
      </trkpt>
      <trkpt lat="47.84174" lon="6.97858">
        <ele>952</ele>
        <time>2026-05-09T06:01:53.621Z</time>
      </trkpt>
      <trkpt lat="47.84175" lon="6.97856">
        <ele>951</ele>
        <time>2026-05-09T06:01:54.621Z</time>
      </trkpt>
      <trkpt lat="47.84175" lon="6.97856">
        <ele>951</ele>
        <time>2026-05-09T06:01:55.620Z</time>
      </trkpt>
      <trkpt lat="47.84175" lon="6.97855">
        <ele>951</ele>
        <time>2026-05-09T06:01:56.621Z</time>
      </trkpt>
      <trkpt lat="47.84176" lon="6.97854">
        <ele>950</ele>
        <time>2026-05-09T06:01:57.620Z</time>
      </trkpt>
      <trkpt lat="47.84178" lon="6.97854">
        <ele>950</ele>
        <time>2026-05-09T06:01:58.621Z</time>
      </trkpt>
      <trkpt lat="47.84178" lon="6.97852">
        <ele>950</ele>
        <time>2026-05-09T06:01:59.621Z</time>
      </trkpt>
      <trkpt lat="47.84179" lon="6.9785">
        <ele>949</ele>
        <time>2026-05-09T06:02:00.620Z</time>
      </trkpt>
      <trkpt lat="47.8418" lon="6.97848">
        <ele>949</ele>
        <time>2026-05-09T06:02:01.621Z</time>
      </trkpt>
      <trkpt lat="47.84181" lon="6.97847">
        <ele>949</ele>
        <time>2026-05-09T06:02:02.621Z</time>
      </trkpt>
      <trkpt lat="47.84181" lon="6.97846">
        <ele>948</ele>
        <time>2026-05-09T06:02:03.620Z</time>
      </trkpt>
      <trkpt lat="47.84181" lon="6.97844">
        <ele>948</ele>
        <time>2026-05-09T06:02:04.621Z</time>
      </trkpt>
      <trkpt lat="47.84181" lon="6.97841">
        <ele>948</ele>
        <time>2026-05-09T06:02:05.621Z</time>
      </trkpt>
      <trkpt lat="47.84181" lon="6.97839">
        <ele>948</ele>
        <time>2026-05-09T06:02:06.620Z</time>
      </trkpt>
      <trkpt lat="47.84182" lon="6.97839">
        <ele>948</ele>
        <time>2026-05-09T06:02:07.621Z</time>
      </trkpt>
      <trkpt lat="47.84182" lon="6.97839">
        <ele>948</ele>
        <time>2026-05-09T06:02:08.621Z</time>
      </trkpt>
      <trkpt lat="47.84182" lon="6.97839">
        <ele>948</ele>
        <time>2026-05-09T06:02:09.620Z</time>
      </trkpt>
      <trkpt lat="47.84183" lon="6.97828">
        <ele>948</ele>
        <time>2026-05-09T06:02:15.987Z</time>
      </trkpt>
      <trkpt lat="47.84183" lon="6.97827">
        <ele>948</ele>
        <time>2026-05-09T06:02:16.987Z</time>
      </trkpt>
      <trkpt lat="47.84183" lon="6.97825">
        <ele>948</ele>
        <time>2026-05-09T06:02:17.988Z</time>
      </trkpt>
      <trkpt lat="47.84184" lon="6.97823">
        <ele>948</ele>
        <time>2026-05-09T06:02:18.987Z</time>
      </trkpt>
      <trkpt lat="47.84184" lon="6.97821">
        <ele>948</ele>
        <time>2026-05-09T06:02:19.987Z</time>
      </trkpt>
      <trkpt lat="47.84184" lon="6.97819">
        <ele>948</ele>
        <time>2026-05-09T06:02:20.988Z</time>
      </trkpt>
      <trkpt lat="47.84184" lon="6.97818">
        <ele>949</ele>
        <time>2026-05-09T06:02:21.987Z</time>
      </trkpt>
      <trkpt lat="47.84184" lon="6.97816">
        <ele>949</ele>
        <time>2026-05-09T06:02:22.987Z</time>
      </trkpt>
      <trkpt lat="47.84184" lon="6.97815">
        <ele>949</ele>
        <time>2026-05-09T06:02:23.988Z</time>
      </trkpt>
      <trkpt lat="47.84185" lon="6.97815">
        <ele>950</ele>
        <time>2026-05-09T06:02:24.987Z</time>
      </trkpt>
      <trkpt lat="47.84185" lon="6.97816">
        <ele>951</ele>
        <time>2026-05-09T06:02:25.987Z</time>
      </trkpt>
      <trkpt lat="47.84182" lon="6.97805">
        <ele>952</ele>
        <time>2026-05-09T06:02:34.227Z</time>
      </trkpt>
      <trkpt lat="47.84182" lon="6.97802">
        <ele>952</ele>
        <time>2026-05-09T06:02:35.227Z</time>
      </trkpt>
      <trkpt lat="47.84182" lon="6.978">
        <ele>953</ele>
        <time>2026-05-09T06:02:36.226Z</time>
      </trkpt>
      <trkpt lat="47.84183" lon="6.97798">
        <ele>953</ele>
        <time>2026-05-09T06:02:37.226Z</time>
      </trkpt>
      <trkpt lat="47.84183" lon="6.97796">
        <ele>953</ele>
        <time>2026-05-09T06:02:38.227Z</time>
      </trkpt>
      <trkpt lat="47.84182" lon="6.97793">
        <ele>953</ele>
        <time>2026-05-09T06:02:39.226Z</time>
      </trkpt>
      <trkpt lat="47.84183" lon="6.9779">
        <ele>953</ele>
        <time>2026-05-09T06:02:40.226Z</time>
      </trkpt>
      <trkpt lat="47.84182" lon="6.97788">
        <ele>953</ele>
        <time>2026-05-09T06:02:41.226Z</time>
      </trkpt>
      <trkpt lat="47.84182" lon="6.97786">
        <ele>953</ele>
        <time>2026-05-09T06:02:42.226Z</time>
      </trkpt>
      <trkpt lat="47.84182" lon="6.97784">
        <ele>953</ele>
        <time>2026-05-09T06:02:43.226Z</time>
      </trkpt>
      <trkpt lat="47.84181" lon="6.97784">
        <ele>953</ele>
        <time>2026-05-09T06:02:44.226Z</time>
      </trkpt>
      <trkpt lat="47.84181" lon="6.97782">
        <ele>953</ele>
        <time>2026-05-09T06:02:45.226Z</time>
      </trkpt>
      <trkpt lat="47.8418" lon="6.9778">
        <ele>953</ele>
        <time>2026-05-09T06:02:46.226Z</time>
      </trkpt>
      <trkpt lat="47.84179" lon="6.97778">
        <ele>953</ele>
        <time>2026-05-09T06:02:47.227Z</time>
      </trkpt>
      <trkpt lat="47.84179" lon="6.97777">
        <ele>953</ele>
        <time>2026-05-09T06:02:48.226Z</time>
      </trkpt>
      <trkpt lat="47.84179" lon="6.97775">
        <ele>952</ele>
        <time>2026-05-09T06:02:49.226Z</time>
      </trkpt>
      <trkpt lat="47.84179" lon="6.97773">
        <ele>952</ele>
        <time>2026-05-09T06:02:50.226Z</time>
      </trkpt>
      <trkpt lat="47.84179" lon="6.97771">
        <ele>952</ele>
        <time>2026-05-09T06:02:51.226Z</time>
      </trkpt>
      <trkpt lat="47.84178" lon="6.9777">
        <ele>952</ele>
        <time>2026-05-09T06:02:52.227Z</time>
      </trkpt>
      <trkpt lat="47.84178" lon="6.97768">
        <ele>951</ele>
        <time>2026-05-09T06:02:53.227Z</time>
      </trkpt>
      <trkpt lat="47.84178" lon="6.97767">
        <ele>951</ele>
        <time>2026-05-09T06:02:54.227Z</time>
      </trkpt>
      <trkpt lat="47.84177" lon="6.97765">
        <ele>951</ele>
        <time>2026-05-09T06:02:55.226Z</time>
      </trkpt>
      <trkpt lat="47.84177" lon="6.97764">
        <ele>951</ele>
        <time>2026-05-09T06:02:56.227Z</time>
      </trkpt>
      <trkpt lat="47.84177" lon="6.97762">
        <ele>951</ele>
        <time>2026-05-09T06:02:57.227Z</time>
      </trkpt>
      <trkpt lat="47.84176" lon="6.97761">
        <ele>951</ele>
        <time>2026-05-09T06:02:58.227Z</time>
      </trkpt>
      <trkpt lat="47.84176" lon="6.97759">
        <ele>951</ele>
        <time>2026-05-09T06:02:59.227Z</time>
      </trkpt>
      <trkpt lat="47.84175" lon="6.97757">
        <ele>952</ele>
        <time>2026-05-09T06:03:00.226Z</time>
      </trkpt>
      <trkpt lat="47.84174" lon="6.97755">
        <ele>952</ele>
        <time>2026-05-09T06:03:01.227Z</time>
      </trkpt>
      <trkpt lat="47.84173" lon="6.97754">
        <ele>953</ele>
        <time>2026-05-09T06:03:02.226Z</time>
      </trkpt>
      <trkpt lat="47.84173" lon="6.97753">
        <ele>953</ele>
        <time>2026-05-09T06:03:03.226Z</time>
      </trkpt>
      <trkpt lat="47.84174" lon="6.97753">
        <ele>953</ele>
        <time>2026-05-09T06:03:04.226Z</time>
      </trkpt>
      <trkpt lat="47.84173" lon="6.97753">
        <ele>954</ele>
        <time>2026-05-09T06:03:05.226Z</time>
      </trkpt>
      <trkpt lat="47.84173" lon="6.97752">
        <ele>954</ele>
        <time>2026-05-09T06:03:06.226Z</time>
      </trkpt>
      <trkpt lat="47.84175" lon="6.97755">
        <ele>953</ele>
        <time>2026-05-09T06:03:30.551Z</time>
      </trkpt>
      <trkpt lat="47.84174" lon="6.97755">
        <ele>953</ele>
        <time>2026-05-09T06:03:31.551Z</time>
      </trkpt>
      <trkpt lat="47.84174" lon="6.97747">
        <ele>954</ele>
        <time>2026-05-09T06:03:41.793Z</time>
      </trkpt>
      <trkpt lat="47.84174" lon="6.97745">
        <ele>954</ele>
        <time>2026-05-09T06:03:42.792Z</time>
      </trkpt>
      <trkpt lat="47.84175" lon="6.97743">
        <ele>954</ele>
        <time>2026-05-09T06:03:43.792Z</time>
      </trkpt>
      <trkpt lat="47.84175" lon="6.97741">
        <ele>954</ele>
        <time>2026-05-09T06:03:44.792Z</time>
      </trkpt>
      <trkpt lat="47.84175" lon="6.97739">
        <ele>953</ele>
        <time>2026-05-09T06:03:45.793Z</time>
      </trkpt>
      <trkpt lat="47.84176" lon="6.97737">
        <ele>953</ele>
        <time>2026-05-09T06:03:46.793Z</time>
      </trkpt>
      <trkpt lat="47.84176" lon="6.97735">
        <ele>952</ele>
        <time>2026-05-09T06:03:47.793Z</time>
      </trkpt>
      <trkpt lat="47.84177" lon="6.97733">
        <ele>951</ele>
        <time>2026-05-09T06:03:48.793Z</time>
      </trkpt>
      <trkpt lat="47.84178" lon="6.97731">
        <ele>950</ele>
        <time>2026-05-09T06:03:49.793Z</time>
      </trkpt>
      <trkpt lat="47.84178" lon="6.97729">
        <ele>949</ele>
        <time>2026-05-09T06:03:50.792Z</time>
      </trkpt>
      <trkpt lat="47.84179" lon="6.97728">
        <ele>949</ele>
        <time>2026-05-09T06:03:51.793Z</time>
      </trkpt>
      <trkpt lat="47.8418" lon="6.97725">
        <ele>948</ele>
        <time>2026-05-09T06:03:52.793Z</time>
      </trkpt>
      <trkpt lat="47.84181" lon="6.97724">
        <ele>948</ele>
        <time>2026-05-09T06:03:53.793Z</time>
      </trkpt>
      <trkpt lat="47.84181" lon="6.97722">
        <ele>948</ele>
        <time>2026-05-09T06:03:54.793Z</time>
      </trkpt>
      <trkpt lat="47.84182" lon="6.9772">
        <ele>947</ele>
        <time>2026-05-09T06:03:55.792Z</time>
      </trkpt>
      <trkpt lat="47.84183" lon="6.97718">
        <ele>947</ele>
        <time>2026-05-09T06:03:56.793Z</time>
      </trkpt>
      <trkpt lat="47.84183" lon="6.97716">
        <ele>946</ele>
        <time>2026-05-09T06:03:57.792Z</time>
      </trkpt>
      <trkpt lat="47.84184" lon="6.97714">
        <ele>946</ele>
        <time>2026-05-09T06:03:58.792Z</time>
      </trkpt>
      <trkpt lat="47.84185" lon="6.97713">
        <ele>945</ele>
        <time>2026-05-09T06:03:59.792Z</time>
      </trkpt>
      <trkpt lat="47.84186" lon="6.97711">
        <ele>944</ele>
        <time>2026-05-09T06:04:00.792Z</time>
      </trkpt>
      <trkpt lat="47.84187" lon="6.97709">
        <ele>944</ele>
        <time>2026-05-09T06:04:01.793Z</time>
      </trkpt>
      <trkpt lat="47.84187" lon="6.97707">
        <ele>943</ele>
        <time>2026-05-09T06:04:02.793Z</time>
      </trkpt>
      <trkpt lat="47.84188" lon="6.97706">
        <ele>943</ele>
        <time>2026-05-09T06:04:03.793Z</time>
      </trkpt>
      <trkpt lat="47.84189" lon="6.97705">
        <ele>943</ele>
        <time>2026-05-09T06:04:04.793Z</time>
      </trkpt>
      <trkpt lat="47.84189" lon="6.97703">
        <ele>942</ele>
        <time>2026-05-09T06:04:05.793Z</time>
      </trkpt>
      <trkpt lat="47.8419" lon="6.97702">
        <ele>942</ele>
        <time>2026-05-09T06:04:06.793Z</time>
      </trkpt>
      <trkpt lat="47.84191" lon="6.97701">
        <ele>942</ele>
        <time>2026-05-09T06:04:07.792Z</time>
      </trkpt>
      <trkpt lat="47.84192" lon="6.97699">
        <ele>942</ele>
        <time>2026-05-09T06:04:08.793Z</time>
      </trkpt>
      <trkpt lat="47.84192" lon="6.97698">
        <ele>941</ele>
        <time>2026-05-09T06:04:09.793Z</time>
      </trkpt>
      <trkpt lat="47.84193" lon="6.97696">
        <ele>941</ele>
        <time>2026-05-09T06:04:10.793Z</time>
      </trkpt>
      <trkpt lat="47.84193" lon="6.97694">
        <ele>941</ele>
        <time>2026-05-09T06:04:11.792Z</time>
      </trkpt>
      <trkpt lat="47.84194" lon="6.97692">
        <ele>941</ele>
        <time>2026-05-09T06:04:12.792Z</time>
      </trkpt>
      <trkpt lat="47.84195" lon="6.9769">
        <ele>941</ele>
        <time>2026-05-09T06:04:13.792Z</time>
      </trkpt>
      <trkpt lat="47.84195" lon="6.97688">
        <ele>941</ele>
        <time>2026-05-09T06:04:14.792Z</time>
      </trkpt>
      <trkpt lat="47.84196" lon="6.97686">
        <ele>941</ele>
        <time>2026-05-09T06:04:15.793Z</time>
      </trkpt>
      <trkpt lat="47.84196" lon="6.97683">
        <ele>941</ele>
        <time>2026-05-09T06:04:16.792Z</time>
      </trkpt>
      <trkpt lat="47.84196" lon="6.97682">
        <ele>941</ele>
        <time>2026-05-09T06:04:17.793Z</time>
      </trkpt>
      <trkpt lat="47.84197" lon="6.97679">
        <ele>941</ele>
        <time>2026-05-09T06:04:18.793Z</time>
      </trkpt>
      <trkpt lat="47.84197" lon="6.97678">
        <ele>942</ele>
        <time>2026-05-09T06:04:19.793Z</time>
      </trkpt>
      <trkpt lat="47.84198" lon="6.97676">
        <ele>942</ele>
        <time>2026-05-09T06:04:20.793Z</time>
      </trkpt>
      <trkpt lat="47.84198" lon="6.97675">
        <ele>942</ele>
        <time>2026-05-09T06:04:21.793Z</time>
      </trkpt>
      <trkpt lat="47.84199" lon="6.97673">
        <ele>942</ele>
        <time>2026-05-09T06:04:22.792Z</time>
      </trkpt>
      <trkpt lat="47.84199" lon="6.97672">
        <ele>942</ele>
        <time>2026-05-09T06:04:23.792Z</time>
      </trkpt>
      <trkpt lat="47.84199" lon="6.97671">
        <ele>942</ele>
        <time>2026-05-09T06:04:24.792Z</time>
      </trkpt>
      <trkpt lat="47.84199" lon="6.9767">
        <ele>942</ele>
        <time>2026-05-09T06:04:25.793Z</time>
      </trkpt>
      <trkpt lat="47.842" lon="6.97668">
        <ele>942</ele>
        <time>2026-05-09T06:04:26.793Z</time>
      </trkpt>
      <trkpt lat="47.842" lon="6.97667">
        <ele>943</ele>
        <time>2026-05-09T06:04:27.793Z</time>
      </trkpt>
      <trkpt lat="47.842" lon="6.97665">
        <ele>943</ele>
        <time>2026-05-09T06:04:28.793Z</time>
      </trkpt>
      <trkpt lat="47.84201" lon="6.97663">
        <ele>943</ele>
        <time>2026-05-09T06:04:29.793Z</time>
      </trkpt>
      <trkpt lat="47.84201" lon="6.9766">
        <ele>943</ele>
        <time>2026-05-09T06:04:30.792Z</time>
      </trkpt>
      <trkpt lat="47.84201" lon="6.97657">
        <ele>944</ele>
        <time>2026-05-09T06:04:31.792Z</time>
      </trkpt>
      <trkpt lat="47.84201" lon="6.97655">
        <ele>944</ele>
        <time>2026-05-09T06:04:32.792Z</time>
      </trkpt>
      <trkpt lat="47.84201" lon="6.97653">
        <ele>944</ele>
        <time>2026-05-09T06:04:33.792Z</time>
      </trkpt>
      <trkpt lat="47.84201" lon="6.97651">
        <ele>945</ele>
        <time>2026-05-09T06:04:34.792Z</time>
      </trkpt>
      <trkpt lat="47.84201" lon="6.97649">
        <ele>945</ele>
        <time>2026-05-09T06:04:35.792Z</time>
      </trkpt>
      <trkpt lat="47.84201" lon="6.97647">
        <ele>946</ele>
        <time>2026-05-09T06:04:36.792Z</time>
      </trkpt>
      <trkpt lat="47.84202" lon="6.97645">
        <ele>946</ele>
        <time>2026-05-09T06:04:37.793Z</time>
      </trkpt>
      <trkpt lat="47.84202" lon="6.97643">
        <ele>947</ele>
        <time>2026-05-09T06:04:38.793Z</time>
      </trkpt>
      <trkpt lat="47.84202" lon="6.9764">
        <ele>947</ele>
        <time>2026-05-09T06:04:39.793Z</time>
      </trkpt>
      <trkpt lat="47.84203" lon="6.97638">
        <ele>948</ele>
        <time>2026-05-09T06:04:40.793Z</time>
      </trkpt>
      <trkpt lat="47.84203" lon="6.97636">
        <ele>948</ele>
        <time>2026-05-09T06:04:41.792Z</time>
      </trkpt>
      <trkpt lat="47.84204" lon="6.97634">
        <ele>949</ele>
        <time>2026-05-09T06:04:42.792Z</time>
      </trkpt>
      <trkpt lat="47.84204" lon="6.97632">
        <ele>949</ele>
        <time>2026-05-09T06:04:43.793Z</time>
      </trkpt>
      <trkpt lat="47.84205" lon="6.97629">
        <ele>949</ele>
        <time>2026-05-09T06:04:44.793Z</time>
      </trkpt>
      <trkpt lat="47.84206" lon="6.97627">
        <ele>949</ele>
        <time>2026-05-09T06:04:45.793Z</time>
      </trkpt>
      <trkpt lat="47.84206" lon="6.97624">
        <ele>949</ele>
        <time>2026-05-09T06:04:46.792Z</time>
      </trkpt>
      <trkpt lat="47.84206" lon="6.97622">
        <ele>949</ele>
        <time>2026-05-09T06:04:47.792Z</time>
      </trkpt>
      <trkpt lat="47.84207" lon="6.9762">
        <ele>949</ele>
        <time>2026-05-09T06:04:48.793Z</time>
      </trkpt>
      <trkpt lat="47.84207" lon="6.97619">
        <ele>949</ele>
        <time>2026-05-09T06:04:49.793Z</time>
      </trkpt>
      <trkpt lat="47.84208" lon="6.97617">
        <ele>949</ele>
        <time>2026-05-09T06:04:50.793Z</time>
      </trkpt>
      <trkpt lat="47.84207" lon="6.97615">
        <ele>949</ele>
        <time>2026-05-09T06:04:51.793Z</time>
      </trkpt>
      <trkpt lat="47.84207" lon="6.97612">
        <ele>948</ele>
        <time>2026-05-09T06:04:52.793Z</time>
      </trkpt>
      <trkpt lat="47.84207" lon="6.97611">
        <ele>948</ele>
        <time>2026-05-09T06:04:53.792Z</time>
      </trkpt>
      <trkpt lat="47.84207" lon="6.97609">
        <ele>949</ele>
        <time>2026-05-09T06:04:54.793Z</time>
      </trkpt>
      <trkpt lat="47.84207" lon="6.97608">
        <ele>949</ele>
        <time>2026-05-09T06:04:55.793Z</time>
      </trkpt>
      <trkpt lat="47.84207" lon="6.97607">
        <ele>949</ele>
        <time>2026-05-09T06:04:56.792Z</time>
      </trkpt>
      <trkpt lat="47.84207" lon="6.97605">
        <ele>948</ele>
        <time>2026-05-09T06:04:57.793Z</time>
      </trkpt>
      <trkpt lat="47.84207" lon="6.97604">
        <ele>948</ele>
        <time>2026-05-09T06:04:58.793Z</time>
      </trkpt>
      <trkpt lat="47.84206" lon="6.97602">
        <ele>948</ele>
        <time>2026-05-09T06:04:59.792Z</time>
      </trkpt>
      <trkpt lat="47.84206" lon="6.976">
        <ele>949</ele>
        <time>2026-05-09T06:05:00.793Z</time>
      </trkpt>
      <trkpt lat="47.84205" lon="6.97598">
        <ele>949</ele>
        <time>2026-05-09T06:05:01.792Z</time>
      </trkpt>
      <trkpt lat="47.84205" lon="6.97596">
        <ele>950</ele>
        <time>2026-05-09T06:05:02.792Z</time>
      </trkpt>
      <trkpt lat="47.84205" lon="6.97593">
        <ele>950</ele>
        <time>2026-05-09T06:05:03.793Z</time>
      </trkpt>
      <trkpt lat="47.84205" lon="6.9759">
        <ele>950</ele>
        <time>2026-05-09T06:05:04.792Z</time>
      </trkpt>
      <trkpt lat="47.84204" lon="6.97588">
        <ele>950</ele>
        <time>2026-05-09T06:05:05.792Z</time>
      </trkpt>
      <trkpt lat="47.84203" lon="6.97585">
        <ele>951</ele>
        <time>2026-05-09T06:05:06.793Z</time>
      </trkpt>
      <trkpt lat="47.84203" lon="6.97583">
        <ele>951</ele>
        <time>2026-05-09T06:05:07.793Z</time>
      </trkpt>
      <trkpt lat="47.84201" lon="6.97581">
        <ele>952</ele>
        <time>2026-05-09T06:05:08.792Z</time>
      </trkpt>
      <trkpt lat="47.842" lon="6.9758">
        <ele>953</ele>
        <time>2026-05-09T06:05:09.792Z</time>
      </trkpt>
      <trkpt lat="47.842" lon="6.97579">
        <ele>953</ele>
        <time>2026-05-09T06:05:10.793Z</time>
      </trkpt>
      <trkpt lat="47.84199" lon="6.97578">
        <ele>954</ele>
        <time>2026-05-09T06:05:11.792Z</time>
      </trkpt>
      <trkpt lat="47.84198" lon="6.97577">
        <ele>955</ele>
        <time>2026-05-09T06:05:12.792Z</time>
      </trkpt>
      <trkpt lat="47.84198" lon="6.97576">
        <ele>955</ele>
        <time>2026-05-09T06:05:13.792Z</time>
      </trkpt>
      <trkpt lat="47.84198" lon="6.97574">
        <ele>955</ele>
        <time>2026-05-09T06:05:14.792Z</time>
      </trkpt>
      <trkpt lat="47.84197" lon="6.97573">
        <ele>955</ele>
        <time>2026-05-09T06:05:15.792Z</time>
      </trkpt>
      <trkpt lat="47.84197" lon="6.97571">
        <ele>955</ele>
        <time>2026-05-09T06:05:16.793Z</time>
      </trkpt>
      <trkpt lat="47.84197" lon="6.9757">
        <ele>955</ele>
        <time>2026-05-09T06:05:17.793Z</time>
      </trkpt>
      <trkpt lat="47.84196" lon="6.97568">
        <ele>955</ele>
        <time>2026-05-09T06:05:18.792Z</time>
      </trkpt>
      <trkpt lat="47.84196" lon="6.97568">
        <ele>954</ele>
        <time>2026-05-09T06:05:19.793Z</time>
      </trkpt>
      <trkpt lat="47.84196" lon="6.97566">
        <ele>954</ele>
        <time>2026-05-09T06:05:20.792Z</time>
      </trkpt>
      <trkpt lat="47.84195" lon="6.97564">
        <ele>953</ele>
        <time>2026-05-09T06:05:21.792Z</time>
      </trkpt>
      <trkpt lat="47.84195" lon="6.97562">
        <ele>953</ele>
        <time>2026-05-09T06:05:22.793Z</time>
      </trkpt>
      <trkpt lat="47.84195" lon="6.9756">
        <ele>953</ele>
        <time>2026-05-09T06:05:23.793Z</time>
      </trkpt>
      <trkpt lat="47.84195" lon="6.97558">
        <ele>953</ele>
        <time>2026-05-09T06:05:24.792Z</time>
      </trkpt>
      <trkpt lat="47.84195" lon="6.97555">
        <ele>953</ele>
        <time>2026-05-09T06:05:25.793Z</time>
      </trkpt>
      <trkpt lat="47.84194" lon="6.97553">
        <ele>953</ele>
        <time>2026-05-09T06:05:26.793Z</time>
      </trkpt>
      <trkpt lat="47.84193" lon="6.97551">
        <ele>952</ele>
        <time>2026-05-09T06:05:27.792Z</time>
      </trkpt>
      <trkpt lat="47.84193" lon="6.97549">
        <ele>952</ele>
        <time>2026-05-09T06:05:28.793Z</time>
      </trkpt>
      <trkpt lat="47.84192" lon="6.97547">
        <ele>953</ele>
        <time>2026-05-09T06:05:29.793Z</time>
      </trkpt>
      <trkpt lat="47.84191" lon="6.97545">
        <ele>953</ele>
        <time>2026-05-09T06:05:30.793Z</time>
      </trkpt>
      <trkpt lat="47.8419" lon="6.97543">
        <ele>953</ele>
        <time>2026-05-09T06:05:31.792Z</time>
      </trkpt>
      <trkpt lat="47.8419" lon="6.97541">
        <ele>953</ele>
        <time>2026-05-09T06:05:32.792Z</time>
      </trkpt>
      <trkpt lat="47.8419" lon="6.9754">
        <ele>953</ele>
        <time>2026-05-09T06:05:33.792Z</time>
      </trkpt>
      <trkpt lat="47.84189" lon="6.97538">
        <ele>954</ele>
        <time>2026-05-09T06:05:34.793Z</time>
      </trkpt>
      <trkpt lat="47.84187" lon="6.97536">
        <ele>954</ele>
        <time>2026-05-09T06:05:35.792Z</time>
      </trkpt>
      <trkpt lat="47.84186" lon="6.97534">
        <ele>954</ele>
        <time>2026-05-09T06:05:36.793Z</time>
      </trkpt>
      <trkpt lat="47.84186" lon="6.97533">
        <ele>954</ele>
        <time>2026-05-09T06:05:37.793Z</time>
      </trkpt>
      <trkpt lat="47.84185" lon="6.9753">
        <ele>954</ele>
        <time>2026-05-09T06:05:38.793Z</time>
      </trkpt>
      <trkpt lat="47.84185" lon="6.97528">
        <ele>954</ele>
        <time>2026-05-09T06:05:39.792Z</time>
      </trkpt>
      <trkpt lat="47.84184" lon="6.97525">
        <ele>954</ele>
        <time>2026-05-09T06:05:40.793Z</time>
      </trkpt>
      <trkpt lat="47.84184" lon="6.97523">
        <ele>955</ele>
        <time>2026-05-09T06:05:41.792Z</time>
      </trkpt>
      <trkpt lat="47.84183" lon="6.97521">
        <ele>955</ele>
        <time>2026-05-09T06:05:42.792Z</time>
      </trkpt>
      <trkpt lat="47.84183" lon="6.97519">
        <ele>955</ele>
        <time>2026-05-09T06:05:43.793Z</time>
      </trkpt>
      <trkpt lat="47.84182" lon="6.97517">
        <ele>956</ele>
        <time>2026-05-09T06:05:44.793Z</time>
      </trkpt>
      <trkpt lat="47.84181" lon="6.97516">
        <ele>956</ele>
        <time>2026-05-09T06:05:45.793Z</time>
      </trkpt>
      <trkpt lat="47.8418" lon="6.97514">
        <ele>956</ele>
        <time>2026-05-09T06:05:46.793Z</time>
      </trkpt>
      <trkpt lat="47.84179" lon="6.97512">
        <ele>956</ele>
        <time>2026-05-09T06:05:47.792Z</time>
      </trkpt>
      <trkpt lat="47.84179" lon="6.9751">
        <ele>956</ele>
        <time>2026-05-09T06:05:48.792Z</time>
      </trkpt>
      <trkpt lat="47.84178" lon="6.97508">
        <ele>957</ele>
        <time>2026-05-09T06:05:49.792Z</time>
      </trkpt>
      <trkpt lat="47.84178" lon="6.97508">
        <ele>957</ele>
        <time>2026-05-09T06:05:50.793Z</time>
      </trkpt>
      <trkpt lat="47.84178" lon="6.97507">
        <ele>957</ele>
        <time>2026-05-09T06:05:51.792Z</time>
      </trkpt>
      <trkpt lat="47.84178" lon="6.97506">
        <ele>957</ele>
        <time>2026-05-09T06:05:52.792Z</time>
      </trkpt>
      <trkpt lat="47.84177" lon="6.97505">
        <ele>958</ele>
        <time>2026-05-09T06:05:53.793Z</time>
      </trkpt>
      <trkpt lat="47.84177" lon="6.97505">
        <ele>958</ele>
        <time>2026-05-09T06:05:54.792Z</time>
      </trkpt>
      <trkpt lat="47.84177" lon="6.97504">
        <ele>958</ele>
        <time>2026-05-09T06:05:55.793Z</time>
      </trkpt>
      <trkpt lat="47.84176" lon="6.97501">
        <ele>959</ele>
        <time>2026-05-09T06:05:56.792Z</time>
      </trkpt>
      <trkpt lat="47.84175" lon="6.97499">
        <ele>959</ele>
        <time>2026-05-09T06:05:57.793Z</time>
      </trkpt>
      <trkpt lat="47.84174" lon="6.97497">
        <ele>959</ele>
        <time>2026-05-09T06:05:58.792Z</time>
      </trkpt>
      <trkpt lat="47.84175" lon="6.97496">
        <ele>959</ele>
        <time>2026-05-09T06:05:59.793Z</time>
      </trkpt>
      <trkpt lat="47.84175" lon="6.97494">
        <ele>959</ele>
        <time>2026-05-09T06:06:00.792Z</time>
      </trkpt>
      <trkpt lat="47.84175" lon="6.97493">
        <ele>959</ele>
        <time>2026-05-09T06:06:01.793Z</time>
      </trkpt>
      <trkpt lat="47.84175" lon="6.97493">
        <ele>959</ele>
        <time>2026-05-09T06:06:02.793Z</time>
      </trkpt>
      <trkpt lat="47.84174" lon="6.97492">
        <ele>959</ele>
        <time>2026-05-09T06:06:03.792Z</time>
      </trkpt>
      <trkpt lat="47.84174" lon="6.9749">
        <ele>959</ele>
        <time>2026-05-09T06:06:04.792Z</time>
      </trkpt>
      <trkpt lat="47.84173" lon="6.97488">
        <ele>959</ele>
        <time>2026-05-09T06:06:05.793Z</time>
      </trkpt>
      <trkpt lat="47.84172" lon="6.97486">
        <ele>959</ele>
        <time>2026-05-09T06:06:06.793Z</time>
      </trkpt>
      <trkpt lat="47.84171" lon="6.97485">
        <ele>958</ele>
        <time>2026-05-09T06:06:07.792Z</time>
      </trkpt>
      <trkpt lat="47.84171" lon="6.97483">
        <ele>958</ele>
        <time>2026-05-09T06:06:08.793Z</time>
      </trkpt>
      <trkpt lat="47.84171" lon="6.97481">
        <ele>958</ele>
        <time>2026-05-09T06:06:09.792Z</time>
      </trkpt>
      <trkpt lat="47.8417" lon="6.97479">
        <ele>958</ele>
        <time>2026-05-09T06:06:10.793Z</time>
      </trkpt>
      <trkpt lat="47.8417" lon="6.97477">
        <ele>958</ele>
        <time>2026-05-09T06:06:11.793Z</time>
      </trkpt>
      <trkpt lat="47.84169" lon="6.97475">
        <ele>958</ele>
        <time>2026-05-09T06:06:12.793Z</time>
      </trkpt>
      <trkpt lat="47.8417" lon="6.97474">
        <ele>957</ele>
        <time>2026-05-09T06:06:13.792Z</time>
      </trkpt>
      <trkpt lat="47.84169" lon="6.97473">
        <ele>957</ele>
        <time>2026-05-09T06:06:14.793Z</time>
      </trkpt>
      <trkpt lat="47.84168" lon="6.97472">
        <ele>957</ele>
        <time>2026-05-09T06:06:15.792Z</time>
      </trkpt>
      <trkpt lat="47.84167" lon="6.9747">
        <ele>957</ele>
        <time>2026-05-09T06:06:16.793Z</time>
      </trkpt>
      <trkpt lat="47.84167" lon="6.97468">
        <ele>957</ele>
        <time>2026-05-09T06:06:17.792Z</time>
      </trkpt>
      <trkpt lat="47.84167" lon="6.97467">
        <ele>957</ele>
        <time>2026-05-09T06:06:18.793Z</time>
      </trkpt>
      <trkpt lat="47.84166" lon="6.97465">
        <ele>957</ele>
        <time>2026-05-09T06:06:19.792Z</time>
      </trkpt>
      <trkpt lat="47.84166" lon="6.97464">
        <ele>957</ele>
        <time>2026-05-09T06:06:20.793Z</time>
      </trkpt>
      <trkpt lat="47.84165" lon="6.97462">
        <ele>957</ele>
        <time>2026-05-09T06:06:21.793Z</time>
      </trkpt>
      <trkpt lat="47.84164" lon="6.9746">
        <ele>957</ele>
        <time>2026-05-09T06:06:22.792Z</time>
      </trkpt>
      <trkpt lat="47.84164" lon="6.97458">
        <ele>957</ele>
        <time>2026-05-09T06:06:23.792Z</time>
      </trkpt>
      <trkpt lat="47.84164" lon="6.97456">
        <ele>957</ele>
        <time>2026-05-09T06:06:24.793Z</time>
      </trkpt>
      <trkpt lat="47.84165" lon="6.97455">
        <ele>957</ele>
        <time>2026-05-09T06:06:25.793Z</time>
      </trkpt>
      <trkpt lat="47.84165" lon="6.97453">
        <ele>957</ele>
        <time>2026-05-09T06:06:26.792Z</time>
      </trkpt>
      <trkpt lat="47.84165" lon="6.97451">
        <ele>957</ele>
        <time>2026-05-09T06:06:27.793Z</time>
      </trkpt>
      <trkpt lat="47.84164" lon="6.97449">
        <ele>957</ele>
        <time>2026-05-09T06:06:28.792Z</time>
      </trkpt>
      <trkpt lat="47.84163" lon="6.97447">
        <ele>957</ele>
        <time>2026-05-09T06:06:29.793Z</time>
      </trkpt>
      <trkpt lat="47.84162" lon="6.97445">
        <ele>957</ele>
        <time>2026-05-09T06:06:30.792Z</time>
      </trkpt>
      <trkpt lat="47.84161" lon="6.97443">
        <ele>957</ele>
        <time>2026-05-09T06:06:31.793Z</time>
      </trkpt>
      <trkpt lat="47.84161" lon="6.97442">
        <ele>957</ele>
        <time>2026-05-09T06:06:32.792Z</time>
      </trkpt>
      <trkpt lat="47.8416" lon="6.9744">
        <ele>958</ele>
        <time>2026-05-09T06:06:33.793Z</time>
      </trkpt>
      <trkpt lat="47.84159" lon="6.97439">
        <ele>958</ele>
        <time>2026-05-09T06:06:34.792Z</time>
      </trkpt>
      <trkpt lat="47.84158" lon="6.97438">
        <ele>958</ele>
        <time>2026-05-09T06:06:35.793Z</time>
      </trkpt>
      <trkpt lat="47.84158" lon="6.97437">
        <ele>958</ele>
        <time>2026-05-09T06:06:36.792Z</time>
      </trkpt>
      <trkpt lat="47.84157" lon="6.97435">
        <ele>958</ele>
        <time>2026-05-09T06:06:37.793Z</time>
      </trkpt>
      <trkpt lat="47.84157" lon="6.97435">
        <ele>958</ele>
        <time>2026-05-09T06:06:38.793Z</time>
      </trkpt>
      <trkpt lat="47.84157" lon="6.97434">
        <ele>958</ele>
        <time>2026-05-09T06:06:39.793Z</time>
      </trkpt>
      <trkpt lat="47.84157" lon="6.97433">
        <ele>958</ele>
        <time>2026-05-09T06:06:40.793Z</time>
      </trkpt>
      <trkpt lat="47.84157" lon="6.97432">
        <ele>958</ele>
        <time>2026-05-09T06:06:41.792Z</time>
      </trkpt>
      <trkpt lat="47.84157" lon="6.97431">
        <ele>958</ele>
        <time>2026-05-09T06:06:42.793Z</time>
      </trkpt>
      <trkpt lat="47.84156" lon="6.97429">
        <ele>958</ele>
        <time>2026-05-09T06:06:43.792Z</time>
      </trkpt>
      <trkpt lat="47.84156" lon="6.97427">
        <ele>958</ele>
        <time>2026-05-09T06:06:44.793Z</time>
      </trkpt>
      <trkpt lat="47.84157" lon="6.97426">
        <ele>958</ele>
        <time>2026-05-09T06:06:45.792Z</time>
      </trkpt>
      <trkpt lat="47.84156" lon="6.97424">
        <ele>958</ele>
        <time>2026-05-09T06:06:46.792Z</time>
      </trkpt>
      <trkpt lat="47.84156" lon="6.97422">
        <ele>958</ele>
        <time>2026-05-09T06:06:47.792Z</time>
      </trkpt>
      <trkpt lat="47.84155" lon="6.97418">
        <ele>958</ele>
        <time>2026-05-09T06:06:48.793Z</time>
      </trkpt>
      <trkpt lat="47.84154" lon="6.97415">
        <ele>958</ele>
        <time>2026-05-09T06:06:49.792Z</time>
      </trkpt>
      <trkpt lat="47.84154" lon="6.97413">
        <ele>958</ele>
        <time>2026-05-09T06:06:50.793Z</time>
      </trkpt>
      <trkpt lat="47.84154" lon="6.97412">
        <ele>958</ele>
        <time>2026-05-09T06:06:51.792Z</time>
      </trkpt>
      <trkpt lat="47.84154" lon="6.97411">
        <ele>958</ele>
        <time>2026-05-09T06:06:52.793Z</time>
      </trkpt>
      <trkpt lat="47.84154" lon="6.97409">
        <ele>958</ele>
        <time>2026-05-09T06:06:53.792Z</time>
      </trkpt>
      <trkpt lat="47.84154" lon="6.97407">
        <ele>958</ele>
        <time>2026-05-09T06:06:54.793Z</time>
      </trkpt>
      <trkpt lat="47.84154" lon="6.97404">
        <ele>958</ele>
        <time>2026-05-09T06:06:55.793Z</time>
      </trkpt>
      <trkpt lat="47.84154" lon="6.97402">
        <ele>957</ele>
        <time>2026-05-09T06:06:56.792Z</time>
      </trkpt>
      <trkpt lat="47.84154" lon="6.97401">
        <ele>957</ele>
        <time>2026-05-09T06:06:57.792Z</time>
      </trkpt>
      <trkpt lat="47.84153" lon="6.97398">
        <ele>957</ele>
        <time>2026-05-09T06:06:58.792Z</time>
      </trkpt>
      <trkpt lat="47.84153" lon="6.97397">
        <ele>957</ele>
        <time>2026-05-09T06:06:59.793Z</time>
      </trkpt>
      <trkpt lat="47.84154" lon="6.97395">
        <ele>958</ele>
        <time>2026-05-09T06:07:00.792Z</time>
      </trkpt>
      <trkpt lat="47.84155" lon="6.97394">
        <ele>958</ele>
        <time>2026-05-09T06:07:01.792Z</time>
      </trkpt>
      <trkpt lat="47.84154" lon="6.97392">
        <ele>958</ele>
        <time>2026-05-09T06:07:02.792Z</time>
      </trkpt>
      <trkpt lat="47.84154" lon="6.97391">
        <ele>959</ele>
        <time>2026-05-09T06:07:03.793Z</time>
      </trkpt>
      <trkpt lat="47.84154" lon="6.9739">
        <ele>959</ele>
        <time>2026-05-09T06:07:04.792Z</time>
      </trkpt>
      <trkpt lat="47.84153" lon="6.97388">
        <ele>959</ele>
        <time>2026-05-09T06:07:05.793Z</time>
      </trkpt>
      <trkpt lat="47.84152" lon="6.97387">
        <ele>959</ele>
        <time>2026-05-09T06:07:06.792Z</time>
      </trkpt>
      <trkpt lat="47.84152" lon="6.97386">
        <ele>959</ele>
        <time>2026-05-09T06:07:07.793Z</time>
      </trkpt>
      <trkpt lat="47.84151" lon="6.97385">
        <ele>959</ele>
        <time>2026-05-09T06:07:08.792Z</time>
      </trkpt>
      <trkpt lat="47.8415" lon="6.97383">
        <ele>959</ele>
        <time>2026-05-09T06:07:09.793Z</time>
      </trkpt>
      <trkpt lat="47.84149" lon="6.97382">
        <ele>959</ele>
        <time>2026-05-09T06:07:10.793Z</time>
      </trkpt>
      <trkpt lat="47.84148" lon="6.9738">
        <ele>959</ele>
        <time>2026-05-09T06:07:11.792Z</time>
      </trkpt>
      <trkpt lat="47.84148" lon="6.97378">
        <ele>959</ele>
        <time>2026-05-09T06:07:12.793Z</time>
      </trkpt>
      <trkpt lat="47.84147" lon="6.97375">
        <ele>959</ele>
        <time>2026-05-09T06:07:13.792Z</time>
      </trkpt>
      <trkpt lat="47.84147" lon="6.97373">
        <ele>959</ele>
        <time>2026-05-09T06:07:14.793Z</time>
      </trkpt>
      <trkpt lat="47.84146" lon="6.97371">
        <ele>960</ele>
        <time>2026-05-09T06:07:15.792Z</time>
      </trkpt>
      <trkpt lat="47.84146" lon="6.97368">
        <ele>960</ele>
        <time>2026-05-09T06:07:16.793Z</time>
      </trkpt>
      <trkpt lat="47.84146" lon="6.97366">
        <ele>960</ele>
        <time>2026-05-09T06:07:17.792Z</time>
      </trkpt>
      <trkpt lat="47.84145" lon="6.97363">
        <ele>960</ele>
        <time>2026-05-09T06:07:18.793Z</time>
      </trkpt>
      <trkpt lat="47.84145" lon="6.97361">
        <ele>961</ele>
        <time>2026-05-09T06:07:19.792Z</time>
      </trkpt>
      <trkpt lat="47.84145" lon="6.97358">
        <ele>961</ele>
        <time>2026-05-09T06:07:20.793Z</time>
      </trkpt>
      <trkpt lat="47.84145" lon="6.97356">
        <ele>961</ele>
        <time>2026-05-09T06:07:21.792Z</time>
      </trkpt>
      <trkpt lat="47.84145" lon="6.97354">
        <ele>961</ele>
        <time>2026-05-09T06:07:22.793Z</time>
      </trkpt>
      <trkpt lat="47.84145" lon="6.97352">
        <ele>961</ele>
        <time>2026-05-09T06:07:23.793Z</time>
      </trkpt>
      <trkpt lat="47.84145" lon="6.97349">
        <ele>961</ele>
        <time>2026-05-09T06:07:24.793Z</time>
      </trkpt>
      <trkpt lat="47.84146" lon="6.97346">
        <ele>960</ele>
        <time>2026-05-09T06:07:25.792Z</time>
      </trkpt>
      <trkpt lat="47.84146" lon="6.97344">
        <ele>960</ele>
        <time>2026-05-09T06:07:26.792Z</time>
      </trkpt>
      <trkpt lat="47.84147" lon="6.97341">
        <ele>960</ele>
        <time>2026-05-09T06:07:27.793Z</time>
      </trkpt>
      <trkpt lat="47.84147" lon="6.97339">
        <ele>959</ele>
        <time>2026-05-09T06:07:28.793Z</time>
      </trkpt>
      <trkpt lat="47.84147" lon="6.97338">
        <ele>959</ele>
        <time>2026-05-09T06:07:29.793Z</time>
      </trkpt>
      <trkpt lat="47.84146" lon="6.97337">
        <ele>959</ele>
        <time>2026-05-09T06:07:30.792Z</time>
      </trkpt>
      <trkpt lat="47.84146" lon="6.97336">
        <ele>959</ele>
        <time>2026-05-09T06:07:31.792Z</time>
      </trkpt>
      <trkpt lat="47.84146" lon="6.97334">
        <ele>959</ele>
        <time>2026-05-09T06:07:32.792Z</time>
      </trkpt>
      <trkpt lat="47.84146" lon="6.97332">
        <ele>958</ele>
        <time>2026-05-09T06:07:33.793Z</time>
      </trkpt>
      <trkpt lat="47.84146" lon="6.97329">
        <ele>958</ele>
        <time>2026-05-09T06:07:34.792Z</time>
      </trkpt>
      <trkpt lat="47.84146" lon="6.97324">
        <ele>958</ele>
        <time>2026-05-09T06:07:35.793Z</time>
      </trkpt>
      <trkpt lat="47.84147" lon="6.97319">
        <ele>958</ele>
        <time>2026-05-09T06:07:36.793Z</time>
      </trkpt>
      <trkpt lat="47.84146" lon="6.97313">
        <ele>958</ele>
        <time>2026-05-09T06:07:37.792Z</time>
      </trkpt>
      <trkpt lat="47.84144" lon="6.97306">
        <ele>958</ele>
        <time>2026-05-09T06:07:38.793Z</time>
      </trkpt>
      <trkpt lat="47.84143" lon="6.973">
        <ele>958</ele>
        <time>2026-05-09T06:07:39.793Z</time>
      </trkpt>
      <trkpt lat="47.84143" lon="6.97298">
        <ele>957</ele>
        <time>2026-05-09T06:07:40.793Z</time>
      </trkpt>
      <trkpt lat="47.84144" lon="6.97296">
        <ele>957</ele>
        <time>2026-05-09T06:07:41.792Z</time>
      </trkpt>
      <trkpt lat="47.84145" lon="6.97293">
        <ele>957</ele>
        <time>2026-05-09T06:07:42.792Z</time>
      </trkpt>
      <trkpt lat="47.84146" lon="6.97289">
        <ele>957</ele>
        <time>2026-05-09T06:07:43.792Z</time>
      </trkpt>
      <trkpt lat="47.84148" lon="6.97287">
        <ele>957</ele>
        <time>2026-05-09T06:07:44.793Z</time>
      </trkpt>
      <trkpt lat="47.84148" lon="6.97285">
        <ele>956</ele>
        <time>2026-05-09T06:07:45.793Z</time>
      </trkpt>
      <trkpt lat="47.84148" lon="6.97282">
        <ele>956</ele>
        <time>2026-05-09T06:07:46.792Z</time>
      </trkpt>
      <trkpt lat="47.84149" lon="6.9728">
        <ele>956</ele>
        <time>2026-05-09T06:07:47.792Z</time>
      </trkpt>
      <trkpt lat="47.8415" lon="6.97279">
        <ele>956</ele>
        <time>2026-05-09T06:07:48.793Z</time>
      </trkpt>
      <trkpt lat="47.84151" lon="6.97277">
        <ele>956</ele>
        <time>2026-05-09T06:07:49.793Z</time>
      </trkpt>
      <trkpt lat="47.84152" lon="6.97277">
        <ele>956</ele>
        <time>2026-05-09T06:07:50.792Z</time>
      </trkpt>
      <trkpt lat="47.84152" lon="6.97276">
        <ele>956</ele>
        <time>2026-05-09T06:07:51.793Z</time>
      </trkpt>
      <trkpt lat="47.84152" lon="6.97275">
        <ele>956</ele>
        <time>2026-05-09T06:07:52.793Z</time>
      </trkpt>
      <trkpt lat="47.84153" lon="6.97275">
        <ele>956</ele>
        <time>2026-05-09T06:07:53.792Z</time>
      </trkpt>
      <trkpt lat="47.84155" lon="6.97274">
        <ele>956</ele>
        <time>2026-05-09T06:07:54.793Z</time>
      </trkpt>
      <trkpt lat="47.84153" lon="6.97274">
        <ele>956</ele>
        <time>2026-05-09T06:07:55.793Z</time>
      </trkpt>
      <trkpt lat="47.84152" lon="6.97272">
        <ele>956</ele>
        <time>2026-05-09T06:07:56.792Z</time>
      </trkpt>
      <trkpt lat="47.84151" lon="6.9727">
        <ele>956</ele>
        <time>2026-05-09T06:07:57.793Z</time>
      </trkpt>
      <trkpt lat="47.84149" lon="6.97265">
        <ele>956</ele>
        <time>2026-05-09T06:07:58.793Z</time>
      </trkpt>
      <trkpt lat="47.84148" lon="6.97264">
        <ele>956</ele>
        <time>2026-05-09T06:07:59.792Z</time>
      </trkpt>
      <trkpt lat="47.84152" lon="6.97262">
        <ele>955</ele>
        <time>2026-05-09T06:08:00.792Z</time>
      </trkpt>
      <trkpt lat="47.84152" lon="6.97259">
        <ele>955</ele>
        <time>2026-05-09T06:08:01.792Z</time>
      </trkpt>
      <trkpt lat="47.84151" lon="6.97255">
        <ele>955</ele>
        <time>2026-05-09T06:08:02.793Z</time>
      </trkpt>
      <trkpt lat="47.84153" lon="6.97257">
        <ele>955</ele>
        <time>2026-05-09T06:08:03.792Z</time>
      </trkpt>
      <trkpt lat="47.84154" lon="6.97256">
        <ele>955</ele>
        <time>2026-05-09T06:08:04.792Z</time>
      </trkpt>
      <trkpt lat="47.84155" lon="6.97255">
        <ele>955</ele>
        <time>2026-05-09T06:08:05.792Z</time>
      </trkpt>
      <trkpt lat="47.84154" lon="6.97253">
        <ele>955</ele>
        <time>2026-05-09T06:08:06.793Z</time>
      </trkpt>
      <trkpt lat="47.84154" lon="6.97252">
        <ele>955</ele>
        <time>2026-05-09T06:08:07.793Z</time>
      </trkpt>
      <trkpt lat="47.84154" lon="6.9725">
        <ele>955</ele>
        <time>2026-05-09T06:08:08.792Z</time>
      </trkpt>
      <trkpt lat="47.84153" lon="6.97248">
        <ele>955</ele>
        <time>2026-05-09T06:08:09.792Z</time>
      </trkpt>
      <trkpt lat="47.84153" lon="6.97246">
        <ele>955</ele>
        <time>2026-05-09T06:08:10.792Z</time>
      </trkpt>
      <trkpt lat="47.84154" lon="6.97245">
        <ele>955</ele>
        <time>2026-05-09T06:08:11.792Z</time>
      </trkpt>
      <trkpt lat="47.84154" lon="6.97243">
        <ele>954</ele>
        <time>2026-05-09T06:08:12.793Z</time>
      </trkpt>
      <trkpt lat="47.84154" lon="6.97242">
        <ele>954</ele>
        <time>2026-05-09T06:08:13.792Z</time>
      </trkpt>
      <trkpt lat="47.84154" lon="6.9724">
        <ele>954</ele>
        <time>2026-05-09T06:08:14.793Z</time>
      </trkpt>
      <trkpt lat="47.84154" lon="6.97238">
        <ele>954</ele>
        <time>2026-05-09T06:08:15.793Z</time>
      </trkpt>
      <trkpt lat="47.84154" lon="6.97236">
        <ele>953</ele>
        <time>2026-05-09T06:08:16.793Z</time>
      </trkpt>
      <trkpt lat="47.84154" lon="6.97235">
        <ele>953</ele>
        <time>2026-05-09T06:08:17.792Z</time>
      </trkpt>
      <trkpt lat="47.84154" lon="6.97234">
        <ele>953</ele>
        <time>2026-05-09T06:08:18.792Z</time>
      </trkpt>
      <trkpt lat="47.84155" lon="6.97233">
        <ele>952</ele>
        <time>2026-05-09T06:08:19.793Z</time>
      </trkpt>
      <trkpt lat="47.84155" lon="6.97231">
        <ele>952</ele>
        <time>2026-05-09T06:08:20.793Z</time>
      </trkpt>
      <trkpt lat="47.84155" lon="6.9723">
        <ele>951</ele>
        <time>2026-05-09T06:08:21.793Z</time>
      </trkpt>
      <trkpt lat="47.84155" lon="6.97228">
        <ele>951</ele>
        <time>2026-05-09T06:08:22.792Z</time>
      </trkpt>
      <trkpt lat="47.84155" lon="6.97226">
        <ele>950</ele>
        <time>2026-05-09T06:08:23.793Z</time>
      </trkpt>
      <trkpt lat="47.84156" lon="6.97224">
        <ele>950</ele>
        <time>2026-05-09T06:08:24.792Z</time>
      </trkpt>
      <trkpt lat="47.84158" lon="6.97224">
        <ele>949</ele>
        <time>2026-05-09T06:08:25.793Z</time>
      </trkpt>
      <trkpt lat="47.84159" lon="6.97223">
        <ele>949</ele>
        <time>2026-05-09T06:08:26.792Z</time>
      </trkpt>
      <trkpt lat="47.84161" lon="6.97222">
        <ele>948</ele>
        <time>2026-05-09T06:08:27.792Z</time>
      </trkpt>
      <trkpt lat="47.84162" lon="6.97221">
        <ele>947</ele>
        <time>2026-05-09T06:08:28.792Z</time>
      </trkpt>
      <trkpt lat="47.84163" lon="6.9722">
        <ele>947</ele>
        <time>2026-05-09T06:08:29.793Z</time>
      </trkpt>
      <trkpt lat="47.84164" lon="6.97219">
        <ele>946</ele>
        <time>2026-05-09T06:08:30.793Z</time>
      </trkpt>
      <trkpt lat="47.84165" lon="6.97217">
        <ele>946</ele>
        <time>2026-05-09T06:08:31.792Z</time>
      </trkpt>
      <trkpt lat="47.84164" lon="6.97214">
        <ele>946</ele>
        <time>2026-05-09T06:08:32.792Z</time>
      </trkpt>
      <trkpt lat="47.84164" lon="6.97212">
        <ele>946</ele>
        <time>2026-05-09T06:08:33.792Z</time>
      </trkpt>
      <trkpt lat="47.84163" lon="6.9721">
        <ele>946</ele>
        <time>2026-05-09T06:08:34.793Z</time>
      </trkpt>
      <trkpt lat="47.84163" lon="6.97206">
        <ele>946</ele>
        <time>2026-05-09T06:08:35.793Z</time>
      </trkpt>
      <trkpt lat="47.84162" lon="6.97203">
        <ele>946</ele>
        <time>2026-05-09T06:08:36.793Z</time>
      </trkpt>
      <trkpt lat="47.84162" lon="6.972">
        <ele>946</ele>
        <time>2026-05-09T06:08:37.792Z</time>
      </trkpt>
      <trkpt lat="47.8416" lon="6.97197">
        <ele>946</ele>
        <time>2026-05-09T06:08:38.793Z</time>
      </trkpt>
      <trkpt lat="47.8416" lon="6.97195">
        <ele>946</ele>
        <time>2026-05-09T06:08:39.793Z</time>
      </trkpt>
      <trkpt lat="47.8416" lon="6.97193">
        <ele>947</ele>
        <time>2026-05-09T06:08:40.792Z</time>
      </trkpt>
      <trkpt lat="47.84161" lon="6.97192">
        <ele>947</ele>
        <time>2026-05-09T06:08:41.793Z</time>
      </trkpt>
      <trkpt lat="47.84161" lon="6.97191">
        <ele>947</ele>
        <time>2026-05-09T06:08:42.792Z</time>
      </trkpt>
      <trkpt lat="47.84161" lon="6.97189">
        <ele>947</ele>
        <time>2026-05-09T06:08:43.793Z</time>
      </trkpt>
      <trkpt lat="47.84161" lon="6.97188">
        <ele>948</ele>
        <time>2026-05-09T06:08:44.792Z</time>
      </trkpt>
      <trkpt lat="47.84161" lon="6.97186">
        <ele>948</ele>
        <time>2026-05-09T06:08:45.793Z</time>
      </trkpt>
      <trkpt lat="47.8416" lon="6.97184">
        <ele>948</ele>
        <time>2026-05-09T06:08:46.792Z</time>
      </trkpt>
      <trkpt lat="47.8416" lon="6.97182">
        <ele>948</ele>
        <time>2026-05-09T06:08:47.792Z</time>
      </trkpt>
      <trkpt lat="47.8416" lon="6.9718">
        <ele>948</ele>
        <time>2026-05-09T06:08:48.793Z</time>
      </trkpt>
      <trkpt lat="47.8416" lon="6.97179">
        <ele>948</ele>
        <time>2026-05-09T06:08:49.793Z</time>
      </trkpt>
      <trkpt lat="47.84161" lon="6.97177">
        <ele>948</ele>
        <time>2026-05-09T06:08:50.792Z</time>
      </trkpt>
      <trkpt lat="47.84161" lon="6.97175">
        <ele>948</ele>
        <time>2026-05-09T06:08:51.793Z</time>
      </trkpt>
      <trkpt lat="47.84162" lon="6.97173">
        <ele>948</ele>
        <time>2026-05-09T06:08:52.792Z</time>
      </trkpt>
      <trkpt lat="47.84162" lon="6.97171">
        <ele>948</ele>
        <time>2026-05-09T06:08:53.793Z</time>
      </trkpt>
      <trkpt lat="47.84162" lon="6.97168">
        <ele>948</ele>
        <time>2026-05-09T06:08:54.792Z</time>
      </trkpt>
      <trkpt lat="47.84163" lon="6.97167">
        <ele>948</ele>
        <time>2026-05-09T06:08:55.793Z</time>
      </trkpt>
      <trkpt lat="47.84163" lon="6.97165">
        <ele>948</ele>
        <time>2026-05-09T06:08:56.793Z</time>
      </trkpt>
      <trkpt lat="47.84163" lon="6.97163">
        <ele>948</ele>
        <time>2026-05-09T06:08:57.792Z</time>
      </trkpt>
      <trkpt lat="47.84162" lon="6.97161">
        <ele>947</ele>
        <time>2026-05-09T06:08:58.793Z</time>
      </trkpt>
      <trkpt lat="47.84162" lon="6.97159">
        <ele>947</ele>
        <time>2026-05-09T06:08:59.792Z</time>
      </trkpt>
      <trkpt lat="47.84161" lon="6.97156">
        <ele>947</ele>
        <time>2026-05-09T06:09:00.793Z</time>
      </trkpt>
      <trkpt lat="47.84161" lon="6.97154">
        <ele>947</ele>
        <time>2026-05-09T06:09:01.792Z</time>
      </trkpt>
      <trkpt lat="47.84161" lon="6.97152">
        <ele>946</ele>
        <time>2026-05-09T06:09:02.793Z</time>
      </trkpt>
      <trkpt lat="47.84161" lon="6.9715">
        <ele>946</ele>
        <time>2026-05-09T06:09:03.793Z</time>
      </trkpt>
      <trkpt lat="47.84162" lon="6.97149">
        <ele>945</ele>
        <time>2026-05-09T06:09:04.792Z</time>
      </trkpt>
      <trkpt lat="47.84163" lon="6.97147">
        <ele>945</ele>
        <time>2026-05-09T06:09:05.793Z</time>
      </trkpt>
      <trkpt lat="47.84163" lon="6.97145">
        <ele>945</ele>
        <time>2026-05-09T06:09:06.792Z</time>
      </trkpt>
      <trkpt lat="47.84163" lon="6.97143">
        <ele>944</ele>
        <time>2026-05-09T06:09:07.793Z</time>
      </trkpt>
      <trkpt lat="47.84164" lon="6.97142">
        <ele>944</ele>
        <time>2026-05-09T06:09:08.792Z</time>
      </trkpt>
      <trkpt lat="47.84165" lon="6.97139">
        <ele>944</ele>
        <time>2026-05-09T06:09:09.793Z</time>
      </trkpt>
      <trkpt lat="47.84165" lon="6.97137">
        <ele>944</ele>
        <time>2026-05-09T06:09:10.793Z</time>
      </trkpt>
      <trkpt lat="47.84166" lon="6.97135">
        <ele>944</ele>
        <time>2026-05-09T06:09:11.793Z</time>
      </trkpt>
      <trkpt lat="47.84166" lon="6.97134">
        <ele>944</ele>
        <time>2026-05-09T06:09:12.792Z</time>
      </trkpt>
      <trkpt lat="47.84167" lon="6.97131">
        <ele>944</ele>
        <time>2026-05-09T06:09:13.792Z</time>
      </trkpt>
      <trkpt lat="47.84167" lon="6.97129">
        <ele>944</ele>
        <time>2026-05-09T06:09:14.792Z</time>
      </trkpt>
      <trkpt lat="47.84167" lon="6.97127">
        <ele>944</ele>
        <time>2026-05-09T06:09:15.792Z</time>
      </trkpt>
      <trkpt lat="47.84168" lon="6.97125">
        <ele>943</ele>
        <time>2026-05-09T06:09:16.792Z</time>
      </trkpt>
      <trkpt lat="47.84169" lon="6.97123">
        <ele>943</ele>
        <time>2026-05-09T06:09:17.793Z</time>
      </trkpt>
      <trkpt lat="47.84169" lon="6.97122">
        <ele>943</ele>
        <time>2026-05-09T06:09:18.793Z</time>
      </trkpt>
      <trkpt lat="47.84169" lon="6.9712">
        <ele>943</ele>
        <time>2026-05-09T06:09:19.792Z</time>
      </trkpt>
      <trkpt lat="47.84169" lon="6.97118">
        <ele>943</ele>
        <time>2026-05-09T06:09:20.793Z</time>
      </trkpt>
      <trkpt lat="47.8417" lon="6.97117">
        <ele>943</ele>
        <time>2026-05-09T06:09:21.792Z</time>
      </trkpt>
      <trkpt lat="47.8417" lon="6.97115">
        <ele>943</ele>
        <time>2026-05-09T06:09:22.793Z</time>
      </trkpt>
      <trkpt lat="47.8417" lon="6.97114">
        <ele>943</ele>
        <time>2026-05-09T06:09:23.793Z</time>
      </trkpt>
      <trkpt lat="47.84171" lon="6.97112">
        <ele>943</ele>
        <time>2026-05-09T06:09:24.792Z</time>
      </trkpt>
      <trkpt lat="47.84172" lon="6.9711">
        <ele>943</ele>
        <time>2026-05-09T06:09:25.793Z</time>
      </trkpt>
      <trkpt lat="47.84172" lon="6.97108">
        <ele>943</ele>
        <time>2026-05-09T06:09:26.792Z</time>
      </trkpt>
      <trkpt lat="47.84172" lon="6.97107">
        <ele>943</ele>
        <time>2026-05-09T06:09:27.793Z</time>
      </trkpt>
      <trkpt lat="47.84173" lon="6.97104">
        <ele>943</ele>
        <time>2026-05-09T06:09:28.793Z</time>
      </trkpt>
      <trkpt lat="47.84174" lon="6.97102">
        <ele>943</ele>
        <time>2026-05-09T06:09:29.792Z</time>
      </trkpt>
      <trkpt lat="47.84174" lon="6.97099">
        <ele>943</ele>
        <time>2026-05-09T06:09:30.793Z</time>
      </trkpt>
      <trkpt lat="47.84174" lon="6.97097">
        <ele>943</ele>
        <time>2026-05-09T06:09:31.792Z</time>
      </trkpt>
      <trkpt lat="47.84175" lon="6.97096">
        <ele>943</ele>
        <time>2026-05-09T06:09:32.793Z</time>
      </trkpt>
      <trkpt lat="47.84175" lon="6.97094">
        <ele>944</ele>
        <time>2026-05-09T06:09:33.793Z</time>
      </trkpt>
      <trkpt lat="47.84176" lon="6.97092">
        <ele>944</ele>
        <time>2026-05-09T06:09:34.793Z</time>
      </trkpt>
      <trkpt lat="47.84176" lon="6.9709">
        <ele>944</ele>
        <time>2026-05-09T06:09:35.793Z</time>
      </trkpt>
      <trkpt lat="47.84177" lon="6.97088">
        <ele>944</ele>
        <time>2026-05-09T06:09:36.793Z</time>
      </trkpt>
      <trkpt lat="47.84177" lon="6.97085">
        <ele>944</ele>
        <time>2026-05-09T06:09:37.792Z</time>
      </trkpt>
      <trkpt lat="47.84176" lon="6.97082">
        <ele>945</ele>
        <time>2026-05-09T06:09:38.793Z</time>
      </trkpt>
      <trkpt lat="47.84177" lon="6.97081">
        <ele>945</ele>
        <time>2026-05-09T06:09:39.792Z</time>
      </trkpt>
      <trkpt lat="47.84178" lon="6.9708">
        <ele>945</ele>
        <time>2026-05-09T06:09:40.793Z</time>
      </trkpt>
      <trkpt lat="47.84179" lon="6.97078">
        <ele>945</ele>
        <time>2026-05-09T06:09:41.793Z</time>
      </trkpt>
      <trkpt lat="47.8418" lon="6.97077">
        <ele>945</ele>
        <time>2026-05-09T06:09:42.792Z</time>
      </trkpt>
      <trkpt lat="47.84181" lon="6.97076">
        <ele>945</ele>
        <time>2026-05-09T06:09:43.793Z</time>
      </trkpt>
      <trkpt lat="47.84182" lon="6.97075">
        <ele>945</ele>
        <time>2026-05-09T06:09:44.792Z</time>
      </trkpt>
      <trkpt lat="47.84183" lon="6.97073">
        <ele>945</ele>
        <time>2026-05-09T06:09:45.792Z</time>
      </trkpt>
      <trkpt lat="47.84183" lon="6.97071">
        <ele>945</ele>
        <time>2026-05-09T06:09:46.793Z</time>
      </trkpt>
      <trkpt lat="47.84183" lon="6.97069">
        <ele>945</ele>
        <time>2026-05-09T06:09:47.793Z</time>
      </trkpt>
      <trkpt lat="47.84184" lon="6.97067">
        <ele>945</ele>
        <time>2026-05-09T06:09:48.792Z</time>
      </trkpt>
      <trkpt lat="47.84184" lon="6.97065">
        <ele>945</ele>
        <time>2026-05-09T06:09:49.793Z</time>
      </trkpt>
      <trkpt lat="47.84184" lon="6.97063">
        <ele>945</ele>
        <time>2026-05-09T06:09:50.793Z</time>
      </trkpt>
      <trkpt lat="47.84185" lon="6.97061">
        <ele>945</ele>
        <time>2026-05-09T06:09:51.792Z</time>
      </trkpt>
      <trkpt lat="47.84185" lon="6.9706">
        <ele>945</ele>
        <time>2026-05-09T06:09:52.793Z</time>
      </trkpt>
      <trkpt lat="47.84186" lon="6.97058">
        <ele>945</ele>
        <time>2026-05-09T06:09:53.792Z</time>
      </trkpt>
      <trkpt lat="47.84186" lon="6.97056">
        <ele>945</ele>
        <time>2026-05-09T06:09:54.793Z</time>
      </trkpt>
      <trkpt lat="47.84186" lon="6.97054">
        <ele>945</ele>
        <time>2026-05-09T06:09:55.792Z</time>
      </trkpt>
      <trkpt lat="47.84186" lon="6.97051">
        <ele>945</ele>
        <time>2026-05-09T06:09:56.792Z</time>
      </trkpt>
      <trkpt lat="47.84186" lon="6.97049">
        <ele>944</ele>
        <time>2026-05-09T06:09:57.792Z</time>
      </trkpt>
      <trkpt lat="47.84186" lon="6.97048">
        <ele>944</ele>
        <time>2026-05-09T06:09:58.792Z</time>
      </trkpt>
      <trkpt lat="47.84186" lon="6.97046">
        <ele>944</ele>
        <time>2026-05-09T06:09:59.793Z</time>
      </trkpt>
      <trkpt lat="47.84187" lon="6.97044">
        <ele>944</ele>
        <time>2026-05-09T06:10:00.793Z</time>
      </trkpt>
      <trkpt lat="47.84187" lon="6.97043">
        <ele>944</ele>
        <time>2026-05-09T06:10:01.792Z</time>
      </trkpt>
      <trkpt lat="47.84188" lon="6.97041">
        <ele>944</ele>
        <time>2026-05-09T06:10:02.792Z</time>
      </trkpt>
      <trkpt lat="47.84189" lon="6.9704">
        <ele>943</ele>
        <time>2026-05-09T06:10:03.793Z</time>
      </trkpt>
      <trkpt lat="47.84189" lon="6.97039">
        <ele>943</ele>
        <time>2026-05-09T06:10:04.792Z</time>
      </trkpt>
      <trkpt lat="47.84189" lon="6.97038">
        <ele>943</ele>
        <time>2026-05-09T06:10:05.792Z</time>
      </trkpt>
      <trkpt lat="47.84189" lon="6.97036">
        <ele>942</ele>
        <time>2026-05-09T06:10:06.792Z</time>
      </trkpt>
      <trkpt lat="47.84189" lon="6.97034">
        <ele>942</ele>
        <time>2026-05-09T06:10:07.792Z</time>
      </trkpt>
      <trkpt lat="47.84189" lon="6.97033">
        <ele>942</ele>
        <time>2026-05-09T06:10:08.793Z</time>
      </trkpt>
      <trkpt lat="47.8419" lon="6.97031">
        <ele>942</ele>
        <time>2026-05-09T06:10:09.792Z</time>
      </trkpt>
      <trkpt lat="47.84191" lon="6.9703">
        <ele>941</ele>
        <time>2026-05-09T06:10:10.793Z</time>
      </trkpt>
      <trkpt lat="47.84192" lon="6.97029">
        <ele>941</ele>
        <time>2026-05-09T06:10:11.792Z</time>
      </trkpt>
      <trkpt lat="47.84193" lon="6.97027">
        <ele>941</ele>
        <time>2026-05-09T06:10:12.793Z</time>
      </trkpt>
      <trkpt lat="47.84193" lon="6.97026">
        <ele>940</ele>
        <time>2026-05-09T06:10:13.792Z</time>
      </trkpt>
      <trkpt lat="47.84194" lon="6.97023">
        <ele>940</ele>
        <time>2026-05-09T06:10:14.793Z</time>
      </trkpt>
      <trkpt lat="47.84195" lon="6.97021">
        <ele>940</ele>
        <time>2026-05-09T06:10:15.793Z</time>
      </trkpt>
      <trkpt lat="47.84195" lon="6.97019">
        <ele>940</ele>
        <time>2026-05-09T06:10:16.792Z</time>
      </trkpt>
      <trkpt lat="47.84196" lon="6.97017">
        <ele>940</ele>
        <time>2026-05-09T06:10:17.793Z</time>
      </trkpt>
      <trkpt lat="47.84197" lon="6.97016">
        <ele>939</ele>
        <time>2026-05-09T06:10:18.792Z</time>
      </trkpt>
      <trkpt lat="47.84198" lon="6.97015">
        <ele>939</ele>
        <time>2026-05-09T06:10:19.793Z</time>
      </trkpt>
      <trkpt lat="47.84199" lon="6.97014">
        <ele>939</ele>
        <time>2026-05-09T06:10:20.792Z</time>
      </trkpt>
      <trkpt lat="47.84199" lon="6.97013">
        <ele>939</ele>
        <time>2026-05-09T06:10:21.792Z</time>
      </trkpt>
      <trkpt lat="47.842" lon="6.97012">
        <ele>939</ele>
        <time>2026-05-09T06:10:22.792Z</time>
      </trkpt>
      <trkpt lat="47.842" lon="6.97009">
        <ele>938</ele>
        <time>2026-05-09T06:10:23.793Z</time>
      </trkpt>
      <trkpt lat="47.84199" lon="6.97007">
        <ele>938</ele>
        <time>2026-05-09T06:10:24.792Z</time>
      </trkpt>
      <trkpt lat="47.84199" lon="6.97004">
        <ele>938</ele>
        <time>2026-05-09T06:10:25.793Z</time>
      </trkpt>
      <trkpt lat="47.84199" lon="6.97002">
        <ele>937</ele>
        <time>2026-05-09T06:10:26.793Z</time>
      </trkpt>
      <trkpt lat="47.84198" lon="6.97">
        <ele>937</ele>
        <time>2026-05-09T06:10:27.792Z</time>
      </trkpt>
      <trkpt lat="47.84198" lon="6.96998">
        <ele>937</ele>
        <time>2026-05-09T06:10:28.792Z</time>
      </trkpt>
      <trkpt lat="47.84197" lon="6.96997">
        <ele>937</ele>
        <time>2026-05-09T06:10:29.792Z</time>
      </trkpt>
      <trkpt lat="47.84196" lon="6.96995">
        <ele>936</ele>
        <time>2026-05-09T06:10:30.793Z</time>
      </trkpt>
      <trkpt lat="47.84196" lon="6.96993">
        <ele>936</ele>
        <time>2026-05-09T06:10:31.792Z</time>
      </trkpt>
      <trkpt lat="47.84195" lon="6.96991">
        <ele>936</ele>
        <time>2026-05-09T06:10:32.792Z</time>
      </trkpt>
      <trkpt lat="47.84195" lon="6.96989">
        <ele>936</ele>
        <time>2026-05-09T06:10:33.792Z</time>
      </trkpt>
      <trkpt lat="47.84195" lon="6.96988">
        <ele>936</ele>
        <time>2026-05-09T06:10:34.792Z</time>
      </trkpt>
      <trkpt lat="47.84195" lon="6.96986">
        <ele>936</ele>
        <time>2026-05-09T06:10:35.793Z</time>
      </trkpt>
      <trkpt lat="47.84195" lon="6.96985">
        <ele>936</ele>
        <time>2026-05-09T06:10:36.792Z</time>
      </trkpt>
      <trkpt lat="47.84195" lon="6.96984">
        <ele>936</ele>
        <time>2026-05-09T06:10:37.792Z</time>
      </trkpt>
      <trkpt lat="47.84195" lon="6.96982">
        <ele>936</ele>
        <time>2026-05-09T06:10:38.793Z</time>
      </trkpt>
      <trkpt lat="47.84194" lon="6.9698">
        <ele>936</ele>
        <time>2026-05-09T06:10:39.792Z</time>
      </trkpt>
      <trkpt lat="47.84194" lon="6.96978">
        <ele>936</ele>
        <time>2026-05-09T06:10:40.793Z</time>
      </trkpt>
      <trkpt lat="47.84193" lon="6.96976">
        <ele>936</ele>
        <time>2026-05-09T06:10:41.793Z</time>
      </trkpt>
      <trkpt lat="47.84197" lon="6.96975">
        <ele>937</ele>
        <time>2026-05-09T06:10:42.793Z</time>
      </trkpt>
      <trkpt lat="47.84199" lon="6.96972">
        <ele>937</ele>
        <time>2026-05-09T06:10:43.793Z</time>
      </trkpt>
      <trkpt lat="47.84201" lon="6.96971">
        <ele>937</ele>
        <time>2026-05-09T06:10:44.792Z</time>
      </trkpt>
      <trkpt lat="47.84203" lon="6.96969">
        <ele>937</ele>
        <time>2026-05-09T06:10:45.793Z</time>
      </trkpt>
      <trkpt lat="47.84202" lon="6.96967">
        <ele>937</ele>
        <time>2026-05-09T06:10:46.793Z</time>
      </trkpt>
      <trkpt lat="47.84202" lon="6.96965">
        <ele>937</ele>
        <time>2026-05-09T06:10:47.792Z</time>
      </trkpt>
      <trkpt lat="47.84203" lon="6.96962">
        <ele>937</ele>
        <time>2026-05-09T06:10:48.793Z</time>
      </trkpt>
      <trkpt lat="47.84205" lon="6.96961">
        <ele>937</ele>
        <time>2026-05-09T06:10:49.792Z</time>
      </trkpt>
      <trkpt lat="47.84206" lon="6.9696">
        <ele>937</ele>
        <time>2026-05-09T06:10:50.793Z</time>
      </trkpt>
      <trkpt lat="47.84207" lon="6.96959">
        <ele>937</ele>
        <time>2026-05-09T06:10:51.792Z</time>
      </trkpt>
      <trkpt lat="47.84207" lon="6.96957">
        <ele>937</ele>
        <time>2026-05-09T06:10:52.792Z</time>
      </trkpt>
      <trkpt lat="47.84206" lon="6.96954">
        <ele>937</ele>
        <time>2026-05-09T06:10:53.793Z</time>
      </trkpt>
      <trkpt lat="47.84205" lon="6.96952">
        <ele>937</ele>
        <time>2026-05-09T06:10:54.792Z</time>
      </trkpt>
      <trkpt lat="47.84204" lon="6.9695">
        <ele>937</ele>
        <time>2026-05-09T06:10:55.793Z</time>
      </trkpt>
      <trkpt lat="47.84204" lon="6.96949">
        <ele>936</ele>
        <time>2026-05-09T06:10:56.792Z</time>
      </trkpt>
      <trkpt lat="47.84203" lon="6.96947">
        <ele>936</ele>
        <time>2026-05-09T06:10:57.792Z</time>
      </trkpt>
      <trkpt lat="47.84203" lon="6.96946">
        <ele>936</ele>
        <time>2026-05-09T06:10:58.793Z</time>
      </trkpt>
      <trkpt lat="47.84203" lon="6.96943">
        <ele>937</ele>
        <time>2026-05-09T06:10:59.792Z</time>
      </trkpt>
      <trkpt lat="47.84202" lon="6.96941">
        <ele>936</ele>
        <time>2026-05-09T06:11:00.793Z</time>
      </trkpt>
      <trkpt lat="47.84202" lon="6.96939">
        <ele>936</ele>
        <time>2026-05-09T06:11:01.793Z</time>
      </trkpt>
      <trkpt lat="47.84203" lon="6.96937">
        <ele>936</ele>
        <time>2026-05-09T06:11:02.793Z</time>
      </trkpt>
      <trkpt lat="47.84204" lon="6.96936">
        <ele>936</ele>
        <time>2026-05-09T06:11:03.793Z</time>
      </trkpt>
      <trkpt lat="47.84205" lon="6.96934">
        <ele>936</ele>
        <time>2026-05-09T06:11:04.792Z</time>
      </trkpt>
      <trkpt lat="47.84206" lon="6.96933">
        <ele>935</ele>
        <time>2026-05-09T06:11:05.793Z</time>
      </trkpt>
      <trkpt lat="47.84207" lon="6.96931">
        <ele>935</ele>
        <time>2026-05-09T06:11:06.792Z</time>
      </trkpt>
      <trkpt lat="47.84209" lon="6.96929">
        <ele>935</ele>
        <time>2026-05-09T06:11:07.793Z</time>
      </trkpt>
      <trkpt lat="47.8421" lon="6.96927">
        <ele>935</ele>
        <time>2026-05-09T06:11:08.792Z</time>
      </trkpt>
      <trkpt lat="47.8421" lon="6.96926">
        <ele>935</ele>
        <time>2026-05-09T06:11:09.793Z</time>
      </trkpt>
      <trkpt lat="47.84209" lon="6.96923">
        <ele>935</ele>
        <time>2026-05-09T06:11:10.792Z</time>
      </trkpt>
      <trkpt lat="47.84207" lon="6.9692">
        <ele>935</ele>
        <time>2026-05-09T06:11:11.793Z</time>
      </trkpt>
      <trkpt lat="47.84206" lon="6.96917">
        <ele>935</ele>
        <time>2026-05-09T06:11:12.792Z</time>
      </trkpt>
      <trkpt lat="47.84206" lon="6.96914">
        <ele>935</ele>
        <time>2026-05-09T06:11:13.792Z</time>
      </trkpt>
      <trkpt lat="47.84206" lon="6.96912">
        <ele>935</ele>
        <time>2026-05-09T06:11:14.793Z</time>
      </trkpt>
      <trkpt lat="47.84206" lon="6.9691">
        <ele>935</ele>
        <time>2026-05-09T06:11:15.792Z</time>
      </trkpt>
      <trkpt lat="47.84207" lon="6.96908">
        <ele>934</ele>
        <time>2026-05-09T06:11:16.792Z</time>
      </trkpt>
      <trkpt lat="47.84208" lon="6.96906">
        <ele>934</ele>
        <time>2026-05-09T06:11:17.793Z</time>
      </trkpt>
      <trkpt lat="47.84209" lon="6.96904">
        <ele>934</ele>
        <time>2026-05-09T06:11:18.793Z</time>
      </trkpt>
      <trkpt lat="47.8421" lon="6.96902">
        <ele>934</ele>
        <time>2026-05-09T06:11:19.793Z</time>
      </trkpt>
      <trkpt lat="47.8421" lon="6.969">
        <ele>935</ele>
        <time>2026-05-09T06:11:20.792Z</time>
      </trkpt>
      <trkpt lat="47.84211" lon="6.96899">
        <ele>935</ele>
        <time>2026-05-09T06:11:21.792Z</time>
      </trkpt>
      <trkpt lat="47.84211" lon="6.96897">
        <ele>935</ele>
        <time>2026-05-09T06:11:22.792Z</time>
      </trkpt>
      <trkpt lat="47.84211" lon="6.96895">
        <ele>935</ele>
        <time>2026-05-09T06:11:23.792Z</time>
      </trkpt>
      <trkpt lat="47.8421" lon="6.96894">
        <ele>935</ele>
        <time>2026-05-09T06:11:24.793Z</time>
      </trkpt>
      <trkpt lat="47.84211" lon="6.96893">
        <ele>935</ele>
        <time>2026-05-09T06:11:25.793Z</time>
      </trkpt>
      <trkpt lat="47.84211" lon="6.96892">
        <ele>935</ele>
        <time>2026-05-09T06:11:26.792Z</time>
      </trkpt>
      <trkpt lat="47.84213" lon="6.96891">
        <ele>935</ele>
        <time>2026-05-09T06:11:27.792Z</time>
      </trkpt>
      <trkpt lat="47.84213" lon="6.96889">
        <ele>935</ele>
        <time>2026-05-09T06:11:28.792Z</time>
      </trkpt>
      <trkpt lat="47.84212" lon="6.96887">
        <ele>934</ele>
        <time>2026-05-09T06:11:29.792Z</time>
      </trkpt>
      <trkpt lat="47.84212" lon="6.96884">
        <ele>934</ele>
        <time>2026-05-09T06:11:30.793Z</time>
      </trkpt>
      <trkpt lat="47.84211" lon="6.96882">
        <ele>934</ele>
        <time>2026-05-09T06:11:31.793Z</time>
      </trkpt>
      <trkpt lat="47.84212" lon="6.9688">
        <ele>934</ele>
        <time>2026-05-09T06:11:32.793Z</time>
      </trkpt>
      <trkpt lat="47.84212" lon="6.96877">
        <ele>935</ele>
        <time>2026-05-09T06:11:33.793Z</time>
      </trkpt>
      <trkpt lat="47.84213" lon="6.96875">
        <ele>935</ele>
        <time>2026-05-09T06:11:34.792Z</time>
      </trkpt>
      <trkpt lat="47.84215" lon="6.96873">
        <ele>935</ele>
        <time>2026-05-09T06:11:35.793Z</time>
      </trkpt>
      <trkpt lat="47.84216" lon="6.96872">
        <ele>935</ele>
        <time>2026-05-09T06:11:36.792Z</time>
      </trkpt>
      <trkpt lat="47.84217" lon="6.9687">
        <ele>935</ele>
        <time>2026-05-09T06:11:37.793Z</time>
      </trkpt>
      <trkpt lat="47.84218" lon="6.96868">
        <ele>936</ele>
        <time>2026-05-09T06:11:38.792Z</time>
      </trkpt>
      <trkpt lat="47.8422" lon="6.96868">
        <ele>936</ele>
        <time>2026-05-09T06:11:39.792Z</time>
      </trkpt>
      <trkpt lat="47.84221" lon="6.96868">
        <ele>936</ele>
        <time>2026-05-09T06:11:40.792Z</time>
      </trkpt>
      <trkpt lat="47.84223" lon="6.96867">
        <ele>936</ele>
        <time>2026-05-09T06:11:41.793Z</time>
      </trkpt>
      <trkpt lat="47.84225" lon="6.96866">
        <ele>936</ele>
        <time>2026-05-09T06:11:42.792Z</time>
      </trkpt>
      <trkpt lat="47.84226" lon="6.96865">
        <ele>937</ele>
        <time>2026-05-09T06:11:43.793Z</time>
      </trkpt>
      <trkpt lat="47.84227" lon="6.96863">
        <ele>937</ele>
        <time>2026-05-09T06:11:44.793Z</time>
      </trkpt>
      <trkpt lat="47.84228" lon="6.96861">
        <ele>937</ele>
        <time>2026-05-09T06:11:45.792Z</time>
      </trkpt>
      <trkpt lat="47.84228" lon="6.9686">
        <ele>937</ele>
        <time>2026-05-09T06:11:46.793Z</time>
      </trkpt>
      <trkpt lat="47.84228" lon="6.96859">
        <ele>937</ele>
        <time>2026-05-09T06:11:47.793Z</time>
      </trkpt>
      <trkpt lat="47.84228" lon="6.96857">
        <ele>937</ele>
        <time>2026-05-09T06:11:48.793Z</time>
      </trkpt>
      <trkpt lat="47.84228" lon="6.96856">
        <ele>937</ele>
        <time>2026-05-09T06:11:49.793Z</time>
      </trkpt>
      <trkpt lat="47.84228" lon="6.96854">
        <ele>938</ele>
        <time>2026-05-09T06:11:50.792Z</time>
      </trkpt>
      <trkpt lat="47.84228" lon="6.96852">
        <ele>938</ele>
        <time>2026-05-09T06:11:51.792Z</time>
      </trkpt>
      <trkpt lat="47.84229" lon="6.96851">
        <ele>938</ele>
        <time>2026-05-09T06:11:52.792Z</time>
      </trkpt>
      <trkpt lat="47.8423" lon="6.96849">
        <ele>938</ele>
        <time>2026-05-09T06:11:53.792Z</time>
      </trkpt>
      <trkpt lat="47.8423" lon="6.96847">
        <ele>938</ele>
        <time>2026-05-09T06:11:54.793Z</time>
      </trkpt>
      <trkpt lat="47.84232" lon="6.96846">
        <ele>938</ele>
        <time>2026-05-09T06:11:55.792Z</time>
      </trkpt>
      <trkpt lat="47.84232" lon="6.96843">
        <ele>938</ele>
        <time>2026-05-09T06:11:56.793Z</time>
      </trkpt>
      <trkpt lat="47.84231" lon="6.96838">
        <ele>938</ele>
        <time>2026-05-09T06:11:57.793Z</time>
      </trkpt>
      <trkpt lat="47.8423" lon="6.96835">
        <ele>938</ele>
        <time>2026-05-09T06:11:58.793Z</time>
      </trkpt>
      <trkpt lat="47.8423" lon="6.96832">
        <ele>938</ele>
        <time>2026-05-09T06:11:59.793Z</time>
      </trkpt>
      <trkpt lat="47.8423" lon="6.9683">
        <ele>938</ele>
        <time>2026-05-09T06:12:00.793Z</time>
      </trkpt>
      <trkpt lat="47.8423" lon="6.96829">
        <ele>938</ele>
        <time>2026-05-09T06:12:01.792Z</time>
      </trkpt>
      <trkpt lat="47.84228" lon="6.96827">
        <ele>938</ele>
        <time>2026-05-09T06:12:02.792Z</time>
      </trkpt>
      <trkpt lat="47.84226" lon="6.96825">
        <ele>938</ele>
        <time>2026-05-09T06:12:03.792Z</time>
      </trkpt>
      <trkpt lat="47.84225" lon="6.96822">
        <ele>938</ele>
        <time>2026-05-09T06:12:04.793Z</time>
      </trkpt>
      <trkpt lat="47.84224" lon="6.96819">
        <ele>938</ele>
        <time>2026-05-09T06:12:05.792Z</time>
      </trkpt>
      <trkpt lat="47.84223" lon="6.96817">
        <ele>938</ele>
        <time>2026-05-09T06:12:06.793Z</time>
      </trkpt>
      <trkpt lat="47.84222" lon="6.96814">
        <ele>938</ele>
        <time>2026-05-09T06:12:07.792Z</time>
      </trkpt>
      <trkpt lat="47.84223" lon="6.96813">
        <ele>938</ele>
        <time>2026-05-09T06:12:08.793Z</time>
      </trkpt>
      <trkpt lat="47.84223" lon="6.96812">
        <ele>938</ele>
        <time>2026-05-09T06:12:09.793Z</time>
      </trkpt>
      <trkpt lat="47.84223" lon="6.96811">
        <ele>938</ele>
        <time>2026-05-09T06:12:10.793Z</time>
      </trkpt>
      <trkpt lat="47.84224" lon="6.9681">
        <ele>938</ele>
        <time>2026-05-09T06:12:11.793Z</time>
      </trkpt>
      <trkpt lat="47.84224" lon="6.96809">
        <ele>939</ele>
        <time>2026-05-09T06:12:12.792Z</time>
      </trkpt>
      <trkpt lat="47.8422" lon="6.96807">
        <ele>939</ele>
        <time>2026-05-09T06:12:13.793Z</time>
      </trkpt>
      <trkpt lat="47.84219" lon="6.96806">
        <ele>939</ele>
        <time>2026-05-09T06:12:14.792Z</time>
      </trkpt>
      <trkpt lat="47.84218" lon="6.96805">
        <ele>939</ele>
        <time>2026-05-09T06:12:15.793Z</time>
      </trkpt>
      <trkpt lat="47.84217" lon="6.96804">
        <ele>939</ele>
        <time>2026-05-09T06:12:16.793Z</time>
      </trkpt>
      <trkpt lat="47.84216" lon="6.96802">
        <ele>940</ele>
        <time>2026-05-09T06:12:17.792Z</time>
      </trkpt>
      <trkpt lat="47.84216" lon="6.96801">
        <ele>940</ele>
        <time>2026-05-09T06:12:18.792Z</time>
      </trkpt>
      <trkpt lat="47.84217" lon="6.968">
        <ele>940</ele>
        <time>2026-05-09T06:12:19.793Z</time>
      </trkpt>
      <trkpt lat="47.84222" lon="6.96799">
        <ele>940</ele>
        <time>2026-05-09T06:12:20.793Z</time>
      </trkpt>
      <trkpt lat="47.84223" lon="6.96798">
        <ele>940</ele>
        <time>2026-05-09T06:12:21.793Z</time>
      </trkpt>
      <trkpt lat="47.84224" lon="6.96797">
        <ele>940</ele>
        <time>2026-05-09T06:12:22.793Z</time>
      </trkpt>
      <trkpt lat="47.84225" lon="6.96796">
        <ele>940</ele>
        <time>2026-05-09T06:12:23.793Z</time>
      </trkpt>
      <trkpt lat="47.84226" lon="6.96795">
        <ele>940</ele>
        <time>2026-05-09T06:12:24.793Z</time>
      </trkpt>
      <trkpt lat="47.84227" lon="6.96794">
        <ele>940</ele>
        <time>2026-05-09T06:12:25.793Z</time>
      </trkpt>
      <trkpt lat="47.84229" lon="6.96793">
        <ele>940</ele>
        <time>2026-05-09T06:12:26.792Z</time>
      </trkpt>
      <trkpt lat="47.84231" lon="6.96792">
        <ele>941</ele>
        <time>2026-05-09T06:12:27.792Z</time>
      </trkpt>
      <trkpt lat="47.84233" lon="6.9679">
        <ele>941</ele>
        <time>2026-05-09T06:12:28.793Z</time>
      </trkpt>
      <trkpt lat="47.84234" lon="6.96789">
        <ele>941</ele>
        <time>2026-05-09T06:12:29.793Z</time>
      </trkpt>
      <trkpt lat="47.84235" lon="6.96787">
        <ele>941</ele>
        <time>2026-05-09T06:12:30.793Z</time>
      </trkpt>
      <trkpt lat="47.84235" lon="6.96785">
        <ele>942</ele>
        <time>2026-05-09T06:12:31.792Z</time>
      </trkpt>
      <trkpt lat="47.84235" lon="6.96783">
        <ele>942</ele>
        <time>2026-05-09T06:12:32.792Z</time>
      </trkpt>
      <trkpt lat="47.84236" lon="6.96781">
        <ele>942</ele>
        <time>2026-05-09T06:12:33.793Z</time>
      </trkpt>
      <trkpt lat="47.84236" lon="6.96779">
        <ele>943</ele>
        <time>2026-05-09T06:12:34.793Z</time>
      </trkpt>
      <trkpt lat="47.84236" lon="6.96778">
        <ele>943</ele>
        <time>2026-05-09T06:12:35.793Z</time>
      </trkpt>
      <trkpt lat="47.84239" lon="6.96777">
        <ele>943</ele>
        <time>2026-05-09T06:12:36.792Z</time>
      </trkpt>
      <trkpt lat="47.84241" lon="6.96776">
        <ele>943</ele>
        <time>2026-05-09T06:12:37.792Z</time>
      </trkpt>
      <trkpt lat="47.84243" lon="6.96775">
        <ele>943</ele>
        <time>2026-05-09T06:12:38.792Z</time>
      </trkpt>
      <trkpt lat="47.84245" lon="6.96773">
        <ele>944</ele>
        <time>2026-05-09T06:12:39.793Z</time>
      </trkpt>
      <trkpt lat="47.84247" lon="6.96772">
        <ele>944</ele>
        <time>2026-05-09T06:12:40.793Z</time>
      </trkpt>
      <trkpt lat="47.84248" lon="6.96772">
        <ele>944</ele>
        <time>2026-05-09T06:12:41.793Z</time>
      </trkpt>
      <trkpt lat="47.84251" lon="6.96771">
        <ele>944</ele>
        <time>2026-05-09T06:12:42.792Z</time>
      </trkpt>
      <trkpt lat="47.84254" lon="6.96769">
        <ele>944</ele>
        <time>2026-05-09T06:12:43.792Z</time>
      </trkpt>
      <trkpt lat="47.84257" lon="6.96767">
        <ele>944</ele>
        <time>2026-05-09T06:12:44.792Z</time>
      </trkpt>
      <trkpt lat="47.84261" lon="6.96766">
        <ele>944</ele>
        <time>2026-05-09T06:12:45.792Z</time>
      </trkpt>
      <trkpt lat="47.84262" lon="6.96765">
        <ele>945</ele>
        <time>2026-05-09T06:12:46.792Z</time>
      </trkpt>
      <trkpt lat="47.84263" lon="6.96765">
        <ele>945</ele>
        <time>2026-05-09T06:12:47.792Z</time>
      </trkpt>
      <trkpt lat="47.84263" lon="6.96764">
        <ele>945</ele>
        <time>2026-05-09T06:12:48.792Z</time>
      </trkpt>
      <trkpt lat="47.84264" lon="6.96763">
        <ele>945</ele>
        <time>2026-05-09T06:12:49.792Z</time>
      </trkpt>
      <trkpt lat="47.84262" lon="6.96762">
        <ele>945</ele>
        <time>2026-05-09T06:12:50.793Z</time>
      </trkpt>
      <trkpt lat="47.84258" lon="6.9676">
        <ele>945</ele>
        <time>2026-05-09T06:12:51.792Z</time>
      </trkpt>
      <trkpt lat="47.84257" lon="6.96759">
        <ele>945</ele>
        <time>2026-05-09T06:12:52.792Z</time>
      </trkpt>
      <trkpt lat="47.84258" lon="6.96759">
        <ele>945</ele>
        <time>2026-05-09T06:12:53.793Z</time>
      </trkpt>
      <trkpt lat="47.84257" lon="6.96758">
        <ele>945</ele>
        <time>2026-05-09T06:12:54.793Z</time>
      </trkpt>
      <trkpt lat="47.84257" lon="6.96757">
        <ele>945</ele>
        <time>2026-05-09T06:12:55.793Z</time>
      </trkpt>
      <trkpt lat="47.84259" lon="6.96756">
        <ele>945</ele>
        <time>2026-05-09T06:12:56.793Z</time>
      </trkpt>
      <trkpt lat="47.84261" lon="6.96754">
        <ele>946</ele>
        <time>2026-05-09T06:12:57.793Z</time>
      </trkpt>
      <trkpt lat="47.84264" lon="6.96752">
        <ele>946</ele>
        <time>2026-05-09T06:12:58.792Z</time>
      </trkpt>
      <trkpt lat="47.84266" lon="6.96751">
        <ele>947</ele>
        <time>2026-05-09T06:12:59.793Z</time>
      </trkpt>
      <trkpt lat="47.84267" lon="6.9675">
        <ele>948</ele>
        <time>2026-05-09T06:13:00.793Z</time>
      </trkpt>
      <trkpt lat="47.84268" lon="6.96748">
        <ele>948</ele>
        <time>2026-05-09T06:13:01.792Z</time>
      </trkpt>
      <trkpt lat="47.84269" lon="6.96747">
        <ele>949</ele>
        <time>2026-05-09T06:13:02.792Z</time>
      </trkpt>
      <trkpt lat="47.8427" lon="6.96746">
        <ele>949</ele>
        <time>2026-05-09T06:13:03.792Z</time>
      </trkpt>
      <trkpt lat="47.84272" lon="6.96744">
        <ele>950</ele>
        <time>2026-05-09T06:13:04.792Z</time>
      </trkpt>
      <trkpt lat="47.84273" lon="6.96743">
        <ele>951</ele>
        <time>2026-05-09T06:13:05.792Z</time>
      </trkpt>
      <trkpt lat="47.84273" lon="6.96742">
        <ele>951</ele>
        <time>2026-05-09T06:13:06.793Z</time>
      </trkpt>
      <trkpt lat="47.84274" lon="6.96741">
        <ele>951</ele>
        <time>2026-05-09T06:13:07.793Z</time>
      </trkpt>
      <trkpt lat="47.84274" lon="6.9674">
        <ele>951</ele>
        <time>2026-05-09T06:13:08.793Z</time>
      </trkpt>
      <trkpt lat="47.84274" lon="6.96739">
        <ele>951</ele>
        <time>2026-05-09T06:13:09.793Z</time>
      </trkpt>
      <trkpt lat="47.84276" lon="6.96737">
        <ele>951</ele>
        <time>2026-05-09T06:13:10.792Z</time>
      </trkpt>
      <trkpt lat="47.84277" lon="6.96735">
        <ele>951</ele>
        <time>2026-05-09T06:13:11.793Z</time>
      </trkpt>
      <trkpt lat="47.84279" lon="6.96732">
        <ele>951</ele>
        <time>2026-05-09T06:13:12.793Z</time>
      </trkpt>
      <trkpt lat="47.84281" lon="6.9673">
        <ele>951</ele>
        <time>2026-05-09T06:13:13.793Z</time>
      </trkpt>
      <trkpt lat="47.84282" lon="6.96727">
        <ele>951</ele>
        <time>2026-05-09T06:13:14.792Z</time>
      </trkpt>
      <trkpt lat="47.84285" lon="6.96723">
        <ele>951</ele>
        <time>2026-05-09T06:13:15.792Z</time>
      </trkpt>
      <trkpt lat="47.84286" lon="6.9672">
        <ele>951</ele>
        <time>2026-05-09T06:13:16.792Z</time>
      </trkpt>
      <trkpt lat="47.84289" lon="6.96718">
        <ele>951</ele>
        <time>2026-05-09T06:13:17.793Z</time>
      </trkpt>
      <trkpt lat="47.8429" lon="6.96718">
        <ele>951</ele>
        <time>2026-05-09T06:13:18.792Z</time>
      </trkpt>
      <trkpt lat="47.84291" lon="6.96715">
        <ele>950</ele>
        <time>2026-05-09T06:13:19.793Z</time>
      </trkpt>
      <trkpt lat="47.84291" lon="6.96712">
        <ele>950</ele>
        <time>2026-05-09T06:13:20.792Z</time>
      </trkpt>
      <trkpt lat="47.84292" lon="6.9671">
        <ele>950</ele>
        <time>2026-05-09T06:13:21.792Z</time>
      </trkpt>
      <trkpt lat="47.84292" lon="6.96708">
        <ele>949</ele>
        <time>2026-05-09T06:13:22.792Z</time>
      </trkpt>
      <trkpt lat="47.84294" lon="6.96706">
        <ele>949</ele>
        <time>2026-05-09T06:13:23.793Z</time>
      </trkpt>
      <trkpt lat="47.84295" lon="6.96705">
        <ele>948</ele>
        <time>2026-05-09T06:13:24.793Z</time>
      </trkpt>
      <trkpt lat="47.84295" lon="6.96705">
        <ele>948</ele>
        <time>2026-05-09T06:13:25.793Z</time>
      </trkpt>
      <trkpt lat="47.84296" lon="6.96704">
        <ele>948</ele>
        <time>2026-05-09T06:13:26.792Z</time>
      </trkpt>
      <trkpt lat="47.84297" lon="6.96704">
        <ele>947</ele>
        <time>2026-05-09T06:13:27.793Z</time>
      </trkpt>
      <trkpt lat="47.84297" lon="6.96703">
        <ele>947</ele>
        <time>2026-05-09T06:13:28.792Z</time>
      </trkpt>
      <trkpt lat="47.84298" lon="6.96702">
        <ele>947</ele>
        <time>2026-05-09T06:13:29.792Z</time>
      </trkpt>
      <trkpt lat="47.84298" lon="6.96702">
        <ele>946</ele>
        <time>2026-05-09T06:13:30.792Z</time>
      </trkpt>
      <trkpt lat="47.84298" lon="6.96701">
        <ele>946</ele>
        <time>2026-05-09T06:13:31.792Z</time>
      </trkpt>
      <trkpt lat="47.84298" lon="6.96701">
        <ele>946</ele>
        <time>2026-05-09T06:13:32.792Z</time>
      </trkpt>
      <trkpt lat="47.84298" lon="6.96708">
        <ele>946</ele>
        <time>2026-05-09T06:13:44.084Z</time>
      </trkpt>
      <trkpt lat="47.84297" lon="6.96709">
        <ele>946</ele>
        <time>2026-05-09T06:13:45.083Z</time>
      </trkpt>
      <trkpt lat="47.84296" lon="6.96709">
        <ele>947</ele>
        <time>2026-05-09T06:13:46.083Z</time>
      </trkpt>
      <trkpt lat="47.84295" lon="6.9671">
        <ele>947</ele>
        <time>2026-05-09T06:13:47.083Z</time>
      </trkpt>
      <trkpt lat="47.84294" lon="6.96711">
        <ele>947</ele>
        <time>2026-05-09T06:13:48.084Z</time>
      </trkpt>
      <trkpt lat="47.84293" lon="6.96712">
        <ele>947</ele>
        <time>2026-05-09T06:13:49.083Z</time>
      </trkpt>
      <trkpt lat="47.84292" lon="6.96712">
        <ele>947</ele>
        <time>2026-05-09T06:13:50.083Z</time>
      </trkpt>
      <trkpt lat="47.84291" lon="6.96712">
        <ele>947</ele>
        <time>2026-05-09T06:13:51.083Z</time>
      </trkpt>
      <trkpt lat="47.84289" lon="6.96713">
        <ele>946</ele>
        <time>2026-05-09T06:13:52.083Z</time>
      </trkpt>
      <trkpt lat="47.84288" lon="6.96713">
        <ele>946</ele>
        <time>2026-05-09T06:13:53.084Z</time>
      </trkpt>
      <trkpt lat="47.84288" lon="6.96714">
        <ele>946</ele>
        <time>2026-05-09T06:13:54.084Z</time>
      </trkpt>
      <trkpt lat="47.84287" lon="6.96715">
        <ele>946</ele>
        <time>2026-05-09T06:13:55.083Z</time>
      </trkpt>
      <trkpt lat="47.84287" lon="6.96716">
        <ele>945</ele>
        <time>2026-05-09T06:13:56.084Z</time>
      </trkpt>
      <trkpt lat="47.84286" lon="6.96718">
        <ele>945</ele>
        <time>2026-05-09T06:13:57.084Z</time>
      </trkpt>
      <trkpt lat="47.84285" lon="6.96719">
        <ele>945</ele>
        <time>2026-05-09T06:13:58.083Z</time>
      </trkpt>
      <trkpt lat="47.84285" lon="6.9672">
        <ele>945</ele>
        <time>2026-05-09T06:13:59.083Z</time>
      </trkpt>
      <trkpt lat="47.84284" lon="6.96722">
        <ele>945</ele>
        <time>2026-05-09T06:14:00.083Z</time>
      </trkpt>
      <trkpt lat="47.84283" lon="6.96723">
        <ele>945</ele>
        <time>2026-05-09T06:14:01.084Z</time>
      </trkpt>
      <trkpt lat="47.84283" lon="6.96725">
        <ele>945</ele>
        <time>2026-05-09T06:14:02.083Z</time>
      </trkpt>
      <trkpt lat="47.84282" lon="6.96727">
        <ele>945</ele>
        <time>2026-05-09T06:14:03.084Z</time>
      </trkpt>
      <trkpt lat="47.84282" lon="6.96729">
        <ele>945</ele>
        <time>2026-05-09T06:14:04.083Z</time>
      </trkpt>
      <trkpt lat="47.84282" lon="6.9673">
        <ele>946</ele>
        <time>2026-05-09T06:14:05.083Z</time>
      </trkpt>
      <trkpt lat="47.84282" lon="6.96733">
        <ele>946</ele>
        <time>2026-05-09T06:14:06.083Z</time>
      </trkpt>
      <trkpt lat="47.84281" lon="6.96735">
        <ele>946</ele>
        <time>2026-05-09T06:14:07.083Z</time>
      </trkpt>
      <trkpt lat="47.84281" lon="6.96736">
        <ele>947</ele>
        <time>2026-05-09T06:14:08.084Z</time>
      </trkpt>
      <trkpt lat="47.84281" lon="6.96737">
        <ele>947</ele>
        <time>2026-05-09T06:14:09.084Z</time>
      </trkpt>
      <trkpt lat="47.8428" lon="6.96739">
        <ele>948</ele>
        <time>2026-05-09T06:14:10.083Z</time>
      </trkpt>
      <trkpt lat="47.84279" lon="6.9674">
        <ele>948</ele>
        <time>2026-05-09T06:14:11.084Z</time>
      </trkpt>
      <trkpt lat="47.84278" lon="6.96742">
        <ele>948</ele>
        <time>2026-05-09T06:14:12.083Z</time>
      </trkpt>
      <trkpt lat="47.84278" lon="6.96746">
        <ele>948</ele>
        <time>2026-05-09T06:14:13.083Z</time>
      </trkpt>
      <trkpt lat="47.84277" lon="6.96749">
        <ele>949</ele>
        <time>2026-05-09T06:14:14.083Z</time>
      </trkpt>
      <trkpt lat="47.84277" lon="6.96752">
        <ele>949</ele>
        <time>2026-05-09T06:14:15.083Z</time>
      </trkpt>
      <trkpt lat="47.84277" lon="6.96754">
        <ele>949</ele>
        <time>2026-05-09T06:14:16.083Z</time>
      </trkpt>
      <trkpt lat="47.84276" lon="6.96756">
        <ele>950</ele>
        <time>2026-05-09T06:14:17.084Z</time>
      </trkpt>
      <trkpt lat="47.84275" lon="6.96757">
        <ele>950</ele>
        <time>2026-05-09T06:14:18.084Z</time>
      </trkpt>
      <trkpt lat="47.84275" lon="6.96757">
        <ele>950</ele>
        <time>2026-05-09T06:14:19.084Z</time>
      </trkpt>
      <trkpt lat="47.84274" lon="6.96757">
        <ele>951</ele>
        <time>2026-05-09T06:14:20.083Z</time>
      </trkpt>
      <trkpt lat="47.84272" lon="6.96755">
        <ele>951</ele>
        <time>2026-05-09T06:14:21.083Z</time>
      </trkpt>
      <trkpt lat="47.84271" lon="6.96753">
        <ele>951</ele>
        <time>2026-05-09T06:14:22.084Z</time>
      </trkpt>
      <trkpt lat="47.8427" lon="6.96752">
        <ele>952</ele>
        <time>2026-05-09T06:14:23.083Z</time>
      </trkpt>
      <trkpt lat="47.8427" lon="6.9675">
        <ele>952</ele>
        <time>2026-05-09T06:14:24.083Z</time>
      </trkpt>
      <trkpt lat="47.8427" lon="6.96749">
        <ele>952</ele>
        <time>2026-05-09T06:14:25.083Z</time>
      </trkpt>
      <trkpt lat="47.8427" lon="6.96749">
        <ele>952</ele>
        <time>2026-05-09T06:14:26.084Z</time>
      </trkpt>
      <trkpt lat="47.84271" lon="6.96748">
        <ele>952</ele>
        <time>2026-05-09T06:14:27.083Z</time>
      </trkpt>
      <trkpt lat="47.84271" lon="6.96747">
        <ele>952</ele>
        <time>2026-05-09T06:14:28.083Z</time>
      </trkpt>
      <trkpt lat="47.8427" lon="6.96746">
        <ele>952</ele>
        <time>2026-05-09T06:14:29.084Z</time>
      </trkpt>
      <trkpt lat="47.84269" lon="6.96745">
        <ele>951</ele>
        <time>2026-05-09T06:14:30.083Z</time>
      </trkpt>
      <trkpt lat="47.84269" lon="6.96744">
        <ele>951</ele>
        <time>2026-05-09T06:14:31.083Z</time>
      </trkpt>
      <trkpt lat="47.84269" lon="6.96743">
        <ele>951</ele>
        <time>2026-05-09T06:14:32.084Z</time>
      </trkpt>
      <trkpt lat="47.8427" lon="6.96743">
        <ele>951</ele>
        <time>2026-05-09T06:14:33.083Z</time>
      </trkpt>
      <trkpt lat="47.8427" lon="6.96741">
        <ele>951</ele>
        <time>2026-05-09T06:14:34.084Z</time>
      </trkpt>
      <trkpt lat="47.8427" lon="6.96739">
        <ele>950</ele>
        <time>2026-05-09T06:14:35.083Z</time>
      </trkpt>
      <trkpt lat="47.8427" lon="6.96737">
        <ele>950</ele>
        <time>2026-05-09T06:14:36.084Z</time>
      </trkpt>
      <trkpt lat="47.84271" lon="6.96735">
        <ele>950</ele>
        <time>2026-05-09T06:14:37.084Z</time>
      </trkpt>
      <trkpt lat="47.84271" lon="6.96734">
        <ele>950</ele>
        <time>2026-05-09T06:14:38.083Z</time>
      </trkpt>
      <trkpt lat="47.84271" lon="6.96732">
        <ele>950</ele>
        <time>2026-05-09T06:14:39.084Z</time>
      </trkpt>
      <trkpt lat="47.84272" lon="6.96732">
        <ele>950</ele>
        <time>2026-05-09T06:14:40.083Z</time>
      </trkpt>
      <trkpt lat="47.84271" lon="6.9673">
        <ele>950</ele>
        <time>2026-05-09T06:14:41.083Z</time>
      </trkpt>
      <trkpt lat="47.84271" lon="6.96729">
        <ele>951</ele>
        <time>2026-05-09T06:14:42.083Z</time>
      </trkpt>
      <trkpt lat="47.8427" lon="6.96728">
        <ele>951</ele>
        <time>2026-05-09T06:14:43.084Z</time>
      </trkpt>
      <trkpt lat="47.8427" lon="6.96726">
        <ele>951</ele>
        <time>2026-05-09T06:14:44.083Z</time>
      </trkpt>
      <trkpt lat="47.84269" lon="6.96724">
        <ele>952</ele>
        <time>2026-05-09T06:14:45.083Z</time>
      </trkpt>
      <trkpt lat="47.84269" lon="6.96723">
        <ele>952</ele>
        <time>2026-05-09T06:14:46.083Z</time>
      </trkpt>
      <trkpt lat="47.84268" lon="6.96722">
        <ele>952</ele>
        <time>2026-05-09T06:14:47.083Z</time>
      </trkpt>
      <trkpt lat="47.84268" lon="6.9672">
        <ele>953</ele>
        <time>2026-05-09T06:14:48.083Z</time>
      </trkpt>
      <trkpt lat="47.84268" lon="6.96718">
        <ele>953</ele>
        <time>2026-05-09T06:14:49.083Z</time>
      </trkpt>
      <trkpt lat="47.84268" lon="6.96716">
        <ele>953</ele>
        <time>2026-05-09T06:14:50.084Z</time>
      </trkpt>
      <trkpt lat="47.84268" lon="6.96713">
        <ele>953</ele>
        <time>2026-05-09T06:14:51.084Z</time>
      </trkpt>
      <trkpt lat="47.84268" lon="6.96711">
        <ele>953</ele>
        <time>2026-05-09T06:14:52.084Z</time>
      </trkpt>
      <trkpt lat="47.8427" lon="6.9671">
        <ele>953</ele>
        <time>2026-05-09T06:14:53.083Z</time>
      </trkpt>
      <trkpt lat="47.84269" lon="6.96709">
        <ele>953</ele>
        <time>2026-05-09T06:14:54.083Z</time>
      </trkpt>
      <trkpt lat="47.84268" lon="6.96707">
        <ele>953</ele>
        <time>2026-05-09T06:14:55.083Z</time>
      </trkpt>
      <trkpt lat="47.84268" lon="6.96706">
        <ele>953</ele>
        <time>2026-05-09T06:14:56.084Z</time>
      </trkpt>
      <trkpt lat="47.84267" lon="6.96704">
        <ele>954</ele>
        <time>2026-05-09T06:14:57.083Z</time>
      </trkpt>
      <trkpt lat="47.84267" lon="6.96703">
        <ele>954</ele>
        <time>2026-05-09T06:14:58.083Z</time>
      </trkpt>
      <trkpt lat="47.84267" lon="6.96701">
        <ele>954</ele>
        <time>2026-05-09T06:14:59.084Z</time>
      </trkpt>
      <trkpt lat="47.84268" lon="6.967">
        <ele>954</ele>
        <time>2026-05-09T06:15:00.083Z</time>
      </trkpt>
      <trkpt lat="47.84269" lon="6.96699">
        <ele>954</ele>
        <time>2026-05-09T06:15:01.083Z</time>
      </trkpt>
      <trkpt lat="47.84269" lon="6.96699">
        <ele>954</ele>
        <time>2026-05-09T06:15:02.084Z</time>
      </trkpt>
      <trkpt lat="47.8427" lon="6.96698">
        <ele>953</ele>
        <time>2026-05-09T06:15:03.083Z</time>
      </trkpt>
      <trkpt lat="47.84269" lon="6.96698">
        <ele>953</ele>
        <time>2026-05-09T06:15:04.084Z</time>
      </trkpt>
      <trkpt lat="47.84269" lon="6.96697">
        <ele>954</ele>
        <time>2026-05-09T06:15:05.083Z</time>
      </trkpt>
      <trkpt lat="47.8427" lon="6.96697">
        <ele>954</ele>
        <time>2026-05-09T06:15:06.083Z</time>
      </trkpt>
      <trkpt lat="47.8427" lon="6.96696">
        <ele>954</ele>
        <time>2026-05-09T06:15:07.084Z</time>
      </trkpt>
      <trkpt lat="47.8427" lon="6.96695">
        <ele>954</ele>
        <time>2026-05-09T06:15:08.083Z</time>
      </trkpt>
      <trkpt lat="47.8427" lon="6.96694">
        <ele>954</ele>
        <time>2026-05-09T06:15:09.084Z</time>
      </trkpt>
      <trkpt lat="47.8427" lon="6.96693">
        <ele>954</ele>
        <time>2026-05-09T06:15:10.083Z</time>
      </trkpt>
      <trkpt lat="47.8427" lon="6.96693">
        <ele>954</ele>
        <time>2026-05-09T06:15:11.084Z</time>
      </trkpt>
      <trkpt lat="47.84271" lon="6.96692">
        <ele>954</ele>
        <time>2026-05-09T06:15:12.083Z</time>
      </trkpt>
      <trkpt lat="47.84271" lon="6.96691">
        <ele>955</ele>
        <time>2026-05-09T06:15:13.084Z</time>
      </trkpt>
      <trkpt lat="47.84272" lon="6.9669">
        <ele>955</ele>
        <time>2026-05-09T06:15:14.083Z</time>
      </trkpt>
      <trkpt lat="47.84273" lon="6.96689">
        <ele>956</ele>
        <time>2026-05-09T06:15:15.083Z</time>
      </trkpt>
      <trkpt lat="47.84273" lon="6.96689">
        <ele>956</ele>
        <time>2026-05-09T06:15:16.083Z</time>
      </trkpt>
      <trkpt lat="47.84274" lon="6.96688">
        <ele>957</ele>
        <time>2026-05-09T06:15:17.084Z</time>
      </trkpt>
      <trkpt lat="47.84273" lon="6.96687">
        <ele>957</ele>
        <time>2026-05-09T06:15:18.083Z</time>
      </trkpt>
      <trkpt lat="47.84273" lon="6.96687">
        <ele>958</ele>
        <time>2026-05-09T06:15:19.084Z</time>
      </trkpt>
      <trkpt lat="47.84273" lon="6.96685">
        <ele>958</ele>
        <time>2026-05-09T06:15:20.083Z</time>
      </trkpt>
      <trkpt lat="47.84273" lon="6.96683">
        <ele>958</ele>
        <time>2026-05-09T06:15:21.084Z</time>
      </trkpt>
      <trkpt lat="47.84273" lon="6.96683">
        <ele>959</ele>
        <time>2026-05-09T06:15:22.084Z</time>
      </trkpt>
      <trkpt lat="47.84273" lon="6.96682">
        <ele>959</ele>
        <time>2026-05-09T06:15:23.084Z</time>
      </trkpt>
      <trkpt lat="47.84274" lon="6.96681">
        <ele>959</ele>
        <time>2026-05-09T06:15:24.084Z</time>
      </trkpt>
      <trkpt lat="47.84274" lon="6.96679">
        <ele>959</ele>
        <time>2026-05-09T06:15:25.084Z</time>
      </trkpt>
      <trkpt lat="47.84273" lon="6.96679">
        <ele>959</ele>
        <time>2026-05-09T06:15:26.083Z</time>
      </trkpt>
      <trkpt lat="47.84273" lon="6.96678">
        <ele>959</ele>
        <time>2026-05-09T06:15:27.083Z</time>
      </trkpt>
      <trkpt lat="47.84274" lon="6.96678">
        <ele>959</ele>
        <time>2026-05-09T06:15:28.084Z</time>
      </trkpt>
      <trkpt lat="47.84274" lon="6.96677">
        <ele>959</ele>
        <time>2026-05-09T06:15:29.083Z</time>
      </trkpt>
      <trkpt lat="47.84275" lon="6.96676">
        <ele>959</ele>
        <time>2026-05-09T06:15:30.084Z</time>
      </trkpt>
      <trkpt lat="47.84275" lon="6.96675">
        <ele>959</ele>
        <time>2026-05-09T06:15:31.083Z</time>
      </trkpt>
      <trkpt lat="47.84276" lon="6.96674">
        <ele>960</ele>
        <time>2026-05-09T06:15:32.084Z</time>
      </trkpt>
      <trkpt lat="47.84276" lon="6.96674">
        <ele>960</ele>
        <time>2026-05-09T06:15:33.083Z</time>
      </trkpt>
      <trkpt lat="47.84276" lon="6.96673">
        <ele>960</ele>
        <time>2026-05-09T06:15:34.083Z</time>
      </trkpt>
      <trkpt lat="47.84276" lon="6.96672">
        <ele>960</ele>
        <time>2026-05-09T06:15:35.083Z</time>
      </trkpt>
      <trkpt lat="47.84276" lon="6.9667">
        <ele>959</ele>
        <time>2026-05-09T06:15:36.084Z</time>
      </trkpt>
      <trkpt lat="47.84276" lon="6.9667">
        <ele>959</ele>
        <time>2026-05-09T06:15:37.084Z</time>
      </trkpt>
      <trkpt lat="47.84276" lon="6.96668">
        <ele>959</ele>
        <time>2026-05-09T06:15:38.084Z</time>
      </trkpt>
      <trkpt lat="47.84276" lon="6.96667">
        <ele>959</ele>
        <time>2026-05-09T06:15:39.083Z</time>
      </trkpt>
      <trkpt lat="47.84277" lon="6.96666">
        <ele>959</ele>
        <time>2026-05-09T06:15:40.083Z</time>
      </trkpt>
      <trkpt lat="47.84277" lon="6.96664">
        <ele>958</ele>
        <time>2026-05-09T06:15:41.084Z</time>
      </trkpt>
      <trkpt lat="47.84276" lon="6.96663">
        <ele>958</ele>
        <time>2026-05-09T06:15:42.084Z</time>
      </trkpt>
      <trkpt lat="47.84276" lon="6.96662">
        <ele>958</ele>
        <time>2026-05-09T06:15:43.083Z</time>
      </trkpt>
      <trkpt lat="47.84276" lon="6.96661">
        <ele>958</ele>
        <time>2026-05-09T06:15:44.084Z</time>
      </trkpt>
      <trkpt lat="47.84276" lon="6.96659">
        <ele>958</ele>
        <time>2026-05-09T06:15:45.084Z</time>
      </trkpt>
      <trkpt lat="47.84277" lon="6.96658">
        <ele>958</ele>
        <time>2026-05-09T06:15:46.083Z</time>
      </trkpt>
      <trkpt lat="47.84278" lon="6.96657">
        <ele>958</ele>
        <time>2026-05-09T06:15:47.084Z</time>
      </trkpt>
      <trkpt lat="47.84279" lon="6.96656">
        <ele>958</ele>
        <time>2026-05-09T06:15:48.083Z</time>
      </trkpt>
      <trkpt lat="47.84279" lon="6.96655">
        <ele>958</ele>
        <time>2026-05-09T06:15:49.083Z</time>
      </trkpt>
      <trkpt lat="47.84279" lon="6.96654">
        <ele>958</ele>
        <time>2026-05-09T06:15:50.083Z</time>
      </trkpt>
      <trkpt lat="47.84279" lon="6.96653">
        <ele>958</ele>
        <time>2026-05-09T06:15:51.083Z</time>
      </trkpt>
      <trkpt lat="47.8428" lon="6.96652">
        <ele>959</ele>
        <time>2026-05-09T06:15:52.084Z</time>
      </trkpt>
      <trkpt lat="47.8428" lon="6.96651">
        <ele>959</ele>
        <time>2026-05-09T06:15:53.083Z</time>
      </trkpt>
      <trkpt lat="47.8428" lon="6.9665">
        <ele>959</ele>
        <time>2026-05-09T06:15:54.083Z</time>
      </trkpt>
      <trkpt lat="47.84281" lon="6.96648">
        <ele>959</ele>
        <time>2026-05-09T06:15:55.083Z</time>
      </trkpt>
      <trkpt lat="47.84281" lon="6.96646">
        <ele>959</ele>
        <time>2026-05-09T06:15:56.084Z</time>
      </trkpt>
      <trkpt lat="47.84282" lon="6.96644">
        <ele>960</ele>
        <time>2026-05-09T06:15:57.084Z</time>
      </trkpt>
      <trkpt lat="47.84282" lon="6.96643">
        <ele>960</ele>
        <time>2026-05-09T06:15:58.083Z</time>
      </trkpt>
      <trkpt lat="47.84282" lon="6.96642">
        <ele>961</ele>
        <time>2026-05-09T06:15:59.083Z</time>
      </trkpt>
      <trkpt lat="47.84282" lon="6.9664">
        <ele>962</ele>
        <time>2026-05-09T06:16:00.083Z</time>
      </trkpt>
      <trkpt lat="47.84282" lon="6.9664">
        <ele>963</ele>
        <time>2026-05-09T06:16:01.083Z</time>
      </trkpt>
      <trkpt lat="47.84283" lon="6.96639">
        <ele>963</ele>
        <time>2026-05-09T06:16:02.083Z</time>
      </trkpt>
      <trkpt lat="47.84283" lon="6.96639">
        <ele>964</ele>
        <time>2026-05-09T06:16:03.084Z</time>
      </trkpt>
      <trkpt lat="47.84283" lon="6.96638">
        <ele>964</ele>
        <time>2026-05-09T06:16:04.083Z</time>
      </trkpt>
      <trkpt lat="47.84284" lon="6.96638">
        <ele>965</ele>
        <time>2026-05-09T06:16:05.083Z</time>
      </trkpt>
      <trkpt lat="47.84285" lon="6.96637">
        <ele>966</ele>
        <time>2026-05-09T06:16:06.084Z</time>
      </trkpt>
      <trkpt lat="47.84285" lon="6.96637">
        <ele>966</ele>
        <time>2026-05-09T06:16:07.083Z</time>
      </trkpt>
      <trkpt lat="47.84285" lon="6.96636">
        <ele>967</ele>
        <time>2026-05-09T06:16:08.083Z</time>
      </trkpt>
      <trkpt lat="47.84285" lon="6.96635">
        <ele>967</ele>
        <time>2026-05-09T06:16:09.084Z</time>
      </trkpt>
      <trkpt lat="47.84286" lon="6.96635">
        <ele>967</ele>
        <time>2026-05-09T06:16:10.083Z</time>
      </trkpt>
      <trkpt lat="47.84286" lon="6.96633">
        <ele>968</ele>
        <time>2026-05-09T06:16:11.083Z</time>
      </trkpt>
      <trkpt lat="47.84286" lon="6.96632">
        <ele>968</ele>
        <time>2026-05-09T06:16:12.083Z</time>
      </trkpt>
      <trkpt lat="47.84286" lon="6.96631">
        <ele>969</ele>
        <time>2026-05-09T06:16:13.084Z</time>
      </trkpt>
      <trkpt lat="47.84285" lon="6.96631">
        <ele>970</ele>
        <time>2026-05-09T06:16:14.083Z</time>
      </trkpt>
      <trkpt lat="47.84285" lon="6.96629">
        <ele>970</ele>
        <time>2026-05-09T06:16:15.083Z</time>
      </trkpt>
      <trkpt lat="47.84285" lon="6.96629">
        <ele>971</ele>
        <time>2026-05-09T06:16:16.084Z</time>
      </trkpt>
      <trkpt lat="47.84285" lon="6.96629">
        <ele>971</ele>
        <time>2026-05-09T06:16:17.083Z</time>
      </trkpt>
      <trkpt lat="47.84285" lon="6.96627">
        <ele>971</ele>
        <time>2026-05-09T06:16:18.083Z</time>
      </trkpt>
      <trkpt lat="47.84285" lon="6.96626">
        <ele>971</ele>
        <time>2026-05-09T06:16:19.084Z</time>
      </trkpt>
      <trkpt lat="47.84286" lon="6.96625">
        <ele>972</ele>
        <time>2026-05-09T06:16:20.083Z</time>
      </trkpt>
      <trkpt lat="47.84286" lon="6.96625">
        <ele>972</ele>
        <time>2026-05-09T06:16:21.083Z</time>
      </trkpt>
      <trkpt lat="47.84286" lon="6.96624">
        <ele>972</ele>
        <time>2026-05-09T06:16:22.083Z</time>
      </trkpt>
      <trkpt lat="47.84286" lon="6.96623">
        <ele>973</ele>
        <time>2026-05-09T06:16:23.083Z</time>
      </trkpt>
      <trkpt lat="47.84286" lon="6.96622">
        <ele>973</ele>
        <time>2026-05-09T06:16:24.083Z</time>
      </trkpt>
      <trkpt lat="47.84286" lon="6.96622">
        <ele>973</ele>
        <time>2026-05-09T06:16:25.083Z</time>
      </trkpt>
      <trkpt lat="47.84286" lon="6.96621">
        <ele>974</ele>
        <time>2026-05-09T06:16:26.083Z</time>
      </trkpt>
      <trkpt lat="47.84286" lon="6.96621">
        <ele>974</ele>
        <time>2026-05-09T06:16:27.084Z</time>
      </trkpt>
      <trkpt lat="47.84286" lon="6.9662">
        <ele>974</ele>
        <time>2026-05-09T06:16:28.083Z</time>
      </trkpt>
      <trkpt lat="47.84286" lon="6.9662">
        <ele>975</ele>
        <time>2026-05-09T06:16:29.083Z</time>
      </trkpt>
      <trkpt lat="47.84286" lon="6.9662">
        <ele>975</ele>
        <time>2026-05-09T06:16:30.083Z</time>
      </trkpt>
      <trkpt lat="47.84287" lon="6.96616">
        <ele>975</ele>
        <time>2026-05-09T06:16:36.520Z</time>
      </trkpt>
      <trkpt lat="47.84287" lon="6.96615">
        <ele>975</ele>
        <time>2026-05-09T06:16:37.521Z</time>
      </trkpt>
      <trkpt lat="47.84288" lon="6.96614">
        <ele>975</ele>
        <time>2026-05-09T06:16:38.521Z</time>
      </trkpt>
      <trkpt lat="47.84288" lon="6.96613">
        <ele>974</ele>
        <time>2026-05-09T06:16:39.521Z</time>
      </trkpt>
      <trkpt lat="47.84289" lon="6.96612">
        <ele>974</ele>
        <time>2026-05-09T06:16:40.520Z</time>
      </trkpt>
      <trkpt lat="47.84289" lon="6.96611">
        <ele>973</ele>
        <time>2026-05-09T06:16:41.520Z</time>
      </trkpt>
      <trkpt lat="47.84289" lon="6.96611">
        <ele>974</ele>
        <time>2026-05-09T06:16:42.521Z</time>
      </trkpt>
      <trkpt lat="47.8429" lon="6.9661">
        <ele>974</ele>
        <time>2026-05-09T06:16:43.520Z</time>
      </trkpt>
      <trkpt lat="47.8429" lon="6.9661">
        <ele>974</ele>
        <time>2026-05-09T06:16:44.520Z</time>
      </trkpt>
      <trkpt lat="47.8429" lon="6.9661">
        <ele>974</ele>
        <time>2026-05-09T06:16:45.521Z</time>
      </trkpt>
      <trkpt lat="47.84291" lon="6.96605">
        <ele>977</ele>
        <time>2026-05-09T06:16:51.874Z</time>
      </trkpt>
      <trkpt lat="47.84291" lon="6.96604">
        <ele>978</ele>
        <time>2026-05-09T06:16:52.874Z</time>
      </trkpt>
      <trkpt lat="47.84291" lon="6.96603">
        <ele>979</ele>
        <time>2026-05-09T06:16:53.875Z</time>
      </trkpt>
      <trkpt lat="47.84292" lon="6.96602">
        <ele>979</ele>
        <time>2026-05-09T06:16:54.874Z</time>
      </trkpt>
      <trkpt lat="47.84292" lon="6.96601">
        <ele>979</ele>
        <time>2026-05-09T06:16:55.875Z</time>
      </trkpt>
      <trkpt lat="47.84292" lon="6.966">
        <ele>980</ele>
        <time>2026-05-09T06:16:56.874Z</time>
      </trkpt>
      <trkpt lat="47.84292" lon="6.96599">
        <ele>981</ele>
        <time>2026-05-09T06:16:57.874Z</time>
      </trkpt>
      <trkpt lat="47.84293" lon="6.96598">
        <ele>981</ele>
        <time>2026-05-09T06:16:58.875Z</time>
      </trkpt>
      <trkpt lat="47.84293" lon="6.96597">
        <ele>982</ele>
        <time>2026-05-09T06:16:59.874Z</time>
      </trkpt>
      <trkpt lat="47.84294" lon="6.96597">
        <ele>982</ele>
        <time>2026-05-09T06:17:00.874Z</time>
      </trkpt>
      <trkpt lat="47.84294" lon="6.96596">
        <ele>983</ele>
        <time>2026-05-09T06:17:01.875Z</time>
      </trkpt>
      <trkpt lat="47.84294" lon="6.96596">
        <ele>984</ele>
        <time>2026-05-09T06:17:02.875Z</time>
      </trkpt>
      <trkpt lat="47.84294" lon="6.96595">
        <ele>984</ele>
        <time>2026-05-09T06:17:03.874Z</time>
      </trkpt>
      <trkpt lat="47.84294" lon="6.96595">
        <ele>985</ele>
        <time>2026-05-09T06:17:04.874Z</time>
      </trkpt>
      <trkpt lat="47.84295" lon="6.96594">
        <ele>985</ele>
        <time>2026-05-09T06:17:05.874Z</time>
      </trkpt>
      <trkpt lat="47.84296" lon="6.96593">
        <ele>985</ele>
        <time>2026-05-09T06:17:06.874Z</time>
      </trkpt>
      <trkpt lat="47.84296" lon="6.96592">
        <ele>985</ele>
        <time>2026-05-09T06:17:07.874Z</time>
      </trkpt>
      <trkpt lat="47.84297" lon="6.96591">
        <ele>985</ele>
        <time>2026-05-09T06:17:08.874Z</time>
      </trkpt>
      <trkpt lat="47.84297" lon="6.9659">
        <ele>985</ele>
        <time>2026-05-09T06:17:09.874Z</time>
      </trkpt>
      <trkpt lat="47.84298" lon="6.96589">
        <ele>985</ele>
        <time>2026-05-09T06:17:10.874Z</time>
      </trkpt>
      <trkpt lat="47.84299" lon="6.96587">
        <ele>985</ele>
        <time>2026-05-09T06:17:11.875Z</time>
      </trkpt>
      <trkpt lat="47.843" lon="6.96586">
        <ele>985</ele>
        <time>2026-05-09T06:17:12.874Z</time>
      </trkpt>
      <trkpt lat="47.843" lon="6.96586">
        <ele>985</ele>
        <time>2026-05-09T06:17:13.875Z</time>
      </trkpt>
      <trkpt lat="47.84301" lon="6.96584">
        <ele>985</ele>
        <time>2026-05-09T06:17:14.875Z</time>
      </trkpt>
      <trkpt lat="47.84301" lon="6.96582">
        <ele>985</ele>
        <time>2026-05-09T06:17:15.874Z</time>
      </trkpt>
      <trkpt lat="47.84301" lon="6.96581">
        <ele>986</ele>
        <time>2026-05-09T06:17:16.875Z</time>
      </trkpt>
      <trkpt lat="47.84301" lon="6.9658">
        <ele>986</ele>
        <time>2026-05-09T06:17:17.875Z</time>
      </trkpt>
      <trkpt lat="47.84301" lon="6.96579">
        <ele>986</ele>
        <time>2026-05-09T06:17:18.874Z</time>
      </trkpt>
      <trkpt lat="47.843" lon="6.96578">
        <ele>986</ele>
        <time>2026-05-09T06:17:19.875Z</time>
      </trkpt>
      <trkpt lat="47.843" lon="6.96576">
        <ele>986</ele>
        <time>2026-05-09T06:17:20.875Z</time>
      </trkpt>
      <trkpt lat="47.843" lon="6.96575">
        <ele>986</ele>
        <time>2026-05-09T06:17:21.875Z</time>
      </trkpt>
      <trkpt lat="47.84301" lon="6.96575">
        <ele>986</ele>
        <time>2026-05-09T06:17:22.874Z</time>
      </trkpt>
      <trkpt lat="47.84301" lon="6.96574">
        <ele>987</ele>
        <time>2026-05-09T06:17:23.875Z</time>
      </trkpt>
      <trkpt lat="47.84302" lon="6.96573">
        <ele>987</ele>
        <time>2026-05-09T06:17:24.874Z</time>
      </trkpt>
      <trkpt lat="47.84302" lon="6.96573">
        <ele>987</ele>
        <time>2026-05-09T06:17:25.875Z</time>
      </trkpt>
      <trkpt lat="47.84302" lon="6.96573">
        <ele>987</ele>
        <time>2026-05-09T06:17:26.875Z</time>
      </trkpt>
      <trkpt lat="47.84303" lon="6.96572">
        <ele>988</ele>
        <time>2026-05-09T06:17:27.875Z</time>
      </trkpt>
      <trkpt lat="47.84303" lon="6.96571">
        <ele>988</ele>
        <time>2026-05-09T06:17:28.874Z</time>
      </trkpt>
      <trkpt lat="47.84303" lon="6.96569">
        <ele>989</ele>
        <time>2026-05-09T06:17:29.874Z</time>
      </trkpt>
      <trkpt lat="47.84304" lon="6.96568">
        <ele>989</ele>
        <time>2026-05-09T06:17:30.874Z</time>
      </trkpt>
      <trkpt lat="47.84304" lon="6.96568">
        <ele>989</ele>
        <time>2026-05-09T06:17:31.874Z</time>
      </trkpt>
      <trkpt lat="47.84304" lon="6.96568">
        <ele>989</ele>
        <time>2026-05-09T06:17:32.875Z</time>
      </trkpt>
      <trkpt lat="47.84305" lon="6.96567">
        <ele>990</ele>
        <time>2026-05-09T06:17:33.875Z</time>
      </trkpt>
      <trkpt lat="47.84306" lon="6.96567">
        <ele>990</ele>
        <time>2026-05-09T06:17:34.874Z</time>
      </trkpt>
      <trkpt lat="47.84306" lon="6.96565">
        <ele>990</ele>
        <time>2026-05-09T06:17:35.874Z</time>
      </trkpt>
      <trkpt lat="47.84307" lon="6.96564">
        <ele>990</ele>
        <time>2026-05-09T06:17:36.874Z</time>
      </trkpt>
      <trkpt lat="47.84308" lon="6.96563">
        <ele>989</ele>
        <time>2026-05-09T06:17:37.874Z</time>
      </trkpt>
      <trkpt lat="47.84309" lon="6.96562">
        <ele>989</ele>
        <time>2026-05-09T06:17:38.875Z</time>
      </trkpt>
      <trkpt lat="47.8431" lon="6.96561">
        <ele>989</ele>
        <time>2026-05-09T06:17:39.874Z</time>
      </trkpt>
      <trkpt lat="47.84309" lon="6.9656">
        <ele>989</ele>
        <time>2026-05-09T06:17:40.874Z</time>
      </trkpt>
      <trkpt lat="47.84309" lon="6.96558">
        <ele>989</ele>
        <time>2026-05-09T06:17:41.874Z</time>
      </trkpt>
      <trkpt lat="47.84309" lon="6.96558">
        <ele>989</ele>
        <time>2026-05-09T06:17:42.874Z</time>
      </trkpt>
      <trkpt lat="47.8431" lon="6.96558">
        <ele>990</ele>
        <time>2026-05-09T06:17:43.875Z</time>
      </trkpt>
      <trkpt lat="47.8431" lon="6.96557">
        <ele>990</ele>
        <time>2026-05-09T06:17:44.874Z</time>
      </trkpt>
      <trkpt lat="47.84311" lon="6.96555">
        <ele>990</ele>
        <time>2026-05-09T06:17:45.874Z</time>
      </trkpt>
      <trkpt lat="47.84311" lon="6.96554">
        <ele>990</ele>
        <time>2026-05-09T06:17:46.874Z</time>
      </trkpt>
      <trkpt lat="47.84312" lon="6.96553">
        <ele>990</ele>
        <time>2026-05-09T06:17:47.875Z</time>
      </trkpt>
      <trkpt lat="47.84312" lon="6.96551">
        <ele>990</ele>
        <time>2026-05-09T06:17:48.874Z</time>
      </trkpt>
      <trkpt lat="47.84313" lon="6.9655">
        <ele>990</ele>
        <time>2026-05-09T06:17:49.874Z</time>
      </trkpt>
      <trkpt lat="47.84313" lon="6.96549">
        <ele>990</ele>
        <time>2026-05-09T06:17:50.875Z</time>
      </trkpt>
      <trkpt lat="47.84313" lon="6.96549">
        <ele>991</ele>
        <time>2026-05-09T06:17:51.875Z</time>
      </trkpt>
      <trkpt lat="47.84314" lon="6.96549">
        <ele>991</ele>
        <time>2026-05-09T06:17:52.875Z</time>
      </trkpt>
      <trkpt lat="47.84315" lon="6.96548">
        <ele>991</ele>
        <time>2026-05-09T06:17:53.874Z</time>
      </trkpt>
      <trkpt lat="47.84315" lon="6.96548">
        <ele>991</ele>
        <time>2026-05-09T06:17:54.874Z</time>
      </trkpt>
      <trkpt lat="47.84315" lon="6.96548">
        <ele>991</ele>
        <time>2026-05-09T06:17:55.874Z</time>
      </trkpt>
      <trkpt lat="47.84316" lon="6.96547">
        <ele>992</ele>
        <time>2026-05-09T06:17:56.874Z</time>
      </trkpt>
      <trkpt lat="47.84316" lon="6.96546">
        <ele>992</ele>
        <time>2026-05-09T06:17:57.875Z</time>
      </trkpt>
      <trkpt lat="47.84317" lon="6.96545">
        <ele>992</ele>
        <time>2026-05-09T06:17:58.875Z</time>
      </trkpt>
      <trkpt lat="47.84318" lon="6.96544">
        <ele>992</ele>
        <time>2026-05-09T06:17:59.875Z</time>
      </trkpt>
      <trkpt lat="47.84319" lon="6.96544">
        <ele>992</ele>
        <time>2026-05-09T06:18:00.874Z</time>
      </trkpt>
      <trkpt lat="47.84319" lon="6.96544">
        <ele>993</ele>
        <time>2026-05-09T06:18:01.874Z</time>
      </trkpt>
      <trkpt lat="47.8432" lon="6.96544">
        <ele>993</ele>
        <time>2026-05-09T06:18:02.874Z</time>
      </trkpt>
      <trkpt lat="47.8432" lon="6.96543">
        <ele>993</ele>
        <time>2026-05-09T06:18:03.874Z</time>
      </trkpt>
      <trkpt lat="47.84321" lon="6.96543">
        <ele>994</ele>
        <time>2026-05-09T06:18:04.874Z</time>
      </trkpt>
      <trkpt lat="47.84321" lon="6.96542">
        <ele>994</ele>
        <time>2026-05-09T06:18:05.874Z</time>
      </trkpt>
      <trkpt lat="47.84325" lon="6.96537">
        <ele>997</ele>
        <time>2026-05-09T06:18:11.248Z</time>
      </trkpt>
      <trkpt lat="47.84326" lon="6.96536">
        <ele>997</ele>
        <time>2026-05-09T06:18:12.249Z</time>
      </trkpt>
      <trkpt lat="47.84326" lon="6.96536">
        <ele>997</ele>
        <time>2026-05-09T06:18:13.248Z</time>
      </trkpt>
      <trkpt lat="47.84326" lon="6.96536">
        <ele>997</ele>
        <time>2026-05-09T06:18:14.249Z</time>
      </trkpt>
      <trkpt lat="47.84327" lon="6.96532">
        <ele>999</ele>
        <time>2026-05-09T06:18:20.691Z</time>
      </trkpt>
      <trkpt lat="47.84328" lon="6.96531">
        <ele>999</ele>
        <time>2026-05-09T06:18:21.690Z</time>
      </trkpt>
      <trkpt lat="47.84329" lon="6.96531">
        <ele>999</ele>
        <time>2026-05-09T06:18:22.691Z</time>
      </trkpt>
      <trkpt lat="47.84331" lon="6.9653">
        <ele>999</ele>
        <time>2026-05-09T06:18:23.690Z</time>
      </trkpt>
      <trkpt lat="47.84331" lon="6.96529">
        <ele>999</ele>
        <time>2026-05-09T06:18:24.691Z</time>
      </trkpt>
      <trkpt lat="47.84332" lon="6.96528">
        <ele>998</ele>
        <time>2026-05-09T06:18:25.690Z</time>
      </trkpt>
      <trkpt lat="47.84333" lon="6.96528">
        <ele>998</ele>
        <time>2026-05-09T06:18:26.691Z</time>
      </trkpt>
      <trkpt lat="47.84333" lon="6.96528">
        <ele>997</ele>
        <time>2026-05-09T06:18:27.691Z</time>
      </trkpt>
      <trkpt lat="47.84333" lon="6.96527">
        <ele>997</ele>
        <time>2026-05-09T06:18:28.691Z</time>
      </trkpt>
      <trkpt lat="47.84334" lon="6.96527">
        <ele>997</ele>
        <time>2026-05-09T06:18:29.690Z</time>
      </trkpt>
      <trkpt lat="47.84334" lon="6.96526">
        <ele>997</ele>
        <time>2026-05-09T06:18:30.691Z</time>
      </trkpt>
      <trkpt lat="47.84334" lon="6.96526">
        <ele>996</ele>
        <time>2026-05-09T06:18:31.690Z</time>
      </trkpt>
      <trkpt lat="47.84334" lon="6.96525">
        <ele>996</ele>
        <time>2026-05-09T06:18:32.691Z</time>
      </trkpt>
      <trkpt lat="47.84335" lon="6.96524">
        <ele>996</ele>
        <time>2026-05-09T06:18:33.690Z</time>
      </trkpt>
      <trkpt lat="47.84337" lon="6.96523">
        <ele>997</ele>
        <time>2026-05-09T06:18:34.691Z</time>
      </trkpt>
      <trkpt lat="47.84337" lon="6.96523">
        <ele>997</ele>
        <time>2026-05-09T06:18:35.691Z</time>
      </trkpt>
      <trkpt lat="47.84337" lon="6.96523">
        <ele>997</ele>
        <time>2026-05-09T06:18:36.691Z</time>
      </trkpt>
      <trkpt lat="47.84338" lon="6.96521">
        <ele>997</ele>
        <time>2026-05-09T06:18:37.691Z</time>
      </trkpt>
      <trkpt lat="47.8434" lon="6.9652">
        <ele>998</ele>
        <time>2026-05-09T06:18:38.690Z</time>
      </trkpt>
      <trkpt lat="47.8434" lon="6.9652">
        <ele>998</ele>
        <time>2026-05-09T06:18:39.691Z</time>
      </trkpt>
      <trkpt lat="47.84341" lon="6.96519">
        <ele>998</ele>
        <time>2026-05-09T06:18:40.690Z</time>
      </trkpt>
      <trkpt lat="47.84341" lon="6.96519">
        <ele>998</ele>
        <time>2026-05-09T06:18:41.691Z</time>
      </trkpt>
      <trkpt lat="47.84341" lon="6.96518">
        <ele>998</ele>
        <time>2026-05-09T06:18:42.690Z</time>
      </trkpt>
      <trkpt lat="47.84342" lon="6.96518">
        <ele>998</ele>
        <time>2026-05-09T06:18:43.691Z</time>
      </trkpt>
      <trkpt lat="47.84344" lon="6.96512">
        <ele>1000</ele>
        <time>2026-05-09T06:18:50.047Z</time>
      </trkpt>
      <trkpt lat="47.84344" lon="6.96511">
        <ele>1000</ele>
        <time>2026-05-09T06:18:51.046Z</time>
      </trkpt>
      <trkpt lat="47.84345" lon="6.9651">
        <ele>1001</ele>
        <time>2026-05-09T06:18:52.046Z</time>
      </trkpt>
      <trkpt lat="47.84346" lon="6.96509">
        <ele>1001</ele>
        <time>2026-05-09T06:18:53.046Z</time>
      </trkpt>
      <trkpt lat="47.84346" lon="6.96508">
        <ele>1000</ele>
        <time>2026-05-09T06:18:54.046Z</time>
      </trkpt>
      <trkpt lat="47.84346" lon="6.96508">
        <ele>1000</ele>
        <time>2026-05-09T06:18:55.046Z</time>
      </trkpt>
      <trkpt lat="47.84346" lon="6.96506">
        <ele>1000</ele>
        <time>2026-05-09T06:18:56.047Z</time>
      </trkpt>
      <trkpt lat="47.84346" lon="6.96506">
        <ele>1000</ele>
        <time>2026-05-09T06:18:57.046Z</time>
      </trkpt>
      <trkpt lat="47.84347" lon="6.96504">
        <ele>1000</ele>
        <time>2026-05-09T06:18:58.047Z</time>
      </trkpt>
      <trkpt lat="47.84347" lon="6.96503">
        <ele>1000</ele>
        <time>2026-05-09T06:18:59.046Z</time>
      </trkpt>
      <trkpt lat="47.84348" lon="6.96501">
        <ele>1000</ele>
        <time>2026-05-09T06:19:00.046Z</time>
      </trkpt>
      <trkpt lat="47.84349" lon="6.96499">
        <ele>1000</ele>
        <time>2026-05-09T06:19:01.046Z</time>
      </trkpt>
      <trkpt lat="47.8435" lon="6.96497">
        <ele>1001</ele>
        <time>2026-05-09T06:19:02.046Z</time>
      </trkpt>
      <trkpt lat="47.84351" lon="6.96496">
        <ele>1001</ele>
        <time>2026-05-09T06:19:03.046Z</time>
      </trkpt>
      <trkpt lat="47.84352" lon="6.96494">
        <ele>1001</ele>
        <time>2026-05-09T06:19:04.046Z</time>
      </trkpt>
      <trkpt lat="47.84353" lon="6.96493">
        <ele>1002</ele>
        <time>2026-05-09T06:19:05.047Z</time>
      </trkpt>
      <trkpt lat="47.84354" lon="6.96491">
        <ele>1002</ele>
        <time>2026-05-09T06:19:06.046Z</time>
      </trkpt>
      <trkpt lat="47.84355" lon="6.9649">
        <ele>1003</ele>
        <time>2026-05-09T06:19:07.046Z</time>
      </trkpt>
      <trkpt lat="47.84355" lon="6.96488">
        <ele>1003</ele>
        <time>2026-05-09T06:19:08.046Z</time>
      </trkpt>
      <trkpt lat="47.84356" lon="6.96487">
        <ele>1003</ele>
        <time>2026-05-09T06:19:09.046Z</time>
      </trkpt>
      <trkpt lat="47.84356" lon="6.96486">
        <ele>1003</ele>
        <time>2026-05-09T06:19:10.047Z</time>
      </trkpt>
      <trkpt lat="47.84357" lon="6.96483">
        <ele>1003</ele>
        <time>2026-05-09T06:19:11.046Z</time>
      </trkpt>
      <trkpt lat="47.84359" lon="6.96482">
        <ele>1003</ele>
        <time>2026-05-09T06:19:12.047Z</time>
      </trkpt>
      <trkpt lat="47.84359" lon="6.9648">
        <ele>1003</ele>
        <time>2026-05-09T06:19:13.046Z</time>
      </trkpt>
      <trkpt lat="47.8436" lon="6.96479">
        <ele>1004</ele>
        <time>2026-05-09T06:19:14.046Z</time>
      </trkpt>
      <trkpt lat="47.8436" lon="6.96477">
        <ele>1004</ele>
        <time>2026-05-09T06:19:15.047Z</time>
      </trkpt>
      <trkpt lat="47.84361" lon="6.96475">
        <ele>1004</ele>
        <time>2026-05-09T06:19:16.046Z</time>
      </trkpt>
      <trkpt lat="47.84361" lon="6.96474">
        <ele>1004</ele>
        <time>2026-05-09T06:19:17.047Z</time>
      </trkpt>
      <trkpt lat="47.84362" lon="6.96473">
        <ele>1004</ele>
        <time>2026-05-09T06:19:18.046Z</time>
      </trkpt>
      <trkpt lat="47.84362" lon="6.96471">
        <ele>1004</ele>
        <time>2026-05-09T06:19:19.046Z</time>
      </trkpt>
      <trkpt lat="47.84362" lon="6.9647">
        <ele>1004</ele>
        <time>2026-05-09T06:19:20.046Z</time>
      </trkpt>
      <trkpt lat="47.84363" lon="6.96468">
        <ele>1004</ele>
        <time>2026-05-09T06:19:21.047Z</time>
      </trkpt>
      <trkpt lat="47.84363" lon="6.96467">
        <ele>1004</ele>
        <time>2026-05-09T06:19:22.047Z</time>
      </trkpt>
      <trkpt lat="47.84364" lon="6.96465">
        <ele>1005</ele>
        <time>2026-05-09T06:19:23.047Z</time>
      </trkpt>
      <trkpt lat="47.84364" lon="6.96464">
        <ele>1005</ele>
        <time>2026-05-09T06:19:24.046Z</time>
      </trkpt>
      <trkpt lat="47.84364" lon="6.96463">
        <ele>1005</ele>
        <time>2026-05-09T06:19:25.046Z</time>
      </trkpt>
      <trkpt lat="47.84364" lon="6.96461">
        <ele>1005</ele>
        <time>2026-05-09T06:19:26.046Z</time>
      </trkpt>
      <trkpt lat="47.84365" lon="6.9646">
        <ele>1006</ele>
        <time>2026-05-09T06:19:27.046Z</time>
      </trkpt>
      <trkpt lat="47.84366" lon="6.96458">
        <ele>1006</ele>
        <time>2026-05-09T06:19:28.046Z</time>
      </trkpt>
      <trkpt lat="47.84367" lon="6.96456">
        <ele>1007</ele>
        <time>2026-05-09T06:19:29.046Z</time>
      </trkpt>
      <trkpt lat="47.84367" lon="6.96454">
        <ele>1008</ele>
        <time>2026-05-09T06:19:30.046Z</time>
      </trkpt>
      <trkpt lat="47.84368" lon="6.96453">
        <ele>1008</ele>
        <time>2026-05-09T06:19:31.046Z</time>
      </trkpt>
      <trkpt lat="47.84368" lon="6.96451">
        <ele>1008</ele>
        <time>2026-05-09T06:19:32.046Z</time>
      </trkpt>
      <trkpt lat="47.84369" lon="6.9645">
        <ele>1009</ele>
        <time>2026-05-09T06:19:33.046Z</time>
      </trkpt>
      <trkpt lat="47.84369" lon="6.96448">
        <ele>1009</ele>
        <time>2026-05-09T06:19:34.046Z</time>
      </trkpt>
      <trkpt lat="47.84369" lon="6.96446">
        <ele>1010</ele>
        <time>2026-05-09T06:19:35.046Z</time>
      </trkpt>
      <trkpt lat="47.8437" lon="6.96444">
        <ele>1010</ele>
        <time>2026-05-09T06:19:36.046Z</time>
      </trkpt>
      <trkpt lat="47.84371" lon="6.96442">
        <ele>1010</ele>
        <time>2026-05-09T06:19:37.046Z</time>
      </trkpt>
      <trkpt lat="47.84371" lon="6.9644">
        <ele>1010</ele>
        <time>2026-05-09T06:19:38.046Z</time>
      </trkpt>
      <trkpt lat="47.84371" lon="6.96438">
        <ele>1010</ele>
        <time>2026-05-09T06:19:39.047Z</time>
      </trkpt>
      <trkpt lat="47.84372" lon="6.96436">
        <ele>1010</ele>
        <time>2026-05-09T06:19:40.046Z</time>
      </trkpt>
      <trkpt lat="47.84372" lon="6.96434">
        <ele>1010</ele>
        <time>2026-05-09T06:19:41.047Z</time>
      </trkpt>
      <trkpt lat="47.84372" lon="6.96432">
        <ele>1011</ele>
        <time>2026-05-09T06:19:42.046Z</time>
      </trkpt>
      <trkpt lat="47.84372" lon="6.9643">
        <ele>1011</ele>
        <time>2026-05-09T06:19:43.046Z</time>
      </trkpt>
      <trkpt lat="47.84372" lon="6.96428">
        <ele>1011</ele>
        <time>2026-05-09T06:19:44.046Z</time>
      </trkpt>
      <trkpt lat="47.84372" lon="6.96427">
        <ele>1011</ele>
        <time>2026-05-09T06:19:45.046Z</time>
      </trkpt>
      <trkpt lat="47.84373" lon="6.96426">
        <ele>1011</ele>
        <time>2026-05-09T06:19:46.047Z</time>
      </trkpt>
      <trkpt lat="47.84373" lon="6.96424">
        <ele>1011</ele>
        <time>2026-05-09T06:19:47.046Z</time>
      </trkpt>
      <trkpt lat="47.84373" lon="6.96422">
        <ele>1010</ele>
        <time>2026-05-09T06:19:48.047Z</time>
      </trkpt>
      <trkpt lat="47.84374" lon="6.9642">
        <ele>1010</ele>
        <time>2026-05-09T06:19:49.047Z</time>
      </trkpt>
      <trkpt lat="47.84374" lon="6.96419">
        <ele>1010</ele>
        <time>2026-05-09T06:19:50.047Z</time>
      </trkpt>
      <trkpt lat="47.84375" lon="6.96417">
        <ele>1009</ele>
        <time>2026-05-09T06:19:51.046Z</time>
      </trkpt>
      <trkpt lat="47.84376" lon="6.96416">
        <ele>1009</ele>
        <time>2026-05-09T06:19:52.047Z</time>
      </trkpt>
      <trkpt lat="47.84377" lon="6.96414">
        <ele>1009</ele>
        <time>2026-05-09T06:19:53.046Z</time>
      </trkpt>
      <trkpt lat="47.84377" lon="6.96413">
        <ele>1008</ele>
        <time>2026-05-09T06:19:54.047Z</time>
      </trkpt>
      <trkpt lat="47.84376" lon="6.96411">
        <ele>1008</ele>
        <time>2026-05-09T06:19:55.046Z</time>
      </trkpt>
      <trkpt lat="47.84376" lon="6.9641">
        <ele>1008</ele>
        <time>2026-05-09T06:19:56.046Z</time>
      </trkpt>
      <trkpt lat="47.84376" lon="6.96408">
        <ele>1008</ele>
        <time>2026-05-09T06:19:57.046Z</time>
      </trkpt>
      <trkpt lat="47.84376" lon="6.96406">
        <ele>1008</ele>
        <time>2026-05-09T06:19:58.046Z</time>
      </trkpt>
      <trkpt lat="47.84377" lon="6.96405">
        <ele>1007</ele>
        <time>2026-05-09T06:19:59.046Z</time>
      </trkpt>
      <trkpt lat="47.84377" lon="6.96404">
        <ele>1008</ele>
        <time>2026-05-09T06:20:00.046Z</time>
      </trkpt>
      <trkpt lat="47.84377" lon="6.96403">
        <ele>1008</ele>
        <time>2026-05-09T06:20:01.047Z</time>
      </trkpt>
      <trkpt lat="47.84377" lon="6.96403">
        <ele>1008</ele>
        <time>2026-05-09T06:20:02.047Z</time>
      </trkpt>
      <trkpt lat="47.84377" lon="6.96401">
        <ele>1008</ele>
        <time>2026-05-09T06:20:03.046Z</time>
      </trkpt>
      <trkpt lat="47.84377" lon="6.964">
        <ele>1008</ele>
        <time>2026-05-09T06:20:04.047Z</time>
      </trkpt>
      <trkpt lat="47.84378" lon="6.96399">
        <ele>1008</ele>
        <time>2026-05-09T06:20:05.046Z</time>
      </trkpt>
      <trkpt lat="47.84378" lon="6.96399">
        <ele>1008</ele>
        <time>2026-05-09T06:20:06.046Z</time>
      </trkpt>
      <trkpt lat="47.84378" lon="6.96396">
        <ele>1008</ele>
        <time>2026-05-09T06:20:07.047Z</time>
      </trkpt>
      <trkpt lat="47.84379" lon="6.96394">
        <ele>1009</ele>
        <time>2026-05-09T06:20:08.047Z</time>
      </trkpt>
      <trkpt lat="47.8438" lon="6.96392">
        <ele>1009</ele>
        <time>2026-05-09T06:20:09.046Z</time>
      </trkpt>
      <trkpt lat="47.8438" lon="6.9639">
        <ele>1009</ele>
        <time>2026-05-09T06:20:10.046Z</time>
      </trkpt>
      <trkpt lat="47.8438" lon="6.96388">
        <ele>1009</ele>
        <time>2026-05-09T06:20:11.047Z</time>
      </trkpt>
      <trkpt lat="47.8438" lon="6.96386">
        <ele>1009</ele>
        <time>2026-05-09T06:20:12.046Z</time>
      </trkpt>
      <trkpt lat="47.8438" lon="6.96383">
        <ele>1010</ele>
        <time>2026-05-09T06:20:13.046Z</time>
      </trkpt>
      <trkpt lat="47.84381" lon="6.96382">
        <ele>1010</ele>
        <time>2026-05-09T06:20:14.046Z</time>
      </trkpt>
      <trkpt lat="47.84381" lon="6.96381">
        <ele>1010</ele>
        <time>2026-05-09T06:20:15.046Z</time>
      </trkpt>
      <trkpt lat="47.84381" lon="6.96381">
        <ele>1011</ele>
        <time>2026-05-09T06:20:16.046Z</time>
      </trkpt>
      <trkpt lat="47.8438" lon="6.9638">
        <ele>1011</ele>
        <time>2026-05-09T06:20:17.046Z</time>
      </trkpt>
      <trkpt lat="47.8438" lon="6.96379">
        <ele>1011</ele>
        <time>2026-05-09T06:20:18.046Z</time>
      </trkpt>
      <trkpt lat="47.8438" lon="6.96377">
        <ele>1012</ele>
        <time>2026-05-09T06:20:19.046Z</time>
      </trkpt>
      <trkpt lat="47.8438" lon="6.96376">
        <ele>1012</ele>
        <time>2026-05-09T06:20:20.047Z</time>
      </trkpt>
      <trkpt lat="47.8438" lon="6.96374">
        <ele>1013</ele>
        <time>2026-05-09T06:20:21.047Z</time>
      </trkpt>
      <trkpt lat="47.8438" lon="6.96371">
        <ele>1013</ele>
        <time>2026-05-09T06:20:22.046Z</time>
      </trkpt>
      <trkpt lat="47.84381" lon="6.96367">
        <ele>1014</ele>
        <time>2026-05-09T06:20:23.046Z</time>
      </trkpt>
      <trkpt lat="47.84383" lon="6.96362">
        <ele>1014</ele>
        <time>2026-05-09T06:20:24.046Z</time>
      </trkpt>
      <trkpt lat="47.84384" lon="6.96356">
        <ele>1014</ele>
        <time>2026-05-09T06:20:25.046Z</time>
      </trkpt>
      <trkpt lat="47.84384" lon="6.96352">
        <ele>1014</ele>
        <time>2026-05-09T06:20:26.047Z</time>
      </trkpt>
      <trkpt lat="47.84384" lon="6.9635">
        <ele>1015</ele>
        <time>2026-05-09T06:20:27.046Z</time>
      </trkpt>
      <trkpt lat="47.84383" lon="6.96348">
        <ele>1015</ele>
        <time>2026-05-09T06:20:28.046Z</time>
      </trkpt>
      <trkpt lat="47.84383" lon="6.96347">
        <ele>1015</ele>
        <time>2026-05-09T06:20:29.047Z</time>
      </trkpt>
      <trkpt lat="47.84383" lon="6.96346">
        <ele>1014</ele>
        <time>2026-05-09T06:20:30.046Z</time>
      </trkpt>
      <trkpt lat="47.84383" lon="6.96343">
        <ele>1014</ele>
        <time>2026-05-09T06:20:31.047Z</time>
      </trkpt>
      <trkpt lat="47.84384" lon="6.96342">
        <ele>1015</ele>
        <time>2026-05-09T06:20:32.046Z</time>
      </trkpt>
      <trkpt lat="47.84384" lon="6.9634">
        <ele>1015</ele>
        <time>2026-05-09T06:20:33.047Z</time>
      </trkpt>
      <trkpt lat="47.84386" lon="6.9634">
        <ele>1015</ele>
        <time>2026-05-09T06:20:34.046Z</time>
      </trkpt>
      <trkpt lat="47.84387" lon="6.96339">
        <ele>1015</ele>
        <time>2026-05-09T06:20:35.046Z</time>
      </trkpt>
      <trkpt lat="47.84388" lon="6.96339">
        <ele>1016</ele>
        <time>2026-05-09T06:20:36.047Z</time>
      </trkpt>
      <trkpt lat="47.8439" lon="6.96337">
        <ele>1016</ele>
        <time>2026-05-09T06:20:37.046Z</time>
      </trkpt>
      <trkpt lat="47.8439" lon="6.96334">
        <ele>1017</ele>
        <time>2026-05-09T06:20:38.047Z</time>
      </trkpt>
      <trkpt lat="47.84391" lon="6.96332">
        <ele>1017</ele>
        <time>2026-05-09T06:20:39.046Z</time>
      </trkpt>
      <trkpt lat="47.84392" lon="6.96331">
        <ele>1017</ele>
        <time>2026-05-09T06:20:40.047Z</time>
      </trkpt>
      <trkpt lat="47.84394" lon="6.96327">
        <ele>1017</ele>
        <time>2026-05-09T06:20:41.047Z</time>
      </trkpt>
      <trkpt lat="47.84393" lon="6.96321">
        <ele>1017</ele>
        <time>2026-05-09T06:20:42.046Z</time>
      </trkpt>
      <trkpt lat="47.84391" lon="6.96318">
        <ele>1018</ele>
        <time>2026-05-09T06:20:43.046Z</time>
      </trkpt>
      <trkpt lat="47.84389" lon="6.96316">
        <ele>1018</ele>
        <time>2026-05-09T06:20:44.046Z</time>
      </trkpt>
      <trkpt lat="47.84389" lon="6.96316">
        <ele>1018</ele>
        <time>2026-05-09T06:20:45.046Z</time>
      </trkpt>
      <trkpt lat="47.84389" lon="6.96318">
        <ele>1018</ele>
        <time>2026-05-09T06:20:46.046Z</time>
      </trkpt>
      <trkpt lat="47.8439" lon="6.9632">
        <ele>1018</ele>
        <time>2026-05-09T06:20:47.046Z</time>
      </trkpt>
      <trkpt lat="47.84392" lon="6.96321">
        <ele>1018</ele>
        <time>2026-05-09T06:20:48.046Z</time>
      </trkpt>
      <trkpt lat="47.84391" lon="6.9632">
        <ele>1018</ele>
        <time>2026-05-09T06:20:49.046Z</time>
      </trkpt>
      <trkpt lat="47.84392" lon="6.9632">
        <ele>1019</ele>
        <time>2026-05-09T06:20:50.046Z</time>
      </trkpt>
      <trkpt lat="47.84392" lon="6.96319">
        <ele>1019</ele>
        <time>2026-05-09T06:20:51.046Z</time>
      </trkpt>
      <trkpt lat="47.84392" lon="6.96318">
        <ele>1019</ele>
        <time>2026-05-09T06:20:52.047Z</time>
      </trkpt>
      <trkpt lat="47.84393" lon="6.96318">
        <ele>1019</ele>
        <time>2026-05-09T06:20:53.046Z</time>
      </trkpt>
      <trkpt lat="47.84393" lon="6.96317">
        <ele>1019</ele>
        <time>2026-05-09T06:20:54.046Z</time>
      </trkpt>
      <trkpt lat="47.84395" lon="6.96317">
        <ele>1019</ele>
        <time>2026-05-09T06:20:55.047Z</time>
      </trkpt>
      <trkpt lat="47.84395" lon="6.96316">
        <ele>1020</ele>
        <time>2026-05-09T06:20:56.047Z</time>
      </trkpt>
      <trkpt lat="47.84395" lon="6.96314">
        <ele>1020</ele>
        <time>2026-05-09T06:20:57.046Z</time>
      </trkpt>
      <trkpt lat="47.84394" lon="6.96312">
        <ele>1021</ele>
        <time>2026-05-09T06:20:58.046Z</time>
      </trkpt>
      <trkpt lat="47.84394" lon="6.96311">
        <ele>1021</ele>
        <time>2026-05-09T06:20:59.046Z</time>
      </trkpt>
      <trkpt lat="47.84394" lon="6.96309">
        <ele>1022</ele>
        <time>2026-05-09T06:21:00.046Z</time>
      </trkpt>
      <trkpt lat="47.84394" lon="6.96307">
        <ele>1022</ele>
        <time>2026-05-09T06:21:01.046Z</time>
      </trkpt>
      <trkpt lat="47.84395" lon="6.96306">
        <ele>1022</ele>
        <time>2026-05-09T06:21:02.047Z</time>
      </trkpt>
      <trkpt lat="47.84396" lon="6.96305">
        <ele>1022</ele>
        <time>2026-05-09T06:21:03.046Z</time>
      </trkpt>
      <trkpt lat="47.84396" lon="6.96304">
        <ele>1022</ele>
        <time>2026-05-09T06:21:04.046Z</time>
      </trkpt>
      <trkpt lat="47.84396" lon="6.96302">
        <ele>1022</ele>
        <time>2026-05-09T06:21:05.046Z</time>
      </trkpt>
      <trkpt lat="47.84397" lon="6.96302">
        <ele>1022</ele>
        <time>2026-05-09T06:21:06.047Z</time>
      </trkpt>
      <trkpt lat="47.84399" lon="6.963">
        <ele>1022</ele>
        <time>2026-05-09T06:21:07.047Z</time>
      </trkpt>
      <trkpt lat="47.84399" lon="6.96299">
        <ele>1022</ele>
        <time>2026-05-09T06:21:08.046Z</time>
      </trkpt>
      <trkpt lat="47.844" lon="6.96297">
        <ele>1022</ele>
        <time>2026-05-09T06:21:09.046Z</time>
      </trkpt>
      <trkpt lat="47.84401" lon="6.96296">
        <ele>1022</ele>
        <time>2026-05-09T06:21:10.047Z</time>
      </trkpt>
      <trkpt lat="47.84401" lon="6.96295">
        <ele>1022</ele>
        <time>2026-05-09T06:21:11.046Z</time>
      </trkpt>
      <trkpt lat="47.84402" lon="6.96294">
        <ele>1022</ele>
        <time>2026-05-09T06:21:12.046Z</time>
      </trkpt>
      <trkpt lat="47.84403" lon="6.96293">
        <ele>1022</ele>
        <time>2026-05-09T06:21:13.046Z</time>
      </trkpt>
      <trkpt lat="47.84403" lon="6.96291">
        <ele>1023</ele>
        <time>2026-05-09T06:21:14.046Z</time>
      </trkpt>
      <trkpt lat="47.84404" lon="6.96289">
        <ele>1023</ele>
        <time>2026-05-09T06:21:15.046Z</time>
      </trkpt>
      <trkpt lat="47.84404" lon="6.96289">
        <ele>1023</ele>
        <time>2026-05-09T06:21:16.046Z</time>
      </trkpt>
      <trkpt lat="47.84405" lon="6.96288">
        <ele>1024</ele>
        <time>2026-05-09T06:21:17.046Z</time>
      </trkpt>
      <trkpt lat="47.84406" lon="6.96286">
        <ele>1025</ele>
        <time>2026-05-09T06:21:18.046Z</time>
      </trkpt>
      <trkpt lat="47.84406" lon="6.96285">
        <ele>1026</ele>
        <time>2026-05-09T06:21:19.047Z</time>
      </trkpt>
      <trkpt lat="47.84407" lon="6.96284">
        <ele>1026</ele>
        <time>2026-05-09T06:21:20.046Z</time>
      </trkpt>
      <trkpt lat="47.84407" lon="6.96284">
        <ele>1026</ele>
        <time>2026-05-09T06:21:21.046Z</time>
      </trkpt>
      <trkpt lat="47.84409" lon="6.96282">
        <ele>1027</ele>
        <time>2026-05-09T06:21:22.046Z</time>
      </trkpt>
      <trkpt lat="47.84409" lon="6.96281">
        <ele>1027</ele>
        <time>2026-05-09T06:21:23.047Z</time>
      </trkpt>
      <trkpt lat="47.84411" lon="6.9628">
        <ele>1028</ele>
        <time>2026-05-09T06:21:24.047Z</time>
      </trkpt>
      <trkpt lat="47.84411" lon="6.9628">
        <ele>1028</ele>
        <time>2026-05-09T06:21:25.047Z</time>
      </trkpt>
      <trkpt lat="47.84412" lon="6.96278">
        <ele>1028</ele>
        <time>2026-05-09T06:21:26.046Z</time>
      </trkpt>
      <trkpt lat="47.84412" lon="6.96278">
        <ele>1028</ele>
        <time>2026-05-09T06:21:27.046Z</time>
      </trkpt>
      <trkpt lat="47.84413" lon="6.96275">
        <ele>1028</ele>
        <time>2026-05-09T06:21:28.046Z</time>
      </trkpt>
      <trkpt lat="47.84414" lon="6.96273">
        <ele>1028</ele>
        <time>2026-05-09T06:21:29.046Z</time>
      </trkpt>
      <trkpt lat="47.84415" lon="6.9627">
        <ele>1028</ele>
        <time>2026-05-09T06:21:30.046Z</time>
      </trkpt>
      <trkpt lat="47.84415" lon="6.9627">
        <ele>1028</ele>
        <time>2026-05-09T06:21:31.046Z</time>
      </trkpt>
      <trkpt lat="47.84417" lon="6.96268">
        <ele>1028</ele>
        <time>2026-05-09T06:21:32.046Z</time>
      </trkpt>
      <trkpt lat="47.84419" lon="6.96262">
        <ele>1028</ele>
        <time>2026-05-09T06:21:33.046Z</time>
      </trkpt>
      <trkpt lat="47.84419" lon="6.9626">
        <ele>1028</ele>
        <time>2026-05-09T06:21:34.047Z</time>
      </trkpt>
      <trkpt lat="47.84421" lon="6.96256">
        <ele>1028</ele>
        <time>2026-05-09T06:21:35.046Z</time>
      </trkpt>
      <trkpt lat="47.84421" lon="6.96256">
        <ele>1028</ele>
        <time>2026-05-09T06:21:36.047Z</time>
      </trkpt>
      <trkpt lat="47.84423" lon="6.96253">
        <ele>1028</ele>
        <time>2026-05-09T06:21:37.046Z</time>
      </trkpt>
      <trkpt lat="47.84429" lon="6.96252">
        <ele>1028</ele>
        <time>2026-05-09T06:21:38.047Z</time>
      </trkpt>
      <trkpt lat="47.8443" lon="6.96249">
        <ele>1029</ele>
        <time>2026-05-09T06:21:39.047Z</time>
      </trkpt>
      <trkpt lat="47.8443" lon="6.96249">
        <ele>1029</ele>
        <time>2026-05-09T06:21:40.046Z</time>
      </trkpt>
      <trkpt lat="47.84431" lon="6.96247">
        <ele>1029</ele>
        <time>2026-05-09T06:21:41.046Z</time>
      </trkpt>
      <trkpt lat="47.84433" lon="6.96242">
        <ele>1029</ele>
        <time>2026-05-09T06:21:42.046Z</time>
      </trkpt>
      <trkpt lat="47.84434" lon="6.96239">
        <ele>1029</ele>
        <time>2026-05-09T06:21:43.046Z</time>
      </trkpt>
      <trkpt lat="47.84434" lon="6.96237">
        <ele>1029</ele>
        <time>2026-05-09T06:21:44.047Z</time>
      </trkpt>
      <trkpt lat="47.84434" lon="6.96237">
        <ele>1029</ele>
        <time>2026-05-09T06:21:45.046Z</time>
      </trkpt>
      <trkpt lat="47.84436" lon="6.96235">
        <ele>1030</ele>
        <time>2026-05-09T06:21:46.047Z</time>
      </trkpt>
      <trkpt lat="47.84437" lon="6.96233">
        <ele>1030</ele>
        <time>2026-05-09T06:21:47.047Z</time>
      </trkpt>
      <trkpt lat="47.84438" lon="6.96232">
        <ele>1030</ele>
        <time>2026-05-09T06:21:48.046Z</time>
      </trkpt>
      <trkpt lat="47.84438" lon="6.96231">
        <ele>1031</ele>
        <time>2026-05-09T06:21:49.047Z</time>
      </trkpt>
      <trkpt lat="47.84438" lon="6.96231">
        <ele>1031</ele>
        <time>2026-05-09T06:21:50.046Z</time>
      </trkpt>
      <trkpt lat="47.84438" lon="6.9623">
        <ele>1031</ele>
        <time>2026-05-09T06:21:51.046Z</time>
      </trkpt>
      <trkpt lat="47.84439" lon="6.96229">
        <ele>1031</ele>
        <time>2026-05-09T06:21:52.046Z</time>
      </trkpt>
      <trkpt lat="47.8444" lon="6.96227">
        <ele>1032</ele>
        <time>2026-05-09T06:21:53.047Z</time>
      </trkpt>
      <trkpt lat="47.8444" lon="6.96226">
        <ele>1032</ele>
        <time>2026-05-09T06:21:54.046Z</time>
      </trkpt>
      <trkpt lat="47.8444" lon="6.96226">
        <ele>1032</ele>
        <time>2026-05-09T06:21:55.047Z</time>
      </trkpt>
      <trkpt lat="47.84441" lon="6.96226">
        <ele>1032</ele>
        <time>2026-05-09T06:21:56.046Z</time>
      </trkpt>
      <trkpt lat="47.84442" lon="6.96226">
        <ele>1032</ele>
        <time>2026-05-09T06:21:57.047Z</time>
      </trkpt>
      <trkpt lat="47.8444" lon="6.96225">
        <ele>1032</ele>
        <time>2026-05-09T06:21:58.046Z</time>
      </trkpt>
      <trkpt lat="47.8444" lon="6.96225">
        <ele>1032</ele>
        <time>2026-05-09T06:21:59.047Z</time>
      </trkpt>
      <trkpt lat="47.8444" lon="6.96225">
        <ele>1032</ele>
        <time>2026-05-09T06:22:00.046Z</time>
      </trkpt>
      <trkpt lat="47.84441" lon="6.96225">
        <ele>1032</ele>
        <time>2026-05-09T06:22:01.047Z</time>
      </trkpt>
      <trkpt lat="47.84442" lon="6.96225">
        <ele>1032</ele>
        <time>2026-05-09T06:22:02.046Z</time>
      </trkpt>
      <trkpt lat="47.84442" lon="6.96223">
        <ele>1032</ele>
        <time>2026-05-09T06:22:03.047Z</time>
      </trkpt>
      <trkpt lat="47.84442" lon="6.96221">
        <ele>1032</ele>
        <time>2026-05-09T06:22:04.046Z</time>
      </trkpt>
      <trkpt lat="47.84442" lon="6.96221">
        <ele>1032</ele>
        <time>2026-05-09T06:22:05.047Z</time>
      </trkpt>
      <trkpt lat="47.84443" lon="6.9622">
        <ele>1031</ele>
        <time>2026-05-09T06:22:06.046Z</time>
      </trkpt>
      <trkpt lat="47.84443" lon="6.96219">
        <ele>1031</ele>
        <time>2026-05-09T06:22:07.046Z</time>
      </trkpt>
      <trkpt lat="47.84445" lon="6.96216">
        <ele>1029</ele>
        <time>2026-05-09T06:22:08.046Z</time>
      </trkpt>
      <trkpt lat="47.84445" lon="6.96215">
        <ele>1029</ele>
        <time>2026-05-09T06:22:09.046Z</time>
      </trkpt>
      <trkpt lat="47.84445" lon="6.96215">
        <ele>1029</ele>
        <time>2026-05-09T06:22:10.046Z</time>
      </trkpt>
      <trkpt lat="47.84446" lon="6.96214">
        <ele>1028</ele>
        <time>2026-05-09T06:22:11.046Z</time>
      </trkpt>
      <trkpt lat="47.84447" lon="6.96213">
        <ele>1027</ele>
        <time>2026-05-09T06:22:12.047Z</time>
      </trkpt>
      <trkpt lat="47.84447" lon="6.96212">
        <ele>1026</ele>
        <time>2026-05-09T06:22:13.046Z</time>
      </trkpt>
      <trkpt lat="47.84447" lon="6.96211">
        <ele>1026</ele>
        <time>2026-05-09T06:22:14.046Z</time>
      </trkpt>
      <trkpt lat="47.84447" lon="6.96211">
        <ele>1026</ele>
        <time>2026-05-09T06:22:15.046Z</time>
      </trkpt>
      <trkpt lat="47.84447" lon="6.9621">
        <ele>1026</ele>
        <time>2026-05-09T06:22:16.046Z</time>
      </trkpt>
      <trkpt lat="47.84448" lon="6.96208">
        <ele>1025</ele>
        <time>2026-05-09T06:22:17.046Z</time>
      </trkpt>
      <trkpt lat="47.84448" lon="6.96205">
        <ele>1025</ele>
        <time>2026-05-09T06:22:18.046Z</time>
      </trkpt>
      <trkpt lat="47.84448" lon="6.96204">
        <ele>1025</ele>
        <time>2026-05-09T06:22:19.047Z</time>
      </trkpt>
      <trkpt lat="47.84448" lon="6.96204">
        <ele>1025</ele>
        <time>2026-05-09T06:22:20.046Z</time>
      </trkpt>
      <trkpt lat="47.84448" lon="6.96203">
        <ele>1024</ele>
        <time>2026-05-09T06:22:21.046Z</time>
      </trkpt>
      <trkpt lat="47.84449" lon="6.96202">
        <ele>1024</ele>
        <time>2026-05-09T06:22:22.046Z</time>
      </trkpt>
      <trkpt lat="47.84451" lon="6.962">
        <ele>1024</ele>
        <time>2026-05-09T06:22:23.046Z</time>
      </trkpt>
      <trkpt lat="47.84452" lon="6.96199">
        <ele>1024</ele>
        <time>2026-05-09T06:22:24.046Z</time>
      </trkpt>
      <trkpt lat="47.84452" lon="6.96199">
        <ele>1024</ele>
        <time>2026-05-09T06:22:25.047Z</time>
      </trkpt>
      <trkpt lat="47.84453" lon="6.96198">
        <ele>1024</ele>
        <time>2026-05-09T06:22:26.046Z</time>
      </trkpt>
      <trkpt lat="47.84454" lon="6.96197">
        <ele>1024</ele>
        <time>2026-05-09T06:22:27.046Z</time>
      </trkpt>
      <trkpt lat="47.84455" lon="6.96194">
        <ele>1024</ele>
        <time>2026-05-09T06:22:28.046Z</time>
      </trkpt>
      <trkpt lat="47.84456" lon="6.96193">
        <ele>1024</ele>
        <time>2026-05-09T06:22:29.046Z</time>
      </trkpt>
      <trkpt lat="47.84456" lon="6.96193">
        <ele>1024</ele>
        <time>2026-05-09T06:22:30.046Z</time>
      </trkpt>
      <trkpt lat="47.84457" lon="6.96192">
        <ele>1025</ele>
        <time>2026-05-09T06:22:31.046Z</time>
      </trkpt>
      <trkpt lat="47.84459" lon="6.96192">
        <ele>1025</ele>
        <time>2026-05-09T06:22:32.046Z</time>
      </trkpt>
      <trkpt lat="47.84462" lon="6.96191">
        <ele>1025</ele>
        <time>2026-05-09T06:22:33.046Z</time>
      </trkpt>
      <trkpt lat="47.84463" lon="6.9619">
        <ele>1024</ele>
        <time>2026-05-09T06:22:34.046Z</time>
      </trkpt>
      <trkpt lat="47.84463" lon="6.9619">
        <ele>1024</ele>
        <time>2026-05-09T06:22:35.047Z</time>
      </trkpt>
      <trkpt lat="47.84464" lon="6.96188">
        <ele>1024</ele>
        <time>2026-05-09T06:22:36.046Z</time>
      </trkpt>
      <trkpt lat="47.84465" lon="6.96187">
        <ele>1024</ele>
        <time>2026-05-09T06:22:37.046Z</time>
      </trkpt>
      <trkpt lat="47.84467" lon="6.96185">
        <ele>1024</ele>
        <time>2026-05-09T06:22:38.046Z</time>
      </trkpt>
      <trkpt lat="47.84468" lon="6.96185">
        <ele>1025</ele>
        <time>2026-05-09T06:22:39.046Z</time>
      </trkpt>
      <trkpt lat="47.84468" lon="6.96185">
        <ele>1025</ele>
        <time>2026-05-09T06:22:40.047Z</time>
      </trkpt>
      <trkpt lat="47.84469" lon="6.96184">
        <ele>1025</ele>
        <time>2026-05-09T06:22:41.047Z</time>
      </trkpt>
      <trkpt lat="47.84469" lon="6.96183">
        <ele>1025</ele>
        <time>2026-05-09T06:22:42.046Z</time>
      </trkpt>
      <trkpt lat="47.84468" lon="6.96181">
        <ele>1026</ele>
        <time>2026-05-09T06:22:43.047Z</time>
      </trkpt>
      <trkpt lat="47.84467" lon="6.9618">
        <ele>1026</ele>
        <time>2026-05-09T06:22:44.046Z</time>
      </trkpt>
      <trkpt lat="47.84467" lon="6.9618">
        <ele>1026</ele>
        <time>2026-05-09T06:22:45.047Z</time>
      </trkpt>
      <trkpt lat="47.84466" lon="6.96178">
        <ele>1027</ele>
        <time>2026-05-09T06:22:46.046Z</time>
      </trkpt>
      <trkpt lat="47.84465" lon="6.96176">
        <ele>1027</ele>
        <time>2026-05-09T06:22:47.046Z</time>
      </trkpt>
      <trkpt lat="47.84465" lon="6.96174">
        <ele>1028</ele>
        <time>2026-05-09T06:22:48.047Z</time>
      </trkpt>
      <trkpt lat="47.84465" lon="6.96174">
        <ele>1028</ele>
        <time>2026-05-09T06:22:49.046Z</time>
      </trkpt>
      <trkpt lat="47.84465" lon="6.96174">
        <ele>1028</ele>
        <time>2026-05-09T06:22:50.046Z</time>
      </trkpt>
      <trkpt lat="47.84465" lon="6.96173">
        <ele>1028</ele>
        <time>2026-05-09T06:22:51.046Z</time>
      </trkpt>
      <trkpt lat="47.84466" lon="6.96171">
        <ele>1028</ele>
        <time>2026-05-09T06:22:52.046Z</time>
      </trkpt>
      <trkpt lat="47.84467" lon="6.96167">
        <ele>1028</ele>
        <time>2026-05-09T06:22:53.046Z</time>
      </trkpt>
      <trkpt lat="47.84468" lon="6.96166">
        <ele>1028</ele>
        <time>2026-05-09T06:22:54.047Z</time>
      </trkpt>
      <trkpt lat="47.84468" lon="6.96166">
        <ele>1028</ele>
        <time>2026-05-09T06:22:55.047Z</time>
      </trkpt>
      <trkpt lat="47.84468" lon="6.96165">
        <ele>1028</ele>
        <time>2026-05-09T06:22:56.046Z</time>
      </trkpt>
      <trkpt lat="47.8447" lon="6.96164">
        <ele>1028</ele>
        <time>2026-05-09T06:22:57.046Z</time>
      </trkpt>
      <trkpt lat="47.84473" lon="6.96162">
        <ele>1028</ele>
        <time>2026-05-09T06:22:58.046Z</time>
      </trkpt>
      <trkpt lat="47.84474" lon="6.96162">
        <ele>1028</ele>
        <time>2026-05-09T06:22:59.046Z</time>
      </trkpt>
      <trkpt lat="47.84474" lon="6.96162">
        <ele>1028</ele>
        <time>2026-05-09T06:23:00.046Z</time>
      </trkpt>
      <trkpt lat="47.84476" lon="6.96161">
        <ele>1028</ele>
        <time>2026-05-09T06:23:01.046Z</time>
      </trkpt>
      <trkpt lat="47.84478" lon="6.96161">
        <ele>1028</ele>
        <time>2026-05-09T06:23:02.046Z</time>
      </trkpt>
      <trkpt lat="47.8448" lon="6.96159">
        <ele>1029</ele>
        <time>2026-05-09T06:23:03.046Z</time>
      </trkpt>
      <trkpt lat="47.84481" lon="6.96158">
        <ele>1029</ele>
        <time>2026-05-09T06:23:04.047Z</time>
      </trkpt>
      <trkpt lat="47.84481" lon="6.96158">
        <ele>1029</ele>
        <time>2026-05-09T06:23:05.046Z</time>
      </trkpt>
      <trkpt lat="47.84482" lon="6.96156">
        <ele>1030</ele>
        <time>2026-05-09T06:23:06.047Z</time>
      </trkpt>
      <trkpt lat="47.84483" lon="6.96154">
        <ele>1030</ele>
        <time>2026-05-09T06:23:07.047Z</time>
      </trkpt>
      <trkpt lat="47.84483" lon="6.96151">
        <ele>1030</ele>
        <time>2026-05-09T06:23:08.046Z</time>
      </trkpt>
      <trkpt lat="47.84484" lon="6.9615">
        <ele>1030</ele>
        <time>2026-05-09T06:23:09.046Z</time>
      </trkpt>
      <trkpt lat="47.84484" lon="6.9615">
        <ele>1030</ele>
        <time>2026-05-09T06:23:10.046Z</time>
      </trkpt>
      <trkpt lat="47.84484" lon="6.96149">
        <ele>1030</ele>
        <time>2026-05-09T06:23:11.047Z</time>
      </trkpt>
      <trkpt lat="47.84485" lon="6.96147">
        <ele>1031</ele>
        <time>2026-05-09T06:23:12.046Z</time>
      </trkpt>
      <trkpt lat="47.84485" lon="6.96143">
        <ele>1031</ele>
        <time>2026-05-09T06:23:13.046Z</time>
      </trkpt>
      <trkpt lat="47.84486" lon="6.96141">
        <ele>1031</ele>
        <time>2026-05-09T06:23:14.046Z</time>
      </trkpt>
      <trkpt lat="47.84486" lon="6.96141">
        <ele>1031</ele>
        <time>2026-05-09T06:23:15.046Z</time>
      </trkpt>
      <trkpt lat="47.84487" lon="6.96139">
        <ele>1031</ele>
        <time>2026-05-09T06:23:16.046Z</time>
      </trkpt>
      <trkpt lat="47.84487" lon="6.96137">
        <ele>1031</ele>
        <time>2026-05-09T06:23:17.047Z</time>
      </trkpt>
      <trkpt lat="47.84487" lon="6.96133">
        <ele>1032</ele>
        <time>2026-05-09T06:23:18.047Z</time>
      </trkpt>
      <trkpt lat="47.84486" lon="6.9613">
        <ele>1032</ele>
        <time>2026-05-09T06:23:19.046Z</time>
      </trkpt>
      <trkpt lat="47.84486" lon="6.9613">
        <ele>1032</ele>
        <time>2026-05-09T06:23:20.046Z</time>
      </trkpt>
      <trkpt lat="47.84486" lon="6.96128">
        <ele>1032</ele>
        <time>2026-05-09T06:23:21.046Z</time>
      </trkpt>
      <trkpt lat="47.84486" lon="6.96127">
        <ele>1032</ele>
        <time>2026-05-09T06:23:22.046Z</time>
      </trkpt>
      <trkpt lat="47.84486" lon="6.96125">
        <ele>1033</ele>
        <time>2026-05-09T06:23:23.046Z</time>
      </trkpt>
      <trkpt lat="47.84486" lon="6.96123">
        <ele>1033</ele>
        <time>2026-05-09T06:23:24.046Z</time>
      </trkpt>
      <trkpt lat="47.84486" lon="6.96123">
        <ele>1033</ele>
        <time>2026-05-09T06:23:25.047Z</time>
      </trkpt>
      <trkpt lat="47.84487" lon="6.96122">
        <ele>1033</ele>
        <time>2026-05-09T06:23:26.047Z</time>
      </trkpt>
      <trkpt lat="47.84487" lon="6.9612">
        <ele>1033</ele>
        <time>2026-05-09T06:23:27.047Z</time>
      </trkpt>
      <trkpt lat="47.84488" lon="6.96118">
        <ele>1034</ele>
        <time>2026-05-09T06:23:28.047Z</time>
      </trkpt>
      <trkpt lat="47.84489" lon="6.96117">
        <ele>1034</ele>
        <time>2026-05-09T06:23:29.046Z</time>
      </trkpt>
      <trkpt lat="47.84489" lon="6.96117">
        <ele>1034</ele>
        <time>2026-05-09T06:23:30.046Z</time>
      </trkpt>
      <trkpt lat="47.84489" lon="6.96117">
        <ele>1035</ele>
        <time>2026-05-09T06:23:31.047Z</time>
      </trkpt>
      <trkpt lat="47.84493" lon="6.96113">
        <ele>1040</ele>
        <time>2026-05-09T06:23:39.239Z</time>
      </trkpt>
      <trkpt lat="47.84494" lon="6.96112">
        <ele>1040</ele>
        <time>2026-05-09T06:23:40.239Z</time>
      </trkpt>
      <trkpt lat="47.84496" lon="6.9611">
        <ele>1040</ele>
        <time>2026-05-09T06:23:41.239Z</time>
      </trkpt>
      <trkpt lat="47.84497" lon="6.96109">
        <ele>1041</ele>
        <time>2026-05-09T06:23:42.239Z</time>
      </trkpt>
      <trkpt lat="47.84498" lon="6.96108">
        <ele>1041</ele>
        <time>2026-05-09T06:23:43.240Z</time>
      </trkpt>
      <trkpt lat="47.84498" lon="6.96107">
        <ele>1041</ele>
        <time>2026-05-09T06:23:44.239Z</time>
      </trkpt>
      <trkpt lat="47.84498" lon="6.96107">
        <ele>1041</ele>
        <time>2026-05-09T06:23:45.239Z</time>
      </trkpt>
      <trkpt lat="47.84499" lon="6.96105">
        <ele>1041</ele>
        <time>2026-05-09T06:23:46.239Z</time>
      </trkpt>
      <trkpt lat="47.84499" lon="6.96105">
        <ele>1042</ele>
        <time>2026-05-09T06:23:47.239Z</time>
      </trkpt>
      <trkpt lat="47.84499" lon="6.96105">
        <ele>1042</ele>
        <time>2026-05-09T06:23:48.240Z</time>
      </trkpt>
      <trkpt lat="47.845" lon="6.96105">
        <ele>1042</ele>
        <time>2026-05-09T06:23:49.239Z</time>
      </trkpt>
      <trkpt lat="47.845" lon="6.96105">
        <ele>1042</ele>
        <time>2026-05-09T06:23:50.239Z</time>
      </trkpt>
      <trkpt lat="47.84501" lon="6.96105">
        <ele>1043</ele>
        <time>2026-05-09T06:23:51.240Z</time>
      </trkpt>
      <trkpt lat="47.84505" lon="6.96104">
        <ele>1047</ele>
        <time>2026-05-09T06:24:00.378Z</time>
      </trkpt>
      <trkpt lat="47.84506" lon="6.96103">
        <ele>1047</ele>
        <time>2026-05-09T06:24:01.377Z</time>
      </trkpt>
      <trkpt lat="47.84506" lon="6.96102">
        <ele>1047</ele>
        <time>2026-05-09T06:24:02.378Z</time>
      </trkpt>
      <trkpt lat="47.84506" lon="6.96102">
        <ele>1048</ele>
        <time>2026-05-09T06:24:03.378Z</time>
      </trkpt>
      <trkpt lat="47.84516" lon="6.96092">
        <ele>1051</ele>
        <time>2026-05-09T06:24:18.649Z</time>
      </trkpt>
      <trkpt lat="47.84516" lon="6.96092">
        <ele>1051</ele>
        <time>2026-05-09T06:24:19.650Z</time>
      </trkpt>
      <trkpt lat="47.84516" lon="6.96092">
        <ele>1051</ele>
        <time>2026-05-09T06:24:20.649Z</time>
      </trkpt>
      <trkpt lat="47.84523" lon="6.96089">
        <ele>1051</ele>
        <time>2026-05-09T06:24:27.063Z</time>
      </trkpt>
      <trkpt lat="47.84523" lon="6.96088">
        <ele>1051</ele>
        <time>2026-05-09T06:24:28.063Z</time>
      </trkpt>
      <trkpt lat="47.84524" lon="6.96089">
        <ele>1051</ele>
        <time>2026-05-09T06:24:29.063Z</time>
      </trkpt>
      <trkpt lat="47.84524" lon="6.96089">
        <ele>1051</ele>
        <time>2026-05-09T06:24:30.063Z</time>
      </trkpt>
      <trkpt lat="47.84525" lon="6.96089">
        <ele>1051</ele>
        <time>2026-05-09T06:24:31.064Z</time>
      </trkpt>
      <trkpt lat="47.84525" lon="6.96088">
        <ele>1051</ele>
        <time>2026-05-09T06:24:32.063Z</time>
      </trkpt>
      <trkpt lat="47.84525" lon="6.96088">
        <ele>1051</ele>
        <time>2026-05-09T06:24:33.063Z</time>
      </trkpt>
      <trkpt lat="47.84526" lon="6.96088">
        <ele>1051</ele>
        <time>2026-05-09T06:24:34.064Z</time>
      </trkpt>
      <trkpt lat="47.8453" lon="6.96086">
        <ele>1051</ele>
        <time>2026-05-09T06:24:39.438Z</time>
      </trkpt>
      <trkpt lat="47.8453" lon="6.96086">
        <ele>1051</ele>
        <time>2026-05-09T06:24:40.437Z</time>
      </trkpt>
      <trkpt lat="47.84531" lon="6.96087">
        <ele>1051</ele>
        <time>2026-05-09T06:24:41.438Z</time>
      </trkpt>
      <trkpt lat="47.84533" lon="6.96086">
        <ele>1052</ele>
        <time>2026-05-09T06:24:47.865Z</time>
      </trkpt>
      <trkpt lat="47.84534" lon="6.96086">
        <ele>1052</ele>
        <time>2026-05-09T06:24:48.865Z</time>
      </trkpt>
      <trkpt lat="47.84535" lon="6.96086">
        <ele>1052</ele>
        <time>2026-05-09T06:24:49.866Z</time>
      </trkpt>
      <trkpt lat="47.84535" lon="6.96086">
        <ele>1053</ele>
        <time>2026-05-09T06:24:50.865Z</time>
      </trkpt>
      <trkpt lat="47.84536" lon="6.96086">
        <ele>1053</ele>
        <time>2026-05-09T06:24:51.865Z</time>
      </trkpt>
      <trkpt lat="47.84537" lon="6.96086">
        <ele>1053</ele>
        <time>2026-05-09T06:24:52.865Z</time>
      </trkpt>
      <trkpt lat="47.84538" lon="6.96086">
        <ele>1053</ele>
        <time>2026-05-09T06:24:53.865Z</time>
      </trkpt>
      <trkpt lat="47.84538" lon="6.96086">
        <ele>1054</ele>
        <time>2026-05-09T06:24:54.866Z</time>
      </trkpt>
      <trkpt lat="47.84538" lon="6.96086">
        <ele>1054</ele>
        <time>2026-05-09T06:24:55.865Z</time>
      </trkpt>
      <trkpt lat="47.84539" lon="6.96085">
        <ele>1054</ele>
        <time>2026-05-09T06:24:56.866Z</time>
      </trkpt>
      <trkpt lat="47.8454" lon="6.96085">
        <ele>1055</ele>
        <time>2026-05-09T06:24:57.865Z</time>
      </trkpt>
      <trkpt lat="47.8454" lon="6.96085">
        <ele>1055</ele>
        <time>2026-05-09T06:24:58.866Z</time>
      </trkpt>
      <trkpt lat="47.84541" lon="6.96085">
        <ele>1055</ele>
        <time>2026-05-09T06:24:59.866Z</time>
      </trkpt>
      <trkpt lat="47.84542" lon="6.96084">
        <ele>1055</ele>
        <time>2026-05-09T06:25:00.865Z</time>
      </trkpt>
      <trkpt lat="47.84542" lon="6.96084">
        <ele>1055</ele>
        <time>2026-05-09T06:25:01.866Z</time>
      </trkpt>
      <trkpt lat="47.84543" lon="6.96083">
        <ele>1055</ele>
        <time>2026-05-09T06:25:02.866Z</time>
      </trkpt>
      <trkpt lat="47.84544" lon="6.96082">
        <ele>1055</ele>
        <time>2026-05-09T06:25:03.866Z</time>
      </trkpt>
      <trkpt lat="47.84544" lon="6.96082">
        <ele>1055</ele>
        <time>2026-05-09T06:25:04.866Z</time>
      </trkpt>
      <trkpt lat="47.84544" lon="6.96081">
        <ele>1055</ele>
        <time>2026-05-09T06:25:05.865Z</time>
      </trkpt>
      <trkpt lat="47.84545" lon="6.96081">
        <ele>1055</ele>
        <time>2026-05-09T06:25:06.866Z</time>
      </trkpt>
      <trkpt lat="47.84545" lon="6.9608">
        <ele>1056</ele>
        <time>2026-05-09T06:25:07.865Z</time>
      </trkpt>
      <trkpt lat="47.84546" lon="6.9608">
        <ele>1056</ele>
        <time>2026-05-09T06:25:08.865Z</time>
      </trkpt>
      <trkpt lat="47.84546" lon="6.96079">
        <ele>1056</ele>
        <time>2026-05-09T06:25:09.866Z</time>
      </trkpt>
      <trkpt lat="47.84547" lon="6.96078">
        <ele>1056</ele>
        <time>2026-05-09T06:25:10.865Z</time>
      </trkpt>
      <trkpt lat="47.84548" lon="6.96077">
        <ele>1056</ele>
        <time>2026-05-09T06:25:11.865Z</time>
      </trkpt>
      <trkpt lat="47.84548" lon="6.96077">
        <ele>1057</ele>
        <time>2026-05-09T06:25:12.865Z</time>
      </trkpt>
      <trkpt lat="47.84548" lon="6.96076">
        <ele>1057</ele>
        <time>2026-05-09T06:25:13.865Z</time>
      </trkpt>
      <trkpt lat="47.84549" lon="6.96076">
        <ele>1057</ele>
        <time>2026-05-09T06:25:14.865Z</time>
      </trkpt>
      <trkpt lat="47.8455" lon="6.96075">
        <ele>1057</ele>
        <time>2026-05-09T06:25:15.865Z</time>
      </trkpt>
      <trkpt lat="47.84551" lon="6.96074">
        <ele>1057</ele>
        <time>2026-05-09T06:25:16.865Z</time>
      </trkpt>
      <trkpt lat="47.84551" lon="6.96073">
        <ele>1058</ele>
        <time>2026-05-09T06:25:17.865Z</time>
      </trkpt>
      <trkpt lat="47.84552" lon="6.96071">
        <ele>1058</ele>
        <time>2026-05-09T06:25:18.866Z</time>
      </trkpt>
      <trkpt lat="47.84552" lon="6.9607">
        <ele>1058</ele>
        <time>2026-05-09T06:25:19.865Z</time>
      </trkpt>
      <trkpt lat="47.84552" lon="6.96068">
        <ele>1058</ele>
        <time>2026-05-09T06:25:20.866Z</time>
      </trkpt>
      <trkpt lat="47.84552" lon="6.96067">
        <ele>1058</ele>
        <time>2026-05-09T06:25:21.865Z</time>
      </trkpt>
      <trkpt lat="47.84553" lon="6.96065">
        <ele>1057</ele>
        <time>2026-05-09T06:25:22.865Z</time>
      </trkpt>
      <trkpt lat="47.84554" lon="6.96063">
        <ele>1057</ele>
        <time>2026-05-09T06:25:23.866Z</time>
      </trkpt>
      <trkpt lat="47.84555" lon="6.96062">
        <ele>1057</ele>
        <time>2026-05-09T06:25:24.865Z</time>
      </trkpt>
      <trkpt lat="47.84556" lon="6.96061">
        <ele>1058</ele>
        <time>2026-05-09T06:25:25.866Z</time>
      </trkpt>
      <trkpt lat="47.84558" lon="6.96059">
        <ele>1058</ele>
        <time>2026-05-09T06:25:26.866Z</time>
      </trkpt>
      <trkpt lat="47.8456" lon="6.96056">
        <ele>1058</ele>
        <time>2026-05-09T06:25:27.865Z</time>
      </trkpt>
      <trkpt lat="47.84565" lon="6.9605">
        <ele>1059</ele>
        <time>2026-05-09T06:25:28.865Z</time>
      </trkpt>
      <trkpt lat="47.84569" lon="6.96046">
        <ele>1059</ele>
        <time>2026-05-09T06:25:29.866Z</time>
      </trkpt>
      <trkpt lat="47.84573" lon="6.96042">
        <ele>1059</ele>
        <time>2026-05-09T06:25:30.865Z</time>
      </trkpt>
      <trkpt lat="47.84577" lon="6.96038">
        <ele>1060</ele>
        <time>2026-05-09T06:25:31.865Z</time>
      </trkpt>
      <trkpt lat="47.8458" lon="6.96035">
        <ele>1061</ele>
        <time>2026-05-09T06:25:32.865Z</time>
      </trkpt>
      <trkpt lat="47.84582" lon="6.96032">
        <ele>1061</ele>
        <time>2026-05-09T06:25:33.866Z</time>
      </trkpt>
      <trkpt lat="47.84584" lon="6.9603">
        <ele>1061</ele>
        <time>2026-05-09T06:25:34.865Z</time>
      </trkpt>
      <trkpt lat="47.84586" lon="6.96027">
        <ele>1061</ele>
        <time>2026-05-09T06:25:35.865Z</time>
      </trkpt>
      <trkpt lat="47.84588" lon="6.96026">
        <ele>1061</ele>
        <time>2026-05-09T06:25:36.866Z</time>
      </trkpt>
      <trkpt lat="47.84589" lon="6.96024">
        <ele>1061</ele>
        <time>2026-05-09T06:25:37.866Z</time>
      </trkpt>
      <trkpt lat="47.84591" lon="6.96023">
        <ele>1061</ele>
        <time>2026-05-09T06:25:38.865Z</time>
      </trkpt>
      <trkpt lat="47.84591" lon="6.96022">
        <ele>1061</ele>
        <time>2026-05-09T06:25:39.865Z</time>
      </trkpt>
      <trkpt lat="47.84592" lon="6.9602">
        <ele>1060</ele>
        <time>2026-05-09T06:25:40.866Z</time>
      </trkpt>
      <trkpt lat="47.84593" lon="6.96018">
        <ele>1060</ele>
        <time>2026-05-09T06:25:41.865Z</time>
      </trkpt>
      <trkpt lat="47.84595" lon="6.96016">
        <ele>1060</ele>
        <time>2026-05-09T06:25:42.866Z</time>
      </trkpt>
      <trkpt lat="47.84596" lon="6.96014">
        <ele>1060</ele>
        <time>2026-05-09T06:25:43.865Z</time>
      </trkpt>
      <trkpt lat="47.84598" lon="6.96011">
        <ele>1060</ele>
        <time>2026-05-09T06:25:44.865Z</time>
      </trkpt>
      <trkpt lat="47.84599" lon="6.96009">
        <ele>1060</ele>
        <time>2026-05-09T06:25:45.866Z</time>
      </trkpt>
      <trkpt lat="47.84601" lon="6.96006">
        <ele>1060</ele>
        <time>2026-05-09T06:25:46.866Z</time>
      </trkpt>
      <trkpt lat="47.84603" lon="6.96004">
        <ele>1060</ele>
        <time>2026-05-09T06:25:47.866Z</time>
      </trkpt>
      <trkpt lat="47.84604" lon="6.96002">
        <ele>1059</ele>
        <time>2026-05-09T06:25:48.865Z</time>
      </trkpt>
      <trkpt lat="47.84605" lon="6.96001">
        <ele>1059</ele>
        <time>2026-05-09T06:25:49.866Z</time>
      </trkpt>
      <trkpt lat="47.84605" lon="6.96">
        <ele>1059</ele>
        <time>2026-05-09T06:25:50.865Z</time>
      </trkpt>
      <trkpt lat="47.84605" lon="6.96">
        <ele>1059</ele>
        <time>2026-05-09T06:25:51.866Z</time>
      </trkpt>
      <trkpt lat="47.84605" lon="6.95999">
        <ele>1059</ele>
        <time>2026-05-09T06:25:52.865Z</time>
      </trkpt>
      <trkpt lat="47.84605" lon="6.95997">
        <ele>1059</ele>
        <time>2026-05-09T06:25:53.866Z</time>
      </trkpt>
      <trkpt lat="47.84606" lon="6.95995">
        <ele>1059</ele>
        <time>2026-05-09T06:25:54.865Z</time>
      </trkpt>
      <trkpt lat="47.84607" lon="6.95992">
        <ele>1058</ele>
        <time>2026-05-09T06:25:55.866Z</time>
      </trkpt>
      <trkpt lat="47.84607" lon="6.95991">
        <ele>1058</ele>
        <time>2026-05-09T06:25:56.865Z</time>
      </trkpt>
      <trkpt lat="47.84607" lon="6.9599">
        <ele>1058</ele>
        <time>2026-05-09T06:25:57.865Z</time>
      </trkpt>
      <trkpt lat="47.84607" lon="6.95991">
        <ele>1058</ele>
        <time>2026-05-09T06:25:58.866Z</time>
      </trkpt>
      <trkpt lat="47.84607" lon="6.9599">
        <ele>1057</ele>
        <time>2026-05-09T06:25:59.866Z</time>
      </trkpt>
      <trkpt lat="47.84607" lon="6.9599">
        <ele>1057</ele>
        <time>2026-05-09T06:26:00.866Z</time>
      </trkpt>
      <trkpt lat="47.84606" lon="6.95991">
        <ele>1057</ele>
        <time>2026-05-09T06:26:01.865Z</time>
      </trkpt>
      <trkpt lat="47.84607" lon="6.95992">
        <ele>1057</ele>
        <time>2026-05-09T06:26:02.865Z</time>
      </trkpt>
      <trkpt lat="47.84606" lon="6.95992">
        <ele>1057</ele>
        <time>2026-05-09T06:26:03.866Z</time>
      </trkpt>
      <trkpt lat="47.84606" lon="6.95992">
        <ele>1058</ele>
        <time>2026-05-09T06:26:04.865Z</time>
      </trkpt>
      <trkpt lat="47.84606" lon="6.95994">
        <ele>1058</ele>
        <time>2026-05-09T06:26:05.866Z</time>
      </trkpt>
      <trkpt lat="47.84606" lon="6.95996">
        <ele>1059</ele>
        <time>2026-05-09T06:26:06.866Z</time>
      </trkpt>
      <trkpt lat="47.84605" lon="6.95997">
        <ele>1059</ele>
        <time>2026-05-09T06:26:07.865Z</time>
      </trkpt>
      <trkpt lat="47.84605" lon="6.95997">
        <ele>1059</ele>
        <time>2026-05-09T06:26:08.865Z</time>
      </trkpt>
      <trkpt lat="47.84604" lon="6.95997">
        <ele>1059</ele>
        <time>2026-05-09T06:26:09.865Z</time>
      </trkpt>
      <trkpt lat="47.84604" lon="6.95997">
        <ele>1059</ele>
        <time>2026-05-09T06:26:10.866Z</time>
      </trkpt>
      <trkpt lat="47.84604" lon="6.95998">
        <ele>1059</ele>
        <time>2026-05-09T06:26:11.865Z</time>
      </trkpt>
      <trkpt lat="47.84603" lon="6.95999">
        <ele>1059</ele>
        <time>2026-05-09T06:26:12.865Z</time>
      </trkpt>
      <trkpt lat="47.84603" lon="6.96">
        <ele>1059</ele>
        <time>2026-05-09T06:26:13.865Z</time>
      </trkpt>
      <trkpt lat="47.84603" lon="6.96002">
        <ele>1060</ele>
        <time>2026-05-09T06:26:14.866Z</time>
      </trkpt>
      <trkpt lat="47.84603" lon="6.96003">
        <ele>1060</ele>
        <time>2026-05-09T06:26:15.865Z</time>
      </trkpt>
      <trkpt lat="47.84602" lon="6.96004">
        <ele>1061</ele>
        <time>2026-05-09T06:26:16.866Z</time>
      </trkpt>
      <trkpt lat="47.84602" lon="6.96005">
        <ele>1061</ele>
        <time>2026-05-09T06:26:17.865Z</time>
      </trkpt>
      <trkpt lat="47.84601" lon="6.96005">
        <ele>1061</ele>
        <time>2026-05-09T06:26:18.865Z</time>
      </trkpt>
      <trkpt lat="47.84601" lon="6.96005">
        <ele>1061</ele>
        <time>2026-05-09T06:26:19.866Z</time>
      </trkpt>
      <trkpt lat="47.84601" lon="6.96005">
        <ele>1061</ele>
        <time>2026-05-09T06:26:20.866Z</time>
      </trkpt>
      <trkpt lat="47.846" lon="6.96006">
        <ele>1061</ele>
        <time>2026-05-09T06:26:21.865Z</time>
      </trkpt>
      <trkpt lat="47.846" lon="6.96006">
        <ele>1061</ele>
        <time>2026-05-09T06:26:22.866Z</time>
      </trkpt>
      <trkpt lat="47.84599" lon="6.96007">
        <ele>1061</ele>
        <time>2026-05-09T06:26:23.865Z</time>
      </trkpt>
      <trkpt lat="47.84598" lon="6.96007">
        <ele>1061</ele>
        <time>2026-05-09T06:26:24.866Z</time>
      </trkpt>
      <trkpt lat="47.84597" lon="6.96008">
        <ele>1061</ele>
        <time>2026-05-09T06:26:25.866Z</time>
      </trkpt>
      <trkpt lat="47.84596" lon="6.96009">
        <ele>1061</ele>
        <time>2026-05-09T06:26:26.865Z</time>
      </trkpt>
      <trkpt lat="47.84596" lon="6.9601">
        <ele>1061</ele>
        <time>2026-05-09T06:26:27.865Z</time>
      </trkpt>
      <trkpt lat="47.84595" lon="6.9601">
        <ele>1061</ele>
        <time>2026-05-09T06:26:28.865Z</time>
      </trkpt>
      <trkpt lat="47.84594" lon="6.9601">
        <ele>1061</ele>
        <time>2026-05-09T06:26:29.865Z</time>
      </trkpt>
      <trkpt lat="47.84593" lon="6.9601">
        <ele>1060</ele>
        <time>2026-05-09T06:26:30.865Z</time>
      </trkpt>
      <trkpt lat="47.84592" lon="6.96011">
        <ele>1060</ele>
        <time>2026-05-09T06:26:31.865Z</time>
      </trkpt>
      <trkpt lat="47.84592" lon="6.96011">
        <ele>1060</ele>
        <time>2026-05-09T06:26:32.866Z</time>
      </trkpt>
      <trkpt lat="47.84592" lon="6.96011">
        <ele>1060</ele>
        <time>2026-05-09T06:26:33.866Z</time>
      </trkpt>
      <trkpt lat="47.84592" lon="6.96011">
        <ele>1060</ele>
        <time>2026-05-09T06:26:34.866Z</time>
      </trkpt>
      <trkpt lat="47.84589" lon="6.96013">
        <ele>1063</ele>
        <time>2026-05-09T06:26:40.263Z</time>
      </trkpt>
      <trkpt lat="47.84588" lon="6.96013">
        <ele>1063</ele>
        <time>2026-05-09T06:26:41.264Z</time>
      </trkpt>
      <trkpt lat="47.84588" lon="6.96014">
        <ele>1064</ele>
        <time>2026-05-09T06:26:42.263Z</time>
      </trkpt>
      <trkpt lat="47.84587" lon="6.96015">
        <ele>1064</ele>
        <time>2026-05-09T06:26:43.263Z</time>
      </trkpt>
      <trkpt lat="47.84586" lon="6.96015">
        <ele>1064</ele>
        <time>2026-05-09T06:26:44.263Z</time>
      </trkpt>
      <trkpt lat="47.84585" lon="6.96015">
        <ele>1065</ele>
        <time>2026-05-09T06:26:45.263Z</time>
      </trkpt>
      <trkpt lat="47.84584" lon="6.96015">
        <ele>1065</ele>
        <time>2026-05-09T06:26:46.264Z</time>
      </trkpt>
      <trkpt lat="47.84583" lon="6.96016">
        <ele>1066</ele>
        <time>2026-05-09T06:26:47.264Z</time>
      </trkpt>
      <trkpt lat="47.84583" lon="6.96016">
        <ele>1066</ele>
        <time>2026-05-09T06:26:48.264Z</time>
      </trkpt>
      <trkpt lat="47.84582" lon="6.96015">
        <ele>1067</ele>
        <time>2026-05-09T06:26:49.264Z</time>
      </trkpt>
      <trkpt lat="47.84582" lon="6.96015">
        <ele>1067</ele>
        <time>2026-05-09T06:26:50.263Z</time>
      </trkpt>
      <trkpt lat="47.84581" lon="6.96013">
        <ele>1067</ele>
        <time>2026-05-09T06:26:51.264Z</time>
      </trkpt>
      <trkpt lat="47.84581" lon="6.96012">
        <ele>1067</ele>
        <time>2026-05-09T06:26:52.264Z</time>
      </trkpt>
      <trkpt lat="47.84582" lon="6.9601">
        <ele>1067</ele>
        <time>2026-05-09T06:26:53.264Z</time>
      </trkpt>
      <trkpt lat="47.84582" lon="6.9601">
        <ele>1067</ele>
        <time>2026-05-09T06:26:54.263Z</time>
      </trkpt>
      <trkpt lat="47.84582" lon="6.96009">
        <ele>1067</ele>
        <time>2026-05-09T06:26:55.264Z</time>
      </trkpt>
      <trkpt lat="47.84583" lon="6.96009">
        <ele>1067</ele>
        <time>2026-05-09T06:26:56.264Z</time>
      </trkpt>
      <trkpt lat="47.84583" lon="6.96008">
        <ele>1067</ele>
        <time>2026-05-09T06:26:57.263Z</time>
      </trkpt>
      <trkpt lat="47.84584" lon="6.96007">
        <ele>1068</ele>
        <time>2026-05-09T06:26:58.263Z</time>
      </trkpt>
      <trkpt lat="47.84584" lon="6.96006">
        <ele>1068</ele>
        <time>2026-05-09T06:26:59.264Z</time>
      </trkpt>
      <trkpt lat="47.84585" lon="6.96006">
        <ele>1068</ele>
        <time>2026-05-09T06:27:00.263Z</time>
      </trkpt>
      <trkpt lat="47.84585" lon="6.96005">
        <ele>1069</ele>
        <time>2026-05-09T06:27:01.264Z</time>
      </trkpt>
      <trkpt lat="47.84585" lon="6.96004">
        <ele>1069</ele>
        <time>2026-05-09T06:27:02.263Z</time>
      </trkpt>
      <trkpt lat="47.84585" lon="6.96003">
        <ele>1069</ele>
        <time>2026-05-09T06:27:03.264Z</time>
      </trkpt>
      <trkpt lat="47.84585" lon="6.96001">
        <ele>1069</ele>
        <time>2026-05-09T06:27:04.263Z</time>
      </trkpt>
      <trkpt lat="47.84586" lon="6.96">
        <ele>1069</ele>
        <time>2026-05-09T06:27:05.264Z</time>
      </trkpt>
      <trkpt lat="47.84586" lon="6.95999">
        <ele>1069</ele>
        <time>2026-05-09T06:27:06.264Z</time>
      </trkpt>
      <trkpt lat="47.84586" lon="6.95998">
        <ele>1069</ele>
        <time>2026-05-09T06:27:07.264Z</time>
      </trkpt>
      <trkpt lat="47.84587" lon="6.95998">
        <ele>1069</ele>
        <time>2026-05-09T06:27:08.264Z</time>
      </trkpt>
      <trkpt lat="47.84587" lon="6.95996">
        <ele>1069</ele>
        <time>2026-05-09T06:27:09.264Z</time>
      </trkpt>
      <trkpt lat="47.84587" lon="6.95995">
        <ele>1069</ele>
        <time>2026-05-09T06:27:10.264Z</time>
      </trkpt>
      <trkpt lat="47.84587" lon="6.95993">
        <ele>1069</ele>
        <time>2026-05-09T06:27:11.264Z</time>
      </trkpt>
      <trkpt lat="47.84588" lon="6.9599">
        <ele>1070</ele>
        <time>2026-05-09T06:27:12.263Z</time>
      </trkpt>
      <trkpt lat="47.84588" lon="6.95989">
        <ele>1070</ele>
        <time>2026-05-09T06:27:13.264Z</time>
      </trkpt>
      <trkpt lat="47.84588" lon="6.95987">
        <ele>1070</ele>
        <time>2026-05-09T06:27:14.263Z</time>
      </trkpt>
      <trkpt lat="47.84588" lon="6.95986">
        <ele>1070</ele>
        <time>2026-05-09T06:27:15.263Z</time>
      </trkpt>
      <trkpt lat="47.84587" lon="6.95985">
        <ele>1070</ele>
        <time>2026-05-09T06:27:16.263Z</time>
      </trkpt>
      <trkpt lat="47.84587" lon="6.95985">
        <ele>1071</ele>
        <time>2026-05-09T06:27:17.263Z</time>
      </trkpt>
      <trkpt lat="47.84587" lon="6.95985">
        <ele>1071</ele>
        <time>2026-05-09T06:27:18.263Z</time>
      </trkpt>
      <trkpt lat="47.84586" lon="6.95986">
        <ele>1071</ele>
        <time>2026-05-09T06:27:19.263Z</time>
      </trkpt>
      <trkpt lat="47.84585" lon="6.95986">
        <ele>1072</ele>
        <time>2026-05-09T06:27:20.264Z</time>
      </trkpt>
      <trkpt lat="47.84585" lon="6.95987">
        <ele>1072</ele>
        <time>2026-05-09T06:27:21.264Z</time>
      </trkpt>
      <trkpt lat="47.84584" lon="6.95988">
        <ele>1073</ele>
        <time>2026-05-09T06:27:22.263Z</time>
      </trkpt>
      <trkpt lat="47.84582" lon="6.95989">
        <ele>1073</ele>
        <time>2026-05-09T06:27:23.264Z</time>
      </trkpt>
      <trkpt lat="47.84581" lon="6.95989">
        <ele>1074</ele>
        <time>2026-05-09T06:27:24.263Z</time>
      </trkpt>
      <trkpt lat="47.8458" lon="6.95989">
        <ele>1074</ele>
        <time>2026-05-09T06:27:25.264Z</time>
      </trkpt>
      <trkpt lat="47.84578" lon="6.95989">
        <ele>1075</ele>
        <time>2026-05-09T06:27:26.263Z</time>
      </trkpt>
      <trkpt lat="47.84578" lon="6.95988">
        <ele>1075</ele>
        <time>2026-05-09T06:27:27.264Z</time>
      </trkpt>
      <trkpt lat="47.84577" lon="6.95987">
        <ele>1076</ele>
        <time>2026-05-09T06:27:28.263Z</time>
      </trkpt>
      <trkpt lat="47.84577" lon="6.95987">
        <ele>1077</ele>
        <time>2026-05-09T06:27:29.263Z</time>
      </trkpt>
      <trkpt lat="47.84577" lon="6.95985">
        <ele>1077</ele>
        <time>2026-05-09T06:27:30.264Z</time>
      </trkpt>
      <trkpt lat="47.84577" lon="6.95983">
        <ele>1077</ele>
        <time>2026-05-09T06:27:31.263Z</time>
      </trkpt>
      <trkpt lat="47.84577" lon="6.95982">
        <ele>1077</ele>
        <time>2026-05-09T06:27:32.264Z</time>
      </trkpt>
      <trkpt lat="47.84577" lon="6.95981">
        <ele>1077</ele>
        <time>2026-05-09T06:27:33.264Z</time>
      </trkpt>
      <trkpt lat="47.84578" lon="6.95979">
        <ele>1077</ele>
        <time>2026-05-09T06:27:34.264Z</time>
      </trkpt>
      <trkpt lat="47.84578" lon="6.95977">
        <ele>1077</ele>
        <time>2026-05-09T06:27:35.263Z</time>
      </trkpt>
      <trkpt lat="47.84579" lon="6.95975">
        <ele>1077</ele>
        <time>2026-05-09T06:27:36.263Z</time>
      </trkpt>
      <trkpt lat="47.84579" lon="6.95974">
        <ele>1077</ele>
        <time>2026-05-09T06:27:37.263Z</time>
      </trkpt>
      <trkpt lat="47.8458" lon="6.95971">
        <ele>1077</ele>
        <time>2026-05-09T06:27:38.264Z</time>
      </trkpt>
      <trkpt lat="47.8458" lon="6.95969">
        <ele>1078</ele>
        <time>2026-05-09T06:27:39.264Z</time>
      </trkpt>
      <trkpt lat="47.84581" lon="6.95967">
        <ele>1078</ele>
        <time>2026-05-09T06:27:40.264Z</time>
      </trkpt>
      <trkpt lat="47.84582" lon="6.95966">
        <ele>1078</ele>
        <time>2026-05-09T06:27:41.263Z</time>
      </trkpt>
      <trkpt lat="47.84582" lon="6.95965">
        <ele>1079</ele>
        <time>2026-05-09T06:27:42.263Z</time>
      </trkpt>
      <trkpt lat="47.84582" lon="6.95962">
        <ele>1079</ele>
        <time>2026-05-09T06:27:43.263Z</time>
      </trkpt>
      <trkpt lat="47.84583" lon="6.95959">
        <ele>1079</ele>
        <time>2026-05-09T06:27:44.263Z</time>
      </trkpt>
      <trkpt lat="47.84583" lon="6.95955">
        <ele>1079</ele>
        <time>2026-05-09T06:27:45.264Z</time>
      </trkpt>
      <trkpt lat="47.84583" lon="6.95954">
        <ele>1078</ele>
        <time>2026-05-09T06:27:46.263Z</time>
      </trkpt>
      <trkpt lat="47.84583" lon="6.95953">
        <ele>1078</ele>
        <time>2026-05-09T06:27:47.264Z</time>
      </trkpt>
      <trkpt lat="47.84584" lon="6.95952">
        <ele>1078</ele>
        <time>2026-05-09T06:27:48.263Z</time>
      </trkpt>
      <trkpt lat="47.84584" lon="6.95951">
        <ele>1078</ele>
        <time>2026-05-09T06:27:49.264Z</time>
      </trkpt>
      <trkpt lat="47.84585" lon="6.9595">
        <ele>1078</ele>
        <time>2026-05-09T06:27:50.263Z</time>
      </trkpt>
      <trkpt lat="47.84585" lon="6.95949">
        <ele>1079</ele>
        <time>2026-05-09T06:27:51.264Z</time>
      </trkpt>
      <trkpt lat="47.84585" lon="6.95947">
        <ele>1079</ele>
        <time>2026-05-09T06:27:52.263Z</time>
      </trkpt>
      <trkpt lat="47.84586" lon="6.95946">
        <ele>1079</ele>
        <time>2026-05-09T06:27:53.264Z</time>
      </trkpt>
      <trkpt lat="47.84586" lon="6.95945">
        <ele>1079</ele>
        <time>2026-05-09T06:27:54.263Z</time>
      </trkpt>
      <trkpt lat="47.84586" lon="6.95943">
        <ele>1079</ele>
        <time>2026-05-09T06:27:55.264Z</time>
      </trkpt>
      <trkpt lat="47.84586" lon="6.95942">
        <ele>1079</ele>
        <time>2026-05-09T06:27:56.263Z</time>
      </trkpt>
      <trkpt lat="47.84586" lon="6.9594">
        <ele>1079</ele>
        <time>2026-05-09T06:27:57.264Z</time>
      </trkpt>
      <trkpt lat="47.84586" lon="6.95939">
        <ele>1080</ele>
        <time>2026-05-09T06:27:58.263Z</time>
      </trkpt>
      <trkpt lat="47.84585" lon="6.95938">
        <ele>1080</ele>
        <time>2026-05-09T06:27:59.264Z</time>
      </trkpt>
      <trkpt lat="47.84585" lon="6.95936">
        <ele>1080</ele>
        <time>2026-05-09T06:28:00.263Z</time>
      </trkpt>
      <trkpt lat="47.84586" lon="6.95935">
        <ele>1080</ele>
        <time>2026-05-09T06:28:01.263Z</time>
      </trkpt>
      <trkpt lat="47.84586" lon="6.95934">
        <ele>1080</ele>
        <time>2026-05-09T06:28:02.263Z</time>
      </trkpt>
      <trkpt lat="47.84587" lon="6.95933">
        <ele>1080</ele>
        <time>2026-05-09T06:28:03.263Z</time>
      </trkpt>
      <trkpt lat="47.84588" lon="6.95932">
        <ele>1081</ele>
        <time>2026-05-09T06:28:04.264Z</time>
      </trkpt>
      <trkpt lat="47.84588" lon="6.95931">
        <ele>1081</ele>
        <time>2026-05-09T06:28:05.263Z</time>
      </trkpt>
      <trkpt lat="47.84589" lon="6.9593">
        <ele>1081</ele>
        <time>2026-05-09T06:28:06.264Z</time>
      </trkpt>
      <trkpt lat="47.84588" lon="6.95927">
        <ele>1081</ele>
        <time>2026-05-09T06:28:07.263Z</time>
      </trkpt>
      <trkpt lat="47.84588" lon="6.95924">
        <ele>1082</ele>
        <time>2026-05-09T06:28:08.264Z</time>
      </trkpt>
      <trkpt lat="47.84588" lon="6.95922">
        <ele>1082</ele>
        <time>2026-05-09T06:28:09.263Z</time>
      </trkpt>
      <trkpt lat="47.84588" lon="6.95919">
        <ele>1082</ele>
        <time>2026-05-09T06:28:10.264Z</time>
      </trkpt>
      <trkpt lat="47.84588" lon="6.95917">
        <ele>1082</ele>
        <time>2026-05-09T06:28:11.263Z</time>
      </trkpt>
      <trkpt lat="47.84589" lon="6.95916">
        <ele>1081</ele>
        <time>2026-05-09T06:28:12.264Z</time>
      </trkpt>
      <trkpt lat="47.84589" lon="6.95916">
        <ele>1082</ele>
        <time>2026-05-09T06:28:13.263Z</time>
      </trkpt>
      <trkpt lat="47.84589" lon="6.95915">
        <ele>1082</ele>
        <time>2026-05-09T06:28:14.263Z</time>
      </trkpt>
      <trkpt lat="47.8459" lon="6.95914">
        <ele>1082</ele>
        <time>2026-05-09T06:28:15.263Z</time>
      </trkpt>
      <trkpt lat="47.8459" lon="6.95913">
        <ele>1082</ele>
        <time>2026-05-09T06:28:16.263Z</time>
      </trkpt>
      <trkpt lat="47.84591" lon="6.95913">
        <ele>1082</ele>
        <time>2026-05-09T06:28:17.264Z</time>
      </trkpt>
      <trkpt lat="47.84592" lon="6.95912">
        <ele>1083</ele>
        <time>2026-05-09T06:28:18.263Z</time>
      </trkpt>
      <trkpt lat="47.84593" lon="6.95913">
        <ele>1083</ele>
        <time>2026-05-09T06:28:19.264Z</time>
      </trkpt>
      <trkpt lat="47.84594" lon="6.95912">
        <ele>1084</ele>
        <time>2026-05-09T06:28:20.263Z</time>
      </trkpt>
      <trkpt lat="47.84596" lon="6.95912">
        <ele>1085</ele>
        <time>2026-05-09T06:28:21.264Z</time>
      </trkpt>
      <trkpt lat="47.84597" lon="6.95911">
        <ele>1086</ele>
        <time>2026-05-09T06:28:22.263Z</time>
      </trkpt>
      <trkpt lat="47.84599" lon="6.95911">
        <ele>1087</ele>
        <time>2026-05-09T06:28:23.264Z</time>
      </trkpt>
      <trkpt lat="47.84601" lon="6.95912">
        <ele>1087</ele>
        <time>2026-05-09T06:28:24.263Z</time>
      </trkpt>
      <trkpt lat="47.84602" lon="6.95912">
        <ele>1088</ele>
        <time>2026-05-09T06:28:25.263Z</time>
      </trkpt>
      <trkpt lat="47.84603" lon="6.95911">
        <ele>1089</ele>
        <time>2026-05-09T06:28:26.263Z</time>
      </trkpt>
      <trkpt lat="47.84605" lon="6.95911">
        <ele>1089</ele>
        <time>2026-05-09T06:28:27.264Z</time>
      </trkpt>
      <trkpt lat="47.84603" lon="6.95908">
        <ele>1090</ele>
        <time>2026-05-09T06:28:28.263Z</time>
      </trkpt>
      <trkpt lat="47.84604" lon="6.95906">
        <ele>1090</ele>
        <time>2026-05-09T06:28:29.264Z</time>
      </trkpt>
      <trkpt lat="47.84604" lon="6.95905">
        <ele>1090</ele>
        <time>2026-05-09T06:28:30.263Z</time>
      </trkpt>
      <trkpt lat="47.84605" lon="6.95905">
        <ele>1091</ele>
        <time>2026-05-09T06:28:31.264Z</time>
      </trkpt>
      <trkpt lat="47.84606" lon="6.95904">
        <ele>1091</ele>
        <time>2026-05-09T06:28:32.263Z</time>
      </trkpt>
      <trkpt lat="47.84606" lon="6.95904">
        <ele>1091</ele>
        <time>2026-05-09T06:28:33.263Z</time>
      </trkpt>
      <trkpt lat="47.84606" lon="6.95904">
        <ele>1092</ele>
        <time>2026-05-09T06:28:34.264Z</time>
      </trkpt>
      <trkpt lat="47.84607" lon="6.95904">
        <ele>1092</ele>
        <time>2026-05-09T06:28:35.263Z</time>
      </trkpt>
      <trkpt lat="47.84609" lon="6.95904">
        <ele>1093</ele>
        <time>2026-05-09T06:28:36.264Z</time>
      </trkpt>
      <trkpt lat="47.8461" lon="6.95904">
        <ele>1093</ele>
        <time>2026-05-09T06:28:37.263Z</time>
      </trkpt>
      <trkpt lat="47.8461" lon="6.95904">
        <ele>1093</ele>
        <time>2026-05-09T06:28:38.264Z</time>
      </trkpt>
      <trkpt lat="47.8461" lon="6.95903">
        <ele>1093</ele>
        <time>2026-05-09T06:28:39.263Z</time>
      </trkpt>
      <trkpt lat="47.84608" lon="6.95903">
        <ele>1093</ele>
        <time>2026-05-09T06:28:40.264Z</time>
      </trkpt>
      <trkpt lat="47.84607" lon="6.95903">
        <ele>1093</ele>
        <time>2026-05-09T06:28:41.264Z</time>
      </trkpt>
      <trkpt lat="47.84607" lon="6.95902">
        <ele>1093</ele>
        <time>2026-05-09T06:28:42.263Z</time>
      </trkpt>
      <trkpt lat="47.84607" lon="6.959">
        <ele>1093</ele>
        <time>2026-05-09T06:28:43.263Z</time>
      </trkpt>
      <trkpt lat="47.84607" lon="6.959">
        <ele>1093</ele>
        <time>2026-05-09T06:28:44.264Z</time>
      </trkpt>
      <trkpt lat="47.84607" lon="6.95898">
        <ele>1093</ele>
        <time>2026-05-09T06:28:45.263Z</time>
      </trkpt>
      <trkpt lat="47.84608" lon="6.95897">
        <ele>1092</ele>
        <time>2026-05-09T06:28:46.263Z</time>
      </trkpt>
      <trkpt lat="47.84608" lon="6.95896">
        <ele>1092</ele>
        <time>2026-05-09T06:28:47.263Z</time>
      </trkpt>
      <trkpt lat="47.84609" lon="6.95895">
        <ele>1092</ele>
        <time>2026-05-09T06:28:48.263Z</time>
      </trkpt>
      <trkpt lat="47.8461" lon="6.95894">
        <ele>1092</ele>
        <time>2026-05-09T06:28:49.264Z</time>
      </trkpt>
      <trkpt lat="47.84611" lon="6.95893">
        <ele>1092</ele>
        <time>2026-05-09T06:28:50.263Z</time>
      </trkpt>
      <trkpt lat="47.84611" lon="6.95892">
        <ele>1092</ele>
        <time>2026-05-09T06:28:51.264Z</time>
      </trkpt>
      <trkpt lat="47.84611" lon="6.95891">
        <ele>1091</ele>
        <time>2026-05-09T06:28:52.263Z</time>
      </trkpt>
      <trkpt lat="47.84613" lon="6.9589">
        <ele>1091</ele>
        <time>2026-05-09T06:28:53.263Z</time>
      </trkpt>
      <trkpt lat="47.84613" lon="6.95889">
        <ele>1091</ele>
        <time>2026-05-09T06:28:54.264Z</time>
      </trkpt>
      <trkpt lat="47.84613" lon="6.95888">
        <ele>1092</ele>
        <time>2026-05-09T06:28:55.264Z</time>
      </trkpt>
      <trkpt lat="47.84614" lon="6.95886">
        <ele>1092</ele>
        <time>2026-05-09T06:28:56.264Z</time>
      </trkpt>
      <trkpt lat="47.84615" lon="6.95884">
        <ele>1092</ele>
        <time>2026-05-09T06:28:57.263Z</time>
      </trkpt>
      <trkpt lat="47.84615" lon="6.95882">
        <ele>1092</ele>
        <time>2026-05-09T06:28:58.264Z</time>
      </trkpt>
      <trkpt lat="47.84615" lon="6.9588">
        <ele>1092</ele>
        <time>2026-05-09T06:28:59.264Z</time>
      </trkpt>
      <trkpt lat="47.84615" lon="6.95879">
        <ele>1092</ele>
        <time>2026-05-09T06:29:00.264Z</time>
      </trkpt>
      <trkpt lat="47.84615" lon="6.95878">
        <ele>1093</ele>
        <time>2026-05-09T06:29:01.263Z</time>
      </trkpt>
      <trkpt lat="47.84616" lon="6.95876">
        <ele>1093</ele>
        <time>2026-05-09T06:29:02.264Z</time>
      </trkpt>
      <trkpt lat="47.84617" lon="6.95874">
        <ele>1093</ele>
        <time>2026-05-09T06:29:03.264Z</time>
      </trkpt>
      <trkpt lat="47.84617" lon="6.95872">
        <ele>1093</ele>
        <time>2026-05-09T06:29:04.264Z</time>
      </trkpt>
      <trkpt lat="47.84617" lon="6.95871">
        <ele>1093</ele>
        <time>2026-05-09T06:29:05.263Z</time>
      </trkpt>
      <trkpt lat="47.84618" lon="6.95869">
        <ele>1093</ele>
        <time>2026-05-09T06:29:06.263Z</time>
      </trkpt>
      <trkpt lat="47.84618" lon="6.95868">
        <ele>1093</ele>
        <time>2026-05-09T06:29:07.264Z</time>
      </trkpt>
      <trkpt lat="47.84618" lon="6.95867">
        <ele>1093</ele>
        <time>2026-05-09T06:29:08.264Z</time>
      </trkpt>
      <trkpt lat="47.84619" lon="6.95865">
        <ele>1093</ele>
        <time>2026-05-09T06:29:09.263Z</time>
      </trkpt>
      <trkpt lat="47.84619" lon="6.95863">
        <ele>1093</ele>
        <time>2026-05-09T06:29:10.263Z</time>
      </trkpt>
      <trkpt lat="47.84619" lon="6.95861">
        <ele>1092</ele>
        <time>2026-05-09T06:29:11.264Z</time>
      </trkpt>
      <trkpt lat="47.8462" lon="6.95859">
        <ele>1092</ele>
        <time>2026-05-09T06:29:12.263Z</time>
      </trkpt>
      <trkpt lat="47.8462" lon="6.95857">
        <ele>1091</ele>
        <time>2026-05-09T06:29:13.263Z</time>
      </trkpt>
      <trkpt lat="47.8462" lon="6.95855">
        <ele>1091</ele>
        <time>2026-05-09T06:29:14.264Z</time>
      </trkpt>
      <trkpt lat="47.8462" lon="6.95854">
        <ele>1091</ele>
        <time>2026-05-09T06:29:15.263Z</time>
      </trkpt>
      <trkpt lat="47.8462" lon="6.95852">
        <ele>1090</ele>
        <time>2026-05-09T06:29:16.263Z</time>
      </trkpt>
      <trkpt lat="47.84621" lon="6.95852">
        <ele>1090</ele>
        <time>2026-05-09T06:29:17.264Z</time>
      </trkpt>
      <trkpt lat="47.84621" lon="6.9585">
        <ele>1090</ele>
        <time>2026-05-09T06:29:18.263Z</time>
      </trkpt>
      <trkpt lat="47.84623" lon="6.9585">
        <ele>1090</ele>
        <time>2026-05-09T06:29:19.263Z</time>
      </trkpt>
      <trkpt lat="47.84624" lon="6.95848">
        <ele>1091</ele>
        <time>2026-05-09T06:29:20.264Z</time>
      </trkpt>
      <trkpt lat="47.84625" lon="6.95846">
        <ele>1091</ele>
        <time>2026-05-09T06:29:21.264Z</time>
      </trkpt>
      <trkpt lat="47.84626" lon="6.95845">
        <ele>1091</ele>
        <time>2026-05-09T06:29:22.263Z</time>
      </trkpt>
      <trkpt lat="47.84627" lon="6.95841">
        <ele>1091</ele>
        <time>2026-05-09T06:29:23.264Z</time>
      </trkpt>
      <trkpt lat="47.84627" lon="6.95839">
        <ele>1091</ele>
        <time>2026-05-09T06:29:24.264Z</time>
      </trkpt>
      <trkpt lat="47.84628" lon="6.95838">
        <ele>1091</ele>
        <time>2026-05-09T06:29:25.263Z</time>
      </trkpt>
      <trkpt lat="47.84629" lon="6.95836">
        <ele>1091</ele>
        <time>2026-05-09T06:29:26.263Z</time>
      </trkpt>
      <trkpt lat="47.8463" lon="6.95835">
        <ele>1092</ele>
        <time>2026-05-09T06:29:27.263Z</time>
      </trkpt>
      <trkpt lat="47.84631" lon="6.95833">
        <ele>1092</ele>
        <time>2026-05-09T06:29:28.264Z</time>
      </trkpt>
      <trkpt lat="47.84631" lon="6.95831">
        <ele>1093</ele>
        <time>2026-05-09T06:29:29.263Z</time>
      </trkpt>
      <trkpt lat="47.84632" lon="6.95831">
        <ele>1093</ele>
        <time>2026-05-09T06:29:30.264Z</time>
      </trkpt>
      <trkpt lat="47.84634" lon="6.95832">
        <ele>1094</ele>
        <time>2026-05-09T06:29:31.263Z</time>
      </trkpt>
      <trkpt lat="47.84636" lon="6.95832">
        <ele>1094</ele>
        <time>2026-05-09T06:29:32.263Z</time>
      </trkpt>
      <trkpt lat="47.84636" lon="6.95832">
        <ele>1094</ele>
        <time>2026-05-09T06:29:33.263Z</time>
      </trkpt>
      <trkpt lat="47.84636" lon="6.95831">
        <ele>1095</ele>
        <time>2026-05-09T06:29:34.263Z</time>
      </trkpt>
      <trkpt lat="47.84638" lon="6.9583">
        <ele>1098</ele>
        <time>2026-05-09T06:29:40.594Z</time>
      </trkpt>
      <trkpt lat="47.84639" lon="6.95829">
        <ele>1098</ele>
        <time>2026-05-09T06:29:41.593Z</time>
      </trkpt>
      <trkpt lat="47.84639" lon="6.95829">
        <ele>1099</ele>
        <time>2026-05-09T06:29:42.593Z</time>
      </trkpt>
      <trkpt lat="47.8464" lon="6.95829">
        <ele>1099</ele>
        <time>2026-05-09T06:29:43.593Z</time>
      </trkpt>
      <trkpt lat="47.84641" lon="6.95829">
        <ele>1100</ele>
        <time>2026-05-09T06:29:44.593Z</time>
      </trkpt>
      <trkpt lat="47.84642" lon="6.95829">
        <ele>1100</ele>
        <time>2026-05-09T06:29:45.593Z</time>
      </trkpt>
      <trkpt lat="47.84643" lon="6.95829">
        <ele>1101</ele>
        <time>2026-05-09T06:29:46.594Z</time>
      </trkpt>
      <trkpt lat="47.84643" lon="6.95829">
        <ele>1101</ele>
        <time>2026-05-09T06:29:47.593Z</time>
      </trkpt>
      <trkpt lat="47.84644" lon="6.95829">
        <ele>1102</ele>
        <time>2026-05-09T06:29:48.594Z</time>
      </trkpt>
      <trkpt lat="47.84644" lon="6.95829">
        <ele>1102</ele>
        <time>2026-05-09T06:29:49.593Z</time>
      </trkpt>
      <trkpt lat="47.84645" lon="6.95828">
        <ele>1102</ele>
        <time>2026-05-09T06:29:50.594Z</time>
      </trkpt>
      <trkpt lat="47.84645" lon="6.95828">
        <ele>1102</ele>
        <time>2026-05-09T06:29:51.594Z</time>
      </trkpt>
      <trkpt lat="47.84645" lon="6.95827">
        <ele>1102</ele>
        <time>2026-05-09T06:29:52.594Z</time>
      </trkpt>
      <trkpt lat="47.84646" lon="6.95827">
        <ele>1102</ele>
        <time>2026-05-09T06:29:53.594Z</time>
      </trkpt>
      <trkpt lat="47.84647" lon="6.95826">
        <ele>1102</ele>
        <time>2026-05-09T06:29:54.593Z</time>
      </trkpt>
      <trkpt lat="47.84647" lon="6.95825">
        <ele>1102</ele>
        <time>2026-05-09T06:29:55.594Z</time>
      </trkpt>
      <trkpt lat="47.84648" lon="6.95824">
        <ele>1102</ele>
        <time>2026-05-09T06:29:56.593Z</time>
      </trkpt>
      <trkpt lat="47.84649" lon="6.95823">
        <ele>1103</ele>
        <time>2026-05-09T06:29:57.594Z</time>
      </trkpt>
      <trkpt lat="47.8465" lon="6.95823">
        <ele>1103</ele>
        <time>2026-05-09T06:29:58.593Z</time>
      </trkpt>
      <trkpt lat="47.84651" lon="6.95823">
        <ele>1103</ele>
        <time>2026-05-09T06:29:59.594Z</time>
      </trkpt>
      <trkpt lat="47.84653" lon="6.95822">
        <ele>1103</ele>
        <time>2026-05-09T06:30:00.593Z</time>
      </trkpt>
      <trkpt lat="47.84654" lon="6.95822">
        <ele>1104</ele>
        <time>2026-05-09T06:30:01.594Z</time>
      </trkpt>
      <trkpt lat="47.84655" lon="6.95822">
        <ele>1104</ele>
        <time>2026-05-09T06:30:02.593Z</time>
      </trkpt>
      <trkpt lat="47.84656" lon="6.95821">
        <ele>1104</ele>
        <time>2026-05-09T06:30:03.593Z</time>
      </trkpt>
      <trkpt lat="47.84657" lon="6.95821">
        <ele>1104</ele>
        <time>2026-05-09T06:30:04.593Z</time>
      </trkpt>
      <trkpt lat="47.84658" lon="6.95821">
        <ele>1104</ele>
        <time>2026-05-09T06:30:05.594Z</time>
      </trkpt>
      <trkpt lat="47.84658" lon="6.9582">
        <ele>1104</ele>
        <time>2026-05-09T06:30:06.593Z</time>
      </trkpt>
      <trkpt lat="47.84659" lon="6.95819">
        <ele>1104</ele>
        <time>2026-05-09T06:30:07.594Z</time>
      </trkpt>
      <trkpt lat="47.84659" lon="6.95819">
        <ele>1104</ele>
        <time>2026-05-09T06:30:08.593Z</time>
      </trkpt>
      <trkpt lat="47.8466" lon="6.95818">
        <ele>1105</ele>
        <time>2026-05-09T06:30:09.594Z</time>
      </trkpt>
      <trkpt lat="47.8466" lon="6.95818">
        <ele>1105</ele>
        <time>2026-05-09T06:30:10.594Z</time>
      </trkpt>
      <trkpt lat="47.84661" lon="6.95817">
        <ele>1105</ele>
        <time>2026-05-09T06:30:11.593Z</time>
      </trkpt>
      <trkpt lat="47.84661" lon="6.95817">
        <ele>1105</ele>
        <time>2026-05-09T06:30:12.593Z</time>
      </trkpt>
      <trkpt lat="47.84662" lon="6.95817">
        <ele>1104</ele>
        <time>2026-05-09T06:30:13.594Z</time>
      </trkpt>
      <trkpt lat="47.84663" lon="6.95817">
        <ele>1104</ele>
        <time>2026-05-09T06:30:14.593Z</time>
      </trkpt>
      <trkpt lat="47.84664" lon="6.95816">
        <ele>1104</ele>
        <time>2026-05-09T06:30:15.593Z</time>
      </trkpt>
      <trkpt lat="47.84664" lon="6.95816">
        <ele>1104</ele>
        <time>2026-05-09T06:30:16.593Z</time>
      </trkpt>
      <trkpt lat="47.84664" lon="6.95816">
        <ele>1104</ele>
        <time>2026-05-09T06:30:17.594Z</time>
      </trkpt>
      <trkpt lat="47.84662" lon="6.95812">
        <ele>1104</ele>
        <time>2026-05-09T06:30:23.897Z</time>
      </trkpt>
      <trkpt lat="47.84662" lon="6.95811">
        <ele>1103</ele>
        <time>2026-05-09T06:30:24.896Z</time>
      </trkpt>
      <trkpt lat="47.84661" lon="6.9581">
        <ele>1103</ele>
        <time>2026-05-09T06:30:25.897Z</time>
      </trkpt>
      <trkpt lat="47.8466" lon="6.95808">
        <ele>1103</ele>
        <time>2026-05-09T06:30:26.896Z</time>
      </trkpt>
      <trkpt lat="47.84659" lon="6.95807">
        <ele>1104</ele>
        <time>2026-05-09T06:30:27.896Z</time>
      </trkpt>
      <trkpt lat="47.84659" lon="6.95807">
        <ele>1104</ele>
        <time>2026-05-09T06:30:28.896Z</time>
      </trkpt>
      <trkpt lat="47.84658" lon="6.95805">
        <ele>1104</ele>
        <time>2026-05-09T06:30:29.896Z</time>
      </trkpt>
      <trkpt lat="47.84657" lon="6.95804">
        <ele>1104</ele>
        <time>2026-05-09T06:30:30.897Z</time>
      </trkpt>
      <trkpt lat="47.84657" lon="6.95803">
        <ele>1105</ele>
        <time>2026-05-09T06:30:31.897Z</time>
      </trkpt>
      <trkpt lat="47.84657" lon="6.95802">
        <ele>1105</ele>
        <time>2026-05-09T06:30:32.897Z</time>
      </trkpt>
      <trkpt lat="47.84656" lon="6.95801">
        <ele>1105</ele>
        <time>2026-05-09T06:30:33.896Z</time>
      </trkpt>
      <trkpt lat="47.84656" lon="6.95801">
        <ele>1105</ele>
        <time>2026-05-09T06:30:34.897Z</time>
      </trkpt>
      <trkpt lat="47.84655" lon="6.958">
        <ele>1105</ele>
        <time>2026-05-09T06:30:35.897Z</time>
      </trkpt>
      <trkpt lat="47.84654" lon="6.95799">
        <ele>1105</ele>
        <time>2026-05-09T06:30:36.896Z</time>
      </trkpt>
      <trkpt lat="47.84653" lon="6.95799">
        <ele>1105</ele>
        <time>2026-05-09T06:30:37.897Z</time>
      </trkpt>
      <trkpt lat="47.84652" lon="6.95797">
        <ele>1104</ele>
        <time>2026-05-09T06:30:38.897Z</time>
      </trkpt>
      <trkpt lat="47.84652" lon="6.95796">
        <ele>1104</ele>
        <time>2026-05-09T06:30:39.897Z</time>
      </trkpt>
      <trkpt lat="47.84651" lon="6.95795">
        <ele>1104</ele>
        <time>2026-05-09T06:30:40.897Z</time>
      </trkpt>
      <trkpt lat="47.84651" lon="6.95792">
        <ele>1103</ele>
        <time>2026-05-09T06:30:41.896Z</time>
      </trkpt>
      <trkpt lat="47.84651" lon="6.95791">
        <ele>1103</ele>
        <time>2026-05-09T06:30:42.896Z</time>
      </trkpt>
      <trkpt lat="47.84651" lon="6.95789">
        <ele>1102</ele>
        <time>2026-05-09T06:30:43.896Z</time>
      </trkpt>
      <trkpt lat="47.84651" lon="6.95788">
        <ele>1102</ele>
        <time>2026-05-09T06:30:44.896Z</time>
      </trkpt>
      <trkpt lat="47.84651" lon="6.95786">
        <ele>1102</ele>
        <time>2026-05-09T06:30:45.896Z</time>
      </trkpt>
      <trkpt lat="47.84651" lon="6.95785">
        <ele>1101</ele>
        <time>2026-05-09T06:30:46.897Z</time>
      </trkpt>
      <trkpt lat="47.84651" lon="6.95783">
        <ele>1101</ele>
        <time>2026-05-09T06:30:47.897Z</time>
      </trkpt>
      <trkpt lat="47.8465" lon="6.95782">
        <ele>1100</ele>
        <time>2026-05-09T06:30:48.896Z</time>
      </trkpt>
      <trkpt lat="47.8465" lon="6.9578">
        <ele>1100</ele>
        <time>2026-05-09T06:30:49.896Z</time>
      </trkpt>
      <trkpt lat="47.8465" lon="6.95778">
        <ele>1099</ele>
        <time>2026-05-09T06:30:50.896Z</time>
      </trkpt>
      <trkpt lat="47.8465" lon="6.95776">
        <ele>1099</ele>
        <time>2026-05-09T06:30:51.896Z</time>
      </trkpt>
      <trkpt lat="47.8465" lon="6.95775">
        <ele>1099</ele>
        <time>2026-05-09T06:30:52.897Z</time>
      </trkpt>
      <trkpt lat="47.8465" lon="6.95774">
        <ele>1099</ele>
        <time>2026-05-09T06:30:53.897Z</time>
      </trkpt>
      <trkpt lat="47.8465" lon="6.95773">
        <ele>1098</ele>
        <time>2026-05-09T06:30:54.897Z</time>
      </trkpt>
      <trkpt lat="47.8465" lon="6.95772">
        <ele>1098</ele>
        <time>2026-05-09T06:30:55.897Z</time>
      </trkpt>
      <trkpt lat="47.8465" lon="6.9577">
        <ele>1098</ele>
        <time>2026-05-09T06:30:56.897Z</time>
      </trkpt>
      <trkpt lat="47.8465" lon="6.95769">
        <ele>1098</ele>
        <time>2026-05-09T06:30:57.896Z</time>
      </trkpt>
      <trkpt lat="47.8465" lon="6.95768">
        <ele>1098</ele>
        <time>2026-05-09T06:30:58.896Z</time>
      </trkpt>
      <trkpt lat="47.84651" lon="6.95767">
        <ele>1098</ele>
        <time>2026-05-09T06:30:59.896Z</time>
      </trkpt>
      <trkpt lat="47.84651" lon="6.95766">
        <ele>1098</ele>
        <time>2026-05-09T06:31:00.896Z</time>
      </trkpt>
      <trkpt lat="47.84651" lon="6.95764">
        <ele>1098</ele>
        <time>2026-05-09T06:31:01.896Z</time>
      </trkpt>
      <trkpt lat="47.8465" lon="6.95762">
        <ele>1097</ele>
        <time>2026-05-09T06:31:02.896Z</time>
      </trkpt>
      <trkpt lat="47.8465" lon="6.9576">
        <ele>1097</ele>
        <time>2026-05-09T06:31:03.896Z</time>
      </trkpt>
      <trkpt lat="47.8465" lon="6.95759">
        <ele>1097</ele>
        <time>2026-05-09T06:31:04.896Z</time>
      </trkpt>
      <trkpt lat="47.8465" lon="6.95757">
        <ele>1098</ele>
        <time>2026-05-09T06:31:05.896Z</time>
      </trkpt>
      <trkpt lat="47.84651" lon="6.95756">
        <ele>1098</ele>
        <time>2026-05-09T06:31:06.896Z</time>
      </trkpt>
      <trkpt lat="47.84651" lon="6.95754">
        <ele>1098</ele>
        <time>2026-05-09T06:31:07.897Z</time>
      </trkpt>
      <trkpt lat="47.84651" lon="6.95753">
        <ele>1098</ele>
        <time>2026-05-09T06:31:08.897Z</time>
      </trkpt>
      <trkpt lat="47.84651" lon="6.95752">
        <ele>1098</ele>
        <time>2026-05-09T06:31:09.896Z</time>
      </trkpt>
      <trkpt lat="47.84652" lon="6.95751">
        <ele>1098</ele>
        <time>2026-05-09T06:31:10.896Z</time>
      </trkpt>
      <trkpt lat="47.84652" lon="6.95749">
        <ele>1098</ele>
        <time>2026-05-09T06:31:11.897Z</time>
      </trkpt>
      <trkpt lat="47.84652" lon="6.95748">
        <ele>1098</ele>
        <time>2026-05-09T06:31:12.897Z</time>
      </trkpt>
      <trkpt lat="47.84652" lon="6.95747">
        <ele>1099</ele>
        <time>2026-05-09T06:31:13.897Z</time>
      </trkpt>
      <trkpt lat="47.84652" lon="6.95747">
        <ele>1099</ele>
        <time>2026-05-09T06:31:14.896Z</time>
      </trkpt>
      <trkpt lat="47.84648" lon="6.95734">
        <ele>1110</ele>
        <time>2026-05-09T06:32:26.326Z</time>
      </trkpt>
      <trkpt lat="47.84648" lon="6.95733">
        <ele>1109</ele>
        <time>2026-05-09T06:32:27.326Z</time>
      </trkpt>
      <trkpt lat="47.84648" lon="6.95732">
        <ele>1109</ele>
        <time>2026-05-09T06:32:28.326Z</time>
      </trkpt>
      <trkpt lat="47.84648" lon="6.95731">
        <ele>1109</ele>
        <time>2026-05-09T06:32:29.326Z</time>
      </trkpt>
      <trkpt lat="47.84648" lon="6.9573">
        <ele>1108</ele>
        <time>2026-05-09T06:32:30.327Z</time>
      </trkpt>
      <trkpt lat="47.84648" lon="6.95729">
        <ele>1108</ele>
        <time>2026-05-09T06:32:31.327Z</time>
      </trkpt>
      <trkpt lat="47.84648" lon="6.95728">
        <ele>1108</ele>
        <time>2026-05-09T06:32:32.326Z</time>
      </trkpt>
      <trkpt lat="47.84648" lon="6.95727">
        <ele>1108</ele>
        <time>2026-05-09T06:32:33.326Z</time>
      </trkpt>
      <trkpt lat="47.84648" lon="6.95726">
        <ele>1107</ele>
        <time>2026-05-09T06:32:34.327Z</time>
      </trkpt>
      <trkpt lat="47.84648" lon="6.95725">
        <ele>1107</ele>
        <time>2026-05-09T06:32:35.326Z</time>
      </trkpt>
      <trkpt lat="47.84648" lon="6.95724">
        <ele>1106</ele>
        <time>2026-05-09T06:32:36.326Z</time>
      </trkpt>
      <trkpt lat="47.84648" lon="6.95722">
        <ele>1105</ele>
        <time>2026-05-09T06:32:37.326Z</time>
      </trkpt>
      <trkpt lat="47.84649" lon="6.95721">
        <ele>1105</ele>
        <time>2026-05-09T06:32:38.326Z</time>
      </trkpt>
      <trkpt lat="47.84649" lon="6.9572">
        <ele>1104</ele>
        <time>2026-05-09T06:32:39.326Z</time>
      </trkpt>
      <trkpt lat="47.84649" lon="6.95718">
        <ele>1103</ele>
        <time>2026-05-09T06:32:40.326Z</time>
      </trkpt>
      <trkpt lat="47.84648" lon="6.95717">
        <ele>1103</ele>
        <time>2026-05-09T06:32:41.326Z</time>
      </trkpt>
      <trkpt lat="47.84649" lon="6.95715">
        <ele>1102</ele>
        <time>2026-05-09T06:32:42.326Z</time>
      </trkpt>
      <trkpt lat="47.84648" lon="6.95714">
        <ele>1102</ele>
        <time>2026-05-09T06:32:43.326Z</time>
      </trkpt>
      <trkpt lat="47.84648" lon="6.95713">
        <ele>1101</ele>
        <time>2026-05-09T06:32:44.327Z</time>
      </trkpt>
      <trkpt lat="47.84648" lon="6.95712">
        <ele>1101</ele>
        <time>2026-05-09T06:32:45.326Z</time>
      </trkpt>
      <trkpt lat="47.84648" lon="6.95711">
        <ele>1101</ele>
        <time>2026-05-09T06:32:46.326Z</time>
      </trkpt>
      <trkpt lat="47.84648" lon="6.95709">
        <ele>1101</ele>
        <time>2026-05-09T06:32:47.326Z</time>
      </trkpt>
      <trkpt lat="47.84648" lon="6.95708">
        <ele>1101</ele>
        <time>2026-05-09T06:32:48.326Z</time>
      </trkpt>
      <trkpt lat="47.84648" lon="6.95707">
        <ele>1101</ele>
        <time>2026-05-09T06:32:49.326Z</time>
      </trkpt>
      <trkpt lat="47.84648" lon="6.95706">
        <ele>1101</ele>
        <time>2026-05-09T06:32:50.326Z</time>
      </trkpt>
      <trkpt lat="47.84648" lon="6.95705">
        <ele>1100</ele>
        <time>2026-05-09T06:32:51.327Z</time>
      </trkpt>
      <trkpt lat="47.84648" lon="6.95703">
        <ele>1099</ele>
        <time>2026-05-09T06:32:52.327Z</time>
      </trkpt>
      <trkpt lat="47.84648" lon="6.95701">
        <ele>1099</ele>
        <time>2026-05-09T06:32:53.326Z</time>
      </trkpt>
      <trkpt lat="47.84647" lon="6.957">
        <ele>1099</ele>
        <time>2026-05-09T06:32:54.326Z</time>
      </trkpt>
      <trkpt lat="47.84647" lon="6.95698">
        <ele>1098</ele>
        <time>2026-05-09T06:32:55.326Z</time>
      </trkpt>
      <trkpt lat="47.84647" lon="6.95697">
        <ele>1098</ele>
        <time>2026-05-09T06:32:56.326Z</time>
      </trkpt>
      <trkpt lat="47.84647" lon="6.95695">
        <ele>1097</ele>
        <time>2026-05-09T06:32:57.326Z</time>
      </trkpt>
      <trkpt lat="47.84648" lon="6.95692">
        <ele>1097</ele>
        <time>2026-05-09T06:32:58.326Z</time>
      </trkpt>
      <trkpt lat="47.84648" lon="6.9569">
        <ele>1096</ele>
        <time>2026-05-09T06:32:59.326Z</time>
      </trkpt>
      <trkpt lat="47.84648" lon="6.95688">
        <ele>1096</ele>
        <time>2026-05-09T06:33:00.326Z</time>
      </trkpt>
      <trkpt lat="47.84649" lon="6.95687">
        <ele>1095</ele>
        <time>2026-05-09T06:33:01.326Z</time>
      </trkpt>
      <trkpt lat="47.84649" lon="6.95685">
        <ele>1095</ele>
        <time>2026-05-09T06:33:02.326Z</time>
      </trkpt>
      <trkpt lat="47.84649" lon="6.95683">
        <ele>1095</ele>
        <time>2026-05-09T06:33:03.326Z</time>
      </trkpt>
      <trkpt lat="47.84649" lon="6.95681">
        <ele>1095</ele>
        <time>2026-05-09T06:33:04.326Z</time>
      </trkpt>
      <trkpt lat="47.84649" lon="6.95679">
        <ele>1094</ele>
        <time>2026-05-09T06:33:05.326Z</time>
      </trkpt>
      <trkpt lat="47.84648" lon="6.95677">
        <ele>1094</ele>
        <time>2026-05-09T06:33:06.327Z</time>
      </trkpt>
      <trkpt lat="47.84649" lon="6.95676">
        <ele>1094</ele>
        <time>2026-05-09T06:33:07.327Z</time>
      </trkpt>
      <trkpt lat="47.84649" lon="6.95675">
        <ele>1094</ele>
        <time>2026-05-09T06:33:08.327Z</time>
      </trkpt>
      <trkpt lat="47.84649" lon="6.95673">
        <ele>1094</ele>
        <time>2026-05-09T06:33:09.327Z</time>
      </trkpt>
      <trkpt lat="47.84649" lon="6.95672">
        <ele>1093</ele>
        <time>2026-05-09T06:33:10.326Z</time>
      </trkpt>
      <trkpt lat="47.84649" lon="6.95671">
        <ele>1094</ele>
        <time>2026-05-09T06:33:11.326Z</time>
      </trkpt>
      <trkpt lat="47.8465" lon="6.95673">
        <ele>1097</ele>
        <time>2026-05-09T06:33:20.498Z</time>
      </trkpt>
      <trkpt lat="47.8465" lon="6.95673">
        <ele>1097</ele>
        <time>2026-05-09T06:33:21.498Z</time>
      </trkpt>
      <trkpt lat="47.8465" lon="6.95673">
        <ele>1097</ele>
        <time>2026-05-09T06:33:22.499Z</time>
      </trkpt>
      <trkpt lat="47.8465" lon="6.95673">
        <ele>1098</ele>
        <time>2026-05-09T06:33:23.498Z</time>
      </trkpt>
      <trkpt lat="47.8465" lon="6.95673">
        <ele>1098</ele>
        <time>2026-05-09T06:33:24.498Z</time>
      </trkpt>
      <trkpt lat="47.8465" lon="6.95673">
        <ele>1098</ele>
        <time>2026-05-09T06:33:25.499Z</time>
      </trkpt>
      <trkpt lat="47.8465" lon="6.95673">
        <ele>1098</ele>
        <time>2026-05-09T06:33:26.499Z</time>
      </trkpt>
      <trkpt lat="47.8465" lon="6.95672">
        <ele>1097</ele>
        <time>2026-05-09T06:33:27.498Z</time>
      </trkpt>
      <trkpt lat="47.8465" lon="6.95673">
        <ele>1097</ele>
        <time>2026-05-09T06:33:28.498Z</time>
      </trkpt>
      <trkpt lat="47.8465" lon="6.95673">
        <ele>1097</ele>
        <time>2026-05-09T06:33:29.498Z</time>
      </trkpt>
      <trkpt lat="47.8465" lon="6.95673">
        <ele>1097</ele>
        <time>2026-05-09T06:33:30.498Z</time>
      </trkpt>
      <trkpt lat="47.8465" lon="6.95673">
        <ele>1096</ele>
        <time>2026-05-09T06:33:31.498Z</time>
      </trkpt>
      <trkpt lat="47.8465" lon="6.95673">
        <ele>1095</ele>
        <time>2026-05-09T06:33:32.498Z</time>
      </trkpt>
      <trkpt lat="47.8465" lon="6.95673">
        <ele>1094</ele>
        <time>2026-05-09T06:33:33.498Z</time>
      </trkpt>
      <trkpt lat="47.8465" lon="6.95673">
        <ele>1093</ele>
        <time>2026-05-09T06:33:34.498Z</time>
      </trkpt>
      <trkpt lat="47.8465" lon="6.95673">
        <ele>1093</ele>
        <time>2026-05-09T06:33:35.499Z</time>
      </trkpt>
      <trkpt lat="47.8465" lon="6.95673">
        <ele>1092</ele>
        <time>2026-05-09T06:33:36.499Z</time>
      </trkpt>
      <trkpt lat="47.8465" lon="6.95673">
        <ele>1092</ele>
        <time>2026-05-09T06:33:37.498Z</time>
      </trkpt>
      <trkpt lat="47.8465" lon="6.95673">
        <ele>1092</ele>
        <time>2026-05-09T06:33:38.499Z</time>
      </trkpt>
      <trkpt lat="47.8465" lon="6.95673">
        <ele>1092</ele>
        <time>2026-05-09T06:33:39.499Z</time>
      </trkpt>
      <trkpt lat="47.8465" lon="6.95672">
        <ele>1092</ele>
        <time>2026-05-09T06:33:40.499Z</time>
      </trkpt>
      <trkpt lat="47.84649" lon="6.95672">
        <ele>1092</ele>
        <time>2026-05-09T06:33:41.499Z</time>
      </trkpt>
      <trkpt lat="47.8465" lon="6.95672">
        <ele>1091</ele>
        <time>2026-05-09T06:33:42.499Z</time>
      </trkpt>
      <trkpt lat="47.8465" lon="6.95672">
        <ele>1091</ele>
        <time>2026-05-09T06:33:43.499Z</time>
      </trkpt>
      <trkpt lat="47.8465" lon="6.95673">
        <ele>1091</ele>
        <time>2026-05-09T06:33:44.499Z</time>
      </trkpt>
      <trkpt lat="47.8465" lon="6.95673">
        <ele>1091</ele>
        <time>2026-05-09T06:33:45.499Z</time>
      </trkpt>
      <trkpt lat="47.8465" lon="6.95673">
        <ele>1091</ele>
        <time>2026-05-09T06:33:46.499Z</time>
      </trkpt>
      <trkpt lat="47.8465" lon="6.95673">
        <ele>1092</ele>
        <time>2026-05-09T06:33:47.498Z</time>
      </trkpt>
      <trkpt lat="47.8465" lon="6.95672">
        <ele>1092</ele>
        <time>2026-05-09T06:33:48.499Z</time>
      </trkpt>
      <trkpt lat="47.8465" lon="6.95672">
        <ele>1093</ele>
        <time>2026-05-09T06:33:49.498Z</time>
      </trkpt>
      <trkpt lat="47.8465" lon="6.95672">
        <ele>1093</ele>
        <time>2026-05-09T06:33:50.499Z</time>
      </trkpt>
      <trkpt lat="47.8465" lon="6.95672">
        <ele>1093</ele>
        <time>2026-05-09T06:33:51.499Z</time>
      </trkpt>
      <trkpt lat="47.8465" lon="6.95672">
        <ele>1093</ele>
        <time>2026-05-09T06:33:52.498Z</time>
      </trkpt>
      <trkpt lat="47.8465" lon="6.95672">
        <ele>1093</ele>
        <time>2026-05-09T06:33:53.498Z</time>
      </trkpt>
      <trkpt lat="47.8465" lon="6.95672">
        <ele>1093</ele>
        <time>2026-05-09T06:33:54.498Z</time>
      </trkpt>
      <trkpt lat="47.8465" lon="6.95672">
        <ele>1094</ele>
        <time>2026-05-09T06:34:00.941Z</time>
      </trkpt>
      <trkpt lat="47.8465" lon="6.95672">
        <ele>1094</ele>
        <time>2026-05-09T06:34:01.941Z</time>
      </trkpt>
      <trkpt lat="47.8465" lon="6.95672">
        <ele>1094</ele>
        <time>2026-05-09T06:34:02.940Z</time>
      </trkpt>
      <trkpt lat="47.8465" lon="6.95672">
        <ele>1094</ele>
        <time>2026-05-09T06:34:03.940Z</time>
      </trkpt>
      <trkpt lat="47.8465" lon="6.95671">
        <ele>1095</ele>
        <time>2026-05-09T06:34:04.940Z</time>
      </trkpt>
      <trkpt lat="47.84649" lon="6.9567">
        <ele>1095</ele>
        <time>2026-05-09T06:34:05.941Z</time>
      </trkpt>
      <trkpt lat="47.84649" lon="6.95669">
        <ele>1095</ele>
        <time>2026-05-09T06:34:06.940Z</time>
      </trkpt>
      <trkpt lat="47.84649" lon="6.95668">
        <ele>1095</ele>
        <time>2026-05-09T06:34:07.941Z</time>
      </trkpt>
      <trkpt lat="47.84649" lon="6.95667">
        <ele>1095</ele>
        <time>2026-05-09T06:34:08.941Z</time>
      </trkpt>
      <trkpt lat="47.84649" lon="6.95666">
        <ele>1095</ele>
        <time>2026-05-09T06:34:09.940Z</time>
      </trkpt>
      <trkpt lat="47.84649" lon="6.95666">
        <ele>1095</ele>
        <time>2026-05-09T06:34:10.940Z</time>
      </trkpt>
      <trkpt lat="47.84649" lon="6.95665">
        <ele>1095</ele>
        <time>2026-05-09T06:34:11.941Z</time>
      </trkpt>
      <trkpt lat="47.84649" lon="6.95664">
        <ele>1095</ele>
        <time>2026-05-09T06:34:12.940Z</time>
      </trkpt>
      <trkpt lat="47.84648" lon="6.95662">
        <ele>1095</ele>
        <time>2026-05-09T06:34:13.940Z</time>
      </trkpt>
      <trkpt lat="47.84648" lon="6.9566">
        <ele>1095</ele>
        <time>2026-05-09T06:34:14.940Z</time>
      </trkpt>
      <trkpt lat="47.84647" lon="6.95659">
        <ele>1095</ele>
        <time>2026-05-09T06:34:15.941Z</time>
      </trkpt>
      <trkpt lat="47.84647" lon="6.95657">
        <ele>1096</ele>
        <time>2026-05-09T06:34:16.941Z</time>
      </trkpt>
      <trkpt lat="47.84647" lon="6.95656">
        <ele>1096</ele>
        <time>2026-05-09T06:34:17.940Z</time>
      </trkpt>
      <trkpt lat="47.84647" lon="6.95654">
        <ele>1096</ele>
        <time>2026-05-09T06:34:18.940Z</time>
      </trkpt>
      <trkpt lat="47.84647" lon="6.95652">
        <ele>1095</ele>
        <time>2026-05-09T06:34:19.941Z</time>
      </trkpt>
      <trkpt lat="47.84647" lon="6.9565">
        <ele>1095</ele>
        <time>2026-05-09T06:34:20.941Z</time>
      </trkpt>
      <trkpt lat="47.84647" lon="6.95649">
        <ele>1095</ele>
        <time>2026-05-09T06:34:21.940Z</time>
      </trkpt>
      <trkpt lat="47.84647" lon="6.95647">
        <ele>1095</ele>
        <time>2026-05-09T06:34:22.941Z</time>
      </trkpt>
      <trkpt lat="47.84647" lon="6.95644">
        <ele>1094</ele>
        <time>2026-05-09T06:34:23.940Z</time>
      </trkpt>
      <trkpt lat="47.84647" lon="6.95642">
        <ele>1094</ele>
        <time>2026-05-09T06:34:24.940Z</time>
      </trkpt>
      <trkpt lat="47.84647" lon="6.95642">
        <ele>1094</ele>
        <time>2026-05-09T06:34:25.941Z</time>
      </trkpt>
      <trkpt lat="47.84648" lon="6.95642">
        <ele>1094</ele>
        <time>2026-05-09T06:34:26.941Z</time>
      </trkpt>
      <trkpt lat="47.84648" lon="6.95642">
        <ele>1094</ele>
        <time>2026-05-09T06:34:27.941Z</time>
      </trkpt>
      <trkpt lat="47.84648" lon="6.95642">
        <ele>1094</ele>
        <time>2026-05-09T06:34:28.940Z</time>
      </trkpt>
      <trkpt lat="47.84647" lon="6.95642">
        <ele>1094</ele>
        <time>2026-05-09T06:34:29.941Z</time>
      </trkpt>
      <trkpt lat="47.84648" lon="6.95642">
        <ele>1094</ele>
        <time>2026-05-09T06:34:30.941Z</time>
      </trkpt>
      <trkpt lat="47.84648" lon="6.95642">
        <ele>1095</ele>
        <time>2026-05-09T06:34:31.940Z</time>
      </trkpt>
      <trkpt lat="47.84648" lon="6.95643">
        <ele>1095</ele>
        <time>2026-05-09T06:34:32.941Z</time>
      </trkpt>
      <trkpt lat="47.84647" lon="6.95644">
        <ele>1092</ele>
        <time>2026-05-09T06:34:45.985Z</time>
      </trkpt>
      <trkpt lat="47.84647" lon="6.95644">
        <ele>1092</ele>
        <time>2026-05-09T06:34:46.984Z</time>
      </trkpt>
      <trkpt lat="47.84647" lon="6.95644">
        <ele>1093</ele>
        <time>2026-05-09T06:34:47.984Z</time>
      </trkpt>
      <trkpt lat="47.84647" lon="6.95644">
        <ele>1093</ele>
        <time>2026-05-09T06:34:48.985Z</time>
      </trkpt>
      <trkpt lat="47.84647" lon="6.95643">
        <ele>1093</ele>
        <time>2026-05-09T06:34:49.984Z</time>
      </trkpt>
      <trkpt lat="47.84647" lon="6.95643">
        <ele>1093</ele>
        <time>2026-05-09T06:34:50.984Z</time>
      </trkpt>
      <trkpt lat="47.84647" lon="6.95643">
        <ele>1093</ele>
        <time>2026-05-09T06:34:51.984Z</time>
      </trkpt>
      <trkpt lat="47.84646" lon="6.95644">
        <ele>1093</ele>
        <time>2026-05-09T06:34:52.985Z</time>
      </trkpt>
      <trkpt lat="47.84647" lon="6.95644">
        <ele>1093</ele>
        <time>2026-05-09T06:34:53.984Z</time>
      </trkpt>
      <trkpt lat="47.84647" lon="6.95643">
        <ele>1093</ele>
        <time>2026-05-09T06:34:54.985Z</time>
      </trkpt>
      <trkpt lat="47.84647" lon="6.95643">
        <ele>1093</ele>
        <time>2026-05-09T06:34:55.984Z</time>
      </trkpt>
      <trkpt lat="47.84647" lon="6.95643">
        <ele>1093</ele>
        <time>2026-05-09T06:34:56.984Z</time>
      </trkpt>
      <trkpt lat="47.84647" lon="6.95643">
        <ele>1093</ele>
        <time>2026-05-09T06:34:57.984Z</time>
      </trkpt>
      <trkpt lat="47.84647" lon="6.95643">
        <ele>1093</ele>
        <time>2026-05-09T06:34:58.985Z</time>
      </trkpt>
      <trkpt lat="47.84648" lon="6.95643">
        <ele>1093</ele>
        <time>2026-05-09T06:34:59.985Z</time>
      </trkpt>
      <trkpt lat="47.84649" lon="6.95643">
        <ele>1092</ele>
        <time>2026-05-09T06:35:00.984Z</time>
      </trkpt>
      <trkpt lat="47.84649" lon="6.95642">
        <ele>1092</ele>
        <time>2026-05-09T06:35:01.984Z</time>
      </trkpt>
      <trkpt lat="47.84649" lon="6.95642">
        <ele>1092</ele>
        <time>2026-05-09T06:35:02.984Z</time>
      </trkpt>
      <trkpt lat="47.8465" lon="6.95642">
        <ele>1092</ele>
        <time>2026-05-09T06:35:03.984Z</time>
      </trkpt>
      <trkpt lat="47.8465" lon="6.95642">
        <ele>1092</ele>
        <time>2026-05-09T06:35:04.984Z</time>
      </trkpt>
      <trkpt lat="47.8465" lon="6.95643">
        <ele>1092</ele>
        <time>2026-05-09T06:35:05.984Z</time>
      </trkpt>
      <trkpt lat="47.8465" lon="6.95643">
        <ele>1092</ele>
        <time>2026-05-09T06:35:06.985Z</time>
      </trkpt>
      <trkpt lat="47.8465" lon="6.95643">
        <ele>1092</ele>
        <time>2026-05-09T06:35:07.984Z</time>
      </trkpt>
      <trkpt lat="47.8465" lon="6.95643">
        <ele>1092</ele>
        <time>2026-05-09T06:35:08.984Z</time>
      </trkpt>
      <trkpt lat="47.8465" lon="6.95643">
        <ele>1092</ele>
        <time>2026-05-09T06:35:09.984Z</time>
      </trkpt>
      <trkpt lat="47.8465" lon="6.95643">
        <ele>1092</ele>
        <time>2026-05-09T06:35:10.985Z</time>
      </trkpt>
      <trkpt lat="47.8465" lon="6.95643">
        <ele>1092</ele>
        <time>2026-05-09T06:35:11.984Z</time>
      </trkpt>
      <trkpt lat="47.8465" lon="6.95643">
        <ele>1091</ele>
        <time>2026-05-09T06:35:12.984Z</time>
      </trkpt>
      <trkpt lat="47.8465" lon="6.95643">
        <ele>1091</ele>
        <time>2026-05-09T06:35:13.985Z</time>
      </trkpt>
      <trkpt lat="47.8465" lon="6.95643">
        <ele>1091</ele>
        <time>2026-05-09T06:35:14.984Z</time>
      </trkpt>
      <trkpt lat="47.8465" lon="6.95641">
        <ele>1091</ele>
        <time>2026-05-09T06:35:15.985Z</time>
      </trkpt>
      <trkpt lat="47.8465" lon="6.9564">
        <ele>1091</ele>
        <time>2026-05-09T06:35:16.984Z</time>
      </trkpt>
      <trkpt lat="47.8465" lon="6.95638">
        <ele>1091</ele>
        <time>2026-05-09T06:35:17.984Z</time>
      </trkpt>
      <trkpt lat="47.84649" lon="6.95636">
        <ele>1090</ele>
        <time>2026-05-09T06:35:18.984Z</time>
      </trkpt>
      <trkpt lat="47.84649" lon="6.95635">
        <ele>1090</ele>
        <time>2026-05-09T06:35:19.984Z</time>
      </trkpt>
      <trkpt lat="47.84648" lon="6.95633">
        <ele>1090</ele>
        <time>2026-05-09T06:35:20.985Z</time>
      </trkpt>
      <trkpt lat="47.84648" lon="6.95632">
        <ele>1091</ele>
        <time>2026-05-09T06:35:21.984Z</time>
      </trkpt>
      <trkpt lat="47.84647" lon="6.9563">
        <ele>1091</ele>
        <time>2026-05-09T06:35:22.984Z</time>
      </trkpt>
      <trkpt lat="47.84647" lon="6.95628">
        <ele>1091</ele>
        <time>2026-05-09T06:35:23.985Z</time>
      </trkpt>
      <trkpt lat="47.84647" lon="6.95627">
        <ele>1092</ele>
        <time>2026-05-09T06:35:24.985Z</time>
      </trkpt>
      <trkpt lat="47.84647" lon="6.95626">
        <ele>1091</ele>
        <time>2026-05-09T06:35:25.985Z</time>
      </trkpt>
      <trkpt lat="47.84647" lon="6.95625">
        <ele>1091</ele>
        <time>2026-05-09T06:35:26.985Z</time>
      </trkpt>
      <trkpt lat="47.84647" lon="6.95623">
        <ele>1090</ele>
        <time>2026-05-09T06:35:27.984Z</time>
      </trkpt>
      <trkpt lat="47.84648" lon="6.95621">
        <ele>1090</ele>
        <time>2026-05-09T06:35:28.984Z</time>
      </trkpt>
      <trkpt lat="47.84648" lon="6.95619">
        <ele>1089</ele>
        <time>2026-05-09T06:35:29.984Z</time>
      </trkpt>
      <trkpt lat="47.84649" lon="6.95618">
        <ele>1089</ele>
        <time>2026-05-09T06:35:30.985Z</time>
      </trkpt>
      <trkpt lat="47.84649" lon="6.95616">
        <ele>1089</ele>
        <time>2026-05-09T06:35:31.985Z</time>
      </trkpt>
      <trkpt lat="47.84648" lon="6.95615">
        <ele>1088</ele>
        <time>2026-05-09T06:35:32.984Z</time>
      </trkpt>
      <trkpt lat="47.84648" lon="6.95615">
        <ele>1088</ele>
        <time>2026-05-09T06:35:33.984Z</time>
      </trkpt>
      <trkpt lat="47.84647" lon="6.95614">
        <ele>1088</ele>
        <time>2026-05-09T06:35:34.984Z</time>
      </trkpt>
      <trkpt lat="47.84646" lon="6.95614">
        <ele>1088</ele>
        <time>2026-05-09T06:35:35.984Z</time>
      </trkpt>
      <trkpt lat="47.84646" lon="6.95612">
        <ele>1088</ele>
        <time>2026-05-09T06:35:36.984Z</time>
      </trkpt>
      <trkpt lat="47.84645" lon="6.95609">
        <ele>1088</ele>
        <time>2026-05-09T06:35:37.985Z</time>
      </trkpt>
      <trkpt lat="47.84646" lon="6.95607">
        <ele>1088</ele>
        <time>2026-05-09T06:35:38.985Z</time>
      </trkpt>
      <trkpt lat="47.84646" lon="6.95606">
        <ele>1087</ele>
        <time>2026-05-09T06:35:39.984Z</time>
      </trkpt>
      <trkpt lat="47.84647" lon="6.95605">
        <ele>1087</ele>
        <time>2026-05-09T06:35:40.984Z</time>
      </trkpt>
      <trkpt lat="47.84647" lon="6.95605">
        <ele>1087</ele>
        <time>2026-05-09T06:35:41.985Z</time>
      </trkpt>
      <trkpt lat="47.84647" lon="6.95603">
        <ele>1087</ele>
        <time>2026-05-09T06:35:42.985Z</time>
      </trkpt>
      <trkpt lat="47.84646" lon="6.95601">
        <ele>1086</ele>
        <time>2026-05-09T06:35:43.984Z</time>
      </trkpt>
      <trkpt lat="47.84647" lon="6.956">
        <ele>1086</ele>
        <time>2026-05-09T06:35:44.985Z</time>
      </trkpt>
      <trkpt lat="47.84646" lon="6.95598">
        <ele>1086</ele>
        <time>2026-05-09T06:35:45.984Z</time>
      </trkpt>
      <trkpt lat="47.84646" lon="6.95597">
        <ele>1086</ele>
        <time>2026-05-09T06:35:46.984Z</time>
      </trkpt>
      <trkpt lat="47.84646" lon="6.95594">
        <ele>1085</ele>
        <time>2026-05-09T06:35:47.985Z</time>
      </trkpt>
      <trkpt lat="47.84646" lon="6.95592">
        <ele>1085</ele>
        <time>2026-05-09T06:35:48.984Z</time>
      </trkpt>
      <trkpt lat="47.84646" lon="6.9559">
        <ele>1084</ele>
        <time>2026-05-09T06:35:49.984Z</time>
      </trkpt>
      <trkpt lat="47.84646" lon="6.95589">
        <ele>1084</ele>
        <time>2026-05-09T06:35:50.984Z</time>
      </trkpt>
      <trkpt lat="47.84647" lon="6.95587">
        <ele>1084</ele>
        <time>2026-05-09T06:35:51.984Z</time>
      </trkpt>
      <trkpt lat="47.84647" lon="6.95585">
        <ele>1083</ele>
        <time>2026-05-09T06:35:52.984Z</time>
      </trkpt>
      <trkpt lat="47.84648" lon="6.95584">
        <ele>1083</ele>
        <time>2026-05-09T06:35:53.984Z</time>
      </trkpt>
      <trkpt lat="47.84648" lon="6.95583">
        <ele>1082</ele>
        <time>2026-05-09T06:35:54.985Z</time>
      </trkpt>
      <trkpt lat="47.84649" lon="6.95581">
        <ele>1082</ele>
        <time>2026-05-09T06:35:55.984Z</time>
      </trkpt>
      <trkpt lat="47.8465" lon="6.9558">
        <ele>1082</ele>
        <time>2026-05-09T06:35:56.985Z</time>
      </trkpt>
      <trkpt lat="47.84651" lon="6.9558">
        <ele>1081</ele>
        <time>2026-05-09T06:35:57.985Z</time>
      </trkpt>
      <trkpt lat="47.84651" lon="6.95581">
        <ele>1081</ele>
        <time>2026-05-09T06:35:58.984Z</time>
      </trkpt>
      <trkpt lat="47.84652" lon="6.95582">
        <ele>1081</ele>
        <time>2026-05-09T06:35:59.984Z</time>
      </trkpt>
      <trkpt lat="47.84653" lon="6.95583">
        <ele>1080</ele>
        <time>2026-05-09T06:36:00.984Z</time>
      </trkpt>
      <trkpt lat="47.84654" lon="6.95584">
        <ele>1080</ele>
        <time>2026-05-09T06:36:01.985Z</time>
      </trkpt>
      <trkpt lat="47.84655" lon="6.95583">
        <ele>1080</ele>
        <time>2026-05-09T06:36:02.985Z</time>
      </trkpt>
      <trkpt lat="47.84657" lon="6.95582">
        <ele>1080</ele>
        <time>2026-05-09T06:36:03.985Z</time>
      </trkpt>
      <trkpt lat="47.84658" lon="6.95582">
        <ele>1080</ele>
        <time>2026-05-09T06:36:04.984Z</time>
      </trkpt>
      <trkpt lat="47.84658" lon="6.95581">
        <ele>1080</ele>
        <time>2026-05-09T06:36:05.984Z</time>
      </trkpt>
      <trkpt lat="47.84658" lon="6.95579">
        <ele>1079</ele>
        <time>2026-05-09T06:36:06.984Z</time>
      </trkpt>
      <trkpt lat="47.84658" lon="6.95578">
        <ele>1079</ele>
        <time>2026-05-09T06:36:07.984Z</time>
      </trkpt>
      <trkpt lat="47.84659" lon="6.95576">
        <ele>1079</ele>
        <time>2026-05-09T06:36:08.984Z</time>
      </trkpt>
      <trkpt lat="47.84659" lon="6.95574">
        <ele>1078</ele>
        <time>2026-05-09T06:36:09.984Z</time>
      </trkpt>
      <trkpt lat="47.84659" lon="6.95573">
        <ele>1078</ele>
        <time>2026-05-09T06:36:10.985Z</time>
      </trkpt>
      <trkpt lat="47.8466" lon="6.95572">
        <ele>1077</ele>
        <time>2026-05-09T06:36:11.984Z</time>
      </trkpt>
      <trkpt lat="47.84661" lon="6.95571">
        <ele>1077</ele>
        <time>2026-05-09T06:36:12.984Z</time>
      </trkpt>
      <trkpt lat="47.84662" lon="6.9557">
        <ele>1076</ele>
        <time>2026-05-09T06:36:13.984Z</time>
      </trkpt>
      <trkpt lat="47.84663" lon="6.95568">
        <ele>1076</ele>
        <time>2026-05-09T06:36:14.985Z</time>
      </trkpt>
      <trkpt lat="47.84664" lon="6.95567">
        <ele>1075</ele>
        <time>2026-05-09T06:36:15.985Z</time>
      </trkpt>
      <trkpt lat="47.84665" lon="6.95566">
        <ele>1075</ele>
        <time>2026-05-09T06:36:16.985Z</time>
      </trkpt>
      <trkpt lat="47.84665" lon="6.95564">
        <ele>1075</ele>
        <time>2026-05-09T06:36:17.985Z</time>
      </trkpt>
      <trkpt lat="47.84665" lon="6.95562">
        <ele>1075</ele>
        <time>2026-05-09T06:36:18.985Z</time>
      </trkpt>
      <trkpt lat="47.84665" lon="6.9556">
        <ele>1075</ele>
        <time>2026-05-09T06:36:19.984Z</time>
      </trkpt>
      <trkpt lat="47.84665" lon="6.95559">
        <ele>1075</ele>
        <time>2026-05-09T06:36:20.984Z</time>
      </trkpt>
      <trkpt lat="47.84666" lon="6.95557">
        <ele>1075</ele>
        <time>2026-05-09T06:36:21.984Z</time>
      </trkpt>
      <trkpt lat="47.84666" lon="6.95556">
        <ele>1075</ele>
        <time>2026-05-09T06:36:22.985Z</time>
      </trkpt>
      <trkpt lat="47.84667" lon="6.95555">
        <ele>1075</ele>
        <time>2026-05-09T06:36:23.985Z</time>
      </trkpt>
      <trkpt lat="47.84667" lon="6.95553">
        <ele>1074</ele>
        <time>2026-05-09T06:36:24.984Z</time>
      </trkpt>
      <trkpt lat="47.84668" lon="6.95552">
        <ele>1074</ele>
        <time>2026-05-09T06:36:25.984Z</time>
      </trkpt>
      <trkpt lat="47.84668" lon="6.95551">
        <ele>1074</ele>
        <time>2026-05-09T06:36:26.985Z</time>
      </trkpt>
      <trkpt lat="47.84669" lon="6.95549">
        <ele>1073</ele>
        <time>2026-05-09T06:36:27.985Z</time>
      </trkpt>
      <trkpt lat="47.84669" lon="6.95548">
        <ele>1073</ele>
        <time>2026-05-09T06:36:28.984Z</time>
      </trkpt>
      <trkpt lat="47.84669" lon="6.95546">
        <ele>1073</ele>
        <time>2026-05-09T06:36:29.984Z</time>
      </trkpt>
      <trkpt lat="47.84669" lon="6.95544">
        <ele>1073</ele>
        <time>2026-05-09T06:36:30.985Z</time>
      </trkpt>
      <trkpt lat="47.84669" lon="6.95542">
        <ele>1072</ele>
        <time>2026-05-09T06:36:31.985Z</time>
      </trkpt>
      <trkpt lat="47.8467" lon="6.9554">
        <ele>1072</ele>
        <time>2026-05-09T06:36:32.985Z</time>
      </trkpt>
      <trkpt lat="47.8467" lon="6.95539">
        <ele>1071</ele>
        <time>2026-05-09T06:36:33.985Z</time>
      </trkpt>
      <trkpt lat="47.8467" lon="6.95538">
        <ele>1071</ele>
        <time>2026-05-09T06:36:34.985Z</time>
      </trkpt>
      <trkpt lat="47.84671" lon="6.95538">
        <ele>1071</ele>
        <time>2026-05-09T06:36:35.984Z</time>
      </trkpt>
      <trkpt lat="47.84671" lon="6.95537">
        <ele>1070</ele>
        <time>2026-05-09T06:36:36.984Z</time>
      </trkpt>
      <trkpt lat="47.8467" lon="6.95537">
        <ele>1070</ele>
        <time>2026-05-09T06:36:37.984Z</time>
      </trkpt>
      <trkpt lat="47.8467" lon="6.95537">
        <ele>1070</ele>
        <time>2026-05-09T06:36:38.984Z</time>
      </trkpt>
      <trkpt lat="47.84671" lon="6.95536">
        <ele>1070</ele>
        <time>2026-05-09T06:36:39.984Z</time>
      </trkpt>
      <trkpt lat="47.84671" lon="6.95536">
        <ele>1070</ele>
        <time>2026-05-09T06:36:40.984Z</time>
      </trkpt>
      <trkpt lat="47.84671" lon="6.95534">
        <ele>1070</ele>
        <time>2026-05-09T06:36:41.984Z</time>
      </trkpt>
      <trkpt lat="47.84671" lon="6.95532">
        <ele>1070</ele>
        <time>2026-05-09T06:36:42.984Z</time>
      </trkpt>
      <trkpt lat="47.84671" lon="6.9553">
        <ele>1069</ele>
        <time>2026-05-09T06:36:43.985Z</time>
      </trkpt>
      <trkpt lat="47.84671" lon="6.95528">
        <ele>1069</ele>
        <time>2026-05-09T06:36:44.984Z</time>
      </trkpt>
      <trkpt lat="47.84671" lon="6.95525">
        <ele>1068</ele>
        <time>2026-05-09T06:36:45.984Z</time>
      </trkpt>
      <trkpt lat="47.84671" lon="6.95522">
        <ele>1068</ele>
        <time>2026-05-09T06:36:46.985Z</time>
      </trkpt>
      <trkpt lat="47.84671" lon="6.9552">
        <ele>1068</ele>
        <time>2026-05-09T06:36:47.984Z</time>
      </trkpt>
      <trkpt lat="47.8467" lon="6.95519">
        <ele>1068</ele>
        <time>2026-05-09T06:36:48.985Z</time>
      </trkpt>
      <trkpt lat="47.8467" lon="6.95518">
        <ele>1068</ele>
        <time>2026-05-09T06:36:49.984Z</time>
      </trkpt>
      <trkpt lat="47.8467" lon="6.95517">
        <ele>1068</ele>
        <time>2026-05-09T06:36:50.984Z</time>
      </trkpt>
      <trkpt lat="47.8467" lon="6.95515">
        <ele>1068</ele>
        <time>2026-05-09T06:36:51.984Z</time>
      </trkpt>
      <trkpt lat="47.8467" lon="6.95512">
        <ele>1068</ele>
        <time>2026-05-09T06:36:52.984Z</time>
      </trkpt>
      <trkpt lat="47.84669" lon="6.9551">
        <ele>1068</ele>
        <time>2026-05-09T06:36:53.985Z</time>
      </trkpt>
      <trkpt lat="47.84669" lon="6.95508">
        <ele>1068</ele>
        <time>2026-05-09T06:36:54.985Z</time>
      </trkpt>
      <trkpt lat="47.84669" lon="6.95506">
        <ele>1068</ele>
        <time>2026-05-09T06:36:55.985Z</time>
      </trkpt>
      <trkpt lat="47.8467" lon="6.95504">
        <ele>1068</ele>
        <time>2026-05-09T06:36:56.985Z</time>
      </trkpt>
      <trkpt lat="47.8467" lon="6.95502">
        <ele>1068</ele>
        <time>2026-05-09T06:36:57.985Z</time>
      </trkpt>
      <trkpt lat="47.8467" lon="6.955">
        <ele>1068</ele>
        <time>2026-05-09T06:36:58.985Z</time>
      </trkpt>
      <trkpt lat="47.8467" lon="6.95498">
        <ele>1068</ele>
        <time>2026-05-09T06:36:59.984Z</time>
      </trkpt>
      <trkpt lat="47.84671" lon="6.95496">
        <ele>1068</ele>
        <time>2026-05-09T06:37:00.984Z</time>
      </trkpt>
      <trkpt lat="47.84671" lon="6.95494">
        <ele>1068</ele>
        <time>2026-05-09T06:37:01.985Z</time>
      </trkpt>
      <trkpt lat="47.84671" lon="6.95493">
        <ele>1068</ele>
        <time>2026-05-09T06:37:02.984Z</time>
      </trkpt>
      <trkpt lat="47.8467" lon="6.95492">
        <ele>1068</ele>
        <time>2026-05-09T06:37:03.984Z</time>
      </trkpt>
      <trkpt lat="47.8467" lon="6.9549">
        <ele>1068</ele>
        <time>2026-05-09T06:37:04.985Z</time>
      </trkpt>
      <trkpt lat="47.84669" lon="6.95488">
        <ele>1068</ele>
        <time>2026-05-09T06:37:05.985Z</time>
      </trkpt>
      <trkpt lat="47.84669" lon="6.95487">
        <ele>1068</ele>
        <time>2026-05-09T06:37:06.985Z</time>
      </trkpt>
      <trkpt lat="47.84668" lon="6.95485">
        <ele>1068</ele>
        <time>2026-05-09T06:37:07.984Z</time>
      </trkpt>
      <trkpt lat="47.84668" lon="6.95484">
        <ele>1068</ele>
        <time>2026-05-09T06:37:08.984Z</time>
      </trkpt>
      <trkpt lat="47.84668" lon="6.95483">
        <ele>1068</ele>
        <time>2026-05-09T06:37:09.984Z</time>
      </trkpt>
      <trkpt lat="47.84667" lon="6.95482">
        <ele>1067</ele>
        <time>2026-05-09T06:37:10.984Z</time>
      </trkpt>
      <trkpt lat="47.84666" lon="6.95481">
        <ele>1067</ele>
        <time>2026-05-09T06:37:11.985Z</time>
      </trkpt>
      <trkpt lat="47.84664" lon="6.95479">
        <ele>1067</ele>
        <time>2026-05-09T06:37:12.985Z</time>
      </trkpt>
      <trkpt lat="47.84663" lon="6.95478">
        <ele>1067</ele>
        <time>2026-05-09T06:37:13.984Z</time>
      </trkpt>
      <trkpt lat="47.84663" lon="6.95476">
        <ele>1067</ele>
        <time>2026-05-09T06:37:14.984Z</time>
      </trkpt>
      <trkpt lat="47.84663" lon="6.95473">
        <ele>1067</ele>
        <time>2026-05-09T06:37:15.985Z</time>
      </trkpt>
      <trkpt lat="47.84662" lon="6.95471">
        <ele>1067</ele>
        <time>2026-05-09T06:37:16.985Z</time>
      </trkpt>
      <trkpt lat="47.84662" lon="6.95469">
        <ele>1067</ele>
        <time>2026-05-09T06:37:17.984Z</time>
      </trkpt>
      <trkpt lat="47.84662" lon="6.95467">
        <ele>1067</ele>
        <time>2026-05-09T06:37:18.985Z</time>
      </trkpt>
      <trkpt lat="47.84662" lon="6.95466">
        <ele>1067</ele>
        <time>2026-05-09T06:37:19.985Z</time>
      </trkpt>
      <trkpt lat="47.84662" lon="6.95464">
        <ele>1067</ele>
        <time>2026-05-09T06:37:20.984Z</time>
      </trkpt>
      <trkpt lat="47.84662" lon="6.95462">
        <ele>1066</ele>
        <time>2026-05-09T06:37:21.984Z</time>
      </trkpt>
      <trkpt lat="47.84661" lon="6.9546">
        <ele>1066</ele>
        <time>2026-05-09T06:37:22.985Z</time>
      </trkpt>
      <trkpt lat="47.84661" lon="6.95459">
        <ele>1066</ele>
        <time>2026-05-09T06:37:23.984Z</time>
      </trkpt>
      <trkpt lat="47.84661" lon="6.95458">
        <ele>1066</ele>
        <time>2026-05-09T06:37:24.984Z</time>
      </trkpt>
      <trkpt lat="47.8466" lon="6.95456">
        <ele>1066</ele>
        <time>2026-05-09T06:37:25.984Z</time>
      </trkpt>
      <trkpt lat="47.84659" lon="6.95455">
        <ele>1065</ele>
        <time>2026-05-09T06:37:26.984Z</time>
      </trkpt>
      <trkpt lat="47.84659" lon="6.95453">
        <ele>1065</ele>
        <time>2026-05-09T06:37:27.984Z</time>
      </trkpt>
      <trkpt lat="47.84659" lon="6.95452">
        <ele>1065</ele>
        <time>2026-05-09T06:37:28.985Z</time>
      </trkpt>
      <trkpt lat="47.84659" lon="6.9545">
        <ele>1065</ele>
        <time>2026-05-09T06:37:29.984Z</time>
      </trkpt>
      <trkpt lat="47.84659" lon="6.95448">
        <ele>1065</ele>
        <time>2026-05-09T06:37:30.984Z</time>
      </trkpt>
      <trkpt lat="47.84659" lon="6.95448">
        <ele>1065</ele>
        <time>2026-05-09T06:37:31.985Z</time>
      </trkpt>
      <trkpt lat="47.84659" lon="6.95446">
        <ele>1065</ele>
        <time>2026-05-09T06:37:32.984Z</time>
      </trkpt>
      <trkpt lat="47.84659" lon="6.95442">
        <ele>1065</ele>
        <time>2026-05-09T06:37:33.984Z</time>
      </trkpt>
      <trkpt lat="47.84659" lon="6.9544">
        <ele>1065</ele>
        <time>2026-05-09T06:37:34.984Z</time>
      </trkpt>
      <trkpt lat="47.84659" lon="6.95438">
        <ele>1064</ele>
        <time>2026-05-09T06:37:35.984Z</time>
      </trkpt>
      <trkpt lat="47.8466" lon="6.95435">
        <ele>1064</ele>
        <time>2026-05-09T06:37:36.984Z</time>
      </trkpt>
      <trkpt lat="47.8466" lon="6.95434">
        <ele>1064</ele>
        <time>2026-05-09T06:37:37.984Z</time>
      </trkpt>
      <trkpt lat="47.8466" lon="6.95431">
        <ele>1064</ele>
        <time>2026-05-09T06:37:38.984Z</time>
      </trkpt>
      <trkpt lat="47.8466" lon="6.95429">
        <ele>1064</ele>
        <time>2026-05-09T06:37:39.984Z</time>
      </trkpt>
      <trkpt lat="47.84661" lon="6.95426">
        <ele>1064</ele>
        <time>2026-05-09T06:37:40.984Z</time>
      </trkpt>
      <trkpt lat="47.84661" lon="6.95424">
        <ele>1064</ele>
        <time>2026-05-09T06:37:41.984Z</time>
      </trkpt>
      <trkpt lat="47.8466" lon="6.95421">
        <ele>1064</ele>
        <time>2026-05-09T06:37:42.984Z</time>
      </trkpt>
      <trkpt lat="47.84661" lon="6.95419">
        <ele>1064</ele>
        <time>2026-05-09T06:37:43.984Z</time>
      </trkpt>
      <trkpt lat="47.8466" lon="6.95417">
        <ele>1064</ele>
        <time>2026-05-09T06:37:44.985Z</time>
      </trkpt>
      <trkpt lat="47.8466" lon="6.95415">
        <ele>1064</ele>
        <time>2026-05-09T06:37:45.984Z</time>
      </trkpt>
      <trkpt lat="47.8466" lon="6.95413">
        <ele>1064</ele>
        <time>2026-05-09T06:37:46.984Z</time>
      </trkpt>
      <trkpt lat="47.8466" lon="6.9541">
        <ele>1064</ele>
        <time>2026-05-09T06:37:47.985Z</time>
      </trkpt>
      <trkpt lat="47.8466" lon="6.95408">
        <ele>1064</ele>
        <time>2026-05-09T06:37:48.985Z</time>
      </trkpt>
      <trkpt lat="47.8466" lon="6.95405">
        <ele>1064</ele>
        <time>2026-05-09T06:37:49.984Z</time>
      </trkpt>
      <trkpt lat="47.8466" lon="6.95403">
        <ele>1064</ele>
        <time>2026-05-09T06:37:50.984Z</time>
      </trkpt>
      <trkpt lat="47.84661" lon="6.954">
        <ele>1063</ele>
        <time>2026-05-09T06:37:51.985Z</time>
      </trkpt>
      <trkpt lat="47.84662" lon="6.95396">
        <ele>1063</ele>
        <time>2026-05-09T06:37:52.984Z</time>
      </trkpt>
      <trkpt lat="47.84662" lon="6.95393">
        <ele>1063</ele>
        <time>2026-05-09T06:37:53.985Z</time>
      </trkpt>
      <trkpt lat="47.84663" lon="6.9539">
        <ele>1063</ele>
        <time>2026-05-09T06:37:54.984Z</time>
      </trkpt>
      <trkpt lat="47.84664" lon="6.95387">
        <ele>1063</ele>
        <time>2026-05-09T06:37:55.985Z</time>
      </trkpt>
      <trkpt lat="47.84663" lon="6.95383">
        <ele>1063</ele>
        <time>2026-05-09T06:37:56.984Z</time>
      </trkpt>
      <trkpt lat="47.84663" lon="6.95379">
        <ele>1063</ele>
        <time>2026-05-09T06:37:57.984Z</time>
      </trkpt>
      <trkpt lat="47.84663" lon="6.95378">
        <ele>1063</ele>
        <time>2026-05-09T06:37:58.985Z</time>
      </trkpt>
      <trkpt lat="47.84664" lon="6.95377">
        <ele>1063</ele>
        <time>2026-05-09T06:37:59.985Z</time>
      </trkpt>
      <trkpt lat="47.84664" lon="6.95376">
        <ele>1062</ele>
        <time>2026-05-09T06:38:00.984Z</time>
      </trkpt>
      <trkpt lat="47.84665" lon="6.95375">
        <ele>1062</ele>
        <time>2026-05-09T06:38:01.985Z</time>
      </trkpt>
      <trkpt lat="47.84665" lon="6.95373">
        <ele>1062</ele>
        <time>2026-05-09T06:38:02.984Z</time>
      </trkpt>
      <trkpt lat="47.84667" lon="6.95369">
        <ele>1061</ele>
        <time>2026-05-09T06:38:03.984Z</time>
      </trkpt>
      <trkpt lat="47.84667" lon="6.95366">
        <ele>1061</ele>
        <time>2026-05-09T06:38:04.984Z</time>
      </trkpt>
      <trkpt lat="47.84666" lon="6.95362">
        <ele>1061</ele>
        <time>2026-05-09T06:38:05.984Z</time>
      </trkpt>
      <trkpt lat="47.84665" lon="6.9536">
        <ele>1060</ele>
        <time>2026-05-09T06:38:06.985Z</time>
      </trkpt>
      <trkpt lat="47.84664" lon="6.95358">
        <ele>1060</ele>
        <time>2026-05-09T06:38:07.984Z</time>
      </trkpt>
      <trkpt lat="47.84664" lon="6.95357">
        <ele>1060</ele>
        <time>2026-05-09T06:38:08.984Z</time>
      </trkpt>
      <trkpt lat="47.84664" lon="6.95355">
        <ele>1060</ele>
        <time>2026-05-09T06:38:09.984Z</time>
      </trkpt>
      <trkpt lat="47.84665" lon="6.95354">
        <ele>1059</ele>
        <time>2026-05-09T06:38:10.984Z</time>
      </trkpt>
      <trkpt lat="47.84665" lon="6.95353">
        <ele>1059</ele>
        <time>2026-05-09T06:38:11.984Z</time>
      </trkpt>
      <trkpt lat="47.84667" lon="6.95352">
        <ele>1058</ele>
        <time>2026-05-09T06:38:12.985Z</time>
      </trkpt>
      <trkpt lat="47.84668" lon="6.9535">
        <ele>1058</ele>
        <time>2026-05-09T06:38:13.984Z</time>
      </trkpt>
      <trkpt lat="47.84669" lon="6.95349">
        <ele>1057</ele>
        <time>2026-05-09T06:38:14.984Z</time>
      </trkpt>
      <trkpt lat="47.8467" lon="6.95348">
        <ele>1057</ele>
        <time>2026-05-09T06:38:15.984Z</time>
      </trkpt>
      <trkpt lat="47.84671" lon="6.95347">
        <ele>1057</ele>
        <time>2026-05-09T06:38:16.984Z</time>
      </trkpt>
      <trkpt lat="47.84672" lon="6.95347">
        <ele>1057</ele>
        <time>2026-05-09T06:38:17.984Z</time>
      </trkpt>
      <trkpt lat="47.84672" lon="6.95345">
        <ele>1057</ele>
        <time>2026-05-09T06:38:18.984Z</time>
      </trkpt>
      <trkpt lat="47.84673" lon="6.95343">
        <ele>1057</ele>
        <time>2026-05-09T06:38:19.984Z</time>
      </trkpt>
      <trkpt lat="47.84673" lon="6.95343">
        <ele>1057</ele>
        <time>2026-05-09T06:38:20.985Z</time>
      </trkpt>
      <trkpt lat="47.84673" lon="6.95342">
        <ele>1057</ele>
        <time>2026-05-09T06:38:21.985Z</time>
      </trkpt>
      <trkpt lat="47.84673" lon="6.95342">
        <ele>1057</ele>
        <time>2026-05-09T06:38:22.984Z</time>
      </trkpt>
      <trkpt lat="47.84673" lon="6.95342">
        <ele>1056</ele>
        <time>2026-05-09T06:38:23.984Z</time>
      </trkpt>
      <trkpt lat="47.84673" lon="6.95341">
        <ele>1056</ele>
        <time>2026-05-09T06:38:24.984Z</time>
      </trkpt>
      <trkpt lat="47.84674" lon="6.9534">
        <ele>1056</ele>
        <time>2026-05-09T06:38:25.984Z</time>
      </trkpt>
      <trkpt lat="47.84674" lon="6.95339">
        <ele>1056</ele>
        <time>2026-05-09T06:38:26.984Z</time>
      </trkpt>
      <trkpt lat="47.84674" lon="6.95338">
        <ele>1055</ele>
        <time>2026-05-09T06:38:27.984Z</time>
      </trkpt>
      <trkpt lat="47.84675" lon="6.95337">
        <ele>1055</ele>
        <time>2026-05-09T06:38:28.984Z</time>
      </trkpt>
      <trkpt lat="47.84675" lon="6.95335">
        <ele>1055</ele>
        <time>2026-05-09T06:38:29.984Z</time>
      </trkpt>
      <trkpt lat="47.84675" lon="6.95334">
        <ele>1055</ele>
        <time>2026-05-09T06:38:30.984Z</time>
      </trkpt>
      <trkpt lat="47.84676" lon="6.95333">
        <ele>1055</ele>
        <time>2026-05-09T06:38:31.985Z</time>
      </trkpt>
      <trkpt lat="47.84677" lon="6.95331">
        <ele>1054</ele>
        <time>2026-05-09T06:38:32.984Z</time>
      </trkpt>
      <trkpt lat="47.84677" lon="6.95329">
        <ele>1054</ele>
        <time>2026-05-09T06:38:33.985Z</time>
      </trkpt>
      <trkpt lat="47.84678" lon="6.95328">
        <ele>1054</ele>
        <time>2026-05-09T06:38:34.984Z</time>
      </trkpt>
      <trkpt lat="47.84678" lon="6.95327">
        <ele>1054</ele>
        <time>2026-05-09T06:38:35.984Z</time>
      </trkpt>
      <trkpt lat="47.84678" lon="6.95326">
        <ele>1053</ele>
        <time>2026-05-09T06:38:36.984Z</time>
      </trkpt>
      <trkpt lat="47.84678" lon="6.95324">
        <ele>1053</ele>
        <time>2026-05-09T06:38:37.984Z</time>
      </trkpt>
      <trkpt lat="47.84678" lon="6.95322">
        <ele>1053</ele>
        <time>2026-05-09T06:38:38.984Z</time>
      </trkpt>
      <trkpt lat="47.84679" lon="6.95321">
        <ele>1052</ele>
        <time>2026-05-09T06:38:39.985Z</time>
      </trkpt>
      <trkpt lat="47.84679" lon="6.95319">
        <ele>1052</ele>
        <time>2026-05-09T06:38:40.984Z</time>
      </trkpt>
      <trkpt lat="47.84679" lon="6.95317">
        <ele>1051</ele>
        <time>2026-05-09T06:38:41.984Z</time>
      </trkpt>
      <trkpt lat="47.84678" lon="6.95315">
        <ele>1051</ele>
        <time>2026-05-09T06:38:42.985Z</time>
      </trkpt>
      <trkpt lat="47.84679" lon="6.95314">
        <ele>1050</ele>
        <time>2026-05-09T06:38:43.984Z</time>
      </trkpt>
      <trkpt lat="47.84679" lon="6.95313">
        <ele>1050</ele>
        <time>2026-05-09T06:38:44.984Z</time>
      </trkpt>
      <trkpt lat="47.8468" lon="6.95312">
        <ele>1050</ele>
        <time>2026-05-09T06:38:45.984Z</time>
      </trkpt>
      <trkpt lat="47.84681" lon="6.9531">
        <ele>1050</ele>
        <time>2026-05-09T06:38:46.984Z</time>
      </trkpt>
      <trkpt lat="47.84682" lon="6.95308">
        <ele>1050</ele>
        <time>2026-05-09T06:38:47.984Z</time>
      </trkpt>
      <trkpt lat="47.84683" lon="6.95307">
        <ele>1050</ele>
        <time>2026-05-09T06:38:48.984Z</time>
      </trkpt>
      <trkpt lat="47.84684" lon="6.95305">
        <ele>1050</ele>
        <time>2026-05-09T06:38:49.985Z</time>
      </trkpt>
      <trkpt lat="47.84685" lon="6.95304">
        <ele>1051</ele>
        <time>2026-05-09T06:38:50.984Z</time>
      </trkpt>
      <trkpt lat="47.84685" lon="6.95302">
        <ele>1051</ele>
        <time>2026-05-09T06:38:51.984Z</time>
      </trkpt>
      <trkpt lat="47.84685" lon="6.953">
        <ele>1051</ele>
        <time>2026-05-09T06:38:52.984Z</time>
      </trkpt>
      <trkpt lat="47.84685" lon="6.95298">
        <ele>1051</ele>
        <time>2026-05-09T06:38:53.984Z</time>
      </trkpt>
      <trkpt lat="47.84685" lon="6.95297">
        <ele>1051</ele>
        <time>2026-05-09T06:38:54.984Z</time>
      </trkpt>
      <trkpt lat="47.84685" lon="6.95295">
        <ele>1050</ele>
        <time>2026-05-09T06:38:55.985Z</time>
      </trkpt>
      <trkpt lat="47.84685" lon="6.95293">
        <ele>1050</ele>
        <time>2026-05-09T06:38:56.984Z</time>
      </trkpt>
      <trkpt lat="47.84686" lon="6.95291">
        <ele>1051</ele>
        <time>2026-05-09T06:38:57.985Z</time>
      </trkpt>
      <trkpt lat="47.84687" lon="6.9529">
        <ele>1051</ele>
        <time>2026-05-09T06:38:58.984Z</time>
      </trkpt>
      <trkpt lat="47.84687" lon="6.95287">
        <ele>1052</ele>
        <time>2026-05-09T06:38:59.985Z</time>
      </trkpt>
      <trkpt lat="47.84687" lon="6.95285">
        <ele>1052</ele>
        <time>2026-05-09T06:39:00.984Z</time>
      </trkpt>
      <trkpt lat="47.84687" lon="6.95284">
        <ele>1052</ele>
        <time>2026-05-09T06:39:01.985Z</time>
      </trkpt>
      <trkpt lat="47.84688" lon="6.95282">
        <ele>1053</ele>
        <time>2026-05-09T06:39:02.985Z</time>
      </trkpt>
      <trkpt lat="47.84688" lon="6.95281">
        <ele>1053</ele>
        <time>2026-05-09T06:39:03.984Z</time>
      </trkpt>
      <trkpt lat="47.84688" lon="6.95279">
        <ele>1052</ele>
        <time>2026-05-09T06:39:04.985Z</time>
      </trkpt>
      <trkpt lat="47.84687" lon="6.95277">
        <ele>1052</ele>
        <time>2026-05-09T06:39:05.984Z</time>
      </trkpt>
      <trkpt lat="47.84687" lon="6.95274">
        <ele>1052</ele>
        <time>2026-05-09T06:39:06.985Z</time>
      </trkpt>
      <trkpt lat="47.84688" lon="6.95273">
        <ele>1052</ele>
        <time>2026-05-09T06:39:07.984Z</time>
      </trkpt>
      <trkpt lat="47.84689" lon="6.95271">
        <ele>1051</ele>
        <time>2026-05-09T06:39:08.984Z</time>
      </trkpt>
      <trkpt lat="47.84689" lon="6.95269">
        <ele>1051</ele>
        <time>2026-05-09T06:39:09.984Z</time>
      </trkpt>
      <trkpt lat="47.84689" lon="6.95267">
        <ele>1051</ele>
        <time>2026-05-09T06:39:10.984Z</time>
      </trkpt>
      <trkpt lat="47.84689" lon="6.95265">
        <ele>1051</ele>
        <time>2026-05-09T06:39:11.984Z</time>
      </trkpt>
      <trkpt lat="47.8469" lon="6.95263">
        <ele>1051</ele>
        <time>2026-05-09T06:39:12.984Z</time>
      </trkpt>
      <trkpt lat="47.8469" lon="6.95261">
        <ele>1051</ele>
        <time>2026-05-09T06:39:13.985Z</time>
      </trkpt>
      <trkpt lat="47.8469" lon="6.95259">
        <ele>1051</ele>
        <time>2026-05-09T06:39:14.984Z</time>
      </trkpt>
      <trkpt lat="47.8469" lon="6.95257">
        <ele>1051</ele>
        <time>2026-05-09T06:39:15.984Z</time>
      </trkpt>
      <trkpt lat="47.8469" lon="6.95255">
        <ele>1051</ele>
        <time>2026-05-09T06:39:16.984Z</time>
      </trkpt>
      <trkpt lat="47.8469" lon="6.95253">
        <ele>1051</ele>
        <time>2026-05-09T06:39:17.984Z</time>
      </trkpt>
      <trkpt lat="47.8469" lon="6.95251">
        <ele>1051</ele>
        <time>2026-05-09T06:39:18.985Z</time>
      </trkpt>
      <trkpt lat="47.84689" lon="6.95249">
        <ele>1051</ele>
        <time>2026-05-09T06:39:19.984Z</time>
      </trkpt>
      <trkpt lat="47.84689" lon="6.95247">
        <ele>1051</ele>
        <time>2026-05-09T06:39:20.984Z</time>
      </trkpt>
      <trkpt lat="47.84689" lon="6.95245">
        <ele>1052</ele>
        <time>2026-05-09T06:39:21.985Z</time>
      </trkpt>
      <trkpt lat="47.8469" lon="6.95243">
        <ele>1051</ele>
        <time>2026-05-09T06:39:22.985Z</time>
      </trkpt>
      <trkpt lat="47.8469" lon="6.95242">
        <ele>1051</ele>
        <time>2026-05-09T06:39:23.985Z</time>
      </trkpt>
      <trkpt lat="47.84691" lon="6.9524">
        <ele>1051</ele>
        <time>2026-05-09T06:39:24.984Z</time>
      </trkpt>
      <trkpt lat="47.84691" lon="6.95239">
        <ele>1051</ele>
        <time>2026-05-09T06:39:25.985Z</time>
      </trkpt>
      <trkpt lat="47.84692" lon="6.95237">
        <ele>1051</ele>
        <time>2026-05-09T06:39:26.984Z</time>
      </trkpt>
      <trkpt lat="47.84692" lon="6.95235">
        <ele>1051</ele>
        <time>2026-05-09T06:39:27.984Z</time>
      </trkpt>
      <trkpt lat="47.84693" lon="6.95233">
        <ele>1050</ele>
        <time>2026-05-09T06:39:28.984Z</time>
      </trkpt>
      <trkpt lat="47.84693" lon="6.95232">
        <ele>1050</ele>
        <time>2026-05-09T06:39:29.984Z</time>
      </trkpt>
      <trkpt lat="47.84693" lon="6.9523">
        <ele>1050</ele>
        <time>2026-05-09T06:39:30.984Z</time>
      </trkpt>
      <trkpt lat="47.84693" lon="6.95228">
        <ele>1050</ele>
        <time>2026-05-09T06:39:31.985Z</time>
      </trkpt>
      <trkpt lat="47.84693" lon="6.95227">
        <ele>1049</ele>
        <time>2026-05-09T06:39:32.985Z</time>
      </trkpt>
      <trkpt lat="47.84694" lon="6.95225">
        <ele>1049</ele>
        <time>2026-05-09T06:39:33.984Z</time>
      </trkpt>
      <trkpt lat="47.84694" lon="6.95224">
        <ele>1049</ele>
        <time>2026-05-09T06:39:34.984Z</time>
      </trkpt>
      <trkpt lat="47.84693" lon="6.95221">
        <ele>1049</ele>
        <time>2026-05-09T06:39:35.985Z</time>
      </trkpt>
      <trkpt lat="47.84693" lon="6.9522">
        <ele>1049</ele>
        <time>2026-05-09T06:39:36.984Z</time>
      </trkpt>
      <trkpt lat="47.84694" lon="6.95218">
        <ele>1049</ele>
        <time>2026-05-09T06:39:37.985Z</time>
      </trkpt>
      <trkpt lat="47.84694" lon="6.95216">
        <ele>1049</ele>
        <time>2026-05-09T06:39:38.984Z</time>
      </trkpt>
      <trkpt lat="47.84694" lon="6.95214">
        <ele>1049</ele>
        <time>2026-05-09T06:39:39.984Z</time>
      </trkpt>
      <trkpt lat="47.84694" lon="6.95212">
        <ele>1049</ele>
        <time>2026-05-09T06:39:40.985Z</time>
      </trkpt>
      <trkpt lat="47.84695" lon="6.95209">
        <ele>1049</ele>
        <time>2026-05-09T06:39:41.984Z</time>
      </trkpt>
      <trkpt lat="47.84695" lon="6.95207">
        <ele>1049</ele>
        <time>2026-05-09T06:39:42.985Z</time>
      </trkpt>
      <trkpt lat="47.84695" lon="6.95205">
        <ele>1049</ele>
        <time>2026-05-09T06:39:43.985Z</time>
      </trkpt>
      <trkpt lat="47.84695" lon="6.95203">
        <ele>1049</ele>
        <time>2026-05-09T06:39:44.985Z</time>
      </trkpt>
      <trkpt lat="47.84695" lon="6.95201">
        <ele>1049</ele>
        <time>2026-05-09T06:39:45.985Z</time>
      </trkpt>
      <trkpt lat="47.84695" lon="6.952">
        <ele>1049</ele>
        <time>2026-05-09T06:39:46.985Z</time>
      </trkpt>
      <trkpt lat="47.84695" lon="6.95198">
        <ele>1049</ele>
        <time>2026-05-09T06:39:47.984Z</time>
      </trkpt>
      <trkpt lat="47.84695" lon="6.95196">
        <ele>1049</ele>
        <time>2026-05-09T06:39:48.984Z</time>
      </trkpt>
      <trkpt lat="47.84694" lon="6.95195">
        <ele>1050</ele>
        <time>2026-05-09T06:39:49.984Z</time>
      </trkpt>
      <trkpt lat="47.84693" lon="6.95193">
        <ele>1050</ele>
        <time>2026-05-09T06:39:50.984Z</time>
      </trkpt>
      <trkpt lat="47.84691" lon="6.9519">
        <ele>1050</ele>
        <time>2026-05-09T06:39:51.984Z</time>
      </trkpt>
      <trkpt lat="47.84691" lon="6.95188">
        <ele>1050</ele>
        <time>2026-05-09T06:39:52.984Z</time>
      </trkpt>
      <trkpt lat="47.84691" lon="6.95186">
        <ele>1050</ele>
        <time>2026-05-09T06:39:53.985Z</time>
      </trkpt>
      <trkpt lat="47.84692" lon="6.95185">
        <ele>1050</ele>
        <time>2026-05-09T06:39:54.985Z</time>
      </trkpt>
      <trkpt lat="47.84692" lon="6.95183">
        <ele>1050</ele>
        <time>2026-05-09T06:39:55.984Z</time>
      </trkpt>
      <trkpt lat="47.84692" lon="6.95181">
        <ele>1050</ele>
        <time>2026-05-09T06:39:56.985Z</time>
      </trkpt>
      <trkpt lat="47.84693" lon="6.9518">
        <ele>1050</ele>
        <time>2026-05-09T06:39:57.984Z</time>
      </trkpt>
      <trkpt lat="47.84693" lon="6.95179">
        <ele>1050</ele>
        <time>2026-05-09T06:39:58.984Z</time>
      </trkpt>
      <trkpt lat="47.84694" lon="6.95177">
        <ele>1050</ele>
        <time>2026-05-09T06:39:59.984Z</time>
      </trkpt>
      <trkpt lat="47.84694" lon="6.95175">
        <ele>1050</ele>
        <time>2026-05-09T06:40:00.984Z</time>
      </trkpt>
      <trkpt lat="47.84694" lon="6.95173">
        <ele>1050</ele>
        <time>2026-05-09T06:40:01.984Z</time>
      </trkpt>
      <trkpt lat="47.84694" lon="6.9517">
        <ele>1050</ele>
        <time>2026-05-09T06:40:02.985Z</time>
      </trkpt>
      <trkpt lat="47.84695" lon="6.95166">
        <ele>1050</ele>
        <time>2026-05-09T06:40:03.985Z</time>
      </trkpt>
      <trkpt lat="47.84695" lon="6.95162">
        <ele>1050</ele>
        <time>2026-05-09T06:40:04.984Z</time>
      </trkpt>
      <trkpt lat="47.84696" lon="6.95158">
        <ele>1050</ele>
        <time>2026-05-09T06:40:05.985Z</time>
      </trkpt>
      <trkpt lat="47.84698" lon="6.95156">
        <ele>1050</ele>
        <time>2026-05-09T06:40:06.984Z</time>
      </trkpt>
      <trkpt lat="47.84699" lon="6.95153">
        <ele>1050</ele>
        <time>2026-05-09T06:40:07.984Z</time>
      </trkpt>
      <trkpt lat="47.84699" lon="6.95151">
        <ele>1050</ele>
        <time>2026-05-09T06:40:08.985Z</time>
      </trkpt>
      <trkpt lat="47.847" lon="6.95149">
        <ele>1050</ele>
        <time>2026-05-09T06:40:09.984Z</time>
      </trkpt>
      <trkpt lat="47.84701" lon="6.95147">
        <ele>1050</ele>
        <time>2026-05-09T06:40:10.984Z</time>
      </trkpt>
      <trkpt lat="47.84702" lon="6.95144">
        <ele>1049</ele>
        <time>2026-05-09T06:40:11.984Z</time>
      </trkpt>
      <trkpt lat="47.84702" lon="6.95141">
        <ele>1049</ele>
        <time>2026-05-09T06:40:12.984Z</time>
      </trkpt>
      <trkpt lat="47.84702" lon="6.95139">
        <ele>1049</ele>
        <time>2026-05-09T06:40:13.984Z</time>
      </trkpt>
      <trkpt lat="47.84703" lon="6.95136">
        <ele>1049</ele>
        <time>2026-05-09T06:40:14.985Z</time>
      </trkpt>
      <trkpt lat="47.84703" lon="6.95135">
        <ele>1049</ele>
        <time>2026-05-09T06:40:15.984Z</time>
      </trkpt>
      <trkpt lat="47.84704" lon="6.95135">
        <ele>1049</ele>
        <time>2026-05-09T06:40:16.985Z</time>
      </trkpt>
      <trkpt lat="47.84706" lon="6.95133">
        <ele>1049</ele>
        <time>2026-05-09T06:40:17.985Z</time>
      </trkpt>
      <trkpt lat="47.84707" lon="6.95132">
        <ele>1050</ele>
        <time>2026-05-09T06:40:18.985Z</time>
      </trkpt>
      <trkpt lat="47.84709" lon="6.95129">
        <ele>1050</ele>
        <time>2026-05-09T06:40:19.985Z</time>
      </trkpt>
      <trkpt lat="47.8471" lon="6.95128">
        <ele>1050</ele>
        <time>2026-05-09T06:40:20.984Z</time>
      </trkpt>
      <trkpt lat="47.84711" lon="6.95126">
        <ele>1050</ele>
        <time>2026-05-09T06:40:21.985Z</time>
      </trkpt>
      <trkpt lat="47.84712" lon="6.95124">
        <ele>1050</ele>
        <time>2026-05-09T06:40:22.985Z</time>
      </trkpt>
      <trkpt lat="47.84712" lon="6.95122">
        <ele>1050</ele>
        <time>2026-05-09T06:40:23.984Z</time>
      </trkpt>
      <trkpt lat="47.84712" lon="6.95121">
        <ele>1050</ele>
        <time>2026-05-09T06:40:24.985Z</time>
      </trkpt>
      <trkpt lat="47.84712" lon="6.95119">
        <ele>1051</ele>
        <time>2026-05-09T06:40:25.984Z</time>
      </trkpt>
      <trkpt lat="47.84712" lon="6.95119">
        <ele>1051</ele>
        <time>2026-05-09T06:40:26.985Z</time>
      </trkpt>
      <trkpt lat="47.84713" lon="6.95117">
        <ele>1051</ele>
        <time>2026-05-09T06:40:27.984Z</time>
      </trkpt>
      <trkpt lat="47.84714" lon="6.95115">
        <ele>1051</ele>
        <time>2026-05-09T06:40:28.985Z</time>
      </trkpt>
      <trkpt lat="47.84715" lon="6.95114">
        <ele>1051</ele>
        <time>2026-05-09T06:40:29.985Z</time>
      </trkpt>
      <trkpt lat="47.84715" lon="6.95113">
        <ele>1051</ele>
        <time>2026-05-09T06:40:30.985Z</time>
      </trkpt>
      <trkpt lat="47.84715" lon="6.95112">
        <ele>1052</ele>
        <time>2026-05-09T06:40:31.985Z</time>
      </trkpt>
      <trkpt lat="47.84716" lon="6.9511">
        <ele>1052</ele>
        <time>2026-05-09T06:40:32.985Z</time>
      </trkpt>
      <trkpt lat="47.84716" lon="6.95109">
        <ele>1052</ele>
        <time>2026-05-09T06:40:33.984Z</time>
      </trkpt>
      <trkpt lat="47.84717" lon="6.95107">
        <ele>1052</ele>
        <time>2026-05-09T06:40:34.985Z</time>
      </trkpt>
      <trkpt lat="47.84717" lon="6.95106">
        <ele>1052</ele>
        <time>2026-05-09T06:40:35.984Z</time>
      </trkpt>
      <trkpt lat="47.84718" lon="6.95105">
        <ele>1052</ele>
        <time>2026-05-09T06:40:36.985Z</time>
      </trkpt>
      <trkpt lat="47.84718" lon="6.95104">
        <ele>1053</ele>
        <time>2026-05-09T06:40:37.984Z</time>
      </trkpt>
      <trkpt lat="47.84718" lon="6.95103">
        <ele>1053</ele>
        <time>2026-05-09T06:40:38.984Z</time>
      </trkpt>
      <trkpt lat="47.84719" lon="6.95102">
        <ele>1053</ele>
        <time>2026-05-09T06:40:39.985Z</time>
      </trkpt>
      <trkpt lat="47.84719" lon="6.95101">
        <ele>1053</ele>
        <time>2026-05-09T06:40:40.985Z</time>
      </trkpt>
      <trkpt lat="47.8472" lon="6.951">
        <ele>1053</ele>
        <time>2026-05-09T06:40:41.984Z</time>
      </trkpt>
      <trkpt lat="47.84721" lon="6.95099">
        <ele>1053</ele>
        <time>2026-05-09T06:40:42.984Z</time>
      </trkpt>
      <trkpt lat="47.84722" lon="6.95098">
        <ele>1053</ele>
        <time>2026-05-09T06:40:43.984Z</time>
      </trkpt>
      <trkpt lat="47.84723" lon="6.95097">
        <ele>1053</ele>
        <time>2026-05-09T06:40:44.985Z</time>
      </trkpt>
      <trkpt lat="47.84723" lon="6.95096">
        <ele>1053</ele>
        <time>2026-05-09T06:40:45.985Z</time>
      </trkpt>
      <trkpt lat="47.84724" lon="6.95095">
        <ele>1053</ele>
        <time>2026-05-09T06:40:46.985Z</time>
      </trkpt>
      <trkpt lat="47.84725" lon="6.95094">
        <ele>1053</ele>
        <time>2026-05-09T06:40:47.985Z</time>
      </trkpt>
      <trkpt lat="47.84725" lon="6.95094">
        <ele>1053</ele>
        <time>2026-05-09T06:40:48.985Z</time>
      </trkpt>
      <trkpt lat="47.84726" lon="6.95093">
        <ele>1053</ele>
        <time>2026-05-09T06:40:49.984Z</time>
      </trkpt>
      <trkpt lat="47.84728" lon="6.95092">
        <ele>1054</ele>
        <time>2026-05-09T06:40:50.985Z</time>
      </trkpt>
      <trkpt lat="47.84729" lon="6.95092">
        <ele>1054</ele>
        <time>2026-05-09T06:40:51.984Z</time>
      </trkpt>
      <trkpt lat="47.84729" lon="6.95091">
        <ele>1054</ele>
        <time>2026-05-09T06:40:52.985Z</time>
      </trkpt>
      <trkpt lat="47.84729" lon="6.95091">
        <ele>1054</ele>
        <time>2026-05-09T06:40:53.985Z</time>
      </trkpt>
      <trkpt lat="47.8473" lon="6.9509">
        <ele>1054</ele>
        <time>2026-05-09T06:40:54.984Z</time>
      </trkpt>
      <trkpt lat="47.84731" lon="6.95088">
        <ele>1054</ele>
        <time>2026-05-09T06:40:55.984Z</time>
      </trkpt>
      <trkpt lat="47.84731" lon="6.95087">
        <ele>1053</ele>
        <time>2026-05-09T06:40:56.985Z</time>
      </trkpt>
      <trkpt lat="47.84731" lon="6.95086">
        <ele>1053</ele>
        <time>2026-05-09T06:40:57.985Z</time>
      </trkpt>
      <trkpt lat="47.84731" lon="6.95085">
        <ele>1053</ele>
        <time>2026-05-09T06:40:58.984Z</time>
      </trkpt>
      <trkpt lat="47.84731" lon="6.95083">
        <ele>1052</ele>
        <time>2026-05-09T06:40:59.985Z</time>
      </trkpt>
      <trkpt lat="47.84731" lon="6.95081">
        <ele>1052</ele>
        <time>2026-05-09T06:41:00.985Z</time>
      </trkpt>
      <trkpt lat="47.84732" lon="6.95079">
        <ele>1051</ele>
        <time>2026-05-09T06:41:01.985Z</time>
      </trkpt>
      <trkpt lat="47.84733" lon="6.95077">
        <ele>1051</ele>
        <time>2026-05-09T06:41:02.984Z</time>
      </trkpt>
      <trkpt lat="47.84734" lon="6.95076">
        <ele>1051</ele>
        <time>2026-05-09T06:41:03.984Z</time>
      </trkpt>
      <trkpt lat="47.84734" lon="6.95075">
        <ele>1050</ele>
        <time>2026-05-09T06:41:04.984Z</time>
      </trkpt>
      <trkpt lat="47.84735" lon="6.95073">
        <ele>1050</ele>
        <time>2026-05-09T06:41:05.985Z</time>
      </trkpt>
      <trkpt lat="47.84736" lon="6.95072">
        <ele>1049</ele>
        <time>2026-05-09T06:41:06.984Z</time>
      </trkpt>
      <trkpt lat="47.84738" lon="6.9507">
        <ele>1049</ele>
        <time>2026-05-09T06:41:07.984Z</time>
      </trkpt>
      <trkpt lat="47.84738" lon="6.95069">
        <ele>1049</ele>
        <time>2026-05-09T06:41:08.985Z</time>
      </trkpt>
      <trkpt lat="47.84738" lon="6.95068">
        <ele>1048</ele>
        <time>2026-05-09T06:41:09.984Z</time>
      </trkpt>
      <trkpt lat="47.84738" lon="6.95066">
        <ele>1048</ele>
        <time>2026-05-09T06:41:10.984Z</time>
      </trkpt>
      <trkpt lat="47.84739" lon="6.95066">
        <ele>1048</ele>
        <time>2026-05-09T06:41:11.984Z</time>
      </trkpt>
      <trkpt lat="47.8474" lon="6.95066">
        <ele>1047</ele>
        <time>2026-05-09T06:41:12.985Z</time>
      </trkpt>
      <trkpt lat="47.84741" lon="6.95065">
        <ele>1047</ele>
        <time>2026-05-09T06:41:13.984Z</time>
      </trkpt>
      <trkpt lat="47.84742" lon="6.95063">
        <ele>1047</ele>
        <time>2026-05-09T06:41:14.984Z</time>
      </trkpt>
      <trkpt lat="47.84742" lon="6.95062">
        <ele>1047</ele>
        <time>2026-05-09T06:41:15.985Z</time>
      </trkpt>
      <trkpt lat="47.84742" lon="6.9506">
        <ele>1047</ele>
        <time>2026-05-09T06:41:16.985Z</time>
      </trkpt>
      <trkpt lat="47.84742" lon="6.95059">
        <ele>1047</ele>
        <time>2026-05-09T06:41:17.985Z</time>
      </trkpt>
      <trkpt lat="47.84742" lon="6.95057">
        <ele>1046</ele>
        <time>2026-05-09T06:41:18.984Z</time>
      </trkpt>
      <trkpt lat="47.84743" lon="6.95055">
        <ele>1046</ele>
        <time>2026-05-09T06:41:19.985Z</time>
      </trkpt>
      <trkpt lat="47.84743" lon="6.95053">
        <ele>1046</ele>
        <time>2026-05-09T06:41:20.984Z</time>
      </trkpt>
      <trkpt lat="47.84743" lon="6.95051">
        <ele>1045</ele>
        <time>2026-05-09T06:41:21.984Z</time>
      </trkpt>
      <trkpt lat="47.84743" lon="6.95048">
        <ele>1045</ele>
        <time>2026-05-09T06:41:22.984Z</time>
      </trkpt>
      <trkpt lat="47.84744" lon="6.95046">
        <ele>1045</ele>
        <time>2026-05-09T06:41:23.984Z</time>
      </trkpt>
      <trkpt lat="47.84744" lon="6.95045">
        <ele>1045</ele>
        <time>2026-05-09T06:41:24.985Z</time>
      </trkpt>
      <trkpt lat="47.84745" lon="6.95044">
        <ele>1045</ele>
        <time>2026-05-09T06:41:25.984Z</time>
      </trkpt>
      <trkpt lat="47.84745" lon="6.95042">
        <ele>1045</ele>
        <time>2026-05-09T06:41:26.984Z</time>
      </trkpt>
      <trkpt lat="47.84746" lon="6.95041">
        <ele>1045</ele>
        <time>2026-05-09T06:41:27.984Z</time>
      </trkpt>
      <trkpt lat="47.84747" lon="6.95039">
        <ele>1044</ele>
        <time>2026-05-09T06:41:28.984Z</time>
      </trkpt>
      <trkpt lat="47.84747" lon="6.95038">
        <ele>1044</ele>
        <time>2026-05-09T06:41:29.985Z</time>
      </trkpt>
      <trkpt lat="47.84747" lon="6.95036">
        <ele>1044</ele>
        <time>2026-05-09T06:41:30.985Z</time>
      </trkpt>
      <trkpt lat="47.84747" lon="6.95033">
        <ele>1044</ele>
        <time>2026-05-09T06:41:31.984Z</time>
      </trkpt>
      <trkpt lat="47.84747" lon="6.95031">
        <ele>1044</ele>
        <time>2026-05-09T06:41:32.985Z</time>
      </trkpt>
      <trkpt lat="47.84747" lon="6.95029">
        <ele>1044</ele>
        <time>2026-05-09T06:41:33.985Z</time>
      </trkpt>
      <trkpt lat="47.84747" lon="6.95028">
        <ele>1044</ele>
        <time>2026-05-09T06:41:34.984Z</time>
      </trkpt>
      <trkpt lat="47.84747" lon="6.95026">
        <ele>1044</ele>
        <time>2026-05-09T06:41:35.985Z</time>
      </trkpt>
      <trkpt lat="47.84747" lon="6.95025">
        <ele>1044</ele>
        <time>2026-05-09T06:41:36.984Z</time>
      </trkpt>
      <trkpt lat="47.84747" lon="6.95023">
        <ele>1044</ele>
        <time>2026-05-09T06:41:37.985Z</time>
      </trkpt>
      <trkpt lat="47.84748" lon="6.95022">
        <ele>1044</ele>
        <time>2026-05-09T06:41:38.985Z</time>
      </trkpt>
      <trkpt lat="47.84748" lon="6.95019">
        <ele>1044</ele>
        <time>2026-05-09T06:41:39.985Z</time>
      </trkpt>
      <trkpt lat="47.84748" lon="6.95017">
        <ele>1045</ele>
        <time>2026-05-09T06:41:40.984Z</time>
      </trkpt>
      <trkpt lat="47.84748" lon="6.95015">
        <ele>1045</ele>
        <time>2026-05-09T06:41:41.984Z</time>
      </trkpt>
      <trkpt lat="47.84748" lon="6.95014">
        <ele>1045</ele>
        <time>2026-05-09T06:41:42.984Z</time>
      </trkpt>
      <trkpt lat="47.84749" lon="6.95012">
        <ele>1045</ele>
        <time>2026-05-09T06:41:43.984Z</time>
      </trkpt>
      <trkpt lat="47.84749" lon="6.95011">
        <ele>1045</ele>
        <time>2026-05-09T06:41:44.985Z</time>
      </trkpt>
      <trkpt lat="47.84748" lon="6.9501">
        <ele>1044</ele>
        <time>2026-05-09T06:41:45.984Z</time>
      </trkpt>
      <trkpt lat="47.84748" lon="6.95009">
        <ele>1044</ele>
        <time>2026-05-09T06:41:46.984Z</time>
      </trkpt>
      <trkpt lat="47.84748" lon="6.95007">
        <ele>1044</ele>
        <time>2026-05-09T06:41:47.984Z</time>
      </trkpt>
      <trkpt lat="47.84748" lon="6.95006">
        <ele>1044</ele>
        <time>2026-05-09T06:41:48.985Z</time>
      </trkpt>
      <trkpt lat="47.84748" lon="6.95004">
        <ele>1043</ele>
        <time>2026-05-09T06:41:49.984Z</time>
      </trkpt>
      <trkpt lat="47.84748" lon="6.95003">
        <ele>1043</ele>
        <time>2026-05-09T06:41:50.984Z</time>
      </trkpt>
      <trkpt lat="47.84748" lon="6.95001">
        <ele>1043</ele>
        <time>2026-05-09T06:41:51.984Z</time>
      </trkpt>
      <trkpt lat="47.84747" lon="6.94999">
        <ele>1043</ele>
        <time>2026-05-09T06:41:52.984Z</time>
      </trkpt>
      <trkpt lat="47.84747" lon="6.94998">
        <ele>1043</ele>
        <time>2026-05-09T06:41:53.985Z</time>
      </trkpt>
      <trkpt lat="47.84747" lon="6.94997">
        <ele>1043</ele>
        <time>2026-05-09T06:41:54.985Z</time>
      </trkpt>
      <trkpt lat="47.84747" lon="6.94995">
        <ele>1043</ele>
        <time>2026-05-09T06:41:55.984Z</time>
      </trkpt>
      <trkpt lat="47.84747" lon="6.94994">
        <ele>1043</ele>
        <time>2026-05-09T06:41:56.985Z</time>
      </trkpt>
      <trkpt lat="47.84747" lon="6.94992">
        <ele>1043</ele>
        <time>2026-05-09T06:41:57.985Z</time>
      </trkpt>
      <trkpt lat="47.84747" lon="6.9499">
        <ele>1043</ele>
        <time>2026-05-09T06:41:58.984Z</time>
      </trkpt>
      <trkpt lat="47.84747" lon="6.94988">
        <ele>1042</ele>
        <time>2026-05-09T06:41:59.985Z</time>
      </trkpt>
      <trkpt lat="47.84747" lon="6.94987">
        <ele>1042</ele>
        <time>2026-05-09T06:42:00.984Z</time>
      </trkpt>
      <trkpt lat="47.84747" lon="6.94985">
        <ele>1042</ele>
        <time>2026-05-09T06:42:01.984Z</time>
      </trkpt>
      <trkpt lat="47.84747" lon="6.94984">
        <ele>1042</ele>
        <time>2026-05-09T06:42:02.985Z</time>
      </trkpt>
      <trkpt lat="47.84747" lon="6.94983">
        <ele>1042</ele>
        <time>2026-05-09T06:42:03.984Z</time>
      </trkpt>
      <trkpt lat="47.84747" lon="6.94981">
        <ele>1042</ele>
        <time>2026-05-09T06:42:04.984Z</time>
      </trkpt>
      <trkpt lat="47.84747" lon="6.94979">
        <ele>1042</ele>
        <time>2026-05-09T06:42:05.985Z</time>
      </trkpt>
      <trkpt lat="47.84747" lon="6.94977">
        <ele>1041</ele>
        <time>2026-05-09T06:42:06.984Z</time>
      </trkpt>
      <trkpt lat="47.84747" lon="6.94974">
        <ele>1041</ele>
        <time>2026-05-09T06:42:07.984Z</time>
      </trkpt>
      <trkpt lat="47.84747" lon="6.94972">
        <ele>1041</ele>
        <time>2026-05-09T06:42:08.984Z</time>
      </trkpt>
      <trkpt lat="47.84747" lon="6.9497">
        <ele>1041</ele>
        <time>2026-05-09T06:42:09.984Z</time>
      </trkpt>
      <trkpt lat="47.84747" lon="6.94968">
        <ele>1041</ele>
        <time>2026-05-09T06:42:10.984Z</time>
      </trkpt>
      <trkpt lat="47.84746" lon="6.94966">
        <ele>1041</ele>
        <time>2026-05-09T06:42:11.984Z</time>
      </trkpt>
      <trkpt lat="47.84746" lon="6.94964">
        <ele>1041</ele>
        <time>2026-05-09T06:42:12.984Z</time>
      </trkpt>
      <trkpt lat="47.84746" lon="6.94962">
        <ele>1041</ele>
        <time>2026-05-09T06:42:13.985Z</time>
      </trkpt>
      <trkpt lat="47.84746" lon="6.9496">
        <ele>1041</ele>
        <time>2026-05-09T06:42:14.985Z</time>
      </trkpt>
      <trkpt lat="47.84746" lon="6.94957">
        <ele>1041</ele>
        <time>2026-05-09T06:42:15.984Z</time>
      </trkpt>
      <trkpt lat="47.84745" lon="6.94955">
        <ele>1041</ele>
        <time>2026-05-09T06:42:16.984Z</time>
      </trkpt>
      <trkpt lat="47.84745" lon="6.94954">
        <ele>1041</ele>
        <time>2026-05-09T06:42:17.985Z</time>
      </trkpt>
      <trkpt lat="47.84744" lon="6.94951">
        <ele>1041</ele>
        <time>2026-05-09T06:42:18.984Z</time>
      </trkpt>
      <trkpt lat="47.84744" lon="6.9495">
        <ele>1042</ele>
        <time>2026-05-09T06:42:19.984Z</time>
      </trkpt>
      <trkpt lat="47.84744" lon="6.94947">
        <ele>1042</ele>
        <time>2026-05-09T06:42:20.984Z</time>
      </trkpt>
      <trkpt lat="47.84744" lon="6.94945">
        <ele>1042</ele>
        <time>2026-05-09T06:42:21.984Z</time>
      </trkpt>
      <trkpt lat="47.84744" lon="6.94943">
        <ele>1043</ele>
        <time>2026-05-09T06:42:22.984Z</time>
      </trkpt>
      <trkpt lat="47.84744" lon="6.94941">
        <ele>1043</ele>
        <time>2026-05-09T06:42:23.984Z</time>
      </trkpt>
      <trkpt lat="47.84744" lon="6.94938">
        <ele>1044</ele>
        <time>2026-05-09T06:42:24.984Z</time>
      </trkpt>
      <trkpt lat="47.84744" lon="6.94937">
        <ele>1044</ele>
        <time>2026-05-09T06:42:25.984Z</time>
      </trkpt>
      <trkpt lat="47.84743" lon="6.94934">
        <ele>1044</ele>
        <time>2026-05-09T06:42:26.984Z</time>
      </trkpt>
      <trkpt lat="47.84742" lon="6.94931">
        <ele>1045</ele>
        <time>2026-05-09T06:42:27.985Z</time>
      </trkpt>
      <trkpt lat="47.84743" lon="6.94931">
        <ele>1045</ele>
        <time>2026-05-09T06:42:28.985Z</time>
      </trkpt>
      <trkpt lat="47.84743" lon="6.94929">
        <ele>1045</ele>
        <time>2026-05-09T06:42:29.984Z</time>
      </trkpt>
      <trkpt lat="47.84743" lon="6.94928">
        <ele>1046</ele>
        <time>2026-05-09T06:42:30.985Z</time>
      </trkpt>
      <trkpt lat="47.84743" lon="6.94926">
        <ele>1046</ele>
        <time>2026-05-09T06:42:31.984Z</time>
      </trkpt>
      <trkpt lat="47.84742" lon="6.94924">
        <ele>1046</ele>
        <time>2026-05-09T06:42:32.984Z</time>
      </trkpt>
      <trkpt lat="47.8474" lon="6.9492">
        <ele>1046</ele>
        <time>2026-05-09T06:42:33.985Z</time>
      </trkpt>
      <trkpt lat="47.84739" lon="6.94917">
        <ele>1047</ele>
        <time>2026-05-09T06:42:34.985Z</time>
      </trkpt>
      <trkpt lat="47.84739" lon="6.94913">
        <ele>1047</ele>
        <time>2026-05-09T06:42:35.985Z</time>
      </trkpt>
      <trkpt lat="47.84739" lon="6.9491">
        <ele>1048</ele>
        <time>2026-05-09T06:42:36.984Z</time>
      </trkpt>
      <trkpt lat="47.84738" lon="6.94909">
        <ele>1048</ele>
        <time>2026-05-09T06:42:37.984Z</time>
      </trkpt>
      <trkpt lat="47.8474" lon="6.94907">
        <ele>1048</ele>
        <time>2026-05-09T06:42:38.985Z</time>
      </trkpt>
      <trkpt lat="47.8474" lon="6.94906">
        <ele>1048</ele>
        <time>2026-05-09T06:42:39.984Z</time>
      </trkpt>
      <trkpt lat="47.84742" lon="6.94904">
        <ele>1048</ele>
        <time>2026-05-09T06:42:40.985Z</time>
      </trkpt>
      <trkpt lat="47.84742" lon="6.94902">
        <ele>1048</ele>
        <time>2026-05-09T06:42:41.985Z</time>
      </trkpt>
      <trkpt lat="47.84744" lon="6.94899">
        <ele>1048</ele>
        <time>2026-05-09T06:42:42.985Z</time>
      </trkpt>
      <trkpt lat="47.84746" lon="6.94897">
        <ele>1048</ele>
        <time>2026-05-09T06:42:43.984Z</time>
      </trkpt>
      <trkpt lat="47.84747" lon="6.94893">
        <ele>1048</ele>
        <time>2026-05-09T06:42:44.985Z</time>
      </trkpt>
      <trkpt lat="47.84746" lon="6.9489">
        <ele>1048</ele>
        <time>2026-05-09T06:42:45.984Z</time>
      </trkpt>
      <trkpt lat="47.84745" lon="6.94887">
        <ele>1049</ele>
        <time>2026-05-09T06:42:46.985Z</time>
      </trkpt>
      <trkpt lat="47.84746" lon="6.94886">
        <ele>1049</ele>
        <time>2026-05-09T06:42:47.984Z</time>
      </trkpt>
      <trkpt lat="47.84746" lon="6.94884">
        <ele>1049</ele>
        <time>2026-05-09T06:42:48.984Z</time>
      </trkpt>
      <trkpt lat="47.84746" lon="6.94883">
        <ele>1049</ele>
        <time>2026-05-09T06:42:49.984Z</time>
      </trkpt>
      <trkpt lat="47.84746" lon="6.94881">
        <ele>1049</ele>
        <time>2026-05-09T06:42:50.984Z</time>
      </trkpt>
      <trkpt lat="47.84746" lon="6.94879">
        <ele>1049</ele>
        <time>2026-05-09T06:42:51.984Z</time>
      </trkpt>
      <trkpt lat="47.84745" lon="6.94876">
        <ele>1049</ele>
        <time>2026-05-09T06:42:52.984Z</time>
      </trkpt>
      <trkpt lat="47.84745" lon="6.94875">
        <ele>1049</ele>
        <time>2026-05-09T06:42:53.984Z</time>
      </trkpt>
      <trkpt lat="47.84744" lon="6.94874">
        <ele>1049</ele>
        <time>2026-05-09T06:42:54.985Z</time>
      </trkpt>
      <trkpt lat="47.84743" lon="6.94874">
        <ele>1049</ele>
        <time>2026-05-09T06:42:55.984Z</time>
      </trkpt>
      <trkpt lat="47.84743" lon="6.94873">
        <ele>1049</ele>
        <time>2026-05-09T06:42:56.985Z</time>
      </trkpt>
      <trkpt lat="47.84742" lon="6.94872">
        <ele>1050</ele>
        <time>2026-05-09T06:42:57.984Z</time>
      </trkpt>
      <trkpt lat="47.84742" lon="6.9487">
        <ele>1050</ele>
        <time>2026-05-09T06:42:58.984Z</time>
      </trkpt>
      <trkpt lat="47.84743" lon="6.94869">
        <ele>1050</ele>
        <time>2026-05-09T06:42:59.984Z</time>
      </trkpt>
      <trkpt lat="47.84743" lon="6.94868">
        <ele>1050</ele>
        <time>2026-05-09T06:43:00.984Z</time>
      </trkpt>
      <trkpt lat="47.84743" lon="6.94868">
        <ele>1050</ele>
        <time>2026-05-09T06:43:01.985Z</time>
      </trkpt>
      <trkpt lat="47.84743" lon="6.94866">
        <ele>1050</ele>
        <time>2026-05-09T06:43:02.985Z</time>
      </trkpt>
      <trkpt lat="47.84743" lon="6.94864">
        <ele>1050</ele>
        <time>2026-05-09T06:43:03.984Z</time>
      </trkpt>
      <trkpt lat="47.84743" lon="6.94863">
        <ele>1050</ele>
        <time>2026-05-09T06:43:04.984Z</time>
      </trkpt>
      <trkpt lat="47.84743" lon="6.94862">
        <ele>1050</ele>
        <time>2026-05-09T06:43:05.985Z</time>
      </trkpt>
      <trkpt lat="47.84742" lon="6.94861">
        <ele>1050</ele>
        <time>2026-05-09T06:43:06.984Z</time>
      </trkpt>
      <trkpt lat="47.84742" lon="6.94861">
        <ele>1050</ele>
        <time>2026-05-09T06:43:07.984Z</time>
      </trkpt>
      <trkpt lat="47.84742" lon="6.94861">
        <ele>1051</ele>
        <time>2026-05-09T06:43:08.984Z</time>
      </trkpt>
      <trkpt lat="47.84741" lon="6.94858">
        <ele>1051</ele>
        <time>2026-05-09T06:43:09.984Z</time>
      </trkpt>
      <trkpt lat="47.84741" lon="6.94856">
        <ele>1051</ele>
        <time>2026-05-09T06:43:10.984Z</time>
      </trkpt>
      <trkpt lat="47.84742" lon="6.94854">
        <ele>1051</ele>
        <time>2026-05-09T06:43:11.984Z</time>
      </trkpt>
      <trkpt lat="47.84742" lon="6.94853">
        <ele>1052</ele>
        <time>2026-05-09T06:43:12.985Z</time>
      </trkpt>
      <trkpt lat="47.84742" lon="6.94851">
        <ele>1052</ele>
        <time>2026-05-09T06:43:13.984Z</time>
      </trkpt>
      <trkpt lat="47.84742" lon="6.9485">
        <ele>1052</ele>
        <time>2026-05-09T06:43:14.985Z</time>
      </trkpt>
      <trkpt lat="47.84742" lon="6.94848">
        <ele>1052</ele>
        <time>2026-05-09T06:43:15.984Z</time>
      </trkpt>
      <trkpt lat="47.84741" lon="6.94847">
        <ele>1052</ele>
        <time>2026-05-09T06:43:16.984Z</time>
      </trkpt>
      <trkpt lat="47.84741" lon="6.94845">
        <ele>1052</ele>
        <time>2026-05-09T06:43:17.985Z</time>
      </trkpt>
      <trkpt lat="47.84741" lon="6.94844">
        <ele>1052</ele>
        <time>2026-05-09T06:43:18.984Z</time>
      </trkpt>
      <trkpt lat="47.84741" lon="6.94842">
        <ele>1052</ele>
        <time>2026-05-09T06:43:19.985Z</time>
      </trkpt>
      <trkpt lat="47.8474" lon="6.94841">
        <ele>1052</ele>
        <time>2026-05-09T06:43:20.985Z</time>
      </trkpt>
      <trkpt lat="47.8474" lon="6.94839">
        <ele>1052</ele>
        <time>2026-05-09T06:43:21.984Z</time>
      </trkpt>
      <trkpt lat="47.84739" lon="6.94837">
        <ele>1052</ele>
        <time>2026-05-09T06:43:22.984Z</time>
      </trkpt>
      <trkpt lat="47.84739" lon="6.94836">
        <ele>1051</ele>
        <time>2026-05-09T06:43:23.984Z</time>
      </trkpt>
      <trkpt lat="47.8474" lon="6.94834">
        <ele>1051</ele>
        <time>2026-05-09T06:43:24.984Z</time>
      </trkpt>
      <trkpt lat="47.84741" lon="6.94833">
        <ele>1051</ele>
        <time>2026-05-09T06:43:25.985Z</time>
      </trkpt>
      <trkpt lat="47.84741" lon="6.94832">
        <ele>1051</ele>
        <time>2026-05-09T06:43:26.984Z</time>
      </trkpt>
      <trkpt lat="47.84742" lon="6.94831">
        <ele>1051</ele>
        <time>2026-05-09T06:43:27.984Z</time>
      </trkpt>
      <trkpt lat="47.84743" lon="6.94828">
        <ele>1051</ele>
        <time>2026-05-09T06:43:28.984Z</time>
      </trkpt>
      <trkpt lat="47.84743" lon="6.94827">
        <ele>1051</ele>
        <time>2026-05-09T06:43:29.984Z</time>
      </trkpt>
      <trkpt lat="47.84744" lon="6.94824">
        <ele>1050</ele>
        <time>2026-05-09T06:43:30.985Z</time>
      </trkpt>
      <trkpt lat="47.84745" lon="6.94822">
        <ele>1050</ele>
        <time>2026-05-09T06:43:31.984Z</time>
      </trkpt>
      <trkpt lat="47.84745" lon="6.94821">
        <ele>1050</ele>
        <time>2026-05-09T06:43:32.985Z</time>
      </trkpt>
      <trkpt lat="47.84746" lon="6.94819">
        <ele>1050</ele>
        <time>2026-05-09T06:43:33.985Z</time>
      </trkpt>
      <trkpt lat="47.84747" lon="6.94817">
        <ele>1050</ele>
        <time>2026-05-09T06:43:34.985Z</time>
      </trkpt>
      <trkpt lat="47.84747" lon="6.94815">
        <ele>1050</ele>
        <time>2026-05-09T06:43:35.984Z</time>
      </trkpt>
      <trkpt lat="47.84748" lon="6.94813">
        <ele>1050</ele>
        <time>2026-05-09T06:43:36.985Z</time>
      </trkpt>
      <trkpt lat="47.84748" lon="6.94811">
        <ele>1049</ele>
        <time>2026-05-09T06:43:37.984Z</time>
      </trkpt>
      <trkpt lat="47.84749" lon="6.94809">
        <ele>1049</ele>
        <time>2026-05-09T06:43:38.984Z</time>
      </trkpt>
      <trkpt lat="47.8475" lon="6.94808">
        <ele>1049</ele>
        <time>2026-05-09T06:43:39.984Z</time>
      </trkpt>
      <trkpt lat="47.8475" lon="6.94806">
        <ele>1049</ele>
        <time>2026-05-09T06:43:40.984Z</time>
      </trkpt>
      <trkpt lat="47.84751" lon="6.94805">
        <ele>1049</ele>
        <time>2026-05-09T06:43:41.985Z</time>
      </trkpt>
      <trkpt lat="47.84752" lon="6.94803">
        <ele>1049</ele>
        <time>2026-05-09T06:43:42.985Z</time>
      </trkpt>
      <trkpt lat="47.84752" lon="6.94802">
        <ele>1049</ele>
        <time>2026-05-09T06:43:43.985Z</time>
      </trkpt>
      <trkpt lat="47.84752" lon="6.948">
        <ele>1049</ele>
        <time>2026-05-09T06:43:44.984Z</time>
      </trkpt>
      <trkpt lat="47.84753" lon="6.94799">
        <ele>1050</ele>
        <time>2026-05-09T06:43:45.984Z</time>
      </trkpt>
      <trkpt lat="47.84754" lon="6.94799">
        <ele>1050</ele>
        <time>2026-05-09T06:43:46.984Z</time>
      </trkpt>
      <trkpt lat="47.84755" lon="6.94798">
        <ele>1050</ele>
        <time>2026-05-09T06:43:47.985Z</time>
      </trkpt>
      <trkpt lat="47.84755" lon="6.94797">
        <ele>1050</ele>
        <time>2026-05-09T06:43:48.984Z</time>
      </trkpt>
      <trkpt lat="47.84756" lon="6.94797">
        <ele>1050</ele>
        <time>2026-05-09T06:43:49.985Z</time>
      </trkpt>
      <trkpt lat="47.84757" lon="6.94795">
        <ele>1050</ele>
        <time>2026-05-09T06:43:50.985Z</time>
      </trkpt>
      <trkpt lat="47.84757" lon="6.94794">
        <ele>1050</ele>
        <time>2026-05-09T06:43:51.984Z</time>
      </trkpt>
      <trkpt lat="47.84758" lon="6.94793">
        <ele>1050</ele>
        <time>2026-05-09T06:43:52.984Z</time>
      </trkpt>
      <trkpt lat="47.84759" lon="6.94792">
        <ele>1050</ele>
        <time>2026-05-09T06:43:53.985Z</time>
      </trkpt>
      <trkpt lat="47.8476" lon="6.94791">
        <ele>1050</ele>
        <time>2026-05-09T06:43:54.984Z</time>
      </trkpt>
      <trkpt lat="47.84761" lon="6.94791">
        <ele>1050</ele>
        <time>2026-05-09T06:43:55.984Z</time>
      </trkpt>
      <trkpt lat="47.84762" lon="6.94789">
        <ele>1050</ele>
        <time>2026-05-09T06:43:56.984Z</time>
      </trkpt>
      <trkpt lat="47.84763" lon="6.94787">
        <ele>1050</ele>
        <time>2026-05-09T06:43:57.985Z</time>
      </trkpt>
      <trkpt lat="47.84764" lon="6.94786">
        <ele>1050</ele>
        <time>2026-05-09T06:43:58.984Z</time>
      </trkpt>
      <trkpt lat="47.84764" lon="6.94784">
        <ele>1050</ele>
        <time>2026-05-09T06:43:59.985Z</time>
      </trkpt>
      <trkpt lat="47.84765" lon="6.94782">
        <ele>1050</ele>
        <time>2026-05-09T06:44:00.984Z</time>
      </trkpt>
      <trkpt lat="47.84765" lon="6.94781">
        <ele>1050</ele>
        <time>2026-05-09T06:44:01.984Z</time>
      </trkpt>
      <trkpt lat="47.84765" lon="6.9478">
        <ele>1050</ele>
        <time>2026-05-09T06:44:02.984Z</time>
      </trkpt>
      <trkpt lat="47.84765" lon="6.94779">
        <ele>1050</ele>
        <time>2026-05-09T06:44:03.984Z</time>
      </trkpt>
      <trkpt lat="47.84766" lon="6.94777">
        <ele>1050</ele>
        <time>2026-05-09T06:44:04.984Z</time>
      </trkpt>
      <trkpt lat="47.84767" lon="6.94776">
        <ele>1050</ele>
        <time>2026-05-09T06:44:05.984Z</time>
      </trkpt>
      <trkpt lat="47.84768" lon="6.94775">
        <ele>1050</ele>
        <time>2026-05-09T06:44:06.984Z</time>
      </trkpt>
      <trkpt lat="47.84768" lon="6.94773">
        <ele>1050</ele>
        <time>2026-05-09T06:44:07.985Z</time>
      </trkpt>
      <trkpt lat="47.84769" lon="6.94772">
        <ele>1051</ele>
        <time>2026-05-09T06:44:08.984Z</time>
      </trkpt>
      <trkpt lat="47.8477" lon="6.9477">
        <ele>1051</ele>
        <time>2026-05-09T06:44:09.984Z</time>
      </trkpt>
      <trkpt lat="47.84771" lon="6.94769">
        <ele>1051</ele>
        <time>2026-05-09T06:44:10.985Z</time>
      </trkpt>
      <trkpt lat="47.84771" lon="6.94767">
        <ele>1051</ele>
        <time>2026-05-09T06:44:11.985Z</time>
      </trkpt>
      <trkpt lat="47.84772" lon="6.94766">
        <ele>1051</ele>
        <time>2026-05-09T06:44:12.984Z</time>
      </trkpt>
      <trkpt lat="47.84773" lon="6.94764">
        <ele>1051</ele>
        <time>2026-05-09T06:44:13.985Z</time>
      </trkpt>
      <trkpt lat="47.84774" lon="6.94763">
        <ele>1051</ele>
        <time>2026-05-09T06:44:14.984Z</time>
      </trkpt>
      <trkpt lat="47.84774" lon="6.94761">
        <ele>1051</ele>
        <time>2026-05-09T06:44:15.984Z</time>
      </trkpt>
      <trkpt lat="47.84775" lon="6.94759">
        <ele>1051</ele>
        <time>2026-05-09T06:44:16.984Z</time>
      </trkpt>
      <trkpt lat="47.84775" lon="6.94758">
        <ele>1051</ele>
        <time>2026-05-09T06:44:17.984Z</time>
      </trkpt>
      <trkpt lat="47.84775" lon="6.94757">
        <ele>1052</ele>
        <time>2026-05-09T06:44:18.985Z</time>
      </trkpt>
      <trkpt lat="47.84775" lon="6.94755">
        <ele>1052</ele>
        <time>2026-05-09T06:44:19.984Z</time>
      </trkpt>
      <trkpt lat="47.84775" lon="6.94754">
        <ele>1052</ele>
        <time>2026-05-09T06:44:20.984Z</time>
      </trkpt>
      <trkpt lat="47.84776" lon="6.94752">
        <ele>1052</ele>
        <time>2026-05-09T06:44:21.985Z</time>
      </trkpt>
      <trkpt lat="47.84776" lon="6.94751">
        <ele>1052</ele>
        <time>2026-05-09T06:44:22.985Z</time>
      </trkpt>
      <trkpt lat="47.84777" lon="6.94749">
        <ele>1052</ele>
        <time>2026-05-09T06:44:23.984Z</time>
      </trkpt>
      <trkpt lat="47.84777" lon="6.94748">
        <ele>1052</ele>
        <time>2026-05-09T06:44:24.984Z</time>
      </trkpt>
      <trkpt lat="47.84777" lon="6.94747">
        <ele>1053</ele>
        <time>2026-05-09T06:44:25.985Z</time>
      </trkpt>
      <trkpt lat="47.84777" lon="6.94746">
        <ele>1053</ele>
        <time>2026-05-09T06:44:26.984Z</time>
      </trkpt>
      <trkpt lat="47.84778" lon="6.94745">
        <ele>1053</ele>
        <time>2026-05-09T06:44:27.984Z</time>
      </trkpt>
      <trkpt lat="47.84778" lon="6.94744">
        <ele>1053</ele>
        <time>2026-05-09T06:44:28.984Z</time>
      </trkpt>
      <trkpt lat="47.84778" lon="6.94742">
        <ele>1053</ele>
        <time>2026-05-09T06:44:29.984Z</time>
      </trkpt>
      <trkpt lat="47.84779" lon="6.9474">
        <ele>1053</ele>
        <time>2026-05-09T06:44:30.984Z</time>
      </trkpt>
      <trkpt lat="47.84779" lon="6.94738">
        <ele>1054</ele>
        <time>2026-05-09T06:44:31.985Z</time>
      </trkpt>
      <trkpt lat="47.84778" lon="6.94736">
        <ele>1054</ele>
        <time>2026-05-09T06:44:32.984Z</time>
      </trkpt>
      <trkpt lat="47.84778" lon="6.94733">
        <ele>1054</ele>
        <time>2026-05-09T06:44:33.984Z</time>
      </trkpt>
      <trkpt lat="47.84778" lon="6.94731">
        <ele>1054</ele>
        <time>2026-05-09T06:44:34.984Z</time>
      </trkpt>
      <trkpt lat="47.84778" lon="6.94728">
        <ele>1053</ele>
        <time>2026-05-09T06:44:35.984Z</time>
      </trkpt>
      <trkpt lat="47.84778" lon="6.94726">
        <ele>1053</ele>
        <time>2026-05-09T06:44:36.984Z</time>
      </trkpt>
      <trkpt lat="47.84779" lon="6.94724">
        <ele>1053</ele>
        <time>2026-05-09T06:44:37.985Z</time>
      </trkpt>
      <trkpt lat="47.84779" lon="6.94722">
        <ele>1052</ele>
        <time>2026-05-09T06:44:38.984Z</time>
      </trkpt>
      <trkpt lat="47.84779" lon="6.9472">
        <ele>1052</ele>
        <time>2026-05-09T06:44:39.985Z</time>
      </trkpt>
      <trkpt lat="47.84779" lon="6.94718">
        <ele>1052</ele>
        <time>2026-05-09T06:44:40.984Z</time>
      </trkpt>
      <trkpt lat="47.84779" lon="6.94717">
        <ele>1052</ele>
        <time>2026-05-09T06:44:41.985Z</time>
      </trkpt>
      <trkpt lat="47.8478" lon="6.94715">
        <ele>1052</ele>
        <time>2026-05-09T06:44:42.984Z</time>
      </trkpt>
      <trkpt lat="47.8478" lon="6.94713">
        <ele>1052</ele>
        <time>2026-05-09T06:44:43.984Z</time>
      </trkpt>
      <trkpt lat="47.84781" lon="6.94712">
        <ele>1052</ele>
        <time>2026-05-09T06:44:44.984Z</time>
      </trkpt>
      <trkpt lat="47.84781" lon="6.9471">
        <ele>1052</ele>
        <time>2026-05-09T06:44:45.985Z</time>
      </trkpt>
      <trkpt lat="47.84781" lon="6.94708">
        <ele>1052</ele>
        <time>2026-05-09T06:44:46.984Z</time>
      </trkpt>
      <trkpt lat="47.84781" lon="6.94707">
        <ele>1052</ele>
        <time>2026-05-09T06:44:47.985Z</time>
      </trkpt>
      <trkpt lat="47.84782" lon="6.94705">
        <ele>1052</ele>
        <time>2026-05-09T06:44:48.984Z</time>
      </trkpt>
      <trkpt lat="47.84782" lon="6.94703">
        <ele>1052</ele>
        <time>2026-05-09T06:44:49.985Z</time>
      </trkpt>
      <trkpt lat="47.84781" lon="6.94702">
        <ele>1052</ele>
        <time>2026-05-09T06:44:50.984Z</time>
      </trkpt>
      <trkpt lat="47.84781" lon="6.947">
        <ele>1052</ele>
        <time>2026-05-09T06:44:51.985Z</time>
      </trkpt>
      <trkpt lat="47.84781" lon="6.94698">
        <ele>1051</ele>
        <time>2026-05-09T06:44:52.984Z</time>
      </trkpt>
      <trkpt lat="47.84781" lon="6.94696">
        <ele>1051</ele>
        <time>2026-05-09T06:44:53.985Z</time>
      </trkpt>
      <trkpt lat="47.84782" lon="6.94694">
        <ele>1051</ele>
        <time>2026-05-09T06:44:54.984Z</time>
      </trkpt>
      <trkpt lat="47.84782" lon="6.94692">
        <ele>1051</ele>
        <time>2026-05-09T06:44:55.985Z</time>
      </trkpt>
      <trkpt lat="47.84782" lon="6.94691">
        <ele>1051</ele>
        <time>2026-05-09T06:44:56.984Z</time>
      </trkpt>
      <trkpt lat="47.84782" lon="6.9469">
        <ele>1051</ele>
        <time>2026-05-09T06:44:57.984Z</time>
      </trkpt>
      <trkpt lat="47.84782" lon="6.94689">
        <ele>1051</ele>
        <time>2026-05-09T06:44:58.984Z</time>
      </trkpt>
      <trkpt lat="47.84783" lon="6.94687">
        <ele>1051</ele>
        <time>2026-05-09T06:44:59.984Z</time>
      </trkpt>
      <trkpt lat="47.84783" lon="6.94684">
        <ele>1051</ele>
        <time>2026-05-09T06:45:00.984Z</time>
      </trkpt>
      <trkpt lat="47.84783" lon="6.94681">
        <ele>1052</ele>
        <time>2026-05-09T06:45:01.984Z</time>
      </trkpt>
      <trkpt lat="47.84783" lon="6.94679">
        <ele>1052</ele>
        <time>2026-05-09T06:45:02.984Z</time>
      </trkpt>
      <trkpt lat="47.84783" lon="6.94677">
        <ele>1052</ele>
        <time>2026-05-09T06:45:03.984Z</time>
      </trkpt>
      <trkpt lat="47.84783" lon="6.94674">
        <ele>1052</ele>
        <time>2026-05-09T06:45:04.984Z</time>
      </trkpt>
      <trkpt lat="47.84783" lon="6.94672">
        <ele>1053</ele>
        <time>2026-05-09T06:45:05.984Z</time>
      </trkpt>
      <trkpt lat="47.84784" lon="6.9467">
        <ele>1053</ele>
        <time>2026-05-09T06:45:06.984Z</time>
      </trkpt>
      <trkpt lat="47.84784" lon="6.94667">
        <ele>1053</ele>
        <time>2026-05-09T06:45:07.985Z</time>
      </trkpt>
      <trkpt lat="47.84784" lon="6.94664">
        <ele>1053</ele>
        <time>2026-05-09T06:45:08.984Z</time>
      </trkpt>
      <trkpt lat="47.84785" lon="6.9466">
        <ele>1054</ele>
        <time>2026-05-09T06:45:09.985Z</time>
      </trkpt>
      <trkpt lat="47.84787" lon="6.94657">
        <ele>1054</ele>
        <time>2026-05-09T06:45:10.984Z</time>
      </trkpt>
      <trkpt lat="47.84787" lon="6.94652">
        <ele>1054</ele>
        <time>2026-05-09T06:45:11.985Z</time>
      </trkpt>
      <trkpt lat="47.84787" lon="6.94648">
        <ele>1054</ele>
        <time>2026-05-09T06:45:12.985Z</time>
      </trkpt>
      <trkpt lat="47.84788" lon="6.94645">
        <ele>1054</ele>
        <time>2026-05-09T06:45:13.984Z</time>
      </trkpt>
      <trkpt lat="47.84787" lon="6.94644">
        <ele>1054</ele>
        <time>2026-05-09T06:45:14.984Z</time>
      </trkpt>
      <trkpt lat="47.84784" lon="6.94645">
        <ele>1054</ele>
        <time>2026-05-09T06:45:15.984Z</time>
      </trkpt>
      <trkpt lat="47.84783" lon="6.94643">
        <ele>1054</ele>
        <time>2026-05-09T06:45:16.984Z</time>
      </trkpt>
      <trkpt lat="47.84783" lon="6.94639">
        <ele>1055</ele>
        <time>2026-05-09T06:45:17.984Z</time>
      </trkpt>
      <trkpt lat="47.84783" lon="6.94638">
        <ele>1055</ele>
        <time>2026-05-09T06:45:18.984Z</time>
      </trkpt>
      <trkpt lat="47.84784" lon="6.94636">
        <ele>1055</ele>
        <time>2026-05-09T06:45:19.984Z</time>
      </trkpt>
      <trkpt lat="47.84784" lon="6.94634">
        <ele>1055</ele>
        <time>2026-05-09T06:45:20.984Z</time>
      </trkpt>
      <trkpt lat="47.84786" lon="6.94636">
        <ele>1055</ele>
        <time>2026-05-09T06:45:21.985Z</time>
      </trkpt>
      <trkpt lat="47.84786" lon="6.94635">
        <ele>1055</ele>
        <time>2026-05-09T06:45:22.984Z</time>
      </trkpt>
      <trkpt lat="47.84787" lon="6.94642">
        <ele>1056</ele>
        <time>2026-05-09T06:45:23.984Z</time>
      </trkpt>
      <trkpt lat="47.84787" lon="6.94647">
        <ele>1056</ele>
        <time>2026-05-09T06:45:24.984Z</time>
      </trkpt>
      <trkpt lat="47.84786" lon="6.9465">
        <ele>1057</ele>
        <time>2026-05-09T06:45:25.985Z</time>
      </trkpt>
      <trkpt lat="47.84785" lon="6.94654">
        <ele>1058</ele>
        <time>2026-05-09T06:45:26.985Z</time>
      </trkpt>
      <trkpt lat="47.84784" lon="6.94656">
        <ele>1058</ele>
        <time>2026-05-09T06:45:27.985Z</time>
      </trkpt>
      <trkpt lat="47.84784" lon="6.94656">
        <ele>1058</ele>
        <time>2026-05-09T06:45:28.984Z</time>
      </trkpt>
      <trkpt lat="47.84783" lon="6.94658">
        <ele>1059</ele>
        <time>2026-05-09T06:45:29.984Z</time>
      </trkpt>
      <trkpt lat="47.84782" lon="6.94659">
        <ele>1059</ele>
        <time>2026-05-09T06:45:30.984Z</time>
      </trkpt>
      <trkpt lat="47.84781" lon="6.94661">
        <ele>1060</ele>
        <time>2026-05-09T06:45:31.985Z</time>
      </trkpt>
      <trkpt lat="47.84782" lon="6.9466">
        <ele>1061</ele>
        <time>2026-05-09T06:45:32.984Z</time>
      </trkpt>
      <trkpt lat="47.84782" lon="6.94657">
        <ele>1061</ele>
        <time>2026-05-09T06:45:33.984Z</time>
      </trkpt>
      <trkpt lat="47.84783" lon="6.94655">
        <ele>1062</ele>
        <time>2026-05-09T06:45:34.984Z</time>
      </trkpt>
      <trkpt lat="47.84783" lon="6.94652">
        <ele>1062</ele>
        <time>2026-05-09T06:45:35.984Z</time>
      </trkpt>
      <trkpt lat="47.84783" lon="6.94651">
        <ele>1062</ele>
        <time>2026-05-09T06:45:36.984Z</time>
      </trkpt>
      <trkpt lat="47.84784" lon="6.94649">
        <ele>1062</ele>
        <time>2026-05-09T06:45:37.985Z</time>
      </trkpt>
      <trkpt lat="47.84784" lon="6.94648">
        <ele>1063</ele>
        <time>2026-05-09T06:45:38.985Z</time>
      </trkpt>
      <trkpt lat="47.84784" lon="6.94647">
        <ele>1063</ele>
        <time>2026-05-09T06:45:39.984Z</time>
      </trkpt>
      <trkpt lat="47.84784" lon="6.94647">
        <ele>1064</ele>
        <time>2026-05-09T06:45:40.984Z</time>
      </trkpt>
      <trkpt lat="47.84785" lon="6.94646">
        <ele>1064</ele>
        <time>2026-05-09T06:45:41.984Z</time>
      </trkpt>
      <trkpt lat="47.84784" lon="6.94646">
        <ele>1065</ele>
        <time>2026-05-09T06:45:42.984Z</time>
      </trkpt>
      <trkpt lat="47.84784" lon="6.94645">
        <ele>1065</ele>
        <time>2026-05-09T06:45:43.984Z</time>
      </trkpt>
      <trkpt lat="47.84784" lon="6.94645">
        <ele>1065</ele>
        <time>2026-05-09T06:45:44.984Z</time>
      </trkpt>
      <trkpt lat="47.84784" lon="6.94645">
        <ele>1065</ele>
        <time>2026-05-09T06:45:45.984Z</time>
      </trkpt>
      <trkpt lat="47.84784" lon="6.94644">
        <ele>1065</ele>
        <time>2026-05-09T06:45:46.985Z</time>
      </trkpt>
      <trkpt lat="47.84784" lon="6.94642">
        <ele>1065</ele>
        <time>2026-05-09T06:45:47.985Z</time>
      </trkpt>
      <trkpt lat="47.84784" lon="6.9464">
        <ele>1065</ele>
        <time>2026-05-09T06:45:48.984Z</time>
      </trkpt>
      <trkpt lat="47.84784" lon="6.94639">
        <ele>1066</ele>
        <time>2026-05-09T06:45:49.984Z</time>
      </trkpt>
      <trkpt lat="47.84785" lon="6.94638">
        <ele>1066</ele>
        <time>2026-05-09T06:45:50.985Z</time>
      </trkpt>
      <trkpt lat="47.84785" lon="6.94637">
        <ele>1066</ele>
        <time>2026-05-09T06:45:51.984Z</time>
      </trkpt>
      <trkpt lat="47.84784" lon="6.94635">
        <ele>1066</ele>
        <time>2026-05-09T06:45:52.984Z</time>
      </trkpt>
      <trkpt lat="47.84784" lon="6.94634">
        <ele>1066</ele>
        <time>2026-05-09T06:45:53.984Z</time>
      </trkpt>
      <trkpt lat="47.84784" lon="6.94632">
        <ele>1066</ele>
        <time>2026-05-09T06:45:54.984Z</time>
      </trkpt>
      <trkpt lat="47.84784" lon="6.94631">
        <ele>1066</ele>
        <time>2026-05-09T06:45:55.984Z</time>
      </trkpt>
      <trkpt lat="47.84785" lon="6.9463">
        <ele>1066</ele>
        <time>2026-05-09T06:45:56.985Z</time>
      </trkpt>
      <trkpt lat="47.84785" lon="6.94629">
        <ele>1066</ele>
        <time>2026-05-09T06:45:57.984Z</time>
      </trkpt>
      <trkpt lat="47.84785" lon="6.94628">
        <ele>1066</ele>
        <time>2026-05-09T06:45:58.984Z</time>
      </trkpt>
      <trkpt lat="47.84785" lon="6.94627">
        <ele>1067</ele>
        <time>2026-05-09T06:45:59.985Z</time>
      </trkpt>
      <trkpt lat="47.84786" lon="6.94626">
        <ele>1067</ele>
        <time>2026-05-09T06:46:00.984Z</time>
      </trkpt>
      <trkpt lat="47.84786" lon="6.94625">
        <ele>1067</ele>
        <time>2026-05-09T06:46:01.985Z</time>
      </trkpt>
      <trkpt lat="47.84786" lon="6.94623">
        <ele>1067</ele>
        <time>2026-05-09T06:46:02.985Z</time>
      </trkpt>
      <trkpt lat="47.84786" lon="6.94622">
        <ele>1068</ele>
        <time>2026-05-09T06:46:03.985Z</time>
      </trkpt>
      <trkpt lat="47.84787" lon="6.94621">
        <ele>1068</ele>
        <time>2026-05-09T06:46:04.984Z</time>
      </trkpt>
      <trkpt lat="47.84786" lon="6.9462">
        <ele>1068</ele>
        <time>2026-05-09T06:46:05.984Z</time>
      </trkpt>
      <trkpt lat="47.84786" lon="6.94619">
        <ele>1069</ele>
        <time>2026-05-09T06:46:06.984Z</time>
      </trkpt>
      <trkpt lat="47.84786" lon="6.94619">
        <ele>1069</ele>
        <time>2026-05-09T06:46:07.984Z</time>
      </trkpt>
      <trkpt lat="47.84784" lon="6.9462">
        <ele>1071</ele>
        <time>2026-05-09T06:46:13.422Z</time>
      </trkpt>
      <trkpt lat="47.84783" lon="6.94621">
        <ele>1072</ele>
        <time>2026-05-09T06:46:14.422Z</time>
      </trkpt>
      <trkpt lat="47.84783" lon="6.94623">
        <ele>1072</ele>
        <time>2026-05-09T06:46:15.423Z</time>
      </trkpt>
      <trkpt lat="47.84782" lon="6.94623">
        <ele>1073</ele>
        <time>2026-05-09T06:46:16.423Z</time>
      </trkpt>
      <trkpt lat="47.84782" lon="6.94623">
        <ele>1073</ele>
        <time>2026-05-09T06:46:17.422Z</time>
      </trkpt>
      <trkpt lat="47.84781" lon="6.94624">
        <ele>1073</ele>
        <time>2026-05-09T06:46:18.422Z</time>
      </trkpt>
      <trkpt lat="47.84781" lon="6.94624">
        <ele>1073</ele>
        <time>2026-05-09T06:46:19.422Z</time>
      </trkpt>
      <trkpt lat="47.8478" lon="6.94625">
        <ele>1073</ele>
        <time>2026-05-09T06:46:20.423Z</time>
      </trkpt>
      <trkpt lat="47.84779" lon="6.94626">
        <ele>1073</ele>
        <time>2026-05-09T06:46:21.422Z</time>
      </trkpt>
      <trkpt lat="47.84778" lon="6.94627">
        <ele>1073</ele>
        <time>2026-05-09T06:46:22.423Z</time>
      </trkpt>
      <trkpt lat="47.84777" lon="6.94628">
        <ele>1074</ele>
        <time>2026-05-09T06:46:23.423Z</time>
      </trkpt>
      <trkpt lat="47.84777" lon="6.94628">
        <ele>1074</ele>
        <time>2026-05-09T06:46:24.423Z</time>
      </trkpt>
      <trkpt lat="47.84776" lon="6.94629">
        <ele>1074</ele>
        <time>2026-05-09T06:46:25.423Z</time>
      </trkpt>
      <trkpt lat="47.84775" lon="6.9463">
        <ele>1074</ele>
        <time>2026-05-09T06:46:26.422Z</time>
      </trkpt>
      <trkpt lat="47.84775" lon="6.9463">
        <ele>1075</ele>
        <time>2026-05-09T06:46:27.423Z</time>
      </trkpt>
      <trkpt lat="47.84775" lon="6.94631">
        <ele>1075</ele>
        <time>2026-05-09T06:46:28.423Z</time>
      </trkpt>
      <trkpt lat="47.84774" lon="6.94632">
        <ele>1075</ele>
        <time>2026-05-09T06:46:29.422Z</time>
      </trkpt>
      <trkpt lat="47.84773" lon="6.94632">
        <ele>1076</ele>
        <time>2026-05-09T06:46:30.423Z</time>
      </trkpt>
      <trkpt lat="47.84772" lon="6.94632">
        <ele>1076</ele>
        <time>2026-05-09T06:46:31.423Z</time>
      </trkpt>
      <trkpt lat="47.84772" lon="6.94632">
        <ele>1077</ele>
        <time>2026-05-09T06:46:32.423Z</time>
      </trkpt>
      <trkpt lat="47.84772" lon="6.94631">
        <ele>1077</ele>
        <time>2026-05-09T06:46:33.423Z</time>
      </trkpt>
      <trkpt lat="47.84773" lon="6.9463">
        <ele>1077</ele>
        <time>2026-05-09T06:46:34.423Z</time>
      </trkpt>
      <trkpt lat="47.84773" lon="6.94629">
        <ele>1078</ele>
        <time>2026-05-09T06:46:35.423Z</time>
      </trkpt>
      <trkpt lat="47.84774" lon="6.94628">
        <ele>1078</ele>
        <time>2026-05-09T06:46:36.423Z</time>
      </trkpt>
      <trkpt lat="47.84774" lon="6.94627">
        <ele>1079</ele>
        <time>2026-05-09T06:46:37.423Z</time>
      </trkpt>
      <trkpt lat="47.84774" lon="6.94626">
        <ele>1079</ele>
        <time>2026-05-09T06:46:38.422Z</time>
      </trkpt>
      <trkpt lat="47.84774" lon="6.94625">
        <ele>1079</ele>
        <time>2026-05-09T06:46:39.422Z</time>
      </trkpt>
      <trkpt lat="47.84775" lon="6.94623">
        <ele>1079</ele>
        <time>2026-05-09T06:46:40.422Z</time>
      </trkpt>
      <trkpt lat="47.84774" lon="6.94621">
        <ele>1079</ele>
        <time>2026-05-09T06:46:41.422Z</time>
      </trkpt>
      <trkpt lat="47.84775" lon="6.94619">
        <ele>1080</ele>
        <time>2026-05-09T06:46:42.422Z</time>
      </trkpt>
      <trkpt lat="47.84776" lon="6.94616">
        <ele>1080</ele>
        <time>2026-05-09T06:46:43.422Z</time>
      </trkpt>
      <trkpt lat="47.84776" lon="6.94615">
        <ele>1080</ele>
        <time>2026-05-09T06:46:44.422Z</time>
      </trkpt>
      <trkpt lat="47.84777" lon="6.94613">
        <ele>1080</ele>
        <time>2026-05-09T06:46:45.423Z</time>
      </trkpt>
      <trkpt lat="47.84777" lon="6.94613">
        <ele>1080</ele>
        <time>2026-05-09T06:46:46.423Z</time>
      </trkpt>
      <trkpt lat="47.84776" lon="6.94612">
        <ele>1080</ele>
        <time>2026-05-09T06:46:47.423Z</time>
      </trkpt>
      <trkpt lat="47.84777" lon="6.94611">
        <ele>1080</ele>
        <time>2026-05-09T06:46:48.422Z</time>
      </trkpt>
      <trkpt lat="47.84777" lon="6.9461">
        <ele>1080</ele>
        <time>2026-05-09T06:46:49.422Z</time>
      </trkpt>
      <trkpt lat="47.84777" lon="6.94609">
        <ele>1080</ele>
        <time>2026-05-09T06:46:50.422Z</time>
      </trkpt>
      <trkpt lat="47.84777" lon="6.94608">
        <ele>1080</ele>
        <time>2026-05-09T06:46:51.422Z</time>
      </trkpt>
      <trkpt lat="47.84778" lon="6.94608">
        <ele>1080</ele>
        <time>2026-05-09T06:46:52.422Z</time>
      </trkpt>
      <trkpt lat="47.84778" lon="6.94608">
        <ele>1080</ele>
        <time>2026-05-09T06:46:53.422Z</time>
      </trkpt>
      <trkpt lat="47.84778" lon="6.94606">
        <ele>1080</ele>
        <time>2026-05-09T06:46:54.423Z</time>
      </trkpt>
      <trkpt lat="47.84779" lon="6.94604">
        <ele>1080</ele>
        <time>2026-05-09T06:46:55.423Z</time>
      </trkpt>
      <trkpt lat="47.84779" lon="6.94604">
        <ele>1080</ele>
        <time>2026-05-09T06:46:56.422Z</time>
      </trkpt>
      <trkpt lat="47.84779" lon="6.94603">
        <ele>1080</ele>
        <time>2026-05-09T06:46:57.423Z</time>
      </trkpt>
      <trkpt lat="47.84778" lon="6.94603">
        <ele>1080</ele>
        <time>2026-05-09T06:46:58.423Z</time>
      </trkpt>
      <trkpt lat="47.84778" lon="6.94602">
        <ele>1080</ele>
        <time>2026-05-09T06:46:59.422Z</time>
      </trkpt>
      <trkpt lat="47.84778" lon="6.94602">
        <ele>1081</ele>
        <time>2026-05-09T06:47:00.422Z</time>
      </trkpt>
      <trkpt lat="47.84778" lon="6.94602">
        <ele>1081</ele>
        <time>2026-05-09T06:47:01.422Z</time>
      </trkpt>
      <trkpt lat="47.84777" lon="6.94601">
        <ele>1082</ele>
        <time>2026-05-09T06:47:02.422Z</time>
      </trkpt>
      <trkpt lat="47.84776" lon="6.94601">
        <ele>1083</ele>
        <time>2026-05-09T06:47:03.422Z</time>
      </trkpt>
      <trkpt lat="47.84775" lon="6.94602">
        <ele>1083</ele>
        <time>2026-05-09T06:47:04.422Z</time>
      </trkpt>
      <trkpt lat="47.84775" lon="6.94602">
        <ele>1084</ele>
        <time>2026-05-09T06:47:05.423Z</time>
      </trkpt>
      <trkpt lat="47.84774" lon="6.94602">
        <ele>1085</ele>
        <time>2026-05-09T06:47:06.423Z</time>
      </trkpt>
      <trkpt lat="47.84773" lon="6.94602">
        <ele>1085</ele>
        <time>2026-05-09T06:47:07.423Z</time>
      </trkpt>
      <trkpt lat="47.84772" lon="6.94602">
        <ele>1085</ele>
        <time>2026-05-09T06:47:08.422Z</time>
      </trkpt>
      <trkpt lat="47.84771" lon="6.94601">
        <ele>1086</ele>
        <time>2026-05-09T06:47:09.423Z</time>
      </trkpt>
      <trkpt lat="47.84771" lon="6.94599">
        <ele>1086</ele>
        <time>2026-05-09T06:47:10.422Z</time>
      </trkpt>
      <trkpt lat="47.84772" lon="6.94598">
        <ele>1087</ele>
        <time>2026-05-09T06:47:11.422Z</time>
      </trkpt>
      <trkpt lat="47.84772" lon="6.94597">
        <ele>1087</ele>
        <time>2026-05-09T06:47:12.422Z</time>
      </trkpt>
      <trkpt lat="47.84772" lon="6.94596">
        <ele>1087</ele>
        <time>2026-05-09T06:47:13.422Z</time>
      </trkpt>
      <trkpt lat="47.84772" lon="6.94595">
        <ele>1087</ele>
        <time>2026-05-09T06:47:14.423Z</time>
      </trkpt>
      <trkpt lat="47.84773" lon="6.94594">
        <ele>1087</ele>
        <time>2026-05-09T06:47:15.422Z</time>
      </trkpt>
      <trkpt lat="47.84773" lon="6.94593">
        <ele>1087</ele>
        <time>2026-05-09T06:47:16.423Z</time>
      </trkpt>
      <trkpt lat="47.84774" lon="6.94592">
        <ele>1087</ele>
        <time>2026-05-09T06:47:17.423Z</time>
      </trkpt>
      <trkpt lat="47.84774" lon="6.94592">
        <ele>1087</ele>
        <time>2026-05-09T06:47:18.422Z</time>
      </trkpt>
      <trkpt lat="47.84775" lon="6.94591">
        <ele>1086</ele>
        <time>2026-05-09T06:47:19.423Z</time>
      </trkpt>
      <trkpt lat="47.84775" lon="6.9459">
        <ele>1086</ele>
        <time>2026-05-09T06:47:20.422Z</time>
      </trkpt>
      <trkpt lat="47.84776" lon="6.94589">
        <ele>1085</ele>
        <time>2026-05-09T06:47:21.423Z</time>
      </trkpt>
      <trkpt lat="47.84776" lon="6.94588">
        <ele>1085</ele>
        <time>2026-05-09T06:47:22.422Z</time>
      </trkpt>
      <trkpt lat="47.84777" lon="6.94588">
        <ele>1085</ele>
        <time>2026-05-09T06:47:23.422Z</time>
      </trkpt>
      <trkpt lat="47.84777" lon="6.94587">
        <ele>1084</ele>
        <time>2026-05-09T06:47:24.422Z</time>
      </trkpt>
      <trkpt lat="47.84777" lon="6.94587">
        <ele>1084</ele>
        <time>2026-05-09T06:47:25.423Z</time>
      </trkpt>
      <trkpt lat="47.84778" lon="6.94586">
        <ele>1084</ele>
        <time>2026-05-09T06:47:26.423Z</time>
      </trkpt>
      <trkpt lat="47.84779" lon="6.94585">
        <ele>1083</ele>
        <time>2026-05-09T06:47:27.423Z</time>
      </trkpt>
      <trkpt lat="47.84779" lon="6.94584">
        <ele>1083</ele>
        <time>2026-05-09T06:47:28.423Z</time>
      </trkpt>
      <trkpt lat="47.84779" lon="6.94584">
        <ele>1083</ele>
        <time>2026-05-09T06:47:29.423Z</time>
      </trkpt>
      <trkpt lat="47.8478" lon="6.94584">
        <ele>1083</ele>
        <time>2026-05-09T06:47:30.423Z</time>
      </trkpt>
      <trkpt lat="47.8478" lon="6.94583">
        <ele>1083</ele>
        <time>2026-05-09T06:47:31.423Z</time>
      </trkpt>
      <trkpt lat="47.84781" lon="6.94582">
        <ele>1083</ele>
        <time>2026-05-09T06:47:32.423Z</time>
      </trkpt>
      <trkpt lat="47.84781" lon="6.94581">
        <ele>1083</ele>
        <time>2026-05-09T06:47:33.422Z</time>
      </trkpt>
      <trkpt lat="47.84781" lon="6.94579">
        <ele>1083</ele>
        <time>2026-05-09T06:47:34.422Z</time>
      </trkpt>
      <trkpt lat="47.84781" lon="6.94577">
        <ele>1084</ele>
        <time>2026-05-09T06:47:35.423Z</time>
      </trkpt>
      <trkpt lat="47.84781" lon="6.94576">
        <ele>1084</ele>
        <time>2026-05-09T06:47:36.423Z</time>
      </trkpt>
      <trkpt lat="47.84782" lon="6.94575">
        <ele>1084</ele>
        <time>2026-05-09T06:47:37.423Z</time>
      </trkpt>
      <trkpt lat="47.84782" lon="6.94575">
        <ele>1085</ele>
        <time>2026-05-09T06:47:38.423Z</time>
      </trkpt>
      <trkpt lat="47.84782" lon="6.94573">
        <ele>1085</ele>
        <time>2026-05-09T06:47:39.423Z</time>
      </trkpt>
      <trkpt lat="47.84781" lon="6.94571">
        <ele>1086</ele>
        <time>2026-05-09T06:47:40.422Z</time>
      </trkpt>
      <trkpt lat="47.84781" lon="6.94569">
        <ele>1086</ele>
        <time>2026-05-09T06:47:41.422Z</time>
      </trkpt>
      <trkpt lat="47.84782" lon="6.94569">
        <ele>1086</ele>
        <time>2026-05-09T06:47:42.422Z</time>
      </trkpt>
      <trkpt lat="47.84782" lon="6.94568">
        <ele>1086</ele>
        <time>2026-05-09T06:47:43.423Z</time>
      </trkpt>
      <trkpt lat="47.84782" lon="6.94567">
        <ele>1086</ele>
        <time>2026-05-09T06:47:44.422Z</time>
      </trkpt>
      <trkpt lat="47.84782" lon="6.94566">
        <ele>1086</ele>
        <time>2026-05-09T06:47:45.422Z</time>
      </trkpt>
      <trkpt lat="47.84783" lon="6.94565">
        <ele>1086</ele>
        <time>2026-05-09T06:47:46.422Z</time>
      </trkpt>
      <trkpt lat="47.84783" lon="6.94563">
        <ele>1086</ele>
        <time>2026-05-09T06:47:47.423Z</time>
      </trkpt>
      <trkpt lat="47.84783" lon="6.94562">
        <ele>1086</ele>
        <time>2026-05-09T06:47:48.423Z</time>
      </trkpt>
      <trkpt lat="47.84784" lon="6.94561">
        <ele>1086</ele>
        <time>2026-05-09T06:47:49.423Z</time>
      </trkpt>
      <trkpt lat="47.84784" lon="6.9456">
        <ele>1085</ele>
        <time>2026-05-09T06:47:50.422Z</time>
      </trkpt>
      <trkpt lat="47.84784" lon="6.94559">
        <ele>1085</ele>
        <time>2026-05-09T06:47:51.423Z</time>
      </trkpt>
      <trkpt lat="47.84784" lon="6.94559">
        <ele>1085</ele>
        <time>2026-05-09T06:47:52.422Z</time>
      </trkpt>
      <trkpt lat="47.84785" lon="6.94557">
        <ele>1085</ele>
        <time>2026-05-09T06:47:53.423Z</time>
      </trkpt>
      <trkpt lat="47.84785" lon="6.94557">
        <ele>1085</ele>
        <time>2026-05-09T06:47:54.422Z</time>
      </trkpt>
      <trkpt lat="47.84785" lon="6.94556">
        <ele>1085</ele>
        <time>2026-05-09T06:47:55.423Z</time>
      </trkpt>
      <trkpt lat="47.84786" lon="6.94555">
        <ele>1085</ele>
        <time>2026-05-09T06:47:56.422Z</time>
      </trkpt>
      <trkpt lat="47.84786" lon="6.94553">
        <ele>1085</ele>
        <time>2026-05-09T06:47:57.423Z</time>
      </trkpt>
      <trkpt lat="47.84786" lon="6.94551">
        <ele>1085</ele>
        <time>2026-05-09T06:47:58.422Z</time>
      </trkpt>
      <trkpt lat="47.84787" lon="6.9455">
        <ele>1085</ele>
        <time>2026-05-09T06:47:59.422Z</time>
      </trkpt>
      <trkpt lat="47.84787" lon="6.94549">
        <ele>1086</ele>
        <time>2026-05-09T06:48:00.423Z</time>
      </trkpt>
      <trkpt lat="47.84787" lon="6.94549">
        <ele>1086</ele>
        <time>2026-05-09T06:48:01.422Z</time>
      </trkpt>
      <trkpt lat="47.84787" lon="6.94548">
        <ele>1086</ele>
        <time>2026-05-09T06:48:02.423Z</time>
      </trkpt>
      <trkpt lat="47.84786" lon="6.94547">
        <ele>1087</ele>
        <time>2026-05-09T06:48:03.422Z</time>
      </trkpt>
      <trkpt lat="47.84786" lon="6.94545">
        <ele>1087</ele>
        <time>2026-05-09T06:48:04.423Z</time>
      </trkpt>
      <trkpt lat="47.84786" lon="6.94544">
        <ele>1087</ele>
        <time>2026-05-09T06:48:05.422Z</time>
      </trkpt>
      <trkpt lat="47.84787" lon="6.94542">
        <ele>1087</ele>
        <time>2026-05-09T06:48:06.423Z</time>
      </trkpt>
      <trkpt lat="47.84788" lon="6.94541">
        <ele>1087</ele>
        <time>2026-05-09T06:48:07.422Z</time>
      </trkpt>
      <trkpt lat="47.84789" lon="6.94541">
        <ele>1088</ele>
        <time>2026-05-09T06:48:08.423Z</time>
      </trkpt>
      <trkpt lat="47.84789" lon="6.94541">
        <ele>1088</ele>
        <time>2026-05-09T06:48:09.422Z</time>
      </trkpt>
      <trkpt lat="47.8479" lon="6.9454">
        <ele>1088</ele>
        <time>2026-05-09T06:48:10.423Z</time>
      </trkpt>
      <trkpt lat="47.84791" lon="6.94539">
        <ele>1089</ele>
        <time>2026-05-09T06:48:11.422Z</time>
      </trkpt>
      <trkpt lat="47.84791" lon="6.94538">
        <ele>1089</ele>
        <time>2026-05-09T06:48:12.423Z</time>
      </trkpt>
      <trkpt lat="47.84792" lon="6.94537">
        <ele>1089</ele>
        <time>2026-05-09T06:48:13.422Z</time>
      </trkpt>
      <trkpt lat="47.84792" lon="6.94535">
        <ele>1090</ele>
        <time>2026-05-09T06:48:14.423Z</time>
      </trkpt>
      <trkpt lat="47.84793" lon="6.94534">
        <ele>1090</ele>
        <time>2026-05-09T06:48:15.423Z</time>
      </trkpt>
      <trkpt lat="47.84794" lon="6.94533">
        <ele>1090</ele>
        <time>2026-05-09T06:48:16.423Z</time>
      </trkpt>
      <trkpt lat="47.84795" lon="6.94532">
        <ele>1091</ele>
        <time>2026-05-09T06:48:17.423Z</time>
      </trkpt>
      <trkpt lat="47.84796" lon="6.94531">
        <ele>1091</ele>
        <time>2026-05-09T06:48:18.422Z</time>
      </trkpt>
      <trkpt lat="47.84796" lon="6.9453">
        <ele>1091</ele>
        <time>2026-05-09T06:48:19.423Z</time>
      </trkpt>
      <trkpt lat="47.84797" lon="6.94529">
        <ele>1091</ele>
        <time>2026-05-09T06:48:20.422Z</time>
      </trkpt>
      <trkpt lat="47.84798" lon="6.94528">
        <ele>1091</ele>
        <time>2026-05-09T06:48:21.423Z</time>
      </trkpt>
      <trkpt lat="47.84799" lon="6.94527">
        <ele>1091</ele>
        <time>2026-05-09T06:48:22.422Z</time>
      </trkpt>
      <trkpt lat="47.848" lon="6.94525">
        <ele>1091</ele>
        <time>2026-05-09T06:48:23.422Z</time>
      </trkpt>
      <trkpt lat="47.848" lon="6.94523">
        <ele>1091</ele>
        <time>2026-05-09T06:48:24.422Z</time>
      </trkpt>
      <trkpt lat="47.848" lon="6.94522">
        <ele>1091</ele>
        <time>2026-05-09T06:48:25.422Z</time>
      </trkpt>
      <trkpt lat="47.84799" lon="6.94519">
        <ele>1091</ele>
        <time>2026-05-09T06:48:26.422Z</time>
      </trkpt>
      <trkpt lat="47.84799" lon="6.94518">
        <ele>1091</ele>
        <time>2026-05-09T06:48:27.423Z</time>
      </trkpt>
      <trkpt lat="47.848" lon="6.94517">
        <ele>1091</ele>
        <time>2026-05-09T06:48:28.423Z</time>
      </trkpt>
      <trkpt lat="47.848" lon="6.94516">
        <ele>1092</ele>
        <time>2026-05-09T06:48:29.423Z</time>
      </trkpt>
      <trkpt lat="47.84801" lon="6.94515">
        <ele>1092</ele>
        <time>2026-05-09T06:48:30.422Z</time>
      </trkpt>
      <trkpt lat="47.84801" lon="6.94514">
        <ele>1093</ele>
        <time>2026-05-09T06:48:31.423Z</time>
      </trkpt>
      <trkpt lat="47.84802" lon="6.94513">
        <ele>1093</ele>
        <time>2026-05-09T06:48:32.423Z</time>
      </trkpt>
      <trkpt lat="47.84803" lon="6.94511">
        <ele>1093</ele>
        <time>2026-05-09T06:48:33.423Z</time>
      </trkpt>
      <trkpt lat="47.84804" lon="6.9451">
        <ele>1093</ele>
        <time>2026-05-09T06:48:34.422Z</time>
      </trkpt>
      <trkpt lat="47.84804" lon="6.94508">
        <ele>1094</ele>
        <time>2026-05-09T06:48:35.422Z</time>
      </trkpt>
      <trkpt lat="47.84806" lon="6.94507">
        <ele>1094</ele>
        <time>2026-05-09T06:48:36.423Z</time>
      </trkpt>
      <trkpt lat="47.84807" lon="6.94507">
        <ele>1094</ele>
        <time>2026-05-09T06:48:37.422Z</time>
      </trkpt>
      <trkpt lat="47.84808" lon="6.94506">
        <ele>1094</ele>
        <time>2026-05-09T06:48:38.422Z</time>
      </trkpt>
      <trkpt lat="47.84808" lon="6.94505">
        <ele>1095</ele>
        <time>2026-05-09T06:48:39.422Z</time>
      </trkpt>
      <trkpt lat="47.84809" lon="6.94504">
        <ele>1096</ele>
        <time>2026-05-09T06:48:40.423Z</time>
      </trkpt>
      <trkpt lat="47.84809" lon="6.94503">
        <ele>1096</ele>
        <time>2026-05-09T06:48:41.422Z</time>
      </trkpt>
      <trkpt lat="47.8481" lon="6.94502">
        <ele>1096</ele>
        <time>2026-05-09T06:48:42.423Z</time>
      </trkpt>
      <trkpt lat="47.8481" lon="6.94501">
        <ele>1097</ele>
        <time>2026-05-09T06:48:43.422Z</time>
      </trkpt>
      <trkpt lat="47.84811" lon="6.945">
        <ele>1096</ele>
        <time>2026-05-09T06:48:44.423Z</time>
      </trkpt>
      <trkpt lat="47.84811" lon="6.945">
        <ele>1096</ele>
        <time>2026-05-09T06:48:45.422Z</time>
      </trkpt>
      <trkpt lat="47.84812" lon="6.94499">
        <ele>1096</ele>
        <time>2026-05-09T06:48:46.423Z</time>
      </trkpt>
      <trkpt lat="47.84812" lon="6.94498">
        <ele>1096</ele>
        <time>2026-05-09T06:48:47.423Z</time>
      </trkpt>
      <trkpt lat="47.84813" lon="6.94498">
        <ele>1096</ele>
        <time>2026-05-09T06:48:48.422Z</time>
      </trkpt>
      <trkpt lat="47.84813" lon="6.94497">
        <ele>1096</ele>
        <time>2026-05-09T06:48:49.423Z</time>
      </trkpt>
      <trkpt lat="47.84814" lon="6.94496">
        <ele>1095</ele>
        <time>2026-05-09T06:48:50.422Z</time>
      </trkpt>
      <trkpt lat="47.84814" lon="6.94495">
        <ele>1095</ele>
        <time>2026-05-09T06:48:51.423Z</time>
      </trkpt>
      <trkpt lat="47.84815" lon="6.94493">
        <ele>1095</ele>
        <time>2026-05-09T06:48:52.423Z</time>
      </trkpt>
      <trkpt lat="47.84815" lon="6.94492">
        <ele>1095</ele>
        <time>2026-05-09T06:48:53.423Z</time>
      </trkpt>
      <trkpt lat="47.84815" lon="6.94491">
        <ele>1095</ele>
        <time>2026-05-09T06:48:54.422Z</time>
      </trkpt>
      <trkpt lat="47.84815" lon="6.94489">
        <ele>1095</ele>
        <time>2026-05-09T06:48:55.423Z</time>
      </trkpt>
      <trkpt lat="47.84815" lon="6.94488">
        <ele>1095</ele>
        <time>2026-05-09T06:48:56.422Z</time>
      </trkpt>
      <trkpt lat="47.84816" lon="6.94486">
        <ele>1095</ele>
        <time>2026-05-09T06:48:57.423Z</time>
      </trkpt>
      <trkpt lat="47.84816" lon="6.94485">
        <ele>1095</ele>
        <time>2026-05-09T06:48:58.422Z</time>
      </trkpt>
      <trkpt lat="47.84816" lon="6.94484">
        <ele>1095</ele>
        <time>2026-05-09T06:48:59.422Z</time>
      </trkpt>
      <trkpt lat="47.84817" lon="6.94484">
        <ele>1095</ele>
        <time>2026-05-09T06:49:00.422Z</time>
      </trkpt>
      <trkpt lat="47.84817" lon="6.94484">
        <ele>1095</ele>
        <time>2026-05-09T06:49:01.423Z</time>
      </trkpt>
      <trkpt lat="47.84817" lon="6.94483">
        <ele>1094</ele>
        <time>2026-05-09T06:49:02.422Z</time>
      </trkpt>
      <trkpt lat="47.84817" lon="6.94482">
        <ele>1094</ele>
        <time>2026-05-09T06:49:03.423Z</time>
      </trkpt>
      <trkpt lat="47.84818" lon="6.94481">
        <ele>1094</ele>
        <time>2026-05-09T06:49:04.422Z</time>
      </trkpt>
      <trkpt lat="47.84819" lon="6.9448">
        <ele>1094</ele>
        <time>2026-05-09T06:49:05.423Z</time>
      </trkpt>
      <trkpt lat="47.8482" lon="6.94479">
        <ele>1094</ele>
        <time>2026-05-09T06:49:06.422Z</time>
      </trkpt>
      <trkpt lat="47.8482" lon="6.94478">
        <ele>1094</ele>
        <time>2026-05-09T06:49:07.423Z</time>
      </trkpt>
      <trkpt lat="47.84821" lon="6.94478">
        <ele>1095</ele>
        <time>2026-05-09T06:49:08.422Z</time>
      </trkpt>
      <trkpt lat="47.84821" lon="6.94477">
        <ele>1095</ele>
        <time>2026-05-09T06:49:09.423Z</time>
      </trkpt>
      <trkpt lat="47.84822" lon="6.94476">
        <ele>1096</ele>
        <time>2026-05-09T06:49:10.422Z</time>
      </trkpt>
      <trkpt lat="47.84822" lon="6.94474">
        <ele>1096</ele>
        <time>2026-05-09T06:49:11.422Z</time>
      </trkpt>
      <trkpt lat="47.84822" lon="6.94473">
        <ele>1097</ele>
        <time>2026-05-09T06:49:12.422Z</time>
      </trkpt>
      <trkpt lat="47.84823" lon="6.94472">
        <ele>1098</ele>
        <time>2026-05-09T06:49:13.423Z</time>
      </trkpt>
      <trkpt lat="47.84823" lon="6.94471">
        <ele>1098</ele>
        <time>2026-05-09T06:49:14.422Z</time>
      </trkpt>
      <trkpt lat="47.84823" lon="6.94469">
        <ele>1099</ele>
        <time>2026-05-09T06:49:15.423Z</time>
      </trkpt>
      <trkpt lat="47.84823" lon="6.94469">
        <ele>1100</ele>
        <time>2026-05-09T06:49:16.423Z</time>
      </trkpt>
      <trkpt lat="47.84824" lon="6.94468">
        <ele>1101</ele>
        <time>2026-05-09T06:49:17.422Z</time>
      </trkpt>
      <trkpt lat="47.84824" lon="6.94467">
        <ele>1102</ele>
        <time>2026-05-09T06:49:18.423Z</time>
      </trkpt>
      <trkpt lat="47.84825" lon="6.94465">
        <ele>1102</ele>
        <time>2026-05-09T06:49:19.422Z</time>
      </trkpt>
      <trkpt lat="47.84826" lon="6.94464">
        <ele>1103</ele>
        <time>2026-05-09T06:49:20.423Z</time>
      </trkpt>
      <trkpt lat="47.84826" lon="6.94464">
        <ele>1104</ele>
        <time>2026-05-09T06:49:21.422Z</time>
      </trkpt>
      <trkpt lat="47.84827" lon="6.94462">
        <ele>1104</ele>
        <time>2026-05-09T06:49:22.423Z</time>
      </trkpt>
      <trkpt lat="47.84828" lon="6.94462">
        <ele>1105</ele>
        <time>2026-05-09T06:49:23.422Z</time>
      </trkpt>
      <trkpt lat="47.84829" lon="6.94461">
        <ele>1106</ele>
        <time>2026-05-09T06:49:24.423Z</time>
      </trkpt>
      <trkpt lat="47.8483" lon="6.9446">
        <ele>1106</ele>
        <time>2026-05-09T06:49:25.422Z</time>
      </trkpt>
      <trkpt lat="47.84831" lon="6.94458">
        <ele>1107</ele>
        <time>2026-05-09T06:49:26.423Z</time>
      </trkpt>
      <trkpt lat="47.84832" lon="6.94457">
        <ele>1107</ele>
        <time>2026-05-09T06:49:27.422Z</time>
      </trkpt>
      <trkpt lat="47.84833" lon="6.94456">
        <ele>1108</ele>
        <time>2026-05-09T06:49:28.423Z</time>
      </trkpt>
      <trkpt lat="47.84834" lon="6.94455">
        <ele>1108</ele>
        <time>2026-05-09T06:49:29.422Z</time>
      </trkpt>
      <trkpt lat="47.84835" lon="6.94454">
        <ele>1108</ele>
        <time>2026-05-09T06:49:30.423Z</time>
      </trkpt>
      <trkpt lat="47.84835" lon="6.94452">
        <ele>1109</ele>
        <time>2026-05-09T06:49:31.422Z</time>
      </trkpt>
      <trkpt lat="47.84836" lon="6.94451">
        <ele>1109</ele>
        <time>2026-05-09T06:49:32.422Z</time>
      </trkpt>
      <trkpt lat="47.84837" lon="6.9445">
        <ele>1109</ele>
        <time>2026-05-09T06:49:33.422Z</time>
      </trkpt>
      <trkpt lat="47.84838" lon="6.94449">
        <ele>1109</ele>
        <time>2026-05-09T06:49:34.422Z</time>
      </trkpt>
      <trkpt lat="47.84839" lon="6.94448">
        <ele>1110</ele>
        <time>2026-05-09T06:49:35.423Z</time>
      </trkpt>
      <trkpt lat="47.84841" lon="6.94448">
        <ele>1111</ele>
        <time>2026-05-09T06:49:36.423Z</time>
      </trkpt>
      <trkpt lat="47.84842" lon="6.94448">
        <ele>1111</ele>
        <time>2026-05-09T06:49:37.423Z</time>
      </trkpt>
      <trkpt lat="47.84844" lon="6.94448">
        <ele>1112</ele>
        <time>2026-05-09T06:49:38.422Z</time>
      </trkpt>
      <trkpt lat="47.84844" lon="6.94447">
        <ele>1112</ele>
        <time>2026-05-09T06:49:39.423Z</time>
      </trkpt>
      <trkpt lat="47.84845" lon="6.94447">
        <ele>1113</ele>
        <time>2026-05-09T06:49:40.422Z</time>
      </trkpt>
      <trkpt lat="47.84845" lon="6.94447">
        <ele>1112</ele>
        <time>2026-05-09T06:49:41.423Z</time>
      </trkpt>
      <trkpt lat="47.84846" lon="6.94447">
        <ele>1112</ele>
        <time>2026-05-09T06:49:42.422Z</time>
      </trkpt>
      <trkpt lat="47.84846" lon="6.94447">
        <ele>1112</ele>
        <time>2026-05-09T06:49:43.423Z</time>
      </trkpt>
      <trkpt lat="47.84847" lon="6.94448">
        <ele>1112</ele>
        <time>2026-05-09T06:49:44.422Z</time>
      </trkpt>
      <trkpt lat="47.84848" lon="6.94449">
        <ele>1112</ele>
        <time>2026-05-09T06:49:45.423Z</time>
      </trkpt>
      <trkpt lat="47.84848" lon="6.94449">
        <ele>1111</ele>
        <time>2026-05-09T06:49:46.422Z</time>
      </trkpt>
      <trkpt lat="47.84848" lon="6.94449">
        <ele>1111</ele>
        <time>2026-05-09T06:49:47.423Z</time>
      </trkpt>
      <trkpt lat="47.84851" lon="6.94444">
        <ele>1109</ele>
        <time>2026-05-09T06:49:53.763Z</time>
      </trkpt>
      <trkpt lat="47.84851" lon="6.94444">
        <ele>1109</ele>
        <time>2026-05-09T06:49:54.763Z</time>
      </trkpt>
      <trkpt lat="47.84852" lon="6.94443">
        <ele>1109</ele>
        <time>2026-05-09T06:49:55.764Z</time>
      </trkpt>
      <trkpt lat="47.84852" lon="6.94442">
        <ele>1109</ele>
        <time>2026-05-09T06:49:56.763Z</time>
      </trkpt>
      <trkpt lat="47.84852" lon="6.94441">
        <ele>1109</ele>
        <time>2026-05-09T06:49:57.763Z</time>
      </trkpt>
      <trkpt lat="47.84852" lon="6.9444">
        <ele>1109</ele>
        <time>2026-05-09T06:49:58.764Z</time>
      </trkpt>
      <trkpt lat="47.84853" lon="6.94439">
        <ele>1110</ele>
        <time>2026-05-09T06:49:59.764Z</time>
      </trkpt>
      <trkpt lat="47.84853" lon="6.94439">
        <ele>1110</ele>
        <time>2026-05-09T06:50:00.764Z</time>
      </trkpt>
      <trkpt lat="47.84854" lon="6.94438">
        <ele>1110</ele>
        <time>2026-05-09T06:50:01.763Z</time>
      </trkpt>
      <trkpt lat="47.84855" lon="6.94437">
        <ele>1111</ele>
        <time>2026-05-09T06:50:02.763Z</time>
      </trkpt>
      <trkpt lat="47.84855" lon="6.94437">
        <ele>1111</ele>
        <time>2026-05-09T06:50:03.764Z</time>
      </trkpt>
      <trkpt lat="47.84856" lon="6.94437">
        <ele>1111</ele>
        <time>2026-05-09T06:50:04.763Z</time>
      </trkpt>
      <trkpt lat="47.84856" lon="6.94435">
        <ele>1112</ele>
        <time>2026-05-09T06:50:05.763Z</time>
      </trkpt>
      <trkpt lat="47.84856" lon="6.94434">
        <ele>1112</ele>
        <time>2026-05-09T06:50:06.764Z</time>
      </trkpt>
      <trkpt lat="47.84856" lon="6.94432">
        <ele>1112</ele>
        <time>2026-05-09T06:50:07.763Z</time>
      </trkpt>
      <trkpt lat="47.84857" lon="6.9443">
        <ele>1112</ele>
        <time>2026-05-09T06:50:08.764Z</time>
      </trkpt>
      <trkpt lat="47.84858" lon="6.94428">
        <ele>1112</ele>
        <time>2026-05-09T06:50:09.764Z</time>
      </trkpt>
      <trkpt lat="47.84858" lon="6.94427">
        <ele>1112</ele>
        <time>2026-05-09T06:50:10.764Z</time>
      </trkpt>
      <trkpt lat="47.84858" lon="6.94425">
        <ele>1112</ele>
        <time>2026-05-09T06:50:11.764Z</time>
      </trkpt>
      <trkpt lat="47.84859" lon="6.94424">
        <ele>1112</ele>
        <time>2026-05-09T06:50:12.763Z</time>
      </trkpt>
      <trkpt lat="47.84859" lon="6.94422">
        <ele>1112</ele>
        <time>2026-05-09T06:50:13.764Z</time>
      </trkpt>
      <trkpt lat="47.8486" lon="6.9442">
        <ele>1112</ele>
        <time>2026-05-09T06:50:14.763Z</time>
      </trkpt>
      <trkpt lat="47.8486" lon="6.94417">
        <ele>1112</ele>
        <time>2026-05-09T06:50:15.763Z</time>
      </trkpt>
      <trkpt lat="47.84861" lon="6.94415">
        <ele>1113</ele>
        <time>2026-05-09T06:50:16.764Z</time>
      </trkpt>
      <trkpt lat="47.84862" lon="6.94413">
        <ele>1113</ele>
        <time>2026-05-09T06:50:17.764Z</time>
      </trkpt>
      <trkpt lat="47.84863" lon="6.94412">
        <ele>1113</ele>
        <time>2026-05-09T06:50:18.763Z</time>
      </trkpt>
      <trkpt lat="47.84864" lon="6.94411">
        <ele>1113</ele>
        <time>2026-05-09T06:50:19.763Z</time>
      </trkpt>
      <trkpt lat="47.84864" lon="6.94409">
        <ele>1114</ele>
        <time>2026-05-09T06:50:20.764Z</time>
      </trkpt>
      <trkpt lat="47.84865" lon="6.94408">
        <ele>1114</ele>
        <time>2026-05-09T06:50:21.763Z</time>
      </trkpt>
      <trkpt lat="47.84865" lon="6.94406">
        <ele>1114</ele>
        <time>2026-05-09T06:50:22.764Z</time>
      </trkpt>
      <trkpt lat="47.84866" lon="6.94405">
        <ele>1114</ele>
        <time>2026-05-09T06:50:23.764Z</time>
      </trkpt>
      <trkpt lat="47.84866" lon="6.94403">
        <ele>1114</ele>
        <time>2026-05-09T06:50:24.763Z</time>
      </trkpt>
      <trkpt lat="47.84867" lon="6.94402">
        <ele>1113</ele>
        <time>2026-05-09T06:50:25.763Z</time>
      </trkpt>
      <trkpt lat="47.84867" lon="6.944">
        <ele>1113</ele>
        <time>2026-05-09T06:50:26.764Z</time>
      </trkpt>
      <trkpt lat="47.84868" lon="6.94398">
        <ele>1113</ele>
        <time>2026-05-09T06:50:27.764Z</time>
      </trkpt>
      <trkpt lat="47.84868" lon="6.94397">
        <ele>1113</ele>
        <time>2026-05-09T06:50:28.764Z</time>
      </trkpt>
      <trkpt lat="47.84869" lon="6.94395">
        <ele>1113</ele>
        <time>2026-05-09T06:50:29.764Z</time>
      </trkpt>
      <trkpt lat="47.8487" lon="6.94394">
        <ele>1113</ele>
        <time>2026-05-09T06:50:30.764Z</time>
      </trkpt>
      <trkpt lat="47.84871" lon="6.94392">
        <ele>1113</ele>
        <time>2026-05-09T06:50:31.763Z</time>
      </trkpt>
      <trkpt lat="47.84872" lon="6.94389">
        <ele>1113</ele>
        <time>2026-05-09T06:50:32.764Z</time>
      </trkpt>
      <trkpt lat="47.84872" lon="6.94385">
        <ele>1113</ele>
        <time>2026-05-09T06:50:33.763Z</time>
      </trkpt>
      <trkpt lat="47.84871" lon="6.94383">
        <ele>1113</ele>
        <time>2026-05-09T06:50:34.763Z</time>
      </trkpt>
      <trkpt lat="47.84872" lon="6.94381">
        <ele>1113</ele>
        <time>2026-05-09T06:50:35.763Z</time>
      </trkpt>
      <trkpt lat="47.84872" lon="6.94379">
        <ele>1113</ele>
        <time>2026-05-09T06:50:36.764Z</time>
      </trkpt>
      <trkpt lat="47.84872" lon="6.94377">
        <ele>1113</ele>
        <time>2026-05-09T06:50:37.763Z</time>
      </trkpt>
      <trkpt lat="47.84872" lon="6.94376">
        <ele>1112</ele>
        <time>2026-05-09T06:50:38.764Z</time>
      </trkpt>
      <trkpt lat="47.84872" lon="6.94375">
        <ele>1112</ele>
        <time>2026-05-09T06:50:39.763Z</time>
      </trkpt>
      <trkpt lat="47.84873" lon="6.94374">
        <ele>1112</ele>
        <time>2026-05-09T06:50:40.764Z</time>
      </trkpt>
      <trkpt lat="47.84873" lon="6.94373">
        <ele>1112</ele>
        <time>2026-05-09T06:50:41.764Z</time>
      </trkpt>
      <trkpt lat="47.84874" lon="6.94372">
        <ele>1112</ele>
        <time>2026-05-09T06:50:42.764Z</time>
      </trkpt>
      <trkpt lat="47.84874" lon="6.94371">
        <ele>1112</ele>
        <time>2026-05-09T06:50:43.764Z</time>
      </trkpt>
      <trkpt lat="47.84874" lon="6.9437">
        <ele>1112</ele>
        <time>2026-05-09T06:50:44.763Z</time>
      </trkpt>
      <trkpt lat="47.84874" lon="6.94369">
        <ele>1112</ele>
        <time>2026-05-09T06:50:45.764Z</time>
      </trkpt>
      <trkpt lat="47.84875" lon="6.94366">
        <ele>1112</ele>
        <time>2026-05-09T06:50:46.763Z</time>
      </trkpt>
      <trkpt lat="47.84875" lon="6.94364">
        <ele>1113</ele>
        <time>2026-05-09T06:50:47.764Z</time>
      </trkpt>
      <trkpt lat="47.84875" lon="6.94362">
        <ele>1113</ele>
        <time>2026-05-09T06:50:48.764Z</time>
      </trkpt>
      <trkpt lat="47.84876" lon="6.9436">
        <ele>1113</ele>
        <time>2026-05-09T06:50:49.763Z</time>
      </trkpt>
      <trkpt lat="47.84876" lon="6.94359">
        <ele>1113</ele>
        <time>2026-05-09T06:50:50.764Z</time>
      </trkpt>
      <trkpt lat="47.84877" lon="6.94357">
        <ele>1113</ele>
        <time>2026-05-09T06:50:51.764Z</time>
      </trkpt>
      <trkpt lat="47.84877" lon="6.94356">
        <ele>1113</ele>
        <time>2026-05-09T06:50:52.763Z</time>
      </trkpt>
      <trkpt lat="47.84877" lon="6.94355">
        <ele>1113</ele>
        <time>2026-05-09T06:50:53.763Z</time>
      </trkpt>
      <trkpt lat="47.84878" lon="6.94354">
        <ele>1114</ele>
        <time>2026-05-09T06:50:54.763Z</time>
      </trkpt>
      <trkpt lat="47.84878" lon="6.94352">
        <ele>1114</ele>
        <time>2026-05-09T06:50:55.764Z</time>
      </trkpt>
      <trkpt lat="47.84878" lon="6.94351">
        <ele>1114</ele>
        <time>2026-05-09T06:50:56.763Z</time>
      </trkpt>
      <trkpt lat="47.84879" lon="6.9435">
        <ele>1114</ele>
        <time>2026-05-09T06:50:57.763Z</time>
      </trkpt>
      <trkpt lat="47.8488" lon="6.94348">
        <ele>1115</ele>
        <time>2026-05-09T06:50:58.764Z</time>
      </trkpt>
      <trkpt lat="47.8488" lon="6.94347">
        <ele>1115</ele>
        <time>2026-05-09T06:50:59.764Z</time>
      </trkpt>
      <trkpt lat="47.84881" lon="6.94346">
        <ele>1116</ele>
        <time>2026-05-09T06:51:00.763Z</time>
      </trkpt>
      <trkpt lat="47.84882" lon="6.94344">
        <ele>1116</ele>
        <time>2026-05-09T06:51:01.763Z</time>
      </trkpt>
      <trkpt lat="47.84883" lon="6.94343">
        <ele>1117</ele>
        <time>2026-05-09T06:51:02.764Z</time>
      </trkpt>
      <trkpt lat="47.84884" lon="6.94341">
        <ele>1117</ele>
        <time>2026-05-09T06:51:03.764Z</time>
      </trkpt>
      <trkpt lat="47.84885" lon="6.9434">
        <ele>1117</ele>
        <time>2026-05-09T06:51:04.764Z</time>
      </trkpt>
      <trkpt lat="47.84885" lon="6.94339">
        <ele>1118</ele>
        <time>2026-05-09T06:51:05.764Z</time>
      </trkpt>
      <trkpt lat="47.84886" lon="6.94338">
        <ele>1118</ele>
        <time>2026-05-09T06:51:06.763Z</time>
      </trkpt>
      <trkpt lat="47.84886" lon="6.94337">
        <ele>1118</ele>
        <time>2026-05-09T06:51:07.764Z</time>
      </trkpt>
      <trkpt lat="47.84887" lon="6.94336">
        <ele>1119</ele>
        <time>2026-05-09T06:51:08.763Z</time>
      </trkpt>
      <trkpt lat="47.84887" lon="6.94335">
        <ele>1119</ele>
        <time>2026-05-09T06:51:09.764Z</time>
      </trkpt>
      <trkpt lat="47.84888" lon="6.94335">
        <ele>1120</ele>
        <time>2026-05-09T06:51:10.764Z</time>
      </trkpt>
      <trkpt lat="47.84888" lon="6.94333">
        <ele>1121</ele>
        <time>2026-05-09T06:51:11.763Z</time>
      </trkpt>
      <trkpt lat="47.84889" lon="6.9433">
        <ele>1121</ele>
        <time>2026-05-09T06:51:12.764Z</time>
      </trkpt>
      <trkpt lat="47.8489" lon="6.94327">
        <ele>1121</ele>
        <time>2026-05-09T06:51:13.763Z</time>
      </trkpt>
      <trkpt lat="47.8489" lon="6.94325">
        <ele>1122</ele>
        <time>2026-05-09T06:51:14.763Z</time>
      </trkpt>
      <trkpt lat="47.84891" lon="6.94323">
        <ele>1122</ele>
        <time>2026-05-09T06:51:15.764Z</time>
      </trkpt>
      <trkpt lat="47.84891" lon="6.94322">
        <ele>1122</ele>
        <time>2026-05-09T06:51:16.764Z</time>
      </trkpt>
      <trkpt lat="47.84892" lon="6.94321">
        <ele>1123</ele>
        <time>2026-05-09T06:51:17.764Z</time>
      </trkpt>
      <trkpt lat="47.84893" lon="6.94319">
        <ele>1123</ele>
        <time>2026-05-09T06:51:18.763Z</time>
      </trkpt>
      <trkpt lat="47.84894" lon="6.94318">
        <ele>1123</ele>
        <time>2026-05-09T06:51:19.763Z</time>
      </trkpt>
      <trkpt lat="47.84895" lon="6.94317">
        <ele>1123</ele>
        <time>2026-05-09T06:51:20.763Z</time>
      </trkpt>
      <trkpt lat="47.84895" lon="6.94316">
        <ele>1123</ele>
        <time>2026-05-09T06:51:21.764Z</time>
      </trkpt>
      <trkpt lat="47.84896" lon="6.94316">
        <ele>1123</ele>
        <time>2026-05-09T06:51:22.763Z</time>
      </trkpt>
      <trkpt lat="47.84897" lon="6.94315">
        <ele>1123</ele>
        <time>2026-05-09T06:51:23.764Z</time>
      </trkpt>
      <trkpt lat="47.84898" lon="6.94314">
        <ele>1123</ele>
        <time>2026-05-09T06:51:24.763Z</time>
      </trkpt>
      <trkpt lat="47.84899" lon="6.94313">
        <ele>1123</ele>
        <time>2026-05-09T06:51:25.764Z</time>
      </trkpt>
      <trkpt lat="47.849" lon="6.94312">
        <ele>1123</ele>
        <time>2026-05-09T06:51:26.763Z</time>
      </trkpt>
      <trkpt lat="47.84902" lon="6.94311">
        <ele>1123</ele>
        <time>2026-05-09T06:51:27.764Z</time>
      </trkpt>
      <trkpt lat="47.84902" lon="6.94311">
        <ele>1123</ele>
        <time>2026-05-09T06:51:28.763Z</time>
      </trkpt>
      <trkpt lat="47.84903" lon="6.94311">
        <ele>1123</ele>
        <time>2026-05-09T06:51:29.763Z</time>
      </trkpt>
      <trkpt lat="47.84903" lon="6.94311">
        <ele>1123</ele>
        <time>2026-05-09T06:51:30.763Z</time>
      </trkpt>
      <trkpt lat="47.84904" lon="6.94311">
        <ele>1123</ele>
        <time>2026-05-09T06:51:31.763Z</time>
      </trkpt>
      <trkpt lat="47.84904" lon="6.94311">
        <ele>1122</ele>
        <time>2026-05-09T06:51:32.764Z</time>
      </trkpt>
      <trkpt lat="47.84905" lon="6.9431">
        <ele>1122</ele>
        <time>2026-05-09T06:51:33.764Z</time>
      </trkpt>
      <trkpt lat="47.84906" lon="6.94308">
        <ele>1121</ele>
        <time>2026-05-09T06:51:34.763Z</time>
      </trkpt>
      <trkpt lat="47.84907" lon="6.94306">
        <ele>1121</ele>
        <time>2026-05-09T06:51:35.763Z</time>
      </trkpt>
      <trkpt lat="47.84908" lon="6.94303">
        <ele>1120</ele>
        <time>2026-05-09T06:51:36.764Z</time>
      </trkpt>
      <trkpt lat="47.84908" lon="6.943">
        <ele>1120</ele>
        <time>2026-05-09T06:51:37.764Z</time>
      </trkpt>
      <trkpt lat="47.84909" lon="6.94299">
        <ele>1119</ele>
        <time>2026-05-09T06:51:38.763Z</time>
      </trkpt>
      <trkpt lat="47.84909" lon="6.94298">
        <ele>1119</ele>
        <time>2026-05-09T06:51:39.763Z</time>
      </trkpt>
      <trkpt lat="47.84908" lon="6.94296">
        <ele>1118</ele>
        <time>2026-05-09T06:51:40.763Z</time>
      </trkpt>
      <trkpt lat="47.84908" lon="6.94296">
        <ele>1118</ele>
        <time>2026-05-09T06:51:41.764Z</time>
      </trkpt>
      <trkpt lat="47.84908" lon="6.94295">
        <ele>1118</ele>
        <time>2026-05-09T06:51:42.763Z</time>
      </trkpt>
      <trkpt lat="47.84909" lon="6.94294">
        <ele>1118</ele>
        <time>2026-05-09T06:51:43.763Z</time>
      </trkpt>
      <trkpt lat="47.8491" lon="6.94291">
        <ele>1118</ele>
        <time>2026-05-09T06:51:44.763Z</time>
      </trkpt>
      <trkpt lat="47.8491" lon="6.94288">
        <ele>1118</ele>
        <time>2026-05-09T06:51:45.764Z</time>
      </trkpt>
      <trkpt lat="47.84911" lon="6.94287">
        <ele>1118</ele>
        <time>2026-05-09T06:51:46.764Z</time>
      </trkpt>
      <trkpt lat="47.84911" lon="6.94286">
        <ele>1118</ele>
        <time>2026-05-09T06:51:47.763Z</time>
      </trkpt>
      <trkpt lat="47.84913" lon="6.94284">
        <ele>1118</ele>
        <time>2026-05-09T06:51:48.763Z</time>
      </trkpt>
      <trkpt lat="47.84914" lon="6.94283">
        <ele>1118</ele>
        <time>2026-05-09T06:51:49.763Z</time>
      </trkpt>
      <trkpt lat="47.84915" lon="6.94282">
        <ele>1118</ele>
        <time>2026-05-09T06:51:50.764Z</time>
      </trkpt>
      <trkpt lat="47.84915" lon="6.94281">
        <ele>1118</ele>
        <time>2026-05-09T06:51:51.763Z</time>
      </trkpt>
      <trkpt lat="47.84915" lon="6.9428">
        <ele>1118</ele>
        <time>2026-05-09T06:51:52.764Z</time>
      </trkpt>
      <trkpt lat="47.84916" lon="6.9428">
        <ele>1118</ele>
        <time>2026-05-09T06:51:53.763Z</time>
      </trkpt>
      <trkpt lat="47.84916" lon="6.9428">
        <ele>1118</ele>
        <time>2026-05-09T06:51:54.763Z</time>
      </trkpt>
      <trkpt lat="47.84917" lon="6.94279">
        <ele>1118</ele>
        <time>2026-05-09T06:51:55.763Z</time>
      </trkpt>
      <trkpt lat="47.84918" lon="6.94278">
        <ele>1118</ele>
        <time>2026-05-09T06:51:56.764Z</time>
      </trkpt>
      <trkpt lat="47.84919" lon="6.94277">
        <ele>1119</ele>
        <time>2026-05-09T06:51:57.764Z</time>
      </trkpt>
      <trkpt lat="47.84919" lon="6.94276">
        <ele>1119</ele>
        <time>2026-05-09T06:51:58.764Z</time>
      </trkpt>
      <trkpt lat="47.8492" lon="6.94275">
        <ele>1119</ele>
        <time>2026-05-09T06:51:59.764Z</time>
      </trkpt>
      <trkpt lat="47.8492" lon="6.94275">
        <ele>1119</ele>
        <time>2026-05-09T06:52:00.764Z</time>
      </trkpt>
      <trkpt lat="47.8492" lon="6.94275">
        <ele>1119</ele>
        <time>2026-05-09T06:52:01.764Z</time>
      </trkpt>
      <trkpt lat="47.84921" lon="6.94274">
        <ele>1119</ele>
        <time>2026-05-09T06:52:02.764Z</time>
      </trkpt>
      <trkpt lat="47.84921" lon="6.94274">
        <ele>1119</ele>
        <time>2026-05-09T06:52:03.763Z</time>
      </trkpt>
      <trkpt lat="47.84921" lon="6.94273">
        <ele>1120</ele>
        <time>2026-05-09T06:52:04.763Z</time>
      </trkpt>
      <trkpt lat="47.84921" lon="6.94273">
        <ele>1120</ele>
        <time>2026-05-09T06:52:05.763Z</time>
      </trkpt>
      <trkpt lat="47.84922" lon="6.94273">
        <ele>1120</ele>
        <time>2026-05-09T06:52:06.764Z</time>
      </trkpt>
      <trkpt lat="47.84923" lon="6.94273">
        <ele>1120</ele>
        <time>2026-05-09T06:52:07.764Z</time>
      </trkpt>
      <trkpt lat="47.84923" lon="6.94273">
        <ele>1121</ele>
        <time>2026-05-09T06:52:08.763Z</time>
      </trkpt>
      <trkpt lat="47.84923" lon="6.94272">
        <ele>1121</ele>
        <time>2026-05-09T06:52:09.764Z</time>
      </trkpt>
      <trkpt lat="47.84924" lon="6.94272">
        <ele>1121</ele>
        <time>2026-05-09T06:52:10.764Z</time>
      </trkpt>
      <trkpt lat="47.84924" lon="6.94271">
        <ele>1121</ele>
        <time>2026-05-09T06:52:11.764Z</time>
      </trkpt>
      <trkpt lat="47.84925" lon="6.9427">
        <ele>1121</ele>
        <time>2026-05-09T06:52:12.763Z</time>
      </trkpt>
      <trkpt lat="47.84926" lon="6.94269">
        <ele>1121</ele>
        <time>2026-05-09T06:52:13.763Z</time>
      </trkpt>
      <trkpt lat="47.84927" lon="6.94269">
        <ele>1122</ele>
        <time>2026-05-09T06:52:14.764Z</time>
      </trkpt>
      <trkpt lat="47.84928" lon="6.94268">
        <ele>1122</ele>
        <time>2026-05-09T06:52:15.763Z</time>
      </trkpt>
      <trkpt lat="47.84928" lon="6.94267">
        <ele>1122</ele>
        <time>2026-05-09T06:52:16.763Z</time>
      </trkpt>
      <trkpt lat="47.84929" lon="6.94266">
        <ele>1122</ele>
        <time>2026-05-09T06:52:17.764Z</time>
      </trkpt>
      <trkpt lat="47.8493" lon="6.94266">
        <ele>1122</ele>
        <time>2026-05-09T06:52:18.763Z</time>
      </trkpt>
      <trkpt lat="47.84931" lon="6.94264">
        <ele>1122</ele>
        <time>2026-05-09T06:52:19.764Z</time>
      </trkpt>
      <trkpt lat="47.84931" lon="6.94262">
        <ele>1122</ele>
        <time>2026-05-09T06:52:20.763Z</time>
      </trkpt>
      <trkpt lat="47.84932" lon="6.94261">
        <ele>1122</ele>
        <time>2026-05-09T06:52:21.764Z</time>
      </trkpt>
      <trkpt lat="47.84932" lon="6.9426">
        <ele>1122</ele>
        <time>2026-05-09T06:52:22.764Z</time>
      </trkpt>
      <trkpt lat="47.84933" lon="6.94258">
        <ele>1122</ele>
        <time>2026-05-09T06:52:23.764Z</time>
      </trkpt>
      <trkpt lat="47.84934" lon="6.94257">
        <ele>1122</ele>
        <time>2026-05-09T06:52:24.764Z</time>
      </trkpt>
      <trkpt lat="47.84935" lon="6.94257">
        <ele>1123</ele>
        <time>2026-05-09T06:52:25.763Z</time>
      </trkpt>
      <trkpt lat="47.84935" lon="6.94256">
        <ele>1123</ele>
        <time>2026-05-09T06:52:26.764Z</time>
      </trkpt>
      <trkpt lat="47.84936" lon="6.94255">
        <ele>1123</ele>
        <time>2026-05-09T06:52:27.763Z</time>
      </trkpt>
      <trkpt lat="47.84937" lon="6.94254">
        <ele>1123</ele>
        <time>2026-05-09T06:52:28.764Z</time>
      </trkpt>
      <trkpt lat="47.84937" lon="6.94254">
        <ele>1123</ele>
        <time>2026-05-09T06:52:29.763Z</time>
      </trkpt>
      <trkpt lat="47.84938" lon="6.94253">
        <ele>1123</ele>
        <time>2026-05-09T06:52:30.764Z</time>
      </trkpt>
      <trkpt lat="47.84939" lon="6.94252">
        <ele>1124</ele>
        <time>2026-05-09T06:52:31.764Z</time>
      </trkpt>
      <trkpt lat="47.8494" lon="6.94251">
        <ele>1124</ele>
        <time>2026-05-09T06:52:32.764Z</time>
      </trkpt>
      <trkpt lat="47.84941" lon="6.9425">
        <ele>1125</ele>
        <time>2026-05-09T06:52:33.763Z</time>
      </trkpt>
      <trkpt lat="47.84942" lon="6.94249">
        <ele>1126</ele>
        <time>2026-05-09T06:52:34.764Z</time>
      </trkpt>
      <trkpt lat="47.84942" lon="6.94248">
        <ele>1126</ele>
        <time>2026-05-09T06:52:35.764Z</time>
      </trkpt>
      <trkpt lat="47.84943" lon="6.94247">
        <ele>1127</ele>
        <time>2026-05-09T06:52:36.764Z</time>
      </trkpt>
      <trkpt lat="47.84944" lon="6.94246">
        <ele>1127</ele>
        <time>2026-05-09T06:52:37.764Z</time>
      </trkpt>
      <trkpt lat="47.84945" lon="6.94245">
        <ele>1128</ele>
        <time>2026-05-09T06:52:38.763Z</time>
      </trkpt>
      <trkpt lat="47.84946" lon="6.94244">
        <ele>1128</ele>
        <time>2026-05-09T06:52:39.764Z</time>
      </trkpt>
      <trkpt lat="47.84947" lon="6.94244">
        <ele>1128</ele>
        <time>2026-05-09T06:52:40.763Z</time>
      </trkpt>
      <trkpt lat="47.84947" lon="6.94243">
        <ele>1129</ele>
        <time>2026-05-09T06:52:41.763Z</time>
      </trkpt>
      <trkpt lat="47.84948" lon="6.94242">
        <ele>1129</ele>
        <time>2026-05-09T06:52:42.763Z</time>
      </trkpt>
      <trkpt lat="47.84948" lon="6.94241">
        <ele>1129</ele>
        <time>2026-05-09T06:52:43.763Z</time>
      </trkpt>
      <trkpt lat="47.84949" lon="6.94241">
        <ele>1128</ele>
        <time>2026-05-09T06:52:44.763Z</time>
      </trkpt>
      <trkpt lat="47.84949" lon="6.94241">
        <ele>1128</ele>
        <time>2026-05-09T06:52:45.764Z</time>
      </trkpt>
      <trkpt lat="47.84949" lon="6.9424">
        <ele>1128</ele>
        <time>2026-05-09T06:52:46.764Z</time>
      </trkpt>
      <trkpt lat="47.84949" lon="6.9424">
        <ele>1128</ele>
        <time>2026-05-09T06:52:47.764Z</time>
      </trkpt>
      <trkpt lat="47.8495" lon="6.94239">
        <ele>1128</ele>
        <time>2026-05-09T06:52:48.764Z</time>
      </trkpt>
      <trkpt lat="47.84951" lon="6.94238">
        <ele>1129</ele>
        <time>2026-05-09T06:52:49.763Z</time>
      </trkpt>
      <trkpt lat="47.84952" lon="6.94237">
        <ele>1129</ele>
        <time>2026-05-09T06:52:50.764Z</time>
      </trkpt>
      <trkpt lat="47.84953" lon="6.94237">
        <ele>1129</ele>
        <time>2026-05-09T06:52:51.763Z</time>
      </trkpt>
      <trkpt lat="47.84955" lon="6.94237">
        <ele>1129</ele>
        <time>2026-05-09T06:52:52.764Z</time>
      </trkpt>
      <trkpt lat="47.84956" lon="6.94237">
        <ele>1129</ele>
        <time>2026-05-09T06:52:53.763Z</time>
      </trkpt>
      <trkpt lat="47.84957" lon="6.94236">
        <ele>1129</ele>
        <time>2026-05-09T06:52:54.763Z</time>
      </trkpt>
      <trkpt lat="47.84959" lon="6.94235">
        <ele>1130</ele>
        <time>2026-05-09T06:52:55.764Z</time>
      </trkpt>
      <trkpt lat="47.8496" lon="6.94234">
        <ele>1129</ele>
        <time>2026-05-09T06:52:56.763Z</time>
      </trkpt>
      <trkpt lat="47.8496" lon="6.94233">
        <ele>1129</ele>
        <time>2026-05-09T06:52:57.764Z</time>
      </trkpt>
      <trkpt lat="47.84961" lon="6.94233">
        <ele>1129</ele>
        <time>2026-05-09T06:52:58.763Z</time>
      </trkpt>
      <trkpt lat="47.84963" lon="6.94232">
        <ele>1128</ele>
        <time>2026-05-09T06:52:59.764Z</time>
      </trkpt>
      <trkpt lat="47.84964" lon="6.94231">
        <ele>1128</ele>
        <time>2026-05-09T06:53:00.763Z</time>
      </trkpt>
      <trkpt lat="47.84965" lon="6.9423">
        <ele>1127</ele>
        <time>2026-05-09T06:53:01.764Z</time>
      </trkpt>
      <trkpt lat="47.84966" lon="6.94228">
        <ele>1127</ele>
        <time>2026-05-09T06:53:02.763Z</time>
      </trkpt>
      <trkpt lat="47.84967" lon="6.94227">
        <ele>1126</ele>
        <time>2026-05-09T06:53:03.764Z</time>
      </trkpt>
      <trkpt lat="47.84967" lon="6.94226">
        <ele>1126</ele>
        <time>2026-05-09T06:53:04.763Z</time>
      </trkpt>
      <trkpt lat="47.84967" lon="6.94226">
        <ele>1126</ele>
        <time>2026-05-09T06:53:05.764Z</time>
      </trkpt>
      <trkpt lat="47.84967" lon="6.94226">
        <ele>1125</ele>
        <time>2026-05-09T06:53:06.763Z</time>
      </trkpt>
      <trkpt lat="47.84975" lon="6.94223">
        <ele>1126</ele>
        <time>2026-05-09T06:53:14.040Z</time>
      </trkpt>
      <trkpt lat="47.84976" lon="6.94223">
        <ele>1126</ele>
        <time>2026-05-09T06:53:15.040Z</time>
      </trkpt>
      <trkpt lat="47.84978" lon="6.94222">
        <ele>1126</ele>
        <time>2026-05-09T06:53:16.040Z</time>
      </trkpt>
      <trkpt lat="47.84978" lon="6.94222">
        <ele>1126</ele>
        <time>2026-05-09T06:53:17.040Z</time>
      </trkpt>
      <trkpt lat="47.84979" lon="6.94222">
        <ele>1126</ele>
        <time>2026-05-09T06:53:18.040Z</time>
      </trkpt>
      <trkpt lat="47.8498" lon="6.94221">
        <ele>1126</ele>
        <time>2026-05-09T06:53:19.041Z</time>
      </trkpt>
      <trkpt lat="47.84981" lon="6.94221">
        <ele>1126</ele>
        <time>2026-05-09T06:53:20.040Z</time>
      </trkpt>
      <trkpt lat="47.84982" lon="6.9422">
        <ele>1126</ele>
        <time>2026-05-09T06:53:21.040Z</time>
      </trkpt>
      <trkpt lat="47.84983" lon="6.94219">
        <ele>1126</ele>
        <time>2026-05-09T06:53:22.040Z</time>
      </trkpt>
      <trkpt lat="47.84985" lon="6.94219">
        <ele>1127</ele>
        <time>2026-05-09T06:53:23.041Z</time>
      </trkpt>
      <trkpt lat="47.84986" lon="6.94218">
        <ele>1127</ele>
        <time>2026-05-09T06:53:24.040Z</time>
      </trkpt>
      <trkpt lat="47.84987" lon="6.94217">
        <ele>1128</ele>
        <time>2026-05-09T06:53:25.040Z</time>
      </trkpt>
      <trkpt lat="47.84988" lon="6.94217">
        <ele>1128</ele>
        <time>2026-05-09T06:53:26.040Z</time>
      </trkpt>
      <trkpt lat="47.84989" lon="6.94217">
        <ele>1129</ele>
        <time>2026-05-09T06:53:27.040Z</time>
      </trkpt>
      <trkpt lat="47.8499" lon="6.94217">
        <ele>1129</ele>
        <time>2026-05-09T06:53:28.040Z</time>
      </trkpt>
      <trkpt lat="47.84991" lon="6.94217">
        <ele>1129</ele>
        <time>2026-05-09T06:53:29.040Z</time>
      </trkpt>
      <trkpt lat="47.84993" lon="6.94216">
        <ele>1129</ele>
        <time>2026-05-09T06:53:30.040Z</time>
      </trkpt>
      <trkpt lat="47.84993" lon="6.94216">
        <ele>1129</ele>
        <time>2026-05-09T06:53:31.040Z</time>
      </trkpt>
      <trkpt lat="47.84994" lon="6.94215">
        <ele>1129</ele>
        <time>2026-05-09T06:53:32.040Z</time>
      </trkpt>
      <trkpt lat="47.84995" lon="6.94215">
        <ele>1129</ele>
        <time>2026-05-09T06:53:33.040Z</time>
      </trkpt>
      <trkpt lat="47.84996" lon="6.94214">
        <ele>1129</ele>
        <time>2026-05-09T06:53:34.040Z</time>
      </trkpt>
      <trkpt lat="47.84998" lon="6.94212">
        <ele>1129</ele>
        <time>2026-05-09T06:53:35.040Z</time>
      </trkpt>
      <trkpt lat="47.84999" lon="6.94211">
        <ele>1129</ele>
        <time>2026-05-09T06:53:36.040Z</time>
      </trkpt>
      <trkpt lat="47.85" lon="6.94209">
        <ele>1129</ele>
        <time>2026-05-09T06:53:37.040Z</time>
      </trkpt>
      <trkpt lat="47.85001" lon="6.94208">
        <ele>1129</ele>
        <time>2026-05-09T06:53:38.041Z</time>
      </trkpt>
      <trkpt lat="47.85003" lon="6.94207">
        <ele>1128</ele>
        <time>2026-05-09T06:53:39.040Z</time>
      </trkpt>
      <trkpt lat="47.85004" lon="6.94207">
        <ele>1128</ele>
        <time>2026-05-09T06:53:40.041Z</time>
      </trkpt>
      <trkpt lat="47.85005" lon="6.94207">
        <ele>1128</ele>
        <time>2026-05-09T06:53:41.040Z</time>
      </trkpt>
      <trkpt lat="47.85005" lon="6.94206">
        <ele>1128</ele>
        <time>2026-05-09T06:53:42.040Z</time>
      </trkpt>
      <trkpt lat="47.85006" lon="6.94206">
        <ele>1128</ele>
        <time>2026-05-09T06:53:43.041Z</time>
      </trkpt>
      <trkpt lat="47.85006" lon="6.94205">
        <ele>1128</ele>
        <time>2026-05-09T06:53:44.040Z</time>
      </trkpt>
      <trkpt lat="47.85007" lon="6.94205">
        <ele>1128</ele>
        <time>2026-05-09T06:53:45.040Z</time>
      </trkpt>
      <trkpt lat="47.85007" lon="6.94205">
        <ele>1128</ele>
        <time>2026-05-09T06:53:46.041Z</time>
      </trkpt>
      <trkpt lat="47.85008" lon="6.94205">
        <ele>1128</ele>
        <time>2026-05-09T06:53:47.040Z</time>
      </trkpt>
      <trkpt lat="47.85009" lon="6.94204">
        <ele>1127</ele>
        <time>2026-05-09T06:53:48.040Z</time>
      </trkpt>
      <trkpt lat="47.85009" lon="6.94204">
        <ele>1127</ele>
        <time>2026-05-09T06:53:49.040Z</time>
      </trkpt>
      <trkpt lat="47.8501" lon="6.94203">
        <ele>1127</ele>
        <time>2026-05-09T06:53:50.041Z</time>
      </trkpt>
      <trkpt lat="47.85011" lon="6.94202">
        <ele>1127</ele>
        <time>2026-05-09T06:53:51.041Z</time>
      </trkpt>
      <trkpt lat="47.85011" lon="6.94202">
        <ele>1127</ele>
        <time>2026-05-09T06:53:52.040Z</time>
      </trkpt>
      <trkpt lat="47.85011" lon="6.94203">
        <ele>1127</ele>
        <time>2026-05-09T06:53:53.040Z</time>
      </trkpt>
      <trkpt lat="47.85011" lon="6.94202">
        <ele>1127</ele>
        <time>2026-05-09T06:53:54.040Z</time>
      </trkpt>
      <trkpt lat="47.85014" lon="6.94201">
        <ele>1128</ele>
        <time>2026-05-09T06:53:59.430Z</time>
      </trkpt>
      <trkpt lat="47.85015" lon="6.94201">
        <ele>1128</ele>
        <time>2026-05-09T06:54:00.430Z</time>
      </trkpt>
      <trkpt lat="47.85017" lon="6.94202">
        <ele>1129</ele>
        <time>2026-05-09T06:54:01.430Z</time>
      </trkpt>
      <trkpt lat="47.85018" lon="6.94202">
        <ele>1129</ele>
        <time>2026-05-09T06:54:02.430Z</time>
      </trkpt>
      <trkpt lat="47.8502" lon="6.94201">
        <ele>1130</ele>
        <time>2026-05-09T06:54:03.429Z</time>
      </trkpt>
      <trkpt lat="47.85021" lon="6.94201">
        <ele>1131</ele>
        <time>2026-05-09T06:54:04.429Z</time>
      </trkpt>
      <trkpt lat="47.85022" lon="6.94201">
        <ele>1131</ele>
        <time>2026-05-09T06:54:05.430Z</time>
      </trkpt>
      <trkpt lat="47.85023" lon="6.94201">
        <ele>1132</ele>
        <time>2026-05-09T06:54:06.430Z</time>
      </trkpt>
      <trkpt lat="47.85023" lon="6.942">
        <ele>1133</ele>
        <time>2026-05-09T06:54:07.430Z</time>
      </trkpt>
      <trkpt lat="47.85023" lon="6.942">
        <ele>1133</ele>
        <time>2026-05-09T06:54:08.429Z</time>
      </trkpt>
      <trkpt lat="47.85024" lon="6.942">
        <ele>1134</ele>
        <time>2026-05-09T06:54:09.430Z</time>
      </trkpt>
      <trkpt lat="47.85025" lon="6.94199">
        <ele>1134</ele>
        <time>2026-05-09T06:54:10.430Z</time>
      </trkpt>
      <trkpt lat="47.85026" lon="6.94199">
        <ele>1134</ele>
        <time>2026-05-09T06:54:11.429Z</time>
      </trkpt>
      <trkpt lat="47.85027" lon="6.94198">
        <ele>1135</ele>
        <time>2026-05-09T06:54:12.429Z</time>
      </trkpt>
      <trkpt lat="47.85028" lon="6.94197">
        <ele>1135</ele>
        <time>2026-05-09T06:54:13.429Z</time>
      </trkpt>
      <trkpt lat="47.85029" lon="6.94197">
        <ele>1135</ele>
        <time>2026-05-09T06:54:14.430Z</time>
      </trkpt>
      <trkpt lat="47.8503" lon="6.94196">
        <ele>1135</ele>
        <time>2026-05-09T06:54:15.430Z</time>
      </trkpt>
      <trkpt lat="47.8503" lon="6.94196">
        <ele>1135</ele>
        <time>2026-05-09T06:54:16.430Z</time>
      </trkpt>
      <trkpt lat="47.85031" lon="6.94196">
        <ele>1135</ele>
        <time>2026-05-09T06:54:17.430Z</time>
      </trkpt>
      <trkpt lat="47.85031" lon="6.94196">
        <ele>1135</ele>
        <time>2026-05-09T06:54:18.430Z</time>
      </trkpt>
      <trkpt lat="47.85032" lon="6.94195">
        <ele>1136</ele>
        <time>2026-05-09T06:54:19.429Z</time>
      </trkpt>
      <trkpt lat="47.85033" lon="6.94195">
        <ele>1136</ele>
        <time>2026-05-09T06:54:20.429Z</time>
      </trkpt>
      <trkpt lat="47.85033" lon="6.94195">
        <ele>1137</ele>
        <time>2026-05-09T06:54:21.430Z</time>
      </trkpt>
      <trkpt lat="47.85033" lon="6.94195">
        <ele>1138</ele>
        <time>2026-05-09T06:54:22.429Z</time>
      </trkpt>
      <trkpt lat="47.85034" lon="6.94194">
        <ele>1138</ele>
        <time>2026-05-09T06:54:23.430Z</time>
      </trkpt>
      <trkpt lat="47.85034" lon="6.94193">
        <ele>1139</ele>
        <time>2026-05-09T06:54:24.430Z</time>
      </trkpt>
      <trkpt lat="47.85035" lon="6.94192">
        <ele>1139</ele>
        <time>2026-05-09T06:54:25.429Z</time>
      </trkpt>
      <trkpt lat="47.85037" lon="6.94191">
        <ele>1140</ele>
        <time>2026-05-09T06:54:26.429Z</time>
      </trkpt>
      <trkpt lat="47.85038" lon="6.9419">
        <ele>1141</ele>
        <time>2026-05-09T06:54:27.429Z</time>
      </trkpt>
      <trkpt lat="47.85039" lon="6.9419">
        <ele>1141</ele>
        <time>2026-05-09T06:54:28.430Z</time>
      </trkpt>
      <trkpt lat="47.8504" lon="6.9419">
        <ele>1141</ele>
        <time>2026-05-09T06:54:29.429Z</time>
      </trkpt>
      <trkpt lat="47.8504" lon="6.9419">
        <ele>1142</ele>
        <time>2026-05-09T06:54:30.429Z</time>
      </trkpt>
      <trkpt lat="47.85041" lon="6.94189">
        <ele>1142</ele>
        <time>2026-05-09T06:54:31.429Z</time>
      </trkpt>
      <trkpt lat="47.85042" lon="6.94189">
        <ele>1142</ele>
        <time>2026-05-09T06:54:32.429Z</time>
      </trkpt>
      <trkpt lat="47.85043" lon="6.94188">
        <ele>1142</ele>
        <time>2026-05-09T06:54:33.430Z</time>
      </trkpt>
      <trkpt lat="47.85044" lon="6.94188">
        <ele>1142</ele>
        <time>2026-05-09T06:54:34.429Z</time>
      </trkpt>
      <trkpt lat="47.85045" lon="6.94188">
        <ele>1142</ele>
        <time>2026-05-09T06:54:35.429Z</time>
      </trkpt>
      <trkpt lat="47.85046" lon="6.94188">
        <ele>1143</ele>
        <time>2026-05-09T06:54:36.430Z</time>
      </trkpt>
      <trkpt lat="47.85046" lon="6.94189">
        <ele>1143</ele>
        <time>2026-05-09T06:54:37.430Z</time>
      </trkpt>
      <trkpt lat="47.85046" lon="6.94189">
        <ele>1143</ele>
        <time>2026-05-09T06:54:38.430Z</time>
      </trkpt>
      <trkpt lat="47.85046" lon="6.94189">
        <ele>1143</ele>
        <time>2026-05-09T06:54:39.429Z</time>
      </trkpt>
      <trkpt lat="47.85047" lon="6.94189">
        <ele>1143</ele>
        <time>2026-05-09T06:54:40.429Z</time>
      </trkpt>
      <trkpt lat="47.85047" lon="6.9419">
        <ele>1143</ele>
        <time>2026-05-09T06:54:41.429Z</time>
      </trkpt>
      <trkpt lat="47.85048" lon="6.94189">
        <ele>1143</ele>
        <time>2026-05-09T06:54:42.429Z</time>
      </trkpt>
      <trkpt lat="47.85048" lon="6.94189">
        <ele>1143</ele>
        <time>2026-05-09T06:54:43.430Z</time>
      </trkpt>
      <trkpt lat="47.85049" lon="6.94188">
        <ele>1142</ele>
        <time>2026-05-09T06:54:44.429Z</time>
      </trkpt>
      <trkpt lat="47.85051" lon="6.94187">
        <ele>1142</ele>
        <time>2026-05-09T06:54:45.430Z</time>
      </trkpt>
      <trkpt lat="47.85051" lon="6.94187">
        <ele>1142</ele>
        <time>2026-05-09T06:54:46.430Z</time>
      </trkpt>
      <trkpt lat="47.85052" lon="6.94188">
        <ele>1142</ele>
        <time>2026-05-09T06:54:47.429Z</time>
      </trkpt>
      <trkpt lat="47.85052" lon="6.94187">
        <ele>1142</ele>
        <time>2026-05-09T06:54:48.429Z</time>
      </trkpt>
      <trkpt lat="47.85052" lon="6.94187">
        <ele>1142</ele>
        <time>2026-05-09T06:54:49.430Z</time>
      </trkpt>
      <trkpt lat="47.85053" lon="6.94187">
        <ele>1143</ele>
        <time>2026-05-09T06:54:50.429Z</time>
      </trkpt>
      <trkpt lat="47.85053" lon="6.94187">
        <ele>1143</ele>
        <time>2026-05-09T06:54:51.430Z</time>
      </trkpt>
      <trkpt lat="47.85054" lon="6.94186">
        <ele>1143</ele>
        <time>2026-05-09T06:54:52.429Z</time>
      </trkpt>
      <trkpt lat="47.85054" lon="6.94185">
        <ele>1143</ele>
        <time>2026-05-09T06:54:53.430Z</time>
      </trkpt>
      <trkpt lat="47.85055" lon="6.94184">
        <ele>1143</ele>
        <time>2026-05-09T06:54:54.429Z</time>
      </trkpt>
      <trkpt lat="47.85056" lon="6.94184">
        <ele>1143</ele>
        <time>2026-05-09T06:54:55.430Z</time>
      </trkpt>
      <trkpt lat="47.85056" lon="6.94184">
        <ele>1143</ele>
        <time>2026-05-09T06:54:56.430Z</time>
      </trkpt>
      <trkpt lat="47.85057" lon="6.94184">
        <ele>1143</ele>
        <time>2026-05-09T06:54:57.429Z</time>
      </trkpt>
      <trkpt lat="47.85057" lon="6.94183">
        <ele>1143</ele>
        <time>2026-05-09T06:54:58.430Z</time>
      </trkpt>
      <trkpt lat="47.85058" lon="6.94183">
        <ele>1143</ele>
        <time>2026-05-09T06:54:59.429Z</time>
      </trkpt>
      <trkpt lat="47.85059" lon="6.94183">
        <ele>1143</ele>
        <time>2026-05-09T06:55:00.429Z</time>
      </trkpt>
      <trkpt lat="47.8506" lon="6.94182">
        <ele>1143</ele>
        <time>2026-05-09T06:55:01.430Z</time>
      </trkpt>
      <trkpt lat="47.8506" lon="6.94181">
        <ele>1143</ele>
        <time>2026-05-09T06:55:02.429Z</time>
      </trkpt>
      <trkpt lat="47.85061" lon="6.94181">
        <ele>1143</ele>
        <time>2026-05-09T06:55:03.430Z</time>
      </trkpt>
      <trkpt lat="47.85063" lon="6.9418">
        <ele>1144</ele>
        <time>2026-05-09T06:55:04.429Z</time>
      </trkpt>
      <trkpt lat="47.85064" lon="6.94179">
        <ele>1144</ele>
        <time>2026-05-09T06:55:05.430Z</time>
      </trkpt>
      <trkpt lat="47.85065" lon="6.94179">
        <ele>1144</ele>
        <time>2026-05-09T06:55:06.429Z</time>
      </trkpt>
      <trkpt lat="47.85066" lon="6.94179">
        <ele>1145</ele>
        <time>2026-05-09T06:55:07.429Z</time>
      </trkpt>
      <trkpt lat="47.85067" lon="6.94178">
        <ele>1145</ele>
        <time>2026-05-09T06:55:08.429Z</time>
      </trkpt>
      <trkpt lat="47.85067" lon="6.94178">
        <ele>1146</ele>
        <time>2026-05-09T06:55:09.429Z</time>
      </trkpt>
      <trkpt lat="47.85068" lon="6.94177">
        <ele>1146</ele>
        <time>2026-05-09T06:55:10.430Z</time>
      </trkpt>
      <trkpt lat="47.85069" lon="6.94177">
        <ele>1147</ele>
        <time>2026-05-09T06:55:11.430Z</time>
      </trkpt>
      <trkpt lat="47.85071" lon="6.94177">
        <ele>1147</ele>
        <time>2026-05-09T06:55:12.429Z</time>
      </trkpt>
      <trkpt lat="47.85072" lon="6.94176">
        <ele>1148</ele>
        <time>2026-05-09T06:55:13.430Z</time>
      </trkpt>
      <trkpt lat="47.85073" lon="6.94175">
        <ele>1148</ele>
        <time>2026-05-09T06:55:14.430Z</time>
      </trkpt>
      <trkpt lat="47.85074" lon="6.94174">
        <ele>1148</ele>
        <time>2026-05-09T06:55:15.430Z</time>
      </trkpt>
      <trkpt lat="47.85075" lon="6.94173">
        <ele>1148</ele>
        <time>2026-05-09T06:55:16.430Z</time>
      </trkpt>
      <trkpt lat="47.85076" lon="6.94172">
        <ele>1148</ele>
        <time>2026-05-09T06:55:17.430Z</time>
      </trkpt>
      <trkpt lat="47.85077" lon="6.94172">
        <ele>1148</ele>
        <time>2026-05-09T06:55:18.429Z</time>
      </trkpt>
      <trkpt lat="47.85078" lon="6.94171">
        <ele>1148</ele>
        <time>2026-05-09T06:55:19.429Z</time>
      </trkpt>
      <trkpt lat="47.85079" lon="6.94171">
        <ele>1149</ele>
        <time>2026-05-09T06:55:20.429Z</time>
      </trkpt>
      <trkpt lat="47.8508" lon="6.9417">
        <ele>1149</ele>
        <time>2026-05-09T06:55:21.430Z</time>
      </trkpt>
      <trkpt lat="47.85081" lon="6.94169">
        <ele>1149</ele>
        <time>2026-05-09T06:55:22.430Z</time>
      </trkpt>
      <trkpt lat="47.85082" lon="6.94168">
        <ele>1149</ele>
        <time>2026-05-09T06:55:23.430Z</time>
      </trkpt>
      <trkpt lat="47.85082" lon="6.94166">
        <ele>1149</ele>
        <time>2026-05-09T06:55:24.430Z</time>
      </trkpt>
      <trkpt lat="47.85082" lon="6.94164">
        <ele>1149</ele>
        <time>2026-05-09T06:55:25.429Z</time>
      </trkpt>
      <trkpt lat="47.85082" lon="6.94162">
        <ele>1149</ele>
        <time>2026-05-09T06:55:26.429Z</time>
      </trkpt>
      <trkpt lat="47.85082" lon="6.9416">
        <ele>1149</ele>
        <time>2026-05-09T06:55:27.430Z</time>
      </trkpt>
      <trkpt lat="47.85082" lon="6.94158">
        <ele>1149</ele>
        <time>2026-05-09T06:55:28.429Z</time>
      </trkpt>
      <trkpt lat="47.85083" lon="6.94158">
        <ele>1150</ele>
        <time>2026-05-09T06:55:29.429Z</time>
      </trkpt>
      <trkpt lat="47.85083" lon="6.94156">
        <ele>1150</ele>
        <time>2026-05-09T06:55:30.430Z</time>
      </trkpt>
      <trkpt lat="47.85084" lon="6.94155">
        <ele>1150</ele>
        <time>2026-05-09T06:55:31.429Z</time>
      </trkpt>
      <trkpt lat="47.85084" lon="6.94153">
        <ele>1151</ele>
        <time>2026-05-09T06:55:32.429Z</time>
      </trkpt>
      <trkpt lat="47.85085" lon="6.94152">
        <ele>1151</ele>
        <time>2026-05-09T06:55:33.429Z</time>
      </trkpt>
      <trkpt lat="47.85085" lon="6.94151">
        <ele>1151</ele>
        <time>2026-05-09T06:55:34.430Z</time>
      </trkpt>
      <trkpt lat="47.85086" lon="6.94149">
        <ele>1151</ele>
        <time>2026-05-09T06:55:35.429Z</time>
      </trkpt>
      <trkpt lat="47.85086" lon="6.94147">
        <ele>1151</ele>
        <time>2026-05-09T06:55:36.429Z</time>
      </trkpt>
      <trkpt lat="47.85086" lon="6.94146">
        <ele>1151</ele>
        <time>2026-05-09T06:55:37.429Z</time>
      </trkpt>
      <trkpt lat="47.85087" lon="6.94145">
        <ele>1151</ele>
        <time>2026-05-09T06:55:38.429Z</time>
      </trkpt>
      <trkpt lat="47.85087" lon="6.94145">
        <ele>1151</ele>
        <time>2026-05-09T06:55:39.430Z</time>
      </trkpt>
      <trkpt lat="47.85087" lon="6.94145">
        <ele>1150</ele>
        <time>2026-05-09T06:55:40.429Z</time>
      </trkpt>
      <trkpt lat="47.85088" lon="6.94145">
        <ele>1150</ele>
        <time>2026-05-09T06:55:41.429Z</time>
      </trkpt>
      <trkpt lat="47.85091" lon="6.94142">
        <ele>1150</ele>
        <time>2026-05-09T06:55:58.717Z</time>
      </trkpt>
      <trkpt lat="47.8509" lon="6.94142">
        <ele>1151</ele>
        <time>2026-05-09T06:55:59.717Z</time>
      </trkpt>
      <trkpt lat="47.8509" lon="6.94142">
        <ele>1151</ele>
        <time>2026-05-09T06:56:00.717Z</time>
      </trkpt>
      <trkpt lat="47.85091" lon="6.94141">
        <ele>1152</ele>
        <time>2026-05-09T06:56:01.718Z</time>
      </trkpt>
      <trkpt lat="47.85091" lon="6.9414">
        <ele>1152</ele>
        <time>2026-05-09T06:56:02.718Z</time>
      </trkpt>
      <trkpt lat="47.85092" lon="6.94139">
        <ele>1152</ele>
        <time>2026-05-09T06:56:03.718Z</time>
      </trkpt>
      <trkpt lat="47.85093" lon="6.94138">
        <ele>1153</ele>
        <time>2026-05-09T06:56:04.717Z</time>
      </trkpt>
      <trkpt lat="47.85094" lon="6.94137">
        <ele>1153</ele>
        <time>2026-05-09T06:56:05.718Z</time>
      </trkpt>
      <trkpt lat="47.85094" lon="6.94136">
        <ele>1153</ele>
        <time>2026-05-09T06:56:06.718Z</time>
      </trkpt>
      <trkpt lat="47.85095" lon="6.94135">
        <ele>1154</ele>
        <time>2026-05-09T06:56:07.718Z</time>
      </trkpt>
      <trkpt lat="47.85095" lon="6.94134">
        <ele>1154</ele>
        <time>2026-05-09T06:56:08.717Z</time>
      </trkpt>
      <trkpt lat="47.85095" lon="6.94133">
        <ele>1155</ele>
        <time>2026-05-09T06:56:09.717Z</time>
      </trkpt>
      <trkpt lat="47.85096" lon="6.94132">
        <ele>1156</ele>
        <time>2026-05-09T06:56:10.717Z</time>
      </trkpt>
      <trkpt lat="47.85096" lon="6.94131">
        <ele>1156</ele>
        <time>2026-05-09T06:56:11.717Z</time>
      </trkpt>
      <trkpt lat="47.85097" lon="6.9413">
        <ele>1157</ele>
        <time>2026-05-09T06:56:12.718Z</time>
      </trkpt>
      <trkpt lat="47.85097" lon="6.94129">
        <ele>1157</ele>
        <time>2026-05-09T06:56:13.718Z</time>
      </trkpt>
      <trkpt lat="47.85098" lon="6.94129">
        <ele>1158</ele>
        <time>2026-05-09T06:56:14.718Z</time>
      </trkpt>
      <trkpt lat="47.85098" lon="6.94127">
        <ele>1158</ele>
        <time>2026-05-09T06:56:15.718Z</time>
      </trkpt>
      <trkpt lat="47.85098" lon="6.94126">
        <ele>1158</ele>
        <time>2026-05-09T06:56:16.717Z</time>
      </trkpt>
      <trkpt lat="47.85098" lon="6.94124">
        <ele>1159</ele>
        <time>2026-05-09T06:56:17.718Z</time>
      </trkpt>
      <trkpt lat="47.85098" lon="6.94123">
        <ele>1159</ele>
        <time>2026-05-09T06:56:18.717Z</time>
      </trkpt>
      <trkpt lat="47.85098" lon="6.94123">
        <ele>1159</ele>
        <time>2026-05-09T06:56:19.717Z</time>
      </trkpt>
      <trkpt lat="47.85099" lon="6.94122">
        <ele>1159</ele>
        <time>2026-05-09T06:56:20.718Z</time>
      </trkpt>
      <trkpt lat="47.85099" lon="6.94121">
        <ele>1159</ele>
        <time>2026-05-09T06:56:21.717Z</time>
      </trkpt>
      <trkpt lat="47.851" lon="6.9412">
        <ele>1159</ele>
        <time>2026-05-09T06:56:22.718Z</time>
      </trkpt>
      <trkpt lat="47.851" lon="6.94119">
        <ele>1159</ele>
        <time>2026-05-09T06:56:23.717Z</time>
      </trkpt>
      <trkpt lat="47.85101" lon="6.94118">
        <ele>1159</ele>
        <time>2026-05-09T06:56:24.717Z</time>
      </trkpt>
      <trkpt lat="47.85101" lon="6.94118">
        <ele>1159</ele>
        <time>2026-05-09T06:56:25.718Z</time>
      </trkpt>
      <trkpt lat="47.85102" lon="6.94117">
        <ele>1159</ele>
        <time>2026-05-09T06:56:26.717Z</time>
      </trkpt>
      <trkpt lat="47.85102" lon="6.94116">
        <ele>1159</ele>
        <time>2026-05-09T06:56:27.718Z</time>
      </trkpt>
      <trkpt lat="47.85103" lon="6.94115">
        <ele>1159</ele>
        <time>2026-05-09T06:56:28.718Z</time>
      </trkpt>
      <trkpt lat="47.85103" lon="6.94114">
        <ele>1159</ele>
        <time>2026-05-09T06:56:29.718Z</time>
      </trkpt>
      <trkpt lat="47.85104" lon="6.94112">
        <ele>1159</ele>
        <time>2026-05-09T06:56:30.718Z</time>
      </trkpt>
      <trkpt lat="47.85105" lon="6.94111">
        <ele>1159</ele>
        <time>2026-05-09T06:56:31.718Z</time>
      </trkpt>
      <trkpt lat="47.85106" lon="6.9411">
        <ele>1160</ele>
        <time>2026-05-09T06:56:32.718Z</time>
      </trkpt>
      <trkpt lat="47.85107" lon="6.94109">
        <ele>1160</ele>
        <time>2026-05-09T06:56:33.718Z</time>
      </trkpt>
      <trkpt lat="47.85107" lon="6.94107">
        <ele>1160</ele>
        <time>2026-05-09T06:56:34.717Z</time>
      </trkpt>
      <trkpt lat="47.85108" lon="6.94106">
        <ele>1160</ele>
        <time>2026-05-09T06:56:35.717Z</time>
      </trkpt>
      <trkpt lat="47.85109" lon="6.94105">
        <ele>1160</ele>
        <time>2026-05-09T06:56:36.718Z</time>
      </trkpt>
      <trkpt lat="47.8511" lon="6.94104">
        <ele>1160</ele>
        <time>2026-05-09T06:56:37.717Z</time>
      </trkpt>
      <trkpt lat="47.8511" lon="6.94103">
        <ele>1160</ele>
        <time>2026-05-09T06:56:38.717Z</time>
      </trkpt>
      <trkpt lat="47.85111" lon="6.94103">
        <ele>1160</ele>
        <time>2026-05-09T06:56:39.717Z</time>
      </trkpt>
      <trkpt lat="47.85112" lon="6.94102">
        <ele>1160</ele>
        <time>2026-05-09T06:56:40.717Z</time>
      </trkpt>
      <trkpt lat="47.85113" lon="6.94102">
        <ele>1161</ele>
        <time>2026-05-09T06:56:41.717Z</time>
      </trkpt>
      <trkpt lat="47.85114" lon="6.941">
        <ele>1161</ele>
        <time>2026-05-09T06:56:42.718Z</time>
      </trkpt>
      <trkpt lat="47.85115" lon="6.94099">
        <ele>1161</ele>
        <time>2026-05-09T06:56:43.717Z</time>
      </trkpt>
      <trkpt lat="47.85115" lon="6.94098">
        <ele>1160</ele>
        <time>2026-05-09T06:56:44.718Z</time>
      </trkpt>
      <trkpt lat="47.85116" lon="6.94097">
        <ele>1160</ele>
        <time>2026-05-09T06:56:45.717Z</time>
      </trkpt>
      <trkpt lat="47.85117" lon="6.94096">
        <ele>1160</ele>
        <time>2026-05-09T06:56:46.718Z</time>
      </trkpt>
      <trkpt lat="47.85117" lon="6.94095">
        <ele>1160</ele>
        <time>2026-05-09T06:56:47.718Z</time>
      </trkpt>
      <trkpt lat="47.85117" lon="6.94094">
        <ele>1160</ele>
        <time>2026-05-09T06:56:48.718Z</time>
      </trkpt>
      <trkpt lat="47.85118" lon="6.94093">
        <ele>1160</ele>
        <time>2026-05-09T06:56:49.717Z</time>
      </trkpt>
      <trkpt lat="47.85118" lon="6.94092">
        <ele>1160</ele>
        <time>2026-05-09T06:56:50.718Z</time>
      </trkpt>
      <trkpt lat="47.85119" lon="6.94092">
        <ele>1160</ele>
        <time>2026-05-09T06:56:51.718Z</time>
      </trkpt>
      <trkpt lat="47.85119" lon="6.94091">
        <ele>1160</ele>
        <time>2026-05-09T06:56:52.718Z</time>
      </trkpt>
      <trkpt lat="47.85119" lon="6.94089">
        <ele>1160</ele>
        <time>2026-05-09T06:56:53.718Z</time>
      </trkpt>
      <trkpt lat="47.8512" lon="6.94088">
        <ele>1160</ele>
        <time>2026-05-09T06:56:54.718Z</time>
      </trkpt>
      <trkpt lat="47.85121" lon="6.94085">
        <ele>1160</ele>
        <time>2026-05-09T06:56:55.717Z</time>
      </trkpt>
      <trkpt lat="47.85121" lon="6.94084">
        <ele>1160</ele>
        <time>2026-05-09T06:56:56.718Z</time>
      </trkpt>
      <trkpt lat="47.85123" lon="6.94082">
        <ele>1160</ele>
        <time>2026-05-09T06:56:57.717Z</time>
      </trkpt>
      <trkpt lat="47.85124" lon="6.9408">
        <ele>1161</ele>
        <time>2026-05-09T06:56:58.717Z</time>
      </trkpt>
      <trkpt lat="47.85125" lon="6.94079">
        <ele>1161</ele>
        <time>2026-05-09T06:56:59.717Z</time>
      </trkpt>
      <trkpt lat="47.85126" lon="6.94078">
        <ele>1160</ele>
        <time>2026-05-09T06:57:00.718Z</time>
      </trkpt>
      <trkpt lat="47.85126" lon="6.94077">
        <ele>1160</ele>
        <time>2026-05-09T06:57:01.717Z</time>
      </trkpt>
      <trkpt lat="47.85127" lon="6.94077">
        <ele>1160</ele>
        <time>2026-05-09T06:57:02.718Z</time>
      </trkpt>
      <trkpt lat="47.85128" lon="6.94076">
        <ele>1160</ele>
        <time>2026-05-09T06:57:03.717Z</time>
      </trkpt>
      <trkpt lat="47.85128" lon="6.94075">
        <ele>1160</ele>
        <time>2026-05-09T06:57:04.717Z</time>
      </trkpt>
      <trkpt lat="47.85128" lon="6.94075">
        <ele>1160</ele>
        <time>2026-05-09T06:57:05.718Z</time>
      </trkpt>
      <trkpt lat="47.8513" lon="6.94074">
        <ele>1160</ele>
        <time>2026-05-09T06:57:06.717Z</time>
      </trkpt>
      <trkpt lat="47.85131" lon="6.94072">
        <ele>1161</ele>
        <time>2026-05-09T06:57:07.717Z</time>
      </trkpt>
      <trkpt lat="47.85132" lon="6.94072">
        <ele>1161</ele>
        <time>2026-05-09T06:57:08.718Z</time>
      </trkpt>
      <trkpt lat="47.85133" lon="6.94071">
        <ele>1161</ele>
        <time>2026-05-09T06:57:09.717Z</time>
      </trkpt>
      <trkpt lat="47.85134" lon="6.94069">
        <ele>1162</ele>
        <time>2026-05-09T06:57:10.717Z</time>
      </trkpt>
      <trkpt lat="47.85135" lon="6.94069">
        <ele>1162</ele>
        <time>2026-05-09T06:57:11.717Z</time>
      </trkpt>
      <trkpt lat="47.85137" lon="6.94067">
        <ele>1162</ele>
        <time>2026-05-09T06:57:12.718Z</time>
      </trkpt>
      <trkpt lat="47.85139" lon="6.94066">
        <ele>1162</ele>
        <time>2026-05-09T06:57:13.717Z</time>
      </trkpt>
      <trkpt lat="47.8514" lon="6.94065">
        <ele>1163</ele>
        <time>2026-05-09T06:57:14.717Z</time>
      </trkpt>
      <trkpt lat="47.85141" lon="6.94064">
        <ele>1163</ele>
        <time>2026-05-09T06:57:15.718Z</time>
      </trkpt>
      <trkpt lat="47.85141" lon="6.94062">
        <ele>1163</ele>
        <time>2026-05-09T06:57:16.718Z</time>
      </trkpt>
      <trkpt lat="47.85142" lon="6.94061">
        <ele>1164</ele>
        <time>2026-05-09T06:57:17.717Z</time>
      </trkpt>
      <trkpt lat="47.85142" lon="6.9406">
        <ele>1164</ele>
        <time>2026-05-09T06:57:18.717Z</time>
      </trkpt>
      <trkpt lat="47.85143" lon="6.94059">
        <ele>1165</ele>
        <time>2026-05-09T06:57:19.717Z</time>
      </trkpt>
      <trkpt lat="47.85143" lon="6.94058">
        <ele>1165</ele>
        <time>2026-05-09T06:57:20.717Z</time>
      </trkpt>
      <trkpt lat="47.85143" lon="6.94058">
        <ele>1166</ele>
        <time>2026-05-09T06:57:21.717Z</time>
      </trkpt>
      <trkpt lat="47.85143" lon="6.94058">
        <ele>1166</ele>
        <time>2026-05-09T06:57:22.718Z</time>
      </trkpt>
      <trkpt lat="47.85144" lon="6.94058">
        <ele>1167</ele>
        <time>2026-05-09T06:57:23.718Z</time>
      </trkpt>
      <trkpt lat="47.85144" lon="6.94058">
        <ele>1167</ele>
        <time>2026-05-09T06:57:24.718Z</time>
      </trkpt>
      <trkpt lat="47.85145" lon="6.94057">
        <ele>1167</ele>
        <time>2026-05-09T06:57:25.718Z</time>
      </trkpt>
      <trkpt lat="47.85145" lon="6.94056">
        <ele>1167</ele>
        <time>2026-05-09T06:57:26.717Z</time>
      </trkpt>
      <trkpt lat="47.85145" lon="6.94055">
        <ele>1168</ele>
        <time>2026-05-09T06:57:27.717Z</time>
      </trkpt>
      <trkpt lat="47.85146" lon="6.94055">
        <ele>1168</ele>
        <time>2026-05-09T06:57:28.717Z</time>
      </trkpt>
      <trkpt lat="47.85146" lon="6.94055">
        <ele>1168</ele>
        <time>2026-05-09T06:57:29.717Z</time>
      </trkpt>
      <trkpt lat="47.85147" lon="6.94055">
        <ele>1169</ele>
        <time>2026-05-09T06:57:30.718Z</time>
      </trkpt>
      <trkpt lat="47.85147" lon="6.94054">
        <ele>1169</ele>
        <time>2026-05-09T06:57:31.718Z</time>
      </trkpt>
      <trkpt lat="47.85148" lon="6.94053">
        <ele>1169</ele>
        <time>2026-05-09T06:57:32.717Z</time>
      </trkpt>
      <trkpt lat="47.85149" lon="6.94052">
        <ele>1169</ele>
        <time>2026-05-09T06:57:33.718Z</time>
      </trkpt>
      <trkpt lat="47.85149" lon="6.94052">
        <ele>1169</ele>
        <time>2026-05-09T06:57:34.717Z</time>
      </trkpt>
      <trkpt lat="47.8515" lon="6.94052">
        <ele>1169</ele>
        <time>2026-05-09T06:57:35.717Z</time>
      </trkpt>
      <trkpt lat="47.8515" lon="6.94052">
        <ele>1169</ele>
        <time>2026-05-09T06:57:36.717Z</time>
      </trkpt>
      <trkpt lat="47.85151" lon="6.94051">
        <ele>1169</ele>
        <time>2026-05-09T06:57:37.717Z</time>
      </trkpt>
      <trkpt lat="47.85152" lon="6.94051">
        <ele>1169</ele>
        <time>2026-05-09T06:57:38.718Z</time>
      </trkpt>
      <trkpt lat="47.85152" lon="6.94051">
        <ele>1170</ele>
        <time>2026-05-09T06:57:39.717Z</time>
      </trkpt>
      <trkpt lat="47.85152" lon="6.9405">
        <ele>1170</ele>
        <time>2026-05-09T06:57:40.717Z</time>
      </trkpt>
      <trkpt lat="47.85153" lon="6.9405">
        <ele>1170</ele>
        <time>2026-05-09T06:57:41.718Z</time>
      </trkpt>
      <trkpt lat="47.85153" lon="6.9405">
        <ele>1170</ele>
        <time>2026-05-09T06:57:42.717Z</time>
      </trkpt>
      <trkpt lat="47.85154" lon="6.94049">
        <ele>1171</ele>
        <time>2026-05-09T06:57:43.717Z</time>
      </trkpt>
      <trkpt lat="47.85155" lon="6.94049">
        <ele>1171</ele>
        <time>2026-05-09T06:57:44.717Z</time>
      </trkpt>
      <trkpt lat="47.85155" lon="6.94048">
        <ele>1172</ele>
        <time>2026-05-09T06:57:45.718Z</time>
      </trkpt>
      <trkpt lat="47.85156" lon="6.94046">
        <ele>1172</ele>
        <time>2026-05-09T06:57:46.717Z</time>
      </trkpt>
      <trkpt lat="47.85157" lon="6.94045">
        <ele>1172</ele>
        <time>2026-05-09T06:57:47.717Z</time>
      </trkpt>
      <trkpt lat="47.85157" lon="6.94043">
        <ele>1172</ele>
        <time>2026-05-09T06:57:48.717Z</time>
      </trkpt>
      <trkpt lat="47.85159" lon="6.94041">
        <ele>1172</ele>
        <time>2026-05-09T06:57:49.717Z</time>
      </trkpt>
      <trkpt lat="47.85159" lon="6.94039">
        <ele>1172</ele>
        <time>2026-05-09T06:57:50.717Z</time>
      </trkpt>
      <trkpt lat="47.8516" lon="6.94037">
        <ele>1172</ele>
        <time>2026-05-09T06:57:51.717Z</time>
      </trkpt>
      <trkpt lat="47.8516" lon="6.94035">
        <ele>1172</ele>
        <time>2026-05-09T06:57:52.718Z</time>
      </trkpt>
      <trkpt lat="47.8516" lon="6.94033">
        <ele>1172</ele>
        <time>2026-05-09T06:57:53.718Z</time>
      </trkpt>
      <trkpt lat="47.85161" lon="6.94032">
        <ele>1172</ele>
        <time>2026-05-09T06:57:54.718Z</time>
      </trkpt>
      <trkpt lat="47.85161" lon="6.9403">
        <ele>1171</ele>
        <time>2026-05-09T06:57:55.717Z</time>
      </trkpt>
      <trkpt lat="47.85162" lon="6.94029">
        <ele>1171</ele>
        <time>2026-05-09T06:57:56.718Z</time>
      </trkpt>
      <trkpt lat="47.85163" lon="6.94027">
        <ele>1171</ele>
        <time>2026-05-09T06:57:57.718Z</time>
      </trkpt>
      <trkpt lat="47.85163" lon="6.94025">
        <ele>1171</ele>
        <time>2026-05-09T06:57:58.717Z</time>
      </trkpt>
      <trkpt lat="47.85164" lon="6.94023">
        <ele>1171</ele>
        <time>2026-05-09T06:57:59.717Z</time>
      </trkpt>
      <trkpt lat="47.85164" lon="6.94021">
        <ele>1170</ele>
        <time>2026-05-09T06:58:00.718Z</time>
      </trkpt>
      <trkpt lat="47.85164" lon="6.9402">
        <ele>1170</ele>
        <time>2026-05-09T06:58:01.717Z</time>
      </trkpt>
      <trkpt lat="47.85164" lon="6.9402">
        <ele>1169</ele>
        <time>2026-05-09T06:58:02.718Z</time>
      </trkpt>
      <trkpt lat="47.85164" lon="6.94019">
        <ele>1169</ele>
        <time>2026-05-09T06:58:03.717Z</time>
      </trkpt>
      <trkpt lat="47.85165" lon="6.94017">
        <ele>1168</ele>
        <time>2026-05-09T06:58:04.717Z</time>
      </trkpt>
      <trkpt lat="47.85166" lon="6.94016">
        <ele>1168</ele>
        <time>2026-05-09T06:58:05.717Z</time>
      </trkpt>
      <trkpt lat="47.85167" lon="6.94015">
        <ele>1168</ele>
        <time>2026-05-09T06:58:06.718Z</time>
      </trkpt>
      <trkpt lat="47.85167" lon="6.94013">
        <ele>1167</ele>
        <time>2026-05-09T06:58:07.717Z</time>
      </trkpt>
      <trkpt lat="47.85167" lon="6.94012">
        <ele>1167</ele>
        <time>2026-05-09T06:58:08.718Z</time>
      </trkpt>
      <trkpt lat="47.85167" lon="6.9401">
        <ele>1167</ele>
        <time>2026-05-09T06:58:09.718Z</time>
      </trkpt>
      <trkpt lat="47.85167" lon="6.94009">
        <ele>1167</ele>
        <time>2026-05-09T06:58:10.718Z</time>
      </trkpt>
      <trkpt lat="47.85167" lon="6.94009">
        <ele>1167</ele>
        <time>2026-05-09T06:58:11.718Z</time>
      </trkpt>
      <trkpt lat="47.85168" lon="6.94008">
        <ele>1167</ele>
        <time>2026-05-09T06:58:12.718Z</time>
      </trkpt>
      <trkpt lat="47.85168" lon="6.94007">
        <ele>1167</ele>
        <time>2026-05-09T06:58:13.717Z</time>
      </trkpt>
      <trkpt lat="47.85168" lon="6.94007">
        <ele>1167</ele>
        <time>2026-05-09T06:58:14.718Z</time>
      </trkpt>
      <trkpt lat="47.85168" lon="6.94005">
        <ele>1167</ele>
        <time>2026-05-09T06:58:15.717Z</time>
      </trkpt>
      <trkpt lat="47.85168" lon="6.94004">
        <ele>1168</ele>
        <time>2026-05-09T06:58:16.718Z</time>
      </trkpt>
      <trkpt lat="47.85168" lon="6.94002">
        <ele>1168</ele>
        <time>2026-05-09T06:58:17.717Z</time>
      </trkpt>
      <trkpt lat="47.85168" lon="6.94001">
        <ele>1168</ele>
        <time>2026-05-09T06:58:18.717Z</time>
      </trkpt>
      <trkpt lat="47.85168" lon="6.94">
        <ele>1168</ele>
        <time>2026-05-09T06:58:19.718Z</time>
      </trkpt>
      <trkpt lat="47.85168" lon="6.93999">
        <ele>1169</ele>
        <time>2026-05-09T06:58:20.718Z</time>
      </trkpt>
      <trkpt lat="47.85168" lon="6.93998">
        <ele>1169</ele>
        <time>2026-05-09T06:58:21.717Z</time>
      </trkpt>
      <trkpt lat="47.85168" lon="6.93997">
        <ele>1169</ele>
        <time>2026-05-09T06:58:22.718Z</time>
      </trkpt>
      <trkpt lat="47.85168" lon="6.93996">
        <ele>1170</ele>
        <time>2026-05-09T06:58:23.717Z</time>
      </trkpt>
      <trkpt lat="47.85168" lon="6.93994">
        <ele>1170</ele>
        <time>2026-05-09T06:58:24.717Z</time>
      </trkpt>
      <trkpt lat="47.85167" lon="6.93993">
        <ele>1171</ele>
        <time>2026-05-09T06:58:25.717Z</time>
      </trkpt>
      <trkpt lat="47.85167" lon="6.93991">
        <ele>1171</ele>
        <time>2026-05-09T06:58:26.717Z</time>
      </trkpt>
      <trkpt lat="47.85167" lon="6.9399">
        <ele>1172</ele>
        <time>2026-05-09T06:58:27.717Z</time>
      </trkpt>
      <trkpt lat="47.85167" lon="6.9399">
        <ele>1172</ele>
        <time>2026-05-09T06:58:28.717Z</time>
      </trkpt>
      <trkpt lat="47.85167" lon="6.93989">
        <ele>1173</ele>
        <time>2026-05-09T06:58:29.717Z</time>
      </trkpt>
      <trkpt lat="47.85167" lon="6.93979">
        <ele>1175</ele>
        <time>2026-05-09T06:58:36.149Z</time>
      </trkpt>
      <trkpt lat="47.85167" lon="6.93976">
        <ele>1175</ele>
        <time>2026-05-09T06:58:37.149Z</time>
      </trkpt>
      <trkpt lat="47.85167" lon="6.93974">
        <ele>1175</ele>
        <time>2026-05-09T06:58:38.150Z</time>
      </trkpt>
      <trkpt lat="47.85167" lon="6.93972">
        <ele>1175</ele>
        <time>2026-05-09T06:58:39.149Z</time>
      </trkpt>
      <trkpt lat="47.85167" lon="6.93971">
        <ele>1175</ele>
        <time>2026-05-09T06:58:40.149Z</time>
      </trkpt>
      <trkpt lat="47.85167" lon="6.93969">
        <ele>1175</ele>
        <time>2026-05-09T06:58:41.149Z</time>
      </trkpt>
      <trkpt lat="47.85167" lon="6.93967">
        <ele>1175</ele>
        <time>2026-05-09T06:58:42.150Z</time>
      </trkpt>
      <trkpt lat="47.85167" lon="6.93965">
        <ele>1175</ele>
        <time>2026-05-09T06:58:43.149Z</time>
      </trkpt>
      <trkpt lat="47.85166" lon="6.93963">
        <ele>1176</ele>
        <time>2026-05-09T06:58:44.150Z</time>
      </trkpt>
      <trkpt lat="47.85166" lon="6.93961">
        <ele>1176</ele>
        <time>2026-05-09T06:58:45.150Z</time>
      </trkpt>
      <trkpt lat="47.85166" lon="6.9396">
        <ele>1176</ele>
        <time>2026-05-09T06:58:46.150Z</time>
      </trkpt>
      <trkpt lat="47.85166" lon="6.93958">
        <ele>1176</ele>
        <time>2026-05-09T06:58:47.149Z</time>
      </trkpt>
      <trkpt lat="47.85166" lon="6.93956">
        <ele>1176</ele>
        <time>2026-05-09T06:58:48.149Z</time>
      </trkpt>
      <trkpt lat="47.85165" lon="6.93953">
        <ele>1176</ele>
        <time>2026-05-09T06:58:49.150Z</time>
      </trkpt>
      <trkpt lat="47.85165" lon="6.93952">
        <ele>1176</ele>
        <time>2026-05-09T06:58:50.150Z</time>
      </trkpt>
      <trkpt lat="47.85165" lon="6.9395">
        <ele>1177</ele>
        <time>2026-05-09T06:58:51.149Z</time>
      </trkpt>
      <trkpt lat="47.85165" lon="6.93949">
        <ele>1176</ele>
        <time>2026-05-09T06:58:52.149Z</time>
      </trkpt>
      <trkpt lat="47.85164" lon="6.93947">
        <ele>1176</ele>
        <time>2026-05-09T06:58:53.149Z</time>
      </trkpt>
      <trkpt lat="47.85164" lon="6.93945">
        <ele>1177</ele>
        <time>2026-05-09T06:58:54.150Z</time>
      </trkpt>
      <trkpt lat="47.85164" lon="6.93943">
        <ele>1177</ele>
        <time>2026-05-09T06:58:55.150Z</time>
      </trkpt>
      <trkpt lat="47.85163" lon="6.93942">
        <ele>1177</ele>
        <time>2026-05-09T06:58:56.149Z</time>
      </trkpt>
      <trkpt lat="47.85163" lon="6.9394">
        <ele>1177</ele>
        <time>2026-05-09T06:58:57.149Z</time>
      </trkpt>
      <trkpt lat="47.85162" lon="6.93938">
        <ele>1177</ele>
        <time>2026-05-09T06:58:58.149Z</time>
      </trkpt>
      <trkpt lat="47.85162" lon="6.93936">
        <ele>1178</ele>
        <time>2026-05-09T06:58:59.149Z</time>
      </trkpt>
      <trkpt lat="47.85161" lon="6.93935">
        <ele>1178</ele>
        <time>2026-05-09T06:59:00.149Z</time>
      </trkpt>
      <trkpt lat="47.85161" lon="6.93933">
        <ele>1179</ele>
        <time>2026-05-09T06:59:01.150Z</time>
      </trkpt>
      <trkpt lat="47.8516" lon="6.93932">
        <ele>1179</ele>
        <time>2026-05-09T06:59:02.149Z</time>
      </trkpt>
      <trkpt lat="47.8516" lon="6.9393">
        <ele>1179</ele>
        <time>2026-05-09T06:59:03.149Z</time>
      </trkpt>
      <trkpt lat="47.85159" lon="6.93929">
        <ele>1180</ele>
        <time>2026-05-09T06:59:04.150Z</time>
      </trkpt>
      <trkpt lat="47.85159" lon="6.93927">
        <ele>1180</ele>
        <time>2026-05-09T06:59:05.149Z</time>
      </trkpt>
      <trkpt lat="47.85159" lon="6.93925">
        <ele>1180</ele>
        <time>2026-05-09T06:59:06.150Z</time>
      </trkpt>
      <trkpt lat="47.85158" lon="6.93924">
        <ele>1180</ele>
        <time>2026-05-09T06:59:07.149Z</time>
      </trkpt>
      <trkpt lat="47.85158" lon="6.93922">
        <ele>1179</ele>
        <time>2026-05-09T06:59:08.149Z</time>
      </trkpt>
      <trkpt lat="47.85158" lon="6.9392">
        <ele>1179</ele>
        <time>2026-05-09T06:59:09.149Z</time>
      </trkpt>
      <trkpt lat="47.85157" lon="6.93918">
        <ele>1179</ele>
        <time>2026-05-09T06:59:10.150Z</time>
      </trkpt>
      <trkpt lat="47.85157" lon="6.93917">
        <ele>1179</ele>
        <time>2026-05-09T06:59:11.149Z</time>
      </trkpt>
      <trkpt lat="47.85156" lon="6.93915">
        <ele>1179</ele>
        <time>2026-05-09T06:59:12.150Z</time>
      </trkpt>
      <trkpt lat="47.85155" lon="6.93914">
        <ele>1179</ele>
        <time>2026-05-09T06:59:13.149Z</time>
      </trkpt>
      <trkpt lat="47.85155" lon="6.93913">
        <ele>1179</ele>
        <time>2026-05-09T06:59:14.150Z</time>
      </trkpt>
      <trkpt lat="47.85154" lon="6.93912">
        <ele>1180</ele>
        <time>2026-05-09T06:59:15.149Z</time>
      </trkpt>
      <trkpt lat="47.85153" lon="6.9391">
        <ele>1180</ele>
        <time>2026-05-09T06:59:16.150Z</time>
      </trkpt>
      <trkpt lat="47.85153" lon="6.93909">
        <ele>1180</ele>
        <time>2026-05-09T06:59:17.149Z</time>
      </trkpt>
      <trkpt lat="47.85152" lon="6.93907">
        <ele>1180</ele>
        <time>2026-05-09T06:59:18.149Z</time>
      </trkpt>
      <trkpt lat="47.85152" lon="6.93905">
        <ele>1180</ele>
        <time>2026-05-09T06:59:19.149Z</time>
      </trkpt>
      <trkpt lat="47.85151" lon="6.93903">
        <ele>1181</ele>
        <time>2026-05-09T06:59:20.150Z</time>
      </trkpt>
      <trkpt lat="47.8515" lon="6.93902">
        <ele>1181</ele>
        <time>2026-05-09T06:59:21.149Z</time>
      </trkpt>
      <trkpt lat="47.8515" lon="6.939">
        <ele>1181</ele>
        <time>2026-05-09T06:59:22.149Z</time>
      </trkpt>
      <trkpt lat="47.85149" lon="6.939">
        <ele>1181</ele>
        <time>2026-05-09T06:59:23.150Z</time>
      </trkpt>
      <trkpt lat="47.85148" lon="6.93898">
        <ele>1181</ele>
        <time>2026-05-09T06:59:24.149Z</time>
      </trkpt>
      <trkpt lat="47.85148" lon="6.93897">
        <ele>1181</ele>
        <time>2026-05-09T06:59:25.150Z</time>
      </trkpt>
      <trkpt lat="47.85148" lon="6.93895">
        <ele>1181</ele>
        <time>2026-05-09T06:59:26.149Z</time>
      </trkpt>
      <trkpt lat="47.85147" lon="6.93894">
        <ele>1182</ele>
        <time>2026-05-09T06:59:27.149Z</time>
      </trkpt>
      <trkpt lat="47.85147" lon="6.93893">
        <ele>1181</ele>
        <time>2026-05-09T06:59:28.150Z</time>
      </trkpt>
      <trkpt lat="47.85146" lon="6.93891">
        <ele>1181</ele>
        <time>2026-05-09T06:59:29.149Z</time>
      </trkpt>
      <trkpt lat="47.85146" lon="6.9389">
        <ele>1181</ele>
        <time>2026-05-09T06:59:30.149Z</time>
      </trkpt>
      <trkpt lat="47.85146" lon="6.93888">
        <ele>1181</ele>
        <time>2026-05-09T06:59:31.150Z</time>
      </trkpt>
      <trkpt lat="47.85145" lon="6.93887">
        <ele>1181</ele>
        <time>2026-05-09T06:59:32.149Z</time>
      </trkpt>
      <trkpt lat="47.85145" lon="6.93885">
        <ele>1181</ele>
        <time>2026-05-09T06:59:33.150Z</time>
      </trkpt>
      <trkpt lat="47.85145" lon="6.93884">
        <ele>1181</ele>
        <time>2026-05-09T06:59:34.149Z</time>
      </trkpt>
      <trkpt lat="47.85144" lon="6.93882">
        <ele>1181</ele>
        <time>2026-05-09T06:59:35.150Z</time>
      </trkpt>
      <trkpt lat="47.85143" lon="6.93881">
        <ele>1181</ele>
        <time>2026-05-09T06:59:36.150Z</time>
      </trkpt>
      <trkpt lat="47.85143" lon="6.93879">
        <ele>1181</ele>
        <time>2026-05-09T06:59:37.149Z</time>
      </trkpt>
      <trkpt lat="47.85142" lon="6.93878">
        <ele>1182</ele>
        <time>2026-05-09T06:59:38.149Z</time>
      </trkpt>
      <trkpt lat="47.85142" lon="6.93876">
        <ele>1182</ele>
        <time>2026-05-09T06:59:39.149Z</time>
      </trkpt>
      <trkpt lat="47.85141" lon="6.93875">
        <ele>1182</ele>
        <time>2026-05-09T06:59:40.150Z</time>
      </trkpt>
      <trkpt lat="47.8514" lon="6.93873">
        <ele>1182</ele>
        <time>2026-05-09T06:59:41.150Z</time>
      </trkpt>
      <trkpt lat="47.8514" lon="6.93872">
        <ele>1182</ele>
        <time>2026-05-09T06:59:42.150Z</time>
      </trkpt>
      <trkpt lat="47.85139" lon="6.93871">
        <ele>1182</ele>
        <time>2026-05-09T06:59:43.149Z</time>
      </trkpt>
      <trkpt lat="47.85139" lon="6.93869">
        <ele>1182</ele>
        <time>2026-05-09T06:59:44.150Z</time>
      </trkpt>
      <trkpt lat="47.85138" lon="6.93868">
        <ele>1182</ele>
        <time>2026-05-09T06:59:45.149Z</time>
      </trkpt>
      <trkpt lat="47.85137" lon="6.93867">
        <ele>1182</ele>
        <time>2026-05-09T06:59:46.150Z</time>
      </trkpt>
      <trkpt lat="47.85137" lon="6.93866">
        <ele>1182</ele>
        <time>2026-05-09T06:59:47.149Z</time>
      </trkpt>
      <trkpt lat="47.85136" lon="6.93865">
        <ele>1182</ele>
        <time>2026-05-09T06:59:48.149Z</time>
      </trkpt>
      <trkpt lat="47.85136" lon="6.93863">
        <ele>1183</ele>
        <time>2026-05-09T06:59:49.150Z</time>
      </trkpt>
      <trkpt lat="47.85135" lon="6.93862">
        <ele>1183</ele>
        <time>2026-05-09T06:59:50.150Z</time>
      </trkpt>
      <trkpt lat="47.85134" lon="6.93861">
        <ele>1183</ele>
        <time>2026-05-09T06:59:51.149Z</time>
      </trkpt>
      <trkpt lat="47.85133" lon="6.9386">
        <ele>1183</ele>
        <time>2026-05-09T06:59:52.149Z</time>
      </trkpt>
      <trkpt lat="47.85132" lon="6.93859">
        <ele>1183</ele>
        <time>2026-05-09T06:59:53.150Z</time>
      </trkpt>
      <trkpt lat="47.85131" lon="6.93857">
        <ele>1183</ele>
        <time>2026-05-09T06:59:54.149Z</time>
      </trkpt>
      <trkpt lat="47.8513" lon="6.93856">
        <ele>1183</ele>
        <time>2026-05-09T06:59:55.149Z</time>
      </trkpt>
      <trkpt lat="47.85129" lon="6.93855">
        <ele>1184</ele>
        <time>2026-05-09T06:59:56.149Z</time>
      </trkpt>
      <trkpt lat="47.85128" lon="6.93853">
        <ele>1184</ele>
        <time>2026-05-09T06:59:57.149Z</time>
      </trkpt>
      <trkpt lat="47.85126" lon="6.93852">
        <ele>1184</ele>
        <time>2026-05-09T06:59:58.149Z</time>
      </trkpt>
      <trkpt lat="47.85125" lon="6.93851">
        <ele>1184</ele>
        <time>2026-05-09T06:59:59.149Z</time>
      </trkpt>
      <trkpt lat="47.85123" lon="6.9385">
        <ele>1184</ele>
        <time>2026-05-09T07:00:00.149Z</time>
      </trkpt>
      <trkpt lat="47.85122" lon="6.9385">
        <ele>1184</ele>
        <time>2026-05-09T07:00:01.149Z</time>
      </trkpt>
      <trkpt lat="47.85121" lon="6.93849">
        <ele>1184</ele>
        <time>2026-05-09T07:00:02.150Z</time>
      </trkpt>
      <trkpt lat="47.85121" lon="6.93848">
        <ele>1183</ele>
        <time>2026-05-09T07:00:03.150Z</time>
      </trkpt>
      <trkpt lat="47.8512" lon="6.93847">
        <ele>1183</ele>
        <time>2026-05-09T07:00:04.149Z</time>
      </trkpt>
      <trkpt lat="47.85119" lon="6.93847">
        <ele>1183</ele>
        <time>2026-05-09T07:00:05.149Z</time>
      </trkpt>
      <trkpt lat="47.85119" lon="6.93846">
        <ele>1183</ele>
        <time>2026-05-09T07:00:06.149Z</time>
      </trkpt>
      <trkpt lat="47.85118" lon="6.93845">
        <ele>1182</ele>
        <time>2026-05-09T07:00:07.149Z</time>
      </trkpt>
      <trkpt lat="47.85116" lon="6.93843">
        <ele>1182</ele>
        <time>2026-05-09T07:00:08.150Z</time>
      </trkpt>
      <trkpt lat="47.85116" lon="6.93842">
        <ele>1182</ele>
        <time>2026-05-09T07:00:09.150Z</time>
      </trkpt>
      <trkpt lat="47.85115" lon="6.93841">
        <ele>1182</ele>
        <time>2026-05-09T07:00:10.149Z</time>
      </trkpt>
      <trkpt lat="47.85114" lon="6.93841">
        <ele>1182</ele>
        <time>2026-05-09T07:00:11.149Z</time>
      </trkpt>
      <trkpt lat="47.85113" lon="6.9384">
        <ele>1182</ele>
        <time>2026-05-09T07:00:12.149Z</time>
      </trkpt>
      <trkpt lat="47.85112" lon="6.93839">
        <ele>1183</ele>
        <time>2026-05-09T07:00:13.149Z</time>
      </trkpt>
      <trkpt lat="47.8511" lon="6.93838">
        <ele>1183</ele>
        <time>2026-05-09T07:00:14.150Z</time>
      </trkpt>
      <trkpt lat="47.85109" lon="6.93837">
        <ele>1184</ele>
        <time>2026-05-09T07:00:15.149Z</time>
      </trkpt>
      <trkpt lat="47.85108" lon="6.93836">
        <ele>1184</ele>
        <time>2026-05-09T07:00:16.149Z</time>
      </trkpt>
      <trkpt lat="47.85107" lon="6.93836">
        <ele>1184</ele>
        <time>2026-05-09T07:00:17.149Z</time>
      </trkpt>
      <trkpt lat="47.85106" lon="6.93835">
        <ele>1184</ele>
        <time>2026-05-09T07:00:18.149Z</time>
      </trkpt>
      <trkpt lat="47.85105" lon="6.93835">
        <ele>1184</ele>
        <time>2026-05-09T07:00:19.149Z</time>
      </trkpt>
      <trkpt lat="47.85105" lon="6.93834">
        <ele>1184</ele>
        <time>2026-05-09T07:00:20.149Z</time>
      </trkpt>
      <trkpt lat="47.85104" lon="6.93833">
        <ele>1184</ele>
        <time>2026-05-09T07:00:21.150Z</time>
      </trkpt>
      <trkpt lat="47.85103" lon="6.93833">
        <ele>1184</ele>
        <time>2026-05-09T07:00:22.149Z</time>
      </trkpt>
      <trkpt lat="47.85103" lon="6.93831">
        <ele>1184</ele>
        <time>2026-05-09T07:00:23.149Z</time>
      </trkpt>
      <trkpt lat="47.85102" lon="6.93829">
        <ele>1184</ele>
        <time>2026-05-09T07:00:24.149Z</time>
      </trkpt>
      <trkpt lat="47.85102" lon="6.93828">
        <ele>1184</ele>
        <time>2026-05-09T07:00:25.149Z</time>
      </trkpt>
      <trkpt lat="47.85101" lon="6.93826">
        <ele>1185</ele>
        <time>2026-05-09T07:00:26.150Z</time>
      </trkpt>
      <trkpt lat="47.851" lon="6.93825">
        <ele>1185</ele>
        <time>2026-05-09T07:00:27.149Z</time>
      </trkpt>
      <trkpt lat="47.85099" lon="6.93825">
        <ele>1185</ele>
        <time>2026-05-09T07:00:28.150Z</time>
      </trkpt>
      <trkpt lat="47.85098" lon="6.93823">
        <ele>1185</ele>
        <time>2026-05-09T07:00:29.150Z</time>
      </trkpt>
      <trkpt lat="47.85097" lon="6.9382">
        <ele>1186</ele>
        <time>2026-05-09T07:00:30.149Z</time>
      </trkpt>
      <trkpt lat="47.85097" lon="6.93818">
        <ele>1186</ele>
        <time>2026-05-09T07:00:31.149Z</time>
      </trkpt>
      <trkpt lat="47.85096" lon="6.93817">
        <ele>1187</ele>
        <time>2026-05-09T07:00:32.149Z</time>
      </trkpt>
      <trkpt lat="47.85095" lon="6.93815">
        <ele>1187</ele>
        <time>2026-05-09T07:00:33.149Z</time>
      </trkpt>
      <trkpt lat="47.85095" lon="6.93814">
        <ele>1188</ele>
        <time>2026-05-09T07:00:34.149Z</time>
      </trkpt>
      <trkpt lat="47.85094" lon="6.93812">
        <ele>1188</ele>
        <time>2026-05-09T07:00:35.149Z</time>
      </trkpt>
      <trkpt lat="47.85093" lon="6.9381">
        <ele>1188</ele>
        <time>2026-05-09T07:00:36.149Z</time>
      </trkpt>
      <trkpt lat="47.85093" lon="6.93808">
        <ele>1189</ele>
        <time>2026-05-09T07:00:37.149Z</time>
      </trkpt>
      <trkpt lat="47.85092" lon="6.93806">
        <ele>1189</ele>
        <time>2026-05-09T07:00:38.149Z</time>
      </trkpt>
      <trkpt lat="47.85092" lon="6.93804">
        <ele>1189</ele>
        <time>2026-05-09T07:00:39.149Z</time>
      </trkpt>
      <trkpt lat="47.85091" lon="6.93802">
        <ele>1189</ele>
        <time>2026-05-09T07:00:40.150Z</time>
      </trkpt>
      <trkpt lat="47.8509" lon="6.93799">
        <ele>1189</ele>
        <time>2026-05-09T07:00:41.149Z</time>
      </trkpt>
      <trkpt lat="47.85089" lon="6.93796">
        <ele>1189</ele>
        <time>2026-05-09T07:00:42.149Z</time>
      </trkpt>
      <trkpt lat="47.85087" lon="6.93794">
        <ele>1189</ele>
        <time>2026-05-09T07:00:43.150Z</time>
      </trkpt>
      <trkpt lat="47.85087" lon="6.93791">
        <ele>1189</ele>
        <time>2026-05-09T07:00:44.149Z</time>
      </trkpt>
      <trkpt lat="47.85086" lon="6.93789">
        <ele>1189</ele>
        <time>2026-05-09T07:00:45.149Z</time>
      </trkpt>
      <trkpt lat="47.85087" lon="6.93787">
        <ele>1189</ele>
        <time>2026-05-09T07:00:46.149Z</time>
      </trkpt>
      <trkpt lat="47.85087" lon="6.93784">
        <ele>1188</ele>
        <time>2026-05-09T07:00:47.149Z</time>
      </trkpt>
      <trkpt lat="47.85087" lon="6.93781">
        <ele>1188</ele>
        <time>2026-05-09T07:00:48.150Z</time>
      </trkpt>
      <trkpt lat="47.85087" lon="6.9378">
        <ele>1188</ele>
        <time>2026-05-09T07:00:49.149Z</time>
      </trkpt>
      <trkpt lat="47.85087" lon="6.9378">
        <ele>1188</ele>
        <time>2026-05-09T07:00:50.149Z</time>
      </trkpt>
      <trkpt lat="47.85086" lon="6.93779">
        <ele>1188</ele>
        <time>2026-05-09T07:00:51.149Z</time>
      </trkpt>
      <trkpt lat="47.85084" lon="6.93778">
        <ele>1188</ele>
        <time>2026-05-09T07:00:52.150Z</time>
      </trkpt>
      <trkpt lat="47.85083" lon="6.93776">
        <ele>1188</ele>
        <time>2026-05-09T07:00:53.149Z</time>
      </trkpt>
      <trkpt lat="47.85082" lon="6.93775">
        <ele>1188</ele>
        <time>2026-05-09T07:00:54.150Z</time>
      </trkpt>
      <trkpt lat="47.85081" lon="6.93773">
        <ele>1188</ele>
        <time>2026-05-09T07:00:55.150Z</time>
      </trkpt>
      <trkpt lat="47.85081" lon="6.93771">
        <ele>1188</ele>
        <time>2026-05-09T07:00:56.149Z</time>
      </trkpt>
      <trkpt lat="47.8508" lon="6.9377">
        <ele>1188</ele>
        <time>2026-05-09T07:00:57.150Z</time>
      </trkpt>
      <trkpt lat="47.8508" lon="6.93769">
        <ele>1187</ele>
        <time>2026-05-09T07:00:58.149Z</time>
      </trkpt>
      <trkpt lat="47.8508" lon="6.93767">
        <ele>1187</ele>
        <time>2026-05-09T07:00:59.150Z</time>
      </trkpt>
      <trkpt lat="47.85079" lon="6.93766">
        <ele>1187</ele>
        <time>2026-05-09T07:01:00.149Z</time>
      </trkpt>
      <trkpt lat="47.85079" lon="6.93764">
        <ele>1187</ele>
        <time>2026-05-09T07:01:01.149Z</time>
      </trkpt>
      <trkpt lat="47.85078" lon="6.93763">
        <ele>1187</ele>
        <time>2026-05-09T07:01:02.149Z</time>
      </trkpt>
      <trkpt lat="47.85077" lon="6.93762">
        <ele>1186</ele>
        <time>2026-05-09T07:01:03.149Z</time>
      </trkpt>
      <trkpt lat="47.85076" lon="6.93761">
        <ele>1186</ele>
        <time>2026-05-09T07:01:04.150Z</time>
      </trkpt>
      <trkpt lat="47.85075" lon="6.9376">
        <ele>1186</ele>
        <time>2026-05-09T07:01:05.149Z</time>
      </trkpt>
      <trkpt lat="47.85075" lon="6.93758">
        <ele>1186</ele>
        <time>2026-05-09T07:01:06.150Z</time>
      </trkpt>
      <trkpt lat="47.85074" lon="6.93757">
        <ele>1186</ele>
        <time>2026-05-09T07:01:07.150Z</time>
      </trkpt>
      <trkpt lat="47.85074" lon="6.93755">
        <ele>1186</ele>
        <time>2026-05-09T07:01:08.149Z</time>
      </trkpt>
      <trkpt lat="47.85074" lon="6.93753">
        <ele>1186</ele>
        <time>2026-05-09T07:01:09.150Z</time>
      </trkpt>
      <trkpt lat="47.85073" lon="6.93752">
        <ele>1186</ele>
        <time>2026-05-09T07:01:10.150Z</time>
      </trkpt>
      <trkpt lat="47.85073" lon="6.9375">
        <ele>1186</ele>
        <time>2026-05-09T07:01:11.150Z</time>
      </trkpt>
      <trkpt lat="47.85072" lon="6.93748">
        <ele>1186</ele>
        <time>2026-05-09T07:01:12.149Z</time>
      </trkpt>
      <trkpt lat="47.85072" lon="6.93747">
        <ele>1186</ele>
        <time>2026-05-09T07:01:13.149Z</time>
      </trkpt>
      <trkpt lat="47.85071" lon="6.93745">
        <ele>1186</ele>
        <time>2026-05-09T07:01:14.149Z</time>
      </trkpt>
      <trkpt lat="47.85071" lon="6.93744">
        <ele>1186</ele>
        <time>2026-05-09T07:01:15.149Z</time>
      </trkpt>
      <trkpt lat="47.85071" lon="6.93742">
        <ele>1186</ele>
        <time>2026-05-09T07:01:16.149Z</time>
      </trkpt>
      <trkpt lat="47.8507" lon="6.93741">
        <ele>1186</ele>
        <time>2026-05-09T07:01:17.149Z</time>
      </trkpt>
      <trkpt lat="47.85069" lon="6.9374">
        <ele>1186</ele>
        <time>2026-05-09T07:01:18.150Z</time>
      </trkpt>
      <trkpt lat="47.85068" lon="6.93738">
        <ele>1186</ele>
        <time>2026-05-09T07:01:19.150Z</time>
      </trkpt>
      <trkpt lat="47.85067" lon="6.93737">
        <ele>1186</ele>
        <time>2026-05-09T07:01:20.149Z</time>
      </trkpt>
      <trkpt lat="47.85067" lon="6.93735">
        <ele>1185</ele>
        <time>2026-05-09T07:01:21.149Z</time>
      </trkpt>
      <trkpt lat="47.85066" lon="6.93734">
        <ele>1185</ele>
        <time>2026-05-09T07:01:22.149Z</time>
      </trkpt>
      <trkpt lat="47.85066" lon="6.93732">
        <ele>1186</ele>
        <time>2026-05-09T07:01:23.150Z</time>
      </trkpt>
      <trkpt lat="47.85065" lon="6.93731">
        <ele>1186</ele>
        <time>2026-05-09T07:01:24.149Z</time>
      </trkpt>
      <trkpt lat="47.85064" lon="6.93729">
        <ele>1185</ele>
        <time>2026-05-09T07:01:25.149Z</time>
      </trkpt>
      <trkpt lat="47.85064" lon="6.93728">
        <ele>1185</ele>
        <time>2026-05-09T07:01:26.150Z</time>
      </trkpt>
      <trkpt lat="47.85063" lon="6.93727">
        <ele>1185</ele>
        <time>2026-05-09T07:01:27.150Z</time>
      </trkpt>
      <trkpt lat="47.85062" lon="6.93726">
        <ele>1185</ele>
        <time>2026-05-09T07:01:28.149Z</time>
      </trkpt>
      <trkpt lat="47.85062" lon="6.93725">
        <ele>1185</ele>
        <time>2026-05-09T07:01:29.150Z</time>
      </trkpt>
      <trkpt lat="47.85061" lon="6.93721">
        <ele>1185</ele>
        <time>2026-05-09T07:01:30.149Z</time>
      </trkpt>
      <trkpt lat="47.8506" lon="6.93719">
        <ele>1185</ele>
        <time>2026-05-09T07:01:31.149Z</time>
      </trkpt>
      <trkpt lat="47.85059" lon="6.93717">
        <ele>1184</ele>
        <time>2026-05-09T07:01:32.149Z</time>
      </trkpt>
      <trkpt lat="47.85058" lon="6.93716">
        <ele>1184</ele>
        <time>2026-05-09T07:01:33.149Z</time>
      </trkpt>
      <trkpt lat="47.85058" lon="6.93714">
        <ele>1184</ele>
        <time>2026-05-09T07:01:34.149Z</time>
      </trkpt>
      <trkpt lat="47.85059" lon="6.93713">
        <ele>1184</ele>
        <time>2026-05-09T07:01:35.149Z</time>
      </trkpt>
      <trkpt lat="47.8506" lon="6.93713">
        <ele>1185</ele>
        <time>2026-05-09T07:01:36.149Z</time>
      </trkpt>
      <trkpt lat="47.8506" lon="6.93712">
        <ele>1185</ele>
        <time>2026-05-09T07:01:37.149Z</time>
      </trkpt>
      <trkpt lat="47.8506" lon="6.93712">
        <ele>1185</ele>
        <time>2026-05-09T07:01:38.149Z</time>
      </trkpt>
      <trkpt lat="47.85061" lon="6.9371">
        <ele>1190</ele>
        <time>2026-05-09T07:01:49.571Z</time>
      </trkpt>
      <trkpt lat="47.85058" lon="6.9371">
        <ele>1192</ele>
        <time>2026-05-09T07:01:56.939Z</time>
      </trkpt>
      <trkpt lat="47.85057" lon="6.93709">
        <ele>1192</ele>
        <time>2026-05-09T07:01:57.939Z</time>
      </trkpt>
      <trkpt lat="47.85056" lon="6.93707">
        <ele>1193</ele>
        <time>2026-05-09T07:01:58.939Z</time>
      </trkpt>
      <trkpt lat="47.85055" lon="6.93706">
        <ele>1193</ele>
        <time>2026-05-09T07:01:59.940Z</time>
      </trkpt>
      <trkpt lat="47.85055" lon="6.93705">
        <ele>1194</ele>
        <time>2026-05-09T07:02:00.940Z</time>
      </trkpt>
      <trkpt lat="47.85054" lon="6.93703">
        <ele>1194</ele>
        <time>2026-05-09T07:02:01.940Z</time>
      </trkpt>
      <trkpt lat="47.85054" lon="6.93702">
        <ele>1194</ele>
        <time>2026-05-09T07:02:02.940Z</time>
      </trkpt>
      <trkpt lat="47.85053" lon="6.93701">
        <ele>1194</ele>
        <time>2026-05-09T07:02:03.940Z</time>
      </trkpt>
      <trkpt lat="47.85053" lon="6.93699">
        <ele>1193</ele>
        <time>2026-05-09T07:02:04.940Z</time>
      </trkpt>
      <trkpt lat="47.85052" lon="6.93698">
        <ele>1193</ele>
        <time>2026-05-09T07:02:05.940Z</time>
      </trkpt>
      <trkpt lat="47.85052" lon="6.93696">
        <ele>1193</ele>
        <time>2026-05-09T07:02:06.939Z</time>
      </trkpt>
      <trkpt lat="47.85051" lon="6.93695">
        <ele>1192</ele>
        <time>2026-05-09T07:02:07.939Z</time>
      </trkpt>
      <trkpt lat="47.85049" lon="6.93694">
        <ele>1192</ele>
        <time>2026-05-09T07:02:08.940Z</time>
      </trkpt>
      <trkpt lat="47.85047" lon="6.93693">
        <ele>1192</ele>
        <time>2026-05-09T07:02:09.939Z</time>
      </trkpt>
      <trkpt lat="47.85046" lon="6.93693">
        <ele>1191</ele>
        <time>2026-05-09T07:02:10.939Z</time>
      </trkpt>
      <trkpt lat="47.85045" lon="6.93692">
        <ele>1191</ele>
        <time>2026-05-09T07:02:11.939Z</time>
      </trkpt>
      <trkpt lat="47.85043" lon="6.9369">
        <ele>1191</ele>
        <time>2026-05-09T07:02:12.939Z</time>
      </trkpt>
      <trkpt lat="47.85042" lon="6.93688">
        <ele>1191</ele>
        <time>2026-05-09T07:02:13.939Z</time>
      </trkpt>
      <trkpt lat="47.85041" lon="6.93687">
        <ele>1190</ele>
        <time>2026-05-09T07:02:14.940Z</time>
      </trkpt>
      <trkpt lat="47.85041" lon="6.93685">
        <ele>1190</ele>
        <time>2026-05-09T07:02:15.940Z</time>
      </trkpt>
      <trkpt lat="47.8504" lon="6.93684">
        <ele>1189</ele>
        <time>2026-05-09T07:02:16.940Z</time>
      </trkpt>
      <trkpt lat="47.85039" lon="6.93682">
        <ele>1189</ele>
        <time>2026-05-09T07:02:17.940Z</time>
      </trkpt>
      <trkpt lat="47.85038" lon="6.93681">
        <ele>1188</ele>
        <time>2026-05-09T07:02:18.940Z</time>
      </trkpt>
      <trkpt lat="47.85037" lon="6.9368">
        <ele>1187</ele>
        <time>2026-05-09T07:02:19.940Z</time>
      </trkpt>
      <trkpt lat="47.85036" lon="6.93678">
        <ele>1187</ele>
        <time>2026-05-09T07:02:20.940Z</time>
      </trkpt>
      <trkpt lat="47.85035" lon="6.93677">
        <ele>1186</ele>
        <time>2026-05-09T07:02:21.940Z</time>
      </trkpt>
      <trkpt lat="47.85034" lon="6.93677">
        <ele>1186</ele>
        <time>2026-05-09T07:02:22.939Z</time>
      </trkpt>
      <trkpt lat="47.85032" lon="6.93676">
        <ele>1186</ele>
        <time>2026-05-09T07:02:23.939Z</time>
      </trkpt>
      <trkpt lat="47.8503" lon="6.93675">
        <ele>1185</ele>
        <time>2026-05-09T07:02:24.940Z</time>
      </trkpt>
      <trkpt lat="47.85029" lon="6.93673">
        <ele>1185</ele>
        <time>2026-05-09T07:02:25.939Z</time>
      </trkpt>
      <trkpt lat="47.85028" lon="6.93672">
        <ele>1185</ele>
        <time>2026-05-09T07:02:26.939Z</time>
      </trkpt>
      <trkpt lat="47.85027" lon="6.9367">
        <ele>1184</ele>
        <time>2026-05-09T07:02:27.939Z</time>
      </trkpt>
      <trkpt lat="47.85025" lon="6.93669">
        <ele>1184</ele>
        <time>2026-05-09T07:02:28.939Z</time>
      </trkpt>
      <trkpt lat="47.85024" lon="6.93667">
        <ele>1184</ele>
        <time>2026-05-09T07:02:29.940Z</time>
      </trkpt>
      <trkpt lat="47.85024" lon="6.93666">
        <ele>1184</ele>
        <time>2026-05-09T07:02:30.940Z</time>
      </trkpt>
      <trkpt lat="47.85024" lon="6.93664">
        <ele>1184</ele>
        <time>2026-05-09T07:02:31.939Z</time>
      </trkpt>
      <trkpt lat="47.85023" lon="6.93662">
        <ele>1184</ele>
        <time>2026-05-09T07:02:32.939Z</time>
      </trkpt>
      <trkpt lat="47.85022" lon="6.93661">
        <ele>1184</ele>
        <time>2026-05-09T07:02:33.939Z</time>
      </trkpt>
      <trkpt lat="47.85021" lon="6.93659">
        <ele>1184</ele>
        <time>2026-05-09T07:02:34.939Z</time>
      </trkpt>
      <trkpt lat="47.85021" lon="6.93658">
        <ele>1185</ele>
        <time>2026-05-09T07:02:35.939Z</time>
      </trkpt>
      <trkpt lat="47.8502" lon="6.93656">
        <ele>1185</ele>
        <time>2026-05-09T07:02:36.939Z</time>
      </trkpt>
      <trkpt lat="47.85019" lon="6.93655">
        <ele>1185</ele>
        <time>2026-05-09T07:02:37.939Z</time>
      </trkpt>
      <trkpt lat="47.85018" lon="6.93653">
        <ele>1185</ele>
        <time>2026-05-09T07:02:38.940Z</time>
      </trkpt>
      <trkpt lat="47.85017" lon="6.93652">
        <ele>1186</ele>
        <time>2026-05-09T07:02:39.940Z</time>
      </trkpt>
      <trkpt lat="47.85017" lon="6.9365">
        <ele>1186</ele>
        <time>2026-05-09T07:02:40.940Z</time>
      </trkpt>
      <trkpt lat="47.85016" lon="6.93648">
        <ele>1186</ele>
        <time>2026-05-09T07:02:41.939Z</time>
      </trkpt>
      <trkpt lat="47.85015" lon="6.93646">
        <ele>1186</ele>
        <time>2026-05-09T07:02:42.940Z</time>
      </trkpt>
      <trkpt lat="47.85014" lon="6.93645">
        <ele>1186</ele>
        <time>2026-05-09T07:02:43.940Z</time>
      </trkpt>
      <trkpt lat="47.85014" lon="6.93643">
        <ele>1186</ele>
        <time>2026-05-09T07:02:44.940Z</time>
      </trkpt>
      <trkpt lat="47.85013" lon="6.93642">
        <ele>1186</ele>
        <time>2026-05-09T07:02:45.939Z</time>
      </trkpt>
      <trkpt lat="47.85013" lon="6.93641">
        <ele>1186</ele>
        <time>2026-05-09T07:02:46.940Z</time>
      </trkpt>
      <trkpt lat="47.85012" lon="6.93639">
        <ele>1186</ele>
        <time>2026-05-09T07:02:47.940Z</time>
      </trkpt>
      <trkpt lat="47.85012" lon="6.93638">
        <ele>1186</ele>
        <time>2026-05-09T07:02:48.940Z</time>
      </trkpt>
      <trkpt lat="47.85011" lon="6.93636">
        <ele>1186</ele>
        <time>2026-05-09T07:02:49.939Z</time>
      </trkpt>
      <trkpt lat="47.85011" lon="6.93635">
        <ele>1186</ele>
        <time>2026-05-09T07:02:50.939Z</time>
      </trkpt>
      <trkpt lat="47.85011" lon="6.93634">
        <ele>1186</ele>
        <time>2026-05-09T07:02:51.939Z</time>
      </trkpt>
      <trkpt lat="47.85011" lon="6.93634">
        <ele>1185</ele>
        <time>2026-05-09T07:02:52.939Z</time>
      </trkpt>
      <trkpt lat="47.8501" lon="6.93633">
        <ele>1185</ele>
        <time>2026-05-09T07:02:53.939Z</time>
      </trkpt>
      <trkpt lat="47.85009" lon="6.93632">
        <ele>1184</ele>
        <time>2026-05-09T07:02:54.940Z</time>
      </trkpt>
      <trkpt lat="47.85008" lon="6.9363">
        <ele>1184</ele>
        <time>2026-05-09T07:02:55.939Z</time>
      </trkpt>
      <trkpt lat="47.85008" lon="6.93629">
        <ele>1184</ele>
        <time>2026-05-09T07:02:56.939Z</time>
      </trkpt>
      <trkpt lat="47.85007" lon="6.93627">
        <ele>1184</ele>
        <time>2026-05-09T07:02:57.939Z</time>
      </trkpt>
      <trkpt lat="47.85007" lon="6.93626">
        <ele>1184</ele>
        <time>2026-05-09T07:02:58.939Z</time>
      </trkpt>
      <trkpt lat="47.85006" lon="6.93624">
        <ele>1184</ele>
        <time>2026-05-09T07:02:59.939Z</time>
      </trkpt>
      <trkpt lat="47.85005" lon="6.93622">
        <ele>1184</ele>
        <time>2026-05-09T07:03:00.939Z</time>
      </trkpt>
      <trkpt lat="47.85004" lon="6.9362">
        <ele>1184</ele>
        <time>2026-05-09T07:03:01.939Z</time>
      </trkpt>
      <trkpt lat="47.85003" lon="6.93619">
        <ele>1184</ele>
        <time>2026-05-09T07:03:02.939Z</time>
      </trkpt>
      <trkpt lat="47.85002" lon="6.93617">
        <ele>1183</ele>
        <time>2026-05-09T07:03:03.940Z</time>
      </trkpt>
      <trkpt lat="47.85001" lon="6.93615">
        <ele>1183</ele>
        <time>2026-05-09T07:03:04.939Z</time>
      </trkpt>
      <trkpt lat="47.84999" lon="6.93614">
        <ele>1183</ele>
        <time>2026-05-09T07:03:05.939Z</time>
      </trkpt>
      <trkpt lat="47.84998" lon="6.93613">
        <ele>1183</ele>
        <time>2026-05-09T07:03:06.939Z</time>
      </trkpt>
      <trkpt lat="47.84998" lon="6.93612">
        <ele>1183</ele>
        <time>2026-05-09T07:03:07.939Z</time>
      </trkpt>
      <trkpt lat="47.84997" lon="6.9361">
        <ele>1183</ele>
        <time>2026-05-09T07:03:08.939Z</time>
      </trkpt>
      <trkpt lat="47.84996" lon="6.93609">
        <ele>1183</ele>
        <time>2026-05-09T07:03:09.940Z</time>
      </trkpt>
      <trkpt lat="47.84996" lon="6.93608">
        <ele>1183</ele>
        <time>2026-05-09T07:03:10.939Z</time>
      </trkpt>
      <trkpt lat="47.84995" lon="6.93606">
        <ele>1183</ele>
        <time>2026-05-09T07:03:11.939Z</time>
      </trkpt>
      <trkpt lat="47.84994" lon="6.93605">
        <ele>1182</ele>
        <time>2026-05-09T07:03:12.940Z</time>
      </trkpt>
      <trkpt lat="47.84994" lon="6.93604">
        <ele>1182</ele>
        <time>2026-05-09T07:03:13.940Z</time>
      </trkpt>
      <trkpt lat="47.84993" lon="6.93602">
        <ele>1182</ele>
        <time>2026-05-09T07:03:14.940Z</time>
      </trkpt>
      <trkpt lat="47.84992" lon="6.93601">
        <ele>1182</ele>
        <time>2026-05-09T07:03:15.940Z</time>
      </trkpt>
      <trkpt lat="47.84991" lon="6.93599">
        <ele>1182</ele>
        <time>2026-05-09T07:03:16.939Z</time>
      </trkpt>
      <trkpt lat="47.8499" lon="6.93598">
        <ele>1182</ele>
        <time>2026-05-09T07:03:17.940Z</time>
      </trkpt>
      <trkpt lat="47.8499" lon="6.93597">
        <ele>1182</ele>
        <time>2026-05-09T07:03:18.939Z</time>
      </trkpt>
      <trkpt lat="47.84989" lon="6.93596">
        <ele>1181</ele>
        <time>2026-05-09T07:03:19.940Z</time>
      </trkpt>
      <trkpt lat="47.84988" lon="6.93594">
        <ele>1181</ele>
        <time>2026-05-09T07:03:20.940Z</time>
      </trkpt>
      <trkpt lat="47.84987" lon="6.93593">
        <ele>1182</ele>
        <time>2026-05-09T07:03:21.940Z</time>
      </trkpt>
      <trkpt lat="47.84987" lon="6.93591">
        <ele>1182</ele>
        <time>2026-05-09T07:03:22.939Z</time>
      </trkpt>
      <trkpt lat="47.84986" lon="6.93589">
        <ele>1182</ele>
        <time>2026-05-09T07:03:23.939Z</time>
      </trkpt>
      <trkpt lat="47.84986" lon="6.93588">
        <ele>1182</ele>
        <time>2026-05-09T07:03:24.939Z</time>
      </trkpt>
      <trkpt lat="47.84986" lon="6.93587">
        <ele>1182</ele>
        <time>2026-05-09T07:03:25.939Z</time>
      </trkpt>
      <trkpt lat="47.84985" lon="6.93585">
        <ele>1182</ele>
        <time>2026-05-09T07:03:26.939Z</time>
      </trkpt>
      <trkpt lat="47.84984" lon="6.93583">
        <ele>1182</ele>
        <time>2026-05-09T07:03:27.939Z</time>
      </trkpt>
      <trkpt lat="47.84983" lon="6.93582">
        <ele>1182</ele>
        <time>2026-05-09T07:03:28.939Z</time>
      </trkpt>
      <trkpt lat="47.84982" lon="6.9358">
        <ele>1182</ele>
        <time>2026-05-09T07:03:29.940Z</time>
      </trkpt>
      <trkpt lat="47.84982" lon="6.93578">
        <ele>1181</ele>
        <time>2026-05-09T07:03:30.940Z</time>
      </trkpt>
      <trkpt lat="47.84981" lon="6.93577">
        <ele>1181</ele>
        <time>2026-05-09T07:03:31.939Z</time>
      </trkpt>
      <trkpt lat="47.8498" lon="6.93576">
        <ele>1181</ele>
        <time>2026-05-09T07:03:32.939Z</time>
      </trkpt>
      <trkpt lat="47.8498" lon="6.93574">
        <ele>1181</ele>
        <time>2026-05-09T07:03:33.939Z</time>
      </trkpt>
      <trkpt lat="47.84979" lon="6.93573">
        <ele>1182</ele>
        <time>2026-05-09T07:03:34.939Z</time>
      </trkpt>
      <trkpt lat="47.84979" lon="6.93571">
        <ele>1182</ele>
        <time>2026-05-09T07:03:35.939Z</time>
      </trkpt>
      <trkpt lat="47.84978" lon="6.93569">
        <ele>1182</ele>
        <time>2026-05-09T07:03:36.940Z</time>
      </trkpt>
      <trkpt lat="47.84978" lon="6.93567">
        <ele>1182</ele>
        <time>2026-05-09T07:03:37.939Z</time>
      </trkpt>
      <trkpt lat="47.84977" lon="6.93565">
        <ele>1182</ele>
        <time>2026-05-09T07:03:38.940Z</time>
      </trkpt>
      <trkpt lat="47.84977" lon="6.93563">
        <ele>1182</ele>
        <time>2026-05-09T07:03:39.939Z</time>
      </trkpt>
      <trkpt lat="47.84976" lon="6.93561">
        <ele>1182</ele>
        <time>2026-05-09T07:03:40.940Z</time>
      </trkpt>
      <trkpt lat="47.84976" lon="6.9356">
        <ele>1182</ele>
        <time>2026-05-09T07:03:41.939Z</time>
      </trkpt>
      <trkpt lat="47.84975" lon="6.93559">
        <ele>1182</ele>
        <time>2026-05-09T07:03:42.940Z</time>
      </trkpt>
      <trkpt lat="47.84975" lon="6.93557">
        <ele>1182</ele>
        <time>2026-05-09T07:03:43.939Z</time>
      </trkpt>
      <trkpt lat="47.84975" lon="6.93556">
        <ele>1181</ele>
        <time>2026-05-09T07:03:44.940Z</time>
      </trkpt>
      <trkpt lat="47.84975" lon="6.93555">
        <ele>1181</ele>
        <time>2026-05-09T07:03:45.939Z</time>
      </trkpt>
      <trkpt lat="47.84975" lon="6.93554">
        <ele>1180</ele>
        <time>2026-05-09T07:03:46.940Z</time>
      </trkpt>
      <trkpt lat="47.84975" lon="6.93553">
        <ele>1180</ele>
        <time>2026-05-09T07:03:47.939Z</time>
      </trkpt>
      <trkpt lat="47.84974" lon="6.93553">
        <ele>1180</ele>
        <time>2026-05-09T07:03:48.940Z</time>
      </trkpt>
      <trkpt lat="47.84974" lon="6.93552">
        <ele>1179</ele>
        <time>2026-05-09T07:03:49.940Z</time>
      </trkpt>
      <trkpt lat="47.84973" lon="6.93551">
        <ele>1179</ele>
        <time>2026-05-09T07:03:50.940Z</time>
      </trkpt>
      <trkpt lat="47.84973" lon="6.9355">
        <ele>1179</ele>
        <time>2026-05-09T07:03:51.940Z</time>
      </trkpt>
      <trkpt lat="47.84972" lon="6.93548">
        <ele>1179</ele>
        <time>2026-05-09T07:03:52.939Z</time>
      </trkpt>
      <trkpt lat="47.84971" lon="6.93546">
        <ele>1179</ele>
        <time>2026-05-09T07:03:53.940Z</time>
      </trkpt>
      <trkpt lat="47.84971" lon="6.93545">
        <ele>1179</ele>
        <time>2026-05-09T07:03:54.940Z</time>
      </trkpt>
      <trkpt lat="47.8497" lon="6.93542">
        <ele>1179</ele>
        <time>2026-05-09T07:03:55.940Z</time>
      </trkpt>
      <trkpt lat="47.84969" lon="6.9354">
        <ele>1179</ele>
        <time>2026-05-09T07:03:56.940Z</time>
      </trkpt>
      <trkpt lat="47.84968" lon="6.93539">
        <ele>1179</ele>
        <time>2026-05-09T07:03:57.940Z</time>
      </trkpt>
      <trkpt lat="47.84968" lon="6.93537">
        <ele>1179</ele>
        <time>2026-05-09T07:03:58.939Z</time>
      </trkpt>
      <trkpt lat="47.84968" lon="6.93536">
        <ele>1179</ele>
        <time>2026-05-09T07:03:59.940Z</time>
      </trkpt>
      <trkpt lat="47.84968" lon="6.93534">
        <ele>1179</ele>
        <time>2026-05-09T07:04:00.939Z</time>
      </trkpt>
      <trkpt lat="47.84967" lon="6.93533">
        <ele>1179</ele>
        <time>2026-05-09T07:04:01.940Z</time>
      </trkpt>
      <trkpt lat="47.84966" lon="6.93532">
        <ele>1179</ele>
        <time>2026-05-09T07:04:02.939Z</time>
      </trkpt>
      <trkpt lat="47.84965" lon="6.93531">
        <ele>1179</ele>
        <time>2026-05-09T07:04:03.940Z</time>
      </trkpt>
      <trkpt lat="47.84964" lon="6.93529">
        <ele>1180</ele>
        <time>2026-05-09T07:04:04.940Z</time>
      </trkpt>
      <trkpt lat="47.84963" lon="6.93527">
        <ele>1180</ele>
        <time>2026-05-09T07:04:05.940Z</time>
      </trkpt>
      <trkpt lat="47.84963" lon="6.93526">
        <ele>1179</ele>
        <time>2026-05-09T07:04:06.940Z</time>
      </trkpt>
      <trkpt lat="47.84963" lon="6.93524">
        <ele>1179</ele>
        <time>2026-05-09T07:04:07.939Z</time>
      </trkpt>
      <trkpt lat="47.84962" lon="6.93523">
        <ele>1179</ele>
        <time>2026-05-09T07:04:08.939Z</time>
      </trkpt>
      <trkpt lat="47.84962" lon="6.93522">
        <ele>1179</ele>
        <time>2026-05-09T07:04:09.940Z</time>
      </trkpt>
      <trkpt lat="47.84961" lon="6.9352">
        <ele>1179</ele>
        <time>2026-05-09T07:04:10.940Z</time>
      </trkpt>
      <trkpt lat="47.8496" lon="6.9352">
        <ele>1179</ele>
        <time>2026-05-09T07:04:11.939Z</time>
      </trkpt>
      <trkpt lat="47.8496" lon="6.93519">
        <ele>1179</ele>
        <time>2026-05-09T07:04:12.939Z</time>
      </trkpt>
      <trkpt lat="47.8496" lon="6.93518">
        <ele>1179</ele>
        <time>2026-05-09T07:04:13.940Z</time>
      </trkpt>
      <trkpt lat="47.84959" lon="6.93517">
        <ele>1179</ele>
        <time>2026-05-09T07:04:14.940Z</time>
      </trkpt>
      <trkpt lat="47.84958" lon="6.93516">
        <ele>1179</ele>
        <time>2026-05-09T07:04:15.939Z</time>
      </trkpt>
      <trkpt lat="47.84958" lon="6.93515">
        <ele>1179</ele>
        <time>2026-05-09T07:04:16.940Z</time>
      </trkpt>
      <trkpt lat="47.84957" lon="6.93514">
        <ele>1179</ele>
        <time>2026-05-09T07:04:17.939Z</time>
      </trkpt>
      <trkpt lat="47.84956" lon="6.93513">
        <ele>1179</ele>
        <time>2026-05-09T07:04:18.939Z</time>
      </trkpt>
      <trkpt lat="47.84955" lon="6.93512">
        <ele>1179</ele>
        <time>2026-05-09T07:04:19.939Z</time>
      </trkpt>
      <trkpt lat="47.84954" lon="6.93511">
        <ele>1179</ele>
        <time>2026-05-09T07:04:20.940Z</time>
      </trkpt>
      <trkpt lat="47.84954" lon="6.93509">
        <ele>1179</ele>
        <time>2026-05-09T07:04:21.940Z</time>
      </trkpt>
      <trkpt lat="47.84953" lon="6.93507">
        <ele>1180</ele>
        <time>2026-05-09T07:04:22.939Z</time>
      </trkpt>
      <trkpt lat="47.84952" lon="6.93506">
        <ele>1180</ele>
        <time>2026-05-09T07:04:23.939Z</time>
      </trkpt>
      <trkpt lat="47.84951" lon="6.93505">
        <ele>1180</ele>
        <time>2026-05-09T07:04:24.939Z</time>
      </trkpt>
      <trkpt lat="47.8495" lon="6.93503">
        <ele>1180</ele>
        <time>2026-05-09T07:04:25.940Z</time>
      </trkpt>
      <trkpt lat="47.8495" lon="6.93502">
        <ele>1180</ele>
        <time>2026-05-09T07:04:26.939Z</time>
      </trkpt>
      <trkpt lat="47.84949" lon="6.935">
        <ele>1180</ele>
        <time>2026-05-09T07:04:27.940Z</time>
      </trkpt>
      <trkpt lat="47.84948" lon="6.93497">
        <ele>1180</ele>
        <time>2026-05-09T07:04:28.939Z</time>
      </trkpt>
      <trkpt lat="47.84947" lon="6.93495">
        <ele>1181</ele>
        <time>2026-05-09T07:04:29.940Z</time>
      </trkpt>
      <trkpt lat="47.84947" lon="6.93493">
        <ele>1181</ele>
        <time>2026-05-09T07:04:30.939Z</time>
      </trkpt>
      <trkpt lat="47.84947" lon="6.93491">
        <ele>1182</ele>
        <time>2026-05-09T07:04:31.940Z</time>
      </trkpt>
      <trkpt lat="47.84947" lon="6.93489">
        <ele>1182</ele>
        <time>2026-05-09T07:04:32.939Z</time>
      </trkpt>
      <trkpt lat="47.84947" lon="6.93488">
        <ele>1182</ele>
        <time>2026-05-09T07:04:33.940Z</time>
      </trkpt>
      <trkpt lat="47.84944" lon="6.93486">
        <ele>1183</ele>
        <time>2026-05-09T07:04:34.939Z</time>
      </trkpt>
      <trkpt lat="47.84943" lon="6.93484">
        <ele>1183</ele>
        <time>2026-05-09T07:04:35.940Z</time>
      </trkpt>
      <trkpt lat="47.84941" lon="6.93483">
        <ele>1183</ele>
        <time>2026-05-09T07:04:36.939Z</time>
      </trkpt>
      <trkpt lat="47.8494" lon="6.93482">
        <ele>1183</ele>
        <time>2026-05-09T07:04:37.940Z</time>
      </trkpt>
      <trkpt lat="47.8494" lon="6.9348">
        <ele>1183</ele>
        <time>2026-05-09T07:04:38.940Z</time>
      </trkpt>
      <trkpt lat="47.84939" lon="6.93479">
        <ele>1183</ele>
        <time>2026-05-09T07:04:39.939Z</time>
      </trkpt>
      <trkpt lat="47.84939" lon="6.93477">
        <ele>1183</ele>
        <time>2026-05-09T07:04:40.940Z</time>
      </trkpt>
      <trkpt lat="47.84938" lon="6.93475">
        <ele>1183</ele>
        <time>2026-05-09T07:04:41.939Z</time>
      </trkpt>
      <trkpt lat="47.84938" lon="6.93473">
        <ele>1183</ele>
        <time>2026-05-09T07:04:42.939Z</time>
      </trkpt>
      <trkpt lat="47.84937" lon="6.93471">
        <ele>1183</ele>
        <time>2026-05-09T07:04:43.939Z</time>
      </trkpt>
      <trkpt lat="47.84936" lon="6.93469">
        <ele>1183</ele>
        <time>2026-05-09T07:04:44.940Z</time>
      </trkpt>
      <trkpt lat="47.84935" lon="6.93467">
        <ele>1183</ele>
        <time>2026-05-09T07:04:45.939Z</time>
      </trkpt>
      <trkpt lat="47.84934" lon="6.93464">
        <ele>1182</ele>
        <time>2026-05-09T07:04:46.940Z</time>
      </trkpt>
      <trkpt lat="47.84932" lon="6.93461">
        <ele>1182</ele>
        <time>2026-05-09T07:04:47.939Z</time>
      </trkpt>
      <trkpt lat="47.84931" lon="6.93459">
        <ele>1182</ele>
        <time>2026-05-09T07:04:48.940Z</time>
      </trkpt>
      <trkpt lat="47.84931" lon="6.93454">
        <ele>1182</ele>
        <time>2026-05-09T07:04:49.939Z</time>
      </trkpt>
      <trkpt lat="47.8493" lon="6.93451">
        <ele>1182</ele>
        <time>2026-05-09T07:04:50.940Z</time>
      </trkpt>
      <trkpt lat="47.84927" lon="6.9345">
        <ele>1181</ele>
        <time>2026-05-09T07:04:51.939Z</time>
      </trkpt>
      <trkpt lat="47.84925" lon="6.93449">
        <ele>1181</ele>
        <time>2026-05-09T07:04:52.940Z</time>
      </trkpt>
      <trkpt lat="47.84923" lon="6.93447">
        <ele>1181</ele>
        <time>2026-05-09T07:04:53.940Z</time>
      </trkpt>
      <trkpt lat="47.8492" lon="6.93444">
        <ele>1181</ele>
        <time>2026-05-09T07:04:54.940Z</time>
      </trkpt>
      <trkpt lat="47.8492" lon="6.93442">
        <ele>1181</ele>
        <time>2026-05-09T07:04:55.940Z</time>
      </trkpt>
      <trkpt lat="47.84917" lon="6.9344">
        <ele>1181</ele>
        <time>2026-05-09T07:04:56.939Z</time>
      </trkpt>
      <trkpt lat="47.84916" lon="6.93437">
        <ele>1181</ele>
        <time>2026-05-09T07:04:57.940Z</time>
      </trkpt>
      <trkpt lat="47.84915" lon="6.93438">
        <ele>1181</ele>
        <time>2026-05-09T07:04:58.939Z</time>
      </trkpt>
      <trkpt lat="47.84914" lon="6.93437">
        <ele>1181</ele>
        <time>2026-05-09T07:04:59.940Z</time>
      </trkpt>
      <trkpt lat="47.84915" lon="6.93438">
        <ele>1181</ele>
        <time>2026-05-09T07:05:00.939Z</time>
      </trkpt>
      <trkpt lat="47.84915" lon="6.93437">
        <ele>1181</ele>
        <time>2026-05-09T07:05:01.940Z</time>
      </trkpt>
      <trkpt lat="47.84915" lon="6.93438">
        <ele>1182</ele>
        <time>2026-05-09T07:05:02.939Z</time>
      </trkpt>
      <trkpt lat="47.84915" lon="6.93438">
        <ele>1182</ele>
        <time>2026-05-09T07:05:03.940Z</time>
      </trkpt>
      <trkpt lat="47.84914" lon="6.93437">
        <ele>1182</ele>
        <time>2026-05-09T07:05:04.939Z</time>
      </trkpt>
      <trkpt lat="47.84915" lon="6.93436">
        <ele>1182</ele>
        <time>2026-05-09T07:05:05.939Z</time>
      </trkpt>
      <trkpt lat="47.84916" lon="6.93433">
        <ele>1182</ele>
        <time>2026-05-09T07:05:06.939Z</time>
      </trkpt>
      <trkpt lat="47.84917" lon="6.9343">
        <ele>1182</ele>
        <time>2026-05-09T07:05:07.940Z</time>
      </trkpt>
      <trkpt lat="47.84918" lon="6.93428">
        <ele>1182</ele>
        <time>2026-05-09T07:05:08.939Z</time>
      </trkpt>
      <trkpt lat="47.84918" lon="6.93426">
        <ele>1182</ele>
        <time>2026-05-09T07:05:09.940Z</time>
      </trkpt>
      <trkpt lat="47.84918" lon="6.93424">
        <ele>1183</ele>
        <time>2026-05-09T07:05:10.939Z</time>
      </trkpt>
      <trkpt lat="47.84918" lon="6.93423">
        <ele>1183</ele>
        <time>2026-05-09T07:05:11.940Z</time>
      </trkpt>
      <trkpt lat="47.84918" lon="6.93421">
        <ele>1183</ele>
        <time>2026-05-09T07:05:12.940Z</time>
      </trkpt>
      <trkpt lat="47.84918" lon="6.93419">
        <ele>1184</ele>
        <time>2026-05-09T07:05:13.939Z</time>
      </trkpt>
      <trkpt lat="47.84918" lon="6.93418">
        <ele>1184</ele>
        <time>2026-05-09T07:05:14.940Z</time>
      </trkpt>
      <trkpt lat="47.84918" lon="6.93416">
        <ele>1184</ele>
        <time>2026-05-09T07:05:15.939Z</time>
      </trkpt>
      <trkpt lat="47.84919" lon="6.93414">
        <ele>1184</ele>
        <time>2026-05-09T07:05:16.939Z</time>
      </trkpt>
      <trkpt lat="47.84918" lon="6.93412">
        <ele>1185</ele>
        <time>2026-05-09T07:05:17.940Z</time>
      </trkpt>
      <trkpt lat="47.84918" lon="6.9341">
        <ele>1185</ele>
        <time>2026-05-09T07:05:18.939Z</time>
      </trkpt>
      <trkpt lat="47.84918" lon="6.93408">
        <ele>1185</ele>
        <time>2026-05-09T07:05:19.940Z</time>
      </trkpt>
      <trkpt lat="47.84918" lon="6.93407">
        <ele>1185</ele>
        <time>2026-05-09T07:05:20.939Z</time>
      </trkpt>
      <trkpt lat="47.84918" lon="6.93404">
        <ele>1185</ele>
        <time>2026-05-09T07:05:21.940Z</time>
      </trkpt>
      <trkpt lat="47.84918" lon="6.93403">
        <ele>1185</ele>
        <time>2026-05-09T07:05:22.939Z</time>
      </trkpt>
      <trkpt lat="47.84917" lon="6.93401">
        <ele>1185</ele>
        <time>2026-05-09T07:05:23.940Z</time>
      </trkpt>
      <trkpt lat="47.84917" lon="6.93399">
        <ele>1185</ele>
        <time>2026-05-09T07:05:24.939Z</time>
      </trkpt>
      <trkpt lat="47.84917" lon="6.93397">
        <ele>1186</ele>
        <time>2026-05-09T07:05:25.939Z</time>
      </trkpt>
      <trkpt lat="47.84917" lon="6.93396">
        <ele>1186</ele>
        <time>2026-05-09T07:05:26.940Z</time>
      </trkpt>
      <trkpt lat="47.84917" lon="6.93394">
        <ele>1186</ele>
        <time>2026-05-09T07:05:27.939Z</time>
      </trkpt>
      <trkpt lat="47.84917" lon="6.93392">
        <ele>1186</ele>
        <time>2026-05-09T07:05:28.940Z</time>
      </trkpt>
      <trkpt lat="47.84917" lon="6.9339">
        <ele>1186</ele>
        <time>2026-05-09T07:05:29.940Z</time>
      </trkpt>
      <trkpt lat="47.84917" lon="6.93388">
        <ele>1186</ele>
        <time>2026-05-09T07:05:30.940Z</time>
      </trkpt>
      <trkpt lat="47.84917" lon="6.93386">
        <ele>1186</ele>
        <time>2026-05-09T07:05:31.939Z</time>
      </trkpt>
      <trkpt lat="47.84917" lon="6.93385">
        <ele>1186</ele>
        <time>2026-05-09T07:05:32.940Z</time>
      </trkpt>
      <trkpt lat="47.84917" lon="6.93382">
        <ele>1186</ele>
        <time>2026-05-09T07:05:33.940Z</time>
      </trkpt>
      <trkpt lat="47.84917" lon="6.93381">
        <ele>1185</ele>
        <time>2026-05-09T07:05:34.940Z</time>
      </trkpt>
      <trkpt lat="47.84918" lon="6.93379">
        <ele>1185</ele>
        <time>2026-05-09T07:05:35.939Z</time>
      </trkpt>
      <trkpt lat="47.84918" lon="6.93377">
        <ele>1184</ele>
        <time>2026-05-09T07:05:36.940Z</time>
      </trkpt>
      <trkpt lat="47.84917" lon="6.93375">
        <ele>1184</ele>
        <time>2026-05-09T07:05:37.939Z</time>
      </trkpt>
      <trkpt lat="47.84917" lon="6.93374">
        <ele>1184</ele>
        <time>2026-05-09T07:05:38.940Z</time>
      </trkpt>
      <trkpt lat="47.84917" lon="6.93372">
        <ele>1183</ele>
        <time>2026-05-09T07:05:39.939Z</time>
      </trkpt>
      <trkpt lat="47.84917" lon="6.9337">
        <ele>1183</ele>
        <time>2026-05-09T07:05:40.940Z</time>
      </trkpt>
      <trkpt lat="47.84916" lon="6.93369">
        <ele>1183</ele>
        <time>2026-05-09T07:05:41.939Z</time>
      </trkpt>
      <trkpt lat="47.84916" lon="6.93367">
        <ele>1183</ele>
        <time>2026-05-09T07:05:42.939Z</time>
      </trkpt>
      <trkpt lat="47.84915" lon="6.93365">
        <ele>1183</ele>
        <time>2026-05-09T07:05:43.939Z</time>
      </trkpt>
      <trkpt lat="47.84914" lon="6.93363">
        <ele>1183</ele>
        <time>2026-05-09T07:05:44.940Z</time>
      </trkpt>
      <trkpt lat="47.84914" lon="6.93362">
        <ele>1183</ele>
        <time>2026-05-09T07:05:45.939Z</time>
      </trkpt>
      <trkpt lat="47.84914" lon="6.9336">
        <ele>1183</ele>
        <time>2026-05-09T07:05:46.940Z</time>
      </trkpt>
      <trkpt lat="47.84914" lon="6.93359">
        <ele>1183</ele>
        <time>2026-05-09T07:05:47.940Z</time>
      </trkpt>
      <trkpt lat="47.84914" lon="6.93357">
        <ele>1183</ele>
        <time>2026-05-09T07:05:48.939Z</time>
      </trkpt>
      <trkpt lat="47.84914" lon="6.93355">
        <ele>1183</ele>
        <time>2026-05-09T07:05:49.939Z</time>
      </trkpt>
      <trkpt lat="47.84913" lon="6.93353">
        <ele>1183</ele>
        <time>2026-05-09T07:05:50.939Z</time>
      </trkpt>
      <trkpt lat="47.84913" lon="6.93351">
        <ele>1183</ele>
        <time>2026-05-09T07:05:51.939Z</time>
      </trkpt>
      <trkpt lat="47.84913" lon="6.93348">
        <ele>1183</ele>
        <time>2026-05-09T07:05:52.940Z</time>
      </trkpt>
      <trkpt lat="47.84913" lon="6.93347">
        <ele>1184</ele>
        <time>2026-05-09T07:05:53.939Z</time>
      </trkpt>
      <trkpt lat="47.84912" lon="6.93345">
        <ele>1184</ele>
        <time>2026-05-09T07:05:54.940Z</time>
      </trkpt>
      <trkpt lat="47.84911" lon="6.93342">
        <ele>1184</ele>
        <time>2026-05-09T07:05:55.939Z</time>
      </trkpt>
      <trkpt lat="47.84911" lon="6.93341">
        <ele>1184</ele>
        <time>2026-05-09T07:05:56.940Z</time>
      </trkpt>
      <trkpt lat="47.8491" lon="6.93338">
        <ele>1184</ele>
        <time>2026-05-09T07:05:57.939Z</time>
      </trkpt>
      <trkpt lat="47.8491" lon="6.93337">
        <ele>1184</ele>
        <time>2026-05-09T07:05:58.940Z</time>
      </trkpt>
      <trkpt lat="47.8491" lon="6.93336">
        <ele>1184</ele>
        <time>2026-05-09T07:05:59.940Z</time>
      </trkpt>
      <trkpt lat="47.84909" lon="6.93334">
        <ele>1184</ele>
        <time>2026-05-09T07:06:00.939Z</time>
      </trkpt>
      <trkpt lat="47.84909" lon="6.93332">
        <ele>1184</ele>
        <time>2026-05-09T07:06:01.940Z</time>
      </trkpt>
      <trkpt lat="47.84908" lon="6.9333">
        <ele>1184</ele>
        <time>2026-05-09T07:06:02.939Z</time>
      </trkpt>
      <trkpt lat="47.84908" lon="6.93328">
        <ele>1184</ele>
        <time>2026-05-09T07:06:03.940Z</time>
      </trkpt>
      <trkpt lat="47.84908" lon="6.93326">
        <ele>1184</ele>
        <time>2026-05-09T07:06:04.939Z</time>
      </trkpt>
      <trkpt lat="47.84907" lon="6.93324">
        <ele>1184</ele>
        <time>2026-05-09T07:06:05.940Z</time>
      </trkpt>
      <trkpt lat="47.84907" lon="6.93322">
        <ele>1184</ele>
        <time>2026-05-09T07:06:06.939Z</time>
      </trkpt>
      <trkpt lat="47.84907" lon="6.9332">
        <ele>1184</ele>
        <time>2026-05-09T07:06:07.940Z</time>
      </trkpt>
      <trkpt lat="47.84907" lon="6.93318">
        <ele>1184</ele>
        <time>2026-05-09T07:06:08.940Z</time>
      </trkpt>
      <trkpt lat="47.84907" lon="6.93316">
        <ele>1185</ele>
        <time>2026-05-09T07:06:09.939Z</time>
      </trkpt>
      <trkpt lat="47.84907" lon="6.93314">
        <ele>1185</ele>
        <time>2026-05-09T07:06:10.940Z</time>
      </trkpt>
      <trkpt lat="47.84907" lon="6.93312">
        <ele>1185</ele>
        <time>2026-05-09T07:06:11.939Z</time>
      </trkpt>
      <trkpt lat="47.84906" lon="6.9331">
        <ele>1185</ele>
        <time>2026-05-09T07:06:12.940Z</time>
      </trkpt>
      <trkpt lat="47.84906" lon="6.93308">
        <ele>1185</ele>
        <time>2026-05-09T07:06:13.940Z</time>
      </trkpt>
      <trkpt lat="47.84906" lon="6.93306">
        <ele>1185</ele>
        <time>2026-05-09T07:06:14.939Z</time>
      </trkpt>
      <trkpt lat="47.84905" lon="6.93304">
        <ele>1185</ele>
        <time>2026-05-09T07:06:15.940Z</time>
      </trkpt>
      <trkpt lat="47.84904" lon="6.93302">
        <ele>1185</ele>
        <time>2026-05-09T07:06:16.940Z</time>
      </trkpt>
      <trkpt lat="47.84904" lon="6.933">
        <ele>1186</ele>
        <time>2026-05-09T07:06:17.940Z</time>
      </trkpt>
      <trkpt lat="47.84903" lon="6.93298">
        <ele>1186</ele>
        <time>2026-05-09T07:06:18.940Z</time>
      </trkpt>
      <trkpt lat="47.84903" lon="6.93297">
        <ele>1186</ele>
        <time>2026-05-09T07:06:19.940Z</time>
      </trkpt>
      <trkpt lat="47.84903" lon="6.93295">
        <ele>1186</ele>
        <time>2026-05-09T07:06:20.939Z</time>
      </trkpt>
      <trkpt lat="47.84903" lon="6.93294">
        <ele>1187</ele>
        <time>2026-05-09T07:06:21.939Z</time>
      </trkpt>
      <trkpt lat="47.84903" lon="6.93292">
        <ele>1187</ele>
        <time>2026-05-09T07:06:22.940Z</time>
      </trkpt>
      <trkpt lat="47.84902" lon="6.9329">
        <ele>1187</ele>
        <time>2026-05-09T07:06:23.940Z</time>
      </trkpt>
      <trkpt lat="47.84902" lon="6.93289">
        <ele>1187</ele>
        <time>2026-05-09T07:06:24.939Z</time>
      </trkpt>
      <trkpt lat="47.84902" lon="6.93287">
        <ele>1187</ele>
        <time>2026-05-09T07:06:25.939Z</time>
      </trkpt>
      <trkpt lat="47.84901" lon="6.93285">
        <ele>1188</ele>
        <time>2026-05-09T07:06:26.940Z</time>
      </trkpt>
      <trkpt lat="47.84901" lon="6.93283">
        <ele>1187</ele>
        <time>2026-05-09T07:06:27.940Z</time>
      </trkpt>
      <trkpt lat="47.849" lon="6.93282">
        <ele>1187</ele>
        <time>2026-05-09T07:06:28.939Z</time>
      </trkpt>
      <trkpt lat="47.849" lon="6.9328">
        <ele>1187</ele>
        <time>2026-05-09T07:06:29.939Z</time>
      </trkpt>
      <trkpt lat="47.849" lon="6.93279">
        <ele>1187</ele>
        <time>2026-05-09T07:06:30.940Z</time>
      </trkpt>
      <trkpt lat="47.849" lon="6.93277">
        <ele>1187</ele>
        <time>2026-05-09T07:06:31.939Z</time>
      </trkpt>
      <trkpt lat="47.84899" lon="6.93274">
        <ele>1187</ele>
        <time>2026-05-09T07:06:32.939Z</time>
      </trkpt>
      <trkpt lat="47.84899" lon="6.93272">
        <ele>1187</ele>
        <time>2026-05-09T07:06:33.939Z</time>
      </trkpt>
      <trkpt lat="47.84898" lon="6.9327">
        <ele>1187</ele>
        <time>2026-05-09T07:06:34.939Z</time>
      </trkpt>
      <trkpt lat="47.84898" lon="6.93268">
        <ele>1187</ele>
        <time>2026-05-09T07:06:35.939Z</time>
      </trkpt>
      <trkpt lat="47.84897" lon="6.93267">
        <ele>1187</ele>
        <time>2026-05-09T07:06:36.939Z</time>
      </trkpt>
      <trkpt lat="47.84897" lon="6.93266">
        <ele>1186</ele>
        <time>2026-05-09T07:06:37.939Z</time>
      </trkpt>
      <trkpt lat="47.84896" lon="6.93264">
        <ele>1186</ele>
        <time>2026-05-09T07:06:38.940Z</time>
      </trkpt>
      <trkpt lat="47.84896" lon="6.93263">
        <ele>1186</ele>
        <time>2026-05-09T07:06:39.939Z</time>
      </trkpt>
      <trkpt lat="47.84896" lon="6.93261">
        <ele>1186</ele>
        <time>2026-05-09T07:06:40.940Z</time>
      </trkpt>
      <trkpt lat="47.84895" lon="6.93259">
        <ele>1186</ele>
        <time>2026-05-09T07:06:41.939Z</time>
      </trkpt>
      <trkpt lat="47.84895" lon="6.93258">
        <ele>1186</ele>
        <time>2026-05-09T07:06:42.939Z</time>
      </trkpt>
      <trkpt lat="47.84894" lon="6.93256">
        <ele>1185</ele>
        <time>2026-05-09T07:06:43.940Z</time>
      </trkpt>
      <trkpt lat="47.84894" lon="6.93254">
        <ele>1185</ele>
        <time>2026-05-09T07:06:44.939Z</time>
      </trkpt>
      <trkpt lat="47.84893" lon="6.93252">
        <ele>1185</ele>
        <time>2026-05-09T07:06:45.940Z</time>
      </trkpt>
      <trkpt lat="47.84893" lon="6.93251">
        <ele>1184</ele>
        <time>2026-05-09T07:06:46.940Z</time>
      </trkpt>
      <trkpt lat="47.84893" lon="6.93249">
        <ele>1184</ele>
        <time>2026-05-09T07:06:47.939Z</time>
      </trkpt>
      <trkpt lat="47.84893" lon="6.93247">
        <ele>1183</ele>
        <time>2026-05-09T07:06:48.940Z</time>
      </trkpt>
      <trkpt lat="47.84892" lon="6.93245">
        <ele>1183</ele>
        <time>2026-05-09T07:06:49.940Z</time>
      </trkpt>
      <trkpt lat="47.84892" lon="6.93243">
        <ele>1183</ele>
        <time>2026-05-09T07:06:50.940Z</time>
      </trkpt>
      <trkpt lat="47.84892" lon="6.93241">
        <ele>1183</ele>
        <time>2026-05-09T07:06:51.939Z</time>
      </trkpt>
      <trkpt lat="47.84892" lon="6.93239">
        <ele>1183</ele>
        <time>2026-05-09T07:06:52.939Z</time>
      </trkpt>
      <trkpt lat="47.84891" lon="6.93237">
        <ele>1182</ele>
        <time>2026-05-09T07:06:53.940Z</time>
      </trkpt>
      <trkpt lat="47.84891" lon="6.93236">
        <ele>1182</ele>
        <time>2026-05-09T07:06:54.939Z</time>
      </trkpt>
      <trkpt lat="47.8489" lon="6.93234">
        <ele>1182</ele>
        <time>2026-05-09T07:06:55.940Z</time>
      </trkpt>
      <trkpt lat="47.84889" lon="6.93232">
        <ele>1182</ele>
        <time>2026-05-09T07:06:56.939Z</time>
      </trkpt>
      <trkpt lat="47.84889" lon="6.93231">
        <ele>1181</ele>
        <time>2026-05-09T07:06:57.940Z</time>
      </trkpt>
      <trkpt lat="47.84888" lon="6.93229">
        <ele>1181</ele>
        <time>2026-05-09T07:06:58.940Z</time>
      </trkpt>
      <trkpt lat="47.84888" lon="6.93227">
        <ele>1181</ele>
        <time>2026-05-09T07:06:59.940Z</time>
      </trkpt>
      <trkpt lat="47.84888" lon="6.93225">
        <ele>1181</ele>
        <time>2026-05-09T07:07:00.939Z</time>
      </trkpt>
      <trkpt lat="47.84888" lon="6.93223">
        <ele>1180</ele>
        <time>2026-05-09T07:07:01.940Z</time>
      </trkpt>
      <trkpt lat="47.84888" lon="6.93222">
        <ele>1180</ele>
        <time>2026-05-09T07:07:02.939Z</time>
      </trkpt>
      <trkpt lat="47.84887" lon="6.93221">
        <ele>1180</ele>
        <time>2026-05-09T07:07:03.940Z</time>
      </trkpt>
      <trkpt lat="47.84886" lon="6.93219">
        <ele>1180</ele>
        <time>2026-05-09T07:07:04.940Z</time>
      </trkpt>
      <trkpt lat="47.84885" lon="6.93216">
        <ele>1180</ele>
        <time>2026-05-09T07:07:05.940Z</time>
      </trkpt>
      <trkpt lat="47.84884" lon="6.93214">
        <ele>1179</ele>
        <time>2026-05-09T07:07:06.940Z</time>
      </trkpt>
      <trkpt lat="47.84883" lon="6.93212">
        <ele>1179</ele>
        <time>2026-05-09T07:07:07.939Z</time>
      </trkpt>
      <trkpt lat="47.84883" lon="6.93211">
        <ele>1179</ele>
        <time>2026-05-09T07:07:08.940Z</time>
      </trkpt>
      <trkpt lat="47.84883" lon="6.93209">
        <ele>1179</ele>
        <time>2026-05-09T07:07:09.940Z</time>
      </trkpt>
      <trkpt lat="47.84883" lon="6.93208">
        <ele>1178</ele>
        <time>2026-05-09T07:07:10.939Z</time>
      </trkpt>
      <trkpt lat="47.84882" lon="6.93206">
        <ele>1178</ele>
        <time>2026-05-09T07:07:11.939Z</time>
      </trkpt>
      <trkpt lat="47.84882" lon="6.93205">
        <ele>1178</ele>
        <time>2026-05-09T07:07:12.940Z</time>
      </trkpt>
      <trkpt lat="47.84882" lon="6.93203">
        <ele>1177</ele>
        <time>2026-05-09T07:07:13.939Z</time>
      </trkpt>
      <trkpt lat="47.84881" lon="6.93202">
        <ele>1177</ele>
        <time>2026-05-09T07:07:14.940Z</time>
      </trkpt>
      <trkpt lat="47.84881" lon="6.93201">
        <ele>1177</ele>
        <time>2026-05-09T07:07:15.939Z</time>
      </trkpt>
      <trkpt lat="47.8488" lon="6.93198">
        <ele>1176</ele>
        <time>2026-05-09T07:07:16.940Z</time>
      </trkpt>
      <trkpt lat="47.8488" lon="6.93196">
        <ele>1176</ele>
        <time>2026-05-09T07:07:17.939Z</time>
      </trkpt>
      <trkpt lat="47.8488" lon="6.93194">
        <ele>1176</ele>
        <time>2026-05-09T07:07:18.939Z</time>
      </trkpt>
      <trkpt lat="47.8488" lon="6.93191">
        <ele>1176</ele>
        <time>2026-05-09T07:07:19.939Z</time>
      </trkpt>
      <trkpt lat="47.84879" lon="6.93188">
        <ele>1176</ele>
        <time>2026-05-09T07:07:20.939Z</time>
      </trkpt>
      <trkpt lat="47.84878" lon="6.93185">
        <ele>1176</ele>
        <time>2026-05-09T07:07:21.939Z</time>
      </trkpt>
      <trkpt lat="47.84878" lon="6.93182">
        <ele>1175</ele>
        <time>2026-05-09T07:07:22.940Z</time>
      </trkpt>
      <trkpt lat="47.84877" lon="6.93178">
        <ele>1175</ele>
        <time>2026-05-09T07:07:23.939Z</time>
      </trkpt>
      <trkpt lat="47.84877" lon="6.93173">
        <ele>1175</ele>
        <time>2026-05-09T07:07:24.940Z</time>
      </trkpt>
      <trkpt lat="47.84877" lon="6.93171">
        <ele>1175</ele>
        <time>2026-05-09T07:07:25.939Z</time>
      </trkpt>
      <trkpt lat="47.84877" lon="6.93169">
        <ele>1175</ele>
        <time>2026-05-09T07:07:26.939Z</time>
      </trkpt>
      <trkpt lat="47.84876" lon="6.93168">
        <ele>1175</ele>
        <time>2026-05-09T07:07:27.940Z</time>
      </trkpt>
      <trkpt lat="47.84876" lon="6.93166">
        <ele>1175</ele>
        <time>2026-05-09T07:07:28.939Z</time>
      </trkpt>
      <trkpt lat="47.84875" lon="6.93165">
        <ele>1175</ele>
        <time>2026-05-09T07:07:29.940Z</time>
      </trkpt>
      <trkpt lat="47.84873" lon="6.93165">
        <ele>1174</ele>
        <time>2026-05-09T07:07:30.940Z</time>
      </trkpt>
      <trkpt lat="47.84872" lon="6.93162">
        <ele>1174</ele>
        <time>2026-05-09T07:07:31.939Z</time>
      </trkpt>
      <trkpt lat="47.84871" lon="6.9316">
        <ele>1174</ele>
        <time>2026-05-09T07:07:32.940Z</time>
      </trkpt>
      <trkpt lat="47.84869" lon="6.93159">
        <ele>1173</ele>
        <time>2026-05-09T07:07:33.939Z</time>
      </trkpt>
      <trkpt lat="47.84868" lon="6.9316">
        <ele>1173</ele>
        <time>2026-05-09T07:07:34.940Z</time>
      </trkpt>
      <trkpt lat="47.84867" lon="6.9316">
        <ele>1172</ele>
        <time>2026-05-09T07:07:35.939Z</time>
      </trkpt>
      <trkpt lat="47.84865" lon="6.93157">
        <ele>1172</ele>
        <time>2026-05-09T07:07:36.940Z</time>
      </trkpt>
      <trkpt lat="47.84865" lon="6.93155">
        <ele>1172</ele>
        <time>2026-05-09T07:07:37.939Z</time>
      </trkpt>
      <trkpt lat="47.84864" lon="6.93153">
        <ele>1171</ele>
        <time>2026-05-09T07:07:38.940Z</time>
      </trkpt>
      <trkpt lat="47.84864" lon="6.93152">
        <ele>1171</ele>
        <time>2026-05-09T07:07:39.939Z</time>
      </trkpt>
      <trkpt lat="47.84864" lon="6.93151">
        <ele>1170</ele>
        <time>2026-05-09T07:07:40.939Z</time>
      </trkpt>
      <trkpt lat="47.84864" lon="6.9315">
        <ele>1170</ele>
        <time>2026-05-09T07:07:41.940Z</time>
      </trkpt>
      <trkpt lat="47.84864" lon="6.93149">
        <ele>1169</ele>
        <time>2026-05-09T07:07:42.939Z</time>
      </trkpt>
      <trkpt lat="47.84864" lon="6.93148">
        <ele>1169</ele>
        <time>2026-05-09T07:07:43.940Z</time>
      </trkpt>
      <trkpt lat="47.84864" lon="6.93147">
        <ele>1169</ele>
        <time>2026-05-09T07:07:44.939Z</time>
      </trkpt>
      <trkpt lat="47.84863" lon="6.93146">
        <ele>1168</ele>
        <time>2026-05-09T07:07:45.940Z</time>
      </trkpt>
      <trkpt lat="47.84863" lon="6.93144">
        <ele>1168</ele>
        <time>2026-05-09T07:07:46.939Z</time>
      </trkpt>
      <trkpt lat="47.84864" lon="6.93143">
        <ele>1167</ele>
        <time>2026-05-09T07:07:47.940Z</time>
      </trkpt>
      <trkpt lat="47.84864" lon="6.93142">
        <ele>1166</ele>
        <time>2026-05-09T07:07:48.940Z</time>
      </trkpt>
      <trkpt lat="47.84863" lon="6.9314">
        <ele>1166</ele>
        <time>2026-05-09T07:07:49.939Z</time>
      </trkpt>
      <trkpt lat="47.84863" lon="6.93138">
        <ele>1165</ele>
        <time>2026-05-09T07:07:50.939Z</time>
      </trkpt>
      <trkpt lat="47.84863" lon="6.93137">
        <ele>1165</ele>
        <time>2026-05-09T07:07:51.939Z</time>
      </trkpt>
      <trkpt lat="47.84862" lon="6.93136">
        <ele>1164</ele>
        <time>2026-05-09T07:07:52.940Z</time>
      </trkpt>
      <trkpt lat="47.84862" lon="6.93135">
        <ele>1163</ele>
        <time>2026-05-09T07:07:53.940Z</time>
      </trkpt>
      <trkpt lat="47.84862" lon="6.93134">
        <ele>1163</ele>
        <time>2026-05-09T07:07:54.939Z</time>
      </trkpt>
      <trkpt lat="47.84862" lon="6.93133">
        <ele>1162</ele>
        <time>2026-05-09T07:07:55.940Z</time>
      </trkpt>
      <trkpt lat="47.84861" lon="6.93132">
        <ele>1162</ele>
        <time>2026-05-09T07:07:56.939Z</time>
      </trkpt>
      <trkpt lat="47.8486" lon="6.93131">
        <ele>1162</ele>
        <time>2026-05-09T07:07:57.940Z</time>
      </trkpt>
      <trkpt lat="47.8486" lon="6.93129">
        <ele>1162</ele>
        <time>2026-05-09T07:07:58.939Z</time>
      </trkpt>
      <trkpt lat="47.84859" lon="6.93127">
        <ele>1162</ele>
        <time>2026-05-09T07:07:59.939Z</time>
      </trkpt>
      <trkpt lat="47.84858" lon="6.93125">
        <ele>1161</ele>
        <time>2026-05-09T07:08:00.940Z</time>
      </trkpt>
      <trkpt lat="47.84858" lon="6.93122">
        <ele>1161</ele>
        <time>2026-05-09T07:08:01.939Z</time>
      </trkpt>
      <trkpt lat="47.84857" lon="6.93121">
        <ele>1161</ele>
        <time>2026-05-09T07:08:02.940Z</time>
      </trkpt>
      <trkpt lat="47.84857" lon="6.93119">
        <ele>1161</ele>
        <time>2026-05-09T07:08:03.940Z</time>
      </trkpt>
      <trkpt lat="47.84856" lon="6.93118">
        <ele>1161</ele>
        <time>2026-05-09T07:08:04.939Z</time>
      </trkpt>
      <trkpt lat="47.84855" lon="6.93117">
        <ele>1161</ele>
        <time>2026-05-09T07:08:05.940Z</time>
      </trkpt>
      <trkpt lat="47.84854" lon="6.93117">
        <ele>1161</ele>
        <time>2026-05-09T07:08:06.939Z</time>
      </trkpt>
      <trkpt lat="47.84854" lon="6.93116">
        <ele>1161</ele>
        <time>2026-05-09T07:08:07.939Z</time>
      </trkpt>
      <trkpt lat="47.84854" lon="6.93115">
        <ele>1160</ele>
        <time>2026-05-09T07:08:08.939Z</time>
      </trkpt>
      <trkpt lat="47.84854" lon="6.93115">
        <ele>1160</ele>
        <time>2026-05-09T07:08:09.940Z</time>
      </trkpt>
      <trkpt lat="47.84853" lon="6.93114">
        <ele>1160</ele>
        <time>2026-05-09T07:08:10.940Z</time>
      </trkpt>
      <trkpt lat="47.84853" lon="6.93113">
        <ele>1160</ele>
        <time>2026-05-09T07:08:11.939Z</time>
      </trkpt>
      <trkpt lat="47.84852" lon="6.93113">
        <ele>1160</ele>
        <time>2026-05-09T07:08:12.940Z</time>
      </trkpt>
      <trkpt lat="47.84852" lon="6.93112">
        <ele>1159</ele>
        <time>2026-05-09T07:08:13.939Z</time>
      </trkpt>
      <trkpt lat="47.84851" lon="6.93111">
        <ele>1160</ele>
        <time>2026-05-09T07:08:14.939Z</time>
      </trkpt>
      <trkpt lat="47.84851" lon="6.9311">
        <ele>1159</ele>
        <time>2026-05-09T07:08:15.939Z</time>
      </trkpt>
      <trkpt lat="47.84851" lon="6.93108">
        <ele>1159</ele>
        <time>2026-05-09T07:08:16.940Z</time>
      </trkpt>
      <trkpt lat="47.8485" lon="6.93106">
        <ele>1159</ele>
        <time>2026-05-09T07:08:17.940Z</time>
      </trkpt>
      <trkpt lat="47.8485" lon="6.93105">
        <ele>1159</ele>
        <time>2026-05-09T07:08:18.939Z</time>
      </trkpt>
      <trkpt lat="47.84849" lon="6.93103">
        <ele>1158</ele>
        <time>2026-05-09T07:08:19.939Z</time>
      </trkpt>
      <trkpt lat="47.84848" lon="6.93101">
        <ele>1158</ele>
        <time>2026-05-09T07:08:20.940Z</time>
      </trkpt>
      <trkpt lat="47.84846" lon="6.93099">
        <ele>1158</ele>
        <time>2026-05-09T07:08:21.939Z</time>
      </trkpt>
      <trkpt lat="47.84845" lon="6.93098">
        <ele>1157</ele>
        <time>2026-05-09T07:08:22.940Z</time>
      </trkpt>
      <trkpt lat="47.84844" lon="6.93097">
        <ele>1157</ele>
        <time>2026-05-09T07:08:23.939Z</time>
      </trkpt>
      <trkpt lat="47.84843" lon="6.93096">
        <ele>1156</ele>
        <time>2026-05-09T07:08:24.940Z</time>
      </trkpt>
      <trkpt lat="47.84842" lon="6.93095">
        <ele>1156</ele>
        <time>2026-05-09T07:08:25.939Z</time>
      </trkpt>
      <trkpt lat="47.84841" lon="6.93094">
        <ele>1156</ele>
        <time>2026-05-09T07:08:26.939Z</time>
      </trkpt>
      <trkpt lat="47.8484" lon="6.93093">
        <ele>1156</ele>
        <time>2026-05-09T07:08:27.939Z</time>
      </trkpt>
      <trkpt lat="47.84839" lon="6.93091">
        <ele>1156</ele>
        <time>2026-05-09T07:08:28.940Z</time>
      </trkpt>
      <trkpt lat="47.84838" lon="6.9309">
        <ele>1156</ele>
        <time>2026-05-09T07:08:29.939Z</time>
      </trkpt>
      <trkpt lat="47.84838" lon="6.93088">
        <ele>1156</ele>
        <time>2026-05-09T07:08:30.939Z</time>
      </trkpt>
      <trkpt lat="47.84837" lon="6.93086">
        <ele>1155</ele>
        <time>2026-05-09T07:08:31.939Z</time>
      </trkpt>
      <trkpt lat="47.84837" lon="6.93085">
        <ele>1155</ele>
        <time>2026-05-09T07:08:32.939Z</time>
      </trkpt>
      <trkpt lat="47.84836" lon="6.93083">
        <ele>1155</ele>
        <time>2026-05-09T07:08:33.940Z</time>
      </trkpt>
      <trkpt lat="47.84835" lon="6.93081">
        <ele>1155</ele>
        <time>2026-05-09T07:08:34.939Z</time>
      </trkpt>
      <trkpt lat="47.84835" lon="6.9308">
        <ele>1155</ele>
        <time>2026-05-09T07:08:35.939Z</time>
      </trkpt>
      <trkpt lat="47.84835" lon="6.93078">
        <ele>1154</ele>
        <time>2026-05-09T07:08:36.940Z</time>
      </trkpt>
      <trkpt lat="47.84835" lon="6.93076">
        <ele>1154</ele>
        <time>2026-05-09T07:08:37.939Z</time>
      </trkpt>
      <trkpt lat="47.84834" lon="6.93075">
        <ele>1154</ele>
        <time>2026-05-09T07:08:38.940Z</time>
      </trkpt>
      <trkpt lat="47.84834" lon="6.93073">
        <ele>1154</ele>
        <time>2026-05-09T07:08:39.940Z</time>
      </trkpt>
      <trkpt lat="47.84834" lon="6.93071">
        <ele>1154</ele>
        <time>2026-05-09T07:08:40.939Z</time>
      </trkpt>
      <trkpt lat="47.84834" lon="6.93069">
        <ele>1154</ele>
        <time>2026-05-09T07:08:41.940Z</time>
      </trkpt>
      <trkpt lat="47.84834" lon="6.93068">
        <ele>1153</ele>
        <time>2026-05-09T07:08:42.939Z</time>
      </trkpt>
      <trkpt lat="47.84834" lon="6.93066">
        <ele>1153</ele>
        <time>2026-05-09T07:08:43.940Z</time>
      </trkpt>
      <trkpt lat="47.84834" lon="6.93064">
        <ele>1152</ele>
        <time>2026-05-09T07:08:44.940Z</time>
      </trkpt>
      <trkpt lat="47.84834" lon="6.93062">
        <ele>1152</ele>
        <time>2026-05-09T07:08:45.939Z</time>
      </trkpt>
      <trkpt lat="47.84833" lon="6.9306">
        <ele>1152</ele>
        <time>2026-05-09T07:08:46.940Z</time>
      </trkpt>
      <trkpt lat="47.84833" lon="6.93058">
        <ele>1152</ele>
        <time>2026-05-09T07:08:47.939Z</time>
      </trkpt>
      <trkpt lat="47.84833" lon="6.93056">
        <ele>1152</ele>
        <time>2026-05-09T07:08:48.939Z</time>
      </trkpt>
      <trkpt lat="47.84834" lon="6.93054">
        <ele>1152</ele>
        <time>2026-05-09T07:08:49.939Z</time>
      </trkpt>
      <trkpt lat="47.84833" lon="6.93052">
        <ele>1151</ele>
        <time>2026-05-09T07:08:50.940Z</time>
      </trkpt>
      <trkpt lat="47.84833" lon="6.9305">
        <ele>1151</ele>
        <time>2026-05-09T07:08:51.939Z</time>
      </trkpt>
      <trkpt lat="47.84833" lon="6.93048">
        <ele>1151</ele>
        <time>2026-05-09T07:08:52.940Z</time>
      </trkpt>
      <trkpt lat="47.84833" lon="6.93046">
        <ele>1151</ele>
        <time>2026-05-09T07:08:53.940Z</time>
      </trkpt>
      <trkpt lat="47.84833" lon="6.93044">
        <ele>1151</ele>
        <time>2026-05-09T07:08:54.939Z</time>
      </trkpt>
      <trkpt lat="47.84833" lon="6.93042">
        <ele>1150</ele>
        <time>2026-05-09T07:08:55.940Z</time>
      </trkpt>
      <trkpt lat="47.84832" lon="6.93039">
        <ele>1150</ele>
        <time>2026-05-09T07:08:56.939Z</time>
      </trkpt>
      <trkpt lat="47.84832" lon="6.93037">
        <ele>1150</ele>
        <time>2026-05-09T07:08:57.940Z</time>
      </trkpt>
      <trkpt lat="47.84832" lon="6.93035">
        <ele>1150</ele>
        <time>2026-05-09T07:08:58.940Z</time>
      </trkpt>
      <trkpt lat="47.84832" lon="6.93033">
        <ele>1150</ele>
        <time>2026-05-09T07:08:59.940Z</time>
      </trkpt>
      <trkpt lat="47.84832" lon="6.93031">
        <ele>1149</ele>
        <time>2026-05-09T07:09:00.940Z</time>
      </trkpt>
      <trkpt lat="47.84832" lon="6.93029">
        <ele>1149</ele>
        <time>2026-05-09T07:09:01.939Z</time>
      </trkpt>
      <trkpt lat="47.84832" lon="6.93027">
        <ele>1149</ele>
        <time>2026-05-09T07:09:02.939Z</time>
      </trkpt>
      <trkpt lat="47.84832" lon="6.93025">
        <ele>1149</ele>
        <time>2026-05-09T07:09:03.939Z</time>
      </trkpt>
      <trkpt lat="47.84832" lon="6.93022">
        <ele>1149</ele>
        <time>2026-05-09T07:09:04.940Z</time>
      </trkpt>
      <trkpt lat="47.84832" lon="6.9302">
        <ele>1149</ele>
        <time>2026-05-09T07:09:05.940Z</time>
      </trkpt>
      <trkpt lat="47.84832" lon="6.93018">
        <ele>1148</ele>
        <time>2026-05-09T07:09:06.939Z</time>
      </trkpt>
      <trkpt lat="47.84832" lon="6.93016">
        <ele>1148</ele>
        <time>2026-05-09T07:09:07.940Z</time>
      </trkpt>
      <trkpt lat="47.84832" lon="6.93014">
        <ele>1148</ele>
        <time>2026-05-09T07:09:08.939Z</time>
      </trkpt>
      <trkpt lat="47.84833" lon="6.93012">
        <ele>1148</ele>
        <time>2026-05-09T07:09:09.940Z</time>
      </trkpt>
      <trkpt lat="47.84833" lon="6.93009">
        <ele>1147</ele>
        <time>2026-05-09T07:09:10.940Z</time>
      </trkpt>
      <trkpt lat="47.84834" lon="6.93007">
        <ele>1147</ele>
        <time>2026-05-09T07:09:11.940Z</time>
      </trkpt>
      <trkpt lat="47.84834" lon="6.93005">
        <ele>1147</ele>
        <time>2026-05-09T07:09:12.939Z</time>
      </trkpt>
      <trkpt lat="47.84835" lon="6.93003">
        <ele>1147</ele>
        <time>2026-05-09T07:09:13.940Z</time>
      </trkpt>
      <trkpt lat="47.84835" lon="6.93002">
        <ele>1147</ele>
        <time>2026-05-09T07:09:14.939Z</time>
      </trkpt>
      <trkpt lat="47.84835" lon="6.93">
        <ele>1147</ele>
        <time>2026-05-09T07:09:15.940Z</time>
      </trkpt>
      <trkpt lat="47.84835" lon="6.92998">
        <ele>1146</ele>
        <time>2026-05-09T07:09:16.939Z</time>
      </trkpt>
      <trkpt lat="47.84836" lon="6.92996">
        <ele>1146</ele>
        <time>2026-05-09T07:09:17.940Z</time>
      </trkpt>
      <trkpt lat="47.84836" lon="6.92995">
        <ele>1146</ele>
        <time>2026-05-09T07:09:18.939Z</time>
      </trkpt>
      <trkpt lat="47.84837" lon="6.92993">
        <ele>1145</ele>
        <time>2026-05-09T07:09:19.939Z</time>
      </trkpt>
      <trkpt lat="47.84837" lon="6.92992">
        <ele>1145</ele>
        <time>2026-05-09T07:09:20.940Z</time>
      </trkpt>
      <trkpt lat="47.84838" lon="6.92991">
        <ele>1145</ele>
        <time>2026-05-09T07:09:21.939Z</time>
      </trkpt>
      <trkpt lat="47.84838" lon="6.92991">
        <ele>1144</ele>
        <time>2026-05-09T07:09:22.940Z</time>
      </trkpt>
      <trkpt lat="47.84838" lon="6.9299">
        <ele>1144</ele>
        <time>2026-05-09T07:09:23.939Z</time>
      </trkpt>
      <trkpt lat="47.84838" lon="6.9299">
        <ele>1143</ele>
        <time>2026-05-09T07:09:24.940Z</time>
      </trkpt>
      <trkpt lat="47.84838" lon="6.92988">
        <ele>1143</ele>
        <time>2026-05-09T07:09:25.940Z</time>
      </trkpt>
      <trkpt lat="47.84839" lon="6.92987">
        <ele>1143</ele>
        <time>2026-05-09T07:09:26.939Z</time>
      </trkpt>
      <trkpt lat="47.84839" lon="6.92985">
        <ele>1142</ele>
        <time>2026-05-09T07:09:27.940Z</time>
      </trkpt>
      <trkpt lat="47.8484" lon="6.92983">
        <ele>1142</ele>
        <time>2026-05-09T07:09:28.939Z</time>
      </trkpt>
      <trkpt lat="47.8484" lon="6.92982">
        <ele>1142</ele>
        <time>2026-05-09T07:09:29.940Z</time>
      </trkpt>
      <trkpt lat="47.8484" lon="6.9298">
        <ele>1142</ele>
        <time>2026-05-09T07:09:30.939Z</time>
      </trkpt>
      <trkpt lat="47.8484" lon="6.92978">
        <ele>1141</ele>
        <time>2026-05-09T07:09:31.940Z</time>
      </trkpt>
      <trkpt lat="47.8484" lon="6.92976">
        <ele>1141</ele>
        <time>2026-05-09T07:09:32.939Z</time>
      </trkpt>
      <trkpt lat="47.8484" lon="6.92975">
        <ele>1141</ele>
        <time>2026-05-09T07:09:33.939Z</time>
      </trkpt>
      <trkpt lat="47.8484" lon="6.92973">
        <ele>1141</ele>
        <time>2026-05-09T07:09:34.939Z</time>
      </trkpt>
      <trkpt lat="47.8484" lon="6.92971">
        <ele>1141</ele>
        <time>2026-05-09T07:09:35.940Z</time>
      </trkpt>
      <trkpt lat="47.84839" lon="6.92969">
        <ele>1141</ele>
        <time>2026-05-09T07:09:36.939Z</time>
      </trkpt>
      <trkpt lat="47.84839" lon="6.92968">
        <ele>1141</ele>
        <time>2026-05-09T07:09:37.939Z</time>
      </trkpt>
      <trkpt lat="47.84839" lon="6.92966">
        <ele>1141</ele>
        <time>2026-05-09T07:09:38.939Z</time>
      </trkpt>
      <trkpt lat="47.84839" lon="6.92964">
        <ele>1140</ele>
        <time>2026-05-09T07:09:39.940Z</time>
      </trkpt>
      <trkpt lat="47.8484" lon="6.92962">
        <ele>1140</ele>
        <time>2026-05-09T07:09:40.939Z</time>
      </trkpt>
      <trkpt lat="47.8484" lon="6.9296">
        <ele>1140</ele>
        <time>2026-05-09T07:09:41.940Z</time>
      </trkpt>
      <trkpt lat="47.84842" lon="6.92958">
        <ele>1140</ele>
        <time>2026-05-09T07:09:42.940Z</time>
      </trkpt>
      <trkpt lat="47.84843" lon="6.92956">
        <ele>1139</ele>
        <time>2026-05-09T07:09:43.939Z</time>
      </trkpt>
      <trkpt lat="47.84844" lon="6.92954">
        <ele>1139</ele>
        <time>2026-05-09T07:09:44.940Z</time>
      </trkpt>
      <trkpt lat="47.84845" lon="6.92953">
        <ele>1139</ele>
        <time>2026-05-09T07:09:45.940Z</time>
      </trkpt>
      <trkpt lat="47.84845" lon="6.92951">
        <ele>1138</ele>
        <time>2026-05-09T07:09:46.939Z</time>
      </trkpt>
      <trkpt lat="47.84846" lon="6.92948">
        <ele>1138</ele>
        <time>2026-05-09T07:09:47.940Z</time>
      </trkpt>
      <trkpt lat="47.84846" lon="6.92946">
        <ele>1137</ele>
        <time>2026-05-09T07:09:48.940Z</time>
      </trkpt>
      <trkpt lat="47.84847" lon="6.92944">
        <ele>1137</ele>
        <time>2026-05-09T07:09:49.940Z</time>
      </trkpt>
      <trkpt lat="47.84847" lon="6.92941">
        <ele>1137</ele>
        <time>2026-05-09T07:09:50.939Z</time>
      </trkpt>
      <trkpt lat="47.84848" lon="6.92939">
        <ele>1136</ele>
        <time>2026-05-09T07:09:51.939Z</time>
      </trkpt>
      <trkpt lat="47.84849" lon="6.92937">
        <ele>1136</ele>
        <time>2026-05-09T07:09:52.939Z</time>
      </trkpt>
      <trkpt lat="47.84849" lon="6.92934">
        <ele>1136</ele>
        <time>2026-05-09T07:09:53.940Z</time>
      </trkpt>
      <trkpt lat="47.84849" lon="6.92932">
        <ele>1135</ele>
        <time>2026-05-09T07:09:54.939Z</time>
      </trkpt>
      <trkpt lat="47.84849" lon="6.9293">
        <ele>1135</ele>
        <time>2026-05-09T07:09:55.940Z</time>
      </trkpt>
      <trkpt lat="47.84849" lon="6.92928">
        <ele>1134</ele>
        <time>2026-05-09T07:09:56.940Z</time>
      </trkpt>
      <trkpt lat="47.84849" lon="6.92925">
        <ele>1134</ele>
        <time>2026-05-09T07:09:57.940Z</time>
      </trkpt>
      <trkpt lat="47.8485" lon="6.92923">
        <ele>1133</ele>
        <time>2026-05-09T07:09:58.939Z</time>
      </trkpt>
      <trkpt lat="47.8485" lon="6.9292">
        <ele>1133</ele>
        <time>2026-05-09T07:09:59.940Z</time>
      </trkpt>
      <trkpt lat="47.84851" lon="6.92917">
        <ele>1132</ele>
        <time>2026-05-09T07:10:00.940Z</time>
      </trkpt>
      <trkpt lat="47.84852" lon="6.92914">
        <ele>1132</ele>
        <time>2026-05-09T07:10:01.940Z</time>
      </trkpt>
      <trkpt lat="47.84853" lon="6.92912">
        <ele>1132</ele>
        <time>2026-05-09T07:10:02.940Z</time>
      </trkpt>
      <trkpt lat="47.84854" lon="6.9291">
        <ele>1131</ele>
        <time>2026-05-09T07:10:03.940Z</time>
      </trkpt>
      <trkpt lat="47.84854" lon="6.92908">
        <ele>1131</ele>
        <time>2026-05-09T07:10:04.940Z</time>
      </trkpt>
      <trkpt lat="47.84855" lon="6.92905">
        <ele>1130</ele>
        <time>2026-05-09T07:10:05.939Z</time>
      </trkpt>
      <trkpt lat="47.84855" lon="6.92903">
        <ele>1130</ele>
        <time>2026-05-09T07:10:06.939Z</time>
      </trkpt>
      <trkpt lat="47.84856" lon="6.92901">
        <ele>1129</ele>
        <time>2026-05-09T07:10:07.939Z</time>
      </trkpt>
      <trkpt lat="47.84856" lon="6.92898">
        <ele>1129</ele>
        <time>2026-05-09T07:10:08.939Z</time>
      </trkpt>
      <trkpt lat="47.84856" lon="6.92897">
        <ele>1128</ele>
        <time>2026-05-09T07:10:09.939Z</time>
      </trkpt>
      <trkpt lat="47.84857" lon="6.92894">
        <ele>1128</ele>
        <time>2026-05-09T07:10:10.939Z</time>
      </trkpt>
      <trkpt lat="47.84857" lon="6.92892">
        <ele>1127</ele>
        <time>2026-05-09T07:10:11.939Z</time>
      </trkpt>
      <trkpt lat="47.84857" lon="6.9289">
        <ele>1127</ele>
        <time>2026-05-09T07:10:12.939Z</time>
      </trkpt>
      <trkpt lat="47.84858" lon="6.92888">
        <ele>1127</ele>
        <time>2026-05-09T07:10:13.939Z</time>
      </trkpt>
      <trkpt lat="47.84858" lon="6.92886">
        <ele>1126</ele>
        <time>2026-05-09T07:10:14.939Z</time>
      </trkpt>
      <trkpt lat="47.84859" lon="6.92884">
        <ele>1126</ele>
        <time>2026-05-09T07:10:15.939Z</time>
      </trkpt>
      <trkpt lat="47.8486" lon="6.92882">
        <ele>1126</ele>
        <time>2026-05-09T07:10:16.939Z</time>
      </trkpt>
      <trkpt lat="47.8486" lon="6.9288">
        <ele>1125</ele>
        <time>2026-05-09T07:10:17.940Z</time>
      </trkpt>
      <trkpt lat="47.84861" lon="6.92878">
        <ele>1125</ele>
        <time>2026-05-09T07:10:18.940Z</time>
      </trkpt>
      <trkpt lat="47.84861" lon="6.92875">
        <ele>1125</ele>
        <time>2026-05-09T07:10:19.939Z</time>
      </trkpt>
      <trkpt lat="47.84862" lon="6.92873">
        <ele>1124</ele>
        <time>2026-05-09T07:10:20.940Z</time>
      </trkpt>
      <trkpt lat="47.84862" lon="6.9287">
        <ele>1124</ele>
        <time>2026-05-09T07:10:21.940Z</time>
      </trkpt>
      <trkpt lat="47.84862" lon="6.92868">
        <ele>1124</ele>
        <time>2026-05-09T07:10:22.940Z</time>
      </trkpt>
      <trkpt lat="47.84863" lon="6.92866">
        <ele>1124</ele>
        <time>2026-05-09T07:10:23.939Z</time>
      </trkpt>
      <trkpt lat="47.84863" lon="6.92863">
        <ele>1124</ele>
        <time>2026-05-09T07:10:24.940Z</time>
      </trkpt>
      <trkpt lat="47.84863" lon="6.92861">
        <ele>1124</ele>
        <time>2026-05-09T07:10:25.939Z</time>
      </trkpt>
      <trkpt lat="47.84863" lon="6.9286">
        <ele>1123</ele>
        <time>2026-05-09T07:10:26.939Z</time>
      </trkpt>
      <trkpt lat="47.84863" lon="6.92858">
        <ele>1123</ele>
        <time>2026-05-09T07:10:27.939Z</time>
      </trkpt>
      <trkpt lat="47.84862" lon="6.92856">
        <ele>1123</ele>
        <time>2026-05-09T07:10:28.939Z</time>
      </trkpt>
      <trkpt lat="47.84862" lon="6.92854">
        <ele>1123</ele>
        <time>2026-05-09T07:10:29.940Z</time>
      </trkpt>
      <trkpt lat="47.84862" lon="6.92852">
        <ele>1122</ele>
        <time>2026-05-09T07:10:30.940Z</time>
      </trkpt>
      <trkpt lat="47.84861" lon="6.9285">
        <ele>1122</ele>
        <time>2026-05-09T07:10:31.939Z</time>
      </trkpt>
      <trkpt lat="47.84861" lon="6.92848">
        <ele>1122</ele>
        <time>2026-05-09T07:10:32.940Z</time>
      </trkpt>
      <trkpt lat="47.84861" lon="6.92845">
        <ele>1122</ele>
        <time>2026-05-09T07:10:33.939Z</time>
      </trkpt>
      <trkpt lat="47.84861" lon="6.92843">
        <ele>1122</ele>
        <time>2026-05-09T07:10:34.939Z</time>
      </trkpt>
      <trkpt lat="47.84861" lon="6.92841">
        <ele>1122</ele>
        <time>2026-05-09T07:10:35.939Z</time>
      </trkpt>
      <trkpt lat="47.84861" lon="6.9284">
        <ele>1122</ele>
        <time>2026-05-09T07:10:36.940Z</time>
      </trkpt>
      <trkpt lat="47.84861" lon="6.92838">
        <ele>1122</ele>
        <time>2026-05-09T07:10:37.940Z</time>
      </trkpt>
      <trkpt lat="47.84861" lon="6.92837">
        <ele>1122</ele>
        <time>2026-05-09T07:10:38.940Z</time>
      </trkpt>
      <trkpt lat="47.84861" lon="6.92835">
        <ele>1122</ele>
        <time>2026-05-09T07:10:39.939Z</time>
      </trkpt>
      <trkpt lat="47.8486" lon="6.92833">
        <ele>1122</ele>
        <time>2026-05-09T07:10:40.940Z</time>
      </trkpt>
      <trkpt lat="47.8486" lon="6.92831">
        <ele>1122</ele>
        <time>2026-05-09T07:10:41.940Z</time>
      </trkpt>
      <trkpt lat="47.8486" lon="6.92829">
        <ele>1122</ele>
        <time>2026-05-09T07:10:42.940Z</time>
      </trkpt>
      <trkpt lat="47.84859" lon="6.92826">
        <ele>1122</ele>
        <time>2026-05-09T07:10:43.940Z</time>
      </trkpt>
      <trkpt lat="47.84858" lon="6.92823">
        <ele>1122</ele>
        <time>2026-05-09T07:10:44.940Z</time>
      </trkpt>
      <trkpt lat="47.84858" lon="6.92822">
        <ele>1121</ele>
        <time>2026-05-09T07:10:45.939Z</time>
      </trkpt>
      <trkpt lat="47.84858" lon="6.9282">
        <ele>1121</ele>
        <time>2026-05-09T07:10:46.940Z</time>
      </trkpt>
      <trkpt lat="47.84857" lon="6.92818">
        <ele>1121</ele>
        <time>2026-05-09T07:10:47.940Z</time>
      </trkpt>
      <trkpt lat="47.84857" lon="6.92816">
        <ele>1121</ele>
        <time>2026-05-09T07:10:48.940Z</time>
      </trkpt>
      <trkpt lat="47.84857" lon="6.92814">
        <ele>1120</ele>
        <time>2026-05-09T07:10:49.939Z</time>
      </trkpt>
      <trkpt lat="47.84857" lon="6.92812">
        <ele>1120</ele>
        <time>2026-05-09T07:10:50.939Z</time>
      </trkpt>
      <trkpt lat="47.84856" lon="6.9281">
        <ele>1120</ele>
        <time>2026-05-09T07:10:51.939Z</time>
      </trkpt>
      <trkpt lat="47.84857" lon="6.92808">
        <ele>1119</ele>
        <time>2026-05-09T07:10:52.939Z</time>
      </trkpt>
      <trkpt lat="47.84857" lon="6.92806">
        <ele>1119</ele>
        <time>2026-05-09T07:10:53.940Z</time>
      </trkpt>
      <trkpt lat="47.84857" lon="6.92804">
        <ele>1118</ele>
        <time>2026-05-09T07:10:54.939Z</time>
      </trkpt>
      <trkpt lat="47.84857" lon="6.92803">
        <ele>1118</ele>
        <time>2026-05-09T07:10:55.939Z</time>
      </trkpt>
      <trkpt lat="47.84856" lon="6.928">
        <ele>1118</ele>
        <time>2026-05-09T07:10:56.939Z</time>
      </trkpt>
      <trkpt lat="47.84857" lon="6.92798">
        <ele>1118</ele>
        <time>2026-05-09T07:10:57.940Z</time>
      </trkpt>
      <trkpt lat="47.84857" lon="6.92797">
        <ele>1118</ele>
        <time>2026-05-09T07:10:58.940Z</time>
      </trkpt>
      <trkpt lat="47.84857" lon="6.92794">
        <ele>1118</ele>
        <time>2026-05-09T07:10:59.940Z</time>
      </trkpt>
      <trkpt lat="47.84857" lon="6.92792">
        <ele>1118</ele>
        <time>2026-05-09T07:11:00.940Z</time>
      </trkpt>
      <trkpt lat="47.84857" lon="6.9279">
        <ele>1118</ele>
        <time>2026-05-09T07:11:01.939Z</time>
      </trkpt>
      <trkpt lat="47.84857" lon="6.92788">
        <ele>1118</ele>
        <time>2026-05-09T07:11:02.940Z</time>
      </trkpt>
      <trkpt lat="47.84856" lon="6.92786">
        <ele>1118</ele>
        <time>2026-05-09T07:11:03.939Z</time>
      </trkpt>
      <trkpt lat="47.84856" lon="6.92785">
        <ele>1118</ele>
        <time>2026-05-09T07:11:04.939Z</time>
      </trkpt>
      <trkpt lat="47.84855" lon="6.92783">
        <ele>1117</ele>
        <time>2026-05-09T07:11:05.940Z</time>
      </trkpt>
      <trkpt lat="47.84855" lon="6.92781">
        <ele>1117</ele>
        <time>2026-05-09T07:11:06.940Z</time>
      </trkpt>
      <trkpt lat="47.84856" lon="6.9278">
        <ele>1117</ele>
        <time>2026-05-09T07:11:07.939Z</time>
      </trkpt>
      <trkpt lat="47.84856" lon="6.92778">
        <ele>1117</ele>
        <time>2026-05-09T07:11:08.939Z</time>
      </trkpt>
      <trkpt lat="47.84855" lon="6.92774">
        <ele>1117</ele>
        <time>2026-05-09T07:11:09.940Z</time>
      </trkpt>
      <trkpt lat="47.84855" lon="6.92772">
        <ele>1116</ele>
        <time>2026-05-09T07:11:10.939Z</time>
      </trkpt>
      <trkpt lat="47.84856" lon="6.92769">
        <ele>1116</ele>
        <time>2026-05-09T07:11:11.939Z</time>
      </trkpt>
      <trkpt lat="47.84856" lon="6.92767">
        <ele>1115</ele>
        <time>2026-05-09T07:11:12.939Z</time>
      </trkpt>
      <trkpt lat="47.84856" lon="6.92765">
        <ele>1115</ele>
        <time>2026-05-09T07:11:13.940Z</time>
      </trkpt>
      <trkpt lat="47.84856" lon="6.92763">
        <ele>1114</ele>
        <time>2026-05-09T07:11:14.939Z</time>
      </trkpt>
      <trkpt lat="47.84856" lon="6.92761">
        <ele>1114</ele>
        <time>2026-05-09T07:11:15.940Z</time>
      </trkpt>
      <trkpt lat="47.84856" lon="6.92759">
        <ele>1114</ele>
        <time>2026-05-09T07:11:16.939Z</time>
      </trkpt>
      <trkpt lat="47.84855" lon="6.92756">
        <ele>1114</ele>
        <time>2026-05-09T07:11:17.939Z</time>
      </trkpt>
      <trkpt lat="47.84854" lon="6.92754">
        <ele>1114</ele>
        <time>2026-05-09T07:11:18.939Z</time>
      </trkpt>
      <trkpt lat="47.84854" lon="6.92752">
        <ele>1113</ele>
        <time>2026-05-09T07:11:19.940Z</time>
      </trkpt>
      <trkpt lat="47.84853" lon="6.92751">
        <ele>1113</ele>
        <time>2026-05-09T07:11:20.939Z</time>
      </trkpt>
      <trkpt lat="47.84853" lon="6.92749">
        <ele>1113</ele>
        <time>2026-05-09T07:11:21.940Z</time>
      </trkpt>
      <trkpt lat="47.84853" lon="6.92747">
        <ele>1113</ele>
        <time>2026-05-09T07:11:22.939Z</time>
      </trkpt>
      <trkpt lat="47.84853" lon="6.92744">
        <ele>1113</ele>
        <time>2026-05-09T07:11:23.939Z</time>
      </trkpt>
      <trkpt lat="47.84852" lon="6.92741">
        <ele>1113</ele>
        <time>2026-05-09T07:11:24.939Z</time>
      </trkpt>
      <trkpt lat="47.84852" lon="6.92738">
        <ele>1113</ele>
        <time>2026-05-09T07:11:25.939Z</time>
      </trkpt>
      <trkpt lat="47.84852" lon="6.92735">
        <ele>1112</ele>
        <time>2026-05-09T07:11:26.939Z</time>
      </trkpt>
      <trkpt lat="47.84851" lon="6.92732">
        <ele>1112</ele>
        <time>2026-05-09T07:11:27.939Z</time>
      </trkpt>
      <trkpt lat="47.8485" lon="6.92729">
        <ele>1112</ele>
        <time>2026-05-09T07:11:28.940Z</time>
      </trkpt>
      <trkpt lat="47.84849" lon="6.92726">
        <ele>1112</ele>
        <time>2026-05-09T07:11:29.940Z</time>
      </trkpt>
      <trkpt lat="47.84849" lon="6.92724">
        <ele>1112</ele>
        <time>2026-05-09T07:11:30.939Z</time>
      </trkpt>
      <trkpt lat="47.84848" lon="6.92722">
        <ele>1112</ele>
        <time>2026-05-09T07:11:31.940Z</time>
      </trkpt>
      <trkpt lat="47.84847" lon="6.92721">
        <ele>1112</ele>
        <time>2026-05-09T07:11:32.939Z</time>
      </trkpt>
      <trkpt lat="47.84846" lon="6.92719">
        <ele>1112</ele>
        <time>2026-05-09T07:11:33.939Z</time>
      </trkpt>
      <trkpt lat="47.84846" lon="6.92717">
        <ele>1112</ele>
        <time>2026-05-09T07:11:34.939Z</time>
      </trkpt>
      <trkpt lat="47.84847" lon="6.92714">
        <ele>1112</ele>
        <time>2026-05-09T07:11:35.939Z</time>
      </trkpt>
      <trkpt lat="47.84848" lon="6.92712">
        <ele>1112</ele>
        <time>2026-05-09T07:11:36.939Z</time>
      </trkpt>
      <trkpt lat="47.84847" lon="6.92711">
        <ele>1111</ele>
        <time>2026-05-09T07:11:37.939Z</time>
      </trkpt>
      <trkpt lat="47.84847" lon="6.92708">
        <ele>1111</ele>
        <time>2026-05-09T07:11:38.939Z</time>
      </trkpt>
      <trkpt lat="47.84849" lon="6.92704">
        <ele>1110</ele>
        <time>2026-05-09T07:11:39.940Z</time>
      </trkpt>
      <trkpt lat="47.8485" lon="6.92702">
        <ele>1110</ele>
        <time>2026-05-09T07:11:40.940Z</time>
      </trkpt>
      <trkpt lat="47.84849" lon="6.92699">
        <ele>1109</ele>
        <time>2026-05-09T07:11:41.939Z</time>
      </trkpt>
      <trkpt lat="47.84848" lon="6.92697">
        <ele>1109</ele>
        <time>2026-05-09T07:11:42.939Z</time>
      </trkpt>
      <trkpt lat="47.84847" lon="6.92696">
        <ele>1109</ele>
        <time>2026-05-09T07:11:43.939Z</time>
      </trkpt>
      <trkpt lat="47.84847" lon="6.92696">
        <ele>1108</ele>
        <time>2026-05-09T07:11:44.940Z</time>
      </trkpt>
      <trkpt lat="47.84845" lon="6.92688">
        <ele>1113</ele>
        <time>2026-05-09T07:13:14.234Z</time>
      </trkpt>
      <trkpt lat="47.84846" lon="6.92687">
        <ele>1113</ele>
        <time>2026-05-09T07:13:15.234Z</time>
      </trkpt>
      <trkpt lat="47.84845" lon="6.92686">
        <ele>1113</ele>
        <time>2026-05-09T07:13:16.235Z</time>
      </trkpt>
      <trkpt lat="47.84845" lon="6.92685">
        <ele>1113</ele>
        <time>2026-05-09T07:13:17.234Z</time>
      </trkpt>
      <trkpt lat="47.84845" lon="6.92683">
        <ele>1112</ele>
        <time>2026-05-09T07:13:18.235Z</time>
      </trkpt>
      <trkpt lat="47.84845" lon="6.92683">
        <ele>1112</ele>
        <time>2026-05-09T07:13:19.234Z</time>
      </trkpt>
      <trkpt lat="47.84846" lon="6.92682">
        <ele>1112</ele>
        <time>2026-05-09T07:13:20.235Z</time>
      </trkpt>
      <trkpt lat="47.84846" lon="6.92681">
        <ele>1111</ele>
        <time>2026-05-09T07:13:21.234Z</time>
      </trkpt>
      <trkpt lat="47.84846" lon="6.92679">
        <ele>1111</ele>
        <time>2026-05-09T07:13:22.235Z</time>
      </trkpt>
      <trkpt lat="47.84846" lon="6.92677">
        <ele>1111</ele>
        <time>2026-05-09T07:13:23.234Z</time>
      </trkpt>
      <trkpt lat="47.84846" lon="6.92676">
        <ele>1110</ele>
        <time>2026-05-09T07:13:24.234Z</time>
      </trkpt>
      <trkpt lat="47.84847" lon="6.92674">
        <ele>1110</ele>
        <time>2026-05-09T07:13:25.234Z</time>
      </trkpt>
      <trkpt lat="47.84847" lon="6.92673">
        <ele>1110</ele>
        <time>2026-05-09T07:13:26.235Z</time>
      </trkpt>
      <trkpt lat="47.84847" lon="6.92672">
        <ele>1110</ele>
        <time>2026-05-09T07:13:27.234Z</time>
      </trkpt>
      <trkpt lat="47.84847" lon="6.92671">
        <ele>1110</ele>
        <time>2026-05-09T07:13:28.234Z</time>
      </trkpt>
      <trkpt lat="47.84847" lon="6.92669">
        <ele>1110</ele>
        <time>2026-05-09T07:13:29.234Z</time>
      </trkpt>
      <trkpt lat="47.84848" lon="6.92668">
        <ele>1110</ele>
        <time>2026-05-09T07:13:30.234Z</time>
      </trkpt>
      <trkpt lat="47.84848" lon="6.92667">
        <ele>1110</ele>
        <time>2026-05-09T07:13:31.235Z</time>
      </trkpt>
      <trkpt lat="47.84848" lon="6.92664">
        <ele>1109</ele>
        <time>2026-05-09T07:13:32.234Z</time>
      </trkpt>
      <trkpt lat="47.84848" lon="6.92662">
        <ele>1109</ele>
        <time>2026-05-09T07:13:33.234Z</time>
      </trkpt>
      <trkpt lat="47.84849" lon="6.9266">
        <ele>1109</ele>
        <time>2026-05-09T07:13:34.234Z</time>
      </trkpt>
      <trkpt lat="47.84849" lon="6.92658">
        <ele>1109</ele>
        <time>2026-05-09T07:13:35.235Z</time>
      </trkpt>
      <trkpt lat="47.8485" lon="6.92656">
        <ele>1108</ele>
        <time>2026-05-09T07:13:36.234Z</time>
      </trkpt>
      <trkpt lat="47.8485" lon="6.92655">
        <ele>1109</ele>
        <time>2026-05-09T07:13:37.234Z</time>
      </trkpt>
      <trkpt lat="47.8485" lon="6.92653">
        <ele>1109</ele>
        <time>2026-05-09T07:13:38.234Z</time>
      </trkpt>
      <trkpt lat="47.84849" lon="6.92652">
        <ele>1109</ele>
        <time>2026-05-09T07:13:39.234Z</time>
      </trkpt>
      <trkpt lat="47.8485" lon="6.9265">
        <ele>1109</ele>
        <time>2026-05-09T07:13:40.234Z</time>
      </trkpt>
      <trkpt lat="47.8485" lon="6.92649">
        <ele>1109</ele>
        <time>2026-05-09T07:13:41.234Z</time>
      </trkpt>
      <trkpt lat="47.8485" lon="6.92647">
        <ele>1108</ele>
        <time>2026-05-09T07:13:42.234Z</time>
      </trkpt>
      <trkpt lat="47.84851" lon="6.92645">
        <ele>1108</ele>
        <time>2026-05-09T07:13:43.234Z</time>
      </trkpt>
      <trkpt lat="47.84852" lon="6.92644">
        <ele>1108</ele>
        <time>2026-05-09T07:13:44.235Z</time>
      </trkpt>
      <trkpt lat="47.84852" lon="6.92642">
        <ele>1108</ele>
        <time>2026-05-09T07:13:45.234Z</time>
      </trkpt>
      <trkpt lat="47.84853" lon="6.92641">
        <ele>1108</ele>
        <time>2026-05-09T07:13:46.234Z</time>
      </trkpt>
      <trkpt lat="47.84854" lon="6.9264">
        <ele>1108</ele>
        <time>2026-05-09T07:13:47.234Z</time>
      </trkpt>
      <trkpt lat="47.84854" lon="6.92639">
        <ele>1108</ele>
        <time>2026-05-09T07:13:48.234Z</time>
      </trkpt>
      <trkpt lat="47.84854" lon="6.92637">
        <ele>1108</ele>
        <time>2026-05-09T07:13:49.234Z</time>
      </trkpt>
      <trkpt lat="47.84854" lon="6.92635">
        <ele>1108</ele>
        <time>2026-05-09T07:13:50.235Z</time>
      </trkpt>
      <trkpt lat="47.84854" lon="6.92634">
        <ele>1108</ele>
        <time>2026-05-09T07:13:51.235Z</time>
      </trkpt>
      <trkpt lat="47.84855" lon="6.92633">
        <ele>1108</ele>
        <time>2026-05-09T07:13:52.235Z</time>
      </trkpt>
      <trkpt lat="47.84855" lon="6.92631">
        <ele>1108</ele>
        <time>2026-05-09T07:13:53.234Z</time>
      </trkpt>
      <trkpt lat="47.84854" lon="6.92628">
        <ele>1108</ele>
        <time>2026-05-09T07:13:54.235Z</time>
      </trkpt>
      <trkpt lat="47.84854" lon="6.92627">
        <ele>1108</ele>
        <time>2026-05-09T07:13:55.234Z</time>
      </trkpt>
      <trkpt lat="47.84854" lon="6.92625">
        <ele>1109</ele>
        <time>2026-05-09T07:13:56.234Z</time>
      </trkpt>
      <trkpt lat="47.84854" lon="6.92624">
        <ele>1109</ele>
        <time>2026-05-09T07:13:57.234Z</time>
      </trkpt>
      <trkpt lat="47.84854" lon="6.92622">
        <ele>1109</ele>
        <time>2026-05-09T07:13:58.234Z</time>
      </trkpt>
      <trkpt lat="47.84854" lon="6.9262">
        <ele>1109</ele>
        <time>2026-05-09T07:13:59.235Z</time>
      </trkpt>
      <trkpt lat="47.84854" lon="6.92618">
        <ele>1109</ele>
        <time>2026-05-09T07:14:00.235Z</time>
      </trkpt>
      <trkpt lat="47.84854" lon="6.92616">
        <ele>1109</ele>
        <time>2026-05-09T07:14:01.235Z</time>
      </trkpt>
      <trkpt lat="47.84854" lon="6.92614">
        <ele>1109</ele>
        <time>2026-05-09T07:14:02.234Z</time>
      </trkpt>
      <trkpt lat="47.84854" lon="6.92612">
        <ele>1109</ele>
        <time>2026-05-09T07:14:03.235Z</time>
      </trkpt>
      <trkpt lat="47.84854" lon="6.92611">
        <ele>1109</ele>
        <time>2026-05-09T07:14:04.234Z</time>
      </trkpt>
      <trkpt lat="47.84854" lon="6.92609">
        <ele>1109</ele>
        <time>2026-05-09T07:14:05.234Z</time>
      </trkpt>
      <trkpt lat="47.84854" lon="6.92607">
        <ele>1108</ele>
        <time>2026-05-09T07:14:06.234Z</time>
      </trkpt>
      <trkpt lat="47.84854" lon="6.92605">
        <ele>1108</ele>
        <time>2026-05-09T07:14:07.234Z</time>
      </trkpt>
      <trkpt lat="47.84855" lon="6.92604">
        <ele>1108</ele>
        <time>2026-05-09T07:14:08.234Z</time>
      </trkpt>
      <trkpt lat="47.84855" lon="6.92602">
        <ele>1108</ele>
        <time>2026-05-09T07:14:09.234Z</time>
      </trkpt>
      <trkpt lat="47.84855" lon="6.926">
        <ele>1108</ele>
        <time>2026-05-09T07:14:10.235Z</time>
      </trkpt>
      <trkpt lat="47.84855" lon="6.92599">
        <ele>1107</ele>
        <time>2026-05-09T07:14:11.235Z</time>
      </trkpt>
      <trkpt lat="47.84855" lon="6.92596">
        <ele>1107</ele>
        <time>2026-05-09T07:14:12.234Z</time>
      </trkpt>
      <trkpt lat="47.84855" lon="6.92593">
        <ele>1107</ele>
        <time>2026-05-09T07:14:13.234Z</time>
      </trkpt>
      <trkpt lat="47.84854" lon="6.9259">
        <ele>1107</ele>
        <time>2026-05-09T07:14:14.234Z</time>
      </trkpt>
      <trkpt lat="47.84853" lon="6.92588">
        <ele>1107</ele>
        <time>2026-05-09T07:14:15.234Z</time>
      </trkpt>
      <trkpt lat="47.84852" lon="6.92586">
        <ele>1107</ele>
        <time>2026-05-09T07:14:16.234Z</time>
      </trkpt>
      <trkpt lat="47.84852" lon="6.92584">
        <ele>1107</ele>
        <time>2026-05-09T07:14:17.234Z</time>
      </trkpt>
      <trkpt lat="47.84851" lon="6.92582">
        <ele>1106</ele>
        <time>2026-05-09T07:14:18.235Z</time>
      </trkpt>
      <trkpt lat="47.84851" lon="6.92579">
        <ele>1106</ele>
        <time>2026-05-09T07:14:19.234Z</time>
      </trkpt>
      <trkpt lat="47.84851" lon="6.92577">
        <ele>1105</ele>
        <time>2026-05-09T07:14:20.234Z</time>
      </trkpt>
      <trkpt lat="47.84851" lon="6.92575">
        <ele>1105</ele>
        <time>2026-05-09T07:14:21.234Z</time>
      </trkpt>
      <trkpt lat="47.84851" lon="6.92574">
        <ele>1104</ele>
        <time>2026-05-09T07:14:22.235Z</time>
      </trkpt>
      <trkpt lat="47.8485" lon="6.92573">
        <ele>1104</ele>
        <time>2026-05-09T07:14:23.235Z</time>
      </trkpt>
      <trkpt lat="47.8485" lon="6.92571">
        <ele>1103</ele>
        <time>2026-05-09T07:14:24.234Z</time>
      </trkpt>
      <trkpt lat="47.84849" lon="6.9257">
        <ele>1103</ele>
        <time>2026-05-09T07:14:25.235Z</time>
      </trkpt>
      <trkpt lat="47.84848" lon="6.92568">
        <ele>1102</ele>
        <time>2026-05-09T07:14:26.235Z</time>
      </trkpt>
      <trkpt lat="47.84848" lon="6.92567">
        <ele>1102</ele>
        <time>2026-05-09T07:14:27.234Z</time>
      </trkpt>
      <trkpt lat="47.84848" lon="6.92565">
        <ele>1102</ele>
        <time>2026-05-09T07:14:28.234Z</time>
      </trkpt>
      <trkpt lat="47.84848" lon="6.92564">
        <ele>1102</ele>
        <time>2026-05-09T07:14:29.234Z</time>
      </trkpt>
      <trkpt lat="47.84847" lon="6.92562">
        <ele>1102</ele>
        <time>2026-05-09T07:14:30.235Z</time>
      </trkpt>
      <trkpt lat="47.84846" lon="6.92561">
        <ele>1102</ele>
        <time>2026-05-09T07:14:31.234Z</time>
      </trkpt>
      <trkpt lat="47.84846" lon="6.92559">
        <ele>1102</ele>
        <time>2026-05-09T07:14:32.234Z</time>
      </trkpt>
      <trkpt lat="47.84845" lon="6.92558">
        <ele>1101</ele>
        <time>2026-05-09T07:14:33.234Z</time>
      </trkpt>
      <trkpt lat="47.84845" lon="6.92557">
        <ele>1101</ele>
        <time>2026-05-09T07:14:34.235Z</time>
      </trkpt>
      <trkpt lat="47.84844" lon="6.92555">
        <ele>1101</ele>
        <time>2026-05-09T07:14:35.235Z</time>
      </trkpt>
      <trkpt lat="47.84843" lon="6.92553">
        <ele>1101</ele>
        <time>2026-05-09T07:14:36.235Z</time>
      </trkpt>
      <trkpt lat="47.84843" lon="6.92551">
        <ele>1100</ele>
        <time>2026-05-09T07:14:37.234Z</time>
      </trkpt>
      <trkpt lat="47.84842" lon="6.9255">
        <ele>1100</ele>
        <time>2026-05-09T07:14:38.235Z</time>
      </trkpt>
      <trkpt lat="47.8484" lon="6.9255">
        <ele>1099</ele>
        <time>2026-05-09T07:14:39.234Z</time>
      </trkpt>
      <trkpt lat="47.84839" lon="6.9255">
        <ele>1099</ele>
        <time>2026-05-09T07:14:40.234Z</time>
      </trkpt>
      <trkpt lat="47.84838" lon="6.92549">
        <ele>1099</ele>
        <time>2026-05-09T07:14:41.234Z</time>
      </trkpt>
      <trkpt lat="47.84837" lon="6.92548">
        <ele>1098</ele>
        <time>2026-05-09T07:14:42.235Z</time>
      </trkpt>
      <trkpt lat="47.84837" lon="6.92547">
        <ele>1098</ele>
        <time>2026-05-09T07:14:43.235Z</time>
      </trkpt>
      <trkpt lat="47.84836" lon="6.92546">
        <ele>1097</ele>
        <time>2026-05-09T07:14:44.234Z</time>
      </trkpt>
      <trkpt lat="47.84836" lon="6.92545">
        <ele>1096</ele>
        <time>2026-05-09T07:14:45.235Z</time>
      </trkpt>
      <trkpt lat="47.84835" lon="6.92545">
        <ele>1095</ele>
        <time>2026-05-09T07:14:46.235Z</time>
      </trkpt>
      <trkpt lat="47.84834" lon="6.92544">
        <ele>1094</ele>
        <time>2026-05-09T07:14:47.234Z</time>
      </trkpt>
      <trkpt lat="47.84833" lon="6.92544">
        <ele>1094</ele>
        <time>2026-05-09T07:14:48.234Z</time>
      </trkpt>
      <trkpt lat="47.84832" lon="6.92543">
        <ele>1093</ele>
        <time>2026-05-09T07:14:49.235Z</time>
      </trkpt>
      <trkpt lat="47.84832" lon="6.92542">
        <ele>1092</ele>
        <time>2026-05-09T07:14:50.234Z</time>
      </trkpt>
      <trkpt lat="47.8483" lon="6.9254">
        <ele>1092</ele>
        <time>2026-05-09T07:14:51.234Z</time>
      </trkpt>
      <trkpt lat="47.84829" lon="6.92539">
        <ele>1091</ele>
        <time>2026-05-09T07:14:52.235Z</time>
      </trkpt>
      <trkpt lat="47.84828" lon="6.92538">
        <ele>1091</ele>
        <time>2026-05-09T07:14:53.234Z</time>
      </trkpt>
      <trkpt lat="47.84827" lon="6.92537">
        <ele>1091</ele>
        <time>2026-05-09T07:14:54.235Z</time>
      </trkpt>
      <trkpt lat="47.84826" lon="6.92535">
        <ele>1091</ele>
        <time>2026-05-09T07:14:55.234Z</time>
      </trkpt>
      <trkpt lat="47.84825" lon="6.92533">
        <ele>1091</ele>
        <time>2026-05-09T07:14:56.235Z</time>
      </trkpt>
      <trkpt lat="47.84823" lon="6.92532">
        <ele>1091</ele>
        <time>2026-05-09T07:14:57.234Z</time>
      </trkpt>
      <trkpt lat="47.84822" lon="6.9253">
        <ele>1091</ele>
        <time>2026-05-09T07:14:58.235Z</time>
      </trkpt>
      <trkpt lat="47.84821" lon="6.9253">
        <ele>1091</ele>
        <time>2026-05-09T07:14:59.234Z</time>
      </trkpt>
      <trkpt lat="47.8482" lon="6.9253">
        <ele>1091</ele>
        <time>2026-05-09T07:15:00.234Z</time>
      </trkpt>
      <trkpt lat="47.8482" lon="6.92529">
        <ele>1091</ele>
        <time>2026-05-09T07:15:01.234Z</time>
      </trkpt>
      <trkpt lat="47.8482" lon="6.92527">
        <ele>1091</ele>
        <time>2026-05-09T07:15:02.234Z</time>
      </trkpt>
      <trkpt lat="47.84821" lon="6.92526">
        <ele>1091</ele>
        <time>2026-05-09T07:15:03.234Z</time>
      </trkpt>
      <trkpt lat="47.84822" lon="6.92525">
        <ele>1091</ele>
        <time>2026-05-09T07:15:04.234Z</time>
      </trkpt>
      <trkpt lat="47.84823" lon="6.92524">
        <ele>1091</ele>
        <time>2026-05-09T07:15:05.234Z</time>
      </trkpt>
      <trkpt lat="47.84824" lon="6.92522">
        <ele>1091</ele>
        <time>2026-05-09T07:15:06.234Z</time>
      </trkpt>
      <trkpt lat="47.84826" lon="6.9252">
        <ele>1091</ele>
        <time>2026-05-09T07:15:07.234Z</time>
      </trkpt>
      <trkpt lat="47.84827" lon="6.92519">
        <ele>1091</ele>
        <time>2026-05-09T07:15:08.235Z</time>
      </trkpt>
      <trkpt lat="47.84827" lon="6.92518">
        <ele>1091</ele>
        <time>2026-05-09T07:15:09.234Z</time>
      </trkpt>
      <trkpt lat="47.84828" lon="6.92517">
        <ele>1091</ele>
        <time>2026-05-09T07:15:10.234Z</time>
      </trkpt>
      <trkpt lat="47.84829" lon="6.92516">
        <ele>1091</ele>
        <time>2026-05-09T07:15:11.234Z</time>
      </trkpt>
      <trkpt lat="47.84829" lon="6.92516">
        <ele>1091</ele>
        <time>2026-05-09T07:15:12.235Z</time>
      </trkpt>
      <trkpt lat="47.8483" lon="6.92515">
        <ele>1091</ele>
        <time>2026-05-09T07:15:13.235Z</time>
      </trkpt>
      <trkpt lat="47.84831" lon="6.92515">
        <ele>1091</ele>
        <time>2026-05-09T07:15:14.234Z</time>
      </trkpt>
      <trkpt lat="47.84832" lon="6.92514">
        <ele>1091</ele>
        <time>2026-05-09T07:15:15.235Z</time>
      </trkpt>
      <trkpt lat="47.84833" lon="6.92514">
        <ele>1091</ele>
        <time>2026-05-09T07:15:16.234Z</time>
      </trkpt>
      <trkpt lat="47.84834" lon="6.92514">
        <ele>1091</ele>
        <time>2026-05-09T07:15:17.234Z</time>
      </trkpt>
      <trkpt lat="47.84836" lon="6.92514">
        <ele>1091</ele>
        <time>2026-05-09T07:15:18.234Z</time>
      </trkpt>
      <trkpt lat="47.84837" lon="6.92514">
        <ele>1091</ele>
        <time>2026-05-09T07:15:19.235Z</time>
      </trkpt>
      <trkpt lat="47.84838" lon="6.92514">
        <ele>1091</ele>
        <time>2026-05-09T07:15:20.234Z</time>
      </trkpt>
      <trkpt lat="47.84839" lon="6.92513">
        <ele>1091</ele>
        <time>2026-05-09T07:15:21.235Z</time>
      </trkpt>
      <trkpt lat="47.8484" lon="6.92513">
        <ele>1091</ele>
        <time>2026-05-09T07:15:22.234Z</time>
      </trkpt>
      <trkpt lat="47.84841" lon="6.92514">
        <ele>1091</ele>
        <time>2026-05-09T07:15:23.234Z</time>
      </trkpt>
      <trkpt lat="47.84842" lon="6.92514">
        <ele>1091</ele>
        <time>2026-05-09T07:15:24.234Z</time>
      </trkpt>
      <trkpt lat="47.84843" lon="6.92514">
        <ele>1091</ele>
        <time>2026-05-09T07:15:25.234Z</time>
      </trkpt>
      <trkpt lat="47.84844" lon="6.92514">
        <ele>1091</ele>
        <time>2026-05-09T07:15:26.234Z</time>
      </trkpt>
      <trkpt lat="47.84845" lon="6.92513">
        <ele>1091</ele>
        <time>2026-05-09T07:15:27.234Z</time>
      </trkpt>
      <trkpt lat="47.84846" lon="6.92514">
        <ele>1091</ele>
        <time>2026-05-09T07:15:28.234Z</time>
      </trkpt>
      <trkpt lat="47.84847" lon="6.92514">
        <ele>1091</ele>
        <time>2026-05-09T07:15:29.234Z</time>
      </trkpt>
      <trkpt lat="47.84848" lon="6.92515">
        <ele>1090</ele>
        <time>2026-05-09T07:15:30.235Z</time>
      </trkpt>
      <trkpt lat="47.84849" lon="6.92515">
        <ele>1090</ele>
        <time>2026-05-09T07:15:31.235Z</time>
      </trkpt>
      <trkpt lat="47.84851" lon="6.92515">
        <ele>1091</ele>
        <time>2026-05-09T07:15:32.234Z</time>
      </trkpt>
      <trkpt lat="47.84852" lon="6.92516">
        <ele>1091</ele>
        <time>2026-05-09T07:15:33.234Z</time>
      </trkpt>
      <trkpt lat="47.84853" lon="6.92516">
        <ele>1090</ele>
        <time>2026-05-09T07:15:34.235Z</time>
      </trkpt>
      <trkpt lat="47.84853" lon="6.92516">
        <ele>1090</ele>
        <time>2026-05-09T07:15:35.234Z</time>
      </trkpt>
      <trkpt lat="47.84854" lon="6.92516">
        <ele>1090</ele>
        <time>2026-05-09T07:15:36.234Z</time>
      </trkpt>
      <trkpt lat="47.84855" lon="6.92515">
        <ele>1089</ele>
        <time>2026-05-09T07:15:37.234Z</time>
      </trkpt>
      <trkpt lat="47.84856" lon="6.92515">
        <ele>1089</ele>
        <time>2026-05-09T07:15:38.234Z</time>
      </trkpt>
      <trkpt lat="47.84857" lon="6.92514">
        <ele>1088</ele>
        <time>2026-05-09T07:15:39.234Z</time>
      </trkpt>
      <trkpt lat="47.84858" lon="6.92513">
        <ele>1088</ele>
        <time>2026-05-09T07:15:40.234Z</time>
      </trkpt>
      <trkpt lat="47.84858" lon="6.92511">
        <ele>1088</ele>
        <time>2026-05-09T07:15:41.234Z</time>
      </trkpt>
      <trkpt lat="47.84859" lon="6.9251">
        <ele>1087</ele>
        <time>2026-05-09T07:15:42.234Z</time>
      </trkpt>
      <trkpt lat="47.84859" lon="6.92508">
        <ele>1087</ele>
        <time>2026-05-09T07:15:43.234Z</time>
      </trkpt>
      <trkpt lat="47.84858" lon="6.92508">
        <ele>1087</ele>
        <time>2026-05-09T07:15:44.235Z</time>
      </trkpt>
      <trkpt lat="47.84857" lon="6.92507">
        <ele>1086</ele>
        <time>2026-05-09T07:15:45.234Z</time>
      </trkpt>
      <trkpt lat="47.84858" lon="6.92507">
        <ele>1086</ele>
        <time>2026-05-09T07:15:46.235Z</time>
      </trkpt>
      <trkpt lat="47.84858" lon="6.92506">
        <ele>1086</ele>
        <time>2026-05-09T07:15:47.235Z</time>
      </trkpt>
      <trkpt lat="47.84858" lon="6.92505">
        <ele>1086</ele>
        <time>2026-05-09T07:15:48.234Z</time>
      </trkpt>
      <trkpt lat="47.84858" lon="6.92504">
        <ele>1085</ele>
        <time>2026-05-09T07:15:49.235Z</time>
      </trkpt>
      <trkpt lat="47.84858" lon="6.92502">
        <ele>1085</ele>
        <time>2026-05-09T07:15:50.234Z</time>
      </trkpt>
      <trkpt lat="47.84858" lon="6.92502">
        <ele>1084</ele>
        <time>2026-05-09T07:15:51.234Z</time>
      </trkpt>
      <trkpt lat="47.84859" lon="6.92501">
        <ele>1084</ele>
        <time>2026-05-09T07:15:52.235Z</time>
      </trkpt>
      <trkpt lat="47.8486" lon="6.925">
        <ele>1084</ele>
        <time>2026-05-09T07:15:53.235Z</time>
      </trkpt>
      <trkpt lat="47.8486" lon="6.92499">
        <ele>1084</ele>
        <time>2026-05-09T07:15:54.234Z</time>
      </trkpt>
      <trkpt lat="47.8486" lon="6.92496">
        <ele>1084</ele>
        <time>2026-05-09T07:15:55.234Z</time>
      </trkpt>
      <trkpt lat="47.8486" lon="6.92492">
        <ele>1083</ele>
        <time>2026-05-09T07:15:56.234Z</time>
      </trkpt>
      <trkpt lat="47.8486" lon="6.9249">
        <ele>1083</ele>
        <time>2026-05-09T07:15:57.234Z</time>
      </trkpt>
      <trkpt lat="47.8486" lon="6.92487">
        <ele>1083</ele>
        <time>2026-05-09T07:15:58.234Z</time>
      </trkpt>
      <trkpt lat="47.8486" lon="6.92485">
        <ele>1083</ele>
        <time>2026-05-09T07:15:59.234Z</time>
      </trkpt>
      <trkpt lat="47.84861" lon="6.92483">
        <ele>1083</ele>
        <time>2026-05-09T07:16:00.234Z</time>
      </trkpt>
      <trkpt lat="47.84861" lon="6.92481">
        <ele>1083</ele>
        <time>2026-05-09T07:16:01.234Z</time>
      </trkpt>
      <trkpt lat="47.84861" lon="6.92479">
        <ele>1083</ele>
        <time>2026-05-09T07:16:02.234Z</time>
      </trkpt>
      <trkpt lat="47.84861" lon="6.92478">
        <ele>1083</ele>
        <time>2026-05-09T07:16:03.234Z</time>
      </trkpt>
      <trkpt lat="47.84862" lon="6.92476">
        <ele>1083</ele>
        <time>2026-05-09T07:16:04.235Z</time>
      </trkpt>
      <trkpt lat="47.84862" lon="6.92476">
        <ele>1084</ele>
        <time>2026-05-09T07:16:05.234Z</time>
      </trkpt>
      <trkpt lat="47.84862" lon="6.92476">
        <ele>1083</ele>
        <time>2026-05-09T07:16:06.234Z</time>
      </trkpt>
      <trkpt lat="47.84863" lon="6.92476">
        <ele>1083</ele>
        <time>2026-05-09T07:16:07.235Z</time>
      </trkpt>
      <trkpt lat="47.84864" lon="6.92477">
        <ele>1083</ele>
        <time>2026-05-09T07:16:08.234Z</time>
      </trkpt>
      <trkpt lat="47.84864" lon="6.92477">
        <ele>1083</ele>
        <time>2026-05-09T07:16:09.234Z</time>
      </trkpt>
      <trkpt lat="47.84864" lon="6.92476">
        <ele>1082</ele>
        <time>2026-05-09T07:16:10.234Z</time>
      </trkpt>
      <trkpt lat="47.84864" lon="6.92475">
        <ele>1082</ele>
        <time>2026-05-09T07:16:11.234Z</time>
      </trkpt>
      <trkpt lat="47.84863" lon="6.92474">
        <ele>1082</ele>
        <time>2026-05-09T07:16:12.234Z</time>
      </trkpt>
      <trkpt lat="47.84863" lon="6.92472">
        <ele>1082</ele>
        <time>2026-05-09T07:16:13.235Z</time>
      </trkpt>
      <trkpt lat="47.84863" lon="6.92471">
        <ele>1082</ele>
        <time>2026-05-09T07:16:14.235Z</time>
      </trkpt>
      <trkpt lat="47.84863" lon="6.92469">
        <ele>1083</ele>
        <time>2026-05-09T07:16:15.234Z</time>
      </trkpt>
      <trkpt lat="47.84863" lon="6.92468">
        <ele>1083</ele>
        <time>2026-05-09T07:16:16.234Z</time>
      </trkpt>
      <trkpt lat="47.84863" lon="6.92468">
        <ele>1083</ele>
        <time>2026-05-09T07:16:17.234Z</time>
      </trkpt>
      <trkpt lat="47.84863" lon="6.92467">
        <ele>1083</ele>
        <time>2026-05-09T07:16:18.235Z</time>
      </trkpt>
      <trkpt lat="47.84863" lon="6.92467">
        <ele>1083</ele>
        <time>2026-05-09T07:16:19.234Z</time>
      </trkpt>
      <trkpt lat="47.84868" lon="6.92467">
        <ele>1083</ele>
        <time>2026-05-09T07:16:28.443Z</time>
      </trkpt>
      <trkpt lat="47.84868" lon="6.92467">
        <ele>1083</ele>
        <time>2026-05-09T07:16:29.443Z</time>
      </trkpt>
      <trkpt lat="47.84868" lon="6.92467">
        <ele>1083</ele>
        <time>2026-05-09T07:16:30.442Z</time>
      </trkpt>
      <trkpt lat="47.84868" lon="6.92466">
        <ele>1083</ele>
        <time>2026-05-09T07:16:31.442Z</time>
      </trkpt>
      <trkpt lat="47.84869" lon="6.92466">
        <ele>1076</ele>
        <time>2026-05-09T07:16:46.693Z</time>
      </trkpt>
      <trkpt lat="47.84869" lon="6.92466">
        <ele>1076</ele>
        <time>2026-05-09T07:16:47.692Z</time>
      </trkpt>
      <trkpt lat="47.84869" lon="6.92466">
        <ele>1076</ele>
        <time>2026-05-09T07:16:48.693Z</time>
      </trkpt>
      <trkpt lat="47.84869" lon="6.92466">
        <ele>1076</ele>
        <time>2026-05-09T07:16:49.692Z</time>
      </trkpt>
      <trkpt lat="47.84869" lon="6.92466">
        <ele>1076</ele>
        <time>2026-05-09T07:16:50.693Z</time>
      </trkpt>
      <trkpt lat="47.84869" lon="6.92466">
        <ele>1076</ele>
        <time>2026-05-09T07:16:51.693Z</time>
      </trkpt>
      <trkpt lat="47.84869" lon="6.92467">
        <ele>1075</ele>
        <time>2026-05-09T07:16:52.692Z</time>
      </trkpt>
      <trkpt lat="47.84869" lon="6.92467">
        <ele>1075</ele>
        <time>2026-05-09T07:16:53.693Z</time>
      </trkpt>
      <trkpt lat="47.84869" lon="6.92467">
        <ele>1075</ele>
        <time>2026-05-09T07:16:54.692Z</time>
      </trkpt>
      <trkpt lat="47.84869" lon="6.92467">
        <ele>1074</ele>
        <time>2026-05-09T07:16:55.693Z</time>
      </trkpt>
      <trkpt lat="47.84869" lon="6.92467">
        <ele>1074</ele>
        <time>2026-05-09T07:16:56.693Z</time>
      </trkpt>
      <trkpt lat="47.84869" lon="6.92467">
        <ele>1074</ele>
        <time>2026-05-09T07:16:57.692Z</time>
      </trkpt>
      <trkpt lat="47.84869" lon="6.92467">
        <ele>1074</ele>
        <time>2026-05-09T07:16:58.693Z</time>
      </trkpt>
      <trkpt lat="47.8487" lon="6.92467">
        <ele>1075</ele>
        <time>2026-05-09T07:16:59.692Z</time>
      </trkpt>
      <trkpt lat="47.8487" lon="6.92467">
        <ele>1075</ele>
        <time>2026-05-09T07:17:00.693Z</time>
      </trkpt>
      <trkpt lat="47.8487" lon="6.92467">
        <ele>1075</ele>
        <time>2026-05-09T07:17:01.692Z</time>
      </trkpt>
      <trkpt lat="47.8487" lon="6.92467">
        <ele>1076</ele>
        <time>2026-05-09T07:17:02.692Z</time>
      </trkpt>
      <trkpt lat="47.8487" lon="6.92467">
        <ele>1077</ele>
        <time>2026-05-09T07:17:03.693Z</time>
      </trkpt>
      <trkpt lat="47.8487" lon="6.92467">
        <ele>1077</ele>
        <time>2026-05-09T07:17:04.692Z</time>
      </trkpt>
      <trkpt lat="47.84869" lon="6.92467">
        <ele>1078</ele>
        <time>2026-05-09T07:17:05.693Z</time>
      </trkpt>
      <trkpt lat="47.84869" lon="6.92467">
        <ele>1079</ele>
        <time>2026-05-09T07:17:06.692Z</time>
      </trkpt>
      <trkpt lat="47.84869" lon="6.92467">
        <ele>1081</ele>
        <time>2026-05-09T07:17:07.692Z</time>
      </trkpt>
      <trkpt lat="47.84869" lon="6.92467">
        <ele>1082</ele>
        <time>2026-05-09T07:17:08.692Z</time>
      </trkpt>
      <trkpt lat="47.84869" lon="6.92467">
        <ele>1083</ele>
        <time>2026-05-09T07:17:09.692Z</time>
      </trkpt>
      <trkpt lat="47.84869" lon="6.92467">
        <ele>1085</ele>
        <time>2026-05-09T07:17:10.693Z</time>
      </trkpt>
      <trkpt lat="47.84869" lon="6.92467">
        <ele>1086</ele>
        <time>2026-05-09T07:17:11.692Z</time>
      </trkpt>
      <trkpt lat="47.84869" lon="6.92467">
        <ele>1087</ele>
        <time>2026-05-09T07:17:12.692Z</time>
      </trkpt>
      <trkpt lat="47.84869" lon="6.92467">
        <ele>1087</ele>
        <time>2026-05-09T07:17:13.692Z</time>
      </trkpt>
      <trkpt lat="47.84868" lon="6.92467">
        <ele>1087</ele>
        <time>2026-05-09T07:17:14.692Z</time>
      </trkpt>
      <trkpt lat="47.84867" lon="6.92467">
        <ele>1087</ele>
        <time>2026-05-09T07:17:15.692Z</time>
      </trkpt>
      <trkpt lat="47.84867" lon="6.92467">
        <ele>1087</ele>
        <time>2026-05-09T07:17:16.692Z</time>
      </trkpt>
      <trkpt lat="47.84867" lon="6.92466">
        <ele>1086</ele>
        <time>2026-05-09T07:17:17.692Z</time>
      </trkpt>
      <trkpt lat="47.84867" lon="6.92464">
        <ele>1101</ele>
        <time>2026-05-09T07:18:26.195Z</time>
      </trkpt>
      <trkpt lat="47.84867" lon="6.92464">
        <ele>1101</ele>
        <time>2026-05-09T07:18:27.195Z</time>
      </trkpt>
      <trkpt lat="47.84867" lon="6.92464">
        <ele>1101</ele>
        <time>2026-05-09T07:18:28.194Z</time>
      </trkpt>
      <trkpt lat="47.84867" lon="6.92464">
        <ele>1101</ele>
        <time>2026-05-09T07:18:29.194Z</time>
      </trkpt>
      <trkpt lat="47.84867" lon="6.92464">
        <ele>1101</ele>
        <time>2026-05-09T07:18:30.194Z</time>
      </trkpt>
      <trkpt lat="47.84867" lon="6.92464">
        <ele>1101</ele>
        <time>2026-05-09T07:18:31.194Z</time>
      </trkpt>
      <trkpt lat="47.84867" lon="6.92464">
        <ele>1101</ele>
        <time>2026-05-09T07:18:32.194Z</time>
      </trkpt>
      <trkpt lat="47.84867" lon="6.92464">
        <ele>1101</ele>
        <time>2026-05-09T07:18:33.194Z</time>
      </trkpt>
      <trkpt lat="47.84867" lon="6.92464">
        <ele>1101</ele>
        <time>2026-05-09T07:18:34.194Z</time>
      </trkpt>
      <trkpt lat="47.84867" lon="6.92464">
        <ele>1101</ele>
        <time>2026-05-09T07:18:35.194Z</time>
      </trkpt>
      <trkpt lat="47.84867" lon="6.92464">
        <ele>1101</ele>
        <time>2026-05-09T07:18:36.195Z</time>
      </trkpt>
      <trkpt lat="47.84867" lon="6.92464">
        <ele>1100</ele>
        <time>2026-05-09T07:18:37.195Z</time>
      </trkpt>
      <trkpt lat="47.84867" lon="6.92464">
        <ele>1100</ele>
        <time>2026-05-09T07:18:38.195Z</time>
      </trkpt>
      <trkpt lat="47.84867" lon="6.92463">
        <ele>1099</ele>
        <time>2026-05-09T07:18:39.194Z</time>
      </trkpt>
      <trkpt lat="47.84867" lon="6.92463">
        <ele>1098</ele>
        <time>2026-05-09T07:18:40.195Z</time>
      </trkpt>
      <trkpt lat="47.84867" lon="6.92464">
        <ele>1097</ele>
        <time>2026-05-09T07:18:41.195Z</time>
      </trkpt>
      <trkpt lat="47.84867" lon="6.92464">
        <ele>1096</ele>
        <time>2026-05-09T07:18:42.194Z</time>
      </trkpt>
      <trkpt lat="47.84867" lon="6.92464">
        <ele>1096</ele>
        <time>2026-05-09T07:18:43.195Z</time>
      </trkpt>
      <trkpt lat="47.84867" lon="6.92464">
        <ele>1095</ele>
        <time>2026-05-09T07:18:44.194Z</time>
      </trkpt>
      <trkpt lat="47.84867" lon="6.92464">
        <ele>1095</ele>
        <time>2026-05-09T07:18:45.195Z</time>
      </trkpt>
      <trkpt lat="47.84867" lon="6.92464">
        <ele>1095</ele>
        <time>2026-05-09T07:18:46.194Z</time>
      </trkpt>
      <trkpt lat="47.84867" lon="6.92464">
        <ele>1094</ele>
        <time>2026-05-09T07:18:47.195Z</time>
      </trkpt>
      <trkpt lat="47.84867" lon="6.92464">
        <ele>1094</ele>
        <time>2026-05-09T07:18:48.195Z</time>
      </trkpt>
      <trkpt lat="47.84867" lon="6.92463">
        <ele>1094</ele>
        <time>2026-05-09T07:18:49.195Z</time>
      </trkpt>
      <trkpt lat="47.84866" lon="6.92463">
        <ele>1094</ele>
        <time>2026-05-09T07:18:50.195Z</time>
      </trkpt>
      <trkpt lat="47.84866" lon="6.92462">
        <ele>1094</ele>
        <time>2026-05-09T07:18:51.195Z</time>
      </trkpt>
      <trkpt lat="47.84866" lon="6.92462">
        <ele>1095</ele>
        <time>2026-05-09T07:18:52.195Z</time>
      </trkpt>
      <trkpt lat="47.84866" lon="6.92462">
        <ele>1095</ele>
        <time>2026-05-09T07:18:53.194Z</time>
      </trkpt>
      <trkpt lat="47.84866" lon="6.92462">
        <ele>1095</ele>
        <time>2026-05-09T07:18:54.195Z</time>
      </trkpt>
      <trkpt lat="47.84866" lon="6.92462">
        <ele>1096</ele>
        <time>2026-05-09T07:18:55.194Z</time>
      </trkpt>
      <trkpt lat="47.84866" lon="6.92462">
        <ele>1096</ele>
        <time>2026-05-09T07:18:56.194Z</time>
      </trkpt>
      <trkpt lat="47.84866" lon="6.92462">
        <ele>1097</ele>
        <time>2026-05-09T07:18:57.194Z</time>
      </trkpt>
      <trkpt lat="47.84866" lon="6.92462">
        <ele>1097</ele>
        <time>2026-05-09T07:18:58.195Z</time>
      </trkpt>
      <trkpt lat="47.84866" lon="6.92462">
        <ele>1097</ele>
        <time>2026-05-09T07:18:59.195Z</time>
      </trkpt>
      <trkpt lat="47.84866" lon="6.92462">
        <ele>1098</ele>
        <time>2026-05-09T07:19:00.195Z</time>
      </trkpt>
      <trkpt lat="47.84866" lon="6.92462">
        <ele>1098</ele>
        <time>2026-05-09T07:19:01.195Z</time>
      </trkpt>
      <trkpt lat="47.84866" lon="6.92461">
        <ele>1098</ele>
        <time>2026-05-09T07:19:02.194Z</time>
      </trkpt>
      <trkpt lat="47.84866" lon="6.92461">
        <ele>1097</ele>
        <time>2026-05-09T07:19:03.194Z</time>
      </trkpt>
      <trkpt lat="47.84866" lon="6.92461">
        <ele>1097</ele>
        <time>2026-05-09T07:19:04.195Z</time>
      </trkpt>
      <trkpt lat="47.84866" lon="6.92461">
        <ele>1096</ele>
        <time>2026-05-09T07:19:05.195Z</time>
      </trkpt>
      <trkpt lat="47.84866" lon="6.92461">
        <ele>1096</ele>
        <time>2026-05-09T07:19:06.194Z</time>
      </trkpt>
      <trkpt lat="47.84866" lon="6.92461">
        <ele>1095</ele>
        <time>2026-05-09T07:19:07.194Z</time>
      </trkpt>
      <trkpt lat="47.84866" lon="6.92461">
        <ele>1094</ele>
        <time>2026-05-09T07:19:08.195Z</time>
      </trkpt>
      <trkpt lat="47.84866" lon="6.92461">
        <ele>1093</ele>
        <time>2026-05-09T07:19:09.194Z</time>
      </trkpt>
      <trkpt lat="47.84866" lon="6.92461">
        <ele>1092</ele>
        <time>2026-05-09T07:19:10.195Z</time>
      </trkpt>
      <trkpt lat="47.84866" lon="6.92461">
        <ele>1091</ele>
        <time>2026-05-09T07:19:11.195Z</time>
      </trkpt>
      <trkpt lat="47.84866" lon="6.92461">
        <ele>1090</ele>
        <time>2026-05-09T07:19:12.194Z</time>
      </trkpt>
      <trkpt lat="47.84866" lon="6.92461">
        <ele>1089</ele>
        <time>2026-05-09T07:19:13.194Z</time>
      </trkpt>
      <trkpt lat="47.84866" lon="6.92461">
        <ele>1087</ele>
        <time>2026-05-09T07:19:14.194Z</time>
      </trkpt>
      <trkpt lat="47.84866" lon="6.92461">
        <ele>1086</ele>
        <time>2026-05-09T07:19:15.195Z</time>
      </trkpt>
      <trkpt lat="47.84866" lon="6.92461">
        <ele>1085</ele>
        <time>2026-05-09T07:19:16.195Z</time>
      </trkpt>
      <trkpt lat="47.84866" lon="6.92461">
        <ele>1085</ele>
        <time>2026-05-09T07:19:17.195Z</time>
      </trkpt>
      <trkpt lat="47.84866" lon="6.92461">
        <ele>1084</ele>
        <time>2026-05-09T07:19:18.194Z</time>
      </trkpt>
      <trkpt lat="47.84866" lon="6.92461">
        <ele>1083</ele>
        <time>2026-05-09T07:19:19.194Z</time>
      </trkpt>
      <trkpt lat="47.84866" lon="6.92461">
        <ele>1082</ele>
        <time>2026-05-09T07:19:20.195Z</time>
      </trkpt>
      <trkpt lat="47.84866" lon="6.92461">
        <ele>1082</ele>
        <time>2026-05-09T07:19:21.195Z</time>
      </trkpt>
      <trkpt lat="47.84866" lon="6.92461">
        <ele>1081</ele>
        <time>2026-05-09T07:19:22.194Z</time>
      </trkpt>
      <trkpt lat="47.84866" lon="6.92461">
        <ele>1080</ele>
        <time>2026-05-09T07:19:23.195Z</time>
      </trkpt>
      <trkpt lat="47.84866" lon="6.92461">
        <ele>1080</ele>
        <time>2026-05-09T07:19:24.195Z</time>
      </trkpt>
      <trkpt lat="47.84866" lon="6.92461">
        <ele>1080</ele>
        <time>2026-05-09T07:19:25.195Z</time>
      </trkpt>
      <trkpt lat="47.84866" lon="6.92461">
        <ele>1079</ele>
        <time>2026-05-09T07:19:26.194Z</time>
      </trkpt>
      <trkpt lat="47.84892" lon="6.92458">
        <ele>1076</ele>
        <time>2026-05-09T07:22:29.557Z</time>
      </trkpt>
      <trkpt lat="47.84893" lon="6.92457">
        <ele>1077</ele>
        <time>2026-05-09T07:22:30.558Z</time>
      </trkpt>
      <trkpt lat="47.84893" lon="6.92457">
        <ele>1077</ele>
        <time>2026-05-09T07:22:31.557Z</time>
      </trkpt>
      <trkpt lat="47.84893" lon="6.92458">
        <ele>1077</ele>
        <time>2026-05-09T07:22:32.557Z</time>
      </trkpt>
      <trkpt lat="47.84893" lon="6.92458">
        <ele>1077</ele>
        <time>2026-05-09T07:22:33.557Z</time>
      </trkpt>
      <trkpt lat="47.84893" lon="6.92458">
        <ele>1078</ele>
        <time>2026-05-09T07:22:34.557Z</time>
      </trkpt>
      <trkpt lat="47.84894" lon="6.92458">
        <ele>1078</ele>
        <time>2026-05-09T07:22:35.557Z</time>
      </trkpt>
      <trkpt lat="47.84894" lon="6.92458">
        <ele>1078</ele>
        <time>2026-05-09T07:22:36.557Z</time>
      </trkpt>
      <trkpt lat="47.84895" lon="6.92458">
        <ele>1077</ele>
        <time>2026-05-09T07:22:37.557Z</time>
      </trkpt>
      <trkpt lat="47.84896" lon="6.92458">
        <ele>1077</ele>
        <time>2026-05-09T07:22:38.557Z</time>
      </trkpt>
      <trkpt lat="47.84896" lon="6.92458">
        <ele>1077</ele>
        <time>2026-05-09T07:22:39.557Z</time>
      </trkpt>
      <trkpt lat="47.84897" lon="6.92458">
        <ele>1077</ele>
        <time>2026-05-09T07:22:40.558Z</time>
      </trkpt>
      <trkpt lat="47.84898" lon="6.92458">
        <ele>1077</ele>
        <time>2026-05-09T07:22:41.557Z</time>
      </trkpt>
      <trkpt lat="47.84899" lon="6.92457">
        <ele>1077</ele>
        <time>2026-05-09T07:22:42.557Z</time>
      </trkpt>
      <trkpt lat="47.849" lon="6.92458">
        <ele>1077</ele>
        <time>2026-05-09T07:22:43.558Z</time>
      </trkpt>
      <trkpt lat="47.84901" lon="6.92458">
        <ele>1078</ele>
        <time>2026-05-09T07:22:44.557Z</time>
      </trkpt>
      <trkpt lat="47.84901" lon="6.92458">
        <ele>1078</ele>
        <time>2026-05-09T07:22:45.558Z</time>
      </trkpt>
      <trkpt lat="47.84901" lon="6.92458">
        <ele>1079</ele>
        <time>2026-05-09T07:22:46.558Z</time>
      </trkpt>
      <trkpt lat="47.84902" lon="6.92458">
        <ele>1079</ele>
        <time>2026-05-09T07:22:47.557Z</time>
      </trkpt>
      <trkpt lat="47.84902" lon="6.92458">
        <ele>1080</ele>
        <time>2026-05-09T07:22:48.558Z</time>
      </trkpt>
      <trkpt lat="47.84902" lon="6.92458">
        <ele>1081</ele>
        <time>2026-05-09T07:22:49.558Z</time>
      </trkpt>
      <trkpt lat="47.84902" lon="6.92458">
        <ele>1081</ele>
        <time>2026-05-09T07:22:50.558Z</time>
      </trkpt>
      <trkpt lat="47.84902" lon="6.92457">
        <ele>1081</ele>
        <time>2026-05-09T07:22:51.558Z</time>
      </trkpt>
      <trkpt lat="47.84902" lon="6.92457">
        <ele>1081</ele>
        <time>2026-05-09T07:22:52.557Z</time>
      </trkpt>
      <trkpt lat="47.84902" lon="6.92457">
        <ele>1081</ele>
        <time>2026-05-09T07:22:53.558Z</time>
      </trkpt>
      <trkpt lat="47.84902" lon="6.92457">
        <ele>1081</ele>
        <time>2026-05-09T07:22:54.557Z</time>
      </trkpt>
      <trkpt lat="47.84902" lon="6.92458">
        <ele>1082</ele>
        <time>2026-05-09T07:22:55.557Z</time>
      </trkpt>
      <trkpt lat="47.84902" lon="6.92458">
        <ele>1082</ele>
        <time>2026-05-09T07:22:56.557Z</time>
      </trkpt>
      <trkpt lat="47.84902" lon="6.92458">
        <ele>1082</ele>
        <time>2026-05-09T07:22:57.557Z</time>
      </trkpt>
      <trkpt lat="47.84902" lon="6.92458">
        <ele>1083</ele>
        <time>2026-05-09T07:22:58.558Z</time>
      </trkpt>
      <trkpt lat="47.84902" lon="6.92458">
        <ele>1083</ele>
        <time>2026-05-09T07:22:59.557Z</time>
      </trkpt>
      <trkpt lat="47.84902" lon="6.92458">
        <ele>1083</ele>
        <time>2026-05-09T07:23:00.557Z</time>
      </trkpt>
      <trkpt lat="47.84903" lon="6.92458">
        <ele>1083</ele>
        <time>2026-05-09T07:23:01.557Z</time>
      </trkpt>
      <trkpt lat="47.84903" lon="6.92457">
        <ele>1083</ele>
        <time>2026-05-09T07:23:02.558Z</time>
      </trkpt>
      <trkpt lat="47.84903" lon="6.92457">
        <ele>1083</ele>
        <time>2026-05-09T07:23:03.558Z</time>
      </trkpt>
      <trkpt lat="47.84904" lon="6.92457">
        <ele>1083</ele>
        <time>2026-05-09T07:23:04.558Z</time>
      </trkpt>
      <trkpt lat="47.84902" lon="6.92454">
        <ele>1082</ele>
        <time>2026-05-09T07:23:10.964Z</time>
      </trkpt>
      <trkpt lat="47.84902" lon="6.92453">
        <ele>1082</ele>
        <time>2026-05-09T07:23:11.963Z</time>
      </trkpt>
      <trkpt lat="47.84902" lon="6.92452">
        <ele>1083</ele>
        <time>2026-05-09T07:23:12.964Z</time>
      </trkpt>
      <trkpt lat="47.84902" lon="6.92451">
        <ele>1083</ele>
        <time>2026-05-09T07:23:13.963Z</time>
      </trkpt>
      <trkpt lat="47.84901" lon="6.9245">
        <ele>1083</ele>
        <time>2026-05-09T07:23:14.964Z</time>
      </trkpt>
      <trkpt lat="47.84902" lon="6.92449">
        <ele>1084</ele>
        <time>2026-05-09T07:23:15.963Z</time>
      </trkpt>
      <trkpt lat="47.84902" lon="6.92449">
        <ele>1084</ele>
        <time>2026-05-09T07:23:16.964Z</time>
      </trkpt>
      <trkpt lat="47.84902" lon="6.92449">
        <ele>1084</ele>
        <time>2026-05-09T07:23:17.963Z</time>
      </trkpt>
      <trkpt lat="47.84903" lon="6.92449">
        <ele>1085</ele>
        <time>2026-05-09T07:23:18.964Z</time>
      </trkpt>
      <trkpt lat="47.84903" lon="6.92449">
        <ele>1085</ele>
        <time>2026-05-09T07:23:19.963Z</time>
      </trkpt>
      <trkpt lat="47.84904" lon="6.9245">
        <ele>1086</ele>
        <time>2026-05-09T07:23:20.964Z</time>
      </trkpt>
      <trkpt lat="47.84904" lon="6.9245">
        <ele>1086</ele>
        <time>2026-05-09T07:23:21.963Z</time>
      </trkpt>
      <trkpt lat="47.84905" lon="6.92451">
        <ele>1086</ele>
        <time>2026-05-09T07:23:22.964Z</time>
      </trkpt>
      <trkpt lat="47.84904" lon="6.92452">
        <ele>1087</ele>
        <time>2026-05-09T07:23:23.964Z</time>
      </trkpt>
      <trkpt lat="47.84905" lon="6.92452">
        <ele>1087</ele>
        <time>2026-05-09T07:23:24.964Z</time>
      </trkpt>
      <trkpt lat="47.84906" lon="6.92452">
        <ele>1087</ele>
        <time>2026-05-09T07:23:25.963Z</time>
      </trkpt>
      <trkpt lat="47.84907" lon="6.92453">
        <ele>1087</ele>
        <time>2026-05-09T07:23:26.964Z</time>
      </trkpt>
      <trkpt lat="47.84908" lon="6.92452">
        <ele>1087</ele>
        <time>2026-05-09T07:23:27.963Z</time>
      </trkpt>
      <trkpt lat="47.84909" lon="6.92452">
        <ele>1087</ele>
        <time>2026-05-09T07:23:28.964Z</time>
      </trkpt>
      <trkpt lat="47.8491" lon="6.92453">
        <ele>1087</ele>
        <time>2026-05-09T07:23:29.963Z</time>
      </trkpt>
      <trkpt lat="47.84911" lon="6.92453">
        <ele>1087</ele>
        <time>2026-05-09T07:23:30.963Z</time>
      </trkpt>
      <trkpt lat="47.84912" lon="6.92453">
        <ele>1087</ele>
        <time>2026-05-09T07:23:31.964Z</time>
      </trkpt>
      <trkpt lat="47.84912" lon="6.92454">
        <ele>1088</ele>
        <time>2026-05-09T07:23:32.963Z</time>
      </trkpt>
      <trkpt lat="47.84913" lon="6.92453">
        <ele>1088</ele>
        <time>2026-05-09T07:23:33.964Z</time>
      </trkpt>
      <trkpt lat="47.84914" lon="6.92453">
        <ele>1088</ele>
        <time>2026-05-09T07:23:34.963Z</time>
      </trkpt>
      <trkpt lat="47.84914" lon="6.92453">
        <ele>1088</ele>
        <time>2026-05-09T07:23:35.964Z</time>
      </trkpt>
      <trkpt lat="47.84915" lon="6.92453">
        <ele>1088</ele>
        <time>2026-05-09T07:23:36.963Z</time>
      </trkpt>
      <trkpt lat="47.84916" lon="6.92453">
        <ele>1088</ele>
        <time>2026-05-09T07:23:37.963Z</time>
      </trkpt>
      <trkpt lat="47.84917" lon="6.92452">
        <ele>1088</ele>
        <time>2026-05-09T07:23:38.964Z</time>
      </trkpt>
      <trkpt lat="47.84918" lon="6.92452">
        <ele>1088</ele>
        <time>2026-05-09T07:23:39.964Z</time>
      </trkpt>
      <trkpt lat="47.84918" lon="6.92452">
        <ele>1088</ele>
        <time>2026-05-09T07:23:40.963Z</time>
      </trkpt>
      <trkpt lat="47.84919" lon="6.92452">
        <ele>1088</ele>
        <time>2026-05-09T07:23:41.964Z</time>
      </trkpt>
      <trkpt lat="47.84919" lon="6.92452">
        <ele>1088</ele>
        <time>2026-05-09T07:23:42.963Z</time>
      </trkpt>
      <trkpt lat="47.8492" lon="6.92452">
        <ele>1089</ele>
        <time>2026-05-09T07:23:43.963Z</time>
      </trkpt>
      <trkpt lat="47.84922" lon="6.92452">
        <ele>1089</ele>
        <time>2026-05-09T07:23:44.963Z</time>
      </trkpt>
      <trkpt lat="47.84923" lon="6.92452">
        <ele>1089</ele>
        <time>2026-05-09T07:23:45.964Z</time>
      </trkpt>
      <trkpt lat="47.84923" lon="6.92452">
        <ele>1089</ele>
        <time>2026-05-09T07:23:46.963Z</time>
      </trkpt>
      <trkpt lat="47.84924" lon="6.92452">
        <ele>1089</ele>
        <time>2026-05-09T07:23:47.963Z</time>
      </trkpt>
      <trkpt lat="47.84924" lon="6.92452">
        <ele>1090</ele>
        <time>2026-05-09T07:23:48.964Z</time>
      </trkpt>
      <trkpt lat="47.84925" lon="6.92452">
        <ele>1090</ele>
        <time>2026-05-09T07:23:49.964Z</time>
      </trkpt>
      <trkpt lat="47.84925" lon="6.92452">
        <ele>1090</ele>
        <time>2026-05-09T07:23:50.963Z</time>
      </trkpt>
      <trkpt lat="47.84925" lon="6.92452">
        <ele>1090</ele>
        <time>2026-05-09T07:23:51.964Z</time>
      </trkpt>
      <trkpt lat="47.84927" lon="6.92452">
        <ele>1091</ele>
        <time>2026-05-09T07:23:59.349Z</time>
      </trkpt>
      <trkpt lat="47.84928" lon="6.92451">
        <ele>1092</ele>
        <time>2026-05-09T07:24:00.350Z</time>
      </trkpt>
      <trkpt lat="47.84929" lon="6.92451">
        <ele>1092</ele>
        <time>2026-05-09T07:24:01.349Z</time>
      </trkpt>
      <trkpt lat="47.8493" lon="6.9245">
        <ele>1092</ele>
        <time>2026-05-09T07:24:02.350Z</time>
      </trkpt>
      <trkpt lat="47.84931" lon="6.9245">
        <ele>1093</ele>
        <time>2026-05-09T07:24:03.349Z</time>
      </trkpt>
      <trkpt lat="47.84932" lon="6.92449">
        <ele>1093</ele>
        <time>2026-05-09T07:24:04.350Z</time>
      </trkpt>
      <trkpt lat="47.84932" lon="6.92449">
        <ele>1093</ele>
        <time>2026-05-09T07:24:05.349Z</time>
      </trkpt>
      <trkpt lat="47.84932" lon="6.92449">
        <ele>1094</ele>
        <time>2026-05-09T07:24:06.350Z</time>
      </trkpt>
      <trkpt lat="47.84932" lon="6.92449">
        <ele>1094</ele>
        <time>2026-05-09T07:24:07.349Z</time>
      </trkpt>
      <trkpt lat="47.84936" lon="6.92448">
        <ele>1095</ele>
        <time>2026-05-09T07:24:13.730Z</time>
      </trkpt>
      <trkpt lat="47.84937" lon="6.92448">
        <ele>1096</ele>
        <time>2026-05-09T07:24:14.729Z</time>
      </trkpt>
      <trkpt lat="47.84938" lon="6.92448">
        <ele>1096</ele>
        <time>2026-05-09T07:24:15.729Z</time>
      </trkpt>
      <trkpt lat="47.84939" lon="6.92448">
        <ele>1097</ele>
        <time>2026-05-09T07:24:16.729Z</time>
      </trkpt>
      <trkpt lat="47.8494" lon="6.92448">
        <ele>1097</ele>
        <time>2026-05-09T07:24:17.730Z</time>
      </trkpt>
      <trkpt lat="47.8494" lon="6.92448">
        <ele>1097</ele>
        <time>2026-05-09T07:24:18.729Z</time>
      </trkpt>
      <trkpt lat="47.84941" lon="6.92448">
        <ele>1097</ele>
        <time>2026-05-09T07:24:19.730Z</time>
      </trkpt>
      <trkpt lat="47.84942" lon="6.92447">
        <ele>1098</ele>
        <time>2026-05-09T07:24:20.730Z</time>
      </trkpt>
      <trkpt lat="47.84943" lon="6.92447">
        <ele>1098</ele>
        <time>2026-05-09T07:24:21.730Z</time>
      </trkpt>
      <trkpt lat="47.84944" lon="6.92446">
        <ele>1098</ele>
        <time>2026-05-09T07:24:22.729Z</time>
      </trkpt>
      <trkpt lat="47.84945" lon="6.92445">
        <ele>1098</ele>
        <time>2026-05-09T07:24:23.730Z</time>
      </trkpt>
      <trkpt lat="47.84946" lon="6.92445">
        <ele>1098</ele>
        <time>2026-05-09T07:24:24.730Z</time>
      </trkpt>
      <trkpt lat="47.84947" lon="6.92445">
        <ele>1098</ele>
        <time>2026-05-09T07:24:25.730Z</time>
      </trkpt>
      <trkpt lat="47.84948" lon="6.92446">
        <ele>1098</ele>
        <time>2026-05-09T07:24:26.730Z</time>
      </trkpt>
      <trkpt lat="47.84949" lon="6.92446">
        <ele>1098</ele>
        <time>2026-05-09T07:24:27.730Z</time>
      </trkpt>
      <trkpt lat="47.8495" lon="6.92446">
        <ele>1098</ele>
        <time>2026-05-09T07:24:28.729Z</time>
      </trkpt>
      <trkpt lat="47.8495" lon="6.92447">
        <ele>1098</ele>
        <time>2026-05-09T07:24:29.729Z</time>
      </trkpt>
      <trkpt lat="47.84952" lon="6.92446">
        <ele>1099</ele>
        <time>2026-05-09T07:24:30.730Z</time>
      </trkpt>
      <trkpt lat="47.84953" lon="6.92446">
        <ele>1099</ele>
        <time>2026-05-09T07:24:31.729Z</time>
      </trkpt>
      <trkpt lat="47.84955" lon="6.92446">
        <ele>1099</ele>
        <time>2026-05-09T07:24:32.729Z</time>
      </trkpt>
      <trkpt lat="47.84956" lon="6.92446">
        <ele>1099</ele>
        <time>2026-05-09T07:24:33.729Z</time>
      </trkpt>
      <trkpt lat="47.84957" lon="6.92446">
        <ele>1100</ele>
        <time>2026-05-09T07:24:34.730Z</time>
      </trkpt>
      <trkpt lat="47.84957" lon="6.92447">
        <ele>1100</ele>
        <time>2026-05-09T07:24:35.730Z</time>
      </trkpt>
      <trkpt lat="47.84958" lon="6.92447">
        <ele>1101</ele>
        <time>2026-05-09T07:24:36.730Z</time>
      </trkpt>
      <trkpt lat="47.84959" lon="6.92447">
        <ele>1101</ele>
        <time>2026-05-09T07:24:37.730Z</time>
      </trkpt>
      <trkpt lat="47.84959" lon="6.92447">
        <ele>1101</ele>
        <time>2026-05-09T07:24:38.730Z</time>
      </trkpt>
      <trkpt lat="47.84959" lon="6.92448">
        <ele>1101</ele>
        <time>2026-05-09T07:24:39.729Z</time>
      </trkpt>
      <trkpt lat="47.84959" lon="6.92448">
        <ele>1102</ele>
        <time>2026-05-09T07:24:40.730Z</time>
      </trkpt>
      <trkpt lat="47.84959" lon="6.92448">
        <ele>1102</ele>
        <time>2026-05-09T07:24:41.729Z</time>
      </trkpt>
      <trkpt lat="47.8496" lon="6.92448">
        <ele>1102</ele>
        <time>2026-05-09T07:24:42.730Z</time>
      </trkpt>
      <trkpt lat="47.84961" lon="6.92448">
        <ele>1102</ele>
        <time>2026-05-09T07:24:43.729Z</time>
      </trkpt>
      <trkpt lat="47.84962" lon="6.92449">
        <ele>1103</ele>
        <time>2026-05-09T07:24:44.730Z</time>
      </trkpt>
      <trkpt lat="47.84963" lon="6.92449">
        <ele>1103</ele>
        <time>2026-05-09T07:24:45.730Z</time>
      </trkpt>
      <trkpt lat="47.84964" lon="6.92448">
        <ele>1103</ele>
        <time>2026-05-09T07:24:46.730Z</time>
      </trkpt>
      <trkpt lat="47.84965" lon="6.92448">
        <ele>1103</ele>
        <time>2026-05-09T07:24:47.729Z</time>
      </trkpt>
      <trkpt lat="47.84966" lon="6.92448">
        <ele>1103</ele>
        <time>2026-05-09T07:24:48.730Z</time>
      </trkpt>
      <trkpt lat="47.84966" lon="6.92448">
        <ele>1104</ele>
        <time>2026-05-09T07:24:49.729Z</time>
      </trkpt>
      <trkpt lat="47.84966" lon="6.92449">
        <ele>1104</ele>
        <time>2026-05-09T07:24:50.729Z</time>
      </trkpt>
      <trkpt lat="47.8497" lon="6.92449">
        <ele>1104</ele>
        <time>2026-05-09T07:24:57.211Z</time>
      </trkpt>
      <trkpt lat="47.8497" lon="6.92449">
        <ele>1104</ele>
        <time>2026-05-09T07:24:58.210Z</time>
      </trkpt>
      <trkpt lat="47.84971" lon="6.92449">
        <ele>1104</ele>
        <time>2026-05-09T07:24:59.210Z</time>
      </trkpt>
      <trkpt lat="47.84972" lon="6.92448">
        <ele>1104</ele>
        <time>2026-05-09T07:25:00.210Z</time>
      </trkpt>
      <trkpt lat="47.84973" lon="6.92447">
        <ele>1104</ele>
        <time>2026-05-09T07:25:01.210Z</time>
      </trkpt>
      <trkpt lat="47.84974" lon="6.92447">
        <ele>1105</ele>
        <time>2026-05-09T07:25:02.210Z</time>
      </trkpt>
      <trkpt lat="47.84975" lon="6.92447">
        <ele>1105</ele>
        <time>2026-05-09T07:25:03.211Z</time>
      </trkpt>
      <trkpt lat="47.84976" lon="6.92447">
        <ele>1105</ele>
        <time>2026-05-09T07:25:04.211Z</time>
      </trkpt>
      <trkpt lat="47.84977" lon="6.92447">
        <ele>1105</ele>
        <time>2026-05-09T07:25:05.210Z</time>
      </trkpt>
      <trkpt lat="47.84977" lon="6.92447">
        <ele>1105</ele>
        <time>2026-05-09T07:25:06.211Z</time>
      </trkpt>
      <trkpt lat="47.84977" lon="6.92447">
        <ele>1105</ele>
        <time>2026-05-09T07:25:07.210Z</time>
      </trkpt>
      <trkpt lat="47.84978" lon="6.92446">
        <ele>1105</ele>
        <time>2026-05-09T07:25:08.211Z</time>
      </trkpt>
      <trkpt lat="47.84978" lon="6.92445">
        <ele>1106</ele>
        <time>2026-05-09T07:25:09.210Z</time>
      </trkpt>
      <trkpt lat="47.84979" lon="6.92445">
        <ele>1106</ele>
        <time>2026-05-09T07:25:10.211Z</time>
      </trkpt>
      <trkpt lat="47.84979" lon="6.92444">
        <ele>1107</ele>
        <time>2026-05-09T07:25:11.210Z</time>
      </trkpt>
      <trkpt lat="47.8498" lon="6.92443">
        <ele>1107</ele>
        <time>2026-05-09T07:25:12.211Z</time>
      </trkpt>
      <trkpt lat="47.8498" lon="6.92443">
        <ele>1107</ele>
        <time>2026-05-09T07:25:13.211Z</time>
      </trkpt>
      <trkpt lat="47.84981" lon="6.92441">
        <ele>1107</ele>
        <time>2026-05-09T07:25:14.211Z</time>
      </trkpt>
      <trkpt lat="47.84981" lon="6.9244">
        <ele>1108</ele>
        <time>2026-05-09T07:25:15.210Z</time>
      </trkpt>
      <trkpt lat="47.84982" lon="6.92439">
        <ele>1108</ele>
        <time>2026-05-09T07:25:16.210Z</time>
      </trkpt>
      <trkpt lat="47.84983" lon="6.92438">
        <ele>1108</ele>
        <time>2026-05-09T07:25:17.210Z</time>
      </trkpt>
      <trkpt lat="47.84984" lon="6.92436">
        <ele>1109</ele>
        <time>2026-05-09T07:25:18.210Z</time>
      </trkpt>
      <trkpt lat="47.84984" lon="6.92436">
        <ele>1109</ele>
        <time>2026-05-09T07:25:19.210Z</time>
      </trkpt>
      <trkpt lat="47.84985" lon="6.92434">
        <ele>1110</ele>
        <time>2026-05-09T07:25:20.211Z</time>
      </trkpt>
      <trkpt lat="47.84987" lon="6.92432">
        <ele>1111</ele>
        <time>2026-05-09T07:25:21.211Z</time>
      </trkpt>
      <trkpt lat="47.84989" lon="6.9243">
        <ele>1112</ele>
        <time>2026-05-09T07:25:22.210Z</time>
      </trkpt>
      <trkpt lat="47.84989" lon="6.9243">
        <ele>1112</ele>
        <time>2026-05-09T07:25:23.210Z</time>
      </trkpt>
      <trkpt lat="47.8499" lon="6.92429">
        <ele>1113</ele>
        <time>2026-05-09T07:25:24.210Z</time>
      </trkpt>
      <trkpt lat="47.8499" lon="6.92428">
        <ele>1114</ele>
        <time>2026-05-09T07:25:25.211Z</time>
      </trkpt>
      <trkpt lat="47.84992" lon="6.92427">
        <ele>1114</ele>
        <time>2026-05-09T07:25:26.210Z</time>
      </trkpt>
      <trkpt lat="47.84992" lon="6.92426">
        <ele>1115</ele>
        <time>2026-05-09T07:25:27.210Z</time>
      </trkpt>
      <trkpt lat="47.84994" lon="6.92425">
        <ele>1115</ele>
        <time>2026-05-09T07:25:28.210Z</time>
      </trkpt>
      <trkpt lat="47.84994" lon="6.92425">
        <ele>1116</ele>
        <time>2026-05-09T07:25:29.210Z</time>
      </trkpt>
      <trkpt lat="47.84994" lon="6.92425">
        <ele>1116</ele>
        <time>2026-05-09T07:25:30.210Z</time>
      </trkpt>
      <trkpt lat="47.84995" lon="6.92425">
        <ele>1117</ele>
        <time>2026-05-09T07:25:31.210Z</time>
      </trkpt>
      <trkpt lat="47.84995" lon="6.92425">
        <ele>1117</ele>
        <time>2026-05-09T07:25:32.211Z</time>
      </trkpt>
      <trkpt lat="47.84996" lon="6.92425">
        <ele>1117</ele>
        <time>2026-05-09T07:25:33.210Z</time>
      </trkpt>
      <trkpt lat="47.84997" lon="6.92424">
        <ele>1117</ele>
        <time>2026-05-09T07:25:34.210Z</time>
      </trkpt>
      <trkpt lat="47.84998" lon="6.92423">
        <ele>1117</ele>
        <time>2026-05-09T07:25:35.211Z</time>
      </trkpt>
      <trkpt lat="47.84999" lon="6.92423">
        <ele>1117</ele>
        <time>2026-05-09T07:25:36.211Z</time>
      </trkpt>
      <trkpt lat="47.84999" lon="6.92424">
        <ele>1117</ele>
        <time>2026-05-09T07:25:37.210Z</time>
      </trkpt>
      <trkpt lat="47.85" lon="6.92423">
        <ele>1117</ele>
        <time>2026-05-09T07:25:38.211Z</time>
      </trkpt>
      <trkpt lat="47.85001" lon="6.92423">
        <ele>1117</ele>
        <time>2026-05-09T07:25:39.210Z</time>
      </trkpt>
      <trkpt lat="47.85002" lon="6.92422">
        <ele>1117</ele>
        <time>2026-05-09T07:25:40.211Z</time>
      </trkpt>
      <trkpt lat="47.85004" lon="6.92421">
        <ele>1117</ele>
        <time>2026-05-09T07:25:41.210Z</time>
      </trkpt>
      <trkpt lat="47.85005" lon="6.92421">
        <ele>1117</ele>
        <time>2026-05-09T07:25:42.210Z</time>
      </trkpt>
      <trkpt lat="47.85005" lon="6.92422">
        <ele>1118</ele>
        <time>2026-05-09T07:25:43.211Z</time>
      </trkpt>
      <trkpt lat="47.85005" lon="6.92422">
        <ele>1118</ele>
        <time>2026-05-09T07:25:44.210Z</time>
      </trkpt>
      <trkpt lat="47.85007" lon="6.92421">
        <ele>1118</ele>
        <time>2026-05-09T07:25:45.210Z</time>
      </trkpt>
      <trkpt lat="47.85008" lon="6.9242">
        <ele>1118</ele>
        <time>2026-05-09T07:25:46.211Z</time>
      </trkpt>
      <trkpt lat="47.85008" lon="6.92419">
        <ele>1118</ele>
        <time>2026-05-09T07:25:47.210Z</time>
      </trkpt>
      <trkpt lat="47.8501" lon="6.92419">
        <ele>1118</ele>
        <time>2026-05-09T07:25:48.211Z</time>
      </trkpt>
      <trkpt lat="47.85011" lon="6.92418">
        <ele>1118</ele>
        <time>2026-05-09T07:25:49.210Z</time>
      </trkpt>
      <trkpt lat="47.85012" lon="6.92417">
        <ele>1118</ele>
        <time>2026-05-09T07:25:50.210Z</time>
      </trkpt>
      <trkpt lat="47.85013" lon="6.92417">
        <ele>1117</ele>
        <time>2026-05-09T07:25:51.210Z</time>
      </trkpt>
      <trkpt lat="47.85014" lon="6.92416">
        <ele>1117</ele>
        <time>2026-05-09T07:25:52.210Z</time>
      </trkpt>
      <trkpt lat="47.85015" lon="6.92415">
        <ele>1118</ele>
        <time>2026-05-09T07:25:53.210Z</time>
      </trkpt>
      <trkpt lat="47.85016" lon="6.92415">
        <ele>1118</ele>
        <time>2026-05-09T07:25:54.210Z</time>
      </trkpt>
      <trkpt lat="47.85016" lon="6.92413">
        <ele>1118</ele>
        <time>2026-05-09T07:25:55.210Z</time>
      </trkpt>
      <trkpt lat="47.85017" lon="6.92412">
        <ele>1119</ele>
        <time>2026-05-09T07:25:56.211Z</time>
      </trkpt>
      <trkpt lat="47.85018" lon="6.92411">
        <ele>1119</ele>
        <time>2026-05-09T07:25:57.210Z</time>
      </trkpt>
      <trkpt lat="47.8502" lon="6.92409">
        <ele>1120</ele>
        <time>2026-05-09T07:25:58.210Z</time>
      </trkpt>
      <trkpt lat="47.85021" lon="6.92408">
        <ele>1120</ele>
        <time>2026-05-09T07:25:59.211Z</time>
      </trkpt>
      <trkpt lat="47.85021" lon="6.92408">
        <ele>1120</ele>
        <time>2026-05-09T07:26:00.211Z</time>
      </trkpt>
      <trkpt lat="47.85022" lon="6.92407">
        <ele>1121</ele>
        <time>2026-05-09T07:26:01.211Z</time>
      </trkpt>
      <trkpt lat="47.85023" lon="6.92407">
        <ele>1121</ele>
        <time>2026-05-09T07:26:02.210Z</time>
      </trkpt>
      <trkpt lat="47.85025" lon="6.92407">
        <ele>1121</ele>
        <time>2026-05-09T07:26:03.210Z</time>
      </trkpt>
      <trkpt lat="47.85026" lon="6.92407">
        <ele>1121</ele>
        <time>2026-05-09T07:26:04.211Z</time>
      </trkpt>
      <trkpt lat="47.85026" lon="6.92407">
        <ele>1121</ele>
        <time>2026-05-09T07:26:05.211Z</time>
      </trkpt>
      <trkpt lat="47.85026" lon="6.92407">
        <ele>1121</ele>
        <time>2026-05-09T07:26:06.210Z</time>
      </trkpt>
      <trkpt lat="47.85027" lon="6.92406">
        <ele>1121</ele>
        <time>2026-05-09T07:26:07.210Z</time>
      </trkpt>
      <trkpt lat="47.85029" lon="6.92406">
        <ele>1121</ele>
        <time>2026-05-09T07:26:08.210Z</time>
      </trkpt>
      <trkpt lat="47.85031" lon="6.92405">
        <ele>1121</ele>
        <time>2026-05-09T07:26:09.210Z</time>
      </trkpt>
      <trkpt lat="47.85033" lon="6.92404">
        <ele>1121</ele>
        <time>2026-05-09T07:26:10.211Z</time>
      </trkpt>
      <trkpt lat="47.85035" lon="6.92403">
        <ele>1121</ele>
        <time>2026-05-09T07:26:11.210Z</time>
      </trkpt>
      <trkpt lat="47.85035" lon="6.92403">
        <ele>1121</ele>
        <time>2026-05-09T07:26:12.211Z</time>
      </trkpt>
      <trkpt lat="47.85036" lon="6.92402">
        <ele>1122</ele>
        <time>2026-05-09T07:26:13.210Z</time>
      </trkpt>
      <trkpt lat="47.85037" lon="6.92402">
        <ele>1122</ele>
        <time>2026-05-09T07:26:14.210Z</time>
      </trkpt>
      <trkpt lat="47.85038" lon="6.92402">
        <ele>1122</ele>
        <time>2026-05-09T07:26:15.210Z</time>
      </trkpt>
      <trkpt lat="47.85038" lon="6.92401">
        <ele>1122</ele>
        <time>2026-05-09T07:26:16.210Z</time>
      </trkpt>
      <trkpt lat="47.8504" lon="6.924">
        <ele>1122</ele>
        <time>2026-05-09T07:26:17.210Z</time>
      </trkpt>
      <trkpt lat="47.85042" lon="6.92398">
        <ele>1123</ele>
        <time>2026-05-09T07:26:18.210Z</time>
      </trkpt>
      <trkpt lat="47.85043" lon="6.92397">
        <ele>1123</ele>
        <time>2026-05-09T07:26:19.210Z</time>
      </trkpt>
      <trkpt lat="47.85044" lon="6.92397">
        <ele>1124</ele>
        <time>2026-05-09T07:26:20.210Z</time>
      </trkpt>
      <trkpt lat="47.85045" lon="6.92396">
        <ele>1124</ele>
        <time>2026-05-09T07:26:21.210Z</time>
      </trkpt>
      <trkpt lat="47.85046" lon="6.92395">
        <ele>1124</ele>
        <time>2026-05-09T07:26:22.210Z</time>
      </trkpt>
      <trkpt lat="47.85048" lon="6.92393">
        <ele>1124</ele>
        <time>2026-05-09T07:26:23.210Z</time>
      </trkpt>
      <trkpt lat="47.8505" lon="6.92392">
        <ele>1125</ele>
        <time>2026-05-09T07:26:24.210Z</time>
      </trkpt>
      <trkpt lat="47.85051" lon="6.92391">
        <ele>1125</ele>
        <time>2026-05-09T07:26:25.211Z</time>
      </trkpt>
      <trkpt lat="47.85052" lon="6.9239">
        <ele>1125</ele>
        <time>2026-05-09T07:26:26.210Z</time>
      </trkpt>
      <trkpt lat="47.85053" lon="6.92389">
        <ele>1126</ele>
        <time>2026-05-09T07:26:27.210Z</time>
      </trkpt>
      <trkpt lat="47.85054" lon="6.92389">
        <ele>1126</ele>
        <time>2026-05-09T07:26:28.210Z</time>
      </trkpt>
      <trkpt lat="47.85057" lon="6.92389">
        <ele>1126</ele>
        <time>2026-05-09T07:26:29.211Z</time>
      </trkpt>
      <trkpt lat="47.8506" lon="6.92387">
        <ele>1126</ele>
        <time>2026-05-09T07:26:30.211Z</time>
      </trkpt>
      <trkpt lat="47.85061" lon="6.92385">
        <ele>1127</ele>
        <time>2026-05-09T07:26:31.211Z</time>
      </trkpt>
      <trkpt lat="47.85063" lon="6.92383">
        <ele>1127</ele>
        <time>2026-05-09T07:26:32.211Z</time>
      </trkpt>
      <trkpt lat="47.85063" lon="6.92382">
        <ele>1127</ele>
        <time>2026-05-09T07:26:33.211Z</time>
      </trkpt>
      <trkpt lat="47.85064" lon="6.92382">
        <ele>1127</ele>
        <time>2026-05-09T07:26:34.210Z</time>
      </trkpt>
      <trkpt lat="47.85065" lon="6.92381">
        <ele>1127</ele>
        <time>2026-05-09T07:26:35.210Z</time>
      </trkpt>
      <trkpt lat="47.85066" lon="6.92381">
        <ele>1127</ele>
        <time>2026-05-09T07:26:36.210Z</time>
      </trkpt>
      <trkpt lat="47.85068" lon="6.9238">
        <ele>1127</ele>
        <time>2026-05-09T07:26:37.211Z</time>
      </trkpt>
      <trkpt lat="47.85069" lon="6.92379">
        <ele>1127</ele>
        <time>2026-05-09T07:26:38.210Z</time>
      </trkpt>
      <trkpt lat="47.8507" lon="6.92378">
        <ele>1127</ele>
        <time>2026-05-09T07:26:39.210Z</time>
      </trkpt>
      <trkpt lat="47.85071" lon="6.92377">
        <ele>1128</ele>
        <time>2026-05-09T07:26:40.210Z</time>
      </trkpt>
      <trkpt lat="47.85071" lon="6.92376">
        <ele>1128</ele>
        <time>2026-05-09T07:26:41.210Z</time>
      </trkpt>
      <trkpt lat="47.85072" lon="6.92376">
        <ele>1128</ele>
        <time>2026-05-09T07:26:42.211Z</time>
      </trkpt>
      <trkpt lat="47.85074" lon="6.92375">
        <ele>1128</ele>
        <time>2026-05-09T07:26:43.211Z</time>
      </trkpt>
      <trkpt lat="47.85075" lon="6.92374">
        <ele>1128</ele>
        <time>2026-05-09T07:26:44.210Z</time>
      </trkpt>
      <trkpt lat="47.85076" lon="6.92373">
        <ele>1128</ele>
        <time>2026-05-09T07:26:45.210Z</time>
      </trkpt>
      <trkpt lat="47.85078" lon="6.92373">
        <ele>1128</ele>
        <time>2026-05-09T07:26:46.210Z</time>
      </trkpt>
      <trkpt lat="47.85079" lon="6.92373">
        <ele>1128</ele>
        <time>2026-05-09T07:26:47.210Z</time>
      </trkpt>
      <trkpt lat="47.8508" lon="6.92372">
        <ele>1127</ele>
        <time>2026-05-09T07:26:48.210Z</time>
      </trkpt>
      <trkpt lat="47.85081" lon="6.92372">
        <ele>1127</ele>
        <time>2026-05-09T07:26:49.210Z</time>
      </trkpt>
      <trkpt lat="47.85081" lon="6.92372">
        <ele>1127</ele>
        <time>2026-05-09T07:26:50.210Z</time>
      </trkpt>
      <trkpt lat="47.85082" lon="6.92372">
        <ele>1127</ele>
        <time>2026-05-09T07:26:51.211Z</time>
      </trkpt>
      <trkpt lat="47.85083" lon="6.92371">
        <ele>1126</ele>
        <time>2026-05-09T07:26:52.210Z</time>
      </trkpt>
      <trkpt lat="47.85083" lon="6.92369">
        <ele>1126</ele>
        <time>2026-05-09T07:26:53.210Z</time>
      </trkpt>
      <trkpt lat="47.85084" lon="6.92369">
        <ele>1125</ele>
        <time>2026-05-09T07:26:54.210Z</time>
      </trkpt>
      <trkpt lat="47.85085" lon="6.92368">
        <ele>1125</ele>
        <time>2026-05-09T07:26:55.211Z</time>
      </trkpt>
      <trkpt lat="47.85086" lon="6.92367">
        <ele>1124</ele>
        <time>2026-05-09T07:26:56.210Z</time>
      </trkpt>
      <trkpt lat="47.85088" lon="6.92366">
        <ele>1124</ele>
        <time>2026-05-09T07:26:57.210Z</time>
      </trkpt>
      <trkpt lat="47.85089" lon="6.92366">
        <ele>1124</ele>
        <time>2026-05-09T07:26:58.210Z</time>
      </trkpt>
      <trkpt lat="47.8509" lon="6.92365">
        <ele>1125</ele>
        <time>2026-05-09T07:26:59.210Z</time>
      </trkpt>
      <trkpt lat="47.8509" lon="6.92365">
        <ele>1125</ele>
        <time>2026-05-09T07:27:00.210Z</time>
      </trkpt>
      <trkpt lat="47.8509" lon="6.92365">
        <ele>1125</ele>
        <time>2026-05-09T07:27:01.210Z</time>
      </trkpt>
      <trkpt lat="47.85091" lon="6.92363">
        <ele>1125</ele>
        <time>2026-05-09T07:27:02.211Z</time>
      </trkpt>
      <trkpt lat="47.85091" lon="6.92362">
        <ele>1125</ele>
        <time>2026-05-09T07:27:03.211Z</time>
      </trkpt>
      <trkpt lat="47.85092" lon="6.92361">
        <ele>1125</ele>
        <time>2026-05-09T07:27:04.211Z</time>
      </trkpt>
      <trkpt lat="47.85093" lon="6.92359">
        <ele>1125</ele>
        <time>2026-05-09T07:27:05.210Z</time>
      </trkpt>
      <trkpt lat="47.85093" lon="6.92358">
        <ele>1125</ele>
        <time>2026-05-09T07:27:06.211Z</time>
      </trkpt>
      <trkpt lat="47.85094" lon="6.92357">
        <ele>1126</ele>
        <time>2026-05-09T07:27:07.210Z</time>
      </trkpt>
      <trkpt lat="47.85094" lon="6.92355">
        <ele>1126</ele>
        <time>2026-05-09T07:27:08.211Z</time>
      </trkpt>
      <trkpt lat="47.85094" lon="6.92353">
        <ele>1126</ele>
        <time>2026-05-09T07:27:09.210Z</time>
      </trkpt>
      <trkpt lat="47.85094" lon="6.92352">
        <ele>1126</ele>
        <time>2026-05-09T07:27:10.210Z</time>
      </trkpt>
      <trkpt lat="47.85095" lon="6.92351">
        <ele>1126</ele>
        <time>2026-05-09T07:27:11.211Z</time>
      </trkpt>
      <trkpt lat="47.85094" lon="6.9235">
        <ele>1126</ele>
        <time>2026-05-09T07:27:12.210Z</time>
      </trkpt>
      <trkpt lat="47.85095" lon="6.92349">
        <ele>1126</ele>
        <time>2026-05-09T07:27:13.210Z</time>
      </trkpt>
      <trkpt lat="47.85096" lon="6.92348">
        <ele>1126</ele>
        <time>2026-05-09T07:27:14.210Z</time>
      </trkpt>
      <trkpt lat="47.85097" lon="6.92346">
        <ele>1126</ele>
        <time>2026-05-09T07:27:15.210Z</time>
      </trkpt>
      <trkpt lat="47.85098" lon="6.92345">
        <ele>1126</ele>
        <time>2026-05-09T07:27:16.210Z</time>
      </trkpt>
      <trkpt lat="47.85099" lon="6.92344">
        <ele>1125</ele>
        <time>2026-05-09T07:27:17.210Z</time>
      </trkpt>
      <trkpt lat="47.85101" lon="6.92343">
        <ele>1125</ele>
        <time>2026-05-09T07:27:18.210Z</time>
      </trkpt>
      <trkpt lat="47.85102" lon="6.92342">
        <ele>1125</ele>
        <time>2026-05-09T07:27:19.210Z</time>
      </trkpt>
      <trkpt lat="47.85102" lon="6.92342">
        <ele>1125</ele>
        <time>2026-05-09T07:27:20.210Z</time>
      </trkpt>
      <trkpt lat="47.85103" lon="6.92342">
        <ele>1125</ele>
        <time>2026-05-09T07:27:21.210Z</time>
      </trkpt>
      <trkpt lat="47.85105" lon="6.92341">
        <ele>1126</ele>
        <time>2026-05-09T07:27:22.210Z</time>
      </trkpt>
      <trkpt lat="47.85106" lon="6.9234">
        <ele>1126</ele>
        <time>2026-05-09T07:27:23.210Z</time>
      </trkpt>
      <trkpt lat="47.85108" lon="6.9234">
        <ele>1126</ele>
        <time>2026-05-09T07:27:24.210Z</time>
      </trkpt>
      <trkpt lat="47.8511" lon="6.92339">
        <ele>1127</ele>
        <time>2026-05-09T07:27:25.211Z</time>
      </trkpt>
      <trkpt lat="47.85111" lon="6.92338">
        <ele>1127</ele>
        <time>2026-05-09T07:27:26.210Z</time>
      </trkpt>
      <trkpt lat="47.85112" lon="6.92338">
        <ele>1127</ele>
        <time>2026-05-09T07:27:27.211Z</time>
      </trkpt>
      <trkpt lat="47.85113" lon="6.92336">
        <ele>1127</ele>
        <time>2026-05-09T07:27:28.210Z</time>
      </trkpt>
      <trkpt lat="47.85113" lon="6.92336">
        <ele>1127</ele>
        <time>2026-05-09T07:27:29.210Z</time>
      </trkpt>
      <trkpt lat="47.85113" lon="6.92334">
        <ele>1127</ele>
        <time>2026-05-09T07:27:30.210Z</time>
      </trkpt>
      <trkpt lat="47.85114" lon="6.92333">
        <ele>1127</ele>
        <time>2026-05-09T07:27:31.210Z</time>
      </trkpt>
      <trkpt lat="47.85115" lon="6.92331">
        <ele>1127</ele>
        <time>2026-05-09T07:27:32.210Z</time>
      </trkpt>
      <trkpt lat="47.85115" lon="6.9233">
        <ele>1127</ele>
        <time>2026-05-09T07:27:33.210Z</time>
      </trkpt>
      <trkpt lat="47.85116" lon="6.92329">
        <ele>1127</ele>
        <time>2026-05-09T07:27:34.210Z</time>
      </trkpt>
      <trkpt lat="47.85117" lon="6.92327">
        <ele>1127</ele>
        <time>2026-05-09T07:27:35.211Z</time>
      </trkpt>
      <trkpt lat="47.85117" lon="6.92325">
        <ele>1127</ele>
        <time>2026-05-09T07:27:36.211Z</time>
      </trkpt>
      <trkpt lat="47.85118" lon="6.92324">
        <ele>1127</ele>
        <time>2026-05-09T07:27:37.210Z</time>
      </trkpt>
      <trkpt lat="47.85118" lon="6.92324">
        <ele>1127</ele>
        <time>2026-05-09T07:27:38.210Z</time>
      </trkpt>
      <trkpt lat="47.8512" lon="6.92324">
        <ele>1127</ele>
        <time>2026-05-09T07:27:39.210Z</time>
      </trkpt>
      <trkpt lat="47.85122" lon="6.92323">
        <ele>1127</ele>
        <time>2026-05-09T07:27:40.210Z</time>
      </trkpt>
      <trkpt lat="47.85124" lon="6.92321">
        <ele>1127</ele>
        <time>2026-05-09T07:27:41.210Z</time>
      </trkpt>
      <trkpt lat="47.85125" lon="6.92321">
        <ele>1128</ele>
        <time>2026-05-09T07:27:42.210Z</time>
      </trkpt>
      <trkpt lat="47.85126" lon="6.9232">
        <ele>1128</ele>
        <time>2026-05-09T07:27:43.211Z</time>
      </trkpt>
      <trkpt lat="47.85127" lon="6.92319">
        <ele>1128</ele>
        <time>2026-05-09T07:27:44.211Z</time>
      </trkpt>
      <trkpt lat="47.85128" lon="6.92319">
        <ele>1129</ele>
        <time>2026-05-09T07:27:45.210Z</time>
      </trkpt>
      <trkpt lat="47.85129" lon="6.92319">
        <ele>1129</ele>
        <time>2026-05-09T07:27:46.210Z</time>
      </trkpt>
      <trkpt lat="47.8513" lon="6.92318">
        <ele>1130</ele>
        <time>2026-05-09T07:27:47.210Z</time>
      </trkpt>
      <trkpt lat="47.85131" lon="6.92318">
        <ele>1130</ele>
        <time>2026-05-09T07:27:48.210Z</time>
      </trkpt>
      <trkpt lat="47.85133" lon="6.92317">
        <ele>1131</ele>
        <time>2026-05-09T07:27:49.210Z</time>
      </trkpt>
      <trkpt lat="47.85134" lon="6.92316">
        <ele>1131</ele>
        <time>2026-05-09T07:27:50.210Z</time>
      </trkpt>
      <trkpt lat="47.85135" lon="6.92316">
        <ele>1132</ele>
        <time>2026-05-09T07:27:51.210Z</time>
      </trkpt>
      <trkpt lat="47.85136" lon="6.92315">
        <ele>1132</ele>
        <time>2026-05-09T07:27:52.210Z</time>
      </trkpt>
      <trkpt lat="47.85137" lon="6.92315">
        <ele>1133</ele>
        <time>2026-05-09T07:27:53.210Z</time>
      </trkpt>
      <trkpt lat="47.85137" lon="6.92314">
        <ele>1133</ele>
        <time>2026-05-09T07:27:54.210Z</time>
      </trkpt>
      <trkpt lat="47.85137" lon="6.92314">
        <ele>1133</ele>
        <time>2026-05-09T07:27:55.210Z</time>
      </trkpt>
      <trkpt lat="47.85138" lon="6.92313">
        <ele>1134</ele>
        <time>2026-05-09T07:27:56.210Z</time>
      </trkpt>
      <trkpt lat="47.85139" lon="6.92311">
        <ele>1134</ele>
        <time>2026-05-09T07:27:57.210Z</time>
      </trkpt>
      <trkpt lat="47.8514" lon="6.92309">
        <ele>1134</ele>
        <time>2026-05-09T07:27:58.210Z</time>
      </trkpt>
      <trkpt lat="47.85141" lon="6.92307">
        <ele>1134</ele>
        <time>2026-05-09T07:27:59.210Z</time>
      </trkpt>
      <trkpt lat="47.85143" lon="6.92306">
        <ele>1133</ele>
        <time>2026-05-09T07:28:00.210Z</time>
      </trkpt>
      <trkpt lat="47.85145" lon="6.92305">
        <ele>1133</ele>
        <time>2026-05-09T07:28:01.210Z</time>
      </trkpt>
      <trkpt lat="47.85146" lon="6.92304">
        <ele>1133</ele>
        <time>2026-05-09T07:28:02.210Z</time>
      </trkpt>
      <trkpt lat="47.85147" lon="6.92302">
        <ele>1133</ele>
        <time>2026-05-09T07:28:03.210Z</time>
      </trkpt>
      <trkpt lat="47.85148" lon="6.92301">
        <ele>1133</ele>
        <time>2026-05-09T07:28:04.210Z</time>
      </trkpt>
      <trkpt lat="47.8515" lon="6.92301">
        <ele>1133</ele>
        <time>2026-05-09T07:28:05.210Z</time>
      </trkpt>
      <trkpt lat="47.85151" lon="6.923">
        <ele>1133</ele>
        <time>2026-05-09T07:28:06.210Z</time>
      </trkpt>
      <trkpt lat="47.85152" lon="6.923">
        <ele>1134</ele>
        <time>2026-05-09T07:28:07.210Z</time>
      </trkpt>
      <trkpt lat="47.85154" lon="6.92299">
        <ele>1134</ele>
        <time>2026-05-09T07:28:08.210Z</time>
      </trkpt>
      <trkpt lat="47.85155" lon="6.92299">
        <ele>1134</ele>
        <time>2026-05-09T07:28:09.210Z</time>
      </trkpt>
      <trkpt lat="47.85156" lon="6.92299">
        <ele>1134</ele>
        <time>2026-05-09T07:28:10.210Z</time>
      </trkpt>
      <trkpt lat="47.85157" lon="6.92298">
        <ele>1134</ele>
        <time>2026-05-09T07:28:11.210Z</time>
      </trkpt>
      <trkpt lat="47.85159" lon="6.92297">
        <ele>1134</ele>
        <time>2026-05-09T07:28:12.210Z</time>
      </trkpt>
      <trkpt lat="47.8516" lon="6.92295">
        <ele>1134</ele>
        <time>2026-05-09T07:28:13.211Z</time>
      </trkpt>
      <trkpt lat="47.85161" lon="6.92294">
        <ele>1134</ele>
        <time>2026-05-09T07:28:14.210Z</time>
      </trkpt>
      <trkpt lat="47.85162" lon="6.92294">
        <ele>1134</ele>
        <time>2026-05-09T07:28:15.210Z</time>
      </trkpt>
      <trkpt lat="47.85163" lon="6.92294">
        <ele>1134</ele>
        <time>2026-05-09T07:28:16.211Z</time>
      </trkpt>
      <trkpt lat="47.85164" lon="6.92293">
        <ele>1134</ele>
        <time>2026-05-09T07:28:17.210Z</time>
      </trkpt>
      <trkpt lat="47.85166" lon="6.92293">
        <ele>1134</ele>
        <time>2026-05-09T07:28:18.211Z</time>
      </trkpt>
      <trkpt lat="47.85166" lon="6.92292">
        <ele>1134</ele>
        <time>2026-05-09T07:28:19.211Z</time>
      </trkpt>
      <trkpt lat="47.85167" lon="6.92291">
        <ele>1134</ele>
        <time>2026-05-09T07:28:20.211Z</time>
      </trkpt>
      <trkpt lat="47.85167" lon="6.9229">
        <ele>1134</ele>
        <time>2026-05-09T07:28:21.210Z</time>
      </trkpt>
      <trkpt lat="47.85167" lon="6.9229">
        <ele>1134</ele>
        <time>2026-05-09T07:28:22.210Z</time>
      </trkpt>
      <trkpt lat="47.85168" lon="6.92289">
        <ele>1134</ele>
        <time>2026-05-09T07:28:23.210Z</time>
      </trkpt>
      <trkpt lat="47.85168" lon="6.92288">
        <ele>1134</ele>
        <time>2026-05-09T07:28:24.211Z</time>
      </trkpt>
      <trkpt lat="47.85169" lon="6.92288">
        <ele>1134</ele>
        <time>2026-05-09T07:28:25.210Z</time>
      </trkpt>
      <trkpt lat="47.85169" lon="6.92287">
        <ele>1134</ele>
        <time>2026-05-09T07:28:26.210Z</time>
      </trkpt>
      <trkpt lat="47.85169" lon="6.92287">
        <ele>1133</ele>
        <time>2026-05-09T07:28:27.210Z</time>
      </trkpt>
      <trkpt lat="47.85169" lon="6.92286">
        <ele>1133</ele>
        <time>2026-05-09T07:28:28.211Z</time>
      </trkpt>
      <trkpt lat="47.85171" lon="6.92285">
        <ele>1133</ele>
        <time>2026-05-09T07:28:29.210Z</time>
      </trkpt>
      <trkpt lat="47.85172" lon="6.92285">
        <ele>1132</ele>
        <time>2026-05-09T07:28:30.210Z</time>
      </trkpt>
      <trkpt lat="47.85174" lon="6.92285">
        <ele>1132</ele>
        <time>2026-05-09T07:28:31.210Z</time>
      </trkpt>
      <trkpt lat="47.85174" lon="6.92285">
        <ele>1132</ele>
        <time>2026-05-09T07:28:32.211Z</time>
      </trkpt>
      <trkpt lat="47.85176" lon="6.92284">
        <ele>1132</ele>
        <time>2026-05-09T07:28:33.210Z</time>
      </trkpt>
      <trkpt lat="47.85178" lon="6.92283">
        <ele>1131</ele>
        <time>2026-05-09T07:28:34.210Z</time>
      </trkpt>
      <trkpt lat="47.85179" lon="6.92283">
        <ele>1131</ele>
        <time>2026-05-09T07:28:35.211Z</time>
      </trkpt>
      <trkpt lat="47.8518" lon="6.92282">
        <ele>1130</ele>
        <time>2026-05-09T07:28:36.210Z</time>
      </trkpt>
      <trkpt lat="47.85181" lon="6.92282">
        <ele>1130</ele>
        <time>2026-05-09T07:28:37.210Z</time>
      </trkpt>
      <trkpt lat="47.85182" lon="6.92281">
        <ele>1130</ele>
        <time>2026-05-09T07:28:38.211Z</time>
      </trkpt>
      <trkpt lat="47.85183" lon="6.92281">
        <ele>1130</ele>
        <time>2026-05-09T07:28:39.210Z</time>
      </trkpt>
      <trkpt lat="47.85185" lon="6.9228">
        <ele>1130</ele>
        <time>2026-05-09T07:28:40.210Z</time>
      </trkpt>
      <trkpt lat="47.85186" lon="6.92281">
        <ele>1130</ele>
        <time>2026-05-09T07:28:41.210Z</time>
      </trkpt>
      <trkpt lat="47.85187" lon="6.92281">
        <ele>1129</ele>
        <time>2026-05-09T07:28:42.210Z</time>
      </trkpt>
      <trkpt lat="47.85189" lon="6.92282">
        <ele>1129</ele>
        <time>2026-05-09T07:28:43.210Z</time>
      </trkpt>
      <trkpt lat="47.85191" lon="6.92281">
        <ele>1129</ele>
        <time>2026-05-09T07:28:44.211Z</time>
      </trkpt>
      <trkpt lat="47.85192" lon="6.92281">
        <ele>1128</ele>
        <time>2026-05-09T07:28:45.210Z</time>
      </trkpt>
      <trkpt lat="47.85194" lon="6.9228">
        <ele>1128</ele>
        <time>2026-05-09T07:28:46.210Z</time>
      </trkpt>
      <trkpt lat="47.85195" lon="6.92279">
        <ele>1127</ele>
        <time>2026-05-09T07:28:47.210Z</time>
      </trkpt>
      <trkpt lat="47.85197" lon="6.92278">
        <ele>1127</ele>
        <time>2026-05-09T07:28:48.210Z</time>
      </trkpt>
      <trkpt lat="47.85197" lon="6.92277">
        <ele>1127</ele>
        <time>2026-05-09T07:28:49.211Z</time>
      </trkpt>
      <trkpt lat="47.85198" lon="6.92276">
        <ele>1127</ele>
        <time>2026-05-09T07:28:50.210Z</time>
      </trkpt>
      <trkpt lat="47.85199" lon="6.92276">
        <ele>1127</ele>
        <time>2026-05-09T07:28:51.210Z</time>
      </trkpt>
      <trkpt lat="47.852" lon="6.92275">
        <ele>1126</ele>
        <time>2026-05-09T07:28:52.210Z</time>
      </trkpt>
      <trkpt lat="47.85201" lon="6.92273">
        <ele>1126</ele>
        <time>2026-05-09T07:28:53.211Z</time>
      </trkpt>
      <trkpt lat="47.85203" lon="6.92273">
        <ele>1125</ele>
        <time>2026-05-09T07:28:54.210Z</time>
      </trkpt>
      <trkpt lat="47.85205" lon="6.92272">
        <ele>1125</ele>
        <time>2026-05-09T07:28:55.211Z</time>
      </trkpt>
      <trkpt lat="47.85207" lon="6.92271">
        <ele>1124</ele>
        <time>2026-05-09T07:28:56.210Z</time>
      </trkpt>
      <trkpt lat="47.85208" lon="6.92272">
        <ele>1124</ele>
        <time>2026-05-09T07:28:57.210Z</time>
      </trkpt>
      <trkpt lat="47.8521" lon="6.92273">
        <ele>1123</ele>
        <time>2026-05-09T07:28:58.210Z</time>
      </trkpt>
      <trkpt lat="47.85212" lon="6.92273">
        <ele>1123</ele>
        <time>2026-05-09T07:28:59.210Z</time>
      </trkpt>
      <trkpt lat="47.85214" lon="6.92273">
        <ele>1122</ele>
        <time>2026-05-09T07:29:00.210Z</time>
      </trkpt>
      <trkpt lat="47.85216" lon="6.92272">
        <ele>1121</ele>
        <time>2026-05-09T07:29:01.211Z</time>
      </trkpt>
      <trkpt lat="47.85218" lon="6.92271">
        <ele>1121</ele>
        <time>2026-05-09T07:29:02.210Z</time>
      </trkpt>
      <trkpt lat="47.85219" lon="6.92272">
        <ele>1120</ele>
        <time>2026-05-09T07:29:03.211Z</time>
      </trkpt>
      <trkpt lat="47.85221" lon="6.92273">
        <ele>1120</ele>
        <time>2026-05-09T07:29:04.210Z</time>
      </trkpt>
      <trkpt lat="47.85222" lon="6.92273">
        <ele>1119</ele>
        <time>2026-05-09T07:29:05.211Z</time>
      </trkpt>
      <trkpt lat="47.85225" lon="6.92272">
        <ele>1119</ele>
        <time>2026-05-09T07:29:06.211Z</time>
      </trkpt>
      <trkpt lat="47.85226" lon="6.92271">
        <ele>1119</ele>
        <time>2026-05-09T07:29:07.210Z</time>
      </trkpt>
      <trkpt lat="47.85227" lon="6.92267">
        <ele>1119</ele>
        <time>2026-05-09T07:29:08.211Z</time>
      </trkpt>
      <trkpt lat="47.85229" lon="6.92263">
        <ele>1119</ele>
        <time>2026-05-09T07:29:09.211Z</time>
      </trkpt>
      <trkpt lat="47.8523" lon="6.92261">
        <ele>1119</ele>
        <time>2026-05-09T07:29:10.210Z</time>
      </trkpt>
      <trkpt lat="47.85231" lon="6.92262">
        <ele>1119</ele>
        <time>2026-05-09T07:29:11.210Z</time>
      </trkpt>
      <trkpt lat="47.85232" lon="6.92262">
        <ele>1119</ele>
        <time>2026-05-09T07:29:12.211Z</time>
      </trkpt>
      <trkpt lat="47.85232" lon="6.92261">
        <ele>1119</ele>
        <time>2026-05-09T07:29:13.211Z</time>
      </trkpt>
      <trkpt lat="47.85232" lon="6.92259">
        <ele>1120</ele>
        <time>2026-05-09T07:29:14.211Z</time>
      </trkpt>
      <trkpt lat="47.85232" lon="6.92258">
        <ele>1120</ele>
        <time>2026-05-09T07:29:15.210Z</time>
      </trkpt>
      <trkpt lat="47.85232" lon="6.92257">
        <ele>1121</ele>
        <time>2026-05-09T07:29:16.210Z</time>
      </trkpt>
      <trkpt lat="47.85233" lon="6.92256">
        <ele>1121</ele>
        <time>2026-05-09T07:29:17.210Z</time>
      </trkpt>
      <trkpt lat="47.85234" lon="6.92255">
        <ele>1121</ele>
        <time>2026-05-09T07:29:18.211Z</time>
      </trkpt>
      <trkpt lat="47.85234" lon="6.92255">
        <ele>1121</ele>
        <time>2026-05-09T07:29:19.210Z</time>
      </trkpt>
      <trkpt lat="47.85235" lon="6.92254">
        <ele>1122</ele>
        <time>2026-05-09T07:29:20.210Z</time>
      </trkpt>
      <trkpt lat="47.85235" lon="6.92253">
        <ele>1122</ele>
        <time>2026-05-09T07:29:21.211Z</time>
      </trkpt>
      <trkpt lat="47.85235" lon="6.92252">
        <ele>1122</ele>
        <time>2026-05-09T07:29:22.210Z</time>
      </trkpt>
      <trkpt lat="47.85236" lon="6.92251">
        <ele>1123</ele>
        <time>2026-05-09T07:29:23.210Z</time>
      </trkpt>
      <trkpt lat="47.85236" lon="6.9225">
        <ele>1123</ele>
        <time>2026-05-09T07:29:24.210Z</time>
      </trkpt>
      <trkpt lat="47.85237" lon="6.92248">
        <ele>1124</ele>
        <time>2026-05-09T07:29:25.210Z</time>
      </trkpt>
      <trkpt lat="47.85238" lon="6.92247">
        <ele>1124</ele>
        <time>2026-05-09T07:29:26.210Z</time>
      </trkpt>
      <trkpt lat="47.85238" lon="6.92246">
        <ele>1125</ele>
        <time>2026-05-09T07:29:27.210Z</time>
      </trkpt>
      <trkpt lat="47.85238" lon="6.92246">
        <ele>1125</ele>
        <time>2026-05-09T07:29:28.210Z</time>
      </trkpt>
      <trkpt lat="47.85238" lon="6.92245">
        <ele>1125</ele>
        <time>2026-05-09T07:29:29.210Z</time>
      </trkpt>
      <trkpt lat="47.85238" lon="6.92245">
        <ele>1125</ele>
        <time>2026-05-09T07:29:30.210Z</time>
      </trkpt>
      <trkpt lat="47.85239" lon="6.92245">
        <ele>1125</ele>
        <time>2026-05-09T07:29:31.211Z</time>
      </trkpt>
      <trkpt lat="47.85239" lon="6.92245">
        <ele>1125</ele>
        <time>2026-05-09T07:29:32.210Z</time>
      </trkpt>
      <trkpt lat="47.85239" lon="6.92244">
        <ele>1125</ele>
        <time>2026-05-09T07:29:33.211Z</time>
      </trkpt>
      <trkpt lat="47.8524" lon="6.92243">
        <ele>1126</ele>
        <time>2026-05-09T07:29:34.210Z</time>
      </trkpt>
      <trkpt lat="47.85241" lon="6.92243">
        <ele>1126</ele>
        <time>2026-05-09T07:29:35.210Z</time>
      </trkpt>
      <trkpt lat="47.85242" lon="6.92243">
        <ele>1126</ele>
        <time>2026-05-09T07:29:36.210Z</time>
      </trkpt>
      <trkpt lat="47.85242" lon="6.92243">
        <ele>1126</ele>
        <time>2026-05-09T07:29:37.210Z</time>
      </trkpt>
      <trkpt lat="47.85243" lon="6.92243">
        <ele>1125</ele>
        <time>2026-05-09T07:29:38.210Z</time>
      </trkpt>
      <trkpt lat="47.85244" lon="6.92242">
        <ele>1125</ele>
        <time>2026-05-09T07:29:39.211Z</time>
      </trkpt>
      <trkpt lat="47.85245" lon="6.92241">
        <ele>1125</ele>
        <time>2026-05-09T07:29:40.210Z</time>
      </trkpt>
      <trkpt lat="47.85245" lon="6.92241">
        <ele>1125</ele>
        <time>2026-05-09T07:29:41.211Z</time>
      </trkpt>
      <trkpt lat="47.85245" lon="6.9224">
        <ele>1125</ele>
        <time>2026-05-09T07:29:42.211Z</time>
      </trkpt>
      <trkpt lat="47.85245" lon="6.9224">
        <ele>1125</ele>
        <time>2026-05-09T07:29:43.211Z</time>
      </trkpt>
      <trkpt lat="47.85244" lon="6.9224">
        <ele>1125</ele>
        <time>2026-05-09T07:29:44.210Z</time>
      </trkpt>
      <trkpt lat="47.85244" lon="6.92239">
        <ele>1125</ele>
        <time>2026-05-09T07:29:45.211Z</time>
      </trkpt>
      <trkpt lat="47.85244" lon="6.92238">
        <ele>1125</ele>
        <time>2026-05-09T07:29:46.210Z</time>
      </trkpt>
      <trkpt lat="47.85245" lon="6.92237">
        <ele>1125</ele>
        <time>2026-05-09T07:29:47.210Z</time>
      </trkpt>
      <trkpt lat="47.85245" lon="6.92236">
        <ele>1125</ele>
        <time>2026-05-09T07:29:48.210Z</time>
      </trkpt>
      <trkpt lat="47.85246" lon="6.92236">
        <ele>1125</ele>
        <time>2026-05-09T07:29:49.210Z</time>
      </trkpt>
      <trkpt lat="47.85246" lon="6.92235">
        <ele>1125</ele>
        <time>2026-05-09T07:29:50.211Z</time>
      </trkpt>
      <trkpt lat="47.85247" lon="6.92234">
        <ele>1126</ele>
        <time>2026-05-09T07:29:51.210Z</time>
      </trkpt>
      <trkpt lat="47.85247" lon="6.92234">
        <ele>1126</ele>
        <time>2026-05-09T07:29:52.211Z</time>
      </trkpt>
      <trkpt lat="47.85247" lon="6.92234">
        <ele>1126</ele>
        <time>2026-05-09T07:29:53.210Z</time>
      </trkpt>
      <trkpt lat="47.85248" lon="6.92234">
        <ele>1126</ele>
        <time>2026-05-09T07:29:54.210Z</time>
      </trkpt>
      <trkpt lat="47.85248" lon="6.92233">
        <ele>1127</ele>
        <time>2026-05-09T07:29:55.211Z</time>
      </trkpt>
      <trkpt lat="47.85249" lon="6.92232">
        <ele>1127</ele>
        <time>2026-05-09T07:29:56.210Z</time>
      </trkpt>
      <trkpt lat="47.8525" lon="6.92231">
        <ele>1127</ele>
        <time>2026-05-09T07:29:57.210Z</time>
      </trkpt>
      <trkpt lat="47.8525" lon="6.92229">
        <ele>1128</ele>
        <time>2026-05-09T07:29:58.210Z</time>
      </trkpt>
      <trkpt lat="47.8525" lon="6.92228">
        <ele>1128</ele>
        <time>2026-05-09T07:29:59.210Z</time>
      </trkpt>
      <trkpt lat="47.8525" lon="6.92227">
        <ele>1128</ele>
        <time>2026-05-09T07:30:00.210Z</time>
      </trkpt>
      <trkpt lat="47.8525" lon="6.92226">
        <ele>1128</ele>
        <time>2026-05-09T07:30:01.211Z</time>
      </trkpt>
      <trkpt lat="47.8525" lon="6.92225">
        <ele>1128</ele>
        <time>2026-05-09T07:30:02.210Z</time>
      </trkpt>
      <trkpt lat="47.8525" lon="6.92224">
        <ele>1128</ele>
        <time>2026-05-09T07:30:03.210Z</time>
      </trkpt>
      <trkpt lat="47.8525" lon="6.92222">
        <ele>1128</ele>
        <time>2026-05-09T07:30:04.210Z</time>
      </trkpt>
      <trkpt lat="47.8525" lon="6.92221">
        <ele>1129</ele>
        <time>2026-05-09T07:30:05.210Z</time>
      </trkpt>
      <trkpt lat="47.8525" lon="6.9222">
        <ele>1129</ele>
        <time>2026-05-09T07:30:06.210Z</time>
      </trkpt>
      <trkpt lat="47.85251" lon="6.92219">
        <ele>1129</ele>
        <time>2026-05-09T07:30:07.210Z</time>
      </trkpt>
      <trkpt lat="47.85251" lon="6.92217">
        <ele>1130</ele>
        <time>2026-05-09T07:30:08.210Z</time>
      </trkpt>
      <trkpt lat="47.8525" lon="6.92216">
        <ele>1130</ele>
        <time>2026-05-09T07:30:09.211Z</time>
      </trkpt>
      <trkpt lat="47.8525" lon="6.92214">
        <ele>1130</ele>
        <time>2026-05-09T07:30:10.210Z</time>
      </trkpt>
      <trkpt lat="47.85249" lon="6.92213">
        <ele>1130</ele>
        <time>2026-05-09T07:30:11.210Z</time>
      </trkpt>
      <trkpt lat="47.85249" lon="6.92211">
        <ele>1130</ele>
        <time>2026-05-09T07:30:12.210Z</time>
      </trkpt>
      <trkpt lat="47.85249" lon="6.92209">
        <ele>1130</ele>
        <time>2026-05-09T07:30:13.210Z</time>
      </trkpt>
      <trkpt lat="47.85249" lon="6.92207">
        <ele>1130</ele>
        <time>2026-05-09T07:30:14.211Z</time>
      </trkpt>
      <trkpt lat="47.85249" lon="6.92206">
        <ele>1131</ele>
        <time>2026-05-09T07:30:15.211Z</time>
      </trkpt>
      <trkpt lat="47.85249" lon="6.92204">
        <ele>1131</ele>
        <time>2026-05-09T07:30:16.210Z</time>
      </trkpt>
      <trkpt lat="47.85249" lon="6.92202">
        <ele>1132</ele>
        <time>2026-05-09T07:30:17.210Z</time>
      </trkpt>
      <trkpt lat="47.85249" lon="6.92201">
        <ele>1133</ele>
        <time>2026-05-09T07:30:18.210Z</time>
      </trkpt>
      <trkpt lat="47.85249" lon="6.92199">
        <ele>1133</ele>
        <time>2026-05-09T07:30:19.210Z</time>
      </trkpt>
      <trkpt lat="47.8525" lon="6.92198">
        <ele>1133</ele>
        <time>2026-05-09T07:30:20.210Z</time>
      </trkpt>
      <trkpt lat="47.8525" lon="6.92196">
        <ele>1133</ele>
        <time>2026-05-09T07:30:21.210Z</time>
      </trkpt>
      <trkpt lat="47.8525" lon="6.92194">
        <ele>1133</ele>
        <time>2026-05-09T07:30:22.210Z</time>
      </trkpt>
      <trkpt lat="47.8525" lon="6.92192">
        <ele>1134</ele>
        <time>2026-05-09T07:30:23.210Z</time>
      </trkpt>
      <trkpt lat="47.8525" lon="6.9219">
        <ele>1134</ele>
        <time>2026-05-09T07:30:24.210Z</time>
      </trkpt>
      <trkpt lat="47.85251" lon="6.92189">
        <ele>1134</ele>
        <time>2026-05-09T07:30:25.210Z</time>
      </trkpt>
      <trkpt lat="47.85251" lon="6.92188">
        <ele>1134</ele>
        <time>2026-05-09T07:30:26.211Z</time>
      </trkpt>
      <trkpt lat="47.85251" lon="6.92186">
        <ele>1134</ele>
        <time>2026-05-09T07:30:27.210Z</time>
      </trkpt>
      <trkpt lat="47.85251" lon="6.92185">
        <ele>1134</ele>
        <time>2026-05-09T07:30:28.211Z</time>
      </trkpt>
      <trkpt lat="47.85251" lon="6.92184">
        <ele>1134</ele>
        <time>2026-05-09T07:30:29.211Z</time>
      </trkpt>
      <trkpt lat="47.85251" lon="6.92182">
        <ele>1134</ele>
        <time>2026-05-09T07:30:30.211Z</time>
      </trkpt>
      <trkpt lat="47.85251" lon="6.92181">
        <ele>1134</ele>
        <time>2026-05-09T07:30:31.211Z</time>
      </trkpt>
      <trkpt lat="47.85251" lon="6.9218">
        <ele>1134</ele>
        <time>2026-05-09T07:30:32.211Z</time>
      </trkpt>
      <trkpt lat="47.8525" lon="6.92178">
        <ele>1134</ele>
        <time>2026-05-09T07:30:33.210Z</time>
      </trkpt>
      <trkpt lat="47.8525" lon="6.92177">
        <ele>1134</ele>
        <time>2026-05-09T07:30:34.210Z</time>
      </trkpt>
      <trkpt lat="47.85248" lon="6.92176">
        <ele>1134</ele>
        <time>2026-05-09T07:30:35.210Z</time>
      </trkpt>
      <trkpt lat="47.85247" lon="6.92174">
        <ele>1133</ele>
        <time>2026-05-09T07:30:36.210Z</time>
      </trkpt>
      <trkpt lat="47.85247" lon="6.92172">
        <ele>1133</ele>
        <time>2026-05-09T07:30:37.211Z</time>
      </trkpt>
      <trkpt lat="47.85247" lon="6.9217">
        <ele>1132</ele>
        <time>2026-05-09T07:30:38.210Z</time>
      </trkpt>
      <trkpt lat="47.85247" lon="6.92167">
        <ele>1132</ele>
        <time>2026-05-09T07:30:39.210Z</time>
      </trkpt>
      <trkpt lat="47.85247" lon="6.92164">
        <ele>1131</ele>
        <time>2026-05-09T07:30:40.211Z</time>
      </trkpt>
      <trkpt lat="47.85248" lon="6.92162">
        <ele>1131</ele>
        <time>2026-05-09T07:30:41.211Z</time>
      </trkpt>
      <trkpt lat="47.85248" lon="6.92159">
        <ele>1130</ele>
        <time>2026-05-09T07:30:42.211Z</time>
      </trkpt>
      <trkpt lat="47.85249" lon="6.92158">
        <ele>1130</ele>
        <time>2026-05-09T07:30:43.211Z</time>
      </trkpt>
      <trkpt lat="47.8525" lon="6.92157">
        <ele>1129</ele>
        <time>2026-05-09T07:30:44.210Z</time>
      </trkpt>
      <trkpt lat="47.85251" lon="6.92157">
        <ele>1129</ele>
        <time>2026-05-09T07:30:45.211Z</time>
      </trkpt>
      <trkpt lat="47.85251" lon="6.92156">
        <ele>1129</ele>
        <time>2026-05-09T07:30:46.210Z</time>
      </trkpt>
      <trkpt lat="47.85251" lon="6.92155">
        <ele>1128</ele>
        <time>2026-05-09T07:30:47.211Z</time>
      </trkpt>
      <trkpt lat="47.85251" lon="6.92153">
        <ele>1128</ele>
        <time>2026-05-09T07:30:48.211Z</time>
      </trkpt>
      <trkpt lat="47.85251" lon="6.92151">
        <ele>1127</ele>
        <time>2026-05-09T07:30:49.211Z</time>
      </trkpt>
      <trkpt lat="47.85251" lon="6.9215">
        <ele>1127</ele>
        <time>2026-05-09T07:30:50.210Z</time>
      </trkpt>
      <trkpt lat="47.85252" lon="6.92148">
        <ele>1127</ele>
        <time>2026-05-09T07:30:51.210Z</time>
      </trkpt>
      <trkpt lat="47.85253" lon="6.92146">
        <ele>1127</ele>
        <time>2026-05-09T07:30:52.210Z</time>
      </trkpt>
      <trkpt lat="47.85253" lon="6.92145">
        <ele>1127</ele>
        <time>2026-05-09T07:30:53.210Z</time>
      </trkpt>
      <trkpt lat="47.85253" lon="6.92143">
        <ele>1127</ele>
        <time>2026-05-09T07:30:54.210Z</time>
      </trkpt>
      <trkpt lat="47.85253" lon="6.92141">
        <ele>1127</ele>
        <time>2026-05-09T07:30:55.211Z</time>
      </trkpt>
      <trkpt lat="47.85253" lon="6.92139">
        <ele>1127</ele>
        <time>2026-05-09T07:30:56.210Z</time>
      </trkpt>
      <trkpt lat="47.85253" lon="6.92137">
        <ele>1127</ele>
        <time>2026-05-09T07:30:57.210Z</time>
      </trkpt>
      <trkpt lat="47.85253" lon="6.92135">
        <ele>1127</ele>
        <time>2026-05-09T07:30:58.211Z</time>
      </trkpt>
      <trkpt lat="47.85254" lon="6.92133">
        <ele>1127</ele>
        <time>2026-05-09T07:30:59.210Z</time>
      </trkpt>
      <trkpt lat="47.85255" lon="6.92132">
        <ele>1127</ele>
        <time>2026-05-09T07:31:00.210Z</time>
      </trkpt>
      <trkpt lat="47.85256" lon="6.9213">
        <ele>1127</ele>
        <time>2026-05-09T07:31:01.210Z</time>
      </trkpt>
      <trkpt lat="47.85257" lon="6.92127">
        <ele>1127</ele>
        <time>2026-05-09T07:31:02.210Z</time>
      </trkpt>
      <trkpt lat="47.85258" lon="6.92124">
        <ele>1127</ele>
        <time>2026-05-09T07:31:03.210Z</time>
      </trkpt>
      <trkpt lat="47.85259" lon="6.9212">
        <ele>1127</ele>
        <time>2026-05-09T07:31:04.211Z</time>
      </trkpt>
      <trkpt lat="47.85261" lon="6.92118">
        <ele>1127</ele>
        <time>2026-05-09T07:31:05.211Z</time>
      </trkpt>
      <trkpt lat="47.85263" lon="6.92117">
        <ele>1127</ele>
        <time>2026-05-09T07:31:06.210Z</time>
      </trkpt>
      <trkpt lat="47.85265" lon="6.92115">
        <ele>1127</ele>
        <time>2026-05-09T07:31:07.210Z</time>
      </trkpt>
      <trkpt lat="47.85266" lon="6.92113">
        <ele>1127</ele>
        <time>2026-05-09T07:31:08.210Z</time>
      </trkpt>
      <trkpt lat="47.85267" lon="6.92111">
        <ele>1127</ele>
        <time>2026-05-09T07:31:09.210Z</time>
      </trkpt>
      <trkpt lat="47.85267" lon="6.92109">
        <ele>1127</ele>
        <time>2026-05-09T07:31:10.211Z</time>
      </trkpt>
      <trkpt lat="47.85267" lon="6.92108">
        <ele>1128</ele>
        <time>2026-05-09T07:31:11.210Z</time>
      </trkpt>
      <trkpt lat="47.85267" lon="6.92106">
        <ele>1128</ele>
        <time>2026-05-09T07:31:12.211Z</time>
      </trkpt>
      <trkpt lat="47.85268" lon="6.92103">
        <ele>1128</ele>
        <time>2026-05-09T07:31:13.211Z</time>
      </trkpt>
      <trkpt lat="47.85268" lon="6.92101">
        <ele>1128</ele>
        <time>2026-05-09T07:31:14.211Z</time>
      </trkpt>
      <trkpt lat="47.85269" lon="6.921">
        <ele>1129</ele>
        <time>2026-05-09T07:31:15.211Z</time>
      </trkpt>
      <trkpt lat="47.85269" lon="6.921">
        <ele>1129</ele>
        <time>2026-05-09T07:31:16.211Z</time>
      </trkpt>
      <trkpt lat="47.85269" lon="6.921">
        <ele>1129</ele>
        <time>2026-05-09T07:31:17.210Z</time>
      </trkpt>
      <trkpt lat="47.85269" lon="6.921">
        <ele>1130</ele>
        <time>2026-05-09T07:31:18.210Z</time>
      </trkpt>
      <trkpt lat="47.85269" lon="6.921">
        <ele>1130</ele>
        <time>2026-05-09T07:31:19.210Z</time>
      </trkpt>
      <trkpt lat="47.8527" lon="6.92099">
        <ele>1130</ele>
        <time>2026-05-09T07:31:20.210Z</time>
      </trkpt>
      <trkpt lat="47.8527" lon="6.92099">
        <ele>1131</ele>
        <time>2026-05-09T07:31:21.210Z</time>
      </trkpt>
      <trkpt lat="47.85271" lon="6.92098">
        <ele>1131</ele>
        <time>2026-05-09T07:31:22.210Z</time>
      </trkpt>
      <trkpt lat="47.85271" lon="6.92098">
        <ele>1131</ele>
        <time>2026-05-09T07:31:23.210Z</time>
      </trkpt>
      <trkpt lat="47.85272" lon="6.92098">
        <ele>1131</ele>
        <time>2026-05-09T07:31:24.210Z</time>
      </trkpt>
      <trkpt lat="47.85273" lon="6.92098">
        <ele>1131</ele>
        <time>2026-05-09T07:31:25.210Z</time>
      </trkpt>
      <trkpt lat="47.85273" lon="6.92099">
        <ele>1131</ele>
        <time>2026-05-09T07:31:26.210Z</time>
      </trkpt>
      <trkpt lat="47.85273" lon="6.92099">
        <ele>1131</ele>
        <time>2026-05-09T07:31:27.210Z</time>
      </trkpt>
      <trkpt lat="47.85274" lon="6.92099">
        <ele>1131</ele>
        <time>2026-05-09T07:31:28.211Z</time>
      </trkpt>
      <trkpt lat="47.85275" lon="6.92099">
        <ele>1131</ele>
        <time>2026-05-09T07:31:29.210Z</time>
      </trkpt>
      <trkpt lat="47.85275" lon="6.92099">
        <ele>1132</ele>
        <time>2026-05-09T07:31:30.211Z</time>
      </trkpt>
      <trkpt lat="47.85276" lon="6.92099">
        <ele>1132</ele>
        <time>2026-05-09T07:31:31.210Z</time>
      </trkpt>
      <trkpt lat="47.85274" lon="6.921">
        <ele>1134</ele>
        <time>2026-05-09T07:31:38.664Z</time>
      </trkpt>
      <trkpt lat="47.85276" lon="6.92097">
        <ele>1137</ele>
        <time>2026-05-09T07:31:47.935Z</time>
      </trkpt>
      <trkpt lat="47.85277" lon="6.92096">
        <ele>1137</ele>
        <time>2026-05-09T07:31:48.935Z</time>
      </trkpt>
      <trkpt lat="47.85277" lon="6.92094">
        <ele>1137</ele>
        <time>2026-05-09T07:31:49.935Z</time>
      </trkpt>
      <trkpt lat="47.85278" lon="6.92093">
        <ele>1137</ele>
        <time>2026-05-09T07:31:50.935Z</time>
      </trkpt>
      <trkpt lat="47.85279" lon="6.92092">
        <ele>1137</ele>
        <time>2026-05-09T07:31:51.935Z</time>
      </trkpt>
      <trkpt lat="47.85279" lon="6.9209">
        <ele>1137</ele>
        <time>2026-05-09T07:31:52.935Z</time>
      </trkpt>
      <trkpt lat="47.85279" lon="6.92089">
        <ele>1136</ele>
        <time>2026-05-09T07:31:53.935Z</time>
      </trkpt>
      <trkpt lat="47.8528" lon="6.92087">
        <ele>1136</ele>
        <time>2026-05-09T07:31:54.935Z</time>
      </trkpt>
      <trkpt lat="47.85281" lon="6.92086">
        <ele>1136</ele>
        <time>2026-05-09T07:31:55.934Z</time>
      </trkpt>
      <trkpt lat="47.85281" lon="6.92084">
        <ele>1136</ele>
        <time>2026-05-09T07:31:56.934Z</time>
      </trkpt>
      <trkpt lat="47.85282" lon="6.92084">
        <ele>1135</ele>
        <time>2026-05-09T07:31:57.934Z</time>
      </trkpt>
      <trkpt lat="47.85282" lon="6.92084">
        <ele>1135</ele>
        <time>2026-05-09T07:31:58.934Z</time>
      </trkpt>
      <trkpt lat="47.85283" lon="6.92083">
        <ele>1135</ele>
        <time>2026-05-09T07:31:59.935Z</time>
      </trkpt>
      <trkpt lat="47.85284" lon="6.92081">
        <ele>1134</ele>
        <time>2026-05-09T07:32:00.935Z</time>
      </trkpt>
      <trkpt lat="47.85284" lon="6.9208">
        <ele>1134</ele>
        <time>2026-05-09T07:32:01.935Z</time>
      </trkpt>
      <trkpt lat="47.85285" lon="6.92079">
        <ele>1134</ele>
        <time>2026-05-09T07:32:02.935Z</time>
      </trkpt>
      <trkpt lat="47.85286" lon="6.92077">
        <ele>1133</ele>
        <time>2026-05-09T07:32:03.934Z</time>
      </trkpt>
      <trkpt lat="47.85287" lon="6.92076">
        <ele>1133</ele>
        <time>2026-05-09T07:32:04.934Z</time>
      </trkpt>
      <trkpt lat="47.85288" lon="6.92075">
        <ele>1133</ele>
        <time>2026-05-09T07:32:05.934Z</time>
      </trkpt>
      <trkpt lat="47.85289" lon="6.92074">
        <ele>1132</ele>
        <time>2026-05-09T07:32:06.934Z</time>
      </trkpt>
      <trkpt lat="47.8529" lon="6.92072">
        <ele>1132</ele>
        <time>2026-05-09T07:32:07.934Z</time>
      </trkpt>
      <trkpt lat="47.8529" lon="6.92071">
        <ele>1132</ele>
        <time>2026-05-09T07:32:08.935Z</time>
      </trkpt>
      <trkpt lat="47.85289" lon="6.92071">
        <ele>1132</ele>
        <time>2026-05-09T07:32:09.935Z</time>
      </trkpt>
      <trkpt lat="47.8529" lon="6.9207">
        <ele>1132</ele>
        <time>2026-05-09T07:32:10.934Z</time>
      </trkpt>
      <trkpt lat="47.8529" lon="6.92068">
        <ele>1132</ele>
        <time>2026-05-09T07:32:11.935Z</time>
      </trkpt>
      <trkpt lat="47.85289" lon="6.92067">
        <ele>1132</ele>
        <time>2026-05-09T07:32:12.935Z</time>
      </trkpt>
      <trkpt lat="47.8529" lon="6.92064">
        <ele>1132</ele>
        <time>2026-05-09T07:32:13.934Z</time>
      </trkpt>
      <trkpt lat="47.85291" lon="6.92063">
        <ele>1132</ele>
        <time>2026-05-09T07:32:14.934Z</time>
      </trkpt>
      <trkpt lat="47.85292" lon="6.92061">
        <ele>1132</ele>
        <time>2026-05-09T07:32:15.934Z</time>
      </trkpt>
      <trkpt lat="47.85294" lon="6.92059">
        <ele>1132</ele>
        <time>2026-05-09T07:32:16.934Z</time>
      </trkpt>
      <trkpt lat="47.85294" lon="6.92057">
        <ele>1131</ele>
        <time>2026-05-09T07:32:17.934Z</time>
      </trkpt>
      <trkpt lat="47.85295" lon="6.92056">
        <ele>1131</ele>
        <time>2026-05-09T07:32:18.934Z</time>
      </trkpt>
      <trkpt lat="47.85296" lon="6.92055">
        <ele>1131</ele>
        <time>2026-05-09T07:32:19.934Z</time>
      </trkpt>
      <trkpt lat="47.85297" lon="6.92053">
        <ele>1131</ele>
        <time>2026-05-09T07:32:20.935Z</time>
      </trkpt>
      <trkpt lat="47.85298" lon="6.92052">
        <ele>1131</ele>
        <time>2026-05-09T07:32:21.934Z</time>
      </trkpt>
      <trkpt lat="47.853" lon="6.92051">
        <ele>1131</ele>
        <time>2026-05-09T07:32:22.935Z</time>
      </trkpt>
      <trkpt lat="47.853" lon="6.92049">
        <ele>1131</ele>
        <time>2026-05-09T07:32:23.935Z</time>
      </trkpt>
      <trkpt lat="47.85301" lon="6.92047">
        <ele>1131</ele>
        <time>2026-05-09T07:32:24.934Z</time>
      </trkpt>
      <trkpt lat="47.85301" lon="6.92046">
        <ele>1131</ele>
        <time>2026-05-09T07:32:25.935Z</time>
      </trkpt>
      <trkpt lat="47.85302" lon="6.92045">
        <ele>1131</ele>
        <time>2026-05-09T07:32:26.934Z</time>
      </trkpt>
      <trkpt lat="47.85302" lon="6.92045">
        <ele>1131</ele>
        <time>2026-05-09T07:32:27.934Z</time>
      </trkpt>
      <trkpt lat="47.85302" lon="6.92044">
        <ele>1131</ele>
        <time>2026-05-09T07:32:28.934Z</time>
      </trkpt>
      <trkpt lat="47.85303" lon="6.92043">
        <ele>1131</ele>
        <time>2026-05-09T07:32:29.935Z</time>
      </trkpt>
      <trkpt lat="47.85304" lon="6.92041">
        <ele>1131</ele>
        <time>2026-05-09T07:32:30.935Z</time>
      </trkpt>
      <trkpt lat="47.85304" lon="6.9204">
        <ele>1131</ele>
        <time>2026-05-09T07:32:31.935Z</time>
      </trkpt>
      <trkpt lat="47.85304" lon="6.92039">
        <ele>1130</ele>
        <time>2026-05-09T07:32:32.935Z</time>
      </trkpt>
      <trkpt lat="47.85305" lon="6.92039">
        <ele>1130</ele>
        <time>2026-05-09T07:32:33.935Z</time>
      </trkpt>
      <trkpt lat="47.85306" lon="6.92039">
        <ele>1129</ele>
        <time>2026-05-09T07:32:34.935Z</time>
      </trkpt>
      <trkpt lat="47.85307" lon="6.92039">
        <ele>1129</ele>
        <time>2026-05-09T07:32:35.934Z</time>
      </trkpt>
      <trkpt lat="47.85308" lon="6.92038">
        <ele>1128</ele>
        <time>2026-05-09T07:32:36.934Z</time>
      </trkpt>
      <trkpt lat="47.85309" lon="6.92037">
        <ele>1128</ele>
        <time>2026-05-09T07:32:37.934Z</time>
      </trkpt>
      <trkpt lat="47.8531" lon="6.92037">
        <ele>1128</ele>
        <time>2026-05-09T07:32:38.934Z</time>
      </trkpt>
      <trkpt lat="47.85311" lon="6.92036">
        <ele>1127</ele>
        <time>2026-05-09T07:32:39.934Z</time>
      </trkpt>
      <trkpt lat="47.85312" lon="6.92034">
        <ele>1127</ele>
        <time>2026-05-09T07:32:40.934Z</time>
      </trkpt>
      <trkpt lat="47.85313" lon="6.92033">
        <ele>1126</ele>
        <time>2026-05-09T07:32:41.935Z</time>
      </trkpt>
      <trkpt lat="47.85313" lon="6.92031">
        <ele>1126</ele>
        <time>2026-05-09T07:32:42.935Z</time>
      </trkpt>
      <trkpt lat="47.85314" lon="6.9203">
        <ele>1125</ele>
        <time>2026-05-09T07:32:43.935Z</time>
      </trkpt>
      <trkpt lat="47.85315" lon="6.92028">
        <ele>1124</ele>
        <time>2026-05-09T07:32:44.935Z</time>
      </trkpt>
      <trkpt lat="47.85316" lon="6.92027">
        <ele>1124</ele>
        <time>2026-05-09T07:32:45.935Z</time>
      </trkpt>
      <trkpt lat="47.85316" lon="6.92026">
        <ele>1123</ele>
        <time>2026-05-09T07:32:46.935Z</time>
      </trkpt>
      <trkpt lat="47.85317" lon="6.92025">
        <ele>1123</ele>
        <time>2026-05-09T07:32:47.934Z</time>
      </trkpt>
      <trkpt lat="47.85318" lon="6.92024">
        <ele>1122</ele>
        <time>2026-05-09T07:32:48.934Z</time>
      </trkpt>
      <trkpt lat="47.8532" lon="6.92023">
        <ele>1122</ele>
        <time>2026-05-09T07:32:49.934Z</time>
      </trkpt>
      <trkpt lat="47.85322" lon="6.92023">
        <ele>1121</ele>
        <time>2026-05-09T07:32:50.935Z</time>
      </trkpt>
      <trkpt lat="47.85322" lon="6.92023">
        <ele>1121</ele>
        <time>2026-05-09T07:32:51.934Z</time>
      </trkpt>
      <trkpt lat="47.85323" lon="6.92023">
        <ele>1121</ele>
        <time>2026-05-09T07:32:52.934Z</time>
      </trkpt>
      <trkpt lat="47.85325" lon="6.92023">
        <ele>1121</ele>
        <time>2026-05-09T07:32:53.934Z</time>
      </trkpt>
      <trkpt lat="47.85326" lon="6.92023">
        <ele>1120</ele>
        <time>2026-05-09T07:32:54.934Z</time>
      </trkpt>
      <trkpt lat="47.85327" lon="6.92022">
        <ele>1120</ele>
        <time>2026-05-09T07:32:55.934Z</time>
      </trkpt>
      <trkpt lat="47.85327" lon="6.92022">
        <ele>1120</ele>
        <time>2026-05-09T07:32:56.934Z</time>
      </trkpt>
      <trkpt lat="47.85328" lon="6.92022">
        <ele>1120</ele>
        <time>2026-05-09T07:32:57.934Z</time>
      </trkpt>
      <trkpt lat="47.85328" lon="6.92022">
        <ele>1120</ele>
        <time>2026-05-09T07:32:58.935Z</time>
      </trkpt>
      <trkpt lat="47.85329" lon="6.92021">
        <ele>1120</ele>
        <time>2026-05-09T07:32:59.934Z</time>
      </trkpt>
      <trkpt lat="47.8533" lon="6.9202">
        <ele>1120</ele>
        <time>2026-05-09T07:33:00.935Z</time>
      </trkpt>
      <trkpt lat="47.85332" lon="6.92019">
        <ele>1119</ele>
        <time>2026-05-09T07:33:01.934Z</time>
      </trkpt>
      <trkpt lat="47.85334" lon="6.92018">
        <ele>1119</ele>
        <time>2026-05-09T07:33:02.935Z</time>
      </trkpt>
      <trkpt lat="47.85335" lon="6.92016">
        <ele>1119</ele>
        <time>2026-05-09T07:33:03.934Z</time>
      </trkpt>
      <trkpt lat="47.85337" lon="6.92015">
        <ele>1119</ele>
        <time>2026-05-09T07:33:04.934Z</time>
      </trkpt>
      <trkpt lat="47.85338" lon="6.92015">
        <ele>1119</ele>
        <time>2026-05-09T07:33:05.934Z</time>
      </trkpt>
      <trkpt lat="47.8534" lon="6.92014">
        <ele>1119</ele>
        <time>2026-05-09T07:33:06.935Z</time>
      </trkpt>
      <trkpt lat="47.85342" lon="6.92013">
        <ele>1118</ele>
        <time>2026-05-09T07:33:07.935Z</time>
      </trkpt>
      <trkpt lat="47.85344" lon="6.92012">
        <ele>1117</ele>
        <time>2026-05-09T07:33:08.935Z</time>
      </trkpt>
      <trkpt lat="47.85345" lon="6.92011">
        <ele>1117</ele>
        <time>2026-05-09T07:33:09.935Z</time>
      </trkpt>
      <trkpt lat="47.85347" lon="6.9201">
        <ele>1116</ele>
        <time>2026-05-09T07:33:10.934Z</time>
      </trkpt>
      <trkpt lat="47.85348" lon="6.9201">
        <ele>1115</ele>
        <time>2026-05-09T07:33:11.935Z</time>
      </trkpt>
      <trkpt lat="47.8535" lon="6.92009">
        <ele>1115</ele>
        <time>2026-05-09T07:33:12.935Z</time>
      </trkpt>
      <trkpt lat="47.85351" lon="6.92008">
        <ele>1114</ele>
        <time>2026-05-09T07:33:13.935Z</time>
      </trkpt>
      <trkpt lat="47.85353" lon="6.92007">
        <ele>1113</ele>
        <time>2026-05-09T07:33:14.934Z</time>
      </trkpt>
      <trkpt lat="47.85353" lon="6.92006">
        <ele>1113</ele>
        <time>2026-05-09T07:33:15.935Z</time>
      </trkpt>
      <trkpt lat="47.85353" lon="6.92004">
        <ele>1113</ele>
        <time>2026-05-09T07:33:16.934Z</time>
      </trkpt>
      <trkpt lat="47.85354" lon="6.92003">
        <ele>1113</ele>
        <time>2026-05-09T07:33:17.935Z</time>
      </trkpt>
      <trkpt lat="47.85355" lon="6.92001">
        <ele>1113</ele>
        <time>2026-05-09T07:33:18.934Z</time>
      </trkpt>
      <trkpt lat="47.85356" lon="6.92">
        <ele>1113</ele>
        <time>2026-05-09T07:33:19.935Z</time>
      </trkpt>
      <trkpt lat="47.85357" lon="6.91999">
        <ele>1112</ele>
        <time>2026-05-09T07:33:20.934Z</time>
      </trkpt>
      <trkpt lat="47.85357" lon="6.91999">
        <ele>1112</ele>
        <time>2026-05-09T07:33:21.935Z</time>
      </trkpt>
      <trkpt lat="47.85357" lon="6.91999">
        <ele>1111</ele>
        <time>2026-05-09T07:33:22.934Z</time>
      </trkpt>
      <trkpt lat="47.85357" lon="6.91998">
        <ele>1111</ele>
        <time>2026-05-09T07:33:23.935Z</time>
      </trkpt>
      <trkpt lat="47.85358" lon="6.91997">
        <ele>1111</ele>
        <time>2026-05-09T07:33:24.935Z</time>
      </trkpt>
      <trkpt lat="47.85358" lon="6.91996">
        <ele>1110</ele>
        <time>2026-05-09T07:33:25.935Z</time>
      </trkpt>
      <trkpt lat="47.85359" lon="6.91995">
        <ele>1110</ele>
        <time>2026-05-09T07:33:26.935Z</time>
      </trkpt>
      <trkpt lat="47.8536" lon="6.91994">
        <ele>1111</ele>
        <time>2026-05-09T07:33:27.934Z</time>
      </trkpt>
      <trkpt lat="47.85361" lon="6.91993">
        <ele>1111</ele>
        <time>2026-05-09T07:33:28.935Z</time>
      </trkpt>
      <trkpt lat="47.85361" lon="6.91993">
        <ele>1111</ele>
        <time>2026-05-09T07:33:29.935Z</time>
      </trkpt>
      <trkpt lat="47.85361" lon="6.91992">
        <ele>1111</ele>
        <time>2026-05-09T07:33:30.935Z</time>
      </trkpt>
      <trkpt lat="47.85361" lon="6.91991">
        <ele>1111</ele>
        <time>2026-05-09T07:33:31.934Z</time>
      </trkpt>
      <trkpt lat="47.85362" lon="6.91991">
        <ele>1111</ele>
        <time>2026-05-09T07:33:32.935Z</time>
      </trkpt>
      <trkpt lat="47.85363" lon="6.91989">
        <ele>1112</ele>
        <time>2026-05-09T07:33:33.934Z</time>
      </trkpt>
      <trkpt lat="47.85365" lon="6.91988">
        <ele>1112</ele>
        <time>2026-05-09T07:33:34.934Z</time>
      </trkpt>
      <trkpt lat="47.85367" lon="6.91988">
        <ele>1112</ele>
        <time>2026-05-09T07:33:35.934Z</time>
      </trkpt>
      <trkpt lat="47.85369" lon="6.91987">
        <ele>1112</ele>
        <time>2026-05-09T07:33:36.934Z</time>
      </trkpt>
      <trkpt lat="47.85371" lon="6.91987">
        <ele>1112</ele>
        <time>2026-05-09T07:33:37.934Z</time>
      </trkpt>
      <trkpt lat="47.85372" lon="6.91986">
        <ele>1112</ele>
        <time>2026-05-09T07:33:38.935Z</time>
      </trkpt>
      <trkpt lat="47.85373" lon="6.91986">
        <ele>1112</ele>
        <time>2026-05-09T07:33:39.934Z</time>
      </trkpt>
      <trkpt lat="47.85374" lon="6.91984">
        <ele>1112</ele>
        <time>2026-05-09T07:33:40.934Z</time>
      </trkpt>
      <trkpt lat="47.85374" lon="6.91984">
        <ele>1112</ele>
        <time>2026-05-09T07:33:41.934Z</time>
      </trkpt>
      <trkpt lat="47.85375" lon="6.91984">
        <ele>1112</ele>
        <time>2026-05-09T07:33:42.934Z</time>
      </trkpt>
      <trkpt lat="47.85375" lon="6.91984">
        <ele>1112</ele>
        <time>2026-05-09T07:33:43.935Z</time>
      </trkpt>
      <trkpt lat="47.85381" lon="6.91985">
        <ele>1114</ele>
        <time>2026-05-09T07:33:49.445Z</time>
      </trkpt>
      <trkpt lat="47.85382" lon="6.91984">
        <ele>1114</ele>
        <time>2026-05-09T07:33:50.445Z</time>
      </trkpt>
      <trkpt lat="47.85384" lon="6.91983">
        <ele>1114</ele>
        <time>2026-05-09T07:33:51.446Z</time>
      </trkpt>
      <trkpt lat="47.85385" lon="6.91982">
        <ele>1114</ele>
        <time>2026-05-09T07:33:52.445Z</time>
      </trkpt>
      <trkpt lat="47.85386" lon="6.91982">
        <ele>1115</ele>
        <time>2026-05-09T07:33:53.446Z</time>
      </trkpt>
      <trkpt lat="47.85387" lon="6.91981">
        <ele>1115</ele>
        <time>2026-05-09T07:33:54.445Z</time>
      </trkpt>
      <trkpt lat="47.85388" lon="6.91981">
        <ele>1115</ele>
        <time>2026-05-09T07:33:55.445Z</time>
      </trkpt>
      <trkpt lat="47.85389" lon="6.91981">
        <ele>1116</ele>
        <time>2026-05-09T07:33:56.445Z</time>
      </trkpt>
      <trkpt lat="47.8539" lon="6.9198">
        <ele>1116</ele>
        <time>2026-05-09T07:33:57.446Z</time>
      </trkpt>
      <trkpt lat="47.85391" lon="6.9198">
        <ele>1117</ele>
        <time>2026-05-09T07:33:58.445Z</time>
      </trkpt>
      <trkpt lat="47.85391" lon="6.9198">
        <ele>1117</ele>
        <time>2026-05-09T07:33:59.446Z</time>
      </trkpt>
      <trkpt lat="47.85391" lon="6.9198">
        <ele>1117</ele>
        <time>2026-05-09T07:34:00.445Z</time>
      </trkpt>
      <trkpt lat="47.85392" lon="6.91979">
        <ele>1117</ele>
        <time>2026-05-09T07:34:01.445Z</time>
      </trkpt>
      <trkpt lat="47.85393" lon="6.91978">
        <ele>1118</ele>
        <time>2026-05-09T07:34:02.445Z</time>
      </trkpt>
      <trkpt lat="47.85394" lon="6.91977">
        <ele>1118</ele>
        <time>2026-05-09T07:34:03.446Z</time>
      </trkpt>
      <trkpt lat="47.85395" lon="6.91975">
        <ele>1118</ele>
        <time>2026-05-09T07:34:04.445Z</time>
      </trkpt>
      <trkpt lat="47.85396" lon="6.91973">
        <ele>1118</ele>
        <time>2026-05-09T07:34:05.446Z</time>
      </trkpt>
      <trkpt lat="47.85397" lon="6.91972">
        <ele>1118</ele>
        <time>2026-05-09T07:34:06.446Z</time>
      </trkpt>
      <trkpt lat="47.85397" lon="6.91971">
        <ele>1118</ele>
        <time>2026-05-09T07:34:07.446Z</time>
      </trkpt>
      <trkpt lat="47.85398" lon="6.91971">
        <ele>1117</ele>
        <time>2026-05-09T07:34:08.446Z</time>
      </trkpt>
      <trkpt lat="47.85399" lon="6.91969">
        <ele>1117</ele>
        <time>2026-05-09T07:34:09.445Z</time>
      </trkpt>
      <trkpt lat="47.854" lon="6.91968">
        <ele>1117</ele>
        <time>2026-05-09T07:34:10.445Z</time>
      </trkpt>
      <trkpt lat="47.854" lon="6.91968">
        <ele>1116</ele>
        <time>2026-05-09T07:34:11.445Z</time>
      </trkpt>
      <trkpt lat="47.85401" lon="6.91967">
        <ele>1116</ele>
        <time>2026-05-09T07:34:12.446Z</time>
      </trkpt>
      <trkpt lat="47.85402" lon="6.91966">
        <ele>1116</ele>
        <time>2026-05-09T07:34:13.445Z</time>
      </trkpt>
      <trkpt lat="47.85403" lon="6.91965">
        <ele>1115</ele>
        <time>2026-05-09T07:34:14.446Z</time>
      </trkpt>
      <trkpt lat="47.85404" lon="6.91964">
        <ele>1115</ele>
        <time>2026-05-09T07:34:15.445Z</time>
      </trkpt>
      <trkpt lat="47.85405" lon="6.91963">
        <ele>1115</ele>
        <time>2026-05-09T07:34:16.446Z</time>
      </trkpt>
      <trkpt lat="47.85406" lon="6.91961">
        <ele>1115</ele>
        <time>2026-05-09T07:34:17.445Z</time>
      </trkpt>
      <trkpt lat="47.85408" lon="6.9196">
        <ele>1114</ele>
        <time>2026-05-09T07:34:18.446Z</time>
      </trkpt>
      <trkpt lat="47.85409" lon="6.91957">
        <ele>1114</ele>
        <time>2026-05-09T07:34:19.445Z</time>
      </trkpt>
      <trkpt lat="47.85409" lon="6.91955">
        <ele>1114</ele>
        <time>2026-05-09T07:34:20.446Z</time>
      </trkpt>
      <trkpt lat="47.85411" lon="6.91954">
        <ele>1114</ele>
        <time>2026-05-09T07:34:21.446Z</time>
      </trkpt>
      <trkpt lat="47.85412" lon="6.91953">
        <ele>1114</ele>
        <time>2026-05-09T07:34:22.445Z</time>
      </trkpt>
      <trkpt lat="47.85413" lon="6.91952">
        <ele>1113</ele>
        <time>2026-05-09T07:34:23.446Z</time>
      </trkpt>
      <trkpt lat="47.85414" lon="6.91951">
        <ele>1113</ele>
        <time>2026-05-09T07:34:24.445Z</time>
      </trkpt>
      <trkpt lat="47.85416" lon="6.9195">
        <ele>1113</ele>
        <time>2026-05-09T07:34:25.446Z</time>
      </trkpt>
      <trkpt lat="47.85417" lon="6.91949">
        <ele>1112</ele>
        <time>2026-05-09T07:34:26.445Z</time>
      </trkpt>
      <trkpt lat="47.85418" lon="6.91948">
        <ele>1112</ele>
        <time>2026-05-09T07:34:27.446Z</time>
      </trkpt>
      <trkpt lat="47.85419" lon="6.91947">
        <ele>1112</ele>
        <time>2026-05-09T07:34:28.445Z</time>
      </trkpt>
      <trkpt lat="47.8542" lon="6.91947">
        <ele>1112</ele>
        <time>2026-05-09T07:34:29.445Z</time>
      </trkpt>
      <trkpt lat="47.85421" lon="6.91946">
        <ele>1112</ele>
        <time>2026-05-09T07:34:30.445Z</time>
      </trkpt>
      <trkpt lat="47.85422" lon="6.91946">
        <ele>1112</ele>
        <time>2026-05-09T07:34:31.446Z</time>
      </trkpt>
      <trkpt lat="47.85424" lon="6.91945">
        <ele>1113</ele>
        <time>2026-05-09T07:34:32.445Z</time>
      </trkpt>
      <trkpt lat="47.85425" lon="6.91944">
        <ele>1113</ele>
        <time>2026-05-09T07:34:33.446Z</time>
      </trkpt>
      <trkpt lat="47.85426" lon="6.91943">
        <ele>1113</ele>
        <time>2026-05-09T07:34:34.445Z</time>
      </trkpt>
      <trkpt lat="47.85428" lon="6.91943">
        <ele>1113</ele>
        <time>2026-05-09T07:34:35.446Z</time>
      </trkpt>
      <trkpt lat="47.85429" lon="6.91942">
        <ele>1113</ele>
        <time>2026-05-09T07:34:36.445Z</time>
      </trkpt>
      <trkpt lat="47.8543" lon="6.91941">
        <ele>1113</ele>
        <time>2026-05-09T07:34:37.446Z</time>
      </trkpt>
      <trkpt lat="47.85432" lon="6.91941">
        <ele>1113</ele>
        <time>2026-05-09T07:34:38.446Z</time>
      </trkpt>
      <trkpt lat="47.85433" lon="6.9194">
        <ele>1112</ele>
        <time>2026-05-09T07:34:39.445Z</time>
      </trkpt>
      <trkpt lat="47.85434" lon="6.91938">
        <ele>1112</ele>
        <time>2026-05-09T07:34:40.446Z</time>
      </trkpt>
      <trkpt lat="47.85435" lon="6.91937">
        <ele>1112</ele>
        <time>2026-05-09T07:34:41.445Z</time>
      </trkpt>
      <trkpt lat="47.85435" lon="6.91936">
        <ele>1112</ele>
        <time>2026-05-09T07:34:42.446Z</time>
      </trkpt>
      <trkpt lat="47.85436" lon="6.91934">
        <ele>1111</ele>
        <time>2026-05-09T07:34:43.446Z</time>
      </trkpt>
      <trkpt lat="47.85436" lon="6.91932">
        <ele>1110</ele>
        <time>2026-05-09T07:34:44.446Z</time>
      </trkpt>
      <trkpt lat="47.85437" lon="6.91931">
        <ele>1110</ele>
        <time>2026-05-09T07:34:45.445Z</time>
      </trkpt>
      <trkpt lat="47.85438" lon="6.9193">
        <ele>1109</ele>
        <time>2026-05-09T07:34:46.446Z</time>
      </trkpt>
      <trkpt lat="47.85438" lon="6.91928">
        <ele>1108</ele>
        <time>2026-05-09T07:34:47.445Z</time>
      </trkpt>
      <trkpt lat="47.85439" lon="6.91927">
        <ele>1108</ele>
        <time>2026-05-09T07:34:48.446Z</time>
      </trkpt>
      <trkpt lat="47.85439" lon="6.91926">
        <ele>1107</ele>
        <time>2026-05-09T07:34:49.445Z</time>
      </trkpt>
      <trkpt lat="47.8544" lon="6.91924">
        <ele>1106</ele>
        <time>2026-05-09T07:34:50.446Z</time>
      </trkpt>
      <trkpt lat="47.85441" lon="6.91923">
        <ele>1106</ele>
        <time>2026-05-09T07:34:51.445Z</time>
      </trkpt>
      <trkpt lat="47.85442" lon="6.91921">
        <ele>1105</ele>
        <time>2026-05-09T07:34:52.446Z</time>
      </trkpt>
      <trkpt lat="47.85442" lon="6.91919">
        <ele>1105</ele>
        <time>2026-05-09T07:34:53.445Z</time>
      </trkpt>
      <trkpt lat="47.85443" lon="6.91917">
        <ele>1105</ele>
        <time>2026-05-09T07:34:54.446Z</time>
      </trkpt>
      <trkpt lat="47.85443" lon="6.91914">
        <ele>1104</ele>
        <time>2026-05-09T07:34:55.445Z</time>
      </trkpt>
      <trkpt lat="47.85444" lon="6.91913">
        <ele>1104</ele>
        <time>2026-05-09T07:34:56.446Z</time>
      </trkpt>
      <trkpt lat="47.85444" lon="6.91912">
        <ele>1104</ele>
        <time>2026-05-09T07:34:57.445Z</time>
      </trkpt>
      <trkpt lat="47.85445" lon="6.91911">
        <ele>1104</ele>
        <time>2026-05-09T07:34:58.446Z</time>
      </trkpt>
      <trkpt lat="47.85445" lon="6.9191">
        <ele>1104</ele>
        <time>2026-05-09T07:34:59.445Z</time>
      </trkpt>
      <trkpt lat="47.85446" lon="6.91909">
        <ele>1104</ele>
        <time>2026-05-09T07:35:00.446Z</time>
      </trkpt>
      <trkpt lat="47.85446" lon="6.91908">
        <ele>1104</ele>
        <time>2026-05-09T07:35:01.445Z</time>
      </trkpt>
      <trkpt lat="47.85447" lon="6.91907">
        <ele>1104</ele>
        <time>2026-05-09T07:35:02.445Z</time>
      </trkpt>
      <trkpt lat="47.85447" lon="6.91906">
        <ele>1105</ele>
        <time>2026-05-09T07:35:03.445Z</time>
      </trkpt>
      <trkpt lat="47.85448" lon="6.91905">
        <ele>1105</ele>
        <time>2026-05-09T07:35:04.445Z</time>
      </trkpt>
      <trkpt lat="47.85448" lon="6.91904">
        <ele>1105</ele>
        <time>2026-05-09T07:35:05.446Z</time>
      </trkpt>
      <trkpt lat="47.85448" lon="6.91903">
        <ele>1104</ele>
        <time>2026-05-09T07:35:06.445Z</time>
      </trkpt>
      <trkpt lat="47.85447" lon="6.91901">
        <ele>1104</ele>
        <time>2026-05-09T07:35:07.446Z</time>
      </trkpt>
      <trkpt lat="47.85447" lon="6.91898">
        <ele>1104</ele>
        <time>2026-05-09T07:35:08.445Z</time>
      </trkpt>
      <trkpt lat="47.85446" lon="6.91897">
        <ele>1105</ele>
        <time>2026-05-09T07:35:09.446Z</time>
      </trkpt>
      <trkpt lat="47.85446" lon="6.91896">
        <ele>1105</ele>
        <time>2026-05-09T07:35:10.445Z</time>
      </trkpt>
      <trkpt lat="47.85447" lon="6.91894">
        <ele>1105</ele>
        <time>2026-05-09T07:35:11.446Z</time>
      </trkpt>
      <trkpt lat="47.85447" lon="6.91892">
        <ele>1106</ele>
        <time>2026-05-09T07:35:12.446Z</time>
      </trkpt>
      <trkpt lat="47.85448" lon="6.9189">
        <ele>1106</ele>
        <time>2026-05-09T07:35:13.446Z</time>
      </trkpt>
      <trkpt lat="47.85448" lon="6.91889">
        <ele>1106</ele>
        <time>2026-05-09T07:35:14.445Z</time>
      </trkpt>
      <trkpt lat="47.85448" lon="6.91888">
        <ele>1107</ele>
        <time>2026-05-09T07:35:15.446Z</time>
      </trkpt>
      <trkpt lat="47.85447" lon="6.91887">
        <ele>1107</ele>
        <time>2026-05-09T07:35:16.445Z</time>
      </trkpt>
      <trkpt lat="47.85447" lon="6.91885">
        <ele>1107</ele>
        <time>2026-05-09T07:35:17.446Z</time>
      </trkpt>
      <trkpt lat="47.85447" lon="6.91883">
        <ele>1106</ele>
        <time>2026-05-09T07:35:18.446Z</time>
      </trkpt>
      <trkpt lat="47.85447" lon="6.91881">
        <ele>1106</ele>
        <time>2026-05-09T07:35:19.446Z</time>
      </trkpt>
      <trkpt lat="47.85447" lon="6.91879">
        <ele>1106</ele>
        <time>2026-05-09T07:35:20.446Z</time>
      </trkpt>
      <trkpt lat="47.85448" lon="6.91877">
        <ele>1106</ele>
        <time>2026-05-09T07:35:21.445Z</time>
      </trkpt>
      <trkpt lat="47.85448" lon="6.91874">
        <ele>1106</ele>
        <time>2026-05-09T07:35:22.446Z</time>
      </trkpt>
      <trkpt lat="47.85448" lon="6.91872">
        <ele>1105</ele>
        <time>2026-05-09T07:35:23.445Z</time>
      </trkpt>
      <trkpt lat="47.85448" lon="6.91871">
        <ele>1105</ele>
        <time>2026-05-09T07:35:24.446Z</time>
      </trkpt>
      <trkpt lat="47.85449" lon="6.9187">
        <ele>1105</ele>
        <time>2026-05-09T07:35:25.445Z</time>
      </trkpt>
      <trkpt lat="47.85449" lon="6.9187">
        <ele>1105</ele>
        <time>2026-05-09T07:35:26.446Z</time>
      </trkpt>
      <trkpt lat="47.85449" lon="6.91869">
        <ele>1105</ele>
        <time>2026-05-09T07:35:27.445Z</time>
      </trkpt>
      <trkpt lat="47.85449" lon="6.91869">
        <ele>1105</ele>
        <time>2026-05-09T07:35:28.446Z</time>
      </trkpt>
      <trkpt lat="47.85448" lon="6.91868">
        <ele>1105</ele>
        <time>2026-05-09T07:35:29.445Z</time>
      </trkpt>
      <trkpt lat="47.85448" lon="6.91867">
        <ele>1105</ele>
        <time>2026-05-09T07:35:30.445Z</time>
      </trkpt>
      <trkpt lat="47.85448" lon="6.91865">
        <ele>1104</ele>
        <time>2026-05-09T07:35:31.445Z</time>
      </trkpt>
      <trkpt lat="47.85449" lon="6.91863">
        <ele>1105</ele>
        <time>2026-05-09T07:35:32.446Z</time>
      </trkpt>
      <trkpt lat="47.85449" lon="6.91861">
        <ele>1105</ele>
        <time>2026-05-09T07:35:33.445Z</time>
      </trkpt>
      <trkpt lat="47.85449" lon="6.91859">
        <ele>1105</ele>
        <time>2026-05-09T07:35:34.446Z</time>
      </trkpt>
      <trkpt lat="47.8545" lon="6.91857">
        <ele>1105</ele>
        <time>2026-05-09T07:35:35.446Z</time>
      </trkpt>
      <trkpt lat="47.8545" lon="6.91855">
        <ele>1105</ele>
        <time>2026-05-09T07:35:36.445Z</time>
      </trkpt>
      <trkpt lat="47.8545" lon="6.91853">
        <ele>1106</ele>
        <time>2026-05-09T07:35:37.445Z</time>
      </trkpt>
      <trkpt lat="47.8545" lon="6.91851">
        <ele>1106</ele>
        <time>2026-05-09T07:35:38.445Z</time>
      </trkpt>
      <trkpt lat="47.8545" lon="6.91849">
        <ele>1105</ele>
        <time>2026-05-09T07:35:39.446Z</time>
      </trkpt>
      <trkpt lat="47.8545" lon="6.91847">
        <ele>1105</ele>
        <time>2026-05-09T07:35:40.445Z</time>
      </trkpt>
      <trkpt lat="47.8545" lon="6.91845">
        <ele>1105</ele>
        <time>2026-05-09T07:35:41.446Z</time>
      </trkpt>
      <trkpt lat="47.8545" lon="6.91843">
        <ele>1104</ele>
        <time>2026-05-09T07:35:42.445Z</time>
      </trkpt>
      <trkpt lat="47.8545" lon="6.91841">
        <ele>1104</ele>
        <time>2026-05-09T07:35:43.446Z</time>
      </trkpt>
      <trkpt lat="47.8545" lon="6.9184">
        <ele>1103</ele>
        <time>2026-05-09T07:35:44.445Z</time>
      </trkpt>
      <trkpt lat="47.8545" lon="6.91838">
        <ele>1103</ele>
        <time>2026-05-09T07:35:45.445Z</time>
      </trkpt>
      <trkpt lat="47.8545" lon="6.91836">
        <ele>1102</ele>
        <time>2026-05-09T07:35:46.445Z</time>
      </trkpt>
      <trkpt lat="47.8545" lon="6.91835">
        <ele>1102</ele>
        <time>2026-05-09T07:35:47.446Z</time>
      </trkpt>
      <trkpt lat="47.8545" lon="6.91833">
        <ele>1102</ele>
        <time>2026-05-09T07:35:48.445Z</time>
      </trkpt>
      <trkpt lat="47.85451" lon="6.91832">
        <ele>1102</ele>
        <time>2026-05-09T07:35:49.446Z</time>
      </trkpt>
      <trkpt lat="47.85451" lon="6.9183">
        <ele>1101</ele>
        <time>2026-05-09T07:35:50.446Z</time>
      </trkpt>
      <trkpt lat="47.85451" lon="6.91828">
        <ele>1101</ele>
        <time>2026-05-09T07:35:51.445Z</time>
      </trkpt>
      <trkpt lat="47.85452" lon="6.91826">
        <ele>1101</ele>
        <time>2026-05-09T07:35:52.446Z</time>
      </trkpt>
      <trkpt lat="47.85452" lon="6.91825">
        <ele>1101</ele>
        <time>2026-05-09T07:35:53.445Z</time>
      </trkpt>
      <trkpt lat="47.85452" lon="6.91823">
        <ele>1100</ele>
        <time>2026-05-09T07:35:54.446Z</time>
      </trkpt>
      <trkpt lat="47.85453" lon="6.91821">
        <ele>1100</ele>
        <time>2026-05-09T07:35:55.445Z</time>
      </trkpt>
      <trkpt lat="47.85453" lon="6.9182">
        <ele>1100</ele>
        <time>2026-05-09T07:35:56.446Z</time>
      </trkpt>
      <trkpt lat="47.85454" lon="6.91818">
        <ele>1100</ele>
        <time>2026-05-09T07:35:57.445Z</time>
      </trkpt>
      <trkpt lat="47.85455" lon="6.91816">
        <ele>1100</ele>
        <time>2026-05-09T07:35:58.446Z</time>
      </trkpt>
      <trkpt lat="47.85455" lon="6.91815">
        <ele>1100</ele>
        <time>2026-05-09T07:35:59.445Z</time>
      </trkpt>
      <trkpt lat="47.85456" lon="6.91813">
        <ele>1100</ele>
        <time>2026-05-09T07:36:00.446Z</time>
      </trkpt>
      <trkpt lat="47.85456" lon="6.91812">
        <ele>1100</ele>
        <time>2026-05-09T07:36:01.445Z</time>
      </trkpt>
      <trkpt lat="47.85456" lon="6.9181">
        <ele>1100</ele>
        <time>2026-05-09T07:36:02.446Z</time>
      </trkpt>
      <trkpt lat="47.85457" lon="6.91808">
        <ele>1100</ele>
        <time>2026-05-09T07:36:03.445Z</time>
      </trkpt>
      <trkpt lat="47.85457" lon="6.91807">
        <ele>1100</ele>
        <time>2026-05-09T07:36:04.446Z</time>
      </trkpt>
      <trkpt lat="47.85457" lon="6.91806">
        <ele>1100</ele>
        <time>2026-05-09T07:36:05.445Z</time>
      </trkpt>
      <trkpt lat="47.85457" lon="6.91806">
        <ele>1099</ele>
        <time>2026-05-09T07:36:06.446Z</time>
      </trkpt>
      <trkpt lat="47.85457" lon="6.91806">
        <ele>1099</ele>
        <time>2026-05-09T07:36:07.446Z</time>
      </trkpt>
      <trkpt lat="47.85457" lon="6.91806">
        <ele>1099</ele>
        <time>2026-05-09T07:36:08.445Z</time>
      </trkpt>
      <trkpt lat="47.85459" lon="6.91806">
        <ele>1098</ele>
        <time>2026-05-09T07:36:15.772Z</time>
      </trkpt>
      <trkpt lat="47.8546" lon="6.91806">
        <ele>1098</ele>
        <time>2026-05-09T07:36:16.772Z</time>
      </trkpt>
      <trkpt lat="47.85461" lon="6.91806">
        <ele>1098</ele>
        <time>2026-05-09T07:36:17.773Z</time>
      </trkpt>
      <trkpt lat="47.85486" lon="6.91797">
        <ele>1096</ele>
        <time>2026-05-09T07:37:36.720Z</time>
      </trkpt>
      <trkpt lat="47.85487" lon="6.91796">
        <ele>1097</ele>
        <time>2026-05-09T07:37:37.720Z</time>
      </trkpt>
      <trkpt lat="47.85488" lon="6.91795">
        <ele>1097</ele>
        <time>2026-05-09T07:37:38.720Z</time>
      </trkpt>
      <trkpt lat="47.85489" lon="6.91794">
        <ele>1097</ele>
        <time>2026-05-09T07:37:39.719Z</time>
      </trkpt>
      <trkpt lat="47.8549" lon="6.91793">
        <ele>1097</ele>
        <time>2026-05-09T07:37:40.720Z</time>
      </trkpt>
      <trkpt lat="47.85491" lon="6.91791">
        <ele>1097</ele>
        <time>2026-05-09T07:37:41.719Z</time>
      </trkpt>
      <trkpt lat="47.85492" lon="6.9179">
        <ele>1096</ele>
        <time>2026-05-09T07:37:42.719Z</time>
      </trkpt>
      <trkpt lat="47.85493" lon="6.91788">
        <ele>1096</ele>
        <time>2026-05-09T07:37:43.719Z</time>
      </trkpt>
      <trkpt lat="47.85494" lon="6.91787">
        <ele>1096</ele>
        <time>2026-05-09T07:37:44.719Z</time>
      </trkpt>
      <trkpt lat="47.85495" lon="6.91786">
        <ele>1096</ele>
        <time>2026-05-09T07:37:45.719Z</time>
      </trkpt>
      <trkpt lat="47.85496" lon="6.91785">
        <ele>1096</ele>
        <time>2026-05-09T07:37:46.719Z</time>
      </trkpt>
      <trkpt lat="47.85497" lon="6.91784">
        <ele>1096</ele>
        <time>2026-05-09T07:37:47.719Z</time>
      </trkpt>
      <trkpt lat="47.85498" lon="6.91782">
        <ele>1095</ele>
        <time>2026-05-09T07:37:48.720Z</time>
      </trkpt>
      <trkpt lat="47.85499" lon="6.91781">
        <ele>1095</ele>
        <time>2026-05-09T07:37:49.719Z</time>
      </trkpt>
      <trkpt lat="47.855" lon="6.9178">
        <ele>1095</ele>
        <time>2026-05-09T07:37:50.719Z</time>
      </trkpt>
      <trkpt lat="47.85501" lon="6.91779">
        <ele>1095</ele>
        <time>2026-05-09T07:37:51.719Z</time>
      </trkpt>
      <trkpt lat="47.85502" lon="6.91778">
        <ele>1095</ele>
        <time>2026-05-09T07:37:52.719Z</time>
      </trkpt>
      <trkpt lat="47.85503" lon="6.91777">
        <ele>1096</ele>
        <time>2026-05-09T07:37:53.720Z</time>
      </trkpt>
      <trkpt lat="47.85503" lon="6.91776">
        <ele>1096</ele>
        <time>2026-05-09T07:37:54.719Z</time>
      </trkpt>
      <trkpt lat="47.85504" lon="6.91776">
        <ele>1096</ele>
        <time>2026-05-09T07:37:55.719Z</time>
      </trkpt>
      <trkpt lat="47.85504" lon="6.91775">
        <ele>1096</ele>
        <time>2026-05-09T07:37:56.720Z</time>
      </trkpt>
      <trkpt lat="47.85504" lon="6.91775">
        <ele>1096</ele>
        <time>2026-05-09T07:37:57.720Z</time>
      </trkpt>
      <trkpt lat="47.85504" lon="6.91775">
        <ele>1096</ele>
        <time>2026-05-09T07:37:58.720Z</time>
      </trkpt>
      <trkpt lat="47.85504" lon="6.91775">
        <ele>1096</ele>
        <time>2026-05-09T07:37:59.720Z</time>
      </trkpt>
      <trkpt lat="47.85504" lon="6.91775">
        <ele>1096</ele>
        <time>2026-05-09T07:38:00.719Z</time>
      </trkpt>
      <trkpt lat="47.85504" lon="6.91775">
        <ele>1096</ele>
        <time>2026-05-09T07:38:01.720Z</time>
      </trkpt>
      <trkpt lat="47.85504" lon="6.91775">
        <ele>1095</ele>
        <time>2026-05-09T07:38:02.720Z</time>
      </trkpt>
      <trkpt lat="47.85504" lon="6.91775">
        <ele>1095</ele>
        <time>2026-05-09T07:38:03.720Z</time>
      </trkpt>
      <trkpt lat="47.85504" lon="6.91775">
        <ele>1094</ele>
        <time>2026-05-09T07:38:04.719Z</time>
      </trkpt>
      <trkpt lat="47.85504" lon="6.91775">
        <ele>1094</ele>
        <time>2026-05-09T07:38:05.719Z</time>
      </trkpt>
      <trkpt lat="47.85504" lon="6.91775">
        <ele>1093</ele>
        <time>2026-05-09T07:38:06.720Z</time>
      </trkpt>
      <trkpt lat="47.85505" lon="6.91774">
        <ele>1093</ele>
        <time>2026-05-09T07:38:07.719Z</time>
      </trkpt>
      <trkpt lat="47.85506" lon="6.91774">
        <ele>1093</ele>
        <time>2026-05-09T07:38:08.720Z</time>
      </trkpt>
      <trkpt lat="47.85506" lon="6.91773">
        <ele>1092</ele>
        <time>2026-05-09T07:38:09.720Z</time>
      </trkpt>
      <trkpt lat="47.85507" lon="6.91772">
        <ele>1092</ele>
        <time>2026-05-09T07:38:10.720Z</time>
      </trkpt>
      <trkpt lat="47.85508" lon="6.91771">
        <ele>1092</ele>
        <time>2026-05-09T07:38:11.720Z</time>
      </trkpt>
      <trkpt lat="47.85509" lon="6.91771">
        <ele>1092</ele>
        <time>2026-05-09T07:38:12.719Z</time>
      </trkpt>
      <trkpt lat="47.8551" lon="6.9177">
        <ele>1093</ele>
        <time>2026-05-09T07:38:13.719Z</time>
      </trkpt>
      <trkpt lat="47.85511" lon="6.91769">
        <ele>1093</ele>
        <time>2026-05-09T07:38:14.719Z</time>
      </trkpt>
      <trkpt lat="47.85512" lon="6.91768">
        <ele>1093</ele>
        <time>2026-05-09T07:38:15.719Z</time>
      </trkpt>
      <trkpt lat="47.85513" lon="6.91767">
        <ele>1093</ele>
        <time>2026-05-09T07:38:16.719Z</time>
      </trkpt>
      <trkpt lat="47.85513" lon="6.91766">
        <ele>1093</ele>
        <time>2026-05-09T07:38:17.719Z</time>
      </trkpt>
      <trkpt lat="47.85514" lon="6.91765">
        <ele>1093</ele>
        <time>2026-05-09T07:38:18.719Z</time>
      </trkpt>
      <trkpt lat="47.85515" lon="6.91764">
        <ele>1093</ele>
        <time>2026-05-09T07:38:19.719Z</time>
      </trkpt>
      <trkpt lat="47.85516" lon="6.91763">
        <ele>1092</ele>
        <time>2026-05-09T07:38:20.720Z</time>
      </trkpt>
      <trkpt lat="47.85517" lon="6.91762">
        <ele>1092</ele>
        <time>2026-05-09T07:38:21.719Z</time>
      </trkpt>
      <trkpt lat="47.85518" lon="6.91761">
        <ele>1092</ele>
        <time>2026-05-09T07:38:22.720Z</time>
      </trkpt>
      <trkpt lat="47.85519" lon="6.9176">
        <ele>1092</ele>
        <time>2026-05-09T07:38:23.719Z</time>
      </trkpt>
      <trkpt lat="47.8552" lon="6.91759">
        <ele>1092</ele>
        <time>2026-05-09T07:38:24.719Z</time>
      </trkpt>
      <trkpt lat="47.85521" lon="6.91758">
        <ele>1091</ele>
        <time>2026-05-09T07:38:25.720Z</time>
      </trkpt>
      <trkpt lat="47.85522" lon="6.91757">
        <ele>1091</ele>
        <time>2026-05-09T07:38:26.719Z</time>
      </trkpt>
      <trkpt lat="47.85523" lon="6.91756">
        <ele>1091</ele>
        <time>2026-05-09T07:38:27.719Z</time>
      </trkpt>
      <trkpt lat="47.85524" lon="6.91756">
        <ele>1091</ele>
        <time>2026-05-09T07:38:28.719Z</time>
      </trkpt>
      <trkpt lat="47.85525" lon="6.91755">
        <ele>1091</ele>
        <time>2026-05-09T07:38:29.719Z</time>
      </trkpt>
      <trkpt lat="47.85526" lon="6.91755">
        <ele>1091</ele>
        <time>2026-05-09T07:38:30.719Z</time>
      </trkpt>
      <trkpt lat="47.85528" lon="6.91754">
        <ele>1090</ele>
        <time>2026-05-09T07:38:31.719Z</time>
      </trkpt>
      <trkpt lat="47.85529" lon="6.91753">
        <ele>1090</ele>
        <time>2026-05-09T07:38:32.719Z</time>
      </trkpt>
      <trkpt lat="47.8553" lon="6.91753">
        <ele>1090</ele>
        <time>2026-05-09T07:38:33.719Z</time>
      </trkpt>
      <trkpt lat="47.85531" lon="6.91752">
        <ele>1090</ele>
        <time>2026-05-09T07:38:34.719Z</time>
      </trkpt>
      <trkpt lat="47.85533" lon="6.91752">
        <ele>1090</ele>
        <time>2026-05-09T07:38:35.719Z</time>
      </trkpt>
      <trkpt lat="47.85534" lon="6.91751">
        <ele>1090</ele>
        <time>2026-05-09T07:38:36.719Z</time>
      </trkpt>
      <trkpt lat="47.85535" lon="6.9175">
        <ele>1089</ele>
        <time>2026-05-09T07:38:37.719Z</time>
      </trkpt>
      <trkpt lat="47.85537" lon="6.91749">
        <ele>1089</ele>
        <time>2026-05-09T07:38:38.719Z</time>
      </trkpt>
      <trkpt lat="47.85538" lon="6.91749">
        <ele>1089</ele>
        <time>2026-05-09T07:38:39.719Z</time>
      </trkpt>
      <trkpt lat="47.85539" lon="6.91748">
        <ele>1090</ele>
        <time>2026-05-09T07:38:40.719Z</time>
      </trkpt>
      <trkpt lat="47.8554" lon="6.91747">
        <ele>1090</ele>
        <time>2026-05-09T07:38:41.720Z</time>
      </trkpt>
      <trkpt lat="47.85541" lon="6.91746">
        <ele>1090</ele>
        <time>2026-05-09T07:38:42.720Z</time>
      </trkpt>
      <trkpt lat="47.85543" lon="6.91746">
        <ele>1090</ele>
        <time>2026-05-09T07:38:43.720Z</time>
      </trkpt>
      <trkpt lat="47.85544" lon="6.91745">
        <ele>1090</ele>
        <time>2026-05-09T07:38:44.720Z</time>
      </trkpt>
      <trkpt lat="47.85545" lon="6.91744">
        <ele>1090</ele>
        <time>2026-05-09T07:38:45.719Z</time>
      </trkpt>
      <trkpt lat="47.85546" lon="6.91743">
        <ele>1090</ele>
        <time>2026-05-09T07:38:46.719Z</time>
      </trkpt>
      <trkpt lat="47.85547" lon="6.91742">
        <ele>1090</ele>
        <time>2026-05-09T07:38:47.719Z</time>
      </trkpt>
      <trkpt lat="47.85549" lon="6.91741">
        <ele>1090</ele>
        <time>2026-05-09T07:38:48.719Z</time>
      </trkpt>
      <trkpt lat="47.8555" lon="6.9174">
        <ele>1090</ele>
        <time>2026-05-09T07:38:49.719Z</time>
      </trkpt>
      <trkpt lat="47.85551" lon="6.91739">
        <ele>1090</ele>
        <time>2026-05-09T07:38:50.719Z</time>
      </trkpt>
      <trkpt lat="47.85552" lon="6.91738">
        <ele>1090</ele>
        <time>2026-05-09T07:38:51.720Z</time>
      </trkpt>
      <trkpt lat="47.85553" lon="6.91737">
        <ele>1090</ele>
        <time>2026-05-09T07:38:52.720Z</time>
      </trkpt>
      <trkpt lat="47.85555" lon="6.91736">
        <ele>1090</ele>
        <time>2026-05-09T07:38:53.720Z</time>
      </trkpt>
      <trkpt lat="47.85556" lon="6.91735">
        <ele>1090</ele>
        <time>2026-05-09T07:38:54.719Z</time>
      </trkpt>
      <trkpt lat="47.85557" lon="6.91735">
        <ele>1090</ele>
        <time>2026-05-09T07:38:55.719Z</time>
      </trkpt>
      <trkpt lat="47.85558" lon="6.91734">
        <ele>1090</ele>
        <time>2026-05-09T07:38:56.719Z</time>
      </trkpt>
      <trkpt lat="47.85559" lon="6.91734">
        <ele>1090</ele>
        <time>2026-05-09T07:38:57.719Z</time>
      </trkpt>
      <trkpt lat="47.8556" lon="6.91733">
        <ele>1090</ele>
        <time>2026-05-09T07:38:58.719Z</time>
      </trkpt>
      <trkpt lat="47.85562" lon="6.91732">
        <ele>1090</ele>
        <time>2026-05-09T07:38:59.720Z</time>
      </trkpt>
      <trkpt lat="47.85563" lon="6.91731">
        <ele>1090</ele>
        <time>2026-05-09T07:39:00.719Z</time>
      </trkpt>
      <trkpt lat="47.85564" lon="6.91731">
        <ele>1090</ele>
        <time>2026-05-09T07:39:01.719Z</time>
      </trkpt>
      <trkpt lat="47.85565" lon="6.9173">
        <ele>1091</ele>
        <time>2026-05-09T07:39:02.719Z</time>
      </trkpt>
      <trkpt lat="47.85567" lon="6.91729">
        <ele>1091</ele>
        <time>2026-05-09T07:39:03.719Z</time>
      </trkpt>
      <trkpt lat="47.85568" lon="6.91728">
        <ele>1091</ele>
        <time>2026-05-09T07:39:04.719Z</time>
      </trkpt>
      <trkpt lat="47.85569" lon="6.91727">
        <ele>1091</ele>
        <time>2026-05-09T07:39:05.719Z</time>
      </trkpt>
      <trkpt lat="47.8557" lon="6.91726">
        <ele>1092</ele>
        <time>2026-05-09T07:39:06.719Z</time>
      </trkpt>
      <trkpt lat="47.85571" lon="6.91725">
        <ele>1092</ele>
        <time>2026-05-09T07:39:07.719Z</time>
      </trkpt>
      <trkpt lat="47.85572" lon="6.91724">
        <ele>1092</ele>
        <time>2026-05-09T07:39:08.719Z</time>
      </trkpt>
      <trkpt lat="47.85573" lon="6.91723">
        <ele>1092</ele>
        <time>2026-05-09T07:39:09.719Z</time>
      </trkpt>
      <trkpt lat="47.85573" lon="6.91722">
        <ele>1093</ele>
        <time>2026-05-09T07:39:10.719Z</time>
      </trkpt>
      <trkpt lat="47.85574" lon="6.91721">
        <ele>1093</ele>
        <time>2026-05-09T07:39:11.720Z</time>
      </trkpt>
      <trkpt lat="47.85575" lon="6.91721">
        <ele>1093</ele>
        <time>2026-05-09T07:39:12.720Z</time>
      </trkpt>
      <trkpt lat="47.85575" lon="6.9172">
        <ele>1092</ele>
        <time>2026-05-09T07:39:13.719Z</time>
      </trkpt>
      <trkpt lat="47.85576" lon="6.91719">
        <ele>1092</ele>
        <time>2026-05-09T07:39:14.719Z</time>
      </trkpt>
      <trkpt lat="47.85577" lon="6.91719">
        <ele>1092</ele>
        <time>2026-05-09T07:39:15.719Z</time>
      </trkpt>
      <trkpt lat="47.85577" lon="6.91718">
        <ele>1091</ele>
        <time>2026-05-09T07:39:16.719Z</time>
      </trkpt>
      <trkpt lat="47.85578" lon="6.91718">
        <ele>1091</ele>
        <time>2026-05-09T07:39:17.719Z</time>
      </trkpt>
      <trkpt lat="47.85578" lon="6.91718">
        <ele>1091</ele>
        <time>2026-05-09T07:39:18.719Z</time>
      </trkpt>
      <trkpt lat="47.85579" lon="6.91713">
        <ele>1092</ele>
        <time>2026-05-09T07:39:27.940Z</time>
      </trkpt>
      <trkpt lat="47.8558" lon="6.91712">
        <ele>1092</ele>
        <time>2026-05-09T07:39:28.941Z</time>
      </trkpt>
      <trkpt lat="47.8558" lon="6.91711">
        <ele>1092</ele>
        <time>2026-05-09T07:39:29.941Z</time>
      </trkpt>
      <trkpt lat="47.8558" lon="6.9171">
        <ele>1092</ele>
        <time>2026-05-09T07:39:30.940Z</time>
      </trkpt>
      <trkpt lat="47.8558" lon="6.91708">
        <ele>1091</ele>
        <time>2026-05-09T07:39:31.941Z</time>
      </trkpt>
      <trkpt lat="47.85581" lon="6.91707">
        <ele>1091</ele>
        <time>2026-05-09T07:39:32.941Z</time>
      </trkpt>
      <trkpt lat="47.85581" lon="6.91707">
        <ele>1091</ele>
        <time>2026-05-09T07:39:33.940Z</time>
      </trkpt>
      <trkpt lat="47.85581" lon="6.91707">
        <ele>1090</ele>
        <time>2026-05-09T07:39:34.940Z</time>
      </trkpt>
      <trkpt lat="47.85582" lon="6.91701">
        <ele>1089</ele>
        <time>2026-05-09T07:39:41.375Z</time>
      </trkpt>
      <trkpt lat="47.85583" lon="6.917">
        <ele>1089</ele>
        <time>2026-05-09T07:39:42.375Z</time>
      </trkpt>
      <trkpt lat="47.85583" lon="6.91699">
        <ele>1088</ele>
        <time>2026-05-09T07:39:43.376Z</time>
      </trkpt>
      <trkpt lat="47.85584" lon="6.91697">
        <ele>1088</ele>
        <time>2026-05-09T07:39:44.376Z</time>
      </trkpt>
      <trkpt lat="47.85584" lon="6.91696">
        <ele>1088</ele>
        <time>2026-05-09T07:39:45.375Z</time>
      </trkpt>
      <trkpt lat="47.85585" lon="6.91694">
        <ele>1088</ele>
        <time>2026-05-09T07:39:46.376Z</time>
      </trkpt>
      <trkpt lat="47.85585" lon="6.91692">
        <ele>1088</ele>
        <time>2026-05-09T07:39:47.375Z</time>
      </trkpt>
      <trkpt lat="47.85586" lon="6.9169">
        <ele>1088</ele>
        <time>2026-05-09T07:39:48.375Z</time>
      </trkpt>
      <trkpt lat="47.85586" lon="6.91689">
        <ele>1088</ele>
        <time>2026-05-09T07:39:49.375Z</time>
      </trkpt>
      <trkpt lat="47.85586" lon="6.91687">
        <ele>1089</ele>
        <time>2026-05-09T07:39:50.376Z</time>
      </trkpt>
      <trkpt lat="47.85586" lon="6.91686">
        <ele>1089</ele>
        <time>2026-05-09T07:39:51.376Z</time>
      </trkpt>
      <trkpt lat="47.85587" lon="6.91684">
        <ele>1089</ele>
        <time>2026-05-09T07:39:52.375Z</time>
      </trkpt>
      <trkpt lat="47.85587" lon="6.91682">
        <ele>1089</ele>
        <time>2026-05-09T07:39:53.375Z</time>
      </trkpt>
      <trkpt lat="47.85588" lon="6.91681">
        <ele>1089</ele>
        <time>2026-05-09T07:39:54.375Z</time>
      </trkpt>
      <trkpt lat="47.85589" lon="6.91679">
        <ele>1089</ele>
        <time>2026-05-09T07:39:55.375Z</time>
      </trkpt>
      <trkpt lat="47.85589" lon="6.91677">
        <ele>1090</ele>
        <time>2026-05-09T07:39:56.376Z</time>
      </trkpt>
      <trkpt lat="47.8559" lon="6.91676">
        <ele>1090</ele>
        <time>2026-05-09T07:39:57.375Z</time>
      </trkpt>
      <trkpt lat="47.8559" lon="6.91675">
        <ele>1090</ele>
        <time>2026-05-09T07:39:58.376Z</time>
      </trkpt>
      <trkpt lat="47.8559" lon="6.91673">
        <ele>1090</ele>
        <time>2026-05-09T07:39:59.376Z</time>
      </trkpt>
      <trkpt lat="47.8559" lon="6.91671">
        <ele>1091</ele>
        <time>2026-05-09T07:40:00.376Z</time>
      </trkpt>
      <trkpt lat="47.85591" lon="6.9167">
        <ele>1091</ele>
        <time>2026-05-09T07:40:01.375Z</time>
      </trkpt>
      <trkpt lat="47.85592" lon="6.91669">
        <ele>1091</ele>
        <time>2026-05-09T07:40:02.375Z</time>
      </trkpt>
      <trkpt lat="47.85591" lon="6.91668">
        <ele>1091</ele>
        <time>2026-05-09T07:40:03.375Z</time>
      </trkpt>
      <trkpt lat="47.85592" lon="6.91666">
        <ele>1091</ele>
        <time>2026-05-09T07:40:04.375Z</time>
      </trkpt>
      <trkpt lat="47.85592" lon="6.91665">
        <ele>1091</ele>
        <time>2026-05-09T07:40:05.376Z</time>
      </trkpt>
      <trkpt lat="47.85592" lon="6.91664">
        <ele>1091</ele>
        <time>2026-05-09T07:40:06.375Z</time>
      </trkpt>
      <trkpt lat="47.85593" lon="6.91662">
        <ele>1090</ele>
        <time>2026-05-09T07:40:07.376Z</time>
      </trkpt>
      <trkpt lat="47.85593" lon="6.9166">
        <ele>1090</ele>
        <time>2026-05-09T07:40:08.376Z</time>
      </trkpt>
      <trkpt lat="47.85593" lon="6.91658">
        <ele>1090</ele>
        <time>2026-05-09T07:40:09.375Z</time>
      </trkpt>
      <trkpt lat="47.85593" lon="6.91656">
        <ele>1090</ele>
        <time>2026-05-09T07:40:10.376Z</time>
      </trkpt>
      <trkpt lat="47.85594" lon="6.91654">
        <ele>1090</ele>
        <time>2026-05-09T07:40:11.376Z</time>
      </trkpt>
      <trkpt lat="47.85594" lon="6.91652">
        <ele>1090</ele>
        <time>2026-05-09T07:40:12.375Z</time>
      </trkpt>
      <trkpt lat="47.85594" lon="6.9165">
        <ele>1091</ele>
        <time>2026-05-09T07:40:13.375Z</time>
      </trkpt>
      <trkpt lat="47.85595" lon="6.91648">
        <ele>1091</ele>
        <time>2026-05-09T07:40:14.375Z</time>
      </trkpt>
      <trkpt lat="47.85595" lon="6.91646">
        <ele>1091</ele>
        <time>2026-05-09T07:40:15.376Z</time>
      </trkpt>
      <trkpt lat="47.85595" lon="6.91644">
        <ele>1092</ele>
        <time>2026-05-09T07:40:16.375Z</time>
      </trkpt>
      <trkpt lat="47.85595" lon="6.91642">
        <ele>1092</ele>
        <time>2026-05-09T07:40:17.376Z</time>
      </trkpt>
      <trkpt lat="47.85595" lon="6.9164">
        <ele>1092</ele>
        <time>2026-05-09T07:40:18.376Z</time>
      </trkpt>
      <trkpt lat="47.85596" lon="6.91638">
        <ele>1093</ele>
        <time>2026-05-09T07:40:19.376Z</time>
      </trkpt>
      <trkpt lat="47.85596" lon="6.91636">
        <ele>1092</ele>
        <time>2026-05-09T07:40:20.376Z</time>
      </trkpt>
      <trkpt lat="47.85596" lon="6.91634">
        <ele>1092</ele>
        <time>2026-05-09T07:40:21.375Z</time>
      </trkpt>
      <trkpt lat="47.85596" lon="6.91633">
        <ele>1092</ele>
        <time>2026-05-09T07:40:22.376Z</time>
      </trkpt>
      <trkpt lat="47.85597" lon="6.91631">
        <ele>1092</ele>
        <time>2026-05-09T07:40:23.376Z</time>
      </trkpt>
      <trkpt lat="47.85597" lon="6.91629">
        <ele>1093</ele>
        <time>2026-05-09T07:40:24.375Z</time>
      </trkpt>
      <trkpt lat="47.85597" lon="6.91628">
        <ele>1093</ele>
        <time>2026-05-09T07:40:25.375Z</time>
      </trkpt>
      <trkpt lat="47.85598" lon="6.91626">
        <ele>1093</ele>
        <time>2026-05-09T07:40:26.375Z</time>
      </trkpt>
      <trkpt lat="47.85598" lon="6.91623">
        <ele>1093</ele>
        <time>2026-05-09T07:40:27.375Z</time>
      </trkpt>
      <trkpt lat="47.85599" lon="6.91621">
        <ele>1093</ele>
        <time>2026-05-09T07:40:28.375Z</time>
      </trkpt>
      <trkpt lat="47.85599" lon="6.91619">
        <ele>1093</ele>
        <time>2026-05-09T07:40:29.375Z</time>
      </trkpt>
      <trkpt lat="47.85599" lon="6.91618">
        <ele>1093</ele>
        <time>2026-05-09T07:40:30.375Z</time>
      </trkpt>
      <trkpt lat="47.856" lon="6.91616">
        <ele>1092</ele>
        <time>2026-05-09T07:40:31.375Z</time>
      </trkpt>
      <trkpt lat="47.856" lon="6.91614">
        <ele>1092</ele>
        <time>2026-05-09T07:40:32.376Z</time>
      </trkpt>
      <trkpt lat="47.85601" lon="6.91612">
        <ele>1092</ele>
        <time>2026-05-09T07:40:33.375Z</time>
      </trkpt>
      <trkpt lat="47.85602" lon="6.9161">
        <ele>1093</ele>
        <time>2026-05-09T07:40:34.375Z</time>
      </trkpt>
      <trkpt lat="47.85602" lon="6.91608">
        <ele>1093</ele>
        <time>2026-05-09T07:40:35.375Z</time>
      </trkpt>
      <trkpt lat="47.85602" lon="6.91606">
        <ele>1093</ele>
        <time>2026-05-09T07:40:36.375Z</time>
      </trkpt>
      <trkpt lat="47.85602" lon="6.91604">
        <ele>1094</ele>
        <time>2026-05-09T07:40:37.376Z</time>
      </trkpt>
      <trkpt lat="47.85603" lon="6.91602">
        <ele>1094</ele>
        <time>2026-05-09T07:40:38.375Z</time>
      </trkpt>
      <trkpt lat="47.85603" lon="6.91601">
        <ele>1094</ele>
        <time>2026-05-09T07:40:39.376Z</time>
      </trkpt>
      <trkpt lat="47.85603" lon="6.91599">
        <ele>1094</ele>
        <time>2026-05-09T07:40:40.376Z</time>
      </trkpt>
      <trkpt lat="47.85604" lon="6.91597">
        <ele>1094</ele>
        <time>2026-05-09T07:40:41.375Z</time>
      </trkpt>
      <trkpt lat="47.85604" lon="6.91595">
        <ele>1094</ele>
        <time>2026-05-09T07:40:42.376Z</time>
      </trkpt>
      <trkpt lat="47.85604" lon="6.91593">
        <ele>1093</ele>
        <time>2026-05-09T07:40:43.376Z</time>
      </trkpt>
      <trkpt lat="47.85604" lon="6.91591">
        <ele>1093</ele>
        <time>2026-05-09T07:40:44.375Z</time>
      </trkpt>
      <trkpt lat="47.85605" lon="6.91589">
        <ele>1093</ele>
        <time>2026-05-09T07:40:45.375Z</time>
      </trkpt>
      <trkpt lat="47.85605" lon="6.91588">
        <ele>1094</ele>
        <time>2026-05-09T07:40:46.376Z</time>
      </trkpt>
      <trkpt lat="47.85606" lon="6.91586">
        <ele>1094</ele>
        <time>2026-05-09T07:40:47.375Z</time>
      </trkpt>
      <trkpt lat="47.85606" lon="6.91584">
        <ele>1093</ele>
        <time>2026-05-09T07:40:48.375Z</time>
      </trkpt>
      <trkpt lat="47.85607" lon="6.91583">
        <ele>1093</ele>
        <time>2026-05-09T07:40:49.375Z</time>
      </trkpt>
      <trkpt lat="47.85607" lon="6.91581">
        <ele>1093</ele>
        <time>2026-05-09T07:40:50.375Z</time>
      </trkpt>
      <trkpt lat="47.85607" lon="6.9158">
        <ele>1093</ele>
        <time>2026-05-09T07:40:51.376Z</time>
      </trkpt>
      <trkpt lat="47.85608" lon="6.91578">
        <ele>1093</ele>
        <time>2026-05-09T07:40:52.376Z</time>
      </trkpt>
      <trkpt lat="47.85608" lon="6.91577">
        <ele>1093</ele>
        <time>2026-05-09T07:40:53.376Z</time>
      </trkpt>
      <trkpt lat="47.85608" lon="6.91576">
        <ele>1094</ele>
        <time>2026-05-09T07:40:54.375Z</time>
      </trkpt>
      <trkpt lat="47.85608" lon="6.91575">
        <ele>1094</ele>
        <time>2026-05-09T07:40:55.375Z</time>
      </trkpt>
      <trkpt lat="47.85609" lon="6.91573">
        <ele>1094</ele>
        <time>2026-05-09T07:40:56.375Z</time>
      </trkpt>
      <trkpt lat="47.85609" lon="6.91572">
        <ele>1094</ele>
        <time>2026-05-09T07:40:57.376Z</time>
      </trkpt>
      <trkpt lat="47.85609" lon="6.9157">
        <ele>1094</ele>
        <time>2026-05-09T07:40:58.376Z</time>
      </trkpt>
      <trkpt lat="47.8561" lon="6.91568">
        <ele>1094</ele>
        <time>2026-05-09T07:40:59.376Z</time>
      </trkpt>
      <trkpt lat="47.8561" lon="6.91566">
        <ele>1094</ele>
        <time>2026-05-09T07:41:00.376Z</time>
      </trkpt>
      <trkpt lat="47.8561" lon="6.91564">
        <ele>1094</ele>
        <time>2026-05-09T07:41:01.375Z</time>
      </trkpt>
      <trkpt lat="47.85611" lon="6.91562">
        <ele>1094</ele>
        <time>2026-05-09T07:41:02.376Z</time>
      </trkpt>
      <trkpt lat="47.85611" lon="6.9156">
        <ele>1094</ele>
        <time>2026-05-09T07:41:03.376Z</time>
      </trkpt>
      <trkpt lat="47.85612" lon="6.91558">
        <ele>1094</ele>
        <time>2026-05-09T07:41:04.375Z</time>
      </trkpt>
      <trkpt lat="47.85612" lon="6.91557">
        <ele>1094</ele>
        <time>2026-05-09T07:41:05.376Z</time>
      </trkpt>
      <trkpt lat="47.85612" lon="6.91555">
        <ele>1094</ele>
        <time>2026-05-09T07:41:06.376Z</time>
      </trkpt>
      <trkpt lat="47.85613" lon="6.91553">
        <ele>1094</ele>
        <time>2026-05-09T07:41:07.376Z</time>
      </trkpt>
      <trkpt lat="47.85613" lon="6.91551">
        <ele>1094</ele>
        <time>2026-05-09T07:41:08.375Z</time>
      </trkpt>
      <trkpt lat="47.85613" lon="6.91549">
        <ele>1094</ele>
        <time>2026-05-09T07:41:09.375Z</time>
      </trkpt>
      <trkpt lat="47.85614" lon="6.91548">
        <ele>1094</ele>
        <time>2026-05-09T07:41:10.375Z</time>
      </trkpt>
      <trkpt lat="47.85615" lon="6.91546">
        <ele>1094</ele>
        <time>2026-05-09T07:41:11.375Z</time>
      </trkpt>
      <trkpt lat="47.85615" lon="6.91544">
        <ele>1094</ele>
        <time>2026-05-09T07:41:12.375Z</time>
      </trkpt>
      <trkpt lat="47.85616" lon="6.91542">
        <ele>1094</ele>
        <time>2026-05-09T07:41:13.375Z</time>
      </trkpt>
      <trkpt lat="47.85616" lon="6.9154">
        <ele>1095</ele>
        <time>2026-05-09T07:41:14.375Z</time>
      </trkpt>
      <trkpt lat="47.85617" lon="6.91538">
        <ele>1095</ele>
        <time>2026-05-09T07:41:15.375Z</time>
      </trkpt>
      <trkpt lat="47.85618" lon="6.91536">
        <ele>1095</ele>
        <time>2026-05-09T07:41:16.375Z</time>
      </trkpt>
      <trkpt lat="47.85618" lon="6.91534">
        <ele>1096</ele>
        <time>2026-05-09T07:41:17.376Z</time>
      </trkpt>
      <trkpt lat="47.85619" lon="6.91532">
        <ele>1096</ele>
        <time>2026-05-09T07:41:18.375Z</time>
      </trkpt>
      <trkpt lat="47.85619" lon="6.9153">
        <ele>1096</ele>
        <time>2026-05-09T07:41:19.375Z</time>
      </trkpt>
      <trkpt lat="47.8562" lon="6.91528">
        <ele>1096</ele>
        <time>2026-05-09T07:41:20.376Z</time>
      </trkpt>
      <trkpt lat="47.85621" lon="6.91526">
        <ele>1096</ele>
        <time>2026-05-09T07:41:21.376Z</time>
      </trkpt>
      <trkpt lat="47.85621" lon="6.91524">
        <ele>1096</ele>
        <time>2026-05-09T07:41:22.375Z</time>
      </trkpt>
      <trkpt lat="47.85622" lon="6.91523">
        <ele>1096</ele>
        <time>2026-05-09T07:41:23.375Z</time>
      </trkpt>
      <trkpt lat="47.85622" lon="6.91521">
        <ele>1096</ele>
        <time>2026-05-09T07:41:24.375Z</time>
      </trkpt>
      <trkpt lat="47.85623" lon="6.91519">
        <ele>1096</ele>
        <time>2026-05-09T07:41:25.376Z</time>
      </trkpt>
      <trkpt lat="47.85623" lon="6.91517">
        <ele>1096</ele>
        <time>2026-05-09T07:41:26.375Z</time>
      </trkpt>
      <trkpt lat="47.85624" lon="6.91515">
        <ele>1096</ele>
        <time>2026-05-09T07:41:27.376Z</time>
      </trkpt>
      <trkpt lat="47.85624" lon="6.91513">
        <ele>1096</ele>
        <time>2026-05-09T07:41:28.376Z</time>
      </trkpt>
      <trkpt lat="47.85625" lon="6.91512">
        <ele>1096</ele>
        <time>2026-05-09T07:41:29.376Z</time>
      </trkpt>
      <trkpt lat="47.85626" lon="6.9151">
        <ele>1096</ele>
        <time>2026-05-09T07:41:30.376Z</time>
      </trkpt>
      <trkpt lat="47.85626" lon="6.91509">
        <ele>1096</ele>
        <time>2026-05-09T07:41:31.375Z</time>
      </trkpt>
      <trkpt lat="47.85627" lon="6.91507">
        <ele>1096</ele>
        <time>2026-05-09T07:41:32.375Z</time>
      </trkpt>
      <trkpt lat="47.85628" lon="6.91504">
        <ele>1096</ele>
        <time>2026-05-09T07:41:33.375Z</time>
      </trkpt>
      <trkpt lat="47.85628" lon="6.91502">
        <ele>1096</ele>
        <time>2026-05-09T07:41:34.375Z</time>
      </trkpt>
      <trkpt lat="47.85629" lon="6.915">
        <ele>1096</ele>
        <time>2026-05-09T07:41:35.375Z</time>
      </trkpt>
      <trkpt lat="47.85629" lon="6.91498">
        <ele>1096</ele>
        <time>2026-05-09T07:41:36.376Z</time>
      </trkpt>
      <trkpt lat="47.8563" lon="6.91497">
        <ele>1096</ele>
        <time>2026-05-09T07:41:37.375Z</time>
      </trkpt>
      <trkpt lat="47.85631" lon="6.91496">
        <ele>1096</ele>
        <time>2026-05-09T07:41:38.375Z</time>
      </trkpt>
      <trkpt lat="47.85631" lon="6.91494">
        <ele>1096</ele>
        <time>2026-05-09T07:41:39.375Z</time>
      </trkpt>
      <trkpt lat="47.85632" lon="6.91493">
        <ele>1096</ele>
        <time>2026-05-09T07:41:40.375Z</time>
      </trkpt>
      <trkpt lat="47.85633" lon="6.91491">
        <ele>1096</ele>
        <time>2026-05-09T07:41:41.375Z</time>
      </trkpt>
      <trkpt lat="47.85633" lon="6.91489">
        <ele>1095</ele>
        <time>2026-05-09T07:41:42.376Z</time>
      </trkpt>
      <trkpt lat="47.85634" lon="6.91488">
        <ele>1095</ele>
        <time>2026-05-09T07:41:43.375Z</time>
      </trkpt>
      <trkpt lat="47.85635" lon="6.91486">
        <ele>1095</ele>
        <time>2026-05-09T07:41:44.375Z</time>
      </trkpt>
      <trkpt lat="47.85635" lon="6.91484">
        <ele>1095</ele>
        <time>2026-05-09T07:41:45.375Z</time>
      </trkpt>
      <trkpt lat="47.85636" lon="6.91483">
        <ele>1095</ele>
        <time>2026-05-09T07:41:46.375Z</time>
      </trkpt>
      <trkpt lat="47.85637" lon="6.91481">
        <ele>1095</ele>
        <time>2026-05-09T07:41:47.376Z</time>
      </trkpt>
      <trkpt lat="47.85637" lon="6.9148">
        <ele>1096</ele>
        <time>2026-05-09T07:41:48.376Z</time>
      </trkpt>
      <trkpt lat="47.85638" lon="6.91478">
        <ele>1096</ele>
        <time>2026-05-09T07:41:49.375Z</time>
      </trkpt>
      <trkpt lat="47.85639" lon="6.91477">
        <ele>1096</ele>
        <time>2026-05-09T07:41:50.375Z</time>
      </trkpt>
      <trkpt lat="47.85639" lon="6.91475">
        <ele>1096</ele>
        <time>2026-05-09T07:41:51.376Z</time>
      </trkpt>
      <trkpt lat="47.8564" lon="6.91474">
        <ele>1097</ele>
        <time>2026-05-09T07:41:52.375Z</time>
      </trkpt>
      <trkpt lat="47.85641" lon="6.91473">
        <ele>1097</ele>
        <time>2026-05-09T07:41:53.375Z</time>
      </trkpt>
      <trkpt lat="47.85642" lon="6.91471">
        <ele>1097</ele>
        <time>2026-05-09T07:41:54.375Z</time>
      </trkpt>
      <trkpt lat="47.85642" lon="6.9147">
        <ele>1097</ele>
        <time>2026-05-09T07:41:55.375Z</time>
      </trkpt>
      <trkpt lat="47.85643" lon="6.91468">
        <ele>1097</ele>
        <time>2026-05-09T07:41:56.376Z</time>
      </trkpt>
      <trkpt lat="47.85644" lon="6.91467">
        <ele>1097</ele>
        <time>2026-05-09T07:41:57.375Z</time>
      </trkpt>
      <trkpt lat="47.85645" lon="6.91466">
        <ele>1097</ele>
        <time>2026-05-09T07:41:58.375Z</time>
      </trkpt>
      <trkpt lat="47.85645" lon="6.91465">
        <ele>1097</ele>
        <time>2026-05-09T07:41:59.375Z</time>
      </trkpt>
      <trkpt lat="47.85646" lon="6.91463">
        <ele>1098</ele>
        <time>2026-05-09T07:42:00.376Z</time>
      </trkpt>
      <trkpt lat="47.85647" lon="6.91461">
        <ele>1098</ele>
        <time>2026-05-09T07:42:01.376Z</time>
      </trkpt>
      <trkpt lat="47.85647" lon="6.91459">
        <ele>1099</ele>
        <time>2026-05-09T07:42:02.376Z</time>
      </trkpt>
      <trkpt lat="47.85648" lon="6.91458">
        <ele>1099</ele>
        <time>2026-05-09T07:42:03.376Z</time>
      </trkpt>
      <trkpt lat="47.85649" lon="6.91457">
        <ele>1099</ele>
        <time>2026-05-09T07:42:04.376Z</time>
      </trkpt>
      <trkpt lat="47.8565" lon="6.91454">
        <ele>1099</ele>
        <time>2026-05-09T07:42:05.375Z</time>
      </trkpt>
      <trkpt lat="47.85651" lon="6.91451">
        <ele>1099</ele>
        <time>2026-05-09T07:42:06.375Z</time>
      </trkpt>
      <trkpt lat="47.85652" lon="6.91449">
        <ele>1099</ele>
        <time>2026-05-09T07:42:07.376Z</time>
      </trkpt>
      <trkpt lat="47.85652" lon="6.91447">
        <ele>1099</ele>
        <time>2026-05-09T07:42:08.375Z</time>
      </trkpt>
      <trkpt lat="47.85653" lon="6.91445">
        <ele>1099</ele>
        <time>2026-05-09T07:42:09.375Z</time>
      </trkpt>
      <trkpt lat="47.85654" lon="6.91442">
        <ele>1098</ele>
        <time>2026-05-09T07:42:10.376Z</time>
      </trkpt>
      <trkpt lat="47.85654" lon="6.9144">
        <ele>1097</ele>
        <time>2026-05-09T07:42:11.376Z</time>
      </trkpt>
      <trkpt lat="47.85655" lon="6.91439">
        <ele>1097</ele>
        <time>2026-05-09T07:42:12.376Z</time>
      </trkpt>
      <trkpt lat="47.85656" lon="6.91437">
        <ele>1097</ele>
        <time>2026-05-09T07:42:13.376Z</time>
      </trkpt>
      <trkpt lat="47.85657" lon="6.91436">
        <ele>1097</ele>
        <time>2026-05-09T07:42:14.376Z</time>
      </trkpt>
      <trkpt lat="47.85657" lon="6.91435">
        <ele>1097</ele>
        <time>2026-05-09T07:42:15.376Z</time>
      </trkpt>
      <trkpt lat="47.85658" lon="6.91433">
        <ele>1098</ele>
        <time>2026-05-09T07:42:16.376Z</time>
      </trkpt>
      <trkpt lat="47.85659" lon="6.91432">
        <ele>1098</ele>
        <time>2026-05-09T07:42:17.375Z</time>
      </trkpt>
      <trkpt lat="47.85659" lon="6.9143">
        <ele>1098</ele>
        <time>2026-05-09T07:42:18.375Z</time>
      </trkpt>
      <trkpt lat="47.8566" lon="6.91429">
        <ele>1098</ele>
        <time>2026-05-09T07:42:19.375Z</time>
      </trkpt>
      <trkpt lat="47.8566" lon="6.91428">
        <ele>1098</ele>
        <time>2026-05-09T07:42:20.375Z</time>
      </trkpt>
      <trkpt lat="47.85661" lon="6.91426">
        <ele>1099</ele>
        <time>2026-05-09T07:42:21.375Z</time>
      </trkpt>
      <trkpt lat="47.85662" lon="6.91425">
        <ele>1099</ele>
        <time>2026-05-09T07:42:22.375Z</time>
      </trkpt>
      <trkpt lat="47.85662" lon="6.91423">
        <ele>1099</ele>
        <time>2026-05-09T07:42:23.375Z</time>
      </trkpt>
      <trkpt lat="47.85664" lon="6.91421">
        <ele>1098</ele>
        <time>2026-05-09T07:42:24.375Z</time>
      </trkpt>
      <trkpt lat="47.85665" lon="6.91419">
        <ele>1098</ele>
        <time>2026-05-09T07:42:25.375Z</time>
      </trkpt>
      <trkpt lat="47.85666" lon="6.91418">
        <ele>1098</ele>
        <time>2026-05-09T07:42:26.376Z</time>
      </trkpt>
      <trkpt lat="47.85667" lon="6.91417">
        <ele>1098</ele>
        <time>2026-05-09T07:42:27.375Z</time>
      </trkpt>
      <trkpt lat="47.85667" lon="6.91416">
        <ele>1097</ele>
        <time>2026-05-09T07:42:28.375Z</time>
      </trkpt>
      <trkpt lat="47.85668" lon="6.91415">
        <ele>1097</ele>
        <time>2026-05-09T07:42:29.375Z</time>
      </trkpt>
      <trkpt lat="47.85669" lon="6.91414">
        <ele>1097</ele>
        <time>2026-05-09T07:42:30.375Z</time>
      </trkpt>
      <trkpt lat="47.8567" lon="6.91413">
        <ele>1097</ele>
        <time>2026-05-09T07:42:31.375Z</time>
      </trkpt>
      <trkpt lat="47.85671" lon="6.91412">
        <ele>1097</ele>
        <time>2026-05-09T07:42:32.375Z</time>
      </trkpt>
      <trkpt lat="47.85672" lon="6.91411">
        <ele>1098</ele>
        <time>2026-05-09T07:42:33.375Z</time>
      </trkpt>
      <trkpt lat="47.85673" lon="6.9141">
        <ele>1098</ele>
        <time>2026-05-09T07:42:34.375Z</time>
      </trkpt>
      <trkpt lat="47.85673" lon="6.91408">
        <ele>1098</ele>
        <time>2026-05-09T07:42:35.376Z</time>
      </trkpt>
      <trkpt lat="47.85674" lon="6.91407">
        <ele>1098</ele>
        <time>2026-05-09T07:42:36.376Z</time>
      </trkpt>
      <trkpt lat="47.85675" lon="6.91405">
        <ele>1098</ele>
        <time>2026-05-09T07:42:37.376Z</time>
      </trkpt>
      <trkpt lat="47.85675" lon="6.91404">
        <ele>1098</ele>
        <time>2026-05-09T07:42:38.376Z</time>
      </trkpt>
      <trkpt lat="47.85676" lon="6.91403">
        <ele>1099</ele>
        <time>2026-05-09T07:42:39.376Z</time>
      </trkpt>
      <trkpt lat="47.85677" lon="6.91402">
        <ele>1099</ele>
        <time>2026-05-09T07:42:40.375Z</time>
      </trkpt>
      <trkpt lat="47.85678" lon="6.91401">
        <ele>1099</ele>
        <time>2026-05-09T07:42:41.375Z</time>
      </trkpt>
      <trkpt lat="47.85678" lon="6.914">
        <ele>1100</ele>
        <time>2026-05-09T07:42:42.375Z</time>
      </trkpt>
      <trkpt lat="47.85679" lon="6.91399">
        <ele>1100</ele>
        <time>2026-05-09T07:42:43.375Z</time>
      </trkpt>
      <trkpt lat="47.8568" lon="6.91398">
        <ele>1101</ele>
        <time>2026-05-09T07:42:44.376Z</time>
      </trkpt>
      <trkpt lat="47.85681" lon="6.91397">
        <ele>1101</ele>
        <time>2026-05-09T07:42:45.376Z</time>
      </trkpt>
      <trkpt lat="47.85681" lon="6.91396">
        <ele>1101</ele>
        <time>2026-05-09T07:42:46.376Z</time>
      </trkpt>
      <trkpt lat="47.85682" lon="6.91394">
        <ele>1101</ele>
        <time>2026-05-09T07:42:47.376Z</time>
      </trkpt>
      <trkpt lat="47.85683" lon="6.91394">
        <ele>1101</ele>
        <time>2026-05-09T07:42:48.376Z</time>
      </trkpt>
      <trkpt lat="47.85683" lon="6.91393">
        <ele>1101</ele>
        <time>2026-05-09T07:42:49.376Z</time>
      </trkpt>
      <trkpt lat="47.85684" lon="6.91392">
        <ele>1102</ele>
        <time>2026-05-09T07:42:50.376Z</time>
      </trkpt>
      <trkpt lat="47.85685" lon="6.91391">
        <ele>1102</ele>
        <time>2026-05-09T07:42:51.375Z</time>
      </trkpt>
      <trkpt lat="47.85685" lon="6.91389">
        <ele>1103</ele>
        <time>2026-05-09T07:42:52.376Z</time>
      </trkpt>
      <trkpt lat="47.85686" lon="6.91388">
        <ele>1104</ele>
        <time>2026-05-09T07:42:53.376Z</time>
      </trkpt>
      <trkpt lat="47.85687" lon="6.91387">
        <ele>1104</ele>
        <time>2026-05-09T07:42:54.376Z</time>
      </trkpt>
      <trkpt lat="47.85688" lon="6.91386">
        <ele>1105</ele>
        <time>2026-05-09T07:42:55.376Z</time>
      </trkpt>
      <trkpt lat="47.85688" lon="6.91385">
        <ele>1106</ele>
        <time>2026-05-09T07:42:56.375Z</time>
      </trkpt>
      <trkpt lat="47.85689" lon="6.91383">
        <ele>1106</ele>
        <time>2026-05-09T07:42:57.375Z</time>
      </trkpt>
      <trkpt lat="47.8569" lon="6.91382">
        <ele>1106</ele>
        <time>2026-05-09T07:42:58.375Z</time>
      </trkpt>
      <trkpt lat="47.8569" lon="6.9138">
        <ele>1106</ele>
        <time>2026-05-09T07:42:59.375Z</time>
      </trkpt>
      <trkpt lat="47.85691" lon="6.91379">
        <ele>1107</ele>
        <time>2026-05-09T07:43:00.375Z</time>
      </trkpt>
      <trkpt lat="47.85692" lon="6.91378">
        <ele>1107</ele>
        <time>2026-05-09T07:43:01.375Z</time>
      </trkpt>
      <trkpt lat="47.85693" lon="6.91376">
        <ele>1107</ele>
        <time>2026-05-09T07:43:02.375Z</time>
      </trkpt>
      <trkpt lat="47.85693" lon="6.91375">
        <ele>1107</ele>
        <time>2026-05-09T07:43:03.375Z</time>
      </trkpt>
      <trkpt lat="47.85694" lon="6.91373">
        <ele>1107</ele>
        <time>2026-05-09T07:43:04.375Z</time>
      </trkpt>
      <trkpt lat="47.85695" lon="6.91372">
        <ele>1106</ele>
        <time>2026-05-09T07:43:05.375Z</time>
      </trkpt>
      <trkpt lat="47.85695" lon="6.9137">
        <ele>1106</ele>
        <time>2026-05-09T07:43:06.375Z</time>
      </trkpt>
      <trkpt lat="47.85696" lon="6.91369">
        <ele>1107</ele>
        <time>2026-05-09T07:43:07.375Z</time>
      </trkpt>
      <trkpt lat="47.85696" lon="6.91368">
        <ele>1107</ele>
        <time>2026-05-09T07:43:08.375Z</time>
      </trkpt>
      <trkpt lat="47.85697" lon="6.91366">
        <ele>1106</ele>
        <time>2026-05-09T07:43:09.375Z</time>
      </trkpt>
      <trkpt lat="47.85697" lon="6.91364">
        <ele>1106</ele>
        <time>2026-05-09T07:43:10.376Z</time>
      </trkpt>
      <trkpt lat="47.85698" lon="6.91363">
        <ele>1106</ele>
        <time>2026-05-09T07:43:11.375Z</time>
      </trkpt>
      <trkpt lat="47.85698" lon="6.91361">
        <ele>1106</ele>
        <time>2026-05-09T07:43:12.375Z</time>
      </trkpt>
      <trkpt lat="47.85699" lon="6.91359">
        <ele>1106</ele>
        <time>2026-05-09T07:43:13.376Z</time>
      </trkpt>
      <trkpt lat="47.857" lon="6.91358">
        <ele>1105</ele>
        <time>2026-05-09T07:43:14.376Z</time>
      </trkpt>
      <trkpt lat="47.85701" lon="6.91357">
        <ele>1106</ele>
        <time>2026-05-09T07:43:15.375Z</time>
      </trkpt>
      <trkpt lat="47.85701" lon="6.91355">
        <ele>1106</ele>
        <time>2026-05-09T07:43:16.375Z</time>
      </trkpt>
      <trkpt lat="47.85702" lon="6.91353">
        <ele>1106</ele>
        <time>2026-05-09T07:43:17.375Z</time>
      </trkpt>
      <trkpt lat="47.85703" lon="6.91351">
        <ele>1107</ele>
        <time>2026-05-09T07:43:18.376Z</time>
      </trkpt>
      <trkpt lat="47.85704" lon="6.91349">
        <ele>1107</ele>
        <time>2026-05-09T07:43:19.375Z</time>
      </trkpt>
      <trkpt lat="47.85705" lon="6.91348">
        <ele>1108</ele>
        <time>2026-05-09T07:43:20.376Z</time>
      </trkpt>
      <trkpt lat="47.85706" lon="6.91347">
        <ele>1108</ele>
        <time>2026-05-09T07:43:21.376Z</time>
      </trkpt>
      <trkpt lat="47.85706" lon="6.91345">
        <ele>1108</ele>
        <time>2026-05-09T07:43:22.376Z</time>
      </trkpt>
      <trkpt lat="47.85707" lon="6.91344">
        <ele>1108</ele>
        <time>2026-05-09T07:43:23.375Z</time>
      </trkpt>
      <trkpt lat="47.85707" lon="6.91343">
        <ele>1108</ele>
        <time>2026-05-09T07:43:24.376Z</time>
      </trkpt>
      <trkpt lat="47.85708" lon="6.91341">
        <ele>1108</ele>
        <time>2026-05-09T07:43:25.375Z</time>
      </trkpt>
      <trkpt lat="47.85708" lon="6.9134">
        <ele>1108</ele>
        <time>2026-05-09T07:43:26.376Z</time>
      </trkpt>
      <trkpt lat="47.85709" lon="6.91338">
        <ele>1107</ele>
        <time>2026-05-09T07:43:27.375Z</time>
      </trkpt>
      <trkpt lat="47.8571" lon="6.91337">
        <ele>1107</ele>
        <time>2026-05-09T07:43:28.376Z</time>
      </trkpt>
      <trkpt lat="47.8571" lon="6.91335">
        <ele>1107</ele>
        <time>2026-05-09T07:43:29.375Z</time>
      </trkpt>
      <trkpt lat="47.85711" lon="6.91333">
        <ele>1107</ele>
        <time>2026-05-09T07:43:30.376Z</time>
      </trkpt>
      <trkpt lat="47.85712" lon="6.91332">
        <ele>1107</ele>
        <time>2026-05-09T07:43:31.376Z</time>
      </trkpt>
      <trkpt lat="47.85712" lon="6.9133">
        <ele>1107</ele>
        <time>2026-05-09T07:43:32.375Z</time>
      </trkpt>
      <trkpt lat="47.85713" lon="6.91328">
        <ele>1107</ele>
        <time>2026-05-09T07:43:33.376Z</time>
      </trkpt>
      <trkpt lat="47.85713" lon="6.91326">
        <ele>1106</ele>
        <time>2026-05-09T07:43:34.375Z</time>
      </trkpt>
      <trkpt lat="47.85714" lon="6.91324">
        <ele>1106</ele>
        <time>2026-05-09T07:43:35.376Z</time>
      </trkpt>
      <trkpt lat="47.85714" lon="6.91322">
        <ele>1106</ele>
        <time>2026-05-09T07:43:36.375Z</time>
      </trkpt>
      <trkpt lat="47.85715" lon="6.91321">
        <ele>1107</ele>
        <time>2026-05-09T07:43:37.376Z</time>
      </trkpt>
      <trkpt lat="47.85715" lon="6.91319">
        <ele>1107</ele>
        <time>2026-05-09T07:43:38.375Z</time>
      </trkpt>
      <trkpt lat="47.85715" lon="6.91317">
        <ele>1106</ele>
        <time>2026-05-09T07:43:39.376Z</time>
      </trkpt>
      <trkpt lat="47.85716" lon="6.91316">
        <ele>1106</ele>
        <time>2026-05-09T07:43:40.376Z</time>
      </trkpt>
      <trkpt lat="47.85716" lon="6.91314">
        <ele>1106</ele>
        <time>2026-05-09T07:43:41.376Z</time>
      </trkpt>
      <trkpt lat="47.85716" lon="6.91313">
        <ele>1106</ele>
        <time>2026-05-09T07:43:42.375Z</time>
      </trkpt>
      <trkpt lat="47.85717" lon="6.91311">
        <ele>1106</ele>
        <time>2026-05-09T07:43:43.376Z</time>
      </trkpt>
      <trkpt lat="47.85718" lon="6.9131">
        <ele>1107</ele>
        <time>2026-05-09T07:43:44.375Z</time>
      </trkpt>
      <trkpt lat="47.85718" lon="6.91308">
        <ele>1107</ele>
        <time>2026-05-09T07:43:45.376Z</time>
      </trkpt>
      <trkpt lat="47.85719" lon="6.91307">
        <ele>1107</ele>
        <time>2026-05-09T07:43:46.376Z</time>
      </trkpt>
      <trkpt lat="47.8572" lon="6.91305">
        <ele>1108</ele>
        <time>2026-05-09T07:43:47.375Z</time>
      </trkpt>
      <trkpt lat="47.8572" lon="6.91303">
        <ele>1108</ele>
        <time>2026-05-09T07:43:48.376Z</time>
      </trkpt>
      <trkpt lat="47.85721" lon="6.91302">
        <ele>1108</ele>
        <time>2026-05-09T07:43:49.375Z</time>
      </trkpt>
      <trkpt lat="47.85721" lon="6.913">
        <ele>1108</ele>
        <time>2026-05-09T07:43:50.375Z</time>
      </trkpt>
      <trkpt lat="47.85721" lon="6.91298">
        <ele>1108</ele>
        <time>2026-05-09T07:43:51.375Z</time>
      </trkpt>
      <trkpt lat="47.85722" lon="6.91296">
        <ele>1108</ele>
        <time>2026-05-09T07:43:52.376Z</time>
      </trkpt>
      <trkpt lat="47.85722" lon="6.91295">
        <ele>1109</ele>
        <time>2026-05-09T07:43:53.375Z</time>
      </trkpt>
      <trkpt lat="47.85722" lon="6.91293">
        <ele>1109</ele>
        <time>2026-05-09T07:43:54.376Z</time>
      </trkpt>
      <trkpt lat="47.85723" lon="6.91291">
        <ele>1109</ele>
        <time>2026-05-09T07:43:55.375Z</time>
      </trkpt>
      <trkpt lat="47.85723" lon="6.9129">
        <ele>1109</ele>
        <time>2026-05-09T07:43:56.375Z</time>
      </trkpt>
      <trkpt lat="47.85723" lon="6.91288">
        <ele>1110</ele>
        <time>2026-05-09T07:43:57.375Z</time>
      </trkpt>
      <trkpt lat="47.85724" lon="6.91287">
        <ele>1110</ele>
        <time>2026-05-09T07:43:58.376Z</time>
      </trkpt>
      <trkpt lat="47.85724" lon="6.91286">
        <ele>1110</ele>
        <time>2026-05-09T07:43:59.375Z</time>
      </trkpt>
      <trkpt lat="47.85724" lon="6.91285">
        <ele>1110</ele>
        <time>2026-05-09T07:44:00.375Z</time>
      </trkpt>
      <trkpt lat="47.85725" lon="6.91283">
        <ele>1110</ele>
        <time>2026-05-09T07:44:01.375Z</time>
      </trkpt>
      <trkpt lat="47.85725" lon="6.91282">
        <ele>1110</ele>
        <time>2026-05-09T07:44:02.376Z</time>
      </trkpt>
      <trkpt lat="47.85725" lon="6.91281">
        <ele>1110</ele>
        <time>2026-05-09T07:44:03.375Z</time>
      </trkpt>
      <trkpt lat="47.85726" lon="6.91279">
        <ele>1110</ele>
        <time>2026-05-09T07:44:04.376Z</time>
      </trkpt>
      <trkpt lat="47.85727" lon="6.91278">
        <ele>1111</ele>
        <time>2026-05-09T07:44:05.376Z</time>
      </trkpt>
      <trkpt lat="47.85727" lon="6.91276">
        <ele>1111</ele>
        <time>2026-05-09T07:44:06.376Z</time>
      </trkpt>
      <trkpt lat="47.85728" lon="6.91275">
        <ele>1111</ele>
        <time>2026-05-09T07:44:07.376Z</time>
      </trkpt>
      <trkpt lat="47.85728" lon="6.91273">
        <ele>1112</ele>
        <time>2026-05-09T07:44:08.375Z</time>
      </trkpt>
      <trkpt lat="47.85728" lon="6.91272">
        <ele>1112</ele>
        <time>2026-05-09T07:44:09.376Z</time>
      </trkpt>
      <trkpt lat="47.85729" lon="6.9127">
        <ele>1113</ele>
        <time>2026-05-09T07:44:10.375Z</time>
      </trkpt>
      <trkpt lat="47.85729" lon="6.91269">
        <ele>1113</ele>
        <time>2026-05-09T07:44:11.376Z</time>
      </trkpt>
      <trkpt lat="47.8573" lon="6.91268">
        <ele>1113</ele>
        <time>2026-05-09T07:44:12.375Z</time>
      </trkpt>
      <trkpt lat="47.8573" lon="6.91267">
        <ele>1113</ele>
        <time>2026-05-09T07:44:13.376Z</time>
      </trkpt>
      <trkpt lat="47.85731" lon="6.91265">
        <ele>1114</ele>
        <time>2026-05-09T07:44:14.375Z</time>
      </trkpt>
      <trkpt lat="47.85731" lon="6.91263">
        <ele>1114</ele>
        <time>2026-05-09T07:44:15.376Z</time>
      </trkpt>
      <trkpt lat="47.85732" lon="6.91262">
        <ele>1114</ele>
        <time>2026-05-09T07:44:16.375Z</time>
      </trkpt>
      <trkpt lat="47.85732" lon="6.91261">
        <ele>1114</ele>
        <time>2026-05-09T07:44:17.376Z</time>
      </trkpt>
      <trkpt lat="47.85733" lon="6.9126">
        <ele>1114</ele>
        <time>2026-05-09T07:44:18.375Z</time>
      </trkpt>
      <trkpt lat="47.85733" lon="6.91259">
        <ele>1114</ele>
        <time>2026-05-09T07:44:19.376Z</time>
      </trkpt>
      <trkpt lat="47.85734" lon="6.91257">
        <ele>1114</ele>
        <time>2026-05-09T07:44:20.375Z</time>
      </trkpt>
      <trkpt lat="47.85734" lon="6.91255">
        <ele>1113</ele>
        <time>2026-05-09T07:44:21.375Z</time>
      </trkpt>
      <trkpt lat="47.85734" lon="6.91254">
        <ele>1113</ele>
        <time>2026-05-09T07:44:22.376Z</time>
      </trkpt>
      <trkpt lat="47.85735" lon="6.91252">
        <ele>1113</ele>
        <time>2026-05-09T07:44:23.375Z</time>
      </trkpt>
      <trkpt lat="47.85735" lon="6.9125">
        <ele>1113</ele>
        <time>2026-05-09T07:44:24.375Z</time>
      </trkpt>
      <trkpt lat="47.85736" lon="6.91249">
        <ele>1113</ele>
        <time>2026-05-09T07:44:25.375Z</time>
      </trkpt>
      <trkpt lat="47.85736" lon="6.91247">
        <ele>1114</ele>
        <time>2026-05-09T07:44:26.376Z</time>
      </trkpt>
      <trkpt lat="47.85736" lon="6.91246">
        <ele>1114</ele>
        <time>2026-05-09T07:44:27.375Z</time>
      </trkpt>
      <trkpt lat="47.85736" lon="6.91245">
        <ele>1114</ele>
        <time>2026-05-09T07:44:28.376Z</time>
      </trkpt>
      <trkpt lat="47.85737" lon="6.91244">
        <ele>1114</ele>
        <time>2026-05-09T07:44:29.375Z</time>
      </trkpt>
      <trkpt lat="47.85737" lon="6.91242">
        <ele>1115</ele>
        <time>2026-05-09T07:44:30.376Z</time>
      </trkpt>
      <trkpt lat="47.85737" lon="6.9124">
        <ele>1115</ele>
        <time>2026-05-09T07:44:31.375Z</time>
      </trkpt>
      <trkpt lat="47.85737" lon="6.91239">
        <ele>1115</ele>
        <time>2026-05-09T07:44:32.376Z</time>
      </trkpt>
      <trkpt lat="47.85738" lon="6.91238">
        <ele>1116</ele>
        <time>2026-05-09T07:44:33.375Z</time>
      </trkpt>
      <trkpt lat="47.85738" lon="6.91236">
        <ele>1116</ele>
        <time>2026-05-09T07:44:34.376Z</time>
      </trkpt>
      <trkpt lat="47.85738" lon="6.91235">
        <ele>1116</ele>
        <time>2026-05-09T07:44:35.375Z</time>
      </trkpt>
      <trkpt lat="47.85739" lon="6.91233">
        <ele>1116</ele>
        <time>2026-05-09T07:44:36.375Z</time>
      </trkpt>
      <trkpt lat="47.85739" lon="6.91231">
        <ele>1116</ele>
        <time>2026-05-09T07:44:37.375Z</time>
      </trkpt>
      <trkpt lat="47.85739" lon="6.91229">
        <ele>1116</ele>
        <time>2026-05-09T07:44:38.376Z</time>
      </trkpt>
      <trkpt lat="47.8574" lon="6.91227">
        <ele>1116</ele>
        <time>2026-05-09T07:44:39.375Z</time>
      </trkpt>
      <trkpt lat="47.8574" lon="6.91226">
        <ele>1116</ele>
        <time>2026-05-09T07:44:40.376Z</time>
      </trkpt>
      <trkpt lat="47.85741" lon="6.91224">
        <ele>1116</ele>
        <time>2026-05-09T07:44:41.375Z</time>
      </trkpt>
      <trkpt lat="47.85742" lon="6.91222">
        <ele>1116</ele>
        <time>2026-05-09T07:44:42.376Z</time>
      </trkpt>
      <trkpt lat="47.85742" lon="6.9122">
        <ele>1117</ele>
        <time>2026-05-09T07:44:43.376Z</time>
      </trkpt>
      <trkpt lat="47.85743" lon="6.91219">
        <ele>1117</ele>
        <time>2026-05-09T07:44:44.376Z</time>
      </trkpt>
      <trkpt lat="47.85744" lon="6.91217">
        <ele>1117</ele>
        <time>2026-05-09T07:44:45.376Z</time>
      </trkpt>
      <trkpt lat="47.85744" lon="6.91215">
        <ele>1117</ele>
        <time>2026-05-09T07:44:46.375Z</time>
      </trkpt>
      <trkpt lat="47.85745" lon="6.91214">
        <ele>1117</ele>
        <time>2026-05-09T07:44:47.376Z</time>
      </trkpt>
      <trkpt lat="47.85746" lon="6.91212">
        <ele>1117</ele>
        <time>2026-05-09T07:44:48.375Z</time>
      </trkpt>
      <trkpt lat="47.85746" lon="6.91211">
        <ele>1117</ele>
        <time>2026-05-09T07:44:49.376Z</time>
      </trkpt>
      <trkpt lat="47.85747" lon="6.91209">
        <ele>1117</ele>
        <time>2026-05-09T07:44:50.375Z</time>
      </trkpt>
      <trkpt lat="47.85748" lon="6.91208">
        <ele>1117</ele>
        <time>2026-05-09T07:44:51.376Z</time>
      </trkpt>
      <trkpt lat="47.85749" lon="6.91206">
        <ele>1118</ele>
        <time>2026-05-09T07:44:52.375Z</time>
      </trkpt>
      <trkpt lat="47.8575" lon="6.91204">
        <ele>1119</ele>
        <time>2026-05-09T07:44:53.376Z</time>
      </trkpt>
      <trkpt lat="47.8575" lon="6.91202">
        <ele>1119</ele>
        <time>2026-05-09T07:44:54.375Z</time>
      </trkpt>
      <trkpt lat="47.85751" lon="6.91201">
        <ele>1120</ele>
        <time>2026-05-09T07:44:55.376Z</time>
      </trkpt>
      <trkpt lat="47.85752" lon="6.91199">
        <ele>1120</ele>
        <time>2026-05-09T07:44:56.375Z</time>
      </trkpt>
      <trkpt lat="47.85753" lon="6.91199">
        <ele>1120</ele>
        <time>2026-05-09T07:44:57.375Z</time>
      </trkpt>
      <trkpt lat="47.85753" lon="6.91197">
        <ele>1120</ele>
        <time>2026-05-09T07:44:58.375Z</time>
      </trkpt>
      <trkpt lat="47.85754" lon="6.91196">
        <ele>1120</ele>
        <time>2026-05-09T07:44:59.376Z</time>
      </trkpt>
      <trkpt lat="47.85754" lon="6.91195">
        <ele>1120</ele>
        <time>2026-05-09T07:45:00.375Z</time>
      </trkpt>
      <trkpt lat="47.85755" lon="6.91193">
        <ele>1120</ele>
        <time>2026-05-09T07:45:01.376Z</time>
      </trkpt>
      <trkpt lat="47.85756" lon="6.91191">
        <ele>1120</ele>
        <time>2026-05-09T07:45:02.376Z</time>
      </trkpt>
      <trkpt lat="47.85757" lon="6.91189">
        <ele>1120</ele>
        <time>2026-05-09T07:45:03.375Z</time>
      </trkpt>
      <trkpt lat="47.85758" lon="6.91188">
        <ele>1120</ele>
        <time>2026-05-09T07:45:04.376Z</time>
      </trkpt>
      <trkpt lat="47.85758" lon="6.91186">
        <ele>1120</ele>
        <time>2026-05-09T07:45:05.375Z</time>
      </trkpt>
      <trkpt lat="47.85759" lon="6.91185">
        <ele>1119</ele>
        <time>2026-05-09T07:45:06.376Z</time>
      </trkpt>
      <trkpt lat="47.8576" lon="6.91183">
        <ele>1119</ele>
        <time>2026-05-09T07:45:07.375Z</time>
      </trkpt>
      <trkpt lat="47.8576" lon="6.91181">
        <ele>1119</ele>
        <time>2026-05-09T07:45:08.376Z</time>
      </trkpt>
      <trkpt lat="47.85761" lon="6.91179">
        <ele>1118</ele>
        <time>2026-05-09T07:45:09.375Z</time>
      </trkpt>
      <trkpt lat="47.85762" lon="6.91177">
        <ele>1118</ele>
        <time>2026-05-09T07:45:10.376Z</time>
      </trkpt>
      <trkpt lat="47.85763" lon="6.91176">
        <ele>1117</ele>
        <time>2026-05-09T07:45:11.375Z</time>
      </trkpt>
      <trkpt lat="47.85763" lon="6.91174">
        <ele>1117</ele>
        <time>2026-05-09T07:45:12.376Z</time>
      </trkpt>
      <trkpt lat="47.85764" lon="6.91173">
        <ele>1117</ele>
        <time>2026-05-09T07:45:13.375Z</time>
      </trkpt>
      <trkpt lat="47.85765" lon="6.91171">
        <ele>1117</ele>
        <time>2026-05-09T07:45:14.376Z</time>
      </trkpt>
      <trkpt lat="47.85766" lon="6.91169">
        <ele>1118</ele>
        <time>2026-05-09T07:45:15.375Z</time>
      </trkpt>
      <trkpt lat="47.85768" lon="6.91167">
        <ele>1118</ele>
        <time>2026-05-09T07:45:16.375Z</time>
      </trkpt>
      <trkpt lat="47.85768" lon="6.91165">
        <ele>1119</ele>
        <time>2026-05-09T07:45:17.376Z</time>
      </trkpt>
      <trkpt lat="47.85769" lon="6.91163">
        <ele>1119</ele>
        <time>2026-05-09T07:45:18.376Z</time>
      </trkpt>
      <trkpt lat="47.8577" lon="6.91161">
        <ele>1120</ele>
        <time>2026-05-09T07:45:19.376Z</time>
      </trkpt>
      <trkpt lat="47.85771" lon="6.9116">
        <ele>1121</ele>
        <time>2026-05-09T07:45:20.375Z</time>
      </trkpt>
      <trkpt lat="47.85772" lon="6.91158">
        <ele>1121</ele>
        <time>2026-05-09T07:45:21.376Z</time>
      </trkpt>
      <trkpt lat="47.85773" lon="6.91155">
        <ele>1122</ele>
        <time>2026-05-09T07:45:22.375Z</time>
      </trkpt>
      <trkpt lat="47.85773" lon="6.91153">
        <ele>1123</ele>
        <time>2026-05-09T07:45:23.376Z</time>
      </trkpt>
      <trkpt lat="47.85775" lon="6.91151">
        <ele>1123</ele>
        <time>2026-05-09T07:45:24.375Z</time>
      </trkpt>
      <trkpt lat="47.85776" lon="6.9115">
        <ele>1124</ele>
        <time>2026-05-09T07:45:25.376Z</time>
      </trkpt>
      <trkpt lat="47.85777" lon="6.91148">
        <ele>1125</ele>
        <time>2026-05-09T07:45:26.375Z</time>
      </trkpt>
      <trkpt lat="47.85777" lon="6.91146">
        <ele>1125</ele>
        <time>2026-05-09T07:45:27.376Z</time>
      </trkpt>
      <trkpt lat="47.85778" lon="6.91145">
        <ele>1125</ele>
        <time>2026-05-09T07:45:28.375Z</time>
      </trkpt>
      <trkpt lat="47.85779" lon="6.91144">
        <ele>1125</ele>
        <time>2026-05-09T07:45:29.376Z</time>
      </trkpt>
      <trkpt lat="47.8578" lon="6.91142">
        <ele>1125</ele>
        <time>2026-05-09T07:45:30.375Z</time>
      </trkpt>
      <trkpt lat="47.85781" lon="6.91141">
        <ele>1125</ele>
        <time>2026-05-09T07:45:31.375Z</time>
      </trkpt>
      <trkpt lat="47.85782" lon="6.9114">
        <ele>1125</ele>
        <time>2026-05-09T07:45:32.375Z</time>
      </trkpt>
      <trkpt lat="47.85782" lon="6.91139">
        <ele>1124</ele>
        <time>2026-05-09T07:45:33.376Z</time>
      </trkpt>
      <trkpt lat="47.85783" lon="6.91138">
        <ele>1124</ele>
        <time>2026-05-09T07:45:34.376Z</time>
      </trkpt>
      <trkpt lat="47.85784" lon="6.91137">
        <ele>1124</ele>
        <time>2026-05-09T07:45:35.376Z</time>
      </trkpt>
      <trkpt lat="47.85785" lon="6.91136">
        <ele>1124</ele>
        <time>2026-05-09T07:45:36.376Z</time>
      </trkpt>
      <trkpt lat="47.85786" lon="6.91135">
        <ele>1123</ele>
        <time>2026-05-09T07:45:37.375Z</time>
      </trkpt>
      <trkpt lat="47.85786" lon="6.91135">
        <ele>1123</ele>
        <time>2026-05-09T07:45:38.376Z</time>
      </trkpt>
      <trkpt lat="47.85787" lon="6.91133">
        <ele>1123</ele>
        <time>2026-05-09T07:45:39.375Z</time>
      </trkpt>
      <trkpt lat="47.85788" lon="6.91132">
        <ele>1123</ele>
        <time>2026-05-09T07:45:40.376Z</time>
      </trkpt>
      <trkpt lat="47.85789" lon="6.91131">
        <ele>1123</ele>
        <time>2026-05-09T07:45:41.375Z</time>
      </trkpt>
      <trkpt lat="47.8579" lon="6.9113">
        <ele>1123</ele>
        <time>2026-05-09T07:45:42.376Z</time>
      </trkpt>
      <trkpt lat="47.85791" lon="6.91129">
        <ele>1123</ele>
        <time>2026-05-09T07:45:43.375Z</time>
      </trkpt>
      <trkpt lat="47.85791" lon="6.91127">
        <ele>1123</ele>
        <time>2026-05-09T07:45:44.375Z</time>
      </trkpt>
      <trkpt lat="47.85792" lon="6.91125">
        <ele>1123</ele>
        <time>2026-05-09T07:45:45.375Z</time>
      </trkpt>
      <trkpt lat="47.85793" lon="6.91124">
        <ele>1124</ele>
        <time>2026-05-09T07:45:46.375Z</time>
      </trkpt>
      <trkpt lat="47.85793" lon="6.91122">
        <ele>1124</ele>
        <time>2026-05-09T07:45:47.375Z</time>
      </trkpt>
      <trkpt lat="47.85794" lon="6.91121">
        <ele>1124</ele>
        <time>2026-05-09T07:45:48.375Z</time>
      </trkpt>
      <trkpt lat="47.85795" lon="6.9112">
        <ele>1124</ele>
        <time>2026-05-09T07:45:49.376Z</time>
      </trkpt>
      <trkpt lat="47.85796" lon="6.91119">
        <ele>1125</ele>
        <time>2026-05-09T07:45:50.376Z</time>
      </trkpt>
      <trkpt lat="47.85796" lon="6.91118">
        <ele>1125</ele>
        <time>2026-05-09T07:45:51.375Z</time>
      </trkpt>
      <trkpt lat="47.85797" lon="6.91116">
        <ele>1125</ele>
        <time>2026-05-09T07:45:52.376Z</time>
      </trkpt>
      <trkpt lat="47.85797" lon="6.91115">
        <ele>1125</ele>
        <time>2026-05-09T07:45:53.375Z</time>
      </trkpt>
      <trkpt lat="47.85798" lon="6.91113">
        <ele>1125</ele>
        <time>2026-05-09T07:45:54.375Z</time>
      </trkpt>
      <trkpt lat="47.85799" lon="6.91112">
        <ele>1125</ele>
        <time>2026-05-09T07:45:55.376Z</time>
      </trkpt>
      <trkpt lat="47.858" lon="6.9111">
        <ele>1126</ele>
        <time>2026-05-09T07:45:56.376Z</time>
      </trkpt>
      <trkpt lat="47.85801" lon="6.91109">
        <ele>1126</ele>
        <time>2026-05-09T07:45:57.375Z</time>
      </trkpt>
      <trkpt lat="47.85801" lon="6.91108">
        <ele>1126</ele>
        <time>2026-05-09T07:45:58.375Z</time>
      </trkpt>
      <trkpt lat="47.85801" lon="6.91107">
        <ele>1126</ele>
        <time>2026-05-09T07:45:59.376Z</time>
      </trkpt>
      <trkpt lat="47.85802" lon="6.91105">
        <ele>1126</ele>
        <time>2026-05-09T07:46:00.375Z</time>
      </trkpt>
      <trkpt lat="47.85803" lon="6.91104">
        <ele>1126</ele>
        <time>2026-05-09T07:46:01.375Z</time>
      </trkpt>
      <trkpt lat="47.85803" lon="6.91101">
        <ele>1126</ele>
        <time>2026-05-09T07:46:02.376Z</time>
      </trkpt>
      <trkpt lat="47.85803" lon="6.911">
        <ele>1126</ele>
        <time>2026-05-09T07:46:03.375Z</time>
      </trkpt>
      <trkpt lat="47.85803" lon="6.91098">
        <ele>1126</ele>
        <time>2026-05-09T07:46:04.375Z</time>
      </trkpt>
      <trkpt lat="47.85804" lon="6.91097">
        <ele>1126</ele>
        <time>2026-05-09T07:46:05.376Z</time>
      </trkpt>
      <trkpt lat="47.85805" lon="6.91095">
        <ele>1126</ele>
        <time>2026-05-09T07:46:06.375Z</time>
      </trkpt>
      <trkpt lat="47.85806" lon="6.91093">
        <ele>1126</ele>
        <time>2026-05-09T07:46:07.376Z</time>
      </trkpt>
      <trkpt lat="47.85808" lon="6.91091">
        <ele>1126</ele>
        <time>2026-05-09T07:46:08.375Z</time>
      </trkpt>
      <trkpt lat="47.85809" lon="6.91089">
        <ele>1126</ele>
        <time>2026-05-09T07:46:09.375Z</time>
      </trkpt>
      <trkpt lat="47.8581" lon="6.91087">
        <ele>1126</ele>
        <time>2026-05-09T07:46:10.376Z</time>
      </trkpt>
      <trkpt lat="47.85811" lon="6.91086">
        <ele>1126</ele>
        <time>2026-05-09T07:46:11.375Z</time>
      </trkpt>
      <trkpt lat="47.85812" lon="6.91084">
        <ele>1126</ele>
        <time>2026-05-09T07:46:12.375Z</time>
      </trkpt>
      <trkpt lat="47.85813" lon="6.91083">
        <ele>1126</ele>
        <time>2026-05-09T07:46:13.375Z</time>
      </trkpt>
      <trkpt lat="47.85814" lon="6.91081">
        <ele>1126</ele>
        <time>2026-05-09T07:46:14.376Z</time>
      </trkpt>
      <trkpt lat="47.85815" lon="6.91079">
        <ele>1125</ele>
        <time>2026-05-09T07:46:15.375Z</time>
      </trkpt>
      <trkpt lat="47.85817" lon="6.91076">
        <ele>1125</ele>
        <time>2026-05-09T07:46:16.376Z</time>
      </trkpt>
      <trkpt lat="47.85818" lon="6.91073">
        <ele>1125</ele>
        <time>2026-05-09T07:46:17.376Z</time>
      </trkpt>
      <trkpt lat="47.85819" lon="6.9107">
        <ele>1124</ele>
        <time>2026-05-09T07:46:18.375Z</time>
      </trkpt>
      <trkpt lat="47.85821" lon="6.91065">
        <ele>1124</ele>
        <time>2026-05-09T07:46:19.375Z</time>
      </trkpt>
      <trkpt lat="47.85822" lon="6.91062">
        <ele>1123</ele>
        <time>2026-05-09T07:46:20.376Z</time>
      </trkpt>
      <trkpt lat="47.85822" lon="6.91059">
        <ele>1123</ele>
        <time>2026-05-09T07:46:21.376Z</time>
      </trkpt>
      <trkpt lat="47.85822" lon="6.91057">
        <ele>1123</ele>
        <time>2026-05-09T07:46:22.375Z</time>
      </trkpt>
      <trkpt lat="47.85823" lon="6.91054">
        <ele>1122</ele>
        <time>2026-05-09T07:46:23.375Z</time>
      </trkpt>
      <trkpt lat="47.85825" lon="6.91053">
        <ele>1122</ele>
        <time>2026-05-09T07:46:24.376Z</time>
      </trkpt>
      <trkpt lat="47.85827" lon="6.91052">
        <ele>1122</ele>
        <time>2026-05-09T07:46:25.376Z</time>
      </trkpt>
      <trkpt lat="47.85829" lon="6.9105">
        <ele>1121</ele>
        <time>2026-05-09T07:46:26.375Z</time>
      </trkpt>
      <trkpt lat="47.85829" lon="6.91049">
        <ele>1121</ele>
        <time>2026-05-09T07:46:27.375Z</time>
      </trkpt>
      <trkpt lat="47.85829" lon="6.91047">
        <ele>1121</ele>
        <time>2026-05-09T07:46:28.376Z</time>
      </trkpt>
      <trkpt lat="47.8583" lon="6.91045">
        <ele>1121</ele>
        <time>2026-05-09T07:46:29.376Z</time>
      </trkpt>
      <trkpt lat="47.85831" lon="6.91041">
        <ele>1121</ele>
        <time>2026-05-09T07:46:30.375Z</time>
      </trkpt>
      <trkpt lat="47.85832" lon="6.91038">
        <ele>1121</ele>
        <time>2026-05-09T07:46:31.375Z</time>
      </trkpt>
      <trkpt lat="47.85833" lon="6.91036">
        <ele>1121</ele>
        <time>2026-05-09T07:46:32.375Z</time>
      </trkpt>
      <trkpt lat="47.85833" lon="6.91034">
        <ele>1121</ele>
        <time>2026-05-09T07:46:33.376Z</time>
      </trkpt>
      <trkpt lat="47.85834" lon="6.91032">
        <ele>1121</ele>
        <time>2026-05-09T07:46:34.376Z</time>
      </trkpt>
      <trkpt lat="47.85835" lon="6.9103">
        <ele>1122</ele>
        <time>2026-05-09T07:46:35.376Z</time>
      </trkpt>
      <trkpt lat="47.85836" lon="6.91028">
        <ele>1122</ele>
        <time>2026-05-09T07:46:36.376Z</time>
      </trkpt>
      <trkpt lat="47.85836" lon="6.91026">
        <ele>1123</ele>
        <time>2026-05-09T07:46:37.375Z</time>
      </trkpt>
      <trkpt lat="47.85837" lon="6.91024">
        <ele>1123</ele>
        <time>2026-05-09T07:46:38.376Z</time>
      </trkpt>
      <trkpt lat="47.85838" lon="6.9102">
        <ele>1123</ele>
        <time>2026-05-09T07:46:39.376Z</time>
      </trkpt>
      <trkpt lat="47.85839" lon="6.91017">
        <ele>1124</ele>
        <time>2026-05-09T07:46:40.375Z</time>
      </trkpt>
      <trkpt lat="47.85841" lon="6.91015">
        <ele>1124</ele>
        <time>2026-05-09T07:46:41.376Z</time>
      </trkpt>
      <trkpt lat="47.85842" lon="6.91015">
        <ele>1124</ele>
        <time>2026-05-09T07:46:42.375Z</time>
      </trkpt>
      <trkpt lat="47.85842" lon="6.91013">
        <ele>1124</ele>
        <time>2026-05-09T07:46:43.375Z</time>
      </trkpt>
      <trkpt lat="47.85843" lon="6.91013">
        <ele>1124</ele>
        <time>2026-05-09T07:46:44.376Z</time>
      </trkpt>
      <trkpt lat="47.85844" lon="6.91012">
        <ele>1125</ele>
        <time>2026-05-09T07:46:45.375Z</time>
      </trkpt>
      <trkpt lat="47.85844" lon="6.91012">
        <ele>1125</ele>
        <time>2026-05-09T07:46:46.376Z</time>
      </trkpt>
      <trkpt lat="47.85846" lon="6.9101">
        <ele>1125</ele>
        <time>2026-05-09T07:46:47.376Z</time>
      </trkpt>
      <trkpt lat="47.85847" lon="6.91008">
        <ele>1126</ele>
        <time>2026-05-09T07:46:48.375Z</time>
      </trkpt>
      <trkpt lat="47.85848" lon="6.91007">
        <ele>1125</ele>
        <time>2026-05-09T07:46:49.375Z</time>
      </trkpt>
      <trkpt lat="47.85849" lon="6.91006">
        <ele>1125</ele>
        <time>2026-05-09T07:46:50.375Z</time>
      </trkpt>
      <trkpt lat="47.8585" lon="6.91005">
        <ele>1125</ele>
        <time>2026-05-09T07:46:51.376Z</time>
      </trkpt>
      <trkpt lat="47.85851" lon="6.91005">
        <ele>1125</ele>
        <time>2026-05-09T07:46:52.375Z</time>
      </trkpt>
      <trkpt lat="47.85853" lon="6.91005">
        <ele>1125</ele>
        <time>2026-05-09T07:46:53.376Z</time>
      </trkpt>
      <trkpt lat="47.85854" lon="6.91004">
        <ele>1125</ele>
        <time>2026-05-09T07:46:54.375Z</time>
      </trkpt>
      <trkpt lat="47.85855" lon="6.91003">
        <ele>1124</ele>
        <time>2026-05-09T07:46:55.375Z</time>
      </trkpt>
      <trkpt lat="47.85856" lon="6.91002">
        <ele>1124</ele>
        <time>2026-05-09T07:46:56.376Z</time>
      </trkpt>
      <trkpt lat="47.85857" lon="6.91001">
        <ele>1124</ele>
        <time>2026-05-09T07:46:57.376Z</time>
      </trkpt>
      <trkpt lat="47.85858" lon="6.90999">
        <ele>1124</ele>
        <time>2026-05-09T07:46:58.375Z</time>
      </trkpt>
      <trkpt lat="47.85859" lon="6.90998">
        <ele>1125</ele>
        <time>2026-05-09T07:46:59.375Z</time>
      </trkpt>
      <trkpt lat="47.8586" lon="6.90997">
        <ele>1125</ele>
        <time>2026-05-09T07:47:00.375Z</time>
      </trkpt>
      <trkpt lat="47.85861" lon="6.90995">
        <ele>1126</ele>
        <time>2026-05-09T07:47:01.376Z</time>
      </trkpt>
      <trkpt lat="47.85862" lon="6.90993">
        <ele>1126</ele>
        <time>2026-05-09T07:47:02.375Z</time>
      </trkpt>
      <trkpt lat="47.85863" lon="6.90993">
        <ele>1126</ele>
        <time>2026-05-09T07:47:03.376Z</time>
      </trkpt>
      <trkpt lat="47.85865" lon="6.90994">
        <ele>1127</ele>
        <time>2026-05-09T07:47:04.375Z</time>
      </trkpt>
      <trkpt lat="47.85866" lon="6.90995">
        <ele>1127</ele>
        <time>2026-05-09T07:47:05.376Z</time>
      </trkpt>
      <trkpt lat="47.85867" lon="6.90997">
        <ele>1126</ele>
        <time>2026-05-09T07:47:06.375Z</time>
      </trkpt>
      <trkpt lat="47.85868" lon="6.90998">
        <ele>1126</ele>
        <time>2026-05-09T07:47:07.376Z</time>
      </trkpt>
      <trkpt lat="47.8587" lon="6.90998">
        <ele>1125</ele>
        <time>2026-05-09T07:47:08.375Z</time>
      </trkpt>
      <trkpt lat="47.85871" lon="6.90998">
        <ele>1125</ele>
        <time>2026-05-09T07:47:09.376Z</time>
      </trkpt>
      <trkpt lat="47.85872" lon="6.90998">
        <ele>1125</ele>
        <time>2026-05-09T07:47:10.375Z</time>
      </trkpt>
      <trkpt lat="47.85873" lon="6.90997">
        <ele>1125</ele>
        <time>2026-05-09T07:47:11.376Z</time>
      </trkpt>
      <trkpt lat="47.85874" lon="6.90996">
        <ele>1125</ele>
        <time>2026-05-09T07:47:12.375Z</time>
      </trkpt>
      <trkpt lat="47.85875" lon="6.90996">
        <ele>1126</ele>
        <time>2026-05-09T07:47:13.375Z</time>
      </trkpt>
      <trkpt lat="47.85876" lon="6.90995">
        <ele>1126</ele>
        <time>2026-05-09T07:47:14.376Z</time>
      </trkpt>
      <trkpt lat="47.85877" lon="6.90995">
        <ele>1126</ele>
        <time>2026-05-09T07:47:15.375Z</time>
      </trkpt>
      <trkpt lat="47.85878" lon="6.90993">
        <ele>1125</ele>
        <time>2026-05-09T07:47:16.376Z</time>
      </trkpt>
      <trkpt lat="47.8588" lon="6.90992">
        <ele>1125</ele>
        <time>2026-05-09T07:47:17.375Z</time>
      </trkpt>
      <trkpt lat="47.85881" lon="6.90991">
        <ele>1124</ele>
        <time>2026-05-09T07:47:18.375Z</time>
      </trkpt>
      <trkpt lat="47.85882" lon="6.9099">
        <ele>1124</ele>
        <time>2026-05-09T07:47:19.376Z</time>
      </trkpt>
      <trkpt lat="47.85883" lon="6.90989">
        <ele>1123</ele>
        <time>2026-05-09T07:47:20.375Z</time>
      </trkpt>
      <trkpt lat="47.85884" lon="6.90988">
        <ele>1123</ele>
        <time>2026-05-09T07:47:21.376Z</time>
      </trkpt>
      <trkpt lat="47.85884" lon="6.90987">
        <ele>1122</ele>
        <time>2026-05-09T07:47:22.375Z</time>
      </trkpt>
      <trkpt lat="47.85885" lon="6.90986">
        <ele>1122</ele>
        <time>2026-05-09T07:47:23.376Z</time>
      </trkpt>
      <trkpt lat="47.85886" lon="6.90985">
        <ele>1121</ele>
        <time>2026-05-09T07:47:24.375Z</time>
      </trkpt>
      <trkpt lat="47.85887" lon="6.90984">
        <ele>1121</ele>
        <time>2026-05-09T07:47:25.376Z</time>
      </trkpt>
      <trkpt lat="47.85888" lon="6.90983">
        <ele>1121</ele>
        <time>2026-05-09T07:47:26.375Z</time>
      </trkpt>
      <trkpt lat="47.8589" lon="6.90982">
        <ele>1121</ele>
        <time>2026-05-09T07:47:27.376Z</time>
      </trkpt>
      <trkpt lat="47.85891" lon="6.90982">
        <ele>1120</ele>
        <time>2026-05-09T07:47:28.375Z</time>
      </trkpt>
      <trkpt lat="47.85892" lon="6.90981">
        <ele>1120</ele>
        <time>2026-05-09T07:47:29.375Z</time>
      </trkpt>
      <trkpt lat="47.85893" lon="6.9098">
        <ele>1120</ele>
        <time>2026-05-09T07:47:30.375Z</time>
      </trkpt>
      <trkpt lat="47.85894" lon="6.90978">
        <ele>1119</ele>
        <time>2026-05-09T07:47:31.375Z</time>
      </trkpt>
      <trkpt lat="47.85895" lon="6.90977">
        <ele>1119</ele>
        <time>2026-05-09T07:47:32.375Z</time>
      </trkpt>
      <trkpt lat="47.85896" lon="6.90976">
        <ele>1119</ele>
        <time>2026-05-09T07:47:33.375Z</time>
      </trkpt>
      <trkpt lat="47.85897" lon="6.90975">
        <ele>1119</ele>
        <time>2026-05-09T07:47:34.376Z</time>
      </trkpt>
      <trkpt lat="47.85898" lon="6.90974">
        <ele>1119</ele>
        <time>2026-05-09T07:47:35.375Z</time>
      </trkpt>
      <trkpt lat="47.85899" lon="6.90973">
        <ele>1119</ele>
        <time>2026-05-09T07:47:36.376Z</time>
      </trkpt>
      <trkpt lat="47.859" lon="6.90972">
        <ele>1119</ele>
        <time>2026-05-09T07:47:37.376Z</time>
      </trkpt>
      <trkpt lat="47.85901" lon="6.90971">
        <ele>1119</ele>
        <time>2026-05-09T07:47:38.376Z</time>
      </trkpt>
      <trkpt lat="47.85902" lon="6.9097">
        <ele>1119</ele>
        <time>2026-05-09T07:47:39.376Z</time>
      </trkpt>
      <trkpt lat="47.85903" lon="6.90969">
        <ele>1119</ele>
        <time>2026-05-09T07:47:40.375Z</time>
      </trkpt>
      <trkpt lat="47.85905" lon="6.90968">
        <ele>1119</ele>
        <time>2026-05-09T07:47:41.376Z</time>
      </trkpt>
      <trkpt lat="47.85905" lon="6.90967">
        <ele>1119</ele>
        <time>2026-05-09T07:47:42.375Z</time>
      </trkpt>
      <trkpt lat="47.85907" lon="6.90965">
        <ele>1119</ele>
        <time>2026-05-09T07:47:43.376Z</time>
      </trkpt>
      <trkpt lat="47.85908" lon="6.90964">
        <ele>1119</ele>
        <time>2026-05-09T07:47:44.375Z</time>
      </trkpt>
      <trkpt lat="47.85909" lon="6.90963">
        <ele>1119</ele>
        <time>2026-05-09T07:47:45.375Z</time>
      </trkpt>
      <trkpt lat="47.8591" lon="6.90962">
        <ele>1118</ele>
        <time>2026-05-09T07:47:46.376Z</time>
      </trkpt>
      <trkpt lat="47.85911" lon="6.9096">
        <ele>1118</ele>
        <time>2026-05-09T07:47:47.375Z</time>
      </trkpt>
      <trkpt lat="47.85912" lon="6.90958">
        <ele>1118</ele>
        <time>2026-05-09T07:47:48.376Z</time>
      </trkpt>
      <trkpt lat="47.85913" lon="6.90957">
        <ele>1117</ele>
        <time>2026-05-09T07:47:49.375Z</time>
      </trkpt>
      <trkpt lat="47.85915" lon="6.90956">
        <ele>1117</ele>
        <time>2026-05-09T07:47:50.376Z</time>
      </trkpt>
      <trkpt lat="47.85916" lon="6.90955">
        <ele>1116</ele>
        <time>2026-05-09T07:47:51.375Z</time>
      </trkpt>
      <trkpt lat="47.85917" lon="6.90954">
        <ele>1117</ele>
        <time>2026-05-09T07:47:52.376Z</time>
      </trkpt>
      <trkpt lat="47.85918" lon="6.90953">
        <ele>1117</ele>
        <time>2026-05-09T07:47:53.375Z</time>
      </trkpt>
      <trkpt lat="47.85919" lon="6.90951">
        <ele>1117</ele>
        <time>2026-05-09T07:47:54.376Z</time>
      </trkpt>
      <trkpt lat="47.8592" lon="6.9095">
        <ele>1117</ele>
        <time>2026-05-09T07:47:55.375Z</time>
      </trkpt>
      <trkpt lat="47.85921" lon="6.90949">
        <ele>1118</ele>
        <time>2026-05-09T07:47:56.376Z</time>
      </trkpt>
      <trkpt lat="47.85923" lon="6.90948">
        <ele>1118</ele>
        <time>2026-05-09T07:47:57.375Z</time>
      </trkpt>
      <trkpt lat="47.85924" lon="6.90947">
        <ele>1117</ele>
        <time>2026-05-09T07:47:58.375Z</time>
      </trkpt>
      <trkpt lat="47.85925" lon="6.90946">
        <ele>1117</ele>
        <time>2026-05-09T07:47:59.375Z</time>
      </trkpt>
      <trkpt lat="47.85926" lon="6.90945">
        <ele>1117</ele>
        <time>2026-05-09T07:48:00.375Z</time>
      </trkpt>
      <trkpt lat="47.85927" lon="6.90944">
        <ele>1116</ele>
        <time>2026-05-09T07:48:01.376Z</time>
      </trkpt>
      <trkpt lat="47.85928" lon="6.90944">
        <ele>1116</ele>
        <time>2026-05-09T07:48:02.375Z</time>
      </trkpt>
      <trkpt lat="47.85929" lon="6.90943">
        <ele>1116</ele>
        <time>2026-05-09T07:48:03.376Z</time>
      </trkpt>
      <trkpt lat="47.85931" lon="6.90942">
        <ele>1115</ele>
        <time>2026-05-09T07:48:04.376Z</time>
      </trkpt>
      <trkpt lat="47.85932" lon="6.90941">
        <ele>1115</ele>
        <time>2026-05-09T07:48:05.375Z</time>
      </trkpt>
      <trkpt lat="47.85933" lon="6.9094">
        <ele>1115</ele>
        <time>2026-05-09T07:48:06.376Z</time>
      </trkpt>
      <trkpt lat="47.85934" lon="6.90941">
        <ele>1115</ele>
        <time>2026-05-09T07:48:07.375Z</time>
      </trkpt>
      <trkpt lat="47.85936" lon="6.90941">
        <ele>1115</ele>
        <time>2026-05-09T07:48:08.376Z</time>
      </trkpt>
      <trkpt lat="47.85937" lon="6.90942">
        <ele>1115</ele>
        <time>2026-05-09T07:48:09.376Z</time>
      </trkpt>
      <trkpt lat="47.85938" lon="6.90942">
        <ele>1114</ele>
        <time>2026-05-09T07:48:10.375Z</time>
      </trkpt>
      <trkpt lat="47.85938" lon="6.90942">
        <ele>1114</ele>
        <time>2026-05-09T07:48:11.376Z</time>
      </trkpt>
      <trkpt lat="47.85939" lon="6.90943">
        <ele>1114</ele>
        <time>2026-05-09T07:48:12.375Z</time>
      </trkpt>
      <trkpt lat="47.8594" lon="6.90943">
        <ele>1114</ele>
        <time>2026-05-09T07:48:13.375Z</time>
      </trkpt>
      <trkpt lat="47.8594" lon="6.90944">
        <ele>1114</ele>
        <time>2026-05-09T07:48:14.376Z</time>
      </trkpt>
      <trkpt lat="47.85941" lon="6.90944">
        <ele>1113</ele>
        <time>2026-05-09T07:48:15.375Z</time>
      </trkpt>
      <trkpt lat="47.85941" lon="6.90943">
        <ele>1113</ele>
        <time>2026-05-09T07:48:16.375Z</time>
      </trkpt>
      <trkpt lat="47.85941" lon="6.90943">
        <ele>1113</ele>
        <time>2026-05-09T07:48:17.375Z</time>
      </trkpt>
      <trkpt lat="47.85941" lon="6.90942">
        <ele>1113</ele>
        <time>2026-05-09T07:48:18.376Z</time>
      </trkpt>
      <trkpt lat="47.85941" lon="6.90941">
        <ele>1112</ele>
        <time>2026-05-09T07:48:19.376Z</time>
      </trkpt>
      <trkpt lat="47.85941" lon="6.90942">
        <ele>1112</ele>
        <time>2026-05-09T07:48:20.376Z</time>
      </trkpt>
      <trkpt lat="47.85941" lon="6.90942">
        <ele>1111</ele>
        <time>2026-05-09T07:48:21.375Z</time>
      </trkpt>
      <trkpt lat="47.85942" lon="6.90943">
        <ele>1111</ele>
        <time>2026-05-09T07:48:22.375Z</time>
      </trkpt>
      <trkpt lat="47.85942" lon="6.90945">
        <ele>1111</ele>
        <time>2026-05-09T07:48:23.375Z</time>
      </trkpt>
      <trkpt lat="47.85943" lon="6.90946">
        <ele>1110</ele>
        <time>2026-05-09T07:48:24.375Z</time>
      </trkpt>
      <trkpt lat="47.85944" lon="6.90947">
        <ele>1110</ele>
        <time>2026-05-09T07:48:25.376Z</time>
      </trkpt>
      <trkpt lat="47.85946" lon="6.90948">
        <ele>1110</ele>
        <time>2026-05-09T07:48:26.375Z</time>
      </trkpt>
      <trkpt lat="47.85947" lon="6.90949">
        <ele>1110</ele>
        <time>2026-05-09T07:48:27.376Z</time>
      </trkpt>
      <trkpt lat="47.85947" lon="6.9095">
        <ele>1111</ele>
        <time>2026-05-09T07:48:28.376Z</time>
      </trkpt>
      <trkpt lat="47.85949" lon="6.90951">
        <ele>1111</ele>
        <time>2026-05-09T07:48:29.376Z</time>
      </trkpt>
      <trkpt lat="47.8595" lon="6.90952">
        <ele>1112</ele>
        <time>2026-05-09T07:48:30.376Z</time>
      </trkpt>
      <trkpt lat="47.85951" lon="6.90953">
        <ele>1112</ele>
        <time>2026-05-09T07:48:31.375Z</time>
      </trkpt>
      <trkpt lat="47.85953" lon="6.90955">
        <ele>1113</ele>
        <time>2026-05-09T07:48:32.376Z</time>
      </trkpt>
      <trkpt lat="47.85955" lon="6.90957">
        <ele>1113</ele>
        <time>2026-05-09T07:48:33.375Z</time>
      </trkpt>
      <trkpt lat="47.85955" lon="6.90957">
        <ele>1113</ele>
        <time>2026-05-09T07:48:34.376Z</time>
      </trkpt>
      <trkpt lat="47.85956" lon="6.90957">
        <ele>1113</ele>
        <time>2026-05-09T07:48:35.375Z</time>
      </trkpt>
      <trkpt lat="47.85956" lon="6.90958">
        <ele>1113</ele>
        <time>2026-05-09T07:48:36.376Z</time>
      </trkpt>
      <trkpt lat="47.85958" lon="6.90959">
        <ele>1113</ele>
        <time>2026-05-09T07:48:37.376Z</time>
      </trkpt>
      <trkpt lat="47.85959" lon="6.9096">
        <ele>1114</ele>
        <time>2026-05-09T07:48:38.375Z</time>
      </trkpt>
      <trkpt lat="47.8596" lon="6.90961">
        <ele>1114</ele>
        <time>2026-05-09T07:48:39.375Z</time>
      </trkpt>
      <trkpt lat="47.8596" lon="6.90962">
        <ele>1114</ele>
        <time>2026-05-09T07:48:40.375Z</time>
      </trkpt>
      <trkpt lat="47.85961" lon="6.90962">
        <ele>1114</ele>
        <time>2026-05-09T07:48:41.376Z</time>
      </trkpt>
      <trkpt lat="47.85962" lon="6.90964">
        <ele>1114</ele>
        <time>2026-05-09T07:48:42.376Z</time>
      </trkpt>
      <trkpt lat="47.85964" lon="6.90964">
        <ele>1114</ele>
        <time>2026-05-09T07:48:43.375Z</time>
      </trkpt>
      <trkpt lat="47.85964" lon="6.90964">
        <ele>1114</ele>
        <time>2026-05-09T07:48:44.376Z</time>
      </trkpt>
      <trkpt lat="47.85966" lon="6.90964">
        <ele>1114</ele>
        <time>2026-05-09T07:48:45.376Z</time>
      </trkpt>
      <trkpt lat="47.85966" lon="6.90964">
        <ele>1113</ele>
        <time>2026-05-09T07:48:46.376Z</time>
      </trkpt>
      <trkpt lat="47.85967" lon="6.90964">
        <ele>1113</ele>
        <time>2026-05-09T07:48:47.376Z</time>
      </trkpt>
      <trkpt lat="47.85968" lon="6.90964">
        <ele>1113</ele>
        <time>2026-05-09T07:48:48.375Z</time>
      </trkpt>
      <trkpt lat="47.85969" lon="6.90964">
        <ele>1113</ele>
        <time>2026-05-09T07:48:49.376Z</time>
      </trkpt>
      <trkpt lat="47.8597" lon="6.90964">
        <ele>1112</ele>
        <time>2026-05-09T07:48:50.376Z</time>
      </trkpt>
      <trkpt lat="47.85971" lon="6.90964">
        <ele>1112</ele>
        <time>2026-05-09T07:48:51.375Z</time>
      </trkpt>
      <trkpt lat="47.85972" lon="6.90965">
        <ele>1112</ele>
        <time>2026-05-09T07:48:52.376Z</time>
      </trkpt>
      <trkpt lat="47.85973" lon="6.90967">
        <ele>1112</ele>
        <time>2026-05-09T07:48:53.375Z</time>
      </trkpt>
      <trkpt lat="47.85973" lon="6.90968">
        <ele>1112</ele>
        <time>2026-05-09T07:48:54.376Z</time>
      </trkpt>
      <trkpt lat="47.85974" lon="6.90969">
        <ele>1112</ele>
        <time>2026-05-09T07:48:55.376Z</time>
      </trkpt>
      <trkpt lat="47.85975" lon="6.90969">
        <ele>1112</ele>
        <time>2026-05-09T07:48:56.375Z</time>
      </trkpt>
      <trkpt lat="47.85976" lon="6.90969">
        <ele>1112</ele>
        <time>2026-05-09T07:48:57.375Z</time>
      </trkpt>
      <trkpt lat="47.85977" lon="6.90969">
        <ele>1112</ele>
        <time>2026-05-09T07:48:58.375Z</time>
      </trkpt>
      <trkpt lat="47.85978" lon="6.90969">
        <ele>1112</ele>
        <time>2026-05-09T07:48:59.376Z</time>
      </trkpt>
      <trkpt lat="47.8598" lon="6.90969">
        <ele>1112</ele>
        <time>2026-05-09T07:49:00.376Z</time>
      </trkpt>
      <trkpt lat="47.85981" lon="6.90969">
        <ele>1112</ele>
        <time>2026-05-09T07:49:01.376Z</time>
      </trkpt>
      <trkpt lat="47.85983" lon="6.90968">
        <ele>1112</ele>
        <time>2026-05-09T07:49:02.375Z</time>
      </trkpt>
      <trkpt lat="47.85985" lon="6.90968">
        <ele>1112</ele>
        <time>2026-05-09T07:49:03.375Z</time>
      </trkpt>
      <trkpt lat="47.85986" lon="6.90969">
        <ele>1111</ele>
        <time>2026-05-09T07:49:04.376Z</time>
      </trkpt>
      <trkpt lat="47.85988" lon="6.90971">
        <ele>1111</ele>
        <time>2026-05-09T07:49:05.375Z</time>
      </trkpt>
      <trkpt lat="47.85989" lon="6.90973">
        <ele>1110</ele>
        <time>2026-05-09T07:49:06.376Z</time>
      </trkpt>
      <trkpt lat="47.8599" lon="6.90973">
        <ele>1110</ele>
        <time>2026-05-09T07:49:07.375Z</time>
      </trkpt>
      <trkpt lat="47.85991" lon="6.90973">
        <ele>1109</ele>
        <time>2026-05-09T07:49:08.376Z</time>
      </trkpt>
      <trkpt lat="47.85992" lon="6.90973">
        <ele>1109</ele>
        <time>2026-05-09T07:49:09.375Z</time>
      </trkpt>
      <trkpt lat="47.85993" lon="6.90973">
        <ele>1108</ele>
        <time>2026-05-09T07:49:10.375Z</time>
      </trkpt>
      <trkpt lat="47.85994" lon="6.90973">
        <ele>1108</ele>
        <time>2026-05-09T07:49:11.376Z</time>
      </trkpt>
      <trkpt lat="47.85996" lon="6.90973">
        <ele>1108</ele>
        <time>2026-05-09T07:49:12.375Z</time>
      </trkpt>
      <trkpt lat="47.85997" lon="6.90973">
        <ele>1108</ele>
        <time>2026-05-09T07:49:13.375Z</time>
      </trkpt>
      <trkpt lat="47.85999" lon="6.90973">
        <ele>1108</ele>
        <time>2026-05-09T07:49:14.376Z</time>
      </trkpt>
      <trkpt lat="47.86" lon="6.90972">
        <ele>1108</ele>
        <time>2026-05-09T07:49:15.376Z</time>
      </trkpt>
      <trkpt lat="47.86001" lon="6.90972">
        <ele>1108</ele>
        <time>2026-05-09T07:49:16.376Z</time>
      </trkpt>
      <trkpt lat="47.86002" lon="6.90972">
        <ele>1108</ele>
        <time>2026-05-09T07:49:17.376Z</time>
      </trkpt>
      <trkpt lat="47.86003" lon="6.90973">
        <ele>1108</ele>
        <time>2026-05-09T07:49:18.375Z</time>
      </trkpt>
      <trkpt lat="47.86004" lon="6.90974">
        <ele>1108</ele>
        <time>2026-05-09T07:49:19.376Z</time>
      </trkpt>
      <trkpt lat="47.86006" lon="6.90975">
        <ele>1107</ele>
        <time>2026-05-09T07:49:20.375Z</time>
      </trkpt>
      <trkpt lat="47.86007" lon="6.90975">
        <ele>1107</ele>
        <time>2026-05-09T07:49:21.375Z</time>
      </trkpt>
      <trkpt lat="47.86008" lon="6.90976">
        <ele>1107</ele>
        <time>2026-05-09T07:49:22.376Z</time>
      </trkpt>
      <trkpt lat="47.8601" lon="6.90976">
        <ele>1107</ele>
        <time>2026-05-09T07:49:23.375Z</time>
      </trkpt>
      <trkpt lat="47.86011" lon="6.90976">
        <ele>1107</ele>
        <time>2026-05-09T07:49:24.376Z</time>
      </trkpt>
      <trkpt lat="47.86011" lon="6.90976">
        <ele>1107</ele>
        <time>2026-05-09T07:49:25.376Z</time>
      </trkpt>
      <trkpt lat="47.86013" lon="6.90977">
        <ele>1107</ele>
        <time>2026-05-09T07:49:26.375Z</time>
      </trkpt>
      <trkpt lat="47.86013" lon="6.90977">
        <ele>1107</ele>
        <time>2026-05-09T07:49:27.375Z</time>
      </trkpt>
      <trkpt lat="47.86014" lon="6.90976">
        <ele>1107</ele>
        <time>2026-05-09T07:49:28.376Z</time>
      </trkpt>
      <trkpt lat="47.86015" lon="6.90977">
        <ele>1107</ele>
        <time>2026-05-09T07:49:29.375Z</time>
      </trkpt>
      <trkpt lat="47.86015" lon="6.90977">
        <ele>1107</ele>
        <time>2026-05-09T07:49:30.376Z</time>
      </trkpt>
      <trkpt lat="47.86016" lon="6.90977">
        <ele>1107</ele>
        <time>2026-05-09T07:49:31.375Z</time>
      </trkpt>
      <trkpt lat="47.86017" lon="6.90976">
        <ele>1107</ele>
        <time>2026-05-09T07:49:32.376Z</time>
      </trkpt>
      <trkpt lat="47.86017" lon="6.90976">
        <ele>1107</ele>
        <time>2026-05-09T07:49:33.376Z</time>
      </trkpt>
      <trkpt lat="47.86018" lon="6.90976">
        <ele>1107</ele>
        <time>2026-05-09T07:49:34.375Z</time>
      </trkpt>
      <trkpt lat="47.8602" lon="6.90976">
        <ele>1107</ele>
        <time>2026-05-09T07:49:35.375Z</time>
      </trkpt>
      <trkpt lat="47.8602" lon="6.90977">
        <ele>1107</ele>
        <time>2026-05-09T07:49:36.375Z</time>
      </trkpt>
      <trkpt lat="47.86021" lon="6.90977">
        <ele>1107</ele>
        <time>2026-05-09T07:49:37.376Z</time>
      </trkpt>
      <trkpt lat="47.86022" lon="6.90976">
        <ele>1107</ele>
        <time>2026-05-09T07:49:38.375Z</time>
      </trkpt>
      <trkpt lat="47.86027" lon="6.90977">
        <ele>1108</ele>
        <time>2026-05-09T07:49:44.763Z</time>
      </trkpt>
      <trkpt lat="47.86028" lon="6.90977">
        <ele>1108</ele>
        <time>2026-05-09T07:49:45.764Z</time>
      </trkpt>
      <trkpt lat="47.86029" lon="6.90978">
        <ele>1108</ele>
        <time>2026-05-09T07:49:46.764Z</time>
      </trkpt>
      <trkpt lat="47.8603" lon="6.90979">
        <ele>1108</ele>
        <time>2026-05-09T07:49:47.764Z</time>
      </trkpt>
      <trkpt lat="47.8603" lon="6.90979">
        <ele>1108</ele>
        <time>2026-05-09T07:49:48.764Z</time>
      </trkpt>
      <trkpt lat="47.8603" lon="6.90979">
        <ele>1108</ele>
        <time>2026-05-09T07:49:49.764Z</time>
      </trkpt>
      <trkpt lat="47.86031" lon="6.90979">
        <ele>1108</ele>
        <time>2026-05-09T07:49:50.763Z</time>
      </trkpt>
      <trkpt lat="47.86031" lon="6.90981">
        <ele>1108</ele>
        <time>2026-05-09T07:49:51.764Z</time>
      </trkpt>
      <trkpt lat="47.86031" lon="6.90981">
        <ele>1108</ele>
        <time>2026-05-09T07:49:52.764Z</time>
      </trkpt>
      <trkpt lat="47.86031" lon="6.9098">
        <ele>1108</ele>
        <time>2026-05-09T07:49:53.763Z</time>
      </trkpt>
      <trkpt lat="47.8603" lon="6.9098">
        <ele>1107</ele>
        <time>2026-05-09T07:49:54.763Z</time>
      </trkpt>
      <trkpt lat="47.86043" lon="6.90978">
        <ele>1107</ele>
        <time>2026-05-09T07:50:07.453Z</time>
      </trkpt>
      <trkpt lat="47.86044" lon="6.90978">
        <ele>1107</ele>
        <time>2026-05-09T07:50:08.452Z</time>
      </trkpt>
      <trkpt lat="47.86045" lon="6.90978">
        <ele>1107</ele>
        <time>2026-05-09T07:50:09.452Z</time>
      </trkpt>
      <trkpt lat="47.86046" lon="6.90978">
        <ele>1107</ele>
        <time>2026-05-09T07:50:10.453Z</time>
      </trkpt>
      <trkpt lat="47.86047" lon="6.90978">
        <ele>1107</ele>
        <time>2026-05-09T07:50:11.453Z</time>
      </trkpt>
      <trkpt lat="47.86049" lon="6.90979">
        <ele>1107</ele>
        <time>2026-05-09T07:50:12.452Z</time>
      </trkpt>
      <trkpt lat="47.86051" lon="6.90979">
        <ele>1106</ele>
        <time>2026-05-09T07:50:13.453Z</time>
      </trkpt>
      <trkpt lat="47.86053" lon="6.90978">
        <ele>1106</ele>
        <time>2026-05-09T07:50:14.452Z</time>
      </trkpt>
      <trkpt lat="47.86054" lon="6.90978">
        <ele>1106</ele>
        <time>2026-05-09T07:50:15.453Z</time>
      </trkpt>
      <trkpt lat="47.86056" lon="6.90978">
        <ele>1105</ele>
        <time>2026-05-09T07:50:16.453Z</time>
      </trkpt>
      <trkpt lat="47.86057" lon="6.90977">
        <ele>1105</ele>
        <time>2026-05-09T07:50:17.452Z</time>
      </trkpt>
      <trkpt lat="47.86059" lon="6.90977">
        <ele>1105</ele>
        <time>2026-05-09T07:50:18.453Z</time>
      </trkpt>
      <trkpt lat="47.8606" lon="6.90977">
        <ele>1105</ele>
        <time>2026-05-09T07:50:19.453Z</time>
      </trkpt>
      <trkpt lat="47.8606" lon="6.90976">
        <ele>1105</ele>
        <time>2026-05-09T07:50:20.452Z</time>
      </trkpt>
      <trkpt lat="47.86061" lon="6.90976">
        <ele>1105</ele>
        <time>2026-05-09T07:50:21.453Z</time>
      </trkpt>
      <trkpt lat="47.86061" lon="6.90975">
        <ele>1105</ele>
        <time>2026-05-09T07:50:22.452Z</time>
      </trkpt>
      <trkpt lat="47.86063" lon="6.90974">
        <ele>1105</ele>
        <time>2026-05-09T07:50:23.453Z</time>
      </trkpt>
      <trkpt lat="47.86064" lon="6.90974">
        <ele>1105</ele>
        <time>2026-05-09T07:50:24.453Z</time>
      </trkpt>
      <trkpt lat="47.86065" lon="6.90974">
        <ele>1105</ele>
        <time>2026-05-09T07:50:25.452Z</time>
      </trkpt>
      <trkpt lat="47.86067" lon="6.90974">
        <ele>1104</ele>
        <time>2026-05-09T07:50:26.453Z</time>
      </trkpt>
      <trkpt lat="47.86069" lon="6.90973">
        <ele>1104</ele>
        <time>2026-05-09T07:50:27.452Z</time>
      </trkpt>
      <trkpt lat="47.86071" lon="6.90973">
        <ele>1104</ele>
        <time>2026-05-09T07:50:28.452Z</time>
      </trkpt>
      <trkpt lat="47.86072" lon="6.90973">
        <ele>1103</ele>
        <time>2026-05-09T07:50:29.453Z</time>
      </trkpt>
      <trkpt lat="47.86073" lon="6.90973">
        <ele>1103</ele>
        <time>2026-05-09T07:50:30.452Z</time>
      </trkpt>
      <trkpt lat="47.86074" lon="6.90974">
        <ele>1102</ele>
        <time>2026-05-09T07:50:31.453Z</time>
      </trkpt>
      <trkpt lat="47.86075" lon="6.90975">
        <ele>1102</ele>
        <time>2026-05-09T07:50:32.453Z</time>
      </trkpt>
      <trkpt lat="47.86076" lon="6.90975">
        <ele>1101</ele>
        <time>2026-05-09T07:50:33.452Z</time>
      </trkpt>
      <trkpt lat="47.86078" lon="6.90975">
        <ele>1100</ele>
        <time>2026-05-09T07:50:34.452Z</time>
      </trkpt>
      <trkpt lat="47.8608" lon="6.90975">
        <ele>1100</ele>
        <time>2026-05-09T07:50:35.452Z</time>
      </trkpt>
      <trkpt lat="47.86082" lon="6.90975">
        <ele>1099</ele>
        <time>2026-05-09T07:50:36.452Z</time>
      </trkpt>
      <trkpt lat="47.86084" lon="6.90975">
        <ele>1098</ele>
        <time>2026-05-09T07:50:37.453Z</time>
      </trkpt>
      <trkpt lat="47.86085" lon="6.90975">
        <ele>1098</ele>
        <time>2026-05-09T07:50:38.452Z</time>
      </trkpt>
      <trkpt lat="47.86087" lon="6.90976">
        <ele>1097</ele>
        <time>2026-05-09T07:50:39.453Z</time>
      </trkpt>
      <trkpt lat="47.86088" lon="6.90976">
        <ele>1096</ele>
        <time>2026-05-09T07:50:40.453Z</time>
      </trkpt>
      <trkpt lat="47.8609" lon="6.90976">
        <ele>1095</ele>
        <time>2026-05-09T07:50:41.452Z</time>
      </trkpt>
      <trkpt lat="47.86092" lon="6.90976">
        <ele>1094</ele>
        <time>2026-05-09T07:50:42.453Z</time>
      </trkpt>
      <trkpt lat="47.86092" lon="6.90975">
        <ele>1094</ele>
        <time>2026-05-09T07:50:43.452Z</time>
      </trkpt>
      <trkpt lat="47.86093" lon="6.90974">
        <ele>1093</ele>
        <time>2026-05-09T07:50:44.453Z</time>
      </trkpt>
      <trkpt lat="47.86094" lon="6.90974">
        <ele>1093</ele>
        <time>2026-05-09T07:50:45.453Z</time>
      </trkpt>
      <trkpt lat="47.86095" lon="6.90975">
        <ele>1093</ele>
        <time>2026-05-09T07:50:46.452Z</time>
      </trkpt>
      <trkpt lat="47.86097" lon="6.90975">
        <ele>1093</ele>
        <time>2026-05-09T07:50:47.453Z</time>
      </trkpt>
      <trkpt lat="47.86098" lon="6.90976">
        <ele>1094</ele>
        <time>2026-05-09T07:50:48.453Z</time>
      </trkpt>
      <trkpt lat="47.86099" lon="6.90976">
        <ele>1094</ele>
        <time>2026-05-09T07:50:49.452Z</time>
      </trkpt>
      <trkpt lat="47.861" lon="6.90976">
        <ele>1094</ele>
        <time>2026-05-09T07:50:50.453Z</time>
      </trkpt>
      <trkpt lat="47.86101" lon="6.90976">
        <ele>1094</ele>
        <time>2026-05-09T07:50:51.452Z</time>
      </trkpt>
      <trkpt lat="47.86102" lon="6.90977">
        <ele>1095</ele>
        <time>2026-05-09T07:50:52.453Z</time>
      </trkpt>
      <trkpt lat="47.86104" lon="6.90977">
        <ele>1095</ele>
        <time>2026-05-09T07:50:53.453Z</time>
      </trkpt>
      <trkpt lat="47.86105" lon="6.90978">
        <ele>1095</ele>
        <time>2026-05-09T07:50:54.452Z</time>
      </trkpt>
      <trkpt lat="47.86107" lon="6.9098">
        <ele>1095</ele>
        <time>2026-05-09T07:50:55.453Z</time>
      </trkpt>
      <trkpt lat="47.86108" lon="6.90981">
        <ele>1095</ele>
        <time>2026-05-09T07:50:56.453Z</time>
      </trkpt>
      <trkpt lat="47.86109" lon="6.90982">
        <ele>1095</ele>
        <time>2026-05-09T07:50:57.452Z</time>
      </trkpt>
      <trkpt lat="47.8611" lon="6.90983">
        <ele>1095</ele>
        <time>2026-05-09T07:50:58.452Z</time>
      </trkpt>
      <trkpt lat="47.86111" lon="6.90983">
        <ele>1095</ele>
        <time>2026-05-09T07:50:59.453Z</time>
      </trkpt>
      <trkpt lat="47.86111" lon="6.90983">
        <ele>1095</ele>
        <time>2026-05-09T07:51:00.452Z</time>
      </trkpt>
      <trkpt lat="47.86111" lon="6.90982">
        <ele>1095</ele>
        <time>2026-05-09T07:51:01.452Z</time>
      </trkpt>
      <trkpt lat="47.86112" lon="6.90982">
        <ele>1095</ele>
        <time>2026-05-09T07:51:02.453Z</time>
      </trkpt>
      <trkpt lat="47.86113" lon="6.90983">
        <ele>1095</ele>
        <time>2026-05-09T07:51:03.452Z</time>
      </trkpt>
      <trkpt lat="47.86115" lon="6.90984">
        <ele>1095</ele>
        <time>2026-05-09T07:51:04.452Z</time>
      </trkpt>
      <trkpt lat="47.86116" lon="6.90985">
        <ele>1095</ele>
        <time>2026-05-09T07:51:05.453Z</time>
      </trkpt>
      <trkpt lat="47.86117" lon="6.90985">
        <ele>1095</ele>
        <time>2026-05-09T07:51:06.453Z</time>
      </trkpt>
      <trkpt lat="47.86117" lon="6.90986">
        <ele>1095</ele>
        <time>2026-05-09T07:51:07.452Z</time>
      </trkpt>
      <trkpt lat="47.86118" lon="6.90986">
        <ele>1094</ele>
        <time>2026-05-09T07:51:08.452Z</time>
      </trkpt>
      <trkpt lat="47.86119" lon="6.90987">
        <ele>1094</ele>
        <time>2026-05-09T07:51:09.453Z</time>
      </trkpt>
      <trkpt lat="47.8612" lon="6.90987">
        <ele>1094</ele>
        <time>2026-05-09T07:51:10.452Z</time>
      </trkpt>
      <trkpt lat="47.86121" lon="6.90987">
        <ele>1094</ele>
        <time>2026-05-09T07:51:11.452Z</time>
      </trkpt>
      <trkpt lat="47.86122" lon="6.90988">
        <ele>1093</ele>
        <time>2026-05-09T07:51:12.453Z</time>
      </trkpt>
      <trkpt lat="47.86123" lon="6.90988">
        <ele>1093</ele>
        <time>2026-05-09T07:51:13.453Z</time>
      </trkpt>
      <trkpt lat="47.86124" lon="6.90988">
        <ele>1093</ele>
        <time>2026-05-09T07:51:14.452Z</time>
      </trkpt>
      <trkpt lat="47.86125" lon="6.90989">
        <ele>1092</ele>
        <time>2026-05-09T07:51:15.452Z</time>
      </trkpt>
      <trkpt lat="47.86126" lon="6.9099">
        <ele>1092</ele>
        <time>2026-05-09T07:51:16.453Z</time>
      </trkpt>
      <trkpt lat="47.86127" lon="6.90991">
        <ele>1092</ele>
        <time>2026-05-09T07:51:17.452Z</time>
      </trkpt>
      <trkpt lat="47.86128" lon="6.90991">
        <ele>1092</ele>
        <time>2026-05-09T07:51:18.453Z</time>
      </trkpt>
      <trkpt lat="47.8613" lon="6.90992">
        <ele>1092</ele>
        <time>2026-05-09T07:51:19.453Z</time>
      </trkpt>
      <trkpt lat="47.86132" lon="6.90992">
        <ele>1092</ele>
        <time>2026-05-09T07:51:20.452Z</time>
      </trkpt>
      <trkpt lat="47.86133" lon="6.90991">
        <ele>1092</ele>
        <time>2026-05-09T07:51:21.452Z</time>
      </trkpt>
      <trkpt lat="47.86135" lon="6.90991">
        <ele>1092</ele>
        <time>2026-05-09T07:51:22.452Z</time>
      </trkpt>
      <trkpt lat="47.86136" lon="6.90992">
        <ele>1092</ele>
        <time>2026-05-09T07:51:23.452Z</time>
      </trkpt>
      <trkpt lat="47.86138" lon="6.90992">
        <ele>1092</ele>
        <time>2026-05-09T07:51:24.453Z</time>
      </trkpt>
      <trkpt lat="47.86139" lon="6.90992">
        <ele>1092</ele>
        <time>2026-05-09T07:51:25.452Z</time>
      </trkpt>
      <trkpt lat="47.86141" lon="6.90992">
        <ele>1092</ele>
        <time>2026-05-09T07:51:26.453Z</time>
      </trkpt>
      <trkpt lat="47.86142" lon="6.90992">
        <ele>1092</ele>
        <time>2026-05-09T07:51:27.453Z</time>
      </trkpt>
      <trkpt lat="47.86144" lon="6.90992">
        <ele>1092</ele>
        <time>2026-05-09T07:51:28.453Z</time>
      </trkpt>
      <trkpt lat="47.86145" lon="6.90992">
        <ele>1092</ele>
        <time>2026-05-09T07:51:29.452Z</time>
      </trkpt>
      <trkpt lat="47.86146" lon="6.90992">
        <ele>1092</ele>
        <time>2026-05-09T07:51:30.452Z</time>
      </trkpt>
      <trkpt lat="47.86147" lon="6.90992">
        <ele>1092</ele>
        <time>2026-05-09T07:51:31.453Z</time>
      </trkpt>
      <trkpt lat="47.86149" lon="6.90992">
        <ele>1092</ele>
        <time>2026-05-09T07:51:32.453Z</time>
      </trkpt>
      <trkpt lat="47.8615" lon="6.90992">
        <ele>1092</ele>
        <time>2026-05-09T07:51:33.452Z</time>
      </trkpt>
      <trkpt lat="47.86152" lon="6.90993">
        <ele>1092</ele>
        <time>2026-05-09T07:51:34.453Z</time>
      </trkpt>
      <trkpt lat="47.86153" lon="6.90993">
        <ele>1092</ele>
        <time>2026-05-09T07:51:35.453Z</time>
      </trkpt>
      <trkpt lat="47.86155" lon="6.90993">
        <ele>1091</ele>
        <time>2026-05-09T07:51:36.452Z</time>
      </trkpt>
      <trkpt lat="47.86157" lon="6.90993">
        <ele>1091</ele>
        <time>2026-05-09T07:51:37.453Z</time>
      </trkpt>
      <trkpt lat="47.86158" lon="6.90993">
        <ele>1091</ele>
        <time>2026-05-09T07:51:38.453Z</time>
      </trkpt>
      <trkpt lat="47.8616" lon="6.90993">
        <ele>1091</ele>
        <time>2026-05-09T07:51:39.453Z</time>
      </trkpt>
      <trkpt lat="47.86161" lon="6.90993">
        <ele>1091</ele>
        <time>2026-05-09T07:51:40.453Z</time>
      </trkpt>
      <trkpt lat="47.86162" lon="6.90994">
        <ele>1091</ele>
        <time>2026-05-09T07:51:41.453Z</time>
      </trkpt>
      <trkpt lat="47.86164" lon="6.90995">
        <ele>1090</ele>
        <time>2026-05-09T07:51:42.453Z</time>
      </trkpt>
      <trkpt lat="47.86165" lon="6.90995">
        <ele>1089</ele>
        <time>2026-05-09T07:51:43.452Z</time>
      </trkpt>
      <trkpt lat="47.86167" lon="6.90995">
        <ele>1089</ele>
        <time>2026-05-09T07:51:44.452Z</time>
      </trkpt>
      <trkpt lat="47.86168" lon="6.90995">
        <ele>1089</ele>
        <time>2026-05-09T07:51:45.453Z</time>
      </trkpt>
      <trkpt lat="47.86169" lon="6.90996">
        <ele>1088</ele>
        <time>2026-05-09T07:51:46.453Z</time>
      </trkpt>
      <trkpt lat="47.86169" lon="6.90997">
        <ele>1088</ele>
        <time>2026-05-09T07:51:47.453Z</time>
      </trkpt>
      <trkpt lat="47.8617" lon="6.90998">
        <ele>1088</ele>
        <time>2026-05-09T07:51:48.453Z</time>
      </trkpt>
      <trkpt lat="47.86171" lon="6.91">
        <ele>1088</ele>
        <time>2026-05-09T07:51:49.452Z</time>
      </trkpt>
      <trkpt lat="47.86171" lon="6.91001">
        <ele>1088</ele>
        <time>2026-05-09T07:51:50.453Z</time>
      </trkpt>
      <trkpt lat="47.86172" lon="6.91001">
        <ele>1088</ele>
        <time>2026-05-09T07:51:51.452Z</time>
      </trkpt>
      <trkpt lat="47.86173" lon="6.91002">
        <ele>1088</ele>
        <time>2026-05-09T07:51:52.453Z</time>
      </trkpt>
      <trkpt lat="47.86173" lon="6.91002">
        <ele>1088</ele>
        <time>2026-05-09T07:51:53.453Z</time>
      </trkpt>
      <trkpt lat="47.86173" lon="6.91002">
        <ele>1087</ele>
        <time>2026-05-09T07:51:54.452Z</time>
      </trkpt>
      <trkpt lat="47.86173" lon="6.91001">
        <ele>1087</ele>
        <time>2026-05-09T07:51:55.452Z</time>
      </trkpt>
      <trkpt lat="47.86174" lon="6.91001">
        <ele>1087</ele>
        <time>2026-05-09T07:51:56.453Z</time>
      </trkpt>
      <trkpt lat="47.86174" lon="6.91">
        <ele>1087</ele>
        <time>2026-05-09T07:51:57.453Z</time>
      </trkpt>
      <trkpt lat="47.86175" lon="6.91">
        <ele>1087</ele>
        <time>2026-05-09T07:51:58.452Z</time>
      </trkpt>
      <trkpt lat="47.86175" lon="6.90999">
        <ele>1087</ele>
        <time>2026-05-09T07:51:59.453Z</time>
      </trkpt>
      <trkpt lat="47.86175" lon="6.90999">
        <ele>1086</ele>
        <time>2026-05-09T07:52:00.453Z</time>
      </trkpt>
      <trkpt lat="47.86175" lon="6.90999">
        <ele>1086</ele>
        <time>2026-05-09T07:52:01.452Z</time>
      </trkpt>
      <trkpt lat="47.86173" lon="6.90998">
        <ele>1085</ele>
        <time>2026-05-09T07:52:07.783Z</time>
      </trkpt>
      <trkpt lat="47.86173" lon="6.90998">
        <ele>1085</ele>
        <time>2026-05-09T07:52:08.783Z</time>
      </trkpt>
      <trkpt lat="47.86173" lon="6.90998">
        <ele>1085</ele>
        <time>2026-05-09T07:52:09.782Z</time>
      </trkpt>
      <trkpt lat="47.86173" lon="6.90997">
        <ele>1085</ele>
        <time>2026-05-09T07:52:10.782Z</time>
      </trkpt>
      <trkpt lat="47.86173" lon="6.90997">
        <ele>1085</ele>
        <time>2026-05-09T07:52:11.783Z</time>
      </trkpt>
      <trkpt lat="47.86174" lon="6.90998">
        <ele>1085</ele>
        <time>2026-05-09T07:52:12.783Z</time>
      </trkpt>
      <trkpt lat="47.86174" lon="6.90998">
        <ele>1085</ele>
        <time>2026-05-09T07:52:13.782Z</time>
      </trkpt>
      <trkpt lat="47.86176" lon="6.90998">
        <ele>1085</ele>
        <time>2026-05-09T07:52:14.782Z</time>
      </trkpt>
      <trkpt lat="47.86172" lon="6.91001">
        <ele>1098</ele>
        <time>2026-05-09T07:52:51.450Z</time>
      </trkpt>
      <trkpt lat="47.86172" lon="6.91001">
        <ele>1098</ele>
        <time>2026-05-09T07:52:52.450Z</time>
      </trkpt>
      <trkpt lat="47.86173" lon="6.91001">
        <ele>1097</ele>
        <time>2026-05-09T07:52:53.450Z</time>
      </trkpt>
      <trkpt lat="47.86173" lon="6.91001">
        <ele>1096</ele>
        <time>2026-05-09T07:52:54.449Z</time>
      </trkpt>
      <trkpt lat="47.86173" lon="6.91001">
        <ele>1095</ele>
        <time>2026-05-09T07:52:55.449Z</time>
      </trkpt>
      <trkpt lat="47.86173" lon="6.91001">
        <ele>1094</ele>
        <time>2026-05-09T07:52:56.449Z</time>
      </trkpt>
      <trkpt lat="47.86173" lon="6.91001">
        <ele>1093</ele>
        <time>2026-05-09T07:52:57.449Z</time>
      </trkpt>
      <trkpt lat="47.86173" lon="6.91001">
        <ele>1092</ele>
        <time>2026-05-09T07:52:58.449Z</time>
      </trkpt>
      <trkpt lat="47.86173" lon="6.91001">
        <ele>1092</ele>
        <time>2026-05-09T07:52:59.449Z</time>
      </trkpt>
      <trkpt lat="47.86173" lon="6.91001">
        <ele>1091</ele>
        <time>2026-05-09T07:53:00.449Z</time>
      </trkpt>
      <trkpt lat="47.86173" lon="6.91001">
        <ele>1091</ele>
        <time>2026-05-09T07:53:01.450Z</time>
      </trkpt>
      <trkpt lat="47.86173" lon="6.91001">
        <ele>1091</ele>
        <time>2026-05-09T07:53:02.450Z</time>
      </trkpt>
      <trkpt lat="47.86173" lon="6.91001">
        <ele>1091</ele>
        <time>2026-05-09T07:53:03.449Z</time>
      </trkpt>
      <trkpt lat="47.86173" lon="6.91001">
        <ele>1091</ele>
        <time>2026-05-09T07:53:04.450Z</time>
      </trkpt>
      <trkpt lat="47.86173" lon="6.91001">
        <ele>1091</ele>
        <time>2026-05-09T07:53:05.450Z</time>
      </trkpt>
      <trkpt lat="47.86173" lon="6.91001">
        <ele>1091</ele>
        <time>2026-05-09T07:53:06.450Z</time>
      </trkpt>
      <trkpt lat="47.86173" lon="6.91001">
        <ele>1090</ele>
        <time>2026-05-09T07:53:07.450Z</time>
      </trkpt>
      <trkpt lat="47.86173" lon="6.91001">
        <ele>1090</ele>
        <time>2026-05-09T07:53:08.449Z</time>
      </trkpt>
      <trkpt lat="47.86173" lon="6.91001">
        <ele>1089</ele>
        <time>2026-05-09T07:53:09.450Z</time>
      </trkpt>
      <trkpt lat="47.86173" lon="6.91001">
        <ele>1088</ele>
        <time>2026-05-09T07:53:10.450Z</time>
      </trkpt>
      <trkpt lat="47.86174" lon="6.91001">
        <ele>1087</ele>
        <time>2026-05-09T07:53:11.450Z</time>
      </trkpt>
      <trkpt lat="47.86174" lon="6.91001">
        <ele>1085</ele>
        <time>2026-05-09T07:53:12.450Z</time>
      </trkpt>
      <trkpt lat="47.86174" lon="6.91001">
        <ele>1084</ele>
        <time>2026-05-09T07:53:13.450Z</time>
      </trkpt>
      <trkpt lat="47.86174" lon="6.91001">
        <ele>1084</ele>
        <time>2026-05-09T07:53:14.449Z</time>
      </trkpt>
      <trkpt lat="47.86174" lon="6.91002">
        <ele>1083</ele>
        <time>2026-05-09T07:53:15.450Z</time>
      </trkpt>
      <trkpt lat="47.86174" lon="6.91001">
        <ele>1083</ele>
        <time>2026-05-09T07:53:16.450Z</time>
      </trkpt>
      <trkpt lat="47.86174" lon="6.91001">
        <ele>1083</ele>
        <time>2026-05-09T07:53:17.449Z</time>
      </trkpt>
      <trkpt lat="47.86174" lon="6.91002">
        <ele>1084</ele>
        <time>2026-05-09T07:53:18.449Z</time>
      </trkpt>
      <trkpt lat="47.86174" lon="6.91002">
        <ele>1085</ele>
        <time>2026-05-09T07:53:19.449Z</time>
      </trkpt>
      <trkpt lat="47.86174" lon="6.91002">
        <ele>1085</ele>
        <time>2026-05-09T07:53:20.449Z</time>
      </trkpt>
      <trkpt lat="47.86174" lon="6.91002">
        <ele>1086</ele>
        <time>2026-05-09T07:53:21.449Z</time>
      </trkpt>
      <trkpt lat="47.86174" lon="6.91001">
        <ele>1087</ele>
        <time>2026-05-09T07:53:22.450Z</time>
      </trkpt>
      <trkpt lat="47.86174" lon="6.91001">
        <ele>1088</ele>
        <time>2026-05-09T07:53:23.449Z</time>
      </trkpt>
      <trkpt lat="47.86174" lon="6.91">
        <ele>1088</ele>
        <time>2026-05-09T07:53:24.449Z</time>
      </trkpt>
      <trkpt lat="47.86174" lon="6.91">
        <ele>1089</ele>
        <time>2026-05-09T07:53:25.449Z</time>
      </trkpt>
      <trkpt lat="47.86173" lon="6.90999">
        <ele>1089</ele>
        <time>2026-05-09T07:53:26.449Z</time>
      </trkpt>
      <trkpt lat="47.86173" lon="6.90997">
        <ele>1090</ele>
        <time>2026-05-09T07:53:27.449Z</time>
      </trkpt>
      <trkpt lat="47.86173" lon="6.90996">
        <ele>1090</ele>
        <time>2026-05-09T07:53:28.449Z</time>
      </trkpt>
      <trkpt lat="47.86174" lon="6.90995">
        <ele>1090</ele>
        <time>2026-05-09T07:53:29.449Z</time>
      </trkpt>
      <trkpt lat="47.86175" lon="6.90995">
        <ele>1091</ele>
        <time>2026-05-09T07:53:30.449Z</time>
      </trkpt>
      <trkpt lat="47.86176" lon="6.90995">
        <ele>1091</ele>
        <time>2026-05-09T07:53:31.449Z</time>
      </trkpt>
      <trkpt lat="47.86177" lon="6.90995">
        <ele>1091</ele>
        <time>2026-05-09T07:53:32.449Z</time>
      </trkpt>
      <trkpt lat="47.86177" lon="6.90995">
        <ele>1091</ele>
        <time>2026-05-09T07:53:33.449Z</time>
      </trkpt>
      <trkpt lat="47.86177" lon="6.90995">
        <ele>1090</ele>
        <time>2026-05-09T07:53:44.754Z</time>
      </trkpt>
      <trkpt lat="47.86178" lon="6.90995">
        <ele>1090</ele>
        <time>2026-05-09T07:53:45.753Z</time>
      </trkpt>
      <trkpt lat="47.86178" lon="6.90995">
        <ele>1090</ele>
        <time>2026-05-09T07:53:46.753Z</time>
      </trkpt>
      <trkpt lat="47.86178" lon="6.90995">
        <ele>1090</ele>
        <time>2026-05-09T07:53:47.753Z</time>
      </trkpt>
      <trkpt lat="47.86178" lon="6.90995">
        <ele>1091</ele>
        <time>2026-05-09T07:53:48.753Z</time>
      </trkpt>
      <trkpt lat="47.86178" lon="6.90995">
        <ele>1091</ele>
        <time>2026-05-09T07:53:49.753Z</time>
      </trkpt>
      <trkpt lat="47.86178" lon="6.90995">
        <ele>1091</ele>
        <time>2026-05-09T07:53:50.753Z</time>
      </trkpt>
      <trkpt lat="47.86178" lon="6.90995">
        <ele>1091</ele>
        <time>2026-05-09T07:53:51.753Z</time>
      </trkpt>
      <trkpt lat="47.86178" lon="6.90995">
        <ele>1091</ele>
        <time>2026-05-09T07:53:52.754Z</time>
      </trkpt>
      <trkpt lat="47.86179" lon="6.90996">
        <ele>1092</ele>
        <time>2026-05-09T07:53:53.753Z</time>
      </trkpt>
      <trkpt lat="47.8618" lon="6.90996">
        <ele>1092</ele>
        <time>2026-05-09T07:53:54.754Z</time>
      </trkpt>
      <trkpt lat="47.86181" lon="6.90996">
        <ele>1092</ele>
        <time>2026-05-09T07:53:55.753Z</time>
      </trkpt>
      <trkpt lat="47.86182" lon="6.90996">
        <ele>1092</ele>
        <time>2026-05-09T07:53:56.754Z</time>
      </trkpt>
      <trkpt lat="47.86183" lon="6.90997">
        <ele>1093</ele>
        <time>2026-05-09T07:53:57.754Z</time>
      </trkpt>
      <trkpt lat="47.86184" lon="6.90998">
        <ele>1093</ele>
        <time>2026-05-09T07:53:58.754Z</time>
      </trkpt>
      <trkpt lat="47.86186" lon="6.90998">
        <ele>1093</ele>
        <time>2026-05-09T07:53:59.754Z</time>
      </trkpt>
      <trkpt lat="47.86187" lon="6.90999">
        <ele>1093</ele>
        <time>2026-05-09T07:54:00.753Z</time>
      </trkpt>
      <trkpt lat="47.86188" lon="6.91">
        <ele>1093</ele>
        <time>2026-05-09T07:54:01.753Z</time>
      </trkpt>
      <trkpt lat="47.86188" lon="6.91">
        <ele>1094</ele>
        <time>2026-05-09T07:54:02.754Z</time>
      </trkpt>
      <trkpt lat="47.86188" lon="6.91001">
        <ele>1094</ele>
        <time>2026-05-09T07:54:03.754Z</time>
      </trkpt>
      <trkpt lat="47.86189" lon="6.91002">
        <ele>1094</ele>
        <time>2026-05-09T07:54:04.754Z</time>
      </trkpt>
      <trkpt lat="47.86189" lon="6.91003">
        <ele>1093</ele>
        <time>2026-05-09T07:54:05.754Z</time>
      </trkpt>
      <trkpt lat="47.86189" lon="6.91004">
        <ele>1093</ele>
        <time>2026-05-09T07:54:06.754Z</time>
      </trkpt>
      <trkpt lat="47.8619" lon="6.91004">
        <ele>1093</ele>
        <time>2026-05-09T07:54:07.753Z</time>
      </trkpt>
      <trkpt lat="47.8619" lon="6.91003">
        <ele>1093</ele>
        <time>2026-05-09T07:54:08.754Z</time>
      </trkpt>
      <trkpt lat="47.8619" lon="6.91004">
        <ele>1092</ele>
        <time>2026-05-09T07:54:09.753Z</time>
      </trkpt>
      <trkpt lat="47.86191" lon="6.91005">
        <ele>1092</ele>
        <time>2026-05-09T07:54:10.754Z</time>
      </trkpt>
      <trkpt lat="47.86193" lon="6.91006">
        <ele>1091</ele>
        <time>2026-05-09T07:54:11.753Z</time>
      </trkpt>
      <trkpt lat="47.86194" lon="6.91006">
        <ele>1091</ele>
        <time>2026-05-09T07:54:12.753Z</time>
      </trkpt>
      <trkpt lat="47.86194" lon="6.91006">
        <ele>1090</ele>
        <time>2026-05-09T07:54:13.754Z</time>
      </trkpt>
      <trkpt lat="47.86194" lon="6.91006">
        <ele>1090</ele>
        <time>2026-05-09T07:54:14.754Z</time>
      </trkpt>
      <trkpt lat="47.862" lon="6.91006">
        <ele>1088</ele>
        <time>2026-05-09T07:54:21.160Z</time>
      </trkpt>
      <trkpt lat="47.86201" lon="6.91006">
        <ele>1087</ele>
        <time>2026-05-09T07:54:22.160Z</time>
      </trkpt>
      <trkpt lat="47.86202" lon="6.91007">
        <ele>1087</ele>
        <time>2026-05-09T07:54:23.160Z</time>
      </trkpt>
      <trkpt lat="47.86208" lon="6.91007">
        <ele>1086</ele>
        <time>2026-05-09T07:54:29.325Z</time>
      </trkpt>
      <trkpt lat="47.86209" lon="6.91006">
        <ele>1086</ele>
        <time>2026-05-09T07:54:30.324Z</time>
      </trkpt>
      <trkpt lat="47.8621" lon="6.91006">
        <ele>1086</ele>
        <time>2026-05-09T07:54:31.324Z</time>
      </trkpt>
      <trkpt lat="47.86212" lon="6.91005">
        <ele>1086</ele>
        <time>2026-05-09T07:54:32.324Z</time>
      </trkpt>
      <trkpt lat="47.86214" lon="6.91004">
        <ele>1086</ele>
        <time>2026-05-09T07:54:33.324Z</time>
      </trkpt>
      <trkpt lat="47.86216" lon="6.91004">
        <ele>1085</ele>
        <time>2026-05-09T07:54:34.324Z</time>
      </trkpt>
      <trkpt lat="47.86218" lon="6.91005">
        <ele>1085</ele>
        <time>2026-05-09T07:54:35.325Z</time>
      </trkpt>
      <trkpt lat="47.8622" lon="6.91006">
        <ele>1085</ele>
        <time>2026-05-09T07:54:36.324Z</time>
      </trkpt>
      <trkpt lat="47.86222" lon="6.91007">
        <ele>1085</ele>
        <time>2026-05-09T07:54:37.324Z</time>
      </trkpt>
      <trkpt lat="47.86223" lon="6.91009">
        <ele>1084</ele>
        <time>2026-05-09T07:54:38.324Z</time>
      </trkpt>
      <trkpt lat="47.86225" lon="6.91009">
        <ele>1084</ele>
        <time>2026-05-09T07:54:39.324Z</time>
      </trkpt>
      <trkpt lat="47.86225" lon="6.9101">
        <ele>1084</ele>
        <time>2026-05-09T07:54:40.324Z</time>
      </trkpt>
      <trkpt lat="47.86226" lon="6.91011">
        <ele>1083</ele>
        <time>2026-05-09T07:54:41.325Z</time>
      </trkpt>
      <trkpt lat="47.86228" lon="6.91012">
        <ele>1083</ele>
        <time>2026-05-09T07:54:42.325Z</time>
      </trkpt>
      <trkpt lat="47.86229" lon="6.91013">
        <ele>1083</ele>
        <time>2026-05-09T07:54:43.325Z</time>
      </trkpt>
      <trkpt lat="47.8623" lon="6.91013">
        <ele>1082</ele>
        <time>2026-05-09T07:54:44.325Z</time>
      </trkpt>
      <trkpt lat="47.86232" lon="6.91014">
        <ele>1082</ele>
        <time>2026-05-09T07:54:45.324Z</time>
      </trkpt>
      <trkpt lat="47.86233" lon="6.91015">
        <ele>1082</ele>
        <time>2026-05-09T07:54:46.325Z</time>
      </trkpt>
      <trkpt lat="47.86233" lon="6.91016">
        <ele>1081</ele>
        <time>2026-05-09T07:54:47.324Z</time>
      </trkpt>
      <trkpt lat="47.86233" lon="6.91017">
        <ele>1081</ele>
        <time>2026-05-09T07:54:48.324Z</time>
      </trkpt>
      <trkpt lat="47.86234" lon="6.91018">
        <ele>1080</ele>
        <time>2026-05-09T07:54:49.325Z</time>
      </trkpt>
      <trkpt lat="47.86234" lon="6.91019">
        <ele>1080</ele>
        <time>2026-05-09T07:54:50.324Z</time>
      </trkpt>
      <trkpt lat="47.86235" lon="6.91019">
        <ele>1079</ele>
        <time>2026-05-09T07:54:51.324Z</time>
      </trkpt>
      <trkpt lat="47.86235" lon="6.91019">
        <ele>1079</ele>
        <time>2026-05-09T07:54:52.324Z</time>
      </trkpt>
      <trkpt lat="47.86236" lon="6.9102">
        <ele>1079</ele>
        <time>2026-05-09T07:54:53.324Z</time>
      </trkpt>
      <trkpt lat="47.86236" lon="6.9102">
        <ele>1079</ele>
        <time>2026-05-09T07:54:54.324Z</time>
      </trkpt>
      <trkpt lat="47.86237" lon="6.91021">
        <ele>1079</ele>
        <time>2026-05-09T07:54:55.324Z</time>
      </trkpt>
      <trkpt lat="47.86237" lon="6.91022">
        <ele>1079</ele>
        <time>2026-05-09T07:54:56.324Z</time>
      </trkpt>
      <trkpt lat="47.86237" lon="6.91022">
        <ele>1078</ele>
        <time>2026-05-09T07:54:57.325Z</time>
      </trkpt>
      <trkpt lat="47.86237" lon="6.91022">
        <ele>1078</ele>
        <time>2026-05-09T07:54:58.324Z</time>
      </trkpt>
      <trkpt lat="47.86238" lon="6.91022">
        <ele>1077</ele>
        <time>2026-05-09T07:54:59.324Z</time>
      </trkpt>
      <trkpt lat="47.86239" lon="6.91023">
        <ele>1077</ele>
        <time>2026-05-09T07:55:00.325Z</time>
      </trkpt>
      <trkpt lat="47.86241" lon="6.91023">
        <ele>1076</ele>
        <time>2026-05-09T07:55:01.325Z</time>
      </trkpt>
      <trkpt lat="47.86242" lon="6.91024">
        <ele>1076</ele>
        <time>2026-05-09T07:55:02.325Z</time>
      </trkpt>
      <trkpt lat="47.86244" lon="6.91024">
        <ele>1076</ele>
        <time>2026-05-09T07:55:03.324Z</time>
      </trkpt>
      <trkpt lat="47.86245" lon="6.91024">
        <ele>1075</ele>
        <time>2026-05-09T07:55:04.325Z</time>
      </trkpt>
      <trkpt lat="47.86246" lon="6.91024">
        <ele>1075</ele>
        <time>2026-05-09T07:55:05.324Z</time>
      </trkpt>
      <trkpt lat="47.86247" lon="6.91024">
        <ele>1074</ele>
        <time>2026-05-09T07:55:06.324Z</time>
      </trkpt>
      <trkpt lat="47.86248" lon="6.91026">
        <ele>1074</ele>
        <time>2026-05-09T07:55:07.324Z</time>
      </trkpt>
      <trkpt lat="47.8625" lon="6.91028">
        <ele>1074</ele>
        <time>2026-05-09T07:55:08.325Z</time>
      </trkpt>
      <trkpt lat="47.8625" lon="6.91028">
        <ele>1073</ele>
        <time>2026-05-09T07:55:09.324Z</time>
      </trkpt>
      <trkpt lat="47.86252" lon="6.91029">
        <ele>1073</ele>
        <time>2026-05-09T07:55:10.324Z</time>
      </trkpt>
      <trkpt lat="47.86254" lon="6.91031">
        <ele>1073</ele>
        <time>2026-05-09T07:55:11.324Z</time>
      </trkpt>
      <trkpt lat="47.86255" lon="6.91031">
        <ele>1073</ele>
        <time>2026-05-09T07:55:12.324Z</time>
      </trkpt>
      <trkpt lat="47.86257" lon="6.91032">
        <ele>1072</ele>
        <time>2026-05-09T07:55:13.324Z</time>
      </trkpt>
      <trkpt lat="47.86258" lon="6.91032">
        <ele>1072</ele>
        <time>2026-05-09T07:55:14.325Z</time>
      </trkpt>
      <trkpt lat="47.86259" lon="6.91033">
        <ele>1072</ele>
        <time>2026-05-09T07:55:15.324Z</time>
      </trkpt>
      <trkpt lat="47.86261" lon="6.91033">
        <ele>1072</ele>
        <time>2026-05-09T07:55:16.325Z</time>
      </trkpt>
      <trkpt lat="47.86263" lon="6.91034">
        <ele>1072</ele>
        <time>2026-05-09T07:55:17.324Z</time>
      </trkpt>
      <trkpt lat="47.86265" lon="6.91034">
        <ele>1072</ele>
        <time>2026-05-09T07:55:18.324Z</time>
      </trkpt>
      <trkpt lat="47.86267" lon="6.91034">
        <ele>1072</ele>
        <time>2026-05-09T07:55:19.324Z</time>
      </trkpt>
      <trkpt lat="47.86268" lon="6.91035">
        <ele>1072</ele>
        <time>2026-05-09T07:55:20.324Z</time>
      </trkpt>
      <trkpt lat="47.86269" lon="6.91035">
        <ele>1072</ele>
        <time>2026-05-09T07:55:21.324Z</time>
      </trkpt>
      <trkpt lat="47.86271" lon="6.91035">
        <ele>1072</ele>
        <time>2026-05-09T07:55:22.325Z</time>
      </trkpt>
      <trkpt lat="47.86272" lon="6.91036">
        <ele>1071</ele>
        <time>2026-05-09T07:55:23.324Z</time>
      </trkpt>
      <trkpt lat="47.86273" lon="6.91036">
        <ele>1071</ele>
        <time>2026-05-09T07:55:24.324Z</time>
      </trkpt>
      <trkpt lat="47.86274" lon="6.91036">
        <ele>1071</ele>
        <time>2026-05-09T07:55:25.324Z</time>
      </trkpt>
      <trkpt lat="47.86275" lon="6.91036">
        <ele>1071</ele>
        <time>2026-05-09T07:55:26.324Z</time>
      </trkpt>
      <trkpt lat="47.86276" lon="6.91036">
        <ele>1071</ele>
        <time>2026-05-09T07:55:27.324Z</time>
      </trkpt>
      <trkpt lat="47.86277" lon="6.91036">
        <ele>1070</ele>
        <time>2026-05-09T07:55:28.324Z</time>
      </trkpt>
      <trkpt lat="47.86278" lon="6.91036">
        <ele>1070</ele>
        <time>2026-05-09T07:55:29.324Z</time>
      </trkpt>
      <trkpt lat="47.86279" lon="6.91036">
        <ele>1070</ele>
        <time>2026-05-09T07:55:30.325Z</time>
      </trkpt>
      <trkpt lat="47.8628" lon="6.91036">
        <ele>1070</ele>
        <time>2026-05-09T07:55:31.324Z</time>
      </trkpt>
      <trkpt lat="47.86281" lon="6.91036">
        <ele>1070</ele>
        <time>2026-05-09T07:55:32.324Z</time>
      </trkpt>
      <trkpt lat="47.86282" lon="6.91036">
        <ele>1070</ele>
        <time>2026-05-09T07:55:33.325Z</time>
      </trkpt>
      <trkpt lat="47.86283" lon="6.91036">
        <ele>1070</ele>
        <time>2026-05-09T07:55:34.324Z</time>
      </trkpt>
      <trkpt lat="47.86284" lon="6.91035">
        <ele>1070</ele>
        <time>2026-05-09T07:55:35.324Z</time>
      </trkpt>
      <trkpt lat="47.86285" lon="6.91035">
        <ele>1070</ele>
        <time>2026-05-09T07:55:36.324Z</time>
      </trkpt>
      <trkpt lat="47.86287" lon="6.91035">
        <ele>1070</ele>
        <time>2026-05-09T07:55:37.324Z</time>
      </trkpt>
      <trkpt lat="47.86288" lon="6.91036">
        <ele>1070</ele>
        <time>2026-05-09T07:55:38.324Z</time>
      </trkpt>
      <trkpt lat="47.86289" lon="6.91037">
        <ele>1070</ele>
        <time>2026-05-09T07:55:39.324Z</time>
      </trkpt>
      <trkpt lat="47.8629" lon="6.91037">
        <ele>1071</ele>
        <time>2026-05-09T07:55:40.324Z</time>
      </trkpt>
      <trkpt lat="47.86291" lon="6.91037">
        <ele>1071</ele>
        <time>2026-05-09T07:55:41.324Z</time>
      </trkpt>
      <trkpt lat="47.86291" lon="6.91036">
        <ele>1071</ele>
        <time>2026-05-09T07:55:42.325Z</time>
      </trkpt>
      <trkpt lat="47.86293" lon="6.91036">
        <ele>1071</ele>
        <time>2026-05-09T07:55:43.324Z</time>
      </trkpt>
      <trkpt lat="47.86294" lon="6.91036">
        <ele>1071</ele>
        <time>2026-05-09T07:55:44.324Z</time>
      </trkpt>
      <trkpt lat="47.86295" lon="6.91035">
        <ele>1071</ele>
        <time>2026-05-09T07:55:45.324Z</time>
      </trkpt>
      <trkpt lat="47.86296" lon="6.91035">
        <ele>1071</ele>
        <time>2026-05-09T07:55:46.324Z</time>
      </trkpt>
      <trkpt lat="47.86297" lon="6.91035">
        <ele>1071</ele>
        <time>2026-05-09T07:55:47.325Z</time>
      </trkpt>
      <trkpt lat="47.86299" lon="6.91035">
        <ele>1070</ele>
        <time>2026-05-09T07:55:48.325Z</time>
      </trkpt>
      <trkpt lat="47.863" lon="6.91035">
        <ele>1070</ele>
        <time>2026-05-09T07:55:49.324Z</time>
      </trkpt>
      <trkpt lat="47.86301" lon="6.91034">
        <ele>1070</ele>
        <time>2026-05-09T07:55:50.324Z</time>
      </trkpt>
      <trkpt lat="47.86303" lon="6.91034">
        <ele>1069</ele>
        <time>2026-05-09T07:55:51.324Z</time>
      </trkpt>
      <trkpt lat="47.86304" lon="6.91033">
        <ele>1069</ele>
        <time>2026-05-09T07:55:52.325Z</time>
      </trkpt>
      <trkpt lat="47.86307" lon="6.91033">
        <ele>1069</ele>
        <time>2026-05-09T07:55:53.324Z</time>
      </trkpt>
      <trkpt lat="47.86309" lon="6.91032">
        <ele>1068</ele>
        <time>2026-05-09T07:55:54.324Z</time>
      </trkpt>
      <trkpt lat="47.86311" lon="6.91031">
        <ele>1068</ele>
        <time>2026-05-09T07:55:55.324Z</time>
      </trkpt>
      <trkpt lat="47.86315" lon="6.91031">
        <ele>1068</ele>
        <time>2026-05-09T07:55:56.324Z</time>
      </trkpt>
      <trkpt lat="47.86318" lon="6.9103">
        <ele>1068</ele>
        <time>2026-05-09T07:55:57.324Z</time>
      </trkpt>
      <trkpt lat="47.86321" lon="6.9103">
        <ele>1068</ele>
        <time>2026-05-09T07:55:58.324Z</time>
      </trkpt>
      <trkpt lat="47.86326" lon="6.91032">
        <ele>1067</ele>
        <time>2026-05-09T07:55:59.324Z</time>
      </trkpt>
      <trkpt lat="47.86329" lon="6.91032">
        <ele>1067</ele>
        <time>2026-05-09T07:56:00.324Z</time>
      </trkpt>
      <trkpt lat="47.86331" lon="6.91031">
        <ele>1067</ele>
        <time>2026-05-09T07:56:01.324Z</time>
      </trkpt>
      <trkpt lat="47.86333" lon="6.91029">
        <ele>1066</ele>
        <time>2026-05-09T07:56:02.324Z</time>
      </trkpt>
      <trkpt lat="47.86335" lon="6.91028">
        <ele>1066</ele>
        <time>2026-05-09T07:56:03.324Z</time>
      </trkpt>
      <trkpt lat="47.86336" lon="6.91028">
        <ele>1065</ele>
        <time>2026-05-09T07:56:04.324Z</time>
      </trkpt>
      <trkpt lat="47.86336" lon="6.91024">
        <ele>1065</ele>
        <time>2026-05-09T07:56:05.324Z</time>
      </trkpt>
      <trkpt lat="47.86336" lon="6.91024">
        <ele>1065</ele>
        <time>2026-05-09T07:56:06.324Z</time>
      </trkpt>
      <trkpt lat="47.86338" lon="6.91024">
        <ele>1064</ele>
        <time>2026-05-09T07:56:07.324Z</time>
      </trkpt>
      <trkpt lat="47.86338" lon="6.91023">
        <ele>1064</ele>
        <time>2026-05-09T07:56:08.324Z</time>
      </trkpt>
      <trkpt lat="47.86339" lon="6.9102">
        <ele>1063</ele>
        <time>2026-05-09T07:56:09.325Z</time>
      </trkpt>
      <trkpt lat="47.8634" lon="6.91019">
        <ele>1063</ele>
        <time>2026-05-09T07:56:10.324Z</time>
      </trkpt>
      <trkpt lat="47.86341" lon="6.91018">
        <ele>1063</ele>
        <time>2026-05-09T07:56:11.325Z</time>
      </trkpt>
      <trkpt lat="47.86341" lon="6.91016">
        <ele>1062</ele>
        <time>2026-05-09T07:56:12.325Z</time>
      </trkpt>
      <trkpt lat="47.86343" lon="6.91014">
        <ele>1062</ele>
        <time>2026-05-09T07:56:13.324Z</time>
      </trkpt>
      <trkpt lat="47.86344" lon="6.91011">
        <ele>1062</ele>
        <time>2026-05-09T07:56:14.325Z</time>
      </trkpt>
      <trkpt lat="47.86346" lon="6.91008">
        <ele>1061</ele>
        <time>2026-05-09T07:56:15.324Z</time>
      </trkpt>
      <trkpt lat="47.86347" lon="6.91007">
        <ele>1061</ele>
        <time>2026-05-09T07:56:16.324Z</time>
      </trkpt>
      <trkpt lat="47.86348" lon="6.91005">
        <ele>1061</ele>
        <time>2026-05-09T07:56:17.324Z</time>
      </trkpt>
      <trkpt lat="47.86348" lon="6.91003">
        <ele>1061</ele>
        <time>2026-05-09T07:56:18.325Z</time>
      </trkpt>
      <trkpt lat="47.86349" lon="6.91002">
        <ele>1060</ele>
        <time>2026-05-09T07:56:19.324Z</time>
      </trkpt>
      <trkpt lat="47.86349" lon="6.91">
        <ele>1060</ele>
        <time>2026-05-09T07:56:20.324Z</time>
      </trkpt>
      <trkpt lat="47.8635" lon="6.90998">
        <ele>1060</ele>
        <time>2026-05-09T07:56:21.325Z</time>
      </trkpt>
      <trkpt lat="47.8635" lon="6.90996">
        <ele>1059</ele>
        <time>2026-05-09T07:56:22.325Z</time>
      </trkpt>
      <trkpt lat="47.8635" lon="6.90994">
        <ele>1059</ele>
        <time>2026-05-09T07:56:23.324Z</time>
      </trkpt>
      <trkpt lat="47.86351" lon="6.90993">
        <ele>1059</ele>
        <time>2026-05-09T07:56:24.324Z</time>
      </trkpt>
      <trkpt lat="47.86352" lon="6.90991">
        <ele>1059</ele>
        <time>2026-05-09T07:56:25.324Z</time>
      </trkpt>
      <trkpt lat="47.86352" lon="6.90991">
        <ele>1059</ele>
        <time>2026-05-09T07:56:26.324Z</time>
      </trkpt>
      <trkpt lat="47.86353" lon="6.90989">
        <ele>1058</ele>
        <time>2026-05-09T07:56:27.324Z</time>
      </trkpt>
      <trkpt lat="47.86354" lon="6.90987">
        <ele>1058</ele>
        <time>2026-05-09T07:56:28.324Z</time>
      </trkpt>
      <trkpt lat="47.86355" lon="6.90986">
        <ele>1058</ele>
        <time>2026-05-09T07:56:29.324Z</time>
      </trkpt>
      <trkpt lat="47.86354" lon="6.90984">
        <ele>1057</ele>
        <time>2026-05-09T07:56:30.324Z</time>
      </trkpt>
      <trkpt lat="47.86354" lon="6.90982">
        <ele>1057</ele>
        <time>2026-05-09T07:56:31.324Z</time>
      </trkpt>
      <trkpt lat="47.86353" lon="6.90981">
        <ele>1057</ele>
        <time>2026-05-09T07:56:32.325Z</time>
      </trkpt>
      <trkpt lat="47.86352" lon="6.90979">
        <ele>1057</ele>
        <time>2026-05-09T07:56:33.325Z</time>
      </trkpt>
      <trkpt lat="47.86351" lon="6.90978">
        <ele>1056</ele>
        <time>2026-05-09T07:56:34.325Z</time>
      </trkpt>
      <trkpt lat="47.86359" lon="6.90975">
        <ele>1050</ele>
        <time>2026-05-09T08:19:14.963Z</time>
      </trkpt>
      <trkpt lat="47.8636" lon="6.90974">
        <ele>1049</ele>
        <time>2026-05-09T08:19:15.963Z</time>
      </trkpt>
      <trkpt lat="47.8636" lon="6.90973">
        <ele>1049</ele>
        <time>2026-05-09T08:19:16.963Z</time>
      </trkpt>
      <trkpt lat="47.86361" lon="6.90972">
        <ele>1049</ele>
        <time>2026-05-09T08:19:17.964Z</time>
      </trkpt>
      <trkpt lat="47.86362" lon="6.90972">
        <ele>1049</ele>
        <time>2026-05-09T08:19:18.964Z</time>
      </trkpt>
      <trkpt lat="47.86363" lon="6.90971">
        <ele>1049</ele>
        <time>2026-05-09T08:19:19.964Z</time>
      </trkpt>
      <trkpt lat="47.86364" lon="6.90969">
        <ele>1048</ele>
        <time>2026-05-09T08:19:20.964Z</time>
      </trkpt>
      <trkpt lat="47.86365" lon="6.90968">
        <ele>1048</ele>
        <time>2026-05-09T08:19:21.963Z</time>
      </trkpt>
      <trkpt lat="47.86366" lon="6.90967">
        <ele>1047</ele>
        <time>2026-05-09T08:19:22.964Z</time>
      </trkpt>
      <trkpt lat="47.86367" lon="6.90967">
        <ele>1047</ele>
        <time>2026-05-09T08:19:23.964Z</time>
      </trkpt>
      <trkpt lat="47.86368" lon="6.90966">
        <ele>1047</ele>
        <time>2026-05-09T08:19:24.963Z</time>
      </trkpt>
      <trkpt lat="47.86369" lon="6.90965">
        <ele>1047</ele>
        <time>2026-05-09T08:19:25.964Z</time>
      </trkpt>
      <trkpt lat="47.8637" lon="6.90963">
        <ele>1047</ele>
        <time>2026-05-09T08:19:26.964Z</time>
      </trkpt>
      <trkpt lat="47.8637" lon="6.90962">
        <ele>1048</ele>
        <time>2026-05-09T08:19:27.964Z</time>
      </trkpt>
      <trkpt lat="47.86371" lon="6.90961">
        <ele>1048</ele>
        <time>2026-05-09T08:19:28.964Z</time>
      </trkpt>
      <trkpt lat="47.86372" lon="6.9096">
        <ele>1048</ele>
        <time>2026-05-09T08:19:29.964Z</time>
      </trkpt>
      <trkpt lat="47.86373" lon="6.9096">
        <ele>1049</ele>
        <time>2026-05-09T08:19:30.964Z</time>
      </trkpt>
      <trkpt lat="47.86374" lon="6.90959">
        <ele>1049</ele>
        <time>2026-05-09T08:19:31.963Z</time>
      </trkpt>
      <trkpt lat="47.86375" lon="6.90958">
        <ele>1049</ele>
        <time>2026-05-09T08:19:32.963Z</time>
      </trkpt>
      <trkpt lat="47.86376" lon="6.90958">
        <ele>1049</ele>
        <time>2026-05-09T08:19:33.963Z</time>
      </trkpt>
      <trkpt lat="47.86377" lon="6.90957">
        <ele>1050</ele>
        <time>2026-05-09T08:19:34.963Z</time>
      </trkpt>
      <trkpt lat="47.86378" lon="6.90956">
        <ele>1049</ele>
        <time>2026-05-09T08:19:35.964Z</time>
      </trkpt>
      <trkpt lat="47.86379" lon="6.90955">
        <ele>1049</ele>
        <time>2026-05-09T08:19:36.964Z</time>
      </trkpt>
      <trkpt lat="47.8638" lon="6.90954">
        <ele>1049</ele>
        <time>2026-05-09T08:19:37.964Z</time>
      </trkpt>
      <trkpt lat="47.86381" lon="6.90953">
        <ele>1048</ele>
        <time>2026-05-09T08:19:38.964Z</time>
      </trkpt>
      <trkpt lat="47.86382" lon="6.90952">
        <ele>1048</ele>
        <time>2026-05-09T08:19:39.964Z</time>
      </trkpt>
      <trkpt lat="47.86382" lon="6.90951">
        <ele>1048</ele>
        <time>2026-05-09T08:19:40.964Z</time>
      </trkpt>
      <trkpt lat="47.86383" lon="6.9095">
        <ele>1048</ele>
        <time>2026-05-09T08:19:41.964Z</time>
      </trkpt>
      <trkpt lat="47.86384" lon="6.9095">
        <ele>1048</ele>
        <time>2026-05-09T08:19:42.964Z</time>
      </trkpt>
      <trkpt lat="47.86385" lon="6.90949">
        <ele>1048</ele>
        <time>2026-05-09T08:19:43.964Z</time>
      </trkpt>
      <trkpt lat="47.86386" lon="6.90948">
        <ele>1047</ele>
        <time>2026-05-09T08:19:44.964Z</time>
      </trkpt>
      <trkpt lat="47.86387" lon="6.90946">
        <ele>1047</ele>
        <time>2026-05-09T08:19:45.963Z</time>
      </trkpt>
      <trkpt lat="47.86388" lon="6.90945">
        <ele>1046</ele>
        <time>2026-05-09T08:19:46.963Z</time>
      </trkpt>
      <trkpt lat="47.86388" lon="6.90944">
        <ele>1046</ele>
        <time>2026-05-09T08:19:47.963Z</time>
      </trkpt>
      <trkpt lat="47.86389" lon="6.90943">
        <ele>1047</ele>
        <time>2026-05-09T08:19:48.963Z</time>
      </trkpt>
      <trkpt lat="47.8639" lon="6.90941">
        <ele>1047</ele>
        <time>2026-05-09T08:19:49.963Z</time>
      </trkpt>
      <trkpt lat="47.86391" lon="6.9094">
        <ele>1047</ele>
        <time>2026-05-09T08:19:50.964Z</time>
      </trkpt>
      <trkpt lat="47.86392" lon="6.90939">
        <ele>1047</ele>
        <time>2026-05-09T08:19:51.963Z</time>
      </trkpt>
      <trkpt lat="47.86393" lon="6.90938">
        <ele>1046</ele>
        <time>2026-05-09T08:19:52.964Z</time>
      </trkpt>
      <trkpt lat="47.86394" lon="6.90937">
        <ele>1046</ele>
        <time>2026-05-09T08:19:53.964Z</time>
      </trkpt>
      <trkpt lat="47.86395" lon="6.90937">
        <ele>1046</ele>
        <time>2026-05-09T08:19:54.964Z</time>
      </trkpt>
      <trkpt lat="47.86396" lon="6.90936">
        <ele>1045</ele>
        <time>2026-05-09T08:19:55.963Z</time>
      </trkpt>
      <trkpt lat="47.86397" lon="6.90935">
        <ele>1045</ele>
        <time>2026-05-09T08:19:56.964Z</time>
      </trkpt>
      <trkpt lat="47.86398" lon="6.90933">
        <ele>1044</ele>
        <time>2026-05-09T08:19:57.963Z</time>
      </trkpt>
      <trkpt lat="47.86399" lon="6.90932">
        <ele>1044</ele>
        <time>2026-05-09T08:19:58.964Z</time>
      </trkpt>
      <trkpt lat="47.864" lon="6.90932">
        <ele>1043</ele>
        <time>2026-05-09T08:19:59.963Z</time>
      </trkpt>
      <trkpt lat="47.86401" lon="6.90932">
        <ele>1043</ele>
        <time>2026-05-09T08:20:00.963Z</time>
      </trkpt>
      <trkpt lat="47.86402" lon="6.90931">
        <ele>1043</ele>
        <time>2026-05-09T08:20:01.963Z</time>
      </trkpt>
      <trkpt lat="47.86403" lon="6.9093">
        <ele>1042</ele>
        <time>2026-05-09T08:20:02.964Z</time>
      </trkpt>
      <trkpt lat="47.86404" lon="6.90929">
        <ele>1042</ele>
        <time>2026-05-09T08:20:03.964Z</time>
      </trkpt>
      <trkpt lat="47.86405" lon="6.90927">
        <ele>1042</ele>
        <time>2026-05-09T08:20:04.964Z</time>
      </trkpt>
      <trkpt lat="47.86406" lon="6.90925">
        <ele>1041</ele>
        <time>2026-05-09T08:20:05.963Z</time>
      </trkpt>
      <trkpt lat="47.86407" lon="6.90924">
        <ele>1041</ele>
        <time>2026-05-09T08:20:06.963Z</time>
      </trkpt>
      <trkpt lat="47.86409" lon="6.90923">
        <ele>1041</ele>
        <time>2026-05-09T08:20:07.963Z</time>
      </trkpt>
      <trkpt lat="47.8641" lon="6.90921">
        <ele>1040</ele>
        <time>2026-05-09T08:20:08.964Z</time>
      </trkpt>
      <trkpt lat="47.86411" lon="6.90921">
        <ele>1040</ele>
        <time>2026-05-09T08:20:09.964Z</time>
      </trkpt>
      <trkpt lat="47.86412" lon="6.90921">
        <ele>1040</ele>
        <time>2026-05-09T08:20:10.964Z</time>
      </trkpt>
      <trkpt lat="47.86412" lon="6.9092">
        <ele>1040</ele>
        <time>2026-05-09T08:20:11.964Z</time>
      </trkpt>
      <trkpt lat="47.86413" lon="6.90919">
        <ele>1040</ele>
        <time>2026-05-09T08:20:12.964Z</time>
      </trkpt>
      <trkpt lat="47.86414" lon="6.90918">
        <ele>1040</ele>
        <time>2026-05-09T08:20:13.964Z</time>
      </trkpt>
      <trkpt lat="47.86415" lon="6.90917">
        <ele>1040</ele>
        <time>2026-05-09T08:20:14.964Z</time>
      </trkpt>
      <trkpt lat="47.86416" lon="6.90917">
        <ele>1040</ele>
        <time>2026-05-09T08:20:15.964Z</time>
      </trkpt>
      <trkpt lat="47.86417" lon="6.90916">
        <ele>1040</ele>
        <time>2026-05-09T08:20:16.964Z</time>
      </trkpt>
      <trkpt lat="47.86418" lon="6.90914">
        <ele>1040</ele>
        <time>2026-05-09T08:20:17.964Z</time>
      </trkpt>
      <trkpt lat="47.86419" lon="6.90913">
        <ele>1039</ele>
        <time>2026-05-09T08:20:18.964Z</time>
      </trkpt>
      <trkpt lat="47.86419" lon="6.90912">
        <ele>1039</ele>
        <time>2026-05-09T08:20:19.964Z</time>
      </trkpt>
      <trkpt lat="47.8642" lon="6.90911">
        <ele>1039</ele>
        <time>2026-05-09T08:20:20.964Z</time>
      </trkpt>
      <trkpt lat="47.86421" lon="6.90909">
        <ele>1039</ele>
        <time>2026-05-09T08:20:21.964Z</time>
      </trkpt>
      <trkpt lat="47.86421" lon="6.90907">
        <ele>1040</ele>
        <time>2026-05-09T08:20:22.964Z</time>
      </trkpt>
      <trkpt lat="47.86422" lon="6.90906">
        <ele>1041</ele>
        <time>2026-05-09T08:20:23.963Z</time>
      </trkpt>
      <trkpt lat="47.86423" lon="6.90905">
        <ele>1041</ele>
        <time>2026-05-09T08:20:24.963Z</time>
      </trkpt>
      <trkpt lat="47.86424" lon="6.90903">
        <ele>1041</ele>
        <time>2026-05-09T08:20:25.963Z</time>
      </trkpt>
      <trkpt lat="47.86424" lon="6.90902">
        <ele>1042</ele>
        <time>2026-05-09T08:20:26.963Z</time>
      </trkpt>
      <trkpt lat="47.86426" lon="6.909">
        <ele>1042</ele>
        <time>2026-05-09T08:20:27.963Z</time>
      </trkpt>
      <trkpt lat="47.86427" lon="6.90899">
        <ele>1043</ele>
        <time>2026-05-09T08:20:28.963Z</time>
      </trkpt>
      <trkpt lat="47.86428" lon="6.90897">
        <ele>1043</ele>
        <time>2026-05-09T08:20:29.964Z</time>
      </trkpt>
      <trkpt lat="47.86429" lon="6.90896">
        <ele>1043</ele>
        <time>2026-05-09T08:20:30.964Z</time>
      </trkpt>
      <trkpt lat="47.8643" lon="6.90895">
        <ele>1044</ele>
        <time>2026-05-09T08:20:31.964Z</time>
      </trkpt>
      <trkpt lat="47.86431" lon="6.90893">
        <ele>1044</ele>
        <time>2026-05-09T08:20:32.964Z</time>
      </trkpt>
      <trkpt lat="47.86432" lon="6.90892">
        <ele>1044</ele>
        <time>2026-05-09T08:20:33.964Z</time>
      </trkpt>
      <trkpt lat="47.86433" lon="6.90891">
        <ele>1045</ele>
        <time>2026-05-09T08:20:34.964Z</time>
      </trkpt>
      <trkpt lat="47.86434" lon="6.9089">
        <ele>1045</ele>
        <time>2026-05-09T08:20:35.964Z</time>
      </trkpt>
      <trkpt lat="47.86435" lon="6.90889">
        <ele>1045</ele>
        <time>2026-05-09T08:20:36.964Z</time>
      </trkpt>
      <trkpt lat="47.86436" lon="6.90889">
        <ele>1045</ele>
        <time>2026-05-09T08:20:37.964Z</time>
      </trkpt>
      <trkpt lat="47.86437" lon="6.90888">
        <ele>1045</ele>
        <time>2026-05-09T08:20:38.964Z</time>
      </trkpt>
      <trkpt lat="47.86439" lon="6.90887">
        <ele>1045</ele>
        <time>2026-05-09T08:20:39.964Z</time>
      </trkpt>
      <trkpt lat="47.8644" lon="6.90886">
        <ele>1045</ele>
        <time>2026-05-09T08:20:40.964Z</time>
      </trkpt>
      <trkpt lat="47.86441" lon="6.90886">
        <ele>1045</ele>
        <time>2026-05-09T08:20:41.964Z</time>
      </trkpt>
      <trkpt lat="47.86442" lon="6.90885">
        <ele>1045</ele>
        <time>2026-05-09T08:20:42.963Z</time>
      </trkpt>
      <trkpt lat="47.86443" lon="6.90884">
        <ele>1045</ele>
        <time>2026-05-09T08:20:43.963Z</time>
      </trkpt>
      <trkpt lat="47.86444" lon="6.90883">
        <ele>1044</ele>
        <time>2026-05-09T08:20:44.964Z</time>
      </trkpt>
      <trkpt lat="47.86445" lon="6.90882">
        <ele>1044</ele>
        <time>2026-05-09T08:20:45.963Z</time>
      </trkpt>
      <trkpt lat="47.86447" lon="6.90882">
        <ele>1044</ele>
        <time>2026-05-09T08:20:46.964Z</time>
      </trkpt>
      <trkpt lat="47.86448" lon="6.90881">
        <ele>1044</ele>
        <time>2026-05-09T08:20:47.964Z</time>
      </trkpt>
      <trkpt lat="47.86448" lon="6.90881">
        <ele>1044</ele>
        <time>2026-05-09T08:20:48.963Z</time>
      </trkpt>
      <trkpt lat="47.86449" lon="6.9088">
        <ele>1044</ele>
        <time>2026-05-09T08:20:49.963Z</time>
      </trkpt>
      <trkpt lat="47.8645" lon="6.90879">
        <ele>1044</ele>
        <time>2026-05-09T08:20:50.964Z</time>
      </trkpt>
      <trkpt lat="47.86452" lon="6.90878">
        <ele>1043</ele>
        <time>2026-05-09T08:20:51.964Z</time>
      </trkpt>
      <trkpt lat="47.86452" lon="6.90877">
        <ele>1043</ele>
        <time>2026-05-09T08:20:52.963Z</time>
      </trkpt>
      <trkpt lat="47.86453" lon="6.90876">
        <ele>1043</ele>
        <time>2026-05-09T08:20:53.963Z</time>
      </trkpt>
      <trkpt lat="47.86454" lon="6.90874">
        <ele>1043</ele>
        <time>2026-05-09T08:20:54.964Z</time>
      </trkpt>
      <trkpt lat="47.86456" lon="6.90873">
        <ele>1043</ele>
        <time>2026-05-09T08:20:55.963Z</time>
      </trkpt>
      <trkpt lat="47.86457" lon="6.90873">
        <ele>1043</ele>
        <time>2026-05-09T08:20:56.963Z</time>
      </trkpt>
      <trkpt lat="47.86458" lon="6.90872">
        <ele>1042</ele>
        <time>2026-05-09T08:20:57.964Z</time>
      </trkpt>
      <trkpt lat="47.86459" lon="6.90872">
        <ele>1042</ele>
        <time>2026-05-09T08:20:58.964Z</time>
      </trkpt>
      <trkpt lat="47.8646" lon="6.90872">
        <ele>1042</ele>
        <time>2026-05-09T08:20:59.964Z</time>
      </trkpt>
      <trkpt lat="47.86462" lon="6.90871">
        <ele>1042</ele>
        <time>2026-05-09T08:21:00.963Z</time>
      </trkpt>
      <trkpt lat="47.86463" lon="6.90871">
        <ele>1042</ele>
        <time>2026-05-09T08:21:01.964Z</time>
      </trkpt>
      <trkpt lat="47.86464" lon="6.90871">
        <ele>1042</ele>
        <time>2026-05-09T08:21:02.963Z</time>
      </trkpt>
      <trkpt lat="47.86465" lon="6.9087">
        <ele>1042</ele>
        <time>2026-05-09T08:21:03.964Z</time>
      </trkpt>
      <trkpt lat="47.86466" lon="6.9087">
        <ele>1042</ele>
        <time>2026-05-09T08:21:04.963Z</time>
      </trkpt>
      <trkpt lat="47.86468" lon="6.90871">
        <ele>1042</ele>
        <time>2026-05-09T08:21:05.964Z</time>
      </trkpt>
      <trkpt lat="47.86469" lon="6.90871">
        <ele>1042</ele>
        <time>2026-05-09T08:21:06.963Z</time>
      </trkpt>
      <trkpt lat="47.8647" lon="6.90872">
        <ele>1042</ele>
        <time>2026-05-09T08:21:07.964Z</time>
      </trkpt>
      <trkpt lat="47.86471" lon="6.90872">
        <ele>1041</ele>
        <time>2026-05-09T08:21:08.963Z</time>
      </trkpt>
      <trkpt lat="47.86472" lon="6.90873">
        <ele>1041</ele>
        <time>2026-05-09T08:21:09.964Z</time>
      </trkpt>
      <trkpt lat="47.86473" lon="6.90873">
        <ele>1040</ele>
        <time>2026-05-09T08:21:10.963Z</time>
      </trkpt>
      <trkpt lat="47.86474" lon="6.90873">
        <ele>1040</ele>
        <time>2026-05-09T08:21:11.964Z</time>
      </trkpt>
      <trkpt lat="47.86476" lon="6.90874">
        <ele>1039</ele>
        <time>2026-05-09T08:21:12.964Z</time>
      </trkpt>
      <trkpt lat="47.86477" lon="6.90875">
        <ele>1039</ele>
        <time>2026-05-09T08:21:13.964Z</time>
      </trkpt>
      <trkpt lat="47.86479" lon="6.90876">
        <ele>1039</ele>
        <time>2026-05-09T08:21:14.964Z</time>
      </trkpt>
      <trkpt lat="47.8648" lon="6.90877">
        <ele>1038</ele>
        <time>2026-05-09T08:21:15.963Z</time>
      </trkpt>
      <trkpt lat="47.86481" lon="6.90878">
        <ele>1038</ele>
        <time>2026-05-09T08:21:16.963Z</time>
      </trkpt>
      <trkpt lat="47.86481" lon="6.90879">
        <ele>1038</ele>
        <time>2026-05-09T08:21:17.963Z</time>
      </trkpt>
      <trkpt lat="47.86482" lon="6.90881">
        <ele>1038</ele>
        <time>2026-05-09T08:21:18.964Z</time>
      </trkpt>
      <trkpt lat="47.86483" lon="6.90882">
        <ele>1039</ele>
        <time>2026-05-09T08:21:19.963Z</time>
      </trkpt>
      <trkpt lat="47.86483" lon="6.90883">
        <ele>1039</ele>
        <time>2026-05-09T08:21:20.964Z</time>
      </trkpt>
      <trkpt lat="47.86484" lon="6.90885">
        <ele>1039</ele>
        <time>2026-05-09T08:21:21.963Z</time>
      </trkpt>
      <trkpt lat="47.86485" lon="6.90886">
        <ele>1039</ele>
        <time>2026-05-09T08:21:22.963Z</time>
      </trkpt>
      <trkpt lat="47.86486" lon="6.90888">
        <ele>1039</ele>
        <time>2026-05-09T08:21:23.963Z</time>
      </trkpt>
      <trkpt lat="47.86487" lon="6.90889">
        <ele>1039</ele>
        <time>2026-05-09T08:21:24.964Z</time>
      </trkpt>
      <trkpt lat="47.86488" lon="6.9089">
        <ele>1040</ele>
        <time>2026-05-09T08:21:25.963Z</time>
      </trkpt>
      <trkpt lat="47.86489" lon="6.9089">
        <ele>1040</ele>
        <time>2026-05-09T08:21:26.963Z</time>
      </trkpt>
      <trkpt lat="47.86491" lon="6.90891">
        <ele>1040</ele>
        <time>2026-05-09T08:21:27.963Z</time>
      </trkpt>
      <trkpt lat="47.86492" lon="6.90893">
        <ele>1040</ele>
        <time>2026-05-09T08:21:28.963Z</time>
      </trkpt>
      <trkpt lat="47.86493" lon="6.90894">
        <ele>1040</ele>
        <time>2026-05-09T08:21:29.963Z</time>
      </trkpt>
      <trkpt lat="47.86494" lon="6.90895">
        <ele>1040</ele>
        <time>2026-05-09T08:21:30.963Z</time>
      </trkpt>
      <trkpt lat="47.86495" lon="6.90896">
        <ele>1040</ele>
        <time>2026-05-09T08:21:31.964Z</time>
      </trkpt>
      <trkpt lat="47.86495" lon="6.90898">
        <ele>1040</ele>
        <time>2026-05-09T08:21:32.963Z</time>
      </trkpt>
      <trkpt lat="47.86497" lon="6.90899">
        <ele>1040</ele>
        <time>2026-05-09T08:21:33.964Z</time>
      </trkpt>
      <trkpt lat="47.86498" lon="6.90899">
        <ele>1040</ele>
        <time>2026-05-09T08:21:34.963Z</time>
      </trkpt>
      <trkpt lat="47.86499" lon="6.909">
        <ele>1040</ele>
        <time>2026-05-09T08:21:35.964Z</time>
      </trkpt>
      <trkpt lat="47.865" lon="6.90901">
        <ele>1040</ele>
        <time>2026-05-09T08:21:36.963Z</time>
      </trkpt>
      <trkpt lat="47.86501" lon="6.90903">
        <ele>1040</ele>
        <time>2026-05-09T08:21:37.964Z</time>
      </trkpt>
      <trkpt lat="47.86502" lon="6.90904">
        <ele>1040</ele>
        <time>2026-05-09T08:21:38.963Z</time>
      </trkpt>
      <trkpt lat="47.86503" lon="6.90905">
        <ele>1040</ele>
        <time>2026-05-09T08:21:39.964Z</time>
      </trkpt>
      <trkpt lat="47.86504" lon="6.90906">
        <ele>1040</ele>
        <time>2026-05-09T08:21:40.963Z</time>
      </trkpt>
      <trkpt lat="47.86505" lon="6.90907">
        <ele>1040</ele>
        <time>2026-05-09T08:21:41.964Z</time>
      </trkpt>
      <trkpt lat="47.86506" lon="6.90908">
        <ele>1041</ele>
        <time>2026-05-09T08:21:42.963Z</time>
      </trkpt>
      <trkpt lat="47.86507" lon="6.90908">
        <ele>1041</ele>
        <time>2026-05-09T08:21:43.964Z</time>
      </trkpt>
      <trkpt lat="47.86509" lon="6.90909">
        <ele>1041</ele>
        <time>2026-05-09T08:21:44.963Z</time>
      </trkpt>
      <trkpt lat="47.8651" lon="6.9091">
        <ele>1042</ele>
        <time>2026-05-09T08:21:45.964Z</time>
      </trkpt>
      <trkpt lat="47.86511" lon="6.90911">
        <ele>1042</ele>
        <time>2026-05-09T08:21:46.964Z</time>
      </trkpt>
      <trkpt lat="47.86512" lon="6.90912">
        <ele>1042</ele>
        <time>2026-05-09T08:21:47.963Z</time>
      </trkpt>
      <trkpt lat="47.86513" lon="6.90914">
        <ele>1042</ele>
        <time>2026-05-09T08:21:48.964Z</time>
      </trkpt>
      <trkpt lat="47.86514" lon="6.90914">
        <ele>1042</ele>
        <time>2026-05-09T08:21:49.963Z</time>
      </trkpt>
      <trkpt lat="47.86515" lon="6.90915">
        <ele>1042</ele>
        <time>2026-05-09T08:21:50.963Z</time>
      </trkpt>
      <trkpt lat="47.86515" lon="6.90918">
        <ele>1041</ele>
        <time>2026-05-09T08:21:51.963Z</time>
      </trkpt>
      <trkpt lat="47.86516" lon="6.90919">
        <ele>1041</ele>
        <time>2026-05-09T08:21:52.964Z</time>
      </trkpt>
      <trkpt lat="47.86517" lon="6.90919">
        <ele>1040</ele>
        <time>2026-05-09T08:21:53.964Z</time>
      </trkpt>
      <trkpt lat="47.86518" lon="6.90921">
        <ele>1040</ele>
        <time>2026-05-09T08:21:54.963Z</time>
      </trkpt>
      <trkpt lat="47.86519" lon="6.90923">
        <ele>1040</ele>
        <time>2026-05-09T08:21:55.964Z</time>
      </trkpt>
      <trkpt lat="47.8652" lon="6.90925">
        <ele>1040</ele>
        <time>2026-05-09T08:21:56.963Z</time>
      </trkpt>
      <trkpt lat="47.86521" lon="6.90926">
        <ele>1040</ele>
        <time>2026-05-09T08:21:57.964Z</time>
      </trkpt>
      <trkpt lat="47.86522" lon="6.90928">
        <ele>1040</ele>
        <time>2026-05-09T08:21:58.963Z</time>
      </trkpt>
      <trkpt lat="47.86523" lon="6.9093">
        <ele>1041</ele>
        <time>2026-05-09T08:21:59.963Z</time>
      </trkpt>
      <trkpt lat="47.86524" lon="6.90932">
        <ele>1041</ele>
        <time>2026-05-09T08:22:00.964Z</time>
      </trkpt>
      <trkpt lat="47.86525" lon="6.90933">
        <ele>1042</ele>
        <time>2026-05-09T08:22:01.964Z</time>
      </trkpt>
      <trkpt lat="47.86525" lon="6.90934">
        <ele>1042</ele>
        <time>2026-05-09T08:22:02.964Z</time>
      </trkpt>
      <trkpt lat="47.86526" lon="6.90935">
        <ele>1042</ele>
        <time>2026-05-09T08:22:03.963Z</time>
      </trkpt>
      <trkpt lat="47.86527" lon="6.90936">
        <ele>1043</ele>
        <time>2026-05-09T08:22:04.964Z</time>
      </trkpt>
      <trkpt lat="47.86527" lon="6.90937">
        <ele>1043</ele>
        <time>2026-05-09T08:22:05.963Z</time>
      </trkpt>
      <trkpt lat="47.86528" lon="6.90938">
        <ele>1043</ele>
        <time>2026-05-09T08:22:06.964Z</time>
      </trkpt>
      <trkpt lat="47.86529" lon="6.90938">
        <ele>1043</ele>
        <time>2026-05-09T08:22:07.963Z</time>
      </trkpt>
      <trkpt lat="47.8653" lon="6.90939">
        <ele>1043</ele>
        <time>2026-05-09T08:22:08.964Z</time>
      </trkpt>
      <trkpt lat="47.86531" lon="6.90939">
        <ele>1043</ele>
        <time>2026-05-09T08:22:09.963Z</time>
      </trkpt>
      <trkpt lat="47.86532" lon="6.90938">
        <ele>1043</ele>
        <time>2026-05-09T08:22:10.964Z</time>
      </trkpt>
      <trkpt lat="47.86533" lon="6.90939">
        <ele>1043</ele>
        <time>2026-05-09T08:22:11.963Z</time>
      </trkpt>
      <trkpt lat="47.86534" lon="6.90939">
        <ele>1043</ele>
        <time>2026-05-09T08:22:12.964Z</time>
      </trkpt>
      <trkpt lat="47.86534" lon="6.90939">
        <ele>1043</ele>
        <time>2026-05-09T08:22:13.963Z</time>
      </trkpt>
      <trkpt lat="47.86536" lon="6.90939">
        <ele>1043</ele>
        <time>2026-05-09T08:22:14.964Z</time>
      </trkpt>
      <trkpt lat="47.86537" lon="6.90939">
        <ele>1043</ele>
        <time>2026-05-09T08:22:15.963Z</time>
      </trkpt>
      <trkpt lat="47.86538" lon="6.90939">
        <ele>1043</ele>
        <time>2026-05-09T08:22:16.964Z</time>
      </trkpt>
      <trkpt lat="47.86538" lon="6.90939">
        <ele>1043</ele>
        <time>2026-05-09T08:22:17.964Z</time>
      </trkpt>
      <trkpt lat="47.86539" lon="6.90939">
        <ele>1043</ele>
        <time>2026-05-09T08:22:18.964Z</time>
      </trkpt>
      <trkpt lat="47.8654" lon="6.90938">
        <ele>1043</ele>
        <time>2026-05-09T08:22:19.963Z</time>
      </trkpt>
      <trkpt lat="47.86542" lon="6.90938">
        <ele>1043</ele>
        <time>2026-05-09T08:22:20.963Z</time>
      </trkpt>
      <trkpt lat="47.86543" lon="6.90937">
        <ele>1043</ele>
        <time>2026-05-09T08:22:21.964Z</time>
      </trkpt>
      <trkpt lat="47.86544" lon="6.90936">
        <ele>1043</ele>
        <time>2026-05-09T08:22:22.963Z</time>
      </trkpt>
      <trkpt lat="47.86545" lon="6.90936">
        <ele>1043</ele>
        <time>2026-05-09T08:22:23.963Z</time>
      </trkpt>
      <trkpt lat="47.86546" lon="6.90936">
        <ele>1043</ele>
        <time>2026-05-09T08:22:24.963Z</time>
      </trkpt>
      <trkpt lat="47.86547" lon="6.90936">
        <ele>1043</ele>
        <time>2026-05-09T08:22:25.964Z</time>
      </trkpt>
      <trkpt lat="47.86548" lon="6.90937">
        <ele>1044</ele>
        <time>2026-05-09T08:22:26.963Z</time>
      </trkpt>
      <trkpt lat="47.86549" lon="6.90937">
        <ele>1044</ele>
        <time>2026-05-09T08:22:27.964Z</time>
      </trkpt>
      <trkpt lat="47.8655" lon="6.90937">
        <ele>1044</ele>
        <time>2026-05-09T08:22:28.963Z</time>
      </trkpt>
      <trkpt lat="47.8655" lon="6.90937">
        <ele>1044</ele>
        <time>2026-05-09T08:22:29.963Z</time>
      </trkpt>
      <trkpt lat="47.8655" lon="6.90938">
        <ele>1045</ele>
        <time>2026-05-09T08:22:30.963Z</time>
      </trkpt>
      <trkpt lat="47.86552" lon="6.90937">
        <ele>1046</ele>
        <time>2026-05-09T08:22:36.512Z</time>
      </trkpt>
      <trkpt lat="47.86553" lon="6.90937">
        <ele>1045</ele>
        <time>2026-05-09T08:22:37.513Z</time>
      </trkpt>
      <trkpt lat="47.86553" lon="6.90936">
        <ele>1045</ele>
        <time>2026-05-09T08:22:38.512Z</time>
      </trkpt>
      <trkpt lat="47.86554" lon="6.90936">
        <ele>1044</ele>
        <time>2026-05-09T08:22:39.513Z</time>
      </trkpt>
      <trkpt lat="47.86556" lon="6.90936">
        <ele>1044</ele>
        <time>2026-05-09T08:22:40.512Z</time>
      </trkpt>
      <trkpt lat="47.86557" lon="6.90936">
        <ele>1044</ele>
        <time>2026-05-09T08:22:41.513Z</time>
      </trkpt>
      <trkpt lat="47.86558" lon="6.90935">
        <ele>1044</ele>
        <time>2026-05-09T08:22:42.513Z</time>
      </trkpt>
      <trkpt lat="47.86559" lon="6.90934">
        <ele>1044</ele>
        <time>2026-05-09T08:22:43.513Z</time>
      </trkpt>
      <trkpt lat="47.86559" lon="6.90934">
        <ele>1044</ele>
        <time>2026-05-09T08:22:44.512Z</time>
      </trkpt>
      <trkpt lat="47.8656" lon="6.90934">
        <ele>1044</ele>
        <time>2026-05-09T08:22:45.513Z</time>
      </trkpt>
      <trkpt lat="47.86561" lon="6.90933">
        <ele>1044</ele>
        <time>2026-05-09T08:22:46.512Z</time>
      </trkpt>
      <trkpt lat="47.86561" lon="6.90933">
        <ele>1044</ele>
        <time>2026-05-09T08:22:47.513Z</time>
      </trkpt>
      <trkpt lat="47.86562" lon="6.90932">
        <ele>1044</ele>
        <time>2026-05-09T08:22:48.512Z</time>
      </trkpt>
      <trkpt lat="47.86562" lon="6.90931">
        <ele>1045</ele>
        <time>2026-05-09T08:22:49.513Z</time>
      </trkpt>
      <trkpt lat="47.86563" lon="6.90931">
        <ele>1045</ele>
        <time>2026-05-09T08:22:50.512Z</time>
      </trkpt>
      <trkpt lat="47.86564" lon="6.9093">
        <ele>1045</ele>
        <time>2026-05-09T08:22:51.513Z</time>
      </trkpt>
      <trkpt lat="47.86565" lon="6.90928">
        <ele>1046</ele>
        <time>2026-05-09T08:22:52.513Z</time>
      </trkpt>
      <trkpt lat="47.86567" lon="6.90927">
        <ele>1046</ele>
        <time>2026-05-09T08:22:53.512Z</time>
      </trkpt>
      <trkpt lat="47.86568" lon="6.90925">
        <ele>1046</ele>
        <time>2026-05-09T08:22:54.513Z</time>
      </trkpt>
      <trkpt lat="47.86569" lon="6.90924">
        <ele>1046</ele>
        <time>2026-05-09T08:22:55.512Z</time>
      </trkpt>
      <trkpt lat="47.8657" lon="6.90923">
        <ele>1046</ele>
        <time>2026-05-09T08:22:56.513Z</time>
      </trkpt>
      <trkpt lat="47.86572" lon="6.90922">
        <ele>1047</ele>
        <time>2026-05-09T08:22:57.512Z</time>
      </trkpt>
      <trkpt lat="47.86573" lon="6.9092">
        <ele>1047</ele>
        <time>2026-05-09T08:22:58.513Z</time>
      </trkpt>
      <trkpt lat="47.86574" lon="6.90919">
        <ele>1048</ele>
        <time>2026-05-09T08:22:59.512Z</time>
      </trkpt>
      <trkpt lat="47.86576" lon="6.90918">
        <ele>1048</ele>
        <time>2026-05-09T08:23:00.512Z</time>
      </trkpt>
      <trkpt lat="47.86577" lon="6.90917">
        <ele>1049</ele>
        <time>2026-05-09T08:23:01.512Z</time>
      </trkpt>
      <trkpt lat="47.86577" lon="6.90916">
        <ele>1049</ele>
        <time>2026-05-09T08:23:02.513Z</time>
      </trkpt>
      <trkpt lat="47.86578" lon="6.90915">
        <ele>1049</ele>
        <time>2026-05-09T08:23:03.513Z</time>
      </trkpt>
      <trkpt lat="47.86579" lon="6.90915">
        <ele>1049</ele>
        <time>2026-05-09T08:23:04.513Z</time>
      </trkpt>
      <trkpt lat="47.8658" lon="6.90914">
        <ele>1050</ele>
        <time>2026-05-09T08:23:05.512Z</time>
      </trkpt>
      <trkpt lat="47.8658" lon="6.90914">
        <ele>1050</ele>
        <time>2026-05-09T08:23:06.513Z</time>
      </trkpt>
      <trkpt lat="47.86581" lon="6.90913">
        <ele>1050</ele>
        <time>2026-05-09T08:23:07.513Z</time>
      </trkpt>
      <trkpt lat="47.86582" lon="6.90913">
        <ele>1050</ele>
        <time>2026-05-09T08:23:08.513Z</time>
      </trkpt>
      <trkpt lat="47.86583" lon="6.90913">
        <ele>1050</ele>
        <time>2026-05-09T08:23:09.513Z</time>
      </trkpt>
      <trkpt lat="47.86583" lon="6.90912">
        <ele>1050</ele>
        <time>2026-05-09T08:23:10.512Z</time>
      </trkpt>
      <trkpt lat="47.86584" lon="6.90911">
        <ele>1049</ele>
        <time>2026-05-09T08:23:11.513Z</time>
      </trkpt>
      <trkpt lat="47.86584" lon="6.90909">
        <ele>1049</ele>
        <time>2026-05-09T08:23:12.512Z</time>
      </trkpt>
      <trkpt lat="47.86585" lon="6.90908">
        <ele>1049</ele>
        <time>2026-05-09T08:23:13.512Z</time>
      </trkpt>
      <trkpt lat="47.86586" lon="6.90907">
        <ele>1048</ele>
        <time>2026-05-09T08:23:14.512Z</time>
      </trkpt>
      <trkpt lat="47.86587" lon="6.90906">
        <ele>1048</ele>
        <time>2026-05-09T08:23:15.513Z</time>
      </trkpt>
      <trkpt lat="47.86588" lon="6.90906">
        <ele>1048</ele>
        <time>2026-05-09T08:23:16.512Z</time>
      </trkpt>
      <trkpt lat="47.8659" lon="6.90906">
        <ele>1048</ele>
        <time>2026-05-09T08:23:17.513Z</time>
      </trkpt>
      <trkpt lat="47.86592" lon="6.90905">
        <ele>1048</ele>
        <time>2026-05-09T08:23:18.512Z</time>
      </trkpt>
      <trkpt lat="47.86593" lon="6.90905">
        <ele>1047</ele>
        <time>2026-05-09T08:23:19.513Z</time>
      </trkpt>
      <trkpt lat="47.86594" lon="6.90904">
        <ele>1047</ele>
        <time>2026-05-09T08:23:20.512Z</time>
      </trkpt>
      <trkpt lat="47.86595" lon="6.90903">
        <ele>1047</ele>
        <time>2026-05-09T08:23:21.513Z</time>
      </trkpt>
      <trkpt lat="47.86597" lon="6.90903">
        <ele>1047</ele>
        <time>2026-05-09T08:23:22.512Z</time>
      </trkpt>
      <trkpt lat="47.86599" lon="6.90902">
        <ele>1047</ele>
        <time>2026-05-09T08:23:23.513Z</time>
      </trkpt>
      <trkpt lat="47.86601" lon="6.90901">
        <ele>1047</ele>
        <time>2026-05-09T08:23:24.513Z</time>
      </trkpt>
      <trkpt lat="47.86602" lon="6.909">
        <ele>1048</ele>
        <time>2026-05-09T08:23:25.513Z</time>
      </trkpt>
      <trkpt lat="47.86604" lon="6.90899">
        <ele>1048</ele>
        <time>2026-05-09T08:23:26.513Z</time>
      </trkpt>
      <trkpt lat="47.86604" lon="6.90899">
        <ele>1048</ele>
        <time>2026-05-09T08:23:27.512Z</time>
      </trkpt>
      <trkpt lat="47.86605" lon="6.90898">
        <ele>1048</ele>
        <time>2026-05-09T08:23:28.513Z</time>
      </trkpt>
      <trkpt lat="47.86606" lon="6.90898">
        <ele>1048</ele>
        <time>2026-05-09T08:23:29.512Z</time>
      </trkpt>
      <trkpt lat="47.86606" lon="6.90897">
        <ele>1048</ele>
        <time>2026-05-09T08:23:30.513Z</time>
      </trkpt>
      <trkpt lat="47.86607" lon="6.90897">
        <ele>1048</ele>
        <time>2026-05-09T08:23:31.512Z</time>
      </trkpt>
      <trkpt lat="47.86608" lon="6.90897">
        <ele>1048</ele>
        <time>2026-05-09T08:23:32.513Z</time>
      </trkpt>
      <trkpt lat="47.86609" lon="6.90898">
        <ele>1048</ele>
        <time>2026-05-09T08:23:33.512Z</time>
      </trkpt>
      <trkpt lat="47.86609" lon="6.90899">
        <ele>1048</ele>
        <time>2026-05-09T08:23:34.512Z</time>
      </trkpt>
      <trkpt lat="47.86609" lon="6.909">
        <ele>1048</ele>
        <time>2026-05-09T08:23:35.512Z</time>
      </trkpt>
      <trkpt lat="47.8661" lon="6.909">
        <ele>1048</ele>
        <time>2026-05-09T08:23:36.513Z</time>
      </trkpt>
      <trkpt lat="47.8661" lon="6.909">
        <ele>1048</ele>
        <time>2026-05-09T08:23:37.512Z</time>
      </trkpt>
      <trkpt lat="47.8661" lon="6.909">
        <ele>1048</ele>
        <time>2026-05-09T08:23:38.513Z</time>
      </trkpt>
      <trkpt lat="47.86614" lon="6.909">
        <ele>1048</ele>
        <time>2026-05-09T08:23:44.782Z</time>
      </trkpt>
      <trkpt lat="47.86615" lon="6.90899">
        <ele>1048</ele>
        <time>2026-05-09T08:23:45.782Z</time>
      </trkpt>
      <trkpt lat="47.86615" lon="6.90899">
        <ele>1048</ele>
        <time>2026-05-09T08:23:46.783Z</time>
      </trkpt>
      <trkpt lat="47.86616" lon="6.90899">
        <ele>1047</ele>
        <time>2026-05-09T08:23:47.783Z</time>
      </trkpt>
      <trkpt lat="47.86618" lon="6.90897">
        <ele>1047</ele>
        <time>2026-05-09T08:23:48.783Z</time>
      </trkpt>
      <trkpt lat="47.8662" lon="6.90896">
        <ele>1047</ele>
        <time>2026-05-09T08:23:49.782Z</time>
      </trkpt>
      <trkpt lat="47.86621" lon="6.90896">
        <ele>1047</ele>
        <time>2026-05-09T08:23:50.782Z</time>
      </trkpt>
      <trkpt lat="47.86622" lon="6.90895">
        <ele>1047</ele>
        <time>2026-05-09T08:23:51.783Z</time>
      </trkpt>
      <trkpt lat="47.86624" lon="6.90895">
        <ele>1047</ele>
        <time>2026-05-09T08:23:52.782Z</time>
      </trkpt>
      <trkpt lat="47.86624" lon="6.90894">
        <ele>1047</ele>
        <time>2026-05-09T08:23:53.783Z</time>
      </trkpt>
      <trkpt lat="47.86625" lon="6.90894">
        <ele>1047</ele>
        <time>2026-05-09T08:23:54.783Z</time>
      </trkpt>
      <trkpt lat="47.86626" lon="6.90894">
        <ele>1047</ele>
        <time>2026-05-09T08:23:55.783Z</time>
      </trkpt>
      <trkpt lat="47.86627" lon="6.90893">
        <ele>1047</ele>
        <time>2026-05-09T08:23:56.782Z</time>
      </trkpt>
      <trkpt lat="47.86627" lon="6.90893">
        <ele>1048</ele>
        <time>2026-05-09T08:23:57.782Z</time>
      </trkpt>
      <trkpt lat="47.86628" lon="6.90892">
        <ele>1048</ele>
        <time>2026-05-09T08:23:58.782Z</time>
      </trkpt>
      <trkpt lat="47.86628" lon="6.90891">
        <ele>1048</ele>
        <time>2026-05-09T08:23:59.783Z</time>
      </trkpt>
      <trkpt lat="47.86629" lon="6.9089">
        <ele>1049</ele>
        <time>2026-05-09T08:24:00.783Z</time>
      </trkpt>
      <trkpt lat="47.8663" lon="6.9089">
        <ele>1049</ele>
        <time>2026-05-09T08:24:01.783Z</time>
      </trkpt>
      <trkpt lat="47.86631" lon="6.90889">
        <ele>1049</ele>
        <time>2026-05-09T08:24:02.782Z</time>
      </trkpt>
      <trkpt lat="47.86632" lon="6.90888">
        <ele>1050</ele>
        <time>2026-05-09T08:24:03.782Z</time>
      </trkpt>
      <trkpt lat="47.86632" lon="6.90887">
        <ele>1050</ele>
        <time>2026-05-09T08:24:04.782Z</time>
      </trkpt>
      <trkpt lat="47.86633" lon="6.90887">
        <ele>1050</ele>
        <time>2026-05-09T08:24:05.783Z</time>
      </trkpt>
      <trkpt lat="47.86634" lon="6.90886">
        <ele>1050</ele>
        <time>2026-05-09T08:24:06.782Z</time>
      </trkpt>
      <trkpt lat="47.86636" lon="6.90886">
        <ele>1050</ele>
        <time>2026-05-09T08:24:07.783Z</time>
      </trkpt>
      <trkpt lat="47.86637" lon="6.90886">
        <ele>1050</ele>
        <time>2026-05-09T08:24:08.783Z</time>
      </trkpt>
      <trkpt lat="47.86637" lon="6.90885">
        <ele>1050</ele>
        <time>2026-05-09T08:24:09.783Z</time>
      </trkpt>
      <trkpt lat="47.86638" lon="6.90885">
        <ele>1050</ele>
        <time>2026-05-09T08:24:10.782Z</time>
      </trkpt>
      <trkpt lat="47.86639" lon="6.90885">
        <ele>1050</ele>
        <time>2026-05-09T08:24:11.782Z</time>
      </trkpt>
      <trkpt lat="47.86641" lon="6.90886">
        <ele>1050</ele>
        <time>2026-05-09T08:24:12.782Z</time>
      </trkpt>
      <trkpt lat="47.86643" lon="6.90886">
        <ele>1050</ele>
        <time>2026-05-09T08:24:13.782Z</time>
      </trkpt>
      <trkpt lat="47.86644" lon="6.90885">
        <ele>1050</ele>
        <time>2026-05-09T08:24:14.782Z</time>
      </trkpt>
      <trkpt lat="47.86645" lon="6.90885">
        <ele>1050</ele>
        <time>2026-05-09T08:24:15.782Z</time>
      </trkpt>
      <trkpt lat="47.86646" lon="6.90884">
        <ele>1051</ele>
        <time>2026-05-09T08:24:16.783Z</time>
      </trkpt>
      <trkpt lat="47.86647" lon="6.90883">
        <ele>1051</ele>
        <time>2026-05-09T08:24:17.783Z</time>
      </trkpt>
      <trkpt lat="47.86648" lon="6.90882">
        <ele>1051</ele>
        <time>2026-05-09T08:24:18.782Z</time>
      </trkpt>
      <trkpt lat="47.86648" lon="6.90882">
        <ele>1051</ele>
        <time>2026-05-09T08:24:19.783Z</time>
      </trkpt>
      <trkpt lat="47.86649" lon="6.90883">
        <ele>1052</ele>
        <time>2026-05-09T08:24:20.783Z</time>
      </trkpt>
      <trkpt lat="47.86649" lon="6.90883">
        <ele>1052</ele>
        <time>2026-05-09T08:24:21.782Z</time>
      </trkpt>
      <trkpt lat="47.86657" lon="6.90884">
        <ele>1054</ele>
        <time>2026-05-09T08:24:28.149Z</time>
      </trkpt>
      <trkpt lat="47.86658" lon="6.90884">
        <ele>1054</ele>
        <time>2026-05-09T08:24:29.149Z</time>
      </trkpt>
      <trkpt lat="47.86659" lon="6.90884">
        <ele>1055</ele>
        <time>2026-05-09T08:24:30.150Z</time>
      </trkpt>
      <trkpt lat="47.8666" lon="6.90884">
        <ele>1055</ele>
        <time>2026-05-09T08:24:31.150Z</time>
      </trkpt>
      <trkpt lat="47.86661" lon="6.90884">
        <ele>1055</ele>
        <time>2026-05-09T08:24:32.149Z</time>
      </trkpt>
      <trkpt lat="47.86661" lon="6.90883">
        <ele>1056</ele>
        <time>2026-05-09T08:24:33.149Z</time>
      </trkpt>
      <trkpt lat="47.86662" lon="6.90883">
        <ele>1056</ele>
        <time>2026-05-09T08:24:34.149Z</time>
      </trkpt>
      <trkpt lat="47.86663" lon="6.90884">
        <ele>1057</ele>
        <time>2026-05-09T08:24:35.149Z</time>
      </trkpt>
      <trkpt lat="47.86664" lon="6.90884">
        <ele>1057</ele>
        <time>2026-05-09T08:24:36.150Z</time>
      </trkpt>
      <trkpt lat="47.86665" lon="6.90885">
        <ele>1057</ele>
        <time>2026-05-09T08:24:37.149Z</time>
      </trkpt>
      <trkpt lat="47.86666" lon="6.90886">
        <ele>1058</ele>
        <time>2026-05-09T08:24:38.149Z</time>
      </trkpt>
      <trkpt lat="47.86667" lon="6.90886">
        <ele>1058</ele>
        <time>2026-05-09T08:24:39.149Z</time>
      </trkpt>
      <trkpt lat="47.86668" lon="6.90887">
        <ele>1058</ele>
        <time>2026-05-09T08:24:40.149Z</time>
      </trkpt>
      <trkpt lat="47.86669" lon="6.90888">
        <ele>1059</ele>
        <time>2026-05-09T08:24:41.149Z</time>
      </trkpt>
      <trkpt lat="47.86671" lon="6.9089">
        <ele>1059</ele>
        <time>2026-05-09T08:24:42.149Z</time>
      </trkpt>
      <trkpt lat="47.86672" lon="6.90891">
        <ele>1059</ele>
        <time>2026-05-09T08:24:43.150Z</time>
      </trkpt>
      <trkpt lat="47.86673" lon="6.90892">
        <ele>1059</ele>
        <time>2026-05-09T08:24:44.149Z</time>
      </trkpt>
      <trkpt lat="47.86675" lon="6.90893">
        <ele>1060</ele>
        <time>2026-05-09T08:24:45.150Z</time>
      </trkpt>
      <trkpt lat="47.86675" lon="6.90895">
        <ele>1060</ele>
        <time>2026-05-09T08:24:46.149Z</time>
      </trkpt>
      <trkpt lat="47.86676" lon="6.90897">
        <ele>1061</ele>
        <time>2026-05-09T08:24:47.150Z</time>
      </trkpt>
      <trkpt lat="47.86678" lon="6.90899">
        <ele>1061</ele>
        <time>2026-05-09T08:24:48.150Z</time>
      </trkpt>
      <trkpt lat="47.8668" lon="6.90901">
        <ele>1062</ele>
        <time>2026-05-09T08:24:49.149Z</time>
      </trkpt>
      <trkpt lat="47.86682" lon="6.90902">
        <ele>1062</ele>
        <time>2026-05-09T08:24:50.149Z</time>
      </trkpt>
      <trkpt lat="47.86685" lon="6.90903">
        <ele>1062</ele>
        <time>2026-05-09T08:24:51.150Z</time>
      </trkpt>
      <trkpt lat="47.86687" lon="6.90904">
        <ele>1062</ele>
        <time>2026-05-09T08:24:52.149Z</time>
      </trkpt>
      <trkpt lat="47.86689" lon="6.90904">
        <ele>1061</ele>
        <time>2026-05-09T08:24:53.149Z</time>
      </trkpt>
      <trkpt lat="47.86689" lon="6.90905">
        <ele>1061</ele>
        <time>2026-05-09T08:24:54.150Z</time>
      </trkpt>
      <trkpt lat="47.8669" lon="6.90905">
        <ele>1061</ele>
        <time>2026-05-09T08:24:55.149Z</time>
      </trkpt>
      <trkpt lat="47.8669" lon="6.90906">
        <ele>1060</ele>
        <time>2026-05-09T08:24:56.149Z</time>
      </trkpt>
      <trkpt lat="47.8669" lon="6.90907">
        <ele>1060</ele>
        <time>2026-05-09T08:24:57.149Z</time>
      </trkpt>
      <trkpt lat="47.8669" lon="6.90907">
        <ele>1060</ele>
        <time>2026-05-09T08:24:58.149Z</time>
      </trkpt>
      <trkpt lat="47.86691" lon="6.90906">
        <ele>1059</ele>
        <time>2026-05-09T08:24:59.149Z</time>
      </trkpt>
      <trkpt lat="47.86691" lon="6.90907">
        <ele>1059</ele>
        <time>2026-05-09T08:25:00.150Z</time>
      </trkpt>
      <trkpt lat="47.86692" lon="6.90907">
        <ele>1059</ele>
        <time>2026-05-09T08:25:01.149Z</time>
      </trkpt>
      <trkpt lat="47.86692" lon="6.90907">
        <ele>1059</ele>
        <time>2026-05-09T08:25:02.149Z</time>
      </trkpt>
      <trkpt lat="47.86693" lon="6.90909">
        <ele>1059</ele>
        <time>2026-05-09T08:25:03.149Z</time>
      </trkpt>
      <trkpt lat="47.86693" lon="6.90909">
        <ele>1059</ele>
        <time>2026-05-09T08:25:04.149Z</time>
      </trkpt>
      <trkpt lat="47.86694" lon="6.9091">
        <ele>1058</ele>
        <time>2026-05-09T08:25:05.150Z</time>
      </trkpt>
      <trkpt lat="47.86695" lon="6.90911">
        <ele>1058</ele>
        <time>2026-05-09T08:25:06.149Z</time>
      </trkpt>
      <trkpt lat="47.86695" lon="6.90912">
        <ele>1058</ele>
        <time>2026-05-09T08:25:07.150Z</time>
      </trkpt>
      <trkpt lat="47.86696" lon="6.90913">
        <ele>1058</ele>
        <time>2026-05-09T08:25:08.149Z</time>
      </trkpt>
      <trkpt lat="47.86697" lon="6.90914">
        <ele>1059</ele>
        <time>2026-05-09T08:25:09.149Z</time>
      </trkpt>
      <trkpt lat="47.86697" lon="6.90915">
        <ele>1059</ele>
        <time>2026-05-09T08:25:10.150Z</time>
      </trkpt>
      <trkpt lat="47.86698" lon="6.90915">
        <ele>1059</ele>
        <time>2026-05-09T08:25:11.149Z</time>
      </trkpt>
      <trkpt lat="47.86698" lon="6.90915">
        <ele>1059</ele>
        <time>2026-05-09T08:25:12.149Z</time>
      </trkpt>
      <trkpt lat="47.86697" lon="6.90915">
        <ele>1060</ele>
        <time>2026-05-09T08:25:13.149Z</time>
      </trkpt>
      <trkpt lat="47.86697" lon="6.90915">
        <ele>1061</ele>
        <time>2026-05-09T08:25:14.149Z</time>
      </trkpt>
      <trkpt lat="47.86699" lon="6.9092">
        <ele>1061</ele>
        <time>2026-05-09T08:25:19.613Z</time>
      </trkpt>
      <trkpt lat="47.86699" lon="6.90922">
        <ele>1060</ele>
        <time>2026-05-09T08:25:20.612Z</time>
      </trkpt>
      <trkpt lat="47.86699" lon="6.90924">
        <ele>1060</ele>
        <time>2026-05-09T08:25:21.613Z</time>
      </trkpt>
      <trkpt lat="47.867" lon="6.90925">
        <ele>1059</ele>
        <time>2026-05-09T08:25:22.612Z</time>
      </trkpt>
      <trkpt lat="47.867" lon="6.90926">
        <ele>1059</ele>
        <time>2026-05-09T08:25:23.612Z</time>
      </trkpt>
      <trkpt lat="47.867" lon="6.90927">
        <ele>1058</ele>
        <time>2026-05-09T08:25:24.612Z</time>
      </trkpt>
      <trkpt lat="47.867" lon="6.90929">
        <ele>1058</ele>
        <time>2026-05-09T08:25:25.613Z</time>
      </trkpt>
      <trkpt lat="47.86701" lon="6.90931">
        <ele>1058</ele>
        <time>2026-05-09T08:25:26.612Z</time>
      </trkpt>
      <trkpt lat="47.86701" lon="6.90932">
        <ele>1057</ele>
        <time>2026-05-09T08:25:27.613Z</time>
      </trkpt>
      <trkpt lat="47.867" lon="6.90932">
        <ele>1057</ele>
        <time>2026-05-09T08:25:28.613Z</time>
      </trkpt>
      <trkpt lat="47.86701" lon="6.90934">
        <ele>1057</ele>
        <time>2026-05-09T08:25:29.613Z</time>
      </trkpt>
      <trkpt lat="47.86701" lon="6.90935">
        <ele>1057</ele>
        <time>2026-05-09T08:25:30.613Z</time>
      </trkpt>
      <trkpt lat="47.86701" lon="6.90936">
        <ele>1057</ele>
        <time>2026-05-09T08:25:31.612Z</time>
      </trkpt>
      <trkpt lat="47.86701" lon="6.90938">
        <ele>1057</ele>
        <time>2026-05-09T08:25:32.612Z</time>
      </trkpt>
      <trkpt lat="47.86702" lon="6.90941">
        <ele>1056</ele>
        <time>2026-05-09T08:25:33.612Z</time>
      </trkpt>
      <trkpt lat="47.86702" lon="6.90943">
        <ele>1056</ele>
        <time>2026-05-09T08:25:34.613Z</time>
      </trkpt>
      <trkpt lat="47.86703" lon="6.90945">
        <ele>1056</ele>
        <time>2026-05-09T08:25:35.612Z</time>
      </trkpt>
      <trkpt lat="47.86703" lon="6.90947">
        <ele>1055</ele>
        <time>2026-05-09T08:25:36.613Z</time>
      </trkpt>
      <trkpt lat="47.86704" lon="6.90949">
        <ele>1054</ele>
        <time>2026-05-09T08:25:37.612Z</time>
      </trkpt>
      <trkpt lat="47.86705" lon="6.90951">
        <ele>1054</ele>
        <time>2026-05-09T08:25:38.613Z</time>
      </trkpt>
      <trkpt lat="47.86706" lon="6.90954">
        <ele>1053</ele>
        <time>2026-05-09T08:25:39.612Z</time>
      </trkpt>
      <trkpt lat="47.86706" lon="6.90957">
        <ele>1053</ele>
        <time>2026-05-09T08:25:40.613Z</time>
      </trkpt>
      <trkpt lat="47.86707" lon="6.90959">
        <ele>1053</ele>
        <time>2026-05-09T08:25:41.612Z</time>
      </trkpt>
      <trkpt lat="47.86708" lon="6.90962">
        <ele>1052</ele>
        <time>2026-05-09T08:25:42.613Z</time>
      </trkpt>
      <trkpt lat="47.86709" lon="6.90963">
        <ele>1052</ele>
        <time>2026-05-09T08:25:43.612Z</time>
      </trkpt>
      <trkpt lat="47.8671" lon="6.90965">
        <ele>1052</ele>
        <time>2026-05-09T08:25:44.613Z</time>
      </trkpt>
      <trkpt lat="47.86711" lon="6.90966">
        <ele>1051</ele>
        <time>2026-05-09T08:25:45.613Z</time>
      </trkpt>
      <trkpt lat="47.86711" lon="6.90967">
        <ele>1050</ele>
        <time>2026-05-09T08:25:46.612Z</time>
      </trkpt>
      <trkpt lat="47.86711" lon="6.90969">
        <ele>1050</ele>
        <time>2026-05-09T08:25:47.613Z</time>
      </trkpt>
      <trkpt lat="47.86712" lon="6.9097">
        <ele>1049</ele>
        <time>2026-05-09T08:25:48.612Z</time>
      </trkpt>
      <trkpt lat="47.86713" lon="6.90971">
        <ele>1048</ele>
        <time>2026-05-09T08:25:49.613Z</time>
      </trkpt>
      <trkpt lat="47.86714" lon="6.90973">
        <ele>1048</ele>
        <time>2026-05-09T08:25:50.612Z</time>
      </trkpt>
      <trkpt lat="47.86716" lon="6.90976">
        <ele>1048</ele>
        <time>2026-05-09T08:25:51.612Z</time>
      </trkpt>
      <trkpt lat="47.86717" lon="6.90978">
        <ele>1047</ele>
        <time>2026-05-09T08:25:52.612Z</time>
      </trkpt>
      <trkpt lat="47.86718" lon="6.9098">
        <ele>1048</ele>
        <time>2026-05-09T08:25:53.613Z</time>
      </trkpt>
      <trkpt lat="47.86718" lon="6.90982">
        <ele>1048</ele>
        <time>2026-05-09T08:25:54.612Z</time>
      </trkpt>
      <trkpt lat="47.86719" lon="6.90983">
        <ele>1048</ele>
        <time>2026-05-09T08:25:55.613Z</time>
      </trkpt>
      <trkpt lat="47.8672" lon="6.90985">
        <ele>1048</ele>
        <time>2026-05-09T08:25:56.612Z</time>
      </trkpt>
      <trkpt lat="47.86721" lon="6.90987">
        <ele>1048</ele>
        <time>2026-05-09T08:25:57.613Z</time>
      </trkpt>
      <trkpt lat="47.86721" lon="6.90989">
        <ele>1048</ele>
        <time>2026-05-09T08:25:58.612Z</time>
      </trkpt>
      <trkpt lat="47.86722" lon="6.90991">
        <ele>1048</ele>
        <time>2026-05-09T08:25:59.613Z</time>
      </trkpt>
      <trkpt lat="47.86722" lon="6.90992">
        <ele>1048</ele>
        <time>2026-05-09T08:26:00.613Z</time>
      </trkpt>
      <trkpt lat="47.86724" lon="6.90993">
        <ele>1049</ele>
        <time>2026-05-09T08:26:01.613Z</time>
      </trkpt>
      <trkpt lat="47.86725" lon="6.90995">
        <ele>1049</ele>
        <time>2026-05-09T08:26:02.613Z</time>
      </trkpt>
      <trkpt lat="47.86727" lon="6.90997">
        <ele>1049</ele>
        <time>2026-05-09T08:26:03.612Z</time>
      </trkpt>
      <trkpt lat="47.86729" lon="6.90999">
        <ele>1049</ele>
        <time>2026-05-09T08:26:04.613Z</time>
      </trkpt>
      <trkpt lat="47.8673" lon="6.91001">
        <ele>1050</ele>
        <time>2026-05-09T08:26:05.612Z</time>
      </trkpt>
      <trkpt lat="47.86731" lon="6.91002">
        <ele>1050</ele>
        <time>2026-05-09T08:26:06.613Z</time>
      </trkpt>
      <trkpt lat="47.86733" lon="6.91004">
        <ele>1050</ele>
        <time>2026-05-09T08:26:07.612Z</time>
      </trkpt>
      <trkpt lat="47.86734" lon="6.91006">
        <ele>1051</ele>
        <time>2026-05-09T08:26:08.613Z</time>
      </trkpt>
      <trkpt lat="47.86735" lon="6.91007">
        <ele>1051</ele>
        <time>2026-05-09T08:26:09.612Z</time>
      </trkpt>
      <trkpt lat="47.86737" lon="6.91009">
        <ele>1051</ele>
        <time>2026-05-09T08:26:10.613Z</time>
      </trkpt>
      <trkpt lat="47.86739" lon="6.9101">
        <ele>1051</ele>
        <time>2026-05-09T08:26:11.612Z</time>
      </trkpt>
      <trkpt lat="47.86741" lon="6.91011">
        <ele>1051</ele>
        <time>2026-05-09T08:26:12.612Z</time>
      </trkpt>
      <trkpt lat="47.86742" lon="6.91013">
        <ele>1051</ele>
        <time>2026-05-09T08:26:13.612Z</time>
      </trkpt>
      <trkpt lat="47.86744" lon="6.91014">
        <ele>1050</ele>
        <time>2026-05-09T08:26:14.613Z</time>
      </trkpt>
      <trkpt lat="47.86745" lon="6.91015">
        <ele>1050</ele>
        <time>2026-05-09T08:26:15.612Z</time>
      </trkpt>
      <trkpt lat="47.86747" lon="6.91018">
        <ele>1050</ele>
        <time>2026-05-09T08:26:16.613Z</time>
      </trkpt>
      <trkpt lat="47.8675" lon="6.9102">
        <ele>1049</ele>
        <time>2026-05-09T08:26:17.613Z</time>
      </trkpt>
      <trkpt lat="47.86752" lon="6.9102">
        <ele>1049</ele>
        <time>2026-05-09T08:26:18.613Z</time>
      </trkpt>
      <trkpt lat="47.86753" lon="6.91022">
        <ele>1048</ele>
        <time>2026-05-09T08:26:19.613Z</time>
      </trkpt>
      <trkpt lat="47.86757" lon="6.91026">
        <ele>1048</ele>
        <time>2026-05-09T08:26:20.612Z</time>
      </trkpt>
      <trkpt lat="47.8676" lon="6.9103">
        <ele>1048</ele>
        <time>2026-05-09T08:26:21.613Z</time>
      </trkpt>
      <trkpt lat="47.86762" lon="6.91031">
        <ele>1048</ele>
        <time>2026-05-09T08:26:22.612Z</time>
      </trkpt>
      <trkpt lat="47.86764" lon="6.91033">
        <ele>1048</ele>
        <time>2026-05-09T08:26:23.613Z</time>
      </trkpt>
      <trkpt lat="47.86766" lon="6.9103">
        <ele>1049</ele>
        <time>2026-05-09T08:26:24.612Z</time>
      </trkpt>
      <trkpt lat="47.86767" lon="6.91034">
        <ele>1049</ele>
        <time>2026-05-09T08:26:25.612Z</time>
      </trkpt>
      <trkpt lat="47.86769" lon="6.91036">
        <ele>1049</ele>
        <time>2026-05-09T08:26:26.612Z</time>
      </trkpt>
      <trkpt lat="47.8677" lon="6.91037">
        <ele>1050</ele>
        <time>2026-05-09T08:26:27.613Z</time>
      </trkpt>
      <trkpt lat="47.86772" lon="6.91039">
        <ele>1050</ele>
        <time>2026-05-09T08:26:28.612Z</time>
      </trkpt>
      <trkpt lat="47.86774" lon="6.91037">
        <ele>1050</ele>
        <time>2026-05-09T08:26:29.613Z</time>
      </trkpt>
      <trkpt lat="47.86776" lon="6.91032">
        <ele>1050</ele>
        <time>2026-05-09T08:26:30.612Z</time>
      </trkpt>
      <trkpt lat="47.86777" lon="6.91031">
        <ele>1050</ele>
        <time>2026-05-09T08:26:31.613Z</time>
      </trkpt>
      <trkpt lat="47.86779" lon="6.9103">
        <ele>1050</ele>
        <time>2026-05-09T08:26:32.613Z</time>
      </trkpt>
      <trkpt lat="47.86781" lon="6.9103">
        <ele>1050</ele>
        <time>2026-05-09T08:26:33.613Z</time>
      </trkpt>
      <trkpt lat="47.86782" lon="6.91031">
        <ele>1051</ele>
        <time>2026-05-09T08:26:34.613Z</time>
      </trkpt>
      <trkpt lat="47.86784" lon="6.91032">
        <ele>1051</ele>
        <time>2026-05-09T08:26:35.612Z</time>
      </trkpt>
      <trkpt lat="47.86786" lon="6.91032">
        <ele>1051</ele>
        <time>2026-05-09T08:26:36.613Z</time>
      </trkpt>
      <trkpt lat="47.86787" lon="6.91032">
        <ele>1051</ele>
        <time>2026-05-09T08:26:37.612Z</time>
      </trkpt>
      <trkpt lat="47.86789" lon="6.91032">
        <ele>1051</ele>
        <time>2026-05-09T08:26:38.613Z</time>
      </trkpt>
      <trkpt lat="47.86791" lon="6.91033">
        <ele>1052</ele>
        <time>2026-05-09T08:26:39.612Z</time>
      </trkpt>
      <trkpt lat="47.86788" lon="6.91035">
        <ele>1052</ele>
        <time>2026-05-09T08:26:40.613Z</time>
      </trkpt>
      <trkpt lat="47.86789" lon="6.91035">
        <ele>1052</ele>
        <time>2026-05-09T08:26:41.613Z</time>
      </trkpt>
      <trkpt lat="47.86791" lon="6.91036">
        <ele>1053</ele>
        <time>2026-05-09T08:26:42.613Z</time>
      </trkpt>
      <trkpt lat="47.86791" lon="6.91036">
        <ele>1053</ele>
        <time>2026-05-09T08:26:43.612Z</time>
      </trkpt>
      <trkpt lat="47.86788" lon="6.91037">
        <ele>1054</ele>
        <time>2026-05-09T08:26:44.613Z</time>
      </trkpt>
      <trkpt lat="47.86783" lon="6.91037">
        <ele>1054</ele>
        <time>2026-05-09T08:26:45.612Z</time>
      </trkpt>
      <trkpt lat="47.86779" lon="6.91038">
        <ele>1054</ele>
        <time>2026-05-09T08:26:46.613Z</time>
      </trkpt>
      <trkpt lat="47.86779" lon="6.91038">
        <ele>1055</ele>
        <time>2026-05-09T08:26:47.612Z</time>
      </trkpt>
      <trkpt lat="47.86778" lon="6.91038">
        <ele>1055</ele>
        <time>2026-05-09T08:26:48.612Z</time>
      </trkpt>
      <trkpt lat="47.8678" lon="6.91039">
        <ele>1058</ele>
        <time>2026-05-09T08:27:01.866Z</time>
      </trkpt>
      <trkpt lat="47.8678" lon="6.9104">
        <ele>1058</ele>
        <time>2026-05-09T08:27:02.866Z</time>
      </trkpt>
      <trkpt lat="47.8678" lon="6.91039">
        <ele>1058</ele>
        <time>2026-05-09T08:27:03.866Z</time>
      </trkpt>
      <trkpt lat="47.8678" lon="6.9104">
        <ele>1058</ele>
        <time>2026-05-09T08:27:04.867Z</time>
      </trkpt>
      <trkpt lat="47.8678" lon="6.9104">
        <ele>1058</ele>
        <time>2026-05-09T08:27:05.867Z</time>
      </trkpt>
      <trkpt lat="47.8678" lon="6.9104">
        <ele>1058</ele>
        <time>2026-05-09T08:27:06.867Z</time>
      </trkpt>
      <trkpt lat="47.86781" lon="6.9104">
        <ele>1057</ele>
        <time>2026-05-09T08:27:07.867Z</time>
      </trkpt>
      <trkpt lat="47.86781" lon="6.91041">
        <ele>1057</ele>
        <time>2026-05-09T08:27:08.866Z</time>
      </trkpt>
      <trkpt lat="47.86781" lon="6.91041">
        <ele>1057</ele>
        <time>2026-05-09T08:27:09.866Z</time>
      </trkpt>
      <trkpt lat="47.86782" lon="6.91043">
        <ele>1056</ele>
        <time>2026-05-09T08:27:10.866Z</time>
      </trkpt>
      <trkpt lat="47.86783" lon="6.91045">
        <ele>1056</ele>
        <time>2026-05-09T08:27:11.866Z</time>
      </trkpt>
      <trkpt lat="47.86783" lon="6.91046">
        <ele>1056</ele>
        <time>2026-05-09T08:27:12.867Z</time>
      </trkpt>
      <trkpt lat="47.86783" lon="6.91047">
        <ele>1055</ele>
        <time>2026-05-09T08:27:13.867Z</time>
      </trkpt>
      <trkpt lat="47.86783" lon="6.91047">
        <ele>1055</ele>
        <time>2026-05-09T08:27:14.867Z</time>
      </trkpt>
      <trkpt lat="47.86784" lon="6.91048">
        <ele>1055</ele>
        <time>2026-05-09T08:27:15.866Z</time>
      </trkpt>
      <trkpt lat="47.86785" lon="6.91049">
        <ele>1055</ele>
        <time>2026-05-09T08:27:16.867Z</time>
      </trkpt>
      <trkpt lat="47.86786" lon="6.9105">
        <ele>1055</ele>
        <time>2026-05-09T08:27:17.866Z</time>
      </trkpt>
      <trkpt lat="47.86788" lon="6.91052">
        <ele>1055</ele>
        <time>2026-05-09T08:27:18.866Z</time>
      </trkpt>
      <trkpt lat="47.86789" lon="6.91053">
        <ele>1055</ele>
        <time>2026-05-09T08:27:19.866Z</time>
      </trkpt>
      <trkpt lat="47.8679" lon="6.91054">
        <ele>1055</ele>
        <time>2026-05-09T08:27:20.866Z</time>
      </trkpt>
      <trkpt lat="47.86792" lon="6.91055">
        <ele>1055</ele>
        <time>2026-05-09T08:27:21.867Z</time>
      </trkpt>
      <trkpt lat="47.86793" lon="6.91055">
        <ele>1055</ele>
        <time>2026-05-09T08:27:22.867Z</time>
      </trkpt>
      <trkpt lat="47.86794" lon="6.91055">
        <ele>1054</ele>
        <time>2026-05-09T08:27:23.867Z</time>
      </trkpt>
      <trkpt lat="47.86794" lon="6.91056">
        <ele>1054</ele>
        <time>2026-05-09T08:27:24.866Z</time>
      </trkpt>
      <trkpt lat="47.86794" lon="6.91056">
        <ele>1054</ele>
        <time>2026-05-09T08:27:25.866Z</time>
      </trkpt>
      <trkpt lat="47.86794" lon="6.91057">
        <ele>1054</ele>
        <time>2026-05-09T08:27:26.866Z</time>
      </trkpt>
      <trkpt lat="47.86795" lon="6.91058">
        <ele>1053</ele>
        <time>2026-05-09T08:27:27.866Z</time>
      </trkpt>
      <trkpt lat="47.86796" lon="6.91059">
        <ele>1053</ele>
        <time>2026-05-09T08:27:28.866Z</time>
      </trkpt>
      <trkpt lat="47.86797" lon="6.9106">
        <ele>1052</ele>
        <time>2026-05-09T08:27:29.866Z</time>
      </trkpt>
      <trkpt lat="47.86798" lon="6.91061">
        <ele>1052</ele>
        <time>2026-05-09T08:27:30.867Z</time>
      </trkpt>
      <trkpt lat="47.86799" lon="6.91061">
        <ele>1051</ele>
        <time>2026-05-09T08:27:31.866Z</time>
      </trkpt>
      <trkpt lat="47.868" lon="6.91062">
        <ele>1051</ele>
        <time>2026-05-09T08:27:32.866Z</time>
      </trkpt>
      <trkpt lat="47.868" lon="6.91062">
        <ele>1050</ele>
        <time>2026-05-09T08:27:33.866Z</time>
      </trkpt>
      <trkpt lat="47.868" lon="6.91063">
        <ele>1050</ele>
        <time>2026-05-09T08:27:34.866Z</time>
      </trkpt>
      <trkpt lat="47.868" lon="6.91063">
        <ele>1050</ele>
        <time>2026-05-09T08:27:35.866Z</time>
      </trkpt>
      <trkpt lat="47.868" lon="6.91064">
        <ele>1049</ele>
        <time>2026-05-09T08:27:36.867Z</time>
      </trkpt>
      <trkpt lat="47.86801" lon="6.91064">
        <ele>1049</ele>
        <time>2026-05-09T08:27:37.867Z</time>
      </trkpt>
      <trkpt lat="47.86801" lon="6.91064">
        <ele>1049</ele>
        <time>2026-05-09T08:27:38.866Z</time>
      </trkpt>
      <trkpt lat="47.86802" lon="6.91064">
        <ele>1048</ele>
        <time>2026-05-09T08:27:39.867Z</time>
      </trkpt>
      <trkpt lat="47.86803" lon="6.91065">
        <ele>1048</ele>
        <time>2026-05-09T08:27:40.866Z</time>
      </trkpt>
      <trkpt lat="47.86802" lon="6.91066">
        <ele>1048</ele>
        <time>2026-05-09T08:27:41.867Z</time>
      </trkpt>
      <trkpt lat="47.86803" lon="6.91067">
        <ele>1048</ele>
        <time>2026-05-09T08:27:42.866Z</time>
      </trkpt>
      <trkpt lat="47.86803" lon="6.91068">
        <ele>1047</ele>
        <time>2026-05-09T08:27:43.867Z</time>
      </trkpt>
      <trkpt lat="47.86803" lon="6.91069">
        <ele>1047</ele>
        <time>2026-05-09T08:27:44.866Z</time>
      </trkpt>
      <trkpt lat="47.86803" lon="6.9107">
        <ele>1047</ele>
        <time>2026-05-09T08:27:45.866Z</time>
      </trkpt>
      <trkpt lat="47.86804" lon="6.91071">
        <ele>1047</ele>
        <time>2026-05-09T08:27:46.866Z</time>
      </trkpt>
      <trkpt lat="47.86804" lon="6.91073">
        <ele>1046</ele>
        <time>2026-05-09T08:27:47.866Z</time>
      </trkpt>
      <trkpt lat="47.86805" lon="6.91075">
        <ele>1046</ele>
        <time>2026-05-09T08:27:48.866Z</time>
      </trkpt>
      <trkpt lat="47.86806" lon="6.91076">
        <ele>1045</ele>
        <time>2026-05-09T08:27:49.866Z</time>
      </trkpt>
      <trkpt lat="47.86806" lon="6.91078">
        <ele>1045</ele>
        <time>2026-05-09T08:27:50.867Z</time>
      </trkpt>
      <trkpt lat="47.86807" lon="6.91079">
        <ele>1045</ele>
        <time>2026-05-09T08:27:51.867Z</time>
      </trkpt>
      <trkpt lat="47.86808" lon="6.91081">
        <ele>1044</ele>
        <time>2026-05-09T08:27:52.866Z</time>
      </trkpt>
      <trkpt lat="47.86809" lon="6.91083">
        <ele>1044</ele>
        <time>2026-05-09T08:27:53.867Z</time>
      </trkpt>
      <trkpt lat="47.8681" lon="6.91084">
        <ele>1044</ele>
        <time>2026-05-09T08:27:54.866Z</time>
      </trkpt>
      <trkpt lat="47.8681" lon="6.91085">
        <ele>1043</ele>
        <time>2026-05-09T08:27:55.866Z</time>
      </trkpt>
      <trkpt lat="47.86811" lon="6.91086">
        <ele>1044</ele>
        <time>2026-05-09T08:27:56.867Z</time>
      </trkpt>
      <trkpt lat="47.86812" lon="6.91086">
        <ele>1044</ele>
        <time>2026-05-09T08:27:57.867Z</time>
      </trkpt>
      <trkpt lat="47.86813" lon="6.91088">
        <ele>1044</ele>
        <time>2026-05-09T08:27:58.866Z</time>
      </trkpt>
      <trkpt lat="47.86813" lon="6.91089">
        <ele>1044</ele>
        <time>2026-05-09T08:27:59.867Z</time>
      </trkpt>
      <trkpt lat="47.86814" lon="6.9109">
        <ele>1044</ele>
        <time>2026-05-09T08:28:00.866Z</time>
      </trkpt>
      <trkpt lat="47.86814" lon="6.9109">
        <ele>1044</ele>
        <time>2026-05-09T08:28:01.866Z</time>
      </trkpt>
      <trkpt lat="47.86814" lon="6.91092">
        <ele>1045</ele>
        <time>2026-05-09T08:28:02.867Z</time>
      </trkpt>
      <trkpt lat="47.86814" lon="6.91093">
        <ele>1045</ele>
        <time>2026-05-09T08:28:03.866Z</time>
      </trkpt>
      <trkpt lat="47.86814" lon="6.91095">
        <ele>1045</ele>
        <time>2026-05-09T08:28:04.866Z</time>
      </trkpt>
      <trkpt lat="47.86814" lon="6.91096">
        <ele>1045</ele>
        <time>2026-05-09T08:28:05.867Z</time>
      </trkpt>
      <trkpt lat="47.86815" lon="6.91098">
        <ele>1045</ele>
        <time>2026-05-09T08:28:06.866Z</time>
      </trkpt>
      <trkpt lat="47.86816" lon="6.91099">
        <ele>1045</ele>
        <time>2026-05-09T08:28:07.867Z</time>
      </trkpt>
      <trkpt lat="47.86816" lon="6.911">
        <ele>1045</ele>
        <time>2026-05-09T08:28:08.866Z</time>
      </trkpt>
      <trkpt lat="47.86817" lon="6.91101">
        <ele>1045</ele>
        <time>2026-05-09T08:28:09.866Z</time>
      </trkpt>
      <trkpt lat="47.86817" lon="6.91102">
        <ele>1045</ele>
        <time>2026-05-09T08:28:10.866Z</time>
      </trkpt>
      <trkpt lat="47.86818" lon="6.91104">
        <ele>1045</ele>
        <time>2026-05-09T08:28:11.866Z</time>
      </trkpt>
      <trkpt lat="47.86818" lon="6.91105">
        <ele>1045</ele>
        <time>2026-05-09T08:28:12.867Z</time>
      </trkpt>
      <trkpt lat="47.86819" lon="6.91107">
        <ele>1045</ele>
        <time>2026-05-09T08:28:13.866Z</time>
      </trkpt>
      <trkpt lat="47.86818" lon="6.91109">
        <ele>1045</ele>
        <time>2026-05-09T08:28:14.867Z</time>
      </trkpt>
      <trkpt lat="47.86818" lon="6.91111">
        <ele>1045</ele>
        <time>2026-05-09T08:28:15.866Z</time>
      </trkpt>
      <trkpt lat="47.86818" lon="6.91113">
        <ele>1045</ele>
        <time>2026-05-09T08:28:16.866Z</time>
      </trkpt>
      <trkpt lat="47.86819" lon="6.91115">
        <ele>1045</ele>
        <time>2026-05-09T08:28:17.866Z</time>
      </trkpt>
      <trkpt lat="47.86819" lon="6.91116">
        <ele>1045</ele>
        <time>2026-05-09T08:28:18.866Z</time>
      </trkpt>
      <trkpt lat="47.8682" lon="6.91117">
        <ele>1045</ele>
        <time>2026-05-09T08:28:19.867Z</time>
      </trkpt>
      <trkpt lat="47.8682" lon="6.91118">
        <ele>1045</ele>
        <time>2026-05-09T08:28:20.867Z</time>
      </trkpt>
      <trkpt lat="47.86821" lon="6.9112">
        <ele>1045</ele>
        <time>2026-05-09T08:28:21.866Z</time>
      </trkpt>
      <trkpt lat="47.86821" lon="6.91122">
        <ele>1046</ele>
        <time>2026-05-09T08:28:22.867Z</time>
      </trkpt>
      <trkpt lat="47.86822" lon="6.91125">
        <ele>1046</ele>
        <time>2026-05-09T08:28:23.866Z</time>
      </trkpt>
      <trkpt lat="47.86822" lon="6.91126">
        <ele>1046</ele>
        <time>2026-05-09T08:28:24.867Z</time>
      </trkpt>
      <trkpt lat="47.86823" lon="6.91128">
        <ele>1046</ele>
        <time>2026-05-09T08:28:25.866Z</time>
      </trkpt>
      <trkpt lat="47.86824" lon="6.9113">
        <ele>1046</ele>
        <time>2026-05-09T08:28:26.866Z</time>
      </trkpt>
      <trkpt lat="47.86824" lon="6.91132">
        <ele>1046</ele>
        <time>2026-05-09T08:28:27.867Z</time>
      </trkpt>
      <trkpt lat="47.86825" lon="6.91133">
        <ele>1046</ele>
        <time>2026-05-09T08:28:28.866Z</time>
      </trkpt>
      <trkpt lat="47.86826" lon="6.91135">
        <ele>1046</ele>
        <time>2026-05-09T08:28:29.866Z</time>
      </trkpt>
      <trkpt lat="47.86827" lon="6.91136">
        <ele>1046</ele>
        <time>2026-05-09T08:28:30.867Z</time>
      </trkpt>
      <trkpt lat="47.86828" lon="6.91137">
        <ele>1047</ele>
        <time>2026-05-09T08:28:31.866Z</time>
      </trkpt>
      <trkpt lat="47.86829" lon="6.91138">
        <ele>1047</ele>
        <time>2026-05-09T08:28:32.866Z</time>
      </trkpt>
      <trkpt lat="47.86831" lon="6.9114">
        <ele>1047</ele>
        <time>2026-05-09T08:28:33.867Z</time>
      </trkpt>
      <trkpt lat="47.86832" lon="6.91142">
        <ele>1047</ele>
        <time>2026-05-09T08:28:34.867Z</time>
      </trkpt>
      <trkpt lat="47.86833" lon="6.91145">
        <ele>1047</ele>
        <time>2026-05-09T08:28:35.866Z</time>
      </trkpt>
      <trkpt lat="47.86833" lon="6.91147">
        <ele>1047</ele>
        <time>2026-05-09T08:28:36.866Z</time>
      </trkpt>
      <trkpt lat="47.86833" lon="6.9115">
        <ele>1048</ele>
        <time>2026-05-09T08:28:37.866Z</time>
      </trkpt>
      <trkpt lat="47.86834" lon="6.91152">
        <ele>1048</ele>
        <time>2026-05-09T08:28:38.866Z</time>
      </trkpt>
      <trkpt lat="47.86834" lon="6.91152">
        <ele>1048</ele>
        <time>2026-05-09T08:28:39.866Z</time>
      </trkpt>
      <trkpt lat="47.86835" lon="6.91154">
        <ele>1048</ele>
        <time>2026-05-09T08:28:40.866Z</time>
      </trkpt>
      <trkpt lat="47.86836" lon="6.91156">
        <ele>1048</ele>
        <time>2026-05-09T08:28:41.866Z</time>
      </trkpt>
      <trkpt lat="47.86837" lon="6.91157">
        <ele>1048</ele>
        <time>2026-05-09T08:28:42.867Z</time>
      </trkpt>
      <trkpt lat="47.86838" lon="6.91159">
        <ele>1048</ele>
        <time>2026-05-09T08:28:43.867Z</time>
      </trkpt>
      <trkpt lat="47.86838" lon="6.9116">
        <ele>1048</ele>
        <time>2026-05-09T08:28:44.867Z</time>
      </trkpt>
      <trkpt lat="47.86838" lon="6.91162">
        <ele>1048</ele>
        <time>2026-05-09T08:28:45.867Z</time>
      </trkpt>
      <trkpt lat="47.86837" lon="6.91163">
        <ele>1048</ele>
        <time>2026-05-09T08:28:46.867Z</time>
      </trkpt>
      <trkpt lat="47.86837" lon="6.91166">
        <ele>1048</ele>
        <time>2026-05-09T08:28:47.866Z</time>
      </trkpt>
      <trkpt lat="47.86838" lon="6.91168">
        <ele>1048</ele>
        <time>2026-05-09T08:28:48.867Z</time>
      </trkpt>
      <trkpt lat="47.86838" lon="6.91171">
        <ele>1048</ele>
        <time>2026-05-09T08:28:49.866Z</time>
      </trkpt>
      <trkpt lat="47.86839" lon="6.91173">
        <ele>1048</ele>
        <time>2026-05-09T08:28:50.866Z</time>
      </trkpt>
      <trkpt lat="47.8684" lon="6.91176">
        <ele>1048</ele>
        <time>2026-05-09T08:28:51.867Z</time>
      </trkpt>
      <trkpt lat="47.86841" lon="6.91178">
        <ele>1048</ele>
        <time>2026-05-09T08:28:52.866Z</time>
      </trkpt>
      <trkpt lat="47.86842" lon="6.9118">
        <ele>1048</ele>
        <time>2026-05-09T08:28:53.867Z</time>
      </trkpt>
      <trkpt lat="47.86843" lon="6.91182">
        <ele>1048</ele>
        <time>2026-05-09T08:28:54.866Z</time>
      </trkpt>
      <trkpt lat="47.86843" lon="6.91184">
        <ele>1048</ele>
        <time>2026-05-09T08:28:55.866Z</time>
      </trkpt>
      <trkpt lat="47.86843" lon="6.91185">
        <ele>1048</ele>
        <time>2026-05-09T08:28:56.866Z</time>
      </trkpt>
      <trkpt lat="47.86844" lon="6.91188">
        <ele>1048</ele>
        <time>2026-05-09T08:28:57.867Z</time>
      </trkpt>
      <trkpt lat="47.86845" lon="6.91191">
        <ele>1048</ele>
        <time>2026-05-09T08:28:58.866Z</time>
      </trkpt>
      <trkpt lat="47.86846" lon="6.91195">
        <ele>1048</ele>
        <time>2026-05-09T08:28:59.866Z</time>
      </trkpt>
      <trkpt lat="47.86846" lon="6.91199">
        <ele>1048</ele>
        <time>2026-05-09T08:29:00.866Z</time>
      </trkpt>
      <trkpt lat="47.86846" lon="6.91203">
        <ele>1048</ele>
        <time>2026-05-09T08:29:01.866Z</time>
      </trkpt>
      <trkpt lat="47.86847" lon="6.91208">
        <ele>1048</ele>
        <time>2026-05-09T08:29:02.867Z</time>
      </trkpt>
      <trkpt lat="47.86849" lon="6.91212">
        <ele>1048</ele>
        <time>2026-05-09T08:29:03.867Z</time>
      </trkpt>
      <trkpt lat="47.86852" lon="6.91216">
        <ele>1047</ele>
        <time>2026-05-09T08:29:04.866Z</time>
      </trkpt>
      <trkpt lat="47.86854" lon="6.91221">
        <ele>1047</ele>
        <time>2026-05-09T08:29:05.866Z</time>
      </trkpt>
      <trkpt lat="47.86856" lon="6.91226">
        <ele>1047</ele>
        <time>2026-05-09T08:29:06.866Z</time>
      </trkpt>
      <trkpt lat="47.86859" lon="6.91229">
        <ele>1047</ele>
        <time>2026-05-09T08:29:07.866Z</time>
      </trkpt>
      <trkpt lat="47.86861" lon="6.91232">
        <ele>1048</ele>
        <time>2026-05-09T08:29:08.867Z</time>
      </trkpt>
      <trkpt lat="47.86864" lon="6.91231">
        <ele>1048</ele>
        <time>2026-05-09T08:29:09.867Z</time>
      </trkpt>
      <trkpt lat="47.86865" lon="6.91231">
        <ele>1047</ele>
        <time>2026-05-09T08:29:10.866Z</time>
      </trkpt>
      <trkpt lat="47.86864" lon="6.91233">
        <ele>1047</ele>
        <time>2026-05-09T08:29:11.866Z</time>
      </trkpt>
      <trkpt lat="47.86862" lon="6.91237">
        <ele>1047</ele>
        <time>2026-05-09T08:29:12.866Z</time>
      </trkpt>
      <trkpt lat="47.86861" lon="6.9124">
        <ele>1047</ele>
        <time>2026-05-09T08:29:13.867Z</time>
      </trkpt>
      <trkpt lat="47.86862" lon="6.91244">
        <ele>1047</ele>
        <time>2026-05-09T08:29:14.866Z</time>
      </trkpt>
      <trkpt lat="47.86861" lon="6.91247">
        <ele>1047</ele>
        <time>2026-05-09T08:29:15.866Z</time>
      </trkpt>
      <trkpt lat="47.86862" lon="6.91248">
        <ele>1047</ele>
        <time>2026-05-09T08:29:16.866Z</time>
      </trkpt>
      <trkpt lat="47.86863" lon="6.91251">
        <ele>1046</ele>
        <time>2026-05-09T08:29:17.867Z</time>
      </trkpt>
      <trkpt lat="47.86863" lon="6.91253">
        <ele>1046</ele>
        <time>2026-05-09T08:29:18.867Z</time>
      </trkpt>
      <trkpt lat="47.86863" lon="6.91254">
        <ele>1046</ele>
        <time>2026-05-09T08:29:19.866Z</time>
      </trkpt>
      <trkpt lat="47.86864" lon="6.91256">
        <ele>1046</ele>
        <time>2026-05-09T08:29:20.866Z</time>
      </trkpt>
      <trkpt lat="47.86864" lon="6.91258">
        <ele>1046</ele>
        <time>2026-05-09T08:29:21.866Z</time>
      </trkpt>
      <trkpt lat="47.86865" lon="6.9126">
        <ele>1046</ele>
        <time>2026-05-09T08:29:22.866Z</time>
      </trkpt>
      <trkpt lat="47.86865" lon="6.91263">
        <ele>1046</ele>
        <time>2026-05-09T08:29:23.867Z</time>
      </trkpt>
      <trkpt lat="47.86864" lon="6.91267">
        <ele>1045</ele>
        <time>2026-05-09T08:29:24.867Z</time>
      </trkpt>
      <trkpt lat="47.86861" lon="6.91272">
        <ele>1045</ele>
        <time>2026-05-09T08:29:25.867Z</time>
      </trkpt>
      <trkpt lat="47.86857" lon="6.91278">
        <ele>1045</ele>
        <time>2026-05-09T08:29:26.867Z</time>
      </trkpt>
      <trkpt lat="47.86854" lon="6.91281">
        <ele>1046</ele>
        <time>2026-05-09T08:29:27.866Z</time>
      </trkpt>
      <trkpt lat="47.86851" lon="6.91278">
        <ele>1046</ele>
        <time>2026-05-09T08:29:28.866Z</time>
      </trkpt>
      <trkpt lat="47.86848" lon="6.91279">
        <ele>1045</ele>
        <time>2026-05-09T08:29:29.866Z</time>
      </trkpt>
      <trkpt lat="47.86846" lon="6.91281">
        <ele>1045</ele>
        <time>2026-05-09T08:29:30.866Z</time>
      </trkpt>
      <trkpt lat="47.86844" lon="6.91284">
        <ele>1045</ele>
        <time>2026-05-09T08:29:31.866Z</time>
      </trkpt>
      <trkpt lat="47.86844" lon="6.91286">
        <ele>1045</ele>
        <time>2026-05-09T08:29:32.867Z</time>
      </trkpt>
      <trkpt lat="47.86843" lon="6.91288">
        <ele>1045</ele>
        <time>2026-05-09T08:29:33.866Z</time>
      </trkpt>
      <trkpt lat="47.86843" lon="6.91288">
        <ele>1045</ele>
        <time>2026-05-09T08:29:34.867Z</time>
      </trkpt>
      <trkpt lat="47.86843" lon="6.91289">
        <ele>1045</ele>
        <time>2026-05-09T08:29:35.867Z</time>
      </trkpt>
      <trkpt lat="47.86843" lon="6.9129">
        <ele>1045</ele>
        <time>2026-05-09T08:29:36.867Z</time>
      </trkpt>
      <trkpt lat="47.86843" lon="6.9129">
        <ele>1045</ele>
        <time>2026-05-09T08:29:37.866Z</time>
      </trkpt>
      <trkpt lat="47.86842" lon="6.91291">
        <ele>1045</ele>
        <time>2026-05-09T08:29:38.867Z</time>
      </trkpt>
      <trkpt lat="47.86842" lon="6.91291">
        <ele>1045</ele>
        <time>2026-05-09T08:29:39.866Z</time>
      </trkpt>
      <trkpt lat="47.86842" lon="6.91291">
        <ele>1045</ele>
        <time>2026-05-09T08:29:40.866Z</time>
      </trkpt>
      <trkpt lat="47.86843" lon="6.91292">
        <ele>1045</ele>
        <time>2026-05-09T08:29:41.866Z</time>
      </trkpt>
      <trkpt lat="47.86843" lon="6.91295">
        <ele>1044</ele>
        <time>2026-05-09T08:29:42.866Z</time>
      </trkpt>
      <trkpt lat="47.86843" lon="6.91297">
        <ele>1044</ele>
        <time>2026-05-09T08:29:43.866Z</time>
      </trkpt>
      <trkpt lat="47.86844" lon="6.91297">
        <ele>1044</ele>
        <time>2026-05-09T08:29:44.866Z</time>
      </trkpt>
      <trkpt lat="47.86846" lon="6.91296">
        <ele>1044</ele>
        <time>2026-05-09T08:29:45.866Z</time>
      </trkpt>
      <trkpt lat="47.86846" lon="6.91297">
        <ele>1044</ele>
        <time>2026-05-09T08:29:46.866Z</time>
      </trkpt>
      <trkpt lat="47.86846" lon="6.91297">
        <ele>1044</ele>
        <time>2026-05-09T08:29:47.866Z</time>
      </trkpt>
      <trkpt lat="47.86848" lon="6.91297">
        <ele>1043</ele>
        <time>2026-05-09T08:29:48.867Z</time>
      </trkpt>
      <trkpt lat="47.86849" lon="6.91298">
        <ele>1043</ele>
        <time>2026-05-09T08:29:49.866Z</time>
      </trkpt>
      <trkpt lat="47.86851" lon="6.91299">
        <ele>1043</ele>
        <time>2026-05-09T08:29:50.866Z</time>
      </trkpt>
      <trkpt lat="47.86852" lon="6.913">
        <ele>1042</ele>
        <time>2026-05-09T08:29:51.866Z</time>
      </trkpt>
      <trkpt lat="47.86851" lon="6.91301">
        <ele>1042</ele>
        <time>2026-05-09T08:29:52.866Z</time>
      </trkpt>
      <trkpt lat="47.86853" lon="6.91301">
        <ele>1042</ele>
        <time>2026-05-09T08:29:53.867Z</time>
      </trkpt>
      <trkpt lat="47.86855" lon="6.91302">
        <ele>1042</ele>
        <time>2026-05-09T08:29:54.866Z</time>
      </trkpt>
      <trkpt lat="47.86856" lon="6.91302">
        <ele>1042</ele>
        <time>2026-05-09T08:29:55.866Z</time>
      </trkpt>
      <trkpt lat="47.86857" lon="6.91304">
        <ele>1042</ele>
        <time>2026-05-09T08:29:56.866Z</time>
      </trkpt>
      <trkpt lat="47.86857" lon="6.91305">
        <ele>1043</ele>
        <time>2026-05-09T08:29:57.866Z</time>
      </trkpt>
      <trkpt lat="47.86856" lon="6.91306">
        <ele>1043</ele>
        <time>2026-05-09T08:29:58.866Z</time>
      </trkpt>
      <trkpt lat="47.86856" lon="6.91307">
        <ele>1043</ele>
        <time>2026-05-09T08:29:59.866Z</time>
      </trkpt>
      <trkpt lat="47.86857" lon="6.91308">
        <ele>1044</ele>
        <time>2026-05-09T08:30:00.866Z</time>
      </trkpt>
      <trkpt lat="47.86857" lon="6.9131">
        <ele>1044</ele>
        <time>2026-05-09T08:30:01.866Z</time>
      </trkpt>
      <trkpt lat="47.86858" lon="6.91311">
        <ele>1045</ele>
        <time>2026-05-09T08:30:02.866Z</time>
      </trkpt>
      <trkpt lat="47.86859" lon="6.91312">
        <ele>1045</ele>
        <time>2026-05-09T08:30:03.866Z</time>
      </trkpt>
      <trkpt lat="47.8686" lon="6.91313">
        <ele>1046</ele>
        <time>2026-05-09T08:30:04.866Z</time>
      </trkpt>
      <trkpt lat="47.86861" lon="6.91314">
        <ele>1046</ele>
        <time>2026-05-09T08:30:05.867Z</time>
      </trkpt>
      <trkpt lat="47.86862" lon="6.91315">
        <ele>1046</ele>
        <time>2026-05-09T08:30:06.866Z</time>
      </trkpt>
      <trkpt lat="47.86862" lon="6.91317">
        <ele>1046</ele>
        <time>2026-05-09T08:30:07.866Z</time>
      </trkpt>
      <trkpt lat="47.86863" lon="6.91319">
        <ele>1045</ele>
        <time>2026-05-09T08:30:08.866Z</time>
      </trkpt>
      <trkpt lat="47.86864" lon="6.9132">
        <ele>1045</ele>
        <time>2026-05-09T08:30:09.866Z</time>
      </trkpt>
      <trkpt lat="47.86864" lon="6.91321">
        <ele>1045</ele>
        <time>2026-05-09T08:30:10.866Z</time>
      </trkpt>
      <trkpt lat="47.86866" lon="6.91323">
        <ele>1045</ele>
        <time>2026-05-09T08:30:11.866Z</time>
      </trkpt>
      <trkpt lat="47.86866" lon="6.91324">
        <ele>1045</ele>
        <time>2026-05-09T08:30:12.867Z</time>
      </trkpt>
      <trkpt lat="47.86867" lon="6.91325">
        <ele>1045</ele>
        <time>2026-05-09T08:30:13.866Z</time>
      </trkpt>
      <trkpt lat="47.86868" lon="6.91326">
        <ele>1045</ele>
        <time>2026-05-09T08:30:14.866Z</time>
      </trkpt>
      <trkpt lat="47.86869" lon="6.91327">
        <ele>1045</ele>
        <time>2026-05-09T08:30:15.867Z</time>
      </trkpt>
      <trkpt lat="47.8687" lon="6.91327">
        <ele>1045</ele>
        <time>2026-05-09T08:30:16.866Z</time>
      </trkpt>
      <trkpt lat="47.86871" lon="6.91328">
        <ele>1045</ele>
        <time>2026-05-09T08:30:17.867Z</time>
      </trkpt>
      <trkpt lat="47.8687" lon="6.91331">
        <ele>1044</ele>
        <time>2026-05-09T08:30:18.866Z</time>
      </trkpt>
      <trkpt lat="47.8687" lon="6.91334">
        <ele>1044</ele>
        <time>2026-05-09T08:30:19.866Z</time>
      </trkpt>
      <trkpt lat="47.86869" lon="6.91336">
        <ele>1044</ele>
        <time>2026-05-09T08:30:20.866Z</time>
      </trkpt>
      <trkpt lat="47.86869" lon="6.91338">
        <ele>1044</ele>
        <time>2026-05-09T08:30:21.866Z</time>
      </trkpt>
      <trkpt lat="47.86869" lon="6.9134">
        <ele>1044</ele>
        <time>2026-05-09T08:30:22.866Z</time>
      </trkpt>
      <trkpt lat="47.86869" lon="6.91341">
        <ele>1044</ele>
        <time>2026-05-09T08:30:23.866Z</time>
      </trkpt>
      <trkpt lat="47.86869" lon="6.91342">
        <ele>1044</ele>
        <time>2026-05-09T08:30:24.866Z</time>
      </trkpt>
      <trkpt lat="47.86869" lon="6.91343">
        <ele>1045</ele>
        <time>2026-05-09T08:30:25.867Z</time>
      </trkpt>
      <trkpt lat="47.8687" lon="6.91345">
        <ele>1045</ele>
        <time>2026-05-09T08:30:26.867Z</time>
      </trkpt>
      <trkpt lat="47.8687" lon="6.91346">
        <ele>1045</ele>
        <time>2026-05-09T08:30:27.867Z</time>
      </trkpt>
      <trkpt lat="47.86871" lon="6.91347">
        <ele>1044</ele>
        <time>2026-05-09T08:30:28.867Z</time>
      </trkpt>
      <trkpt lat="47.86871" lon="6.91349">
        <ele>1044</ele>
        <time>2026-05-09T08:30:29.866Z</time>
      </trkpt>
      <trkpt lat="47.86872" lon="6.9135">
        <ele>1044</ele>
        <time>2026-05-09T08:30:30.866Z</time>
      </trkpt>
      <trkpt lat="47.86872" lon="6.91352">
        <ele>1044</ele>
        <time>2026-05-09T08:30:31.866Z</time>
      </trkpt>
      <trkpt lat="47.86873" lon="6.91352">
        <ele>1044</ele>
        <time>2026-05-09T08:30:32.867Z</time>
      </trkpt>
      <trkpt lat="47.86874" lon="6.91352">
        <ele>1044</ele>
        <time>2026-05-09T08:30:33.866Z</time>
      </trkpt>
      <trkpt lat="47.86875" lon="6.91353">
        <ele>1043</ele>
        <time>2026-05-09T08:30:34.867Z</time>
      </trkpt>
      <trkpt lat="47.86877" lon="6.91355">
        <ele>1043</ele>
        <time>2026-05-09T08:30:35.867Z</time>
      </trkpt>
      <trkpt lat="47.86878" lon="6.91357">
        <ele>1043</ele>
        <time>2026-05-09T08:30:36.867Z</time>
      </trkpt>
      <trkpt lat="47.86878" lon="6.91359">
        <ele>1042</ele>
        <time>2026-05-09T08:30:37.866Z</time>
      </trkpt>
      <trkpt lat="47.86879" lon="6.91361">
        <ele>1042</ele>
        <time>2026-05-09T08:30:38.866Z</time>
      </trkpt>
      <trkpt lat="47.8688" lon="6.91362">
        <ele>1042</ele>
        <time>2026-05-09T08:30:39.866Z</time>
      </trkpt>
      <trkpt lat="47.8688" lon="6.91363">
        <ele>1042</ele>
        <time>2026-05-09T08:30:40.866Z</time>
      </trkpt>
      <trkpt lat="47.86881" lon="6.91364">
        <ele>1041</ele>
        <time>2026-05-09T08:30:41.866Z</time>
      </trkpt>
      <trkpt lat="47.86882" lon="6.91365">
        <ele>1041</ele>
        <time>2026-05-09T08:30:42.866Z</time>
      </trkpt>
      <trkpt lat="47.86883" lon="6.91366">
        <ele>1041</ele>
        <time>2026-05-09T08:30:43.867Z</time>
      </trkpt>
      <trkpt lat="47.86883" lon="6.91367">
        <ele>1040</ele>
        <time>2026-05-09T08:30:44.866Z</time>
      </trkpt>
      <trkpt lat="47.86884" lon="6.91367">
        <ele>1039</ele>
        <time>2026-05-09T08:30:45.866Z</time>
      </trkpt>
      <trkpt lat="47.86884" lon="6.91367">
        <ele>1039</ele>
        <time>2026-05-09T08:30:46.866Z</time>
      </trkpt>
      <trkpt lat="47.86884" lon="6.91368">
        <ele>1038</ele>
        <time>2026-05-09T08:30:47.866Z</time>
      </trkpt>
      <trkpt lat="47.86885" lon="6.91368">
        <ele>1037</ele>
        <time>2026-05-09T08:30:48.866Z</time>
      </trkpt>
      <trkpt lat="47.86887" lon="6.91369">
        <ele>1037</ele>
        <time>2026-05-09T08:30:49.866Z</time>
      </trkpt>
      <trkpt lat="47.86888" lon="6.9137">
        <ele>1037</ele>
        <time>2026-05-09T08:30:50.866Z</time>
      </trkpt>
      <trkpt lat="47.86889" lon="6.9137">
        <ele>1037</ele>
        <time>2026-05-09T08:30:51.867Z</time>
      </trkpt>
      <trkpt lat="47.8689" lon="6.91371">
        <ele>1038</ele>
        <time>2026-05-09T08:30:52.867Z</time>
      </trkpt>
      <trkpt lat="47.86891" lon="6.91372">
        <ele>1038</ele>
        <time>2026-05-09T08:30:53.866Z</time>
      </trkpt>
      <trkpt lat="47.86892" lon="6.91372">
        <ele>1037</ele>
        <time>2026-05-09T08:30:54.866Z</time>
      </trkpt>
      <trkpt lat="47.86892" lon="6.91373">
        <ele>1037</ele>
        <time>2026-05-09T08:30:55.866Z</time>
      </trkpt>
      <trkpt lat="47.86893" lon="6.91374">
        <ele>1037</ele>
        <time>2026-05-09T08:30:56.866Z</time>
      </trkpt>
      <trkpt lat="47.86894" lon="6.91375">
        <ele>1037</ele>
        <time>2026-05-09T08:30:57.866Z</time>
      </trkpt>
      <trkpt lat="47.86895" lon="6.91376">
        <ele>1037</ele>
        <time>2026-05-09T08:30:58.866Z</time>
      </trkpt>
      <trkpt lat="47.86896" lon="6.91379">
        <ele>1037</ele>
        <time>2026-05-09T08:30:59.866Z</time>
      </trkpt>
      <trkpt lat="47.86897" lon="6.9138">
        <ele>1037</ele>
        <time>2026-05-09T08:31:00.866Z</time>
      </trkpt>
      <trkpt lat="47.86898" lon="6.91382">
        <ele>1036</ele>
        <time>2026-05-09T08:31:01.866Z</time>
      </trkpt>
      <trkpt lat="47.86898" lon="6.91383">
        <ele>1036</ele>
        <time>2026-05-09T08:31:02.866Z</time>
      </trkpt>
      <trkpt lat="47.86899" lon="6.91384">
        <ele>1036</ele>
        <time>2026-05-09T08:31:03.866Z</time>
      </trkpt>
      <trkpt lat="47.86901" lon="6.91386">
        <ele>1035</ele>
        <time>2026-05-09T08:31:04.867Z</time>
      </trkpt>
      <trkpt lat="47.86902" lon="6.91388">
        <ele>1035</ele>
        <time>2026-05-09T08:31:05.866Z</time>
      </trkpt>
      <trkpt lat="47.86904" lon="6.9139">
        <ele>1034</ele>
        <time>2026-05-09T08:31:06.867Z</time>
      </trkpt>
      <trkpt lat="47.86905" lon="6.91392">
        <ele>1034</ele>
        <time>2026-05-09T08:31:07.866Z</time>
      </trkpt>
      <trkpt lat="47.86906" lon="6.91393">
        <ele>1033</ele>
        <time>2026-05-09T08:31:08.866Z</time>
      </trkpt>
      <trkpt lat="47.86907" lon="6.91394">
        <ele>1033</ele>
        <time>2026-05-09T08:31:09.867Z</time>
      </trkpt>
      <trkpt lat="47.86908" lon="6.91395">
        <ele>1033</ele>
        <time>2026-05-09T08:31:10.866Z</time>
      </trkpt>
      <trkpt lat="47.86909" lon="6.91395">
        <ele>1033</ele>
        <time>2026-05-09T08:31:11.866Z</time>
      </trkpt>
      <trkpt lat="47.8691" lon="6.91396">
        <ele>1032</ele>
        <time>2026-05-09T08:31:12.867Z</time>
      </trkpt>
      <trkpt lat="47.86911" lon="6.91397">
        <ele>1032</ele>
        <time>2026-05-09T08:31:13.867Z</time>
      </trkpt>
      <trkpt lat="47.86912" lon="6.91398">
        <ele>1032</ele>
        <time>2026-05-09T08:31:14.867Z</time>
      </trkpt>
      <trkpt lat="47.86914" lon="6.914">
        <ele>1032</ele>
        <time>2026-05-09T08:31:15.867Z</time>
      </trkpt>
      <trkpt lat="47.86915" lon="6.91402">
        <ele>1032</ele>
        <time>2026-05-09T08:31:16.866Z</time>
      </trkpt>
      <trkpt lat="47.86916" lon="6.91404">
        <ele>1031</ele>
        <time>2026-05-09T08:31:17.867Z</time>
      </trkpt>
      <trkpt lat="47.86918" lon="6.91405">
        <ele>1031</ele>
        <time>2026-05-09T08:31:18.867Z</time>
      </trkpt>
      <trkpt lat="47.86921" lon="6.91406">
        <ele>1031</ele>
        <time>2026-05-09T08:31:19.867Z</time>
      </trkpt>
      <trkpt lat="47.86923" lon="6.91407">
        <ele>1031</ele>
        <time>2026-05-09T08:31:20.866Z</time>
      </trkpt>
      <trkpt lat="47.86925" lon="6.91407">
        <ele>1030</ele>
        <time>2026-05-09T08:31:21.867Z</time>
      </trkpt>
      <trkpt lat="47.86927" lon="6.9141">
        <ele>1030</ele>
        <time>2026-05-09T08:31:22.867Z</time>
      </trkpt>
      <trkpt lat="47.8693" lon="6.9141">
        <ele>1029</ele>
        <time>2026-05-09T08:31:23.866Z</time>
      </trkpt>
      <trkpt lat="47.86931" lon="6.91412">
        <ele>1029</ele>
        <time>2026-05-09T08:31:24.866Z</time>
      </trkpt>
      <trkpt lat="47.86935" lon="6.91413">
        <ele>1029</ele>
        <time>2026-05-09T08:31:25.867Z</time>
      </trkpt>
      <trkpt lat="47.86937" lon="6.91411">
        <ele>1029</ele>
        <time>2026-05-09T08:31:26.866Z</time>
      </trkpt>
      <trkpt lat="47.86938" lon="6.9141">
        <ele>1029</ele>
        <time>2026-05-09T08:31:27.866Z</time>
      </trkpt>
      <trkpt lat="47.8694" lon="6.91411">
        <ele>1029</ele>
        <time>2026-05-09T08:31:28.867Z</time>
      </trkpt>
      <trkpt lat="47.86942" lon="6.91412">
        <ele>1029</ele>
        <time>2026-05-09T08:31:29.867Z</time>
      </trkpt>
      <trkpt lat="47.86943" lon="6.91413">
        <ele>1029</ele>
        <time>2026-05-09T08:31:30.867Z</time>
      </trkpt>
      <trkpt lat="47.86946" lon="6.91417">
        <ele>1030</ele>
        <time>2026-05-09T08:31:31.866Z</time>
      </trkpt>
      <trkpt lat="47.86949" lon="6.9142">
        <ele>1030</ele>
        <time>2026-05-09T08:31:32.867Z</time>
      </trkpt>
      <trkpt lat="47.86954" lon="6.91428">
        <ele>1030</ele>
        <time>2026-05-09T08:31:33.866Z</time>
      </trkpt>
      <trkpt lat="47.86956" lon="6.91429">
        <ele>1030</ele>
        <time>2026-05-09T08:31:34.866Z</time>
      </trkpt>
      <trkpt lat="47.86959" lon="6.9143">
        <ele>1030</ele>
        <time>2026-05-09T08:31:35.866Z</time>
      </trkpt>
      <trkpt lat="47.86961" lon="6.9143">
        <ele>1030</ele>
        <time>2026-05-09T08:31:36.867Z</time>
      </trkpt>
      <trkpt lat="47.86964" lon="6.91429">
        <ele>1030</ele>
        <time>2026-05-09T08:31:37.866Z</time>
      </trkpt>
      <trkpt lat="47.86967" lon="6.91431">
        <ele>1030</ele>
        <time>2026-05-09T08:31:38.866Z</time>
      </trkpt>
      <trkpt lat="47.8697" lon="6.91432">
        <ele>1030</ele>
        <time>2026-05-09T08:31:39.866Z</time>
      </trkpt>
      <trkpt lat="47.86972" lon="6.91434">
        <ele>1031</ele>
        <time>2026-05-09T08:31:40.867Z</time>
      </trkpt>
      <trkpt lat="47.86973" lon="6.91435">
        <ele>1031</ele>
        <time>2026-05-09T08:31:41.866Z</time>
      </trkpt>
      <trkpt lat="47.86974" lon="6.91436">
        <ele>1031</ele>
        <time>2026-05-09T08:31:42.867Z</time>
      </trkpt>
      <trkpt lat="47.86973" lon="6.91436">
        <ele>1031</ele>
        <time>2026-05-09T08:31:43.866Z</time>
      </trkpt>
      <trkpt lat="47.86974" lon="6.91436">
        <ele>1030</ele>
        <time>2026-05-09T08:31:44.867Z</time>
      </trkpt>
      <trkpt lat="47.86974" lon="6.91436">
        <ele>1030</ele>
        <time>2026-05-09T08:31:45.866Z</time>
      </trkpt>
      <trkpt lat="47.86969" lon="6.91443">
        <ele>1030</ele>
        <time>2026-05-09T08:31:52.303Z</time>
      </trkpt>
      <trkpt lat="47.86968" lon="6.91444">
        <ele>1030</ele>
        <time>2026-05-09T08:31:53.303Z</time>
      </trkpt>
      <trkpt lat="47.86969" lon="6.91445">
        <ele>1030</ele>
        <time>2026-05-09T08:31:54.303Z</time>
      </trkpt>
      <trkpt lat="47.8697" lon="6.91447">
        <ele>1030</ele>
        <time>2026-05-09T08:31:55.304Z</time>
      </trkpt>
      <trkpt lat="47.86971" lon="6.91449">
        <ele>1030</ele>
        <time>2026-05-09T08:31:56.303Z</time>
      </trkpt>
      <trkpt lat="47.86971" lon="6.91449">
        <ele>1031</ele>
        <time>2026-05-09T08:31:57.304Z</time>
      </trkpt>
      <trkpt lat="47.86972" lon="6.9145">
        <ele>1031</ele>
        <time>2026-05-09T08:31:58.304Z</time>
      </trkpt>
      <trkpt lat="47.86973" lon="6.91452">
        <ele>1031</ele>
        <time>2026-05-09T08:31:59.303Z</time>
      </trkpt>
      <trkpt lat="47.86974" lon="6.91453">
        <ele>1031</ele>
        <time>2026-05-09T08:32:00.303Z</time>
      </trkpt>
      <trkpt lat="47.86974" lon="6.91454">
        <ele>1031</ele>
        <time>2026-05-09T08:32:01.303Z</time>
      </trkpt>
      <trkpt lat="47.86975" lon="6.91455">
        <ele>1031</ele>
        <time>2026-05-09T08:32:02.304Z</time>
      </trkpt>
      <trkpt lat="47.86975" lon="6.91455">
        <ele>1031</ele>
        <time>2026-05-09T08:32:03.303Z</time>
      </trkpt>
      <trkpt lat="47.86975" lon="6.91455">
        <ele>1031</ele>
        <time>2026-05-09T08:32:04.304Z</time>
      </trkpt>
      <trkpt lat="47.86976" lon="6.91455">
        <ele>1032</ele>
        <time>2026-05-09T08:32:05.303Z</time>
      </trkpt>
      <trkpt lat="47.86976" lon="6.91455">
        <ele>1033</ele>
        <time>2026-05-09T08:32:06.304Z</time>
      </trkpt>
      <trkpt lat="47.86978" lon="6.91456">
        <ele>1033</ele>
        <time>2026-05-09T08:32:07.303Z</time>
      </trkpt>
      <trkpt lat="47.86978" lon="6.91456">
        <ele>1034</ele>
        <time>2026-05-09T08:32:08.303Z</time>
      </trkpt>
      <trkpt lat="47.86979" lon="6.91456">
        <ele>1035</ele>
        <time>2026-05-09T08:32:09.304Z</time>
      </trkpt>
      <trkpt lat="47.86979" lon="6.91456">
        <ele>1035</ele>
        <time>2026-05-09T08:32:10.303Z</time>
      </trkpt>
      <trkpt lat="47.86979" lon="6.91457">
        <ele>1035</ele>
        <time>2026-05-09T08:32:11.304Z</time>
      </trkpt>
      <trkpt lat="47.86979" lon="6.91457">
        <ele>1036</ele>
        <time>2026-05-09T08:32:12.303Z</time>
      </trkpt>
      <trkpt lat="47.86978" lon="6.91458">
        <ele>1036</ele>
        <time>2026-05-09T08:32:13.303Z</time>
      </trkpt>
      <trkpt lat="47.86978" lon="6.9146">
        <ele>1036</ele>
        <time>2026-05-09T08:32:14.303Z</time>
      </trkpt>
      <trkpt lat="47.86978" lon="6.91462">
        <ele>1036</ele>
        <time>2026-05-09T08:32:15.303Z</time>
      </trkpt>
      <trkpt lat="47.86977" lon="6.91463">
        <ele>1036</ele>
        <time>2026-05-09T08:32:16.303Z</time>
      </trkpt>
      <trkpt lat="47.86977" lon="6.91465">
        <ele>1036</ele>
        <time>2026-05-09T08:32:17.303Z</time>
      </trkpt>
      <trkpt lat="47.86976" lon="6.91466">
        <ele>1036</ele>
        <time>2026-05-09T08:32:18.303Z</time>
      </trkpt>
      <trkpt lat="47.86976" lon="6.91468">
        <ele>1036</ele>
        <time>2026-05-09T08:32:19.303Z</time>
      </trkpt>
      <trkpt lat="47.86976" lon="6.91469">
        <ele>1036</ele>
        <time>2026-05-09T08:32:20.303Z</time>
      </trkpt>
      <trkpt lat="47.86977" lon="6.91471">
        <ele>1036</ele>
        <time>2026-05-09T08:32:21.303Z</time>
      </trkpt>
      <trkpt lat="47.86977" lon="6.91474">
        <ele>1036</ele>
        <time>2026-05-09T08:32:22.303Z</time>
      </trkpt>
      <trkpt lat="47.86976" lon="6.91476">
        <ele>1035</ele>
        <time>2026-05-09T08:32:23.303Z</time>
      </trkpt>
      <trkpt lat="47.86976" lon="6.91478">
        <ele>1035</ele>
        <time>2026-05-09T08:32:24.303Z</time>
      </trkpt>
      <trkpt lat="47.86977" lon="6.9148">
        <ele>1035</ele>
        <time>2026-05-09T08:32:25.304Z</time>
      </trkpt>
      <trkpt lat="47.86977" lon="6.91483">
        <ele>1035</ele>
        <time>2026-05-09T08:32:26.303Z</time>
      </trkpt>
      <trkpt lat="47.86976" lon="6.91485">
        <ele>1035</ele>
        <time>2026-05-09T08:32:27.304Z</time>
      </trkpt>
      <trkpt lat="47.86976" lon="6.91485">
        <ele>1036</ele>
        <time>2026-05-09T08:32:28.304Z</time>
      </trkpt>
      <trkpt lat="47.86976" lon="6.91486">
        <ele>1036</ele>
        <time>2026-05-09T08:32:29.304Z</time>
      </trkpt>
      <trkpt lat="47.86975" lon="6.91492">
        <ele>1035</ele>
        <time>2026-05-09T08:32:35.718Z</time>
      </trkpt>
      <trkpt lat="47.86975" lon="6.91493">
        <ele>1034</ele>
        <time>2026-05-09T08:32:36.719Z</time>
      </trkpt>
      <trkpt lat="47.86975" lon="6.91495">
        <ele>1034</ele>
        <time>2026-05-09T08:32:37.718Z</time>
      </trkpt>
      <trkpt lat="47.86975" lon="6.91496">
        <ele>1033</ele>
        <time>2026-05-09T08:32:38.719Z</time>
      </trkpt>
      <trkpt lat="47.86976" lon="6.91498">
        <ele>1033</ele>
        <time>2026-05-09T08:32:39.719Z</time>
      </trkpt>
      <trkpt lat="47.86976" lon="6.915">
        <ele>1032</ele>
        <time>2026-05-09T08:32:40.718Z</time>
      </trkpt>
      <trkpt lat="47.86975" lon="6.91501">
        <ele>1032</ele>
        <time>2026-05-09T08:32:41.718Z</time>
      </trkpt>
      <trkpt lat="47.86975" lon="6.91503">
        <ele>1032</ele>
        <time>2026-05-09T08:32:42.719Z</time>
      </trkpt>
      <trkpt lat="47.86975" lon="6.91505">
        <ele>1031</ele>
        <time>2026-05-09T08:32:43.718Z</time>
      </trkpt>
      <trkpt lat="47.86974" lon="6.91507">
        <ele>1031</ele>
        <time>2026-05-09T08:32:44.718Z</time>
      </trkpt>
      <trkpt lat="47.86975" lon="6.91508">
        <ele>1031</ele>
        <time>2026-05-09T08:32:45.718Z</time>
      </trkpt>
      <trkpt lat="47.86974" lon="6.9151">
        <ele>1031</ele>
        <time>2026-05-09T08:32:46.719Z</time>
      </trkpt>
      <trkpt lat="47.86974" lon="6.91512">
        <ele>1031</ele>
        <time>2026-05-09T08:32:47.718Z</time>
      </trkpt>
      <trkpt lat="47.86974" lon="6.91514">
        <ele>1030</ele>
        <time>2026-05-09T08:32:48.718Z</time>
      </trkpt>
      <trkpt lat="47.86974" lon="6.91516">
        <ele>1030</ele>
        <time>2026-05-09T08:32:49.719Z</time>
      </trkpt>
      <trkpt lat="47.86973" lon="6.91518">
        <ele>1030</ele>
        <time>2026-05-09T08:32:50.719Z</time>
      </trkpt>
      <trkpt lat="47.86972" lon="6.9152">
        <ele>1029</ele>
        <time>2026-05-09T08:32:51.718Z</time>
      </trkpt>
      <trkpt lat="47.86971" lon="6.91522">
        <ele>1029</ele>
        <time>2026-05-09T08:32:52.719Z</time>
      </trkpt>
      <trkpt lat="47.86971" lon="6.91523">
        <ele>1029</ele>
        <time>2026-05-09T08:32:53.718Z</time>
      </trkpt>
      <trkpt lat="47.86971" lon="6.91525">
        <ele>1028</ele>
        <time>2026-05-09T08:32:54.719Z</time>
      </trkpt>
      <trkpt lat="47.86971" lon="6.91527">
        <ele>1028</ele>
        <time>2026-05-09T08:32:55.718Z</time>
      </trkpt>
      <trkpt lat="47.86971" lon="6.91529">
        <ele>1028</ele>
        <time>2026-05-09T08:32:56.719Z</time>
      </trkpt>
      <trkpt lat="47.86972" lon="6.91532">
        <ele>1027</ele>
        <time>2026-05-09T08:32:57.718Z</time>
      </trkpt>
      <trkpt lat="47.86972" lon="6.91535">
        <ele>1027</ele>
        <time>2026-05-09T08:32:58.719Z</time>
      </trkpt>
      <trkpt lat="47.86972" lon="6.91537">
        <ele>1026</ele>
        <time>2026-05-09T08:32:59.718Z</time>
      </trkpt>
      <trkpt lat="47.86971" lon="6.9154">
        <ele>1026</ele>
        <time>2026-05-09T08:33:00.718Z</time>
      </trkpt>
      <trkpt lat="47.8697" lon="6.91543">
        <ele>1025</ele>
        <time>2026-05-09T08:33:01.719Z</time>
      </trkpt>
      <trkpt lat="47.8697" lon="6.91545">
        <ele>1025</ele>
        <time>2026-05-09T08:33:02.719Z</time>
      </trkpt>
      <trkpt lat="47.8697" lon="6.91549">
        <ele>1024</ele>
        <time>2026-05-09T08:33:03.718Z</time>
      </trkpt>
      <trkpt lat="47.8697" lon="6.91552">
        <ele>1024</ele>
        <time>2026-05-09T08:33:04.719Z</time>
      </trkpt>
      <trkpt lat="47.8697" lon="6.91555">
        <ele>1023</ele>
        <time>2026-05-09T08:33:05.719Z</time>
      </trkpt>
      <trkpt lat="47.8697" lon="6.91559">
        <ele>1023</ele>
        <time>2026-05-09T08:33:06.718Z</time>
      </trkpt>
      <trkpt lat="47.86969" lon="6.91563">
        <ele>1023</ele>
        <time>2026-05-09T08:33:07.718Z</time>
      </trkpt>
      <trkpt lat="47.86969" lon="6.91568">
        <ele>1022</ele>
        <time>2026-05-09T08:33:08.718Z</time>
      </trkpt>
      <trkpt lat="47.86969" lon="6.9157">
        <ele>1022</ele>
        <time>2026-05-09T08:33:09.718Z</time>
      </trkpt>
      <trkpt lat="47.86969" lon="6.91576">
        <ele>1022</ele>
        <time>2026-05-09T08:33:10.719Z</time>
      </trkpt>
      <trkpt lat="47.86969" lon="6.91577">
        <ele>1021</ele>
        <time>2026-05-09T08:33:11.719Z</time>
      </trkpt>
      <trkpt lat="47.86967" lon="6.91581">
        <ele>1021</ele>
        <time>2026-05-09T08:33:12.719Z</time>
      </trkpt>
      <trkpt lat="47.86965" lon="6.91585">
        <ele>1021</ele>
        <time>2026-05-09T08:33:13.719Z</time>
      </trkpt>
      <trkpt lat="47.86965" lon="6.91588">
        <ele>1020</ele>
        <time>2026-05-09T08:33:14.718Z</time>
      </trkpt>
      <trkpt lat="47.86965" lon="6.91591">
        <ele>1020</ele>
        <time>2026-05-09T08:33:15.718Z</time>
      </trkpt>
      <trkpt lat="47.86966" lon="6.91592">
        <ele>1020</ele>
        <time>2026-05-09T08:33:16.719Z</time>
      </trkpt>
      <trkpt lat="47.86966" lon="6.91592">
        <ele>1020</ele>
        <time>2026-05-09T08:33:17.718Z</time>
      </trkpt>
      <trkpt lat="47.86966" lon="6.91593">
        <ele>1019</ele>
        <time>2026-05-09T08:33:18.718Z</time>
      </trkpt>
      <trkpt lat="47.86966" lon="6.91593">
        <ele>1019</ele>
        <time>2026-05-09T08:33:19.719Z</time>
      </trkpt>
      <trkpt lat="47.86966" lon="6.91594">
        <ele>1019</ele>
        <time>2026-05-09T08:33:20.719Z</time>
      </trkpt>
      <trkpt lat="47.86966" lon="6.91596">
        <ele>1019</ele>
        <time>2026-05-09T08:33:21.719Z</time>
      </trkpt>
      <trkpt lat="47.86966" lon="6.91597">
        <ele>1018</ele>
        <time>2026-05-09T08:33:22.718Z</time>
      </trkpt>
      <trkpt lat="47.86967" lon="6.91599">
        <ele>1018</ele>
        <time>2026-05-09T08:33:23.718Z</time>
      </trkpt>
      <trkpt lat="47.86967" lon="6.916">
        <ele>1017</ele>
        <time>2026-05-09T08:33:24.718Z</time>
      </trkpt>
      <trkpt lat="47.86967" lon="6.91601">
        <ele>1017</ele>
        <time>2026-05-09T08:33:25.718Z</time>
      </trkpt>
      <trkpt lat="47.86966" lon="6.91603">
        <ele>1016</ele>
        <time>2026-05-09T08:33:26.718Z</time>
      </trkpt>
      <trkpt lat="47.86966" lon="6.91604">
        <ele>1016</ele>
        <time>2026-05-09T08:33:27.718Z</time>
      </trkpt>
      <trkpt lat="47.86967" lon="6.91605">
        <ele>1015</ele>
        <time>2026-05-09T08:33:28.718Z</time>
      </trkpt>
      <trkpt lat="47.86967" lon="6.91605">
        <ele>1015</ele>
        <time>2026-05-09T08:33:29.719Z</time>
      </trkpt>
      <trkpt lat="47.86966" lon="6.91606">
        <ele>1015</ele>
        <time>2026-05-09T08:33:30.718Z</time>
      </trkpt>
      <trkpt lat="47.86967" lon="6.91608">
        <ele>1014</ele>
        <time>2026-05-09T08:33:31.718Z</time>
      </trkpt>
      <trkpt lat="47.86967" lon="6.91608">
        <ele>1014</ele>
        <time>2026-05-09T08:33:32.719Z</time>
      </trkpt>
      <trkpt lat="47.86967" lon="6.91608">
        <ele>1014</ele>
        <time>2026-05-09T08:33:33.719Z</time>
      </trkpt>
      <trkpt lat="47.86968" lon="6.9161">
        <ele>1014</ele>
        <time>2026-05-09T08:33:34.719Z</time>
      </trkpt>
      <trkpt lat="47.86968" lon="6.91611">
        <ele>1014</ele>
        <time>2026-05-09T08:33:35.718Z</time>
      </trkpt>
      <trkpt lat="47.86968" lon="6.91611">
        <ele>1014</ele>
        <time>2026-05-09T08:33:36.719Z</time>
      </trkpt>
      <trkpt lat="47.86968" lon="6.91613">
        <ele>1014</ele>
        <time>2026-05-09T08:33:37.718Z</time>
      </trkpt>
      <trkpt lat="47.86968" lon="6.91615">
        <ele>1014</ele>
        <time>2026-05-09T08:33:38.718Z</time>
      </trkpt>
      <trkpt lat="47.86969" lon="6.91617">
        <ele>1014</ele>
        <time>2026-05-09T08:33:39.718Z</time>
      </trkpt>
      <trkpt lat="47.86969" lon="6.91618">
        <ele>1014</ele>
        <time>2026-05-09T08:33:40.718Z</time>
      </trkpt>
      <trkpt lat="47.8697" lon="6.9162">
        <ele>1015</ele>
        <time>2026-05-09T08:33:41.719Z</time>
      </trkpt>
      <trkpt lat="47.8697" lon="6.91621">
        <ele>1015</ele>
        <time>2026-05-09T08:33:42.719Z</time>
      </trkpt>
      <trkpt lat="47.8697" lon="6.91622">
        <ele>1015</ele>
        <time>2026-05-09T08:33:43.719Z</time>
      </trkpt>
      <trkpt lat="47.8697" lon="6.91623">
        <ele>1016</ele>
        <time>2026-05-09T08:33:44.718Z</time>
      </trkpt>
      <trkpt lat="47.8697" lon="6.91624">
        <ele>1016</ele>
        <time>2026-05-09T08:33:45.718Z</time>
      </trkpt>
      <trkpt lat="47.8697" lon="6.91624">
        <ele>1017</ele>
        <time>2026-05-09T08:33:46.718Z</time>
      </trkpt>
      <trkpt lat="47.8697" lon="6.91624">
        <ele>1017</ele>
        <time>2026-05-09T08:33:47.718Z</time>
      </trkpt>
      <trkpt lat="47.8697" lon="6.91625">
        <ele>1018</ele>
        <time>2026-05-09T08:33:48.719Z</time>
      </trkpt>
      <trkpt lat="47.86971" lon="6.91627">
        <ele>1018</ele>
        <time>2026-05-09T08:33:49.718Z</time>
      </trkpt>
      <trkpt lat="47.8697" lon="6.91629">
        <ele>1018</ele>
        <time>2026-05-09T08:33:50.719Z</time>
      </trkpt>
      <trkpt lat="47.86969" lon="6.91631">
        <ele>1018</ele>
        <time>2026-05-09T08:33:51.718Z</time>
      </trkpt>
      <trkpt lat="47.86969" lon="6.91634">
        <ele>1018</ele>
        <time>2026-05-09T08:33:52.719Z</time>
      </trkpt>
      <trkpt lat="47.86968" lon="6.91635">
        <ele>1018</ele>
        <time>2026-05-09T08:33:53.718Z</time>
      </trkpt>
      <trkpt lat="47.86968" lon="6.91637">
        <ele>1019</ele>
        <time>2026-05-09T08:33:54.718Z</time>
      </trkpt>
      <trkpt lat="47.86967" lon="6.9164">
        <ele>1019</ele>
        <time>2026-05-09T08:33:55.719Z</time>
      </trkpt>
      <trkpt lat="47.86966" lon="6.91642">
        <ele>1019</ele>
        <time>2026-05-09T08:33:56.719Z</time>
      </trkpt>
      <trkpt lat="47.86966" lon="6.91645">
        <ele>1019</ele>
        <time>2026-05-09T08:33:57.718Z</time>
      </trkpt>
      <trkpt lat="47.86965" lon="6.91648">
        <ele>1019</ele>
        <time>2026-05-09T08:33:58.718Z</time>
      </trkpt>
      <trkpt lat="47.86964" lon="6.91651">
        <ele>1019</ele>
        <time>2026-05-09T08:33:59.718Z</time>
      </trkpt>
      <trkpt lat="47.86963" lon="6.91652">
        <ele>1019</ele>
        <time>2026-05-09T08:34:00.719Z</time>
      </trkpt>
      <trkpt lat="47.86963" lon="6.91654">
        <ele>1019</ele>
        <time>2026-05-09T08:34:01.719Z</time>
      </trkpt>
      <trkpt lat="47.86962" lon="6.91656">
        <ele>1019</ele>
        <time>2026-05-09T08:34:02.719Z</time>
      </trkpt>
      <trkpt lat="47.86962" lon="6.91658">
        <ele>1019</ele>
        <time>2026-05-09T08:34:03.718Z</time>
      </trkpt>
      <trkpt lat="47.86962" lon="6.91659">
        <ele>1019</ele>
        <time>2026-05-09T08:34:04.719Z</time>
      </trkpt>
      <trkpt lat="47.86961" lon="6.91662">
        <ele>1019</ele>
        <time>2026-05-09T08:34:05.718Z</time>
      </trkpt>
      <trkpt lat="47.86961" lon="6.91663">
        <ele>1019</ele>
        <time>2026-05-09T08:34:06.718Z</time>
      </trkpt>
      <trkpt lat="47.86961" lon="6.91665">
        <ele>1019</ele>
        <time>2026-05-09T08:34:07.719Z</time>
      </trkpt>
      <trkpt lat="47.8696" lon="6.91667">
        <ele>1018</ele>
        <time>2026-05-09T08:34:08.719Z</time>
      </trkpt>
      <trkpt lat="47.86958" lon="6.91669">
        <ele>1018</ele>
        <time>2026-05-09T08:34:09.719Z</time>
      </trkpt>
      <trkpt lat="47.86957" lon="6.91671">
        <ele>1018</ele>
        <time>2026-05-09T08:34:10.719Z</time>
      </trkpt>
      <trkpt lat="47.86956" lon="6.91673">
        <ele>1017</ele>
        <time>2026-05-09T08:34:11.719Z</time>
      </trkpt>
      <trkpt lat="47.86955" lon="6.91675">
        <ele>1017</ele>
        <time>2026-05-09T08:34:12.719Z</time>
      </trkpt>
      <trkpt lat="47.86955" lon="6.91676">
        <ele>1016</ele>
        <time>2026-05-09T08:34:13.719Z</time>
      </trkpt>
      <trkpt lat="47.86954" lon="6.91678">
        <ele>1016</ele>
        <time>2026-05-09T08:34:14.719Z</time>
      </trkpt>
      <trkpt lat="47.86954" lon="6.91679">
        <ele>1015</ele>
        <time>2026-05-09T08:34:15.719Z</time>
      </trkpt>
      <trkpt lat="47.86954" lon="6.9168">
        <ele>1015</ele>
        <time>2026-05-09T08:34:16.719Z</time>
      </trkpt>
      <trkpt lat="47.86954" lon="6.91682">
        <ele>1015</ele>
        <time>2026-05-09T08:34:17.719Z</time>
      </trkpt>
      <trkpt lat="47.86955" lon="6.91683">
        <ele>1014</ele>
        <time>2026-05-09T08:34:18.718Z</time>
      </trkpt>
      <trkpt lat="47.86955" lon="6.91685">
        <ele>1014</ele>
        <time>2026-05-09T08:34:19.718Z</time>
      </trkpt>
      <trkpt lat="47.86957" lon="6.91688">
        <ele>1014</ele>
        <time>2026-05-09T08:34:20.718Z</time>
      </trkpt>
      <trkpt lat="47.86958" lon="6.91692">
        <ele>1013</ele>
        <time>2026-05-09T08:34:21.719Z</time>
      </trkpt>
      <trkpt lat="47.86959" lon="6.91697">
        <ele>1013</ele>
        <time>2026-05-09T08:34:22.719Z</time>
      </trkpt>
      <trkpt lat="47.8696" lon="6.917">
        <ele>1013</ele>
        <time>2026-05-09T08:34:23.719Z</time>
      </trkpt>
      <trkpt lat="47.8696" lon="6.91703">
        <ele>1013</ele>
        <time>2026-05-09T08:34:24.719Z</time>
      </trkpt>
      <trkpt lat="47.86959" lon="6.91705">
        <ele>1013</ele>
        <time>2026-05-09T08:34:25.718Z</time>
      </trkpt>
      <trkpt lat="47.86959" lon="6.91706">
        <ele>1013</ele>
        <time>2026-05-09T08:34:26.718Z</time>
      </trkpt>
      <trkpt lat="47.86961" lon="6.91707">
        <ele>1013</ele>
        <time>2026-05-09T08:34:27.718Z</time>
      </trkpt>
      <trkpt lat="47.86962" lon="6.91708">
        <ele>1012</ele>
        <time>2026-05-09T08:34:28.718Z</time>
      </trkpt>
      <trkpt lat="47.86962" lon="6.91712">
        <ele>1012</ele>
        <time>2026-05-09T08:34:29.718Z</time>
      </trkpt>
      <trkpt lat="47.8696" lon="6.91715">
        <ele>1012</ele>
        <time>2026-05-09T08:34:30.718Z</time>
      </trkpt>
      <trkpt lat="47.86958" lon="6.91717">
        <ele>1012</ele>
        <time>2026-05-09T08:34:31.718Z</time>
      </trkpt>
      <trkpt lat="47.86958" lon="6.91719">
        <ele>1012</ele>
        <time>2026-05-09T08:34:32.719Z</time>
      </trkpt>
      <trkpt lat="47.86958" lon="6.91721">
        <ele>1012</ele>
        <time>2026-05-09T08:34:33.719Z</time>
      </trkpt>
      <trkpt lat="47.86958" lon="6.91723">
        <ele>1012</ele>
        <time>2026-05-09T08:34:34.719Z</time>
      </trkpt>
      <trkpt lat="47.86958" lon="6.91725">
        <ele>1013</ele>
        <time>2026-05-09T08:34:35.719Z</time>
      </trkpt>
      <trkpt lat="47.86957" lon="6.91731">
        <ele>1013</ele>
        <time>2026-05-09T08:34:36.718Z</time>
      </trkpt>
      <trkpt lat="47.86957" lon="6.91735">
        <ele>1013</ele>
        <time>2026-05-09T08:34:37.718Z</time>
      </trkpt>
      <trkpt lat="47.86958" lon="6.91737">
        <ele>1013</ele>
        <time>2026-05-09T08:34:38.718Z</time>
      </trkpt>
      <trkpt lat="47.86958" lon="6.91739">
        <ele>1013</ele>
        <time>2026-05-09T08:34:39.719Z</time>
      </trkpt>
      <trkpt lat="47.86958" lon="6.91741">
        <ele>1013</ele>
        <time>2026-05-09T08:34:40.719Z</time>
      </trkpt>
      <trkpt lat="47.86958" lon="6.91743">
        <ele>1013</ele>
        <time>2026-05-09T08:34:41.718Z</time>
      </trkpt>
      <trkpt lat="47.86958" lon="6.91744">
        <ele>1013</ele>
        <time>2026-05-09T08:34:42.718Z</time>
      </trkpt>
      <trkpt lat="47.8696" lon="6.91746">
        <ele>1013</ele>
        <time>2026-05-09T08:34:43.718Z</time>
      </trkpt>
      <trkpt lat="47.86962" lon="6.91748">
        <ele>1013</ele>
        <time>2026-05-09T08:34:44.718Z</time>
      </trkpt>
      <trkpt lat="47.86962" lon="6.91748">
        <ele>1013</ele>
        <time>2026-05-09T08:34:45.718Z</time>
      </trkpt>
      <trkpt lat="47.86962" lon="6.91748">
        <ele>1012</ele>
        <time>2026-05-09T08:34:46.718Z</time>
      </trkpt>
      <trkpt lat="47.86962" lon="6.91749">
        <ele>1012</ele>
        <time>2026-05-09T08:34:47.718Z</time>
      </trkpt>
      <trkpt lat="47.86963" lon="6.9175">
        <ele>1012</ele>
        <time>2026-05-09T08:34:48.718Z</time>
      </trkpt>
      <trkpt lat="47.86963" lon="6.91751">
        <ele>1012</ele>
        <time>2026-05-09T08:34:49.718Z</time>
      </trkpt>
      <trkpt lat="47.86963" lon="6.91752">
        <ele>1012</ele>
        <time>2026-05-09T08:34:50.718Z</time>
      </trkpt>
      <trkpt lat="47.86964" lon="6.91753">
        <ele>1012</ele>
        <time>2026-05-09T08:34:51.719Z</time>
      </trkpt>
      <trkpt lat="47.86963" lon="6.91753">
        <ele>1013</ele>
        <time>2026-05-09T08:34:52.719Z</time>
      </trkpt>
      <trkpt lat="47.86963" lon="6.91754">
        <ele>1013</ele>
        <time>2026-05-09T08:34:53.718Z</time>
      </trkpt>
      <trkpt lat="47.86963" lon="6.91755">
        <ele>1013</ele>
        <time>2026-05-09T08:34:54.719Z</time>
      </trkpt>
      <trkpt lat="47.86963" lon="6.91755">
        <ele>1013</ele>
        <time>2026-05-09T08:34:55.719Z</time>
      </trkpt>
      <trkpt lat="47.86963" lon="6.91756">
        <ele>1013</ele>
        <time>2026-05-09T08:34:56.719Z</time>
      </trkpt>
      <trkpt lat="47.86962" lon="6.91762">
        <ele>1013</ele>
        <time>2026-05-09T08:35:04.055Z</time>
      </trkpt>
      <trkpt lat="47.86963" lon="6.91764">
        <ele>1013</ele>
        <time>2026-05-09T08:35:05.055Z</time>
      </trkpt>
      <trkpt lat="47.86964" lon="6.91766">
        <ele>1012</ele>
        <time>2026-05-09T08:35:06.056Z</time>
      </trkpt>
      <trkpt lat="47.86965" lon="6.91767">
        <ele>1012</ele>
        <time>2026-05-09T08:35:07.056Z</time>
      </trkpt>
      <trkpt lat="47.86965" lon="6.91768">
        <ele>1012</ele>
        <time>2026-05-09T08:35:08.056Z</time>
      </trkpt>
      <trkpt lat="47.86965" lon="6.9177">
        <ele>1012</ele>
        <time>2026-05-09T08:35:09.055Z</time>
      </trkpt>
      <trkpt lat="47.86964" lon="6.91772">
        <ele>1012</ele>
        <time>2026-05-09T08:35:10.055Z</time>
      </trkpt>
      <trkpt lat="47.86964" lon="6.91774">
        <ele>1012</ele>
        <time>2026-05-09T08:35:11.055Z</time>
      </trkpt>
      <trkpt lat="47.86965" lon="6.91776">
        <ele>1012</ele>
        <time>2026-05-09T08:35:12.055Z</time>
      </trkpt>
      <trkpt lat="47.86965" lon="6.91777">
        <ele>1012</ele>
        <time>2026-05-09T08:35:13.055Z</time>
      </trkpt>
      <trkpt lat="47.86965" lon="6.91777">
        <ele>1012</ele>
        <time>2026-05-09T08:35:14.055Z</time>
      </trkpt>
      <trkpt lat="47.86965" lon="6.91777">
        <ele>1012</ele>
        <time>2026-05-09T08:35:15.055Z</time>
      </trkpt>
      <trkpt lat="47.86964" lon="6.91786">
        <ele>1013</ele>
        <time>2026-05-09T08:35:21.427Z</time>
      </trkpt>
      <trkpt lat="47.86965" lon="6.91788">
        <ele>1012</ele>
        <time>2026-05-09T08:35:22.426Z</time>
      </trkpt>
      <trkpt lat="47.86965" lon="6.9179">
        <ele>1012</ele>
        <time>2026-05-09T08:35:23.426Z</time>
      </trkpt>
      <trkpt lat="47.86965" lon="6.91792">
        <ele>1012</ele>
        <time>2026-05-09T08:35:24.426Z</time>
      </trkpt>
      <trkpt lat="47.86965" lon="6.91793">
        <ele>1012</ele>
        <time>2026-05-09T08:35:25.426Z</time>
      </trkpt>
      <trkpt lat="47.86966" lon="6.91795">
        <ele>1012</ele>
        <time>2026-05-09T08:35:26.427Z</time>
      </trkpt>
      <trkpt lat="47.86966" lon="6.91797">
        <ele>1012</ele>
        <time>2026-05-09T08:35:27.426Z</time>
      </trkpt>
      <trkpt lat="47.86966" lon="6.918">
        <ele>1012</ele>
        <time>2026-05-09T08:35:28.426Z</time>
      </trkpt>
      <trkpt lat="47.86966" lon="6.91802">
        <ele>1011</ele>
        <time>2026-05-09T08:35:29.427Z</time>
      </trkpt>
      <trkpt lat="47.86966" lon="6.91804">
        <ele>1012</ele>
        <time>2026-05-09T08:35:30.426Z</time>
      </trkpt>
      <trkpt lat="47.86966" lon="6.91806">
        <ele>1012</ele>
        <time>2026-05-09T08:35:31.427Z</time>
      </trkpt>
      <trkpt lat="47.86966" lon="6.91808">
        <ele>1012</ele>
        <time>2026-05-09T08:35:32.426Z</time>
      </trkpt>
      <trkpt lat="47.86966" lon="6.91809">
        <ele>1012</ele>
        <time>2026-05-09T08:35:33.427Z</time>
      </trkpt>
      <trkpt lat="47.86966" lon="6.9181">
        <ele>1012</ele>
        <time>2026-05-09T08:35:34.427Z</time>
      </trkpt>
      <trkpt lat="47.86966" lon="6.91812">
        <ele>1012</ele>
        <time>2026-05-09T08:35:35.426Z</time>
      </trkpt>
      <trkpt lat="47.86966" lon="6.91813">
        <ele>1012</ele>
        <time>2026-05-09T08:35:36.427Z</time>
      </trkpt>
      <trkpt lat="47.86966" lon="6.91816">
        <ele>1012</ele>
        <time>2026-05-09T08:35:37.426Z</time>
      </trkpt>
      <trkpt lat="47.86965" lon="6.91818">
        <ele>1012</ele>
        <time>2026-05-09T08:35:38.427Z</time>
      </trkpt>
      <trkpt lat="47.86965" lon="6.91818">
        <ele>1012</ele>
        <time>2026-05-09T08:35:39.427Z</time>
      </trkpt>
      <trkpt lat="47.86965" lon="6.91818">
        <ele>1012</ele>
        <time>2026-05-09T08:35:40.427Z</time>
      </trkpt>
      <trkpt lat="47.86962" lon="6.91827">
        <ele>1013</ele>
        <time>2026-05-09T08:35:46.816Z</time>
      </trkpt>
      <trkpt lat="47.86961" lon="6.91829">
        <ele>1013</ele>
        <time>2026-05-09T08:35:47.815Z</time>
      </trkpt>
      <trkpt lat="47.86961" lon="6.9183">
        <ele>1013</ele>
        <time>2026-05-09T08:35:48.815Z</time>
      </trkpt>
      <trkpt lat="47.8696" lon="6.91831">
        <ele>1013</ele>
        <time>2026-05-09T08:35:49.816Z</time>
      </trkpt>
      <trkpt lat="47.8696" lon="6.91832">
        <ele>1013</ele>
        <time>2026-05-09T08:35:50.815Z</time>
      </trkpt>
      <trkpt lat="47.8696" lon="6.91833">
        <ele>1012</ele>
        <time>2026-05-09T08:35:51.815Z</time>
      </trkpt>
      <trkpt lat="47.8696" lon="6.91834">
        <ele>1012</ele>
        <time>2026-05-09T08:35:52.816Z</time>
      </trkpt>
      <trkpt lat="47.86961" lon="6.91835">
        <ele>1012</ele>
        <time>2026-05-09T08:35:53.816Z</time>
      </trkpt>
      <trkpt lat="47.86962" lon="6.91837">
        <ele>1012</ele>
        <time>2026-05-09T08:35:54.816Z</time>
      </trkpt>
      <trkpt lat="47.86962" lon="6.91838">
        <ele>1012</ele>
        <time>2026-05-09T08:35:55.816Z</time>
      </trkpt>
      <trkpt lat="47.86962" lon="6.9184">
        <ele>1012</ele>
        <time>2026-05-09T08:35:56.816Z</time>
      </trkpt>
      <trkpt lat="47.86962" lon="6.91843">
        <ele>1012</ele>
        <time>2026-05-09T08:35:57.815Z</time>
      </trkpt>
      <trkpt lat="47.86962" lon="6.91845">
        <ele>1011</ele>
        <time>2026-05-09T08:35:58.815Z</time>
      </trkpt>
      <trkpt lat="47.86962" lon="6.91849">
        <ele>1011</ele>
        <time>2026-05-09T08:35:59.815Z</time>
      </trkpt>
      <trkpt lat="47.86961" lon="6.91852">
        <ele>1011</ele>
        <time>2026-05-09T08:36:00.815Z</time>
      </trkpt>
      <trkpt lat="47.86961" lon="6.91855">
        <ele>1011</ele>
        <time>2026-05-09T08:36:01.816Z</time>
      </trkpt>
      <trkpt lat="47.86961" lon="6.91857">
        <ele>1010</ele>
        <time>2026-05-09T08:36:02.816Z</time>
      </trkpt>
      <trkpt lat="47.86962" lon="6.9186">
        <ele>1010</ele>
        <time>2026-05-09T08:36:03.816Z</time>
      </trkpt>
      <trkpt lat="47.86963" lon="6.91862">
        <ele>1010</ele>
        <time>2026-05-09T08:36:04.815Z</time>
      </trkpt>
      <trkpt lat="47.86963" lon="6.91864">
        <ele>1009</ele>
        <time>2026-05-09T08:36:05.815Z</time>
      </trkpt>
      <trkpt lat="47.86963" lon="6.91867">
        <ele>1009</ele>
        <time>2026-05-09T08:36:06.815Z</time>
      </trkpt>
      <trkpt lat="47.86963" lon="6.91869">
        <ele>1009</ele>
        <time>2026-05-09T08:36:07.815Z</time>
      </trkpt>
      <trkpt lat="47.86963" lon="6.91871">
        <ele>1009</ele>
        <time>2026-05-09T08:36:08.816Z</time>
      </trkpt>
      <trkpt lat="47.86962" lon="6.91874">
        <ele>1009</ele>
        <time>2026-05-09T08:36:09.816Z</time>
      </trkpt>
      <trkpt lat="47.86961" lon="6.91877">
        <ele>1009</ele>
        <time>2026-05-09T08:36:10.816Z</time>
      </trkpt>
      <trkpt lat="47.8696" lon="6.91879">
        <ele>1009</ele>
        <time>2026-05-09T08:36:11.816Z</time>
      </trkpt>
      <trkpt lat="47.86959" lon="6.91881">
        <ele>1008</ele>
        <time>2026-05-09T08:36:12.815Z</time>
      </trkpt>
      <trkpt lat="47.86958" lon="6.91883">
        <ele>1008</ele>
        <time>2026-05-09T08:36:13.815Z</time>
      </trkpt>
      <trkpt lat="47.86957" lon="6.91885">
        <ele>1008</ele>
        <time>2026-05-09T08:36:14.816Z</time>
      </trkpt>
      <trkpt lat="47.86958" lon="6.91887">
        <ele>1008</ele>
        <time>2026-05-09T08:36:15.816Z</time>
      </trkpt>
      <trkpt lat="47.86959" lon="6.91888">
        <ele>1008</ele>
        <time>2026-05-09T08:36:16.816Z</time>
      </trkpt>
      <trkpt lat="47.8696" lon="6.91889">
        <ele>1008</ele>
        <time>2026-05-09T08:36:17.816Z</time>
      </trkpt>
      <trkpt lat="47.86961" lon="6.91891">
        <ele>1007</ele>
        <time>2026-05-09T08:36:18.815Z</time>
      </trkpt>
      <trkpt lat="47.86962" lon="6.91892">
        <ele>1007</ele>
        <time>2026-05-09T08:36:19.816Z</time>
      </trkpt>
      <trkpt lat="47.86962" lon="6.91895">
        <ele>1007</ele>
        <time>2026-05-09T08:36:20.816Z</time>
      </trkpt>
      <trkpt lat="47.86963" lon="6.91897">
        <ele>1007</ele>
        <time>2026-05-09T08:36:21.816Z</time>
      </trkpt>
      <trkpt lat="47.86963" lon="6.919">
        <ele>1007</ele>
        <time>2026-05-09T08:36:22.815Z</time>
      </trkpt>
      <trkpt lat="47.86964" lon="6.91903">
        <ele>1007</ele>
        <time>2026-05-09T08:36:23.815Z</time>
      </trkpt>
      <trkpt lat="47.86964" lon="6.91907">
        <ele>1007</ele>
        <time>2026-05-09T08:36:24.816Z</time>
      </trkpt>
      <trkpt lat="47.86965" lon="6.91911">
        <ele>1007</ele>
        <time>2026-05-09T08:36:25.816Z</time>
      </trkpt>
      <trkpt lat="47.86965" lon="6.91915">
        <ele>1007</ele>
        <time>2026-05-09T08:36:26.816Z</time>
      </trkpt>
      <trkpt lat="47.86966" lon="6.9192">
        <ele>1006</ele>
        <time>2026-05-09T08:36:27.816Z</time>
      </trkpt>
      <trkpt lat="47.86967" lon="6.91923">
        <ele>1006</ele>
        <time>2026-05-09T08:36:28.815Z</time>
      </trkpt>
      <trkpt lat="47.86966" lon="6.91927">
        <ele>1006</ele>
        <time>2026-05-09T08:36:29.815Z</time>
      </trkpt>
      <trkpt lat="47.86967" lon="6.91932">
        <ele>1006</ele>
        <time>2026-05-09T08:36:30.816Z</time>
      </trkpt>
      <trkpt lat="47.86967" lon="6.91936">
        <ele>1005</ele>
        <time>2026-05-09T08:36:31.816Z</time>
      </trkpt>
      <trkpt lat="47.86966" lon="6.9194">
        <ele>1005</ele>
        <time>2026-05-09T08:36:32.816Z</time>
      </trkpt>
      <trkpt lat="47.86967" lon="6.91944">
        <ele>1005</ele>
        <time>2026-05-09T08:36:33.815Z</time>
      </trkpt>
      <trkpt lat="47.86968" lon="6.91948">
        <ele>1004</ele>
        <time>2026-05-09T08:36:34.815Z</time>
      </trkpt>
      <trkpt lat="47.86967" lon="6.91952">
        <ele>1004</ele>
        <time>2026-05-09T08:36:35.816Z</time>
      </trkpt>
      <trkpt lat="47.86968" lon="6.91956">
        <ele>1004</ele>
        <time>2026-05-09T08:36:36.816Z</time>
      </trkpt>
      <trkpt lat="47.86968" lon="6.9196">
        <ele>1004</ele>
        <time>2026-05-09T08:36:37.816Z</time>
      </trkpt>
      <trkpt lat="47.86964" lon="6.91962">
        <ele>1004</ele>
        <time>2026-05-09T08:36:38.816Z</time>
      </trkpt>
      <trkpt lat="47.86963" lon="6.91962">
        <ele>1004</ele>
        <time>2026-05-09T08:36:39.816Z</time>
      </trkpt>
      <trkpt lat="47.86961" lon="6.91964">
        <ele>1004</ele>
        <time>2026-05-09T08:36:40.815Z</time>
      </trkpt>
      <trkpt lat="47.86961" lon="6.91967">
        <ele>1004</ele>
        <time>2026-05-09T08:36:41.816Z</time>
      </trkpt>
      <trkpt lat="47.86959" lon="6.9197">
        <ele>1004</ele>
        <time>2026-05-09T08:36:42.816Z</time>
      </trkpt>
      <trkpt lat="47.86958" lon="6.91972">
        <ele>1004</ele>
        <time>2026-05-09T08:36:43.815Z</time>
      </trkpt>
      <trkpt lat="47.86958" lon="6.91972">
        <ele>1003</ele>
        <time>2026-05-09T08:36:44.816Z</time>
      </trkpt>
      <trkpt lat="47.86959" lon="6.91972">
        <ele>1003</ele>
        <time>2026-05-09T08:36:45.816Z</time>
      </trkpt>
      <trkpt lat="47.8696" lon="6.91972">
        <ele>1003</ele>
        <time>2026-05-09T08:36:46.816Z</time>
      </trkpt>
      <trkpt lat="47.86957" lon="6.91973">
        <ele>1002</ele>
        <time>2026-05-09T08:36:47.816Z</time>
      </trkpt>
      <trkpt lat="47.86955" lon="6.91974">
        <ele>1002</ele>
        <time>2026-05-09T08:36:48.816Z</time>
      </trkpt>
      <trkpt lat="47.86955" lon="6.91976">
        <ele>1001</ele>
        <time>2026-05-09T08:36:49.816Z</time>
      </trkpt>
      <trkpt lat="47.86954" lon="6.9198">
        <ele>1001</ele>
        <time>2026-05-09T08:36:50.815Z</time>
      </trkpt>
      <trkpt lat="47.86953" lon="6.91983">
        <ele>1000</ele>
        <time>2026-05-09T08:36:51.816Z</time>
      </trkpt>
      <trkpt lat="47.86954" lon="6.91985">
        <ele>1000</ele>
        <time>2026-05-09T08:36:52.816Z</time>
      </trkpt>
      <trkpt lat="47.86955" lon="6.91987">
        <ele>1000</ele>
        <time>2026-05-09T08:36:53.816Z</time>
      </trkpt>
      <trkpt lat="47.86957" lon="6.91988">
        <ele>999</ele>
        <time>2026-05-09T08:36:54.816Z</time>
      </trkpt>
      <trkpt lat="47.86958" lon="6.91988">
        <ele>999</ele>
        <time>2026-05-09T08:36:55.816Z</time>
      </trkpt>
      <trkpt lat="47.86959" lon="6.9199">
        <ele>999</ele>
        <time>2026-05-09T08:36:56.815Z</time>
      </trkpt>
      <trkpt lat="47.86961" lon="6.91992">
        <ele>998</ele>
        <time>2026-05-09T08:36:57.815Z</time>
      </trkpt>
      <trkpt lat="47.86962" lon="6.91994">
        <ele>998</ele>
        <time>2026-05-09T08:36:58.815Z</time>
      </trkpt>
      <trkpt lat="47.86963" lon="6.91996">
        <ele>998</ele>
        <time>2026-05-09T08:36:59.815Z</time>
      </trkpt>
      <trkpt lat="47.86964" lon="6.91998">
        <ele>997</ele>
        <time>2026-05-09T08:37:00.815Z</time>
      </trkpt>
      <trkpt lat="47.86963" lon="6.91999">
        <ele>997</ele>
        <time>2026-05-09T08:37:01.815Z</time>
      </trkpt>
      <trkpt lat="47.86962" lon="6.91999">
        <ele>997</ele>
        <time>2026-05-09T08:37:02.815Z</time>
      </trkpt>
      <trkpt lat="47.86962" lon="6.92001">
        <ele>997</ele>
        <time>2026-05-09T08:37:03.816Z</time>
      </trkpt>
      <trkpt lat="47.86961" lon="6.92001">
        <ele>997</ele>
        <time>2026-05-09T08:37:04.815Z</time>
      </trkpt>
      <trkpt lat="47.86961" lon="6.92002">
        <ele>997</ele>
        <time>2026-05-09T08:37:05.815Z</time>
      </trkpt>
      <trkpt lat="47.86962" lon="6.92003">
        <ele>996</ele>
        <time>2026-05-09T08:37:06.815Z</time>
      </trkpt>
      <trkpt lat="47.86962" lon="6.92005">
        <ele>996</ele>
        <time>2026-05-09T08:37:07.816Z</time>
      </trkpt>
      <trkpt lat="47.86962" lon="6.92006">
        <ele>996</ele>
        <time>2026-05-09T08:37:08.816Z</time>
      </trkpt>
      <trkpt lat="47.86962" lon="6.92008">
        <ele>995</ele>
        <time>2026-05-09T08:37:09.815Z</time>
      </trkpt>
      <trkpt lat="47.86963" lon="6.92009">
        <ele>995</ele>
        <time>2026-05-09T08:37:10.815Z</time>
      </trkpt>
      <trkpt lat="47.86964" lon="6.9201">
        <ele>994</ele>
        <time>2026-05-09T08:37:11.816Z</time>
      </trkpt>
      <trkpt lat="47.86963" lon="6.92012">
        <ele>994</ele>
        <time>2026-05-09T08:37:12.816Z</time>
      </trkpt>
      <trkpt lat="47.86964" lon="6.92013">
        <ele>993</ele>
        <time>2026-05-09T08:37:13.815Z</time>
      </trkpt>
      <trkpt lat="47.86965" lon="6.92015">
        <ele>993</ele>
        <time>2026-05-09T08:37:14.816Z</time>
      </trkpt>
      <trkpt lat="47.86966" lon="6.92018">
        <ele>993</ele>
        <time>2026-05-09T08:37:15.815Z</time>
      </trkpt>
      <trkpt lat="47.86967" lon="6.9202">
        <ele>993</ele>
        <time>2026-05-09T08:37:16.816Z</time>
      </trkpt>
      <trkpt lat="47.86967" lon="6.92021">
        <ele>992</ele>
        <time>2026-05-09T08:37:17.816Z</time>
      </trkpt>
      <trkpt lat="47.86967" lon="6.92024">
        <ele>992</ele>
        <time>2026-05-09T08:37:18.816Z</time>
      </trkpt>
      <trkpt lat="47.86967" lon="6.92027">
        <ele>992</ele>
        <time>2026-05-09T08:37:19.816Z</time>
      </trkpt>
      <trkpt lat="47.86967" lon="6.9203">
        <ele>992</ele>
        <time>2026-05-09T08:37:20.815Z</time>
      </trkpt>
      <trkpt lat="47.86967" lon="6.92032">
        <ele>992</ele>
        <time>2026-05-09T08:37:21.815Z</time>
      </trkpt>
      <trkpt lat="47.86966" lon="6.92037">
        <ele>992</ele>
        <time>2026-05-09T08:37:22.815Z</time>
      </trkpt>
      <trkpt lat="47.86965" lon="6.9204">
        <ele>992</ele>
        <time>2026-05-09T08:37:23.815Z</time>
      </trkpt>
      <trkpt lat="47.86965" lon="6.92042">
        <ele>992</ele>
        <time>2026-05-09T08:37:24.816Z</time>
      </trkpt>
      <trkpt lat="47.86966" lon="6.92043">
        <ele>992</ele>
        <time>2026-05-09T08:37:25.816Z</time>
      </trkpt>
      <trkpt lat="47.86967" lon="6.92045">
        <ele>991</ele>
        <time>2026-05-09T08:37:26.816Z</time>
      </trkpt>
      <trkpt lat="47.86968" lon="6.92046">
        <ele>991</ele>
        <time>2026-05-09T08:37:27.815Z</time>
      </trkpt>
      <trkpt lat="47.86969" lon="6.92048">
        <ele>990</ele>
        <time>2026-05-09T08:37:28.816Z</time>
      </trkpt>
      <trkpt lat="47.86968" lon="6.9205">
        <ele>990</ele>
        <time>2026-05-09T08:37:29.815Z</time>
      </trkpt>
      <trkpt lat="47.86968" lon="6.92052">
        <ele>990</ele>
        <time>2026-05-09T08:37:30.815Z</time>
      </trkpt>
      <trkpt lat="47.86967" lon="6.92054">
        <ele>990</ele>
        <time>2026-05-09T08:37:31.816Z</time>
      </trkpt>
      <trkpt lat="47.86967" lon="6.92055">
        <ele>989</ele>
        <time>2026-05-09T08:37:32.816Z</time>
      </trkpt>
      <trkpt lat="47.86967" lon="6.92057">
        <ele>989</ele>
        <time>2026-05-09T08:37:33.816Z</time>
      </trkpt>
      <trkpt lat="47.86966" lon="6.92058">
        <ele>988</ele>
        <time>2026-05-09T08:37:34.815Z</time>
      </trkpt>
      <trkpt lat="47.86965" lon="6.92058">
        <ele>988</ele>
        <time>2026-05-09T08:37:35.816Z</time>
      </trkpt>
      <trkpt lat="47.86964" lon="6.92056">
        <ele>987</ele>
        <time>2026-05-09T08:37:36.815Z</time>
      </trkpt>
      <trkpt lat="47.86964" lon="6.92054">
        <ele>987</ele>
        <time>2026-05-09T08:37:37.816Z</time>
      </trkpt>
      <trkpt lat="47.86964" lon="6.92054">
        <ele>986</ele>
        <time>2026-05-09T08:37:38.815Z</time>
      </trkpt>
      <trkpt lat="47.86965" lon="6.92054">
        <ele>985</ele>
        <time>2026-05-09T08:37:39.816Z</time>
      </trkpt>
      <trkpt lat="47.86965" lon="6.92054">
        <ele>985</ele>
        <time>2026-05-09T08:37:40.815Z</time>
      </trkpt>
      <trkpt lat="47.86965" lon="6.92055">
        <ele>984</ele>
        <time>2026-05-09T08:37:41.816Z</time>
      </trkpt>
      <trkpt lat="47.86964" lon="6.92055">
        <ele>984</ele>
        <time>2026-05-09T08:37:42.815Z</time>
      </trkpt>
      <trkpt lat="47.86964" lon="6.92055">
        <ele>983</ele>
        <time>2026-05-09T08:37:43.815Z</time>
      </trkpt>
      <trkpt lat="47.86963" lon="6.92054">
        <ele>983</ele>
        <time>2026-05-09T08:37:44.816Z</time>
      </trkpt>
      <trkpt lat="47.86962" lon="6.92053">
        <ele>982</ele>
        <time>2026-05-09T08:37:45.816Z</time>
      </trkpt>
      <trkpt lat="47.86962" lon="6.92051">
        <ele>982</ele>
        <time>2026-05-09T08:37:46.815Z</time>
      </trkpt>
      <trkpt lat="47.86961" lon="6.9205">
        <ele>981</ele>
        <time>2026-05-09T08:37:47.815Z</time>
      </trkpt>
      <trkpt lat="47.86961" lon="6.92048">
        <ele>981</ele>
        <time>2026-05-09T08:37:48.816Z</time>
      </trkpt>
      <trkpt lat="47.8696" lon="6.92046">
        <ele>981</ele>
        <time>2026-05-09T08:37:49.815Z</time>
      </trkpt>
      <trkpt lat="47.8696" lon="6.92044">
        <ele>981</ele>
        <time>2026-05-09T08:37:50.815Z</time>
      </trkpt>
      <trkpt lat="47.8696" lon="6.92043">
        <ele>981</ele>
        <time>2026-05-09T08:37:51.815Z</time>
      </trkpt>
      <trkpt lat="47.8696" lon="6.92041">
        <ele>981</ele>
        <time>2026-05-09T08:37:52.815Z</time>
      </trkpt>
      <trkpt lat="47.8696" lon="6.92039">
        <ele>981</ele>
        <time>2026-05-09T08:37:53.815Z</time>
      </trkpt>
      <trkpt lat="47.86959" lon="6.92039">
        <ele>981</ele>
        <time>2026-05-09T08:37:54.816Z</time>
      </trkpt>
      <trkpt lat="47.86958" lon="6.92038">
        <ele>981</ele>
        <time>2026-05-09T08:37:55.815Z</time>
      </trkpt>
      <trkpt lat="47.86957" lon="6.92037">
        <ele>981</ele>
        <time>2026-05-09T08:37:56.815Z</time>
      </trkpt>
      <trkpt lat="47.86957" lon="6.92037">
        <ele>981</ele>
        <time>2026-05-09T08:37:57.816Z</time>
      </trkpt>
      <trkpt lat="47.86957" lon="6.92038">
        <ele>981</ele>
        <time>2026-05-09T08:37:58.815Z</time>
      </trkpt>
      <trkpt lat="47.86958" lon="6.92039">
        <ele>981</ele>
        <time>2026-05-09T08:37:59.816Z</time>
      </trkpt>
      <trkpt lat="47.86958" lon="6.9204">
        <ele>980</ele>
        <time>2026-05-09T08:38:00.816Z</time>
      </trkpt>
      <trkpt lat="47.86958" lon="6.92042">
        <ele>980</ele>
        <time>2026-05-09T08:38:01.815Z</time>
      </trkpt>
      <trkpt lat="47.86959" lon="6.92043">
        <ele>980</ele>
        <time>2026-05-09T08:38:02.816Z</time>
      </trkpt>
      <trkpt lat="47.86959" lon="6.92044">
        <ele>980</ele>
        <time>2026-05-09T08:38:03.815Z</time>
      </trkpt>
      <trkpt lat="47.86959" lon="6.92045">
        <ele>980</ele>
        <time>2026-05-09T08:38:04.816Z</time>
      </trkpt>
      <trkpt lat="47.86959" lon="6.92046">
        <ele>980</ele>
        <time>2026-05-09T08:38:05.815Z</time>
      </trkpt>
      <trkpt lat="47.86959" lon="6.92048">
        <ele>980</ele>
        <time>2026-05-09T08:38:06.816Z</time>
      </trkpt>
      <trkpt lat="47.86958" lon="6.9205">
        <ele>980</ele>
        <time>2026-05-09T08:38:07.815Z</time>
      </trkpt>
      <trkpt lat="47.86958" lon="6.92051">
        <ele>980</ele>
        <time>2026-05-09T08:38:08.816Z</time>
      </trkpt>
      <trkpt lat="47.86958" lon="6.92053">
        <ele>980</ele>
        <time>2026-05-09T08:38:09.816Z</time>
      </trkpt>
      <trkpt lat="47.86958" lon="6.92054">
        <ele>980</ele>
        <time>2026-05-09T08:38:10.815Z</time>
      </trkpt>
      <trkpt lat="47.86958" lon="6.92054">
        <ele>980</ele>
        <time>2026-05-09T08:38:11.815Z</time>
      </trkpt>
      <trkpt lat="47.86958" lon="6.92055">
        <ele>980</ele>
        <time>2026-05-09T08:38:12.816Z</time>
      </trkpt>
      <trkpt lat="47.86958" lon="6.92056">
        <ele>980</ele>
        <time>2026-05-09T08:38:13.816Z</time>
      </trkpt>
      <trkpt lat="47.86958" lon="6.92058">
        <ele>980</ele>
        <time>2026-05-09T08:38:14.816Z</time>
      </trkpt>
      <trkpt lat="47.86958" lon="6.9206">
        <ele>980</ele>
        <time>2026-05-09T08:38:15.816Z</time>
      </trkpt>
      <trkpt lat="47.86957" lon="6.92062">
        <ele>980</ele>
        <time>2026-05-09T08:38:16.815Z</time>
      </trkpt>
      <trkpt lat="47.86957" lon="6.92064">
        <ele>980</ele>
        <time>2026-05-09T08:38:17.815Z</time>
      </trkpt>
      <trkpt lat="47.86958" lon="6.92066">
        <ele>979</ele>
        <time>2026-05-09T08:38:18.815Z</time>
      </trkpt>
      <trkpt lat="47.86958" lon="6.92068">
        <ele>979</ele>
        <time>2026-05-09T08:38:19.816Z</time>
      </trkpt>
      <trkpt lat="47.86959" lon="6.9207">
        <ele>979</ele>
        <time>2026-05-09T08:38:20.815Z</time>
      </trkpt>
      <trkpt lat="47.8696" lon="6.92073">
        <ele>978</ele>
        <time>2026-05-09T08:38:21.815Z</time>
      </trkpt>
      <trkpt lat="47.8696" lon="6.92075">
        <ele>978</ele>
        <time>2026-05-09T08:38:22.815Z</time>
      </trkpt>
      <trkpt lat="47.8696" lon="6.92077">
        <ele>978</ele>
        <time>2026-05-09T08:38:23.815Z</time>
      </trkpt>
      <trkpt lat="47.86961" lon="6.9208">
        <ele>977</ele>
        <time>2026-05-09T08:38:24.816Z</time>
      </trkpt>
      <trkpt lat="47.86962" lon="6.92082">
        <ele>977</ele>
        <time>2026-05-09T08:38:25.816Z</time>
      </trkpt>
      <trkpt lat="47.86962" lon="6.92084">
        <ele>977</ele>
        <time>2026-05-09T08:38:26.815Z</time>
      </trkpt>
      <trkpt lat="47.86963" lon="6.92086">
        <ele>977</ele>
        <time>2026-05-09T08:38:27.816Z</time>
      </trkpt>
      <trkpt lat="47.86963" lon="6.92087">
        <ele>976</ele>
        <time>2026-05-09T08:38:28.816Z</time>
      </trkpt>
      <trkpt lat="47.86964" lon="6.9209">
        <ele>976</ele>
        <time>2026-05-09T08:38:29.816Z</time>
      </trkpt>
      <trkpt lat="47.86964" lon="6.92093">
        <ele>976</ele>
        <time>2026-05-09T08:38:30.815Z</time>
      </trkpt>
      <trkpt lat="47.86965" lon="6.92095">
        <ele>976</ele>
        <time>2026-05-09T08:38:31.816Z</time>
      </trkpt>
      <trkpt lat="47.86965" lon="6.92099">
        <ele>976</ele>
        <time>2026-05-09T08:38:32.815Z</time>
      </trkpt>
      <trkpt lat="47.86966" lon="6.92101">
        <ele>976</ele>
        <time>2026-05-09T08:38:33.816Z</time>
      </trkpt>
      <trkpt lat="47.86966" lon="6.92103">
        <ele>976</ele>
        <time>2026-05-09T08:38:34.815Z</time>
      </trkpt>
      <trkpt lat="47.86966" lon="6.92105">
        <ele>976</ele>
        <time>2026-05-09T08:38:35.816Z</time>
      </trkpt>
      <trkpt lat="47.86966" lon="6.92106">
        <ele>976</ele>
        <time>2026-05-09T08:38:36.815Z</time>
      </trkpt>
      <trkpt lat="47.86966" lon="6.92107">
        <ele>976</ele>
        <time>2026-05-09T08:38:37.815Z</time>
      </trkpt>
      <trkpt lat="47.86966" lon="6.92109">
        <ele>976</ele>
        <time>2026-05-09T08:38:38.815Z</time>
      </trkpt>
      <trkpt lat="47.86966" lon="6.92111">
        <ele>976</ele>
        <time>2026-05-09T08:38:39.816Z</time>
      </trkpt>
      <trkpt lat="47.86966" lon="6.92112">
        <ele>976</ele>
        <time>2026-05-09T08:38:40.815Z</time>
      </trkpt>
      <trkpt lat="47.86966" lon="6.92114">
        <ele>975</ele>
        <time>2026-05-09T08:38:41.816Z</time>
      </trkpt>
      <trkpt lat="47.86966" lon="6.92116">
        <ele>975</ele>
        <time>2026-05-09T08:38:42.815Z</time>
      </trkpt>
      <trkpt lat="47.86966" lon="6.92118">
        <ele>975</ele>
        <time>2026-05-09T08:38:43.816Z</time>
      </trkpt>
      <trkpt lat="47.86966" lon="6.9212">
        <ele>974</ele>
        <time>2026-05-09T08:38:44.816Z</time>
      </trkpt>
      <trkpt lat="47.86967" lon="6.92122">
        <ele>974</ele>
        <time>2026-05-09T08:38:45.816Z</time>
      </trkpt>
      <trkpt lat="47.86967" lon="6.92124">
        <ele>974</ele>
        <time>2026-05-09T08:38:46.816Z</time>
      </trkpt>
      <trkpt lat="47.86967" lon="6.92126">
        <ele>974</ele>
        <time>2026-05-09T08:38:47.815Z</time>
      </trkpt>
      <trkpt lat="47.86967" lon="6.92127">
        <ele>974</ele>
        <time>2026-05-09T08:38:48.816Z</time>
      </trkpt>
      <trkpt lat="47.86968" lon="6.92129">
        <ele>974</ele>
        <time>2026-05-09T08:38:49.815Z</time>
      </trkpt>
      <trkpt lat="47.86968" lon="6.9213">
        <ele>974</ele>
        <time>2026-05-09T08:38:50.816Z</time>
      </trkpt>
      <trkpt lat="47.86969" lon="6.92132">
        <ele>973</ele>
        <time>2026-05-09T08:38:51.815Z</time>
      </trkpt>
      <trkpt lat="47.86969" lon="6.92134">
        <ele>973</ele>
        <time>2026-05-09T08:38:52.816Z</time>
      </trkpt>
      <trkpt lat="47.8697" lon="6.92137">
        <ele>973</ele>
        <time>2026-05-09T08:38:53.815Z</time>
      </trkpt>
      <trkpt lat="47.8697" lon="6.92141">
        <ele>973</ele>
        <time>2026-05-09T08:38:54.815Z</time>
      </trkpt>
      <trkpt lat="47.86971" lon="6.92144">
        <ele>972</ele>
        <time>2026-05-09T08:38:55.816Z</time>
      </trkpt>
      <trkpt lat="47.86971" lon="6.92146">
        <ele>972</ele>
        <time>2026-05-09T08:38:56.815Z</time>
      </trkpt>
      <trkpt lat="47.86971" lon="6.92147">
        <ele>971</ele>
        <time>2026-05-09T08:38:57.816Z</time>
      </trkpt>
      <trkpt lat="47.86972" lon="6.92148">
        <ele>971</ele>
        <time>2026-05-09T08:38:58.815Z</time>
      </trkpt>
      <trkpt lat="47.86973" lon="6.9215">
        <ele>970</ele>
        <time>2026-05-09T08:38:59.816Z</time>
      </trkpt>
      <trkpt lat="47.86973" lon="6.92153">
        <ele>970</ele>
        <time>2026-05-09T08:39:00.816Z</time>
      </trkpt>
      <trkpt lat="47.86974" lon="6.92156">
        <ele>969</ele>
        <time>2026-05-09T08:39:01.816Z</time>
      </trkpt>
      <trkpt lat="47.86975" lon="6.9216">
        <ele>969</ele>
        <time>2026-05-09T08:39:02.816Z</time>
      </trkpt>
      <trkpt lat="47.86975" lon="6.92165">
        <ele>968</ele>
        <time>2026-05-09T08:39:03.816Z</time>
      </trkpt>
      <trkpt lat="47.86974" lon="6.9217">
        <ele>968</ele>
        <time>2026-05-09T08:39:04.815Z</time>
      </trkpt>
      <trkpt lat="47.86975" lon="6.92176">
        <ele>968</ele>
        <time>2026-05-09T08:39:05.816Z</time>
      </trkpt>
      <trkpt lat="47.86977" lon="6.92179">
        <ele>968</ele>
        <time>2026-05-09T08:39:06.815Z</time>
      </trkpt>
      <trkpt lat="47.8698" lon="6.9218">
        <ele>967</ele>
        <time>2026-05-09T08:39:07.816Z</time>
      </trkpt>
      <trkpt lat="47.8698" lon="6.92181">
        <ele>967</ele>
        <time>2026-05-09T08:39:08.815Z</time>
      </trkpt>
      <trkpt lat="47.86981" lon="6.92186">
        <ele>967</ele>
        <time>2026-05-09T08:39:09.816Z</time>
      </trkpt>
      <trkpt lat="47.86981" lon="6.92191">
        <ele>967</ele>
        <time>2026-05-09T08:39:10.815Z</time>
      </trkpt>
      <trkpt lat="47.86982" lon="6.92196">
        <ele>968</ele>
        <time>2026-05-09T08:39:11.816Z</time>
      </trkpt>
      <trkpt lat="47.86981" lon="6.92199">
        <ele>968</ele>
        <time>2026-05-09T08:39:12.815Z</time>
      </trkpt>
      <trkpt lat="47.86981" lon="6.92201">
        <ele>968</ele>
        <time>2026-05-09T08:39:13.816Z</time>
      </trkpt>
      <trkpt lat="47.86981" lon="6.922">
        <ele>968</ele>
        <time>2026-05-09T08:39:14.815Z</time>
      </trkpt>
      <trkpt lat="47.8698" lon="6.92199">
        <ele>968</ele>
        <time>2026-05-09T08:39:15.816Z</time>
      </trkpt>
      <trkpt lat="47.86979" lon="6.92204">
        <ele>967</ele>
        <time>2026-05-09T08:39:16.815Z</time>
      </trkpt>
      <trkpt lat="47.86979" lon="6.92206">
        <ele>967</ele>
        <time>2026-05-09T08:39:17.815Z</time>
      </trkpt>
      <trkpt lat="47.86981" lon="6.92205">
        <ele>967</ele>
        <time>2026-05-09T08:39:18.815Z</time>
      </trkpt>
      <trkpt lat="47.86982" lon="6.92207">
        <ele>967</ele>
        <time>2026-05-09T08:39:19.816Z</time>
      </trkpt>
      <trkpt lat="47.86982" lon="6.92209">
        <ele>966</ele>
        <time>2026-05-09T08:39:20.816Z</time>
      </trkpt>
      <trkpt lat="47.86982" lon="6.92214">
        <ele>966</ele>
        <time>2026-05-09T08:39:21.816Z</time>
      </trkpt>
      <trkpt lat="47.86981" lon="6.92218">
        <ele>966</ele>
        <time>2026-05-09T08:39:22.815Z</time>
      </trkpt>
      <trkpt lat="47.8698" lon="6.92221">
        <ele>966</ele>
        <time>2026-05-09T08:39:23.815Z</time>
      </trkpt>
      <trkpt lat="47.8698" lon="6.92221">
        <ele>966</ele>
        <time>2026-05-09T08:39:24.816Z</time>
      </trkpt>
      <trkpt lat="47.8698" lon="6.9222">
        <ele>965</ele>
        <time>2026-05-09T08:39:25.815Z</time>
      </trkpt>
      <trkpt lat="47.86982" lon="6.9222">
        <ele>965</ele>
        <time>2026-05-09T08:39:26.815Z</time>
      </trkpt>
      <trkpt lat="47.86984" lon="6.92219">
        <ele>965</ele>
        <time>2026-05-09T08:39:27.815Z</time>
      </trkpt>
      <trkpt lat="47.86985" lon="6.92218">
        <ele>965</ele>
        <time>2026-05-09T08:39:28.816Z</time>
      </trkpt>
      <trkpt lat="47.86986" lon="6.92218">
        <ele>964</ele>
        <time>2026-05-09T08:39:29.815Z</time>
      </trkpt>
      <trkpt lat="47.86986" lon="6.9222">
        <ele>964</ele>
        <time>2026-05-09T08:39:30.816Z</time>
      </trkpt>
      <trkpt lat="47.86987" lon="6.92221">
        <ele>964</ele>
        <time>2026-05-09T08:39:31.815Z</time>
      </trkpt>
      <trkpt lat="47.86986" lon="6.92222">
        <ele>963</ele>
        <time>2026-05-09T08:39:32.816Z</time>
      </trkpt>
      <trkpt lat="47.86985" lon="6.92222">
        <ele>963</ele>
        <time>2026-05-09T08:39:33.815Z</time>
      </trkpt>
      <trkpt lat="47.86983" lon="6.92223">
        <ele>962</ele>
        <time>2026-05-09T08:39:34.816Z</time>
      </trkpt>
      <trkpt lat="47.86982" lon="6.92223">
        <ele>962</ele>
        <time>2026-05-09T08:39:35.815Z</time>
      </trkpt>
      <trkpt lat="47.86981" lon="6.92224">
        <ele>962</ele>
        <time>2026-05-09T08:39:36.816Z</time>
      </trkpt>
      <trkpt lat="47.86979" lon="6.92224">
        <ele>962</ele>
        <time>2026-05-09T08:39:37.816Z</time>
      </trkpt>
      <trkpt lat="47.86978" lon="6.92224">
        <ele>962</ele>
        <time>2026-05-09T08:39:38.816Z</time>
      </trkpt>
      <trkpt lat="47.86977" lon="6.92224">
        <ele>962</ele>
        <time>2026-05-09T08:39:39.816Z</time>
      </trkpt>
      <trkpt lat="47.86977" lon="6.92225">
        <ele>962</ele>
        <time>2026-05-09T08:39:40.815Z</time>
      </trkpt>
      <trkpt lat="47.86978" lon="6.92224">
        <ele>962</ele>
        <time>2026-05-09T08:39:41.816Z</time>
      </trkpt>
      <trkpt lat="47.86979" lon="6.92224">
        <ele>962</ele>
        <time>2026-05-09T08:39:42.815Z</time>
      </trkpt>
      <trkpt lat="47.8698" lon="6.92223">
        <ele>962</ele>
        <time>2026-05-09T08:39:43.815Z</time>
      </trkpt>
      <trkpt lat="47.86981" lon="6.92224">
        <ele>962</ele>
        <time>2026-05-09T08:39:44.815Z</time>
      </trkpt>
      <trkpt lat="47.86982" lon="6.92225">
        <ele>962</ele>
        <time>2026-05-09T08:39:45.816Z</time>
      </trkpt>
      <trkpt lat="47.86983" lon="6.92226">
        <ele>962</ele>
        <time>2026-05-09T08:39:46.815Z</time>
      </trkpt>
      <trkpt lat="47.86984" lon="6.92227">
        <ele>962</ele>
        <time>2026-05-09T08:39:47.816Z</time>
      </trkpt>
      <trkpt lat="47.86986" lon="6.92228">
        <ele>962</ele>
        <time>2026-05-09T08:39:48.815Z</time>
      </trkpt>
      <trkpt lat="47.86987" lon="6.9223">
        <ele>962</ele>
        <time>2026-05-09T08:39:49.816Z</time>
      </trkpt>
      <trkpt lat="47.86989" lon="6.92231">
        <ele>963</ele>
        <time>2026-05-09T08:39:50.815Z</time>
      </trkpt>
      <trkpt lat="47.8699" lon="6.92232">
        <ele>963</ele>
        <time>2026-05-09T08:39:51.816Z</time>
      </trkpt>
      <trkpt lat="47.86991" lon="6.92232">
        <ele>963</ele>
        <time>2026-05-09T08:39:52.815Z</time>
      </trkpt>
      <trkpt lat="47.86992" lon="6.92232">
        <ele>963</ele>
        <time>2026-05-09T08:39:53.816Z</time>
      </trkpt>
      <trkpt lat="47.86993" lon="6.92232">
        <ele>963</ele>
        <time>2026-05-09T08:39:54.816Z</time>
      </trkpt>
      <trkpt lat="47.86994" lon="6.92232">
        <ele>962</ele>
        <time>2026-05-09T08:39:55.815Z</time>
      </trkpt>
      <trkpt lat="47.86994" lon="6.92233">
        <ele>962</ele>
        <time>2026-05-09T08:39:56.816Z</time>
      </trkpt>
      <trkpt lat="47.86994" lon="6.92234">
        <ele>962</ele>
        <time>2026-05-09T08:39:57.815Z</time>
      </trkpt>
      <trkpt lat="47.86993" lon="6.92235">
        <ele>961</ele>
        <time>2026-05-09T08:39:58.816Z</time>
      </trkpt>
      <trkpt lat="47.86992" lon="6.92236">
        <ele>961</ele>
        <time>2026-05-09T08:39:59.815Z</time>
      </trkpt>
      <trkpt lat="47.86991" lon="6.92238">
        <ele>961</ele>
        <time>2026-05-09T08:40:00.815Z</time>
      </trkpt>
      <trkpt lat="47.86989" lon="6.92239">
        <ele>960</ele>
        <time>2026-05-09T08:40:01.815Z</time>
      </trkpt>
      <trkpt lat="47.86988" lon="6.92239">
        <ele>960</ele>
        <time>2026-05-09T08:40:02.816Z</time>
      </trkpt>
      <trkpt lat="47.86987" lon="6.92239">
        <ele>959</ele>
        <time>2026-05-09T08:40:03.815Z</time>
      </trkpt>
      <trkpt lat="47.86985" lon="6.92238">
        <ele>959</ele>
        <time>2026-05-09T08:40:04.816Z</time>
      </trkpt>
      <trkpt lat="47.86983" lon="6.92238">
        <ele>958</ele>
        <time>2026-05-09T08:40:05.815Z</time>
      </trkpt>
      <trkpt lat="47.86983" lon="6.92238">
        <ele>958</ele>
        <time>2026-05-09T08:40:06.816Z</time>
      </trkpt>
      <trkpt lat="47.86983" lon="6.92238">
        <ele>958</ele>
        <time>2026-05-09T08:40:07.815Z</time>
      </trkpt>
      <trkpt lat="47.86984" lon="6.92239">
        <ele>958</ele>
        <time>2026-05-09T08:40:08.815Z</time>
      </trkpt>
      <trkpt lat="47.86985" lon="6.92239">
        <ele>957</ele>
        <time>2026-05-09T08:40:09.816Z</time>
      </trkpt>
      <trkpt lat="47.86987" lon="6.9224">
        <ele>957</ele>
        <time>2026-05-09T08:40:10.815Z</time>
      </trkpt>
      <trkpt lat="47.86988" lon="6.9224">
        <ele>957</ele>
        <time>2026-05-09T08:40:11.816Z</time>
      </trkpt>
      <trkpt lat="47.8699" lon="6.92241">
        <ele>956</ele>
        <time>2026-05-09T08:40:12.816Z</time>
      </trkpt>
      <trkpt lat="47.86991" lon="6.92241">
        <ele>956</ele>
        <time>2026-05-09T08:40:13.815Z</time>
      </trkpt>
      <trkpt lat="47.86992" lon="6.92242">
        <ele>956</ele>
        <time>2026-05-09T08:40:14.816Z</time>
      </trkpt>
      <trkpt lat="47.86992" lon="6.92243">
        <ele>956</ele>
        <time>2026-05-09T08:40:15.816Z</time>
      </trkpt>
      <trkpt lat="47.86993" lon="6.92243">
        <ele>956</ele>
        <time>2026-05-09T08:40:16.816Z</time>
      </trkpt>
      <trkpt lat="47.86994" lon="6.92244">
        <ele>955</ele>
        <time>2026-05-09T08:40:17.815Z</time>
      </trkpt>
      <trkpt lat="47.86995" lon="6.92244">
        <ele>955</ele>
        <time>2026-05-09T08:40:18.816Z</time>
      </trkpt>
      <trkpt lat="47.86996" lon="6.92245">
        <ele>955</ele>
        <time>2026-05-09T08:40:19.816Z</time>
      </trkpt>
      <trkpt lat="47.86997" lon="6.92246">
        <ele>954</ele>
        <time>2026-05-09T08:40:20.816Z</time>
      </trkpt>
      <trkpt lat="47.86998" lon="6.92248">
        <ele>954</ele>
        <time>2026-05-09T08:40:21.816Z</time>
      </trkpt>
      <trkpt lat="47.86998" lon="6.92249">
        <ele>954</ele>
        <time>2026-05-09T08:40:22.815Z</time>
      </trkpt>
      <trkpt lat="47.86999" lon="6.9225">
        <ele>954</ele>
        <time>2026-05-09T08:40:23.816Z</time>
      </trkpt>
      <trkpt lat="47.87" lon="6.92251">
        <ele>954</ele>
        <time>2026-05-09T08:40:24.815Z</time>
      </trkpt>
      <trkpt lat="47.87" lon="6.92252">
        <ele>954</ele>
        <time>2026-05-09T08:40:25.816Z</time>
      </trkpt>
      <trkpt lat="47.87001" lon="6.92254">
        <ele>954</ele>
        <time>2026-05-09T08:40:26.816Z</time>
      </trkpt>
      <trkpt lat="47.87033" lon="6.92188">
        <ele>950</ele>
        <time>2026-05-09T08:41:50.422Z</time>
      </trkpt>
      <trkpt lat="47.87033" lon="6.92187">
        <ele>950</ele>
        <time>2026-05-09T08:41:51.422Z</time>
      </trkpt>
      <trkpt lat="47.87034" lon="6.92185">
        <ele>950</ele>
        <time>2026-05-09T08:41:52.422Z</time>
      </trkpt>
      <trkpt lat="47.87035" lon="6.92183">
        <ele>950</ele>
        <time>2026-05-09T08:41:53.423Z</time>
      </trkpt>
      <trkpt lat="47.87036" lon="6.92181">
        <ele>950</ele>
        <time>2026-05-09T08:41:54.422Z</time>
      </trkpt>
      <trkpt lat="47.87036" lon="6.9218">
        <ele>950</ele>
        <time>2026-05-09T08:41:55.423Z</time>
      </trkpt>
      <trkpt lat="47.87037" lon="6.92179">
        <ele>950</ele>
        <time>2026-05-09T08:41:56.422Z</time>
      </trkpt>
      <trkpt lat="47.87038" lon="6.92177">
        <ele>950</ele>
        <time>2026-05-09T08:41:57.423Z</time>
      </trkpt>
      <trkpt lat="47.87039" lon="6.92176">
        <ele>950</ele>
        <time>2026-05-09T08:41:58.423Z</time>
      </trkpt>
      <trkpt lat="47.8704" lon="6.92175">
        <ele>950</ele>
        <time>2026-05-09T08:41:59.422Z</time>
      </trkpt>
      <trkpt lat="47.87041" lon="6.92174">
        <ele>950</ele>
        <time>2026-05-09T08:42:00.422Z</time>
      </trkpt>
      <trkpt lat="47.87042" lon="6.92172">
        <ele>950</ele>
        <time>2026-05-09T08:42:01.422Z</time>
      </trkpt>
      <trkpt lat="47.87043" lon="6.9217">
        <ele>950</ele>
        <time>2026-05-09T08:42:02.422Z</time>
      </trkpt>
      <trkpt lat="47.87043" lon="6.92168">
        <ele>950</ele>
        <time>2026-05-09T08:42:03.423Z</time>
      </trkpt>
      <trkpt lat="47.87043" lon="6.92166">
        <ele>950</ele>
        <time>2026-05-09T08:42:04.422Z</time>
      </trkpt>
      <trkpt lat="47.87044" lon="6.92165">
        <ele>950</ele>
        <time>2026-05-09T08:42:05.422Z</time>
      </trkpt>
      <trkpt lat="47.87044" lon="6.92163">
        <ele>950</ele>
        <time>2026-05-09T08:42:06.422Z</time>
      </trkpt>
      <trkpt lat="47.87046" lon="6.92162">
        <ele>950</ele>
        <time>2026-05-09T08:42:07.423Z</time>
      </trkpt>
      <trkpt lat="47.87047" lon="6.92162">
        <ele>950</ele>
        <time>2026-05-09T08:42:08.423Z</time>
      </trkpt>
      <trkpt lat="47.87048" lon="6.92161">
        <ele>950</ele>
        <time>2026-05-09T08:42:09.423Z</time>
      </trkpt>
      <trkpt lat="47.87049" lon="6.9216">
        <ele>950</ele>
        <time>2026-05-09T08:42:10.422Z</time>
      </trkpt>
      <trkpt lat="47.8705" lon="6.92159">
        <ele>949</ele>
        <time>2026-05-09T08:42:11.423Z</time>
      </trkpt>
      <trkpt lat="47.87051" lon="6.92158">
        <ele>949</ele>
        <time>2026-05-09T08:42:12.422Z</time>
      </trkpt>
      <trkpt lat="47.87052" lon="6.92156">
        <ele>949</ele>
        <time>2026-05-09T08:42:13.423Z</time>
      </trkpt>
      <trkpt lat="47.87052" lon="6.92154">
        <ele>948</ele>
        <time>2026-05-09T08:42:14.422Z</time>
      </trkpt>
      <trkpt lat="47.87053" lon="6.92153">
        <ele>948</ele>
        <time>2026-05-09T08:42:15.422Z</time>
      </trkpt>
      <trkpt lat="47.87055" lon="6.92151">
        <ele>947</ele>
        <time>2026-05-09T08:42:16.423Z</time>
      </trkpt>
      <trkpt lat="47.87055" lon="6.92149">
        <ele>947</ele>
        <time>2026-05-09T08:42:17.422Z</time>
      </trkpt>
      <trkpt lat="47.87056" lon="6.92148">
        <ele>947</ele>
        <time>2026-05-09T08:42:18.423Z</time>
      </trkpt>
      <trkpt lat="47.87057" lon="6.92146">
        <ele>946</ele>
        <time>2026-05-09T08:42:19.422Z</time>
      </trkpt>
      <trkpt lat="47.87058" lon="6.92145">
        <ele>946</ele>
        <time>2026-05-09T08:42:20.423Z</time>
      </trkpt>
      <trkpt lat="47.87059" lon="6.92144">
        <ele>946</ele>
        <time>2026-05-09T08:42:21.422Z</time>
      </trkpt>
      <trkpt lat="47.8706" lon="6.92142">
        <ele>945</ele>
        <time>2026-05-09T08:42:22.423Z</time>
      </trkpt>
      <trkpt lat="47.87061" lon="6.92141">
        <ele>945</ele>
        <time>2026-05-09T08:42:23.422Z</time>
      </trkpt>
      <trkpt lat="47.87062" lon="6.92139">
        <ele>944</ele>
        <time>2026-05-09T08:42:24.423Z</time>
      </trkpt>
      <trkpt lat="47.87063" lon="6.92138">
        <ele>944</ele>
        <time>2026-05-09T08:42:25.422Z</time>
      </trkpt>
      <trkpt lat="47.87064" lon="6.92136">
        <ele>944</ele>
        <time>2026-05-09T08:42:26.423Z</time>
      </trkpt>
      <trkpt lat="47.87065" lon="6.92134">
        <ele>944</ele>
        <time>2026-05-09T08:42:27.422Z</time>
      </trkpt>
      <trkpt lat="47.87066" lon="6.92133">
        <ele>943</ele>
        <time>2026-05-09T08:42:28.422Z</time>
      </trkpt>
      <trkpt lat="47.87067" lon="6.92131">
        <ele>943</ele>
        <time>2026-05-09T08:42:29.422Z</time>
      </trkpt>
      <trkpt lat="47.87068" lon="6.92129">
        <ele>942</ele>
        <time>2026-05-09T08:42:30.422Z</time>
      </trkpt>
      <trkpt lat="47.87069" lon="6.92128">
        <ele>942</ele>
        <time>2026-05-09T08:42:31.423Z</time>
      </trkpt>
      <trkpt lat="47.8707" lon="6.92127">
        <ele>942</ele>
        <time>2026-05-09T08:42:32.422Z</time>
      </trkpt>
      <trkpt lat="47.87071" lon="6.92126">
        <ele>941</ele>
        <time>2026-05-09T08:42:33.423Z</time>
      </trkpt>
      <trkpt lat="47.87072" lon="6.92125">
        <ele>941</ele>
        <time>2026-05-09T08:42:34.422Z</time>
      </trkpt>
      <trkpt lat="47.87073" lon="6.92124">
        <ele>941</ele>
        <time>2026-05-09T08:42:35.423Z</time>
      </trkpt>
      <trkpt lat="47.87074" lon="6.92122">
        <ele>940</ele>
        <time>2026-05-09T08:42:36.422Z</time>
      </trkpt>
      <trkpt lat="47.87074" lon="6.92121">
        <ele>940</ele>
        <time>2026-05-09T08:42:37.423Z</time>
      </trkpt>
      <trkpt lat="47.87075" lon="6.92119">
        <ele>940</ele>
        <time>2026-05-09T08:42:38.422Z</time>
      </trkpt>
      <trkpt lat="47.87076" lon="6.92117">
        <ele>940</ele>
        <time>2026-05-09T08:42:39.422Z</time>
      </trkpt>
      <trkpt lat="47.87077" lon="6.92115">
        <ele>940</ele>
        <time>2026-05-09T08:42:40.422Z</time>
      </trkpt>
      <trkpt lat="47.87078" lon="6.92113">
        <ele>939</ele>
        <time>2026-05-09T08:42:41.423Z</time>
      </trkpt>
      <trkpt lat="47.87079" lon="6.92111">
        <ele>939</ele>
        <time>2026-05-09T08:42:42.422Z</time>
      </trkpt>
      <trkpt lat="47.87079" lon="6.92108">
        <ele>939</ele>
        <time>2026-05-09T08:42:43.423Z</time>
      </trkpt>
      <trkpt lat="47.8708" lon="6.92106">
        <ele>939</ele>
        <time>2026-05-09T08:42:44.422Z</time>
      </trkpt>
      <trkpt lat="47.8708" lon="6.92103">
        <ele>939</ele>
        <time>2026-05-09T08:42:45.423Z</time>
      </trkpt>
      <trkpt lat="47.87081" lon="6.921">
        <ele>939</ele>
        <time>2026-05-09T08:42:46.422Z</time>
      </trkpt>
      <trkpt lat="47.87081" lon="6.92098">
        <ele>939</ele>
        <time>2026-05-09T08:42:47.423Z</time>
      </trkpt>
      <trkpt lat="47.87082" lon="6.92096">
        <ele>938</ele>
        <time>2026-05-09T08:42:48.422Z</time>
      </trkpt>
      <trkpt lat="47.87082" lon="6.92094">
        <ele>938</ele>
        <time>2026-05-09T08:42:49.422Z</time>
      </trkpt>
      <trkpt lat="47.87084" lon="6.92093">
        <ele>938</ele>
        <time>2026-05-09T08:42:50.423Z</time>
      </trkpt>
      <trkpt lat="47.87084" lon="6.92092">
        <ele>939</ele>
        <time>2026-05-09T08:42:51.422Z</time>
      </trkpt>
      <trkpt lat="47.87085" lon="6.92091">
        <ele>939</ele>
        <time>2026-05-09T08:42:52.423Z</time>
      </trkpt>
      <trkpt lat="47.87085" lon="6.9209">
        <ele>939</ele>
        <time>2026-05-09T08:42:53.423Z</time>
      </trkpt>
      <trkpt lat="47.87086" lon="6.92088">
        <ele>939</ele>
        <time>2026-05-09T08:42:54.423Z</time>
      </trkpt>
      <trkpt lat="47.87087" lon="6.92086">
        <ele>939</ele>
        <time>2026-05-09T08:42:55.422Z</time>
      </trkpt>
      <trkpt lat="47.87088" lon="6.92085">
        <ele>939</ele>
        <time>2026-05-09T08:42:56.423Z</time>
      </trkpt>
      <trkpt lat="47.87089" lon="6.92085">
        <ele>939</ele>
        <time>2026-05-09T08:42:57.423Z</time>
      </trkpt>
      <trkpt lat="47.87089" lon="6.92084">
        <ele>939</ele>
        <time>2026-05-09T08:42:58.423Z</time>
      </trkpt>
      <trkpt lat="47.8709" lon="6.92083">
        <ele>939</ele>
        <time>2026-05-09T08:42:59.422Z</time>
      </trkpt>
      <trkpt lat="47.87091" lon="6.92083">
        <ele>938</ele>
        <time>2026-05-09T08:43:00.423Z</time>
      </trkpt>
      <trkpt lat="47.87092" lon="6.92082">
        <ele>938</ele>
        <time>2026-05-09T08:43:01.422Z</time>
      </trkpt>
      <trkpt lat="47.87093" lon="6.92081">
        <ele>938</ele>
        <time>2026-05-09T08:43:02.422Z</time>
      </trkpt>
      <trkpt lat="47.87094" lon="6.92081">
        <ele>939</ele>
        <time>2026-05-09T08:43:03.422Z</time>
      </trkpt>
      <trkpt lat="47.87095" lon="6.9208">
        <ele>939</ele>
        <time>2026-05-09T08:43:04.423Z</time>
      </trkpt>
      <trkpt lat="47.87097" lon="6.92079">
        <ele>939</ele>
        <time>2026-05-09T08:43:05.422Z</time>
      </trkpt>
      <trkpt lat="47.87098" lon="6.92078">
        <ele>940</ele>
        <time>2026-05-09T08:43:06.423Z</time>
      </trkpt>
      <trkpt lat="47.87099" lon="6.92076">
        <ele>940</ele>
        <time>2026-05-09T08:43:07.423Z</time>
      </trkpt>
      <trkpt lat="47.871" lon="6.92075">
        <ele>940</ele>
        <time>2026-05-09T08:43:08.423Z</time>
      </trkpt>
      <trkpt lat="47.87101" lon="6.92074">
        <ele>941</ele>
        <time>2026-05-09T08:43:09.422Z</time>
      </trkpt>
      <trkpt lat="47.87102" lon="6.92072">
        <ele>941</ele>
        <time>2026-05-09T08:43:10.423Z</time>
      </trkpt>
      <trkpt lat="47.87102" lon="6.9207">
        <ele>941</ele>
        <time>2026-05-09T08:43:11.422Z</time>
      </trkpt>
      <trkpt lat="47.87103" lon="6.92068">
        <ele>941</ele>
        <time>2026-05-09T08:43:12.422Z</time>
      </trkpt>
      <trkpt lat="47.87104" lon="6.92067">
        <ele>941</ele>
        <time>2026-05-09T08:43:13.422Z</time>
      </trkpt>
      <trkpt lat="47.87105" lon="6.92066">
        <ele>941</ele>
        <time>2026-05-09T08:43:14.423Z</time>
      </trkpt>
      <trkpt lat="47.87106" lon="6.92065">
        <ele>941</ele>
        <time>2026-05-09T08:43:15.422Z</time>
      </trkpt>
      <trkpt lat="47.87106" lon="6.92064">
        <ele>941</ele>
        <time>2026-05-09T08:43:16.422Z</time>
      </trkpt>
      <trkpt lat="47.87107" lon="6.92062">
        <ele>941</ele>
        <time>2026-05-09T08:43:17.423Z</time>
      </trkpt>
      <trkpt lat="47.87108" lon="6.92061">
        <ele>942</ele>
        <time>2026-05-09T08:43:18.422Z</time>
      </trkpt>
      <trkpt lat="47.87109" lon="6.9206">
        <ele>942</ele>
        <time>2026-05-09T08:43:19.423Z</time>
      </trkpt>
      <trkpt lat="47.8711" lon="6.92058">
        <ele>943</ele>
        <time>2026-05-09T08:43:20.422Z</time>
      </trkpt>
      <trkpt lat="47.87111" lon="6.92056">
        <ele>943</ele>
        <time>2026-05-09T08:43:21.422Z</time>
      </trkpt>
      <trkpt lat="47.87112" lon="6.92054">
        <ele>944</ele>
        <time>2026-05-09T08:43:22.422Z</time>
      </trkpt>
      <trkpt lat="47.87113" lon="6.92053">
        <ele>944</ele>
        <time>2026-05-09T08:43:23.423Z</time>
      </trkpt>
      <trkpt lat="47.87114" lon="6.92052">
        <ele>945</ele>
        <time>2026-05-09T08:43:24.422Z</time>
      </trkpt>
      <trkpt lat="47.87115" lon="6.9205">
        <ele>945</ele>
        <time>2026-05-09T08:43:25.423Z</time>
      </trkpt>
      <trkpt lat="47.87116" lon="6.92049">
        <ele>945</ele>
        <time>2026-05-09T08:43:26.422Z</time>
      </trkpt>
      <trkpt lat="47.87117" lon="6.92048">
        <ele>946</ele>
        <time>2026-05-09T08:43:27.423Z</time>
      </trkpt>
      <trkpt lat="47.87118" lon="6.92048">
        <ele>946</ele>
        <time>2026-05-09T08:43:28.422Z</time>
      </trkpt>
      <trkpt lat="47.87119" lon="6.92047">
        <ele>946</ele>
        <time>2026-05-09T08:43:29.423Z</time>
      </trkpt>
      <trkpt lat="47.8712" lon="6.92046">
        <ele>946</ele>
        <time>2026-05-09T08:43:30.422Z</time>
      </trkpt>
      <trkpt lat="47.87121" lon="6.92044">
        <ele>947</ele>
        <time>2026-05-09T08:43:31.422Z</time>
      </trkpt>
      <trkpt lat="47.87122" lon="6.92042">
        <ele>947</ele>
        <time>2026-05-09T08:43:32.422Z</time>
      </trkpt>
      <trkpt lat="47.87123" lon="6.9204">
        <ele>947</ele>
        <time>2026-05-09T08:43:33.423Z</time>
      </trkpt>
      <trkpt lat="47.87124" lon="6.9204">
        <ele>947</ele>
        <time>2026-05-09T08:43:34.422Z</time>
      </trkpt>
      <trkpt lat="47.87124" lon="6.92038">
        <ele>947</ele>
        <time>2026-05-09T08:43:35.422Z</time>
      </trkpt>
      <trkpt lat="47.87125" lon="6.92038">
        <ele>947</ele>
        <time>2026-05-09T08:43:36.423Z</time>
      </trkpt>
      <trkpt lat="47.87126" lon="6.92038">
        <ele>946</ele>
        <time>2026-05-09T08:43:37.422Z</time>
      </trkpt>
      <trkpt lat="47.87127" lon="6.92038">
        <ele>946</ele>
        <time>2026-05-09T08:43:38.423Z</time>
      </trkpt>
      <trkpt lat="47.87128" lon="6.92038">
        <ele>946</ele>
        <time>2026-05-09T08:43:39.423Z</time>
      </trkpt>
      <trkpt lat="47.87129" lon="6.92038">
        <ele>946</ele>
        <time>2026-05-09T08:43:40.422Z</time>
      </trkpt>
      <trkpt lat="47.8713" lon="6.92038">
        <ele>946</ele>
        <time>2026-05-09T08:43:41.423Z</time>
      </trkpt>
      <trkpt lat="47.87131" lon="6.92038">
        <ele>946</ele>
        <time>2026-05-09T08:43:42.422Z</time>
      </trkpt>
      <trkpt lat="47.87132" lon="6.92038">
        <ele>946</ele>
        <time>2026-05-09T08:43:43.422Z</time>
      </trkpt>
      <trkpt lat="47.87133" lon="6.92038">
        <ele>947</ele>
        <time>2026-05-09T08:43:44.422Z</time>
      </trkpt>
      <trkpt lat="47.87134" lon="6.92037">
        <ele>947</ele>
        <time>2026-05-09T08:43:45.422Z</time>
      </trkpt>
      <trkpt lat="47.87136" lon="6.92037">
        <ele>947</ele>
        <time>2026-05-09T08:43:46.422Z</time>
      </trkpt>
      <trkpt lat="47.87137" lon="6.92036">
        <ele>947</ele>
        <time>2026-05-09T08:43:47.422Z</time>
      </trkpt>
      <trkpt lat="47.87138" lon="6.92035">
        <ele>947</ele>
        <time>2026-05-09T08:43:48.423Z</time>
      </trkpt>
      <trkpt lat="47.87138" lon="6.92035">
        <ele>947</ele>
        <time>2026-05-09T08:43:49.423Z</time>
      </trkpt>
      <trkpt lat="47.87139" lon="6.92033">
        <ele>947</ele>
        <time>2026-05-09T08:43:50.422Z</time>
      </trkpt>
      <trkpt lat="47.8714" lon="6.92031">
        <ele>947</ele>
        <time>2026-05-09T08:43:51.423Z</time>
      </trkpt>
      <trkpt lat="47.87141" lon="6.9203">
        <ele>947</ele>
        <time>2026-05-09T08:43:52.422Z</time>
      </trkpt>
      <trkpt lat="47.87143" lon="6.92029">
        <ele>947</ele>
        <time>2026-05-09T08:43:53.423Z</time>
      </trkpt>
      <trkpt lat="47.87144" lon="6.92027">
        <ele>947</ele>
        <time>2026-05-09T08:43:54.422Z</time>
      </trkpt>
      <trkpt lat="47.87144" lon="6.92026">
        <ele>947</ele>
        <time>2026-05-09T08:43:55.423Z</time>
      </trkpt>
      <trkpt lat="47.87145" lon="6.92026">
        <ele>947</ele>
        <time>2026-05-09T08:43:56.422Z</time>
      </trkpt>
      <trkpt lat="47.87146" lon="6.92026">
        <ele>947</ele>
        <time>2026-05-09T08:43:57.422Z</time>
      </trkpt>
      <trkpt lat="47.87146" lon="6.92026">
        <ele>947</ele>
        <time>2026-05-09T08:43:58.422Z</time>
      </trkpt>
      <trkpt lat="47.87147" lon="6.92024">
        <ele>947</ele>
        <time>2026-05-09T08:43:59.423Z</time>
      </trkpt>
      <trkpt lat="47.87148" lon="6.92024">
        <ele>947</ele>
        <time>2026-05-09T08:44:00.422Z</time>
      </trkpt>
      <trkpt lat="47.87149" lon="6.92023">
        <ele>947</ele>
        <time>2026-05-09T08:44:01.423Z</time>
      </trkpt>
      <trkpt lat="47.8715" lon="6.92022">
        <ele>946</ele>
        <time>2026-05-09T08:44:02.423Z</time>
      </trkpt>
      <trkpt lat="47.87151" lon="6.92021">
        <ele>946</ele>
        <time>2026-05-09T08:44:03.422Z</time>
      </trkpt>
      <trkpt lat="47.87152" lon="6.92021">
        <ele>946</ele>
        <time>2026-05-09T08:44:04.422Z</time>
      </trkpt>
      <trkpt lat="47.87154" lon="6.92022">
        <ele>946</ele>
        <time>2026-05-09T08:44:05.423Z</time>
      </trkpt>
      <trkpt lat="47.87155" lon="6.92022">
        <ele>946</ele>
        <time>2026-05-09T08:44:06.423Z</time>
      </trkpt>
      <trkpt lat="47.87156" lon="6.92022">
        <ele>946</ele>
        <time>2026-05-09T08:44:07.423Z</time>
      </trkpt>
      <trkpt lat="47.87156" lon="6.92022">
        <ele>946</ele>
        <time>2026-05-09T08:44:08.422Z</time>
      </trkpt>
      <trkpt lat="47.87157" lon="6.92022">
        <ele>946</ele>
        <time>2026-05-09T08:44:09.422Z</time>
      </trkpt>
      <trkpt lat="47.87158" lon="6.92022">
        <ele>946</ele>
        <time>2026-05-09T08:44:10.423Z</time>
      </trkpt>
      <trkpt lat="47.8716" lon="6.92022">
        <ele>946</ele>
        <time>2026-05-09T08:44:11.422Z</time>
      </trkpt>
      <trkpt lat="47.87162" lon="6.92022">
        <ele>947</ele>
        <time>2026-05-09T08:44:12.422Z</time>
      </trkpt>
      <trkpt lat="47.87165" lon="6.9202">
        <ele>947</ele>
        <time>2026-05-09T08:44:13.422Z</time>
      </trkpt>
      <trkpt lat="47.87167" lon="6.9202">
        <ele>947</ele>
        <time>2026-05-09T08:44:14.422Z</time>
      </trkpt>
      <trkpt lat="47.87169" lon="6.9202">
        <ele>948</ele>
        <time>2026-05-09T08:44:15.422Z</time>
      </trkpt>
      <trkpt lat="47.87171" lon="6.9202">
        <ele>948</ele>
        <time>2026-05-09T08:44:16.422Z</time>
      </trkpt>
      <trkpt lat="47.87173" lon="6.92021">
        <ele>949</ele>
        <time>2026-05-09T08:44:17.423Z</time>
      </trkpt>
      <trkpt lat="47.87175" lon="6.92022">
        <ele>949</ele>
        <time>2026-05-09T08:44:18.423Z</time>
      </trkpt>
      <trkpt lat="47.87177" lon="6.92023">
        <ele>949</ele>
        <time>2026-05-09T08:44:19.422Z</time>
      </trkpt>
      <trkpt lat="47.87178" lon="6.92024">
        <ele>949</ele>
        <time>2026-05-09T08:44:20.422Z</time>
      </trkpt>
      <trkpt lat="47.8718" lon="6.92025">
        <ele>948</ele>
        <time>2026-05-09T08:44:21.423Z</time>
      </trkpt>
      <trkpt lat="47.87182" lon="6.92026">
        <ele>948</ele>
        <time>2026-05-09T08:44:22.423Z</time>
      </trkpt>
      <trkpt lat="47.87183" lon="6.92028">
        <ele>947</ele>
        <time>2026-05-09T08:44:23.423Z</time>
      </trkpt>
      <trkpt lat="47.87185" lon="6.92028">
        <ele>947</ele>
        <time>2026-05-09T08:44:24.422Z</time>
      </trkpt>
      <trkpt lat="47.87187" lon="6.92028">
        <ele>946</ele>
        <time>2026-05-09T08:44:25.422Z</time>
      </trkpt>
      <trkpt lat="47.87188" lon="6.9203">
        <ele>946</ele>
        <time>2026-05-09T08:44:26.422Z</time>
      </trkpt>
      <trkpt lat="47.8719" lon="6.92031">
        <ele>946</ele>
        <time>2026-05-09T08:44:27.423Z</time>
      </trkpt>
      <trkpt lat="47.87191" lon="6.92032">
        <ele>946</ele>
        <time>2026-05-09T08:44:28.423Z</time>
      </trkpt>
      <trkpt lat="47.87192" lon="6.92034">
        <ele>946</ele>
        <time>2026-05-09T08:44:29.422Z</time>
      </trkpt>
      <trkpt lat="47.87193" lon="6.92036">
        <ele>946</ele>
        <time>2026-05-09T08:44:30.422Z</time>
      </trkpt>
      <trkpt lat="47.87195" lon="6.92037">
        <ele>946</ele>
        <time>2026-05-09T08:44:31.422Z</time>
      </trkpt>
      <trkpt lat="47.87196" lon="6.92038">
        <ele>946</ele>
        <time>2026-05-09T08:44:32.422Z</time>
      </trkpt>
      <trkpt lat="47.87197" lon="6.92039">
        <ele>946</ele>
        <time>2026-05-09T08:44:33.422Z</time>
      </trkpt>
      <trkpt lat="47.87198" lon="6.9204">
        <ele>946</ele>
        <time>2026-05-09T08:44:34.423Z</time>
      </trkpt>
      <trkpt lat="47.872" lon="6.9204">
        <ele>946</ele>
        <time>2026-05-09T08:44:35.423Z</time>
      </trkpt>
      <trkpt lat="47.87202" lon="6.9204">
        <ele>946</ele>
        <time>2026-05-09T08:44:36.422Z</time>
      </trkpt>
      <trkpt lat="47.87203" lon="6.92041">
        <ele>946</ele>
        <time>2026-05-09T08:44:37.422Z</time>
      </trkpt>
      <trkpt lat="47.87205" lon="6.92041">
        <ele>947</ele>
        <time>2026-05-09T08:44:38.423Z</time>
      </trkpt>
      <trkpt lat="47.87206" lon="6.92042">
        <ele>947</ele>
        <time>2026-05-09T08:44:39.423Z</time>
      </trkpt>
      <trkpt lat="47.87208" lon="6.92043">
        <ele>947</ele>
        <time>2026-05-09T08:44:40.422Z</time>
      </trkpt>
      <trkpt lat="47.87209" lon="6.92044">
        <ele>947</ele>
        <time>2026-05-09T08:44:41.422Z</time>
      </trkpt>
      <trkpt lat="47.8721" lon="6.92044">
        <ele>948</ele>
        <time>2026-05-09T08:44:42.423Z</time>
      </trkpt>
      <trkpt lat="47.87212" lon="6.92044">
        <ele>948</ele>
        <time>2026-05-09T08:44:43.423Z</time>
      </trkpt>
      <trkpt lat="47.87213" lon="6.92045">
        <ele>948</ele>
        <time>2026-05-09T08:44:44.422Z</time>
      </trkpt>
      <trkpt lat="47.87215" lon="6.92046">
        <ele>948</ele>
        <time>2026-05-09T08:44:45.422Z</time>
      </trkpt>
      <trkpt lat="47.87217" lon="6.92047">
        <ele>949</ele>
        <time>2026-05-09T08:44:46.422Z</time>
      </trkpt>
      <trkpt lat="47.87219" lon="6.92047">
        <ele>949</ele>
        <time>2026-05-09T08:44:47.422Z</time>
      </trkpt>
      <trkpt lat="47.87221" lon="6.92048">
        <ele>950</ele>
        <time>2026-05-09T08:44:48.423Z</time>
      </trkpt>
      <trkpt lat="47.87223" lon="6.92048">
        <ele>950</ele>
        <time>2026-05-09T08:44:49.422Z</time>
      </trkpt>
      <trkpt lat="47.87224" lon="6.92049">
        <ele>950</ele>
        <time>2026-05-09T08:44:50.422Z</time>
      </trkpt>
      <trkpt lat="47.87226" lon="6.9205">
        <ele>950</ele>
        <time>2026-05-09T08:44:51.423Z</time>
      </trkpt>
      <trkpt lat="47.87227" lon="6.9205">
        <ele>949</ele>
        <time>2026-05-09T08:44:52.422Z</time>
      </trkpt>
      <trkpt lat="47.87229" lon="6.92052">
        <ele>949</ele>
        <time>2026-05-09T08:44:53.422Z</time>
      </trkpt>
      <trkpt lat="47.8723" lon="6.92053">
        <ele>949</ele>
        <time>2026-05-09T08:44:54.422Z</time>
      </trkpt>
      <trkpt lat="47.87231" lon="6.92055">
        <ele>949</ele>
        <time>2026-05-09T08:44:55.422Z</time>
      </trkpt>
      <trkpt lat="47.87232" lon="6.92056">
        <ele>949</ele>
        <time>2026-05-09T08:44:56.422Z</time>
      </trkpt>
      <trkpt lat="47.87232" lon="6.92057">
        <ele>949</ele>
        <time>2026-05-09T08:44:57.422Z</time>
      </trkpt>
      <trkpt lat="47.87233" lon="6.92058">
        <ele>949</ele>
        <time>2026-05-09T08:44:58.422Z</time>
      </trkpt>
      <trkpt lat="47.87234" lon="6.92059">
        <ele>948</ele>
        <time>2026-05-09T08:44:59.422Z</time>
      </trkpt>
      <trkpt lat="47.87234" lon="6.92059">
        <ele>948</ele>
        <time>2026-05-09T08:45:00.423Z</time>
      </trkpt>
      <trkpt lat="47.87235" lon="6.92059">
        <ele>948</ele>
        <time>2026-05-09T08:45:01.423Z</time>
      </trkpt>
      <trkpt lat="47.87236" lon="6.92059">
        <ele>948</ele>
        <time>2026-05-09T08:45:02.422Z</time>
      </trkpt>
      <trkpt lat="47.87237" lon="6.92059">
        <ele>948</ele>
        <time>2026-05-09T08:45:03.423Z</time>
      </trkpt>
      <trkpt lat="47.87238" lon="6.92059">
        <ele>948</ele>
        <time>2026-05-09T08:45:04.422Z</time>
      </trkpt>
      <trkpt lat="47.87238" lon="6.9206">
        <ele>948</ele>
        <time>2026-05-09T08:45:05.422Z</time>
      </trkpt>
      <trkpt lat="47.87238" lon="6.9206">
        <ele>948</ele>
        <time>2026-05-09T08:45:06.423Z</time>
      </trkpt>
      <trkpt lat="47.87238" lon="6.92061">
        <ele>947</ele>
        <time>2026-05-09T08:45:07.422Z</time>
      </trkpt>
      <trkpt lat="47.87239" lon="6.92062">
        <ele>947</ele>
        <time>2026-05-09T08:45:08.423Z</time>
      </trkpt>
      <trkpt lat="47.8724" lon="6.92063">
        <ele>947</ele>
        <time>2026-05-09T08:45:09.423Z</time>
      </trkpt>
      <trkpt lat="47.87241" lon="6.92064">
        <ele>947</ele>
        <time>2026-05-09T08:45:10.422Z</time>
      </trkpt>
      <trkpt lat="47.87242" lon="6.92065">
        <ele>946</ele>
        <time>2026-05-09T08:45:11.422Z</time>
      </trkpt>
      <trkpt lat="47.87244" lon="6.92066">
        <ele>946</ele>
        <time>2026-05-09T08:45:12.422Z</time>
      </trkpt>
      <trkpt lat="47.87245" lon="6.92067">
        <ele>945</ele>
        <time>2026-05-09T08:45:13.423Z</time>
      </trkpt>
      <trkpt lat="47.87246" lon="6.92068">
        <ele>945</ele>
        <time>2026-05-09T08:45:14.423Z</time>
      </trkpt>
      <trkpt lat="47.87246" lon="6.92069">
        <ele>944</ele>
        <time>2026-05-09T08:45:15.423Z</time>
      </trkpt>
      <trkpt lat="47.87247" lon="6.92069">
        <ele>944</ele>
        <time>2026-05-09T08:45:16.422Z</time>
      </trkpt>
      <trkpt lat="47.87248" lon="6.9207">
        <ele>943</ele>
        <time>2026-05-09T08:45:17.422Z</time>
      </trkpt>
      <trkpt lat="47.87248" lon="6.9207">
        <ele>943</ele>
        <time>2026-05-09T08:45:18.423Z</time>
      </trkpt>
      <trkpt lat="47.87249" lon="6.92071">
        <ele>942</ele>
        <time>2026-05-09T08:45:19.422Z</time>
      </trkpt>
      <trkpt lat="47.87249" lon="6.92072">
        <ele>942</ele>
        <time>2026-05-09T08:45:20.423Z</time>
      </trkpt>
      <trkpt lat="47.8725" lon="6.92073">
        <ele>942</ele>
        <time>2026-05-09T08:45:21.422Z</time>
      </trkpt>
      <trkpt lat="47.87252" lon="6.92074">
        <ele>942</ele>
        <time>2026-05-09T08:45:22.422Z</time>
      </trkpt>
      <trkpt lat="47.87254" lon="6.92074">
        <ele>942</ele>
        <time>2026-05-09T08:45:23.422Z</time>
      </trkpt>
      <trkpt lat="47.87255" lon="6.92075">
        <ele>942</ele>
        <time>2026-05-09T08:45:24.422Z</time>
      </trkpt>
      <trkpt lat="47.87255" lon="6.92075">
        <ele>942</ele>
        <time>2026-05-09T08:45:25.423Z</time>
      </trkpt>
      <trkpt lat="47.87257" lon="6.92076">
        <ele>942</ele>
        <time>2026-05-09T08:45:26.422Z</time>
      </trkpt>
      <trkpt lat="47.87257" lon="6.92076">
        <ele>942</ele>
        <time>2026-05-09T08:45:27.422Z</time>
      </trkpt>
      <trkpt lat="47.87258" lon="6.92077">
        <ele>942</ele>
        <time>2026-05-09T08:45:28.423Z</time>
      </trkpt>
      <trkpt lat="47.87259" lon="6.92078">
        <ele>942</ele>
        <time>2026-05-09T08:45:29.423Z</time>
      </trkpt>
      <trkpt lat="47.87261" lon="6.9208">
        <ele>942</ele>
        <time>2026-05-09T08:45:30.422Z</time>
      </trkpt>
      <trkpt lat="47.87262" lon="6.92081">
        <ele>942</ele>
        <time>2026-05-09T08:45:31.423Z</time>
      </trkpt>
      <trkpt lat="47.87263" lon="6.92082">
        <ele>942</ele>
        <time>2026-05-09T08:45:32.423Z</time>
      </trkpt>
      <trkpt lat="47.87264" lon="6.92083">
        <ele>942</ele>
        <time>2026-05-09T08:45:33.422Z</time>
      </trkpt>
      <trkpt lat="47.87264" lon="6.92084">
        <ele>942</ele>
        <time>2026-05-09T08:45:34.422Z</time>
      </trkpt>
      <trkpt lat="47.87265" lon="6.92085">
        <ele>942</ele>
        <time>2026-05-09T08:45:35.422Z</time>
      </trkpt>
      <trkpt lat="47.87265" lon="6.92085">
        <ele>941</ele>
        <time>2026-05-09T08:45:36.423Z</time>
      </trkpt>
      <trkpt lat="47.87266" lon="6.92086">
        <ele>941</ele>
        <time>2026-05-09T08:45:37.422Z</time>
      </trkpt>
      <trkpt lat="47.87266" lon="6.92087">
        <ele>941</ele>
        <time>2026-05-09T08:45:38.422Z</time>
      </trkpt>
      <trkpt lat="47.87266" lon="6.9209">
        <ele>941</ele>
        <time>2026-05-09T08:45:39.422Z</time>
      </trkpt>
      <trkpt lat="47.87267" lon="6.92092">
        <ele>941</ele>
        <time>2026-05-09T08:45:40.423Z</time>
      </trkpt>
      <trkpt lat="47.87268" lon="6.92094">
        <ele>941</ele>
        <time>2026-05-09T08:45:41.422Z</time>
      </trkpt>
      <trkpt lat="47.87268" lon="6.92096">
        <ele>941</ele>
        <time>2026-05-09T08:45:42.423Z</time>
      </trkpt>
      <trkpt lat="47.87268" lon="6.92097">
        <ele>941</ele>
        <time>2026-05-09T08:45:43.422Z</time>
      </trkpt>
      <trkpt lat="47.87268" lon="6.92098">
        <ele>941</ele>
        <time>2026-05-09T08:45:44.423Z</time>
      </trkpt>
      <trkpt lat="47.87269" lon="6.92099">
        <ele>941</ele>
        <time>2026-05-09T08:45:45.423Z</time>
      </trkpt>
      <trkpt lat="47.87269" lon="6.921">
        <ele>941</ele>
        <time>2026-05-09T08:45:46.422Z</time>
      </trkpt>
      <trkpt lat="47.8727" lon="6.92102">
        <ele>941</ele>
        <time>2026-05-09T08:45:47.422Z</time>
      </trkpt>
      <trkpt lat="47.8727" lon="6.92103">
        <ele>941</ele>
        <time>2026-05-09T08:45:48.423Z</time>
      </trkpt>
      <trkpt lat="47.8727" lon="6.92104">
        <ele>941</ele>
        <time>2026-05-09T08:45:49.422Z</time>
      </trkpt>
      <trkpt lat="47.87271" lon="6.92106">
        <ele>941</ele>
        <time>2026-05-09T08:45:50.422Z</time>
      </trkpt>
      <trkpt lat="47.87272" lon="6.92107">
        <ele>941</ele>
        <time>2026-05-09T08:45:51.422Z</time>
      </trkpt>
      <trkpt lat="47.87273" lon="6.92109">
        <ele>941</ele>
        <time>2026-05-09T08:45:52.422Z</time>
      </trkpt>
      <trkpt lat="47.87274" lon="6.92111">
        <ele>941</ele>
        <time>2026-05-09T08:45:53.422Z</time>
      </trkpt>
      <trkpt lat="47.87276" lon="6.92112">
        <ele>941</ele>
        <time>2026-05-09T08:45:54.422Z</time>
      </trkpt>
      <trkpt lat="47.87277" lon="6.92113">
        <ele>941</ele>
        <time>2026-05-09T08:45:55.422Z</time>
      </trkpt>
      <trkpt lat="47.87278" lon="6.92115">
        <ele>941</ele>
        <time>2026-05-09T08:45:56.422Z</time>
      </trkpt>
      <trkpt lat="47.8728" lon="6.92117">
        <ele>941</ele>
        <time>2026-05-09T08:45:57.422Z</time>
      </trkpt>
      <trkpt lat="47.87281" lon="6.92118">
        <ele>941</ele>
        <time>2026-05-09T08:45:58.423Z</time>
      </trkpt>
      <trkpt lat="47.87282" lon="6.9212">
        <ele>941</ele>
        <time>2026-05-09T08:45:59.422Z</time>
      </trkpt>
      <trkpt lat="47.87284" lon="6.92121">
        <ele>941</ele>
        <time>2026-05-09T08:46:00.422Z</time>
      </trkpt>
      <trkpt lat="47.87285" lon="6.92122">
        <ele>941</ele>
        <time>2026-05-09T08:46:01.422Z</time>
      </trkpt>
      <trkpt lat="47.87286" lon="6.92123">
        <ele>941</ele>
        <time>2026-05-09T08:46:02.422Z</time>
      </trkpt>
      <trkpt lat="47.87287" lon="6.92124">
        <ele>941</ele>
        <time>2026-05-09T08:46:03.422Z</time>
      </trkpt>
      <trkpt lat="47.87288" lon="6.92125">
        <ele>940</ele>
        <time>2026-05-09T08:46:04.422Z</time>
      </trkpt>
      <trkpt lat="47.87289" lon="6.92125">
        <ele>940</ele>
        <time>2026-05-09T08:46:05.422Z</time>
      </trkpt>
      <trkpt lat="47.8729" lon="6.92126">
        <ele>940</ele>
        <time>2026-05-09T08:46:06.422Z</time>
      </trkpt>
      <trkpt lat="47.87291" lon="6.92127">
        <ele>940</ele>
        <time>2026-05-09T08:46:07.422Z</time>
      </trkpt>
      <trkpt lat="47.87292" lon="6.92129">
        <ele>939</ele>
        <time>2026-05-09T08:46:08.422Z</time>
      </trkpt>
      <trkpt lat="47.87294" lon="6.9213">
        <ele>939</ele>
        <time>2026-05-09T08:46:09.422Z</time>
      </trkpt>
      <trkpt lat="47.87295" lon="6.92132">
        <ele>938</ele>
        <time>2026-05-09T08:46:10.422Z</time>
      </trkpt>
      <trkpt lat="47.87296" lon="6.92133">
        <ele>938</ele>
        <time>2026-05-09T08:46:11.422Z</time>
      </trkpt>
      <trkpt lat="47.87298" lon="6.92135">
        <ele>937</ele>
        <time>2026-05-09T08:46:12.422Z</time>
      </trkpt>
      <trkpt lat="47.87299" lon="6.92137">
        <ele>937</ele>
        <time>2026-05-09T08:46:13.422Z</time>
      </trkpt>
      <trkpt lat="47.873" lon="6.92138">
        <ele>937</ele>
        <time>2026-05-09T08:46:14.422Z</time>
      </trkpt>
      <trkpt lat="47.87301" lon="6.92139">
        <ele>937</ele>
        <time>2026-05-09T08:46:15.422Z</time>
      </trkpt>
      <trkpt lat="47.87302" lon="6.9214">
        <ele>937</ele>
        <time>2026-05-09T08:46:16.422Z</time>
      </trkpt>
      <trkpt lat="47.87303" lon="6.92141">
        <ele>937</ele>
        <time>2026-05-09T08:46:17.422Z</time>
      </trkpt>
      <trkpt lat="47.87304" lon="6.92142">
        <ele>937</ele>
        <time>2026-05-09T08:46:18.423Z</time>
      </trkpt>
      <trkpt lat="47.87305" lon="6.92144">
        <ele>937</ele>
        <time>2026-05-09T08:46:19.422Z</time>
      </trkpt>
      <trkpt lat="47.87306" lon="6.92146">
        <ele>937</ele>
        <time>2026-05-09T08:46:20.422Z</time>
      </trkpt>
      <trkpt lat="47.87307" lon="6.92148">
        <ele>937</ele>
        <time>2026-05-09T08:46:21.423Z</time>
      </trkpt>
      <trkpt lat="47.87308" lon="6.9215">
        <ele>937</ele>
        <time>2026-05-09T08:46:22.422Z</time>
      </trkpt>
      <trkpt lat="47.8731" lon="6.92152">
        <ele>937</ele>
        <time>2026-05-09T08:46:23.422Z</time>
      </trkpt>
      <trkpt lat="47.87312" lon="6.92155">
        <ele>937</ele>
        <time>2026-05-09T08:46:24.422Z</time>
      </trkpt>
      <trkpt lat="47.87315" lon="6.92157">
        <ele>937</ele>
        <time>2026-05-09T08:46:25.422Z</time>
      </trkpt>
      <trkpt lat="47.87318" lon="6.92159">
        <ele>937</ele>
        <time>2026-05-09T08:46:26.422Z</time>
      </trkpt>
      <trkpt lat="47.87321" lon="6.92161">
        <ele>937</ele>
        <time>2026-05-09T08:46:27.423Z</time>
      </trkpt>
      <trkpt lat="47.87324" lon="6.92163">
        <ele>938</ele>
        <time>2026-05-09T08:46:28.422Z</time>
      </trkpt>
      <trkpt lat="47.87327" lon="6.92166">
        <ele>938</ele>
        <time>2026-05-09T08:46:29.422Z</time>
      </trkpt>
      <trkpt lat="47.87331" lon="6.92168">
        <ele>938</ele>
        <time>2026-05-09T08:46:30.423Z</time>
      </trkpt>
      <trkpt lat="47.87335" lon="6.92172">
        <ele>938</ele>
        <time>2026-05-09T08:46:31.422Z</time>
      </trkpt>
      <trkpt lat="47.87339" lon="6.92175">
        <ele>938</ele>
        <time>2026-05-09T08:46:32.422Z</time>
      </trkpt>
      <trkpt lat="47.87342" lon="6.92175">
        <ele>938</ele>
        <time>2026-05-09T08:46:33.422Z</time>
      </trkpt>
      <trkpt lat="47.87343" lon="6.92176">
        <ele>938</ele>
        <time>2026-05-09T08:46:34.423Z</time>
      </trkpt>
      <trkpt lat="47.87344" lon="6.92177">
        <ele>938</ele>
        <time>2026-05-09T08:46:35.422Z</time>
      </trkpt>
      <trkpt lat="47.87345" lon="6.92176">
        <ele>938</ele>
        <time>2026-05-09T08:46:36.422Z</time>
      </trkpt>
      <trkpt lat="47.87346" lon="6.92177">
        <ele>938</ele>
        <time>2026-05-09T08:46:37.422Z</time>
      </trkpt>
      <trkpt lat="47.87348" lon="6.92178">
        <ele>938</ele>
        <time>2026-05-09T08:46:38.423Z</time>
      </trkpt>
      <trkpt lat="47.87349" lon="6.92179">
        <ele>937</ele>
        <time>2026-05-09T08:46:39.423Z</time>
      </trkpt>
      <trkpt lat="47.8735" lon="6.92181">
        <ele>937</ele>
        <time>2026-05-09T08:46:40.422Z</time>
      </trkpt>
      <trkpt lat="47.87351" lon="6.92183">
        <ele>937</ele>
        <time>2026-05-09T08:46:41.423Z</time>
      </trkpt>
      <trkpt lat="47.87352" lon="6.92183">
        <ele>936</ele>
        <time>2026-05-09T08:46:42.423Z</time>
      </trkpt>
      <trkpt lat="47.87353" lon="6.92183">
        <ele>936</ele>
        <time>2026-05-09T08:46:43.422Z</time>
      </trkpt>
      <trkpt lat="47.87352" lon="6.92185">
        <ele>936</ele>
        <time>2026-05-09T08:46:44.422Z</time>
      </trkpt>
      <trkpt lat="47.87352" lon="6.92187">
        <ele>935</ele>
        <time>2026-05-09T08:46:45.422Z</time>
      </trkpt>
      <trkpt lat="47.87353" lon="6.9219">
        <ele>935</ele>
        <time>2026-05-09T08:46:46.423Z</time>
      </trkpt>
      <trkpt lat="47.87352" lon="6.92191">
        <ele>935</ele>
        <time>2026-05-09T08:46:47.423Z</time>
      </trkpt>
      <trkpt lat="47.87353" lon="6.92193">
        <ele>935</ele>
        <time>2026-05-09T08:46:48.422Z</time>
      </trkpt>
      <trkpt lat="47.87354" lon="6.92195">
        <ele>935</ele>
        <time>2026-05-09T08:46:49.422Z</time>
      </trkpt>
      <trkpt lat="47.87356" lon="6.92196">
        <ele>935</ele>
        <time>2026-05-09T08:46:50.422Z</time>
      </trkpt>
      <trkpt lat="47.87358" lon="6.92198">
        <ele>935</ele>
        <time>2026-05-09T08:46:51.423Z</time>
      </trkpt>
      <trkpt lat="47.87359" lon="6.92198">
        <ele>935</ele>
        <time>2026-05-09T08:46:52.423Z</time>
      </trkpt>
      <trkpt lat="47.87359" lon="6.92199">
        <ele>934</ele>
        <time>2026-05-09T08:46:53.422Z</time>
      </trkpt>
      <trkpt lat="47.87359" lon="6.922">
        <ele>934</ele>
        <time>2026-05-09T08:46:54.422Z</time>
      </trkpt>
      <trkpt lat="47.8736" lon="6.92203">
        <ele>934</ele>
        <time>2026-05-09T08:46:55.423Z</time>
      </trkpt>
      <trkpt lat="47.8736" lon="6.92206">
        <ele>935</ele>
        <time>2026-05-09T08:46:56.423Z</time>
      </trkpt>
      <trkpt lat="47.87361" lon="6.92209">
        <ele>934</ele>
        <time>2026-05-09T08:46:57.422Z</time>
      </trkpt>
      <trkpt lat="47.87362" lon="6.92209">
        <ele>934</ele>
        <time>2026-05-09T08:46:58.423Z</time>
      </trkpt>
      <trkpt lat="47.87365" lon="6.92211">
        <ele>934</ele>
        <time>2026-05-09T08:46:59.423Z</time>
      </trkpt>
      <trkpt lat="47.87367" lon="6.92212">
        <ele>934</ele>
        <time>2026-05-09T08:47:00.422Z</time>
      </trkpt>
      <trkpt lat="47.8737" lon="6.92213">
        <ele>934</ele>
        <time>2026-05-09T08:47:01.422Z</time>
      </trkpt>
      <trkpt lat="47.87371" lon="6.92214">
        <ele>934</ele>
        <time>2026-05-09T08:47:02.423Z</time>
      </trkpt>
      <trkpt lat="47.8737" lon="6.92215">
        <ele>935</ele>
        <time>2026-05-09T08:47:03.423Z</time>
      </trkpt>
      <trkpt lat="47.8737" lon="6.92219">
        <ele>935</ele>
        <time>2026-05-09T08:47:04.422Z</time>
      </trkpt>
      <trkpt lat="47.87369" lon="6.92222">
        <ele>935</ele>
        <time>2026-05-09T08:47:05.422Z</time>
      </trkpt>
      <trkpt lat="47.87371" lon="6.92223">
        <ele>935</ele>
        <time>2026-05-09T08:47:06.423Z</time>
      </trkpt>
      <trkpt lat="47.87371" lon="6.92224">
        <ele>936</ele>
        <time>2026-05-09T08:47:07.422Z</time>
      </trkpt>
      <trkpt lat="47.87372" lon="6.92223">
        <ele>936</ele>
        <time>2026-05-09T08:47:08.422Z</time>
      </trkpt>
      <trkpt lat="47.87373" lon="6.92222">
        <ele>936</ele>
        <time>2026-05-09T08:47:09.423Z</time>
      </trkpt>
      <trkpt lat="47.87374" lon="6.92224">
        <ele>937</ele>
        <time>2026-05-09T08:47:10.423Z</time>
      </trkpt>
      <trkpt lat="47.87375" lon="6.92227">
        <ele>937</ele>
        <time>2026-05-09T08:47:11.422Z</time>
      </trkpt>
      <trkpt lat="47.87375" lon="6.92229">
        <ele>937</ele>
        <time>2026-05-09T08:47:12.423Z</time>
      </trkpt>
      <trkpt lat="47.87375" lon="6.92232">
        <ele>937</ele>
        <time>2026-05-09T08:47:13.423Z</time>
      </trkpt>
      <trkpt lat="47.87375" lon="6.92233">
        <ele>937</ele>
        <time>2026-05-09T08:47:14.423Z</time>
      </trkpt>
      <trkpt lat="47.87377" lon="6.92234">
        <ele>937</ele>
        <time>2026-05-09T08:47:15.422Z</time>
      </trkpt>
      <trkpt lat="47.87377" lon="6.92236">
        <ele>937</ele>
        <time>2026-05-09T08:47:16.422Z</time>
      </trkpt>
      <trkpt lat="47.87379" lon="6.92237">
        <ele>937</ele>
        <time>2026-05-09T08:47:17.423Z</time>
      </trkpt>
      <trkpt lat="47.87379" lon="6.92237">
        <ele>937</ele>
        <time>2026-05-09T08:47:18.423Z</time>
      </trkpt>
      <trkpt lat="47.8738" lon="6.92239">
        <ele>937</ele>
        <time>2026-05-09T08:47:19.422Z</time>
      </trkpt>
      <trkpt lat="47.87381" lon="6.92241">
        <ele>937</ele>
        <time>2026-05-09T08:47:20.423Z</time>
      </trkpt>
      <trkpt lat="47.87382" lon="6.92242">
        <ele>937</ele>
        <time>2026-05-09T08:47:21.423Z</time>
      </trkpt>
      <trkpt lat="47.87383" lon="6.92244">
        <ele>937</ele>
        <time>2026-05-09T08:47:22.422Z</time>
      </trkpt>
      <trkpt lat="47.87383" lon="6.92245">
        <ele>937</ele>
        <time>2026-05-09T08:47:23.422Z</time>
      </trkpt>
      <trkpt lat="47.87384" lon="6.92247">
        <ele>937</ele>
        <time>2026-05-09T08:47:24.422Z</time>
      </trkpt>
      <trkpt lat="47.87385" lon="6.92248">
        <ele>937</ele>
        <time>2026-05-09T08:47:25.422Z</time>
      </trkpt>
      <trkpt lat="47.87386" lon="6.9225">
        <ele>936</ele>
        <time>2026-05-09T08:47:26.422Z</time>
      </trkpt>
      <trkpt lat="47.87387" lon="6.92251">
        <ele>936</ele>
        <time>2026-05-09T08:47:27.423Z</time>
      </trkpt>
      <trkpt lat="47.87387" lon="6.92252">
        <ele>936</ele>
        <time>2026-05-09T08:47:28.422Z</time>
      </trkpt>
      <trkpt lat="47.87388" lon="6.92254">
        <ele>936</ele>
        <time>2026-05-09T08:47:29.422Z</time>
      </trkpt>
      <trkpt lat="47.87388" lon="6.92256">
        <ele>936</ele>
        <time>2026-05-09T08:47:30.423Z</time>
      </trkpt>
      <trkpt lat="47.87389" lon="6.92257">
        <ele>936</ele>
        <time>2026-05-09T08:47:31.422Z</time>
      </trkpt>
      <trkpt lat="47.8739" lon="6.92259">
        <ele>936</ele>
        <time>2026-05-09T08:47:32.423Z</time>
      </trkpt>
      <trkpt lat="47.87391" lon="6.92261">
        <ele>936</ele>
        <time>2026-05-09T08:47:33.423Z</time>
      </trkpt>
      <trkpt lat="47.87392" lon="6.92263">
        <ele>936</ele>
        <time>2026-05-09T08:47:34.422Z</time>
      </trkpt>
      <trkpt lat="47.87393" lon="6.92264">
        <ele>936</ele>
        <time>2026-05-09T08:47:35.422Z</time>
      </trkpt>
      <trkpt lat="47.87394" lon="6.92265">
        <ele>936</ele>
        <time>2026-05-09T08:47:36.422Z</time>
      </trkpt>
      <trkpt lat="47.87395" lon="6.92266">
        <ele>937</ele>
        <time>2026-05-09T08:47:37.422Z</time>
      </trkpt>
      <trkpt lat="47.87396" lon="6.92267">
        <ele>937</ele>
        <time>2026-05-09T08:47:38.422Z</time>
      </trkpt>
      <trkpt lat="47.87396" lon="6.92269">
        <ele>937</ele>
        <time>2026-05-09T08:47:39.423Z</time>
      </trkpt>
      <trkpt lat="47.87397" lon="6.92269">
        <ele>937</ele>
        <time>2026-05-09T08:47:40.423Z</time>
      </trkpt>
      <trkpt lat="47.87398" lon="6.9227">
        <ele>937</ele>
        <time>2026-05-09T08:47:41.422Z</time>
      </trkpt>
      <trkpt lat="47.87399" lon="6.92271">
        <ele>937</ele>
        <time>2026-05-09T08:47:42.422Z</time>
      </trkpt>
      <trkpt lat="47.874" lon="6.92272">
        <ele>937</ele>
        <time>2026-05-09T08:47:43.423Z</time>
      </trkpt>
      <trkpt lat="47.87401" lon="6.92273">
        <ele>937</ele>
        <time>2026-05-09T08:47:44.422Z</time>
      </trkpt>
      <trkpt lat="47.87402" lon="6.92274">
        <ele>937</ele>
        <time>2026-05-09T08:47:45.422Z</time>
      </trkpt>
      <trkpt lat="47.87403" lon="6.92275">
        <ele>937</ele>
        <time>2026-05-09T08:47:46.423Z</time>
      </trkpt>
      <trkpt lat="47.87404" lon="6.92276">
        <ele>937</ele>
        <time>2026-05-09T08:47:47.422Z</time>
      </trkpt>
      <trkpt lat="47.87405" lon="6.92277">
        <ele>937</ele>
        <time>2026-05-09T08:47:48.423Z</time>
      </trkpt>
      <trkpt lat="47.87406" lon="6.92278">
        <ele>936</ele>
        <time>2026-05-09T08:47:49.423Z</time>
      </trkpt>
      <trkpt lat="47.87406" lon="6.9228">
        <ele>936</ele>
        <time>2026-05-09T08:47:50.423Z</time>
      </trkpt>
      <trkpt lat="47.87407" lon="6.92282">
        <ele>936</ele>
        <time>2026-05-09T08:47:51.422Z</time>
      </trkpt>
      <trkpt lat="47.87408" lon="6.92283">
        <ele>936</ele>
        <time>2026-05-09T08:47:52.423Z</time>
      </trkpt>
      <trkpt lat="47.87409" lon="6.92284">
        <ele>935</ele>
        <time>2026-05-09T08:47:53.423Z</time>
      </trkpt>
      <trkpt lat="47.87411" lon="6.92285">
        <ele>935</ele>
        <time>2026-05-09T08:47:54.422Z</time>
      </trkpt>
      <trkpt lat="47.87412" lon="6.92287">
        <ele>935</ele>
        <time>2026-05-09T08:47:55.423Z</time>
      </trkpt>
      <trkpt lat="47.87413" lon="6.92288">
        <ele>935</ele>
        <time>2026-05-09T08:47:56.423Z</time>
      </trkpt>
      <trkpt lat="47.87415" lon="6.92289">
        <ele>935</ele>
        <time>2026-05-09T08:47:57.422Z</time>
      </trkpt>
      <trkpt lat="47.87415" lon="6.92291">
        <ele>935</ele>
        <time>2026-05-09T08:47:58.422Z</time>
      </trkpt>
      <trkpt lat="47.87416" lon="6.92291">
        <ele>935</ele>
        <time>2026-05-09T08:47:59.423Z</time>
      </trkpt>
      <trkpt lat="47.87418" lon="6.92292">
        <ele>935</ele>
        <time>2026-05-09T08:48:00.422Z</time>
      </trkpt>
      <trkpt lat="47.87419" lon="6.92294">
        <ele>935</ele>
        <time>2026-05-09T08:48:01.423Z</time>
      </trkpt>
      <trkpt lat="47.8742" lon="6.92296">
        <ele>935</ele>
        <time>2026-05-09T08:48:02.422Z</time>
      </trkpt>
      <trkpt lat="47.8742" lon="6.92296">
        <ele>934</ele>
        <time>2026-05-09T08:48:03.423Z</time>
      </trkpt>
      <trkpt lat="47.87421" lon="6.92297">
        <ele>934</ele>
        <time>2026-05-09T08:48:04.422Z</time>
      </trkpt>
      <trkpt lat="47.87422" lon="6.92297">
        <ele>934</ele>
        <time>2026-05-09T08:48:05.422Z</time>
      </trkpt>
      <trkpt lat="47.87424" lon="6.92298">
        <ele>934</ele>
        <time>2026-05-09T08:48:06.422Z</time>
      </trkpt>
      <trkpt lat="47.87425" lon="6.92299">
        <ele>934</ele>
        <time>2026-05-09T08:48:07.422Z</time>
      </trkpt>
      <trkpt lat="47.87426" lon="6.923">
        <ele>933</ele>
        <time>2026-05-09T08:48:08.422Z</time>
      </trkpt>
      <trkpt lat="47.87427" lon="6.92301">
        <ele>933</ele>
        <time>2026-05-09T08:48:09.422Z</time>
      </trkpt>
      <trkpt lat="47.87428" lon="6.92301">
        <ele>933</ele>
        <time>2026-05-09T08:48:10.422Z</time>
      </trkpt>
      <trkpt lat="47.8743" lon="6.92302">
        <ele>932</ele>
        <time>2026-05-09T08:48:11.423Z</time>
      </trkpt>
      <trkpt lat="47.87431" lon="6.92303">
        <ele>932</ele>
        <time>2026-05-09T08:48:12.422Z</time>
      </trkpt>
      <trkpt lat="47.87434" lon="6.92303">
        <ele>932</ele>
        <time>2026-05-09T08:48:13.422Z</time>
      </trkpt>
      <trkpt lat="47.87436" lon="6.92303">
        <ele>931</ele>
        <time>2026-05-09T08:48:14.422Z</time>
      </trkpt>
      <trkpt lat="47.87436" lon="6.92305">
        <ele>931</ele>
        <time>2026-05-09T08:48:15.422Z</time>
      </trkpt>
      <trkpt lat="47.87438" lon="6.92306">
        <ele>930</ele>
        <time>2026-05-09T08:48:16.423Z</time>
      </trkpt>
      <trkpt lat="47.87439" lon="6.92308">
        <ele>930</ele>
        <time>2026-05-09T08:48:17.423Z</time>
      </trkpt>
      <trkpt lat="47.8744" lon="6.9231">
        <ele>930</ele>
        <time>2026-05-09T08:48:18.423Z</time>
      </trkpt>
      <trkpt lat="47.87442" lon="6.92311">
        <ele>929</ele>
        <time>2026-05-09T08:48:19.423Z</time>
      </trkpt>
      <trkpt lat="47.87443" lon="6.92312">
        <ele>929</ele>
        <time>2026-05-09T08:48:20.422Z</time>
      </trkpt>
      <trkpt lat="47.87444" lon="6.92314">
        <ele>929</ele>
        <time>2026-05-09T08:48:21.423Z</time>
      </trkpt>
      <trkpt lat="47.87446" lon="6.92315">
        <ele>929</ele>
        <time>2026-05-09T08:48:22.423Z</time>
      </trkpt>
      <trkpt lat="47.87448" lon="6.92317">
        <ele>928</ele>
        <time>2026-05-09T08:48:23.422Z</time>
      </trkpt>
      <trkpt lat="47.87449" lon="6.92318">
        <ele>928</ele>
        <time>2026-05-09T08:48:24.422Z</time>
      </trkpt>
      <trkpt lat="47.8745" lon="6.9232">
        <ele>928</ele>
        <time>2026-05-09T08:48:25.422Z</time>
      </trkpt>
      <trkpt lat="47.87451" lon="6.92321">
        <ele>928</ele>
        <time>2026-05-09T08:48:26.422Z</time>
      </trkpt>
      <trkpt lat="47.87453" lon="6.92322">
        <ele>929</ele>
        <time>2026-05-09T08:48:27.423Z</time>
      </trkpt>
      <trkpt lat="47.87454" lon="6.92322">
        <ele>929</ele>
        <time>2026-05-09T08:48:28.422Z</time>
      </trkpt>
      <trkpt lat="47.87455" lon="6.92323">
        <ele>929</ele>
        <time>2026-05-09T08:48:29.423Z</time>
      </trkpt>
      <trkpt lat="47.87456" lon="6.92325">
        <ele>929</ele>
        <time>2026-05-09T08:48:30.422Z</time>
      </trkpt>
      <trkpt lat="47.87457" lon="6.92326">
        <ele>929</ele>
        <time>2026-05-09T08:48:31.423Z</time>
      </trkpt>
      <trkpt lat="47.87458" lon="6.92327">
        <ele>929</ele>
        <time>2026-05-09T08:48:32.422Z</time>
      </trkpt>
      <trkpt lat="47.8746" lon="6.92329">
        <ele>929</ele>
        <time>2026-05-09T08:48:33.422Z</time>
      </trkpt>
      <trkpt lat="47.8746" lon="6.9233">
        <ele>930</ele>
        <time>2026-05-09T08:48:34.423Z</time>
      </trkpt>
      <trkpt lat="47.8746" lon="6.92332">
        <ele>930</ele>
        <time>2026-05-09T08:48:35.422Z</time>
      </trkpt>
      <trkpt lat="47.87461" lon="6.92334">
        <ele>930</ele>
        <time>2026-05-09T08:48:36.423Z</time>
      </trkpt>
      <trkpt lat="47.87462" lon="6.92335">
        <ele>930</ele>
        <time>2026-05-09T08:48:37.422Z</time>
      </trkpt>
      <trkpt lat="47.87463" lon="6.92336">
        <ele>930</ele>
        <time>2026-05-09T08:48:38.422Z</time>
      </trkpt>
      <trkpt lat="47.87464" lon="6.92336">
        <ele>930</ele>
        <time>2026-05-09T08:48:39.422Z</time>
      </trkpt>
      <trkpt lat="47.87464" lon="6.92338">
        <ele>930</ele>
        <time>2026-05-09T08:48:40.423Z</time>
      </trkpt>
      <trkpt lat="47.87465" lon="6.92339">
        <ele>931</ele>
        <time>2026-05-09T08:48:41.422Z</time>
      </trkpt>
      <trkpt lat="47.87466" lon="6.92339">
        <ele>931</ele>
        <time>2026-05-09T08:48:42.423Z</time>
      </trkpt>
      <trkpt lat="47.87466" lon="6.9234">
        <ele>931</ele>
        <time>2026-05-09T08:48:43.423Z</time>
      </trkpt>
      <trkpt lat="47.87467" lon="6.9234">
        <ele>931</ele>
        <time>2026-05-09T08:48:44.423Z</time>
      </trkpt>
      <trkpt lat="47.87468" lon="6.92341">
        <ele>930</ele>
        <time>2026-05-09T08:48:45.422Z</time>
      </trkpt>
      <trkpt lat="47.87469" lon="6.92342">
        <ele>930</ele>
        <time>2026-05-09T08:48:46.423Z</time>
      </trkpt>
      <trkpt lat="47.8747" lon="6.92343">
        <ele>930</ele>
        <time>2026-05-09T08:48:47.423Z</time>
      </trkpt>
      <trkpt lat="47.87471" lon="6.92344">
        <ele>930</ele>
        <time>2026-05-09T08:48:48.422Z</time>
      </trkpt>
      <trkpt lat="47.87471" lon="6.92346">
        <ele>930</ele>
        <time>2026-05-09T08:48:49.423Z</time>
      </trkpt>
      <trkpt lat="47.87472" lon="6.92347">
        <ele>930</ele>
        <time>2026-05-09T08:48:50.422Z</time>
      </trkpt>
      <trkpt lat="47.87474" lon="6.92348">
        <ele>931</ele>
        <time>2026-05-09T08:48:51.423Z</time>
      </trkpt>
      <trkpt lat="47.87476" lon="6.92348">
        <ele>931</ele>
        <time>2026-05-09T08:48:52.422Z</time>
      </trkpt>
      <trkpt lat="47.87478" lon="6.92349">
        <ele>931</ele>
        <time>2026-05-09T08:48:53.422Z</time>
      </trkpt>
      <trkpt lat="47.8748" lon="6.9235">
        <ele>931</ele>
        <time>2026-05-09T08:48:54.422Z</time>
      </trkpt>
      <trkpt lat="47.87481" lon="6.92351">
        <ele>931</ele>
        <time>2026-05-09T08:48:55.423Z</time>
      </trkpt>
      <trkpt lat="47.87482" lon="6.92353">
        <ele>931</ele>
        <time>2026-05-09T08:48:56.422Z</time>
      </trkpt>
      <trkpt lat="47.87484" lon="6.92355">
        <ele>931</ele>
        <time>2026-05-09T08:48:57.423Z</time>
      </trkpt>
      <trkpt lat="47.87486" lon="6.92356">
        <ele>931</ele>
        <time>2026-05-09T08:48:58.422Z</time>
      </trkpt>
      <trkpt lat="47.87488" lon="6.92356">
        <ele>931</ele>
        <time>2026-05-09T08:48:59.423Z</time>
      </trkpt>
      <trkpt lat="47.8749" lon="6.92357">
        <ele>931</ele>
        <time>2026-05-09T08:49:00.422Z</time>
      </trkpt>
      <trkpt lat="47.87491" lon="6.92358">
        <ele>932</ele>
        <time>2026-05-09T08:49:01.422Z</time>
      </trkpt>
      <trkpt lat="47.87492" lon="6.92358">
        <ele>932</ele>
        <time>2026-05-09T08:49:02.423Z</time>
      </trkpt>
      <trkpt lat="47.87495" lon="6.92358">
        <ele>932</ele>
        <time>2026-05-09T08:49:03.422Z</time>
      </trkpt>
      <trkpt lat="47.87496" lon="6.92361">
        <ele>932</ele>
        <time>2026-05-09T08:49:04.423Z</time>
      </trkpt>
      <trkpt lat="47.87497" lon="6.92362">
        <ele>932</ele>
        <time>2026-05-09T08:49:05.422Z</time>
      </trkpt>
      <trkpt lat="47.87498" lon="6.92363">
        <ele>932</ele>
        <time>2026-05-09T08:49:06.423Z</time>
      </trkpt>
      <trkpt lat="47.875" lon="6.92364">
        <ele>933</ele>
        <time>2026-05-09T08:49:07.422Z</time>
      </trkpt>
      <trkpt lat="47.875" lon="6.92365">
        <ele>933</ele>
        <time>2026-05-09T08:49:08.423Z</time>
      </trkpt>
      <trkpt lat="47.87501" lon="6.92367">
        <ele>933</ele>
        <time>2026-05-09T08:49:09.422Z</time>
      </trkpt>
      <trkpt lat="47.87501" lon="6.92368">
        <ele>933</ele>
        <time>2026-05-09T08:49:10.423Z</time>
      </trkpt>
      <trkpt lat="47.87502" lon="6.92369">
        <ele>934</ele>
        <time>2026-05-09T08:49:11.423Z</time>
      </trkpt>
      <trkpt lat="47.87503" lon="6.9237">
        <ele>934</ele>
        <time>2026-05-09T08:49:12.423Z</time>
      </trkpt>
      <trkpt lat="47.87504" lon="6.92372">
        <ele>934</ele>
        <time>2026-05-09T08:49:13.423Z</time>
      </trkpt>
      <trkpt lat="47.87504" lon="6.92373">
        <ele>934</ele>
        <time>2026-05-09T08:49:14.422Z</time>
      </trkpt>
      <trkpt lat="47.87505" lon="6.92373">
        <ele>934</ele>
        <time>2026-05-09T08:49:15.422Z</time>
      </trkpt>
      <trkpt lat="47.87507" lon="6.92373">
        <ele>934</ele>
        <time>2026-05-09T08:49:16.422Z</time>
      </trkpt>
      <trkpt lat="47.87509" lon="6.92374">
        <ele>934</ele>
        <time>2026-05-09T08:49:17.423Z</time>
      </trkpt>
      <trkpt lat="47.8751" lon="6.92375">
        <ele>934</ele>
        <time>2026-05-09T08:49:18.422Z</time>
      </trkpt>
      <trkpt lat="47.87512" lon="6.92376">
        <ele>934</ele>
        <time>2026-05-09T08:49:19.423Z</time>
      </trkpt>
      <trkpt lat="47.87514" lon="6.92378">
        <ele>934</ele>
        <time>2026-05-09T08:49:20.422Z</time>
      </trkpt>
      <trkpt lat="47.87514" lon="6.92379">
        <ele>934</ele>
        <time>2026-05-09T08:49:21.423Z</time>
      </trkpt>
      <trkpt lat="47.87515" lon="6.9238">
        <ele>934</ele>
        <time>2026-05-09T08:49:22.422Z</time>
      </trkpt>
      <trkpt lat="47.87516" lon="6.92381">
        <ele>934</ele>
        <time>2026-05-09T08:49:23.423Z</time>
      </trkpt>
      <trkpt lat="47.87517" lon="6.92381">
        <ele>934</ele>
        <time>2026-05-09T08:49:24.422Z</time>
      </trkpt>
      <trkpt lat="47.87518" lon="6.92382">
        <ele>934</ele>
        <time>2026-05-09T08:49:25.423Z</time>
      </trkpt>
      <trkpt lat="47.87519" lon="6.92383">
        <ele>934</ele>
        <time>2026-05-09T08:49:26.423Z</time>
      </trkpt>
      <trkpt lat="47.8752" lon="6.92384">
        <ele>934</ele>
        <time>2026-05-09T08:49:27.423Z</time>
      </trkpt>
      <trkpt lat="47.87522" lon="6.92385">
        <ele>934</ele>
        <time>2026-05-09T08:49:28.422Z</time>
      </trkpt>
      <trkpt lat="47.87523" lon="6.92386">
        <ele>934</ele>
        <time>2026-05-09T08:49:29.422Z</time>
      </trkpt>
      <trkpt lat="47.87524" lon="6.92388">
        <ele>934</ele>
        <time>2026-05-09T08:49:30.423Z</time>
      </trkpt>
      <trkpt lat="47.87525" lon="6.9239">
        <ele>933</ele>
        <time>2026-05-09T08:49:31.422Z</time>
      </trkpt>
      <trkpt lat="47.87526" lon="6.92391">
        <ele>933</ele>
        <time>2026-05-09T08:49:32.423Z</time>
      </trkpt>
      <trkpt lat="47.87528" lon="6.92393">
        <ele>933</ele>
        <time>2026-05-09T08:49:33.422Z</time>
      </trkpt>
      <trkpt lat="47.87529" lon="6.92395">
        <ele>933</ele>
        <time>2026-05-09T08:49:34.422Z</time>
      </trkpt>
      <trkpt lat="47.8753" lon="6.92397">
        <ele>933</ele>
        <time>2026-05-09T08:49:35.422Z</time>
      </trkpt>
      <trkpt lat="47.87532" lon="6.92398">
        <ele>933</ele>
        <time>2026-05-09T08:49:36.422Z</time>
      </trkpt>
      <trkpt lat="47.87533" lon="6.924">
        <ele>932</ele>
        <time>2026-05-09T08:49:37.422Z</time>
      </trkpt>
      <trkpt lat="47.87535" lon="6.924">
        <ele>932</ele>
        <time>2026-05-09T08:49:38.422Z</time>
      </trkpt>
      <trkpt lat="47.87536" lon="6.92401">
        <ele>932</ele>
        <time>2026-05-09T08:49:39.423Z</time>
      </trkpt>
      <trkpt lat="47.87537" lon="6.92403">
        <ele>932</ele>
        <time>2026-05-09T08:49:40.423Z</time>
      </trkpt>
      <trkpt lat="47.87538" lon="6.92404">
        <ele>931</ele>
        <time>2026-05-09T08:49:41.423Z</time>
      </trkpt>
      <trkpt lat="47.87539" lon="6.92405">
        <ele>931</ele>
        <time>2026-05-09T08:49:42.422Z</time>
      </trkpt>
      <trkpt lat="47.8754" lon="6.92405">
        <ele>931</ele>
        <time>2026-05-09T08:49:43.422Z</time>
      </trkpt>
      <trkpt lat="47.87542" lon="6.92405">
        <ele>930</ele>
        <time>2026-05-09T08:49:44.423Z</time>
      </trkpt>
      <trkpt lat="47.87543" lon="6.92405">
        <ele>930</ele>
        <time>2026-05-09T08:49:45.422Z</time>
      </trkpt>
      <trkpt lat="47.87544" lon="6.92406">
        <ele>930</ele>
        <time>2026-05-09T08:49:46.423Z</time>
      </trkpt>
      <trkpt lat="47.87545" lon="6.92406">
        <ele>930</ele>
        <time>2026-05-09T08:49:47.422Z</time>
      </trkpt>
      <trkpt lat="47.87547" lon="6.92407">
        <ele>929</ele>
        <time>2026-05-09T08:49:48.423Z</time>
      </trkpt>
      <trkpt lat="47.87548" lon="6.92407">
        <ele>929</ele>
        <time>2026-05-09T08:49:49.422Z</time>
      </trkpt>
      <trkpt lat="47.87548" lon="6.92409">
        <ele>929</ele>
        <time>2026-05-09T08:49:50.422Z</time>
      </trkpt>
      <trkpt lat="47.87549" lon="6.9241">
        <ele>929</ele>
        <time>2026-05-09T08:49:51.423Z</time>
      </trkpt>
      <trkpt lat="47.8755" lon="6.92412">
        <ele>929</ele>
        <time>2026-05-09T08:49:52.422Z</time>
      </trkpt>
      <trkpt lat="47.87551" lon="6.92413">
        <ele>929</ele>
        <time>2026-05-09T08:49:53.423Z</time>
      </trkpt>
      <trkpt lat="47.87553" lon="6.92414">
        <ele>930</ele>
        <time>2026-05-09T08:49:54.422Z</time>
      </trkpt>
      <trkpt lat="47.87555" lon="6.92414">
        <ele>930</ele>
        <time>2026-05-09T08:49:55.423Z</time>
      </trkpt>
      <trkpt lat="47.87556" lon="6.92414">
        <ele>930</ele>
        <time>2026-05-09T08:49:56.422Z</time>
      </trkpt>
      <trkpt lat="47.87558" lon="6.92415">
        <ele>931</ele>
        <time>2026-05-09T08:49:57.423Z</time>
      </trkpt>
      <trkpt lat="47.87559" lon="6.92415">
        <ele>931</ele>
        <time>2026-05-09T08:49:58.422Z</time>
      </trkpt>
      <trkpt lat="47.87561" lon="6.92415">
        <ele>931</ele>
        <time>2026-05-09T08:49:59.422Z</time>
      </trkpt>
      <trkpt lat="47.87563" lon="6.92414">
        <ele>931</ele>
        <time>2026-05-09T08:50:00.423Z</time>
      </trkpt>
      <trkpt lat="47.87565" lon="6.92413">
        <ele>931</ele>
        <time>2026-05-09T08:50:01.422Z</time>
      </trkpt>
      <trkpt lat="47.87567" lon="6.92412">
        <ele>932</ele>
        <time>2026-05-09T08:50:02.423Z</time>
      </trkpt>
      <trkpt lat="47.87568" lon="6.92412">
        <ele>932</ele>
        <time>2026-05-09T08:50:03.422Z</time>
      </trkpt>
      <trkpt lat="47.8757" lon="6.92413">
        <ele>932</ele>
        <time>2026-05-09T08:50:04.422Z</time>
      </trkpt>
      <trkpt lat="47.87571" lon="6.92413">
        <ele>932</ele>
        <time>2026-05-09T08:50:05.422Z</time>
      </trkpt>
      <trkpt lat="47.87573" lon="6.92413">
        <ele>932</ele>
        <time>2026-05-09T08:50:06.422Z</time>
      </trkpt>
      <trkpt lat="47.87575" lon="6.92412">
        <ele>933</ele>
        <time>2026-05-09T08:50:07.423Z</time>
      </trkpt>
      <trkpt lat="47.87576" lon="6.92412">
        <ele>933</ele>
        <time>2026-05-09T08:50:08.422Z</time>
      </trkpt>
      <trkpt lat="47.87578" lon="6.92412">
        <ele>933</ele>
        <time>2026-05-09T08:50:09.422Z</time>
      </trkpt>
      <trkpt lat="47.87579" lon="6.92412">
        <ele>933</ele>
        <time>2026-05-09T08:50:10.423Z</time>
      </trkpt>
      <trkpt lat="47.8758" lon="6.92413">
        <ele>933</ele>
        <time>2026-05-09T08:50:11.422Z</time>
      </trkpt>
      <trkpt lat="47.87581" lon="6.92414">
        <ele>933</ele>
        <time>2026-05-09T08:50:12.423Z</time>
      </trkpt>
      <trkpt lat="47.87582" lon="6.92415">
        <ele>933</ele>
        <time>2026-05-09T08:50:13.422Z</time>
      </trkpt>
      <trkpt lat="47.87583" lon="6.92416">
        <ele>933</ele>
        <time>2026-05-09T08:50:14.423Z</time>
      </trkpt>
      <trkpt lat="47.87585" lon="6.92418">
        <ele>933</ele>
        <time>2026-05-09T08:50:15.422Z</time>
      </trkpt>
      <trkpt lat="47.87587" lon="6.92419">
        <ele>933</ele>
        <time>2026-05-09T08:50:16.422Z</time>
      </trkpt>
      <trkpt lat="47.87589" lon="6.92418">
        <ele>933</ele>
        <time>2026-05-09T08:50:17.423Z</time>
      </trkpt>
      <trkpt lat="47.87591" lon="6.92419">
        <ele>933</ele>
        <time>2026-05-09T08:50:18.422Z</time>
      </trkpt>
      <trkpt lat="47.87592" lon="6.9242">
        <ele>933</ele>
        <time>2026-05-09T08:50:19.423Z</time>
      </trkpt>
      <trkpt lat="47.87593" lon="6.92422">
        <ele>932</ele>
        <time>2026-05-09T08:50:20.422Z</time>
      </trkpt>
      <trkpt lat="47.87594" lon="6.92424">
        <ele>932</ele>
        <time>2026-05-09T08:50:21.423Z</time>
      </trkpt>
      <trkpt lat="47.87595" lon="6.92425">
        <ele>932</ele>
        <time>2026-05-09T08:50:22.422Z</time>
      </trkpt>
      <trkpt lat="47.87596" lon="6.92426">
        <ele>932</ele>
        <time>2026-05-09T08:50:23.422Z</time>
      </trkpt>
      <trkpt lat="47.87597" lon="6.92427">
        <ele>932</ele>
        <time>2026-05-09T08:50:24.423Z</time>
      </trkpt>
      <trkpt lat="47.87598" lon="6.92428">
        <ele>932</ele>
        <time>2026-05-09T08:50:25.422Z</time>
      </trkpt>
      <trkpt lat="47.87599" lon="6.92429">
        <ele>932</ele>
        <time>2026-05-09T08:50:26.423Z</time>
      </trkpt>
      <trkpt lat="47.876" lon="6.9243">
        <ele>932</ele>
        <time>2026-05-09T08:50:27.422Z</time>
      </trkpt>
      <trkpt lat="47.87601" lon="6.92432">
        <ele>932</ele>
        <time>2026-05-09T08:50:28.422Z</time>
      </trkpt>
      <trkpt lat="47.87602" lon="6.92433">
        <ele>932</ele>
        <time>2026-05-09T08:50:29.423Z</time>
      </trkpt>
      <trkpt lat="47.87603" lon="6.92436">
        <ele>932</ele>
        <time>2026-05-09T08:50:30.422Z</time>
      </trkpt>
      <trkpt lat="47.87604" lon="6.92438">
        <ele>933</ele>
        <time>2026-05-09T08:50:31.423Z</time>
      </trkpt>
      <trkpt lat="47.87605" lon="6.92439">
        <ele>932</ele>
        <time>2026-05-09T08:50:32.422Z</time>
      </trkpt>
      <trkpt lat="47.87607" lon="6.9244">
        <ele>932</ele>
        <time>2026-05-09T08:50:33.422Z</time>
      </trkpt>
      <trkpt lat="47.87609" lon="6.92441">
        <ele>932</ele>
        <time>2026-05-09T08:50:34.422Z</time>
      </trkpt>
      <trkpt lat="47.87611" lon="6.92443">
        <ele>932</ele>
        <time>2026-05-09T08:50:35.422Z</time>
      </trkpt>
      <trkpt lat="47.87612" lon="6.92443">
        <ele>932</ele>
        <time>2026-05-09T08:50:36.422Z</time>
      </trkpt>
      <trkpt lat="47.87613" lon="6.92444">
        <ele>932</ele>
        <time>2026-05-09T08:50:37.422Z</time>
      </trkpt>
      <trkpt lat="47.87614" lon="6.92446">
        <ele>932</ele>
        <time>2026-05-09T08:50:38.423Z</time>
      </trkpt>
      <trkpt lat="47.87614" lon="6.92448">
        <ele>931</ele>
        <time>2026-05-09T08:50:39.422Z</time>
      </trkpt>
      <trkpt lat="47.87615" lon="6.92449">
        <ele>931</ele>
        <time>2026-05-09T08:50:40.423Z</time>
      </trkpt>
      <trkpt lat="47.87616" lon="6.9245">
        <ele>931</ele>
        <time>2026-05-09T08:50:41.422Z</time>
      </trkpt>
      <trkpt lat="47.87618" lon="6.92451">
        <ele>931</ele>
        <time>2026-05-09T08:50:42.423Z</time>
      </trkpt>
      <trkpt lat="47.8762" lon="6.92451">
        <ele>931</ele>
        <time>2026-05-09T08:50:43.422Z</time>
      </trkpt>
      <trkpt lat="47.87621" lon="6.92452">
        <ele>931</ele>
        <time>2026-05-09T08:50:44.422Z</time>
      </trkpt>
      <trkpt lat="47.87623" lon="6.92452">
        <ele>931</ele>
        <time>2026-05-09T08:50:45.423Z</time>
      </trkpt>
      <trkpt lat="47.87624" lon="6.92453">
        <ele>931</ele>
        <time>2026-05-09T08:50:46.422Z</time>
      </trkpt>
      <trkpt lat="47.87625" lon="6.92454">
        <ele>931</ele>
        <time>2026-05-09T08:50:47.423Z</time>
      </trkpt>
      <trkpt lat="47.87625" lon="6.92455">
        <ele>931</ele>
        <time>2026-05-09T08:50:48.422Z</time>
      </trkpt>
      <trkpt lat="47.87626" lon="6.92457">
        <ele>931</ele>
        <time>2026-05-09T08:50:49.423Z</time>
      </trkpt>
      <trkpt lat="47.87627" lon="6.92458">
        <ele>931</ele>
        <time>2026-05-09T08:50:50.422Z</time>
      </trkpt>
      <trkpt lat="47.87628" lon="6.92459">
        <ele>931</ele>
        <time>2026-05-09T08:50:51.422Z</time>
      </trkpt>
      <trkpt lat="47.87629" lon="6.92461">
        <ele>931</ele>
        <time>2026-05-09T08:50:52.423Z</time>
      </trkpt>
      <trkpt lat="47.87631" lon="6.92461">
        <ele>931</ele>
        <time>2026-05-09T08:50:53.422Z</time>
      </trkpt>
      <trkpt lat="47.87632" lon="6.92463">
        <ele>930</ele>
        <time>2026-05-09T08:50:54.423Z</time>
      </trkpt>
      <trkpt lat="47.87633" lon="6.92464">
        <ele>930</ele>
        <time>2026-05-09T08:50:55.422Z</time>
      </trkpt>
      <trkpt lat="47.87633" lon="6.92465">
        <ele>930</ele>
        <time>2026-05-09T08:50:56.422Z</time>
      </trkpt>
      <trkpt lat="47.87634" lon="6.92467">
        <ele>930</ele>
        <time>2026-05-09T08:50:57.423Z</time>
      </trkpt>
      <trkpt lat="47.87634" lon="6.92468">
        <ele>929</ele>
        <time>2026-05-09T08:50:58.422Z</time>
      </trkpt>
      <trkpt lat="47.87636" lon="6.9247">
        <ele>929</ele>
        <time>2026-05-09T08:50:59.422Z</time>
      </trkpt>
      <trkpt lat="47.87637" lon="6.92471">
        <ele>929</ele>
        <time>2026-05-09T08:51:00.422Z</time>
      </trkpt>
      <trkpt lat="47.87638" lon="6.92473">
        <ele>929</ele>
        <time>2026-05-09T08:51:01.422Z</time>
      </trkpt>
      <trkpt lat="47.8764" lon="6.92475">
        <ele>929</ele>
        <time>2026-05-09T08:51:02.423Z</time>
      </trkpt>
      <trkpt lat="47.87641" lon="6.92476">
        <ele>929</ele>
        <time>2026-05-09T08:51:03.422Z</time>
      </trkpt>
      <trkpt lat="47.87642" lon="6.92477">
        <ele>929</ele>
        <time>2026-05-09T08:51:04.422Z</time>
      </trkpt>
      <trkpt lat="47.87643" lon="6.92478">
        <ele>930</ele>
        <time>2026-05-09T08:51:05.423Z</time>
      </trkpt>
      <trkpt lat="47.87644" lon="6.92479">
        <ele>930</ele>
        <time>2026-05-09T08:51:06.422Z</time>
      </trkpt>
      <trkpt lat="47.87645" lon="6.92481">
        <ele>930</ele>
        <time>2026-05-09T08:51:07.422Z</time>
      </trkpt>
      <trkpt lat="47.87647" lon="6.92482">
        <ele>930</ele>
        <time>2026-05-09T08:51:08.422Z</time>
      </trkpt>
      <trkpt lat="47.87649" lon="6.92483">
        <ele>930</ele>
        <time>2026-05-09T08:51:09.422Z</time>
      </trkpt>
      <trkpt lat="47.87651" lon="6.92484">
        <ele>930</ele>
        <time>2026-05-09T08:51:10.422Z</time>
      </trkpt>
      <trkpt lat="47.87652" lon="6.92486">
        <ele>930</ele>
        <time>2026-05-09T08:51:11.422Z</time>
      </trkpt>
      <trkpt lat="47.87653" lon="6.92487">
        <ele>929</ele>
        <time>2026-05-09T08:51:12.422Z</time>
      </trkpt>
      <trkpt lat="47.87654" lon="6.92488">
        <ele>929</ele>
        <time>2026-05-09T08:51:13.423Z</time>
      </trkpt>
      <trkpt lat="47.87655" lon="6.92489">
        <ele>929</ele>
        <time>2026-05-09T08:51:14.423Z</time>
      </trkpt>
      <trkpt lat="47.87656" lon="6.9249">
        <ele>929</ele>
        <time>2026-05-09T08:51:15.423Z</time>
      </trkpt>
      <trkpt lat="47.87658" lon="6.92491">
        <ele>929</ele>
        <time>2026-05-09T08:51:16.422Z</time>
      </trkpt>
      <trkpt lat="47.87659" lon="6.92494">
        <ele>928</ele>
        <time>2026-05-09T08:51:17.422Z</time>
      </trkpt>
      <trkpt lat="47.87659" lon="6.92496">
        <ele>928</ele>
        <time>2026-05-09T08:51:18.422Z</time>
      </trkpt>
      <trkpt lat="47.8766" lon="6.92498">
        <ele>928</ele>
        <time>2026-05-09T08:51:19.422Z</time>
      </trkpt>
      <trkpt lat="47.8766" lon="6.925">
        <ele>928</ele>
        <time>2026-05-09T08:51:20.423Z</time>
      </trkpt>
      <trkpt lat="47.87662" lon="6.92501">
        <ele>927</ele>
        <time>2026-05-09T08:51:21.423Z</time>
      </trkpt>
      <trkpt lat="47.87663" lon="6.92502">
        <ele>927</ele>
        <time>2026-05-09T08:51:22.422Z</time>
      </trkpt>
      <trkpt lat="47.87663" lon="6.92503">
        <ele>926</ele>
        <time>2026-05-09T08:51:23.423Z</time>
      </trkpt>
      <trkpt lat="47.87664" lon="6.92504">
        <ele>926</ele>
        <time>2026-05-09T08:51:24.423Z</time>
      </trkpt>
      <trkpt lat="47.87665" lon="6.92506">
        <ele>926</ele>
        <time>2026-05-09T08:51:25.422Z</time>
      </trkpt>
      <trkpt lat="47.87666" lon="6.92508">
        <ele>926</ele>
        <time>2026-05-09T08:51:26.422Z</time>
      </trkpt>
      <trkpt lat="47.87666" lon="6.9251">
        <ele>925</ele>
        <time>2026-05-09T08:51:27.423Z</time>
      </trkpt>
      <trkpt lat="47.87667" lon="6.92512">
        <ele>925</ele>
        <time>2026-05-09T08:51:28.422Z</time>
      </trkpt>
      <trkpt lat="47.87667" lon="6.92513">
        <ele>925</ele>
        <time>2026-05-09T08:51:29.423Z</time>
      </trkpt>
      <trkpt lat="47.87668" lon="6.92514">
        <ele>924</ele>
        <time>2026-05-09T08:51:30.422Z</time>
      </trkpt>
      <trkpt lat="47.87668" lon="6.92516">
        <ele>924</ele>
        <time>2026-05-09T08:51:31.423Z</time>
      </trkpt>
      <trkpt lat="47.87669" lon="6.92518">
        <ele>923</ele>
        <time>2026-05-09T08:51:32.422Z</time>
      </trkpt>
      <trkpt lat="47.87669" lon="6.9252">
        <ele>922</ele>
        <time>2026-05-09T08:51:33.423Z</time>
      </trkpt>
      <trkpt lat="47.87669" lon="6.92521">
        <ele>921</ele>
        <time>2026-05-09T08:51:34.422Z</time>
      </trkpt>
      <trkpt lat="47.8767" lon="6.92523">
        <ele>920</ele>
        <time>2026-05-09T08:51:35.422Z</time>
      </trkpt>
      <trkpt lat="47.8767" lon="6.92525">
        <ele>920</ele>
        <time>2026-05-09T08:51:36.422Z</time>
      </trkpt>
      <trkpt lat="47.87671" lon="6.92526">
        <ele>919</ele>
        <time>2026-05-09T08:51:37.423Z</time>
      </trkpt>
      <trkpt lat="47.87672" lon="6.92527">
        <ele>918</ele>
        <time>2026-05-09T08:51:38.422Z</time>
      </trkpt>
      <trkpt lat="47.87672" lon="6.92528">
        <ele>918</ele>
        <time>2026-05-09T08:51:39.422Z</time>
      </trkpt>
      <trkpt lat="47.87673" lon="6.92529">
        <ele>917</ele>
        <time>2026-05-09T08:51:40.422Z</time>
      </trkpt>
      <trkpt lat="47.87674" lon="6.92531">
        <ele>916</ele>
        <time>2026-05-09T08:51:41.422Z</time>
      </trkpt>
      <trkpt lat="47.87675" lon="6.92532">
        <ele>916</ele>
        <time>2026-05-09T08:51:42.423Z</time>
      </trkpt>
      <trkpt lat="47.87677" lon="6.92533">
        <ele>915</ele>
        <time>2026-05-09T08:51:43.422Z</time>
      </trkpt>
      <trkpt lat="47.87679" lon="6.92534">
        <ele>915</ele>
        <time>2026-05-09T08:51:44.423Z</time>
      </trkpt>
      <trkpt lat="47.87679" lon="6.92535">
        <ele>915</ele>
        <time>2026-05-09T08:51:45.422Z</time>
      </trkpt>
      <trkpt lat="47.87681" lon="6.92536">
        <ele>914</ele>
        <time>2026-05-09T08:51:46.423Z</time>
      </trkpt>
      <trkpt lat="47.87682" lon="6.92537">
        <ele>914</ele>
        <time>2026-05-09T08:51:47.423Z</time>
      </trkpt>
      <trkpt lat="47.87684" lon="6.92538">
        <ele>914</ele>
        <time>2026-05-09T08:51:48.423Z</time>
      </trkpt>
      <trkpt lat="47.87685" lon="6.9254">
        <ele>913</ele>
        <time>2026-05-09T08:51:49.423Z</time>
      </trkpt>
      <trkpt lat="47.87686" lon="6.92542">
        <ele>913</ele>
        <time>2026-05-09T08:51:50.422Z</time>
      </trkpt>
      <trkpt lat="47.87687" lon="6.92546">
        <ele>913</ele>
        <time>2026-05-09T08:51:51.423Z</time>
      </trkpt>
      <trkpt lat="47.87688" lon="6.92549">
        <ele>913</ele>
        <time>2026-05-09T08:51:52.423Z</time>
      </trkpt>
      <trkpt lat="47.8769" lon="6.92549">
        <ele>913</ele>
        <time>2026-05-09T08:51:53.422Z</time>
      </trkpt>
      <trkpt lat="47.87692" lon="6.9255">
        <ele>912</ele>
        <time>2026-05-09T08:51:54.423Z</time>
      </trkpt>
      <trkpt lat="47.87694" lon="6.92551">
        <ele>912</ele>
        <time>2026-05-09T08:51:55.423Z</time>
      </trkpt>
      <trkpt lat="47.87696" lon="6.92552">
        <ele>912</ele>
        <time>2026-05-09T08:51:56.423Z</time>
      </trkpt>
      <trkpt lat="47.87697" lon="6.92553">
        <ele>912</ele>
        <time>2026-05-09T08:51:57.422Z</time>
      </trkpt>
      <trkpt lat="47.87698" lon="6.92553">
        <ele>912</ele>
        <time>2026-05-09T08:51:58.422Z</time>
      </trkpt>
      <trkpt lat="47.877" lon="6.92553">
        <ele>911</ele>
        <time>2026-05-09T08:51:59.422Z</time>
      </trkpt>
      <trkpt lat="47.87701" lon="6.92554">
        <ele>911</ele>
        <time>2026-05-09T08:52:00.423Z</time>
      </trkpt>
      <trkpt lat="47.87703" lon="6.92555">
        <ele>911</ele>
        <time>2026-05-09T08:52:01.422Z</time>
      </trkpt>
      <trkpt lat="47.87705" lon="6.92556">
        <ele>910</ele>
        <time>2026-05-09T08:52:02.422Z</time>
      </trkpt>
      <trkpt lat="47.87707" lon="6.92556">
        <ele>910</ele>
        <time>2026-05-09T08:52:03.423Z</time>
      </trkpt>
      <trkpt lat="47.87708" lon="6.92556">
        <ele>910</ele>
        <time>2026-05-09T08:52:04.422Z</time>
      </trkpt>
      <trkpt lat="47.87708" lon="6.92555">
        <ele>910</ele>
        <time>2026-05-09T08:52:05.422Z</time>
      </trkpt>
      <trkpt lat="47.87709" lon="6.92554">
        <ele>910</ele>
        <time>2026-05-09T08:52:06.423Z</time>
      </trkpt>
      <trkpt lat="47.8771" lon="6.92552">
        <ele>909</ele>
        <time>2026-05-09T08:52:07.422Z</time>
      </trkpt>
      <trkpt lat="47.87711" lon="6.92551">
        <ele>909</ele>
        <time>2026-05-09T08:52:08.423Z</time>
      </trkpt>
      <trkpt lat="47.87712" lon="6.9255">
        <ele>909</ele>
        <time>2026-05-09T08:52:09.423Z</time>
      </trkpt>
      <trkpt lat="47.87714" lon="6.92549">
        <ele>908</ele>
        <time>2026-05-09T08:52:10.423Z</time>
      </trkpt>
      <trkpt lat="47.87715" lon="6.92548">
        <ele>908</ele>
        <time>2026-05-09T08:52:11.423Z</time>
      </trkpt>
      <trkpt lat="47.87716" lon="6.92546">
        <ele>907</ele>
        <time>2026-05-09T08:52:12.423Z</time>
      </trkpt>
      <trkpt lat="47.87717" lon="6.92545">
        <ele>907</ele>
        <time>2026-05-09T08:52:13.423Z</time>
      </trkpt>
      <trkpt lat="47.87718" lon="6.92544">
        <ele>906</ele>
        <time>2026-05-09T08:52:14.422Z</time>
      </trkpt>
      <trkpt lat="47.8772" lon="6.92543">
        <ele>906</ele>
        <time>2026-05-09T08:52:15.422Z</time>
      </trkpt>
      <trkpt lat="47.87721" lon="6.92542">
        <ele>905</ele>
        <time>2026-05-09T08:52:16.422Z</time>
      </trkpt>
      <trkpt lat="47.87722" lon="6.9254">
        <ele>904</ele>
        <time>2026-05-09T08:52:17.422Z</time>
      </trkpt>
      <trkpt lat="47.87722" lon="6.92538">
        <ele>904</ele>
        <time>2026-05-09T08:52:18.422Z</time>
      </trkpt>
      <trkpt lat="47.87723" lon="6.92535">
        <ele>903</ele>
        <time>2026-05-09T08:52:19.423Z</time>
      </trkpt>
      <trkpt lat="47.87723" lon="6.92534">
        <ele>902</ele>
        <time>2026-05-09T08:52:20.423Z</time>
      </trkpt>
      <trkpt lat="47.87723" lon="6.92532">
        <ele>902</ele>
        <time>2026-05-09T08:52:21.422Z</time>
      </trkpt>
      <trkpt lat="47.87724" lon="6.92531">
        <ele>901</ele>
        <time>2026-05-09T08:52:22.422Z</time>
      </trkpt>
      <trkpt lat="47.87724" lon="6.92529">
        <ele>901</ele>
        <time>2026-05-09T08:52:23.422Z</time>
      </trkpt>
      <trkpt lat="47.87725" lon="6.92527">
        <ele>900</ele>
        <time>2026-05-09T08:52:24.422Z</time>
      </trkpt>
      <trkpt lat="47.87725" lon="6.92526">
        <ele>899</ele>
        <time>2026-05-09T08:52:25.423Z</time>
      </trkpt>
      <trkpt lat="47.87725" lon="6.92525">
        <ele>898</ele>
        <time>2026-05-09T08:52:26.422Z</time>
      </trkpt>
      <trkpt lat="47.87726" lon="6.92523">
        <ele>898</ele>
        <time>2026-05-09T08:52:27.423Z</time>
      </trkpt>
      <trkpt lat="47.87727" lon="6.92522">
        <ele>897</ele>
        <time>2026-05-09T08:52:28.423Z</time>
      </trkpt>
      <trkpt lat="47.87727" lon="6.9252">
        <ele>896</ele>
        <time>2026-05-09T08:52:29.422Z</time>
      </trkpt>
      <trkpt lat="47.87728" lon="6.92518">
        <ele>895</ele>
        <time>2026-05-09T08:52:30.422Z</time>
      </trkpt>
      <trkpt lat="47.87728" lon="6.92515">
        <ele>894</ele>
        <time>2026-05-09T08:52:31.422Z</time>
      </trkpt>
      <trkpt lat="47.87728" lon="6.92512">
        <ele>894</ele>
        <time>2026-05-09T08:52:32.422Z</time>
      </trkpt>
      <trkpt lat="47.87728" lon="6.9251">
        <ele>893</ele>
        <time>2026-05-09T08:52:33.422Z</time>
      </trkpt>
      <trkpt lat="47.87728" lon="6.92507">
        <ele>892</ele>
        <time>2026-05-09T08:52:34.422Z</time>
      </trkpt>
      <trkpt lat="47.87729" lon="6.92505">
        <ele>892</ele>
        <time>2026-05-09T08:52:35.423Z</time>
      </trkpt>
      <trkpt lat="47.87729" lon="6.92502">
        <ele>892</ele>
        <time>2026-05-09T08:52:36.423Z</time>
      </trkpt>
      <trkpt lat="47.87729" lon="6.925">
        <ele>891</ele>
        <time>2026-05-09T08:52:37.423Z</time>
      </trkpt>
      <trkpt lat="47.8773" lon="6.92498">
        <ele>891</ele>
        <time>2026-05-09T08:52:38.422Z</time>
      </trkpt>
      <trkpt lat="47.87729" lon="6.92496">
        <ele>890</ele>
        <time>2026-05-09T08:52:39.423Z</time>
      </trkpt>
      <trkpt lat="47.87729" lon="6.92494">
        <ele>890</ele>
        <time>2026-05-09T08:52:40.422Z</time>
      </trkpt>
      <trkpt lat="47.87729" lon="6.92492">
        <ele>889</ele>
        <time>2026-05-09T08:52:41.422Z</time>
      </trkpt>
      <trkpt lat="47.87729" lon="6.92489">
        <ele>889</ele>
        <time>2026-05-09T08:52:42.423Z</time>
      </trkpt>
      <trkpt lat="47.87729" lon="6.92487">
        <ele>889</ele>
        <time>2026-05-09T08:52:43.422Z</time>
      </trkpt>
      <trkpt lat="47.87729" lon="6.92485">
        <ele>888</ele>
        <time>2026-05-09T08:52:44.422Z</time>
      </trkpt>
      <trkpt lat="47.87729" lon="6.92482">
        <ele>888</ele>
        <time>2026-05-09T08:52:45.423Z</time>
      </trkpt>
      <trkpt lat="47.87729" lon="6.9248">
        <ele>888</ele>
        <time>2026-05-09T08:52:46.422Z</time>
      </trkpt>
      <trkpt lat="47.87728" lon="6.92479">
        <ele>888</ele>
        <time>2026-05-09T08:52:47.422Z</time>
      </trkpt>
      <trkpt lat="47.87731" lon="6.92455">
        <ele>896</ele>
        <time>2026-05-09T08:53:49.219Z</time>
      </trkpt>
      <trkpt lat="47.87731" lon="6.92452">
        <ele>896</ele>
        <time>2026-05-09T08:53:50.219Z</time>
      </trkpt>
      <trkpt lat="47.87732" lon="6.92451">
        <ele>896</ele>
        <time>2026-05-09T08:53:51.219Z</time>
      </trkpt>
      <trkpt lat="47.87731" lon="6.92449">
        <ele>896</ele>
        <time>2026-05-09T08:53:52.219Z</time>
      </trkpt>
      <trkpt lat="47.87731" lon="6.92447">
        <ele>896</ele>
        <time>2026-05-09T08:53:53.219Z</time>
      </trkpt>
      <trkpt lat="47.87732" lon="6.92446">
        <ele>896</ele>
        <time>2026-05-09T08:53:54.220Z</time>
      </trkpt>
      <trkpt lat="47.87732" lon="6.92444">
        <ele>896</ele>
        <time>2026-05-09T08:53:55.219Z</time>
      </trkpt>
      <trkpt lat="47.87731" lon="6.92443">
        <ele>896</ele>
        <time>2026-05-09T08:53:56.219Z</time>
      </trkpt>
      <trkpt lat="47.8773" lon="6.92441">
        <ele>896</ele>
        <time>2026-05-09T08:53:57.219Z</time>
      </trkpt>
      <trkpt lat="47.87729" lon="6.92439">
        <ele>896</ele>
        <time>2026-05-09T08:53:58.220Z</time>
      </trkpt>
      <trkpt lat="47.87729" lon="6.92437">
        <ele>896</ele>
        <time>2026-05-09T08:53:59.219Z</time>
      </trkpt>
      <trkpt lat="47.87728" lon="6.92435">
        <ele>895</ele>
        <time>2026-05-09T08:54:00.219Z</time>
      </trkpt>
      <trkpt lat="47.87728" lon="6.92433">
        <ele>895</ele>
        <time>2026-05-09T08:54:01.219Z</time>
      </trkpt>
      <trkpt lat="47.87727" lon="6.92431">
        <ele>895</ele>
        <time>2026-05-09T08:54:02.219Z</time>
      </trkpt>
      <trkpt lat="47.87728" lon="6.92427">
        <ele>895</ele>
        <time>2026-05-09T08:54:03.219Z</time>
      </trkpt>
      <trkpt lat="47.87728" lon="6.92425">
        <ele>895</ele>
        <time>2026-05-09T08:54:04.219Z</time>
      </trkpt>
      <trkpt lat="47.87727" lon="6.92423">
        <ele>894</ele>
        <time>2026-05-09T08:54:05.219Z</time>
      </trkpt>
      <trkpt lat="47.87727" lon="6.9242">
        <ele>894</ele>
        <time>2026-05-09T08:54:06.219Z</time>
      </trkpt>
      <trkpt lat="47.87727" lon="6.92417">
        <ele>894</ele>
        <time>2026-05-09T08:54:07.220Z</time>
      </trkpt>
      <trkpt lat="47.87726" lon="6.92415">
        <ele>894</ele>
        <time>2026-05-09T08:54:08.219Z</time>
      </trkpt>
      <trkpt lat="47.87726" lon="6.92414">
        <ele>893</ele>
        <time>2026-05-09T08:54:09.219Z</time>
      </trkpt>
      <trkpt lat="47.87726" lon="6.92412">
        <ele>893</ele>
        <time>2026-05-09T08:54:10.219Z</time>
      </trkpt>
      <trkpt lat="47.87726" lon="6.92411">
        <ele>893</ele>
        <time>2026-05-09T08:54:11.219Z</time>
      </trkpt>
      <trkpt lat="47.87726" lon="6.92409">
        <ele>893</ele>
        <time>2026-05-09T08:54:12.219Z</time>
      </trkpt>
      <trkpt lat="47.87726" lon="6.92408">
        <ele>893</ele>
        <time>2026-05-09T08:54:13.219Z</time>
      </trkpt>
      <trkpt lat="47.87725" lon="6.92405">
        <ele>892</ele>
        <time>2026-05-09T08:54:14.220Z</time>
      </trkpt>
      <trkpt lat="47.87724" lon="6.92404">
        <ele>892</ele>
        <time>2026-05-09T08:54:15.219Z</time>
      </trkpt>
      <trkpt lat="47.87723" lon="6.92402">
        <ele>892</ele>
        <time>2026-05-09T08:54:16.219Z</time>
      </trkpt>
      <trkpt lat="47.87722" lon="6.924">
        <ele>892</ele>
        <time>2026-05-09T08:54:17.219Z</time>
      </trkpt>
      <trkpt lat="47.87722" lon="6.92398">
        <ele>892</ele>
        <time>2026-05-09T08:54:18.219Z</time>
      </trkpt>
      <trkpt lat="47.87722" lon="6.92396">
        <ele>892</ele>
        <time>2026-05-09T08:54:19.220Z</time>
      </trkpt>
      <trkpt lat="47.87722" lon="6.92394">
        <ele>891</ele>
        <time>2026-05-09T08:54:20.219Z</time>
      </trkpt>
      <trkpt lat="47.87722" lon="6.92392">
        <ele>891</ele>
        <time>2026-05-09T08:54:21.219Z</time>
      </trkpt>
      <trkpt lat="47.87722" lon="6.9239">
        <ele>891</ele>
        <time>2026-05-09T08:54:22.220Z</time>
      </trkpt>
      <trkpt lat="47.87723" lon="6.92388">
        <ele>890</ele>
        <time>2026-05-09T08:54:23.219Z</time>
      </trkpt>
      <trkpt lat="47.87723" lon="6.92387">
        <ele>890</ele>
        <time>2026-05-09T08:54:24.219Z</time>
      </trkpt>
      <trkpt lat="47.87723" lon="6.92385">
        <ele>890</ele>
        <time>2026-05-09T08:54:25.219Z</time>
      </trkpt>
      <trkpt lat="47.87723" lon="6.92384">
        <ele>889</ele>
        <time>2026-05-09T08:54:26.219Z</time>
      </trkpt>
      <trkpt lat="47.87723" lon="6.92383">
        <ele>889</ele>
        <time>2026-05-09T08:54:27.219Z</time>
      </trkpt>
      <trkpt lat="47.87723" lon="6.92383">
        <ele>889</ele>
        <time>2026-05-09T08:54:28.219Z</time>
      </trkpt>
      <trkpt lat="47.87722" lon="6.92382">
        <ele>889</ele>
        <time>2026-05-09T08:54:29.219Z</time>
      </trkpt>
      <trkpt lat="47.87722" lon="6.92381">
        <ele>888</ele>
        <time>2026-05-09T08:54:30.219Z</time>
      </trkpt>
      <trkpt lat="47.87722" lon="6.92378">
        <ele>888</ele>
        <time>2026-05-09T08:54:31.220Z</time>
      </trkpt>
      <trkpt lat="47.87722" lon="6.92376">
        <ele>888</ele>
        <time>2026-05-09T08:54:32.220Z</time>
      </trkpt>
      <trkpt lat="47.87722" lon="6.92374">
        <ele>888</ele>
        <time>2026-05-09T08:54:33.219Z</time>
      </trkpt>
      <trkpt lat="47.87722" lon="6.92373">
        <ele>887</ele>
        <time>2026-05-09T08:54:34.219Z</time>
      </trkpt>
      <trkpt lat="47.87722" lon="6.92371">
        <ele>887</ele>
        <time>2026-05-09T08:54:35.220Z</time>
      </trkpt>
      <trkpt lat="47.87721" lon="6.9237">
        <ele>887</ele>
        <time>2026-05-09T08:54:36.220Z</time>
      </trkpt>
      <trkpt lat="47.87721" lon="6.92368">
        <ele>887</ele>
        <time>2026-05-09T08:54:37.220Z</time>
      </trkpt>
      <trkpt lat="47.8772" lon="6.92366">
        <ele>887</ele>
        <time>2026-05-09T08:54:38.219Z</time>
      </trkpt>
      <trkpt lat="47.87719" lon="6.92363">
        <ele>887</ele>
        <time>2026-05-09T08:54:39.219Z</time>
      </trkpt>
      <trkpt lat="47.87719" lon="6.92361">
        <ele>887</ele>
        <time>2026-05-09T08:54:40.220Z</time>
      </trkpt>
      <trkpt lat="47.87718" lon="6.92359">
        <ele>887</ele>
        <time>2026-05-09T08:54:41.219Z</time>
      </trkpt>
      <trkpt lat="47.87718" lon="6.92357">
        <ele>887</ele>
        <time>2026-05-09T08:54:42.219Z</time>
      </trkpt>
      <trkpt lat="47.87717" lon="6.92355">
        <ele>887</ele>
        <time>2026-05-09T08:54:43.220Z</time>
      </trkpt>
      <trkpt lat="47.87717" lon="6.92353">
        <ele>887</ele>
        <time>2026-05-09T08:54:44.219Z</time>
      </trkpt>
      <trkpt lat="47.87717" lon="6.92351">
        <ele>887</ele>
        <time>2026-05-09T08:54:45.219Z</time>
      </trkpt>
      <trkpt lat="47.87716" lon="6.92349">
        <ele>887</ele>
        <time>2026-05-09T08:54:46.220Z</time>
      </trkpt>
      <trkpt lat="47.87716" lon="6.92346">
        <ele>887</ele>
        <time>2026-05-09T08:54:47.219Z</time>
      </trkpt>
      <trkpt lat="47.87716" lon="6.92344">
        <ele>887</ele>
        <time>2026-05-09T08:54:48.219Z</time>
      </trkpt>
      <trkpt lat="47.87716" lon="6.92341">
        <ele>887</ele>
        <time>2026-05-09T08:54:49.219Z</time>
      </trkpt>
      <trkpt lat="47.87716" lon="6.92338">
        <ele>887</ele>
        <time>2026-05-09T08:54:50.220Z</time>
      </trkpt>
      <trkpt lat="47.87716" lon="6.92335">
        <ele>887</ele>
        <time>2026-05-09T08:54:51.219Z</time>
      </trkpt>
      <trkpt lat="47.87715" lon="6.92333">
        <ele>887</ele>
        <time>2026-05-09T08:54:52.219Z</time>
      </trkpt>
      <trkpt lat="47.87715" lon="6.9233">
        <ele>887</ele>
        <time>2026-05-09T08:54:53.219Z</time>
      </trkpt>
      <trkpt lat="47.87715" lon="6.92328">
        <ele>887</ele>
        <time>2026-05-09T08:54:54.219Z</time>
      </trkpt>
      <trkpt lat="47.87715" lon="6.92326">
        <ele>887</ele>
        <time>2026-05-09T08:54:55.220Z</time>
      </trkpt>
      <trkpt lat="47.87715" lon="6.92323">
        <ele>887</ele>
        <time>2026-05-09T08:54:56.219Z</time>
      </trkpt>
      <trkpt lat="47.87714" lon="6.92321">
        <ele>887</ele>
        <time>2026-05-09T08:54:57.220Z</time>
      </trkpt>
      <trkpt lat="47.87713" lon="6.92319">
        <ele>886</ele>
        <time>2026-05-09T08:54:58.220Z</time>
      </trkpt>
      <trkpt lat="47.87713" lon="6.92316">
        <ele>886</ele>
        <time>2026-05-09T08:54:59.219Z</time>
      </trkpt>
      <trkpt lat="47.87712" lon="6.92315">
        <ele>886</ele>
        <time>2026-05-09T08:55:00.220Z</time>
      </trkpt>
      <trkpt lat="47.87712" lon="6.92313">
        <ele>886</ele>
        <time>2026-05-09T08:55:01.219Z</time>
      </trkpt>
      <trkpt lat="47.87712" lon="6.92311">
        <ele>886</ele>
        <time>2026-05-09T08:55:02.220Z</time>
      </trkpt>
      <trkpt lat="47.87712" lon="6.92309">
        <ele>885</ele>
        <time>2026-05-09T08:55:03.220Z</time>
      </trkpt>
      <trkpt lat="47.87712" lon="6.92307">
        <ele>885</ele>
        <time>2026-05-09T08:55:04.220Z</time>
      </trkpt>
      <trkpt lat="47.87711" lon="6.92306">
        <ele>885</ele>
        <time>2026-05-09T08:55:05.220Z</time>
      </trkpt>
      <trkpt lat="47.87711" lon="6.92304">
        <ele>884</ele>
        <time>2026-05-09T08:55:06.219Z</time>
      </trkpt>
      <trkpt lat="47.8771" lon="6.92301">
        <ele>884</ele>
        <time>2026-05-09T08:55:07.220Z</time>
      </trkpt>
      <trkpt lat="47.87709" lon="6.92299">
        <ele>884</ele>
        <time>2026-05-09T08:55:08.219Z</time>
      </trkpt>
      <trkpt lat="47.87708" lon="6.92297">
        <ele>883</ele>
        <time>2026-05-09T08:55:09.219Z</time>
      </trkpt>
      <trkpt lat="47.87708" lon="6.92294">
        <ele>883</ele>
        <time>2026-05-09T08:55:10.219Z</time>
      </trkpt>
      <trkpt lat="47.87708" lon="6.92292">
        <ele>883</ele>
        <time>2026-05-09T08:55:11.219Z</time>
      </trkpt>
      <trkpt lat="47.87707" lon="6.92289">
        <ele>883</ele>
        <time>2026-05-09T08:55:12.220Z</time>
      </trkpt>
      <trkpt lat="47.87707" lon="6.92287">
        <ele>882</ele>
        <time>2026-05-09T08:55:13.220Z</time>
      </trkpt>
      <trkpt lat="47.87706" lon="6.92285">
        <ele>882</ele>
        <time>2026-05-09T08:55:14.219Z</time>
      </trkpt>
      <trkpt lat="47.87706" lon="6.92283">
        <ele>882</ele>
        <time>2026-05-09T08:55:15.219Z</time>
      </trkpt>
      <trkpt lat="47.87706" lon="6.92281">
        <ele>881</ele>
        <time>2026-05-09T08:55:16.219Z</time>
      </trkpt>
      <trkpt lat="47.87706" lon="6.92279">
        <ele>881</ele>
        <time>2026-05-09T08:55:17.219Z</time>
      </trkpt>
      <trkpt lat="47.87706" lon="6.92277">
        <ele>881</ele>
        <time>2026-05-09T08:55:18.219Z</time>
      </trkpt>
      <trkpt lat="47.87706" lon="6.92274">
        <ele>881</ele>
        <time>2026-05-09T08:55:19.219Z</time>
      </trkpt>
      <trkpt lat="47.87706" lon="6.92271">
        <ele>880</ele>
        <time>2026-05-09T08:55:20.219Z</time>
      </trkpt>
      <trkpt lat="47.87705" lon="6.92268">
        <ele>880</ele>
        <time>2026-05-09T08:55:21.219Z</time>
      </trkpt>
      <trkpt lat="47.87705" lon="6.92265">
        <ele>880</ele>
        <time>2026-05-09T08:55:22.219Z</time>
      </trkpt>
      <trkpt lat="47.87704" lon="6.92263">
        <ele>879</ele>
        <time>2026-05-09T08:55:23.219Z</time>
      </trkpt>
      <trkpt lat="47.87703" lon="6.9226">
        <ele>879</ele>
        <time>2026-05-09T08:55:24.219Z</time>
      </trkpt>
      <trkpt lat="47.87703" lon="6.92257">
        <ele>879</ele>
        <time>2026-05-09T08:55:25.219Z</time>
      </trkpt>
      <trkpt lat="47.87703" lon="6.92255">
        <ele>879</ele>
        <time>2026-05-09T08:55:26.219Z</time>
      </trkpt>
      <trkpt lat="47.87703" lon="6.92252">
        <ele>878</ele>
        <time>2026-05-09T08:55:27.219Z</time>
      </trkpt>
      <trkpt lat="47.87702" lon="6.9225">
        <ele>878</ele>
        <time>2026-05-09T08:55:28.219Z</time>
      </trkpt>
      <trkpt lat="47.87702" lon="6.92248">
        <ele>878</ele>
        <time>2026-05-09T08:55:29.220Z</time>
      </trkpt>
      <trkpt lat="47.87702" lon="6.92245">
        <ele>877</ele>
        <time>2026-05-09T08:55:30.219Z</time>
      </trkpt>
      <trkpt lat="47.87702" lon="6.92243">
        <ele>877</ele>
        <time>2026-05-09T08:55:31.219Z</time>
      </trkpt>
      <trkpt lat="47.87702" lon="6.92241">
        <ele>877</ele>
        <time>2026-05-09T08:55:32.220Z</time>
      </trkpt>
      <trkpt lat="47.87702" lon="6.92237">
        <ele>877</ele>
        <time>2026-05-09T08:55:33.219Z</time>
      </trkpt>
      <trkpt lat="47.87702" lon="6.92235">
        <ele>877</ele>
        <time>2026-05-09T08:55:34.220Z</time>
      </trkpt>
      <trkpt lat="47.87702" lon="6.92232">
        <ele>877</ele>
        <time>2026-05-09T08:55:35.219Z</time>
      </trkpt>
      <trkpt lat="47.87701" lon="6.9223">
        <ele>876</ele>
        <time>2026-05-09T08:55:36.219Z</time>
      </trkpt>
      <trkpt lat="47.877" lon="6.92228">
        <ele>876</ele>
        <time>2026-05-09T08:55:37.219Z</time>
      </trkpt>
      <trkpt lat="47.877" lon="6.92226">
        <ele>876</ele>
        <time>2026-05-09T08:55:38.219Z</time>
      </trkpt>
      <trkpt lat="47.87699" lon="6.92225">
        <ele>876</ele>
        <time>2026-05-09T08:55:39.219Z</time>
      </trkpt>
      <trkpt lat="47.87699" lon="6.92223">
        <ele>875</ele>
        <time>2026-05-09T08:55:40.219Z</time>
      </trkpt>
      <trkpt lat="47.87698" lon="6.92221">
        <ele>875</ele>
        <time>2026-05-09T08:55:41.219Z</time>
      </trkpt>
      <trkpt lat="47.87698" lon="6.92219">
        <ele>875</ele>
        <time>2026-05-09T08:55:42.219Z</time>
      </trkpt>
      <trkpt lat="47.87698" lon="6.92217">
        <ele>874</ele>
        <time>2026-05-09T08:55:43.220Z</time>
      </trkpt>
      <trkpt lat="47.87698" lon="6.92216">
        <ele>874</ele>
        <time>2026-05-09T08:55:44.219Z</time>
      </trkpt>
      <trkpt lat="47.87697" lon="6.92214">
        <ele>874</ele>
        <time>2026-05-09T08:55:45.219Z</time>
      </trkpt>
      <trkpt lat="47.87696" lon="6.92212">
        <ele>873</ele>
        <time>2026-05-09T08:55:46.219Z</time>
      </trkpt>
      <trkpt lat="47.87696" lon="6.92209">
        <ele>873</ele>
        <time>2026-05-09T08:55:47.219Z</time>
      </trkpt>
      <trkpt lat="47.87696" lon="6.92207">
        <ele>873</ele>
        <time>2026-05-09T08:55:48.220Z</time>
      </trkpt>
      <trkpt lat="47.87696" lon="6.92205">
        <ele>873</ele>
        <time>2026-05-09T08:55:49.219Z</time>
      </trkpt>
      <trkpt lat="47.87695" lon="6.92203">
        <ele>873</ele>
        <time>2026-05-09T08:55:50.220Z</time>
      </trkpt>
      <trkpt lat="47.87694" lon="6.92201">
        <ele>873</ele>
        <time>2026-05-09T08:55:51.220Z</time>
      </trkpt>
      <trkpt lat="47.87693" lon="6.922">
        <ele>872</ele>
        <time>2026-05-09T08:55:52.219Z</time>
      </trkpt>
      <trkpt lat="47.87692" lon="6.92198">
        <ele>872</ele>
        <time>2026-05-09T08:55:53.219Z</time>
      </trkpt>
      <trkpt lat="47.87692" lon="6.92196">
        <ele>872</ele>
        <time>2026-05-09T08:55:54.219Z</time>
      </trkpt>
      <trkpt lat="47.87691" lon="6.92194">
        <ele>872</ele>
        <time>2026-05-09T08:55:55.219Z</time>
      </trkpt>
      <trkpt lat="47.8769" lon="6.92193">
        <ele>872</ele>
        <time>2026-05-09T08:55:56.219Z</time>
      </trkpt>
      <trkpt lat="47.87689" lon="6.92191">
        <ele>872</ele>
        <time>2026-05-09T08:55:57.219Z</time>
      </trkpt>
      <trkpt lat="47.87688" lon="6.92189">
        <ele>872</ele>
        <time>2026-05-09T08:55:58.219Z</time>
      </trkpt>
      <trkpt lat="47.87687" lon="6.92187">
        <ele>872</ele>
        <time>2026-05-09T08:55:59.219Z</time>
      </trkpt>
      <trkpt lat="47.87687" lon="6.92185">
        <ele>872</ele>
        <time>2026-05-09T08:56:00.219Z</time>
      </trkpt>
      <trkpt lat="47.87685" lon="6.92184">
        <ele>871</ele>
        <time>2026-05-09T08:56:01.219Z</time>
      </trkpt>
      <trkpt lat="47.87684" lon="6.92183">
        <ele>871</ele>
        <time>2026-05-09T08:56:02.220Z</time>
      </trkpt>
      <trkpt lat="47.87682" lon="6.92181">
        <ele>871</ele>
        <time>2026-05-09T08:56:03.220Z</time>
      </trkpt>
      <trkpt lat="47.87681" lon="6.9218">
        <ele>871</ele>
        <time>2026-05-09T08:56:04.219Z</time>
      </trkpt>
      <trkpt lat="47.87679" lon="6.92178">
        <ele>870</ele>
        <time>2026-05-09T08:56:05.220Z</time>
      </trkpt>
      <trkpt lat="47.87678" lon="6.92177">
        <ele>870</ele>
        <time>2026-05-09T08:56:06.220Z</time>
      </trkpt>
      <trkpt lat="47.87677" lon="6.92176">
        <ele>870</ele>
        <time>2026-05-09T08:56:07.219Z</time>
      </trkpt>
      <trkpt lat="47.87676" lon="6.92174">
        <ele>870</ele>
        <time>2026-05-09T08:56:08.219Z</time>
      </trkpt>
      <trkpt lat="47.87675" lon="6.92172">
        <ele>869</ele>
        <time>2026-05-09T08:56:09.220Z</time>
      </trkpt>
      <trkpt lat="47.87674" lon="6.9217">
        <ele>869</ele>
        <time>2026-05-09T08:56:10.220Z</time>
      </trkpt>
      <trkpt lat="47.87674" lon="6.92168">
        <ele>869</ele>
        <time>2026-05-09T08:56:11.219Z</time>
      </trkpt>
      <trkpt lat="47.87674" lon="6.92166">
        <ele>869</ele>
        <time>2026-05-09T08:56:12.219Z</time>
      </trkpt>
      <trkpt lat="47.87673" lon="6.92163">
        <ele>869</ele>
        <time>2026-05-09T08:56:13.219Z</time>
      </trkpt>
      <trkpt lat="47.87673" lon="6.92161">
        <ele>869</ele>
        <time>2026-05-09T08:56:14.220Z</time>
      </trkpt>
      <trkpt lat="47.87672" lon="6.9216">
        <ele>869</ele>
        <time>2026-05-09T08:56:15.219Z</time>
      </trkpt>
      <trkpt lat="47.87671" lon="6.92158">
        <ele>869</ele>
        <time>2026-05-09T08:56:16.219Z</time>
      </trkpt>
      <trkpt lat="47.87671" lon="6.92156">
        <ele>868</ele>
        <time>2026-05-09T08:56:17.219Z</time>
      </trkpt>
      <trkpt lat="47.8767" lon="6.92154">
        <ele>868</ele>
        <time>2026-05-09T08:56:18.220Z</time>
      </trkpt>
      <trkpt lat="47.8767" lon="6.92152">
        <ele>868</ele>
        <time>2026-05-09T08:56:19.219Z</time>
      </trkpt>
      <trkpt lat="47.8767" lon="6.92151">
        <ele>868</ele>
        <time>2026-05-09T08:56:20.220Z</time>
      </trkpt>
      <trkpt lat="47.8767" lon="6.92149">
        <ele>868</ele>
        <time>2026-05-09T08:56:21.219Z</time>
      </trkpt>
      <trkpt lat="47.8767" lon="6.92147">
        <ele>868</ele>
        <time>2026-05-09T08:56:22.219Z</time>
      </trkpt>
      <trkpt lat="47.8767" lon="6.92145">
        <ele>868</ele>
        <time>2026-05-09T08:56:23.219Z</time>
      </trkpt>
      <trkpt lat="47.87668" lon="6.92144">
        <ele>868</ele>
        <time>2026-05-09T08:56:24.219Z</time>
      </trkpt>
      <trkpt lat="47.87667" lon="6.92142">
        <ele>868</ele>
        <time>2026-05-09T08:56:25.219Z</time>
      </trkpt>
      <trkpt lat="47.87667" lon="6.9214">
        <ele>868</ele>
        <time>2026-05-09T08:56:26.220Z</time>
      </trkpt>
      <trkpt lat="47.87666" lon="6.92139">
        <ele>868</ele>
        <time>2026-05-09T08:56:27.219Z</time>
      </trkpt>
      <trkpt lat="47.87665" lon="6.92137">
        <ele>868</ele>
        <time>2026-05-09T08:56:28.219Z</time>
      </trkpt>
      <trkpt lat="47.87664" lon="6.92136">
        <ele>868</ele>
        <time>2026-05-09T08:56:29.219Z</time>
      </trkpt>
      <trkpt lat="47.87664" lon="6.92134">
        <ele>868</ele>
        <time>2026-05-09T08:56:30.219Z</time>
      </trkpt>
      <trkpt lat="47.87663" lon="6.92133">
        <ele>868</ele>
        <time>2026-05-09T08:56:31.219Z</time>
      </trkpt>
      <trkpt lat="47.87663" lon="6.92131">
        <ele>868</ele>
        <time>2026-05-09T08:56:32.219Z</time>
      </trkpt>
      <trkpt lat="47.87662" lon="6.92129">
        <ele>868</ele>
        <time>2026-05-09T08:56:33.219Z</time>
      </trkpt>
      <trkpt lat="47.87661" lon="6.92127">
        <ele>868</ele>
        <time>2026-05-09T08:56:34.220Z</time>
      </trkpt>
      <trkpt lat="47.87661" lon="6.92125">
        <ele>868</ele>
        <time>2026-05-09T08:56:35.220Z</time>
      </trkpt>
      <trkpt lat="47.87661" lon="6.92123">
        <ele>868</ele>
        <time>2026-05-09T08:56:36.219Z</time>
      </trkpt>
      <trkpt lat="47.8766" lon="6.92121">
        <ele>868</ele>
        <time>2026-05-09T08:56:37.219Z</time>
      </trkpt>
      <trkpt lat="47.8766" lon="6.92119">
        <ele>867</ele>
        <time>2026-05-09T08:56:38.219Z</time>
      </trkpt>
      <trkpt lat="47.87659" lon="6.92117">
        <ele>867</ele>
        <time>2026-05-09T08:56:39.219Z</time>
      </trkpt>
      <trkpt lat="47.87659" lon="6.92115">
        <ele>868</ele>
        <time>2026-05-09T08:56:40.220Z</time>
      </trkpt>
      <trkpt lat="47.87658" lon="6.92113">
        <ele>868</ele>
        <time>2026-05-09T08:56:41.220Z</time>
      </trkpt>
      <trkpt lat="47.87658" lon="6.92111">
        <ele>868</ele>
        <time>2026-05-09T08:56:42.219Z</time>
      </trkpt>
      <trkpt lat="47.87658" lon="6.92109">
        <ele>868</ele>
        <time>2026-05-09T08:56:43.219Z</time>
      </trkpt>
      <trkpt lat="47.87658" lon="6.92107">
        <ele>868</ele>
        <time>2026-05-09T08:56:44.219Z</time>
      </trkpt>
      <trkpt lat="47.87658" lon="6.92105">
        <ele>868</ele>
        <time>2026-05-09T08:56:45.220Z</time>
      </trkpt>
      <trkpt lat="47.87657" lon="6.92104">
        <ele>868</ele>
        <time>2026-05-09T08:56:46.219Z</time>
      </trkpt>
      <trkpt lat="47.87657" lon="6.92102">
        <ele>868</ele>
        <time>2026-05-09T08:56:47.219Z</time>
      </trkpt>
      <trkpt lat="47.87657" lon="6.92101">
        <ele>868</ele>
        <time>2026-05-09T08:56:48.219Z</time>
      </trkpt>
      <trkpt lat="47.87656" lon="6.921">
        <ele>868</ele>
        <time>2026-05-09T08:56:49.219Z</time>
      </trkpt>
      <trkpt lat="47.87656" lon="6.92099">
        <ele>868</ele>
        <time>2026-05-09T08:56:50.219Z</time>
      </trkpt>
      <trkpt lat="47.87655" lon="6.92097">
        <ele>868</ele>
        <time>2026-05-09T08:56:51.219Z</time>
      </trkpt>
      <trkpt lat="47.87653" lon="6.92096">
        <ele>868</ele>
        <time>2026-05-09T08:56:52.220Z</time>
      </trkpt>
      <trkpt lat="47.87651" lon="6.92094">
        <ele>868</ele>
        <time>2026-05-09T08:56:53.219Z</time>
      </trkpt>
      <trkpt lat="47.8765" lon="6.92092">
        <ele>868</ele>
        <time>2026-05-09T08:56:54.219Z</time>
      </trkpt>
      <trkpt lat="47.8765" lon="6.92089">
        <ele>868</ele>
        <time>2026-05-09T08:56:55.219Z</time>
      </trkpt>
      <trkpt lat="47.87649" lon="6.92087">
        <ele>868</ele>
        <time>2026-05-09T08:56:56.220Z</time>
      </trkpt>
      <trkpt lat="47.87649" lon="6.92085">
        <ele>868</ele>
        <time>2026-05-09T08:56:57.220Z</time>
      </trkpt>
      <trkpt lat="47.87649" lon="6.92083">
        <ele>868</ele>
        <time>2026-05-09T08:56:58.220Z</time>
      </trkpt>
      <trkpt lat="47.87648" lon="6.92082">
        <ele>868</ele>
        <time>2026-05-09T08:56:59.219Z</time>
      </trkpt>
      <trkpt lat="47.87647" lon="6.92081">
        <ele>867</ele>
        <time>2026-05-09T08:57:00.219Z</time>
      </trkpt>
      <trkpt lat="47.87647" lon="6.9208">
        <ele>867</ele>
        <time>2026-05-09T08:57:01.219Z</time>
      </trkpt>
      <trkpt lat="47.87646" lon="6.92078">
        <ele>867</ele>
        <time>2026-05-09T08:57:02.219Z</time>
      </trkpt>
      <trkpt lat="47.87645" lon="6.92077">
        <ele>867</ele>
        <time>2026-05-09T08:57:03.219Z</time>
      </trkpt>
      <trkpt lat="47.87644" lon="6.92075">
        <ele>867</ele>
        <time>2026-05-09T08:57:04.219Z</time>
      </trkpt>
      <trkpt lat="47.87644" lon="6.92073">
        <ele>867</ele>
        <time>2026-05-09T08:57:05.219Z</time>
      </trkpt>
      <trkpt lat="47.87643" lon="6.92071">
        <ele>866</ele>
        <time>2026-05-09T08:57:06.220Z</time>
      </trkpt>
      <trkpt lat="47.87643" lon="6.9207">
        <ele>866</ele>
        <time>2026-05-09T08:57:07.220Z</time>
      </trkpt>
      <trkpt lat="47.87642" lon="6.92068">
        <ele>866</ele>
        <time>2026-05-09T08:57:08.219Z</time>
      </trkpt>
      <trkpt lat="47.87642" lon="6.92065">
        <ele>866</ele>
        <time>2026-05-09T08:57:09.219Z</time>
      </trkpt>
      <trkpt lat="47.87641" lon="6.92063">
        <ele>866</ele>
        <time>2026-05-09T08:57:10.219Z</time>
      </trkpt>
      <trkpt lat="47.87641" lon="6.92061">
        <ele>865</ele>
        <time>2026-05-09T08:57:11.219Z</time>
      </trkpt>
      <trkpt lat="47.87642" lon="6.92059">
        <ele>865</ele>
        <time>2026-05-09T08:57:12.219Z</time>
      </trkpt>
      <trkpt lat="47.87641" lon="6.92057">
        <ele>865</ele>
        <time>2026-05-09T08:57:13.220Z</time>
      </trkpt>
      <trkpt lat="47.87641" lon="6.92056">
        <ele>865</ele>
        <time>2026-05-09T08:57:14.219Z</time>
      </trkpt>
      <trkpt lat="47.87641" lon="6.92054">
        <ele>864</ele>
        <time>2026-05-09T08:57:15.220Z</time>
      </trkpt>
      <trkpt lat="47.87641" lon="6.92052">
        <ele>864</ele>
        <time>2026-05-09T08:57:16.219Z</time>
      </trkpt>
      <trkpt lat="47.87642" lon="6.9205">
        <ele>864</ele>
        <time>2026-05-09T08:57:17.220Z</time>
      </trkpt>
      <trkpt lat="47.87643" lon="6.92048">
        <ele>864</ele>
        <time>2026-05-09T08:57:18.220Z</time>
      </trkpt>
      <trkpt lat="47.87644" lon="6.92047">
        <ele>864</ele>
        <time>2026-05-09T08:57:19.219Z</time>
      </trkpt>
      <trkpt lat="47.87644" lon="6.92045">
        <ele>864</ele>
        <time>2026-05-09T08:57:20.219Z</time>
      </trkpt>
      <trkpt lat="47.87644" lon="6.92044">
        <ele>864</ele>
        <time>2026-05-09T08:57:21.220Z</time>
      </trkpt>
      <trkpt lat="47.87644" lon="6.92042">
        <ele>863</ele>
        <time>2026-05-09T08:57:22.220Z</time>
      </trkpt>
      <trkpt lat="47.87644" lon="6.92041">
        <ele>863</ele>
        <time>2026-05-09T08:57:23.219Z</time>
      </trkpt>
      <trkpt lat="47.87645" lon="6.9204">
        <ele>863</ele>
        <time>2026-05-09T08:57:24.219Z</time>
      </trkpt>
      <trkpt lat="47.87645" lon="6.92039">
        <ele>863</ele>
        <time>2026-05-09T08:57:25.220Z</time>
      </trkpt>
      <trkpt lat="47.87646" lon="6.92037">
        <ele>863</ele>
        <time>2026-05-09T08:57:26.219Z</time>
      </trkpt>
      <trkpt lat="47.87646" lon="6.92036">
        <ele>863</ele>
        <time>2026-05-09T08:57:27.220Z</time>
      </trkpt>
      <trkpt lat="47.87645" lon="6.92035">
        <ele>863</ele>
        <time>2026-05-09T08:57:28.219Z</time>
      </trkpt>
      <trkpt lat="47.87645" lon="6.92034">
        <ele>863</ele>
        <time>2026-05-09T08:57:29.220Z</time>
      </trkpt>
      <trkpt lat="47.87645" lon="6.92032">
        <ele>863</ele>
        <time>2026-05-09T08:57:30.219Z</time>
      </trkpt>
      <trkpt lat="47.87645" lon="6.92031">
        <ele>863</ele>
        <time>2026-05-09T08:57:31.219Z</time>
      </trkpt>
      <trkpt lat="47.87645" lon="6.92029">
        <ele>863</ele>
        <time>2026-05-09T08:57:32.219Z</time>
      </trkpt>
      <trkpt lat="47.87644" lon="6.92027">
        <ele>863</ele>
        <time>2026-05-09T08:57:33.219Z</time>
      </trkpt>
      <trkpt lat="47.87644" lon="6.92025">
        <ele>863</ele>
        <time>2026-05-09T08:57:34.219Z</time>
      </trkpt>
      <trkpt lat="47.87644" lon="6.92023">
        <ele>863</ele>
        <time>2026-05-09T08:57:35.219Z</time>
      </trkpt>
      <trkpt lat="47.87643" lon="6.92021">
        <ele>863</ele>
        <time>2026-05-09T08:57:36.219Z</time>
      </trkpt>
      <trkpt lat="47.87644" lon="6.92019">
        <ele>863</ele>
        <time>2026-05-09T08:57:37.219Z</time>
      </trkpt>
      <trkpt lat="47.87643" lon="6.92017">
        <ele>863</ele>
        <time>2026-05-09T08:57:38.220Z</time>
      </trkpt>
      <trkpt lat="47.87642" lon="6.92015">
        <ele>863</ele>
        <time>2026-05-09T08:57:39.220Z</time>
      </trkpt>
      <trkpt lat="47.87641" lon="6.92014">
        <ele>863</ele>
        <time>2026-05-09T08:57:40.219Z</time>
      </trkpt>
      <trkpt lat="47.87641" lon="6.92012">
        <ele>863</ele>
        <time>2026-05-09T08:57:41.219Z</time>
      </trkpt>
      <trkpt lat="47.8764" lon="6.92009">
        <ele>863</ele>
        <time>2026-05-09T08:57:42.220Z</time>
      </trkpt>
      <trkpt lat="47.87639" lon="6.92006">
        <ele>863</ele>
        <time>2026-05-09T08:57:43.219Z</time>
      </trkpt>
      <trkpt lat="47.87638" lon="6.92004">
        <ele>863</ele>
        <time>2026-05-09T08:57:44.219Z</time>
      </trkpt>
      <trkpt lat="47.87636" lon="6.92003">
        <ele>863</ele>
        <time>2026-05-09T08:57:45.219Z</time>
      </trkpt>
      <trkpt lat="47.87636" lon="6.92001">
        <ele>863</ele>
        <time>2026-05-09T08:57:46.219Z</time>
      </trkpt>
      <trkpt lat="47.87635" lon="6.91999">
        <ele>863</ele>
        <time>2026-05-09T08:57:47.220Z</time>
      </trkpt>
      <trkpt lat="47.87634" lon="6.91996">
        <ele>863</ele>
        <time>2026-05-09T08:57:48.219Z</time>
      </trkpt>
      <trkpt lat="47.87633" lon="6.91994">
        <ele>864</ele>
        <time>2026-05-09T08:57:49.219Z</time>
      </trkpt>
      <trkpt lat="47.87632" lon="6.91993">
        <ele>864</ele>
        <time>2026-05-09T08:57:50.219Z</time>
      </trkpt>
      <trkpt lat="47.87632" lon="6.9199">
        <ele>864</ele>
        <time>2026-05-09T08:57:51.220Z</time>
      </trkpt>
      <trkpt lat="47.87631" lon="6.91988">
        <ele>864</ele>
        <time>2026-05-09T08:57:52.219Z</time>
      </trkpt>
      <trkpt lat="47.87631" lon="6.91985">
        <ele>864</ele>
        <time>2026-05-09T08:57:53.219Z</time>
      </trkpt>
      <trkpt lat="47.8763" lon="6.91982">
        <ele>864</ele>
        <time>2026-05-09T08:57:54.219Z</time>
      </trkpt>
      <trkpt lat="47.8763" lon="6.9198">
        <ele>864</ele>
        <time>2026-05-09T08:57:55.219Z</time>
      </trkpt>
      <trkpt lat="47.87629" lon="6.91977">
        <ele>864</ele>
        <time>2026-05-09T08:57:56.220Z</time>
      </trkpt>
      <trkpt lat="47.87629" lon="6.91975">
        <ele>864</ele>
        <time>2026-05-09T08:57:57.219Z</time>
      </trkpt>
      <trkpt lat="47.87629" lon="6.91973">
        <ele>864</ele>
        <time>2026-05-09T08:57:58.219Z</time>
      </trkpt>
      <trkpt lat="47.87629" lon="6.91972">
        <ele>865</ele>
        <time>2026-05-09T08:57:59.220Z</time>
      </trkpt>
      <trkpt lat="47.87628" lon="6.9197">
        <ele>865</ele>
        <time>2026-05-09T08:58:00.219Z</time>
      </trkpt>
      <trkpt lat="47.87627" lon="6.91968">
        <ele>865</ele>
        <time>2026-05-09T08:58:01.219Z</time>
      </trkpt>
      <trkpt lat="47.87627" lon="6.91966">
        <ele>865</ele>
        <time>2026-05-09T08:58:02.219Z</time>
      </trkpt>
      <trkpt lat="47.87626" lon="6.91964">
        <ele>866</ele>
        <time>2026-05-09T08:58:03.219Z</time>
      </trkpt>
      <trkpt lat="47.87626" lon="6.91961">
        <ele>866</ele>
        <time>2026-05-09T08:58:04.220Z</time>
      </trkpt>
      <trkpt lat="47.87626" lon="6.91959">
        <ele>866</ele>
        <time>2026-05-09T08:58:05.219Z</time>
      </trkpt>
      <trkpt lat="47.87626" lon="6.91957">
        <ele>866</ele>
        <time>2026-05-09T08:58:06.220Z</time>
      </trkpt>
      <trkpt lat="47.87626" lon="6.91955">
        <ele>867</ele>
        <time>2026-05-09T08:58:07.220Z</time>
      </trkpt>
      <trkpt lat="47.87626" lon="6.91953">
        <ele>867</ele>
        <time>2026-05-09T08:58:08.219Z</time>
      </trkpt>
      <trkpt lat="47.87625" lon="6.91951">
        <ele>867</ele>
        <time>2026-05-09T08:58:09.220Z</time>
      </trkpt>
      <trkpt lat="47.87624" lon="6.91949">
        <ele>867</ele>
        <time>2026-05-09T08:58:10.220Z</time>
      </trkpt>
      <trkpt lat="47.87624" lon="6.91948">
        <ele>868</ele>
        <time>2026-05-09T08:58:11.219Z</time>
      </trkpt>
      <trkpt lat="47.87623" lon="6.91947">
        <ele>868</ele>
        <time>2026-05-09T08:58:12.219Z</time>
      </trkpt>
      <trkpt lat="47.87622" lon="6.91945">
        <ele>868</ele>
        <time>2026-05-09T08:58:13.219Z</time>
      </trkpt>
      <trkpt lat="47.87622" lon="6.91944">
        <ele>868</ele>
        <time>2026-05-09T08:58:14.219Z</time>
      </trkpt>
      <trkpt lat="47.87621" lon="6.91942">
        <ele>869</ele>
        <time>2026-05-09T08:58:15.219Z</time>
      </trkpt>
      <trkpt lat="47.8762" lon="6.91941">
        <ele>869</ele>
        <time>2026-05-09T08:58:16.219Z</time>
      </trkpt>
      <trkpt lat="47.8762" lon="6.91939">
        <ele>869</ele>
        <time>2026-05-09T08:58:17.219Z</time>
      </trkpt>
      <trkpt lat="47.87619" lon="6.91938">
        <ele>869</ele>
        <time>2026-05-09T08:58:18.220Z</time>
      </trkpt>
      <trkpt lat="47.87618" lon="6.91936">
        <ele>869</ele>
        <time>2026-05-09T08:58:19.220Z</time>
      </trkpt>
      <trkpt lat="47.87618" lon="6.91934">
        <ele>870</ele>
        <time>2026-05-09T08:58:20.219Z</time>
      </trkpt>
      <trkpt lat="47.87618" lon="6.91933">
        <ele>870</ele>
        <time>2026-05-09T08:58:21.219Z</time>
      </trkpt>
      <trkpt lat="47.87617" lon="6.91931">
        <ele>870</ele>
        <time>2026-05-09T08:58:22.219Z</time>
      </trkpt>
      <trkpt lat="47.87617" lon="6.91929">
        <ele>870</ele>
        <time>2026-05-09T08:58:23.219Z</time>
      </trkpt>
      <trkpt lat="47.87617" lon="6.91928">
        <ele>871</ele>
        <time>2026-05-09T08:58:24.220Z</time>
      </trkpt>
      <trkpt lat="47.87617" lon="6.91926">
        <ele>871</ele>
        <time>2026-05-09T08:58:25.220Z</time>
      </trkpt>
      <trkpt lat="47.87617" lon="6.91925">
        <ele>871</ele>
        <time>2026-05-09T08:58:26.219Z</time>
      </trkpt>
      <trkpt lat="47.87618" lon="6.91924">
        <ele>871</ele>
        <time>2026-05-09T08:58:27.220Z</time>
      </trkpt>
      <trkpt lat="47.87619" lon="6.91923">
        <ele>871</ele>
        <time>2026-05-09T08:58:28.219Z</time>
      </trkpt>
      <trkpt lat="47.87619" lon="6.91921">
        <ele>871</ele>
        <time>2026-05-09T08:58:29.220Z</time>
      </trkpt>
      <trkpt lat="47.8762" lon="6.91919">
        <ele>872</ele>
        <time>2026-05-09T08:58:30.220Z</time>
      </trkpt>
      <trkpt lat="47.8762" lon="6.91919">
        <ele>872</ele>
        <time>2026-05-09T08:58:31.219Z</time>
      </trkpt>
      <trkpt lat="47.8762" lon="6.91918">
        <ele>872</ele>
        <time>2026-05-09T08:58:32.220Z</time>
      </trkpt>
      <trkpt lat="47.8762" lon="6.91918">
        <ele>872</ele>
        <time>2026-05-09T08:58:33.219Z</time>
      </trkpt>
      <trkpt lat="47.87619" lon="6.91916">
        <ele>873</ele>
        <time>2026-05-09T08:58:34.220Z</time>
      </trkpt>
      <trkpt lat="47.87619" lon="6.91915">
        <ele>873</ele>
        <time>2026-05-09T08:58:35.219Z</time>
      </trkpt>
      <trkpt lat="47.87619" lon="6.91913">
        <ele>873</ele>
        <time>2026-05-09T08:58:36.219Z</time>
      </trkpt>
      <trkpt lat="47.87619" lon="6.91912">
        <ele>873</ele>
        <time>2026-05-09T08:58:37.219Z</time>
      </trkpt>
      <trkpt lat="47.87619" lon="6.9191">
        <ele>874</ele>
        <time>2026-05-09T08:58:38.219Z</time>
      </trkpt>
      <trkpt lat="47.87619" lon="6.91908">
        <ele>874</ele>
        <time>2026-05-09T08:58:39.220Z</time>
      </trkpt>
      <trkpt lat="47.87619" lon="6.91906">
        <ele>874</ele>
        <time>2026-05-09T08:58:40.220Z</time>
      </trkpt>
      <trkpt lat="47.87619" lon="6.91904">
        <ele>875</ele>
        <time>2026-05-09T08:58:41.219Z</time>
      </trkpt>
      <trkpt lat="47.87619" lon="6.91902">
        <ele>875</ele>
        <time>2026-05-09T08:58:42.220Z</time>
      </trkpt>
      <trkpt lat="47.87619" lon="6.919">
        <ele>875</ele>
        <time>2026-05-09T08:58:43.219Z</time>
      </trkpt>
      <trkpt lat="47.87619" lon="6.91898">
        <ele>876</ele>
        <time>2026-05-09T08:58:44.219Z</time>
      </trkpt>
      <trkpt lat="47.87619" lon="6.91896">
        <ele>876</ele>
        <time>2026-05-09T08:58:45.219Z</time>
      </trkpt>
      <trkpt lat="47.87619" lon="6.91894">
        <ele>876</ele>
        <time>2026-05-09T08:58:46.219Z</time>
      </trkpt>
      <trkpt lat="47.87619" lon="6.91893">
        <ele>876</ele>
        <time>2026-05-09T08:58:47.219Z</time>
      </trkpt>
      <trkpt lat="47.87619" lon="6.91891">
        <ele>877</ele>
        <time>2026-05-09T08:58:48.219Z</time>
      </trkpt>
      <trkpt lat="47.87619" lon="6.91888">
        <ele>877</ele>
        <time>2026-05-09T08:58:49.219Z</time>
      </trkpt>
      <trkpt lat="47.87619" lon="6.91886">
        <ele>877</ele>
        <time>2026-05-09T08:58:50.219Z</time>
      </trkpt>
      <trkpt lat="47.87618" lon="6.91884">
        <ele>877</ele>
        <time>2026-05-09T08:58:51.219Z</time>
      </trkpt>
      <trkpt lat="47.87618" lon="6.91883">
        <ele>877</ele>
        <time>2026-05-09T08:58:52.220Z</time>
      </trkpt>
      <trkpt lat="47.87618" lon="6.91881">
        <ele>878</ele>
        <time>2026-05-09T08:58:53.220Z</time>
      </trkpt>
      <trkpt lat="47.87618" lon="6.91878">
        <ele>878</ele>
        <time>2026-05-09T08:58:54.220Z</time>
      </trkpt>
      <trkpt lat="47.87617" lon="6.91876">
        <ele>878</ele>
        <time>2026-05-09T08:58:55.219Z</time>
      </trkpt>
      <trkpt lat="47.87617" lon="6.91874">
        <ele>878</ele>
        <time>2026-05-09T08:58:56.219Z</time>
      </trkpt>
      <trkpt lat="47.87616" lon="6.91871">
        <ele>878</ele>
        <time>2026-05-09T08:58:57.219Z</time>
      </trkpt>
      <trkpt lat="47.87615" lon="6.91869">
        <ele>879</ele>
        <time>2026-05-09T08:58:58.219Z</time>
      </trkpt>
      <trkpt lat="47.87615" lon="6.91866">
        <ele>879</ele>
        <time>2026-05-09T08:58:59.220Z</time>
      </trkpt>
      <trkpt lat="47.87614" lon="6.91864">
        <ele>879</ele>
        <time>2026-05-09T08:59:00.219Z</time>
      </trkpt>
      <trkpt lat="47.87614" lon="6.91862">
        <ele>879</ele>
        <time>2026-05-09T08:59:01.219Z</time>
      </trkpt>
      <trkpt lat="47.87613" lon="6.9186">
        <ele>879</ele>
        <time>2026-05-09T08:59:02.219Z</time>
      </trkpt>
      <trkpt lat="47.87613" lon="6.91857">
        <ele>880</ele>
        <time>2026-05-09T08:59:03.220Z</time>
      </trkpt>
      <trkpt lat="47.87613" lon="6.91855">
        <ele>880</ele>
        <time>2026-05-09T08:59:04.219Z</time>
      </trkpt>
      <trkpt lat="47.87613" lon="6.91853">
        <ele>880</ele>
        <time>2026-05-09T08:59:05.220Z</time>
      </trkpt>
      <trkpt lat="47.87613" lon="6.9185">
        <ele>880</ele>
        <time>2026-05-09T08:59:06.220Z</time>
      </trkpt>
      <trkpt lat="47.87613" lon="6.91848">
        <ele>880</ele>
        <time>2026-05-09T08:59:07.219Z</time>
      </trkpt>
      <trkpt lat="47.87613" lon="6.91846">
        <ele>881</ele>
        <time>2026-05-09T08:59:08.220Z</time>
      </trkpt>
      <trkpt lat="47.87612" lon="6.91845">
        <ele>881</ele>
        <time>2026-05-09T08:59:09.219Z</time>
      </trkpt>
      <trkpt lat="47.87612" lon="6.91844">
        <ele>881</ele>
        <time>2026-05-09T08:59:10.219Z</time>
      </trkpt>
      <trkpt lat="47.87611" lon="6.91843">
        <ele>881</ele>
        <time>2026-05-09T08:59:11.219Z</time>
      </trkpt>
      <trkpt lat="47.8761" lon="6.91842">
        <ele>881</ele>
        <time>2026-05-09T08:59:12.220Z</time>
      </trkpt>
      <trkpt lat="47.87609" lon="6.9184">
        <ele>881</ele>
        <time>2026-05-09T08:59:13.219Z</time>
      </trkpt>
      <trkpt lat="47.87609" lon="6.91838">
        <ele>881</ele>
        <time>2026-05-09T08:59:14.220Z</time>
      </trkpt>
      <trkpt lat="47.87609" lon="6.91837">
        <ele>882</ele>
        <time>2026-05-09T08:59:15.219Z</time>
      </trkpt>
      <trkpt lat="47.87609" lon="6.91836">
        <ele>882</ele>
        <time>2026-05-09T08:59:16.219Z</time>
      </trkpt>
      <trkpt lat="47.87608" lon="6.91836">
        <ele>882</ele>
        <time>2026-05-09T08:59:17.220Z</time>
      </trkpt>
      <trkpt lat="47.87608" lon="6.91834">
        <ele>882</ele>
        <time>2026-05-09T08:59:18.219Z</time>
      </trkpt>
      <trkpt lat="47.87608" lon="6.91833">
        <ele>882</ele>
        <time>2026-05-09T08:59:19.219Z</time>
      </trkpt>
      <trkpt lat="47.87608" lon="6.91831">
        <ele>883</ele>
        <time>2026-05-09T08:59:20.219Z</time>
      </trkpt>
      <trkpt lat="47.87607" lon="6.9183">
        <ele>883</ele>
        <time>2026-05-09T08:59:21.219Z</time>
      </trkpt>
      <trkpt lat="47.87607" lon="6.91827">
        <ele>883</ele>
        <time>2026-05-09T08:59:22.219Z</time>
      </trkpt>
      <trkpt lat="47.87606" lon="6.91825">
        <ele>883</ele>
        <time>2026-05-09T08:59:23.220Z</time>
      </trkpt>
      <trkpt lat="47.87606" lon="6.91822">
        <ele>883</ele>
        <time>2026-05-09T08:59:24.219Z</time>
      </trkpt>
      <trkpt lat="47.87606" lon="6.9182">
        <ele>884</ele>
        <time>2026-05-09T08:59:25.219Z</time>
      </trkpt>
      <trkpt lat="47.87606" lon="6.9182">
        <ele>884</ele>
        <time>2026-05-09T08:59:26.219Z</time>
      </trkpt>
      <trkpt lat="47.87606" lon="6.9182">
        <ele>884</ele>
        <time>2026-05-09T08:59:27.219Z</time>
      </trkpt>
      <trkpt lat="47.87605" lon="6.91819">
        <ele>884</ele>
        <time>2026-05-09T08:59:28.219Z</time>
      </trkpt>
      <trkpt lat="47.87605" lon="6.91818">
        <ele>885</ele>
        <time>2026-05-09T08:59:29.219Z</time>
      </trkpt>
      <trkpt lat="47.87605" lon="6.91817">
        <ele>885</ele>
        <time>2026-05-09T08:59:30.219Z</time>
      </trkpt>
      <trkpt lat="47.87604" lon="6.91815">
        <ele>886</ele>
        <time>2026-05-09T08:59:31.219Z</time>
      </trkpt>
      <trkpt lat="47.87604" lon="6.91814">
        <ele>886</ele>
        <time>2026-05-09T08:59:32.220Z</time>
      </trkpt>
      <trkpt lat="47.87604" lon="6.91813">
        <ele>886</ele>
        <time>2026-05-09T08:59:33.219Z</time>
      </trkpt>
      <trkpt lat="47.87604" lon="6.91811">
        <ele>887</ele>
        <time>2026-05-09T08:59:34.219Z</time>
      </trkpt>
      <trkpt lat="47.87604" lon="6.91809">
        <ele>887</ele>
        <time>2026-05-09T08:59:35.219Z</time>
      </trkpt>
      <trkpt lat="47.87604" lon="6.91807">
        <ele>887</ele>
        <time>2026-05-09T08:59:36.219Z</time>
      </trkpt>
      <trkpt lat="47.87605" lon="6.91803">
        <ele>888</ele>
        <time>2026-05-09T08:59:37.219Z</time>
      </trkpt>
      <trkpt lat="47.87605" lon="6.918">
        <ele>888</ele>
        <time>2026-05-09T08:59:38.219Z</time>
      </trkpt>
      <trkpt lat="47.87605" lon="6.91797">
        <ele>888</ele>
        <time>2026-05-09T08:59:39.219Z</time>
      </trkpt>
      <trkpt lat="47.87605" lon="6.91796">
        <ele>888</ele>
        <time>2026-05-09T08:59:40.220Z</time>
      </trkpt>
      <trkpt lat="47.87605" lon="6.91794">
        <ele>889</ele>
        <time>2026-05-09T08:59:41.219Z</time>
      </trkpt>
      <trkpt lat="47.87604" lon="6.91791">
        <ele>889</ele>
        <time>2026-05-09T08:59:42.220Z</time>
      </trkpt>
      <trkpt lat="47.87603" lon="6.91789">
        <ele>889</ele>
        <time>2026-05-09T08:59:43.220Z</time>
      </trkpt>
      <trkpt lat="47.87603" lon="6.91786">
        <ele>889</ele>
        <time>2026-05-09T08:59:44.219Z</time>
      </trkpt>
      <trkpt lat="47.87603" lon="6.91784">
        <ele>889</ele>
        <time>2026-05-09T08:59:45.219Z</time>
      </trkpt>
      <trkpt lat="47.87602" lon="6.91782">
        <ele>889</ele>
        <time>2026-05-09T08:59:46.219Z</time>
      </trkpt>
      <trkpt lat="47.87602" lon="6.9178">
        <ele>889</ele>
        <time>2026-05-09T08:59:47.219Z</time>
      </trkpt>
      <trkpt lat="47.87601" lon="6.91777">
        <ele>889</ele>
        <time>2026-05-09T08:59:48.219Z</time>
      </trkpt>
      <trkpt lat="47.87601" lon="6.91774">
        <ele>889</ele>
        <time>2026-05-09T08:59:49.219Z</time>
      </trkpt>
      <trkpt lat="47.87602" lon="6.91772">
        <ele>890</ele>
        <time>2026-05-09T08:59:50.219Z</time>
      </trkpt>
      <trkpt lat="47.87602" lon="6.9177">
        <ele>890</ele>
        <time>2026-05-09T08:59:51.219Z</time>
      </trkpt>
      <trkpt lat="47.87602" lon="6.91769">
        <ele>890</ele>
        <time>2026-05-09T08:59:52.219Z</time>
      </trkpt>
      <trkpt lat="47.87602" lon="6.91768">
        <ele>890</ele>
        <time>2026-05-09T08:59:53.220Z</time>
      </trkpt>
      <trkpt lat="47.87602" lon="6.91766">
        <ele>890</ele>
        <time>2026-05-09T08:59:54.219Z</time>
      </trkpt>
      <trkpt lat="47.87602" lon="6.91764">
        <ele>890</ele>
        <time>2026-05-09T08:59:55.219Z</time>
      </trkpt>
      <trkpt lat="47.87602" lon="6.91761">
        <ele>890</ele>
        <time>2026-05-09T08:59:56.219Z</time>
      </trkpt>
      <trkpt lat="47.87602" lon="6.91759">
        <ele>890</ele>
        <time>2026-05-09T08:59:57.219Z</time>
      </trkpt>
      <trkpt lat="47.87602" lon="6.91755">
        <ele>890</ele>
        <time>2026-05-09T08:59:58.219Z</time>
      </trkpt>
      <trkpt lat="47.87602" lon="6.91752">
        <ele>890</ele>
        <time>2026-05-09T08:59:59.219Z</time>
      </trkpt>
      <trkpt lat="47.87602" lon="6.91749">
        <ele>890</ele>
        <time>2026-05-09T09:00:00.220Z</time>
      </trkpt>
      <trkpt lat="47.87603" lon="6.91745">
        <ele>890</ele>
        <time>2026-05-09T09:00:01.219Z</time>
      </trkpt>
      <trkpt lat="47.87603" lon="6.91741">
        <ele>890</ele>
        <time>2026-05-09T09:00:02.219Z</time>
      </trkpt>
      <trkpt lat="47.87602" lon="6.91736">
        <ele>890</ele>
        <time>2026-05-09T09:00:03.219Z</time>
      </trkpt>
      <trkpt lat="47.87601" lon="6.91731">
        <ele>890</ele>
        <time>2026-05-09T09:00:04.219Z</time>
      </trkpt>
      <trkpt lat="47.87601" lon="6.91725">
        <ele>890</ele>
        <time>2026-05-09T09:00:05.219Z</time>
      </trkpt>
      <trkpt lat="47.87602" lon="6.91719">
        <ele>891</ele>
        <time>2026-05-09T09:00:06.220Z</time>
      </trkpt>
      <trkpt lat="47.87601" lon="6.91715">
        <ele>891</ele>
        <time>2026-05-09T09:00:07.219Z</time>
      </trkpt>
      <trkpt lat="47.876" lon="6.9171">
        <ele>891</ele>
        <time>2026-05-09T09:00:08.219Z</time>
      </trkpt>
      <trkpt lat="47.87601" lon="6.91706">
        <ele>891</ele>
        <time>2026-05-09T09:00:09.220Z</time>
      </trkpt>
      <trkpt lat="47.876" lon="6.917">
        <ele>891</ele>
        <time>2026-05-09T09:00:10.220Z</time>
      </trkpt>
      <trkpt lat="47.87599" lon="6.91696">
        <ele>891</ele>
        <time>2026-05-09T09:00:11.219Z</time>
      </trkpt>
      <trkpt lat="47.87598" lon="6.91694">
        <ele>891</ele>
        <time>2026-05-09T09:00:12.219Z</time>
      </trkpt>
      <trkpt lat="47.87599" lon="6.91692">
        <ele>891</ele>
        <time>2026-05-09T09:00:13.220Z</time>
      </trkpt>
      <trkpt lat="47.87598" lon="6.91688">
        <ele>891</ele>
        <time>2026-05-09T09:00:14.219Z</time>
      </trkpt>
      <trkpt lat="47.87597" lon="6.91685">
        <ele>891</ele>
        <time>2026-05-09T09:00:15.219Z</time>
      </trkpt>
      <trkpt lat="47.87597" lon="6.91681">
        <ele>892</ele>
        <time>2026-05-09T09:00:16.219Z</time>
      </trkpt>
      <trkpt lat="47.87597" lon="6.91677">
        <ele>892</ele>
        <time>2026-05-09T09:00:17.219Z</time>
      </trkpt>
      <trkpt lat="47.87596" lon="6.91674">
        <ele>892</ele>
        <time>2026-05-09T09:00:18.219Z</time>
      </trkpt>
      <trkpt lat="47.87593" lon="6.91672">
        <ele>892</ele>
        <time>2026-05-09T09:00:19.219Z</time>
      </trkpt>
      <trkpt lat="47.87592" lon="6.9167">
        <ele>892</ele>
        <time>2026-05-09T09:00:20.219Z</time>
      </trkpt>
      <trkpt lat="47.87591" lon="6.91667">
        <ele>892</ele>
        <time>2026-05-09T09:00:21.220Z</time>
      </trkpt>
      <trkpt lat="47.8759" lon="6.91669">
        <ele>892</ele>
        <time>2026-05-09T09:00:22.220Z</time>
      </trkpt>
      <trkpt lat="47.8759" lon="6.91669">
        <ele>892</ele>
        <time>2026-05-09T09:00:23.219Z</time>
      </trkpt>
      <trkpt lat="47.8759" lon="6.91667">
        <ele>892</ele>
        <time>2026-05-09T09:00:24.219Z</time>
      </trkpt>
      <trkpt lat="47.8759" lon="6.91665">
        <ele>892</ele>
        <time>2026-05-09T09:00:25.219Z</time>
      </trkpt>
      <trkpt lat="47.87589" lon="6.91662">
        <ele>892</ele>
        <time>2026-05-09T09:00:26.219Z</time>
      </trkpt>
      <trkpt lat="47.87592" lon="6.91657">
        <ele>892</ele>
        <time>2026-05-09T09:00:27.219Z</time>
      </trkpt>
      <trkpt lat="47.87595" lon="6.91652">
        <ele>893</ele>
        <time>2026-05-09T09:00:28.219Z</time>
      </trkpt>
      <trkpt lat="47.87598" lon="6.91652">
        <ele>893</ele>
        <time>2026-05-09T09:00:29.219Z</time>
      </trkpt>
      <trkpt lat="47.87599" lon="6.91652">
        <ele>893</ele>
        <time>2026-05-09T09:00:30.219Z</time>
      </trkpt>
      <trkpt lat="47.876" lon="6.91651">
        <ele>893</ele>
        <time>2026-05-09T09:00:31.219Z</time>
      </trkpt>
      <trkpt lat="47.87601" lon="6.9165">
        <ele>893</ele>
        <time>2026-05-09T09:00:32.220Z</time>
      </trkpt>
      <trkpt lat="47.87601" lon="6.91651">
        <ele>893</ele>
        <time>2026-05-09T09:00:33.219Z</time>
      </trkpt>
      <trkpt lat="47.87601" lon="6.91653">
        <ele>894</ele>
        <time>2026-05-09T09:00:34.219Z</time>
      </trkpt>
      <trkpt lat="47.87601" lon="6.91653">
        <ele>894</ele>
        <time>2026-05-09T09:00:35.219Z</time>
      </trkpt>
      <trkpt lat="47.87602" lon="6.91653">
        <ele>893</ele>
        <time>2026-05-09T09:00:36.219Z</time>
      </trkpt>
      <trkpt lat="47.87603" lon="6.91653">
        <ele>893</ele>
        <time>2026-05-09T09:00:37.220Z</time>
      </trkpt>
      <trkpt lat="47.87604" lon="6.91654">
        <ele>893</ele>
        <time>2026-05-09T09:00:38.219Z</time>
      </trkpt>
      <trkpt lat="47.87606" lon="6.91655">
        <ele>893</ele>
        <time>2026-05-09T09:00:39.219Z</time>
      </trkpt>
      <trkpt lat="47.87607" lon="6.91656">
        <ele>893</ele>
        <time>2026-05-09T09:00:40.219Z</time>
      </trkpt>
      <trkpt lat="47.87608" lon="6.91656">
        <ele>893</ele>
        <time>2026-05-09T09:00:41.219Z</time>
      </trkpt>
      <trkpt lat="47.87609" lon="6.91656">
        <ele>893</ele>
        <time>2026-05-09T09:00:42.219Z</time>
      </trkpt>
      <trkpt lat="47.87609" lon="6.91657">
        <ele>892</ele>
        <time>2026-05-09T09:00:43.219Z</time>
      </trkpt>
      <trkpt lat="47.87609" lon="6.91657">
        <ele>892</ele>
        <time>2026-05-09T09:00:44.219Z</time>
      </trkpt>
      <trkpt lat="47.87608" lon="6.91667">
        <ele>898</ele>
        <time>2026-05-09T09:01:03.522Z</time>
      </trkpt>
      <trkpt lat="47.87607" lon="6.91668">
        <ele>898</ele>
        <time>2026-05-09T09:01:04.521Z</time>
      </trkpt>
      <trkpt lat="47.87607" lon="6.91669">
        <ele>898</ele>
        <time>2026-05-09T09:01:05.521Z</time>
      </trkpt>
      <trkpt lat="47.87607" lon="6.91669">
        <ele>898</ele>
        <time>2026-05-09T09:01:06.521Z</time>
      </trkpt>
      <trkpt lat="47.87607" lon="6.91669">
        <ele>898</ele>
        <time>2026-05-09T09:01:07.521Z</time>
      </trkpt>
      <trkpt lat="47.87607" lon="6.9167">
        <ele>897</ele>
        <time>2026-05-09T09:01:08.521Z</time>
      </trkpt>
      <trkpt lat="47.87607" lon="6.9167">
        <ele>897</ele>
        <time>2026-05-09T09:01:09.521Z</time>
      </trkpt>
      <trkpt lat="47.87607" lon="6.9167">
        <ele>897</ele>
        <time>2026-05-09T09:01:10.521Z</time>
      </trkpt>
      <trkpt lat="47.87607" lon="6.9167">
        <ele>898</ele>
        <time>2026-05-09T09:01:11.521Z</time>
      </trkpt>
      <trkpt lat="47.87608" lon="6.9167">
        <ele>898</ele>
        <time>2026-05-09T09:01:12.522Z</time>
      </trkpt>
      <trkpt lat="47.87608" lon="6.91669">
        <ele>898</ele>
        <time>2026-05-09T09:01:13.522Z</time>
      </trkpt>
      <trkpt lat="47.87608" lon="6.91669">
        <ele>898</ele>
        <time>2026-05-09T09:01:14.522Z</time>
      </trkpt>
      <trkpt lat="47.87608" lon="6.91669">
        <ele>898</ele>
        <time>2026-05-09T09:01:15.522Z</time>
      </trkpt>
      <trkpt lat="47.87612" lon="6.91668">
        <ele>896</ele>
        <time>2026-05-09T09:01:27.789Z</time>
      </trkpt>
      <trkpt lat="47.87613" lon="6.91668">
        <ele>896</ele>
        <time>2026-05-09T09:01:28.790Z</time>
      </trkpt>
      <trkpt lat="47.87614" lon="6.91669">
        <ele>896</ele>
        <time>2026-05-09T09:01:29.789Z</time>
      </trkpt>
      <trkpt lat="47.87613" lon="6.91667">
        <ele>896</ele>
        <time>2026-05-09T09:01:32.790Z</time>
      </trkpt>
      <trkpt lat="47.87614" lon="6.91667">
        <ele>896</ele>
        <time>2026-05-09T09:01:33.790Z</time>
      </trkpt>
      <trkpt lat="47.87614" lon="6.91668">
        <ele>896</ele>
        <time>2026-05-09T09:01:34.789Z</time>
      </trkpt>
      <trkpt lat="47.87619" lon="6.91677">
        <ele>895</ele>
        <time>2026-05-09T09:01:42.253Z</time>
      </trkpt>
      <trkpt lat="47.87619" lon="6.91678">
        <ele>895</ele>
        <time>2026-05-09T09:01:43.253Z</time>
      </trkpt>
      <trkpt lat="47.87618" lon="6.91679">
        <ele>895</ele>
        <time>2026-05-09T09:01:44.254Z</time>
      </trkpt>
      <trkpt lat="47.87618" lon="6.91679">
        <ele>895</ele>
        <time>2026-05-09T09:01:45.253Z</time>
      </trkpt>
      <trkpt lat="47.87618" lon="6.91679">
        <ele>895</ele>
        <time>2026-05-09T09:01:46.253Z</time>
      </trkpt>
      <trkpt lat="47.87621" lon="6.9168">
        <ele>894</ele>
        <time>2026-05-09T09:01:52.479Z</time>
      </trkpt>
      <trkpt lat="47.87622" lon="6.9168">
        <ele>894</ele>
        <time>2026-05-09T09:01:53.479Z</time>
      </trkpt>
      <trkpt lat="47.87622" lon="6.91681">
        <ele>894</ele>
        <time>2026-05-09T09:01:54.479Z</time>
      </trkpt>
      <trkpt lat="47.87622" lon="6.9168">
        <ele>894</ele>
        <time>2026-05-09T09:01:55.479Z</time>
      </trkpt>
      <trkpt lat="47.87623" lon="6.9168">
        <ele>894</ele>
        <time>2026-05-09T09:01:56.479Z</time>
      </trkpt>
      <trkpt lat="47.87623" lon="6.9168">
        <ele>894</ele>
        <time>2026-05-09T09:01:57.480Z</time>
      </trkpt>
      <trkpt lat="47.87622" lon="6.91679">
        <ele>894</ele>
        <time>2026-05-09T09:01:58.480Z</time>
      </trkpt>
      <trkpt lat="47.8762" lon="6.91679">
        <ele>894</ele>
        <time>2026-05-09T09:01:59.479Z</time>
      </trkpt>
      <trkpt lat="47.87617" lon="6.9168">
        <ele>894</ele>
        <time>2026-05-09T09:02:00.480Z</time>
      </trkpt>
      <trkpt lat="47.87616" lon="6.9168">
        <ele>894</ele>
        <time>2026-05-09T09:02:01.479Z</time>
      </trkpt>
      <trkpt lat="47.87614" lon="6.91679">
        <ele>894</ele>
        <time>2026-05-09T09:02:02.479Z</time>
      </trkpt>
      <trkpt lat="47.87613" lon="6.91678">
        <ele>894</ele>
        <time>2026-05-09T09:02:03.479Z</time>
      </trkpt>
      <trkpt lat="47.87613" lon="6.91677">
        <ele>894</ele>
        <time>2026-05-09T09:02:04.479Z</time>
      </trkpt>
      <trkpt lat="47.87613" lon="6.91677">
        <ele>894</ele>
        <time>2026-05-09T09:02:05.479Z</time>
      </trkpt>
      <trkpt lat="47.87613" lon="6.91677">
        <ele>894</ele>
        <time>2026-05-09T09:02:06.479Z</time>
      </trkpt>
      <trkpt lat="47.87616" lon="6.91673">
        <ele>894</ele>
        <time>2026-05-09T09:02:13.769Z</time>
      </trkpt>
      <trkpt lat="47.87616" lon="6.91675">
        <ele>894</ele>
        <time>2026-05-09T09:02:14.770Z</time>
      </trkpt>
      <trkpt lat="47.87617" lon="6.91676">
        <ele>894</ele>
        <time>2026-05-09T09:02:15.769Z</time>
      </trkpt>
      <trkpt lat="47.87617" lon="6.91676">
        <ele>893</ele>
        <time>2026-05-09T09:02:16.770Z</time>
      </trkpt>
      <trkpt lat="47.87617" lon="6.91677">
        <ele>893</ele>
        <time>2026-05-09T09:02:17.770Z</time>
      </trkpt>
      <trkpt lat="47.87617" lon="6.91677">
        <ele>893</ele>
        <time>2026-05-09T09:02:18.769Z</time>
      </trkpt>
      <trkpt lat="47.87617" lon="6.91676">
        <ele>893</ele>
        <time>2026-05-09T09:02:19.770Z</time>
      </trkpt>
      <trkpt lat="47.87615" lon="6.91675">
        <ele>893</ele>
        <time>2026-05-09T09:02:23.770Z</time>
      </trkpt>
      <trkpt lat="47.87615" lon="6.91676">
        <ele>893</ele>
        <time>2026-05-09T09:02:24.769Z</time>
      </trkpt>
      <trkpt lat="47.87623" lon="6.91684">
        <ele>892</ele>
        <time>2026-05-09T09:02:34.097Z</time>
      </trkpt>
      <trkpt lat="47.87625" lon="6.91686">
        <ele>892</ele>
        <time>2026-05-09T09:02:35.097Z</time>
      </trkpt>
      <trkpt lat="47.87626" lon="6.91689">
        <ele>892</ele>
        <time>2026-05-09T09:02:36.097Z</time>
      </trkpt>
      <trkpt lat="47.87625" lon="6.91691">
        <ele>892</ele>
        <time>2026-05-09T09:02:37.097Z</time>
      </trkpt>
      <trkpt lat="47.87624" lon="6.91692">
        <ele>892</ele>
        <time>2026-05-09T09:02:38.098Z</time>
      </trkpt>
      <trkpt lat="47.87622" lon="6.91693">
        <ele>892</ele>
        <time>2026-05-09T09:02:39.098Z</time>
      </trkpt>
      <trkpt lat="47.87621" lon="6.91693">
        <ele>892</ele>
        <time>2026-05-09T09:02:40.097Z</time>
      </trkpt>
      <trkpt lat="47.87619" lon="6.91694">
        <ele>892</ele>
        <time>2026-05-09T09:02:41.097Z</time>
      </trkpt>
      <trkpt lat="47.87618" lon="6.91694">
        <ele>892</ele>
        <time>2026-05-09T09:02:42.097Z</time>
      </trkpt>
      <trkpt lat="47.87614" lon="6.91695">
        <ele>892</ele>
        <time>2026-05-09T09:02:44.097Z</time>
      </trkpt>
      <trkpt lat="47.87612" lon="6.91694">
        <ele>892</ele>
        <time>2026-05-09T09:02:45.098Z</time>
      </trkpt>
      <trkpt lat="47.87611" lon="6.91694">
        <ele>892</ele>
        <time>2026-05-09T09:02:46.098Z</time>
      </trkpt>
      <trkpt lat="47.8761" lon="6.91695">
        <ele>892</ele>
        <time>2026-05-09T09:02:47.098Z</time>
      </trkpt>
      <trkpt lat="47.87608" lon="6.91697">
        <ele>892</ele>
        <time>2026-05-09T09:02:49.098Z</time>
      </trkpt>
      <trkpt lat="47.87607" lon="6.917">
        <ele>892</ele>
        <time>2026-05-09T09:02:51.097Z</time>
      </trkpt>
      <trkpt lat="47.87608" lon="6.917">
        <ele>892</ele>
        <time>2026-05-09T09:02:52.097Z</time>
      </trkpt>
      <trkpt lat="47.87605" lon="6.91701">
        <ele>892</ele>
        <time>2026-05-09T09:02:53.097Z</time>
      </trkpt>
      <trkpt lat="47.87605" lon="6.91702">
        <ele>892</ele>
        <time>2026-05-09T09:02:54.098Z</time>
      </trkpt>
      <trkpt lat="47.87605" lon="6.91702">
        <ele>892</ele>
        <time>2026-05-09T09:02:55.097Z</time>
      </trkpt>
      <trkpt lat="47.87605" lon="6.917">
        <ele>892</ele>
        <time>2026-05-09T09:02:56.097Z</time>
      </trkpt>
      <trkpt lat="47.87604" lon="6.91697">
        <ele>892</ele>
        <time>2026-05-09T09:02:57.097Z</time>
      </trkpt>
      <trkpt lat="47.87605" lon="6.91694">
        <ele>892</ele>
        <time>2026-05-09T09:02:58.097Z</time>
      </trkpt>
      <trkpt lat="47.87605" lon="6.91696">
        <ele>892</ele>
        <time>2026-05-09T09:02:59.097Z</time>
      </trkpt>
      <trkpt lat="47.87606" lon="6.91693">
        <ele>892</ele>
        <time>2026-05-09T09:03:00.097Z</time>
      </trkpt>
      <trkpt lat="47.87606" lon="6.91691">
        <ele>891</ele>
        <time>2026-05-09T09:03:01.097Z</time>
      </trkpt>
      <trkpt lat="47.87606" lon="6.9169">
        <ele>891</ele>
        <time>2026-05-09T09:03:02.097Z</time>
      </trkpt>
      <trkpt lat="47.87605" lon="6.91688">
        <ele>891</ele>
        <time>2026-05-09T09:03:03.098Z</time>
      </trkpt>
      <trkpt lat="47.87604" lon="6.91687">
        <ele>891</ele>
        <time>2026-05-09T09:03:04.097Z</time>
      </trkpt>
      <trkpt lat="47.87601" lon="6.91681">
        <ele>891</ele>
        <time>2026-05-09T09:03:05.097Z</time>
      </trkpt>
      <trkpt lat="47.87599" lon="6.91678">
        <ele>891</ele>
        <time>2026-05-09T09:03:06.097Z</time>
      </trkpt>
      <trkpt lat="47.87597" lon="6.91674">
        <ele>891</ele>
        <time>2026-05-09T09:03:07.097Z</time>
      </trkpt>
      <trkpt lat="47.87595" lon="6.91671">
        <ele>891</ele>
        <time>2026-05-09T09:03:08.097Z</time>
      </trkpt>
      <trkpt lat="47.87595" lon="6.9167">
        <ele>890</ele>
        <time>2026-05-09T09:03:09.097Z</time>
      </trkpt>
      <trkpt lat="47.87596" lon="6.91669">
        <ele>890</ele>
        <time>2026-05-09T09:03:10.097Z</time>
      </trkpt>
      <trkpt lat="47.87595" lon="6.91669">
        <ele>890</ele>
        <time>2026-05-09T09:03:11.097Z</time>
      </trkpt>
      <trkpt lat="47.87595" lon="6.91669">
        <ele>889</ele>
        <time>2026-05-09T09:03:12.098Z</time>
      </trkpt>
      <trkpt lat="47.87597" lon="6.91669">
        <ele>889</ele>
        <time>2026-05-09T09:03:13.098Z</time>
      </trkpt>
      <trkpt lat="47.87598" lon="6.91669">
        <ele>889</ele>
        <time>2026-05-09T09:03:14.098Z</time>
      </trkpt>
      <trkpt lat="47.87599" lon="6.9167">
        <ele>888</ele>
        <time>2026-05-09T09:03:15.098Z</time>
      </trkpt>
      <trkpt lat="47.87599" lon="6.9167">
        <ele>888</ele>
        <time>2026-05-09T09:03:16.097Z</time>
      </trkpt>
      <trkpt lat="47.87599" lon="6.91672">
        <ele>888</ele>
        <time>2026-05-09T09:03:17.097Z</time>
      </trkpt>
      <trkpt lat="47.87598" lon="6.91672">
        <ele>888</ele>
        <time>2026-05-09T09:03:18.097Z</time>
      </trkpt>
      <trkpt lat="47.87598" lon="6.91671">
        <ele>887</ele>
        <time>2026-05-09T09:03:19.097Z</time>
      </trkpt>
      <trkpt lat="47.87598" lon="6.91673">
        <ele>885</ele>
        <time>2026-05-09T09:03:29.521Z</time>
      </trkpt>
      <trkpt lat="47.87597" lon="6.91671">
        <ele>885</ele>
        <time>2026-05-09T09:03:35.975Z</time>
      </trkpt>
      <trkpt lat="47.87597" lon="6.91671">
        <ele>885</ele>
        <time>2026-05-09T09:03:36.976Z</time>
      </trkpt>
      <trkpt lat="47.87597" lon="6.91669">
        <ele>884</ele>
        <time>2026-05-09T09:03:44.324Z</time>
      </trkpt>
      <trkpt lat="47.87597" lon="6.9167">
        <ele>884</ele>
        <time>2026-05-09T09:03:45.324Z</time>
      </trkpt>
      <trkpt lat="47.87597" lon="6.91669">
        <ele>884</ele>
        <time>2026-05-09T09:03:46.325Z</time>
      </trkpt>
      <trkpt lat="47.87597" lon="6.91669">
        <ele>884</ele>
        <time>2026-05-09T09:03:47.324Z</time>
      </trkpt>
      <trkpt lat="47.87597" lon="6.91671">
        <ele>884</ele>
        <time>2026-05-09T09:03:48.324Z</time>
      </trkpt>
      <trkpt lat="47.87597" lon="6.9167">
        <ele>884</ele>
        <time>2026-05-09T09:03:49.325Z</time>
      </trkpt>
      <trkpt lat="47.87597" lon="6.9167">
        <ele>884</ele>
        <time>2026-05-09T09:03:50.325Z</time>
      </trkpt>
      <trkpt lat="47.87597" lon="6.9167">
        <ele>884</ele>
        <time>2026-05-09T09:03:51.325Z</time>
      </trkpt>
      <trkpt lat="47.87597" lon="6.9167">
        <ele>884</ele>
        <time>2026-05-09T09:03:52.324Z</time>
      </trkpt>
      <trkpt lat="47.87597" lon="6.9167">
        <ele>884</ele>
        <time>2026-05-09T09:03:53.324Z</time>
      </trkpt>
      <trkpt lat="47.87595" lon="6.9167">
        <ele>884</ele>
        <time>2026-05-09T09:03:54.324Z</time>
      </trkpt>
      <trkpt lat="47.87593" lon="6.9167">
        <ele>884</ele>
        <time>2026-05-09T09:03:55.324Z</time>
      </trkpt>
      <trkpt lat="47.87591" lon="6.91672">
        <ele>884</ele>
        <time>2026-05-09T09:03:56.325Z</time>
      </trkpt>
      <trkpt lat="47.8759" lon="6.91673">
        <ele>884</ele>
        <time>2026-05-09T09:03:57.324Z</time>
      </trkpt>
      <trkpt lat="47.8759" lon="6.91674">
        <ele>884</ele>
        <time>2026-05-09T09:03:58.325Z</time>
      </trkpt>
      <trkpt lat="47.87589" lon="6.91674">
        <ele>884</ele>
        <time>2026-05-09T09:03:59.325Z</time>
      </trkpt>
      <trkpt lat="47.8759" lon="6.91675">
        <ele>884</ele>
        <time>2026-05-09T09:04:00.325Z</time>
      </trkpt>
      <trkpt lat="47.8759" lon="6.91675">
        <ele>884</ele>
        <time>2026-05-09T09:04:01.324Z</time>
      </trkpt>
      <trkpt lat="47.8759" lon="6.91675">
        <ele>884</ele>
        <time>2026-05-09T09:04:02.324Z</time>
      </trkpt>
      <trkpt lat="47.8759" lon="6.91675">
        <ele>884</ele>
        <time>2026-05-09T09:04:03.324Z</time>
      </trkpt>
      <trkpt lat="47.87589" lon="6.91675">
        <ele>884</ele>
        <time>2026-05-09T09:04:04.324Z</time>
      </trkpt>
      <trkpt lat="47.87589" lon="6.91676">
        <ele>884</ele>
        <time>2026-05-09T09:04:05.324Z</time>
      </trkpt>
      <trkpt lat="47.87589" lon="6.91677">
        <ele>884</ele>
        <time>2026-05-09T09:04:06.324Z</time>
      </trkpt>
      <trkpt lat="47.87589" lon="6.91677">
        <ele>884</ele>
        <time>2026-05-09T09:04:07.325Z</time>
      </trkpt>
      <trkpt lat="47.87589" lon="6.91677">
        <ele>885</ele>
        <time>2026-05-09T09:04:08.324Z</time>
      </trkpt>
      <trkpt lat="47.8759" lon="6.91677">
        <ele>885</ele>
        <time>2026-05-09T09:04:09.324Z</time>
      </trkpt>
      <trkpt lat="47.87591" lon="6.91678">
        <ele>885</ele>
        <time>2026-05-09T09:04:10.324Z</time>
      </trkpt>
      <trkpt lat="47.87591" lon="6.91678">
        <ele>885</ele>
        <time>2026-05-09T09:04:11.325Z</time>
      </trkpt>
      <trkpt lat="47.87591" lon="6.91678">
        <ele>885</ele>
        <time>2026-05-09T09:04:12.324Z</time>
      </trkpt>
      <trkpt lat="47.8759" lon="6.91678">
        <ele>886</ele>
        <time>2026-05-09T09:04:18.756Z</time>
      </trkpt>
      <trkpt lat="47.87589" lon="6.91678">
        <ele>886</ele>
        <time>2026-05-09T09:04:19.755Z</time>
      </trkpt>
      <trkpt lat="47.8759" lon="6.91677">
        <ele>889</ele>
        <time>2026-05-09T09:04:32.791Z</time>
      </trkpt>
      <trkpt lat="47.8759" lon="6.91677">
        <ele>889</ele>
        <time>2026-05-09T09:04:33.791Z</time>
      </trkpt>
      <trkpt lat="47.8759" lon="6.91677">
        <ele>890</ele>
        <time>2026-05-09T09:04:34.792Z</time>
      </trkpt>
      <trkpt lat="47.87591" lon="6.91677">
        <ele>890</ele>
        <time>2026-05-09T09:04:35.792Z</time>
      </trkpt>
      <trkpt lat="47.87591" lon="6.91678">
        <ele>890</ele>
        <time>2026-05-09T09:04:36.792Z</time>
      </trkpt>
      <trkpt lat="47.87591" lon="6.91679">
        <ele>890</ele>
        <time>2026-05-09T09:04:37.791Z</time>
      </trkpt>
      <trkpt lat="47.87591" lon="6.91679">
        <ele>891</ele>
        <time>2026-05-09T09:04:38.791Z</time>
      </trkpt>
      <trkpt lat="47.87591" lon="6.91679">
        <ele>891</ele>
        <time>2026-05-09T09:04:39.792Z</time>
      </trkpt>
      <trkpt lat="47.87591" lon="6.91679">
        <ele>891</ele>
        <time>2026-05-09T09:04:40.792Z</time>
      </trkpt>
      <trkpt lat="47.87591" lon="6.91679">
        <ele>891</ele>
        <time>2026-05-09T09:04:41.792Z</time>
      </trkpt>
      <trkpt lat="47.87591" lon="6.91679">
        <ele>891</ele>
        <time>2026-05-09T09:04:42.792Z</time>
      </trkpt>
      <trkpt lat="47.87591" lon="6.91679">
        <ele>891</ele>
        <time>2026-05-09T09:04:43.792Z</time>
      </trkpt>
      <trkpt lat="47.87591" lon="6.9168">
        <ele>891</ele>
        <time>2026-05-09T09:04:44.791Z</time>
      </trkpt>
      <trkpt lat="47.87591" lon="6.9168">
        <ele>891</ele>
        <time>2026-05-09T09:04:45.791Z</time>
      </trkpt>
      <trkpt lat="47.87591" lon="6.9168">
        <ele>892</ele>
        <time>2026-05-09T09:04:46.791Z</time>
      </trkpt>
      <trkpt lat="47.87591" lon="6.9168">
        <ele>892</ele>
        <time>2026-05-09T09:04:47.791Z</time>
      </trkpt>
      <trkpt lat="47.87591" lon="6.91679">
        <ele>892</ele>
        <time>2026-05-09T09:04:48.792Z</time>
      </trkpt>
      <trkpt lat="47.87592" lon="6.9168">
        <ele>892</ele>
        <time>2026-05-09T09:04:49.791Z</time>
      </trkpt>
      <trkpt lat="47.87593" lon="6.9168">
        <ele>892</ele>
        <time>2026-05-09T09:04:50.792Z</time>
      </trkpt>
      <trkpt lat="47.87593" lon="6.9168">
        <ele>892</ele>
        <time>2026-05-09T09:04:51.792Z</time>
      </trkpt>
      <trkpt lat="47.87593" lon="6.9168">
        <ele>893</ele>
        <time>2026-05-09T09:04:52.792Z</time>
      </trkpt>
      <trkpt lat="47.87593" lon="6.91681">
        <ele>893</ele>
        <time>2026-05-09T09:04:53.791Z</time>
      </trkpt>
      <trkpt lat="47.87593" lon="6.91681">
        <ele>893</ele>
        <time>2026-05-09T09:04:54.792Z</time>
      </trkpt>
      <trkpt lat="47.87593" lon="6.91681">
        <ele>893</ele>
        <time>2026-05-09T09:04:55.791Z</time>
      </trkpt>
      <trkpt lat="47.87593" lon="6.91681">
        <ele>894</ele>
        <time>2026-05-09T09:04:56.791Z</time>
      </trkpt>
      <trkpt lat="47.87593" lon="6.91681">
        <ele>894</ele>
        <time>2026-05-09T09:04:57.791Z</time>
      </trkpt>
      <trkpt lat="47.87593" lon="6.91681">
        <ele>894</ele>
        <time>2026-05-09T09:04:58.792Z</time>
      </trkpt>
      <trkpt lat="47.87593" lon="6.91682">
        <ele>894</ele>
        <time>2026-05-09T09:04:59.792Z</time>
      </trkpt>
      <trkpt lat="47.87593" lon="6.91682">
        <ele>894</ele>
        <time>2026-05-09T09:05:00.792Z</time>
      </trkpt>
      <trkpt lat="47.87592" lon="6.91682">
        <ele>895</ele>
        <time>2026-05-09T09:05:01.792Z</time>
      </trkpt>
      <trkpt lat="47.87592" lon="6.91682">
        <ele>895</ele>
        <time>2026-05-09T09:05:02.792Z</time>
      </trkpt>
      <trkpt lat="47.87592" lon="6.91681">
        <ele>895</ele>
        <time>2026-05-09T09:05:03.791Z</time>
      </trkpt>
      <trkpt lat="47.87592" lon="6.9168">
        <ele>895</ele>
        <time>2026-05-09T09:05:04.791Z</time>
      </trkpt>
      <trkpt lat="47.87592" lon="6.91678">
        <ele>895</ele>
        <time>2026-05-09T09:05:05.791Z</time>
      </trkpt>
      <trkpt lat="47.87593" lon="6.91676">
        <ele>895</ele>
        <time>2026-05-09T09:05:06.792Z</time>
      </trkpt>
      <trkpt lat="47.87592" lon="6.91676">
        <ele>895</ele>
        <time>2026-05-09T09:05:07.792Z</time>
      </trkpt>
      <trkpt lat="47.87592" lon="6.91676">
        <ele>895</ele>
        <time>2026-05-09T09:05:08.792Z</time>
      </trkpt>
      <trkpt lat="47.87592" lon="6.91676">
        <ele>895</ele>
        <time>2026-05-09T09:05:09.792Z</time>
      </trkpt>
      <trkpt lat="47.87594" lon="6.91677">
        <ele>895</ele>
        <time>2026-05-09T09:05:16.088Z</time>
      </trkpt>
      <trkpt lat="47.87594" lon="6.91676">
        <ele>895</ele>
        <time>2026-05-09T09:05:21.529Z</time>
      </trkpt>
      <trkpt lat="47.87594" lon="6.91676">
        <ele>895</ele>
        <time>2026-05-09T09:05:22.529Z</time>
      </trkpt>
      <trkpt lat="47.87594" lon="6.91676">
        <ele>895</ele>
        <time>2026-05-09T09:05:23.529Z</time>
      </trkpt>
      <trkpt lat="47.87594" lon="6.91677">
        <ele>895</ele>
        <time>2026-05-09T09:05:24.530Z</time>
      </trkpt>
      <trkpt lat="47.87594" lon="6.91677">
        <ele>895</ele>
        <time>2026-05-09T09:05:25.529Z</time>
      </trkpt>
      <trkpt lat="47.87594" lon="6.91677">
        <ele>895</ele>
        <time>2026-05-09T09:05:26.530Z</time>
      </trkpt>
      <trkpt lat="47.87594" lon="6.91677">
        <ele>895</ele>
        <time>2026-05-09T09:05:27.529Z</time>
      </trkpt>
      <trkpt lat="47.87595" lon="6.91676">
        <ele>895</ele>
        <time>2026-05-09T09:05:28.530Z</time>
      </trkpt>
      <trkpt lat="47.87595" lon="6.91676">
        <ele>895</ele>
        <time>2026-05-09T09:05:29.529Z</time>
      </trkpt>
      <trkpt lat="47.87595" lon="6.91676">
        <ele>896</ele>
        <time>2026-05-09T09:05:30.530Z</time>
      </trkpt>
      <trkpt lat="47.87595" lon="6.91676">
        <ele>896</ele>
        <time>2026-05-09T09:05:31.530Z</time>
      </trkpt>
      <trkpt lat="47.87595" lon="6.91676">
        <ele>897</ele>
        <time>2026-05-09T09:05:32.529Z</time>
      </trkpt>
      <trkpt lat="47.87595" lon="6.91676">
        <ele>897</ele>
        <time>2026-05-09T09:05:33.529Z</time>
      </trkpt>
      <trkpt lat="47.87595" lon="6.91676">
        <ele>898</ele>
        <time>2026-05-09T09:05:34.529Z</time>
      </trkpt>
      <trkpt lat="47.87595" lon="6.91676">
        <ele>898</ele>
        <time>2026-05-09T09:05:35.529Z</time>
      </trkpt>
      <trkpt lat="47.87595" lon="6.91676">
        <ele>898</ele>
        <time>2026-05-09T09:05:36.530Z</time>
      </trkpt>
      <trkpt lat="47.87595" lon="6.91677">
        <ele>898</ele>
        <time>2026-05-09T09:05:37.530Z</time>
      </trkpt>
      <trkpt lat="47.87595" lon="6.91677">
        <ele>899</ele>
        <time>2026-05-09T09:05:38.529Z</time>
      </trkpt>
      <trkpt lat="47.87595" lon="6.91677">
        <ele>899</ele>
        <time>2026-05-09T09:05:39.529Z</time>
      </trkpt>
      <trkpt lat="47.87595" lon="6.91677">
        <ele>899</ele>
        <time>2026-05-09T09:05:40.529Z</time>
      </trkpt>
      <trkpt lat="47.87596" lon="6.91677">
        <ele>899</ele>
        <time>2026-05-09T09:05:41.529Z</time>
      </trkpt>
      <trkpt lat="47.87596" lon="6.91678">
        <ele>899</ele>
        <time>2026-05-09T09:05:42.530Z</time>
      </trkpt>
      <trkpt lat="47.87596" lon="6.91678">
        <ele>899</ele>
        <time>2026-05-09T09:05:43.530Z</time>
      </trkpt>
      <trkpt lat="47.87596" lon="6.91678">
        <ele>899</ele>
        <time>2026-05-09T09:05:44.529Z</time>
      </trkpt>
      <trkpt lat="47.87596" lon="6.91678">
        <ele>899</ele>
        <time>2026-05-09T09:05:45.530Z</time>
      </trkpt>
      <trkpt lat="47.87596" lon="6.91679">
        <ele>899</ele>
        <time>2026-05-09T09:05:46.529Z</time>
      </trkpt>
      <trkpt lat="47.87596" lon="6.91679">
        <ele>900</ele>
        <time>2026-05-09T09:05:47.530Z</time>
      </trkpt>
      <trkpt lat="47.87596" lon="6.9168">
        <ele>900</ele>
        <time>2026-05-09T09:05:48.530Z</time>
      </trkpt>
      <trkpt lat="47.87596" lon="6.9168">
        <ele>900</ele>
        <time>2026-05-09T09:05:49.529Z</time>
      </trkpt>
      <trkpt lat="47.87596" lon="6.9168">
        <ele>900</ele>
        <time>2026-05-09T09:05:50.529Z</time>
      </trkpt>
      <trkpt lat="47.87596" lon="6.9168">
        <ele>900</ele>
        <time>2026-05-09T09:05:51.529Z</time>
      </trkpt>
      <trkpt lat="47.87596" lon="6.9168">
        <ele>900</ele>
        <time>2026-05-09T09:05:52.530Z</time>
      </trkpt>
      <trkpt lat="47.87596" lon="6.9168">
        <ele>899</ele>
        <time>2026-05-09T09:05:53.530Z</time>
      </trkpt>
      <trkpt lat="47.87596" lon="6.9168">
        <ele>899</ele>
        <time>2026-05-09T09:05:54.530Z</time>
      </trkpt>
      <trkpt lat="47.87596" lon="6.9168">
        <ele>899</ele>
        <time>2026-05-09T09:05:55.529Z</time>
      </trkpt>
      <trkpt lat="47.87596" lon="6.9168">
        <ele>899</ele>
        <time>2026-05-09T09:05:56.529Z</time>
      </trkpt>
      <trkpt lat="47.87596" lon="6.9168">
        <ele>899</ele>
        <time>2026-05-09T09:05:57.529Z</time>
      </trkpt>
      <trkpt lat="47.87596" lon="6.91681">
        <ele>898</ele>
        <time>2026-05-09T09:05:58.529Z</time>
      </trkpt>
      <trkpt lat="47.87597" lon="6.9168">
        <ele>894</ele>
        <time>2026-05-09T09:06:07.810Z</time>
      </trkpt>
      <trkpt lat="47.87597" lon="6.9168">
        <ele>893</ele>
        <time>2026-05-09T09:06:08.809Z</time>
      </trkpt>
      <trkpt lat="47.87596" lon="6.91681">
        <ele>893</ele>
        <time>2026-05-09T09:06:09.809Z</time>
      </trkpt>
      <trkpt lat="47.87596" lon="6.91681">
        <ele>892</ele>
        <time>2026-05-09T09:06:10.810Z</time>
      </trkpt>
      <trkpt lat="47.87598" lon="6.91685">
        <ele>890</ele>
        <time>2026-05-09T09:06:17.199Z</time>
      </trkpt>
      <trkpt lat="47.87598" lon="6.91686">
        <ele>890</ele>
        <time>2026-05-09T09:06:18.199Z</time>
      </trkpt>
      <trkpt lat="47.87598" lon="6.91687">
        <ele>890</ele>
        <time>2026-05-09T09:06:19.198Z</time>
      </trkpt>
      <trkpt lat="47.87598" lon="6.91688">
        <ele>890</ele>
        <time>2026-05-09T09:06:20.198Z</time>
      </trkpt>
      <trkpt lat="47.87598" lon="6.91688">
        <ele>890</ele>
        <time>2026-05-09T09:06:21.198Z</time>
      </trkpt>
      <trkpt lat="47.87598" lon="6.91689">
        <ele>890</ele>
        <time>2026-05-09T09:06:22.199Z</time>
      </trkpt>
      <trkpt lat="47.87598" lon="6.9169">
        <ele>890</ele>
        <time>2026-05-09T09:06:23.199Z</time>
      </trkpt>
      <trkpt lat="47.87598" lon="6.91691">
        <ele>891</ele>
        <time>2026-05-09T09:06:24.198Z</time>
      </trkpt>
      <trkpt lat="47.87597" lon="6.91691">
        <ele>891</ele>
        <time>2026-05-09T09:06:25.198Z</time>
      </trkpt>
      <trkpt lat="47.87597" lon="6.91691">
        <ele>891</ele>
        <time>2026-05-09T09:06:26.198Z</time>
      </trkpt>
      <trkpt lat="47.87597" lon="6.91689">
        <ele>891</ele>
        <time>2026-05-09T09:06:27.198Z</time>
      </trkpt>
      <trkpt lat="47.87596" lon="6.91688">
        <ele>892</ele>
        <time>2026-05-09T09:06:28.198Z</time>
      </trkpt>
      <trkpt lat="47.87596" lon="6.91687">
        <ele>892</ele>
        <time>2026-05-09T09:06:29.198Z</time>
      </trkpt>
      <trkpt lat="47.87596" lon="6.91686">
        <ele>892</ele>
        <time>2026-05-09T09:06:30.199Z</time>
      </trkpt>
      <trkpt lat="47.87596" lon="6.91686">
        <ele>892</ele>
        <time>2026-05-09T09:06:31.199Z</time>
      </trkpt>
      <trkpt lat="47.87596" lon="6.91684">
        <ele>893</ele>
        <time>2026-05-09T09:06:32.199Z</time>
      </trkpt>
      <trkpt lat="47.87597" lon="6.91683">
        <ele>893</ele>
        <time>2026-05-09T09:06:33.198Z</time>
      </trkpt>
      <trkpt lat="47.87597" lon="6.91681">
        <ele>893</ele>
        <time>2026-05-09T09:06:34.198Z</time>
      </trkpt>
      <trkpt lat="47.87597" lon="6.9168">
        <ele>893</ele>
        <time>2026-05-09T09:06:35.198Z</time>
      </trkpt>
      <trkpt lat="47.87597" lon="6.9168">
        <ele>893</ele>
        <time>2026-05-09T09:06:36.199Z</time>
      </trkpt>
      <trkpt lat="47.87597" lon="6.91679">
        <ele>893</ele>
        <time>2026-05-09T09:06:37.198Z</time>
      </trkpt>
      <trkpt lat="47.87598" lon="6.91677">
        <ele>893</ele>
        <time>2026-05-09T09:06:38.198Z</time>
      </trkpt>
      <trkpt lat="47.87598" lon="6.91674">
        <ele>893</ele>
        <time>2026-05-09T09:06:39.198Z</time>
      </trkpt>
      <trkpt lat="47.87598" lon="6.91672">
        <ele>893</ele>
        <time>2026-05-09T09:06:40.198Z</time>
      </trkpt>
      <trkpt lat="47.87598" lon="6.91672">
        <ele>893</ele>
        <time>2026-05-09T09:06:41.198Z</time>
      </trkpt>
      <trkpt lat="47.87599" lon="6.9167">
        <ele>893</ele>
        <time>2026-05-09T09:06:42.198Z</time>
      </trkpt>
      <trkpt lat="47.876" lon="6.91669">
        <ele>893</ele>
        <time>2026-05-09T09:06:43.198Z</time>
      </trkpt>
      <trkpt lat="47.87601" lon="6.91665">
        <ele>893</ele>
        <time>2026-05-09T09:06:44.198Z</time>
      </trkpt>
      <trkpt lat="47.87602" lon="6.91664">
        <ele>893</ele>
        <time>2026-05-09T09:06:45.198Z</time>
      </trkpt>
      <trkpt lat="47.87602" lon="6.91664">
        <ele>893</ele>
        <time>2026-05-09T09:06:46.199Z</time>
      </trkpt>
      <trkpt lat="47.87602" lon="6.91663">
        <ele>893</ele>
        <time>2026-05-09T09:06:47.199Z</time>
      </trkpt>
      <trkpt lat="47.87603" lon="6.91662">
        <ele>893</ele>
        <time>2026-05-09T09:06:48.198Z</time>
      </trkpt>
      <trkpt lat="47.87604" lon="6.91658">
        <ele>893</ele>
        <time>2026-05-09T09:06:49.198Z</time>
      </trkpt>
      <trkpt lat="47.87605" lon="6.91657">
        <ele>893</ele>
        <time>2026-05-09T09:06:50.198Z</time>
      </trkpt>
      <trkpt lat="47.87605" lon="6.91655">
        <ele>893</ele>
        <time>2026-05-09T09:06:51.198Z</time>
      </trkpt>
      <trkpt lat="47.87605" lon="6.91655">
        <ele>893</ele>
        <time>2026-05-09T09:06:52.199Z</time>
      </trkpt>
      <trkpt lat="47.87606" lon="6.91653">
        <ele>893</ele>
        <time>2026-05-09T09:06:53.199Z</time>
      </trkpt>
      <trkpt lat="47.87606" lon="6.91652">
        <ele>893</ele>
        <time>2026-05-09T09:06:54.198Z</time>
      </trkpt>
      <trkpt lat="47.87606" lon="6.91651">
        <ele>893</ele>
        <time>2026-05-09T09:06:55.199Z</time>
      </trkpt>
      <trkpt lat="47.87606" lon="6.91651">
        <ele>893</ele>
        <time>2026-05-09T09:06:56.198Z</time>
      </trkpt>
      <trkpt lat="47.87606" lon="6.9165">
        <ele>893</ele>
        <time>2026-05-09T09:06:57.199Z</time>
      </trkpt>
      <trkpt lat="47.87606" lon="6.9165">
        <ele>893</ele>
        <time>2026-05-09T09:06:58.199Z</time>
      </trkpt>
      <trkpt lat="47.87606" lon="6.9165">
        <ele>893</ele>
        <time>2026-05-09T09:06:59.199Z</time>
      </trkpt>
      <trkpt lat="47.87606" lon="6.9165">
        <ele>893</ele>
        <time>2026-05-09T09:07:00.198Z</time>
      </trkpt>
      <trkpt lat="47.87605" lon="6.91647">
        <ele>892</ele>
        <time>2026-05-09T09:07:05.645Z</time>
      </trkpt>
      <trkpt lat="47.87605" lon="6.91647">
        <ele>892</ele>
        <time>2026-05-09T09:07:06.646Z</time>
      </trkpt>
      <trkpt lat="47.87606" lon="6.91647">
        <ele>892</ele>
        <time>2026-05-09T09:07:07.645Z</time>
      </trkpt>
      <trkpt lat="47.87606" lon="6.91646">
        <ele>892</ele>
        <time>2026-05-09T09:07:08.646Z</time>
      </trkpt>
      <trkpt lat="47.87606" lon="6.91645">
        <ele>892</ele>
        <time>2026-05-09T09:07:09.645Z</time>
      </trkpt>
      <trkpt lat="47.87606" lon="6.91643">
        <ele>892</ele>
        <time>2026-05-09T09:07:10.646Z</time>
      </trkpt>
      <trkpt lat="47.87606" lon="6.91641">
        <ele>892</ele>
        <time>2026-05-09T09:07:11.645Z</time>
      </trkpt>
      <trkpt lat="47.87606" lon="6.91639">
        <ele>892</ele>
        <time>2026-05-09T09:07:12.646Z</time>
      </trkpt>
      <trkpt lat="47.87606" lon="6.91637">
        <ele>892</ele>
        <time>2026-05-09T09:07:13.645Z</time>
      </trkpt>
      <trkpt lat="47.87606" lon="6.91634">
        <ele>892</ele>
        <time>2026-05-09T09:07:14.646Z</time>
      </trkpt>
      <trkpt lat="47.87605" lon="6.91631">
        <ele>892</ele>
        <time>2026-05-09T09:07:15.646Z</time>
      </trkpt>
      <trkpt lat="47.87604" lon="6.91629">
        <ele>892</ele>
        <time>2026-05-09T09:07:16.645Z</time>
      </trkpt>
      <trkpt lat="47.87604" lon="6.91625">
        <ele>892</ele>
        <time>2026-05-09T09:07:17.646Z</time>
      </trkpt>
      <trkpt lat="47.87603" lon="6.91621">
        <ele>892</ele>
        <time>2026-05-09T09:07:18.645Z</time>
      </trkpt>
      <trkpt lat="47.87603" lon="6.91617">
        <ele>892</ele>
        <time>2026-05-09T09:07:19.646Z</time>
      </trkpt>
      <trkpt lat="47.87603" lon="6.91612">
        <ele>892</ele>
        <time>2026-05-09T09:07:20.645Z</time>
      </trkpt>
      <trkpt lat="47.87602" lon="6.91608">
        <ele>892</ele>
        <time>2026-05-09T09:07:21.646Z</time>
      </trkpt>
      <trkpt lat="47.87602" lon="6.91603">
        <ele>892</ele>
        <time>2026-05-09T09:07:22.645Z</time>
      </trkpt>
      <trkpt lat="47.87603" lon="6.91597">
        <ele>892</ele>
        <time>2026-05-09T09:07:23.646Z</time>
      </trkpt>
      <trkpt lat="47.87603" lon="6.91591">
        <ele>892</ele>
        <time>2026-05-09T09:07:24.645Z</time>
      </trkpt>
      <trkpt lat="47.87603" lon="6.91585">
        <ele>891</ele>
        <time>2026-05-09T09:07:25.646Z</time>
      </trkpt>
      <trkpt lat="47.87602" lon="6.91582">
        <ele>891</ele>
        <time>2026-05-09T09:07:26.645Z</time>
      </trkpt>
      <trkpt lat="47.87603" lon="6.91579">
        <ele>891</ele>
        <time>2026-05-09T09:07:27.645Z</time>
      </trkpt>
      <trkpt lat="47.87606" lon="6.91575">
        <ele>891</ele>
        <time>2026-05-09T09:07:28.645Z</time>
      </trkpt>
      <trkpt lat="47.87608" lon="6.91572">
        <ele>891</ele>
        <time>2026-05-09T09:07:29.646Z</time>
      </trkpt>
      <trkpt lat="47.8761" lon="6.91569">
        <ele>891</ele>
        <time>2026-05-09T09:07:30.646Z</time>
      </trkpt>
      <trkpt lat="47.87611" lon="6.91568">
        <ele>891</ele>
        <time>2026-05-09T09:07:31.646Z</time>
      </trkpt>
      <trkpt lat="47.87612" lon="6.91567">
        <ele>891</ele>
        <time>2026-05-09T09:07:32.646Z</time>
      </trkpt>
      <trkpt lat="47.87613" lon="6.91566">
        <ele>890</ele>
        <time>2026-05-09T09:07:33.645Z</time>
      </trkpt>
      <trkpt lat="47.87615" lon="6.91565">
        <ele>890</ele>
        <time>2026-05-09T09:07:34.646Z</time>
      </trkpt>
      <trkpt lat="47.87617" lon="6.91563">
        <ele>890</ele>
        <time>2026-05-09T09:07:35.645Z</time>
      </trkpt>
      <trkpt lat="47.87618" lon="6.91561">
        <ele>890</ele>
        <time>2026-05-09T09:07:36.646Z</time>
      </trkpt>
      <trkpt lat="47.8762" lon="6.91559">
        <ele>890</ele>
        <time>2026-05-09T09:07:37.645Z</time>
      </trkpt>
      <trkpt lat="47.87621" lon="6.91557">
        <ele>890</ele>
        <time>2026-05-09T09:07:38.646Z</time>
      </trkpt>
      <trkpt lat="47.87622" lon="6.91554">
        <ele>890</ele>
        <time>2026-05-09T09:07:39.645Z</time>
      </trkpt>
      <trkpt lat="47.87624" lon="6.91552">
        <ele>890</ele>
        <time>2026-05-09T09:07:40.646Z</time>
      </trkpt>
      <trkpt lat="47.87625" lon="6.9155">
        <ele>890</ele>
        <time>2026-05-09T09:07:41.645Z</time>
      </trkpt>
      <trkpt lat="47.87626" lon="6.91548">
        <ele>889</ele>
        <time>2026-05-09T09:07:42.646Z</time>
      </trkpt>
      <trkpt lat="47.87628" lon="6.91546">
        <ele>889</ele>
        <time>2026-05-09T09:07:43.645Z</time>
      </trkpt>
      <trkpt lat="47.8763" lon="6.91543">
        <ele>889</ele>
        <time>2026-05-09T09:07:44.646Z</time>
      </trkpt>
      <trkpt lat="47.87632" lon="6.91541">
        <ele>889</ele>
        <time>2026-05-09T09:07:45.646Z</time>
      </trkpt>
      <trkpt lat="47.87632" lon="6.91539">
        <ele>889</ele>
        <time>2026-05-09T09:07:46.646Z</time>
      </trkpt>
      <trkpt lat="47.87632" lon="6.91537">
        <ele>889</ele>
        <time>2026-05-09T09:07:47.646Z</time>
      </trkpt>
      <trkpt lat="47.87631" lon="6.91534">
        <ele>889</ele>
        <time>2026-05-09T09:07:48.646Z</time>
      </trkpt>
      <trkpt lat="47.87631" lon="6.91532">
        <ele>888</ele>
        <time>2026-05-09T09:07:49.645Z</time>
      </trkpt>
      <trkpt lat="47.87631" lon="6.9153">
        <ele>888</ele>
        <time>2026-05-09T09:07:50.645Z</time>
      </trkpt>
      <trkpt lat="47.87632" lon="6.91527">
        <ele>888</ele>
        <time>2026-05-09T09:07:51.646Z</time>
      </trkpt>
      <trkpt lat="47.87634" lon="6.91525">
        <ele>888</ele>
        <time>2026-05-09T09:07:52.645Z</time>
      </trkpt>
      <trkpt lat="47.87635" lon="6.91524">
        <ele>888</ele>
        <time>2026-05-09T09:07:53.646Z</time>
      </trkpt>
      <trkpt lat="47.87636" lon="6.91521">
        <ele>888</ele>
        <time>2026-05-09T09:07:54.645Z</time>
      </trkpt>
      <trkpt lat="47.87636" lon="6.9152">
        <ele>887</ele>
        <time>2026-05-09T09:07:55.646Z</time>
      </trkpt>
      <trkpt lat="47.87637" lon="6.91517">
        <ele>887</ele>
        <time>2026-05-09T09:07:56.645Z</time>
      </trkpt>
      <trkpt lat="47.87638" lon="6.91515">
        <ele>887</ele>
        <time>2026-05-09T09:07:57.646Z</time>
      </trkpt>
      <trkpt lat="47.87638" lon="6.91513">
        <ele>887</ele>
        <time>2026-05-09T09:07:58.645Z</time>
      </trkpt>
      <trkpt lat="47.87639" lon="6.91511">
        <ele>887</ele>
        <time>2026-05-09T09:07:59.646Z</time>
      </trkpt>
      <trkpt lat="47.8764" lon="6.9151">
        <ele>887</ele>
        <time>2026-05-09T09:08:00.645Z</time>
      </trkpt>
      <trkpt lat="47.8764" lon="6.9151">
        <ele>887</ele>
        <time>2026-05-09T09:08:01.645Z</time>
      </trkpt>
      <trkpt lat="47.87639" lon="6.91509">
        <ele>887</ele>
        <time>2026-05-09T09:08:02.646Z</time>
      </trkpt>
      <trkpt lat="47.8764" lon="6.91508">
        <ele>886</ele>
        <time>2026-05-09T09:08:03.646Z</time>
      </trkpt>
      <trkpt lat="47.87641" lon="6.91506">
        <ele>886</ele>
        <time>2026-05-09T09:08:04.646Z</time>
      </trkpt>
      <trkpt lat="47.87641" lon="6.91505">
        <ele>886</ele>
        <time>2026-05-09T09:08:05.645Z</time>
      </trkpt>
      <trkpt lat="47.87642" lon="6.91503">
        <ele>886</ele>
        <time>2026-05-09T09:08:06.645Z</time>
      </trkpt>
      <trkpt lat="47.87643" lon="6.91501">
        <ele>886</ele>
        <time>2026-05-09T09:08:07.645Z</time>
      </trkpt>
      <trkpt lat="47.87645" lon="6.91499">
        <ele>886</ele>
        <time>2026-05-09T09:08:08.646Z</time>
      </trkpt>
      <trkpt lat="47.87646" lon="6.91498">
        <ele>886</ele>
        <time>2026-05-09T09:08:09.645Z</time>
      </trkpt>
      <trkpt lat="47.87646" lon="6.91496">
        <ele>886</ele>
        <time>2026-05-09T09:08:10.645Z</time>
      </trkpt>
      <trkpt lat="47.87646" lon="6.91494">
        <ele>886</ele>
        <time>2026-05-09T09:08:11.645Z</time>
      </trkpt>
      <trkpt lat="47.87647" lon="6.91492">
        <ele>885</ele>
        <time>2026-05-09T09:08:12.646Z</time>
      </trkpt>
      <trkpt lat="47.87648" lon="6.9149">
        <ele>885</ele>
        <time>2026-05-09T09:08:13.645Z</time>
      </trkpt>
      <trkpt lat="47.87648" lon="6.9149">
        <ele>885</ele>
        <time>2026-05-09T09:08:14.646Z</time>
      </trkpt>
      <trkpt lat="47.87649" lon="6.91488">
        <ele>885</ele>
        <time>2026-05-09T09:08:15.646Z</time>
      </trkpt>
      <trkpt lat="47.8765" lon="6.91487">
        <ele>885</ele>
        <time>2026-05-09T09:08:16.645Z</time>
      </trkpt>
      <trkpt lat="47.87652" lon="6.91486">
        <ele>885</ele>
        <time>2026-05-09T09:08:17.645Z</time>
      </trkpt>
      <trkpt lat="47.87653" lon="6.91485">
        <ele>885</ele>
        <time>2026-05-09T09:08:18.646Z</time>
      </trkpt>
      <trkpt lat="47.87654" lon="6.91484">
        <ele>885</ele>
        <time>2026-05-09T09:08:19.646Z</time>
      </trkpt>
      <trkpt lat="47.87655" lon="6.91483">
        <ele>885</ele>
        <time>2026-05-09T09:08:20.646Z</time>
      </trkpt>
      <trkpt lat="47.87656" lon="6.91482">
        <ele>885</ele>
        <time>2026-05-09T09:08:21.646Z</time>
      </trkpt>
      <trkpt lat="47.87657" lon="6.91482">
        <ele>885</ele>
        <time>2026-05-09T09:08:22.645Z</time>
      </trkpt>
      <trkpt lat="47.87657" lon="6.91482">
        <ele>885</ele>
        <time>2026-05-09T09:08:23.646Z</time>
      </trkpt>
      <trkpt lat="47.87658" lon="6.91481">
        <ele>885</ele>
        <time>2026-05-09T09:08:24.645Z</time>
      </trkpt>
      <trkpt lat="47.87659" lon="6.9148">
        <ele>885</ele>
        <time>2026-05-09T09:08:25.646Z</time>
      </trkpt>
      <trkpt lat="47.8766" lon="6.91479">
        <ele>885</ele>
        <time>2026-05-09T09:08:26.645Z</time>
      </trkpt>
      <trkpt lat="47.87661" lon="6.91478">
        <ele>885</ele>
        <time>2026-05-09T09:08:27.646Z</time>
      </trkpt>
      <trkpt lat="47.87662" lon="6.91477">
        <ele>885</ele>
        <time>2026-05-09T09:08:28.645Z</time>
      </trkpt>
      <trkpt lat="47.87662" lon="6.91476">
        <ele>885</ele>
        <time>2026-05-09T09:08:29.646Z</time>
      </trkpt>
      <trkpt lat="47.87663" lon="6.91475">
        <ele>885</ele>
        <time>2026-05-09T09:08:30.645Z</time>
      </trkpt>
      <trkpt lat="47.87665" lon="6.91473">
        <ele>885</ele>
        <time>2026-05-09T09:08:31.646Z</time>
      </trkpt>
      <trkpt lat="47.87666" lon="6.91472">
        <ele>885</ele>
        <time>2026-05-09T09:08:32.645Z</time>
      </trkpt>
      <trkpt lat="47.87667" lon="6.91471">
        <ele>885</ele>
        <time>2026-05-09T09:08:33.646Z</time>
      </trkpt>
      <trkpt lat="47.87668" lon="6.9147">
        <ele>885</ele>
        <time>2026-05-09T09:08:34.646Z</time>
      </trkpt>
      <trkpt lat="47.8767" lon="6.91468">
        <ele>885</ele>
        <time>2026-05-09T09:08:35.645Z</time>
      </trkpt>
      <trkpt lat="47.8767" lon="6.91467">
        <ele>885</ele>
        <time>2026-05-09T09:08:36.645Z</time>
      </trkpt>
      <trkpt lat="47.8767" lon="6.91467">
        <ele>885</ele>
        <time>2026-05-09T09:08:37.645Z</time>
      </trkpt>
      <trkpt lat="47.8767" lon="6.91466">
        <ele>885</ele>
        <time>2026-05-09T09:08:38.646Z</time>
      </trkpt>
      <trkpt lat="47.87671" lon="6.91465">
        <ele>884</ele>
        <time>2026-05-09T09:08:39.645Z</time>
      </trkpt>
      <trkpt lat="47.87672" lon="6.91465">
        <ele>884</ele>
        <time>2026-05-09T09:08:40.646Z</time>
      </trkpt>
      <trkpt lat="47.87672" lon="6.91466">
        <ele>884</ele>
        <time>2026-05-09T09:08:41.646Z</time>
      </trkpt>
      <trkpt lat="47.87671" lon="6.91465">
        <ele>884</ele>
        <time>2026-05-09T09:08:42.646Z</time>
      </trkpt>
      <trkpt lat="47.87672" lon="6.91465">
        <ele>884</ele>
        <time>2026-05-09T09:08:43.646Z</time>
      </trkpt>
      <trkpt lat="47.87673" lon="6.91465">
        <ele>884</ele>
        <time>2026-05-09T09:08:44.646Z</time>
      </trkpt>
      <trkpt lat="47.87673" lon="6.91465">
        <ele>884</ele>
        <time>2026-05-09T09:08:45.646Z</time>
      </trkpt>
      <trkpt lat="47.87675" lon="6.91465">
        <ele>884</ele>
        <time>2026-05-09T09:08:46.645Z</time>
      </trkpt>
      <trkpt lat="47.87676" lon="6.91465">
        <ele>884</ele>
        <time>2026-05-09T09:08:47.646Z</time>
      </trkpt>
      <trkpt lat="47.87677" lon="6.91465">
        <ele>884</ele>
        <time>2026-05-09T09:08:48.645Z</time>
      </trkpt>
      <trkpt lat="47.87678" lon="6.91465">
        <ele>884</ele>
        <time>2026-05-09T09:08:49.646Z</time>
      </trkpt>
      <trkpt lat="47.87679" lon="6.91465">
        <ele>884</ele>
        <time>2026-05-09T09:08:50.646Z</time>
      </trkpt>
      <trkpt lat="47.87681" lon="6.91465">
        <ele>884</ele>
        <time>2026-05-09T09:08:51.645Z</time>
      </trkpt>
      <trkpt lat="47.87682" lon="6.91464">
        <ele>884</ele>
        <time>2026-05-09T09:08:52.646Z</time>
      </trkpt>
      <trkpt lat="47.87683" lon="6.91463">
        <ele>884</ele>
        <time>2026-05-09T09:08:53.646Z</time>
      </trkpt>
      <trkpt lat="47.87684" lon="6.91461">
        <ele>884</ele>
        <time>2026-05-09T09:08:54.645Z</time>
      </trkpt>
      <trkpt lat="47.87684" lon="6.91459">
        <ele>884</ele>
        <time>2026-05-09T09:08:55.646Z</time>
      </trkpt>
      <trkpt lat="47.87685" lon="6.91457">
        <ele>884</ele>
        <time>2026-05-09T09:08:56.646Z</time>
      </trkpt>
      <trkpt lat="47.87687" lon="6.91455">
        <ele>884</ele>
        <time>2026-05-09T09:08:57.645Z</time>
      </trkpt>
      <trkpt lat="47.87687" lon="6.91453">
        <ele>883</ele>
        <time>2026-05-09T09:08:58.646Z</time>
      </trkpt>
      <trkpt lat="47.87688" lon="6.91453">
        <ele>883</ele>
        <time>2026-05-09T09:08:59.646Z</time>
      </trkpt>
      <trkpt lat="47.87688" lon="6.91451">
        <ele>883</ele>
        <time>2026-05-09T09:09:00.645Z</time>
      </trkpt>
      <trkpt lat="47.87688" lon="6.9145">
        <ele>883</ele>
        <time>2026-05-09T09:09:01.645Z</time>
      </trkpt>
      <trkpt lat="47.87689" lon="6.91449">
        <ele>883</ele>
        <time>2026-05-09T09:09:02.646Z</time>
      </trkpt>
      <trkpt lat="47.87689" lon="6.91448">
        <ele>883</ele>
        <time>2026-05-09T09:09:03.646Z</time>
      </trkpt>
      <trkpt lat="47.87691" lon="6.91447">
        <ele>882</ele>
        <time>2026-05-09T09:09:04.645Z</time>
      </trkpt>
      <trkpt lat="47.87692" lon="6.91445">
        <ele>882</ele>
        <time>2026-05-09T09:09:05.645Z</time>
      </trkpt>
      <trkpt lat="47.87694" lon="6.91444">
        <ele>881</ele>
        <time>2026-05-09T09:09:06.646Z</time>
      </trkpt>
      <trkpt lat="47.87695" lon="6.91442">
        <ele>881</ele>
        <time>2026-05-09T09:09:07.646Z</time>
      </trkpt>
      <trkpt lat="47.87696" lon="6.9144">
        <ele>880</ele>
        <time>2026-05-09T09:09:08.645Z</time>
      </trkpt>
      <trkpt lat="47.87698" lon="6.91438">
        <ele>879</ele>
        <time>2026-05-09T09:09:09.646Z</time>
      </trkpt>
      <trkpt lat="47.87699" lon="6.91437">
        <ele>878</ele>
        <time>2026-05-09T09:09:10.646Z</time>
      </trkpt>
      <trkpt lat="47.877" lon="6.91435">
        <ele>877</ele>
        <time>2026-05-09T09:09:11.645Z</time>
      </trkpt>
      <trkpt lat="47.877" lon="6.91434">
        <ele>876</ele>
        <time>2026-05-09T09:09:12.645Z</time>
      </trkpt>
      <trkpt lat="47.87701" lon="6.91431">
        <ele>875</ele>
        <time>2026-05-09T09:09:13.646Z</time>
      </trkpt>
      <trkpt lat="47.87702" lon="6.91429">
        <ele>874</ele>
        <time>2026-05-09T09:09:14.646Z</time>
      </trkpt>
      <trkpt lat="47.87703" lon="6.91427">
        <ele>873</ele>
        <time>2026-05-09T09:09:15.645Z</time>
      </trkpt>
      <trkpt lat="47.87703" lon="6.91424">
        <ele>872</ele>
        <time>2026-05-09T09:09:16.646Z</time>
      </trkpt>
      <trkpt lat="47.87704" lon="6.91421">
        <ele>870</ele>
        <time>2026-05-09T09:09:17.646Z</time>
      </trkpt>
      <trkpt lat="47.87706" lon="6.91418">
        <ele>869</ele>
        <time>2026-05-09T09:09:18.646Z</time>
      </trkpt>
      <trkpt lat="47.87707" lon="6.91415">
        <ele>868</ele>
        <time>2026-05-09T09:09:19.645Z</time>
      </trkpt>
      <trkpt lat="47.87709" lon="6.91412">
        <ele>867</ele>
        <time>2026-05-09T09:09:20.646Z</time>
      </trkpt>
      <trkpt lat="47.8771" lon="6.9141">
        <ele>866</ele>
        <time>2026-05-09T09:09:21.646Z</time>
      </trkpt>
      <trkpt lat="47.87711" lon="6.91408">
        <ele>866</ele>
        <time>2026-05-09T09:09:22.645Z</time>
      </trkpt>
      <trkpt lat="47.87713" lon="6.91405">
        <ele>865</ele>
        <time>2026-05-09T09:09:23.645Z</time>
      </trkpt>
      <trkpt lat="47.87714" lon="6.91403">
        <ele>864</ele>
        <time>2026-05-09T09:09:24.645Z</time>
      </trkpt>
      <trkpt lat="47.87714" lon="6.914">
        <ele>863</ele>
        <time>2026-05-09T09:09:25.645Z</time>
      </trkpt>
      <trkpt lat="47.87715" lon="6.91397">
        <ele>862</ele>
        <time>2026-05-09T09:09:26.645Z</time>
      </trkpt>
      <trkpt lat="47.87715" lon="6.91395">
        <ele>862</ele>
        <time>2026-05-09T09:09:27.646Z</time>
      </trkpt>
      <trkpt lat="47.87716" lon="6.91392">
        <ele>861</ele>
        <time>2026-05-09T09:09:28.646Z</time>
      </trkpt>
      <trkpt lat="47.87717" lon="6.9139">
        <ele>860</ele>
        <time>2026-05-09T09:09:29.645Z</time>
      </trkpt>
      <trkpt lat="47.87717" lon="6.91388">
        <ele>860</ele>
        <time>2026-05-09T09:09:30.646Z</time>
      </trkpt>
      <trkpt lat="47.87718" lon="6.91386">
        <ele>859</ele>
        <time>2026-05-09T09:09:31.646Z</time>
      </trkpt>
      <trkpt lat="47.87718" lon="6.91385">
        <ele>859</ele>
        <time>2026-05-09T09:09:32.646Z</time>
      </trkpt>
      <trkpt lat="47.87719" lon="6.91383">
        <ele>858</ele>
        <time>2026-05-09T09:09:33.645Z</time>
      </trkpt>
      <trkpt lat="47.87719" lon="6.91381">
        <ele>858</ele>
        <time>2026-05-09T09:09:34.646Z</time>
      </trkpt>
      <trkpt lat="47.8772" lon="6.91379">
        <ele>858</ele>
        <time>2026-05-09T09:09:35.645Z</time>
      </trkpt>
      <trkpt lat="47.8772" lon="6.91378">
        <ele>857</ele>
        <time>2026-05-09T09:09:36.645Z</time>
      </trkpt>
      <trkpt lat="47.8772" lon="6.91376">
        <ele>857</ele>
        <time>2026-05-09T09:09:37.645Z</time>
      </trkpt>
      <trkpt lat="47.87721" lon="6.91375">
        <ele>857</ele>
        <time>2026-05-09T09:09:38.646Z</time>
      </trkpt>
      <trkpt lat="47.8772" lon="6.91373">
        <ele>857</ele>
        <time>2026-05-09T09:09:39.646Z</time>
      </trkpt>
      <trkpt lat="47.8772" lon="6.91371">
        <ele>857</ele>
        <time>2026-05-09T09:09:40.646Z</time>
      </trkpt>
      <trkpt lat="47.87719" lon="6.9137">
        <ele>856</ele>
        <time>2026-05-09T09:09:41.645Z</time>
      </trkpt>
      <trkpt lat="47.87718" lon="6.91368">
        <ele>856</ele>
        <time>2026-05-09T09:09:42.646Z</time>
      </trkpt>
      <trkpt lat="47.87718" lon="6.91366">
        <ele>856</ele>
        <time>2026-05-09T09:09:43.646Z</time>
      </trkpt>
      <trkpt lat="47.87719" lon="6.91364">
        <ele>856</ele>
        <time>2026-05-09T09:09:44.645Z</time>
      </trkpt>
      <trkpt lat="47.87719" lon="6.91362">
        <ele>856</ele>
        <time>2026-05-09T09:09:45.645Z</time>
      </trkpt>
      <trkpt lat="47.87719" lon="6.9136">
        <ele>855</ele>
        <time>2026-05-09T09:09:46.646Z</time>
      </trkpt>
      <trkpt lat="47.87718" lon="6.91359">
        <ele>855</ele>
        <time>2026-05-09T09:09:47.645Z</time>
      </trkpt>
      <trkpt lat="47.87718" lon="6.91357">
        <ele>855</ele>
        <time>2026-05-09T09:09:48.645Z</time>
      </trkpt>
      <trkpt lat="47.87718" lon="6.91355">
        <ele>855</ele>
        <time>2026-05-09T09:09:49.646Z</time>
      </trkpt>
      <trkpt lat="47.87718" lon="6.91354">
        <ele>855</ele>
        <time>2026-05-09T09:09:50.646Z</time>
      </trkpt>
      <trkpt lat="47.87718" lon="6.91352">
        <ele>855</ele>
        <time>2026-05-09T09:09:51.646Z</time>
      </trkpt>
      <trkpt lat="47.87718" lon="6.9135">
        <ele>854</ele>
        <time>2026-05-09T09:09:52.645Z</time>
      </trkpt>
      <trkpt lat="47.87718" lon="6.91348">
        <ele>854</ele>
        <time>2026-05-09T09:09:53.645Z</time>
      </trkpt>
      <trkpt lat="47.87718" lon="6.91346">
        <ele>854</ele>
        <time>2026-05-09T09:09:54.646Z</time>
      </trkpt>
      <trkpt lat="47.87719" lon="6.91345">
        <ele>854</ele>
        <time>2026-05-09T09:09:55.646Z</time>
      </trkpt>
      <trkpt lat="47.8772" lon="6.91343">
        <ele>854</ele>
        <time>2026-05-09T09:09:56.646Z</time>
      </trkpt>
      <trkpt lat="47.87721" lon="6.91341">
        <ele>853</ele>
        <time>2026-05-09T09:09:57.645Z</time>
      </trkpt>
      <trkpt lat="47.87721" lon="6.91339">
        <ele>853</ele>
        <time>2026-05-09T09:09:58.646Z</time>
      </trkpt>
      <trkpt lat="47.87721" lon="6.91336">
        <ele>853</ele>
        <time>2026-05-09T09:09:59.646Z</time>
      </trkpt>
      <trkpt lat="47.87721" lon="6.91333">
        <ele>852</ele>
        <time>2026-05-09T09:10:00.645Z</time>
      </trkpt>
      <trkpt lat="47.87722" lon="6.9133">
        <ele>852</ele>
        <time>2026-05-09T09:10:01.645Z</time>
      </trkpt>
      <trkpt lat="47.87722" lon="6.91328">
        <ele>852</ele>
        <time>2026-05-09T09:10:02.646Z</time>
      </trkpt>
      <trkpt lat="47.87722" lon="6.91325">
        <ele>852</ele>
        <time>2026-05-09T09:10:03.646Z</time>
      </trkpt>
      <trkpt lat="47.87723" lon="6.91324">
        <ele>851</ele>
        <time>2026-05-09T09:10:04.645Z</time>
      </trkpt>
      <trkpt lat="47.87724" lon="6.91322">
        <ele>851</ele>
        <time>2026-05-09T09:10:05.645Z</time>
      </trkpt>
      <trkpt lat="47.87724" lon="6.9132">
        <ele>851</ele>
        <time>2026-05-09T09:10:06.646Z</time>
      </trkpt>
      <trkpt lat="47.87724" lon="6.91318">
        <ele>851</ele>
        <time>2026-05-09T09:10:07.646Z</time>
      </trkpt>
      <trkpt lat="47.87725" lon="6.91315">
        <ele>850</ele>
        <time>2026-05-09T09:10:08.645Z</time>
      </trkpt>
      <trkpt lat="47.87725" lon="6.91313">
        <ele>850</ele>
        <time>2026-05-09T09:10:09.645Z</time>
      </trkpt>
      <trkpt lat="47.87725" lon="6.9131">
        <ele>850</ele>
        <time>2026-05-09T09:10:10.646Z</time>
      </trkpt>
      <trkpt lat="47.87725" lon="6.91308">
        <ele>850</ele>
        <time>2026-05-09T09:10:11.646Z</time>
      </trkpt>
      <trkpt lat="47.87725" lon="6.91305">
        <ele>850</ele>
        <time>2026-05-09T09:10:12.645Z</time>
      </trkpt>
      <trkpt lat="47.87726" lon="6.91304">
        <ele>850</ele>
        <time>2026-05-09T09:10:13.645Z</time>
      </trkpt>
      <trkpt lat="47.87726" lon="6.91303">
        <ele>850</ele>
        <time>2026-05-09T09:10:14.646Z</time>
      </trkpt>
      <trkpt lat="47.87726" lon="6.91301">
        <ele>849</ele>
        <time>2026-05-09T09:10:15.645Z</time>
      </trkpt>
      <trkpt lat="47.87726" lon="6.913">
        <ele>849</ele>
        <time>2026-05-09T09:10:16.646Z</time>
      </trkpt>
      <trkpt lat="47.87727" lon="6.91298">
        <ele>849</ele>
        <time>2026-05-09T09:10:17.645Z</time>
      </trkpt>
      <trkpt lat="47.87727" lon="6.91297">
        <ele>849</ele>
        <time>2026-05-09T09:10:18.646Z</time>
      </trkpt>
      <trkpt lat="47.87727" lon="6.91295">
        <ele>849</ele>
        <time>2026-05-09T09:10:19.646Z</time>
      </trkpt>
      <trkpt lat="47.87728" lon="6.91294">
        <ele>850</ele>
        <time>2026-05-09T09:10:20.645Z</time>
      </trkpt>
      <trkpt lat="47.87728" lon="6.91293">
        <ele>850</ele>
        <time>2026-05-09T09:10:21.645Z</time>
      </trkpt>
      <trkpt lat="47.87729" lon="6.91291">
        <ele>850</ele>
        <time>2026-05-09T09:10:22.646Z</time>
      </trkpt>
      <trkpt lat="47.87729" lon="6.9129">
        <ele>850</ele>
        <time>2026-05-09T09:10:23.646Z</time>
      </trkpt>
      <trkpt lat="47.87729" lon="6.9129">
        <ele>850</ele>
        <time>2026-05-09T09:10:24.645Z</time>
      </trkpt>
      <trkpt lat="47.87728" lon="6.91222">
        <ele>852</ele>
        <time>2026-05-09T09:10:47.934Z</time>
      </trkpt>
      <trkpt lat="47.8773" lon="6.91218">
        <ele>852</ele>
        <time>2026-05-09T09:10:48.935Z</time>
      </trkpt>
      <trkpt lat="47.87731" lon="6.91213">
        <ele>852</ele>
        <time>2026-05-09T09:10:49.934Z</time>
      </trkpt>
      <trkpt lat="47.87732" lon="6.91209">
        <ele>852</ele>
        <time>2026-05-09T09:10:50.935Z</time>
      </trkpt>
      <trkpt lat="47.87733" lon="6.91206">
        <ele>853</ele>
        <time>2026-05-09T09:10:51.935Z</time>
      </trkpt>
      <trkpt lat="47.87735" lon="6.91204">
        <ele>853</ele>
        <time>2026-05-09T09:10:52.934Z</time>
      </trkpt>
      <trkpt lat="47.87736" lon="6.91202">
        <ele>853</ele>
        <time>2026-05-09T09:10:53.935Z</time>
      </trkpt>
      <trkpt lat="47.87735" lon="6.91199">
        <ele>853</ele>
        <time>2026-05-09T09:10:54.934Z</time>
      </trkpt>
      <trkpt lat="47.87734" lon="6.91196">
        <ele>853</ele>
        <time>2026-05-09T09:10:55.935Z</time>
      </trkpt>
      <trkpt lat="47.87733" lon="6.91193">
        <ele>853</ele>
        <time>2026-05-09T09:10:56.934Z</time>
      </trkpt>
      <trkpt lat="47.87731" lon="6.9119">
        <ele>853</ele>
        <time>2026-05-09T09:10:57.935Z</time>
      </trkpt>
      <trkpt lat="47.8773" lon="6.91188">
        <ele>854</ele>
        <time>2026-05-09T09:10:58.934Z</time>
      </trkpt>
      <trkpt lat="47.8773" lon="6.91185">
        <ele>854</ele>
        <time>2026-05-09T09:10:59.934Z</time>
      </trkpt>
      <trkpt lat="47.8773" lon="6.91184">
        <ele>854</ele>
        <time>2026-05-09T09:11:00.934Z</time>
      </trkpt>
      <trkpt lat="47.8773" lon="6.91184">
        <ele>854</ele>
        <time>2026-05-09T09:11:01.935Z</time>
      </trkpt>
      <trkpt lat="47.8773" lon="6.91183">
        <ele>854</ele>
        <time>2026-05-09T09:11:02.934Z</time>
      </trkpt>
      <trkpt lat="47.8773" lon="6.91183">
        <ele>854</ele>
        <time>2026-05-09T09:11:03.935Z</time>
      </trkpt>
      <trkpt lat="47.8773" lon="6.91181">
        <ele>854</ele>
        <time>2026-05-09T09:11:04.934Z</time>
      </trkpt>
      <trkpt lat="47.8773" lon="6.91179">
        <ele>854</ele>
        <time>2026-05-09T09:11:05.934Z</time>
      </trkpt>
      <trkpt lat="47.87731" lon="6.91177">
        <ele>854</ele>
        <time>2026-05-09T09:11:06.934Z</time>
      </trkpt>
      <trkpt lat="47.87732" lon="6.91176">
        <ele>855</ele>
        <time>2026-05-09T09:11:07.935Z</time>
      </trkpt>
      <trkpt lat="47.87733" lon="6.91174">
        <ele>855</ele>
        <time>2026-05-09T09:11:08.934Z</time>
      </trkpt>
      <trkpt lat="47.87734" lon="6.91172">
        <ele>855</ele>
        <time>2026-05-09T09:11:09.935Z</time>
      </trkpt>
      <trkpt lat="47.87736" lon="6.91169">
        <ele>855</ele>
        <time>2026-05-09T09:11:10.934Z</time>
      </trkpt>
      <trkpt lat="47.87735" lon="6.91167">
        <ele>855</ele>
        <time>2026-05-09T09:11:11.935Z</time>
      </trkpt>
      <trkpt lat="47.87736" lon="6.91166">
        <ele>855</ele>
        <time>2026-05-09T09:11:12.934Z</time>
      </trkpt>
      <trkpt lat="47.87736" lon="6.91165">
        <ele>855</ele>
        <time>2026-05-09T09:11:13.935Z</time>
      </trkpt>
      <trkpt lat="47.87737" lon="6.91164">
        <ele>855</ele>
        <time>2026-05-09T09:11:14.934Z</time>
      </trkpt>
      <trkpt lat="47.87738" lon="6.91163">
        <ele>855</ele>
        <time>2026-05-09T09:11:15.935Z</time>
      </trkpt>
      <trkpt lat="47.87738" lon="6.91163">
        <ele>856</ele>
        <time>2026-05-09T09:11:16.934Z</time>
      </trkpt>
      <trkpt lat="47.87738" lon="6.91162">
        <ele>856</ele>
        <time>2026-05-09T09:11:17.934Z</time>
      </trkpt>
      <trkpt lat="47.87738" lon="6.91162">
        <ele>856</ele>
        <time>2026-05-09T09:11:18.935Z</time>
      </trkpt>
      <trkpt lat="47.87739" lon="6.9116">
        <ele>856</ele>
        <time>2026-05-09T09:11:19.935Z</time>
      </trkpt>
      <trkpt lat="47.8774" lon="6.91159">
        <ele>856</ele>
        <time>2026-05-09T09:11:20.935Z</time>
      </trkpt>
      <trkpt lat="47.87742" lon="6.91158">
        <ele>856</ele>
        <time>2026-05-09T09:11:21.934Z</time>
      </trkpt>
      <trkpt lat="47.87744" lon="6.91157">
        <ele>857</ele>
        <time>2026-05-09T09:11:22.935Z</time>
      </trkpt>
      <trkpt lat="47.87746" lon="6.91154">
        <ele>857</ele>
        <time>2026-05-09T09:11:23.934Z</time>
      </trkpt>
      <trkpt lat="47.87756" lon="6.91142">
        <ele>858</ele>
        <time>2026-05-09T09:11:30.363Z</time>
      </trkpt>
      <trkpt lat="47.87757" lon="6.91141">
        <ele>858</ele>
        <time>2026-05-09T09:11:31.363Z</time>
      </trkpt>
      <trkpt lat="47.87758" lon="6.9114">
        <ele>859</ele>
        <time>2026-05-09T09:11:32.364Z</time>
      </trkpt>
      <trkpt lat="47.8776" lon="6.91139">
        <ele>859</ele>
        <time>2026-05-09T09:11:33.363Z</time>
      </trkpt>
      <trkpt lat="47.87761" lon="6.91139">
        <ele>859</ele>
        <time>2026-05-09T09:11:34.363Z</time>
      </trkpt>
      <trkpt lat="47.87762" lon="6.91138">
        <ele>859</ele>
        <time>2026-05-09T09:11:35.363Z</time>
      </trkpt>
      <trkpt lat="47.87764" lon="6.91137">
        <ele>859</ele>
        <time>2026-05-09T09:11:36.363Z</time>
      </trkpt>
      <trkpt lat="47.87764" lon="6.91137">
        <ele>859</ele>
        <time>2026-05-09T09:11:37.363Z</time>
      </trkpt>
      <trkpt lat="47.87765" lon="6.91136">
        <ele>860</ele>
        <time>2026-05-09T09:11:38.363Z</time>
      </trkpt>
      <trkpt lat="47.87766" lon="6.91134">
        <ele>860</ele>
        <time>2026-05-09T09:11:39.364Z</time>
      </trkpt>
      <trkpt lat="47.87767" lon="6.91131">
        <ele>860</ele>
        <time>2026-05-09T09:11:40.364Z</time>
      </trkpt>
      <trkpt lat="47.87768" lon="6.91129">
        <ele>860</ele>
        <time>2026-05-09T09:11:41.364Z</time>
      </trkpt>
      <trkpt lat="47.87769" lon="6.91126">
        <ele>860</ele>
        <time>2026-05-09T09:11:42.363Z</time>
      </trkpt>
      <trkpt lat="47.8777" lon="6.91124">
        <ele>860</ele>
        <time>2026-05-09T09:11:43.364Z</time>
      </trkpt>
      <trkpt lat="47.87771" lon="6.91122">
        <ele>860</ele>
        <time>2026-05-09T09:11:44.363Z</time>
      </trkpt>
      <trkpt lat="47.87772" lon="6.91121">
        <ele>860</ele>
        <time>2026-05-09T09:11:45.363Z</time>
      </trkpt>
      <trkpt lat="47.87774" lon="6.91119">
        <ele>860</ele>
        <time>2026-05-09T09:11:46.364Z</time>
      </trkpt>
      <trkpt lat="47.87774" lon="6.91118">
        <ele>860</ele>
        <time>2026-05-09T09:11:47.363Z</time>
      </trkpt>
      <trkpt lat="47.87776" lon="6.91116">
        <ele>861</ele>
        <time>2026-05-09T09:11:48.364Z</time>
      </trkpt>
      <trkpt lat="47.87777" lon="6.91113">
        <ele>861</ele>
        <time>2026-05-09T09:11:49.363Z</time>
      </trkpt>
      <trkpt lat="47.87779" lon="6.91111">
        <ele>861</ele>
        <time>2026-05-09T09:11:50.363Z</time>
      </trkpt>
      <trkpt lat="47.87781" lon="6.91109">
        <ele>861</ele>
        <time>2026-05-09T09:11:51.363Z</time>
      </trkpt>
      <trkpt lat="47.87782" lon="6.91107">
        <ele>861</ele>
        <time>2026-05-09T09:11:52.363Z</time>
      </trkpt>
      <trkpt lat="47.87783" lon="6.91105">
        <ele>861</ele>
        <time>2026-05-09T09:11:53.363Z</time>
      </trkpt>
      <trkpt lat="47.87784" lon="6.91102">
        <ele>861</ele>
        <time>2026-05-09T09:11:54.363Z</time>
      </trkpt>
      <trkpt lat="47.87785" lon="6.91099">
        <ele>862</ele>
        <time>2026-05-09T09:11:55.363Z</time>
      </trkpt>
      <trkpt lat="47.87786" lon="6.91097">
        <ele>862</ele>
        <time>2026-05-09T09:11:56.363Z</time>
      </trkpt>
      <trkpt lat="47.87786" lon="6.91096">
        <ele>862</ele>
        <time>2026-05-09T09:11:57.363Z</time>
      </trkpt>
      <trkpt lat="47.87788" lon="6.91095">
        <ele>862</ele>
        <time>2026-05-09T09:11:58.363Z</time>
      </trkpt>
      <trkpt lat="47.8779" lon="6.91093">
        <ele>862</ele>
        <time>2026-05-09T09:11:59.363Z</time>
      </trkpt>
      <trkpt lat="47.8779" lon="6.91091">
        <ele>862</ele>
        <time>2026-05-09T09:12:00.363Z</time>
      </trkpt>
      <trkpt lat="47.87791" lon="6.91089">
        <ele>862</ele>
        <time>2026-05-09T09:12:01.364Z</time>
      </trkpt>
      <trkpt lat="47.87791" lon="6.91088">
        <ele>862</ele>
        <time>2026-05-09T09:12:02.363Z</time>
      </trkpt>
      <trkpt lat="47.87792" lon="6.91087">
        <ele>863</ele>
        <time>2026-05-09T09:12:03.363Z</time>
      </trkpt>
      <trkpt lat="47.87793" lon="6.91085">
        <ele>863</ele>
        <time>2026-05-09T09:12:04.363Z</time>
      </trkpt>
      <trkpt lat="47.87795" lon="6.91083">
        <ele>863</ele>
        <time>2026-05-09T09:12:05.363Z</time>
      </trkpt>
      <trkpt lat="47.87797" lon="6.91081">
        <ele>863</ele>
        <time>2026-05-09T09:12:06.363Z</time>
      </trkpt>
      <trkpt lat="47.87798" lon="6.91082">
        <ele>863</ele>
        <time>2026-05-09T09:12:07.364Z</time>
      </trkpt>
      <trkpt lat="47.87799" lon="6.91082">
        <ele>863</ele>
        <time>2026-05-09T09:12:08.363Z</time>
      </trkpt>
      <trkpt lat="47.878" lon="6.91081">
        <ele>864</ele>
        <time>2026-05-09T09:12:09.363Z</time>
      </trkpt>
      <trkpt lat="47.87799" lon="6.9108">
        <ele>864</ele>
        <time>2026-05-09T09:12:10.363Z</time>
      </trkpt>
      <trkpt lat="47.87799" lon="6.91076">
        <ele>864</ele>
        <time>2026-05-09T09:12:11.363Z</time>
      </trkpt>
      <trkpt lat="47.87798" lon="6.91074">
        <ele>864</ele>
        <time>2026-05-09T09:12:12.364Z</time>
      </trkpt>
      <trkpt lat="47.87798" lon="6.9107">
        <ele>864</ele>
        <time>2026-05-09T09:12:13.363Z</time>
      </trkpt>
      <trkpt lat="47.878" lon="6.91067">
        <ele>865</ele>
        <time>2026-05-09T09:12:14.363Z</time>
      </trkpt>
      <trkpt lat="47.87801" lon="6.91064">
        <ele>865</ele>
        <time>2026-05-09T09:12:15.363Z</time>
      </trkpt>
      <trkpt lat="47.87802" lon="6.91063">
        <ele>865</ele>
        <time>2026-05-09T09:12:16.363Z</time>
      </trkpt>
      <trkpt lat="47.87803" lon="6.91062">
        <ele>865</ele>
        <time>2026-05-09T09:12:17.363Z</time>
      </trkpt>
      <trkpt lat="47.87805" lon="6.91061">
        <ele>865</ele>
        <time>2026-05-09T09:12:18.363Z</time>
      </trkpt>
      <trkpt lat="47.87806" lon="6.91059">
        <ele>866</ele>
        <time>2026-05-09T09:12:19.363Z</time>
      </trkpt>
      <trkpt lat="47.87807" lon="6.91057">
        <ele>866</ele>
        <time>2026-05-09T09:12:20.363Z</time>
      </trkpt>
      <trkpt lat="47.87808" lon="6.91056">
        <ele>866</ele>
        <time>2026-05-09T09:12:21.363Z</time>
      </trkpt>
      <trkpt lat="47.87809" lon="6.91055">
        <ele>866</ele>
        <time>2026-05-09T09:12:22.363Z</time>
      </trkpt>
      <trkpt lat="47.8781" lon="6.91054">
        <ele>866</ele>
        <time>2026-05-09T09:12:23.363Z</time>
      </trkpt>
      <trkpt lat="47.87811" lon="6.91053">
        <ele>867</ele>
        <time>2026-05-09T09:12:24.363Z</time>
      </trkpt>
      <trkpt lat="47.87812" lon="6.91052">
        <ele>867</ele>
        <time>2026-05-09T09:12:25.363Z</time>
      </trkpt>
      <trkpt lat="47.87812" lon="6.91051">
        <ele>867</ele>
        <time>2026-05-09T09:12:26.363Z</time>
      </trkpt>
      <trkpt lat="47.87813" lon="6.91049">
        <ele>867</ele>
        <time>2026-05-09T09:12:27.363Z</time>
      </trkpt>
      <trkpt lat="47.87814" lon="6.91048">
        <ele>867</ele>
        <time>2026-05-09T09:12:28.363Z</time>
      </trkpt>
      <trkpt lat="47.87814" lon="6.91047">
        <ele>867</ele>
        <time>2026-05-09T09:12:29.364Z</time>
      </trkpt>
      <trkpt lat="47.87816" lon="6.91046">
        <ele>867</ele>
        <time>2026-05-09T09:12:30.363Z</time>
      </trkpt>
      <trkpt lat="47.87818" lon="6.91044">
        <ele>867</ele>
        <time>2026-05-09T09:12:31.363Z</time>
      </trkpt>
      <trkpt lat="47.87819" lon="6.91041">
        <ele>868</ele>
        <time>2026-05-09T09:12:32.363Z</time>
      </trkpt>
      <trkpt lat="47.8782" lon="6.91038">
        <ele>868</ele>
        <time>2026-05-09T09:12:33.363Z</time>
      </trkpt>
      <trkpt lat="47.87821" lon="6.91036">
        <ele>868</ele>
        <time>2026-05-09T09:12:34.363Z</time>
      </trkpt>
      <trkpt lat="47.87822" lon="6.91034">
        <ele>868</ele>
        <time>2026-05-09T09:12:35.364Z</time>
      </trkpt>
      <trkpt lat="47.87822" lon="6.91032">
        <ele>868</ele>
        <time>2026-05-09T09:12:36.363Z</time>
      </trkpt>
      <trkpt lat="47.87822" lon="6.9103">
        <ele>868</ele>
        <time>2026-05-09T09:12:37.363Z</time>
      </trkpt>
      <trkpt lat="47.87823" lon="6.91027">
        <ele>868</ele>
        <time>2026-05-09T09:12:38.364Z</time>
      </trkpt>
      <trkpt lat="47.87824" lon="6.91024">
        <ele>868</ele>
        <time>2026-05-09T09:12:39.363Z</time>
      </trkpt>
      <trkpt lat="47.87825" lon="6.91022">
        <ele>868</ele>
        <time>2026-05-09T09:12:40.363Z</time>
      </trkpt>
      <trkpt lat="47.87826" lon="6.91019">
        <ele>868</ele>
        <time>2026-05-09T09:12:41.363Z</time>
      </trkpt>
      <trkpt lat="47.87827" lon="6.91017">
        <ele>868</ele>
        <time>2026-05-09T09:12:42.363Z</time>
      </trkpt>
      <trkpt lat="47.87828" lon="6.91017">
        <ele>868</ele>
        <time>2026-05-09T09:12:43.364Z</time>
      </trkpt>
      <trkpt lat="47.87828" lon="6.91016">
        <ele>868</ele>
        <time>2026-05-09T09:12:44.364Z</time>
      </trkpt>
      <trkpt lat="47.87828" lon="6.91014">
        <ele>868</ele>
        <time>2026-05-09T09:12:45.363Z</time>
      </trkpt>
      <trkpt lat="47.87828" lon="6.91012">
        <ele>868</ele>
        <time>2026-05-09T09:12:46.364Z</time>
      </trkpt>
      <trkpt lat="47.87828" lon="6.9101">
        <ele>868</ele>
        <time>2026-05-09T09:12:47.363Z</time>
      </trkpt>
      <trkpt lat="47.8783" lon="6.91007">
        <ele>868</ele>
        <time>2026-05-09T09:12:48.363Z</time>
      </trkpt>
      <trkpt lat="47.87831" lon="6.91005">
        <ele>867</ele>
        <time>2026-05-09T09:12:49.363Z</time>
      </trkpt>
      <trkpt lat="47.87832" lon="6.91003">
        <ele>867</ele>
        <time>2026-05-09T09:12:50.363Z</time>
      </trkpt>
      <trkpt lat="47.87833" lon="6.91002">
        <ele>867</ele>
        <time>2026-05-09T09:12:51.363Z</time>
      </trkpt>
      <trkpt lat="47.87834" lon="6.90998">
        <ele>867</ele>
        <time>2026-05-09T09:12:52.364Z</time>
      </trkpt>
      <trkpt lat="47.87834" lon="6.90995">
        <ele>867</ele>
        <time>2026-05-09T09:12:53.363Z</time>
      </trkpt>
      <trkpt lat="47.87835" lon="6.90994">
        <ele>867</ele>
        <time>2026-05-09T09:12:54.363Z</time>
      </trkpt>
      <trkpt lat="47.87837" lon="6.90995">
        <ele>867</ele>
        <time>2026-05-09T09:12:55.363Z</time>
      </trkpt>
      <trkpt lat="47.87838" lon="6.90997">
        <ele>867</ele>
        <time>2026-05-09T09:12:56.364Z</time>
      </trkpt>
      <trkpt lat="47.8784" lon="6.90999">
        <ele>867</ele>
        <time>2026-05-09T09:12:57.364Z</time>
      </trkpt>
      <trkpt lat="47.87842" lon="6.91001">
        <ele>867</ele>
        <time>2026-05-09T09:12:58.363Z</time>
      </trkpt>
      <trkpt lat="47.87843" lon="6.91002">
        <ele>867</ele>
        <time>2026-05-09T09:12:59.364Z</time>
      </trkpt>
      <trkpt lat="47.87845" lon="6.91003">
        <ele>866</ele>
        <time>2026-05-09T09:13:00.364Z</time>
      </trkpt>
      <trkpt lat="47.87846" lon="6.91003">
        <ele>866</ele>
        <time>2026-05-09T09:13:01.364Z</time>
      </trkpt>
      <trkpt lat="47.87849" lon="6.91002">
        <ele>866</ele>
        <time>2026-05-09T09:13:02.363Z</time>
      </trkpt>
      <trkpt lat="47.87851" lon="6.91001">
        <ele>866</ele>
        <time>2026-05-09T09:13:03.363Z</time>
      </trkpt>
      <trkpt lat="47.87854" lon="6.91">
        <ele>866</ele>
        <time>2026-05-09T09:13:04.363Z</time>
      </trkpt>
      <trkpt lat="47.87856" lon="6.91">
        <ele>866</ele>
        <time>2026-05-09T09:13:05.364Z</time>
      </trkpt>
      <trkpt lat="47.87857" lon="6.91">
        <ele>866</ele>
        <time>2026-05-09T09:13:06.363Z</time>
      </trkpt>
      <trkpt lat="47.87859" lon="6.91">
        <ele>866</ele>
        <time>2026-05-09T09:13:07.363Z</time>
      </trkpt>
      <trkpt lat="47.87861" lon="6.91">
        <ele>866</ele>
        <time>2026-05-09T09:13:08.363Z</time>
      </trkpt>
      <trkpt lat="47.87862" lon="6.90998">
        <ele>866</ele>
        <time>2026-05-09T09:13:09.363Z</time>
      </trkpt>
      <trkpt lat="47.87864" lon="6.90997">
        <ele>866</ele>
        <time>2026-05-09T09:13:10.363Z</time>
      </trkpt>
      <trkpt lat="47.87865" lon="6.90997">
        <ele>866</ele>
        <time>2026-05-09T09:13:11.363Z</time>
      </trkpt>
      <trkpt lat="47.87865" lon="6.90998">
        <ele>866</ele>
        <time>2026-05-09T09:13:12.363Z</time>
      </trkpt>
      <trkpt lat="47.87866" lon="6.90998">
        <ele>866</ele>
        <time>2026-05-09T09:13:13.363Z</time>
      </trkpt>
      <trkpt lat="47.87867" lon="6.90999">
        <ele>866</ele>
        <time>2026-05-09T09:13:14.363Z</time>
      </trkpt>
      <trkpt lat="47.87868" lon="6.90999">
        <ele>866</ele>
        <time>2026-05-09T09:13:15.363Z</time>
      </trkpt>
      <trkpt lat="47.8787" lon="6.91">
        <ele>866</ele>
        <time>2026-05-09T09:13:16.363Z</time>
      </trkpt>
      <trkpt lat="47.87872" lon="6.91001">
        <ele>866</ele>
        <time>2026-05-09T09:13:17.364Z</time>
      </trkpt>
      <trkpt lat="47.87874" lon="6.91003">
        <ele>866</ele>
        <time>2026-05-09T09:13:18.364Z</time>
      </trkpt>
      <trkpt lat="47.87875" lon="6.91005">
        <ele>866</ele>
        <time>2026-05-09T09:13:19.363Z</time>
      </trkpt>
      <trkpt lat="47.87876" lon="6.91007">
        <ele>866</ele>
        <time>2026-05-09T09:13:20.363Z</time>
      </trkpt>
      <trkpt lat="47.87878" lon="6.91009">
        <ele>866</ele>
        <time>2026-05-09T09:13:21.364Z</time>
      </trkpt>
      <trkpt lat="47.8788" lon="6.91011">
        <ele>866</ele>
        <time>2026-05-09T09:13:22.364Z</time>
      </trkpt>
      <trkpt lat="47.87882" lon="6.91012">
        <ele>866</ele>
        <time>2026-05-09T09:13:23.363Z</time>
      </trkpt>
      <trkpt lat="47.87883" lon="6.91013">
        <ele>866</ele>
        <time>2026-05-09T09:13:24.363Z</time>
      </trkpt>
      <trkpt lat="47.87884" lon="6.91015">
        <ele>866</ele>
        <time>2026-05-09T09:13:25.364Z</time>
      </trkpt>
      <trkpt lat="47.87886" lon="6.91017">
        <ele>866</ele>
        <time>2026-05-09T09:13:26.363Z</time>
      </trkpt>
      <trkpt lat="47.87887" lon="6.91019">
        <ele>867</ele>
        <time>2026-05-09T09:13:27.363Z</time>
      </trkpt>
      <trkpt lat="47.87888" lon="6.9102">
        <ele>867</ele>
        <time>2026-05-09T09:13:28.364Z</time>
      </trkpt>
      <trkpt lat="47.8789" lon="6.91021">
        <ele>867</ele>
        <time>2026-05-09T09:13:29.364Z</time>
      </trkpt>
      <trkpt lat="47.87893" lon="6.91021">
        <ele>867</ele>
        <time>2026-05-09T09:13:30.363Z</time>
      </trkpt>
      <trkpt lat="47.87895" lon="6.91022">
        <ele>867</ele>
        <time>2026-05-09T09:13:31.364Z</time>
      </trkpt>
      <trkpt lat="47.87898" lon="6.91023">
        <ele>867</ele>
        <time>2026-05-09T09:13:32.363Z</time>
      </trkpt>
      <trkpt lat="47.879" lon="6.91024">
        <ele>867</ele>
        <time>2026-05-09T09:13:33.363Z</time>
      </trkpt>
      <trkpt lat="47.87902" lon="6.91026">
        <ele>867</ele>
        <time>2026-05-09T09:13:34.364Z</time>
      </trkpt>
      <trkpt lat="47.87903" lon="6.91027">
        <ele>868</ele>
        <time>2026-05-09T09:13:35.363Z</time>
      </trkpt>
      <trkpt lat="47.87904" lon="6.91029">
        <ele>868</ele>
        <time>2026-05-09T09:13:36.363Z</time>
      </trkpt>
      <trkpt lat="47.87905" lon="6.9103">
        <ele>868</ele>
        <time>2026-05-09T09:13:37.363Z</time>
      </trkpt>
      <trkpt lat="47.87905" lon="6.91032">
        <ele>868</ele>
        <time>2026-05-09T09:13:38.363Z</time>
      </trkpt>
      <trkpt lat="47.87906" lon="6.91033">
        <ele>869</ele>
        <time>2026-05-09T09:13:39.363Z</time>
      </trkpt>
      <trkpt lat="47.87907" lon="6.91035">
        <ele>869</ele>
        <time>2026-05-09T09:13:40.363Z</time>
      </trkpt>
      <trkpt lat="47.87907" lon="6.91038">
        <ele>869</ele>
        <time>2026-05-09T09:13:41.363Z</time>
      </trkpt>
      <trkpt lat="47.87907" lon="6.9104">
        <ele>869</ele>
        <time>2026-05-09T09:13:42.363Z</time>
      </trkpt>
      <trkpt lat="47.87907" lon="6.91041">
        <ele>869</ele>
        <time>2026-05-09T09:13:43.363Z</time>
      </trkpt>
      <trkpt lat="47.87907" lon="6.91044">
        <ele>870</ele>
        <time>2026-05-09T09:13:44.363Z</time>
      </trkpt>
      <trkpt lat="47.87908" lon="6.91045">
        <ele>870</ele>
        <time>2026-05-09T09:13:45.363Z</time>
      </trkpt>
      <trkpt lat="47.87908" lon="6.91046">
        <ele>870</ele>
        <time>2026-05-09T09:13:46.364Z</time>
      </trkpt>
      <trkpt lat="47.87909" lon="6.91047">
        <ele>870</ele>
        <time>2026-05-09T09:13:47.363Z</time>
      </trkpt>
      <trkpt lat="47.8791" lon="6.91048">
        <ele>870</ele>
        <time>2026-05-09T09:13:48.363Z</time>
      </trkpt>
      <trkpt lat="47.87911" lon="6.91049">
        <ele>870</ele>
        <time>2026-05-09T09:13:49.364Z</time>
      </trkpt>
      <trkpt lat="47.87912" lon="6.9105">
        <ele>870</ele>
        <time>2026-05-09T09:13:50.363Z</time>
      </trkpt>
      <trkpt lat="47.87912" lon="6.91051">
        <ele>870</ele>
        <time>2026-05-09T09:13:51.364Z</time>
      </trkpt>
      <trkpt lat="47.87913" lon="6.91052">
        <ele>870</ele>
        <time>2026-05-09T09:13:52.364Z</time>
      </trkpt>
      <trkpt lat="47.87913" lon="6.91053">
        <ele>869</ele>
        <time>2026-05-09T09:13:53.363Z</time>
      </trkpt>
      <trkpt lat="47.87914" lon="6.91054">
        <ele>869</ele>
        <time>2026-05-09T09:13:54.364Z</time>
      </trkpt>
      <trkpt lat="47.87914" lon="6.91055">
        <ele>869</ele>
        <time>2026-05-09T09:13:55.363Z</time>
      </trkpt>
      <trkpt lat="47.87915" lon="6.91055">
        <ele>869</ele>
        <time>2026-05-09T09:13:56.364Z</time>
      </trkpt>
      <trkpt lat="47.87915" lon="6.91057">
        <ele>869</ele>
        <time>2026-05-09T09:13:57.364Z</time>
      </trkpt>
      <trkpt lat="47.87916" lon="6.91059">
        <ele>869</ele>
        <time>2026-05-09T09:13:58.364Z</time>
      </trkpt>
      <trkpt lat="47.87917" lon="6.9106">
        <ele>869</ele>
        <time>2026-05-09T09:13:59.364Z</time>
      </trkpt>
      <trkpt lat="47.87918" lon="6.91061">
        <ele>869</ele>
        <time>2026-05-09T09:14:00.364Z</time>
      </trkpt>
      <trkpt lat="47.87919" lon="6.91062">
        <ele>869</ele>
        <time>2026-05-09T09:14:01.363Z</time>
      </trkpt>
      <trkpt lat="47.87919" lon="6.91063">
        <ele>869</ele>
        <time>2026-05-09T09:14:02.364Z</time>
      </trkpt>
      <trkpt lat="47.87919" lon="6.91064">
        <ele>869</ele>
        <time>2026-05-09T09:14:03.363Z</time>
      </trkpt>
      <trkpt lat="47.87919" lon="6.91066">
        <ele>869</ele>
        <time>2026-05-09T09:14:04.364Z</time>
      </trkpt>
      <trkpt lat="47.8792" lon="6.91068">
        <ele>868</ele>
        <time>2026-05-09T09:14:05.363Z</time>
      </trkpt>
      <trkpt lat="47.8792" lon="6.91069">
        <ele>868</ele>
        <time>2026-05-09T09:14:06.363Z</time>
      </trkpt>
      <trkpt lat="47.87921" lon="6.91072">
        <ele>868</ele>
        <time>2026-05-09T09:14:07.364Z</time>
      </trkpt>
      <trkpt lat="47.87921" lon="6.91075">
        <ele>868</ele>
        <time>2026-05-09T09:14:08.364Z</time>
      </trkpt>
      <trkpt lat="47.87922" lon="6.91077">
        <ele>868</ele>
        <time>2026-05-09T09:14:09.363Z</time>
      </trkpt>
      <trkpt lat="47.87922" lon="6.91079">
        <ele>867</ele>
        <time>2026-05-09T09:14:10.363Z</time>
      </trkpt>
      <trkpt lat="47.87923" lon="6.91081">
        <ele>867</ele>
        <time>2026-05-09T09:14:11.364Z</time>
      </trkpt>
      <trkpt lat="47.87923" lon="6.91082">
        <ele>867</ele>
        <time>2026-05-09T09:14:12.364Z</time>
      </trkpt>
      <trkpt lat="47.87923" lon="6.91084">
        <ele>867</ele>
        <time>2026-05-09T09:14:13.364Z</time>
      </trkpt>
      <trkpt lat="47.87924" lon="6.91084">
        <ele>866</ele>
        <time>2026-05-09T09:14:14.363Z</time>
      </trkpt>
      <trkpt lat="47.87924" lon="6.91085">
        <ele>866</ele>
        <time>2026-05-09T09:14:15.364Z</time>
      </trkpt>
      <trkpt lat="47.87924" lon="6.91088">
        <ele>866</ele>
        <time>2026-05-09T09:14:16.363Z</time>
      </trkpt>
      <trkpt lat="47.87924" lon="6.91089">
        <ele>865</ele>
        <time>2026-05-09T09:14:17.364Z</time>
      </trkpt>
      <trkpt lat="47.87924" lon="6.91091">
        <ele>865</ele>
        <time>2026-05-09T09:14:18.363Z</time>
      </trkpt>
      <trkpt lat="47.87924" lon="6.91092">
        <ele>865</ele>
        <time>2026-05-09T09:14:19.364Z</time>
      </trkpt>
      <trkpt lat="47.87925" lon="6.91093">
        <ele>865</ele>
        <time>2026-05-09T09:14:20.363Z</time>
      </trkpt>
      <trkpt lat="47.87925" lon="6.91094">
        <ele>864</ele>
        <time>2026-05-09T09:14:21.363Z</time>
      </trkpt>
      <trkpt lat="47.87926" lon="6.91095">
        <ele>864</ele>
        <time>2026-05-09T09:14:22.364Z</time>
      </trkpt>
      <trkpt lat="47.87927" lon="6.91095">
        <ele>864</ele>
        <time>2026-05-09T09:14:23.363Z</time>
      </trkpt>
      <trkpt lat="47.87927" lon="6.91097">
        <ele>864</ele>
        <time>2026-05-09T09:14:24.363Z</time>
      </trkpt>
      <trkpt lat="47.87927" lon="6.91099">
        <ele>863</ele>
        <time>2026-05-09T09:14:25.364Z</time>
      </trkpt>
      <trkpt lat="47.87927" lon="6.91101">
        <ele>863</ele>
        <time>2026-05-09T09:14:26.363Z</time>
      </trkpt>
      <trkpt lat="47.87927" lon="6.91103">
        <ele>863</ele>
        <time>2026-05-09T09:14:27.363Z</time>
      </trkpt>
      <trkpt lat="47.87928" lon="6.91105">
        <ele>862</ele>
        <time>2026-05-09T09:14:28.364Z</time>
      </trkpt>
      <trkpt lat="47.87928" lon="6.91106">
        <ele>862</ele>
        <time>2026-05-09T09:14:29.363Z</time>
      </trkpt>
      <trkpt lat="47.87929" lon="6.91106">
        <ele>861</ele>
        <time>2026-05-09T09:14:30.364Z</time>
      </trkpt>
      <trkpt lat="47.87929" lon="6.91107">
        <ele>861</ele>
        <time>2026-05-09T09:14:31.363Z</time>
      </trkpt>
      <trkpt lat="47.87931" lon="6.91114">
        <ele>858</ele>
        <time>2026-05-09T09:14:36.811Z</time>
      </trkpt>
      <trkpt lat="47.87931" lon="6.91116">
        <ele>857</ele>
        <time>2026-05-09T09:14:37.810Z</time>
      </trkpt>
      <trkpt lat="47.87931" lon="6.91117">
        <ele>857</ele>
        <time>2026-05-09T09:14:38.811Z</time>
      </trkpt>
      <trkpt lat="47.87932" lon="6.91119">
        <ele>856</ele>
        <time>2026-05-09T09:14:39.810Z</time>
      </trkpt>
      <trkpt lat="47.87932" lon="6.91122">
        <ele>856</ele>
        <time>2026-05-09T09:14:40.811Z</time>
      </trkpt>
      <trkpt lat="47.87932" lon="6.91124">
        <ele>855</ele>
        <time>2026-05-09T09:14:41.811Z</time>
      </trkpt>
      <trkpt lat="47.87932" lon="6.91126">
        <ele>855</ele>
        <time>2026-05-09T09:14:42.810Z</time>
      </trkpt>
      <trkpt lat="47.87932" lon="6.91127">
        <ele>854</ele>
        <time>2026-05-09T09:14:43.811Z</time>
      </trkpt>
      <trkpt lat="47.87932" lon="6.91128">
        <ele>854</ele>
        <time>2026-05-09T09:14:44.810Z</time>
      </trkpt>
      <trkpt lat="47.87933" lon="6.91129">
        <ele>854</ele>
        <time>2026-05-09T09:14:45.810Z</time>
      </trkpt>
      <trkpt lat="47.87933" lon="6.9113">
        <ele>853</ele>
        <time>2026-05-09T09:14:46.811Z</time>
      </trkpt>
      <trkpt lat="47.87933" lon="6.91131">
        <ele>853</ele>
        <time>2026-05-09T09:14:47.810Z</time>
      </trkpt>
      <trkpt lat="47.87934" lon="6.91133">
        <ele>852</ele>
        <time>2026-05-09T09:14:48.811Z</time>
      </trkpt>
      <trkpt lat="47.87934" lon="6.91134">
        <ele>852</ele>
        <time>2026-05-09T09:14:49.810Z</time>
      </trkpt>
      <trkpt lat="47.87935" lon="6.91136">
        <ele>851</ele>
        <time>2026-05-09T09:14:50.810Z</time>
      </trkpt>
      <trkpt lat="47.87935" lon="6.91137">
        <ele>851</ele>
        <time>2026-05-09T09:14:51.810Z</time>
      </trkpt>
      <trkpt lat="47.87935" lon="6.91138">
        <ele>851</ele>
        <time>2026-05-09T09:14:52.810Z</time>
      </trkpt>
      <trkpt lat="47.87936" lon="6.9114">
        <ele>851</ele>
        <time>2026-05-09T09:14:53.810Z</time>
      </trkpt>
      <trkpt lat="47.87936" lon="6.91142">
        <ele>850</ele>
        <time>2026-05-09T09:14:54.810Z</time>
      </trkpt>
      <trkpt lat="47.87936" lon="6.91145">
        <ele>850</ele>
        <time>2026-05-09T09:14:55.811Z</time>
      </trkpt>
      <trkpt lat="47.87936" lon="6.91148">
        <ele>849</ele>
        <time>2026-05-09T09:14:56.810Z</time>
      </trkpt>
      <trkpt lat="47.87936" lon="6.91151">
        <ele>849</ele>
        <time>2026-05-09T09:14:57.811Z</time>
      </trkpt>
      <trkpt lat="47.87937" lon="6.91154">
        <ele>849</ele>
        <time>2026-05-09T09:14:58.811Z</time>
      </trkpt>
      <trkpt lat="47.87937" lon="6.91156">
        <ele>848</ele>
        <time>2026-05-09T09:14:59.810Z</time>
      </trkpt>
      <trkpt lat="47.87937" lon="6.91159">
        <ele>848</ele>
        <time>2026-05-09T09:15:00.811Z</time>
      </trkpt>
      <trkpt lat="47.87937" lon="6.91161">
        <ele>848</ele>
        <time>2026-05-09T09:15:01.811Z</time>
      </trkpt>
      <trkpt lat="47.87938" lon="6.91163">
        <ele>848</ele>
        <time>2026-05-09T09:15:02.810Z</time>
      </trkpt>
      <trkpt lat="47.87938" lon="6.91166">
        <ele>847</ele>
        <time>2026-05-09T09:15:03.811Z</time>
      </trkpt>
      <trkpt lat="47.87939" lon="6.91168">
        <ele>847</ele>
        <time>2026-05-09T09:15:04.811Z</time>
      </trkpt>
      <trkpt lat="47.8794" lon="6.91169">
        <ele>847</ele>
        <time>2026-05-09T09:15:05.811Z</time>
      </trkpt>
      <trkpt lat="47.8794" lon="6.91171">
        <ele>847</ele>
        <time>2026-05-09T09:15:06.811Z</time>
      </trkpt>
      <trkpt lat="47.8794" lon="6.91172">
        <ele>846</ele>
        <time>2026-05-09T09:15:07.811Z</time>
      </trkpt>
      <trkpt lat="47.87941" lon="6.91174">
        <ele>846</ele>
        <time>2026-05-09T09:15:08.810Z</time>
      </trkpt>
      <trkpt lat="47.87941" lon="6.91175">
        <ele>846</ele>
        <time>2026-05-09T09:15:09.810Z</time>
      </trkpt>
      <trkpt lat="47.87941" lon="6.91177">
        <ele>846</ele>
        <time>2026-05-09T09:15:10.811Z</time>
      </trkpt>
      <trkpt lat="47.87941" lon="6.91179">
        <ele>845</ele>
        <time>2026-05-09T09:15:11.810Z</time>
      </trkpt>
      <trkpt lat="47.87941" lon="6.91182">
        <ele>845</ele>
        <time>2026-05-09T09:15:12.810Z</time>
      </trkpt>
      <trkpt lat="47.87941" lon="6.91184">
        <ele>845</ele>
        <time>2026-05-09T09:15:13.810Z</time>
      </trkpt>
      <trkpt lat="47.87941" lon="6.91185">
        <ele>844</ele>
        <time>2026-05-09T09:15:14.810Z</time>
      </trkpt>
      <trkpt lat="47.87941" lon="6.91188">
        <ele>844</ele>
        <time>2026-05-09T09:15:15.811Z</time>
      </trkpt>
      <trkpt lat="47.87941" lon="6.91189">
        <ele>844</ele>
        <time>2026-05-09T09:15:16.810Z</time>
      </trkpt>
      <trkpt lat="47.87941" lon="6.91191">
        <ele>844</ele>
        <time>2026-05-09T09:15:17.810Z</time>
      </trkpt>
      <trkpt lat="47.87941" lon="6.91194">
        <ele>843</ele>
        <time>2026-05-09T09:15:18.810Z</time>
      </trkpt>
      <trkpt lat="47.87941" lon="6.91196">
        <ele>843</ele>
        <time>2026-05-09T09:15:19.810Z</time>
      </trkpt>
      <trkpt lat="47.87942" lon="6.91198">
        <ele>843</ele>
        <time>2026-05-09T09:15:20.811Z</time>
      </trkpt>
      <trkpt lat="47.87942" lon="6.912">
        <ele>843</ele>
        <time>2026-05-09T09:15:21.810Z</time>
      </trkpt>
      <trkpt lat="47.87942" lon="6.912">
        <ele>843</ele>
        <time>2026-05-09T09:15:22.811Z</time>
      </trkpt>
      <trkpt lat="47.87942" lon="6.91201">
        <ele>843</ele>
        <time>2026-05-09T09:15:23.810Z</time>
      </trkpt>
      <trkpt lat="47.87943" lon="6.91202">
        <ele>842</ele>
        <time>2026-05-09T09:15:24.811Z</time>
      </trkpt>
      <trkpt lat="47.87943" lon="6.91204">
        <ele>842</ele>
        <time>2026-05-09T09:15:25.810Z</time>
      </trkpt>
      <trkpt lat="47.87943" lon="6.91207">
        <ele>842</ele>
        <time>2026-05-09T09:15:26.811Z</time>
      </trkpt>
      <trkpt lat="47.87943" lon="6.91209">
        <ele>842</ele>
        <time>2026-05-09T09:15:27.811Z</time>
      </trkpt>
      <trkpt lat="47.87943" lon="6.91211">
        <ele>842</ele>
        <time>2026-05-09T09:15:28.811Z</time>
      </trkpt>
      <trkpt lat="47.87944" lon="6.91212">
        <ele>843</ele>
        <time>2026-05-09T09:15:29.810Z</time>
      </trkpt>
      <trkpt lat="47.87944" lon="6.91214">
        <ele>843</ele>
        <time>2026-05-09T09:15:30.810Z</time>
      </trkpt>
      <trkpt lat="47.87943" lon="6.91216">
        <ele>843</ele>
        <time>2026-05-09T09:15:31.810Z</time>
      </trkpt>
      <trkpt lat="47.87943" lon="6.91218">
        <ele>844</ele>
        <time>2026-05-09T09:15:32.810Z</time>
      </trkpt>
      <trkpt lat="47.87943" lon="6.91222">
        <ele>844</ele>
        <time>2026-05-09T09:15:33.810Z</time>
      </trkpt>
      <trkpt lat="47.87943" lon="6.91225">
        <ele>844</ele>
        <time>2026-05-09T09:15:34.811Z</time>
      </trkpt>
      <trkpt lat="47.87942" lon="6.91229">
        <ele>844</ele>
        <time>2026-05-09T09:15:35.810Z</time>
      </trkpt>
      <trkpt lat="47.87942" lon="6.91233">
        <ele>845</ele>
        <time>2026-05-09T09:15:36.810Z</time>
      </trkpt>
      <trkpt lat="47.87942" lon="6.91237">
        <ele>845</ele>
        <time>2026-05-09T09:15:37.810Z</time>
      </trkpt>
      <trkpt lat="47.87941" lon="6.91241">
        <ele>846</ele>
        <time>2026-05-09T09:15:38.810Z</time>
      </trkpt>
      <trkpt lat="47.87941" lon="6.91245">
        <ele>846</ele>
        <time>2026-05-09T09:15:39.810Z</time>
      </trkpt>
      <trkpt lat="47.87941" lon="6.91249">
        <ele>846</ele>
        <time>2026-05-09T09:15:40.810Z</time>
      </trkpt>
      <trkpt lat="47.8794" lon="6.91253">
        <ele>846</ele>
        <time>2026-05-09T09:15:41.810Z</time>
      </trkpt>
      <trkpt lat="47.8794" lon="6.91257">
        <ele>847</ele>
        <time>2026-05-09T09:15:42.811Z</time>
      </trkpt>
      <trkpt lat="47.87939" lon="6.91261">
        <ele>847</ele>
        <time>2026-05-09T09:15:43.810Z</time>
      </trkpt>
      <trkpt lat="47.87938" lon="6.91265">
        <ele>847</ele>
        <time>2026-05-09T09:15:44.811Z</time>
      </trkpt>
      <trkpt lat="47.87938" lon="6.91267">
        <ele>846</ele>
        <time>2026-05-09T09:15:45.810Z</time>
      </trkpt>
      <trkpt lat="47.87938" lon="6.91268">
        <ele>846</ele>
        <time>2026-05-09T09:15:46.811Z</time>
      </trkpt>
      <trkpt lat="47.87938" lon="6.9127">
        <ele>846</ele>
        <time>2026-05-09T09:15:47.810Z</time>
      </trkpt>
      <trkpt lat="47.87938" lon="6.91272">
        <ele>846</ele>
        <time>2026-05-09T09:15:48.811Z</time>
      </trkpt>
      <trkpt lat="47.87938" lon="6.91272">
        <ele>846</ele>
        <time>2026-05-09T09:15:49.810Z</time>
      </trkpt>
      <trkpt lat="47.87938" lon="6.91272">
        <ele>845</ele>
        <time>2026-05-09T09:15:50.811Z</time>
      </trkpt>
      <trkpt lat="47.87938" lon="6.91273">
        <ele>845</ele>
        <time>2026-05-09T09:15:51.810Z</time>
      </trkpt>
      <trkpt lat="47.87937" lon="6.91281">
        <ele>844</ele>
        <time>2026-05-09T09:15:58.128Z</time>
      </trkpt>
      <trkpt lat="47.87937" lon="6.91283">
        <ele>844</ele>
        <time>2026-05-09T09:15:59.128Z</time>
      </trkpt>
      <trkpt lat="47.87938" lon="6.91285">
        <ele>844</ele>
        <time>2026-05-09T09:16:00.128Z</time>
      </trkpt>
      <trkpt lat="47.87938" lon="6.91287">
        <ele>844</ele>
        <time>2026-05-09T09:16:01.127Z</time>
      </trkpt>
      <trkpt lat="47.87938" lon="6.91289">
        <ele>844</ele>
        <time>2026-05-09T09:16:02.127Z</time>
      </trkpt>
      <trkpt lat="47.87938" lon="6.91291">
        <ele>844</ele>
        <time>2026-05-09T09:16:03.127Z</time>
      </trkpt>
      <trkpt lat="47.87939" lon="6.91293">
        <ele>844</ele>
        <time>2026-05-09T09:16:04.128Z</time>
      </trkpt>
      <trkpt lat="47.87939" lon="6.91295">
        <ele>844</ele>
        <time>2026-05-09T09:16:05.127Z</time>
      </trkpt>
      <trkpt lat="47.87939" lon="6.91297">
        <ele>844</ele>
        <time>2026-05-09T09:16:06.128Z</time>
      </trkpt>
      <trkpt lat="47.87938" lon="6.91299">
        <ele>845</ele>
        <time>2026-05-09T09:16:07.127Z</time>
      </trkpt>
      <trkpt lat="47.87938" lon="6.91301">
        <ele>845</ele>
        <time>2026-05-09T09:16:08.127Z</time>
      </trkpt>
      <trkpt lat="47.87938" lon="6.91304">
        <ele>845</ele>
        <time>2026-05-09T09:16:09.128Z</time>
      </trkpt>
      <trkpt lat="47.87938" lon="6.91306">
        <ele>845</ele>
        <time>2026-05-09T09:16:10.128Z</time>
      </trkpt>
      <trkpt lat="47.87938" lon="6.91307">
        <ele>845</ele>
        <time>2026-05-09T09:16:11.128Z</time>
      </trkpt>
      <trkpt lat="47.87938" lon="6.91309">
        <ele>845</ele>
        <time>2026-05-09T09:16:12.127Z</time>
      </trkpt>
      <trkpt lat="47.87938" lon="6.91312">
        <ele>845</ele>
        <time>2026-05-09T09:16:13.127Z</time>
      </trkpt>
      <trkpt lat="47.87937" lon="6.91315">
        <ele>845</ele>
        <time>2026-05-09T09:16:14.128Z</time>
      </trkpt>
      <trkpt lat="47.87936" lon="6.91317">
        <ele>846</ele>
        <time>2026-05-09T09:16:15.128Z</time>
      </trkpt>
      <trkpt lat="47.87936" lon="6.91319">
        <ele>846</ele>
        <time>2026-05-09T09:16:16.128Z</time>
      </trkpt>
      <trkpt lat="47.87936" lon="6.91321">
        <ele>846</ele>
        <time>2026-05-09T09:16:17.128Z</time>
      </trkpt>
      <trkpt lat="47.87935" lon="6.91324">
        <ele>846</ele>
        <time>2026-05-09T09:16:18.127Z</time>
      </trkpt>
      <trkpt lat="47.87935" lon="6.91327">
        <ele>846</ele>
        <time>2026-05-09T09:16:19.128Z</time>
      </trkpt>
      <trkpt lat="47.87935" lon="6.9133">
        <ele>846</ele>
        <time>2026-05-09T09:16:20.128Z</time>
      </trkpt>
      <trkpt lat="47.87935" lon="6.91333">
        <ele>847</ele>
        <time>2026-05-09T09:16:21.127Z</time>
      </trkpt>
      <trkpt lat="47.87935" lon="6.91336">
        <ele>847</ele>
        <time>2026-05-09T09:16:22.128Z</time>
      </trkpt>
      <trkpt lat="47.87935" lon="6.91339">
        <ele>847</ele>
        <time>2026-05-09T09:16:23.128Z</time>
      </trkpt>
      <trkpt lat="47.87935" lon="6.91341">
        <ele>847</ele>
        <time>2026-05-09T09:16:24.128Z</time>
      </trkpt>
      <trkpt lat="47.87934" lon="6.91344">
        <ele>848</ele>
        <time>2026-05-09T09:16:25.128Z</time>
      </trkpt>
      <trkpt lat="47.87934" lon="6.91346">
        <ele>848</ele>
        <time>2026-05-09T09:16:26.128Z</time>
      </trkpt>
      <trkpt lat="47.87934" lon="6.91349">
        <ele>848</ele>
        <time>2026-05-09T09:16:27.128Z</time>
      </trkpt>
      <trkpt lat="47.87934" lon="6.91351">
        <ele>848</ele>
        <time>2026-05-09T09:16:28.128Z</time>
      </trkpt>
      <trkpt lat="47.87935" lon="6.91354">
        <ele>849</ele>
        <time>2026-05-09T09:16:29.128Z</time>
      </trkpt>
      <trkpt lat="47.87935" lon="6.91357">
        <ele>849</ele>
        <time>2026-05-09T09:16:30.128Z</time>
      </trkpt>
      <trkpt lat="47.87935" lon="6.9136">
        <ele>849</ele>
        <time>2026-05-09T09:16:31.128Z</time>
      </trkpt>
      <trkpt lat="47.87935" lon="6.91362">
        <ele>850</ele>
        <time>2026-05-09T09:16:32.128Z</time>
      </trkpt>
      <trkpt lat="47.87934" lon="6.91364">
        <ele>850</ele>
        <time>2026-05-09T09:16:33.127Z</time>
      </trkpt>
      <trkpt lat="47.87934" lon="6.91367">
        <ele>850</ele>
        <time>2026-05-09T09:16:34.127Z</time>
      </trkpt>
      <trkpt lat="47.87934" lon="6.91369">
        <ele>851</ele>
        <time>2026-05-09T09:16:35.127Z</time>
      </trkpt>
      <trkpt lat="47.87934" lon="6.91372">
        <ele>851</ele>
        <time>2026-05-09T09:16:36.128Z</time>
      </trkpt>
      <trkpt lat="47.87934" lon="6.91373">
        <ele>851</ele>
        <time>2026-05-09T09:16:37.128Z</time>
      </trkpt>
      <trkpt lat="47.87934" lon="6.91375">
        <ele>851</ele>
        <time>2026-05-09T09:16:38.128Z</time>
      </trkpt>
      <trkpt lat="47.87934" lon="6.91377">
        <ele>851</ele>
        <time>2026-05-09T09:16:39.127Z</time>
      </trkpt>
      <trkpt lat="47.87934" lon="6.91378">
        <ele>852</ele>
        <time>2026-05-09T09:16:40.127Z</time>
      </trkpt>
      <trkpt lat="47.87933" lon="6.91381">
        <ele>852</ele>
        <time>2026-05-09T09:16:41.127Z</time>
      </trkpt>
      <trkpt lat="47.87933" lon="6.91384">
        <ele>852</ele>
        <time>2026-05-09T09:16:42.127Z</time>
      </trkpt>
      <trkpt lat="47.87933" lon="6.91387">
        <ele>852</ele>
        <time>2026-05-09T09:16:43.128Z</time>
      </trkpt>
      <trkpt lat="47.87933" lon="6.91389">
        <ele>852</ele>
        <time>2026-05-09T09:16:44.128Z</time>
      </trkpt>
      <trkpt lat="47.87933" lon="6.91392">
        <ele>852</ele>
        <time>2026-05-09T09:16:45.127Z</time>
      </trkpt>
      <trkpt lat="47.87933" lon="6.91395">
        <ele>853</ele>
        <time>2026-05-09T09:16:46.128Z</time>
      </trkpt>
      <trkpt lat="47.87934" lon="6.91397">
        <ele>853</ele>
        <time>2026-05-09T09:16:47.128Z</time>
      </trkpt>
      <trkpt lat="47.87934" lon="6.91399">
        <ele>853</ele>
        <time>2026-05-09T09:16:48.127Z</time>
      </trkpt>
      <trkpt lat="47.87934" lon="6.91402">
        <ele>853</ele>
        <time>2026-05-09T09:16:49.127Z</time>
      </trkpt>
      <trkpt lat="47.87934" lon="6.91402">
        <ele>854</ele>
        <time>2026-05-09T09:16:50.128Z</time>
      </trkpt>
      <trkpt lat="47.87934" lon="6.91403">
        <ele>854</ele>
        <time>2026-05-09T09:16:51.128Z</time>
      </trkpt>
      <trkpt lat="47.87934" lon="6.91405">
        <ele>854</ele>
        <time>2026-05-09T09:16:52.127Z</time>
      </trkpt>
      <trkpt lat="47.87934" lon="6.91407">
        <ele>854</ele>
        <time>2026-05-09T09:16:53.128Z</time>
      </trkpt>
      <trkpt lat="47.87934" lon="6.91409">
        <ele>854</ele>
        <time>2026-05-09T09:16:54.127Z</time>
      </trkpt>
      <trkpt lat="47.87934" lon="6.91411">
        <ele>854</ele>
        <time>2026-05-09T09:16:55.128Z</time>
      </trkpt>
      <trkpt lat="47.87934" lon="6.91412">
        <ele>854</ele>
        <time>2026-05-09T09:16:56.127Z</time>
      </trkpt>
      <trkpt lat="47.87934" lon="6.91415">
        <ele>854</ele>
        <time>2026-05-09T09:16:57.127Z</time>
      </trkpt>
      <trkpt lat="47.87934" lon="6.91417">
        <ele>854</ele>
        <time>2026-05-09T09:16:58.127Z</time>
      </trkpt>
      <trkpt lat="47.87935" lon="6.91418">
        <ele>854</ele>
        <time>2026-05-09T09:16:59.128Z</time>
      </trkpt>
      <trkpt lat="47.87936" lon="6.91419">
        <ele>855</ele>
        <time>2026-05-09T09:17:00.128Z</time>
      </trkpt>
      <trkpt lat="47.87936" lon="6.91421">
        <ele>855</ele>
        <time>2026-05-09T09:17:01.128Z</time>
      </trkpt>
      <trkpt lat="47.87937" lon="6.91423">
        <ele>855</ele>
        <time>2026-05-09T09:17:02.128Z</time>
      </trkpt>
      <trkpt lat="47.87937" lon="6.91425">
        <ele>855</ele>
        <time>2026-05-09T09:17:03.128Z</time>
      </trkpt>
      <trkpt lat="47.87937" lon="6.91427">
        <ele>855</ele>
        <time>2026-05-09T09:17:04.127Z</time>
      </trkpt>
      <trkpt lat="47.87938" lon="6.91429">
        <ele>856</ele>
        <time>2026-05-09T09:17:05.127Z</time>
      </trkpt>
      <trkpt lat="47.87938" lon="6.91432">
        <ele>856</ele>
        <time>2026-05-09T09:17:06.128Z</time>
      </trkpt>
      <trkpt lat="47.87939" lon="6.91433">
        <ele>856</ele>
        <time>2026-05-09T09:17:07.128Z</time>
      </trkpt>
      <trkpt lat="47.87939" lon="6.91436">
        <ele>856</ele>
        <time>2026-05-09T09:17:08.128Z</time>
      </trkpt>
      <trkpt lat="47.87939" lon="6.91438">
        <ele>856</ele>
        <time>2026-05-09T09:17:09.128Z</time>
      </trkpt>
      <trkpt lat="47.8794" lon="6.9144">
        <ele>856</ele>
        <time>2026-05-09T09:17:10.128Z</time>
      </trkpt>
      <trkpt lat="47.87939" lon="6.91443">
        <ele>856</ele>
        <time>2026-05-09T09:17:11.127Z</time>
      </trkpt>
      <trkpt lat="47.87939" lon="6.91445">
        <ele>856</ele>
        <time>2026-05-09T09:17:12.127Z</time>
      </trkpt>
      <trkpt lat="47.87939" lon="6.91447">
        <ele>856</ele>
        <time>2026-05-09T09:17:13.127Z</time>
      </trkpt>
      <trkpt lat="47.87938" lon="6.9145">
        <ele>856</ele>
        <time>2026-05-09T09:17:14.128Z</time>
      </trkpt>
      <trkpt lat="47.87938" lon="6.91452">
        <ele>856</ele>
        <time>2026-05-09T09:17:15.128Z</time>
      </trkpt>
      <trkpt lat="47.87938" lon="6.91454">
        <ele>856</ele>
        <time>2026-05-09T09:17:16.128Z</time>
      </trkpt>
      <trkpt lat="47.87938" lon="6.91457">
        <ele>856</ele>
        <time>2026-05-09T09:17:17.128Z</time>
      </trkpt>
      <trkpt lat="47.87938" lon="6.91458">
        <ele>856</ele>
        <time>2026-05-09T09:17:18.127Z</time>
      </trkpt>
      <trkpt lat="47.87938" lon="6.9146">
        <ele>856</ele>
        <time>2026-05-09T09:17:19.127Z</time>
      </trkpt>
      <trkpt lat="47.87938" lon="6.91462">
        <ele>856</ele>
        <time>2026-05-09T09:17:20.128Z</time>
      </trkpt>
      <trkpt lat="47.87938" lon="6.91464">
        <ele>856</ele>
        <time>2026-05-09T09:17:21.128Z</time>
      </trkpt>
      <trkpt lat="47.87938" lon="6.91467">
        <ele>856</ele>
        <time>2026-05-09T09:17:22.128Z</time>
      </trkpt>
      <trkpt lat="47.87938" lon="6.91469">
        <ele>856</ele>
        <time>2026-05-09T09:17:23.128Z</time>
      </trkpt>
      <trkpt lat="47.87938" lon="6.91471">
        <ele>856</ele>
        <time>2026-05-09T09:17:24.128Z</time>
      </trkpt>
      <trkpt lat="47.87938" lon="6.91473">
        <ele>856</ele>
        <time>2026-05-09T09:17:25.128Z</time>
      </trkpt>
      <trkpt lat="47.87938" lon="6.91475">
        <ele>856</ele>
        <time>2026-05-09T09:17:26.128Z</time>
      </trkpt>
      <trkpt lat="47.87938" lon="6.91477">
        <ele>856</ele>
        <time>2026-05-09T09:17:27.128Z</time>
      </trkpt>
      <trkpt lat="47.87938" lon="6.91478">
        <ele>856</ele>
        <time>2026-05-09T09:17:28.128Z</time>
      </trkpt>
      <trkpt lat="47.87938" lon="6.9148">
        <ele>856</ele>
        <time>2026-05-09T09:17:29.127Z</time>
      </trkpt>
      <trkpt lat="47.87938" lon="6.91483">
        <ele>855</ele>
        <time>2026-05-09T09:17:30.128Z</time>
      </trkpt>
      <trkpt lat="47.87938" lon="6.91484">
        <ele>855</ele>
        <time>2026-05-09T09:17:31.127Z</time>
      </trkpt>
      <trkpt lat="47.87938" lon="6.91486">
        <ele>855</ele>
        <time>2026-05-09T09:17:32.127Z</time>
      </trkpt>
      <trkpt lat="47.87938" lon="6.91488">
        <ele>854</ele>
        <time>2026-05-09T09:17:33.127Z</time>
      </trkpt>
      <trkpt lat="47.87938" lon="6.91489">
        <ele>854</ele>
        <time>2026-05-09T09:17:34.127Z</time>
      </trkpt>
      <trkpt lat="47.87938" lon="6.91491">
        <ele>854</ele>
        <time>2026-05-09T09:17:35.127Z</time>
      </trkpt>
      <trkpt lat="47.87938" lon="6.91493">
        <ele>853</ele>
        <time>2026-05-09T09:17:36.128Z</time>
      </trkpt>
      <trkpt lat="47.87938" lon="6.91495">
        <ele>853</ele>
        <time>2026-05-09T09:17:37.128Z</time>
      </trkpt>
      <trkpt lat="47.87938" lon="6.91497">
        <ele>853</ele>
        <time>2026-05-09T09:17:38.128Z</time>
      </trkpt>
      <trkpt lat="47.87939" lon="6.91499">
        <ele>852</ele>
        <time>2026-05-09T09:17:39.128Z</time>
      </trkpt>
      <trkpt lat="47.87939" lon="6.91501">
        <ele>852</ele>
        <time>2026-05-09T09:17:40.128Z</time>
      </trkpt>
      <trkpt lat="47.87938" lon="6.91504">
        <ele>852</ele>
        <time>2026-05-09T09:17:41.128Z</time>
      </trkpt>
      <trkpt lat="47.87938" lon="6.91508">
        <ele>851</ele>
        <time>2026-05-09T09:17:42.128Z</time>
      </trkpt>
      <trkpt lat="47.87938" lon="6.91511">
        <ele>851</ele>
        <time>2026-05-09T09:17:43.127Z</time>
      </trkpt>
      <trkpt lat="47.87938" lon="6.91513">
        <ele>851</ele>
        <time>2026-05-09T09:17:44.127Z</time>
      </trkpt>
      <trkpt lat="47.87938" lon="6.91515">
        <ele>851</ele>
        <time>2026-05-09T09:17:45.127Z</time>
      </trkpt>
      <trkpt lat="47.87938" lon="6.91518">
        <ele>850</ele>
        <time>2026-05-09T09:17:46.127Z</time>
      </trkpt>
      <trkpt lat="47.87939" lon="6.91521">
        <ele>850</ele>
        <time>2026-05-09T09:17:47.127Z</time>
      </trkpt>
      <trkpt lat="47.87939" lon="6.91523">
        <ele>850</ele>
        <time>2026-05-09T09:17:48.127Z</time>
      </trkpt>
      <trkpt lat="47.87939" lon="6.91525">
        <ele>850</ele>
        <time>2026-05-09T09:17:49.127Z</time>
      </trkpt>
      <trkpt lat="47.87939" lon="6.91528">
        <ele>850</ele>
        <time>2026-05-09T09:17:50.128Z</time>
      </trkpt>
      <trkpt lat="47.87939" lon="6.9153">
        <ele>849</ele>
        <time>2026-05-09T09:17:51.127Z</time>
      </trkpt>
      <trkpt lat="47.87939" lon="6.91533">
        <ele>849</ele>
        <time>2026-05-09T09:17:52.128Z</time>
      </trkpt>
      <trkpt lat="47.87938" lon="6.91535">
        <ele>849</ele>
        <time>2026-05-09T09:17:53.127Z</time>
      </trkpt>
      <trkpt lat="47.87938" lon="6.91538">
        <ele>849</ele>
        <time>2026-05-09T09:17:54.128Z</time>
      </trkpt>
      <trkpt lat="47.87937" lon="6.9154">
        <ele>849</ele>
        <time>2026-05-09T09:17:55.127Z</time>
      </trkpt>
      <trkpt lat="47.87937" lon="6.91542">
        <ele>849</ele>
        <time>2026-05-09T09:17:56.128Z</time>
      </trkpt>
      <trkpt lat="47.87937" lon="6.91544">
        <ele>849</ele>
        <time>2026-05-09T09:17:57.127Z</time>
      </trkpt>
      <trkpt lat="47.87937" lon="6.91547">
        <ele>849</ele>
        <time>2026-05-09T09:17:58.128Z</time>
      </trkpt>
      <trkpt lat="47.87937" lon="6.9155">
        <ele>849</ele>
        <time>2026-05-09T09:17:59.128Z</time>
      </trkpt>
      <trkpt lat="47.87937" lon="6.91552">
        <ele>848</ele>
        <time>2026-05-09T09:18:00.127Z</time>
      </trkpt>
      <trkpt lat="47.87937" lon="6.91554">
        <ele>848</ele>
        <time>2026-05-09T09:18:01.127Z</time>
      </trkpt>
      <trkpt lat="47.87938" lon="6.91555">
        <ele>848</ele>
        <time>2026-05-09T09:18:02.127Z</time>
      </trkpt>
      <trkpt lat="47.87939" lon="6.91556">
        <ele>848</ele>
        <time>2026-05-09T09:18:03.127Z</time>
      </trkpt>
      <trkpt lat="47.87939" lon="6.91557">
        <ele>848</ele>
        <time>2026-05-09T09:18:04.127Z</time>
      </trkpt>
      <trkpt lat="47.8794" lon="6.91559">
        <ele>847</ele>
        <time>2026-05-09T09:18:05.127Z</time>
      </trkpt>
      <trkpt lat="47.8794" lon="6.91561">
        <ele>847</ele>
        <time>2026-05-09T09:18:06.127Z</time>
      </trkpt>
      <trkpt lat="47.8794" lon="6.91564">
        <ele>847</ele>
        <time>2026-05-09T09:18:07.128Z</time>
      </trkpt>
      <trkpt lat="47.87941" lon="6.91566">
        <ele>847</ele>
        <time>2026-05-09T09:18:08.127Z</time>
      </trkpt>
      <trkpt lat="47.87942" lon="6.91568">
        <ele>847</ele>
        <time>2026-05-09T09:18:09.128Z</time>
      </trkpt>
      <trkpt lat="47.87942" lon="6.9157">
        <ele>847</ele>
        <time>2026-05-09T09:18:10.128Z</time>
      </trkpt>
      <trkpt lat="47.87942" lon="6.91572">
        <ele>846</ele>
        <time>2026-05-09T09:18:11.128Z</time>
      </trkpt>
      <trkpt lat="47.87943" lon="6.91574">
        <ele>846</ele>
        <time>2026-05-09T09:18:12.128Z</time>
      </trkpt>
      <trkpt lat="47.87943" lon="6.91575">
        <ele>846</ele>
        <time>2026-05-09T09:18:13.128Z</time>
      </trkpt>
      <trkpt lat="47.87944" lon="6.91577">
        <ele>846</ele>
        <time>2026-05-09T09:18:14.128Z</time>
      </trkpt>
      <trkpt lat="47.87943" lon="6.91579">
        <ele>846</ele>
        <time>2026-05-09T09:18:15.127Z</time>
      </trkpt>
      <trkpt lat="47.87943" lon="6.91581">
        <ele>846</ele>
        <time>2026-05-09T09:18:16.127Z</time>
      </trkpt>
      <trkpt lat="47.87943" lon="6.91584">
        <ele>846</ele>
        <time>2026-05-09T09:18:17.127Z</time>
      </trkpt>
      <trkpt lat="47.87943" lon="6.91586">
        <ele>846</ele>
        <time>2026-05-09T09:18:18.128Z</time>
      </trkpt>
      <trkpt lat="47.87943" lon="6.91589">
        <ele>846</ele>
        <time>2026-05-09T09:18:19.128Z</time>
      </trkpt>
      <trkpt lat="47.87944" lon="6.91592">
        <ele>846</ele>
        <time>2026-05-09T09:18:20.128Z</time>
      </trkpt>
      <trkpt lat="47.87944" lon="6.91595">
        <ele>846</ele>
        <time>2026-05-09T09:18:21.128Z</time>
      </trkpt>
      <trkpt lat="47.87944" lon="6.91599">
        <ele>846</ele>
        <time>2026-05-09T09:18:22.128Z</time>
      </trkpt>
      <trkpt lat="47.87945" lon="6.91604">
        <ele>846</ele>
        <time>2026-05-09T09:18:23.128Z</time>
      </trkpt>
      <trkpt lat="47.87947" lon="6.91608">
        <ele>846</ele>
        <time>2026-05-09T09:18:24.128Z</time>
      </trkpt>
      <trkpt lat="47.87948" lon="6.91612">
        <ele>846</ele>
        <time>2026-05-09T09:18:25.128Z</time>
      </trkpt>
      <trkpt lat="47.87948" lon="6.91615">
        <ele>846</ele>
        <time>2026-05-09T09:18:26.127Z</time>
      </trkpt>
      <trkpt lat="47.87948" lon="6.91617">
        <ele>846</ele>
        <time>2026-05-09T09:18:27.127Z</time>
      </trkpt>
      <trkpt lat="47.87949" lon="6.91619">
        <ele>846</ele>
        <time>2026-05-09T09:18:28.127Z</time>
      </trkpt>
      <trkpt lat="47.87952" lon="6.9162">
        <ele>846</ele>
        <time>2026-05-09T09:18:29.127Z</time>
      </trkpt>
      <trkpt lat="47.87955" lon="6.91622">
        <ele>846</ele>
        <time>2026-05-09T09:18:30.127Z</time>
      </trkpt>
      <trkpt lat="47.87957" lon="6.91623">
        <ele>845</ele>
        <time>2026-05-09T09:18:31.127Z</time>
      </trkpt>
      <trkpt lat="47.87958" lon="6.91626">
        <ele>845</ele>
        <time>2026-05-09T09:18:32.127Z</time>
      </trkpt>
      <trkpt lat="47.87959" lon="6.91626">
        <ele>845</ele>
        <time>2026-05-09T09:18:33.127Z</time>
      </trkpt>
      <trkpt lat="47.8796" lon="6.91628">
        <ele>845</ele>
        <time>2026-05-09T09:18:34.128Z</time>
      </trkpt>
      <trkpt lat="47.8796" lon="6.91629">
        <ele>845</ele>
        <time>2026-05-09T09:18:35.128Z</time>
      </trkpt>
      <trkpt lat="47.87961" lon="6.91629">
        <ele>845</ele>
        <time>2026-05-09T09:18:36.128Z</time>
      </trkpt>
      <trkpt lat="47.87962" lon="6.91628">
        <ele>845</ele>
        <time>2026-05-09T09:18:37.128Z</time>
      </trkpt>
      <trkpt lat="47.87963" lon="6.91627">
        <ele>844</ele>
        <time>2026-05-09T09:18:38.128Z</time>
      </trkpt>
      <trkpt lat="47.87965" lon="6.91627">
        <ele>844</ele>
        <time>2026-05-09T09:18:39.128Z</time>
      </trkpt>
      <trkpt lat="47.87966" lon="6.91627">
        <ele>844</ele>
        <time>2026-05-09T09:18:40.128Z</time>
      </trkpt>
      <trkpt lat="47.87967" lon="6.91628">
        <ele>844</ele>
        <time>2026-05-09T09:18:41.128Z</time>
      </trkpt>
      <trkpt lat="47.87968" lon="6.91628">
        <ele>843</ele>
        <time>2026-05-09T09:18:42.127Z</time>
      </trkpt>
      <trkpt lat="47.8797" lon="6.91629">
        <ele>843</ele>
        <time>2026-05-09T09:18:43.127Z</time>
      </trkpt>
      <trkpt lat="47.87971" lon="6.91629">
        <ele>843</ele>
        <time>2026-05-09T09:18:44.127Z</time>
      </trkpt>
      <trkpt lat="47.87972" lon="6.9163">
        <ele>842</ele>
        <time>2026-05-09T09:18:45.127Z</time>
      </trkpt>
      <trkpt lat="47.87972" lon="6.91632">
        <ele>842</ele>
        <time>2026-05-09T09:18:46.127Z</time>
      </trkpt>
      <trkpt lat="47.87973" lon="6.91634">
        <ele>842</ele>
        <time>2026-05-09T09:18:47.127Z</time>
      </trkpt>
      <trkpt lat="47.87974" lon="6.91636">
        <ele>842</ele>
        <time>2026-05-09T09:18:48.127Z</time>
      </trkpt>
      <trkpt lat="47.87976" lon="6.91636">
        <ele>842</ele>
        <time>2026-05-09T09:18:49.128Z</time>
      </trkpt>
      <trkpt lat="47.87977" lon="6.91638">
        <ele>842</ele>
        <time>2026-05-09T09:18:50.128Z</time>
      </trkpt>
      <trkpt lat="47.87977" lon="6.91639">
        <ele>842</ele>
        <time>2026-05-09T09:18:51.128Z</time>
      </trkpt>
      <trkpt lat="47.87977" lon="6.91641">
        <ele>841</ele>
        <time>2026-05-09T09:18:52.127Z</time>
      </trkpt>
      <trkpt lat="47.87978" lon="6.9164">
        <ele>841</ele>
        <time>2026-05-09T09:18:53.128Z</time>
      </trkpt>
      <trkpt lat="47.8798" lon="6.91638">
        <ele>841</ele>
        <time>2026-05-09T09:18:54.128Z</time>
      </trkpt>
      <trkpt lat="47.87981" lon="6.91639">
        <ele>841</ele>
        <time>2026-05-09T09:18:55.127Z</time>
      </trkpt>
      <trkpt lat="47.87982" lon="6.91639">
        <ele>841</ele>
        <time>2026-05-09T09:18:56.127Z</time>
      </trkpt>
      <trkpt lat="47.87981" lon="6.91641">
        <ele>841</ele>
        <time>2026-05-09T09:18:57.128Z</time>
      </trkpt>
      <trkpt lat="47.87982" lon="6.91643">
        <ele>840</ele>
        <time>2026-05-09T09:18:58.128Z</time>
      </trkpt>
      <trkpt lat="47.87984" lon="6.91644">
        <ele>840</ele>
        <time>2026-05-09T09:18:59.128Z</time>
      </trkpt>
      <trkpt lat="47.87988" lon="6.91646">
        <ele>840</ele>
        <time>2026-05-09T09:19:00.127Z</time>
      </trkpt>
      <trkpt lat="47.87991" lon="6.91649">
        <ele>840</ele>
        <time>2026-05-09T09:19:01.127Z</time>
      </trkpt>
      <trkpt lat="47.8799" lon="6.91653">
        <ele>840</ele>
        <time>2026-05-09T09:19:02.127Z</time>
      </trkpt>
      <trkpt lat="47.8799" lon="6.91655">
        <ele>840</ele>
        <time>2026-05-09T09:19:03.127Z</time>
      </trkpt>
      <trkpt lat="47.8799" lon="6.91654">
        <ele>840</ele>
        <time>2026-05-09T09:19:04.127Z</time>
      </trkpt>
      <trkpt lat="47.87991" lon="6.91653">
        <ele>840</ele>
        <time>2026-05-09T09:19:05.127Z</time>
      </trkpt>
      <trkpt lat="47.87991" lon="6.91653">
        <ele>840</ele>
        <time>2026-05-09T09:19:06.127Z</time>
      </trkpt>
      <trkpt lat="47.87993" lon="6.91652">
        <ele>839</ele>
        <time>2026-05-09T09:19:07.128Z</time>
      </trkpt>
      <trkpt lat="47.87993" lon="6.91653">
        <ele>839</ele>
        <time>2026-05-09T09:19:08.128Z</time>
      </trkpt>
      <trkpt lat="47.87994" lon="6.91655">
        <ele>839</ele>
        <time>2026-05-09T09:19:09.128Z</time>
      </trkpt>
      <trkpt lat="47.87995" lon="6.91656">
        <ele>839</ele>
        <time>2026-05-09T09:19:10.128Z</time>
      </trkpt>
      <trkpt lat="47.87997" lon="6.91658">
        <ele>838</ele>
        <time>2026-05-09T09:19:11.128Z</time>
      </trkpt>
      <trkpt lat="47.87997" lon="6.91658">
        <ele>838</ele>
        <time>2026-05-09T09:19:12.128Z</time>
      </trkpt>
      <trkpt lat="47.87998" lon="6.91659">
        <ele>838</ele>
        <time>2026-05-09T09:19:13.128Z</time>
      </trkpt>
      <trkpt lat="47.87999" lon="6.91659">
        <ele>838</ele>
        <time>2026-05-09T09:19:14.128Z</time>
      </trkpt>
      <trkpt lat="47.87999" lon="6.91659">
        <ele>838</ele>
        <time>2026-05-09T09:19:15.127Z</time>
      </trkpt>
      <trkpt lat="47.87999" lon="6.91659">
        <ele>837</ele>
        <time>2026-05-09T09:19:16.128Z</time>
      </trkpt>
      <trkpt lat="47.87999" lon="6.91658">
        <ele>837</ele>
        <time>2026-05-09T09:19:17.128Z</time>
      </trkpt>
      <trkpt lat="47.88" lon="6.91658">
        <ele>837</ele>
        <time>2026-05-09T09:19:18.128Z</time>
      </trkpt>
      <trkpt lat="47.88" lon="6.91659">
        <ele>837</ele>
        <time>2026-05-09T09:19:19.127Z</time>
      </trkpt>
      <trkpt lat="47.88001" lon="6.9166">
        <ele>837</ele>
        <time>2026-05-09T09:19:20.127Z</time>
      </trkpt>
      <trkpt lat="47.88002" lon="6.9166">
        <ele>837</ele>
        <time>2026-05-09T09:19:21.127Z</time>
      </trkpt>
      <trkpt lat="47.88003" lon="6.91661">
        <ele>837</ele>
        <time>2026-05-09T09:19:22.127Z</time>
      </trkpt>
      <trkpt lat="47.88004" lon="6.91662">
        <ele>837</ele>
        <time>2026-05-09T09:19:23.127Z</time>
      </trkpt>
      <trkpt lat="47.88005" lon="6.91662">
        <ele>837</ele>
        <time>2026-05-09T09:19:24.128Z</time>
      </trkpt>
      <trkpt lat="47.88006" lon="6.91662">
        <ele>837</ele>
        <time>2026-05-09T09:19:25.128Z</time>
      </trkpt>
      <trkpt lat="47.88006" lon="6.91663">
        <ele>837</ele>
        <time>2026-05-09T09:19:26.128Z</time>
      </trkpt>
      <trkpt lat="47.88007" lon="6.91664">
        <ele>836</ele>
        <time>2026-05-09T09:19:27.128Z</time>
      </trkpt>
      <trkpt lat="47.88007" lon="6.91666">
        <ele>836</ele>
        <time>2026-05-09T09:19:28.128Z</time>
      </trkpt>
      <trkpt lat="47.88007" lon="6.91667">
        <ele>836</ele>
        <time>2026-05-09T09:19:29.128Z</time>
      </trkpt>
      <trkpt lat="47.88008" lon="6.91668">
        <ele>836</ele>
        <time>2026-05-09T09:19:30.128Z</time>
      </trkpt>
      <trkpt lat="47.88008" lon="6.91668">
        <ele>836</ele>
        <time>2026-05-09T09:19:31.128Z</time>
      </trkpt>
      <trkpt lat="47.88008" lon="6.91668">
        <ele>836</ele>
        <time>2026-05-09T09:19:32.127Z</time>
      </trkpt>
      <trkpt lat="47.88008" lon="6.91668">
        <ele>835</ele>
        <time>2026-05-09T09:19:33.127Z</time>
      </trkpt>
      <trkpt lat="47.88009" lon="6.91669">
        <ele>835</ele>
        <time>2026-05-09T09:19:34.127Z</time>
      </trkpt>
      <trkpt lat="47.8801" lon="6.9167">
        <ele>835</ele>
        <time>2026-05-09T09:19:35.127Z</time>
      </trkpt>
      <trkpt lat="47.88011" lon="6.9167">
        <ele>835</ele>
        <time>2026-05-09T09:19:36.127Z</time>
      </trkpt>
      <trkpt lat="47.88012" lon="6.9167">
        <ele>835</ele>
        <time>2026-05-09T09:19:37.127Z</time>
      </trkpt>
      <trkpt lat="47.88013" lon="6.91669">
        <ele>835</ele>
        <time>2026-05-09T09:19:38.128Z</time>
      </trkpt>
      <trkpt lat="47.88014" lon="6.9167">
        <ele>834</ele>
        <time>2026-05-09T09:19:39.127Z</time>
      </trkpt>
      <trkpt lat="47.88015" lon="6.91671">
        <ele>834</ele>
        <time>2026-05-09T09:19:40.128Z</time>
      </trkpt>
      <trkpt lat="47.88016" lon="6.91671">
        <ele>834</ele>
        <time>2026-05-09T09:19:41.128Z</time>
      </trkpt>
      <trkpt lat="47.88017" lon="6.91671">
        <ele>834</ele>
        <time>2026-05-09T09:19:42.128Z</time>
      </trkpt>
      <trkpt lat="47.88018" lon="6.91671">
        <ele>834</ele>
        <time>2026-05-09T09:19:43.128Z</time>
      </trkpt>
      <trkpt lat="47.88018" lon="6.91672">
        <ele>834</ele>
        <time>2026-05-09T09:19:44.128Z</time>
      </trkpt>
      <trkpt lat="47.8802" lon="6.91673">
        <ele>834</ele>
        <time>2026-05-09T09:19:45.127Z</time>
      </trkpt>
      <trkpt lat="47.8802" lon="6.91675">
        <ele>834</ele>
        <time>2026-05-09T09:19:46.127Z</time>
      </trkpt>
      <trkpt lat="47.88021" lon="6.91677">
        <ele>833</ele>
        <time>2026-05-09T09:19:47.128Z</time>
      </trkpt>
      <trkpt lat="47.88022" lon="6.91679">
        <ele>833</ele>
        <time>2026-05-09T09:19:48.127Z</time>
      </trkpt>
      <trkpt lat="47.88023" lon="6.91681">
        <ele>833</ele>
        <time>2026-05-09T09:19:49.128Z</time>
      </trkpt>
      <trkpt lat="47.88024" lon="6.91682">
        <ele>833</ele>
        <time>2026-05-09T09:19:50.128Z</time>
      </trkpt>
      <trkpt lat="47.88025" lon="6.91684">
        <ele>833</ele>
        <time>2026-05-09T09:19:51.128Z</time>
      </trkpt>
      <trkpt lat="47.88027" lon="6.91684">
        <ele>833</ele>
        <time>2026-05-09T09:19:52.128Z</time>
      </trkpt>
      <trkpt lat="47.88028" lon="6.91685">
        <ele>833</ele>
        <time>2026-05-09T09:19:53.128Z</time>
      </trkpt>
      <trkpt lat="47.88029" lon="6.91686">
        <ele>833</ele>
        <time>2026-05-09T09:19:54.127Z</time>
      </trkpt>
      <trkpt lat="47.88029" lon="6.91687">
        <ele>832</ele>
        <time>2026-05-09T09:19:55.127Z</time>
      </trkpt>
      <trkpt lat="47.8803" lon="6.91687">
        <ele>832</ele>
        <time>2026-05-09T09:19:56.127Z</time>
      </trkpt>
      <trkpt lat="47.88031" lon="6.91688">
        <ele>832</ele>
        <time>2026-05-09T09:19:57.127Z</time>
      </trkpt>
      <trkpt lat="47.88031" lon="6.91689">
        <ele>832</ele>
        <time>2026-05-09T09:19:58.127Z</time>
      </trkpt>
      <trkpt lat="47.88032" lon="6.9169">
        <ele>832</ele>
        <time>2026-05-09T09:19:59.127Z</time>
      </trkpt>
      <trkpt lat="47.88032" lon="6.91691">
        <ele>832</ele>
        <time>2026-05-09T09:20:00.128Z</time>
      </trkpt>
      <trkpt lat="47.88033" lon="6.91692">
        <ele>832</ele>
        <time>2026-05-09T09:20:01.128Z</time>
      </trkpt>
      <trkpt lat="47.88034" lon="6.91692">
        <ele>832</ele>
        <time>2026-05-09T09:20:02.128Z</time>
      </trkpt>
      <trkpt lat="47.88035" lon="6.91694">
        <ele>832</ele>
        <time>2026-05-09T09:20:03.127Z</time>
      </trkpt>
      <trkpt lat="47.88036" lon="6.91695">
        <ele>832</ele>
        <time>2026-05-09T09:20:04.127Z</time>
      </trkpt>
      <trkpt lat="47.88037" lon="6.91696">
        <ele>831</ele>
        <time>2026-05-09T09:20:05.127Z</time>
      </trkpt>
      <trkpt lat="47.88038" lon="6.91698">
        <ele>831</ele>
        <time>2026-05-09T09:20:06.127Z</time>
      </trkpt>
      <trkpt lat="47.88039" lon="6.91699">
        <ele>831</ele>
        <time>2026-05-09T09:20:07.127Z</time>
      </trkpt>
      <trkpt lat="47.8804" lon="6.917">
        <ele>831</ele>
        <time>2026-05-09T09:20:08.127Z</time>
      </trkpt>
      <trkpt lat="47.8804" lon="6.91701">
        <ele>831</ele>
        <time>2026-05-09T09:20:09.127Z</time>
      </trkpt>
      <trkpt lat="47.88041" lon="6.91701">
        <ele>831</ele>
        <time>2026-05-09T09:20:10.128Z</time>
      </trkpt>
      <trkpt lat="47.88042" lon="6.917">
        <ele>831</ele>
        <time>2026-05-09T09:20:11.127Z</time>
      </trkpt>
      <trkpt lat="47.88042" lon="6.917">
        <ele>831</ele>
        <time>2026-05-09T09:20:12.128Z</time>
      </trkpt>
      <trkpt lat="47.88043" lon="6.91701">
        <ele>831</ele>
        <time>2026-05-09T09:20:13.128Z</time>
      </trkpt>
      <trkpt lat="47.88044" lon="6.91703">
        <ele>831</ele>
        <time>2026-05-09T09:20:14.128Z</time>
      </trkpt>
      <trkpt lat="47.88045" lon="6.91703">
        <ele>831</ele>
        <time>2026-05-09T09:20:15.127Z</time>
      </trkpt>
      <trkpt lat="47.88046" lon="6.91704">
        <ele>831</ele>
        <time>2026-05-09T09:20:16.127Z</time>
      </trkpt>
      <trkpt lat="47.88046" lon="6.91705">
        <ele>831</ele>
        <time>2026-05-09T09:20:17.127Z</time>
      </trkpt>
      <trkpt lat="47.88047" lon="6.91705">
        <ele>831</ele>
        <time>2026-05-09T09:20:18.128Z</time>
      </trkpt>
      <trkpt lat="47.88048" lon="6.91706">
        <ele>831</ele>
        <time>2026-05-09T09:20:19.127Z</time>
      </trkpt>
      <trkpt lat="47.88049" lon="6.91706">
        <ele>831</ele>
        <time>2026-05-09T09:20:20.128Z</time>
      </trkpt>
      <trkpt lat="47.88051" lon="6.91706">
        <ele>831</ele>
        <time>2026-05-09T09:20:21.127Z</time>
      </trkpt>
      <trkpt lat="47.88052" lon="6.91707">
        <ele>831</ele>
        <time>2026-05-09T09:20:22.128Z</time>
      </trkpt>
      <trkpt lat="47.88052" lon="6.91708">
        <ele>831</ele>
        <time>2026-05-09T09:20:23.127Z</time>
      </trkpt>
      <trkpt lat="47.88054" lon="6.91709">
        <ele>831</ele>
        <time>2026-05-09T09:20:24.128Z</time>
      </trkpt>
      <trkpt lat="47.88055" lon="6.9171">
        <ele>831</ele>
        <time>2026-05-09T09:20:25.127Z</time>
      </trkpt>
      <trkpt lat="47.88055" lon="6.9171">
        <ele>831</ele>
        <time>2026-05-09T09:20:26.128Z</time>
      </trkpt>
      <trkpt lat="47.88057" lon="6.9171">
        <ele>831</ele>
        <time>2026-05-09T09:20:27.127Z</time>
      </trkpt>
      <trkpt lat="47.88058" lon="6.91711">
        <ele>830</ele>
        <time>2026-05-09T09:20:28.128Z</time>
      </trkpt>
      <trkpt lat="47.88061" lon="6.91711">
        <ele>830</ele>
        <time>2026-05-09T09:20:29.128Z</time>
      </trkpt>
      <trkpt lat="47.88062" lon="6.91712">
        <ele>830</ele>
        <time>2026-05-09T09:20:30.128Z</time>
      </trkpt>
      <trkpt lat="47.88064" lon="6.91712">
        <ele>830</ele>
        <time>2026-05-09T09:20:31.128Z</time>
      </trkpt>
      <trkpt lat="47.88065" lon="6.91712">
        <ele>830</ele>
        <time>2026-05-09T09:20:32.127Z</time>
      </trkpt>
      <trkpt lat="47.88066" lon="6.91713">
        <ele>829</ele>
        <time>2026-05-09T09:20:33.128Z</time>
      </trkpt>
      <trkpt lat="47.88068" lon="6.91714">
        <ele>829</ele>
        <time>2026-05-09T09:20:34.127Z</time>
      </trkpt>
      <trkpt lat="47.88069" lon="6.91714">
        <ele>829</ele>
        <time>2026-05-09T09:20:35.128Z</time>
      </trkpt>
      <trkpt lat="47.8807" lon="6.91715">
        <ele>829</ele>
        <time>2026-05-09T09:20:36.127Z</time>
      </trkpt>
      <trkpt lat="47.8807" lon="6.91717">
        <ele>829</ele>
        <time>2026-05-09T09:20:37.128Z</time>
      </trkpt>
      <trkpt lat="47.88071" lon="6.91719">
        <ele>829</ele>
        <time>2026-05-09T09:20:38.127Z</time>
      </trkpt>
      <trkpt lat="47.88071" lon="6.91721">
        <ele>829</ele>
        <time>2026-05-09T09:20:39.128Z</time>
      </trkpt>
      <trkpt lat="47.88072" lon="6.91723">
        <ele>829</ele>
        <time>2026-05-09T09:20:40.127Z</time>
      </trkpt>
      <trkpt lat="47.88073" lon="6.91723">
        <ele>829</ele>
        <time>2026-05-09T09:20:41.128Z</time>
      </trkpt>
      <trkpt lat="47.88074" lon="6.91723">
        <ele>829</ele>
        <time>2026-05-09T09:20:42.127Z</time>
      </trkpt>
      <trkpt lat="47.88075" lon="6.91722">
        <ele>829</ele>
        <time>2026-05-09T09:20:43.127Z</time>
      </trkpt>
      <trkpt lat="47.88076" lon="6.91722">
        <ele>829</ele>
        <time>2026-05-09T09:20:44.127Z</time>
      </trkpt>
      <trkpt lat="47.88077" lon="6.91722">
        <ele>828</ele>
        <time>2026-05-09T09:20:45.127Z</time>
      </trkpt>
      <trkpt lat="47.88078" lon="6.91721">
        <ele>828</ele>
        <time>2026-05-09T09:20:46.128Z</time>
      </trkpt>
      <trkpt lat="47.88079" lon="6.91721">
        <ele>828</ele>
        <time>2026-05-09T09:20:47.128Z</time>
      </trkpt>
      <trkpt lat="47.88079" lon="6.91721">
        <ele>828</ele>
        <time>2026-05-09T09:20:48.128Z</time>
      </trkpt>
      <trkpt lat="47.8808" lon="6.91721">
        <ele>828</ele>
        <time>2026-05-09T09:20:49.127Z</time>
      </trkpt>
      <trkpt lat="47.88082" lon="6.9172">
        <ele>828</ele>
        <time>2026-05-09T09:20:50.127Z</time>
      </trkpt>
      <trkpt lat="47.88082" lon="6.9172">
        <ele>828</ele>
        <time>2026-05-09T09:20:51.127Z</time>
      </trkpt>
      <trkpt lat="47.88083" lon="6.9172">
        <ele>828</ele>
        <time>2026-05-09T09:20:52.128Z</time>
      </trkpt>
      <trkpt lat="47.88084" lon="6.91719">
        <ele>828</ele>
        <time>2026-05-09T09:20:53.127Z</time>
      </trkpt>
      <trkpt lat="47.88085" lon="6.91718">
        <ele>827</ele>
        <time>2026-05-09T09:20:54.127Z</time>
      </trkpt>
      <trkpt lat="47.88086" lon="6.91718">
        <ele>827</ele>
        <time>2026-05-09T09:20:55.127Z</time>
      </trkpt>
      <trkpt lat="47.88087" lon="6.91718">
        <ele>827</ele>
        <time>2026-05-09T09:20:56.128Z</time>
      </trkpt>
      <trkpt lat="47.88089" lon="6.91716">
        <ele>827</ele>
        <time>2026-05-09T09:20:57.127Z</time>
      </trkpt>
      <trkpt lat="47.8809" lon="6.91715">
        <ele>827</ele>
        <time>2026-05-09T09:20:58.128Z</time>
      </trkpt>
      <trkpt lat="47.88091" lon="6.91713">
        <ele>827</ele>
        <time>2026-05-09T09:20:59.127Z</time>
      </trkpt>
      <trkpt lat="47.88092" lon="6.91712">
        <ele>827</ele>
        <time>2026-05-09T09:21:00.127Z</time>
      </trkpt>
      <trkpt lat="47.88093" lon="6.91711">
        <ele>827</ele>
        <time>2026-05-09T09:21:01.127Z</time>
      </trkpt>
      <trkpt lat="47.88094" lon="6.9171">
        <ele>827</ele>
        <time>2026-05-09T09:21:02.127Z</time>
      </trkpt>
      <trkpt lat="47.88096" lon="6.91708">
        <ele>827</ele>
        <time>2026-05-09T09:21:03.128Z</time>
      </trkpt>
      <trkpt lat="47.88097" lon="6.91707">
        <ele>827</ele>
        <time>2026-05-09T09:21:04.128Z</time>
      </trkpt>
      <trkpt lat="47.88099" lon="6.91705">
        <ele>827</ele>
        <time>2026-05-09T09:21:05.128Z</time>
      </trkpt>
      <trkpt lat="47.881" lon="6.91703">
        <ele>827</ele>
        <time>2026-05-09T09:21:06.128Z</time>
      </trkpt>
      <trkpt lat="47.88102" lon="6.91701">
        <ele>827</ele>
        <time>2026-05-09T09:21:07.128Z</time>
      </trkpt>
      <trkpt lat="47.88103" lon="6.91699">
        <ele>827</ele>
        <time>2026-05-09T09:21:08.127Z</time>
      </trkpt>
      <trkpt lat="47.88105" lon="6.91696">
        <ele>827</ele>
        <time>2026-05-09T09:21:09.128Z</time>
      </trkpt>
      <trkpt lat="47.88106" lon="6.91693">
        <ele>827</ele>
        <time>2026-05-09T09:21:10.127Z</time>
      </trkpt>
      <trkpt lat="47.88107" lon="6.91692">
        <ele>827</ele>
        <time>2026-05-09T09:21:11.128Z</time>
      </trkpt>
      <trkpt lat="47.88108" lon="6.9169">
        <ele>827</ele>
        <time>2026-05-09T09:21:12.127Z</time>
      </trkpt>
      <trkpt lat="47.88108" lon="6.91689">
        <ele>827</ele>
        <time>2026-05-09T09:21:13.127Z</time>
      </trkpt>
      <trkpt lat="47.88109" lon="6.91687">
        <ele>827</ele>
        <time>2026-05-09T09:21:14.127Z</time>
      </trkpt>
      <trkpt lat="47.8811" lon="6.91685">
        <ele>827</ele>
        <time>2026-05-09T09:21:15.127Z</time>
      </trkpt>
      <trkpt lat="47.88111" lon="6.91683">
        <ele>827</ele>
        <time>2026-05-09T09:21:16.127Z</time>
      </trkpt>
      <trkpt lat="47.88111" lon="6.91681">
        <ele>827</ele>
        <time>2026-05-09T09:21:17.127Z</time>
      </trkpt>
      <trkpt lat="47.88112" lon="6.91679">
        <ele>827</ele>
        <time>2026-05-09T09:21:18.128Z</time>
      </trkpt>
      <trkpt lat="47.88113" lon="6.91677">
        <ele>827</ele>
        <time>2026-05-09T09:21:19.127Z</time>
      </trkpt>
      <trkpt lat="47.88114" lon="6.91675">
        <ele>827</ele>
        <time>2026-05-09T09:21:20.128Z</time>
      </trkpt>
      <trkpt lat="47.88115" lon="6.91673">
        <ele>827</ele>
        <time>2026-05-09T09:21:21.127Z</time>
      </trkpt>
      <trkpt lat="47.88116" lon="6.91671">
        <ele>827</ele>
        <time>2026-05-09T09:21:22.128Z</time>
      </trkpt>
      <trkpt lat="47.88118" lon="6.9167">
        <ele>827</ele>
        <time>2026-05-09T09:21:23.127Z</time>
      </trkpt>
      <trkpt lat="47.88118" lon="6.91668">
        <ele>827</ele>
        <time>2026-05-09T09:21:24.128Z</time>
      </trkpt>
      <trkpt lat="47.8812" lon="6.91666">
        <ele>827</ele>
        <time>2026-05-09T09:21:25.127Z</time>
      </trkpt>
      <trkpt lat="47.88121" lon="6.91664">
        <ele>827</ele>
        <time>2026-05-09T09:21:26.128Z</time>
      </trkpt>
      <trkpt lat="47.88123" lon="6.91661">
        <ele>826</ele>
        <time>2026-05-09T09:21:27.127Z</time>
      </trkpt>
      <trkpt lat="47.88124" lon="6.91659">
        <ele>826</ele>
        <time>2026-05-09T09:21:28.128Z</time>
      </trkpt>
      <trkpt lat="47.88125" lon="6.91657">
        <ele>826</ele>
        <time>2026-05-09T09:21:29.127Z</time>
      </trkpt>
      <trkpt lat="47.88127" lon="6.91656">
        <ele>826</ele>
        <time>2026-05-09T09:21:30.128Z</time>
      </trkpt>
      <trkpt lat="47.88128" lon="6.91654">
        <ele>826</ele>
        <time>2026-05-09T09:21:31.128Z</time>
      </trkpt>
      <trkpt lat="47.88129" lon="6.91652">
        <ele>826</ele>
        <time>2026-05-09T09:21:32.128Z</time>
      </trkpt>
      <trkpt lat="47.88131" lon="6.9165">
        <ele>826</ele>
        <time>2026-05-09T09:21:33.127Z</time>
      </trkpt>
      <trkpt lat="47.88132" lon="6.91647">
        <ele>826</ele>
        <time>2026-05-09T09:21:34.128Z</time>
      </trkpt>
      <trkpt lat="47.88133" lon="6.91644">
        <ele>826</ele>
        <time>2026-05-09T09:21:35.128Z</time>
      </trkpt>
      <trkpt lat="47.88135" lon="6.9164">
        <ele>826</ele>
        <time>2026-05-09T09:21:36.128Z</time>
      </trkpt>
      <trkpt lat="47.88136" lon="6.91637">
        <ele>826</ele>
        <time>2026-05-09T09:21:37.127Z</time>
      </trkpt>
      <trkpt lat="47.88137" lon="6.91632">
        <ele>826</ele>
        <time>2026-05-09T09:21:38.128Z</time>
      </trkpt>
      <trkpt lat="47.88133" lon="6.91633">
        <ele>826</ele>
        <time>2026-05-09T09:21:39.128Z</time>
      </trkpt>
      <trkpt lat="47.88132" lon="6.91632">
        <ele>826</ele>
        <time>2026-05-09T09:21:40.127Z</time>
      </trkpt>
      <trkpt lat="47.88129" lon="6.91634">
        <ele>827</ele>
        <time>2026-05-09T09:21:41.128Z</time>
      </trkpt>
      <trkpt lat="47.88137" lon="6.91623">
        <ele>827</ele>
        <time>2026-05-09T09:21:42.127Z</time>
      </trkpt>
      <trkpt lat="47.88144" lon="6.91611">
        <ele>827</ele>
        <time>2026-05-09T09:21:43.128Z</time>
      </trkpt>
      <trkpt lat="47.88145" lon="6.91608">
        <ele>827</ele>
        <time>2026-05-09T09:21:44.127Z</time>
      </trkpt>
      <trkpt lat="47.88145" lon="6.91603">
        <ele>828</ele>
        <time>2026-05-09T09:21:45.128Z</time>
      </trkpt>
      <trkpt lat="47.88145" lon="6.91599">
        <ele>828</ele>
        <time>2026-05-09T09:21:46.127Z</time>
      </trkpt>
      <trkpt lat="47.88146" lon="6.91596">
        <ele>829</ele>
        <time>2026-05-09T09:21:47.128Z</time>
      </trkpt>
      <trkpt lat="47.88146" lon="6.91593">
        <ele>829</ele>
        <time>2026-05-09T09:21:48.127Z</time>
      </trkpt>
      <trkpt lat="47.88147" lon="6.91591">
        <ele>830</ele>
        <time>2026-05-09T09:21:49.128Z</time>
      </trkpt>
      <trkpt lat="47.88147" lon="6.9159">
        <ele>830</ele>
        <time>2026-05-09T09:21:50.127Z</time>
      </trkpt>
      <trkpt lat="47.88147" lon="6.91586">
        <ele>831</ele>
        <time>2026-05-09T09:21:51.127Z</time>
      </trkpt>
      <trkpt lat="47.88163" lon="6.91576">
        <ele>831</ele>
        <time>2026-05-09T09:21:52.127Z</time>
      </trkpt>
      <trkpt lat="47.88167" lon="6.91571">
        <ele>831</ele>
        <time>2026-05-09T09:21:53.128Z</time>
      </trkpt>
      <trkpt lat="47.88177" lon="6.91561">
        <ele>832</ele>
        <time>2026-05-09T09:21:54.128Z</time>
      </trkpt>
      <trkpt lat="47.88174" lon="6.91563">
        <ele>832</ele>
        <time>2026-05-09T09:21:55.128Z</time>
      </trkpt>
      <trkpt lat="47.88171" lon="6.91564">
        <ele>832</ele>
        <time>2026-05-09T09:21:56.128Z</time>
      </trkpt>
      <trkpt lat="47.88169" lon="6.91564">
        <ele>832</ele>
        <time>2026-05-09T09:21:57.127Z</time>
      </trkpt>
      <trkpt lat="47.88169" lon="6.91562">
        <ele>832</ele>
        <time>2026-05-09T09:21:58.128Z</time>
      </trkpt>
      <trkpt lat="47.88169" lon="6.91561">
        <ele>833</ele>
        <time>2026-05-09T09:21:59.127Z</time>
      </trkpt>
      <trkpt lat="47.88169" lon="6.91559">
        <ele>833</ele>
        <time>2026-05-09T09:22:00.128Z</time>
      </trkpt>
      <trkpt lat="47.8817" lon="6.91557">
        <ele>833</ele>
        <time>2026-05-09T09:22:01.127Z</time>
      </trkpt>
      <trkpt lat="47.8817" lon="6.91556">
        <ele>833</ele>
        <time>2026-05-09T09:22:02.128Z</time>
      </trkpt>
      <trkpt lat="47.8817" lon="6.91555">
        <ele>833</ele>
        <time>2026-05-09T09:22:03.127Z</time>
      </trkpt>
      <trkpt lat="47.8817" lon="6.91555">
        <ele>834</ele>
        <time>2026-05-09T09:22:04.128Z</time>
      </trkpt>
      <trkpt lat="47.88169" lon="6.91553">
        <ele>834</ele>
        <time>2026-05-09T09:22:05.127Z</time>
      </trkpt>
      <trkpt lat="47.88168" lon="6.91552">
        <ele>834</ele>
        <time>2026-05-09T09:22:06.128Z</time>
      </trkpt>
      <trkpt lat="47.88168" lon="6.9155">
        <ele>834</ele>
        <time>2026-05-09T09:22:07.127Z</time>
      </trkpt>
      <trkpt lat="47.88168" lon="6.91549">
        <ele>834</ele>
        <time>2026-05-09T09:22:08.127Z</time>
      </trkpt>
      <trkpt lat="47.88169" lon="6.91548">
        <ele>835</ele>
        <time>2026-05-09T09:22:09.127Z</time>
      </trkpt>
      <trkpt lat="47.88171" lon="6.91549">
        <ele>835</ele>
        <time>2026-05-09T09:22:10.127Z</time>
      </trkpt>
      <trkpt lat="47.88173" lon="6.91554">
        <ele>835</ele>
        <time>2026-05-09T09:22:11.128Z</time>
      </trkpt>
      <trkpt lat="47.88173" lon="6.91556">
        <ele>835</ele>
        <time>2026-05-09T09:22:12.128Z</time>
      </trkpt>
      <trkpt lat="47.88173" lon="6.91558">
        <ele>835</ele>
        <time>2026-05-09T09:22:13.128Z</time>
      </trkpt>
      <trkpt lat="47.88173" lon="6.91556">
        <ele>835</ele>
        <time>2026-05-09T09:22:14.128Z</time>
      </trkpt>
      <trkpt lat="47.88174" lon="6.91554">
        <ele>835</ele>
        <time>2026-05-09T09:22:15.127Z</time>
      </trkpt>
      <trkpt lat="47.88175" lon="6.91553">
        <ele>835</ele>
        <time>2026-05-09T09:22:16.127Z</time>
      </trkpt>
      <trkpt lat="47.88175" lon="6.91552">
        <ele>835</ele>
        <time>2026-05-09T09:22:17.127Z</time>
      </trkpt>
      <trkpt lat="47.88175" lon="6.9155">
        <ele>835</ele>
        <time>2026-05-09T09:22:18.127Z</time>
      </trkpt>
      <trkpt lat="47.88181" lon="6.91549">
        <ele>834</ele>
        <time>2026-05-09T09:22:23.564Z</time>
      </trkpt>
      <trkpt lat="47.88182" lon="6.91549">
        <ele>834</ele>
        <time>2026-05-09T09:22:24.564Z</time>
      </trkpt>
      <trkpt lat="47.88182" lon="6.91549">
        <ele>834</ele>
        <time>2026-05-09T09:22:25.565Z</time>
      </trkpt>
      <trkpt lat="47.88182" lon="6.91549">
        <ele>833</ele>
        <time>2026-05-09T09:22:26.565Z</time>
      </trkpt>
      <trkpt lat="47.88182" lon="6.91548">
        <ele>833</ele>
        <time>2026-05-09T09:22:27.564Z</time>
      </trkpt>
      <trkpt lat="47.88182" lon="6.91548">
        <ele>833</ele>
        <time>2026-05-09T09:22:28.565Z</time>
      </trkpt>
      <trkpt lat="47.88183" lon="6.91546">
        <ele>833</ele>
        <time>2026-05-09T09:22:29.565Z</time>
      </trkpt>
      <trkpt lat="47.88184" lon="6.91546">
        <ele>832</ele>
        <time>2026-05-09T09:22:30.565Z</time>
      </trkpt>
      <trkpt lat="47.88186" lon="6.91546">
        <ele>832</ele>
        <time>2026-05-09T09:22:31.564Z</time>
      </trkpt>
      <trkpt lat="47.88187" lon="6.91546">
        <ele>832</ele>
        <time>2026-05-09T09:22:32.565Z</time>
      </trkpt>
      <trkpt lat="47.88188" lon="6.91546">
        <ele>832</ele>
        <time>2026-05-09T09:22:33.564Z</time>
      </trkpt>
      <trkpt lat="47.88189" lon="6.91547">
        <ele>832</ele>
        <time>2026-05-09T09:22:34.565Z</time>
      </trkpt>
      <trkpt lat="47.8819" lon="6.91546">
        <ele>831</ele>
        <time>2026-05-09T09:22:35.564Z</time>
      </trkpt>
      <trkpt lat="47.8819" lon="6.91546">
        <ele>831</ele>
        <time>2026-05-09T09:22:36.565Z</time>
      </trkpt>
      <trkpt lat="47.88191" lon="6.91545">
        <ele>831</ele>
        <time>2026-05-09T09:22:37.564Z</time>
      </trkpt>
      <trkpt lat="47.88191" lon="6.91545">
        <ele>831</ele>
        <time>2026-05-09T09:22:38.564Z</time>
      </trkpt>
      <trkpt lat="47.88192" lon="6.91543">
        <ele>831</ele>
        <time>2026-05-09T09:22:39.564Z</time>
      </trkpt>
      <trkpt lat="47.88193" lon="6.91542">
        <ele>830</ele>
        <time>2026-05-09T09:22:40.565Z</time>
      </trkpt>
      <trkpt lat="47.88194" lon="6.91541">
        <ele>830</ele>
        <time>2026-05-09T09:22:41.564Z</time>
      </trkpt>
      <trkpt lat="47.88195" lon="6.91541">
        <ele>830</ele>
        <time>2026-05-09T09:22:42.565Z</time>
      </trkpt>
      <trkpt lat="47.88196" lon="6.9154">
        <ele>830</ele>
        <time>2026-05-09T09:22:43.564Z</time>
      </trkpt>
      <trkpt lat="47.88197" lon="6.9154">
        <ele>830</ele>
        <time>2026-05-09T09:22:44.565Z</time>
      </trkpt>
      <trkpt lat="47.88197" lon="6.9154">
        <ele>830</ele>
        <time>2026-05-09T09:22:45.565Z</time>
      </trkpt>
      <trkpt lat="47.88198" lon="6.91541">
        <ele>830</ele>
        <time>2026-05-09T09:22:46.564Z</time>
      </trkpt>
      <trkpt lat="47.88199" lon="6.9154">
        <ele>830</ele>
        <time>2026-05-09T09:22:47.565Z</time>
      </trkpt>
      <trkpt lat="47.88199" lon="6.9154">
        <ele>830</ele>
        <time>2026-05-09T09:22:48.564Z</time>
      </trkpt>
      <trkpt lat="47.882" lon="6.91539">
        <ele>830</ele>
        <time>2026-05-09T09:22:49.564Z</time>
      </trkpt>
      <trkpt lat="47.88201" lon="6.91539">
        <ele>830</ele>
        <time>2026-05-09T09:22:50.564Z</time>
      </trkpt>
      <trkpt lat="47.88201" lon="6.91538">
        <ele>830</ele>
        <time>2026-05-09T09:22:51.564Z</time>
      </trkpt>
      <trkpt lat="47.88202" lon="6.91538">
        <ele>830</ele>
        <time>2026-05-09T09:22:52.565Z</time>
      </trkpt>
      <trkpt lat="47.88203" lon="6.91538">
        <ele>830</ele>
        <time>2026-05-09T09:22:53.564Z</time>
      </trkpt>
      <trkpt lat="47.88204" lon="6.91536">
        <ele>830</ele>
        <time>2026-05-09T09:22:54.565Z</time>
      </trkpt>
      <trkpt lat="47.88206" lon="6.91535">
        <ele>830</ele>
        <time>2026-05-09T09:22:55.564Z</time>
      </trkpt>
      <trkpt lat="47.88206" lon="6.91533">
        <ele>830</ele>
        <time>2026-05-09T09:22:56.564Z</time>
      </trkpt>
      <trkpt lat="47.88207" lon="6.91533">
        <ele>830</ele>
        <time>2026-05-09T09:22:57.565Z</time>
      </trkpt>
      <trkpt lat="47.88209" lon="6.91532">
        <ele>830</ele>
        <time>2026-05-09T09:22:58.564Z</time>
      </trkpt>
      <trkpt lat="47.88211" lon="6.91531">
        <ele>830</ele>
        <time>2026-05-09T09:22:59.564Z</time>
      </trkpt>
      <trkpt lat="47.88212" lon="6.91531">
        <ele>830</ele>
        <time>2026-05-09T09:23:00.564Z</time>
      </trkpt>
      <trkpt lat="47.88214" lon="6.91531">
        <ele>830</ele>
        <time>2026-05-09T09:23:01.565Z</time>
      </trkpt>
      <trkpt lat="47.88215" lon="6.91532">
        <ele>830</ele>
        <time>2026-05-09T09:23:02.565Z</time>
      </trkpt>
      <trkpt lat="47.88217" lon="6.91531">
        <ele>830</ele>
        <time>2026-05-09T09:23:03.564Z</time>
      </trkpt>
      <trkpt lat="47.88218" lon="6.91533">
        <ele>830</ele>
        <time>2026-05-09T09:23:04.565Z</time>
      </trkpt>
      <trkpt lat="47.88219" lon="6.91533">
        <ele>830</ele>
        <time>2026-05-09T09:23:05.564Z</time>
      </trkpt>
      <trkpt lat="47.88221" lon="6.91534">
        <ele>830</ele>
        <time>2026-05-09T09:23:06.564Z</time>
      </trkpt>
      <trkpt lat="47.88223" lon="6.91533">
        <ele>830</ele>
        <time>2026-05-09T09:23:07.564Z</time>
      </trkpt>
      <trkpt lat="47.88225" lon="6.91534">
        <ele>829</ele>
        <time>2026-05-09T09:23:08.565Z</time>
      </trkpt>
      <trkpt lat="47.88226" lon="6.91533">
        <ele>829</ele>
        <time>2026-05-09T09:23:09.565Z</time>
      </trkpt>
      <trkpt lat="47.88228" lon="6.91534">
        <ele>829</ele>
        <time>2026-05-09T09:23:10.564Z</time>
      </trkpt>
      <trkpt lat="47.8823" lon="6.91533">
        <ele>829</ele>
        <time>2026-05-09T09:23:11.565Z</time>
      </trkpt>
      <trkpt lat="47.88231" lon="6.91533">
        <ele>829</ele>
        <time>2026-05-09T09:23:12.564Z</time>
      </trkpt>
      <trkpt lat="47.88233" lon="6.91531">
        <ele>829</ele>
        <time>2026-05-09T09:23:13.565Z</time>
      </trkpt>
      <trkpt lat="47.88234" lon="6.9153">
        <ele>829</ele>
        <time>2026-05-09T09:23:14.564Z</time>
      </trkpt>
      <trkpt lat="47.88236" lon="6.91528">
        <ele>829</ele>
        <time>2026-05-09T09:23:15.565Z</time>
      </trkpt>
      <trkpt lat="47.88237" lon="6.91527">
        <ele>829</ele>
        <time>2026-05-09T09:23:16.564Z</time>
      </trkpt>
      <trkpt lat="47.88238" lon="6.91526">
        <ele>828</ele>
        <time>2026-05-09T09:23:17.565Z</time>
      </trkpt>
      <trkpt lat="47.88239" lon="6.91526">
        <ele>828</ele>
        <time>2026-05-09T09:23:18.564Z</time>
      </trkpt>
      <trkpt lat="47.88239" lon="6.91526">
        <ele>828</ele>
        <time>2026-05-09T09:23:19.564Z</time>
      </trkpt>
      <trkpt lat="47.8824" lon="6.91525">
        <ele>828</ele>
        <time>2026-05-09T09:23:20.565Z</time>
      </trkpt>
      <trkpt lat="47.88241" lon="6.91525">
        <ele>828</ele>
        <time>2026-05-09T09:23:21.564Z</time>
      </trkpt>
      <trkpt lat="47.88242" lon="6.91525">
        <ele>828</ele>
        <time>2026-05-09T09:23:22.565Z</time>
      </trkpt>
      <trkpt lat="47.88243" lon="6.91524">
        <ele>828</ele>
        <time>2026-05-09T09:23:23.564Z</time>
      </trkpt>
      <trkpt lat="47.88244" lon="6.91523">
        <ele>828</ele>
        <time>2026-05-09T09:23:24.565Z</time>
      </trkpt>
      <trkpt lat="47.88246" lon="6.91522">
        <ele>828</ele>
        <time>2026-05-09T09:23:25.564Z</time>
      </trkpt>
      <trkpt lat="47.88247" lon="6.91521">
        <ele>828</ele>
        <time>2026-05-09T09:23:26.565Z</time>
      </trkpt>
      <trkpt lat="47.88249" lon="6.9152">
        <ele>828</ele>
        <time>2026-05-09T09:23:27.564Z</time>
      </trkpt>
      <trkpt lat="47.8825" lon="6.91519">
        <ele>828</ele>
        <time>2026-05-09T09:23:28.565Z</time>
      </trkpt>
      <trkpt lat="47.88251" lon="6.91517">
        <ele>828</ele>
        <time>2026-05-09T09:23:29.565Z</time>
      </trkpt>
      <trkpt lat="47.88252" lon="6.91516">
        <ele>828</ele>
        <time>2026-05-09T09:23:30.565Z</time>
      </trkpt>
      <trkpt lat="47.88252" lon="6.91514">
        <ele>828</ele>
        <time>2026-05-09T09:23:31.564Z</time>
      </trkpt>
      <trkpt lat="47.88252" lon="6.91514">
        <ele>829</ele>
        <time>2026-05-09T09:23:32.564Z</time>
      </trkpt>
      <trkpt lat="47.88253" lon="6.91513">
        <ele>829</ele>
        <time>2026-05-09T09:23:33.565Z</time>
      </trkpt>
      <trkpt lat="47.88253" lon="6.91513">
        <ele>829</ele>
        <time>2026-05-09T09:23:34.565Z</time>
      </trkpt>
      <trkpt lat="47.88254" lon="6.91512">
        <ele>828</ele>
        <time>2026-05-09T09:23:35.564Z</time>
      </trkpt>
      <trkpt lat="47.88255" lon="6.91511">
        <ele>828</ele>
        <time>2026-05-09T09:23:36.564Z</time>
      </trkpt>
      <trkpt lat="47.88256" lon="6.9151">
        <ele>828</ele>
        <time>2026-05-09T09:23:37.565Z</time>
      </trkpt>
      <trkpt lat="47.88257" lon="6.91509">
        <ele>828</ele>
        <time>2026-05-09T09:23:38.564Z</time>
      </trkpt>
      <trkpt lat="47.88258" lon="6.91508">
        <ele>828</ele>
        <time>2026-05-09T09:23:39.565Z</time>
      </trkpt>
      <trkpt lat="47.88258" lon="6.91506">
        <ele>829</ele>
        <time>2026-05-09T09:23:40.564Z</time>
      </trkpt>
      <trkpt lat="47.88259" lon="6.91505">
        <ele>829</ele>
        <time>2026-05-09T09:23:41.564Z</time>
      </trkpt>
      <trkpt lat="47.88261" lon="6.91504">
        <ele>829</ele>
        <time>2026-05-09T09:23:42.565Z</time>
      </trkpt>
      <trkpt lat="47.88262" lon="6.91502">
        <ele>829</ele>
        <time>2026-05-09T09:23:43.564Z</time>
      </trkpt>
      <trkpt lat="47.88263" lon="6.91501">
        <ele>829</ele>
        <time>2026-05-09T09:23:44.565Z</time>
      </trkpt>
      <trkpt lat="47.88264" lon="6.915">
        <ele>829</ele>
        <time>2026-05-09T09:23:45.565Z</time>
      </trkpt>
      <trkpt lat="47.88265" lon="6.915">
        <ele>829</ele>
        <time>2026-05-09T09:23:46.564Z</time>
      </trkpt>
      <trkpt lat="47.88266" lon="6.91499">
        <ele>829</ele>
        <time>2026-05-09T09:23:47.564Z</time>
      </trkpt>
      <trkpt lat="47.88267" lon="6.91498">
        <ele>829</ele>
        <time>2026-05-09T09:23:48.564Z</time>
      </trkpt>
      <trkpt lat="47.88268" lon="6.91498">
        <ele>829</ele>
        <time>2026-05-09T09:23:49.565Z</time>
      </trkpt>
      <trkpt lat="47.88268" lon="6.91498">
        <ele>829</ele>
        <time>2026-05-09T09:23:50.564Z</time>
      </trkpt>
      <trkpt lat="47.88269" lon="6.91499">
        <ele>829</ele>
        <time>2026-05-09T09:23:51.565Z</time>
      </trkpt>
      <trkpt lat="47.88269" lon="6.915">
        <ele>829</ele>
        <time>2026-05-09T09:23:52.565Z</time>
      </trkpt>
      <trkpt lat="47.8827" lon="6.91501">
        <ele>829</ele>
        <time>2026-05-09T09:23:53.564Z</time>
      </trkpt>
      <trkpt lat="47.88271" lon="6.91502">
        <ele>828</ele>
        <time>2026-05-09T09:23:54.565Z</time>
      </trkpt>
      <trkpt lat="47.88272" lon="6.91502">
        <ele>828</ele>
        <time>2026-05-09T09:23:55.564Z</time>
      </trkpt>
      <trkpt lat="47.88273" lon="6.91502">
        <ele>828</ele>
        <time>2026-05-09T09:23:56.565Z</time>
      </trkpt>
      <trkpt lat="47.88275" lon="6.91501">
        <ele>828</ele>
        <time>2026-05-09T09:23:57.564Z</time>
      </trkpt>
      <trkpt lat="47.88277" lon="6.91501">
        <ele>828</ele>
        <time>2026-05-09T09:23:58.565Z</time>
      </trkpt>
      <trkpt lat="47.88278" lon="6.915">
        <ele>828</ele>
        <time>2026-05-09T09:23:59.565Z</time>
      </trkpt>
      <trkpt lat="47.8828" lon="6.915">
        <ele>828</ele>
        <time>2026-05-09T09:24:00.565Z</time>
      </trkpt>
      <trkpt lat="47.88282" lon="6.91499">
        <ele>828</ele>
        <time>2026-05-09T09:24:01.565Z</time>
      </trkpt>
      <trkpt lat="47.88283" lon="6.91498">
        <ele>828</ele>
        <time>2026-05-09T09:24:02.564Z</time>
      </trkpt>
      <trkpt lat="47.88285" lon="6.91498">
        <ele>828</ele>
        <time>2026-05-09T09:24:03.565Z</time>
      </trkpt>
      <trkpt lat="47.88287" lon="6.91497">
        <ele>828</ele>
        <time>2026-05-09T09:24:04.564Z</time>
      </trkpt>
      <trkpt lat="47.88289" lon="6.91496">
        <ele>828</ele>
        <time>2026-05-09T09:24:05.564Z</time>
      </trkpt>
      <trkpt lat="47.8829" lon="6.91496">
        <ele>828</ele>
        <time>2026-05-09T09:24:06.565Z</time>
      </trkpt>
      <trkpt lat="47.8829" lon="6.91496">
        <ele>828</ele>
        <time>2026-05-09T09:24:07.564Z</time>
      </trkpt>
      <trkpt lat="47.88291" lon="6.91493">
        <ele>828</ele>
        <time>2026-05-09T09:24:08.564Z</time>
      </trkpt>
      <trkpt lat="47.88292" lon="6.9149">
        <ele>828</ele>
        <time>2026-05-09T09:24:09.564Z</time>
      </trkpt>
      <trkpt lat="47.88293" lon="6.91489">
        <ele>828</ele>
        <time>2026-05-09T09:24:10.565Z</time>
      </trkpt>
      <trkpt lat="47.88295" lon="6.91488">
        <ele>828</ele>
        <time>2026-05-09T09:24:11.564Z</time>
      </trkpt>
      <trkpt lat="47.88296" lon="6.91487">
        <ele>828</ele>
        <time>2026-05-09T09:24:12.565Z</time>
      </trkpt>
      <trkpt lat="47.88297" lon="6.91488">
        <ele>828</ele>
        <time>2026-05-09T09:24:13.564Z</time>
      </trkpt>
      <trkpt lat="47.88298" lon="6.91489">
        <ele>828</ele>
        <time>2026-05-09T09:24:14.565Z</time>
      </trkpt>
      <trkpt lat="47.88298" lon="6.91489">
        <ele>828</ele>
        <time>2026-05-09T09:24:15.564Z</time>
      </trkpt>
      <trkpt lat="47.88299" lon="6.91489">
        <ele>828</ele>
        <time>2026-05-09T09:24:16.564Z</time>
      </trkpt>
      <trkpt lat="47.883" lon="6.91489">
        <ele>828</ele>
        <time>2026-05-09T09:24:17.564Z</time>
      </trkpt>
      <trkpt lat="47.88301" lon="6.91489">
        <ele>828</ele>
        <time>2026-05-09T09:24:18.565Z</time>
      </trkpt>
      <trkpt lat="47.88302" lon="6.91489">
        <ele>828</ele>
        <time>2026-05-09T09:24:19.564Z</time>
      </trkpt>
      <trkpt lat="47.88304" lon="6.91488">
        <ele>828</ele>
        <time>2026-05-09T09:24:20.564Z</time>
      </trkpt>
      <trkpt lat="47.88305" lon="6.91488">
        <ele>827</ele>
        <time>2026-05-09T09:24:21.565Z</time>
      </trkpt>
      <trkpt lat="47.88306" lon="6.91487">
        <ele>827</ele>
        <time>2026-05-09T09:24:22.564Z</time>
      </trkpt>
      <trkpt lat="47.88307" lon="6.91485">
        <ele>827</ele>
        <time>2026-05-09T09:24:23.565Z</time>
      </trkpt>
      <trkpt lat="47.88309" lon="6.91484">
        <ele>827</ele>
        <time>2026-05-09T09:24:24.564Z</time>
      </trkpt>
      <trkpt lat="47.8831" lon="6.91483">
        <ele>827</ele>
        <time>2026-05-09T09:24:25.565Z</time>
      </trkpt>
      <trkpt lat="47.88312" lon="6.91481">
        <ele>827</ele>
        <time>2026-05-09T09:24:26.565Z</time>
      </trkpt>
      <trkpt lat="47.88313" lon="6.9148">
        <ele>827</ele>
        <time>2026-05-09T09:24:27.564Z</time>
      </trkpt>
      <trkpt lat="47.88314" lon="6.91478">
        <ele>827</ele>
        <time>2026-05-09T09:24:28.565Z</time>
      </trkpt>
      <trkpt lat="47.88315" lon="6.91478">
        <ele>827</ele>
        <time>2026-05-09T09:24:29.564Z</time>
      </trkpt>
      <trkpt lat="47.88316" lon="6.91477">
        <ele>826</ele>
        <time>2026-05-09T09:24:30.565Z</time>
      </trkpt>
      <trkpt lat="47.88316" lon="6.91476">
        <ele>826</ele>
        <time>2026-05-09T09:24:31.564Z</time>
      </trkpt>
      <trkpt lat="47.88317" lon="6.91476">
        <ele>826</ele>
        <time>2026-05-09T09:24:32.565Z</time>
      </trkpt>
      <trkpt lat="47.88317" lon="6.91476">
        <ele>826</ele>
        <time>2026-05-09T09:24:33.565Z</time>
      </trkpt>
      <trkpt lat="47.88318" lon="6.91476">
        <ele>826</ele>
        <time>2026-05-09T09:24:34.564Z</time>
      </trkpt>
      <trkpt lat="47.88319" lon="6.91474">
        <ele>826</ele>
        <time>2026-05-09T09:24:35.565Z</time>
      </trkpt>
      <trkpt lat="47.8832" lon="6.91473">
        <ele>826</ele>
        <time>2026-05-09T09:24:36.564Z</time>
      </trkpt>
      <trkpt lat="47.88321" lon="6.91473">
        <ele>826</ele>
        <time>2026-05-09T09:24:37.565Z</time>
      </trkpt>
      <trkpt lat="47.88322" lon="6.91472">
        <ele>826</ele>
        <time>2026-05-09T09:24:38.565Z</time>
      </trkpt>
      <trkpt lat="47.88322" lon="6.91472">
        <ele>826</ele>
        <time>2026-05-09T09:24:39.565Z</time>
      </trkpt>
      <trkpt lat="47.88322" lon="6.91472">
        <ele>826</ele>
        <time>2026-05-09T09:24:40.565Z</time>
      </trkpt>
      <trkpt lat="47.88323" lon="6.91471">
        <ele>826</ele>
        <time>2026-05-09T09:24:41.565Z</time>
      </trkpt>
      <trkpt lat="47.88323" lon="6.91472">
        <ele>825</ele>
        <time>2026-05-09T09:24:42.564Z</time>
      </trkpt>
      <trkpt lat="47.88324" lon="6.91472">
        <ele>825</ele>
        <time>2026-05-09T09:24:43.565Z</time>
      </trkpt>
      <trkpt lat="47.88324" lon="6.91473">
        <ele>825</ele>
        <time>2026-05-09T09:24:44.564Z</time>
      </trkpt>
      <trkpt lat="47.88325" lon="6.91473">
        <ele>825</ele>
        <time>2026-05-09T09:24:45.564Z</time>
      </trkpt>
      <trkpt lat="47.88325" lon="6.91473">
        <ele>825</ele>
        <time>2026-05-09T09:24:46.564Z</time>
      </trkpt>
      <trkpt lat="47.88326" lon="6.91475">
        <ele>825</ele>
        <time>2026-05-09T09:24:47.564Z</time>
      </trkpt>
      <trkpt lat="47.88325" lon="6.91475">
        <ele>825</ele>
        <time>2026-05-09T09:24:48.564Z</time>
      </trkpt>
      <trkpt lat="47.88325" lon="6.91476">
        <ele>825</ele>
        <time>2026-05-09T09:24:49.564Z</time>
      </trkpt>
      <trkpt lat="47.88325" lon="6.91476">
        <ele>825</ele>
        <time>2026-05-09T09:24:50.564Z</time>
      </trkpt>
      <trkpt lat="47.88325" lon="6.91475">
        <ele>825</ele>
        <time>2026-05-09T09:24:51.564Z</time>
      </trkpt>
      <trkpt lat="47.88325" lon="6.91476">
        <ele>825</ele>
        <time>2026-05-09T09:24:52.564Z</time>
      </trkpt>
      <trkpt lat="47.88325" lon="6.91477">
        <ele>824</ele>
        <time>2026-05-09T09:24:53.564Z</time>
      </trkpt>
      <trkpt lat="47.88325" lon="6.91475">
        <ele>824</ele>
        <time>2026-05-09T09:24:54.564Z</time>
      </trkpt>
      <trkpt lat="47.88326" lon="6.91473">
        <ele>824</ele>
        <time>2026-05-09T09:24:55.565Z</time>
      </trkpt>
      <trkpt lat="47.88326" lon="6.91473">
        <ele>824</ele>
        <time>2026-05-09T09:24:56.565Z</time>
      </trkpt>
      <trkpt lat="47.88327" lon="6.91472">
        <ele>824</ele>
        <time>2026-05-09T09:24:57.565Z</time>
      </trkpt>
      <trkpt lat="47.88328" lon="6.9147">
        <ele>824</ele>
        <time>2026-05-09T09:24:58.564Z</time>
      </trkpt>
      <trkpt lat="47.88328" lon="6.9147">
        <ele>824</ele>
        <time>2026-05-09T09:24:59.564Z</time>
      </trkpt>
      <trkpt lat="47.88328" lon="6.9147">
        <ele>824</ele>
        <time>2026-05-09T09:25:00.565Z</time>
      </trkpt>
      <trkpt lat="47.88328" lon="6.91468">
        <ele>824</ele>
        <time>2026-05-09T09:25:01.564Z</time>
      </trkpt>
      <trkpt lat="47.88328" lon="6.91468">
        <ele>824</ele>
        <time>2026-05-09T09:25:02.565Z</time>
      </trkpt>
      <trkpt lat="47.88329" lon="6.91466">
        <ele>824</ele>
        <time>2026-05-09T09:25:03.564Z</time>
      </trkpt>
      <trkpt lat="47.8833" lon="6.91464">
        <ele>824</ele>
        <time>2026-05-09T09:25:04.564Z</time>
      </trkpt>
      <trkpt lat="47.8833" lon="6.91463">
        <ele>824</ele>
        <time>2026-05-09T09:25:05.564Z</time>
      </trkpt>
      <trkpt lat="47.88331" lon="6.91463">
        <ele>824</ele>
        <time>2026-05-09T09:25:06.564Z</time>
      </trkpt>
      <trkpt lat="47.88331" lon="6.91463">
        <ele>824</ele>
        <time>2026-05-09T09:25:07.564Z</time>
      </trkpt>
      <trkpt lat="47.88331" lon="6.91463">
        <ele>824</ele>
        <time>2026-05-09T09:25:08.565Z</time>
      </trkpt>
      <trkpt lat="47.88332" lon="6.91462">
        <ele>825</ele>
        <time>2026-05-09T09:25:09.564Z</time>
      </trkpt>
      <trkpt lat="47.88332" lon="6.91462">
        <ele>825</ele>
        <time>2026-05-09T09:25:10.565Z</time>
      </trkpt>
      <trkpt lat="47.88333" lon="6.91462">
        <ele>825</ele>
        <time>2026-05-09T09:25:11.565Z</time>
      </trkpt>
      <trkpt lat="47.88333" lon="6.91461">
        <ele>825</ele>
        <time>2026-05-09T09:25:12.564Z</time>
      </trkpt>
      <trkpt lat="47.88334" lon="6.91461">
        <ele>825</ele>
        <time>2026-05-09T09:25:13.564Z</time>
      </trkpt>
      <trkpt lat="47.88335" lon="6.91461">
        <ele>825</ele>
        <time>2026-05-09T09:25:14.564Z</time>
      </trkpt>
      <trkpt lat="47.88336" lon="6.91461">
        <ele>825</ele>
        <time>2026-05-09T09:25:15.564Z</time>
      </trkpt>
      <trkpt lat="47.88337" lon="6.9146">
        <ele>825</ele>
        <time>2026-05-09T09:25:16.565Z</time>
      </trkpt>
      <trkpt lat="47.88337" lon="6.91461">
        <ele>825</ele>
        <time>2026-05-09T09:25:17.564Z</time>
      </trkpt>
      <trkpt lat="47.88337" lon="6.91461">
        <ele>826</ele>
        <time>2026-05-09T09:25:18.564Z</time>
      </trkpt>
      <trkpt lat="47.8834" lon="6.91457">
        <ele>825</ele>
        <time>2026-05-09T09:25:29.991Z</time>
      </trkpt>
      <trkpt lat="47.8834" lon="6.91456">
        <ele>825</ele>
        <time>2026-05-09T09:25:30.992Z</time>
      </trkpt>
      <trkpt lat="47.8834" lon="6.91456">
        <ele>825</ele>
        <time>2026-05-09T09:25:31.992Z</time>
      </trkpt>
      <trkpt lat="47.88342" lon="6.91457">
        <ele>824</ele>
        <time>2026-05-09T09:25:38.376Z</time>
      </trkpt>
      <trkpt lat="47.88343" lon="6.91456">
        <ele>824</ele>
        <time>2026-05-09T09:25:39.376Z</time>
      </trkpt>
      <trkpt lat="47.88345" lon="6.91455">
        <ele>824</ele>
        <time>2026-05-09T09:25:40.376Z</time>
      </trkpt>
      <trkpt lat="47.88347" lon="6.91453">
        <ele>824</ele>
        <time>2026-05-09T09:25:41.377Z</time>
      </trkpt>
      <trkpt lat="47.88348" lon="6.91453">
        <ele>824</ele>
        <time>2026-05-09T09:25:42.376Z</time>
      </trkpt>
      <trkpt lat="47.88348" lon="6.91453">
        <ele>823</ele>
        <time>2026-05-09T09:25:43.376Z</time>
      </trkpt>
      <trkpt lat="47.88351" lon="6.91451">
        <ele>823</ele>
        <time>2026-05-09T09:25:44.376Z</time>
      </trkpt>
      <trkpt lat="47.88351" lon="6.91451">
        <ele>823</ele>
        <time>2026-05-09T09:25:45.376Z</time>
      </trkpt>
      <trkpt lat="47.88353" lon="6.91451">
        <ele>823</ele>
        <time>2026-05-09T09:25:46.376Z</time>
      </trkpt>
      <trkpt lat="47.88353" lon="6.91451">
        <ele>822</ele>
        <time>2026-05-09T09:25:47.377Z</time>
      </trkpt>
      <trkpt lat="47.88354" lon="6.9145">
        <ele>822</ele>
        <time>2026-05-09T09:25:48.376Z</time>
      </trkpt>
      <trkpt lat="47.88355" lon="6.9145">
        <ele>822</ele>
        <time>2026-05-09T09:25:49.376Z</time>
      </trkpt>
      <trkpt lat="47.88355" lon="6.91451">
        <ele>822</ele>
        <time>2026-05-09T09:25:50.377Z</time>
      </trkpt>
      <trkpt lat="47.88356" lon="6.91451">
        <ele>822</ele>
        <time>2026-05-09T09:25:51.376Z</time>
      </trkpt>
      <trkpt lat="47.88356" lon="6.91451">
        <ele>822</ele>
        <time>2026-05-09T09:25:52.377Z</time>
      </trkpt>
      <trkpt lat="47.88356" lon="6.91452">
        <ele>821</ele>
        <time>2026-05-09T09:25:53.377Z</time>
      </trkpt>
      <trkpt lat="47.88355" lon="6.91452">
        <ele>821</ele>
        <time>2026-05-09T09:25:54.376Z</time>
      </trkpt>
      <trkpt lat="47.88355" lon="6.91452">
        <ele>821</ele>
        <time>2026-05-09T09:25:55.376Z</time>
      </trkpt>
      <trkpt lat="47.88355" lon="6.91452">
        <ele>821</ele>
        <time>2026-05-09T09:25:56.377Z</time>
      </trkpt>
      <trkpt lat="47.88356" lon="6.91453">
        <ele>821</ele>
        <time>2026-05-09T09:25:57.377Z</time>
      </trkpt>
      <trkpt lat="47.88357" lon="6.91453">
        <ele>821</ele>
        <time>2026-05-09T09:25:58.376Z</time>
      </trkpt>
      <trkpt lat="47.88358" lon="6.91452">
        <ele>820</ele>
        <time>2026-05-09T09:25:59.377Z</time>
      </trkpt>
      <trkpt lat="47.8836" lon="6.91451">
        <ele>820</ele>
        <time>2026-05-09T09:26:00.376Z</time>
      </trkpt>
      <trkpt lat="47.88362" lon="6.9145">
        <ele>820</ele>
        <time>2026-05-09T09:26:01.376Z</time>
      </trkpt>
      <trkpt lat="47.88366" lon="6.91448">
        <ele>819</ele>
        <time>2026-05-09T09:26:02.376Z</time>
      </trkpt>
      <trkpt lat="47.88368" lon="6.91447">
        <ele>819</ele>
        <time>2026-05-09T09:26:03.377Z</time>
      </trkpt>
      <trkpt lat="47.88372" lon="6.91446">
        <ele>819</ele>
        <time>2026-05-09T09:26:04.376Z</time>
      </trkpt>
      <trkpt lat="47.88374" lon="6.91445">
        <ele>818</ele>
        <time>2026-05-09T09:26:05.376Z</time>
      </trkpt>
      <trkpt lat="47.88375" lon="6.91443">
        <ele>818</ele>
        <time>2026-05-09T09:26:06.377Z</time>
      </trkpt>
      <trkpt lat="47.88378" lon="6.91442">
        <ele>818</ele>
        <time>2026-05-09T09:26:07.376Z</time>
      </trkpt>
      <trkpt lat="47.8838" lon="6.9144">
        <ele>817</ele>
        <time>2026-05-09T09:26:08.376Z</time>
      </trkpt>
      <trkpt lat="47.88383" lon="6.9144">
        <ele>817</ele>
        <time>2026-05-09T09:26:09.376Z</time>
      </trkpt>
      <trkpt lat="47.88385" lon="6.91439">
        <ele>817</ele>
        <time>2026-05-09T09:26:10.376Z</time>
      </trkpt>
      <trkpt lat="47.88386" lon="6.91438">
        <ele>817</ele>
        <time>2026-05-09T09:26:11.376Z</time>
      </trkpt>
      <trkpt lat="47.88388" lon="6.91437">
        <ele>816</ele>
        <time>2026-05-09T09:26:12.376Z</time>
      </trkpt>
      <trkpt lat="47.8839" lon="6.91436">
        <ele>816</ele>
        <time>2026-05-09T09:26:13.376Z</time>
      </trkpt>
      <trkpt lat="47.88392" lon="6.91434">
        <ele>816</ele>
        <time>2026-05-09T09:26:14.376Z</time>
      </trkpt>
      <trkpt lat="47.88393" lon="6.91434">
        <ele>816</ele>
        <time>2026-05-09T09:26:15.376Z</time>
      </trkpt>
      <trkpt lat="47.88394" lon="6.91434">
        <ele>816</ele>
        <time>2026-05-09T09:26:16.377Z</time>
      </trkpt>
      <trkpt lat="47.88396" lon="6.91433">
        <ele>816</ele>
        <time>2026-05-09T09:26:17.376Z</time>
      </trkpt>
      <trkpt lat="47.88397" lon="6.91432">
        <ele>816</ele>
        <time>2026-05-09T09:26:18.376Z</time>
      </trkpt>
      <trkpt lat="47.88399" lon="6.91431">
        <ele>816</ele>
        <time>2026-05-09T09:26:19.376Z</time>
      </trkpt>
      <trkpt lat="47.884" lon="6.91429">
        <ele>816</ele>
        <time>2026-05-09T09:26:20.376Z</time>
      </trkpt>
      <trkpt lat="47.88402" lon="6.91428">
        <ele>816</ele>
        <time>2026-05-09T09:26:21.376Z</time>
      </trkpt>
      <trkpt lat="47.88403" lon="6.91427">
        <ele>816</ele>
        <time>2026-05-09T09:26:22.376Z</time>
      </trkpt>
      <trkpt lat="47.88405" lon="6.91426">
        <ele>816</ele>
        <time>2026-05-09T09:26:23.376Z</time>
      </trkpt>
      <trkpt lat="47.88407" lon="6.91425">
        <ele>816</ele>
        <time>2026-05-09T09:26:24.376Z</time>
      </trkpt>
      <trkpt lat="47.88408" lon="6.91426">
        <ele>816</ele>
        <time>2026-05-09T09:26:25.376Z</time>
      </trkpt>
      <trkpt lat="47.88409" lon="6.91427">
        <ele>816</ele>
        <time>2026-05-09T09:26:26.377Z</time>
      </trkpt>
      <trkpt lat="47.8841" lon="6.91427">
        <ele>816</ele>
        <time>2026-05-09T09:26:27.376Z</time>
      </trkpt>
      <trkpt lat="47.88411" lon="6.91428">
        <ele>816</ele>
        <time>2026-05-09T09:26:28.377Z</time>
      </trkpt>
      <trkpt lat="47.88413" lon="6.91429">
        <ele>815</ele>
        <time>2026-05-09T09:26:29.377Z</time>
      </trkpt>
      <trkpt lat="47.88414" lon="6.91428">
        <ele>815</ele>
        <time>2026-05-09T09:26:30.376Z</time>
      </trkpt>
      <trkpt lat="47.88414" lon="6.91428">
        <ele>815</ele>
        <time>2026-05-09T09:26:31.376Z</time>
      </trkpt>
      <trkpt lat="47.88415" lon="6.91427">
        <ele>815</ele>
        <time>2026-05-09T09:26:32.377Z</time>
      </trkpt>
      <trkpt lat="47.88415" lon="6.91427">
        <ele>815</ele>
        <time>2026-05-09T09:26:33.376Z</time>
      </trkpt>
      <trkpt lat="47.88415" lon="6.91426">
        <ele>815</ele>
        <time>2026-05-09T09:26:34.376Z</time>
      </trkpt>
      <trkpt lat="47.88418" lon="6.91423">
        <ele>815</ele>
        <time>2026-05-09T09:26:39.762Z</time>
      </trkpt>
      <trkpt lat="47.88418" lon="6.91424">
        <ele>815</ele>
        <time>2026-05-09T09:26:40.761Z</time>
      </trkpt>
      <trkpt lat="47.88419" lon="6.91422">
        <ele>814</ele>
        <time>2026-05-09T09:26:54.667Z</time>
      </trkpt>
      <trkpt lat="47.88419" lon="6.91422">
        <ele>814</ele>
        <time>2026-05-09T09:26:55.668Z</time>
      </trkpt>
      <trkpt lat="47.88419" lon="6.91422">
        <ele>813</ele>
        <time>2026-05-09T09:26:56.668Z</time>
      </trkpt>
      <trkpt lat="47.88419" lon="6.91422">
        <ele>813</ele>
        <time>2026-05-09T09:26:57.668Z</time>
      </trkpt>
      <trkpt lat="47.8842" lon="6.91421">
        <ele>812</ele>
        <time>2026-05-09T09:26:58.668Z</time>
      </trkpt>
      <trkpt lat="47.8842" lon="6.9142">
        <ele>812</ele>
        <time>2026-05-09T09:26:59.668Z</time>
      </trkpt>
      <trkpt lat="47.8842" lon="6.91419">
        <ele>811</ele>
        <time>2026-05-09T09:27:00.668Z</time>
      </trkpt>
      <trkpt lat="47.8842" lon="6.91419">
        <ele>811</ele>
        <time>2026-05-09T09:27:01.667Z</time>
      </trkpt>
      <trkpt lat="47.8842" lon="6.91419">
        <ele>811</ele>
        <time>2026-05-09T09:27:02.667Z</time>
      </trkpt>
      <trkpt lat="47.88421" lon="6.91418">
        <ele>811</ele>
        <time>2026-05-09T09:27:03.668Z</time>
      </trkpt>
      <trkpt lat="47.88421" lon="6.91418">
        <ele>810</ele>
        <time>2026-05-09T09:27:04.667Z</time>
      </trkpt>
      <trkpt lat="47.88421" lon="6.91418">
        <ele>810</ele>
        <time>2026-05-09T09:27:05.668Z</time>
      </trkpt>
      <trkpt lat="47.88421" lon="6.91418">
        <ele>810</ele>
        <time>2026-05-09T09:27:06.667Z</time>
      </trkpt>
      <trkpt lat="47.88421" lon="6.91419">
        <ele>810</ele>
        <time>2026-05-09T09:27:07.668Z</time>
      </trkpt>
      <trkpt lat="47.88423" lon="6.91419">
        <ele>810</ele>
        <time>2026-05-09T09:27:08.667Z</time>
      </trkpt>
      <trkpt lat="47.88423" lon="6.91418">
        <ele>810</ele>
        <time>2026-05-09T09:27:09.667Z</time>
      </trkpt>
      <trkpt lat="47.88425" lon="6.91419">
        <ele>810</ele>
        <time>2026-05-09T09:27:10.667Z</time>
      </trkpt>
      <trkpt lat="47.88426" lon="6.91418">
        <ele>810</ele>
        <time>2026-05-09T09:27:11.667Z</time>
      </trkpt>
      <trkpt lat="47.88427" lon="6.91418">
        <ele>809</ele>
        <time>2026-05-09T09:27:12.667Z</time>
      </trkpt>
      <trkpt lat="47.88428" lon="6.91417">
        <ele>809</ele>
        <time>2026-05-09T09:27:13.668Z</time>
      </trkpt>
      <trkpt lat="47.88428" lon="6.91416">
        <ele>809</ele>
        <time>2026-05-09T09:27:14.668Z</time>
      </trkpt>
      <trkpt lat="47.88429" lon="6.91414">
        <ele>809</ele>
        <time>2026-05-09T09:27:15.668Z</time>
      </trkpt>
      <trkpt lat="47.88431" lon="6.91412">
        <ele>809</ele>
        <time>2026-05-09T09:27:16.667Z</time>
      </trkpt>
      <trkpt lat="47.88432" lon="6.91411">
        <ele>809</ele>
        <time>2026-05-09T09:27:17.667Z</time>
      </trkpt>
      <trkpt lat="47.88433" lon="6.9141">
        <ele>809</ele>
        <time>2026-05-09T09:27:18.667Z</time>
      </trkpt>
      <trkpt lat="47.88435" lon="6.9141">
        <ele>808</ele>
        <time>2026-05-09T09:27:19.667Z</time>
      </trkpt>
      <trkpt lat="47.88436" lon="6.91409">
        <ele>808</ele>
        <time>2026-05-09T09:27:20.667Z</time>
      </trkpt>
      <trkpt lat="47.88437" lon="6.91409">
        <ele>808</ele>
        <time>2026-05-09T09:27:21.667Z</time>
      </trkpt>
      <trkpt lat="47.88437" lon="6.91408">
        <ele>808</ele>
        <time>2026-05-09T09:27:22.667Z</time>
      </trkpt>
      <trkpt lat="47.88439" lon="6.91408">
        <ele>808</ele>
        <time>2026-05-09T09:27:23.668Z</time>
      </trkpt>
      <trkpt lat="47.88439" lon="6.91408">
        <ele>808</ele>
        <time>2026-05-09T09:27:24.668Z</time>
      </trkpt>
      <trkpt lat="47.8844" lon="6.91407">
        <ele>808</ele>
        <time>2026-05-09T09:27:25.667Z</time>
      </trkpt>
      <trkpt lat="47.88441" lon="6.91408">
        <ele>808</ele>
        <time>2026-05-09T09:27:26.667Z</time>
      </trkpt>
      <trkpt lat="47.88442" lon="6.91409">
        <ele>808</ele>
        <time>2026-05-09T09:27:27.667Z</time>
      </trkpt>
      <trkpt lat="47.88443" lon="6.91409">
        <ele>808</ele>
        <time>2026-05-09T09:27:28.667Z</time>
      </trkpt>
      <trkpt lat="47.88444" lon="6.91409">
        <ele>808</ele>
        <time>2026-05-09T09:27:29.667Z</time>
      </trkpt>
      <trkpt lat="47.88445" lon="6.9141">
        <ele>808</ele>
        <time>2026-05-09T09:27:30.668Z</time>
      </trkpt>
      <trkpt lat="47.88446" lon="6.9141">
        <ele>807</ele>
        <time>2026-05-09T09:27:31.667Z</time>
      </trkpt>
      <trkpt lat="47.88447" lon="6.9141">
        <ele>807</ele>
        <time>2026-05-09T09:27:32.667Z</time>
      </trkpt>
      <trkpt lat="47.88448" lon="6.9141">
        <ele>807</ele>
        <time>2026-05-09T09:27:33.667Z</time>
      </trkpt>
      <trkpt lat="47.88448" lon="6.9141">
        <ele>807</ele>
        <time>2026-05-09T09:27:34.668Z</time>
      </trkpt>
      <trkpt lat="47.88448" lon="6.9141">
        <ele>807</ele>
        <time>2026-05-09T09:27:35.667Z</time>
      </trkpt>
      <trkpt lat="47.88448" lon="6.9141">
        <ele>807</ele>
        <time>2026-05-09T09:27:36.667Z</time>
      </trkpt>
      <trkpt lat="47.88447" lon="6.91411">
        <ele>806</ele>
        <time>2026-05-09T09:27:37.667Z</time>
      </trkpt>
      <trkpt lat="47.88447" lon="6.91413">
        <ele>806</ele>
        <time>2026-05-09T09:27:38.667Z</time>
      </trkpt>
      <trkpt lat="47.88446" lon="6.91414">
        <ele>806</ele>
        <time>2026-05-09T09:27:39.667Z</time>
      </trkpt>
      <trkpt lat="47.88446" lon="6.91415">
        <ele>806</ele>
        <time>2026-05-09T09:27:40.667Z</time>
      </trkpt>
      <trkpt lat="47.88445" lon="6.91416">
        <ele>806</ele>
        <time>2026-05-09T09:27:41.667Z</time>
      </trkpt>
      <trkpt lat="47.88445" lon="6.91416">
        <ele>806</ele>
        <time>2026-05-09T09:27:42.667Z</time>
      </trkpt>
      <trkpt lat="47.88445" lon="6.91418">
        <ele>806</ele>
        <time>2026-05-09T09:27:43.667Z</time>
      </trkpt>
      <trkpt lat="47.88444" lon="6.91419">
        <ele>806</ele>
        <time>2026-05-09T09:27:44.667Z</time>
      </trkpt>
      <trkpt lat="47.88444" lon="6.91421">
        <ele>806</ele>
        <time>2026-05-09T09:27:45.667Z</time>
      </trkpt>
      <trkpt lat="47.88444" lon="6.91422">
        <ele>806</ele>
        <time>2026-05-09T09:27:46.668Z</time>
      </trkpt>
      <trkpt lat="47.88444" lon="6.91422">
        <ele>806</ele>
        <time>2026-05-09T09:27:47.667Z</time>
      </trkpt>
      <trkpt lat="47.88444" lon="6.91423">
        <ele>806</ele>
        <time>2026-05-09T09:27:48.667Z</time>
      </trkpt>
      <trkpt lat="47.88444" lon="6.91424">
        <ele>806</ele>
        <time>2026-05-09T09:27:49.667Z</time>
      </trkpt>
      <trkpt lat="47.88444" lon="6.91424">
        <ele>805</ele>
        <time>2026-05-09T09:27:50.668Z</time>
      </trkpt>
      <trkpt lat="47.88444" lon="6.91425">
        <ele>805</ele>
        <time>2026-05-09T09:27:51.668Z</time>
      </trkpt>
      <trkpt lat="47.88445" lon="6.91424">
        <ele>805</ele>
        <time>2026-05-09T09:27:52.667Z</time>
      </trkpt>
      <trkpt lat="47.88447" lon="6.91423">
        <ele>805</ele>
        <time>2026-05-09T09:27:53.667Z</time>
      </trkpt>
      <trkpt lat="47.88448" lon="6.91422">
        <ele>805</ele>
        <time>2026-05-09T09:27:54.668Z</time>
      </trkpt>
      <trkpt lat="47.88449" lon="6.91422">
        <ele>805</ele>
        <time>2026-05-09T09:27:55.667Z</time>
      </trkpt>
      <trkpt lat="47.8845" lon="6.91421">
        <ele>805</ele>
        <time>2026-05-09T09:27:56.667Z</time>
      </trkpt>
      <trkpt lat="47.88451" lon="6.91422">
        <ele>805</ele>
        <time>2026-05-09T09:27:57.667Z</time>
      </trkpt>
      <trkpt lat="47.88452" lon="6.91422">
        <ele>805</ele>
        <time>2026-05-09T09:27:58.667Z</time>
      </trkpt>
      <trkpt lat="47.88452" lon="6.91422">
        <ele>805</ele>
        <time>2026-05-09T09:27:59.667Z</time>
      </trkpt>
      <trkpt lat="47.88452" lon="6.91422">
        <ele>805</ele>
        <time>2026-05-09T09:28:00.667Z</time>
      </trkpt>
      <trkpt lat="47.88453" lon="6.91423">
        <ele>805</ele>
        <time>2026-05-09T09:28:01.668Z</time>
      </trkpt>
      <trkpt lat="47.88458" lon="6.91423">
        <ele>805</ele>
        <time>2026-05-09T09:28:07.988Z</time>
      </trkpt>
      <trkpt lat="47.88458" lon="6.91423">
        <ele>805</ele>
        <time>2026-05-09T09:28:08.988Z</time>
      </trkpt>
      <trkpt lat="47.88459" lon="6.91423">
        <ele>805</ele>
        <time>2026-05-09T09:28:09.989Z</time>
      </trkpt>
      <trkpt lat="47.8846" lon="6.91423">
        <ele>805</ele>
        <time>2026-05-09T09:28:10.989Z</time>
      </trkpt>
      <trkpt lat="47.88461" lon="6.91424">
        <ele>805</ele>
        <time>2026-05-09T09:28:11.988Z</time>
      </trkpt>
      <trkpt lat="47.88466" lon="6.91425">
        <ele>805</ele>
        <time>2026-05-09T09:28:13.988Z</time>
      </trkpt>
      <trkpt lat="47.88468" lon="6.91424">
        <ele>805</ele>
        <time>2026-05-09T09:28:14.988Z</time>
      </trkpt>
      <trkpt lat="47.88468" lon="6.91424">
        <ele>805</ele>
        <time>2026-05-09T09:28:15.988Z</time>
      </trkpt>
      <trkpt lat="47.88468" lon="6.91424">
        <ele>804</ele>
        <time>2026-05-09T09:28:16.988Z</time>
      </trkpt>
      <trkpt lat="47.88469" lon="6.91424">
        <ele>804</ele>
        <time>2026-05-09T09:28:17.988Z</time>
      </trkpt>
      <trkpt lat="47.88469" lon="6.91423">
        <ele>804</ele>
        <time>2026-05-09T09:28:18.988Z</time>
      </trkpt>
      <trkpt lat="47.8847" lon="6.91423">
        <ele>804</ele>
        <time>2026-05-09T09:28:19.989Z</time>
      </trkpt>
      <trkpt lat="47.88471" lon="6.91424">
        <ele>803</ele>
        <time>2026-05-09T09:28:20.989Z</time>
      </trkpt>
      <trkpt lat="47.88471" lon="6.91426">
        <ele>803</ele>
        <time>2026-05-09T09:28:21.989Z</time>
      </trkpt>
      <trkpt lat="47.88472" lon="6.91426">
        <ele>803</ele>
        <time>2026-05-09T09:28:22.989Z</time>
      </trkpt>
      <trkpt lat="47.88473" lon="6.91426">
        <ele>803</ele>
        <time>2026-05-09T09:28:23.988Z</time>
      </trkpt>
      <trkpt lat="47.88474" lon="6.91427">
        <ele>803</ele>
        <time>2026-05-09T09:28:24.988Z</time>
      </trkpt>
      <trkpt lat="47.88475" lon="6.91426">
        <ele>803</ele>
        <time>2026-05-09T09:28:25.988Z</time>
      </trkpt>
      <trkpt lat="47.88475" lon="6.91426">
        <ele>803</ele>
        <time>2026-05-09T09:28:26.988Z</time>
      </trkpt>
      <trkpt lat="47.88476" lon="6.91426">
        <ele>803</ele>
        <time>2026-05-09T09:28:27.989Z</time>
      </trkpt>
      <trkpt lat="47.88476" lon="6.91426">
        <ele>803</ele>
        <time>2026-05-09T09:28:28.989Z</time>
      </trkpt>
      <trkpt lat="47.88477" lon="6.91426">
        <ele>803</ele>
        <time>2026-05-09T09:28:29.989Z</time>
      </trkpt>
      <trkpt lat="47.88477" lon="6.91426">
        <ele>803</ele>
        <time>2026-05-09T09:28:30.989Z</time>
      </trkpt>
      <trkpt lat="47.88478" lon="6.91425">
        <ele>803</ele>
        <time>2026-05-09T09:28:31.989Z</time>
      </trkpt>
      <trkpt lat="47.88479" lon="6.91425">
        <ele>803</ele>
        <time>2026-05-09T09:28:32.988Z</time>
      </trkpt>
      <trkpt lat="47.8848" lon="6.91424">
        <ele>803</ele>
        <time>2026-05-09T09:28:33.988Z</time>
      </trkpt>
      <trkpt lat="47.88481" lon="6.91423">
        <ele>804</ele>
        <time>2026-05-09T09:28:34.988Z</time>
      </trkpt>
      <trkpt lat="47.88482" lon="6.91423">
        <ele>804</ele>
        <time>2026-05-09T09:28:35.988Z</time>
      </trkpt>
      <trkpt lat="47.88484" lon="6.91422">
        <ele>804</ele>
        <time>2026-05-09T09:28:36.989Z</time>
      </trkpt>
      <trkpt lat="47.88485" lon="6.91422">
        <ele>804</ele>
        <time>2026-05-09T09:28:37.989Z</time>
      </trkpt>
      <trkpt lat="47.88487" lon="6.91422">
        <ele>804</ele>
        <time>2026-05-09T09:28:38.989Z</time>
      </trkpt>
      <trkpt lat="47.88488" lon="6.91423">
        <ele>804</ele>
        <time>2026-05-09T09:28:39.989Z</time>
      </trkpt>
      <trkpt lat="47.88489" lon="6.91423">
        <ele>804</ele>
        <time>2026-05-09T09:28:40.989Z</time>
      </trkpt>
      <trkpt lat="47.8849" lon="6.91423">
        <ele>804</ele>
        <time>2026-05-09T09:28:41.988Z</time>
      </trkpt>
      <trkpt lat="47.88491" lon="6.91424">
        <ele>804</ele>
        <time>2026-05-09T09:28:42.988Z</time>
      </trkpt>
      <trkpt lat="47.88491" lon="6.91424">
        <ele>804</ele>
        <time>2026-05-09T09:28:43.988Z</time>
      </trkpt>
      <trkpt lat="47.88491" lon="6.91425">
        <ele>805</ele>
        <time>2026-05-09T09:28:44.988Z</time>
      </trkpt>
      <trkpt lat="47.88491" lon="6.91425">
        <ele>805</ele>
        <time>2026-05-09T09:28:45.989Z</time>
      </trkpt>
      <trkpt lat="47.88492" lon="6.91425">
        <ele>805</ele>
        <time>2026-05-09T09:28:46.989Z</time>
      </trkpt>
      <trkpt lat="47.88493" lon="6.91425">
        <ele>805</ele>
        <time>2026-05-09T09:28:47.989Z</time>
      </trkpt>
      <trkpt lat="47.88494" lon="6.91426">
        <ele>805</ele>
        <time>2026-05-09T09:28:48.989Z</time>
      </trkpt>
      <trkpt lat="47.88494" lon="6.91426">
        <ele>805</ele>
        <time>2026-05-09T09:28:49.989Z</time>
      </trkpt>
      <trkpt lat="47.88494" lon="6.91426">
        <ele>805</ele>
        <time>2026-05-09T09:28:50.989Z</time>
      </trkpt>
      <trkpt lat="47.88494" lon="6.91427">
        <ele>804</ele>
        <time>2026-05-09T09:28:51.988Z</time>
      </trkpt>
      <trkpt lat="47.88495" lon="6.91427">
        <ele>804</ele>
        <time>2026-05-09T09:28:52.988Z</time>
      </trkpt>
      <trkpt lat="47.88496" lon="6.91427">
        <ele>804</ele>
        <time>2026-05-09T09:28:53.988Z</time>
      </trkpt>
      <trkpt lat="47.88497" lon="6.91426">
        <ele>804</ele>
        <time>2026-05-09T09:28:54.988Z</time>
      </trkpt>
      <trkpt lat="47.88499" lon="6.91426">
        <ele>804</ele>
        <time>2026-05-09T09:28:55.989Z</time>
      </trkpt>
      <trkpt lat="47.88499" lon="6.91427">
        <ele>804</ele>
        <time>2026-05-09T09:28:56.988Z</time>
      </trkpt>
      <trkpt lat="47.88501" lon="6.91427">
        <ele>804</ele>
        <time>2026-05-09T09:28:57.988Z</time>
      </trkpt>
      <trkpt lat="47.88502" lon="6.91428">
        <ele>804</ele>
        <time>2026-05-09T09:28:58.988Z</time>
      </trkpt>
      <trkpt lat="47.88504" lon="6.91428">
        <ele>804</ele>
        <time>2026-05-09T09:28:59.988Z</time>
      </trkpt>
      <trkpt lat="47.88505" lon="6.91428">
        <ele>804</ele>
        <time>2026-05-09T09:29:00.988Z</time>
      </trkpt>
      <trkpt lat="47.88506" lon="6.91429">
        <ele>804</ele>
        <time>2026-05-09T09:29:01.988Z</time>
      </trkpt>
      <trkpt lat="47.88507" lon="6.9143">
        <ele>803</ele>
        <time>2026-05-09T09:29:02.989Z</time>
      </trkpt>
      <trkpt lat="47.88508" lon="6.9143">
        <ele>803</ele>
        <time>2026-05-09T09:29:03.989Z</time>
      </trkpt>
      <trkpt lat="47.8851" lon="6.9143">
        <ele>803</ele>
        <time>2026-05-09T09:29:04.989Z</time>
      </trkpt>
      <trkpt lat="47.88511" lon="6.9143">
        <ele>803</ele>
        <time>2026-05-09T09:29:05.989Z</time>
      </trkpt>
      <trkpt lat="47.88512" lon="6.9143">
        <ele>803</ele>
        <time>2026-05-09T09:29:06.989Z</time>
      </trkpt>
      <trkpt lat="47.88513" lon="6.9143">
        <ele>803</ele>
        <time>2026-05-09T09:29:07.988Z</time>
      </trkpt>
      <trkpt lat="47.88515" lon="6.91427">
        <ele>803</ele>
        <time>2026-05-09T09:29:08.988Z</time>
      </trkpt>
      <trkpt lat="47.88517" lon="6.91426">
        <ele>802</ele>
        <time>2026-05-09T09:29:09.989Z</time>
      </trkpt>
      <trkpt lat="47.88519" lon="6.91423">
        <ele>802</ele>
        <time>2026-05-09T09:29:10.989Z</time>
      </trkpt>
      <trkpt lat="47.88521" lon="6.91421">
        <ele>802</ele>
        <time>2026-05-09T09:29:11.989Z</time>
      </trkpt>
      <trkpt lat="47.88523" lon="6.91418">
        <ele>802</ele>
        <time>2026-05-09T09:29:12.989Z</time>
      </trkpt>
      <trkpt lat="47.88525" lon="6.91416">
        <ele>801</ele>
        <time>2026-05-09T09:29:13.989Z</time>
      </trkpt>
      <trkpt lat="47.88526" lon="6.91414">
        <ele>801</ele>
        <time>2026-05-09T09:29:14.989Z</time>
      </trkpt>
      <trkpt lat="47.88526" lon="6.91413">
        <ele>801</ele>
        <time>2026-05-09T09:29:15.989Z</time>
      </trkpt>
      <trkpt lat="47.88527" lon="6.91411">
        <ele>800</ele>
        <time>2026-05-09T09:29:16.988Z</time>
      </trkpt>
      <trkpt lat="47.88527" lon="6.91409">
        <ele>800</ele>
        <time>2026-05-09T09:29:17.988Z</time>
      </trkpt>
      <trkpt lat="47.88528" lon="6.91407">
        <ele>800</ele>
        <time>2026-05-09T09:29:18.988Z</time>
      </trkpt>
      <trkpt lat="47.88529" lon="6.91405">
        <ele>800</ele>
        <time>2026-05-09T09:29:19.989Z</time>
      </trkpt>
      <trkpt lat="47.8853" lon="6.91403">
        <ele>799</ele>
        <time>2026-05-09T09:29:20.988Z</time>
      </trkpt>
      <trkpt lat="47.88531" lon="6.91401">
        <ele>799</ele>
        <time>2026-05-09T09:29:21.988Z</time>
      </trkpt>
      <trkpt lat="47.88531" lon="6.91399">
        <ele>799</ele>
        <time>2026-05-09T09:29:22.988Z</time>
      </trkpt>
      <trkpt lat="47.88532" lon="6.91397">
        <ele>799</ele>
        <time>2026-05-09T09:29:23.988Z</time>
      </trkpt>
      <trkpt lat="47.88532" lon="6.91395">
        <ele>799</ele>
        <time>2026-05-09T09:29:24.989Z</time>
      </trkpt>
      <trkpt lat="47.88532" lon="6.91392">
        <ele>799</ele>
        <time>2026-05-09T09:29:25.988Z</time>
      </trkpt>
      <trkpt lat="47.88532" lon="6.9139">
        <ele>799</ele>
        <time>2026-05-09T09:29:26.988Z</time>
      </trkpt>
      <trkpt lat="47.88532" lon="6.9139">
        <ele>799</ele>
        <time>2026-05-09T09:29:27.988Z</time>
      </trkpt>
      <trkpt lat="47.88532" lon="6.91388">
        <ele>799</ele>
        <time>2026-05-09T09:29:28.988Z</time>
      </trkpt>
      <trkpt lat="47.88533" lon="6.91385">
        <ele>799</ele>
        <time>2026-05-09T09:29:29.988Z</time>
      </trkpt>
      <trkpt lat="47.88533" lon="6.91385">
        <ele>799</ele>
        <time>2026-05-09T09:29:30.989Z</time>
      </trkpt>
      <trkpt lat="47.88534" lon="6.91382">
        <ele>798</ele>
        <time>2026-05-09T09:29:31.989Z</time>
      </trkpt>
      <trkpt lat="47.88535" lon="6.9138">
        <ele>798</ele>
        <time>2026-05-09T09:29:32.989Z</time>
      </trkpt>
      <trkpt lat="47.88535" lon="6.91378">
        <ele>798</ele>
        <time>2026-05-09T09:29:33.989Z</time>
      </trkpt>
      <trkpt lat="47.88536" lon="6.91376">
        <ele>798</ele>
        <time>2026-05-09T09:29:34.988Z</time>
      </trkpt>
      <trkpt lat="47.88537" lon="6.91372">
        <ele>798</ele>
        <time>2026-05-09T09:29:35.988Z</time>
      </trkpt>
      <trkpt lat="47.88538" lon="6.91369">
        <ele>798</ele>
        <time>2026-05-09T09:29:36.988Z</time>
      </trkpt>
      <trkpt lat="47.88538" lon="6.91369">
        <ele>798</ele>
        <time>2026-05-09T09:29:37.989Z</time>
      </trkpt>
      <trkpt lat="47.88539" lon="6.91367">
        <ele>798</ele>
        <time>2026-05-09T09:29:38.988Z</time>
      </trkpt>
      <trkpt lat="47.8854" lon="6.91365">
        <ele>797</ele>
        <time>2026-05-09T09:29:39.988Z</time>
      </trkpt>
      <trkpt lat="47.8854" lon="6.91364">
        <ele>797</ele>
        <time>2026-05-09T09:29:40.988Z</time>
      </trkpt>
      <trkpt lat="47.88541" lon="6.91363">
        <ele>796</ele>
        <time>2026-05-09T09:29:41.989Z</time>
      </trkpt>
      <trkpt lat="47.88541" lon="6.91362">
        <ele>796</ele>
        <time>2026-05-09T09:29:42.988Z</time>
      </trkpt>
      <trkpt lat="47.88542" lon="6.9136">
        <ele>796</ele>
        <time>2026-05-09T09:29:43.988Z</time>
      </trkpt>
      <trkpt lat="47.88543" lon="6.91359">
        <ele>795</ele>
        <time>2026-05-09T09:29:44.989Z</time>
      </trkpt>
      <trkpt lat="47.88545" lon="6.91358">
        <ele>795</ele>
        <time>2026-05-09T09:29:45.989Z</time>
      </trkpt>
      <trkpt lat="47.88546" lon="6.91357">
        <ele>795</ele>
        <time>2026-05-09T09:29:46.989Z</time>
      </trkpt>
      <trkpt lat="47.88547" lon="6.91355">
        <ele>795</ele>
        <time>2026-05-09T09:29:47.988Z</time>
      </trkpt>
      <trkpt lat="47.88549" lon="6.91354">
        <ele>794</ele>
        <time>2026-05-09T09:29:48.989Z</time>
      </trkpt>
      <trkpt lat="47.88549" lon="6.91353">
        <ele>794</ele>
        <time>2026-05-09T09:29:49.988Z</time>
      </trkpt>
      <trkpt lat="47.8855" lon="6.91351">
        <ele>794</ele>
        <time>2026-05-09T09:29:50.989Z</time>
      </trkpt>
      <trkpt lat="47.8855" lon="6.91351">
        <ele>794</ele>
        <time>2026-05-09T09:29:51.988Z</time>
      </trkpt>
      <trkpt lat="47.88551" lon="6.9135">
        <ele>794</ele>
        <time>2026-05-09T09:29:52.989Z</time>
      </trkpt>
      <trkpt lat="47.88551" lon="6.9135">
        <ele>794</ele>
        <time>2026-05-09T09:29:53.989Z</time>
      </trkpt>
      <trkpt lat="47.88551" lon="6.91348">
        <ele>794</ele>
        <time>2026-05-09T09:29:54.989Z</time>
      </trkpt>
      <trkpt lat="47.88552" lon="6.91347">
        <ele>794</ele>
        <time>2026-05-09T09:29:55.988Z</time>
      </trkpt>
      <trkpt lat="47.88553" lon="6.91344">
        <ele>794</ele>
        <time>2026-05-09T09:29:56.989Z</time>
      </trkpt>
      <trkpt lat="47.88553" lon="6.91343">
        <ele>793</ele>
        <time>2026-05-09T09:29:57.988Z</time>
      </trkpt>
      <trkpt lat="47.88553" lon="6.91341">
        <ele>793</ele>
        <time>2026-05-09T09:29:58.989Z</time>
      </trkpt>
      <trkpt lat="47.88553" lon="6.9134">
        <ele>793</ele>
        <time>2026-05-09T09:29:59.988Z</time>
      </trkpt>
      <trkpt lat="47.88553" lon="6.91338">
        <ele>793</ele>
        <time>2026-05-09T09:30:00.988Z</time>
      </trkpt>
      <trkpt lat="47.88553" lon="6.91336">
        <ele>792</ele>
        <time>2026-05-09T09:30:01.988Z</time>
      </trkpt>
      <trkpt lat="47.88554" lon="6.91334">
        <ele>792</ele>
        <time>2026-05-09T09:30:02.989Z</time>
      </trkpt>
      <trkpt lat="47.88554" lon="6.91332">
        <ele>792</ele>
        <time>2026-05-09T09:30:03.989Z</time>
      </trkpt>
      <trkpt lat="47.88555" lon="6.91331">
        <ele>791</ele>
        <time>2026-05-09T09:30:04.988Z</time>
      </trkpt>
      <trkpt lat="47.88556" lon="6.91329">
        <ele>791</ele>
        <time>2026-05-09T09:30:05.988Z</time>
      </trkpt>
      <trkpt lat="47.88557" lon="6.91328">
        <ele>791</ele>
        <time>2026-05-09T09:30:06.988Z</time>
      </trkpt>
      <trkpt lat="47.88558" lon="6.91327">
        <ele>791</ele>
        <time>2026-05-09T09:30:07.988Z</time>
      </trkpt>
      <trkpt lat="47.88559" lon="6.91326">
        <ele>791</ele>
        <time>2026-05-09T09:30:08.988Z</time>
      </trkpt>
      <trkpt lat="47.88559" lon="6.91324">
        <ele>791</ele>
        <time>2026-05-09T09:30:09.988Z</time>
      </trkpt>
      <trkpt lat="47.8856" lon="6.91322">
        <ele>791</ele>
        <time>2026-05-09T09:30:10.988Z</time>
      </trkpt>
      <trkpt lat="47.8856" lon="6.9132">
        <ele>791</ele>
        <time>2026-05-09T09:30:11.989Z</time>
      </trkpt>
      <trkpt lat="47.88561" lon="6.91318">
        <ele>790</ele>
        <time>2026-05-09T09:30:12.988Z</time>
      </trkpt>
      <trkpt lat="47.88562" lon="6.91316">
        <ele>790</ele>
        <time>2026-05-09T09:30:13.988Z</time>
      </trkpt>
      <trkpt lat="47.88563" lon="6.91314">
        <ele>790</ele>
        <time>2026-05-09T09:30:14.989Z</time>
      </trkpt>
      <trkpt lat="47.88563" lon="6.91312">
        <ele>790</ele>
        <time>2026-05-09T09:30:15.989Z</time>
      </trkpt>
      <trkpt lat="47.88564" lon="6.9131">
        <ele>789</ele>
        <time>2026-05-09T09:30:16.988Z</time>
      </trkpt>
      <trkpt lat="47.88565" lon="6.91308">
        <ele>789</ele>
        <time>2026-05-09T09:30:17.989Z</time>
      </trkpt>
      <trkpt lat="47.88566" lon="6.91306">
        <ele>789</ele>
        <time>2026-05-09T09:30:18.988Z</time>
      </trkpt>
      <trkpt lat="47.88566" lon="6.91304">
        <ele>788</ele>
        <time>2026-05-09T09:30:19.988Z</time>
      </trkpt>
      <trkpt lat="47.88566" lon="6.91301">
        <ele>788</ele>
        <time>2026-05-09T09:30:20.988Z</time>
      </trkpt>
      <trkpt lat="47.88566" lon="6.91299">
        <ele>787</ele>
        <time>2026-05-09T09:30:21.988Z</time>
      </trkpt>
      <trkpt lat="47.88567" lon="6.91298">
        <ele>787</ele>
        <time>2026-05-09T09:30:22.989Z</time>
      </trkpt>
      <trkpt lat="47.88568" lon="6.91296">
        <ele>787</ele>
        <time>2026-05-09T09:30:23.988Z</time>
      </trkpt>
      <trkpt lat="47.88568" lon="6.91294">
        <ele>786</ele>
        <time>2026-05-09T09:30:24.988Z</time>
      </trkpt>
      <trkpt lat="47.88569" lon="6.91293">
        <ele>786</ele>
        <time>2026-05-09T09:30:25.988Z</time>
      </trkpt>
      <trkpt lat="47.8857" lon="6.91292">
        <ele>786</ele>
        <time>2026-05-09T09:30:26.989Z</time>
      </trkpt>
      <trkpt lat="47.88571" lon="6.9129">
        <ele>786</ele>
        <time>2026-05-09T09:30:27.988Z</time>
      </trkpt>
      <trkpt lat="47.88572" lon="6.91287">
        <ele>786</ele>
        <time>2026-05-09T09:30:28.989Z</time>
      </trkpt>
      <trkpt lat="47.88572" lon="6.91285">
        <ele>786</ele>
        <time>2026-05-09T09:30:29.988Z</time>
      </trkpt>
      <trkpt lat="47.88572" lon="6.91283">
        <ele>786</ele>
        <time>2026-05-09T09:30:30.989Z</time>
      </trkpt>
      <trkpt lat="47.88572" lon="6.91281">
        <ele>785</ele>
        <time>2026-05-09T09:30:31.988Z</time>
      </trkpt>
      <trkpt lat="47.88571" lon="6.91279">
        <ele>786</ele>
        <time>2026-05-09T09:30:32.989Z</time>
      </trkpt>
      <trkpt lat="47.88571" lon="6.91277">
        <ele>786</ele>
        <time>2026-05-09T09:30:33.988Z</time>
      </trkpt>
      <trkpt lat="47.88572" lon="6.91275">
        <ele>786</ele>
        <time>2026-05-09T09:30:34.989Z</time>
      </trkpt>
      <trkpt lat="47.88572" lon="6.91273">
        <ele>786</ele>
        <time>2026-05-09T09:30:35.988Z</time>
      </trkpt>
      <trkpt lat="47.88573" lon="6.91271">
        <ele>786</ele>
        <time>2026-05-09T09:30:36.989Z</time>
      </trkpt>
      <trkpt lat="47.88573" lon="6.91269">
        <ele>786</ele>
        <time>2026-05-09T09:30:37.989Z</time>
      </trkpt>
      <trkpt lat="47.88572" lon="6.91268">
        <ele>786</ele>
        <time>2026-05-09T09:30:38.988Z</time>
      </trkpt>
      <trkpt lat="47.88572" lon="6.91268">
        <ele>787</ele>
        <time>2026-05-09T09:30:39.989Z</time>
      </trkpt>
      <trkpt lat="47.88571" lon="6.91266">
        <ele>787</ele>
        <time>2026-05-09T09:30:40.988Z</time>
      </trkpt>
      <trkpt lat="47.88571" lon="6.91265">
        <ele>787</ele>
        <time>2026-05-09T09:30:41.988Z</time>
      </trkpt>
      <trkpt lat="47.8857" lon="6.91264">
        <ele>787</ele>
        <time>2026-05-09T09:30:42.988Z</time>
      </trkpt>
      <trkpt lat="47.88568" lon="6.91263">
        <ele>787</ele>
        <time>2026-05-09T09:30:43.988Z</time>
      </trkpt>
      <trkpt lat="47.88567" lon="6.91262">
        <ele>788</ele>
        <time>2026-05-09T09:30:44.988Z</time>
      </trkpt>
      <trkpt lat="47.88567" lon="6.91261">
        <ele>788</ele>
        <time>2026-05-09T09:30:45.989Z</time>
      </trkpt>
      <trkpt lat="47.88566" lon="6.91259">
        <ele>788</ele>
        <time>2026-05-09T09:30:46.988Z</time>
      </trkpt>
      <trkpt lat="47.88565" lon="6.91257">
        <ele>788</ele>
        <time>2026-05-09T09:30:47.989Z</time>
      </trkpt>
      <trkpt lat="47.88564" lon="6.91254">
        <ele>789</ele>
        <time>2026-05-09T09:30:48.988Z</time>
      </trkpt>
      <trkpt lat="47.88564" lon="6.91252">
        <ele>789</ele>
        <time>2026-05-09T09:30:49.989Z</time>
      </trkpt>
      <trkpt lat="47.88564" lon="6.9125">
        <ele>789</ele>
        <time>2026-05-09T09:30:50.988Z</time>
      </trkpt>
      <trkpt lat="47.88565" lon="6.91248">
        <ele>790</ele>
        <time>2026-05-09T09:30:51.989Z</time>
      </trkpt>
      <trkpt lat="47.88566" lon="6.91247">
        <ele>790</ele>
        <time>2026-05-09T09:30:52.989Z</time>
      </trkpt>
      <trkpt lat="47.88566" lon="6.91245">
        <ele>790</ele>
        <time>2026-05-09T09:30:53.989Z</time>
      </trkpt>
      <trkpt lat="47.88566" lon="6.91243">
        <ele>790</ele>
        <time>2026-05-09T09:30:54.989Z</time>
      </trkpt>
      <trkpt lat="47.88567" lon="6.9124">
        <ele>791</ele>
        <time>2026-05-09T09:30:55.988Z</time>
      </trkpt>
      <trkpt lat="47.88567" lon="6.91239">
        <ele>791</ele>
        <time>2026-05-09T09:30:56.989Z</time>
      </trkpt>
      <trkpt lat="47.88567" lon="6.91237">
        <ele>791</ele>
        <time>2026-05-09T09:30:57.988Z</time>
      </trkpt>
      <trkpt lat="47.88567" lon="6.91235">
        <ele>791</ele>
        <time>2026-05-09T09:30:58.989Z</time>
      </trkpt>
      <trkpt lat="47.88568" lon="6.91233">
        <ele>791</ele>
        <time>2026-05-09T09:30:59.988Z</time>
      </trkpt>
      <trkpt lat="47.88568" lon="6.91231">
        <ele>790</ele>
        <time>2026-05-09T09:31:00.989Z</time>
      </trkpt>
      <trkpt lat="47.88568" lon="6.91229">
        <ele>790</ele>
        <time>2026-05-09T09:31:01.988Z</time>
      </trkpt>
      <trkpt lat="47.88568" lon="6.91226">
        <ele>790</ele>
        <time>2026-05-09T09:31:02.989Z</time>
      </trkpt>
      <trkpt lat="47.88568" lon="6.91224">
        <ele>790</ele>
        <time>2026-05-09T09:31:03.988Z</time>
      </trkpt>
      <trkpt lat="47.88568" lon="6.91222">
        <ele>790</ele>
        <time>2026-05-09T09:31:04.989Z</time>
      </trkpt>
      <trkpt lat="47.88568" lon="6.91219">
        <ele>790</ele>
        <time>2026-05-09T09:31:05.988Z</time>
      </trkpt>
      <trkpt lat="47.88568" lon="6.91217">
        <ele>789</ele>
        <time>2026-05-09T09:31:06.989Z</time>
      </trkpt>
      <trkpt lat="47.88568" lon="6.91214">
        <ele>789</ele>
        <time>2026-05-09T09:31:07.988Z</time>
      </trkpt>
      <trkpt lat="47.88568" lon="6.91212">
        <ele>789</ele>
        <time>2026-05-09T09:31:08.989Z</time>
      </trkpt>
      <trkpt lat="47.88568" lon="6.91209">
        <ele>788</ele>
        <time>2026-05-09T09:31:09.989Z</time>
      </trkpt>
      <trkpt lat="47.88568" lon="6.91206">
        <ele>788</ele>
        <time>2026-05-09T09:31:10.989Z</time>
      </trkpt>
      <trkpt lat="47.88567" lon="6.91205">
        <ele>788</ele>
        <time>2026-05-09T09:31:11.989Z</time>
      </trkpt>
      <trkpt lat="47.88566" lon="6.91203">
        <ele>788</ele>
        <time>2026-05-09T09:31:12.988Z</time>
      </trkpt>
      <trkpt lat="47.88566" lon="6.91203">
        <ele>788</ele>
        <time>2026-05-09T09:31:13.988Z</time>
      </trkpt>
      <trkpt lat="47.88565" lon="6.91203">
        <ele>788</ele>
        <time>2026-05-09T09:31:14.988Z</time>
      </trkpt>
      <trkpt lat="47.88565" lon="6.91203">
        <ele>788</ele>
        <time>2026-05-09T09:31:15.988Z</time>
      </trkpt>
      <trkpt lat="47.88564" lon="6.91201">
        <ele>788</ele>
        <time>2026-05-09T09:31:16.988Z</time>
      </trkpt>
      <trkpt lat="47.88564" lon="6.912">
        <ele>788</ele>
        <time>2026-05-09T09:31:17.989Z</time>
      </trkpt>
      <trkpt lat="47.88565" lon="6.91199">
        <ele>789</ele>
        <time>2026-05-09T09:31:18.988Z</time>
      </trkpt>
      <trkpt lat="47.88565" lon="6.91198">
        <ele>789</ele>
        <time>2026-05-09T09:31:19.989Z</time>
      </trkpt>
      <trkpt lat="47.88565" lon="6.91196">
        <ele>789</ele>
        <time>2026-05-09T09:31:20.988Z</time>
      </trkpt>
      <trkpt lat="47.88566" lon="6.91194">
        <ele>789</ele>
        <time>2026-05-09T09:31:21.989Z</time>
      </trkpt>
      <trkpt lat="47.88566" lon="6.91192">
        <ele>789</ele>
        <time>2026-05-09T09:31:22.988Z</time>
      </trkpt>
      <trkpt lat="47.88566" lon="6.9119">
        <ele>789</ele>
        <time>2026-05-09T09:31:23.989Z</time>
      </trkpt>
      <trkpt lat="47.88566" lon="6.91188">
        <ele>789</ele>
        <time>2026-05-09T09:31:24.988Z</time>
      </trkpt>
      <trkpt lat="47.88566" lon="6.91185">
        <ele>790</ele>
        <time>2026-05-09T09:31:25.989Z</time>
      </trkpt>
      <trkpt lat="47.88566" lon="6.91182">
        <ele>790</ele>
        <time>2026-05-09T09:31:26.989Z</time>
      </trkpt>
      <trkpt lat="47.88566" lon="6.9118">
        <ele>790</ele>
        <time>2026-05-09T09:31:27.989Z</time>
      </trkpt>
      <trkpt lat="47.88565" lon="6.91178">
        <ele>790</ele>
        <time>2026-05-09T09:31:28.989Z</time>
      </trkpt>
      <trkpt lat="47.88565" lon="6.91175">
        <ele>791</ele>
        <time>2026-05-09T09:31:29.988Z</time>
      </trkpt>
      <trkpt lat="47.88564" lon="6.91173">
        <ele>791</ele>
        <time>2026-05-09T09:31:30.989Z</time>
      </trkpt>
      <trkpt lat="47.88564" lon="6.9117">
        <ele>791</ele>
        <time>2026-05-09T09:31:31.988Z</time>
      </trkpt>
      <trkpt lat="47.88564" lon="6.91168">
        <ele>791</ele>
        <time>2026-05-09T09:31:32.989Z</time>
      </trkpt>
      <trkpt lat="47.88564" lon="6.91167">
        <ele>791</ele>
        <time>2026-05-09T09:31:33.988Z</time>
      </trkpt>
      <trkpt lat="47.88565" lon="6.91166">
        <ele>791</ele>
        <time>2026-05-09T09:31:34.989Z</time>
      </trkpt>
      <trkpt lat="47.88565" lon="6.91164">
        <ele>791</ele>
        <time>2026-05-09T09:31:35.988Z</time>
      </trkpt>
      <trkpt lat="47.88565" lon="6.91162">
        <ele>791</ele>
        <time>2026-05-09T09:31:36.989Z</time>
      </trkpt>
      <trkpt lat="47.88565" lon="6.9116">
        <ele>791</ele>
        <time>2026-05-09T09:31:37.988Z</time>
      </trkpt>
      <trkpt lat="47.88566" lon="6.91158">
        <ele>791</ele>
        <time>2026-05-09T09:31:38.989Z</time>
      </trkpt>
      <trkpt lat="47.88566" lon="6.91156">
        <ele>792</ele>
        <time>2026-05-09T09:31:39.988Z</time>
      </trkpt>
      <trkpt lat="47.88566" lon="6.91153">
        <ele>792</ele>
        <time>2026-05-09T09:31:40.989Z</time>
      </trkpt>
      <trkpt lat="47.88566" lon="6.91151">
        <ele>792</ele>
        <time>2026-05-09T09:31:41.988Z</time>
      </trkpt>
      <trkpt lat="47.88567" lon="6.91148">
        <ele>792</ele>
        <time>2026-05-09T09:31:42.988Z</time>
      </trkpt>
      <trkpt lat="47.88567" lon="6.91146">
        <ele>792</ele>
        <time>2026-05-09T09:31:43.989Z</time>
      </trkpt>
      <trkpt lat="47.88568" lon="6.91144">
        <ele>792</ele>
        <time>2026-05-09T09:31:44.989Z</time>
      </trkpt>
      <trkpt lat="47.88568" lon="6.91141">
        <ele>792</ele>
        <time>2026-05-09T09:31:45.989Z</time>
      </trkpt>
      <trkpt lat="47.88569" lon="6.91138">
        <ele>792</ele>
        <time>2026-05-09T09:31:46.988Z</time>
      </trkpt>
      <trkpt lat="47.88569" lon="6.91135">
        <ele>792</ele>
        <time>2026-05-09T09:31:47.989Z</time>
      </trkpt>
      <trkpt lat="47.8857" lon="6.91133">
        <ele>792</ele>
        <time>2026-05-09T09:31:48.988Z</time>
      </trkpt>
      <trkpt lat="47.8857" lon="6.91131">
        <ele>792</ele>
        <time>2026-05-09T09:31:49.988Z</time>
      </trkpt>
      <trkpt lat="47.8857" lon="6.91129">
        <ele>792</ele>
        <time>2026-05-09T09:31:50.988Z</time>
      </trkpt>
      <trkpt lat="47.8857" lon="6.91127">
        <ele>792</ele>
        <time>2026-05-09T09:31:51.989Z</time>
      </trkpt>
      <trkpt lat="47.8857" lon="6.91125">
        <ele>792</ele>
        <time>2026-05-09T09:31:52.988Z</time>
      </trkpt>
      <trkpt lat="47.8857" lon="6.91123">
        <ele>792</ele>
        <time>2026-05-09T09:31:53.989Z</time>
      </trkpt>
      <trkpt lat="47.8857" lon="6.9112">
        <ele>792</ele>
        <time>2026-05-09T09:31:54.988Z</time>
      </trkpt>
      <trkpt lat="47.8857" lon="6.91118">
        <ele>792</ele>
        <time>2026-05-09T09:31:55.988Z</time>
      </trkpt>
      <trkpt lat="47.88571" lon="6.91116">
        <ele>791</ele>
        <time>2026-05-09T09:31:56.988Z</time>
      </trkpt>
      <trkpt lat="47.88571" lon="6.91113">
        <ele>791</ele>
        <time>2026-05-09T09:31:57.989Z</time>
      </trkpt>
      <trkpt lat="47.88572" lon="6.91111">
        <ele>791</ele>
        <time>2026-05-09T09:31:58.989Z</time>
      </trkpt>
      <trkpt lat="47.88573" lon="6.91109">
        <ele>790</ele>
        <time>2026-05-09T09:31:59.988Z</time>
      </trkpt>
      <trkpt lat="47.88573" lon="6.91107">
        <ele>790</ele>
        <time>2026-05-09T09:32:00.989Z</time>
      </trkpt>
      <trkpt lat="47.88574" lon="6.91105">
        <ele>790</ele>
        <time>2026-05-09T09:32:01.989Z</time>
      </trkpt>
      <trkpt lat="47.88575" lon="6.91102">
        <ele>789</ele>
        <time>2026-05-09T09:32:02.989Z</time>
      </trkpt>
      <trkpt lat="47.88575" lon="6.911">
        <ele>789</ele>
        <time>2026-05-09T09:32:03.988Z</time>
      </trkpt>
      <trkpt lat="47.88576" lon="6.91097">
        <ele>789</ele>
        <time>2026-05-09T09:32:04.989Z</time>
      </trkpt>
      <trkpt lat="47.88576" lon="6.91096">
        <ele>788</ele>
        <time>2026-05-09T09:32:05.988Z</time>
      </trkpt>
      <trkpt lat="47.88577" lon="6.91093">
        <ele>788</ele>
        <time>2026-05-09T09:32:06.989Z</time>
      </trkpt>
      <trkpt lat="47.88578" lon="6.91091">
        <ele>787</ele>
        <time>2026-05-09T09:32:07.988Z</time>
      </trkpt>
      <trkpt lat="47.88579" lon="6.91088">
        <ele>787</ele>
        <time>2026-05-09T09:32:08.989Z</time>
      </trkpt>
      <trkpt lat="47.8858" lon="6.91086">
        <ele>786</ele>
        <time>2026-05-09T09:32:09.988Z</time>
      </trkpt>
      <trkpt lat="47.88581" lon="6.91084">
        <ele>786</ele>
        <time>2026-05-09T09:32:10.988Z</time>
      </trkpt>
      <trkpt lat="47.88582" lon="6.91083">
        <ele>785</ele>
        <time>2026-05-09T09:32:11.988Z</time>
      </trkpt>
      <trkpt lat="47.88582" lon="6.91081">
        <ele>785</ele>
        <time>2026-05-09T09:32:12.989Z</time>
      </trkpt>
      <trkpt lat="47.88584" lon="6.91081">
        <ele>784</ele>
        <time>2026-05-09T09:32:13.988Z</time>
      </trkpt>
      <trkpt lat="47.88585" lon="6.91079">
        <ele>784</ele>
        <time>2026-05-09T09:32:14.989Z</time>
      </trkpt>
      <trkpt lat="47.88586" lon="6.91078">
        <ele>783</ele>
        <time>2026-05-09T09:32:15.989Z</time>
      </trkpt>
      <trkpt lat="47.88587" lon="6.91075">
        <ele>783</ele>
        <time>2026-05-09T09:32:16.988Z</time>
      </trkpt>
      <trkpt lat="47.88588" lon="6.91073">
        <ele>783</ele>
        <time>2026-05-09T09:32:17.989Z</time>
      </trkpt>
      <trkpt lat="47.88588" lon="6.9107">
        <ele>782</ele>
        <time>2026-05-09T09:32:18.988Z</time>
      </trkpt>
      <trkpt lat="47.88589" lon="6.91067">
        <ele>782</ele>
        <time>2026-05-09T09:32:19.989Z</time>
      </trkpt>
      <trkpt lat="47.8859" lon="6.91064">
        <ele>782</ele>
        <time>2026-05-09T09:32:20.988Z</time>
      </trkpt>
      <trkpt lat="47.88591" lon="6.91062">
        <ele>782</ele>
        <time>2026-05-09T09:32:21.989Z</time>
      </trkpt>
      <trkpt lat="47.88593" lon="6.9106">
        <ele>781</ele>
        <time>2026-05-09T09:32:22.988Z</time>
      </trkpt>
      <trkpt lat="47.88594" lon="6.91058">
        <ele>781</ele>
        <time>2026-05-09T09:32:23.988Z</time>
      </trkpt>
      <trkpt lat="47.88595" lon="6.91054">
        <ele>781</ele>
        <time>2026-05-09T09:32:24.988Z</time>
      </trkpt>
      <trkpt lat="47.88596" lon="6.91051">
        <ele>781</ele>
        <time>2026-05-09T09:32:25.989Z</time>
      </trkpt>
      <trkpt lat="47.88596" lon="6.91048">
        <ele>780</ele>
        <time>2026-05-09T09:32:26.988Z</time>
      </trkpt>
      <trkpt lat="47.88597" lon="6.91045">
        <ele>780</ele>
        <time>2026-05-09T09:32:27.989Z</time>
      </trkpt>
      <trkpt lat="47.88597" lon="6.91043">
        <ele>780</ele>
        <time>2026-05-09T09:32:28.988Z</time>
      </trkpt>
      <trkpt lat="47.88597" lon="6.9104">
        <ele>780</ele>
        <time>2026-05-09T09:32:29.989Z</time>
      </trkpt>
      <trkpt lat="47.88597" lon="6.91039">
        <ele>780</ele>
        <time>2026-05-09T09:32:30.988Z</time>
      </trkpt>
      <trkpt lat="47.88598" lon="6.91037">
        <ele>780</ele>
        <time>2026-05-09T09:32:31.989Z</time>
      </trkpt>
      <trkpt lat="47.88598" lon="6.91036">
        <ele>780</ele>
        <time>2026-05-09T09:32:32.989Z</time>
      </trkpt>
      <trkpt lat="47.88599" lon="6.91034">
        <ele>781</ele>
        <time>2026-05-09T09:32:33.988Z</time>
      </trkpt>
      <trkpt lat="47.886" lon="6.91032">
        <ele>781</ele>
        <time>2026-05-09T09:32:34.989Z</time>
      </trkpt>
      <trkpt lat="47.88601" lon="6.91029">
        <ele>781</ele>
        <time>2026-05-09T09:32:35.988Z</time>
      </trkpt>
      <trkpt lat="47.88603" lon="6.91026">
        <ele>781</ele>
        <time>2026-05-09T09:32:36.989Z</time>
      </trkpt>
      <trkpt lat="47.88605" lon="6.91024">
        <ele>781</ele>
        <time>2026-05-09T09:32:37.988Z</time>
      </trkpt>
      <trkpt lat="47.88606" lon="6.91022">
        <ele>781</ele>
        <time>2026-05-09T09:32:38.989Z</time>
      </trkpt>
      <trkpt lat="47.88607" lon="6.9102">
        <ele>781</ele>
        <time>2026-05-09T09:32:39.989Z</time>
      </trkpt>
      <trkpt lat="47.88609" lon="6.91017">
        <ele>782</ele>
        <time>2026-05-09T09:32:40.989Z</time>
      </trkpt>
      <trkpt lat="47.8861" lon="6.91015">
        <ele>782</ele>
        <time>2026-05-09T09:32:41.988Z</time>
      </trkpt>
      <trkpt lat="47.88611" lon="6.91013">
        <ele>782</ele>
        <time>2026-05-09T09:32:42.989Z</time>
      </trkpt>
      <trkpt lat="47.88612" lon="6.91012">
        <ele>782</ele>
        <time>2026-05-09T09:32:43.988Z</time>
      </trkpt>
      <trkpt lat="47.88613" lon="6.9101">
        <ele>782</ele>
        <time>2026-05-09T09:32:44.989Z</time>
      </trkpt>
      <trkpt lat="47.88614" lon="6.91008">
        <ele>782</ele>
        <time>2026-05-09T09:32:45.988Z</time>
      </trkpt>
      <trkpt lat="47.88615" lon="6.91005">
        <ele>782</ele>
        <time>2026-05-09T09:32:46.989Z</time>
      </trkpt>
      <trkpt lat="47.88616" lon="6.91003">
        <ele>783</ele>
        <time>2026-05-09T09:32:47.989Z</time>
      </trkpt>
      <trkpt lat="47.88616" lon="6.91001">
        <ele>783</ele>
        <time>2026-05-09T09:32:48.989Z</time>
      </trkpt>
      <trkpt lat="47.88617" lon="6.91001">
        <ele>783</ele>
        <time>2026-05-09T09:32:49.989Z</time>
      </trkpt>
      <trkpt lat="47.88617" lon="6.91">
        <ele>783</ele>
        <time>2026-05-09T09:32:50.988Z</time>
      </trkpt>
      <trkpt lat="47.88616" lon="6.90999">
        <ele>784</ele>
        <time>2026-05-09T09:32:51.989Z</time>
      </trkpt>
      <trkpt lat="47.88615" lon="6.90999">
        <ele>784</ele>
        <time>2026-05-09T09:32:52.988Z</time>
      </trkpt>
      <trkpt lat="47.88615" lon="6.90999">
        <ele>784</ele>
        <time>2026-05-09T09:32:53.989Z</time>
      </trkpt>
      <trkpt lat="47.88616" lon="6.90999">
        <ele>784</ele>
        <time>2026-05-09T09:32:54.988Z</time>
      </trkpt>
      <trkpt lat="47.88616" lon="6.90997">
        <ele>785</ele>
        <time>2026-05-09T09:32:55.988Z</time>
      </trkpt>
      <trkpt lat="47.88617" lon="6.90995">
        <ele>785</ele>
        <time>2026-05-09T09:32:56.988Z</time>
      </trkpt>
      <trkpt lat="47.88618" lon="6.90992">
        <ele>785</ele>
        <time>2026-05-09T09:32:57.988Z</time>
      </trkpt>
      <trkpt lat="47.88618" lon="6.90991">
        <ele>786</ele>
        <time>2026-05-09T09:32:58.988Z</time>
      </trkpt>
      <trkpt lat="47.88619" lon="6.9099">
        <ele>786</ele>
        <time>2026-05-09T09:32:59.988Z</time>
      </trkpt>
      <trkpt lat="47.88619" lon="6.90988">
        <ele>786</ele>
        <time>2026-05-09T09:33:00.988Z</time>
      </trkpt>
      <trkpt lat="47.8862" lon="6.90987">
        <ele>786</ele>
        <time>2026-05-09T09:33:01.989Z</time>
      </trkpt>
      <trkpt lat="47.88621" lon="6.90985">
        <ele>786</ele>
        <time>2026-05-09T09:33:02.988Z</time>
      </trkpt>
      <trkpt lat="47.88621" lon="6.90983">
        <ele>786</ele>
        <time>2026-05-09T09:33:03.989Z</time>
      </trkpt>
      <trkpt lat="47.88622" lon="6.90981">
        <ele>787</ele>
        <time>2026-05-09T09:33:04.989Z</time>
      </trkpt>
      <trkpt lat="47.88623" lon="6.90978">
        <ele>787</ele>
        <time>2026-05-09T09:33:05.989Z</time>
      </trkpt>
      <trkpt lat="47.88624" lon="6.90976">
        <ele>787</ele>
        <time>2026-05-09T09:33:06.989Z</time>
      </trkpt>
      <trkpt lat="47.88624" lon="6.90974">
        <ele>787</ele>
        <time>2026-05-09T09:33:07.988Z</time>
      </trkpt>
      <trkpt lat="47.88625" lon="6.90972">
        <ele>787</ele>
        <time>2026-05-09T09:33:08.989Z</time>
      </trkpt>
      <trkpt lat="47.88626" lon="6.90969">
        <ele>788</ele>
        <time>2026-05-09T09:33:09.988Z</time>
      </trkpt>
      <trkpt lat="47.88626" lon="6.90969">
        <ele>788</ele>
        <time>2026-05-09T09:33:10.989Z</time>
      </trkpt>
      <trkpt lat="47.88626" lon="6.90968">
        <ele>788</ele>
        <time>2026-05-09T09:33:11.988Z</time>
      </trkpt>
      <trkpt lat="47.88627" lon="6.90968">
        <ele>788</ele>
        <time>2026-05-09T09:33:12.989Z</time>
      </trkpt>
      <trkpt lat="47.88627" lon="6.90967">
        <ele>788</ele>
        <time>2026-05-09T09:33:13.988Z</time>
      </trkpt>
      <trkpt lat="47.88628" lon="6.90966">
        <ele>789</ele>
        <time>2026-05-09T09:33:14.989Z</time>
      </trkpt>
      <trkpt lat="47.8863" lon="6.90964">
        <ele>789</ele>
        <time>2026-05-09T09:33:15.988Z</time>
      </trkpt>
      <trkpt lat="47.88631" lon="6.90963">
        <ele>789</ele>
        <time>2026-05-09T09:33:16.989Z</time>
      </trkpt>
      <trkpt lat="47.88632" lon="6.90961">
        <ele>789</ele>
        <time>2026-05-09T09:33:17.988Z</time>
      </trkpt>
      <trkpt lat="47.88633" lon="6.90958">
        <ele>789</ele>
        <time>2026-05-09T09:33:18.989Z</time>
      </trkpt>
      <trkpt lat="47.88634" lon="6.90956">
        <ele>789</ele>
        <time>2026-05-09T09:33:19.988Z</time>
      </trkpt>
      <trkpt lat="47.88636" lon="6.90953">
        <ele>789</ele>
        <time>2026-05-09T09:33:20.989Z</time>
      </trkpt>
      <trkpt lat="47.88637" lon="6.90951">
        <ele>789</ele>
        <time>2026-05-09T09:33:21.989Z</time>
      </trkpt>
      <trkpt lat="47.88639" lon="6.90949">
        <ele>789</ele>
        <time>2026-05-09T09:33:22.989Z</time>
      </trkpt>
      <trkpt lat="47.8864" lon="6.90947">
        <ele>790</ele>
        <time>2026-05-09T09:33:23.989Z</time>
      </trkpt>
      <trkpt lat="47.88642" lon="6.90944">
        <ele>790</ele>
        <time>2026-05-09T09:33:24.988Z</time>
      </trkpt>
      <trkpt lat="47.88643" lon="6.90942">
        <ele>790</ele>
        <time>2026-05-09T09:33:25.989Z</time>
      </trkpt>
      <trkpt lat="47.88644" lon="6.90939">
        <ele>790</ele>
        <time>2026-05-09T09:33:26.988Z</time>
      </trkpt>
      <trkpt lat="47.88645" lon="6.90936">
        <ele>790</ele>
        <time>2026-05-09T09:33:27.989Z</time>
      </trkpt>
      <trkpt lat="47.88645" lon="6.90933">
        <ele>790</ele>
        <time>2026-05-09T09:33:28.988Z</time>
      </trkpt>
      <trkpt lat="47.88646" lon="6.9093">
        <ele>790</ele>
        <time>2026-05-09T09:33:29.989Z</time>
      </trkpt>
      <trkpt lat="47.88647" lon="6.90927">
        <ele>790</ele>
        <time>2026-05-09T09:33:30.988Z</time>
      </trkpt>
      <trkpt lat="47.88648" lon="6.90926">
        <ele>790</ele>
        <time>2026-05-09T09:33:31.988Z</time>
      </trkpt>
      <trkpt lat="47.88649" lon="6.90924">
        <ele>790</ele>
        <time>2026-05-09T09:33:32.988Z</time>
      </trkpt>
      <trkpt lat="47.8865" lon="6.90922">
        <ele>790</ele>
        <time>2026-05-09T09:33:33.989Z</time>
      </trkpt>
      <trkpt lat="47.8865" lon="6.90919">
        <ele>790</ele>
        <time>2026-05-09T09:33:34.989Z</time>
      </trkpt>
      <trkpt lat="47.88651" lon="6.90916">
        <ele>790</ele>
        <time>2026-05-09T09:33:35.989Z</time>
      </trkpt>
      <trkpt lat="47.8865" lon="6.90913">
        <ele>790</ele>
        <time>2026-05-09T09:33:36.989Z</time>
      </trkpt>
      <trkpt lat="47.8865" lon="6.90911">
        <ele>790</ele>
        <time>2026-05-09T09:33:37.989Z</time>
      </trkpt>
      <trkpt lat="47.88651" lon="6.90909">
        <ele>789</ele>
        <time>2026-05-09T09:33:38.989Z</time>
      </trkpt>
      <trkpt lat="47.88651" lon="6.90908">
        <ele>789</ele>
        <time>2026-05-09T09:33:39.988Z</time>
      </trkpt>
      <trkpt lat="47.88652" lon="6.90906">
        <ele>789</ele>
        <time>2026-05-09T09:33:40.989Z</time>
      </trkpt>
      <trkpt lat="47.88652" lon="6.90904">
        <ele>789</ele>
        <time>2026-05-09T09:33:41.988Z</time>
      </trkpt>
      <trkpt lat="47.88653" lon="6.90901">
        <ele>789</ele>
        <time>2026-05-09T09:33:42.988Z</time>
      </trkpt>
      <trkpt lat="47.88654" lon="6.90898">
        <ele>789</ele>
        <time>2026-05-09T09:33:43.988Z</time>
      </trkpt>
      <trkpt lat="47.88655" lon="6.90896">
        <ele>789</ele>
        <time>2026-05-09T09:33:44.989Z</time>
      </trkpt>
      <trkpt lat="47.88656" lon="6.90894">
        <ele>789</ele>
        <time>2026-05-09T09:33:45.989Z</time>
      </trkpt>
      <trkpt lat="47.88657" lon="6.90892">
        <ele>789</ele>
        <time>2026-05-09T09:33:46.988Z</time>
      </trkpt>
      <trkpt lat="47.88657" lon="6.9089">
        <ele>789</ele>
        <time>2026-05-09T09:33:47.989Z</time>
      </trkpt>
      <trkpt lat="47.88658" lon="6.90889">
        <ele>789</ele>
        <time>2026-05-09T09:33:48.989Z</time>
      </trkpt>
      <trkpt lat="47.88658" lon="6.90888">
        <ele>789</ele>
        <time>2026-05-09T09:33:49.988Z</time>
      </trkpt>
      <trkpt lat="47.88659" lon="6.90885">
        <ele>789</ele>
        <time>2026-05-09T09:33:50.989Z</time>
      </trkpt>
      <trkpt lat="47.88661" lon="6.90883">
        <ele>789</ele>
        <time>2026-05-09T09:33:51.988Z</time>
      </trkpt>
      <trkpt lat="47.88662" lon="6.9088">
        <ele>789</ele>
        <time>2026-05-09T09:33:52.988Z</time>
      </trkpt>
      <trkpt lat="47.88662" lon="6.90878">
        <ele>788</ele>
        <time>2026-05-09T09:33:53.988Z</time>
      </trkpt>
      <trkpt lat="47.88662" lon="6.90876">
        <ele>788</ele>
        <time>2026-05-09T09:33:54.989Z</time>
      </trkpt>
      <trkpt lat="47.88662" lon="6.90874">
        <ele>788</ele>
        <time>2026-05-09T09:33:55.989Z</time>
      </trkpt>
      <trkpt lat="47.88662" lon="6.90872">
        <ele>788</ele>
        <time>2026-05-09T09:33:56.989Z</time>
      </trkpt>
      <trkpt lat="47.88662" lon="6.90871">
        <ele>788</ele>
        <time>2026-05-09T09:33:57.988Z</time>
      </trkpt>
      <trkpt lat="47.88663" lon="6.90869">
        <ele>787</ele>
        <time>2026-05-09T09:33:58.989Z</time>
      </trkpt>
      <trkpt lat="47.88664" lon="6.90868">
        <ele>787</ele>
        <time>2026-05-09T09:33:59.988Z</time>
      </trkpt>
      <trkpt lat="47.88665" lon="6.90866">
        <ele>787</ele>
        <time>2026-05-09T09:34:00.989Z</time>
      </trkpt>
      <trkpt lat="47.88666" lon="6.90863">
        <ele>787</ele>
        <time>2026-05-09T09:34:01.988Z</time>
      </trkpt>
      <trkpt lat="47.88666" lon="6.9086">
        <ele>787</ele>
        <time>2026-05-09T09:34:02.989Z</time>
      </trkpt>
      <trkpt lat="47.88666" lon="6.90856">
        <ele>787</ele>
        <time>2026-05-09T09:34:03.988Z</time>
      </trkpt>
      <trkpt lat="47.88667" lon="6.90853">
        <ele>787</ele>
        <time>2026-05-09T09:34:04.988Z</time>
      </trkpt>
      <trkpt lat="47.88668" lon="6.9085">
        <ele>787</ele>
        <time>2026-05-09T09:34:05.988Z</time>
      </trkpt>
      <trkpt lat="47.88668" lon="6.90848">
        <ele>787</ele>
        <time>2026-05-09T09:34:06.989Z</time>
      </trkpt>
      <trkpt lat="47.88668" lon="6.90846">
        <ele>787</ele>
        <time>2026-05-09T09:34:07.989Z</time>
      </trkpt>
      <trkpt lat="47.88669" lon="6.90845">
        <ele>786</ele>
        <time>2026-05-09T09:34:08.989Z</time>
      </trkpt>
      <trkpt lat="47.88669" lon="6.90843">
        <ele>786</ele>
        <time>2026-05-09T09:34:09.988Z</time>
      </trkpt>
      <trkpt lat="47.88669" lon="6.9084">
        <ele>785</ele>
        <time>2026-05-09T09:34:10.988Z</time>
      </trkpt>
      <trkpt lat="47.88669" lon="6.90837">
        <ele>785</ele>
        <time>2026-05-09T09:34:11.989Z</time>
      </trkpt>
      <trkpt lat="47.88669" lon="6.90835">
        <ele>784</ele>
        <time>2026-05-09T09:34:12.988Z</time>
      </trkpt>
      <trkpt lat="47.88671" lon="6.90832">
        <ele>784</ele>
        <time>2026-05-09T09:34:13.989Z</time>
      </trkpt>
      <trkpt lat="47.88671" lon="6.90827">
        <ele>783</ele>
        <time>2026-05-09T09:34:14.988Z</time>
      </trkpt>
      <trkpt lat="47.88671" lon="6.90823">
        <ele>783</ele>
        <time>2026-05-09T09:34:15.989Z</time>
      </trkpt>
      <trkpt lat="47.88671" lon="6.90819">
        <ele>783</ele>
        <time>2026-05-09T09:34:16.988Z</time>
      </trkpt>
      <trkpt lat="47.88672" lon="6.90816">
        <ele>782</ele>
        <time>2026-05-09T09:34:17.989Z</time>
      </trkpt>
      <trkpt lat="47.88674" lon="6.90815">
        <ele>782</ele>
        <time>2026-05-09T09:34:18.988Z</time>
      </trkpt>
      <trkpt lat="47.88676" lon="6.90814">
        <ele>781</ele>
        <time>2026-05-09T09:34:19.989Z</time>
      </trkpt>
      <trkpt lat="47.88678" lon="6.90812">
        <ele>781</ele>
        <time>2026-05-09T09:34:20.989Z</time>
      </trkpt>
      <trkpt lat="47.88677" lon="6.90812">
        <ele>781</ele>
        <time>2026-05-09T09:34:21.988Z</time>
      </trkpt>
      <trkpt lat="47.88678" lon="6.9081">
        <ele>780</ele>
        <time>2026-05-09T09:34:22.989Z</time>
      </trkpt>
      <trkpt lat="47.88679" lon="6.90808">
        <ele>780</ele>
        <time>2026-05-09T09:34:23.988Z</time>
      </trkpt>
      <trkpt lat="47.88679" lon="6.90807">
        <ele>780</ele>
        <time>2026-05-09T09:34:24.989Z</time>
      </trkpt>
      <trkpt lat="47.88678" lon="6.90806">
        <ele>779</ele>
        <time>2026-05-09T09:34:25.989Z</time>
      </trkpt>
      <trkpt lat="47.88679" lon="6.90805">
        <ele>779</ele>
        <time>2026-05-09T09:34:26.988Z</time>
      </trkpt>
      <trkpt lat="47.88679" lon="6.90803">
        <ele>779</ele>
        <time>2026-05-09T09:34:27.988Z</time>
      </trkpt>
      <trkpt lat="47.8868" lon="6.90802">
        <ele>778</ele>
        <time>2026-05-09T09:34:28.989Z</time>
      </trkpt>
      <trkpt lat="47.8868" lon="6.908">
        <ele>778</ele>
        <time>2026-05-09T09:34:29.989Z</time>
      </trkpt>
      <trkpt lat="47.88679" lon="6.90799">
        <ele>777</ele>
        <time>2026-05-09T09:34:30.989Z</time>
      </trkpt>
      <trkpt lat="47.88678" lon="6.90798">
        <ele>777</ele>
        <time>2026-05-09T09:34:31.989Z</time>
      </trkpt>
      <trkpt lat="47.88679" lon="6.90795">
        <ele>777</ele>
        <time>2026-05-09T09:34:32.988Z</time>
      </trkpt>
      <trkpt lat="47.8868" lon="6.90794">
        <ele>776</ele>
        <time>2026-05-09T09:34:33.989Z</time>
      </trkpt>
      <trkpt lat="47.8868" lon="6.90791">
        <ele>776</ele>
        <time>2026-05-09T09:34:34.989Z</time>
      </trkpt>
      <trkpt lat="47.8868" lon="6.90789">
        <ele>776</ele>
        <time>2026-05-09T09:34:35.988Z</time>
      </trkpt>
      <trkpt lat="47.88679" lon="6.90788">
        <ele>775</ele>
        <time>2026-05-09T09:34:36.989Z</time>
      </trkpt>
      <trkpt lat="47.88678" lon="6.90786">
        <ele>775</ele>
        <time>2026-05-09T09:34:37.988Z</time>
      </trkpt>
      <trkpt lat="47.8868" lon="6.90784">
        <ele>775</ele>
        <time>2026-05-09T09:34:38.989Z</time>
      </trkpt>
      <trkpt lat="47.88681" lon="6.90784">
        <ele>774</ele>
        <time>2026-05-09T09:34:39.988Z</time>
      </trkpt>
      <trkpt lat="47.88682" lon="6.90782">
        <ele>774</ele>
        <time>2026-05-09T09:34:40.989Z</time>
      </trkpt>
      <trkpt lat="47.88683" lon="6.90781">
        <ele>773</ele>
        <time>2026-05-09T09:34:41.988Z</time>
      </trkpt>
      <trkpt lat="47.88683" lon="6.90778">
        <ele>773</ele>
        <time>2026-05-09T09:34:42.989Z</time>
      </trkpt>
      <trkpt lat="47.88682" lon="6.90775">
        <ele>772</ele>
        <time>2026-05-09T09:34:43.989Z</time>
      </trkpt>
      <trkpt lat="47.88683" lon="6.90773">
        <ele>772</ele>
        <time>2026-05-09T09:34:44.988Z</time>
      </trkpt>
      <trkpt lat="47.88684" lon="6.90771">
        <ele>772</ele>
        <time>2026-05-09T09:34:45.989Z</time>
      </trkpt>
      <trkpt lat="47.88685" lon="6.90771">
        <ele>771</ele>
        <time>2026-05-09T09:34:46.988Z</time>
      </trkpt>
      <trkpt lat="47.88686" lon="6.9077">
        <ele>770</ele>
        <time>2026-05-09T09:34:47.989Z</time>
      </trkpt>
      <trkpt lat="47.88686" lon="6.90767">
        <ele>770</ele>
        <time>2026-05-09T09:34:48.988Z</time>
      </trkpt>
      <trkpt lat="47.88686" lon="6.90766">
        <ele>769</ele>
        <time>2026-05-09T09:34:49.989Z</time>
      </trkpt>
      <trkpt lat="47.88687" lon="6.90763">
        <ele>769</ele>
        <time>2026-05-09T09:34:50.989Z</time>
      </trkpt>
      <trkpt lat="47.88687" lon="6.90762">
        <ele>769</ele>
        <time>2026-05-09T09:34:51.988Z</time>
      </trkpt>
      <trkpt lat="47.88688" lon="6.9076">
        <ele>768</ele>
        <time>2026-05-09T09:34:52.989Z</time>
      </trkpt>
      <trkpt lat="47.88688" lon="6.90759">
        <ele>768</ele>
        <time>2026-05-09T09:34:53.988Z</time>
      </trkpt>
      <trkpt lat="47.88688" lon="6.90757">
        <ele>767</ele>
        <time>2026-05-09T09:34:54.989Z</time>
      </trkpt>
      <trkpt lat="47.88688" lon="6.90755">
        <ele>767</ele>
        <time>2026-05-09T09:34:55.989Z</time>
      </trkpt>
      <trkpt lat="47.88688" lon="6.90753">
        <ele>767</ele>
        <time>2026-05-09T09:34:56.989Z</time>
      </trkpt>
      <trkpt lat="47.88689" lon="6.90752">
        <ele>766</ele>
        <time>2026-05-09T09:34:57.988Z</time>
      </trkpt>
      <trkpt lat="47.8869" lon="6.9075">
        <ele>766</ele>
        <time>2026-05-09T09:34:58.989Z</time>
      </trkpt>
      <trkpt lat="47.8869" lon="6.90749">
        <ele>765</ele>
        <time>2026-05-09T09:34:59.989Z</time>
      </trkpt>
      <trkpt lat="47.8869" lon="6.90747">
        <ele>765</ele>
        <time>2026-05-09T09:35:00.988Z</time>
      </trkpt>
      <trkpt lat="47.8869" lon="6.90745">
        <ele>765</ele>
        <time>2026-05-09T09:35:01.989Z</time>
      </trkpt>
      <trkpt lat="47.88691" lon="6.90744">
        <ele>764</ele>
        <time>2026-05-09T09:35:02.988Z</time>
      </trkpt>
      <trkpt lat="47.88692" lon="6.90742">
        <ele>764</ele>
        <time>2026-05-09T09:35:03.988Z</time>
      </trkpt>
      <trkpt lat="47.88692" lon="6.90741">
        <ele>764</ele>
        <time>2026-05-09T09:35:04.988Z</time>
      </trkpt>
      <trkpt lat="47.88692" lon="6.90739">
        <ele>764</ele>
        <time>2026-05-09T09:35:05.988Z</time>
      </trkpt>
      <trkpt lat="47.88693" lon="6.90738">
        <ele>764</ele>
        <time>2026-05-09T09:35:06.989Z</time>
      </trkpt>
      <trkpt lat="47.88693" lon="6.90737">
        <ele>764</ele>
        <time>2026-05-09T09:35:07.988Z</time>
      </trkpt>
      <trkpt lat="47.88694" lon="6.90735">
        <ele>764</ele>
        <time>2026-05-09T09:35:08.989Z</time>
      </trkpt>
      <trkpt lat="47.88694" lon="6.90733">
        <ele>764</ele>
        <time>2026-05-09T09:35:09.988Z</time>
      </trkpt>
      <trkpt lat="47.88695" lon="6.90731">
        <ele>764</ele>
        <time>2026-05-09T09:35:10.989Z</time>
      </trkpt>
      <trkpt lat="47.88695" lon="6.90729">
        <ele>763</ele>
        <time>2026-05-09T09:35:11.988Z</time>
      </trkpt>
      <trkpt lat="47.88695" lon="6.90728">
        <ele>763</ele>
        <time>2026-05-09T09:35:12.989Z</time>
      </trkpt>
      <trkpt lat="47.88695" lon="6.90726">
        <ele>763</ele>
        <time>2026-05-09T09:35:13.989Z</time>
      </trkpt>
      <trkpt lat="47.88696" lon="6.90724">
        <ele>763</ele>
        <time>2026-05-09T09:35:14.988Z</time>
      </trkpt>
      <trkpt lat="47.88696" lon="6.90723">
        <ele>763</ele>
        <time>2026-05-09T09:35:15.989Z</time>
      </trkpt>
      <trkpt lat="47.88697" lon="6.90721">
        <ele>762</ele>
        <time>2026-05-09T09:35:16.988Z</time>
      </trkpt>
      <trkpt lat="47.88698" lon="6.90719">
        <ele>762</ele>
        <time>2026-05-09T09:35:17.989Z</time>
      </trkpt>
      <trkpt lat="47.88698" lon="6.90718">
        <ele>762</ele>
        <time>2026-05-09T09:35:18.988Z</time>
      </trkpt>
      <trkpt lat="47.88699" lon="6.90716">
        <ele>762</ele>
        <time>2026-05-09T09:35:19.989Z</time>
      </trkpt>
      <trkpt lat="47.88699" lon="6.90714">
        <ele>762</ele>
        <time>2026-05-09T09:35:20.989Z</time>
      </trkpt>
      <trkpt lat="47.887" lon="6.90713">
        <ele>761</ele>
        <time>2026-05-09T09:35:21.988Z</time>
      </trkpt>
      <trkpt lat="47.887" lon="6.90711">
        <ele>761</ele>
        <time>2026-05-09T09:35:22.989Z</time>
      </trkpt>
      <trkpt lat="47.887" lon="6.9071">
        <ele>761</ele>
        <time>2026-05-09T09:35:23.988Z</time>
      </trkpt>
      <trkpt lat="47.887" lon="6.90708">
        <ele>761</ele>
        <time>2026-05-09T09:35:24.988Z</time>
      </trkpt>
      <trkpt lat="47.887" lon="6.90707">
        <ele>761</ele>
        <time>2026-05-09T09:35:25.988Z</time>
      </trkpt>
      <trkpt lat="47.88701" lon="6.90706">
        <ele>760</ele>
        <time>2026-05-09T09:35:26.989Z</time>
      </trkpt>
      <trkpt lat="47.88702" lon="6.90704">
        <ele>760</ele>
        <time>2026-05-09T09:35:27.989Z</time>
      </trkpt>
      <trkpt lat="47.88702" lon="6.90702">
        <ele>760</ele>
        <time>2026-05-09T09:35:28.988Z</time>
      </trkpt>
      <trkpt lat="47.88702" lon="6.907">
        <ele>760</ele>
        <time>2026-05-09T09:35:29.988Z</time>
      </trkpt>
      <trkpt lat="47.88702" lon="6.90698">
        <ele>760</ele>
        <time>2026-05-09T09:35:30.988Z</time>
      </trkpt>
      <trkpt lat="47.88702" lon="6.90697">
        <ele>760</ele>
        <time>2026-05-09T09:35:31.988Z</time>
      </trkpt>
      <trkpt lat="47.88702" lon="6.90695">
        <ele>760</ele>
        <time>2026-05-09T09:35:32.988Z</time>
      </trkpt>
      <trkpt lat="47.88703" lon="6.90694">
        <ele>760</ele>
        <time>2026-05-09T09:35:33.988Z</time>
      </trkpt>
      <trkpt lat="47.88704" lon="6.90692">
        <ele>760</ele>
        <time>2026-05-09T09:35:34.989Z</time>
      </trkpt>
      <trkpt lat="47.88704" lon="6.90689">
        <ele>760</ele>
        <time>2026-05-09T09:35:35.989Z</time>
      </trkpt>
      <trkpt lat="47.88705" lon="6.90687">
        <ele>760</ele>
        <time>2026-05-09T09:35:36.988Z</time>
      </trkpt>
      <trkpt lat="47.88705" lon="6.90686">
        <ele>760</ele>
        <time>2026-05-09T09:35:37.988Z</time>
      </trkpt>
      <trkpt lat="47.88705" lon="6.90683">
        <ele>760</ele>
        <time>2026-05-09T09:35:38.989Z</time>
      </trkpt>
      <trkpt lat="47.88706" lon="6.90681">
        <ele>760</ele>
        <time>2026-05-09T09:35:39.988Z</time>
      </trkpt>
      <trkpt lat="47.88707" lon="6.90678">
        <ele>760</ele>
        <time>2026-05-09T09:35:40.989Z</time>
      </trkpt>
      <trkpt lat="47.88708" lon="6.90676">
        <ele>759</ele>
        <time>2026-05-09T09:35:41.989Z</time>
      </trkpt>
      <trkpt lat="47.88708" lon="6.90674">
        <ele>759</ele>
        <time>2026-05-09T09:35:42.988Z</time>
      </trkpt>
      <trkpt lat="47.88708" lon="6.90673">
        <ele>759</ele>
        <time>2026-05-09T09:35:43.989Z</time>
      </trkpt>
      <trkpt lat="47.88709" lon="6.90671">
        <ele>759</ele>
        <time>2026-05-09T09:35:44.989Z</time>
      </trkpt>
      <trkpt lat="47.88709" lon="6.90669">
        <ele>759</ele>
        <time>2026-05-09T09:35:45.988Z</time>
      </trkpt>
      <trkpt lat="47.8871" lon="6.90667">
        <ele>759</ele>
        <time>2026-05-09T09:35:46.989Z</time>
      </trkpt>
      <trkpt lat="47.8871" lon="6.90665">
        <ele>759</ele>
        <time>2026-05-09T09:35:47.989Z</time>
      </trkpt>
      <trkpt lat="47.8871" lon="6.90663">
        <ele>759</ele>
        <time>2026-05-09T09:35:48.988Z</time>
      </trkpt>
      <trkpt lat="47.88711" lon="6.90661">
        <ele>759</ele>
        <time>2026-05-09T09:35:49.989Z</time>
      </trkpt>
      <trkpt lat="47.88712" lon="6.90658">
        <ele>759</ele>
        <time>2026-05-09T09:35:50.988Z</time>
      </trkpt>
      <trkpt lat="47.88712" lon="6.90655">
        <ele>758</ele>
        <time>2026-05-09T09:35:51.988Z</time>
      </trkpt>
      <trkpt lat="47.88712" lon="6.90652">
        <ele>758</ele>
        <time>2026-05-09T09:35:52.989Z</time>
      </trkpt>
      <trkpt lat="47.88711" lon="6.90648">
        <ele>758</ele>
        <time>2026-05-09T09:35:53.989Z</time>
      </trkpt>
      <trkpt lat="47.88711" lon="6.90644">
        <ele>758</ele>
        <time>2026-05-09T09:35:54.988Z</time>
      </trkpt>
      <trkpt lat="47.8871" lon="6.90639">
        <ele>758</ele>
        <time>2026-05-09T09:35:55.988Z</time>
      </trkpt>
      <trkpt lat="47.8871" lon="6.90634">
        <ele>758</ele>
        <time>2026-05-09T09:35:56.989Z</time>
      </trkpt>
      <trkpt lat="47.88709" lon="6.90629">
        <ele>758</ele>
        <time>2026-05-09T09:35:57.989Z</time>
      </trkpt>
      <trkpt lat="47.88708" lon="6.90624">
        <ele>758</ele>
        <time>2026-05-09T09:35:58.988Z</time>
      </trkpt>
      <trkpt lat="47.88707" lon="6.90621">
        <ele>758</ele>
        <time>2026-05-09T09:35:59.989Z</time>
      </trkpt>
      <trkpt lat="47.88706" lon="6.90617">
        <ele>757</ele>
        <time>2026-05-09T09:36:00.988Z</time>
      </trkpt>
      <trkpt lat="47.88706" lon="6.90614">
        <ele>757</ele>
        <time>2026-05-09T09:36:01.989Z</time>
      </trkpt>
      <trkpt lat="47.88705" lon="6.90611">
        <ele>757</ele>
        <time>2026-05-09T09:36:02.988Z</time>
      </trkpt>
      <trkpt lat="47.88705" lon="6.90607">
        <ele>756</ele>
        <time>2026-05-09T09:36:03.989Z</time>
      </trkpt>
      <trkpt lat="47.88704" lon="6.90604">
        <ele>756</ele>
        <time>2026-05-09T09:36:04.989Z</time>
      </trkpt>
      <trkpt lat="47.88704" lon="6.90599">
        <ele>756</ele>
        <time>2026-05-09T09:36:05.988Z</time>
      </trkpt>
      <trkpt lat="47.88702" lon="6.90595">
        <ele>755</ele>
        <time>2026-05-09T09:36:06.989Z</time>
      </trkpt>
      <trkpt lat="47.88699" lon="6.90591">
        <ele>755</ele>
        <time>2026-05-09T09:36:07.988Z</time>
      </trkpt>
      <trkpt lat="47.88697" lon="6.90587">
        <ele>755</ele>
        <time>2026-05-09T09:36:08.989Z</time>
      </trkpt>
      <trkpt lat="47.88697" lon="6.90584">
        <ele>754</ele>
        <time>2026-05-09T09:36:09.988Z</time>
      </trkpt>
      <trkpt lat="47.88694" lon="6.90581">
        <ele>754</ele>
        <time>2026-05-09T09:36:10.988Z</time>
      </trkpt>
      <trkpt lat="47.88692" lon="6.90579">
        <ele>754</ele>
        <time>2026-05-09T09:36:11.989Z</time>
      </trkpt>
      <trkpt lat="47.88693" lon="6.90578">
        <ele>753</ele>
        <time>2026-05-09T09:36:12.988Z</time>
      </trkpt>
      <trkpt lat="47.88695" lon="6.90578">
        <ele>753</ele>
        <time>2026-05-09T09:36:13.989Z</time>
      </trkpt>
      <trkpt lat="47.88695" lon="6.90578">
        <ele>753</ele>
        <time>2026-05-09T09:36:14.989Z</time>
      </trkpt>
      <trkpt lat="47.88697" lon="6.90578">
        <ele>753</ele>
        <time>2026-05-09T09:36:15.988Z</time>
      </trkpt>
      <trkpt lat="47.88699" lon="6.90578">
        <ele>753</ele>
        <time>2026-05-09T09:36:16.988Z</time>
      </trkpt>
      <trkpt lat="47.88698" lon="6.90576">
        <ele>752</ele>
        <time>2026-05-09T09:36:17.988Z</time>
      </trkpt>
      <trkpt lat="47.88698" lon="6.90575">
        <ele>752</ele>
        <time>2026-05-09T09:36:18.988Z</time>
      </trkpt>
      <trkpt lat="47.88699" lon="6.90573">
        <ele>752</ele>
        <time>2026-05-09T09:36:19.989Z</time>
      </trkpt>
      <trkpt lat="47.88699" lon="6.9057">
        <ele>752</ele>
        <time>2026-05-09T09:36:20.988Z</time>
      </trkpt>
      <trkpt lat="47.887" lon="6.90569">
        <ele>751</ele>
        <time>2026-05-09T09:36:21.989Z</time>
      </trkpt>
      <trkpt lat="47.88702" lon="6.90567">
        <ele>751</ele>
        <time>2026-05-09T09:36:22.988Z</time>
      </trkpt>
      <trkpt lat="47.88702" lon="6.90565">
        <ele>751</ele>
        <time>2026-05-09T09:36:23.988Z</time>
      </trkpt>
      <trkpt lat="47.88703" lon="6.90562">
        <ele>751</ele>
        <time>2026-05-09T09:36:24.988Z</time>
      </trkpt>
      <trkpt lat="47.88703" lon="6.9056">
        <ele>751</ele>
        <time>2026-05-09T09:36:25.988Z</time>
      </trkpt>
      <trkpt lat="47.88704" lon="6.90558">
        <ele>750</ele>
        <time>2026-05-09T09:36:26.989Z</time>
      </trkpt>
      <trkpt lat="47.88704" lon="6.90556">
        <ele>750</ele>
        <time>2026-05-09T09:36:27.988Z</time>
      </trkpt>
      <trkpt lat="47.88704" lon="6.90555">
        <ele>750</ele>
        <time>2026-05-09T09:36:28.988Z</time>
      </trkpt>
      <trkpt lat="47.88704" lon="6.90553">
        <ele>749</ele>
        <time>2026-05-09T09:36:29.989Z</time>
      </trkpt>
      <trkpt lat="47.88705" lon="6.90552">
        <ele>749</ele>
        <time>2026-05-09T09:36:30.989Z</time>
      </trkpt>
      <trkpt lat="47.88706" lon="6.90551">
        <ele>749</ele>
        <time>2026-05-09T09:36:31.989Z</time>
      </trkpt>
      <trkpt lat="47.88707" lon="6.90549">
        <ele>748</ele>
        <time>2026-05-09T09:36:32.989Z</time>
      </trkpt>
      <trkpt lat="47.88709" lon="6.90547">
        <ele>748</ele>
        <time>2026-05-09T09:36:33.988Z</time>
      </trkpt>
      <trkpt lat="47.88709" lon="6.90546">
        <ele>748</ele>
        <time>2026-05-09T09:36:34.989Z</time>
      </trkpt>
      <trkpt lat="47.88709" lon="6.90544">
        <ele>748</ele>
        <time>2026-05-09T09:36:35.989Z</time>
      </trkpt>
      <trkpt lat="47.88709" lon="6.90542">
        <ele>748</ele>
        <time>2026-05-09T09:36:36.988Z</time>
      </trkpt>
      <trkpt lat="47.8871" lon="6.9054">
        <ele>747</ele>
        <time>2026-05-09T09:36:37.989Z</time>
      </trkpt>
      <trkpt lat="47.8871" lon="6.90538">
        <ele>747</ele>
        <time>2026-05-09T09:36:38.988Z</time>
      </trkpt>
      <trkpt lat="47.8871" lon="6.90536">
        <ele>747</ele>
        <time>2026-05-09T09:36:39.988Z</time>
      </trkpt>
      <trkpt lat="47.88711" lon="6.90534">
        <ele>747</ele>
        <time>2026-05-09T09:36:40.989Z</time>
      </trkpt>
      <trkpt lat="47.88711" lon="6.90532">
        <ele>746</ele>
        <time>2026-05-09T09:36:41.988Z</time>
      </trkpt>
      <trkpt lat="47.88712" lon="6.9053">
        <ele>746</ele>
        <time>2026-05-09T09:36:42.989Z</time>
      </trkpt>
      <trkpt lat="47.88713" lon="6.90529">
        <ele>746</ele>
        <time>2026-05-09T09:36:43.988Z</time>
      </trkpt>
      <trkpt lat="47.88713" lon="6.90528">
        <ele>746</ele>
        <time>2026-05-09T09:36:44.989Z</time>
      </trkpt>
      <trkpt lat="47.88714" lon="6.90527">
        <ele>746</ele>
        <time>2026-05-09T09:36:45.989Z</time>
      </trkpt>
      <trkpt lat="47.88713" lon="6.90525">
        <ele>746</ele>
        <time>2026-05-09T09:36:46.988Z</time>
      </trkpt>
      <trkpt lat="47.88713" lon="6.90524">
        <ele>746</ele>
        <time>2026-05-09T09:36:47.989Z</time>
      </trkpt>
      <trkpt lat="47.88713" lon="6.90522">
        <ele>746</ele>
        <time>2026-05-09T09:36:48.989Z</time>
      </trkpt>
      <trkpt lat="47.88713" lon="6.90521">
        <ele>746</ele>
        <time>2026-05-09T09:36:49.988Z</time>
      </trkpt>
      <trkpt lat="47.88714" lon="6.90519">
        <ele>745</ele>
        <time>2026-05-09T09:36:50.989Z</time>
      </trkpt>
      <trkpt lat="47.88715" lon="6.90518">
        <ele>745</ele>
        <time>2026-05-09T09:36:51.988Z</time>
      </trkpt>
      <trkpt lat="47.88716" lon="6.90516">
        <ele>745</ele>
        <time>2026-05-09T09:36:52.988Z</time>
      </trkpt>
      <trkpt lat="47.88717" lon="6.90515">
        <ele>744</ele>
        <time>2026-05-09T09:36:53.989Z</time>
      </trkpt>
      <trkpt lat="47.88717" lon="6.90513">
        <ele>744</ele>
        <time>2026-05-09T09:36:54.988Z</time>
      </trkpt>
      <trkpt lat="47.88718" lon="6.90511">
        <ele>744</ele>
        <time>2026-05-09T09:36:55.988Z</time>
      </trkpt>
      <trkpt lat="47.88719" lon="6.9051">
        <ele>744</ele>
        <time>2026-05-09T09:36:56.988Z</time>
      </trkpt>
      <trkpt lat="47.8872" lon="6.90508">
        <ele>744</ele>
        <time>2026-05-09T09:36:57.988Z</time>
      </trkpt>
      <trkpt lat="47.8872" lon="6.90506">
        <ele>743</ele>
        <time>2026-05-09T09:36:58.989Z</time>
      </trkpt>
      <trkpt lat="47.8872" lon="6.90503">
        <ele>743</ele>
        <time>2026-05-09T09:36:59.988Z</time>
      </trkpt>
      <trkpt lat="47.88721" lon="6.90502">
        <ele>743</ele>
        <time>2026-05-09T09:37:00.989Z</time>
      </trkpt>
      <trkpt lat="47.88722" lon="6.905">
        <ele>743</ele>
        <time>2026-05-09T09:37:01.988Z</time>
      </trkpt>
      <trkpt lat="47.88724" lon="6.90498">
        <ele>743</ele>
        <time>2026-05-09T09:37:02.989Z</time>
      </trkpt>
      <trkpt lat="47.88724" lon="6.90496">
        <ele>743</ele>
        <time>2026-05-09T09:37:03.988Z</time>
      </trkpt>
      <trkpt lat="47.88725" lon="6.90494">
        <ele>743</ele>
        <time>2026-05-09T09:37:04.988Z</time>
      </trkpt>
      <trkpt lat="47.88725" lon="6.90492">
        <ele>743</ele>
        <time>2026-05-09T09:37:05.989Z</time>
      </trkpt>
      <trkpt lat="47.88726" lon="6.90489">
        <ele>743</ele>
        <time>2026-05-09T09:37:06.989Z</time>
      </trkpt>
      <trkpt lat="47.88726" lon="6.90487">
        <ele>743</ele>
        <time>2026-05-09T09:37:07.989Z</time>
      </trkpt>
      <trkpt lat="47.88726" lon="6.90485">
        <ele>743</ele>
        <time>2026-05-09T09:37:08.988Z</time>
      </trkpt>
      <trkpt lat="47.88726" lon="6.90482">
        <ele>743</ele>
        <time>2026-05-09T09:37:09.988Z</time>
      </trkpt>
      <trkpt lat="47.88726" lon="6.90481">
        <ele>743</ele>
        <time>2026-05-09T09:37:10.988Z</time>
      </trkpt>
      <trkpt lat="47.88727" lon="6.90479">
        <ele>743</ele>
        <time>2026-05-09T09:37:11.989Z</time>
      </trkpt>
      <trkpt lat="47.88727" lon="6.90478">
        <ele>743</ele>
        <time>2026-05-09T09:37:12.988Z</time>
      </trkpt>
      <trkpt lat="47.88727" lon="6.90476">
        <ele>742</ele>
        <time>2026-05-09T09:37:13.988Z</time>
      </trkpt>
      <trkpt lat="47.88727" lon="6.90473">
        <ele>742</ele>
        <time>2026-05-09T09:37:14.988Z</time>
      </trkpt>
      <trkpt lat="47.88728" lon="6.90471">
        <ele>742</ele>
        <time>2026-05-09T09:37:15.988Z</time>
      </trkpt>
      <trkpt lat="47.88728" lon="6.9047">
        <ele>742</ele>
        <time>2026-05-09T09:37:16.989Z</time>
      </trkpt>
      <trkpt lat="47.88729" lon="6.90469">
        <ele>742</ele>
        <time>2026-05-09T09:37:17.989Z</time>
      </trkpt>
      <trkpt lat="47.8873" lon="6.90468">
        <ele>742</ele>
        <time>2026-05-09T09:37:18.989Z</time>
      </trkpt>
      <trkpt lat="47.8873" lon="6.90466">
        <ele>742</ele>
        <time>2026-05-09T09:37:19.989Z</time>
      </trkpt>
      <trkpt lat="47.88729" lon="6.90464">
        <ele>742</ele>
        <time>2026-05-09T09:37:20.989Z</time>
      </trkpt>
      <trkpt lat="47.88729" lon="6.90462">
        <ele>742</ele>
        <time>2026-05-09T09:37:21.989Z</time>
      </trkpt>
      <trkpt lat="47.8873" lon="6.90461">
        <ele>742</ele>
        <time>2026-05-09T09:37:22.988Z</time>
      </trkpt>
      <trkpt lat="47.8873" lon="6.90458">
        <ele>742</ele>
        <time>2026-05-09T09:37:23.988Z</time>
      </trkpt>
      <trkpt lat="47.8873" lon="6.90457">
        <ele>742</ele>
        <time>2026-05-09T09:37:24.989Z</time>
      </trkpt>
      <trkpt lat="47.88731" lon="6.90455">
        <ele>742</ele>
        <time>2026-05-09T09:37:25.988Z</time>
      </trkpt>
      <trkpt lat="47.88731" lon="6.90453">
        <ele>742</ele>
        <time>2026-05-09T09:37:26.989Z</time>
      </trkpt>
      <trkpt lat="47.88731" lon="6.90451">
        <ele>742</ele>
        <time>2026-05-09T09:37:27.988Z</time>
      </trkpt>
      <trkpt lat="47.88731" lon="6.90449">
        <ele>742</ele>
        <time>2026-05-09T09:37:28.989Z</time>
      </trkpt>
      <trkpt lat="47.88731" lon="6.90448">
        <ele>742</ele>
        <time>2026-05-09T09:37:29.988Z</time>
      </trkpt>
      <trkpt lat="47.88732" lon="6.90446">
        <ele>742</ele>
        <time>2026-05-09T09:37:30.988Z</time>
      </trkpt>
      <trkpt lat="47.88732" lon="6.90445">
        <ele>742</ele>
        <time>2026-05-09T09:37:31.989Z</time>
      </trkpt>
      <trkpt lat="47.88733" lon="6.90443">
        <ele>742</ele>
        <time>2026-05-09T09:37:32.988Z</time>
      </trkpt>
      <trkpt lat="47.88734" lon="6.90441">
        <ele>742</ele>
        <time>2026-05-09T09:37:33.989Z</time>
      </trkpt>
      <trkpt lat="47.88735" lon="6.90438">
        <ele>742</ele>
        <time>2026-05-09T09:37:34.989Z</time>
      </trkpt>
      <trkpt lat="47.88735" lon="6.90436">
        <ele>742</ele>
        <time>2026-05-09T09:37:35.988Z</time>
      </trkpt>
      <trkpt lat="47.88734" lon="6.90433">
        <ele>742</ele>
        <time>2026-05-09T09:37:36.989Z</time>
      </trkpt>
      <trkpt lat="47.88734" lon="6.90431">
        <ele>742</ele>
        <time>2026-05-09T09:37:37.988Z</time>
      </trkpt>
      <trkpt lat="47.88734" lon="6.90428">
        <ele>742</ele>
        <time>2026-05-09T09:37:38.989Z</time>
      </trkpt>
      <trkpt lat="47.88734" lon="6.90425">
        <ele>741</ele>
        <time>2026-05-09T09:37:39.988Z</time>
      </trkpt>
      <trkpt lat="47.88734" lon="6.90422">
        <ele>741</ele>
        <time>2026-05-09T09:37:40.989Z</time>
      </trkpt>
      <trkpt lat="47.88735" lon="6.90419">
        <ele>741</ele>
        <time>2026-05-09T09:37:41.989Z</time>
      </trkpt>
      <trkpt lat="47.88734" lon="6.90416">
        <ele>741</ele>
        <time>2026-05-09T09:37:42.988Z</time>
      </trkpt>
      <trkpt lat="47.88735" lon="6.90413">
        <ele>741</ele>
        <time>2026-05-09T09:37:43.989Z</time>
      </trkpt>
      <trkpt lat="47.88736" lon="6.9041">
        <ele>741</ele>
        <time>2026-05-09T09:37:44.988Z</time>
      </trkpt>
      <trkpt lat="47.88736" lon="6.90408">
        <ele>741</ele>
        <time>2026-05-09T09:37:45.989Z</time>
      </trkpt>
      <trkpt lat="47.88737" lon="6.90405">
        <ele>741</ele>
        <time>2026-05-09T09:37:46.988Z</time>
      </trkpt>
      <trkpt lat="47.88737" lon="6.90403">
        <ele>741</ele>
        <time>2026-05-09T09:37:47.988Z</time>
      </trkpt>
      <trkpt lat="47.88738" lon="6.90401">
        <ele>740</ele>
        <time>2026-05-09T09:37:48.989Z</time>
      </trkpt>
      <trkpt lat="47.88739" lon="6.90399">
        <ele>740</ele>
        <time>2026-05-09T09:37:49.988Z</time>
      </trkpt>
      <trkpt lat="47.88739" lon="6.90398">
        <ele>740</ele>
        <time>2026-05-09T09:37:50.988Z</time>
      </trkpt>
      <trkpt lat="47.88739" lon="6.90396">
        <ele>740</ele>
        <time>2026-05-09T09:37:51.988Z</time>
      </trkpt>
      <trkpt lat="47.8874" lon="6.90395">
        <ele>740</ele>
        <time>2026-05-09T09:37:52.989Z</time>
      </trkpt>
      <trkpt lat="47.8874" lon="6.90394">
        <ele>740</ele>
        <time>2026-05-09T09:37:53.988Z</time>
      </trkpt>
      <trkpt lat="47.8874" lon="6.90392">
        <ele>740</ele>
        <time>2026-05-09T09:37:54.989Z</time>
      </trkpt>
      <trkpt lat="47.88741" lon="6.9039">
        <ele>740</ele>
        <time>2026-05-09T09:37:55.989Z</time>
      </trkpt>
      <trkpt lat="47.88741" lon="6.90388">
        <ele>740</ele>
        <time>2026-05-09T09:37:56.988Z</time>
      </trkpt>
      <trkpt lat="47.88741" lon="6.90385">
        <ele>740</ele>
        <time>2026-05-09T09:37:57.989Z</time>
      </trkpt>
      <trkpt lat="47.88741" lon="6.90383">
        <ele>740</ele>
        <time>2026-05-09T09:37:58.988Z</time>
      </trkpt>
      <trkpt lat="47.88741" lon="6.9038">
        <ele>740</ele>
        <time>2026-05-09T09:37:59.989Z</time>
      </trkpt>
      <trkpt lat="47.8874" lon="6.90376">
        <ele>740</ele>
        <time>2026-05-09T09:38:00.988Z</time>
      </trkpt>
      <trkpt lat="47.88739" lon="6.90372">
        <ele>740</ele>
        <time>2026-05-09T09:38:01.989Z</time>
      </trkpt>
      <trkpt lat="47.88738" lon="6.90367">
        <ele>740</ele>
        <time>2026-05-09T09:38:02.988Z</time>
      </trkpt>
      <trkpt lat="47.88735" lon="6.90361">
        <ele>740</ele>
        <time>2026-05-09T09:38:03.989Z</time>
      </trkpt>
      <trkpt lat="47.88733" lon="6.90356">
        <ele>740</ele>
        <time>2026-05-09T09:38:04.989Z</time>
      </trkpt>
      <trkpt lat="47.88732" lon="6.90351">
        <ele>740</ele>
        <time>2026-05-09T09:38:05.988Z</time>
      </trkpt>
      <trkpt lat="47.88728" lon="6.90345">
        <ele>740</ele>
        <time>2026-05-09T09:38:06.989Z</time>
      </trkpt>
      <trkpt lat="47.88725" lon="6.90339">
        <ele>740</ele>
        <time>2026-05-09T09:38:07.988Z</time>
      </trkpt>
      <trkpt lat="47.88724" lon="6.90335">
        <ele>740</ele>
        <time>2026-05-09T09:38:08.989Z</time>
      </trkpt>
      <trkpt lat="47.88723" lon="6.90331">
        <ele>740</ele>
        <time>2026-05-09T09:38:09.988Z</time>
      </trkpt>
      <trkpt lat="47.88723" lon="6.90326">
        <ele>740</ele>
        <time>2026-05-09T09:38:10.989Z</time>
      </trkpt>
      <trkpt lat="47.88722" lon="6.90323">
        <ele>740</ele>
        <time>2026-05-09T09:38:11.988Z</time>
      </trkpt>
      <trkpt lat="47.88722" lon="6.9032">
        <ele>740</ele>
        <time>2026-05-09T09:38:12.988Z</time>
      </trkpt>
      <trkpt lat="47.88722" lon="6.90318">
        <ele>740</ele>
        <time>2026-05-09T09:38:13.989Z</time>
      </trkpt>
      <trkpt lat="47.88723" lon="6.90318">
        <ele>740</ele>
        <time>2026-05-09T09:38:14.988Z</time>
      </trkpt>
      <trkpt lat="47.88725" lon="6.90317">
        <ele>740</ele>
        <time>2026-05-09T09:38:15.989Z</time>
      </trkpt>
      <trkpt lat="47.88726" lon="6.90317">
        <ele>740</ele>
        <time>2026-05-09T09:38:16.989Z</time>
      </trkpt>
      <trkpt lat="47.88726" lon="6.90316">
        <ele>740</ele>
        <time>2026-05-09T09:38:17.988Z</time>
      </trkpt>
      <trkpt lat="47.88728" lon="6.90315">
        <ele>740</ele>
        <time>2026-05-09T09:38:18.988Z</time>
      </trkpt>
      <trkpt lat="47.88729" lon="6.90314">
        <ele>740</ele>
        <time>2026-05-09T09:38:19.988Z</time>
      </trkpt>
      <trkpt lat="47.88729" lon="6.90313">
        <ele>740</ele>
        <time>2026-05-09T09:38:20.989Z</time>
      </trkpt>
      <trkpt lat="47.88729" lon="6.90311">
        <ele>739</ele>
        <time>2026-05-09T09:38:21.988Z</time>
      </trkpt>
      <trkpt lat="47.8873" lon="6.9031">
        <ele>739</ele>
        <time>2026-05-09T09:38:22.989Z</time>
      </trkpt>
      <trkpt lat="47.88731" lon="6.90308">
        <ele>739</ele>
        <time>2026-05-09T09:38:23.989Z</time>
      </trkpt>
      <trkpt lat="47.88731" lon="6.90305">
        <ele>739</ele>
        <time>2026-05-09T09:38:24.988Z</time>
      </trkpt>
      <trkpt lat="47.88731" lon="6.90304">
        <ele>739</ele>
        <time>2026-05-09T09:38:25.988Z</time>
      </trkpt>
      <trkpt lat="47.88732" lon="6.90303">
        <ele>739</ele>
        <time>2026-05-09T09:38:26.988Z</time>
      </trkpt>
      <trkpt lat="47.88733" lon="6.90303">
        <ele>739</ele>
        <time>2026-05-09T09:38:27.989Z</time>
      </trkpt>
      <trkpt lat="47.88734" lon="6.90301">
        <ele>739</ele>
        <time>2026-05-09T09:38:28.988Z</time>
      </trkpt>
      <trkpt lat="47.88734" lon="6.90299">
        <ele>739</ele>
        <time>2026-05-09T09:38:29.988Z</time>
      </trkpt>
      <trkpt lat="47.88734" lon="6.90297">
        <ele>739</ele>
        <time>2026-05-09T09:38:30.988Z</time>
      </trkpt>
      <trkpt lat="47.88735" lon="6.90295">
        <ele>739</ele>
        <time>2026-05-09T09:38:31.989Z</time>
      </trkpt>
      <trkpt lat="47.88737" lon="6.90293">
        <ele>739</ele>
        <time>2026-05-09T09:38:32.988Z</time>
      </trkpt>
      <trkpt lat="47.88738" lon="6.90291">
        <ele>739</ele>
        <time>2026-05-09T09:38:33.989Z</time>
      </trkpt>
      <trkpt lat="47.88739" lon="6.90289">
        <ele>739</ele>
        <time>2026-05-09T09:38:34.988Z</time>
      </trkpt>
      <trkpt lat="47.8874" lon="6.90288">
        <ele>739</ele>
        <time>2026-05-09T09:38:35.988Z</time>
      </trkpt>
      <trkpt lat="47.8874" lon="6.90288">
        <ele>739</ele>
        <time>2026-05-09T09:38:36.989Z</time>
      </trkpt>
      <trkpt lat="47.88741" lon="6.90288">
        <ele>739</ele>
        <time>2026-05-09T09:38:37.989Z</time>
      </trkpt>
      <trkpt lat="47.88743" lon="6.90287">
        <ele>739</ele>
        <time>2026-05-09T09:38:45.315Z</time>
      </trkpt>
      <trkpt lat="47.88743" lon="6.90287">
        <ele>739</ele>
        <time>2026-05-09T09:38:46.315Z</time>
      </trkpt>
      <trkpt lat="47.88744" lon="6.90287">
        <ele>740</ele>
        <time>2026-05-09T09:38:47.315Z</time>
      </trkpt>
      <trkpt lat="47.88744" lon="6.90287">
        <ele>740</ele>
        <time>2026-05-09T09:38:48.315Z</time>
      </trkpt>
      <trkpt lat="47.88745" lon="6.90288">
        <ele>740</ele>
        <time>2026-05-09T09:38:49.316Z</time>
      </trkpt>
      <trkpt lat="47.88745" lon="6.90288">
        <ele>740</ele>
        <time>2026-05-09T09:38:50.316Z</time>
      </trkpt>
      <trkpt lat="47.88746" lon="6.90288">
        <ele>740</ele>
        <time>2026-05-09T09:38:51.315Z</time>
      </trkpt>
      <trkpt lat="47.88746" lon="6.90288">
        <ele>741</ele>
        <time>2026-05-09T09:38:52.315Z</time>
      </trkpt>
      <trkpt lat="47.88747" lon="6.90288">
        <ele>741</ele>
        <time>2026-05-09T09:38:53.315Z</time>
      </trkpt>
      <trkpt lat="47.88747" lon="6.90288">
        <ele>741</ele>
        <time>2026-05-09T09:38:54.315Z</time>
      </trkpt>
      <trkpt lat="47.88747" lon="6.90288">
        <ele>741</ele>
        <time>2026-05-09T09:38:55.315Z</time>
      </trkpt>
      <trkpt lat="47.88747" lon="6.90289">
        <ele>741</ele>
        <time>2026-05-09T09:38:56.316Z</time>
      </trkpt>
      <trkpt lat="47.88747" lon="6.9029">
        <ele>741</ele>
        <time>2026-05-09T09:38:57.316Z</time>
      </trkpt>
      <trkpt lat="47.88746" lon="6.9029">
        <ele>741</ele>
        <time>2026-05-09T09:38:58.315Z</time>
      </trkpt>
      <trkpt lat="47.88746" lon="6.9029">
        <ele>742</ele>
        <time>2026-05-09T09:38:59.315Z</time>
      </trkpt>
      <trkpt lat="47.88746" lon="6.9029">
        <ele>742</ele>
        <time>2026-05-09T09:39:00.315Z</time>
      </trkpt>
      <trkpt lat="47.88746" lon="6.90291">
        <ele>744</ele>
        <time>2026-05-09T09:39:06.621Z</time>
      </trkpt>
      <trkpt lat="47.88743" lon="6.90291">
        <ele>744</ele>
        <time>2026-05-09T09:39:07.622Z</time>
      </trkpt>
      <trkpt lat="47.88742" lon="6.9029">
        <ele>744</ele>
        <time>2026-05-09T09:39:08.621Z</time>
      </trkpt>
      <trkpt lat="47.88741" lon="6.9029">
        <ele>744</ele>
        <time>2026-05-09T09:39:09.622Z</time>
      </trkpt>
      <trkpt lat="47.88741" lon="6.9029">
        <ele>745</ele>
        <time>2026-05-09T09:39:10.622Z</time>
      </trkpt>
      <trkpt lat="47.88741" lon="6.90291">
        <ele>745</ele>
        <time>2026-05-09T09:39:11.621Z</time>
      </trkpt>
      <trkpt lat="47.8874" lon="6.90291">
        <ele>745</ele>
        <time>2026-05-09T09:39:12.621Z</time>
      </trkpt>
      <trkpt lat="47.8874" lon="6.90292">
        <ele>745</ele>
        <time>2026-05-09T09:39:13.621Z</time>
      </trkpt>
      <trkpt lat="47.8874" lon="6.90292">
        <ele>745</ele>
        <time>2026-05-09T09:39:14.621Z</time>
      </trkpt>
      <trkpt lat="47.8874" lon="6.90292">
        <ele>745</ele>
        <time>2026-05-09T09:39:15.621Z</time>
      </trkpt>
      <trkpt lat="47.8874" lon="6.90292">
        <ele>745</ele>
        <time>2026-05-09T09:39:16.622Z</time>
      </trkpt>
      <trkpt lat="47.88739" lon="6.90292">
        <ele>745</ele>
        <time>2026-05-09T09:39:17.622Z</time>
      </trkpt>
      <trkpt lat="47.88739" lon="6.90292">
        <ele>745</ele>
        <time>2026-05-09T09:39:18.621Z</time>
      </trkpt>
      <trkpt lat="47.88739" lon="6.90292">
        <ele>745</ele>
        <time>2026-05-09T09:39:19.622Z</time>
      </trkpt>
      <trkpt lat="47.88739" lon="6.90293">
        <ele>745</ele>
        <time>2026-05-09T09:39:20.621Z</time>
      </trkpt>
      <trkpt lat="47.88739" lon="6.90292">
        <ele>745</ele>
        <time>2026-05-09T09:39:21.622Z</time>
      </trkpt>
      <trkpt lat="47.88739" lon="6.90292">
        <ele>745</ele>
        <time>2026-05-09T09:39:22.621Z</time>
      </trkpt>
      <trkpt lat="47.88739" lon="6.90292">
        <ele>745</ele>
        <time>2026-05-09T09:39:23.622Z</time>
      </trkpt>
      <trkpt lat="47.8874" lon="6.90293">
        <ele>745</ele>
        <time>2026-05-09T09:39:24.621Z</time>
      </trkpt>
      <trkpt lat="47.8874" lon="6.90293">
        <ele>745</ele>
        <time>2026-05-09T09:39:25.622Z</time>
      </trkpt>
      <trkpt lat="47.8874" lon="6.90293">
        <ele>745</ele>
        <time>2026-05-09T09:39:26.621Z</time>
      </trkpt>
      <trkpt lat="47.8874" lon="6.90294">
        <ele>745</ele>
        <time>2026-05-09T09:39:27.622Z</time>
      </trkpt>
      <trkpt lat="47.8874" lon="6.90294">
        <ele>745</ele>
        <time>2026-05-09T09:39:28.621Z</time>
      </trkpt>
      <trkpt lat="47.88741" lon="6.90294">
        <ele>745</ele>
        <time>2026-05-09T09:39:29.622Z</time>
      </trkpt>
      <trkpt lat="47.88741" lon="6.90294">
        <ele>745</ele>
        <time>2026-05-09T09:39:30.622Z</time>
      </trkpt>
      <trkpt lat="47.88742" lon="6.90294">
        <ele>744</ele>
        <time>2026-05-09T09:39:31.621Z</time>
      </trkpt>
      <trkpt lat="47.88742" lon="6.90294">
        <ele>744</ele>
        <time>2026-05-09T09:39:32.622Z</time>
      </trkpt>
      <trkpt lat="47.88743" lon="6.90294">
        <ele>744</ele>
        <time>2026-05-09T09:39:33.622Z</time>
      </trkpt>
      <trkpt lat="47.88745" lon="6.90295">
        <ele>744</ele>
        <time>2026-05-09T09:39:34.621Z</time>
      </trkpt>
      <trkpt lat="47.88746" lon="6.90295">
        <ele>745</ele>
        <time>2026-05-09T09:39:35.621Z</time>
      </trkpt>
      <trkpt lat="47.88747" lon="6.90295">
        <ele>745</ele>
        <time>2026-05-09T09:39:36.622Z</time>
      </trkpt>
      <trkpt lat="47.88748" lon="6.90295">
        <ele>745</ele>
        <time>2026-05-09T09:39:37.621Z</time>
      </trkpt>
      <trkpt lat="47.88749" lon="6.90295">
        <ele>745</ele>
        <time>2026-05-09T09:39:38.621Z</time>
      </trkpt>
      <trkpt lat="47.8875" lon="6.90295">
        <ele>745</ele>
        <time>2026-05-09T09:39:39.622Z</time>
      </trkpt>
      <trkpt lat="47.8875" lon="6.90295">
        <ele>745</ele>
        <time>2026-05-09T09:39:40.621Z</time>
      </trkpt>
      <trkpt lat="47.88751" lon="6.90294">
        <ele>745</ele>
        <time>2026-05-09T09:39:41.622Z</time>
      </trkpt>
      <trkpt lat="47.88751" lon="6.90293">
        <ele>745</ele>
        <time>2026-05-09T09:39:42.622Z</time>
      </trkpt>
      <trkpt lat="47.88752" lon="6.90293">
        <ele>746</ele>
        <time>2026-05-09T09:39:43.621Z</time>
      </trkpt>
      <trkpt lat="47.88752" lon="6.90292">
        <ele>746</ele>
        <time>2026-05-09T09:39:44.622Z</time>
      </trkpt>
      <trkpt lat="47.88752" lon="6.90292">
        <ele>746</ele>
        <time>2026-05-09T09:39:45.621Z</time>
      </trkpt>
      <trkpt lat="47.88752" lon="6.9029">
        <ele>746</ele>
        <time>2026-05-09T09:39:46.621Z</time>
      </trkpt>
      <trkpt lat="47.88751" lon="6.90289">
        <ele>747</ele>
        <time>2026-05-09T09:39:47.622Z</time>
      </trkpt>
      <trkpt lat="47.88751" lon="6.90288">
        <ele>747</ele>
        <time>2026-05-09T09:39:48.621Z</time>
      </trkpt>
      <trkpt lat="47.8875" lon="6.90287">
        <ele>747</ele>
        <time>2026-05-09T09:39:49.621Z</time>
      </trkpt>
      <trkpt lat="47.8875" lon="6.90286">
        <ele>747</ele>
        <time>2026-05-09T09:39:50.621Z</time>
      </trkpt>
      <trkpt lat="47.8875" lon="6.90284">
        <ele>747</ele>
        <time>2026-05-09T09:39:51.622Z</time>
      </trkpt>
      <trkpt lat="47.88751" lon="6.90284">
        <ele>747</ele>
        <time>2026-05-09T09:39:52.622Z</time>
      </trkpt>
      <trkpt lat="47.88751" lon="6.90283">
        <ele>747</ele>
        <time>2026-05-09T09:39:53.621Z</time>
      </trkpt>
      <trkpt lat="47.88752" lon="6.90282">
        <ele>748</ele>
        <time>2026-05-09T09:39:54.622Z</time>
      </trkpt>
      <trkpt lat="47.88752" lon="6.90281">
        <ele>748</ele>
        <time>2026-05-09T09:39:55.621Z</time>
      </trkpt>
      <trkpt lat="47.88753" lon="6.9028">
        <ele>748</ele>
        <time>2026-05-09T09:39:56.622Z</time>
      </trkpt>
      <trkpt lat="47.88754" lon="6.90278">
        <ele>748</ele>
        <time>2026-05-09T09:39:57.622Z</time>
      </trkpt>
      <trkpt lat="47.88755" lon="6.90276">
        <ele>748</ele>
        <time>2026-05-09T09:39:58.621Z</time>
      </trkpt>
      <trkpt lat="47.88756" lon="6.90274">
        <ele>748</ele>
        <time>2026-05-09T09:39:59.621Z</time>
      </trkpt>
      <trkpt lat="47.88756" lon="6.90272">
        <ele>748</ele>
        <time>2026-05-09T09:40:00.621Z</time>
      </trkpt>
      <trkpt lat="47.88757" lon="6.9027">
        <ele>748</ele>
        <time>2026-05-09T09:40:01.622Z</time>
      </trkpt>
      <trkpt lat="47.88757" lon="6.90267">
        <ele>748</ele>
        <time>2026-05-09T09:40:02.621Z</time>
      </trkpt>
      <trkpt lat="47.88757" lon="6.90265">
        <ele>748</ele>
        <time>2026-05-09T09:40:03.622Z</time>
      </trkpt>
      <trkpt lat="47.88758" lon="6.90263">
        <ele>748</ele>
        <time>2026-05-09T09:40:04.622Z</time>
      </trkpt>
      <trkpt lat="47.88759" lon="6.90262">
        <ele>749</ele>
        <time>2026-05-09T09:40:05.622Z</time>
      </trkpt>
      <trkpt lat="47.88758" lon="6.90261">
        <ele>749</ele>
        <time>2026-05-09T09:40:06.622Z</time>
      </trkpt>
      <trkpt lat="47.88759" lon="6.90261">
        <ele>749</ele>
        <time>2026-05-09T09:40:07.621Z</time>
      </trkpt>
      <trkpt lat="47.88759" lon="6.9026">
        <ele>749</ele>
        <time>2026-05-09T09:40:08.622Z</time>
      </trkpt>
      <trkpt lat="47.88759" lon="6.90259">
        <ele>749</ele>
        <time>2026-05-09T09:40:09.622Z</time>
      </trkpt>
      <trkpt lat="47.8876" lon="6.90257">
        <ele>749</ele>
        <time>2026-05-09T09:40:10.621Z</time>
      </trkpt>
      <trkpt lat="47.88762" lon="6.90256">
        <ele>749</ele>
        <time>2026-05-09T09:40:11.622Z</time>
      </trkpt>
      <trkpt lat="47.88764" lon="6.90254">
        <ele>749</ele>
        <time>2026-05-09T09:40:12.621Z</time>
      </trkpt>
      <trkpt lat="47.88765" lon="6.90252">
        <ele>749</ele>
        <time>2026-05-09T09:40:13.622Z</time>
      </trkpt>
      <trkpt lat="47.88766" lon="6.90251">
        <ele>749</ele>
        <time>2026-05-09T09:40:14.621Z</time>
      </trkpt>
      <trkpt lat="47.88767" lon="6.90248">
        <ele>749</ele>
        <time>2026-05-09T09:40:15.621Z</time>
      </trkpt>
      <trkpt lat="47.88768" lon="6.90245">
        <ele>749</ele>
        <time>2026-05-09T09:40:16.622Z</time>
      </trkpt>
      <trkpt lat="47.88769" lon="6.90242">
        <ele>749</ele>
        <time>2026-05-09T09:40:17.622Z</time>
      </trkpt>
      <trkpt lat="47.88769" lon="6.90239">
        <ele>749</ele>
        <time>2026-05-09T09:40:18.621Z</time>
      </trkpt>
      <trkpt lat="47.88769" lon="6.90237">
        <ele>749</ele>
        <time>2026-05-09T09:40:19.621Z</time>
      </trkpt>
      <trkpt lat="47.8877" lon="6.90236">
        <ele>749</ele>
        <time>2026-05-09T09:40:20.622Z</time>
      </trkpt>
      <trkpt lat="47.88771" lon="6.90233">
        <ele>749</ele>
        <time>2026-05-09T09:40:21.621Z</time>
      </trkpt>
      <trkpt lat="47.88771" lon="6.90231">
        <ele>749</ele>
        <time>2026-05-09T09:40:22.621Z</time>
      </trkpt>
      <trkpt lat="47.88772" lon="6.90228">
        <ele>749</ele>
        <time>2026-05-09T09:40:23.621Z</time>
      </trkpt>
      <trkpt lat="47.88774" lon="6.90228">
        <ele>750</ele>
        <time>2026-05-09T09:40:24.621Z</time>
      </trkpt>
      <trkpt lat="47.88774" lon="6.90228">
        <ele>750</ele>
        <time>2026-05-09T09:40:25.622Z</time>
      </trkpt>
      <trkpt lat="47.88774" lon="6.90229">
        <ele>750</ele>
        <time>2026-05-09T09:40:26.621Z</time>
      </trkpt>
      <trkpt lat="47.88774" lon="6.90228">
        <ele>750</ele>
        <time>2026-05-09T09:40:27.622Z</time>
      </trkpt>
      <trkpt lat="47.88774" lon="6.90228">
        <ele>750</ele>
        <time>2026-05-09T09:40:28.621Z</time>
      </trkpt>
      <trkpt lat="47.88775" lon="6.90227">
        <ele>750</ele>
        <time>2026-05-09T09:40:29.622Z</time>
      </trkpt>
      <trkpt lat="47.88776" lon="6.90225">
        <ele>750</ele>
        <time>2026-05-09T09:40:30.622Z</time>
      </trkpt>
      <trkpt lat="47.88777" lon="6.90223">
        <ele>750</ele>
        <time>2026-05-09T09:40:31.622Z</time>
      </trkpt>
      <trkpt lat="47.88778" lon="6.90221">
        <ele>750</ele>
        <time>2026-05-09T09:40:32.621Z</time>
      </trkpt>
      <trkpt lat="47.88779" lon="6.9022">
        <ele>750</ele>
        <time>2026-05-09T09:40:33.622Z</time>
      </trkpt>
      <trkpt lat="47.88779" lon="6.90219">
        <ele>750</ele>
        <time>2026-05-09T09:40:34.621Z</time>
      </trkpt>
      <trkpt lat="47.8878" lon="6.90217">
        <ele>750</ele>
        <time>2026-05-09T09:40:35.622Z</time>
      </trkpt>
      <trkpt lat="47.88781" lon="6.90216">
        <ele>750</ele>
        <time>2026-05-09T09:40:36.621Z</time>
      </trkpt>
      <trkpt lat="47.8878" lon="6.90216">
        <ele>751</ele>
        <time>2026-05-09T09:40:37.622Z</time>
      </trkpt>
      <trkpt lat="47.88781" lon="6.90216">
        <ele>751</ele>
        <time>2026-05-09T09:40:38.621Z</time>
      </trkpt>
      <trkpt lat="47.88785" lon="6.90208">
        <ele>752</ele>
        <time>2026-05-09T09:40:44.903Z</time>
      </trkpt>
      <trkpt lat="47.88786" lon="6.90206">
        <ele>752</ele>
        <time>2026-05-09T09:40:45.903Z</time>
      </trkpt>
      <trkpt lat="47.88786" lon="6.90205">
        <ele>752</ele>
        <time>2026-05-09T09:40:46.903Z</time>
      </trkpt>
      <trkpt lat="47.88787" lon="6.90203">
        <ele>752</ele>
        <time>2026-05-09T09:40:47.903Z</time>
      </trkpt>
      <trkpt lat="47.88787" lon="6.90201">
        <ele>753</ele>
        <time>2026-05-09T09:40:48.904Z</time>
      </trkpt>
      <trkpt lat="47.88787" lon="6.902">
        <ele>753</ele>
        <time>2026-05-09T09:40:49.903Z</time>
      </trkpt>
      <trkpt lat="47.88788" lon="6.90198">
        <ele>753</ele>
        <time>2026-05-09T09:40:50.904Z</time>
      </trkpt>
      <trkpt lat="47.88789" lon="6.90197">
        <ele>754</ele>
        <time>2026-05-09T09:40:51.903Z</time>
      </trkpt>
      <trkpt lat="47.8879" lon="6.90196">
        <ele>754</ele>
        <time>2026-05-09T09:40:52.904Z</time>
      </trkpt>
      <trkpt lat="47.8879" lon="6.90195">
        <ele>754</ele>
        <time>2026-05-09T09:40:53.903Z</time>
      </trkpt>
      <trkpt lat="47.88791" lon="6.90194">
        <ele>755</ele>
        <time>2026-05-09T09:40:54.904Z</time>
      </trkpt>
      <trkpt lat="47.88791" lon="6.90192">
        <ele>755</ele>
        <time>2026-05-09T09:40:55.903Z</time>
      </trkpt>
      <trkpt lat="47.88793" lon="6.9019">
        <ele>755</ele>
        <time>2026-05-09T09:40:56.903Z</time>
      </trkpt>
      <trkpt lat="47.88794" lon="6.90187">
        <ele>756</ele>
        <time>2026-05-09T09:40:57.903Z</time>
      </trkpt>
      <trkpt lat="47.88795" lon="6.90183">
        <ele>756</ele>
        <time>2026-05-09T09:40:58.903Z</time>
      </trkpt>
      <trkpt lat="47.88796" lon="6.90182">
        <ele>756</ele>
        <time>2026-05-09T09:40:59.904Z</time>
      </trkpt>
      <trkpt lat="47.88798" lon="6.9018">
        <ele>757</ele>
        <time>2026-05-09T09:41:00.904Z</time>
      </trkpt>
      <trkpt lat="47.88798" lon="6.90178">
        <ele>757</ele>
        <time>2026-05-09T09:41:01.904Z</time>
      </trkpt>
      <trkpt lat="47.888" lon="6.90177">
        <ele>757</ele>
        <time>2026-05-09T09:41:02.903Z</time>
      </trkpt>
      <trkpt lat="47.88801" lon="6.90175">
        <ele>758</ele>
        <time>2026-05-09T09:41:03.904Z</time>
      </trkpt>
      <trkpt lat="47.88802" lon="6.90172">
        <ele>758</ele>
        <time>2026-05-09T09:41:04.903Z</time>
      </trkpt>
      <trkpt lat="47.88803" lon="6.90169">
        <ele>758</ele>
        <time>2026-05-09T09:41:05.903Z</time>
      </trkpt>
      <trkpt lat="47.88804" lon="6.90164">
        <ele>758</ele>
        <time>2026-05-09T09:41:06.903Z</time>
      </trkpt>
      <trkpt lat="47.88806" lon="6.9016">
        <ele>759</ele>
        <time>2026-05-09T09:41:07.904Z</time>
      </trkpt>
      <trkpt lat="47.88808" lon="6.90157">
        <ele>759</ele>
        <time>2026-05-09T09:41:08.903Z</time>
      </trkpt>
      <trkpt lat="47.88809" lon="6.90154">
        <ele>759</ele>
        <time>2026-05-09T09:41:09.903Z</time>
      </trkpt>
      <trkpt lat="47.8881" lon="6.90152">
        <ele>760</ele>
        <time>2026-05-09T09:41:10.903Z</time>
      </trkpt>
      <trkpt lat="47.88812" lon="6.9015">
        <ele>760</ele>
        <time>2026-05-09T09:41:11.904Z</time>
      </trkpt>
      <trkpt lat="47.88812" lon="6.90148">
        <ele>760</ele>
        <time>2026-05-09T09:41:12.903Z</time>
      </trkpt>
      <trkpt lat="47.88813" lon="6.90146">
        <ele>760</ele>
        <time>2026-05-09T09:41:13.904Z</time>
      </trkpt>
      <trkpt lat="47.88814" lon="6.90144">
        <ele>760</ele>
        <time>2026-05-09T09:41:14.903Z</time>
      </trkpt>
      <trkpt lat="47.88815" lon="6.90142">
        <ele>760</ele>
        <time>2026-05-09T09:41:15.904Z</time>
      </trkpt>
      <trkpt lat="47.88816" lon="6.90141">
        <ele>760</ele>
        <time>2026-05-09T09:41:16.904Z</time>
      </trkpt>
      <trkpt lat="47.88818" lon="6.9014">
        <ele>760</ele>
        <time>2026-05-09T09:41:17.903Z</time>
      </trkpt>
      <trkpt lat="47.8882" lon="6.90139">
        <ele>760</ele>
        <time>2026-05-09T09:41:18.904Z</time>
      </trkpt>
      <trkpt lat="47.88822" lon="6.90138">
        <ele>760</ele>
        <time>2026-05-09T09:41:19.903Z</time>
      </trkpt>
      <trkpt lat="47.88823" lon="6.90137">
        <ele>760</ele>
        <time>2026-05-09T09:41:20.904Z</time>
      </trkpt>
      <trkpt lat="47.88825" lon="6.90135">
        <ele>760</ele>
        <time>2026-05-09T09:41:21.903Z</time>
      </trkpt>
      <trkpt lat="47.88826" lon="6.90133">
        <ele>760</ele>
        <time>2026-05-09T09:41:22.904Z</time>
      </trkpt>
      <trkpt lat="47.88828" lon="6.90132">
        <ele>760</ele>
        <time>2026-05-09T09:41:23.903Z</time>
      </trkpt>
      <trkpt lat="47.88829" lon="6.90131">
        <ele>760</ele>
        <time>2026-05-09T09:41:24.904Z</time>
      </trkpt>
      <trkpt lat="47.8883" lon="6.9013">
        <ele>760</ele>
        <time>2026-05-09T09:41:25.903Z</time>
      </trkpt>
      <trkpt lat="47.88831" lon="6.90128">
        <ele>759</ele>
        <time>2026-05-09T09:41:26.904Z</time>
      </trkpt>
      <trkpt lat="47.88832" lon="6.90127">
        <ele>759</ele>
        <time>2026-05-09T09:41:27.903Z</time>
      </trkpt>
      <trkpt lat="47.88833" lon="6.90126">
        <ele>758</ele>
        <time>2026-05-09T09:41:28.904Z</time>
      </trkpt>
      <trkpt lat="47.88833" lon="6.90124">
        <ele>758</ele>
        <time>2026-05-09T09:41:29.903Z</time>
      </trkpt>
      <trkpt lat="47.88834" lon="6.90123">
        <ele>758</ele>
        <time>2026-05-09T09:41:30.903Z</time>
      </trkpt>
      <trkpt lat="47.88835" lon="6.9012">
        <ele>758</ele>
        <time>2026-05-09T09:41:31.903Z</time>
      </trkpt>
      <trkpt lat="47.88837" lon="6.90117">
        <ele>758</ele>
        <time>2026-05-09T09:41:32.904Z</time>
      </trkpt>
      <trkpt lat="47.88838" lon="6.90113">
        <ele>757</ele>
        <time>2026-05-09T09:41:33.904Z</time>
      </trkpt>
      <trkpt lat="47.8884" lon="6.9011">
        <ele>758</ele>
        <time>2026-05-09T09:41:34.903Z</time>
      </trkpt>
      <trkpt lat="47.88842" lon="6.90107">
        <ele>758</ele>
        <time>2026-05-09T09:41:35.904Z</time>
      </trkpt>
      <trkpt lat="47.88844" lon="6.90103">
        <ele>758</ele>
        <time>2026-05-09T09:41:36.903Z</time>
      </trkpt>
      <trkpt lat="47.88846" lon="6.90099">
        <ele>758</ele>
        <time>2026-05-09T09:41:37.904Z</time>
      </trkpt>
      <trkpt lat="47.88849" lon="6.90095">
        <ele>758</ele>
        <time>2026-05-09T09:41:38.903Z</time>
      </trkpt>
      <trkpt lat="47.88849" lon="6.9009">
        <ele>758</ele>
        <time>2026-05-09T09:41:39.903Z</time>
      </trkpt>
      <trkpt lat="47.88849" lon="6.90087">
        <ele>758</ele>
        <time>2026-05-09T09:41:40.903Z</time>
      </trkpt>
      <trkpt lat="47.88849" lon="6.90084">
        <ele>758</ele>
        <time>2026-05-09T09:41:41.903Z</time>
      </trkpt>
      <trkpt lat="47.8885" lon="6.90082">
        <ele>758</ele>
        <time>2026-05-09T09:41:42.903Z</time>
      </trkpt>
      <trkpt lat="47.8885" lon="6.90079">
        <ele>758</ele>
        <time>2026-05-09T09:41:43.904Z</time>
      </trkpt>
      <trkpt lat="47.88851" lon="6.90077">
        <ele>758</ele>
        <time>2026-05-09T09:41:44.903Z</time>
      </trkpt>
      <trkpt lat="47.88852" lon="6.90074">
        <ele>758</ele>
        <time>2026-05-09T09:41:45.904Z</time>
      </trkpt>
      <trkpt lat="47.88853" lon="6.90072">
        <ele>758</ele>
        <time>2026-05-09T09:41:46.904Z</time>
      </trkpt>
      <trkpt lat="47.88853" lon="6.90072">
        <ele>758</ele>
        <time>2026-05-09T09:41:47.904Z</time>
      </trkpt>
      <trkpt lat="47.88853" lon="6.90073">
        <ele>758</ele>
        <time>2026-05-09T09:41:48.903Z</time>
      </trkpt>
      <trkpt lat="47.88853" lon="6.9007">
        <ele>758</ele>
        <time>2026-05-09T09:41:49.904Z</time>
      </trkpt>
      <trkpt lat="47.88854" lon="6.90067">
        <ele>758</ele>
        <time>2026-05-09T09:41:50.904Z</time>
      </trkpt>
      <trkpt lat="47.88855" lon="6.90065">
        <ele>758</ele>
        <time>2026-05-09T09:41:51.904Z</time>
      </trkpt>
      <trkpt lat="47.88857" lon="6.90061">
        <ele>758</ele>
        <time>2026-05-09T09:41:52.904Z</time>
      </trkpt>
      <trkpt lat="47.88857" lon="6.90059">
        <ele>758</ele>
        <time>2026-05-09T09:41:53.903Z</time>
      </trkpt>
      <trkpt lat="47.88858" lon="6.90058">
        <ele>758</ele>
        <time>2026-05-09T09:41:54.904Z</time>
      </trkpt>
      <trkpt lat="47.88858" lon="6.90057">
        <ele>758</ele>
        <time>2026-05-09T09:41:55.903Z</time>
      </trkpt>
      <trkpt lat="47.88857" lon="6.90056">
        <ele>758</ele>
        <time>2026-05-09T09:41:56.903Z</time>
      </trkpt>
      <trkpt lat="47.8886" lon="6.90054">
        <ele>758</ele>
        <time>2026-05-09T09:41:57.903Z</time>
      </trkpt>
      <trkpt lat="47.8886" lon="6.90051">
        <ele>758</ele>
        <time>2026-05-09T09:41:58.904Z</time>
      </trkpt>
      <trkpt lat="47.88858" lon="6.90047">
        <ele>758</ele>
        <time>2026-05-09T09:41:59.903Z</time>
      </trkpt>
      <trkpt lat="47.88855" lon="6.90043">
        <ele>758</ele>
        <time>2026-05-09T09:42:00.903Z</time>
      </trkpt>
      <trkpt lat="47.88852" lon="6.9004">
        <ele>758</ele>
        <time>2026-05-09T09:42:01.904Z</time>
      </trkpt>
      <trkpt lat="47.88852" lon="6.90036">
        <ele>758</ele>
        <time>2026-05-09T09:42:02.904Z</time>
      </trkpt>
      <trkpt lat="47.88853" lon="6.90033">
        <ele>758</ele>
        <time>2026-05-09T09:42:03.903Z</time>
      </trkpt>
      <trkpt lat="47.88854" lon="6.90029">
        <ele>758</ele>
        <time>2026-05-09T09:42:04.903Z</time>
      </trkpt>
      <trkpt lat="47.88855" lon="6.90028">
        <ele>758</ele>
        <time>2026-05-09T09:42:05.903Z</time>
      </trkpt>
      <trkpt lat="47.88856" lon="6.90027">
        <ele>758</ele>
        <time>2026-05-09T09:42:06.904Z</time>
      </trkpt>
      <trkpt lat="47.88856" lon="6.90026">
        <ele>758</ele>
        <time>2026-05-09T09:42:07.903Z</time>
      </trkpt>
      <trkpt lat="47.88857" lon="6.90026">
        <ele>759</ele>
        <time>2026-05-09T09:42:08.904Z</time>
      </trkpt>
      <trkpt lat="47.88858" lon="6.90025">
        <ele>759</ele>
        <time>2026-05-09T09:42:09.904Z</time>
      </trkpt>
      <trkpt lat="47.88859" lon="6.90025">
        <ele>759</ele>
        <time>2026-05-09T09:42:10.903Z</time>
      </trkpt>
      <trkpt lat="47.88861" lon="6.90024">
        <ele>759</ele>
        <time>2026-05-09T09:42:11.903Z</time>
      </trkpt>
      <trkpt lat="47.88861" lon="6.90023">
        <ele>759</ele>
        <time>2026-05-09T09:42:12.904Z</time>
      </trkpt>
      <trkpt lat="47.88862" lon="6.90021">
        <ele>759</ele>
        <time>2026-05-09T09:42:13.903Z</time>
      </trkpt>
      <trkpt lat="47.88862" lon="6.90019">
        <ele>759</ele>
        <time>2026-05-09T09:42:14.904Z</time>
      </trkpt>
      <trkpt lat="47.88862" lon="6.90017">
        <ele>759</ele>
        <time>2026-05-09T09:42:15.903Z</time>
      </trkpt>
      <trkpt lat="47.88862" lon="6.90015">
        <ele>759</ele>
        <time>2026-05-09T09:42:16.903Z</time>
      </trkpt>
      <trkpt lat="47.88862" lon="6.90014">
        <ele>759</ele>
        <time>2026-05-09T09:42:17.903Z</time>
      </trkpt>
      <trkpt lat="47.88862" lon="6.90012">
        <ele>759</ele>
        <time>2026-05-09T09:42:18.904Z</time>
      </trkpt>
      <trkpt lat="47.88862" lon="6.90011">
        <ele>759</ele>
        <time>2026-05-09T09:42:19.904Z</time>
      </trkpt>
      <trkpt lat="47.88863" lon="6.9001">
        <ele>759</ele>
        <time>2026-05-09T09:42:20.904Z</time>
      </trkpt>
      <trkpt lat="47.88865" lon="6.9001">
        <ele>759</ele>
        <time>2026-05-09T09:42:21.903Z</time>
      </trkpt>
      <trkpt lat="47.88865" lon="6.90009">
        <ele>759</ele>
        <time>2026-05-09T09:42:22.904Z</time>
      </trkpt>
      <trkpt lat="47.88866" lon="6.90009">
        <ele>759</ele>
        <time>2026-05-09T09:42:23.903Z</time>
      </trkpt>
      <trkpt lat="47.88867" lon="6.90008">
        <ele>759</ele>
        <time>2026-05-09T09:42:24.904Z</time>
      </trkpt>
      <trkpt lat="47.88868" lon="6.90006">
        <ele>759</ele>
        <time>2026-05-09T09:42:25.903Z</time>
      </trkpt>
      <trkpt lat="47.88868" lon="6.90004">
        <ele>759</ele>
        <time>2026-05-09T09:42:26.904Z</time>
      </trkpt>
      <trkpt lat="47.88869" lon="6.90002">
        <ele>759</ele>
        <time>2026-05-09T09:42:27.903Z</time>
      </trkpt>
      <trkpt lat="47.8887" lon="6.90001">
        <ele>759</ele>
        <time>2026-05-09T09:42:28.904Z</time>
      </trkpt>
      <trkpt lat="47.8887" lon="6.9">
        <ele>758</ele>
        <time>2026-05-09T09:42:29.903Z</time>
      </trkpt>
      <trkpt lat="47.8887" lon="6.9">
        <ele>758</ele>
        <time>2026-05-09T09:42:30.904Z</time>
      </trkpt>
      <trkpt lat="47.8887" lon="6.89999">
        <ele>758</ele>
        <time>2026-05-09T09:42:31.903Z</time>
      </trkpt>
      <trkpt lat="47.8887" lon="6.89998">
        <ele>758</ele>
        <time>2026-05-09T09:42:32.904Z</time>
      </trkpt>
      <trkpt lat="47.8887" lon="6.89997">
        <ele>758</ele>
        <time>2026-05-09T09:42:33.903Z</time>
      </trkpt>
      <trkpt lat="47.8887" lon="6.89996">
        <ele>758</ele>
        <time>2026-05-09T09:42:34.904Z</time>
      </trkpt>
      <trkpt lat="47.88871" lon="6.89995">
        <ele>758</ele>
        <time>2026-05-09T09:42:35.903Z</time>
      </trkpt>
      <trkpt lat="47.88871" lon="6.89994">
        <ele>758</ele>
        <time>2026-05-09T09:42:36.904Z</time>
      </trkpt>
      <trkpt lat="47.88872" lon="6.89993">
        <ele>758</ele>
        <time>2026-05-09T09:42:37.904Z</time>
      </trkpt>
      <trkpt lat="47.88873" lon="6.89991">
        <ele>758</ele>
        <time>2026-05-09T09:42:38.904Z</time>
      </trkpt>
      <trkpt lat="47.88873" lon="6.89989">
        <ele>758</ele>
        <time>2026-05-09T09:42:39.903Z</time>
      </trkpt>
      <trkpt lat="47.88874" lon="6.89986">
        <ele>758</ele>
        <time>2026-05-09T09:42:40.904Z</time>
      </trkpt>
      <trkpt lat="47.88875" lon="6.89984">
        <ele>758</ele>
        <time>2026-05-09T09:42:41.903Z</time>
      </trkpt>
      <trkpt lat="47.88875" lon="6.89982">
        <ele>758</ele>
        <time>2026-05-09T09:42:42.904Z</time>
      </trkpt>
      <trkpt lat="47.88875" lon="6.8998">
        <ele>758</ele>
        <time>2026-05-09T09:42:43.903Z</time>
      </trkpt>
      <trkpt lat="47.88875" lon="6.89977">
        <ele>758</ele>
        <time>2026-05-09T09:42:44.904Z</time>
      </trkpt>
      <trkpt lat="47.88875" lon="6.89975">
        <ele>758</ele>
        <time>2026-05-09T09:42:45.903Z</time>
      </trkpt>
      <trkpt lat="47.88875" lon="6.89974">
        <ele>758</ele>
        <time>2026-05-09T09:42:46.904Z</time>
      </trkpt>
      <trkpt lat="47.88875" lon="6.89972">
        <ele>758</ele>
        <time>2026-05-09T09:42:47.903Z</time>
      </trkpt>
      <trkpt lat="47.88876" lon="6.8997">
        <ele>758</ele>
        <time>2026-05-09T09:42:48.904Z</time>
      </trkpt>
      <trkpt lat="47.88876" lon="6.89968">
        <ele>758</ele>
        <time>2026-05-09T09:42:49.904Z</time>
      </trkpt>
      <trkpt lat="47.88877" lon="6.89965">
        <ele>758</ele>
        <time>2026-05-09T09:42:50.904Z</time>
      </trkpt>
      <trkpt lat="47.88879" lon="6.89962">
        <ele>758</ele>
        <time>2026-05-09T09:42:51.903Z</time>
      </trkpt>
      <trkpt lat="47.8888" lon="6.89959">
        <ele>758</ele>
        <time>2026-05-09T09:42:52.904Z</time>
      </trkpt>
      <trkpt lat="47.88881" lon="6.89956">
        <ele>758</ele>
        <time>2026-05-09T09:42:53.904Z</time>
      </trkpt>
      <trkpt lat="47.88881" lon="6.89954">
        <ele>758</ele>
        <time>2026-05-09T09:42:54.904Z</time>
      </trkpt>
      <trkpt lat="47.88882" lon="6.89952">
        <ele>758</ele>
        <time>2026-05-09T09:42:55.904Z</time>
      </trkpt>
      <trkpt lat="47.88883" lon="6.8995">
        <ele>758</ele>
        <time>2026-05-09T09:42:56.903Z</time>
      </trkpt>
      <trkpt lat="47.88884" lon="6.89948">
        <ele>758</ele>
        <time>2026-05-09T09:42:57.904Z</time>
      </trkpt>
      <trkpt lat="47.88884" lon="6.89947">
        <ele>758</ele>
        <time>2026-05-09T09:42:58.903Z</time>
      </trkpt>
      <trkpt lat="47.88885" lon="6.89946">
        <ele>758</ele>
        <time>2026-05-09T09:42:59.904Z</time>
      </trkpt>
      <trkpt lat="47.88886" lon="6.89945">
        <ele>758</ele>
        <time>2026-05-09T09:43:00.904Z</time>
      </trkpt>
      <trkpt lat="47.88887" lon="6.89944">
        <ele>758</ele>
        <time>2026-05-09T09:43:01.904Z</time>
      </trkpt>
      <trkpt lat="47.88888" lon="6.89943">
        <ele>758</ele>
        <time>2026-05-09T09:43:02.903Z</time>
      </trkpt>
      <trkpt lat="47.88889" lon="6.89942">
        <ele>758</ele>
        <time>2026-05-09T09:43:03.904Z</time>
      </trkpt>
      <trkpt lat="47.8889" lon="6.89941">
        <ele>758</ele>
        <time>2026-05-09T09:43:04.903Z</time>
      </trkpt>
      <trkpt lat="47.8889" lon="6.89939">
        <ele>758</ele>
        <time>2026-05-09T09:43:05.903Z</time>
      </trkpt>
      <trkpt lat="47.88891" lon="6.89938">
        <ele>758</ele>
        <time>2026-05-09T09:43:06.904Z</time>
      </trkpt>
      <trkpt lat="47.88892" lon="6.89936">
        <ele>758</ele>
        <time>2026-05-09T09:43:07.904Z</time>
      </trkpt>
      <trkpt lat="47.88894" lon="6.89935">
        <ele>758</ele>
        <time>2026-05-09T09:43:08.903Z</time>
      </trkpt>
      <trkpt lat="47.88895" lon="6.89933">
        <ele>758</ele>
        <time>2026-05-09T09:43:09.903Z</time>
      </trkpt>
      <trkpt lat="47.88896" lon="6.89931">
        <ele>758</ele>
        <time>2026-05-09T09:43:10.903Z</time>
      </trkpt>
      <trkpt lat="47.88897" lon="6.89929">
        <ele>758</ele>
        <time>2026-05-09T09:43:11.904Z</time>
      </trkpt>
      <trkpt lat="47.88897" lon="6.89928">
        <ele>759</ele>
        <time>2026-05-09T09:43:12.903Z</time>
      </trkpt>
      <trkpt lat="47.88898" lon="6.89926">
        <ele>759</ele>
        <time>2026-05-09T09:43:13.904Z</time>
      </trkpt>
      <trkpt lat="47.88899" lon="6.89924">
        <ele>759</ele>
        <time>2026-05-09T09:43:14.903Z</time>
      </trkpt>
      <trkpt lat="47.889" lon="6.89921">
        <ele>759</ele>
        <time>2026-05-09T09:43:15.904Z</time>
      </trkpt>
      <trkpt lat="47.88901" lon="6.89919">
        <ele>759</ele>
        <time>2026-05-09T09:43:16.904Z</time>
      </trkpt>
      <trkpt lat="47.88901" lon="6.89916">
        <ele>760</ele>
        <time>2026-05-09T09:43:17.904Z</time>
      </trkpt>
      <trkpt lat="47.88902" lon="6.89914">
        <ele>760</ele>
        <time>2026-05-09T09:43:18.904Z</time>
      </trkpt>
      <trkpt lat="47.88902" lon="6.89912">
        <ele>760</ele>
        <time>2026-05-09T09:43:19.903Z</time>
      </trkpt>
      <trkpt lat="47.88904" lon="6.8991">
        <ele>761</ele>
        <time>2026-05-09T09:43:20.904Z</time>
      </trkpt>
      <trkpt lat="47.88905" lon="6.89909">
        <ele>761</ele>
        <time>2026-05-09T09:43:21.903Z</time>
      </trkpt>
      <trkpt lat="47.88906" lon="6.89907">
        <ele>761</ele>
        <time>2026-05-09T09:43:22.904Z</time>
      </trkpt>
      <trkpt lat="47.88907" lon="6.89906">
        <ele>762</ele>
        <time>2026-05-09T09:43:23.903Z</time>
      </trkpt>
      <trkpt lat="47.88908" lon="6.89904">
        <ele>762</ele>
        <time>2026-05-09T09:43:24.904Z</time>
      </trkpt>
      <trkpt lat="47.8891" lon="6.89903">
        <ele>763</ele>
        <time>2026-05-09T09:43:25.903Z</time>
      </trkpt>
      <trkpt lat="47.8891" lon="6.89901">
        <ele>763</ele>
        <time>2026-05-09T09:43:26.904Z</time>
      </trkpt>
      <trkpt lat="47.88911" lon="6.89899">
        <ele>763</ele>
        <time>2026-05-09T09:43:27.903Z</time>
      </trkpt>
      <trkpt lat="47.88912" lon="6.89897">
        <ele>763</ele>
        <time>2026-05-09T09:43:28.904Z</time>
      </trkpt>
      <trkpt lat="47.88913" lon="6.89895">
        <ele>764</ele>
        <time>2026-05-09T09:43:29.903Z</time>
      </trkpt>
      <trkpt lat="47.88914" lon="6.89893">
        <ele>764</ele>
        <time>2026-05-09T09:43:30.904Z</time>
      </trkpt>
      <trkpt lat="47.88914" lon="6.89892">
        <ele>764</ele>
        <time>2026-05-09T09:43:31.904Z</time>
      </trkpt>
      <trkpt lat="47.88915" lon="6.8989">
        <ele>764</ele>
        <time>2026-05-09T09:43:32.904Z</time>
      </trkpt>
      <trkpt lat="47.88915" lon="6.89889">
        <ele>765</ele>
        <time>2026-05-09T09:43:33.904Z</time>
      </trkpt>
      <trkpt lat="47.88916" lon="6.89887">
        <ele>765</ele>
        <time>2026-05-09T09:43:34.904Z</time>
      </trkpt>
      <trkpt lat="47.88916" lon="6.89885">
        <ele>765</ele>
        <time>2026-05-09T09:43:35.904Z</time>
      </trkpt>
      <trkpt lat="47.88917" lon="6.89884">
        <ele>766</ele>
        <time>2026-05-09T09:43:36.903Z</time>
      </trkpt>
      <trkpt lat="47.88917" lon="6.89882">
        <ele>766</ele>
        <time>2026-05-09T09:43:37.904Z</time>
      </trkpt>
      <trkpt lat="47.88918" lon="6.8988">
        <ele>767</ele>
        <time>2026-05-09T09:43:38.903Z</time>
      </trkpt>
      <trkpt lat="47.88919" lon="6.89879">
        <ele>767</ele>
        <time>2026-05-09T09:43:39.904Z</time>
      </trkpt>
      <trkpt lat="47.8892" lon="6.89877">
        <ele>767</ele>
        <time>2026-05-09T09:43:40.903Z</time>
      </trkpt>
      <trkpt lat="47.88922" lon="6.89875">
        <ele>768</ele>
        <time>2026-05-09T09:43:41.904Z</time>
      </trkpt>
      <trkpt lat="47.88923" lon="6.89873">
        <ele>768</ele>
        <time>2026-05-09T09:43:42.903Z</time>
      </trkpt>
      <trkpt lat="47.88924" lon="6.89871">
        <ele>769</ele>
        <time>2026-05-09T09:43:43.903Z</time>
      </trkpt>
      <trkpt lat="47.88924" lon="6.89869">
        <ele>769</ele>
        <time>2026-05-09T09:43:44.903Z</time>
      </trkpt>
      <trkpt lat="47.88925" lon="6.89867">
        <ele>769</ele>
        <time>2026-05-09T09:43:45.904Z</time>
      </trkpt>
      <trkpt lat="47.88926" lon="6.89865">
        <ele>770</ele>
        <time>2026-05-09T09:43:46.903Z</time>
      </trkpt>
      <trkpt lat="47.88926" lon="6.89863">
        <ele>770</ele>
        <time>2026-05-09T09:43:47.904Z</time>
      </trkpt>
      <trkpt lat="47.88928" lon="6.89859">
        <ele>770</ele>
        <time>2026-05-09T09:43:48.904Z</time>
      </trkpt>
      <trkpt lat="47.88928" lon="6.89857">
        <ele>770</ele>
        <time>2026-05-09T09:43:49.904Z</time>
      </trkpt>
      <trkpt lat="47.88928" lon="6.89854">
        <ele>770</ele>
        <time>2026-05-09T09:43:50.904Z</time>
      </trkpt>
      <trkpt lat="47.88928" lon="6.89853">
        <ele>770</ele>
        <time>2026-05-09T09:43:51.904Z</time>
      </trkpt>
      <trkpt lat="47.88928" lon="6.8985">
        <ele>771</ele>
        <time>2026-05-09T09:43:52.904Z</time>
      </trkpt>
      <trkpt lat="47.88929" lon="6.89847">
        <ele>771</ele>
        <time>2026-05-09T09:43:53.904Z</time>
      </trkpt>
      <trkpt lat="47.88929" lon="6.89844">
        <ele>771</ele>
        <time>2026-05-09T09:43:54.904Z</time>
      </trkpt>
      <trkpt lat="47.8893" lon="6.89842">
        <ele>771</ele>
        <time>2026-05-09T09:43:55.903Z</time>
      </trkpt>
      <trkpt lat="47.88931" lon="6.8984">
        <ele>772</ele>
        <time>2026-05-09T09:43:56.904Z</time>
      </trkpt>
      <trkpt lat="47.88932" lon="6.89837">
        <ele>772</ele>
        <time>2026-05-09T09:43:57.903Z</time>
      </trkpt>
      <trkpt lat="47.88933" lon="6.89835">
        <ele>772</ele>
        <time>2026-05-09T09:43:58.904Z</time>
      </trkpt>
      <trkpt lat="47.88934" lon="6.89833">
        <ele>772</ele>
        <time>2026-05-09T09:43:59.903Z</time>
      </trkpt>
      <trkpt lat="47.88934" lon="6.89831">
        <ele>772</ele>
        <time>2026-05-09T09:44:00.904Z</time>
      </trkpt>
      <trkpt lat="47.88934" lon="6.89829">
        <ele>772</ele>
        <time>2026-05-09T09:44:01.903Z</time>
      </trkpt>
      <trkpt lat="47.88935" lon="6.89828">
        <ele>773</ele>
        <time>2026-05-09T09:44:02.903Z</time>
      </trkpt>
      <trkpt lat="47.88935" lon="6.89826">
        <ele>773</ele>
        <time>2026-05-09T09:44:03.903Z</time>
      </trkpt>
      <trkpt lat="47.88935" lon="6.89824">
        <ele>773</ele>
        <time>2026-05-09T09:44:04.904Z</time>
      </trkpt>
      <trkpt lat="47.88935" lon="6.89821">
        <ele>773</ele>
        <time>2026-05-09T09:44:05.903Z</time>
      </trkpt>
      <trkpt lat="47.88935" lon="6.89818">
        <ele>773</ele>
        <time>2026-05-09T09:44:06.904Z</time>
      </trkpt>
      <trkpt lat="47.88935" lon="6.89816">
        <ele>773</ele>
        <time>2026-05-09T09:44:07.903Z</time>
      </trkpt>
      <trkpt lat="47.88934" lon="6.89815">
        <ele>773</ele>
        <time>2026-05-09T09:44:08.904Z</time>
      </trkpt>
      <trkpt lat="47.88934" lon="6.89812">
        <ele>773</ele>
        <time>2026-05-09T09:44:09.904Z</time>
      </trkpt>
      <trkpt lat="47.88934" lon="6.8981">
        <ele>773</ele>
        <time>2026-05-09T09:44:10.904Z</time>
      </trkpt>
      <trkpt lat="47.88934" lon="6.89807">
        <ele>773</ele>
        <time>2026-05-09T09:44:11.903Z</time>
      </trkpt>
      <trkpt lat="47.88934" lon="6.89804">
        <ele>772</ele>
        <time>2026-05-09T09:44:12.904Z</time>
      </trkpt>
      <trkpt lat="47.88933" lon="6.898">
        <ele>772</ele>
        <time>2026-05-09T09:44:13.903Z</time>
      </trkpt>
      <trkpt lat="47.88933" lon="6.89796">
        <ele>772</ele>
        <time>2026-05-09T09:44:14.904Z</time>
      </trkpt>
      <trkpt lat="47.88935" lon="6.89792">
        <ele>772</ele>
        <time>2026-05-09T09:44:15.903Z</time>
      </trkpt>
      <trkpt lat="47.88935" lon="6.89788">
        <ele>772</ele>
        <time>2026-05-09T09:44:16.903Z</time>
      </trkpt>
      <trkpt lat="47.88936" lon="6.89784">
        <ele>772</ele>
        <time>2026-05-09T09:44:17.903Z</time>
      </trkpt>
      <trkpt lat="47.88936" lon="6.8978">
        <ele>772</ele>
        <time>2026-05-09T09:44:18.904Z</time>
      </trkpt>
      <trkpt lat="47.88935" lon="6.89776">
        <ele>772</ele>
        <time>2026-05-09T09:44:19.903Z</time>
      </trkpt>
      <trkpt lat="47.88934" lon="6.89773">
        <ele>772</ele>
        <time>2026-05-09T09:44:20.903Z</time>
      </trkpt>
      <trkpt lat="47.88934" lon="6.89768">
        <ele>772</ele>
        <time>2026-05-09T09:44:21.903Z</time>
      </trkpt>
      <trkpt lat="47.88935" lon="6.89764">
        <ele>772</ele>
        <time>2026-05-09T09:44:22.904Z</time>
      </trkpt>
      <trkpt lat="47.88937" lon="6.89762">
        <ele>772</ele>
        <time>2026-05-09T09:44:23.904Z</time>
      </trkpt>
      <trkpt lat="47.88938" lon="6.8976">
        <ele>772</ele>
        <time>2026-05-09T09:44:24.903Z</time>
      </trkpt>
      <trkpt lat="47.88937" lon="6.89758">
        <ele>772</ele>
        <time>2026-05-09T09:44:25.904Z</time>
      </trkpt>
      <trkpt lat="47.88936" lon="6.89757">
        <ele>772</ele>
        <time>2026-05-09T09:44:26.903Z</time>
      </trkpt>
      <trkpt lat="47.88936" lon="6.89755">
        <ele>772</ele>
        <time>2026-05-09T09:44:27.904Z</time>
      </trkpt>
      <trkpt lat="47.88936" lon="6.89751">
        <ele>772</ele>
        <time>2026-05-09T09:44:28.903Z</time>
      </trkpt>
      <trkpt lat="47.88937" lon="6.89748">
        <ele>772</ele>
        <time>2026-05-09T09:44:29.904Z</time>
      </trkpt>
      <trkpt lat="47.88938" lon="6.89745">
        <ele>772</ele>
        <time>2026-05-09T09:44:30.903Z</time>
      </trkpt>
      <trkpt lat="47.8894" lon="6.89745">
        <ele>772</ele>
        <time>2026-05-09T09:44:31.904Z</time>
      </trkpt>
      <trkpt lat="47.88941" lon="6.89744">
        <ele>773</ele>
        <time>2026-05-09T09:44:32.904Z</time>
      </trkpt>
      <trkpt lat="47.88942" lon="6.89743">
        <ele>773</ele>
        <time>2026-05-09T09:44:33.903Z</time>
      </trkpt>
      <trkpt lat="47.88942" lon="6.89742">
        <ele>773</ele>
        <time>2026-05-09T09:44:34.904Z</time>
      </trkpt>
      <trkpt lat="47.88942" lon="6.89741">
        <ele>773</ele>
        <time>2026-05-09T09:44:35.903Z</time>
      </trkpt>
      <trkpt lat="47.88942" lon="6.8974">
        <ele>773</ele>
        <time>2026-05-09T09:44:36.904Z</time>
      </trkpt>
      <trkpt lat="47.88941" lon="6.89738">
        <ele>773</ele>
        <time>2026-05-09T09:44:37.903Z</time>
      </trkpt>
      <trkpt lat="47.8894" lon="6.89736">
        <ele>773</ele>
        <time>2026-05-09T09:44:38.904Z</time>
      </trkpt>
      <trkpt lat="47.8894" lon="6.89734">
        <ele>773</ele>
        <time>2026-05-09T09:44:39.903Z</time>
      </trkpt>
      <trkpt lat="47.8894" lon="6.89732">
        <ele>773</ele>
        <time>2026-05-09T09:44:40.904Z</time>
      </trkpt>
      <trkpt lat="47.8894" lon="6.89732">
        <ele>774</ele>
        <time>2026-05-09T09:44:41.903Z</time>
      </trkpt>
      <trkpt lat="47.8894" lon="6.89731">
        <ele>774</ele>
        <time>2026-05-09T09:44:42.904Z</time>
      </trkpt>
      <trkpt lat="47.8894" lon="6.89731">
        <ele>774</ele>
        <time>2026-05-09T09:44:43.903Z</time>
      </trkpt>
      <trkpt lat="47.88939" lon="6.8973">
        <ele>773</ele>
        <time>2026-05-09T09:44:44.904Z</time>
      </trkpt>
      <trkpt lat="47.88939" lon="6.8973">
        <ele>773</ele>
        <time>2026-05-09T09:44:45.904Z</time>
      </trkpt>
      <trkpt lat="47.88938" lon="6.89729">
        <ele>773</ele>
        <time>2026-05-09T09:44:46.904Z</time>
      </trkpt>
      <trkpt lat="47.88937" lon="6.89729">
        <ele>773</ele>
        <time>2026-05-09T09:44:47.904Z</time>
      </trkpt>
      <trkpt lat="47.88938" lon="6.89727">
        <ele>773</ele>
        <time>2026-05-09T09:44:48.904Z</time>
      </trkpt>
      <trkpt lat="47.88938" lon="6.89726">
        <ele>772</ele>
        <time>2026-05-09T09:44:49.903Z</time>
      </trkpt>
      <trkpt lat="47.88938" lon="6.89725">
        <ele>772</ele>
        <time>2026-05-09T09:44:50.903Z</time>
      </trkpt>
      <trkpt lat="47.88938" lon="6.89724">
        <ele>772</ele>
        <time>2026-05-09T09:44:51.903Z</time>
      </trkpt>
      <trkpt lat="47.88938" lon="6.89723">
        <ele>772</ele>
        <time>2026-05-09T09:44:52.903Z</time>
      </trkpt>
      <trkpt lat="47.88938" lon="6.89721">
        <ele>772</ele>
        <time>2026-05-09T09:44:53.904Z</time>
      </trkpt>
      <trkpt lat="47.88935" lon="6.8972">
        <ele>772</ele>
        <time>2026-05-09T09:44:54.903Z</time>
      </trkpt>
      <trkpt lat="47.88934" lon="6.8972">
        <ele>772</ele>
        <time>2026-05-09T09:44:55.903Z</time>
      </trkpt>
      <trkpt lat="47.88933" lon="6.89722">
        <ele>772</ele>
        <time>2026-05-09T09:44:56.904Z</time>
      </trkpt>
      <trkpt lat="47.88933" lon="6.89721">
        <ele>772</ele>
        <time>2026-05-09T09:44:57.903Z</time>
      </trkpt>
      <trkpt lat="47.88934" lon="6.89721">
        <ele>772</ele>
        <time>2026-05-09T09:44:58.903Z</time>
      </trkpt>
      <trkpt lat="47.88934" lon="6.8972">
        <ele>772</ele>
        <time>2026-05-09T09:44:59.904Z</time>
      </trkpt>
      <trkpt lat="47.88935" lon="6.8972">
        <ele>772</ele>
        <time>2026-05-09T09:45:00.904Z</time>
      </trkpt>
      <trkpt lat="47.88934" lon="6.89719">
        <ele>772</ele>
        <time>2026-05-09T09:45:01.904Z</time>
      </trkpt>
      <trkpt lat="47.88934" lon="6.89717">
        <ele>772</ele>
        <time>2026-05-09T09:45:02.904Z</time>
      </trkpt>
      <trkpt lat="47.88934" lon="6.89716">
        <ele>772</ele>
        <time>2026-05-09T09:45:03.904Z</time>
      </trkpt>
      <trkpt lat="47.88934" lon="6.89715">
        <ele>772</ele>
        <time>2026-05-09T09:45:04.904Z</time>
      </trkpt>
      <trkpt lat="47.88933" lon="6.89713">
        <ele>772</ele>
        <time>2026-05-09T09:45:05.903Z</time>
      </trkpt>
      <trkpt lat="47.88933" lon="6.89711">
        <ele>771</ele>
        <time>2026-05-09T09:45:06.904Z</time>
      </trkpt>
      <trkpt lat="47.88933" lon="6.89709">
        <ele>771</ele>
        <time>2026-05-09T09:45:07.903Z</time>
      </trkpt>
      <trkpt lat="47.88933" lon="6.89706">
        <ele>771</ele>
        <time>2026-05-09T09:45:08.904Z</time>
      </trkpt>
      <trkpt lat="47.88933" lon="6.89704">
        <ele>771</ele>
        <time>2026-05-09T09:45:09.904Z</time>
      </trkpt>
      <trkpt lat="47.88934" lon="6.89702">
        <ele>771</ele>
        <time>2026-05-09T09:45:10.903Z</time>
      </trkpt>
      <trkpt lat="47.88935" lon="6.89701">
        <ele>771</ele>
        <time>2026-05-09T09:45:11.904Z</time>
      </trkpt>
      <trkpt lat="47.88935" lon="6.89699">
        <ele>771</ele>
        <time>2026-05-09T09:45:12.904Z</time>
      </trkpt>
      <trkpt lat="47.88936" lon="6.89697">
        <ele>770</ele>
        <time>2026-05-09T09:45:13.903Z</time>
      </trkpt>
      <trkpt lat="47.88935" lon="6.89696">
        <ele>770</ele>
        <time>2026-05-09T09:45:14.904Z</time>
      </trkpt>
      <trkpt lat="47.88934" lon="6.89694">
        <ele>770</ele>
        <time>2026-05-09T09:45:15.904Z</time>
      </trkpt>
      <trkpt lat="47.88933" lon="6.89692">
        <ele>770</ele>
        <time>2026-05-09T09:45:16.904Z</time>
      </trkpt>
      <trkpt lat="47.88933" lon="6.8969">
        <ele>769</ele>
        <time>2026-05-09T09:45:17.904Z</time>
      </trkpt>
      <trkpt lat="47.88933" lon="6.89689">
        <ele>769</ele>
        <time>2026-05-09T09:45:18.903Z</time>
      </trkpt>
      <trkpt lat="47.88933" lon="6.89688">
        <ele>769</ele>
        <time>2026-05-09T09:45:19.903Z</time>
      </trkpt>
      <trkpt lat="47.88932" lon="6.89686">
        <ele>769</ele>
        <time>2026-05-09T09:45:20.903Z</time>
      </trkpt>
      <trkpt lat="47.88933" lon="6.89684">
        <ele>769</ele>
        <time>2026-05-09T09:45:21.904Z</time>
      </trkpt>
      <trkpt lat="47.88933" lon="6.89683">
        <ele>769</ele>
        <time>2026-05-09T09:45:22.903Z</time>
      </trkpt>
      <trkpt lat="47.88934" lon="6.89681">
        <ele>768</ele>
        <time>2026-05-09T09:45:23.904Z</time>
      </trkpt>
      <trkpt lat="47.88934" lon="6.89679">
        <ele>768</ele>
        <time>2026-05-09T09:45:24.904Z</time>
      </trkpt>
      <trkpt lat="47.88933" lon="6.89677">
        <ele>768</ele>
        <time>2026-05-09T09:45:25.903Z</time>
      </trkpt>
      <trkpt lat="47.88933" lon="6.89675">
        <ele>768</ele>
        <time>2026-05-09T09:45:26.904Z</time>
      </trkpt>
      <trkpt lat="47.88932" lon="6.89674">
        <ele>768</ele>
        <time>2026-05-09T09:45:27.904Z</time>
      </trkpt>
      <trkpt lat="47.88932" lon="6.89672">
        <ele>768</ele>
        <time>2026-05-09T09:45:28.903Z</time>
      </trkpt>
      <trkpt lat="47.88932" lon="6.8967">
        <ele>768</ele>
        <time>2026-05-09T09:45:29.904Z</time>
      </trkpt>
      <trkpt lat="47.88932" lon="6.89669">
        <ele>768</ele>
        <time>2026-05-09T09:45:30.904Z</time>
      </trkpt>
      <trkpt lat="47.88932" lon="6.89667">
        <ele>768</ele>
        <time>2026-05-09T09:45:31.903Z</time>
      </trkpt>
      <trkpt lat="47.88932" lon="6.89666">
        <ele>768</ele>
        <time>2026-05-09T09:45:32.904Z</time>
      </trkpt>
      <trkpt lat="47.88931" lon="6.89664">
        <ele>768</ele>
        <time>2026-05-09T09:45:33.904Z</time>
      </trkpt>
      <trkpt lat="47.8893" lon="6.89663">
        <ele>768</ele>
        <time>2026-05-09T09:45:34.903Z</time>
      </trkpt>
      <trkpt lat="47.8893" lon="6.89661">
        <ele>768</ele>
        <time>2026-05-09T09:45:35.903Z</time>
      </trkpt>
      <trkpt lat="47.8893" lon="6.89659">
        <ele>768</ele>
        <time>2026-05-09T09:45:36.903Z</time>
      </trkpt>
      <trkpt lat="47.88929" lon="6.89657">
        <ele>769</ele>
        <time>2026-05-09T09:45:37.904Z</time>
      </trkpt>
      <trkpt lat="47.88929" lon="6.89655">
        <ele>769</ele>
        <time>2026-05-09T09:45:38.904Z</time>
      </trkpt>
      <trkpt lat="47.88929" lon="6.89652">
        <ele>769</ele>
        <time>2026-05-09T09:45:39.903Z</time>
      </trkpt>
      <trkpt lat="47.88929" lon="6.8965">
        <ele>769</ele>
        <time>2026-05-09T09:45:40.904Z</time>
      </trkpt>
      <trkpt lat="47.88929" lon="6.89647">
        <ele>770</ele>
        <time>2026-05-09T09:45:41.904Z</time>
      </trkpt>
      <trkpt lat="47.88928" lon="6.89643">
        <ele>770</ele>
        <time>2026-05-09T09:45:42.903Z</time>
      </trkpt>
      <trkpt lat="47.88928" lon="6.89639">
        <ele>770</ele>
        <time>2026-05-09T09:45:43.903Z</time>
      </trkpt>
      <trkpt lat="47.8893" lon="6.89632">
        <ele>770</ele>
        <time>2026-05-09T09:45:44.904Z</time>
      </trkpt>
      <trkpt lat="47.88931" lon="6.89626">
        <ele>771</ele>
        <time>2026-05-09T09:45:45.904Z</time>
      </trkpt>
      <trkpt lat="47.88933" lon="6.8962">
        <ele>771</ele>
        <time>2026-05-09T09:45:46.903Z</time>
      </trkpt>
      <trkpt lat="47.88934" lon="6.89615">
        <ele>771</ele>
        <time>2026-05-09T09:45:47.903Z</time>
      </trkpt>
      <trkpt lat="47.88935" lon="6.89611">
        <ele>771</ele>
        <time>2026-05-09T09:45:48.904Z</time>
      </trkpt>
      <trkpt lat="47.88937" lon="6.89608">
        <ele>772</ele>
        <time>2026-05-09T09:45:49.904Z</time>
      </trkpt>
      <trkpt lat="47.88938" lon="6.89606">
        <ele>772</ele>
        <time>2026-05-09T09:45:50.904Z</time>
      </trkpt>
      <trkpt lat="47.88941" lon="6.89602">
        <ele>772</ele>
        <time>2026-05-09T09:45:51.903Z</time>
      </trkpt>
      <trkpt lat="47.88944" lon="6.89599">
        <ele>772</ele>
        <time>2026-05-09T09:45:52.903Z</time>
      </trkpt>
      <trkpt lat="47.88945" lon="6.89602">
        <ele>772</ele>
        <time>2026-05-09T09:45:53.903Z</time>
      </trkpt>
      <trkpt lat="47.88946" lon="6.89604">
        <ele>772</ele>
        <time>2026-05-09T09:45:54.904Z</time>
      </trkpt>
      <trkpt lat="47.88947" lon="6.89606">
        <ele>773</ele>
        <time>2026-05-09T09:45:55.903Z</time>
      </trkpt>
      <trkpt lat="47.88949" lon="6.89608">
        <ele>773</ele>
        <time>2026-05-09T09:45:56.904Z</time>
      </trkpt>
      <trkpt lat="47.8895" lon="6.8961">
        <ele>773</ele>
        <time>2026-05-09T09:45:57.903Z</time>
      </trkpt>
      <trkpt lat="47.8895" lon="6.89613">
        <ele>773</ele>
        <time>2026-05-09T09:45:58.903Z</time>
      </trkpt>
      <trkpt lat="47.88951" lon="6.89615">
        <ele>773</ele>
        <time>2026-05-09T09:45:59.904Z</time>
      </trkpt>
      <trkpt lat="47.88953" lon="6.89616">
        <ele>773</ele>
        <time>2026-05-09T09:46:00.904Z</time>
      </trkpt>
      <trkpt lat="47.88954" lon="6.89619">
        <ele>773</ele>
        <time>2026-05-09T09:46:01.904Z</time>
      </trkpt>
      <trkpt lat="47.88955" lon="6.89621">
        <ele>774</ele>
        <time>2026-05-09T09:46:02.903Z</time>
      </trkpt>
      <trkpt lat="47.88957" lon="6.89623">
        <ele>774</ele>
        <time>2026-05-09T09:46:03.903Z</time>
      </trkpt>
      <trkpt lat="47.88958" lon="6.89626">
        <ele>774</ele>
        <time>2026-05-09T09:46:04.903Z</time>
      </trkpt>
      <trkpt lat="47.8896" lon="6.89628">
        <ele>774</ele>
        <time>2026-05-09T09:46:05.904Z</time>
      </trkpt>
      <trkpt lat="47.88961" lon="6.8963">
        <ele>774</ele>
        <time>2026-05-09T09:46:06.903Z</time>
      </trkpt>
      <trkpt lat="47.88962" lon="6.89631">
        <ele>775</ele>
        <time>2026-05-09T09:46:07.904Z</time>
      </trkpt>
      <trkpt lat="47.88964" lon="6.89633">
        <ele>775</ele>
        <time>2026-05-09T09:46:08.904Z</time>
      </trkpt>
      <trkpt lat="47.88965" lon="6.89634">
        <ele>775</ele>
        <time>2026-05-09T09:46:09.903Z</time>
      </trkpt>
      <trkpt lat="47.88966" lon="6.89635">
        <ele>775</ele>
        <time>2026-05-09T09:46:10.903Z</time>
      </trkpt>
      <trkpt lat="47.88968" lon="6.89636">
        <ele>775</ele>
        <time>2026-05-09T09:46:11.904Z</time>
      </trkpt>
      <trkpt lat="47.88969" lon="6.89637">
        <ele>775</ele>
        <time>2026-05-09T09:46:12.903Z</time>
      </trkpt>
      <trkpt lat="47.88969" lon="6.89638">
        <ele>775</ele>
        <time>2026-05-09T09:46:13.904Z</time>
      </trkpt>
      <trkpt lat="47.88968" lon="6.89638">
        <ele>775</ele>
        <time>2026-05-09T09:46:14.904Z</time>
      </trkpt>
      <trkpt lat="47.88968" lon="6.89636">
        <ele>775</ele>
        <time>2026-05-09T09:46:15.904Z</time>
      </trkpt>
      <trkpt lat="47.88968" lon="6.89635">
        <ele>776</ele>
        <time>2026-05-09T09:46:16.904Z</time>
      </trkpt>
      <trkpt lat="47.88967" lon="6.89633">
        <ele>776</ele>
        <time>2026-05-09T09:46:17.903Z</time>
      </trkpt>
      <trkpt lat="47.88967" lon="6.89631">
        <ele>776</ele>
        <time>2026-05-09T09:46:18.904Z</time>
      </trkpt>
      <trkpt lat="47.88966" lon="6.89629">
        <ele>776</ele>
        <time>2026-05-09T09:46:19.904Z</time>
      </trkpt>
      <trkpt lat="47.88966" lon="6.89627">
        <ele>777</ele>
        <time>2026-05-09T09:46:20.903Z</time>
      </trkpt>
      <trkpt lat="47.88967" lon="6.89626">
        <ele>777</ele>
        <time>2026-05-09T09:46:21.904Z</time>
      </trkpt>
      <trkpt lat="47.88968" lon="6.89625">
        <ele>777</ele>
        <time>2026-05-09T09:46:22.903Z</time>
      </trkpt>
      <trkpt lat="47.88969" lon="6.89624">
        <ele>777</ele>
        <time>2026-05-09T09:46:23.903Z</time>
      </trkpt>
      <trkpt lat="47.88969" lon="6.89622">
        <ele>778</ele>
        <time>2026-05-09T09:46:24.903Z</time>
      </trkpt>
      <trkpt lat="47.88969" lon="6.89621">
        <ele>778</ele>
        <time>2026-05-09T09:46:25.903Z</time>
      </trkpt>
      <trkpt lat="47.8897" lon="6.89621">
        <ele>778</ele>
        <time>2026-05-09T09:46:26.903Z</time>
      </trkpt>
      <trkpt lat="47.88971" lon="6.8962">
        <ele>779</ele>
        <time>2026-05-09T09:46:27.904Z</time>
      </trkpt>
      <trkpt lat="47.88971" lon="6.89619">
        <ele>779</ele>
        <time>2026-05-09T09:46:28.904Z</time>
      </trkpt>
      <trkpt lat="47.8897" lon="6.89618">
        <ele>779</ele>
        <time>2026-05-09T09:46:29.903Z</time>
      </trkpt>
      <trkpt lat="47.88969" lon="6.89616">
        <ele>779</ele>
        <time>2026-05-09T09:46:30.904Z</time>
      </trkpt>
      <trkpt lat="47.88969" lon="6.89616">
        <ele>779</ele>
        <time>2026-05-09T09:46:31.903Z</time>
      </trkpt>
      <trkpt lat="47.8897" lon="6.89616">
        <ele>779</ele>
        <time>2026-05-09T09:46:32.904Z</time>
      </trkpt>
      <trkpt lat="47.8897" lon="6.89615">
        <ele>779</ele>
        <time>2026-05-09T09:46:33.903Z</time>
      </trkpt>
      <trkpt lat="47.8897" lon="6.89615">
        <ele>779</ele>
        <time>2026-05-09T09:46:34.904Z</time>
      </trkpt>
      <trkpt lat="47.88977" lon="6.89602">
        <ele>796</ele>
        <time>2026-05-09T09:47:26.301Z</time>
      </trkpt>
      <trkpt lat="47.88978" lon="6.896">
        <ele>796</ele>
        <time>2026-05-09T09:47:27.301Z</time>
      </trkpt>
      <trkpt lat="47.88978" lon="6.89598">
        <ele>797</ele>
        <time>2026-05-09T09:47:28.301Z</time>
      </trkpt>
      <trkpt lat="47.88979" lon="6.89596">
        <ele>797</ele>
        <time>2026-05-09T09:47:29.302Z</time>
      </trkpt>
      <trkpt lat="47.88979" lon="6.89594">
        <ele>797</ele>
        <time>2026-05-09T09:47:30.301Z</time>
      </trkpt>
      <trkpt lat="47.88979" lon="6.89593">
        <ele>797</ele>
        <time>2026-05-09T09:47:31.301Z</time>
      </trkpt>
      <trkpt lat="47.88977" lon="6.89591">
        <ele>797</ele>
        <time>2026-05-09T09:47:32.301Z</time>
      </trkpt>
      <trkpt lat="47.88977" lon="6.8959">
        <ele>797</ele>
        <time>2026-05-09T09:47:33.302Z</time>
      </trkpt>
      <trkpt lat="47.88976" lon="6.89588">
        <ele>797</ele>
        <time>2026-05-09T09:47:34.301Z</time>
      </trkpt>
      <trkpt lat="47.88976" lon="6.89587">
        <ele>797</ele>
        <time>2026-05-09T09:47:35.301Z</time>
      </trkpt>
      <trkpt lat="47.88975" lon="6.89585">
        <ele>796</ele>
        <time>2026-05-09T09:47:36.302Z</time>
      </trkpt>
      <trkpt lat="47.88975" lon="6.89583">
        <ele>795</ele>
        <time>2026-05-09T09:47:37.302Z</time>
      </trkpt>
      <trkpt lat="47.88974" lon="6.89581">
        <ele>794</ele>
        <time>2026-05-09T09:47:38.301Z</time>
      </trkpt>
      <trkpt lat="47.88973" lon="6.8958">
        <ele>792</ele>
        <time>2026-05-09T09:47:39.302Z</time>
      </trkpt>
      <trkpt lat="47.88973" lon="6.89578">
        <ele>791</ele>
        <time>2026-05-09T09:47:40.301Z</time>
      </trkpt>
      <trkpt lat="47.88973" lon="6.89576">
        <ele>789</ele>
        <time>2026-05-09T09:47:41.301Z</time>
      </trkpt>
      <trkpt lat="47.88972" lon="6.89574">
        <ele>787</ele>
        <time>2026-05-09T09:47:42.301Z</time>
      </trkpt>
      <trkpt lat="47.88971" lon="6.89572">
        <ele>785</ele>
        <time>2026-05-09T09:47:43.301Z</time>
      </trkpt>
      <trkpt lat="47.88971" lon="6.8957">
        <ele>784</ele>
        <time>2026-05-09T09:47:44.301Z</time>
      </trkpt>
      <trkpt lat="47.8897" lon="6.89568">
        <ele>782</ele>
        <time>2026-05-09T09:47:45.302Z</time>
      </trkpt>
      <trkpt lat="47.8897" lon="6.89567">
        <ele>780</ele>
        <time>2026-05-09T09:47:46.301Z</time>
      </trkpt>
      <trkpt lat="47.8897" lon="6.89565">
        <ele>779</ele>
        <time>2026-05-09T09:47:47.301Z</time>
      </trkpt>
      <trkpt lat="47.88969" lon="6.89564">
        <ele>777</ele>
        <time>2026-05-09T09:47:48.301Z</time>
      </trkpt>
      <trkpt lat="47.88969" lon="6.89562">
        <ele>776</ele>
        <time>2026-05-09T09:47:49.302Z</time>
      </trkpt>
      <trkpt lat="47.88968" lon="6.8956">
        <ele>774</ele>
        <time>2026-05-09T09:47:50.301Z</time>
      </trkpt>
      <trkpt lat="47.88968" lon="6.89559">
        <ele>772</ele>
        <time>2026-05-09T09:47:51.301Z</time>
      </trkpt>
      <trkpt lat="47.88967" lon="6.89556">
        <ele>771</ele>
        <time>2026-05-09T09:47:52.301Z</time>
      </trkpt>
      <trkpt lat="47.88966" lon="6.89554">
        <ele>769</ele>
        <time>2026-05-09T09:47:53.301Z</time>
      </trkpt>
      <trkpt lat="47.88966" lon="6.89552">
        <ele>768</ele>
        <time>2026-05-09T09:47:54.301Z</time>
      </trkpt>
      <trkpt lat="47.88966" lon="6.89551">
        <ele>766</ele>
        <time>2026-05-09T09:47:55.302Z</time>
      </trkpt>
      <trkpt lat="47.88967" lon="6.89549">
        <ele>765</ele>
        <time>2026-05-09T09:47:56.301Z</time>
      </trkpt>
      <trkpt lat="47.88967" lon="6.89546">
        <ele>764</ele>
        <time>2026-05-09T09:47:57.301Z</time>
      </trkpt>
      <trkpt lat="47.88967" lon="6.89544">
        <ele>763</ele>
        <time>2026-05-09T09:47:58.301Z</time>
      </trkpt>
      <trkpt lat="47.88967" lon="6.89542">
        <ele>761</ele>
        <time>2026-05-09T09:47:59.301Z</time>
      </trkpt>
      <trkpt lat="47.88967" lon="6.89541">
        <ele>760</ele>
        <time>2026-05-09T09:48:00.302Z</time>
      </trkpt>
      <trkpt lat="47.88968" lon="6.89539">
        <ele>758</ele>
        <time>2026-05-09T09:48:01.301Z</time>
      </trkpt>
      <trkpt lat="47.88968" lon="6.89537">
        <ele>756</ele>
        <time>2026-05-09T09:48:02.301Z</time>
      </trkpt>
      <trkpt lat="47.88969" lon="6.89535">
        <ele>755</ele>
        <time>2026-05-09T09:48:03.301Z</time>
      </trkpt>
      <trkpt lat="47.88969" lon="6.89534">
        <ele>753</ele>
        <time>2026-05-09T09:48:04.302Z</time>
      </trkpt>
      <trkpt lat="47.8897" lon="6.89532">
        <ele>751</ele>
        <time>2026-05-09T09:48:05.301Z</time>
      </trkpt>
      <trkpt lat="47.8897" lon="6.8953">
        <ele>750</ele>
        <time>2026-05-09T09:48:06.301Z</time>
      </trkpt>
      <trkpt lat="47.88971" lon="6.89528">
        <ele>748</ele>
        <time>2026-05-09T09:48:07.301Z</time>
      </trkpt>
      <trkpt lat="47.88971" lon="6.89526">
        <ele>747</ele>
        <time>2026-05-09T09:48:08.301Z</time>
      </trkpt>
      <trkpt lat="47.88972" lon="6.89524">
        <ele>746</ele>
        <time>2026-05-09T09:48:09.301Z</time>
      </trkpt>
      <trkpt lat="47.88972" lon="6.89522">
        <ele>745</ele>
        <time>2026-05-09T09:48:10.301Z</time>
      </trkpt>
      <trkpt lat="47.88972" lon="6.89521">
        <ele>743</ele>
        <time>2026-05-09T09:48:11.301Z</time>
      </trkpt>
      <trkpt lat="47.88973" lon="6.89519">
        <ele>742</ele>
        <time>2026-05-09T09:48:12.301Z</time>
      </trkpt>
      <trkpt lat="47.88973" lon="6.89517">
        <ele>741</ele>
        <time>2026-05-09T09:48:13.302Z</time>
      </trkpt>
      <trkpt lat="47.88974" lon="6.89516">
        <ele>740</ele>
        <time>2026-05-09T09:48:14.301Z</time>
      </trkpt>
      <trkpt lat="47.88975" lon="6.89514">
        <ele>739</ele>
        <time>2026-05-09T09:48:15.302Z</time>
      </trkpt>
      <trkpt lat="47.88976" lon="6.89513">
        <ele>738</ele>
        <time>2026-05-09T09:48:16.301Z</time>
      </trkpt>
      <trkpt lat="47.88976" lon="6.89511">
        <ele>737</ele>
        <time>2026-05-09T09:48:17.301Z</time>
      </trkpt>
      <trkpt lat="47.88977" lon="6.89509">
        <ele>736</ele>
        <time>2026-05-09T09:48:18.301Z</time>
      </trkpt>
      <trkpt lat="47.88978" lon="6.89508">
        <ele>735</ele>
        <time>2026-05-09T09:48:19.301Z</time>
      </trkpt>
      <trkpt lat="47.88978" lon="6.89507">
        <ele>734</ele>
        <time>2026-05-09T09:48:20.301Z</time>
      </trkpt>
      <trkpt lat="47.88979" lon="6.89506">
        <ele>734</ele>
        <time>2026-05-09T09:48:21.301Z</time>
      </trkpt>
      <trkpt lat="47.88979" lon="6.89504">
        <ele>733</ele>
        <time>2026-05-09T09:48:22.301Z</time>
      </trkpt>
      <trkpt lat="47.88978" lon="6.89502">
        <ele>732</ele>
        <time>2026-05-09T09:48:23.301Z</time>
      </trkpt>
      <trkpt lat="47.88978" lon="6.895">
        <ele>731</ele>
        <time>2026-05-09T09:48:24.302Z</time>
      </trkpt>
      <trkpt lat="47.88978" lon="6.89497">
        <ele>730</ele>
        <time>2026-05-09T09:48:25.302Z</time>
      </trkpt>
      <trkpt lat="47.88978" lon="6.89496">
        <ele>730</ele>
        <time>2026-05-09T09:48:26.301Z</time>
      </trkpt>
      <trkpt lat="47.88978" lon="6.89494">
        <ele>729</ele>
        <time>2026-05-09T09:48:27.301Z</time>
      </trkpt>
      <trkpt lat="47.88979" lon="6.89492">
        <ele>729</ele>
        <time>2026-05-09T09:48:28.302Z</time>
      </trkpt>
      <trkpt lat="47.88979" lon="6.8949">
        <ele>729</ele>
        <time>2026-05-09T09:48:29.301Z</time>
      </trkpt>
      <trkpt lat="47.88979" lon="6.89489">
        <ele>729</ele>
        <time>2026-05-09T09:48:30.302Z</time>
      </trkpt>
      <trkpt lat="47.8898" lon="6.89487">
        <ele>728</ele>
        <time>2026-05-09T09:48:31.302Z</time>
      </trkpt>
      <trkpt lat="47.8898" lon="6.89485">
        <ele>728</ele>
        <time>2026-05-09T09:48:32.302Z</time>
      </trkpt>
      <trkpt lat="47.8898" lon="6.89483">
        <ele>728</ele>
        <time>2026-05-09T09:48:33.301Z</time>
      </trkpt>
      <trkpt lat="47.88979" lon="6.89481">
        <ele>728</ele>
        <time>2026-05-09T09:48:34.301Z</time>
      </trkpt>
      <trkpt lat="47.88978" lon="6.89478">
        <ele>728</ele>
        <time>2026-05-09T09:48:35.301Z</time>
      </trkpt>
      <trkpt lat="47.88977" lon="6.89475">
        <ele>728</ele>
        <time>2026-05-09T09:48:36.301Z</time>
      </trkpt>
      <trkpt lat="47.88976" lon="6.89472">
        <ele>728</ele>
        <time>2026-05-09T09:48:37.301Z</time>
      </trkpt>
      <trkpt lat="47.88976" lon="6.8947">
        <ele>728</ele>
        <time>2026-05-09T09:48:38.302Z</time>
      </trkpt>
      <trkpt lat="47.88977" lon="6.89468">
        <ele>728</ele>
        <time>2026-05-09T09:48:39.301Z</time>
      </trkpt>
      <trkpt lat="47.88977" lon="6.89466">
        <ele>728</ele>
        <time>2026-05-09T09:48:40.301Z</time>
      </trkpt>
      <trkpt lat="47.88977" lon="6.89464">
        <ele>727</ele>
        <time>2026-05-09T09:48:41.301Z</time>
      </trkpt>
      <trkpt lat="47.88976" lon="6.89462">
        <ele>727</ele>
        <time>2026-05-09T09:48:42.301Z</time>
      </trkpt>
      <trkpt lat="47.88976" lon="6.8946">
        <ele>727</ele>
        <time>2026-05-09T09:48:43.301Z</time>
      </trkpt>
      <trkpt lat="47.88976" lon="6.89458">
        <ele>727</ele>
        <time>2026-05-09T09:48:44.302Z</time>
      </trkpt>
      <trkpt lat="47.88976" lon="6.89456">
        <ele>727</ele>
        <time>2026-05-09T09:48:45.302Z</time>
      </trkpt>
      <trkpt lat="47.88977" lon="6.89455">
        <ele>727</ele>
        <time>2026-05-09T09:48:46.301Z</time>
      </trkpt>
      <trkpt lat="47.88977" lon="6.89453">
        <ele>726</ele>
        <time>2026-05-09T09:48:47.301Z</time>
      </trkpt>
      <trkpt lat="47.88977" lon="6.89451">
        <ele>726</ele>
        <time>2026-05-09T09:48:48.301Z</time>
      </trkpt>
      <trkpt lat="47.88976" lon="6.89448">
        <ele>726</ele>
        <time>2026-05-09T09:48:49.301Z</time>
      </trkpt>
      <trkpt lat="47.88975" lon="6.89445">
        <ele>725</ele>
        <time>2026-05-09T09:48:50.302Z</time>
      </trkpt>
      <trkpt lat="47.88975" lon="6.89442">
        <ele>725</ele>
        <time>2026-05-09T09:48:51.301Z</time>
      </trkpt>
      <trkpt lat="47.88974" lon="6.89439">
        <ele>724</ele>
        <time>2026-05-09T09:48:52.301Z</time>
      </trkpt>
      <trkpt lat="47.88974" lon="6.89436">
        <ele>724</ele>
        <time>2026-05-09T09:48:53.301Z</time>
      </trkpt>
      <trkpt lat="47.88974" lon="6.89434">
        <ele>723</ele>
        <time>2026-05-09T09:48:54.301Z</time>
      </trkpt>
      <trkpt lat="47.88973" lon="6.89432">
        <ele>722</ele>
        <time>2026-05-09T09:48:55.301Z</time>
      </trkpt>
      <trkpt lat="47.88973" lon="6.8943">
        <ele>722</ele>
        <time>2026-05-09T09:48:56.301Z</time>
      </trkpt>
      <trkpt lat="47.88973" lon="6.8943">
        <ele>721</ele>
        <time>2026-05-09T09:48:57.302Z</time>
      </trkpt>
      <trkpt lat="47.88973" lon="6.89428">
        <ele>721</ele>
        <time>2026-05-09T09:48:58.302Z</time>
      </trkpt>
      <trkpt lat="47.88973" lon="6.89428">
        <ele>720</ele>
        <time>2026-05-09T09:48:59.301Z</time>
      </trkpt>
      <trkpt lat="47.88972" lon="6.89426">
        <ele>720</ele>
        <time>2026-05-09T09:49:00.301Z</time>
      </trkpt>
      <trkpt lat="47.88972" lon="6.89425">
        <ele>719</ele>
        <time>2026-05-09T09:49:01.302Z</time>
      </trkpt>
      <trkpt lat="47.88971" lon="6.89425">
        <ele>718</ele>
        <time>2026-05-09T09:49:02.301Z</time>
      </trkpt>
      <trkpt lat="47.88971" lon="6.89424">
        <ele>718</ele>
        <time>2026-05-09T09:49:03.302Z</time>
      </trkpt>
      <trkpt lat="47.88971" lon="6.89421">
        <ele>717</ele>
        <time>2026-05-09T09:49:04.301Z</time>
      </trkpt>
      <trkpt lat="47.88971" lon="6.89419">
        <ele>717</ele>
        <time>2026-05-09T09:49:05.301Z</time>
      </trkpt>
      <trkpt lat="47.88971" lon="6.89417">
        <ele>717</ele>
        <time>2026-05-09T09:49:06.301Z</time>
      </trkpt>
      <trkpt lat="47.88971" lon="6.89415">
        <ele>716</ele>
        <time>2026-05-09T09:49:07.301Z</time>
      </trkpt>
      <trkpt lat="47.88971" lon="6.89413">
        <ele>716</ele>
        <time>2026-05-09T09:49:08.301Z</time>
      </trkpt>
      <trkpt lat="47.88971" lon="6.89411">
        <ele>716</ele>
        <time>2026-05-09T09:49:09.301Z</time>
      </trkpt>
      <trkpt lat="47.8897" lon="6.89409">
        <ele>716</ele>
        <time>2026-05-09T09:49:10.301Z</time>
      </trkpt>
      <trkpt lat="47.8897" lon="6.89407">
        <ele>716</ele>
        <time>2026-05-09T09:49:11.301Z</time>
      </trkpt>
      <trkpt lat="47.8897" lon="6.89406">
        <ele>716</ele>
        <time>2026-05-09T09:49:12.301Z</time>
      </trkpt>
      <trkpt lat="47.8897" lon="6.89404">
        <ele>716</ele>
        <time>2026-05-09T09:49:13.301Z</time>
      </trkpt>
      <trkpt lat="47.8897" lon="6.89401">
        <ele>716</ele>
        <time>2026-05-09T09:49:14.301Z</time>
      </trkpt>
      <trkpt lat="47.88969" lon="6.894">
        <ele>716</ele>
        <time>2026-05-09T09:49:15.301Z</time>
      </trkpt>
      <trkpt lat="47.88969" lon="6.89398">
        <ele>716</ele>
        <time>2026-05-09T09:49:16.301Z</time>
      </trkpt>
      <trkpt lat="47.88969" lon="6.89397">
        <ele>716</ele>
        <time>2026-05-09T09:49:17.301Z</time>
      </trkpt>
      <trkpt lat="47.88969" lon="6.89395">
        <ele>716</ele>
        <time>2026-05-09T09:49:18.301Z</time>
      </trkpt>
      <trkpt lat="47.88969" lon="6.89393">
        <ele>716</ele>
        <time>2026-05-09T09:49:19.301Z</time>
      </trkpt>
      <trkpt lat="47.88969" lon="6.89391">
        <ele>716</ele>
        <time>2026-05-09T09:49:20.301Z</time>
      </trkpt>
      <trkpt lat="47.88969" lon="6.89389">
        <ele>716</ele>
        <time>2026-05-09T09:49:21.301Z</time>
      </trkpt>
      <trkpt lat="47.88969" lon="6.89387">
        <ele>715</ele>
        <time>2026-05-09T09:49:22.301Z</time>
      </trkpt>
      <trkpt lat="47.88969" lon="6.89385">
        <ele>715</ele>
        <time>2026-05-09T09:49:23.301Z</time>
      </trkpt>
      <trkpt lat="47.88969" lon="6.89383">
        <ele>715</ele>
        <time>2026-05-09T09:49:24.301Z</time>
      </trkpt>
      <trkpt lat="47.88969" lon="6.8938">
        <ele>715</ele>
        <time>2026-05-09T09:49:25.301Z</time>
      </trkpt>
      <trkpt lat="47.88969" lon="6.89378">
        <ele>715</ele>
        <time>2026-05-09T09:49:26.301Z</time>
      </trkpt>
      <trkpt lat="47.88969" lon="6.89375">
        <ele>714</ele>
        <time>2026-05-09T09:49:27.301Z</time>
      </trkpt>
      <trkpt lat="47.88969" lon="6.89373">
        <ele>714</ele>
        <time>2026-05-09T09:49:28.301Z</time>
      </trkpt>
      <trkpt lat="47.88969" lon="6.8937">
        <ele>714</ele>
        <time>2026-05-09T09:49:29.302Z</time>
      </trkpt>
      <trkpt lat="47.88969" lon="6.89368">
        <ele>713</ele>
        <time>2026-05-09T09:49:30.301Z</time>
      </trkpt>
      <trkpt lat="47.88969" lon="6.89366">
        <ele>713</ele>
        <time>2026-05-09T09:49:31.301Z</time>
      </trkpt>
      <trkpt lat="47.88969" lon="6.89364">
        <ele>713</ele>
        <time>2026-05-09T09:49:32.301Z</time>
      </trkpt>
      <trkpt lat="47.88969" lon="6.89362">
        <ele>713</ele>
        <time>2026-05-09T09:49:33.301Z</time>
      </trkpt>
      <trkpt lat="47.88969" lon="6.89361">
        <ele>713</ele>
        <time>2026-05-09T09:49:34.301Z</time>
      </trkpt>
      <trkpt lat="47.88968" lon="6.89359">
        <ele>713</ele>
        <time>2026-05-09T09:49:35.302Z</time>
      </trkpt>
      <trkpt lat="47.88968" lon="6.89357">
        <ele>713</ele>
        <time>2026-05-09T09:49:36.301Z</time>
      </trkpt>
      <trkpt lat="47.88967" lon="6.89354">
        <ele>713</ele>
        <time>2026-05-09T09:49:37.302Z</time>
      </trkpt>
      <trkpt lat="47.88967" lon="6.89351">
        <ele>714</ele>
        <time>2026-05-09T09:49:38.302Z</time>
      </trkpt>
      <trkpt lat="47.88967" lon="6.89348">
        <ele>714</ele>
        <time>2026-05-09T09:49:39.301Z</time>
      </trkpt>
      <trkpt lat="47.88967" lon="6.89346">
        <ele>714</ele>
        <time>2026-05-09T09:49:40.302Z</time>
      </trkpt>
      <trkpt lat="47.88967" lon="6.89345">
        <ele>714</ele>
        <time>2026-05-09T09:49:41.301Z</time>
      </trkpt>
      <trkpt lat="47.88966" lon="6.89344">
        <ele>714</ele>
        <time>2026-05-09T09:49:42.301Z</time>
      </trkpt>
      <trkpt lat="47.88965" lon="6.89342">
        <ele>714</ele>
        <time>2026-05-09T09:49:43.301Z</time>
      </trkpt>
      <trkpt lat="47.88963" lon="6.89341">
        <ele>715</ele>
        <time>2026-05-09T09:49:44.301Z</time>
      </trkpt>
      <trkpt lat="47.88962" lon="6.8934">
        <ele>715</ele>
        <time>2026-05-09T09:49:45.301Z</time>
      </trkpt>
      <trkpt lat="47.88961" lon="6.89338">
        <ele>715</ele>
        <time>2026-05-09T09:49:46.301Z</time>
      </trkpt>
      <trkpt lat="47.88961" lon="6.89335">
        <ele>715</ele>
        <time>2026-05-09T09:49:47.301Z</time>
      </trkpt>
      <trkpt lat="47.8896" lon="6.89332">
        <ele>715</ele>
        <time>2026-05-09T09:49:48.301Z</time>
      </trkpt>
      <trkpt lat="47.8896" lon="6.8933">
        <ele>715</ele>
        <time>2026-05-09T09:49:49.301Z</time>
      </trkpt>
      <trkpt lat="47.8896" lon="6.89328">
        <ele>715</ele>
        <time>2026-05-09T09:49:50.301Z</time>
      </trkpt>
      <trkpt lat="47.8896" lon="6.89326">
        <ele>715</ele>
        <time>2026-05-09T09:49:51.301Z</time>
      </trkpt>
      <trkpt lat="47.88959" lon="6.89323">
        <ele>715</ele>
        <time>2026-05-09T09:49:52.301Z</time>
      </trkpt>
      <trkpt lat="47.88959" lon="6.89321">
        <ele>715</ele>
        <time>2026-05-09T09:49:53.302Z</time>
      </trkpt>
      <trkpt lat="47.88959" lon="6.89319">
        <ele>714</ele>
        <time>2026-05-09T09:49:54.301Z</time>
      </trkpt>
      <trkpt lat="47.88959" lon="6.89317">
        <ele>714</ele>
        <time>2026-05-09T09:49:55.301Z</time>
      </trkpt>
      <trkpt lat="47.88959" lon="6.89315">
        <ele>714</ele>
        <time>2026-05-09T09:49:56.301Z</time>
      </trkpt>
      <trkpt lat="47.88959" lon="6.89312">
        <ele>713</ele>
        <time>2026-05-09T09:49:57.301Z</time>
      </trkpt>
      <trkpt lat="47.88959" lon="6.8931">
        <ele>712</ele>
        <time>2026-05-09T09:49:58.301Z</time>
      </trkpt>
      <trkpt lat="47.88959" lon="6.89308">
        <ele>711</ele>
        <time>2026-05-09T09:49:59.301Z</time>
      </trkpt>
      <trkpt lat="47.88958" lon="6.89306">
        <ele>710</ele>
        <time>2026-05-09T09:50:00.301Z</time>
      </trkpt>
      <trkpt lat="47.88957" lon="6.89302">
        <ele>709</ele>
        <time>2026-05-09T09:50:01.301Z</time>
      </trkpt>
      <trkpt lat="47.88957" lon="6.893">
        <ele>709</ele>
        <time>2026-05-09T09:50:02.301Z</time>
      </trkpt>
      <trkpt lat="47.88957" lon="6.89298">
        <ele>708</ele>
        <time>2026-05-09T09:50:03.301Z</time>
      </trkpt>
      <trkpt lat="47.88957" lon="6.89296">
        <ele>708</ele>
        <time>2026-05-09T09:50:04.301Z</time>
      </trkpt>
      <trkpt lat="47.88957" lon="6.89294">
        <ele>708</ele>
        <time>2026-05-09T09:50:05.301Z</time>
      </trkpt>
      <trkpt lat="47.88957" lon="6.89292">
        <ele>707</ele>
        <time>2026-05-09T09:50:06.302Z</time>
      </trkpt>
      <trkpt lat="47.88957" lon="6.8929">
        <ele>706</ele>
        <time>2026-05-09T09:50:07.302Z</time>
      </trkpt>
      <trkpt lat="47.88958" lon="6.89288">
        <ele>706</ele>
        <time>2026-05-09T09:50:08.301Z</time>
      </trkpt>
      <trkpt lat="47.88958" lon="6.89286">
        <ele>705</ele>
        <time>2026-05-09T09:50:09.301Z</time>
      </trkpt>
      <trkpt lat="47.88958" lon="6.89284">
        <ele>705</ele>
        <time>2026-05-09T09:50:10.301Z</time>
      </trkpt>
      <trkpt lat="47.88958" lon="6.89282">
        <ele>704</ele>
        <time>2026-05-09T09:50:11.302Z</time>
      </trkpt>
      <trkpt lat="47.88958" lon="6.8928">
        <ele>704</ele>
        <time>2026-05-09T09:50:12.301Z</time>
      </trkpt>
      <trkpt lat="47.88958" lon="6.89278">
        <ele>704</ele>
        <time>2026-05-09T09:50:13.301Z</time>
      </trkpt>
      <trkpt lat="47.88958" lon="6.89275">
        <ele>703</ele>
        <time>2026-05-09T09:50:14.301Z</time>
      </trkpt>
      <trkpt lat="47.88958" lon="6.89272">
        <ele>703</ele>
        <time>2026-05-09T09:50:15.301Z</time>
      </trkpt>
      <trkpt lat="47.88958" lon="6.8927">
        <ele>703</ele>
        <time>2026-05-09T09:50:16.301Z</time>
      </trkpt>
      <trkpt lat="47.88958" lon="6.89268">
        <ele>703</ele>
        <time>2026-05-09T09:50:17.302Z</time>
      </trkpt>
      <trkpt lat="47.88959" lon="6.89266">
        <ele>702</ele>
        <time>2026-05-09T09:50:18.301Z</time>
      </trkpt>
      <trkpt lat="47.88959" lon="6.89263">
        <ele>702</ele>
        <time>2026-05-09T09:50:19.302Z</time>
      </trkpt>
      <trkpt lat="47.88959" lon="6.89261">
        <ele>702</ele>
        <time>2026-05-09T09:50:20.301Z</time>
      </trkpt>
      <trkpt lat="47.88959" lon="6.89258">
        <ele>701</ele>
        <time>2026-05-09T09:50:21.301Z</time>
      </trkpt>
      <trkpt lat="47.8896" lon="6.89256">
        <ele>701</ele>
        <time>2026-05-09T09:50:22.302Z</time>
      </trkpt>
      <trkpt lat="47.8896" lon="6.89254">
        <ele>701</ele>
        <time>2026-05-09T09:50:23.302Z</time>
      </trkpt>
      <trkpt lat="47.8896" lon="6.89251">
        <ele>701</ele>
        <time>2026-05-09T09:50:24.302Z</time>
      </trkpt>
      <trkpt lat="47.8896" lon="6.89249">
        <ele>701</ele>
        <time>2026-05-09T09:50:25.301Z</time>
      </trkpt>
      <trkpt lat="47.88961" lon="6.89247">
        <ele>701</ele>
        <time>2026-05-09T09:50:26.301Z</time>
      </trkpt>
      <trkpt lat="47.88961" lon="6.89245">
        <ele>700</ele>
        <time>2026-05-09T09:50:27.301Z</time>
      </trkpt>
      <trkpt lat="47.88961" lon="6.89244">
        <ele>700</ele>
        <time>2026-05-09T09:50:28.302Z</time>
      </trkpt>
      <trkpt lat="47.8896" lon="6.89243">
        <ele>699</ele>
        <time>2026-05-09T09:50:29.301Z</time>
      </trkpt>
      <trkpt lat="47.88959" lon="6.89243">
        <ele>698</ele>
        <time>2026-05-09T09:50:30.301Z</time>
      </trkpt>
      <trkpt lat="47.88959" lon="6.89244">
        <ele>698</ele>
        <time>2026-05-09T09:50:31.302Z</time>
      </trkpt>
      <trkpt lat="47.88957" lon="6.89247">
        <ele>697</ele>
        <time>2026-05-09T09:50:32.302Z</time>
      </trkpt>
      <trkpt lat="47.88955" lon="6.89249">
        <ele>696</ele>
        <time>2026-05-09T09:50:33.301Z</time>
      </trkpt>
      <trkpt lat="47.88955" lon="6.89251">
        <ele>696</ele>
        <time>2026-05-09T09:50:34.301Z</time>
      </trkpt>
      <trkpt lat="47.88954" lon="6.89253">
        <ele>696</ele>
        <time>2026-05-09T09:50:35.301Z</time>
      </trkpt>
      <trkpt lat="47.88954" lon="6.89254">
        <ele>696</ele>
        <time>2026-05-09T09:50:36.301Z</time>
      </trkpt>
      <trkpt lat="47.88953" lon="6.89256">
        <ele>696</ele>
        <time>2026-05-09T09:50:37.301Z</time>
      </trkpt>
      <trkpt lat="47.88953" lon="6.89257">
        <ele>696</ele>
        <time>2026-05-09T09:50:38.301Z</time>
      </trkpt>
      <trkpt lat="47.88953" lon="6.89258">
        <ele>696</ele>
        <time>2026-05-09T09:50:39.301Z</time>
      </trkpt>
      <trkpt lat="47.88953" lon="6.89259">
        <ele>696</ele>
        <time>2026-05-09T09:50:40.301Z</time>
      </trkpt>
      <trkpt lat="47.88953" lon="6.8926">
        <ele>696</ele>
        <time>2026-05-09T09:50:41.301Z</time>
      </trkpt>
      <trkpt lat="47.88953" lon="6.89261">
        <ele>696</ele>
        <time>2026-05-09T09:50:42.301Z</time>
      </trkpt>
      <trkpt lat="47.88953" lon="6.89263">
        <ele>696</ele>
        <time>2026-05-09T09:50:43.301Z</time>
      </trkpt>
      <trkpt lat="47.88953" lon="6.89264">
        <ele>696</ele>
        <time>2026-05-09T09:50:44.301Z</time>
      </trkpt>
      <trkpt lat="47.88953" lon="6.89265">
        <ele>696</ele>
        <time>2026-05-09T09:50:45.301Z</time>
      </trkpt>
      <trkpt lat="47.88953" lon="6.89266">
        <ele>695</ele>
        <time>2026-05-09T09:50:46.301Z</time>
      </trkpt>
      <trkpt lat="47.88953" lon="6.89266">
        <ele>695</ele>
        <time>2026-05-09T09:50:47.302Z</time>
      </trkpt>
      <trkpt lat="47.88953" lon="6.89266">
        <ele>695</ele>
        <time>2026-05-09T09:50:48.302Z</time>
      </trkpt>
      <trkpt lat="47.88954" lon="6.89266">
        <ele>696</ele>
        <time>2026-05-09T09:50:49.301Z</time>
      </trkpt>
      <trkpt lat="47.88954" lon="6.89266">
        <ele>697</ele>
        <time>2026-05-09T09:50:50.301Z</time>
      </trkpt>
      <trkpt lat="47.88954" lon="6.89265">
        <ele>697</ele>
        <time>2026-05-09T09:50:51.301Z</time>
      </trkpt>
      <trkpt lat="47.88954" lon="6.89263">
        <ele>700</ele>
        <time>2026-05-09T09:50:56.630Z</time>
      </trkpt>
      <trkpt lat="47.88954" lon="6.89264">
        <ele>698</ele>
        <time>2026-05-09T09:51:08.952Z</time>
      </trkpt>
      <trkpt lat="47.88954" lon="6.89265">
        <ele>697</ele>
        <time>2026-05-09T09:51:09.953Z</time>
      </trkpt>
      <trkpt lat="47.88953" lon="6.89266">
        <ele>697</ele>
        <time>2026-05-09T09:51:10.953Z</time>
      </trkpt>
      <trkpt lat="47.88954" lon="6.89267">
        <ele>697</ele>
        <time>2026-05-09T09:51:11.952Z</time>
      </trkpt>
      <trkpt lat="47.88953" lon="6.89267">
        <ele>696</ele>
        <time>2026-05-09T09:51:12.953Z</time>
      </trkpt>
      <trkpt lat="47.88953" lon="6.89267">
        <ele>697</ele>
        <time>2026-05-09T09:51:13.952Z</time>
      </trkpt>
      <trkpt lat="47.88953" lon="6.89266">
        <ele>697</ele>
        <time>2026-05-09T09:51:14.953Z</time>
      </trkpt>
      <trkpt lat="47.88953" lon="6.89266">
        <ele>697</ele>
        <time>2026-05-09T09:51:15.952Z</time>
      </trkpt>
      <trkpt lat="47.88953" lon="6.89266">
        <ele>697</ele>
        <time>2026-05-09T09:51:16.952Z</time>
      </trkpt>
      <trkpt lat="47.88952" lon="6.89266">
        <ele>697</ele>
        <time>2026-05-09T09:51:17.953Z</time>
      </trkpt>
      <trkpt lat="47.88952" lon="6.89266">
        <ele>697</ele>
        <time>2026-05-09T09:51:18.953Z</time>
      </trkpt>
      <trkpt lat="47.88952" lon="6.89266">
        <ele>697</ele>
        <time>2026-05-09T09:51:19.953Z</time>
      </trkpt>
      <trkpt lat="47.88952" lon="6.89266">
        <ele>697</ele>
        <time>2026-05-09T09:51:20.953Z</time>
      </trkpt>
      <trkpt lat="47.88953" lon="6.89266">
        <ele>698</ele>
        <time>2026-05-09T09:51:21.953Z</time>
      </trkpt>
      <trkpt lat="47.88953" lon="6.89266">
        <ele>698</ele>
        <time>2026-05-09T09:51:22.952Z</time>
      </trkpt>
      <trkpt lat="47.88953" lon="6.89266">
        <ele>698</ele>
        <time>2026-05-09T09:51:23.952Z</time>
      </trkpt>
      <trkpt lat="47.88953" lon="6.89267">
        <ele>698</ele>
        <time>2026-05-09T09:51:24.952Z</time>
      </trkpt>
      <trkpt lat="47.88953" lon="6.89267">
        <ele>699</ele>
        <time>2026-05-09T09:51:25.952Z</time>
      </trkpt>
      <trkpt lat="47.88953" lon="6.89267">
        <ele>699</ele>
        <time>2026-05-09T09:51:26.952Z</time>
      </trkpt>
      <trkpt lat="47.88953" lon="6.89267">
        <ele>699</ele>
        <time>2026-05-09T09:51:27.952Z</time>
      </trkpt>
      <trkpt lat="47.88953" lon="6.89267">
        <ele>699</ele>
        <time>2026-05-09T09:51:28.953Z</time>
      </trkpt>
      <trkpt lat="47.88953" lon="6.89267">
        <ele>699</ele>
        <time>2026-05-09T09:51:29.953Z</time>
      </trkpt>
      <trkpt lat="47.88953" lon="6.89267">
        <ele>700</ele>
        <time>2026-05-09T09:51:30.952Z</time>
      </trkpt>
      <trkpt lat="47.88953" lon="6.89267">
        <ele>700</ele>
        <time>2026-05-09T09:51:31.952Z</time>
      </trkpt>
      <trkpt lat="47.88953" lon="6.89267">
        <ele>700</ele>
        <time>2026-05-09T09:51:32.952Z</time>
      </trkpt>
      <trkpt lat="47.88953" lon="6.89267">
        <ele>700</ele>
        <time>2026-05-09T09:51:33.953Z</time>
      </trkpt>
      <trkpt lat="47.88953" lon="6.89266">
        <ele>700</ele>
        <time>2026-05-09T09:51:34.953Z</time>
      </trkpt>
      <trkpt lat="47.88952" lon="6.89265">
        <ele>700</ele>
        <time>2026-05-09T09:51:35.952Z</time>
      </trkpt>
      <trkpt lat="47.88952" lon="6.89264">
        <ele>699</ele>
        <time>2026-05-09T09:51:36.953Z</time>
      </trkpt>
      <trkpt lat="47.88952" lon="6.89263">
        <ele>699</ele>
        <time>2026-05-09T09:51:37.953Z</time>
      </trkpt>
      <trkpt lat="47.88952" lon="6.89261">
        <ele>698</ele>
        <time>2026-05-09T09:51:38.952Z</time>
      </trkpt>
      <trkpt lat="47.88952" lon="6.8926">
        <ele>697</ele>
        <time>2026-05-09T09:51:39.952Z</time>
      </trkpt>
      <trkpt lat="47.88952" lon="6.89259">
        <ele>696</ele>
        <time>2026-05-09T09:51:40.953Z</time>
      </trkpt>
      <trkpt lat="47.88953" lon="6.89258">
        <ele>696</ele>
        <time>2026-05-09T09:51:41.953Z</time>
      </trkpt>
      <trkpt lat="47.88953" lon="6.89257">
        <ele>695</ele>
        <time>2026-05-09T09:51:42.953Z</time>
      </trkpt>
      <trkpt lat="47.88953" lon="6.89257">
        <ele>695</ele>
        <time>2026-05-09T09:51:43.953Z</time>
      </trkpt>
      <trkpt lat="47.88953" lon="6.89256">
        <ele>695</ele>
        <time>2026-05-09T09:51:44.953Z</time>
      </trkpt>
      <trkpt lat="47.88953" lon="6.89256">
        <ele>696</ele>
        <time>2026-05-09T09:51:45.953Z</time>
      </trkpt>
      <trkpt lat="47.88952" lon="6.89257">
        <ele>698</ele>
        <time>2026-05-09T09:51:59.107Z</time>
      </trkpt>
      <trkpt lat="47.88952" lon="6.89257">
        <ele>698</ele>
        <time>2026-05-09T09:52:00.107Z</time>
      </trkpt>
      <trkpt lat="47.88952" lon="6.89257">
        <ele>699</ele>
        <time>2026-05-09T09:52:01.106Z</time>
      </trkpt>
      <trkpt lat="47.88952" lon="6.89257">
        <ele>700</ele>
        <time>2026-05-09T09:52:02.107Z</time>
      </trkpt>
      <trkpt lat="47.88952" lon="6.89258">
        <ele>700</ele>
        <time>2026-05-09T09:52:03.106Z</time>
      </trkpt>
      <trkpt lat="47.88952" lon="6.89258">
        <ele>701</ele>
        <time>2026-05-09T09:52:04.107Z</time>
      </trkpt>
      <trkpt lat="47.88952" lon="6.89258">
        <ele>701</ele>
        <time>2026-05-09T09:52:05.106Z</time>
      </trkpt>
      <trkpt lat="47.88952" lon="6.89258">
        <ele>702</ele>
        <time>2026-05-09T09:52:06.107Z</time>
      </trkpt>
      <trkpt lat="47.88952" lon="6.89258">
        <ele>703</ele>
        <time>2026-05-09T09:52:07.107Z</time>
      </trkpt>
      <trkpt lat="47.88952" lon="6.89258">
        <ele>704</ele>
        <time>2026-05-09T09:52:08.106Z</time>
      </trkpt>
      <trkpt lat="47.88953" lon="6.89258">
        <ele>705</ele>
        <time>2026-05-09T09:52:09.106Z</time>
      </trkpt>
      <trkpt lat="47.88953" lon="6.89258">
        <ele>706</ele>
        <time>2026-05-09T09:52:10.107Z</time>
      </trkpt>
      <trkpt lat="47.88953" lon="6.89258">
        <ele>706</ele>
        <time>2026-05-09T09:52:11.107Z</time>
      </trkpt>
      <trkpt lat="47.88953" lon="6.89258">
        <ele>707</ele>
        <time>2026-05-09T09:52:12.106Z</time>
      </trkpt>
      <trkpt lat="47.88953" lon="6.89258">
        <ele>708</ele>
        <time>2026-05-09T09:52:13.107Z</time>
      </trkpt>
      <trkpt lat="47.88953" lon="6.89258">
        <ele>708</ele>
        <time>2026-05-09T09:52:14.107Z</time>
      </trkpt>
      <trkpt lat="47.88953" lon="6.89258">
        <ele>709</ele>
        <time>2026-05-09T09:52:15.107Z</time>
      </trkpt>
      <trkpt lat="47.88953" lon="6.89259">
        <ele>709</ele>
        <time>2026-05-09T09:52:16.107Z</time>
      </trkpt>
      <trkpt lat="47.88953" lon="6.89259">
        <ele>710</ele>
        <time>2026-05-09T09:52:17.107Z</time>
      </trkpt>
      <trkpt lat="47.88954" lon="6.89261">
        <ele>710</ele>
        <time>2026-05-09T09:52:18.106Z</time>
      </trkpt>
      <trkpt lat="47.88954" lon="6.89261">
        <ele>711</ele>
        <time>2026-05-09T09:52:19.107Z</time>
      </trkpt>
      <trkpt lat="47.88954" lon="6.8926">
        <ele>711</ele>
        <time>2026-05-09T09:52:20.107Z</time>
      </trkpt>
      <trkpt lat="47.88953" lon="6.89259">
        <ele>711</ele>
        <time>2026-05-09T09:52:21.106Z</time>
      </trkpt>
      <trkpt lat="47.88953" lon="6.89257">
        <ele>710</ele>
        <time>2026-05-09T09:52:22.107Z</time>
      </trkpt>
      <trkpt lat="47.88952" lon="6.89256">
        <ele>710</ele>
        <time>2026-05-09T09:52:23.107Z</time>
      </trkpt>
      <trkpt lat="47.88952" lon="6.89254">
        <ele>709</ele>
        <time>2026-05-09T09:52:24.106Z</time>
      </trkpt>
      <trkpt lat="47.88952" lon="6.89252">
        <ele>709</ele>
        <time>2026-05-09T09:52:25.107Z</time>
      </trkpt>
      <trkpt lat="47.88953" lon="6.8925">
        <ele>708</ele>
        <time>2026-05-09T09:52:26.106Z</time>
      </trkpt>
      <trkpt lat="47.88953" lon="6.89248">
        <ele>708</ele>
        <time>2026-05-09T09:52:27.107Z</time>
      </trkpt>
      <trkpt lat="47.88952" lon="6.89247">
        <ele>707</ele>
        <time>2026-05-09T09:52:28.107Z</time>
      </trkpt>
      <trkpt lat="47.88951" lon="6.89247">
        <ele>706</ele>
        <time>2026-05-09T09:52:29.107Z</time>
      </trkpt>
      <trkpt lat="47.8895" lon="6.89247">
        <ele>706</ele>
        <time>2026-05-09T09:52:30.106Z</time>
      </trkpt>
      <trkpt lat="47.8895" lon="6.89247">
        <ele>705</ele>
        <time>2026-05-09T09:52:31.107Z</time>
      </trkpt>
      <trkpt lat="47.8895" lon="6.89247">
        <ele>705</ele>
        <time>2026-05-09T09:52:32.106Z</time>
      </trkpt>
      <trkpt lat="47.8895" lon="6.89246">
        <ele>704</ele>
        <time>2026-05-09T09:52:33.106Z</time>
      </trkpt>
      <trkpt lat="47.88956" lon="6.89238">
        <ele>702</ele>
        <time>2026-05-09T09:52:38.535Z</time>
      </trkpt>
      <trkpt lat="47.88956" lon="6.89237">
        <ele>701</ele>
        <time>2026-05-09T09:52:39.536Z</time>
      </trkpt>
      <trkpt lat="47.88957" lon="6.89236">
        <ele>701</ele>
        <time>2026-05-09T09:52:40.536Z</time>
      </trkpt>
      <trkpt lat="47.88957" lon="6.89236">
        <ele>701</ele>
        <time>2026-05-09T09:52:41.536Z</time>
      </trkpt>
      <trkpt lat="47.88957" lon="6.89235">
        <ele>700</ele>
        <time>2026-05-09T09:52:42.535Z</time>
      </trkpt>
      <trkpt lat="47.88956" lon="6.89237">
        <ele>718</ele>
        <time>2026-05-09T09:53:36.728Z</time>
      </trkpt>
      <trkpt lat="47.88956" lon="6.89237">
        <ele>717</ele>
        <time>2026-05-09T09:53:37.729Z</time>
      </trkpt>
      <trkpt lat="47.88956" lon="6.89237">
        <ele>716</ele>
        <time>2026-05-09T09:53:38.728Z</time>
      </trkpt>
      <trkpt lat="47.88956" lon="6.89237">
        <ele>715</ele>
        <time>2026-05-09T09:53:39.729Z</time>
      </trkpt>
      <trkpt lat="47.88956" lon="6.89237">
        <ele>714</ele>
        <time>2026-05-09T09:53:40.728Z</time>
      </trkpt>
      <trkpt lat="47.88956" lon="6.89237">
        <ele>714</ele>
        <time>2026-05-09T09:53:41.729Z</time>
      </trkpt>
      <trkpt lat="47.88956" lon="6.89237">
        <ele>713</ele>
        <time>2026-05-09T09:53:42.728Z</time>
      </trkpt>
      <trkpt lat="47.88956" lon="6.89237">
        <ele>713</ele>
        <time>2026-05-09T09:53:43.729Z</time>
      </trkpt>
      <trkpt lat="47.88956" lon="6.89237">
        <ele>713</ele>
        <time>2026-05-09T09:53:44.729Z</time>
      </trkpt>
      <trkpt lat="47.88956" lon="6.89237">
        <ele>713</ele>
        <time>2026-05-09T09:53:45.729Z</time>
      </trkpt>
      <trkpt lat="47.88956" lon="6.89237">
        <ele>713</ele>
        <time>2026-05-09T09:53:46.729Z</time>
      </trkpt>
      <trkpt lat="47.88956" lon="6.89237">
        <ele>713</ele>
        <time>2026-05-09T09:53:47.728Z</time>
      </trkpt>
      <trkpt lat="47.88956" lon="6.89237">
        <ele>713</ele>
        <time>2026-05-09T09:53:48.729Z</time>
      </trkpt>
      <trkpt lat="47.88956" lon="6.89237">
        <ele>713</ele>
        <time>2026-05-09T09:53:49.728Z</time>
      </trkpt>
      <trkpt lat="47.88956" lon="6.89237">
        <ele>713</ele>
        <time>2026-05-09T09:53:50.729Z</time>
      </trkpt>
      <trkpt lat="47.88956" lon="6.89237">
        <ele>714</ele>
        <time>2026-05-09T09:53:51.728Z</time>
      </trkpt>
      <trkpt lat="47.88956" lon="6.89237">
        <ele>714</ele>
        <time>2026-05-09T09:53:52.729Z</time>
      </trkpt>
      <trkpt lat="47.88956" lon="6.89237">
        <ele>714</ele>
        <time>2026-05-09T09:53:53.728Z</time>
      </trkpt>
      <trkpt lat="47.88957" lon="6.89237">
        <ele>714</ele>
        <time>2026-05-09T09:53:54.729Z</time>
      </trkpt>
      <trkpt lat="47.88957" lon="6.89237">
        <ele>714</ele>
        <time>2026-05-09T09:53:55.728Z</time>
      </trkpt>
      <trkpt lat="47.88957" lon="6.89237">
        <ele>714</ele>
        <time>2026-05-09T09:53:56.729Z</time>
      </trkpt>
      <trkpt lat="47.88957" lon="6.89237">
        <ele>714</ele>
        <time>2026-05-09T09:53:57.728Z</time>
      </trkpt>
      <trkpt lat="47.88957" lon="6.89237">
        <ele>714</ele>
        <time>2026-05-09T09:53:58.729Z</time>
      </trkpt>
      <trkpt lat="47.88957" lon="6.89237">
        <ele>715</ele>
        <time>2026-05-09T09:53:59.728Z</time>
      </trkpt>
      <trkpt lat="47.88957" lon="6.89237">
        <ele>715</ele>
        <time>2026-05-09T09:54:00.729Z</time>
      </trkpt>
      <trkpt lat="47.88957" lon="6.89237">
        <ele>715</ele>
        <time>2026-05-09T09:54:01.728Z</time>
      </trkpt>
      <trkpt lat="47.88957" lon="6.89237">
        <ele>715</ele>
        <time>2026-05-09T09:54:02.729Z</time>
      </trkpt>
      <trkpt lat="47.88957" lon="6.89237">
        <ele>715</ele>
        <time>2026-05-09T09:54:03.728Z</time>
      </trkpt>
      <trkpt lat="47.88957" lon="6.89237">
        <ele>715</ele>
        <time>2026-05-09T09:54:04.729Z</time>
      </trkpt>
      <trkpt lat="47.88957" lon="6.89237">
        <ele>715</ele>
        <time>2026-05-09T09:54:05.728Z</time>
      </trkpt>
      <trkpt lat="47.88957" lon="6.89237">
        <ele>715</ele>
        <time>2026-05-09T09:54:06.728Z</time>
      </trkpt>
      <trkpt lat="47.88957" lon="6.89237">
        <ele>715</ele>
        <time>2026-05-09T09:54:07.728Z</time>
      </trkpt>
      <trkpt lat="47.88958" lon="6.89236">
        <ele>714</ele>
        <time>2026-05-09T09:54:08.729Z</time>
      </trkpt>
      <trkpt lat="47.88958" lon="6.89236">
        <ele>714</ele>
        <time>2026-05-09T09:54:09.729Z</time>
      </trkpt>
      <trkpt lat="47.88958" lon="6.89237">
        <ele>714</ele>
        <time>2026-05-09T09:54:10.728Z</time>
      </trkpt>
      <trkpt lat="47.88958" lon="6.89237">
        <ele>714</ele>
        <time>2026-05-09T09:54:11.729Z</time>
      </trkpt>
      <trkpt lat="47.88958" lon="6.89237">
        <ele>714</ele>
        <time>2026-05-09T09:54:12.728Z</time>
      </trkpt>
      <trkpt lat="47.88958" lon="6.89238">
        <ele>709</ele>
        <time>2026-05-09T09:54:31.871Z</time>
      </trkpt>
      <trkpt lat="47.88958" lon="6.89238">
        <ele>709</ele>
        <time>2026-05-09T09:54:32.871Z</time>
      </trkpt>
      <trkpt lat="47.88958" lon="6.89238">
        <ele>709</ele>
        <time>2026-05-09T09:54:33.871Z</time>
      </trkpt>
      <trkpt lat="47.88958" lon="6.89238">
        <ele>709</ele>
        <time>2026-05-09T09:54:34.871Z</time>
      </trkpt>
      <trkpt lat="47.88958" lon="6.89239">
        <ele>708</ele>
        <time>2026-05-09T09:54:35.870Z</time>
      </trkpt>
      <trkpt lat="47.88958" lon="6.89239">
        <ele>708</ele>
        <time>2026-05-09T09:54:36.871Z</time>
      </trkpt>
      <trkpt lat="47.88958" lon="6.89239">
        <ele>707</ele>
        <time>2026-05-09T09:54:37.870Z</time>
      </trkpt>
      <trkpt lat="47.88958" lon="6.89239">
        <ele>707</ele>
        <time>2026-05-09T09:54:38.870Z</time>
      </trkpt>
      <trkpt lat="47.88958" lon="6.89239">
        <ele>706</ele>
        <time>2026-05-09T09:54:39.871Z</time>
      </trkpt>
      <trkpt lat="47.88958" lon="6.89239">
        <ele>706</ele>
        <time>2026-05-09T09:54:40.870Z</time>
      </trkpt>
      <trkpt lat="47.88958" lon="6.89239">
        <ele>706</ele>
        <time>2026-05-09T09:54:41.871Z</time>
      </trkpt>
      <trkpt lat="47.88958" lon="6.89239">
        <ele>706</ele>
        <time>2026-05-09T09:54:42.871Z</time>
      </trkpt>
      <trkpt lat="47.88958" lon="6.89239">
        <ele>706</ele>
        <time>2026-05-09T09:54:43.871Z</time>
      </trkpt>
      <trkpt lat="47.88958" lon="6.89239">
        <ele>706</ele>
        <time>2026-05-09T09:54:44.870Z</time>
      </trkpt>
      <trkpt lat="47.88959" lon="6.8924">
        <ele>705</ele>
        <time>2026-05-09T09:54:45.870Z</time>
      </trkpt>
      <trkpt lat="47.88959" lon="6.8924">
        <ele>705</ele>
        <time>2026-05-09T09:54:46.870Z</time>
      </trkpt>
      <trkpt lat="47.88959" lon="6.8924">
        <ele>704</ele>
        <time>2026-05-09T09:54:47.870Z</time>
      </trkpt>
      <trkpt lat="47.88959" lon="6.8924">
        <ele>704</ele>
        <time>2026-05-09T09:54:48.870Z</time>
      </trkpt>
      <trkpt lat="47.88959" lon="6.8924">
        <ele>703</ele>
        <time>2026-05-09T09:54:49.870Z</time>
      </trkpt>
      <trkpt lat="47.88959" lon="6.8924">
        <ele>702</ele>
        <time>2026-05-09T09:54:50.870Z</time>
      </trkpt>
      <trkpt lat="47.88959" lon="6.8924">
        <ele>701</ele>
        <time>2026-05-09T09:54:51.870Z</time>
      </trkpt>
      <trkpt lat="47.88959" lon="6.8924">
        <ele>701</ele>
        <time>2026-05-09T09:54:52.870Z</time>
      </trkpt>
      <trkpt lat="47.88959" lon="6.8924">
        <ele>700</ele>
        <time>2026-05-09T09:54:53.871Z</time>
      </trkpt>
      <trkpt lat="47.88959" lon="6.8924">
        <ele>700</ele>
        <time>2026-05-09T09:54:54.871Z</time>
      </trkpt>
      <trkpt lat="47.88959" lon="6.8924">
        <ele>699</ele>
        <time>2026-05-09T09:54:55.870Z</time>
      </trkpt>
      <trkpt lat="47.88959" lon="6.8924">
        <ele>699</ele>
        <time>2026-05-09T09:54:56.870Z</time>
      </trkpt>
      <trkpt lat="47.88959" lon="6.8924">
        <ele>698</ele>
        <time>2026-05-09T09:54:57.870Z</time>
      </trkpt>
      <trkpt lat="47.88959" lon="6.8924">
        <ele>698</ele>
        <time>2026-05-09T09:54:58.870Z</time>
      </trkpt>
      <trkpt lat="47.88959" lon="6.8924">
        <ele>697</ele>
        <time>2026-05-09T09:54:59.870Z</time>
      </trkpt>
      <trkpt lat="47.88959" lon="6.8924">
        <ele>697</ele>
        <time>2026-05-09T09:55:00.870Z</time>
      </trkpt>
      <trkpt lat="47.88959" lon="6.8924">
        <ele>697</ele>
        <time>2026-05-09T09:55:01.871Z</time>
      </trkpt>
      <trkpt lat="47.88959" lon="6.8924">
        <ele>696</ele>
        <time>2026-05-09T09:55:02.871Z</time>
      </trkpt>
      <trkpt lat="47.88959" lon="6.8924">
        <ele>696</ele>
        <time>2026-05-09T09:55:03.871Z</time>
      </trkpt>
      <trkpt lat="47.88959" lon="6.8924">
        <ele>695</ele>
        <time>2026-05-09T09:55:04.871Z</time>
      </trkpt>
      <trkpt lat="47.88959" lon="6.8924">
        <ele>695</ele>
        <time>2026-05-09T09:55:05.870Z</time>
      </trkpt>
      <trkpt lat="47.88959" lon="6.8924">
        <ele>694</ele>
        <time>2026-05-09T09:55:06.870Z</time>
      </trkpt>
      <trkpt lat="47.88959" lon="6.8924">
        <ele>693</ele>
        <time>2026-05-09T09:55:07.870Z</time>
      </trkpt>
      <trkpt lat="47.88959" lon="6.8924">
        <ele>693</ele>
        <time>2026-05-09T09:55:08.870Z</time>
      </trkpt>
      <trkpt lat="47.88958" lon="6.8924">
        <ele>692</ele>
        <time>2026-05-09T09:55:09.871Z</time>
      </trkpt>
      <trkpt lat="47.88958" lon="6.8924">
        <ele>691</ele>
        <time>2026-05-09T09:55:10.870Z</time>
      </trkpt>
      <trkpt lat="47.88958" lon="6.89241">
        <ele>688</ele>
        <time>2026-05-09T09:55:18.252Z</time>
      </trkpt>
      <trkpt lat="47.88958" lon="6.89241">
        <ele>688</ele>
        <time>2026-05-09T09:55:19.128Z</time>
      </trkpt>
      <trkpt lat="47.88957" lon="6.89244">
        <ele>696</ele>
        <time>2026-05-09T09:55:38.528Z</time>
      </trkpt>
      <trkpt lat="47.88957" lon="6.89244">
        <ele>697</ele>
        <time>2026-05-09T09:55:39.653Z</time>
      </trkpt>
      <trkpt lat="47.88957" lon="6.89243">
        <ele>697</ele>
        <time>2026-05-09T09:55:40.652Z</time>
      </trkpt>
      <trkpt lat="47.88957" lon="6.89243">
        <ele>697</ele>
        <time>2026-05-09T09:55:41.528Z</time>
      </trkpt>
      <trkpt lat="47.88957" lon="6.89243">
        <ele>698</ele>
        <time>2026-05-09T09:55:42.528Z</time>
      </trkpt>
      <trkpt lat="47.88957" lon="6.89243">
        <ele>698</ele>
        <time>2026-05-09T09:55:43.528Z</time>
      </trkpt>
      <trkpt lat="47.88957" lon="6.89243">
        <ele>699</ele>
        <time>2026-05-09T09:55:44.528Z</time>
      </trkpt>
      <trkpt lat="47.88957" lon="6.89243">
        <ele>700</ele>
        <time>2026-05-09T09:55:45.528Z</time>
      </trkpt>
      <trkpt lat="47.88957" lon="6.89243">
        <ele>700</ele>
        <time>2026-05-09T09:55:46.528Z</time>
      </trkpt>
      <trkpt lat="47.88957" lon="6.89243">
        <ele>701</ele>
        <time>2026-05-09T09:55:47.528Z</time>
      </trkpt>
      <trkpt lat="47.88957" lon="6.89244">
        <ele>701</ele>
        <time>2026-05-09T09:55:48.652Z</time>
      </trkpt>
      <trkpt lat="47.88957" lon="6.89244">
        <ele>702</ele>
        <time>2026-05-09T09:55:49.528Z</time>
      </trkpt>
      <trkpt lat="47.88957" lon="6.89244">
        <ele>702</ele>
        <time>2026-05-09T09:55:50.528Z</time>
      </trkpt>
      <trkpt lat="47.88957" lon="6.89244">
        <ele>702</ele>
        <time>2026-05-09T09:55:51.528Z</time>
      </trkpt>
      <trkpt lat="47.88957" lon="6.89244">
        <ele>703</ele>
        <time>2026-05-09T09:55:52.652Z</time>
      </trkpt>
      <trkpt lat="47.88957" lon="6.89244">
        <ele>703</ele>
        <time>2026-05-09T09:55:53.652Z</time>
      </trkpt>
      <trkpt lat="47.88957" lon="6.89244">
        <ele>703</ele>
        <time>2026-05-09T09:55:54.528Z</time>
      </trkpt>
      <trkpt lat="47.88957" lon="6.89244">
        <ele>703</ele>
        <time>2026-05-09T09:55:55.528Z</time>
      </trkpt>
      <trkpt lat="47.88957" lon="6.89244">
        <ele>702</ele>
        <time>2026-05-09T09:55:56.652Z</time>
      </trkpt>
      <trkpt lat="47.88958" lon="6.89244">
        <ele>702</ele>
        <time>2026-05-09T09:55:57.652Z</time>
      </trkpt>
      <trkpt lat="47.88958" lon="6.89244">
        <ele>701</ele>
        <time>2026-05-09T09:55:58.652Z</time>
      </trkpt>
      <trkpt lat="47.88958" lon="6.89244">
        <ele>701</ele>
        <time>2026-05-09T09:55:59.528Z</time>
      </trkpt>
      <trkpt lat="47.88958" lon="6.89244">
        <ele>700</ele>
        <time>2026-05-09T09:56:00.528Z</time>
      </trkpt>
      <trkpt lat="47.88958" lon="6.89244">
        <ele>700</ele>
        <time>2026-05-09T09:56:01.528Z</time>
      </trkpt>
      <trkpt lat="47.88958" lon="6.89244">
        <ele>699</ele>
        <time>2026-05-09T09:56:02.528Z</time>
      </trkpt>
      <trkpt lat="47.88958" lon="6.89244">
        <ele>699</ele>
        <time>2026-05-09T09:56:03.528Z</time>
      </trkpt>
      <trkpt lat="47.88958" lon="6.89244">
        <ele>698</ele>
        <time>2026-05-09T09:56:04.528Z</time>
      </trkpt>
      <trkpt lat="47.88958" lon="6.89244">
        <ele>698</ele>
        <time>2026-05-09T09:56:05.652Z</time>
      </trkpt>
      <trkpt lat="47.88958" lon="6.89244">
        <ele>698</ele>
        <time>2026-05-09T09:56:06.528Z</time>
      </trkpt>
      <trkpt lat="47.88958" lon="6.89244">
        <ele>698</ele>
        <time>2026-05-09T09:56:07.528Z</time>
      </trkpt>
      <trkpt lat="47.88958" lon="6.89244">
        <ele>697</ele>
        <time>2026-05-09T09:56:08.528Z</time>
      </trkpt>
      <trkpt lat="47.88958" lon="6.89244">
        <ele>697</ele>
        <time>2026-05-09T09:56:09.528Z</time>
      </trkpt>
      <trkpt lat="47.88958" lon="6.89244">
        <ele>696</ele>
        <time>2026-05-09T09:56:10.528Z</time>
      </trkpt>
      <trkpt lat="47.88958" lon="6.89244">
        <ele>696</ele>
        <time>2026-05-09T09:56:11.528Z</time>
      </trkpt>
      <trkpt lat="47.88958" lon="6.89244">
        <ele>695</ele>
        <time>2026-05-09T09:56:12.652Z</time>
      </trkpt>
      <trkpt lat="47.88958" lon="6.89244">
        <ele>695</ele>
        <time>2026-05-09T09:56:13.652Z</time>
      </trkpt>
      <trkpt lat="47.88958" lon="6.89244">
        <ele>695</ele>
        <time>2026-05-09T09:56:14.652Z</time>
      </trkpt>
      <trkpt lat="47.88958" lon="6.89244">
        <ele>694</ele>
        <time>2026-05-09T09:56:15.528Z</time>
      </trkpt>
      <trkpt lat="47.88958" lon="6.89244">
        <ele>694</ele>
        <time>2026-05-09T09:56:16.652Z</time>
      </trkpt>
      <trkpt lat="47.88958" lon="6.89244">
        <ele>694</ele>
        <time>2026-05-09T09:56:17.652Z</time>
      </trkpt>
      <trkpt lat="47.88958" lon="6.89244">
        <ele>694</ele>
        <time>2026-05-09T09:56:18.652Z</time>
      </trkpt>
      <trkpt lat="47.88958" lon="6.89244">
        <ele>694</ele>
        <time>2026-05-09T09:56:19.652Z</time>
      </trkpt>
      <trkpt lat="47.88959" lon="6.89244">
        <ele>695</ele>
        <time>2026-05-09T09:56:20.528Z</time>
      </trkpt>
      <trkpt lat="47.88959" lon="6.89244">
        <ele>695</ele>
        <time>2026-05-09T09:56:21.528Z</time>
      </trkpt>
      <trkpt lat="47.88959" lon="6.89244">
        <ele>695</ele>
        <time>2026-05-09T09:56:22.528Z</time>
      </trkpt>
      <trkpt lat="47.88959" lon="6.89244">
        <ele>695</ele>
        <time>2026-05-09T09:56:23.528Z</time>
      </trkpt>
      <trkpt lat="47.88959" lon="6.89244">
        <ele>695</ele>
        <time>2026-05-09T09:56:24.528Z</time>
      </trkpt>
      <trkpt lat="47.88959" lon="6.89244">
        <ele>695</ele>
        <time>2026-05-09T09:56:25.528Z</time>
      </trkpt>
      <trkpt lat="47.88959" lon="6.89245">
        <ele>695</ele>
        <time>2026-05-09T09:56:26.528Z</time>
      </trkpt>
      <trkpt lat="47.88959" lon="6.89244">
        <ele>694</ele>
        <time>2026-05-09T09:56:27.528Z</time>
      </trkpt>
      <trkpt lat="47.88959" lon="6.89244">
        <ele>694</ele>
        <time>2026-05-09T09:56:28.528Z</time>
      </trkpt>
      <trkpt lat="47.88959" lon="6.89244">
        <ele>694</ele>
        <time>2026-05-09T09:56:29.652Z</time>
      </trkpt>
      <trkpt lat="47.88959" lon="6.89245">
        <ele>694</ele>
        <time>2026-05-09T09:56:30.653Z</time>
      </trkpt>
      <trkpt lat="47.88959" lon="6.89245">
        <ele>694</ele>
        <time>2026-05-09T09:56:31.652Z</time>
      </trkpt>
      <trkpt lat="47.88959" lon="6.89244">
        <ele>690</ele>
        <time>2026-05-09T09:56:39.856Z</time>
      </trkpt>
      <trkpt lat="47.8896" lon="6.89244">
        <ele>690</ele>
        <time>2026-05-09T09:56:40.855Z</time>
      </trkpt>
      <trkpt lat="47.8896" lon="6.89245">
        <ele>689</ele>
        <time>2026-05-09T09:56:41.856Z</time>
      </trkpt>
      <trkpt lat="47.8896" lon="6.89245">
        <ele>690</ele>
        <time>2026-05-09T09:56:50.996Z</time>
      </trkpt>
      <trkpt lat="47.8896" lon="6.89245">
        <ele>690</ele>
        <time>2026-05-09T09:56:51.997Z</time>
      </trkpt>
      <trkpt lat="47.8896" lon="6.89245">
        <ele>690</ele>
        <time>2026-05-09T09:56:52.997Z</time>
      </trkpt>
      <trkpt lat="47.8896" lon="6.8924">
        <ele>699</ele>
        <time>2026-05-09T09:57:12.218Z</time>
      </trkpt>
      <trkpt lat="47.88963" lon="6.89243">
        <ele>699</ele>
        <time>2026-05-09T09:57:56.428Z</time>
      </trkpt>
      <trkpt lat="47.88963" lon="6.89243">
        <ele>700</ele>
        <time>2026-05-09T09:57:57.429Z</time>
      </trkpt>
      <trkpt lat="47.88963" lon="6.89243">
        <ele>700</ele>
        <time>2026-05-09T09:57:58.429Z</time>
      </trkpt>
      <trkpt lat="47.88963" lon="6.89243">
        <ele>701</ele>
        <time>2026-05-09T09:57:59.429Z</time>
      </trkpt>
      <trkpt lat="47.88963" lon="6.89243">
        <ele>701</ele>
        <time>2026-05-09T09:58:00.429Z</time>
      </trkpt>
      <trkpt lat="47.88963" lon="6.89243">
        <ele>702</ele>
        <time>2026-05-09T09:58:01.428Z</time>
      </trkpt>
      <trkpt lat="47.88963" lon="6.89243">
        <ele>702</ele>
        <time>2026-05-09T09:58:02.428Z</time>
      </trkpt>
      <trkpt lat="47.88963" lon="6.89243">
        <ele>703</ele>
        <time>2026-05-09T09:58:03.429Z</time>
      </trkpt>
      <trkpt lat="47.88963" lon="6.89242">
        <ele>703</ele>
        <time>2026-05-09T09:58:04.428Z</time>
      </trkpt>
      <trkpt lat="47.88963" lon="6.89242">
        <ele>704</ele>
        <time>2026-05-09T09:58:05.429Z</time>
      </trkpt>
      <trkpt lat="47.88963" lon="6.89243">
        <ele>705</ele>
        <time>2026-05-09T09:58:06.428Z</time>
      </trkpt>
      <trkpt lat="47.88963" lon="6.89243">
        <ele>705</ele>
        <time>2026-05-09T09:58:07.428Z</time>
      </trkpt>
      <trkpt lat="47.88963" lon="6.89242">
        <ele>706</ele>
        <time>2026-05-09T09:58:08.429Z</time>
      </trkpt>
      <trkpt lat="47.88963" lon="6.89242">
        <ele>707</ele>
        <time>2026-05-09T09:58:09.428Z</time>
      </trkpt>
      <trkpt lat="47.88963" lon="6.89242">
        <ele>707</ele>
        <time>2026-05-09T09:58:10.428Z</time>
      </trkpt>
      <trkpt lat="47.88963" lon="6.89242">
        <ele>708</ele>
        <time>2026-05-09T09:58:11.429Z</time>
      </trkpt>
      <trkpt lat="47.88963" lon="6.89242">
        <ele>708</ele>
        <time>2026-05-09T09:58:12.428Z</time>
      </trkpt>
      <trkpt lat="47.88962" lon="6.89242">
        <ele>708</ele>
        <time>2026-05-09T09:58:13.428Z</time>
      </trkpt>
      <trkpt lat="47.88962" lon="6.89242">
        <ele>708</ele>
        <time>2026-05-09T09:58:14.428Z</time>
      </trkpt>
      <trkpt lat="47.88962" lon="6.89242">
        <ele>708</ele>
        <time>2026-05-09T09:58:15.428Z</time>
      </trkpt>
      <trkpt lat="47.88962" lon="6.89242">
        <ele>708</ele>
        <time>2026-05-09T09:58:16.428Z</time>
      </trkpt>
      <trkpt lat="47.88962" lon="6.89242">
        <ele>707</ele>
        <time>2026-05-09T09:58:17.428Z</time>
      </trkpt>
      <trkpt lat="47.88962" lon="6.89242">
        <ele>707</ele>
        <time>2026-05-09T09:58:18.428Z</time>
      </trkpt>
      <trkpt lat="47.88962" lon="6.89243">
        <ele>706</ele>
        <time>2026-05-09T09:58:19.429Z</time>
      </trkpt>
      <trkpt lat="47.88962" lon="6.89243">
        <ele>706</ele>
        <time>2026-05-09T09:58:20.429Z</time>
      </trkpt>
      <trkpt lat="47.88962" lon="6.89243">
        <ele>705</ele>
        <time>2026-05-09T09:58:21.429Z</time>
      </trkpt>
      <trkpt lat="47.88962" lon="6.89243">
        <ele>704</ele>
        <time>2026-05-09T09:58:22.428Z</time>
      </trkpt>
      <trkpt lat="47.88962" lon="6.89243">
        <ele>703</ele>
        <time>2026-05-09T09:58:23.428Z</time>
      </trkpt>
      <trkpt lat="47.88962" lon="6.89242">
        <ele>703</ele>
        <time>2026-05-09T09:58:24.429Z</time>
      </trkpt>
      <trkpt lat="47.88962" lon="6.89242">
        <ele>702</ele>
        <time>2026-05-09T09:58:25.428Z</time>
      </trkpt>
      <trkpt lat="47.88962" lon="6.89242">
        <ele>701</ele>
        <time>2026-05-09T09:58:26.429Z</time>
      </trkpt>
      <trkpt lat="47.88961" lon="6.89242">
        <ele>701</ele>
        <time>2026-05-09T09:58:27.429Z</time>
      </trkpt>
      <trkpt lat="47.88962" lon="6.89242">
        <ele>700</ele>
        <time>2026-05-09T09:58:28.428Z</time>
      </trkpt>
      <trkpt lat="47.88962" lon="6.89242">
        <ele>700</ele>
        <time>2026-05-09T09:58:29.429Z</time>
      </trkpt>
      <trkpt lat="47.88962" lon="6.89242">
        <ele>700</ele>
        <time>2026-05-09T09:58:30.428Z</time>
      </trkpt>
      <trkpt lat="47.88962" lon="6.89242">
        <ele>699</ele>
        <time>2026-05-09T09:58:31.429Z</time>
      </trkpt>
      <trkpt lat="47.88961" lon="6.89243">
        <ele>699</ele>
        <time>2026-05-09T09:58:32.428Z</time>
      </trkpt>
      <trkpt lat="47.88961" lon="6.89243">
        <ele>698</ele>
        <time>2026-05-09T09:58:33.429Z</time>
      </trkpt>
      <trkpt lat="47.88964" lon="6.89243">
        <ele>688</ele>
        <time>2026-05-09T09:58:50.842Z</time>
      </trkpt>
      <trkpt lat="47.88964" lon="6.89243">
        <ele>688</ele>
        <time>2026-05-09T09:58:51.841Z</time>
      </trkpt>
      <trkpt lat="47.88967" lon="6.89243">
        <ele>688</ele>
        <time>2026-05-09T09:59:10.122Z</time>
      </trkpt>
      <trkpt lat="47.88967" lon="6.89243">
        <ele>688</ele>
        <time>2026-05-09T09:59:11.122Z</time>
      </trkpt>
      <trkpt lat="47.88972" lon="6.89245">
        <ele>699</ele>
        <time>2026-05-09T09:59:25.559Z</time>
      </trkpt>
      <trkpt lat="47.88971" lon="6.89246">
        <ele>700</ele>
        <time>2026-05-09T09:59:26.559Z</time>
      </trkpt>
      <trkpt lat="47.88971" lon="6.89246">
        <ele>700</ele>
        <time>2026-05-09T09:59:27.559Z</time>
      </trkpt>
      <trkpt lat="47.88971" lon="6.89247">
        <ele>701</ele>
        <time>2026-05-09T09:59:28.560Z</time>
      </trkpt>
      <trkpt lat="47.8897" lon="6.89247">
        <ele>701</ele>
        <time>2026-05-09T09:59:29.560Z</time>
      </trkpt>
      <trkpt lat="47.88969" lon="6.89253">
        <ele>703</ele>
        <time>2026-05-09T09:59:35.836Z</time>
      </trkpt>
      <trkpt lat="47.88969" lon="6.89254">
        <ele>703</ele>
        <time>2026-05-09T09:59:36.837Z</time>
      </trkpt>
      <trkpt lat="47.88968" lon="6.89256">
        <ele>703</ele>
        <time>2026-05-09T09:59:37.836Z</time>
      </trkpt>
      <trkpt lat="47.88968" lon="6.89257">
        <ele>702</ele>
        <time>2026-05-09T09:59:38.837Z</time>
      </trkpt>
      <trkpt lat="47.88968" lon="6.89259">
        <ele>702</ele>
        <time>2026-05-09T09:59:39.836Z</time>
      </trkpt>
      <trkpt lat="47.88968" lon="6.89261">
        <ele>703</ele>
        <time>2026-05-09T09:59:40.837Z</time>
      </trkpt>
      <trkpt lat="47.88968" lon="6.89262">
        <ele>703</ele>
        <time>2026-05-09T09:59:41.836Z</time>
      </trkpt>
      <trkpt lat="47.88968" lon="6.89264">
        <ele>704</ele>
        <time>2026-05-09T09:59:42.836Z</time>
      </trkpt>
      <trkpt lat="47.88969" lon="6.89265">
        <ele>704</ele>
        <time>2026-05-09T09:59:43.837Z</time>
      </trkpt>
      <trkpt lat="47.88969" lon="6.89267">
        <ele>705</ele>
        <time>2026-05-09T09:59:44.836Z</time>
      </trkpt>
      <trkpt lat="47.88969" lon="6.89268">
        <ele>705</ele>
        <time>2026-05-09T09:59:45.836Z</time>
      </trkpt>
      <trkpt lat="47.88969" lon="6.89269">
        <ele>705</ele>
        <time>2026-05-09T09:59:46.836Z</time>
      </trkpt>
      <trkpt lat="47.88969" lon="6.89271">
        <ele>705</ele>
        <time>2026-05-09T09:59:47.836Z</time>
      </trkpt>
      <trkpt lat="47.88968" lon="6.89273">
        <ele>706</ele>
        <time>2026-05-09T09:59:48.837Z</time>
      </trkpt>
      <trkpt lat="47.88968" lon="6.89275">
        <ele>706</ele>
        <time>2026-05-09T09:59:49.836Z</time>
      </trkpt>
      <trkpt lat="47.88967" lon="6.89276">
        <ele>706</ele>
        <time>2026-05-09T09:59:50.837Z</time>
      </trkpt>
      <trkpt lat="47.88967" lon="6.89278">
        <ele>706</ele>
        <time>2026-05-09T09:59:51.837Z</time>
      </trkpt>
      <trkpt lat="47.88967" lon="6.8928">
        <ele>706</ele>
        <time>2026-05-09T09:59:52.837Z</time>
      </trkpt>
      <trkpt lat="47.88967" lon="6.89281">
        <ele>705</ele>
        <time>2026-05-09T09:59:53.837Z</time>
      </trkpt>
      <trkpt lat="47.88967" lon="6.89283">
        <ele>705</ele>
        <time>2026-05-09T09:59:54.836Z</time>
      </trkpt>
      <trkpt lat="47.88967" lon="6.89284">
        <ele>705</ele>
        <time>2026-05-09T09:59:55.836Z</time>
      </trkpt>
      <trkpt lat="47.88967" lon="6.89286">
        <ele>705</ele>
        <time>2026-05-09T09:59:56.836Z</time>
      </trkpt>
      <trkpt lat="47.88967" lon="6.89288">
        <ele>705</ele>
        <time>2026-05-09T09:59:57.837Z</time>
      </trkpt>
      <trkpt lat="47.88967" lon="6.89289">
        <ele>705</ele>
        <time>2026-05-09T09:59:58.837Z</time>
      </trkpt>
      <trkpt lat="47.88967" lon="6.89291">
        <ele>705</ele>
        <time>2026-05-09T09:59:59.837Z</time>
      </trkpt>
      <trkpt lat="47.88967" lon="6.89293">
        <ele>705</ele>
        <time>2026-05-09T10:00:00.836Z</time>
      </trkpt>
      <trkpt lat="47.88968" lon="6.89295">
        <ele>706</ele>
        <time>2026-05-09T10:00:01.836Z</time>
      </trkpt>
      <trkpt lat="47.88968" lon="6.89297">
        <ele>706</ele>
        <time>2026-05-09T10:00:02.837Z</time>
      </trkpt>
      <trkpt lat="47.88969" lon="6.89298">
        <ele>707</ele>
        <time>2026-05-09T10:00:03.837Z</time>
      </trkpt>
      <trkpt lat="47.88969" lon="6.89299">
        <ele>707</ele>
        <time>2026-05-09T10:00:04.837Z</time>
      </trkpt>
      <trkpt lat="47.88969" lon="6.893">
        <ele>707</ele>
        <time>2026-05-09T10:00:05.836Z</time>
      </trkpt>
      <trkpt lat="47.8897" lon="6.89302">
        <ele>708</ele>
        <time>2026-05-09T10:00:06.837Z</time>
      </trkpt>
      <trkpt lat="47.88971" lon="6.89304">
        <ele>708</ele>
        <time>2026-05-09T10:00:07.836Z</time>
      </trkpt>
      <trkpt lat="47.88971" lon="6.89306">
        <ele>708</ele>
        <time>2026-05-09T10:00:08.836Z</time>
      </trkpt>
      <trkpt lat="47.88971" lon="6.89308">
        <ele>709</ele>
        <time>2026-05-09T10:00:09.836Z</time>
      </trkpt>
      <trkpt lat="47.88972" lon="6.89308">
        <ele>709</ele>
        <time>2026-05-09T10:00:10.836Z</time>
      </trkpt>
      <trkpt lat="47.88972" lon="6.89309">
        <ele>709</ele>
        <time>2026-05-09T10:00:11.836Z</time>
      </trkpt>
      <trkpt lat="47.88972" lon="6.8931">
        <ele>710</ele>
        <time>2026-05-09T10:00:12.836Z</time>
      </trkpt>
      <trkpt lat="47.88972" lon="6.89312">
        <ele>710</ele>
        <time>2026-05-09T10:00:13.836Z</time>
      </trkpt>
      <trkpt lat="47.88972" lon="6.89314">
        <ele>710</ele>
        <time>2026-05-09T10:00:14.836Z</time>
      </trkpt>
      <trkpt lat="47.88972" lon="6.89316">
        <ele>711</ele>
        <time>2026-05-09T10:00:15.836Z</time>
      </trkpt>
      <trkpt lat="47.88973" lon="6.89318">
        <ele>712</ele>
        <time>2026-05-09T10:00:16.836Z</time>
      </trkpt>
      <trkpt lat="47.88973" lon="6.89319">
        <ele>712</ele>
        <time>2026-05-09T10:00:17.836Z</time>
      </trkpt>
      <trkpt lat="47.88974" lon="6.8932">
        <ele>713</ele>
        <time>2026-05-09T10:00:18.837Z</time>
      </trkpt>
      <trkpt lat="47.88974" lon="6.89321">
        <ele>713</ele>
        <time>2026-05-09T10:00:19.836Z</time>
      </trkpt>
      <trkpt lat="47.88974" lon="6.89322">
        <ele>714</ele>
        <time>2026-05-09T10:00:20.837Z</time>
      </trkpt>
      <trkpt lat="47.88974" lon="6.89324">
        <ele>714</ele>
        <time>2026-05-09T10:00:21.837Z</time>
      </trkpt>
      <trkpt lat="47.88975" lon="6.89326">
        <ele>715</ele>
        <time>2026-05-09T10:00:22.837Z</time>
      </trkpt>
      <trkpt lat="47.88974" lon="6.89327">
        <ele>715</ele>
        <time>2026-05-09T10:00:23.837Z</time>
      </trkpt>
      <trkpt lat="47.88974" lon="6.89329">
        <ele>716</ele>
        <time>2026-05-09T10:00:24.837Z</time>
      </trkpt>
      <trkpt lat="47.88975" lon="6.89331">
        <ele>717</ele>
        <time>2026-05-09T10:00:25.836Z</time>
      </trkpt>
      <trkpt lat="47.88975" lon="6.89333">
        <ele>717</ele>
        <time>2026-05-09T10:00:26.837Z</time>
      </trkpt>
      <trkpt lat="47.88975" lon="6.89334">
        <ele>718</ele>
        <time>2026-05-09T10:00:27.836Z</time>
      </trkpt>
      <trkpt lat="47.88975" lon="6.89335">
        <ele>719</ele>
        <time>2026-05-09T10:00:28.836Z</time>
      </trkpt>
      <trkpt lat="47.88976" lon="6.89337">
        <ele>719</ele>
        <time>2026-05-09T10:00:29.836Z</time>
      </trkpt>
      <trkpt lat="47.88977" lon="6.89338">
        <ele>720</ele>
        <time>2026-05-09T10:00:30.836Z</time>
      </trkpt>
      <trkpt lat="47.88977" lon="6.8934">
        <ele>720</ele>
        <time>2026-05-09T10:00:31.836Z</time>
      </trkpt>
      <trkpt lat="47.88978" lon="6.89343">
        <ele>721</ele>
        <time>2026-05-09T10:00:32.837Z</time>
      </trkpt>
      <trkpt lat="47.88978" lon="6.89345">
        <ele>721</ele>
        <time>2026-05-09T10:00:33.837Z</time>
      </trkpt>
      <trkpt lat="47.88978" lon="6.89347">
        <ele>722</ele>
        <time>2026-05-09T10:00:34.837Z</time>
      </trkpt>
      <trkpt lat="47.88978" lon="6.89349">
        <ele>722</ele>
        <time>2026-05-09T10:00:35.837Z</time>
      </trkpt>
      <trkpt lat="47.88978" lon="6.8935">
        <ele>723</ele>
        <time>2026-05-09T10:00:36.836Z</time>
      </trkpt>
      <trkpt lat="47.88978" lon="6.89352">
        <ele>723</ele>
        <time>2026-05-09T10:00:37.836Z</time>
      </trkpt>
      <trkpt lat="47.88979" lon="6.89353">
        <ele>723</ele>
        <time>2026-05-09T10:00:38.836Z</time>
      </trkpt>
      <trkpt lat="47.88979" lon="6.89355">
        <ele>723</ele>
        <time>2026-05-09T10:00:39.837Z</time>
      </trkpt>
      <trkpt lat="47.88978" lon="6.89356">
        <ele>723</ele>
        <time>2026-05-09T10:00:40.836Z</time>
      </trkpt>
      <trkpt lat="47.88978" lon="6.89358">
        <ele>723</ele>
        <time>2026-05-09T10:00:41.836Z</time>
      </trkpt>
      <trkpt lat="47.88978" lon="6.8936">
        <ele>723</ele>
        <time>2026-05-09T10:00:42.836Z</time>
      </trkpt>
      <trkpt lat="47.88979" lon="6.89363">
        <ele>723</ele>
        <time>2026-05-09T10:00:43.837Z</time>
      </trkpt>
      <trkpt lat="47.8898" lon="6.89365">
        <ele>723</ele>
        <time>2026-05-09T10:00:44.837Z</time>
      </trkpt>
      <trkpt lat="47.88981" lon="6.89367">
        <ele>723</ele>
        <time>2026-05-09T10:00:45.837Z</time>
      </trkpt>
      <trkpt lat="47.88981" lon="6.89369">
        <ele>723</ele>
        <time>2026-05-09T10:00:46.837Z</time>
      </trkpt>
      <trkpt lat="47.88981" lon="6.8937">
        <ele>723</ele>
        <time>2026-05-09T10:00:47.837Z</time>
      </trkpt>
      <trkpt lat="47.88981" lon="6.89371">
        <ele>723</ele>
        <time>2026-05-09T10:00:48.837Z</time>
      </trkpt>
      <trkpt lat="47.88981" lon="6.89372">
        <ele>723</ele>
        <time>2026-05-09T10:00:49.837Z</time>
      </trkpt>
      <trkpt lat="47.88981" lon="6.89374">
        <ele>723</ele>
        <time>2026-05-09T10:00:50.837Z</time>
      </trkpt>
      <trkpt lat="47.88982" lon="6.89375">
        <ele>724</ele>
        <time>2026-05-09T10:00:51.836Z</time>
      </trkpt>
      <trkpt lat="47.88983" lon="6.89378">
        <ele>724</ele>
        <time>2026-05-09T10:00:52.836Z</time>
      </trkpt>
      <trkpt lat="47.88983" lon="6.8938">
        <ele>725</ele>
        <time>2026-05-09T10:00:53.836Z</time>
      </trkpt>
      <trkpt lat="47.88985" lon="6.89383">
        <ele>725</ele>
        <time>2026-05-09T10:00:54.837Z</time>
      </trkpt>
      <trkpt lat="47.88985" lon="6.89384">
        <ele>725</ele>
        <time>2026-05-09T10:00:55.837Z</time>
      </trkpt>
      <trkpt lat="47.88985" lon="6.89386">
        <ele>726</ele>
        <time>2026-05-09T10:00:56.836Z</time>
      </trkpt>
      <trkpt lat="47.88985" lon="6.89388">
        <ele>726</ele>
        <time>2026-05-09T10:00:57.836Z</time>
      </trkpt>
      <trkpt lat="47.88985" lon="6.89389">
        <ele>726</ele>
        <time>2026-05-09T10:00:58.837Z</time>
      </trkpt>
      <trkpt lat="47.88985" lon="6.89391">
        <ele>726</ele>
        <time>2026-05-09T10:00:59.836Z</time>
      </trkpt>
      <trkpt lat="47.88985" lon="6.89392">
        <ele>726</ele>
        <time>2026-05-09T10:01:00.836Z</time>
      </trkpt>
      <trkpt lat="47.88985" lon="6.89393">
        <ele>726</ele>
        <time>2026-05-09T10:01:01.837Z</time>
      </trkpt>
      <trkpt lat="47.88985" lon="6.89395">
        <ele>726</ele>
        <time>2026-05-09T10:01:02.836Z</time>
      </trkpt>
      <trkpt lat="47.88985" lon="6.89396">
        <ele>727</ele>
        <time>2026-05-09T10:01:03.836Z</time>
      </trkpt>
      <trkpt lat="47.88985" lon="6.89398">
        <ele>727</ele>
        <time>2026-05-09T10:01:04.836Z</time>
      </trkpt>
      <trkpt lat="47.88985" lon="6.89399">
        <ele>728</ele>
        <time>2026-05-09T10:01:05.836Z</time>
      </trkpt>
      <trkpt lat="47.88986" lon="6.89401">
        <ele>728</ele>
        <time>2026-05-09T10:01:06.837Z</time>
      </trkpt>
      <trkpt lat="47.88986" lon="6.89402">
        <ele>729</ele>
        <time>2026-05-09T10:01:07.837Z</time>
      </trkpt>
      <trkpt lat="47.88986" lon="6.89404">
        <ele>729</ele>
        <time>2026-05-09T10:01:08.837Z</time>
      </trkpt>
      <trkpt lat="47.88986" lon="6.89406">
        <ele>729</ele>
        <time>2026-05-09T10:01:09.837Z</time>
      </trkpt>
      <trkpt lat="47.88986" lon="6.89407">
        <ele>730</ele>
        <time>2026-05-09T10:01:10.837Z</time>
      </trkpt>
      <trkpt lat="47.88985" lon="6.89409">
        <ele>730</ele>
        <time>2026-05-09T10:01:11.837Z</time>
      </trkpt>
      <trkpt lat="47.88984" lon="6.89411">
        <ele>730</ele>
        <time>2026-05-09T10:01:12.837Z</time>
      </trkpt>
      <trkpt lat="47.88985" lon="6.89412">
        <ele>730</ele>
        <time>2026-05-09T10:01:13.837Z</time>
      </trkpt>
      <trkpt lat="47.88985" lon="6.89414">
        <ele>730</ele>
        <time>2026-05-09T10:01:14.836Z</time>
      </trkpt>
      <trkpt lat="47.88984" lon="6.89416">
        <ele>730</ele>
        <time>2026-05-09T10:01:15.836Z</time>
      </trkpt>
      <trkpt lat="47.88984" lon="6.89418">
        <ele>729</ele>
        <time>2026-05-09T10:01:16.836Z</time>
      </trkpt>
      <trkpt lat="47.88984" lon="6.89419">
        <ele>729</ele>
        <time>2026-05-09T10:01:17.836Z</time>
      </trkpt>
      <trkpt lat="47.88984" lon="6.89421">
        <ele>729</ele>
        <time>2026-05-09T10:01:18.837Z</time>
      </trkpt>
      <trkpt lat="47.88984" lon="6.89423">
        <ele>729</ele>
        <time>2026-05-09T10:01:19.836Z</time>
      </trkpt>
      <trkpt lat="47.88984" lon="6.89424">
        <ele>729</ele>
        <time>2026-05-09T10:01:20.837Z</time>
      </trkpt>
      <trkpt lat="47.88984" lon="6.89426">
        <ele>729</ele>
        <time>2026-05-09T10:01:21.837Z</time>
      </trkpt>
      <trkpt lat="47.88984" lon="6.89428">
        <ele>729</ele>
        <time>2026-05-09T10:01:22.836Z</time>
      </trkpt>
      <trkpt lat="47.88985" lon="6.89429">
        <ele>729</ele>
        <time>2026-05-09T10:01:23.836Z</time>
      </trkpt>
      <trkpt lat="47.88985" lon="6.89431">
        <ele>729</ele>
        <time>2026-05-09T10:01:24.836Z</time>
      </trkpt>
      <trkpt lat="47.88984" lon="6.89433">
        <ele>729</ele>
        <time>2026-05-09T10:01:25.836Z</time>
      </trkpt>
      <trkpt lat="47.88984" lon="6.89435">
        <ele>729</ele>
        <time>2026-05-09T10:01:26.837Z</time>
      </trkpt>
      <trkpt lat="47.88984" lon="6.89437">
        <ele>729</ele>
        <time>2026-05-09T10:01:27.837Z</time>
      </trkpt>
      <trkpt lat="47.88984" lon="6.8944">
        <ele>729</ele>
        <time>2026-05-09T10:01:28.836Z</time>
      </trkpt>
      <trkpt lat="47.88984" lon="6.89441">
        <ele>730</ele>
        <time>2026-05-09T10:01:29.836Z</time>
      </trkpt>
      <trkpt lat="47.88983" lon="6.89443">
        <ele>730</ele>
        <time>2026-05-09T10:01:30.837Z</time>
      </trkpt>
      <trkpt lat="47.88983" lon="6.89445">
        <ele>730</ele>
        <time>2026-05-09T10:01:31.837Z</time>
      </trkpt>
      <trkpt lat="47.88983" lon="6.89447">
        <ele>730</ele>
        <time>2026-05-09T10:01:32.836Z</time>
      </trkpt>
      <trkpt lat="47.88982" lon="6.8945">
        <ele>730</ele>
        <time>2026-05-09T10:01:33.836Z</time>
      </trkpt>
      <trkpt lat="47.88982" lon="6.89452">
        <ele>730</ele>
        <time>2026-05-09T10:01:34.836Z</time>
      </trkpt>
      <trkpt lat="47.88982" lon="6.89453">
        <ele>730</ele>
        <time>2026-05-09T10:01:35.837Z</time>
      </trkpt>
      <trkpt lat="47.88982" lon="6.89455">
        <ele>730</ele>
        <time>2026-05-09T10:01:36.836Z</time>
      </trkpt>
      <trkpt lat="47.88982" lon="6.89457">
        <ele>730</ele>
        <time>2026-05-09T10:01:37.836Z</time>
      </trkpt>
      <trkpt lat="47.88982" lon="6.89459">
        <ele>730</ele>
        <time>2026-05-09T10:01:38.837Z</time>
      </trkpt>
      <trkpt lat="47.88982" lon="6.8946">
        <ele>730</ele>
        <time>2026-05-09T10:01:39.837Z</time>
      </trkpt>
      <trkpt lat="47.88982" lon="6.89462">
        <ele>730</ele>
        <time>2026-05-09T10:01:40.837Z</time>
      </trkpt>
      <trkpt lat="47.88981" lon="6.89463">
        <ele>730</ele>
        <time>2026-05-09T10:01:41.837Z</time>
      </trkpt>
      <trkpt lat="47.88981" lon="6.89465">
        <ele>730</ele>
        <time>2026-05-09T10:01:42.837Z</time>
      </trkpt>
      <trkpt lat="47.88981" lon="6.89466">
        <ele>731</ele>
        <time>2026-05-09T10:01:43.836Z</time>
      </trkpt>
      <trkpt lat="47.88981" lon="6.89468">
        <ele>731</ele>
        <time>2026-05-09T10:01:44.836Z</time>
      </trkpt>
      <trkpt lat="47.88981" lon="6.8947">
        <ele>731</ele>
        <time>2026-05-09T10:01:45.836Z</time>
      </trkpt>
      <trkpt lat="47.8898" lon="6.89471">
        <ele>731</ele>
        <time>2026-05-09T10:01:46.837Z</time>
      </trkpt>
      <trkpt lat="47.88979" lon="6.89473">
        <ele>731</ele>
        <time>2026-05-09T10:01:47.836Z</time>
      </trkpt>
      <trkpt lat="47.88979" lon="6.89474">
        <ele>731</ele>
        <time>2026-05-09T10:01:48.836Z</time>
      </trkpt>
      <trkpt lat="47.88978" lon="6.89475">
        <ele>731</ele>
        <time>2026-05-09T10:01:49.836Z</time>
      </trkpt>
      <trkpt lat="47.88978" lon="6.89477">
        <ele>731</ele>
        <time>2026-05-09T10:01:50.836Z</time>
      </trkpt>
      <trkpt lat="47.88977" lon="6.89478">
        <ele>731</ele>
        <time>2026-05-09T10:01:51.837Z</time>
      </trkpt>
      <trkpt lat="47.88977" lon="6.89481">
        <ele>731</ele>
        <time>2026-05-09T10:01:52.837Z</time>
      </trkpt>
      <trkpt lat="47.88976" lon="6.89482">
        <ele>731</ele>
        <time>2026-05-09T10:01:53.836Z</time>
      </trkpt>
      <trkpt lat="47.88976" lon="6.89483">
        <ele>731</ele>
        <time>2026-05-09T10:01:54.836Z</time>
      </trkpt>
      <trkpt lat="47.88976" lon="6.89484">
        <ele>731</ele>
        <time>2026-05-09T10:01:55.837Z</time>
      </trkpt>
      <trkpt lat="47.88976" lon="6.89486">
        <ele>731</ele>
        <time>2026-05-09T10:01:56.837Z</time>
      </trkpt>
      <trkpt lat="47.88975" lon="6.89487">
        <ele>731</ele>
        <time>2026-05-09T10:01:57.837Z</time>
      </trkpt>
      <trkpt lat="47.88975" lon="6.89489">
        <ele>731</ele>
        <time>2026-05-09T10:01:58.837Z</time>
      </trkpt>
      <trkpt lat="47.88976" lon="6.89491">
        <ele>732</ele>
        <time>2026-05-09T10:01:59.837Z</time>
      </trkpt>
      <trkpt lat="47.88976" lon="6.89493">
        <ele>732</ele>
        <time>2026-05-09T10:02:00.837Z</time>
      </trkpt>
      <trkpt lat="47.88976" lon="6.89494">
        <ele>732</ele>
        <time>2026-05-09T10:02:01.837Z</time>
      </trkpt>
      <trkpt lat="47.88975" lon="6.89496">
        <ele>732</ele>
        <time>2026-05-09T10:02:02.837Z</time>
      </trkpt>
      <trkpt lat="47.88975" lon="6.89497">
        <ele>732</ele>
        <time>2026-05-09T10:02:03.837Z</time>
      </trkpt>
      <trkpt lat="47.88974" lon="6.89499">
        <ele>732</ele>
        <time>2026-05-09T10:02:04.836Z</time>
      </trkpt>
      <trkpt lat="47.88973" lon="6.89501">
        <ele>732</ele>
        <time>2026-05-09T10:02:05.836Z</time>
      </trkpt>
      <trkpt lat="47.88973" lon="6.89503">
        <ele>733</ele>
        <time>2026-05-09T10:02:06.836Z</time>
      </trkpt>
      <trkpt lat="47.88972" lon="6.89504">
        <ele>733</ele>
        <time>2026-05-09T10:02:07.836Z</time>
      </trkpt>
      <trkpt lat="47.88971" lon="6.89506">
        <ele>733</ele>
        <time>2026-05-09T10:02:08.836Z</time>
      </trkpt>
      <trkpt lat="47.88971" lon="6.89507">
        <ele>733</ele>
        <time>2026-05-09T10:02:09.836Z</time>
      </trkpt>
      <trkpt lat="47.8897" lon="6.89509">
        <ele>733</ele>
        <time>2026-05-09T10:02:10.836Z</time>
      </trkpt>
      <trkpt lat="47.8897" lon="6.89511">
        <ele>733</ele>
        <time>2026-05-09T10:02:11.836Z</time>
      </trkpt>
      <trkpt lat="47.88969" lon="6.89512">
        <ele>733</ele>
        <time>2026-05-09T10:02:12.836Z</time>
      </trkpt>
      <trkpt lat="47.88969" lon="6.89514">
        <ele>733</ele>
        <time>2026-05-09T10:02:13.837Z</time>
      </trkpt>
      <trkpt lat="47.88968" lon="6.89515">
        <ele>733</ele>
        <time>2026-05-09T10:02:14.837Z</time>
      </trkpt>
      <trkpt lat="47.88967" lon="6.89517">
        <ele>733</ele>
        <time>2026-05-09T10:02:15.837Z</time>
      </trkpt>
      <trkpt lat="47.88966" lon="6.89518">
        <ele>734</ele>
        <time>2026-05-09T10:02:16.836Z</time>
      </trkpt>
      <trkpt lat="47.88966" lon="6.89521">
        <ele>734</ele>
        <time>2026-05-09T10:02:17.836Z</time>
      </trkpt>
      <trkpt lat="47.88965" lon="6.89522">
        <ele>734</ele>
        <time>2026-05-09T10:02:18.836Z</time>
      </trkpt>
      <trkpt lat="47.88964" lon="6.89524">
        <ele>734</ele>
        <time>2026-05-09T10:02:19.836Z</time>
      </trkpt>
      <trkpt lat="47.88964" lon="6.89526">
        <ele>734</ele>
        <time>2026-05-09T10:02:20.836Z</time>
      </trkpt>
      <trkpt lat="47.88963" lon="6.89528">
        <ele>733</ele>
        <time>2026-05-09T10:02:21.836Z</time>
      </trkpt>
      <trkpt lat="47.88962" lon="6.8953">
        <ele>733</ele>
        <time>2026-05-09T10:02:22.837Z</time>
      </trkpt>
      <trkpt lat="47.88962" lon="6.89532">
        <ele>732</ele>
        <time>2026-05-09T10:02:23.837Z</time>
      </trkpt>
      <trkpt lat="47.88961" lon="6.89533">
        <ele>732</ele>
        <time>2026-05-09T10:02:24.837Z</time>
      </trkpt>
      <trkpt lat="47.8896" lon="6.89535">
        <ele>732</ele>
        <time>2026-05-09T10:02:25.837Z</time>
      </trkpt>
      <trkpt lat="47.8896" lon="6.89536">
        <ele>731</ele>
        <time>2026-05-09T10:02:26.837Z</time>
      </trkpt>
      <trkpt lat="47.8896" lon="6.89538">
        <ele>731</ele>
        <time>2026-05-09T10:02:27.837Z</time>
      </trkpt>
      <trkpt lat="47.88959" lon="6.89539">
        <ele>731</ele>
        <time>2026-05-09T10:02:28.836Z</time>
      </trkpt>
      <trkpt lat="47.88959" lon="6.89542">
        <ele>731</ele>
        <time>2026-05-09T10:02:29.837Z</time>
      </trkpt>
      <trkpt lat="47.88958" lon="6.89544">
        <ele>730</ele>
        <time>2026-05-09T10:02:30.837Z</time>
      </trkpt>
      <trkpt lat="47.88957" lon="6.89546">
        <ele>729</ele>
        <time>2026-05-09T10:02:31.836Z</time>
      </trkpt>
      <trkpt lat="47.88956" lon="6.89549">
        <ele>729</ele>
        <time>2026-05-09T10:02:32.837Z</time>
      </trkpt>
      <trkpt lat="47.88956" lon="6.8955">
        <ele>728</ele>
        <time>2026-05-09T10:02:33.836Z</time>
      </trkpt>
      <trkpt lat="47.88957" lon="6.89552">
        <ele>727</ele>
        <time>2026-05-09T10:02:34.836Z</time>
      </trkpt>
      <trkpt lat="47.88957" lon="6.89554">
        <ele>727</ele>
        <time>2026-05-09T10:02:35.836Z</time>
      </trkpt>
      <trkpt lat="47.88958" lon="6.89556">
        <ele>727</ele>
        <time>2026-05-09T10:02:36.836Z</time>
      </trkpt>
      <trkpt lat="47.88959" lon="6.89558">
        <ele>726</ele>
        <time>2026-05-09T10:02:37.837Z</time>
      </trkpt>
      <trkpt lat="47.88959" lon="6.8956">
        <ele>726</ele>
        <time>2026-05-09T10:02:38.836Z</time>
      </trkpt>
      <trkpt lat="47.88959" lon="6.89562">
        <ele>726</ele>
        <time>2026-05-09T10:02:39.836Z</time>
      </trkpt>
      <trkpt lat="47.88959" lon="6.89565">
        <ele>725</ele>
        <time>2026-05-09T10:02:40.836Z</time>
      </trkpt>
      <trkpt lat="47.88959" lon="6.89566">
        <ele>725</ele>
        <time>2026-05-09T10:02:41.837Z</time>
      </trkpt>
      <trkpt lat="47.88959" lon="6.89568">
        <ele>724</ele>
        <time>2026-05-09T10:02:42.837Z</time>
      </trkpt>
      <trkpt lat="47.88959" lon="6.8957">
        <ele>724</ele>
        <time>2026-05-09T10:02:43.837Z</time>
      </trkpt>
      <trkpt lat="47.88959" lon="6.89572">
        <ele>723</ele>
        <time>2026-05-09T10:02:44.837Z</time>
      </trkpt>
      <trkpt lat="47.88958" lon="6.89574">
        <ele>723</ele>
        <time>2026-05-09T10:02:45.837Z</time>
      </trkpt>
      <trkpt lat="47.88959" lon="6.89576">
        <ele>723</ele>
        <time>2026-05-09T10:02:46.836Z</time>
      </trkpt>
      <trkpt lat="47.88959" lon="6.89579">
        <ele>723</ele>
        <time>2026-05-09T10:02:47.836Z</time>
      </trkpt>
      <trkpt lat="47.8896" lon="6.89582">
        <ele>723</ele>
        <time>2026-05-09T10:02:48.836Z</time>
      </trkpt>
      <trkpt lat="47.8896" lon="6.89584">
        <ele>723</ele>
        <time>2026-05-09T10:02:49.836Z</time>
      </trkpt>
      <trkpt lat="47.88959" lon="6.89587">
        <ele>722</ele>
        <time>2026-05-09T10:02:50.836Z</time>
      </trkpt>
      <trkpt lat="47.8896" lon="6.89589">
        <ele>722</ele>
        <time>2026-05-09T10:02:51.836Z</time>
      </trkpt>
      <trkpt lat="47.88959" lon="6.89591">
        <ele>722</ele>
        <time>2026-05-09T10:02:52.836Z</time>
      </trkpt>
      <trkpt lat="47.88959" lon="6.89594">
        <ele>722</ele>
        <time>2026-05-09T10:02:53.836Z</time>
      </trkpt>
      <trkpt lat="47.88959" lon="6.89596">
        <ele>722</ele>
        <time>2026-05-09T10:02:54.837Z</time>
      </trkpt>
      <trkpt lat="47.88958" lon="6.89598">
        <ele>722</ele>
        <time>2026-05-09T10:02:55.836Z</time>
      </trkpt>
      <trkpt lat="47.88958" lon="6.896">
        <ele>722</ele>
        <time>2026-05-09T10:02:56.836Z</time>
      </trkpt>
      <trkpt lat="47.88958" lon="6.89602">
        <ele>722</ele>
        <time>2026-05-09T10:02:57.837Z</time>
      </trkpt>
      <trkpt lat="47.88958" lon="6.89604">
        <ele>722</ele>
        <time>2026-05-09T10:02:58.837Z</time>
      </trkpt>
      <trkpt lat="47.88958" lon="6.89605">
        <ele>722</ele>
        <time>2026-05-09T10:02:59.837Z</time>
      </trkpt>
      <trkpt lat="47.88958" lon="6.89607">
        <ele>722</ele>
        <time>2026-05-09T10:03:00.837Z</time>
      </trkpt>
      <trkpt lat="47.88958" lon="6.89608">
        <ele>722</ele>
        <time>2026-05-09T10:03:01.836Z</time>
      </trkpt>
      <trkpt lat="47.88958" lon="6.8961">
        <ele>722</ele>
        <time>2026-05-09T10:03:02.836Z</time>
      </trkpt>
      <trkpt lat="47.88958" lon="6.8961">
        <ele>723</ele>
        <time>2026-05-09T10:03:03.837Z</time>
      </trkpt>
      <trkpt lat="47.88957" lon="6.89612">
        <ele>723</ele>
        <time>2026-05-09T10:03:04.836Z</time>
      </trkpt>
      <trkpt lat="47.88957" lon="6.89613">
        <ele>723</ele>
        <time>2026-05-09T10:03:05.836Z</time>
      </trkpt>
      <trkpt lat="47.88957" lon="6.89615">
        <ele>723</ele>
        <time>2026-05-09T10:03:06.837Z</time>
      </trkpt>
      <trkpt lat="47.88957" lon="6.89617">
        <ele>724</ele>
        <time>2026-05-09T10:03:07.836Z</time>
      </trkpt>
      <trkpt lat="47.88958" lon="6.89618">
        <ele>724</ele>
        <time>2026-05-09T10:03:08.837Z</time>
      </trkpt>
      <trkpt lat="47.88958" lon="6.8962">
        <ele>724</ele>
        <time>2026-05-09T10:03:09.837Z</time>
      </trkpt>
      <trkpt lat="47.88958" lon="6.89621">
        <ele>725</ele>
        <time>2026-05-09T10:03:10.837Z</time>
      </trkpt>
      <trkpt lat="47.88959" lon="6.89624">
        <ele>725</ele>
        <time>2026-05-09T10:03:11.836Z</time>
      </trkpt>
      <trkpt lat="47.88958" lon="6.89626">
        <ele>725</ele>
        <time>2026-05-09T10:03:12.836Z</time>
      </trkpt>
      <trkpt lat="47.88958" lon="6.89628">
        <ele>726</ele>
        <time>2026-05-09T10:03:13.836Z</time>
      </trkpt>
      <trkpt lat="47.88959" lon="6.8963">
        <ele>726</ele>
        <time>2026-05-09T10:03:14.837Z</time>
      </trkpt>
      <trkpt lat="47.88958" lon="6.89632">
        <ele>726</ele>
        <time>2026-05-09T10:03:15.836Z</time>
      </trkpt>
      <trkpt lat="47.88958" lon="6.89633">
        <ele>727</ele>
        <time>2026-05-09T10:03:16.836Z</time>
      </trkpt>
      <trkpt lat="47.88958" lon="6.89635">
        <ele>727</ele>
        <time>2026-05-09T10:03:17.836Z</time>
      </trkpt>
      <trkpt lat="47.88959" lon="6.89637">
        <ele>727</ele>
        <time>2026-05-09T10:03:18.836Z</time>
      </trkpt>
      <trkpt lat="47.88959" lon="6.89639">
        <ele>728</ele>
        <time>2026-05-09T10:03:19.837Z</time>
      </trkpt>
      <trkpt lat="47.88959" lon="6.8964">
        <ele>728</ele>
        <time>2026-05-09T10:03:20.836Z</time>
      </trkpt>
      <trkpt lat="47.88959" lon="6.8964">
        <ele>728</ele>
        <time>2026-05-09T10:03:21.836Z</time>
      </trkpt>
      <trkpt lat="47.88959" lon="6.89641">
        <ele>729</ele>
        <time>2026-05-09T10:03:22.837Z</time>
      </trkpt>
      <trkpt lat="47.88959" lon="6.89641">
        <ele>729</ele>
        <time>2026-05-09T10:03:23.837Z</time>
      </trkpt>
      <trkpt lat="47.88961" lon="6.89647">
        <ele>731</ele>
        <time>2026-05-09T10:03:30.288Z</time>
      </trkpt>
      <trkpt lat="47.88962" lon="6.89649">
        <ele>733</ele>
        <time>2026-05-09T10:03:31.288Z</time>
      </trkpt>
      <trkpt lat="47.88962" lon="6.8965">
        <ele>733</ele>
        <time>2026-05-09T10:03:32.289Z</time>
      </trkpt>
      <trkpt lat="47.88962" lon="6.8965">
        <ele>733</ele>
        <time>2026-05-09T10:03:33.288Z</time>
      </trkpt>
      <trkpt lat="47.88963" lon="6.89651">
        <ele>734</ele>
        <time>2026-05-09T10:03:34.288Z</time>
      </trkpt>
      <trkpt lat="47.88963" lon="6.89652">
        <ele>734</ele>
        <time>2026-05-09T10:03:35.289Z</time>
      </trkpt>
      <trkpt lat="47.88965" lon="6.89654">
        <ele>736</ele>
        <time>2026-05-09T10:03:36.288Z</time>
      </trkpt>
      <trkpt lat="47.88965" lon="6.89655">
        <ele>736</ele>
        <time>2026-05-09T10:03:37.288Z</time>
      </trkpt>
      <trkpt lat="47.88965" lon="6.89655">
        <ele>736</ele>
        <time>2026-05-09T10:03:38.288Z</time>
      </trkpt>
      <trkpt lat="47.88965" lon="6.89656">
        <ele>737</ele>
        <time>2026-05-09T10:03:39.288Z</time>
      </trkpt>
      <trkpt lat="47.88966" lon="6.89658">
        <ele>737</ele>
        <time>2026-05-09T10:03:40.288Z</time>
      </trkpt>
      <trkpt lat="47.88966" lon="6.89662">
        <ele>738</ele>
        <time>2026-05-09T10:03:41.288Z</time>
      </trkpt>
      <trkpt lat="47.88966" lon="6.89662">
        <ele>738</ele>
        <time>2026-05-09T10:03:42.289Z</time>
      </trkpt>
      <trkpt lat="47.88966" lon="6.89662">
        <ele>738</ele>
        <time>2026-05-09T10:03:43.289Z</time>
      </trkpt>
      <trkpt lat="47.88966" lon="6.89662">
        <ele>738</ele>
        <time>2026-05-09T10:03:44.288Z</time>
      </trkpt>
      <trkpt lat="47.88965" lon="6.89661">
        <ele>738</ele>
        <time>2026-05-09T10:03:45.288Z</time>
      </trkpt>
      <trkpt lat="47.88964" lon="6.89659">
        <ele>738</ele>
        <time>2026-05-09T10:03:46.288Z</time>
      </trkpt>
      <trkpt lat="47.88964" lon="6.89659">
        <ele>738</ele>
        <time>2026-05-09T10:03:47.289Z</time>
      </trkpt>
      <trkpt lat="47.88964" lon="6.89659">
        <ele>738</ele>
        <time>2026-05-09T10:03:48.288Z</time>
      </trkpt>
      <trkpt lat="47.88965" lon="6.89658">
        <ele>738</ele>
        <time>2026-05-09T10:03:49.288Z</time>
      </trkpt>
      <trkpt lat="47.88965" lon="6.89657">
        <ele>738</ele>
        <time>2026-05-09T10:03:50.289Z</time>
      </trkpt>
      <trkpt lat="47.88965" lon="6.89656">
        <ele>738</ele>
        <time>2026-05-09T10:03:51.289Z</time>
      </trkpt>
      <trkpt lat="47.88965" lon="6.89655">
        <ele>738</ele>
        <time>2026-05-09T10:03:52.289Z</time>
      </trkpt>
      <trkpt lat="47.88965" lon="6.89655">
        <ele>738</ele>
        <time>2026-05-09T10:03:53.288Z</time>
      </trkpt>
      <trkpt lat="47.88965" lon="6.89653">
        <ele>737</ele>
        <time>2026-05-09T10:03:54.288Z</time>
      </trkpt>
      <trkpt lat="47.88965" lon="6.89652">
        <ele>737</ele>
        <time>2026-05-09T10:03:55.288Z</time>
      </trkpt>
      <trkpt lat="47.88966" lon="6.8965">
        <ele>736</ele>
        <time>2026-05-09T10:03:56.288Z</time>
      </trkpt>
      <trkpt lat="47.88965" lon="6.89649">
        <ele>736</ele>
        <time>2026-05-09T10:03:57.288Z</time>
      </trkpt>
      <trkpt lat="47.88965" lon="6.89649">
        <ele>736</ele>
        <time>2026-05-09T10:03:58.288Z</time>
      </trkpt>
      <trkpt lat="47.88965" lon="6.89648">
        <ele>735</ele>
        <time>2026-05-09T10:03:59.288Z</time>
      </trkpt>
      <trkpt lat="47.88965" lon="6.89647">
        <ele>735</ele>
        <time>2026-05-09T10:04:00.288Z</time>
      </trkpt>
      <trkpt lat="47.88966" lon="6.89643">
        <ele>734</ele>
        <time>2026-05-09T10:04:01.288Z</time>
      </trkpt>
      <trkpt lat="47.88966" lon="6.89642">
        <ele>734</ele>
        <time>2026-05-09T10:04:02.289Z</time>
      </trkpt>
      <trkpt lat="47.88966" lon="6.89642">
        <ele>734</ele>
        <time>2026-05-09T10:04:03.289Z</time>
      </trkpt>
      <trkpt lat="47.88966" lon="6.8964">
        <ele>734</ele>
        <time>2026-05-09T10:04:04.289Z</time>
      </trkpt>
      <trkpt lat="47.88965" lon="6.89638">
        <ele>734</ele>
        <time>2026-05-09T10:04:05.288Z</time>
      </trkpt>
      <trkpt lat="47.88965" lon="6.89635">
        <ele>733</ele>
        <time>2026-05-09T10:04:06.289Z</time>
      </trkpt>
      <trkpt lat="47.88965" lon="6.89633">
        <ele>733</ele>
        <time>2026-05-09T10:04:07.288Z</time>
      </trkpt>
      <trkpt lat="47.88965" lon="6.89633">
        <ele>733</ele>
        <time>2026-05-09T10:04:08.288Z</time>
      </trkpt>
      <trkpt lat="47.88966" lon="6.89632">
        <ele>733</ele>
        <time>2026-05-09T10:04:09.288Z</time>
      </trkpt>
      <trkpt lat="47.88966" lon="6.89631">
        <ele>733</ele>
        <time>2026-05-09T10:04:10.288Z</time>
      </trkpt>
      <trkpt lat="47.88967" lon="6.89629">
        <ele>733</ele>
        <time>2026-05-09T10:04:11.288Z</time>
      </trkpt>
      <trkpt lat="47.88968" lon="6.89628">
        <ele>733</ele>
        <time>2026-05-09T10:04:12.288Z</time>
      </trkpt>
      <trkpt lat="47.88968" lon="6.89628">
        <ele>733</ele>
        <time>2026-05-09T10:04:13.288Z</time>
      </trkpt>
      <trkpt lat="47.88968" lon="6.89627">
        <ele>733</ele>
        <time>2026-05-09T10:04:14.289Z</time>
      </trkpt>
      <trkpt lat="47.88969" lon="6.89626">
        <ele>733</ele>
        <time>2026-05-09T10:04:15.288Z</time>
      </trkpt>
      <trkpt lat="47.8897" lon="6.89624">
        <ele>733</ele>
        <time>2026-05-09T10:04:16.288Z</time>
      </trkpt>
      <trkpt lat="47.8897" lon="6.89623">
        <ele>733</ele>
        <time>2026-05-09T10:04:17.288Z</time>
      </trkpt>
      <trkpt lat="47.88971" lon="6.89622">
        <ele>734</ele>
        <time>2026-05-09T10:04:18.288Z</time>
      </trkpt>
      <trkpt lat="47.88971" lon="6.8962">
        <ele>734</ele>
        <time>2026-05-09T10:04:19.289Z</time>
      </trkpt>
      <trkpt lat="47.88971" lon="6.89619">
        <ele>734</ele>
        <time>2026-05-09T10:04:20.288Z</time>
      </trkpt>
      <trkpt lat="47.88971" lon="6.89617">
        <ele>735</ele>
        <time>2026-05-09T10:04:21.288Z</time>
      </trkpt>
      <trkpt lat="47.88972" lon="6.89616">
        <ele>735</ele>
        <time>2026-05-09T10:04:22.288Z</time>
      </trkpt>
      <trkpt lat="47.88972" lon="6.89615">
        <ele>736</ele>
        <time>2026-05-09T10:04:23.289Z</time>
      </trkpt>
      <trkpt lat="47.88973" lon="6.89613">
        <ele>736</ele>
        <time>2026-05-09T10:04:24.288Z</time>
      </trkpt>
      <trkpt lat="47.88973" lon="6.89612">
        <ele>736</ele>
        <time>2026-05-09T10:04:25.288Z</time>
      </trkpt>
      <trkpt lat="47.88974" lon="6.89611">
        <ele>737</ele>
        <time>2026-05-09T10:04:26.288Z</time>
      </trkpt>
      <trkpt lat="47.88974" lon="6.8961">
        <ele>737</ele>
        <time>2026-05-09T10:04:27.289Z</time>
      </trkpt>
      <trkpt lat="47.88975" lon="6.8961">
        <ele>737</ele>
        <time>2026-05-09T10:04:28.288Z</time>
      </trkpt>
      <trkpt lat="47.88975" lon="6.8961">
        <ele>737</ele>
        <time>2026-05-09T10:04:29.288Z</time>
      </trkpt>
      <trkpt lat="47.88976" lon="6.8961">
        <ele>737</ele>
        <time>2026-05-09T10:04:30.289Z</time>
      </trkpt>
      <trkpt lat="47.88976" lon="6.89611">
        <ele>738</ele>
        <time>2026-05-09T10:04:31.289Z</time>
      </trkpt>
      <trkpt lat="47.88976" lon="6.89611">
        <ele>738</ele>
        <time>2026-05-09T10:04:32.288Z</time>
      </trkpt>
      <trkpt lat="47.88976" lon="6.89612">
        <ele>738</ele>
        <time>2026-05-09T10:04:33.288Z</time>
      </trkpt>
      <trkpt lat="47.88976" lon="6.89614">
        <ele>738</ele>
        <time>2026-05-09T10:04:34.289Z</time>
      </trkpt>
      <trkpt lat="47.88977" lon="6.89615">
        <ele>738</ele>
        <time>2026-05-09T10:04:35.288Z</time>
      </trkpt>
      <trkpt lat="47.88978" lon="6.89617">
        <ele>738</ele>
        <time>2026-05-09T10:04:36.289Z</time>
      </trkpt>
      <trkpt lat="47.88979" lon="6.89619">
        <ele>738</ele>
        <time>2026-05-09T10:04:37.289Z</time>
      </trkpt>
      <trkpt lat="47.8898" lon="6.89621">
        <ele>738</ele>
        <time>2026-05-09T10:04:38.288Z</time>
      </trkpt>
      <trkpt lat="47.8898" lon="6.89622">
        <ele>738</ele>
        <time>2026-05-09T10:04:39.288Z</time>
      </trkpt>
      <trkpt lat="47.88981" lon="6.89624">
        <ele>737</ele>
        <time>2026-05-09T10:04:40.289Z</time>
      </trkpt>
      <trkpt lat="47.88982" lon="6.89626">
        <ele>737</ele>
        <time>2026-05-09T10:04:41.288Z</time>
      </trkpt>
      <trkpt lat="47.88982" lon="6.89628">
        <ele>737</ele>
        <time>2026-05-09T10:04:42.288Z</time>
      </trkpt>
      <trkpt lat="47.88982" lon="6.8963">
        <ele>737</ele>
        <time>2026-05-09T10:04:43.289Z</time>
      </trkpt>
      <trkpt lat="47.88983" lon="6.89631">
        <ele>737</ele>
        <time>2026-05-09T10:04:44.288Z</time>
      </trkpt>
      <trkpt lat="47.88983" lon="6.89632">
        <ele>737</ele>
        <time>2026-05-09T10:04:45.289Z</time>
      </trkpt>
      <trkpt lat="47.88983" lon="6.89633">
        <ele>737</ele>
        <time>2026-05-09T10:04:46.288Z</time>
      </trkpt>
      <trkpt lat="47.88984" lon="6.89635">
        <ele>737</ele>
        <time>2026-05-09T10:04:47.288Z</time>
      </trkpt>
      <trkpt lat="47.88984" lon="6.89636">
        <ele>737</ele>
        <time>2026-05-09T10:04:48.288Z</time>
      </trkpt>
      <trkpt lat="47.88984" lon="6.89637">
        <ele>738</ele>
        <time>2026-05-09T10:04:49.289Z</time>
      </trkpt>
      <trkpt lat="47.88985" lon="6.89638">
        <ele>738</ele>
        <time>2026-05-09T10:04:50.288Z</time>
      </trkpt>
      <trkpt lat="47.88986" lon="6.8964">
        <ele>738</ele>
        <time>2026-05-09T10:04:51.289Z</time>
      </trkpt>
      <trkpt lat="47.88986" lon="6.89643">
        <ele>738</ele>
        <time>2026-05-09T10:04:52.289Z</time>
      </trkpt>
      <trkpt lat="47.88986" lon="6.89643">
        <ele>738</ele>
        <time>2026-05-09T10:04:53.288Z</time>
      </trkpt>
      <trkpt lat="47.88986" lon="6.89644">
        <ele>738</ele>
        <time>2026-05-09T10:04:54.288Z</time>
      </trkpt>
      <trkpt lat="47.88985" lon="6.89646">
        <ele>738</ele>
        <time>2026-05-09T10:04:55.289Z</time>
      </trkpt>
      <trkpt lat="47.88984" lon="6.89647">
        <ele>738</ele>
        <time>2026-05-09T10:04:56.288Z</time>
      </trkpt>
      <trkpt lat="47.88983" lon="6.89649">
        <ele>739</ele>
        <time>2026-05-09T10:04:57.288Z</time>
      </trkpt>
      <trkpt lat="47.88983" lon="6.89651">
        <ele>739</ele>
        <time>2026-05-09T10:04:58.288Z</time>
      </trkpt>
      <trkpt lat="47.88983" lon="6.89652">
        <ele>739</ele>
        <time>2026-05-09T10:04:59.288Z</time>
      </trkpt>
      <trkpt lat="47.88983" lon="6.89654">
        <ele>740</ele>
        <time>2026-05-09T10:05:00.289Z</time>
      </trkpt>
      <trkpt lat="47.88983" lon="6.89656">
        <ele>740</ele>
        <time>2026-05-09T10:05:01.288Z</time>
      </trkpt>
      <trkpt lat="47.88983" lon="6.89657">
        <ele>740</ele>
        <time>2026-05-09T10:05:02.288Z</time>
      </trkpt>
      <trkpt lat="47.88983" lon="6.89659">
        <ele>740</ele>
        <time>2026-05-09T10:05:03.288Z</time>
      </trkpt>
      <trkpt lat="47.88983" lon="6.89659">
        <ele>740</ele>
        <time>2026-05-09T10:05:04.288Z</time>
      </trkpt>
      <trkpt lat="47.88984" lon="6.89662">
        <ele>740</ele>
        <time>2026-05-09T10:05:05.288Z</time>
      </trkpt>
      <trkpt lat="47.88983" lon="6.89663">
        <ele>740</ele>
        <time>2026-05-09T10:05:06.288Z</time>
      </trkpt>
      <trkpt lat="47.88983" lon="6.89663">
        <ele>741</ele>
        <time>2026-05-09T10:05:07.288Z</time>
      </trkpt>
      <trkpt lat="47.88983" lon="6.89663">
        <ele>741</ele>
        <time>2026-05-09T10:05:08.288Z</time>
      </trkpt>
      <trkpt lat="47.88983" lon="6.89663">
        <ele>741</ele>
        <time>2026-05-09T10:05:09.288Z</time>
      </trkpt>
      <trkpt lat="47.88983" lon="6.8967">
        <ele>744</ele>
        <time>2026-05-09T10:05:19.408Z</time>
      </trkpt>
      <trkpt lat="47.88984" lon="6.89672">
        <ele>745</ele>
        <time>2026-05-09T10:05:20.409Z</time>
      </trkpt>
      <trkpt lat="47.88983" lon="6.89673">
        <ele>745</ele>
        <time>2026-05-09T10:05:21.408Z</time>
      </trkpt>
      <trkpt lat="47.88983" lon="6.89674">
        <ele>746</ele>
        <time>2026-05-09T10:05:22.408Z</time>
      </trkpt>
      <trkpt lat="47.88983" lon="6.89676">
        <ele>746</ele>
        <time>2026-05-09T10:05:23.409Z</time>
      </trkpt>
      <trkpt lat="47.88982" lon="6.89677">
        <ele>746</ele>
        <time>2026-05-09T10:05:24.408Z</time>
      </trkpt>
      <trkpt lat="47.88982" lon="6.89678">
        <ele>747</ele>
        <time>2026-05-09T10:05:25.408Z</time>
      </trkpt>
      <trkpt lat="47.88981" lon="6.89679">
        <ele>747</ele>
        <time>2026-05-09T10:05:26.408Z</time>
      </trkpt>
      <trkpt lat="47.88981" lon="6.8968">
        <ele>747</ele>
        <time>2026-05-09T10:05:27.409Z</time>
      </trkpt>
      <trkpt lat="47.88981" lon="6.89681">
        <ele>747</ele>
        <time>2026-05-09T10:05:28.409Z</time>
      </trkpt>
      <trkpt lat="47.88982" lon="6.89682">
        <ele>748</ele>
        <time>2026-05-09T10:05:29.408Z</time>
      </trkpt>
      <trkpt lat="47.88983" lon="6.89683">
        <ele>748</ele>
        <time>2026-05-09T10:05:30.408Z</time>
      </trkpt>
      <trkpt lat="47.88983" lon="6.89685">
        <ele>748</ele>
        <time>2026-05-09T10:05:31.409Z</time>
      </trkpt>
      <trkpt lat="47.88984" lon="6.89686">
        <ele>749</ele>
        <time>2026-05-09T10:05:32.408Z</time>
      </trkpt>
      <trkpt lat="47.88984" lon="6.89686">
        <ele>749</ele>
        <time>2026-05-09T10:05:33.408Z</time>
      </trkpt>
      <trkpt lat="47.88983" lon="6.89686">
        <ele>749</ele>
        <time>2026-05-09T10:05:34.408Z</time>
      </trkpt>
      <trkpt lat="47.88983" lon="6.89687">
        <ele>750</ele>
        <time>2026-05-09T10:05:35.409Z</time>
      </trkpt>
      <trkpt lat="47.88983" lon="6.89689">
        <ele>750</ele>
        <time>2026-05-09T10:05:36.408Z</time>
      </trkpt>
      <trkpt lat="47.88983" lon="6.89691">
        <ele>750</ele>
        <time>2026-05-09T10:05:37.408Z</time>
      </trkpt>
      <trkpt lat="47.88983" lon="6.89693">
        <ele>750</ele>
        <time>2026-05-09T10:05:38.408Z</time>
      </trkpt>
      <trkpt lat="47.88983" lon="6.89695">
        <ele>751</ele>
        <time>2026-05-09T10:05:39.409Z</time>
      </trkpt>
      <trkpt lat="47.88984" lon="6.89697">
        <ele>751</ele>
        <time>2026-05-09T10:05:40.408Z</time>
      </trkpt>
      <trkpt lat="47.88985" lon="6.89698">
        <ele>751</ele>
        <time>2026-05-09T10:05:41.409Z</time>
      </trkpt>
      <trkpt lat="47.88985" lon="6.89699">
        <ele>751</ele>
        <time>2026-05-09T10:05:42.408Z</time>
      </trkpt>
      <trkpt lat="47.88986" lon="6.89701">
        <ele>752</ele>
        <time>2026-05-09T10:05:43.408Z</time>
      </trkpt>
      <trkpt lat="47.88986" lon="6.89702">
        <ele>752</ele>
        <time>2026-05-09T10:05:44.408Z</time>
      </trkpt>
      <trkpt lat="47.88987" lon="6.89703">
        <ele>752</ele>
        <time>2026-05-09T10:05:45.409Z</time>
      </trkpt>
      <trkpt lat="47.88987" lon="6.89705">
        <ele>753</ele>
        <time>2026-05-09T10:05:46.408Z</time>
      </trkpt>
      <trkpt lat="47.88988" lon="6.89706">
        <ele>753</ele>
        <time>2026-05-09T10:05:47.408Z</time>
      </trkpt>
      <trkpt lat="47.88989" lon="6.89706">
        <ele>753</ele>
        <time>2026-05-09T10:05:48.409Z</time>
      </trkpt>
      <trkpt lat="47.88989" lon="6.89706">
        <ele>753</ele>
        <time>2026-05-09T10:05:49.408Z</time>
      </trkpt>
      <trkpt lat="47.88989" lon="6.89708">
        <ele>754</ele>
        <time>2026-05-09T10:05:50.408Z</time>
      </trkpt>
      <trkpt lat="47.88989" lon="6.8971">
        <ele>754</ele>
        <time>2026-05-09T10:05:51.409Z</time>
      </trkpt>
      <trkpt lat="47.8899" lon="6.89713">
        <ele>754</ele>
        <time>2026-05-09T10:05:52.408Z</time>
      </trkpt>
      <trkpt lat="47.88991" lon="6.89715">
        <ele>755</ele>
        <time>2026-05-09T10:05:53.408Z</time>
      </trkpt>
      <trkpt lat="47.88992" lon="6.89717">
        <ele>755</ele>
        <time>2026-05-09T10:05:54.408Z</time>
      </trkpt>
      <trkpt lat="47.88992" lon="6.89719">
        <ele>756</ele>
        <time>2026-05-09T10:05:55.409Z</time>
      </trkpt>
      <trkpt lat="47.88992" lon="6.8972">
        <ele>756</ele>
        <time>2026-05-09T10:05:56.408Z</time>
      </trkpt>
      <trkpt lat="47.88993" lon="6.89722">
        <ele>757</ele>
        <time>2026-05-09T10:05:57.408Z</time>
      </trkpt>
      <trkpt lat="47.88993" lon="6.89723">
        <ele>757</ele>
        <time>2026-05-09T10:05:58.408Z</time>
      </trkpt>
      <trkpt lat="47.88994" lon="6.89725">
        <ele>758</ele>
        <time>2026-05-09T10:05:59.408Z</time>
      </trkpt>
      <trkpt lat="47.88995" lon="6.89725">
        <ele>758</ele>
        <time>2026-05-09T10:06:00.409Z</time>
      </trkpt>
      <trkpt lat="47.88995" lon="6.89726">
        <ele>759</ele>
        <time>2026-05-09T10:06:01.408Z</time>
      </trkpt>
      <trkpt lat="47.88995" lon="6.89726">
        <ele>759</ele>
        <time>2026-05-09T10:06:02.409Z</time>
      </trkpt>
      <trkpt lat="47.88995" lon="6.89726">
        <ele>760</ele>
        <time>2026-05-09T10:06:03.408Z</time>
      </trkpt>
      <trkpt lat="47.88996" lon="6.89726">
        <ele>760</ele>
        <time>2026-05-09T10:06:04.408Z</time>
      </trkpt>
      <trkpt lat="47.88997" lon="6.89727">
        <ele>761</ele>
        <time>2026-05-09T10:06:05.408Z</time>
      </trkpt>
      <trkpt lat="47.88998" lon="6.89728">
        <ele>761</ele>
        <time>2026-05-09T10:06:06.409Z</time>
      </trkpt>
      <trkpt lat="47.89" lon="6.89729">
        <ele>762</ele>
        <time>2026-05-09T10:06:07.409Z</time>
      </trkpt>
      <trkpt lat="47.89001" lon="6.89731">
        <ele>762</ele>
        <time>2026-05-09T10:06:08.408Z</time>
      </trkpt>
      <trkpt lat="47.89" lon="6.89733">
        <ele>762</ele>
        <time>2026-05-09T10:06:09.409Z</time>
      </trkpt>
      <trkpt lat="47.89" lon="6.89735">
        <ele>763</ele>
        <time>2026-05-09T10:06:10.408Z</time>
      </trkpt>
      <trkpt lat="47.88999" lon="6.89737">
        <ele>763</ele>
        <time>2026-05-09T10:06:11.408Z</time>
      </trkpt>
      <trkpt lat="47.88999" lon="6.89739">
        <ele>763</ele>
        <time>2026-05-09T10:06:12.408Z</time>
      </trkpt>
      <trkpt lat="47.88999" lon="6.89741">
        <ele>763</ele>
        <time>2026-05-09T10:06:13.408Z</time>
      </trkpt>
      <trkpt lat="47.88999" lon="6.89743">
        <ele>764</ele>
        <time>2026-05-09T10:06:14.408Z</time>
      </trkpt>
      <trkpt lat="47.88999" lon="6.89745">
        <ele>764</ele>
        <time>2026-05-09T10:06:15.408Z</time>
      </trkpt>
      <trkpt lat="47.89001" lon="6.89747">
        <ele>764</ele>
        <time>2026-05-09T10:06:16.408Z</time>
      </trkpt>
      <trkpt lat="47.89002" lon="6.89749">
        <ele>764</ele>
        <time>2026-05-09T10:06:17.409Z</time>
      </trkpt>
      <trkpt lat="47.89003" lon="6.89751">
        <ele>764</ele>
        <time>2026-05-09T10:06:18.409Z</time>
      </trkpt>
      <trkpt lat="47.89004" lon="6.89754">
        <ele>764</ele>
        <time>2026-05-09T10:06:19.408Z</time>
      </trkpt>
      <trkpt lat="47.89004" lon="6.89754">
        <ele>764</ele>
        <time>2026-05-09T10:06:20.408Z</time>
      </trkpt>
      <trkpt lat="47.89004" lon="6.89754">
        <ele>764</ele>
        <time>2026-05-09T10:06:21.408Z</time>
      </trkpt>
      <trkpt lat="47.89004" lon="6.89755">
        <ele>765</ele>
        <time>2026-05-09T10:06:22.409Z</time>
      </trkpt>
      <trkpt lat="47.89004" lon="6.89755">
        <ele>765</ele>
        <time>2026-05-09T10:06:23.408Z</time>
      </trkpt>
      <trkpt lat="47.89005" lon="6.89756">
        <ele>765</ele>
        <time>2026-05-09T10:06:24.409Z</time>
      </trkpt>
      <trkpt lat="47.89005" lon="6.89756">
        <ele>765</ele>
        <time>2026-05-09T10:06:25.408Z</time>
      </trkpt>
      <trkpt lat="47.89005" lon="6.89758">
        <ele>765</ele>
        <time>2026-05-09T10:06:26.408Z</time>
      </trkpt>
      <trkpt lat="47.89006" lon="6.89759">
        <ele>765</ele>
        <time>2026-05-09T10:06:27.408Z</time>
      </trkpt>
      <trkpt lat="47.89007" lon="6.89761">
        <ele>765</ele>
        <time>2026-05-09T10:06:28.408Z</time>
      </trkpt>
      <trkpt lat="47.89008" lon="6.89762">
        <ele>766</ele>
        <time>2026-05-09T10:06:29.408Z</time>
      </trkpt>
      <trkpt lat="47.89008" lon="6.89762">
        <ele>766</ele>
        <time>2026-05-09T10:06:30.408Z</time>
      </trkpt>
      <trkpt lat="47.89008" lon="6.89764">
        <ele>765</ele>
        <time>2026-05-09T10:06:31.408Z</time>
      </trkpt>
      <trkpt lat="47.89008" lon="6.89765">
        <ele>765</ele>
        <time>2026-05-09T10:06:32.408Z</time>
      </trkpt>
      <trkpt lat="47.89009" lon="6.89766">
        <ele>765</ele>
        <time>2026-05-09T10:06:33.409Z</time>
      </trkpt>
      <trkpt lat="47.89009" lon="6.89767">
        <ele>765</ele>
        <time>2026-05-09T10:06:34.409Z</time>
      </trkpt>
      <trkpt lat="47.8901" lon="6.89767">
        <ele>765</ele>
        <time>2026-05-09T10:06:35.408Z</time>
      </trkpt>
      <trkpt lat="47.89011" lon="6.89768">
        <ele>765</ele>
        <time>2026-05-09T10:06:36.408Z</time>
      </trkpt>
      <trkpt lat="47.89011" lon="6.89768">
        <ele>765</ele>
        <time>2026-05-09T10:06:37.409Z</time>
      </trkpt>
      <trkpt lat="47.89012" lon="6.89768">
        <ele>764</ele>
        <time>2026-05-09T10:06:38.408Z</time>
      </trkpt>
      <trkpt lat="47.89012" lon="6.89769">
        <ele>764</ele>
        <time>2026-05-09T10:06:39.409Z</time>
      </trkpt>
      <trkpt lat="47.89012" lon="6.8977">
        <ele>764</ele>
        <time>2026-05-09T10:06:40.408Z</time>
      </trkpt>
      <trkpt lat="47.89013" lon="6.89771">
        <ele>764</ele>
        <time>2026-05-09T10:06:41.409Z</time>
      </trkpt>
      <trkpt lat="47.89013" lon="6.89772">
        <ele>763</ele>
        <time>2026-05-09T10:06:42.409Z</time>
      </trkpt>
      <trkpt lat="47.89014" lon="6.89774">
        <ele>763</ele>
        <time>2026-05-09T10:06:43.408Z</time>
      </trkpt>
      <trkpt lat="47.89015" lon="6.89775">
        <ele>762</ele>
        <time>2026-05-09T10:06:44.408Z</time>
      </trkpt>
      <trkpt lat="47.89016" lon="6.89777">
        <ele>762</ele>
        <time>2026-05-09T10:06:45.408Z</time>
      </trkpt>
      <trkpt lat="47.89017" lon="6.8978">
        <ele>762</ele>
        <time>2026-05-09T10:06:46.409Z</time>
      </trkpt>
      <trkpt lat="47.89019" lon="6.89784">
        <ele>762</ele>
        <time>2026-05-09T10:06:47.409Z</time>
      </trkpt>
      <trkpt lat="47.89019" lon="6.89786">
        <ele>761</ele>
        <time>2026-05-09T10:06:48.409Z</time>
      </trkpt>
      <trkpt lat="47.89019" lon="6.89787">
        <ele>761</ele>
        <time>2026-05-09T10:06:49.408Z</time>
      </trkpt>
      <trkpt lat="47.8902" lon="6.89788">
        <ele>761</ele>
        <time>2026-05-09T10:06:50.409Z</time>
      </trkpt>
      <trkpt lat="47.8902" lon="6.8979">
        <ele>761</ele>
        <time>2026-05-09T10:06:51.408Z</time>
      </trkpt>
      <trkpt lat="47.89021" lon="6.89791">
        <ele>760</ele>
        <time>2026-05-09T10:06:52.409Z</time>
      </trkpt>
      <trkpt lat="47.89021" lon="6.89791">
        <ele>760</ele>
        <time>2026-05-09T10:06:53.409Z</time>
      </trkpt>
      <trkpt lat="47.89021" lon="6.89792">
        <ele>760</ele>
        <time>2026-05-09T10:06:54.408Z</time>
      </trkpt>
      <trkpt lat="47.89022" lon="6.89792">
        <ele>760</ele>
        <time>2026-05-09T10:06:55.409Z</time>
      </trkpt>
      <trkpt lat="47.89023" lon="6.89792">
        <ele>760</ele>
        <time>2026-05-09T10:06:56.409Z</time>
      </trkpt>
      <trkpt lat="47.89023" lon="6.89791">
        <ele>760</ele>
        <time>2026-05-09T10:06:57.408Z</time>
      </trkpt>
      <trkpt lat="47.89023" lon="6.89791">
        <ele>760</ele>
        <time>2026-05-09T10:06:58.408Z</time>
      </trkpt>
      <trkpt lat="47.89023" lon="6.89791">
        <ele>760</ele>
        <time>2026-05-09T10:06:59.409Z</time>
      </trkpt>
      <trkpt lat="47.89023" lon="6.89791">
        <ele>760</ele>
        <time>2026-05-09T10:07:00.409Z</time>
      </trkpt>
      <trkpt lat="47.89023" lon="6.8979">
        <ele>760</ele>
        <time>2026-05-09T10:07:01.408Z</time>
      </trkpt>
      <trkpt lat="47.89022" lon="6.89789">
        <ele>760</ele>
        <time>2026-05-09T10:07:02.408Z</time>
      </trkpt>
      <trkpt lat="47.89022" lon="6.89788">
        <ele>760</ele>
        <time>2026-05-09T10:07:03.409Z</time>
      </trkpt>
      <trkpt lat="47.89022" lon="6.89788">
        <ele>760</ele>
        <time>2026-05-09T10:07:04.409Z</time>
      </trkpt>
      <trkpt lat="47.89022" lon="6.89787">
        <ele>760</ele>
        <time>2026-05-09T10:07:05.408Z</time>
      </trkpt>
      <trkpt lat="47.89022" lon="6.89786">
        <ele>760</ele>
        <time>2026-05-09T10:07:06.408Z</time>
      </trkpt>
      <trkpt lat="47.89022" lon="6.89784">
        <ele>760</ele>
        <time>2026-05-09T10:07:07.409Z</time>
      </trkpt>
      <trkpt lat="47.89022" lon="6.89784">
        <ele>760</ele>
        <time>2026-05-09T10:07:08.408Z</time>
      </trkpt>
      <trkpt lat="47.89022" lon="6.89784">
        <ele>760</ele>
        <time>2026-05-09T10:07:09.409Z</time>
      </trkpt>
      <trkpt lat="47.89022" lon="6.89782">
        <ele>760</ele>
        <time>2026-05-09T10:07:10.409Z</time>
      </trkpt>
      <trkpt lat="47.89022" lon="6.89781">
        <ele>760</ele>
        <time>2026-05-09T10:07:11.408Z</time>
      </trkpt>
      <trkpt lat="47.89022" lon="6.89781">
        <ele>761</ele>
        <time>2026-05-09T10:07:12.409Z</time>
      </trkpt>
      <trkpt lat="47.89022" lon="6.8978">
        <ele>761</ele>
        <time>2026-05-09T10:07:13.408Z</time>
      </trkpt>
      <trkpt lat="47.89021" lon="6.8978">
        <ele>761</ele>
        <time>2026-05-09T10:07:14.408Z</time>
      </trkpt>
      <trkpt lat="47.8902" lon="6.89778">
        <ele>761</ele>
        <time>2026-05-09T10:07:18.408Z</time>
      </trkpt>
      <trkpt lat="47.89024" lon="6.89774">
        <ele>761</ele>
        <time>2026-05-09T10:07:19.408Z</time>
      </trkpt>
      <trkpt lat="47.89025" lon="6.8977">
        <ele>761</ele>
        <time>2026-05-09T10:07:20.409Z</time>
      </trkpt>
      <trkpt lat="47.89027" lon="6.89767">
        <ele>761</ele>
        <time>2026-05-09T10:07:21.408Z</time>
      </trkpt>
      <trkpt lat="47.89029" lon="6.89765">
        <ele>761</ele>
        <time>2026-05-09T10:07:22.408Z</time>
      </trkpt>
      <trkpt lat="47.8903" lon="6.89763">
        <ele>761</ele>
        <time>2026-05-09T10:07:23.408Z</time>
      </trkpt>
      <trkpt lat="47.89032" lon="6.89762">
        <ele>762</ele>
        <time>2026-05-09T10:07:24.409Z</time>
      </trkpt>
      <trkpt lat="47.89033" lon="6.89762">
        <ele>762</ele>
        <time>2026-05-09T10:07:25.408Z</time>
      </trkpt>
      <trkpt lat="47.89033" lon="6.89764">
        <ele>762</ele>
        <time>2026-05-09T10:07:26.408Z</time>
      </trkpt>
      <trkpt lat="47.89033" lon="6.89763">
        <ele>762</ele>
        <time>2026-05-09T10:07:27.408Z</time>
      </trkpt>
      <trkpt lat="47.89033" lon="6.89764">
        <ele>762</ele>
        <time>2026-05-09T10:07:28.408Z</time>
      </trkpt>
      <trkpt lat="47.89034" lon="6.89762">
        <ele>762</ele>
        <time>2026-05-09T10:07:29.408Z</time>
      </trkpt>
      <trkpt lat="47.89036" lon="6.89762">
        <ele>762</ele>
        <time>2026-05-09T10:07:30.408Z</time>
      </trkpt>
      <trkpt lat="47.89036" lon="6.89762">
        <ele>762</ele>
        <time>2026-05-09T10:07:31.408Z</time>
      </trkpt>
      <trkpt lat="47.89038" lon="6.89761">
        <ele>763</ele>
        <time>2026-05-09T10:07:32.408Z</time>
      </trkpt>
      <trkpt lat="47.8904" lon="6.8976">
        <ele>763</ele>
        <time>2026-05-09T10:07:33.408Z</time>
      </trkpt>
      <trkpt lat="47.89041" lon="6.89759">
        <ele>763</ele>
        <time>2026-05-09T10:07:34.408Z</time>
      </trkpt>
      <trkpt lat="47.8904" lon="6.89757">
        <ele>763</ele>
        <time>2026-05-09T10:07:35.408Z</time>
      </trkpt>
      <trkpt lat="47.8904" lon="6.89756">
        <ele>763</ele>
        <time>2026-05-09T10:07:36.408Z</time>
      </trkpt>
      <trkpt lat="47.89039" lon="6.89754">
        <ele>763</ele>
        <time>2026-05-09T10:07:37.409Z</time>
      </trkpt>
      <trkpt lat="47.89034" lon="6.89752">
        <ele>763</ele>
        <time>2026-05-09T10:07:38.408Z</time>
      </trkpt>
      <trkpt lat="47.89036" lon="6.89751">
        <ele>763</ele>
        <time>2026-05-09T10:07:39.408Z</time>
      </trkpt>
      <trkpt lat="47.89036" lon="6.89752">
        <ele>763</ele>
        <time>2026-05-09T10:07:40.409Z</time>
      </trkpt>
      <trkpt lat="47.89036" lon="6.89751">
        <ele>763</ele>
        <time>2026-05-09T10:07:41.408Z</time>
      </trkpt>
      <trkpt lat="47.89037" lon="6.89751">
        <ele>763</ele>
        <time>2026-05-09T10:07:42.408Z</time>
      </trkpt>
      <trkpt lat="47.89038" lon="6.8975">
        <ele>763</ele>
        <time>2026-05-09T10:07:43.408Z</time>
      </trkpt>
      <trkpt lat="47.89039" lon="6.89749">
        <ele>763</ele>
        <time>2026-05-09T10:07:44.408Z</time>
      </trkpt>
      <trkpt lat="47.89039" lon="6.89748">
        <ele>763</ele>
        <time>2026-05-09T10:07:45.408Z</time>
      </trkpt>
      <trkpt lat="47.89039" lon="6.89748">
        <ele>763</ele>
        <time>2026-05-09T10:07:46.409Z</time>
      </trkpt>
      <trkpt lat="47.89039" lon="6.89748">
        <ele>762</ele>
        <time>2026-05-09T10:07:47.408Z</time>
      </trkpt>
      <trkpt lat="47.8904" lon="6.89746">
        <ele>762</ele>
        <time>2026-05-09T10:07:48.408Z</time>
      </trkpt>
      <trkpt lat="47.89041" lon="6.89746">
        <ele>762</ele>
        <time>2026-05-09T10:07:49.408Z</time>
      </trkpt>
      <trkpt lat="47.8904" lon="6.89747">
        <ele>762</ele>
        <time>2026-05-09T10:07:50.408Z</time>
      </trkpt>
      <trkpt lat="47.8904" lon="6.89746">
        <ele>762</ele>
        <time>2026-05-09T10:07:51.409Z</time>
      </trkpt>
      <trkpt lat="47.89041" lon="6.89744">
        <ele>762</ele>
        <time>2026-05-09T10:07:52.409Z</time>
      </trkpt>
      <trkpt lat="47.89042" lon="6.8974">
        <ele>762</ele>
        <time>2026-05-09T10:07:53.408Z</time>
      </trkpt>
      <trkpt lat="47.89041" lon="6.89739">
        <ele>761</ele>
        <time>2026-05-09T10:07:54.408Z</time>
      </trkpt>
      <trkpt lat="47.89039" lon="6.89739">
        <ele>761</ele>
        <time>2026-05-09T10:07:55.408Z</time>
      </trkpt>
      <trkpt lat="47.89036" lon="6.8974">
        <ele>761</ele>
        <time>2026-05-09T10:07:56.408Z</time>
      </trkpt>
      <trkpt lat="47.89035" lon="6.89739">
        <ele>761</ele>
        <time>2026-05-09T10:07:57.408Z</time>
      </trkpt>
      <trkpt lat="47.89034" lon="6.89739">
        <ele>761</ele>
        <time>2026-05-09T10:07:58.408Z</time>
      </trkpt>
      <trkpt lat="47.89033" lon="6.89739">
        <ele>761</ele>
        <time>2026-05-09T10:07:59.408Z</time>
      </trkpt>
      <trkpt lat="47.89031" lon="6.89741">
        <ele>761</ele>
        <time>2026-05-09T10:08:00.409Z</time>
      </trkpt>
      <trkpt lat="47.8903" lon="6.89742">
        <ele>761</ele>
        <time>2026-05-09T10:08:01.408Z</time>
      </trkpt>
      <trkpt lat="47.89029" lon="6.89744">
        <ele>761</ele>
        <time>2026-05-09T10:08:02.408Z</time>
      </trkpt>
      <trkpt lat="47.89028" lon="6.89744">
        <ele>761</ele>
        <time>2026-05-09T10:08:03.409Z</time>
      </trkpt>
      <trkpt lat="47.89026" lon="6.89745">
        <ele>761</ele>
        <time>2026-05-09T10:08:04.409Z</time>
      </trkpt>
      <trkpt lat="47.89026" lon="6.89745">
        <ele>761</ele>
        <time>2026-05-09T10:08:05.408Z</time>
      </trkpt>
      <trkpt lat="47.89026" lon="6.89745">
        <ele>761</ele>
        <time>2026-05-09T10:08:06.408Z</time>
      </trkpt>
      <trkpt lat="47.89027" lon="6.89744">
        <ele>761</ele>
        <time>2026-05-09T10:08:07.408Z</time>
      </trkpt>
      <trkpt lat="47.89027" lon="6.89744">
        <ele>761</ele>
        <time>2026-05-09T10:08:08.408Z</time>
      </trkpt>
      <trkpt lat="47.89028" lon="6.89741">
        <ele>762</ele>
        <time>2026-05-09T10:08:09.409Z</time>
      </trkpt>
      <trkpt lat="47.89029" lon="6.89738">
        <ele>762</ele>
        <time>2026-05-09T10:08:10.408Z</time>
      </trkpt>
      <trkpt lat="47.89029" lon="6.89736">
        <ele>762</ele>
        <time>2026-05-09T10:08:11.408Z</time>
      </trkpt>
      <trkpt lat="47.8903" lon="6.89736">
        <ele>762</ele>
        <time>2026-05-09T10:08:12.408Z</time>
      </trkpt>
      <trkpt lat="47.8903" lon="6.89736">
        <ele>763</ele>
        <time>2026-05-09T10:08:13.409Z</time>
      </trkpt>
      <trkpt lat="47.89031" lon="6.89736">
        <ele>763</ele>
        <time>2026-05-09T10:08:14.408Z</time>
      </trkpt>
      <trkpt lat="47.89032" lon="6.89737">
        <ele>763</ele>
        <time>2026-05-09T10:08:15.408Z</time>
      </trkpt>
      <trkpt lat="47.89033" lon="6.89737">
        <ele>764</ele>
        <time>2026-05-09T10:08:16.408Z</time>
      </trkpt>
      <trkpt lat="47.89034" lon="6.89738">
        <ele>764</ele>
        <time>2026-05-09T10:08:17.408Z</time>
      </trkpt>
      <trkpt lat="47.89035" lon="6.89738">
        <ele>764</ele>
        <time>2026-05-09T10:08:18.408Z</time>
      </trkpt>
      <trkpt lat="47.89037" lon="6.89739">
        <ele>765</ele>
        <time>2026-05-09T10:08:19.409Z</time>
      </trkpt>
      <trkpt lat="47.89038" lon="6.8974">
        <ele>765</ele>
        <time>2026-05-09T10:08:20.409Z</time>
      </trkpt>
      <trkpt lat="47.89039" lon="6.8974">
        <ele>765</ele>
        <time>2026-05-09T10:08:21.408Z</time>
      </trkpt>
      <trkpt lat="47.8904" lon="6.8974">
        <ele>766</ele>
        <time>2026-05-09T10:08:22.408Z</time>
      </trkpt>
      <trkpt lat="47.89042" lon="6.8974">
        <ele>766</ele>
        <time>2026-05-09T10:08:23.409Z</time>
      </trkpt>
      <trkpt lat="47.89043" lon="6.8974">
        <ele>766</ele>
        <time>2026-05-09T10:08:24.409Z</time>
      </trkpt>
      <trkpt lat="47.89043" lon="6.8974">
        <ele>767</ele>
        <time>2026-05-09T10:08:25.408Z</time>
      </trkpt>
      <trkpt lat="47.89044" lon="6.8974">
        <ele>767</ele>
        <time>2026-05-09T10:08:26.408Z</time>
      </trkpt>
      <trkpt lat="47.89044" lon="6.89741">
        <ele>767</ele>
        <time>2026-05-09T10:08:27.408Z</time>
      </trkpt>
      <trkpt lat="47.89045" lon="6.89741">
        <ele>768</ele>
        <time>2026-05-09T10:08:28.408Z</time>
      </trkpt>
      <trkpt lat="47.89045" lon="6.89741">
        <ele>768</ele>
        <time>2026-05-09T10:08:29.408Z</time>
      </trkpt>
      <trkpt lat="47.89045" lon="6.89741">
        <ele>768</ele>
        <time>2026-05-09T10:08:30.409Z</time>
      </trkpt>
      <trkpt lat="47.89046" lon="6.89741">
        <ele>769</ele>
        <time>2026-05-09T10:08:31.408Z</time>
      </trkpt>
      <trkpt lat="47.89046" lon="6.89741">
        <ele>769</ele>
        <time>2026-05-09T10:08:32.409Z</time>
      </trkpt>
      <trkpt lat="47.89047" lon="6.89741">
        <ele>770</ele>
        <time>2026-05-09T10:08:33.408Z</time>
      </trkpt>
      <trkpt lat="47.89047" lon="6.89741">
        <ele>770</ele>
        <time>2026-05-09T10:08:34.408Z</time>
      </trkpt>
      <trkpt lat="47.89049" lon="6.89741">
        <ele>771</ele>
        <time>2026-05-09T10:08:35.408Z</time>
      </trkpt>
      <trkpt lat="47.89049" lon="6.89741">
        <ele>771</ele>
        <time>2026-05-09T10:08:36.408Z</time>
      </trkpt>
      <trkpt lat="47.89051" lon="6.89741">
        <ele>771</ele>
        <time>2026-05-09T10:08:37.408Z</time>
      </trkpt>
      <trkpt lat="47.89051" lon="6.89741">
        <ele>772</ele>
        <time>2026-05-09T10:08:38.408Z</time>
      </trkpt>
      <trkpt lat="47.89052" lon="6.89741">
        <ele>772</ele>
        <time>2026-05-09T10:08:39.408Z</time>
      </trkpt>
      <trkpt lat="47.89053" lon="6.89742">
        <ele>772</ele>
        <time>2026-05-09T10:08:40.408Z</time>
      </trkpt>
      <trkpt lat="47.89054" lon="6.89743">
        <ele>773</ele>
        <time>2026-05-09T10:08:41.408Z</time>
      </trkpt>
      <trkpt lat="47.89054" lon="6.89744">
        <ele>773</ele>
        <time>2026-05-09T10:08:42.408Z</time>
      </trkpt>
      <trkpt lat="47.89054" lon="6.89745">
        <ele>774</ele>
        <time>2026-05-09T10:08:43.408Z</time>
      </trkpt>
      <trkpt lat="47.89055" lon="6.89746">
        <ele>774</ele>
        <time>2026-05-09T10:08:44.409Z</time>
      </trkpt>
      <trkpt lat="47.89056" lon="6.89747">
        <ele>775</ele>
        <time>2026-05-09T10:08:45.408Z</time>
      </trkpt>
      <trkpt lat="47.89056" lon="6.89747">
        <ele>775</ele>
        <time>2026-05-09T10:08:46.409Z</time>
      </trkpt>
      <trkpt lat="47.89056" lon="6.89748">
        <ele>776</ele>
        <time>2026-05-09T10:08:47.408Z</time>
      </trkpt>
      <trkpt lat="47.89056" lon="6.89748">
        <ele>777</ele>
        <time>2026-05-09T10:08:48.408Z</time>
      </trkpt>
      <trkpt lat="47.89056" lon="6.89748">
        <ele>777</ele>
        <time>2026-05-09T10:08:49.408Z</time>
      </trkpt>
      <trkpt lat="47.89057" lon="6.89749">
        <ele>778</ele>
        <time>2026-05-09T10:08:50.408Z</time>
      </trkpt>
      <trkpt lat="47.89057" lon="6.89749">
        <ele>779</ele>
        <time>2026-05-09T10:08:51.408Z</time>
      </trkpt>
      <trkpt lat="47.89058" lon="6.89749">
        <ele>779</ele>
        <time>2026-05-09T10:08:52.408Z</time>
      </trkpt>
      <trkpt lat="47.8906" lon="6.89748">
        <ele>779</ele>
        <time>2026-05-09T10:08:53.408Z</time>
      </trkpt>
      <trkpt lat="47.8906" lon="6.89748">
        <ele>780</ele>
        <time>2026-05-09T10:08:54.408Z</time>
      </trkpt>
      <trkpt lat="47.8906" lon="6.89748">
        <ele>780</ele>
        <time>2026-05-09T10:08:55.408Z</time>
      </trkpt>
      <trkpt lat="47.89061" lon="6.89748">
        <ele>781</ele>
        <time>2026-05-09T10:08:56.408Z</time>
      </trkpt>
      <trkpt lat="47.89062" lon="6.89749">
        <ele>781</ele>
        <time>2026-05-09T10:08:57.408Z</time>
      </trkpt>
      <trkpt lat="47.89062" lon="6.89749">
        <ele>781</ele>
        <time>2026-05-09T10:08:58.408Z</time>
      </trkpt>
      <trkpt lat="47.89063" lon="6.89749">
        <ele>782</ele>
        <time>2026-05-09T10:08:59.408Z</time>
      </trkpt>
      <trkpt lat="47.89064" lon="6.89749">
        <ele>782</ele>
        <time>2026-05-09T10:09:00.409Z</time>
      </trkpt>
      <trkpt lat="47.89065" lon="6.8975">
        <ele>782</ele>
        <time>2026-05-09T10:09:01.409Z</time>
      </trkpt>
      <trkpt lat="47.89066" lon="6.8975">
        <ele>783</ele>
        <time>2026-05-09T10:09:02.408Z</time>
      </trkpt>
      <trkpt lat="47.89067" lon="6.89751">
        <ele>783</ele>
        <time>2026-05-09T10:09:03.408Z</time>
      </trkpt>
      <trkpt lat="47.89068" lon="6.89751">
        <ele>784</ele>
        <time>2026-05-09T10:09:04.408Z</time>
      </trkpt>
      <trkpt lat="47.89069" lon="6.89751">
        <ele>784</ele>
        <time>2026-05-09T10:09:05.408Z</time>
      </trkpt>
      <trkpt lat="47.8907" lon="6.89752">
        <ele>784</ele>
        <time>2026-05-09T10:09:06.409Z</time>
      </trkpt>
      <trkpt lat="47.89071" lon="6.89752">
        <ele>785</ele>
        <time>2026-05-09T10:09:07.408Z</time>
      </trkpt>
      <trkpt lat="47.89073" lon="6.89752">
        <ele>785</ele>
        <time>2026-05-09T10:09:08.408Z</time>
      </trkpt>
      <trkpt lat="47.89074" lon="6.89751">
        <ele>785</ele>
        <time>2026-05-09T10:09:09.408Z</time>
      </trkpt>
      <trkpt lat="47.89075" lon="6.89751">
        <ele>785</ele>
        <time>2026-05-09T10:09:10.408Z</time>
      </trkpt>
      <trkpt lat="47.89077" lon="6.89751">
        <ele>786</ele>
        <time>2026-05-09T10:09:11.409Z</time>
      </trkpt>
      <trkpt lat="47.89077" lon="6.89751">
        <ele>786</ele>
        <time>2026-05-09T10:09:12.408Z</time>
      </trkpt>
      <trkpt lat="47.89078" lon="6.8975">
        <ele>786</ele>
        <time>2026-05-09T10:09:13.408Z</time>
      </trkpt>
      <trkpt lat="47.8908" lon="6.8975">
        <ele>787</ele>
        <time>2026-05-09T10:09:14.409Z</time>
      </trkpt>
      <trkpt lat="47.89082" lon="6.8975">
        <ele>787</ele>
        <time>2026-05-09T10:09:15.408Z</time>
      </trkpt>
      <trkpt lat="47.89084" lon="6.8975">
        <ele>788</ele>
        <time>2026-05-09T10:09:16.408Z</time>
      </trkpt>
      <trkpt lat="47.89085" lon="6.8975">
        <ele>788</ele>
        <time>2026-05-09T10:09:17.409Z</time>
      </trkpt>
      <trkpt lat="47.89085" lon="6.8975">
        <ele>788</ele>
        <time>2026-05-09T10:09:18.409Z</time>
      </trkpt>
      <trkpt lat="47.89087" lon="6.8975">
        <ele>788</ele>
        <time>2026-05-09T10:09:19.408Z</time>
      </trkpt>
      <trkpt lat="47.89088" lon="6.8975">
        <ele>787</ele>
        <time>2026-05-09T10:09:20.408Z</time>
      </trkpt>
      <trkpt lat="47.89089" lon="6.8975">
        <ele>787</ele>
        <time>2026-05-09T10:09:21.408Z</time>
      </trkpt>
      <trkpt lat="47.8909" lon="6.8975">
        <ele>787</ele>
        <time>2026-05-09T10:09:22.409Z</time>
      </trkpt>
      <trkpt lat="47.8909" lon="6.8975">
        <ele>787</ele>
        <time>2026-05-09T10:09:23.408Z</time>
      </trkpt>
      <trkpt lat="47.89091" lon="6.89751">
        <ele>787</ele>
        <time>2026-05-09T10:09:24.408Z</time>
      </trkpt>
      <trkpt lat="47.89091" lon="6.89751">
        <ele>786</ele>
        <time>2026-05-09T10:09:25.409Z</time>
      </trkpt>
      <trkpt lat="47.89092" lon="6.89751">
        <ele>786</ele>
        <time>2026-05-09T10:09:26.408Z</time>
      </trkpt>
      <trkpt lat="47.89093" lon="6.89752">
        <ele>786</ele>
        <time>2026-05-09T10:09:27.408Z</time>
      </trkpt>
      <trkpt lat="47.89094" lon="6.89752">
        <ele>786</ele>
        <time>2026-05-09T10:09:28.408Z</time>
      </trkpt>
      <trkpt lat="47.89096" lon="6.89752">
        <ele>787</ele>
        <time>2026-05-09T10:09:29.409Z</time>
      </trkpt>
      <trkpt lat="47.89097" lon="6.89753">
        <ele>787</ele>
        <time>2026-05-09T10:09:30.408Z</time>
      </trkpt>
      <trkpt lat="47.89097" lon="6.89753">
        <ele>787</ele>
        <time>2026-05-09T10:09:31.408Z</time>
      </trkpt>
      <trkpt lat="47.89098" lon="6.89753">
        <ele>787</ele>
        <time>2026-05-09T10:09:32.408Z</time>
      </trkpt>
      <trkpt lat="47.891" lon="6.89753">
        <ele>788</ele>
        <time>2026-05-09T10:09:33.409Z</time>
      </trkpt>
      <trkpt lat="47.891" lon="6.89753">
        <ele>788</ele>
        <time>2026-05-09T10:09:34.409Z</time>
      </trkpt>
      <trkpt lat="47.891" lon="6.89753">
        <ele>789</ele>
        <time>2026-05-09T10:09:35.408Z</time>
      </trkpt>
      <trkpt lat="47.89101" lon="6.89753">
        <ele>790</ele>
        <time>2026-05-09T10:09:36.408Z</time>
      </trkpt>
      <trkpt lat="47.89101" lon="6.89752">
        <ele>790</ele>
        <time>2026-05-09T10:09:37.408Z</time>
      </trkpt>
      <trkpt lat="47.89104" lon="6.89761">
        <ele>804</ele>
        <time>2026-05-09T10:46:15.177Z</time>
      </trkpt>
      <trkpt lat="47.89104" lon="6.89761">
        <ele>804</ele>
        <time>2026-05-09T10:46:16.176Z</time>
      </trkpt>
      <trkpt lat="47.89104" lon="6.89762">
        <ele>804</ele>
        <time>2026-05-09T10:46:17.177Z</time>
      </trkpt>
      <trkpt lat="47.89104" lon="6.89762">
        <ele>805</ele>
        <time>2026-05-09T10:46:18.177Z</time>
      </trkpt>
      <trkpt lat="47.89104" lon="6.89762">
        <ele>805</ele>
        <time>2026-05-09T10:46:19.177Z</time>
      </trkpt>
      <trkpt lat="47.89104" lon="6.89762">
        <ele>805</ele>
        <time>2026-05-09T10:46:20.176Z</time>
      </trkpt>
      <trkpt lat="47.89104" lon="6.89762">
        <ele>805</ele>
        <time>2026-05-09T10:46:21.177Z</time>
      </trkpt>
      <trkpt lat="47.89105" lon="6.89761">
        <ele>806</ele>
        <time>2026-05-09T10:46:22.176Z</time>
      </trkpt>
      <trkpt lat="47.89105" lon="6.89761">
        <ele>806</ele>
        <time>2026-05-09T10:46:23.176Z</time>
      </trkpt>
      <trkpt lat="47.89105" lon="6.89761">
        <ele>806</ele>
        <time>2026-05-09T10:46:24.176Z</time>
      </trkpt>
      <trkpt lat="47.89106" lon="6.89762">
        <ele>806</ele>
        <time>2026-05-09T10:46:25.176Z</time>
      </trkpt>
      <trkpt lat="47.89106" lon="6.89762">
        <ele>806</ele>
        <time>2026-05-09T10:46:26.176Z</time>
      </trkpt>
      <trkpt lat="47.89106" lon="6.89763">
        <ele>806</ele>
        <time>2026-05-09T10:46:27.177Z</time>
      </trkpt>
      <trkpt lat="47.89106" lon="6.89764">
        <ele>807</ele>
        <time>2026-05-09T10:46:28.176Z</time>
      </trkpt>
      <trkpt lat="47.89107" lon="6.89765">
        <ele>807</ele>
        <time>2026-05-09T10:46:29.176Z</time>
      </trkpt>
      <trkpt lat="47.89108" lon="6.89766">
        <ele>807</ele>
        <time>2026-05-09T10:46:30.177Z</time>
      </trkpt>
      <trkpt lat="47.89108" lon="6.89767">
        <ele>807</ele>
        <time>2026-05-09T10:46:31.176Z</time>
      </trkpt>
      <trkpt lat="47.89108" lon="6.89767">
        <ele>808</ele>
        <time>2026-05-09T10:46:32.177Z</time>
      </trkpt>
      <trkpt lat="47.89108" lon="6.89768">
        <ele>808</ele>
        <time>2026-05-09T10:46:33.176Z</time>
      </trkpt>
      <trkpt lat="47.89108" lon="6.89769">
        <ele>809</ele>
        <time>2026-05-09T10:46:34.176Z</time>
      </trkpt>
      <trkpt lat="47.89108" lon="6.8977">
        <ele>810</ele>
        <time>2026-05-09T10:46:35.176Z</time>
      </trkpt>
      <trkpt lat="47.89108" lon="6.89772">
        <ele>810</ele>
        <time>2026-05-09T10:46:36.176Z</time>
      </trkpt>
      <trkpt lat="47.89108" lon="6.89773">
        <ele>810</ele>
        <time>2026-05-09T10:46:37.176Z</time>
      </trkpt>
      <trkpt lat="47.89108" lon="6.89775">
        <ele>810</ele>
        <time>2026-05-09T10:46:38.176Z</time>
      </trkpt>
      <trkpt lat="47.89109" lon="6.89776">
        <ele>811</ele>
        <time>2026-05-09T10:46:39.176Z</time>
      </trkpt>
      <trkpt lat="47.89109" lon="6.89777">
        <ele>811</ele>
        <time>2026-05-09T10:46:40.176Z</time>
      </trkpt>
      <trkpt lat="47.89109" lon="6.89778">
        <ele>811</ele>
        <time>2026-05-09T10:46:41.176Z</time>
      </trkpt>
      <trkpt lat="47.8911" lon="6.89779">
        <ele>811</ele>
        <time>2026-05-09T10:46:42.177Z</time>
      </trkpt>
      <trkpt lat="47.8911" lon="6.8978">
        <ele>811</ele>
        <time>2026-05-09T10:46:43.176Z</time>
      </trkpt>
      <trkpt lat="47.89111" lon="6.8978">
        <ele>811</ele>
        <time>2026-05-09T10:46:44.176Z</time>
      </trkpt>
      <trkpt lat="47.89112" lon="6.8978">
        <ele>811</ele>
        <time>2026-05-09T10:46:45.177Z</time>
      </trkpt>
      <trkpt lat="47.89112" lon="6.89781">
        <ele>812</ele>
        <time>2026-05-09T10:46:46.177Z</time>
      </trkpt>
      <trkpt lat="47.89113" lon="6.89783">
        <ele>812</ele>
        <time>2026-05-09T10:46:47.177Z</time>
      </trkpt>
      <trkpt lat="47.89113" lon="6.89785">
        <ele>812</ele>
        <time>2026-05-09T10:46:48.176Z</time>
      </trkpt>
      <trkpt lat="47.89113" lon="6.89787">
        <ele>812</ele>
        <time>2026-05-09T10:46:49.177Z</time>
      </trkpt>
      <trkpt lat="47.89114" lon="6.89788">
        <ele>813</ele>
        <time>2026-05-09T10:46:50.176Z</time>
      </trkpt>
      <trkpt lat="47.89114" lon="6.8979">
        <ele>813</ele>
        <time>2026-05-09T10:46:51.176Z</time>
      </trkpt>
      <trkpt lat="47.89115" lon="6.89792">
        <ele>813</ele>
        <time>2026-05-09T10:46:52.176Z</time>
      </trkpt>
      <trkpt lat="47.89115" lon="6.89793">
        <ele>813</ele>
        <time>2026-05-09T10:46:53.177Z</time>
      </trkpt>
      <trkpt lat="47.89115" lon="6.89795">
        <ele>813</ele>
        <time>2026-05-09T10:46:54.176Z</time>
      </trkpt>
      <trkpt lat="47.89115" lon="6.89796">
        <ele>814</ele>
        <time>2026-05-09T10:46:55.177Z</time>
      </trkpt>
      <trkpt lat="47.89115" lon="6.89797">
        <ele>814</ele>
        <time>2026-05-09T10:46:56.176Z</time>
      </trkpt>
      <trkpt lat="47.89115" lon="6.89799">
        <ele>814</ele>
        <time>2026-05-09T10:46:57.177Z</time>
      </trkpt>
      <trkpt lat="47.89116" lon="6.898">
        <ele>814</ele>
        <time>2026-05-09T10:46:58.176Z</time>
      </trkpt>
      <trkpt lat="47.89116" lon="6.89801">
        <ele>813</ele>
        <time>2026-05-09T10:46:59.177Z</time>
      </trkpt>
      <trkpt lat="47.89117" lon="6.89802">
        <ele>813</ele>
        <time>2026-05-09T10:47:00.176Z</time>
      </trkpt>
      <trkpt lat="47.89118" lon="6.89803">
        <ele>813</ele>
        <time>2026-05-09T10:47:01.177Z</time>
      </trkpt>
      <trkpt lat="47.89118" lon="6.89804">
        <ele>813</ele>
        <time>2026-05-09T10:47:02.177Z</time>
      </trkpt>
      <trkpt lat="47.89119" lon="6.89805">
        <ele>812</ele>
        <time>2026-05-09T10:47:03.177Z</time>
      </trkpt>
      <trkpt lat="47.8912" lon="6.89806">
        <ele>812</ele>
        <time>2026-05-09T10:47:04.176Z</time>
      </trkpt>
      <trkpt lat="47.89121" lon="6.89807">
        <ele>812</ele>
        <time>2026-05-09T10:47:05.177Z</time>
      </trkpt>
      <trkpt lat="47.89121" lon="6.89808">
        <ele>811</ele>
        <time>2026-05-09T10:47:06.176Z</time>
      </trkpt>
      <trkpt lat="47.89121" lon="6.89809">
        <ele>811</ele>
        <time>2026-05-09T10:47:07.177Z</time>
      </trkpt>
      <trkpt lat="47.89121" lon="6.89811">
        <ele>811</ele>
        <time>2026-05-09T10:47:08.176Z</time>
      </trkpt>
      <trkpt lat="47.89121" lon="6.89813">
        <ele>811</ele>
        <time>2026-05-09T10:47:09.176Z</time>
      </trkpt>
      <trkpt lat="47.89122" lon="6.89815">
        <ele>811</ele>
        <time>2026-05-09T10:47:10.176Z</time>
      </trkpt>
      <trkpt lat="47.89123" lon="6.89816">
        <ele>811</ele>
        <time>2026-05-09T10:47:11.177Z</time>
      </trkpt>
      <trkpt lat="47.89124" lon="6.89817">
        <ele>811</ele>
        <time>2026-05-09T10:47:12.176Z</time>
      </trkpt>
      <trkpt lat="47.89125" lon="6.89818">
        <ele>810</ele>
        <time>2026-05-09T10:47:13.177Z</time>
      </trkpt>
      <trkpt lat="47.89126" lon="6.89819">
        <ele>810</ele>
        <time>2026-05-09T10:47:14.176Z</time>
      </trkpt>
      <trkpt lat="47.89127" lon="6.8982">
        <ele>809</ele>
        <time>2026-05-09T10:47:15.177Z</time>
      </trkpt>
      <trkpt lat="47.89127" lon="6.89821">
        <ele>808</ele>
        <time>2026-05-09T10:47:16.177Z</time>
      </trkpt>
      <trkpt lat="47.89128" lon="6.89822">
        <ele>807</ele>
        <time>2026-05-09T10:47:17.176Z</time>
      </trkpt>
      <trkpt lat="47.89129" lon="6.89822">
        <ele>806</ele>
        <time>2026-05-09T10:47:18.177Z</time>
      </trkpt>
      <trkpt lat="47.89129" lon="6.89823">
        <ele>805</ele>
        <time>2026-05-09T10:47:19.176Z</time>
      </trkpt>
      <trkpt lat="47.89129" lon="6.89824">
        <ele>805</ele>
        <time>2026-05-09T10:47:20.177Z</time>
      </trkpt>
      <trkpt lat="47.89129" lon="6.89824">
        <ele>804</ele>
        <time>2026-05-09T10:47:21.176Z</time>
      </trkpt>
      <trkpt lat="47.89131" lon="6.89825">
        <ele>802</ele>
        <time>2026-05-09T10:47:27.385Z</time>
      </trkpt>
      <trkpt lat="47.89131" lon="6.89826">
        <ele>801</ele>
        <time>2026-05-09T10:47:28.384Z</time>
      </trkpt>
      <trkpt lat="47.89131" lon="6.89826">
        <ele>800</ele>
        <time>2026-05-09T10:47:29.384Z</time>
      </trkpt>
      <trkpt lat="47.89132" lon="6.89826">
        <ele>800</ele>
        <time>2026-05-09T10:47:30.384Z</time>
      </trkpt>
      <trkpt lat="47.89132" lon="6.89826">
        <ele>800</ele>
        <time>2026-05-09T10:47:31.384Z</time>
      </trkpt>
      <trkpt lat="47.89133" lon="6.89827">
        <ele>799</ele>
        <time>2026-05-09T10:47:32.385Z</time>
      </trkpt>
      <trkpt lat="47.89136" lon="6.89827">
        <ele>798</ele>
        <time>2026-05-09T10:47:33.384Z</time>
      </trkpt>
      <trkpt lat="47.89136" lon="6.89828">
        <ele>798</ele>
        <time>2026-05-09T10:47:34.384Z</time>
      </trkpt>
      <trkpt lat="47.89136" lon="6.89828">
        <ele>798</ele>
        <time>2026-05-09T10:47:35.384Z</time>
      </trkpt>
      <trkpt lat="47.89138" lon="6.89828">
        <ele>798</ele>
        <time>2026-05-09T10:47:36.384Z</time>
      </trkpt>
      <trkpt lat="47.89138" lon="6.89829">
        <ele>798</ele>
        <time>2026-05-09T10:47:37.384Z</time>
      </trkpt>
      <trkpt lat="47.8914" lon="6.89831">
        <ele>797</ele>
        <time>2026-05-09T10:47:38.385Z</time>
      </trkpt>
      <trkpt lat="47.89141" lon="6.89831">
        <ele>797</ele>
        <time>2026-05-09T10:47:39.385Z</time>
      </trkpt>
      <trkpt lat="47.89141" lon="6.89832">
        <ele>797</ele>
        <time>2026-05-09T10:47:40.384Z</time>
      </trkpt>
      <trkpt lat="47.89141" lon="6.89832">
        <ele>797</ele>
        <time>2026-05-09T10:47:41.384Z</time>
      </trkpt>
      <trkpt lat="47.89141" lon="6.89833">
        <ele>797</ele>
        <time>2026-05-09T10:47:42.385Z</time>
      </trkpt>
      <trkpt lat="47.89142" lon="6.89834">
        <ele>796</ele>
        <time>2026-05-09T10:47:43.384Z</time>
      </trkpt>
      <trkpt lat="47.89142" lon="6.89835">
        <ele>796</ele>
        <time>2026-05-09T10:47:44.385Z</time>
      </trkpt>
      <trkpt lat="47.89143" lon="6.89835">
        <ele>796</ele>
        <time>2026-05-09T10:47:45.384Z</time>
      </trkpt>
      <trkpt lat="47.89143" lon="6.89835">
        <ele>796</ele>
        <time>2026-05-09T10:47:46.385Z</time>
      </trkpt>
      <trkpt lat="47.89144" lon="6.89836">
        <ele>796</ele>
        <time>2026-05-09T10:47:47.385Z</time>
      </trkpt>
      <trkpt lat="47.89146" lon="6.89838">
        <ele>796</ele>
        <time>2026-05-09T10:47:48.385Z</time>
      </trkpt>
      <trkpt lat="47.89148" lon="6.89839">
        <ele>796</ele>
        <time>2026-05-09T10:47:49.385Z</time>
      </trkpt>
      <trkpt lat="47.89148" lon="6.89839">
        <ele>796</ele>
        <time>2026-05-09T10:47:50.384Z</time>
      </trkpt>
      <trkpt lat="47.89149" lon="6.89839">
        <ele>796</ele>
        <time>2026-05-09T10:47:51.384Z</time>
      </trkpt>
      <trkpt lat="47.8915" lon="6.89839">
        <ele>796</ele>
        <time>2026-05-09T10:47:52.384Z</time>
      </trkpt>
      <trkpt lat="47.89152" lon="6.8984">
        <ele>797</ele>
        <time>2026-05-09T10:47:53.384Z</time>
      </trkpt>
      <trkpt lat="47.89153" lon="6.89841">
        <ele>797</ele>
        <time>2026-05-09T10:47:54.384Z</time>
      </trkpt>
      <trkpt lat="47.89153" lon="6.89841">
        <ele>797</ele>
        <time>2026-05-09T10:47:55.384Z</time>
      </trkpt>
      <trkpt lat="47.89154" lon="6.89842">
        <ele>797</ele>
        <time>2026-05-09T10:47:56.385Z</time>
      </trkpt>
      <trkpt lat="47.89156" lon="6.89843">
        <ele>797</ele>
        <time>2026-05-09T10:47:57.385Z</time>
      </trkpt>
      <trkpt lat="47.89158" lon="6.89845">
        <ele>797</ele>
        <time>2026-05-09T10:47:58.384Z</time>
      </trkpt>
      <trkpt lat="47.89159" lon="6.89846">
        <ele>797</ele>
        <time>2026-05-09T10:47:59.384Z</time>
      </trkpt>
      <trkpt lat="47.89159" lon="6.89846">
        <ele>797</ele>
        <time>2026-05-09T10:48:00.385Z</time>
      </trkpt>
      <trkpt lat="47.89161" lon="6.89847">
        <ele>796</ele>
        <time>2026-05-09T10:48:01.384Z</time>
      </trkpt>
      <trkpt lat="47.89163" lon="6.89847">
        <ele>796</ele>
        <time>2026-05-09T10:48:02.384Z</time>
      </trkpt>
      <trkpt lat="47.89164" lon="6.89848">
        <ele>795</ele>
        <time>2026-05-09T10:48:03.385Z</time>
      </trkpt>
      <trkpt lat="47.89164" lon="6.89849">
        <ele>795</ele>
        <time>2026-05-09T10:48:04.384Z</time>
      </trkpt>
      <trkpt lat="47.89164" lon="6.89849">
        <ele>795</ele>
        <time>2026-05-09T10:48:05.384Z</time>
      </trkpt>
      <trkpt lat="47.89166" lon="6.8985">
        <ele>795</ele>
        <time>2026-05-09T10:48:06.384Z</time>
      </trkpt>
      <trkpt lat="47.89166" lon="6.8985">
        <ele>795</ele>
        <time>2026-05-09T10:48:07.384Z</time>
      </trkpt>
      <trkpt lat="47.89169" lon="6.89851">
        <ele>796</ele>
        <time>2026-05-09T10:48:08.384Z</time>
      </trkpt>
      <trkpt lat="47.89171" lon="6.89852">
        <ele>796</ele>
        <time>2026-05-09T10:48:09.384Z</time>
      </trkpt>
      <trkpt lat="47.89171" lon="6.89852">
        <ele>796</ele>
        <time>2026-05-09T10:48:10.384Z</time>
      </trkpt>
      <trkpt lat="47.89171" lon="6.89852">
        <ele>796</ele>
        <time>2026-05-09T10:48:11.385Z</time>
      </trkpt>
      <trkpt lat="47.89172" lon="6.89854">
        <ele>797</ele>
        <time>2026-05-09T10:48:12.385Z</time>
      </trkpt>
      <trkpt lat="47.89172" lon="6.89855">
        <ele>797</ele>
        <time>2026-05-09T10:48:13.384Z</time>
      </trkpt>
      <trkpt lat="47.89172" lon="6.89855">
        <ele>798</ele>
        <time>2026-05-09T10:48:14.384Z</time>
      </trkpt>
      <trkpt lat="47.89172" lon="6.89855">
        <ele>798</ele>
        <time>2026-05-09T10:48:15.385Z</time>
      </trkpt>
      <trkpt lat="47.89173" lon="6.89856">
        <ele>798</ele>
        <time>2026-05-09T10:48:16.385Z</time>
      </trkpt>
      <trkpt lat="47.89175" lon="6.89856">
        <ele>798</ele>
        <time>2026-05-09T10:48:17.384Z</time>
      </trkpt>
      <trkpt lat="47.89177" lon="6.89858">
        <ele>799</ele>
        <time>2026-05-09T10:48:18.384Z</time>
      </trkpt>
      <trkpt lat="47.89178" lon="6.89859">
        <ele>800</ele>
        <time>2026-05-09T10:48:19.384Z</time>
      </trkpt>
      <trkpt lat="47.89178" lon="6.89859">
        <ele>800</ele>
        <time>2026-05-09T10:48:20.384Z</time>
      </trkpt>
      <trkpt lat="47.8918" lon="6.89859">
        <ele>800</ele>
        <time>2026-05-09T10:48:21.385Z</time>
      </trkpt>
      <trkpt lat="47.8918" lon="6.8986">
        <ele>800</ele>
        <time>2026-05-09T10:48:22.384Z</time>
      </trkpt>
      <trkpt lat="47.89185" lon="6.8986">
        <ele>801</ele>
        <time>2026-05-09T10:48:29.812Z</time>
      </trkpt>
      <trkpt lat="47.89187" lon="6.89862">
        <ele>801</ele>
        <time>2026-05-09T10:48:30.812Z</time>
      </trkpt>
      <trkpt lat="47.8919" lon="6.89863">
        <ele>801</ele>
        <time>2026-05-09T10:48:31.813Z</time>
      </trkpt>
      <trkpt lat="47.89191" lon="6.89864">
        <ele>801</ele>
        <time>2026-05-09T10:48:32.813Z</time>
      </trkpt>
      <trkpt lat="47.89192" lon="6.89864">
        <ele>801</ele>
        <time>2026-05-09T10:48:33.812Z</time>
      </trkpt>
      <trkpt lat="47.89192" lon="6.89865">
        <ele>801</ele>
        <time>2026-05-09T10:48:34.812Z</time>
      </trkpt>
      <trkpt lat="47.89196" lon="6.89867">
        <ele>801</ele>
        <time>2026-05-09T10:48:35.812Z</time>
      </trkpt>
      <trkpt lat="47.89198" lon="6.89869">
        <ele>800</ele>
        <time>2026-05-09T10:48:36.813Z</time>
      </trkpt>
      <trkpt lat="47.89199" lon="6.89869">
        <ele>800</ele>
        <time>2026-05-09T10:48:37.812Z</time>
      </trkpt>
      <trkpt lat="47.892" lon="6.89869">
        <ele>800</ele>
        <time>2026-05-09T10:48:38.812Z</time>
      </trkpt>
      <trkpt lat="47.89201" lon="6.89869">
        <ele>799</ele>
        <time>2026-05-09T10:48:39.812Z</time>
      </trkpt>
      <trkpt lat="47.89201" lon="6.8987">
        <ele>799</ele>
        <time>2026-05-09T10:48:40.813Z</time>
      </trkpt>
      <trkpt lat="47.89204" lon="6.89871">
        <ele>799</ele>
        <time>2026-05-09T10:48:41.812Z</time>
      </trkpt>
      <trkpt lat="47.89208" lon="6.89871">
        <ele>798</ele>
        <time>2026-05-09T10:48:42.812Z</time>
      </trkpt>
      <trkpt lat="47.89212" lon="6.89873">
        <ele>798</ele>
        <time>2026-05-09T10:48:43.812Z</time>
      </trkpt>
      <trkpt lat="47.89212" lon="6.89873">
        <ele>798</ele>
        <time>2026-05-09T10:48:44.812Z</time>
      </trkpt>
      <trkpt lat="47.89214" lon="6.89874">
        <ele>797</ele>
        <time>2026-05-09T10:48:45.812Z</time>
      </trkpt>
      <trkpt lat="47.89213" lon="6.89875">
        <ele>797</ele>
        <time>2026-05-09T10:48:46.813Z</time>
      </trkpt>
      <trkpt lat="47.89213" lon="6.89875">
        <ele>797</ele>
        <time>2026-05-09T10:48:47.812Z</time>
      </trkpt>
      <trkpt lat="47.89213" lon="6.89874">
        <ele>797</ele>
        <time>2026-05-09T10:48:48.812Z</time>
      </trkpt>
      <trkpt lat="47.89213" lon="6.89874">
        <ele>797</ele>
        <time>2026-05-09T10:48:49.812Z</time>
      </trkpt>
      <trkpt lat="47.89214" lon="6.89874">
        <ele>797</ele>
        <time>2026-05-09T10:48:50.813Z</time>
      </trkpt>
      <trkpt lat="47.89215" lon="6.89874">
        <ele>797</ele>
        <time>2026-05-09T10:48:51.812Z</time>
      </trkpt>
      <trkpt lat="47.89216" lon="6.89875">
        <ele>797</ele>
        <time>2026-05-09T10:48:52.812Z</time>
      </trkpt>
      <trkpt lat="47.89216" lon="6.89876">
        <ele>797</ele>
        <time>2026-05-09T10:48:53.812Z</time>
      </trkpt>
      <trkpt lat="47.89217" lon="6.89876">
        <ele>798</ele>
        <time>2026-05-09T10:48:54.812Z</time>
      </trkpt>
      <trkpt lat="47.89218" lon="6.89877">
        <ele>799</ele>
        <time>2026-05-09T10:48:55.813Z</time>
      </trkpt>
      <trkpt lat="47.89219" lon="6.89877">
        <ele>799</ele>
        <time>2026-05-09T10:48:56.813Z</time>
      </trkpt>
      <trkpt lat="47.89219" lon="6.89877">
        <ele>800</ele>
        <time>2026-05-09T10:48:57.813Z</time>
      </trkpt>
      <trkpt lat="47.89219" lon="6.89877">
        <ele>800</ele>
        <time>2026-05-09T10:48:58.813Z</time>
      </trkpt>
      <trkpt lat="47.89221" lon="6.89879">
        <ele>801</ele>
        <time>2026-05-09T10:48:59.812Z</time>
      </trkpt>
      <trkpt lat="47.89222" lon="6.8988">
        <ele>801</ele>
        <time>2026-05-09T10:49:00.813Z</time>
      </trkpt>
      <trkpt lat="47.89222" lon="6.8988">
        <ele>802</ele>
        <time>2026-05-09T10:49:01.813Z</time>
      </trkpt>
      <trkpt lat="47.89224" lon="6.8988">
        <ele>802</ele>
        <time>2026-05-09T10:49:02.812Z</time>
      </trkpt>
      <trkpt lat="47.89225" lon="6.89881">
        <ele>803</ele>
        <time>2026-05-09T10:49:03.812Z</time>
      </trkpt>
      <trkpt lat="47.89226" lon="6.89882">
        <ele>803</ele>
        <time>2026-05-09T10:49:04.812Z</time>
      </trkpt>
      <trkpt lat="47.89227" lon="6.89882">
        <ele>804</ele>
        <time>2026-05-09T10:49:05.812Z</time>
      </trkpt>
      <trkpt lat="47.89227" lon="6.89883">
        <ele>804</ele>
        <time>2026-05-09T10:49:06.812Z</time>
      </trkpt>
      <trkpt lat="47.89228" lon="6.89883">
        <ele>804</ele>
        <time>2026-05-09T10:49:07.812Z</time>
      </trkpt>
      <trkpt lat="47.89229" lon="6.89884">
        <ele>804</ele>
        <time>2026-05-09T10:49:08.812Z</time>
      </trkpt>
      <trkpt lat="47.8923" lon="6.89884">
        <ele>805</ele>
        <time>2026-05-09T10:49:09.813Z</time>
      </trkpt>
      <trkpt lat="47.89232" lon="6.89885">
        <ele>806</ele>
        <time>2026-05-09T10:49:10.813Z</time>
      </trkpt>
      <trkpt lat="47.89233" lon="6.89886">
        <ele>806</ele>
        <time>2026-05-09T10:49:11.813Z</time>
      </trkpt>
      <trkpt lat="47.89233" lon="6.89886">
        <ele>807</ele>
        <time>2026-05-09T10:49:12.812Z</time>
      </trkpt>
      <trkpt lat="47.89234" lon="6.89886">
        <ele>808</ele>
        <time>2026-05-09T10:49:13.813Z</time>
      </trkpt>
      <trkpt lat="47.89234" lon="6.89887">
        <ele>808</ele>
        <time>2026-05-09T10:49:14.812Z</time>
      </trkpt>
      <trkpt lat="47.89235" lon="6.89888">
        <ele>809</ele>
        <time>2026-05-09T10:49:15.813Z</time>
      </trkpt>
      <trkpt lat="47.89238" lon="6.89887">
        <ele>809</ele>
        <time>2026-05-09T10:49:16.812Z</time>
      </trkpt>
      <trkpt lat="47.89239" lon="6.89888">
        <ele>810</ele>
        <time>2026-05-09T10:49:17.812Z</time>
      </trkpt>
      <trkpt lat="47.8924" lon="6.89889">
        <ele>810</ele>
        <time>2026-05-09T10:49:18.812Z</time>
      </trkpt>
      <trkpt lat="47.89241" lon="6.89889">
        <ele>810</ele>
        <time>2026-05-09T10:49:19.812Z</time>
      </trkpt>
      <trkpt lat="47.89243" lon="6.89888">
        <ele>811</ele>
        <time>2026-05-09T10:49:20.813Z</time>
      </trkpt>
      <trkpt lat="47.89245" lon="6.89889">
        <ele>811</ele>
        <time>2026-05-09T10:49:21.813Z</time>
      </trkpt>
      <trkpt lat="47.89247" lon="6.89889">
        <ele>811</ele>
        <time>2026-05-09T10:49:22.812Z</time>
      </trkpt>
      <trkpt lat="47.89248" lon="6.8989">
        <ele>811</ele>
        <time>2026-05-09T10:49:23.812Z</time>
      </trkpt>
      <trkpt lat="47.89249" lon="6.8989">
        <ele>812</ele>
        <time>2026-05-09T10:49:24.812Z</time>
      </trkpt>
      <trkpt lat="47.8925" lon="6.8989">
        <ele>812</ele>
        <time>2026-05-09T10:49:25.813Z</time>
      </trkpt>
      <trkpt lat="47.89252" lon="6.89891">
        <ele>811</ele>
        <time>2026-05-09T10:49:26.812Z</time>
      </trkpt>
      <trkpt lat="47.89253" lon="6.89891">
        <ele>811</ele>
        <time>2026-05-09T10:49:27.813Z</time>
      </trkpt>
      <trkpt lat="47.89254" lon="6.89891">
        <ele>811</ele>
        <time>2026-05-09T10:49:28.812Z</time>
      </trkpt>
      <trkpt lat="47.89255" lon="6.89891">
        <ele>811</ele>
        <time>2026-05-09T10:49:29.812Z</time>
      </trkpt>
      <trkpt lat="47.89256" lon="6.89892">
        <ele>811</ele>
        <time>2026-05-09T10:49:30.812Z</time>
      </trkpt>
      <trkpt lat="47.89257" lon="6.89891">
        <ele>812</ele>
        <time>2026-05-09T10:49:31.813Z</time>
      </trkpt>
      <trkpt lat="47.89257" lon="6.89891">
        <ele>812</ele>
        <time>2026-05-09T10:49:32.812Z</time>
      </trkpt>
      <trkpt lat="47.89258" lon="6.89891">
        <ele>812</ele>
        <time>2026-05-09T10:49:33.813Z</time>
      </trkpt>
      <trkpt lat="47.89259" lon="6.89891">
        <ele>813</ele>
        <time>2026-05-09T10:49:34.812Z</time>
      </trkpt>
      <trkpt lat="47.8926" lon="6.89891">
        <ele>813</ele>
        <time>2026-05-09T10:49:35.813Z</time>
      </trkpt>
      <trkpt lat="47.89261" lon="6.89891">
        <ele>814</ele>
        <time>2026-05-09T10:49:36.812Z</time>
      </trkpt>
      <trkpt lat="47.89263" lon="6.8989">
        <ele>815</ele>
        <time>2026-05-09T10:49:37.813Z</time>
      </trkpt>
      <trkpt lat="47.89264" lon="6.8989">
        <ele>815</ele>
        <time>2026-05-09T10:49:38.812Z</time>
      </trkpt>
      <trkpt lat="47.89265" lon="6.89891">
        <ele>816</ele>
        <time>2026-05-09T10:49:39.813Z</time>
      </trkpt>
      <trkpt lat="47.89266" lon="6.89891">
        <ele>817</ele>
        <time>2026-05-09T10:49:40.813Z</time>
      </trkpt>
      <trkpt lat="47.89267" lon="6.8989">
        <ele>817</ele>
        <time>2026-05-09T10:49:41.812Z</time>
      </trkpt>
      <trkpt lat="47.89267" lon="6.8989">
        <ele>818</ele>
        <time>2026-05-09T10:49:42.813Z</time>
      </trkpt>
      <trkpt lat="47.89268" lon="6.8989">
        <ele>819</ele>
        <time>2026-05-09T10:49:43.812Z</time>
      </trkpt>
      <trkpt lat="47.89268" lon="6.8989">
        <ele>820</ele>
        <time>2026-05-09T10:49:44.812Z</time>
      </trkpt>
      <trkpt lat="47.89268" lon="6.8989">
        <ele>822</ele>
        <time>2026-05-09T10:49:45.812Z</time>
      </trkpt>
      <trkpt lat="47.89269" lon="6.8989">
        <ele>823</ele>
        <time>2026-05-09T10:49:46.813Z</time>
      </trkpt>
      <trkpt lat="47.89269" lon="6.8989">
        <ele>824</ele>
        <time>2026-05-09T10:49:47.812Z</time>
      </trkpt>
      <trkpt lat="47.89269" lon="6.89891">
        <ele>825</ele>
        <time>2026-05-09T10:49:48.813Z</time>
      </trkpt>
      <trkpt lat="47.8927" lon="6.89891">
        <ele>826</ele>
        <time>2026-05-09T10:49:49.813Z</time>
      </trkpt>
      <trkpt lat="47.8927" lon="6.89891">
        <ele>826</ele>
        <time>2026-05-09T10:49:50.813Z</time>
      </trkpt>
      <trkpt lat="47.89271" lon="6.89891">
        <ele>827</ele>
        <time>2026-05-09T10:49:51.812Z</time>
      </trkpt>
      <trkpt lat="47.89272" lon="6.8989">
        <ele>828</ele>
        <time>2026-05-09T10:49:52.813Z</time>
      </trkpt>
      <trkpt lat="47.89272" lon="6.8989">
        <ele>829</ele>
        <time>2026-05-09T10:49:53.812Z</time>
      </trkpt>
      <trkpt lat="47.89273" lon="6.8989">
        <ele>829</ele>
        <time>2026-05-09T10:49:54.813Z</time>
      </trkpt>
      <trkpt lat="47.89273" lon="6.89891">
        <ele>830</ele>
        <time>2026-05-09T10:49:55.812Z</time>
      </trkpt>
      <trkpt lat="47.89274" lon="6.8989">
        <ele>830</ele>
        <time>2026-05-09T10:49:56.812Z</time>
      </trkpt>
      <trkpt lat="47.89274" lon="6.89889">
        <ele>830</ele>
        <time>2026-05-09T10:49:57.812Z</time>
      </trkpt>
      <trkpt lat="47.89274" lon="6.89888">
        <ele>831</ele>
        <time>2026-05-09T10:49:58.812Z</time>
      </trkpt>
      <trkpt lat="47.89274" lon="6.89887">
        <ele>832</ele>
        <time>2026-05-09T10:49:59.813Z</time>
      </trkpt>
      <trkpt lat="47.89274" lon="6.89886">
        <ele>832</ele>
        <time>2026-05-09T10:50:00.812Z</time>
      </trkpt>
      <trkpt lat="47.89275" lon="6.89886">
        <ele>833</ele>
        <time>2026-05-09T10:50:01.812Z</time>
      </trkpt>
      <trkpt lat="47.89276" lon="6.89884">
        <ele>834</ele>
        <time>2026-05-09T10:50:02.812Z</time>
      </trkpt>
      <trkpt lat="47.89276" lon="6.89883">
        <ele>835</ele>
        <time>2026-05-09T10:50:03.812Z</time>
      </trkpt>
      <trkpt lat="47.89277" lon="6.89882">
        <ele>836</ele>
        <time>2026-05-09T10:50:04.812Z</time>
      </trkpt>
      <trkpt lat="47.89279" lon="6.89881">
        <ele>836</ele>
        <time>2026-05-09T10:50:05.813Z</time>
      </trkpt>
      <trkpt lat="47.8928" lon="6.8988">
        <ele>837</ele>
        <time>2026-05-09T10:50:06.812Z</time>
      </trkpt>
      <trkpt lat="47.8928" lon="6.8988">
        <ele>838</ele>
        <time>2026-05-09T10:50:07.812Z</time>
      </trkpt>
      <trkpt lat="47.89281" lon="6.8988">
        <ele>839</ele>
        <time>2026-05-09T10:50:08.812Z</time>
      </trkpt>
      <trkpt lat="47.89282" lon="6.8988">
        <ele>840</ele>
        <time>2026-05-09T10:50:09.813Z</time>
      </trkpt>
      <trkpt lat="47.89283" lon="6.8988">
        <ele>840</ele>
        <time>2026-05-09T10:50:10.812Z</time>
      </trkpt>
      <trkpt lat="47.89283" lon="6.8988">
        <ele>841</ele>
        <time>2026-05-09T10:50:11.813Z</time>
      </trkpt>
      <trkpt lat="47.89284" lon="6.8988">
        <ele>842</ele>
        <time>2026-05-09T10:50:12.813Z</time>
      </trkpt>
      <trkpt lat="47.89284" lon="6.8988">
        <ele>842</ele>
        <time>2026-05-09T10:50:13.813Z</time>
      </trkpt>
      <trkpt lat="47.89284" lon="6.89879">
        <ele>843</ele>
        <time>2026-05-09T10:50:14.812Z</time>
      </trkpt>
      <trkpt lat="47.89285" lon="6.89877">
        <ele>843</ele>
        <time>2026-05-09T10:50:15.813Z</time>
      </trkpt>
      <trkpt lat="47.89285" lon="6.89877">
        <ele>843</ele>
        <time>2026-05-09T10:50:16.813Z</time>
      </trkpt>
      <trkpt lat="47.89286" lon="6.89876">
        <ele>844</ele>
        <time>2026-05-09T10:50:17.812Z</time>
      </trkpt>
      <trkpt lat="47.89287" lon="6.89875">
        <ele>845</ele>
        <time>2026-05-09T10:50:18.813Z</time>
      </trkpt>
      <trkpt lat="47.89287" lon="6.89874">
        <ele>845</ele>
        <time>2026-05-09T10:50:19.812Z</time>
      </trkpt>
      <trkpt lat="47.89288" lon="6.89874">
        <ele>846</ele>
        <time>2026-05-09T10:50:20.812Z</time>
      </trkpt>
      <trkpt lat="47.89288" lon="6.89873">
        <ele>846</ele>
        <time>2026-05-09T10:50:21.813Z</time>
      </trkpt>
      <trkpt lat="47.89289" lon="6.89873">
        <ele>847</ele>
        <time>2026-05-09T10:50:22.812Z</time>
      </trkpt>
      <trkpt lat="47.8929" lon="6.89872">
        <ele>847</ele>
        <time>2026-05-09T10:50:23.813Z</time>
      </trkpt>
      <trkpt lat="47.8929" lon="6.89872">
        <ele>848</ele>
        <time>2026-05-09T10:50:24.812Z</time>
      </trkpt>
      <trkpt lat="47.89291" lon="6.89871">
        <ele>848</ele>
        <time>2026-05-09T10:50:25.813Z</time>
      </trkpt>
      <trkpt lat="47.89292" lon="6.8987">
        <ele>848</ele>
        <time>2026-05-09T10:50:26.812Z</time>
      </trkpt>
      <trkpt lat="47.89293" lon="6.89868">
        <ele>848</ele>
        <time>2026-05-09T10:50:27.813Z</time>
      </trkpt>
      <trkpt lat="47.89293" lon="6.89865">
        <ele>848</ele>
        <time>2026-05-09T10:50:28.812Z</time>
      </trkpt>
      <trkpt lat="47.89293" lon="6.89863">
        <ele>849</ele>
        <time>2026-05-09T10:50:29.812Z</time>
      </trkpt>
      <trkpt lat="47.89292" lon="6.89861">
        <ele>849</ele>
        <time>2026-05-09T10:50:30.813Z</time>
      </trkpt>
      <trkpt lat="47.89293" lon="6.8986">
        <ele>849</ele>
        <time>2026-05-09T10:50:31.812Z</time>
      </trkpt>
      <trkpt lat="47.89294" lon="6.89858">
        <ele>848</ele>
        <time>2026-05-09T10:50:32.813Z</time>
      </trkpt>
      <trkpt lat="47.89295" lon="6.89857">
        <ele>848</ele>
        <time>2026-05-09T10:50:33.812Z</time>
      </trkpt>
      <trkpt lat="47.89295" lon="6.89857">
        <ele>848</ele>
        <time>2026-05-09T10:50:34.813Z</time>
      </trkpt>
      <trkpt lat="47.89296" lon="6.89857">
        <ele>848</ele>
        <time>2026-05-09T10:50:35.812Z</time>
      </trkpt>
      <trkpt lat="47.89296" lon="6.89856">
        <ele>847</ele>
        <time>2026-05-09T10:50:36.812Z</time>
      </trkpt>
      <trkpt lat="47.89297" lon="6.89856">
        <ele>847</ele>
        <time>2026-05-09T10:50:37.812Z</time>
      </trkpt>
      <trkpt lat="47.89298" lon="6.89855">
        <ele>847</ele>
        <time>2026-05-09T10:50:38.812Z</time>
      </trkpt>
      <trkpt lat="47.89298" lon="6.89854">
        <ele>847</ele>
        <time>2026-05-09T10:50:39.812Z</time>
      </trkpt>
      <trkpt lat="47.89299" lon="6.89854">
        <ele>847</ele>
        <time>2026-05-09T10:50:40.812Z</time>
      </trkpt>
      <trkpt lat="47.89299" lon="6.89854">
        <ele>846</ele>
        <time>2026-05-09T10:50:41.812Z</time>
      </trkpt>
      <trkpt lat="47.893" lon="6.89854">
        <ele>846</ele>
        <time>2026-05-09T10:50:42.812Z</time>
      </trkpt>
      <trkpt lat="47.893" lon="6.89853">
        <ele>845</ele>
        <time>2026-05-09T10:50:43.812Z</time>
      </trkpt>
      <trkpt lat="47.89301" lon="6.89853">
        <ele>845</ele>
        <time>2026-05-09T10:50:44.813Z</time>
      </trkpt>
      <trkpt lat="47.89302" lon="6.89853">
        <ele>844</ele>
        <time>2026-05-09T10:50:45.813Z</time>
      </trkpt>
      <trkpt lat="47.89303" lon="6.89852">
        <ele>843</ele>
        <time>2026-05-09T10:50:46.812Z</time>
      </trkpt>
      <trkpt lat="47.89304" lon="6.89852">
        <ele>842</ele>
        <time>2026-05-09T10:50:47.813Z</time>
      </trkpt>
      <trkpt lat="47.89304" lon="6.89852">
        <ele>840</ele>
        <time>2026-05-09T10:50:48.812Z</time>
      </trkpt>
      <trkpt lat="47.89305" lon="6.89851">
        <ele>839</ele>
        <time>2026-05-09T10:50:49.813Z</time>
      </trkpt>
      <trkpt lat="47.89305" lon="6.89851">
        <ele>838</ele>
        <time>2026-05-09T10:50:50.812Z</time>
      </trkpt>
      <trkpt lat="47.89305" lon="6.89851">
        <ele>837</ele>
        <time>2026-05-09T10:50:51.813Z</time>
      </trkpt>
      <trkpt lat="47.89306" lon="6.8985">
        <ele>836</ele>
        <time>2026-05-09T10:50:52.812Z</time>
      </trkpt>
      <trkpt lat="47.89307" lon="6.8985">
        <ele>836</ele>
        <time>2026-05-09T10:50:53.813Z</time>
      </trkpt>
      <trkpt lat="47.89308" lon="6.89849">
        <ele>835</ele>
        <time>2026-05-09T10:50:54.812Z</time>
      </trkpt>
      <trkpt lat="47.89308" lon="6.89849">
        <ele>835</ele>
        <time>2026-05-09T10:50:55.813Z</time>
      </trkpt>
      <trkpt lat="47.89308" lon="6.89849">
        <ele>834</ele>
        <time>2026-05-09T10:50:56.812Z</time>
      </trkpt>
      <trkpt lat="47.8931" lon="6.89849">
        <ele>834</ele>
        <time>2026-05-09T10:50:57.813Z</time>
      </trkpt>
      <trkpt lat="47.89315" lon="6.89847">
        <ele>834</ele>
        <time>2026-05-09T10:51:04.145Z</time>
      </trkpt>
      <trkpt lat="47.89315" lon="6.89847">
        <ele>835</ele>
        <time>2026-05-09T10:51:05.144Z</time>
      </trkpt>
      <trkpt lat="47.89316" lon="6.89847">
        <ele>835</ele>
        <time>2026-05-09T10:51:06.144Z</time>
      </trkpt>
      <trkpt lat="47.89317" lon="6.89847">
        <ele>836</ele>
        <time>2026-05-09T10:51:07.145Z</time>
      </trkpt>
      <trkpt lat="47.89317" lon="6.89847">
        <ele>836</ele>
        <time>2026-05-09T10:51:08.144Z</time>
      </trkpt>
      <trkpt lat="47.89318" lon="6.89847">
        <ele>837</ele>
        <time>2026-05-09T10:51:09.144Z</time>
      </trkpt>
      <trkpt lat="47.89318" lon="6.89847">
        <ele>837</ele>
        <time>2026-05-09T10:51:10.145Z</time>
      </trkpt>
      <trkpt lat="47.89318" lon="6.89846">
        <ele>837</ele>
        <time>2026-05-09T10:51:11.144Z</time>
      </trkpt>
      <trkpt lat="47.89318" lon="6.89846">
        <ele>838</ele>
        <time>2026-05-09T10:51:12.145Z</time>
      </trkpt>
      <trkpt lat="47.89319" lon="6.89846">
        <ele>838</ele>
        <time>2026-05-09T10:51:13.144Z</time>
      </trkpt>
      <trkpt lat="47.89319" lon="6.89846">
        <ele>838</ele>
        <time>2026-05-09T10:51:14.144Z</time>
      </trkpt>
      <trkpt lat="47.8932" lon="6.89846">
        <ele>839</ele>
        <time>2026-05-09T10:51:15.145Z</time>
      </trkpt>
      <trkpt lat="47.89321" lon="6.89845">
        <ele>839</ele>
        <time>2026-05-09T10:51:16.144Z</time>
      </trkpt>
      <trkpt lat="47.89322" lon="6.89845">
        <ele>839</ele>
        <time>2026-05-09T10:51:17.145Z</time>
      </trkpt>
      <trkpt lat="47.89324" lon="6.89844">
        <ele>839</ele>
        <time>2026-05-09T10:51:18.144Z</time>
      </trkpt>
      <trkpt lat="47.89325" lon="6.89844">
        <ele>839</ele>
        <time>2026-05-09T10:51:19.144Z</time>
      </trkpt>
      <trkpt lat="47.89326" lon="6.89844">
        <ele>839</ele>
        <time>2026-05-09T10:51:20.144Z</time>
      </trkpt>
      <trkpt lat="47.89327" lon="6.89844">
        <ele>840</ele>
        <time>2026-05-09T10:51:21.145Z</time>
      </trkpt>
      <trkpt lat="47.89328" lon="6.89844">
        <ele>840</ele>
        <time>2026-05-09T10:51:22.145Z</time>
      </trkpt>
      <trkpt lat="47.89329" lon="6.89845">
        <ele>841</ele>
        <time>2026-05-09T10:51:23.144Z</time>
      </trkpt>
      <trkpt lat="47.8933" lon="6.89845">
        <ele>841</ele>
        <time>2026-05-09T10:51:24.144Z</time>
      </trkpt>
      <trkpt lat="47.89331" lon="6.89846">
        <ele>842</ele>
        <time>2026-05-09T10:51:25.145Z</time>
      </trkpt>
      <trkpt lat="47.89332" lon="6.89847">
        <ele>842</ele>
        <time>2026-05-09T10:51:26.145Z</time>
      </trkpt>
      <trkpt lat="47.89333" lon="6.89847">
        <ele>842</ele>
        <time>2026-05-09T10:51:27.145Z</time>
      </trkpt>
      <trkpt lat="47.89334" lon="6.89847">
        <ele>842</ele>
        <time>2026-05-09T10:51:28.144Z</time>
      </trkpt>
      <trkpt lat="47.89334" lon="6.89847">
        <ele>843</ele>
        <time>2026-05-09T10:51:29.145Z</time>
      </trkpt>
      <trkpt lat="47.89335" lon="6.89847">
        <ele>843</ele>
        <time>2026-05-09T10:51:30.144Z</time>
      </trkpt>
      <trkpt lat="47.89335" lon="6.89847">
        <ele>843</ele>
        <time>2026-05-09T10:51:31.145Z</time>
      </trkpt>
      <trkpt lat="47.89336" lon="6.89847">
        <ele>843</ele>
        <time>2026-05-09T10:51:32.144Z</time>
      </trkpt>
      <trkpt lat="47.89337" lon="6.89847">
        <ele>844</ele>
        <time>2026-05-09T10:51:33.144Z</time>
      </trkpt>
      <trkpt lat="47.89337" lon="6.89847">
        <ele>844</ele>
        <time>2026-05-09T10:51:34.145Z</time>
      </trkpt>
      <trkpt lat="47.89338" lon="6.89847">
        <ele>844</ele>
        <time>2026-05-09T10:51:35.144Z</time>
      </trkpt>
      <trkpt lat="47.89338" lon="6.89848">
        <ele>845</ele>
        <time>2026-05-09T10:51:36.145Z</time>
      </trkpt>
      <trkpt lat="47.8934" lon="6.89847">
        <ele>845</ele>
        <time>2026-05-09T10:51:37.144Z</time>
      </trkpt>
      <trkpt lat="47.89341" lon="6.89846">
        <ele>845</ele>
        <time>2026-05-09T10:51:38.145Z</time>
      </trkpt>
      <trkpt lat="47.89342" lon="6.89846">
        <ele>846</ele>
        <time>2026-05-09T10:51:39.144Z</time>
      </trkpt>
      <trkpt lat="47.89343" lon="6.89846">
        <ele>847</ele>
        <time>2026-05-09T10:51:40.145Z</time>
      </trkpt>
      <trkpt lat="47.89344" lon="6.89846">
        <ele>847</ele>
        <time>2026-05-09T10:51:41.144Z</time>
      </trkpt>
      <trkpt lat="47.89345" lon="6.89846">
        <ele>848</ele>
        <time>2026-05-09T10:51:42.145Z</time>
      </trkpt>
      <trkpt lat="47.89346" lon="6.89846">
        <ele>849</ele>
        <time>2026-05-09T10:51:43.144Z</time>
      </trkpt>
      <trkpt lat="47.89347" lon="6.89846">
        <ele>849</ele>
        <time>2026-05-09T10:51:44.144Z</time>
      </trkpt>
      <trkpt lat="47.89349" lon="6.89845">
        <ele>850</ele>
        <time>2026-05-09T10:51:45.145Z</time>
      </trkpt>
      <trkpt lat="47.8935" lon="6.89844">
        <ele>851</ele>
        <time>2026-05-09T10:51:46.144Z</time>
      </trkpt>
      <trkpt lat="47.89351" lon="6.89844">
        <ele>852</ele>
        <time>2026-05-09T10:51:47.145Z</time>
      </trkpt>
      <trkpt lat="47.89352" lon="6.89843">
        <ele>852</ele>
        <time>2026-05-09T10:51:48.144Z</time>
      </trkpt>
      <trkpt lat="47.89353" lon="6.89843">
        <ele>853</ele>
        <time>2026-05-09T10:51:49.145Z</time>
      </trkpt>
      <trkpt lat="47.89354" lon="6.89842">
        <ele>854</ele>
        <time>2026-05-09T10:51:50.144Z</time>
      </trkpt>
      <trkpt lat="47.89357" lon="6.89841">
        <ele>854</ele>
        <time>2026-05-09T10:51:51.144Z</time>
      </trkpt>
      <trkpt lat="47.8936" lon="6.89839">
        <ele>855</ele>
        <time>2026-05-09T10:51:52.144Z</time>
      </trkpt>
      <trkpt lat="47.89362" lon="6.89838">
        <ele>856</ele>
        <time>2026-05-09T10:51:53.144Z</time>
      </trkpt>
      <trkpt lat="47.89362" lon="6.89836">
        <ele>856</ele>
        <time>2026-05-09T10:51:54.144Z</time>
      </trkpt>
      <trkpt lat="47.89363" lon="6.89836">
        <ele>857</ele>
        <time>2026-05-09T10:51:55.145Z</time>
      </trkpt>
      <trkpt lat="47.89364" lon="6.89835">
        <ele>857</ele>
        <time>2026-05-09T10:51:56.145Z</time>
      </trkpt>
      <trkpt lat="47.89366" lon="6.89834">
        <ele>858</ele>
        <time>2026-05-09T10:51:57.144Z</time>
      </trkpt>
      <trkpt lat="47.89367" lon="6.89832">
        <ele>859</ele>
        <time>2026-05-09T10:51:58.144Z</time>
      </trkpt>
      <trkpt lat="47.89368" lon="6.89831">
        <ele>860</ele>
        <time>2026-05-09T10:51:59.144Z</time>
      </trkpt>
      <trkpt lat="47.89369" lon="6.8983">
        <ele>860</ele>
        <time>2026-05-09T10:52:00.145Z</time>
      </trkpt>
      <trkpt lat="47.8937" lon="6.89829">
        <ele>861</ele>
        <time>2026-05-09T10:52:01.145Z</time>
      </trkpt>
      <trkpt lat="47.89372" lon="6.89828">
        <ele>862</ele>
        <time>2026-05-09T10:52:02.144Z</time>
      </trkpt>
      <trkpt lat="47.89373" lon="6.89827">
        <ele>863</ele>
        <time>2026-05-09T10:52:03.144Z</time>
      </trkpt>
      <trkpt lat="47.89374" lon="6.89826">
        <ele>864</ele>
        <time>2026-05-09T10:52:04.145Z</time>
      </trkpt>
      <trkpt lat="47.89376" lon="6.89826">
        <ele>865</ele>
        <time>2026-05-09T10:52:05.145Z</time>
      </trkpt>
      <trkpt lat="47.89377" lon="6.89826">
        <ele>865</ele>
        <time>2026-05-09T10:52:06.144Z</time>
      </trkpt>
      <trkpt lat="47.89378" lon="6.89826">
        <ele>865</ele>
        <time>2026-05-09T10:52:07.145Z</time>
      </trkpt>
      <trkpt lat="47.8938" lon="6.89826">
        <ele>865</ele>
        <time>2026-05-09T10:52:08.145Z</time>
      </trkpt>
      <trkpt lat="47.89381" lon="6.89825">
        <ele>865</ele>
        <time>2026-05-09T10:52:09.144Z</time>
      </trkpt>
      <trkpt lat="47.89383" lon="6.89825">
        <ele>865</ele>
        <time>2026-05-09T10:52:10.145Z</time>
      </trkpt>
      <trkpt lat="47.89384" lon="6.89824">
        <ele>865</ele>
        <time>2026-05-09T10:52:11.145Z</time>
      </trkpt>
      <trkpt lat="47.89386" lon="6.89823">
        <ele>865</ele>
        <time>2026-05-09T10:52:12.144Z</time>
      </trkpt>
      <trkpt lat="47.89387" lon="6.89821">
        <ele>865</ele>
        <time>2026-05-09T10:52:13.145Z</time>
      </trkpt>
      <trkpt lat="47.89388" lon="6.89819">
        <ele>865</ele>
        <time>2026-05-09T10:52:14.144Z</time>
      </trkpt>
      <trkpt lat="47.89389" lon="6.89818">
        <ele>865</ele>
        <time>2026-05-09T10:52:15.145Z</time>
      </trkpt>
      <trkpt lat="47.8939" lon="6.89817">
        <ele>865</ele>
        <time>2026-05-09T10:52:16.145Z</time>
      </trkpt>
      <trkpt lat="47.89392" lon="6.89816">
        <ele>865</ele>
        <time>2026-05-09T10:52:17.144Z</time>
      </trkpt>
      <trkpt lat="47.89392" lon="6.89817">
        <ele>865</ele>
        <time>2026-05-09T10:52:18.145Z</time>
      </trkpt>
      <trkpt lat="47.8939" lon="6.89821">
        <ele>865</ele>
        <time>2026-05-09T10:52:19.145Z</time>
      </trkpt>
      <trkpt lat="47.89389" lon="6.89826">
        <ele>865</ele>
        <time>2026-05-09T10:52:20.145Z</time>
      </trkpt>
      <trkpt lat="47.89389" lon="6.89827">
        <ele>865</ele>
        <time>2026-05-09T10:52:21.145Z</time>
      </trkpt>
      <trkpt lat="47.89391" lon="6.89827">
        <ele>865</ele>
        <time>2026-05-09T10:52:22.144Z</time>
      </trkpt>
      <trkpt lat="47.89391" lon="6.89828">
        <ele>866</ele>
        <time>2026-05-09T10:52:23.144Z</time>
      </trkpt>
      <trkpt lat="47.89394" lon="6.89829">
        <ele>866</ele>
        <time>2026-05-09T10:52:24.144Z</time>
      </trkpt>
      <trkpt lat="47.89396" lon="6.89827">
        <ele>866</ele>
        <time>2026-05-09T10:52:25.145Z</time>
      </trkpt>
      <trkpt lat="47.89398" lon="6.89825">
        <ele>866</ele>
        <time>2026-05-09T10:52:26.145Z</time>
      </trkpt>
      <trkpt lat="47.89401" lon="6.89825">
        <ele>866</ele>
        <time>2026-05-09T10:52:27.145Z</time>
      </trkpt>
      <trkpt lat="47.89402" lon="6.89825">
        <ele>866</ele>
        <time>2026-05-09T10:52:28.145Z</time>
      </trkpt>
      <trkpt lat="47.89403" lon="6.89823">
        <ele>866</ele>
        <time>2026-05-09T10:52:29.145Z</time>
      </trkpt>
      <trkpt lat="47.89405" lon="6.89823">
        <ele>866</ele>
        <time>2026-05-09T10:52:30.145Z</time>
      </trkpt>
      <trkpt lat="47.89408" lon="6.89826">
        <ele>866</ele>
        <time>2026-05-09T10:52:31.144Z</time>
      </trkpt>
      <trkpt lat="47.89408" lon="6.89828">
        <ele>866</ele>
        <time>2026-05-09T10:52:32.145Z</time>
      </trkpt>
      <trkpt lat="47.89408" lon="6.89831">
        <ele>866</ele>
        <time>2026-05-09T10:52:33.144Z</time>
      </trkpt>
      <trkpt lat="47.89408" lon="6.89831">
        <ele>866</ele>
        <time>2026-05-09T10:52:34.145Z</time>
      </trkpt>
      <trkpt lat="47.89408" lon="6.89833">
        <ele>866</ele>
        <time>2026-05-09T10:52:35.144Z</time>
      </trkpt>
      <trkpt lat="47.89408" lon="6.89833">
        <ele>865</ele>
        <time>2026-05-09T10:52:36.145Z</time>
      </trkpt>
      <trkpt lat="47.89409" lon="6.89835">
        <ele>865</ele>
        <time>2026-05-09T10:52:37.144Z</time>
      </trkpt>
      <trkpt lat="47.89409" lon="6.89838">
        <ele>865</ele>
        <time>2026-05-09T10:52:38.145Z</time>
      </trkpt>
      <trkpt lat="47.89409" lon="6.8984">
        <ele>865</ele>
        <time>2026-05-09T10:52:39.145Z</time>
      </trkpt>
      <trkpt lat="47.89409" lon="6.8984">
        <ele>865</ele>
        <time>2026-05-09T10:52:40.144Z</time>
      </trkpt>
      <trkpt lat="47.89409" lon="6.89841">
        <ele>864</ele>
        <time>2026-05-09T10:52:41.144Z</time>
      </trkpt>
      <trkpt lat="47.89409" lon="6.89842">
        <ele>864</ele>
        <time>2026-05-09T10:52:42.145Z</time>
      </trkpt>
      <trkpt lat="47.89411" lon="6.89842">
        <ele>864</ele>
        <time>2026-05-09T10:52:43.144Z</time>
      </trkpt>
      <trkpt lat="47.89411" lon="6.89842">
        <ele>863</ele>
        <time>2026-05-09T10:52:44.145Z</time>
      </trkpt>
      <trkpt lat="47.89411" lon="6.89843">
        <ele>863</ele>
        <time>2026-05-09T10:52:45.145Z</time>
      </trkpt>
      <trkpt lat="47.89411" lon="6.89843">
        <ele>862</ele>
        <time>2026-05-09T10:52:46.144Z</time>
      </trkpt>
      <trkpt lat="47.89411" lon="6.89843">
        <ele>862</ele>
        <time>2026-05-09T10:52:47.145Z</time>
      </trkpt>
      <trkpt lat="47.89412" lon="6.89844">
        <ele>862</ele>
        <time>2026-05-09T10:52:48.144Z</time>
      </trkpt>
      <trkpt lat="47.89413" lon="6.89845">
        <ele>861</ele>
        <time>2026-05-09T10:52:49.145Z</time>
      </trkpt>
      <trkpt lat="47.89413" lon="6.89846">
        <ele>861</ele>
        <time>2026-05-09T10:52:50.145Z</time>
      </trkpt>
      <trkpt lat="47.89414" lon="6.89846">
        <ele>860</ele>
        <time>2026-05-09T10:52:51.145Z</time>
      </trkpt>
      <trkpt lat="47.89414" lon="6.89847">
        <ele>860</ele>
        <time>2026-05-09T10:52:52.144Z</time>
      </trkpt>
      <trkpt lat="47.89414" lon="6.89848">
        <ele>860</ele>
        <time>2026-05-09T10:52:53.145Z</time>
      </trkpt>
      <trkpt lat="47.89414" lon="6.89849">
        <ele>860</ele>
        <time>2026-05-09T10:52:54.144Z</time>
      </trkpt>
      <trkpt lat="47.89415" lon="6.8985">
        <ele>860</ele>
        <time>2026-05-09T10:52:55.144Z</time>
      </trkpt>
      <trkpt lat="47.89416" lon="6.89851">
        <ele>860</ele>
        <time>2026-05-09T10:52:56.144Z</time>
      </trkpt>
      <trkpt lat="47.89417" lon="6.89853">
        <ele>859</ele>
        <time>2026-05-09T10:52:57.144Z</time>
      </trkpt>
      <trkpt lat="47.89417" lon="6.89854">
        <ele>859</ele>
        <time>2026-05-09T10:52:58.144Z</time>
      </trkpt>
      <trkpt lat="47.89417" lon="6.89856">
        <ele>858</ele>
        <time>2026-05-09T10:52:59.144Z</time>
      </trkpt>
      <trkpt lat="47.89417" lon="6.89856">
        <ele>858</ele>
        <time>2026-05-09T10:53:00.145Z</time>
      </trkpt>
      <trkpt lat="47.89418" lon="6.89857">
        <ele>857</ele>
        <time>2026-05-09T10:53:01.145Z</time>
      </trkpt>
      <trkpt lat="47.89419" lon="6.89859">
        <ele>857</ele>
        <time>2026-05-09T10:53:02.144Z</time>
      </trkpt>
      <trkpt lat="47.8942" lon="6.89859">
        <ele>856</ele>
        <time>2026-05-09T10:53:03.145Z</time>
      </trkpt>
      <trkpt lat="47.8942" lon="6.8986">
        <ele>856</ele>
        <time>2026-05-09T10:53:04.145Z</time>
      </trkpt>
      <trkpt lat="47.89421" lon="6.89862">
        <ele>856</ele>
        <time>2026-05-09T10:53:05.145Z</time>
      </trkpt>
      <trkpt lat="47.89422" lon="6.89863">
        <ele>856</ele>
        <time>2026-05-09T10:53:06.145Z</time>
      </trkpt>
      <trkpt lat="47.89422" lon="6.89864">
        <ele>856</ele>
        <time>2026-05-09T10:53:07.145Z</time>
      </trkpt>
      <trkpt lat="47.89423" lon="6.89866">
        <ele>856</ele>
        <time>2026-05-09T10:53:08.144Z</time>
      </trkpt>
      <trkpt lat="47.89423" lon="6.89868">
        <ele>856</ele>
        <time>2026-05-09T10:53:09.144Z</time>
      </trkpt>
      <trkpt lat="47.89423" lon="6.89869">
        <ele>857</ele>
        <time>2026-05-09T10:53:10.145Z</time>
      </trkpt>
      <trkpt lat="47.89424" lon="6.89871">
        <ele>857</ele>
        <time>2026-05-09T10:53:11.144Z</time>
      </trkpt>
      <trkpt lat="47.89425" lon="6.89873">
        <ele>858</ele>
        <time>2026-05-09T10:53:12.145Z</time>
      </trkpt>
      <trkpt lat="47.89425" lon="6.89874">
        <ele>859</ele>
        <time>2026-05-09T10:53:13.144Z</time>
      </trkpt>
      <trkpt lat="47.89426" lon="6.89875">
        <ele>860</ele>
        <time>2026-05-09T10:53:14.145Z</time>
      </trkpt>
      <trkpt lat="47.89427" lon="6.89876">
        <ele>861</ele>
        <time>2026-05-09T10:53:15.145Z</time>
      </trkpt>
      <trkpt lat="47.89428" lon="6.89877">
        <ele>861</ele>
        <time>2026-05-09T10:53:16.145Z</time>
      </trkpt>
      <trkpt lat="47.89428" lon="6.89879">
        <ele>861</ele>
        <time>2026-05-09T10:53:17.145Z</time>
      </trkpt>
      <trkpt lat="47.89429" lon="6.8988">
        <ele>862</ele>
        <time>2026-05-09T10:53:18.144Z</time>
      </trkpt>
      <trkpt lat="47.8943" lon="6.89881">
        <ele>862</ele>
        <time>2026-05-09T10:53:19.145Z</time>
      </trkpt>
      <trkpt lat="47.8943" lon="6.89882">
        <ele>862</ele>
        <time>2026-05-09T10:53:20.144Z</time>
      </trkpt>
      <trkpt lat="47.89431" lon="6.89882">
        <ele>862</ele>
        <time>2026-05-09T10:53:21.144Z</time>
      </trkpt>
      <trkpt lat="47.89433" lon="6.89884">
        <ele>862</ele>
        <time>2026-05-09T10:53:22.145Z</time>
      </trkpt>
      <trkpt lat="47.89434" lon="6.89886">
        <ele>862</ele>
        <time>2026-05-09T10:53:23.144Z</time>
      </trkpt>
      <trkpt lat="47.89435" lon="6.89887">
        <ele>862</ele>
        <time>2026-05-09T10:53:24.145Z</time>
      </trkpt>
      <trkpt lat="47.89436" lon="6.89888">
        <ele>862</ele>
        <time>2026-05-09T10:53:25.144Z</time>
      </trkpt>
      <trkpt lat="47.89436" lon="6.89889">
        <ele>862</ele>
        <time>2026-05-09T10:53:26.145Z</time>
      </trkpt>
      <trkpt lat="47.89437" lon="6.8989">
        <ele>862</ele>
        <time>2026-05-09T10:53:27.145Z</time>
      </trkpt>
      <trkpt lat="47.89438" lon="6.8989">
        <ele>862</ele>
        <time>2026-05-09T10:53:28.144Z</time>
      </trkpt>
      <trkpt lat="47.89438" lon="6.89891">
        <ele>862</ele>
        <time>2026-05-09T10:53:29.145Z</time>
      </trkpt>
      <trkpt lat="47.89439" lon="6.89892">
        <ele>862</ele>
        <time>2026-05-09T10:53:30.145Z</time>
      </trkpt>
      <trkpt lat="47.89441" lon="6.89894">
        <ele>862</ele>
        <time>2026-05-09T10:53:31.145Z</time>
      </trkpt>
      <trkpt lat="47.89443" lon="6.89895">
        <ele>862</ele>
        <time>2026-05-09T10:53:32.145Z</time>
      </trkpt>
      <trkpt lat="47.89444" lon="6.89896">
        <ele>862</ele>
        <time>2026-05-09T10:53:33.144Z</time>
      </trkpt>
      <trkpt lat="47.89445" lon="6.89898">
        <ele>862</ele>
        <time>2026-05-09T10:53:34.145Z</time>
      </trkpt>
      <trkpt lat="47.89447" lon="6.89899">
        <ele>863</ele>
        <time>2026-05-09T10:53:35.145Z</time>
      </trkpt>
      <trkpt lat="47.89448" lon="6.899">
        <ele>863</ele>
        <time>2026-05-09T10:53:36.144Z</time>
      </trkpt>
      <trkpt lat="47.89449" lon="6.89903">
        <ele>863</ele>
        <time>2026-05-09T10:53:37.145Z</time>
      </trkpt>
      <trkpt lat="47.8945" lon="6.89905">
        <ele>863</ele>
        <time>2026-05-09T10:53:38.144Z</time>
      </trkpt>
      <trkpt lat="47.8945" lon="6.89906">
        <ele>863</ele>
        <time>2026-05-09T10:53:39.145Z</time>
      </trkpt>
      <trkpt lat="47.89451" lon="6.89909">
        <ele>863</ele>
        <time>2026-05-09T10:53:40.145Z</time>
      </trkpt>
      <trkpt lat="47.89453" lon="6.89911">
        <ele>864</ele>
        <time>2026-05-09T10:53:41.144Z</time>
      </trkpt>
      <trkpt lat="47.89454" lon="6.89912">
        <ele>864</ele>
        <time>2026-05-09T10:53:42.144Z</time>
      </trkpt>
      <trkpt lat="47.89455" lon="6.89914">
        <ele>864</ele>
        <time>2026-05-09T10:53:43.144Z</time>
      </trkpt>
      <trkpt lat="47.89456" lon="6.89916">
        <ele>865</ele>
        <time>2026-05-09T10:53:44.144Z</time>
      </trkpt>
      <trkpt lat="47.89456" lon="6.89918">
        <ele>865</ele>
        <time>2026-05-09T10:53:45.144Z</time>
      </trkpt>
      <trkpt lat="47.89456" lon="6.89922">
        <ele>866</ele>
        <time>2026-05-09T10:53:46.145Z</time>
      </trkpt>
      <trkpt lat="47.89456" lon="6.89925">
        <ele>866</ele>
        <time>2026-05-09T10:53:47.144Z</time>
      </trkpt>
      <trkpt lat="47.89458" lon="6.89927">
        <ele>866</ele>
        <time>2026-05-09T10:53:48.145Z</time>
      </trkpt>
      <trkpt lat="47.8946" lon="6.89928">
        <ele>866</ele>
        <time>2026-05-09T10:53:49.144Z</time>
      </trkpt>
      <trkpt lat="47.89463" lon="6.89928">
        <ele>867</ele>
        <time>2026-05-09T10:53:50.145Z</time>
      </trkpt>
      <trkpt lat="47.89465" lon="6.89929">
        <ele>867</ele>
        <time>2026-05-09T10:53:51.145Z</time>
      </trkpt>
      <trkpt lat="47.89467" lon="6.89929">
        <ele>867</ele>
        <time>2026-05-09T10:53:52.144Z</time>
      </trkpt>
      <trkpt lat="47.89469" lon="6.8993">
        <ele>867</ele>
        <time>2026-05-09T10:53:53.145Z</time>
      </trkpt>
      <trkpt lat="47.89471" lon="6.8993">
        <ele>867</ele>
        <time>2026-05-09T10:53:54.144Z</time>
      </trkpt>
      <trkpt lat="47.89473" lon="6.89929">
        <ele>867</ele>
        <time>2026-05-09T10:53:55.145Z</time>
      </trkpt>
      <trkpt lat="47.89474" lon="6.89929">
        <ele>867</ele>
        <time>2026-05-09T10:53:56.144Z</time>
      </trkpt>
      <trkpt lat="47.89477" lon="6.89929">
        <ele>867</ele>
        <time>2026-05-09T10:53:57.144Z</time>
      </trkpt>
      <trkpt lat="47.89481" lon="6.8993">
        <ele>867</ele>
        <time>2026-05-09T10:53:58.145Z</time>
      </trkpt>
      <trkpt lat="47.89483" lon="6.89934">
        <ele>867</ele>
        <time>2026-05-09T10:53:59.144Z</time>
      </trkpt>
      <trkpt lat="47.89485" lon="6.89932">
        <ele>867</ele>
        <time>2026-05-09T10:54:00.144Z</time>
      </trkpt>
      <trkpt lat="47.89485" lon="6.89933">
        <ele>867</ele>
        <time>2026-05-09T10:54:01.144Z</time>
      </trkpt>
      <trkpt lat="47.89483" lon="6.89934">
        <ele>867</ele>
        <time>2026-05-09T10:54:02.145Z</time>
      </trkpt>
      <trkpt lat="47.8948" lon="6.89939">
        <ele>867</ele>
        <time>2026-05-09T10:54:03.145Z</time>
      </trkpt>
      <trkpt lat="47.89476" lon="6.89944">
        <ele>867</ele>
        <time>2026-05-09T10:54:04.144Z</time>
      </trkpt>
      <trkpt lat="47.89476" lon="6.89946">
        <ele>867</ele>
        <time>2026-05-09T10:54:05.144Z</time>
      </trkpt>
      <trkpt lat="47.89476" lon="6.89948">
        <ele>867</ele>
        <time>2026-05-09T10:54:06.145Z</time>
      </trkpt>
      <trkpt lat="47.89476" lon="6.89948">
        <ele>868</ele>
        <time>2026-05-09T10:54:07.144Z</time>
      </trkpt>
      <trkpt lat="47.89475" lon="6.89949">
        <ele>868</ele>
        <time>2026-05-09T10:54:08.144Z</time>
      </trkpt>
      <trkpt lat="47.89475" lon="6.89949">
        <ele>868</ele>
        <time>2026-05-09T10:54:09.144Z</time>
      </trkpt>
      <trkpt lat="47.89474" lon="6.89948">
        <ele>869</ele>
        <time>2026-05-09T10:54:10.144Z</time>
      </trkpt>
      <trkpt lat="47.89473" lon="6.89949">
        <ele>869</ele>
        <time>2026-05-09T10:54:11.144Z</time>
      </trkpt>
      <trkpt lat="47.89472" lon="6.89949">
        <ele>870</ele>
        <time>2026-05-09T10:54:12.145Z</time>
      </trkpt>
      <trkpt lat="47.89473" lon="6.89948">
        <ele>871</ele>
        <time>2026-05-09T10:54:13.144Z</time>
      </trkpt>
      <trkpt lat="47.89475" lon="6.89949">
        <ele>872</ele>
        <time>2026-05-09T10:54:14.145Z</time>
      </trkpt>
      <trkpt lat="47.89476" lon="6.8995">
        <ele>872</ele>
        <time>2026-05-09T10:54:15.145Z</time>
      </trkpt>
      <trkpt lat="47.89477" lon="6.8995">
        <ele>872</ele>
        <time>2026-05-09T10:54:16.144Z</time>
      </trkpt>
      <trkpt lat="47.89476" lon="6.89952">
        <ele>873</ele>
        <time>2026-05-09T10:54:17.145Z</time>
      </trkpt>
      <trkpt lat="47.89476" lon="6.89952">
        <ele>873</ele>
        <time>2026-05-09T10:54:18.144Z</time>
      </trkpt>
      <trkpt lat="47.89477" lon="6.89953">
        <ele>874</ele>
        <time>2026-05-09T10:54:19.144Z</time>
      </trkpt>
      <trkpt lat="47.89477" lon="6.89953">
        <ele>874</ele>
        <time>2026-05-09T10:54:20.145Z</time>
      </trkpt>
      <trkpt lat="47.89477" lon="6.89954">
        <ele>874</ele>
        <time>2026-05-09T10:54:21.145Z</time>
      </trkpt>
      <trkpt lat="47.89477" lon="6.89953">
        <ele>875</ele>
        <time>2026-05-09T10:54:22.145Z</time>
      </trkpt>
      <trkpt lat="47.89482" lon="6.89957">
        <ele>877</ele>
        <time>2026-05-09T10:54:28.666Z</time>
      </trkpt>
      <trkpt lat="47.89483" lon="6.89957">
        <ele>876</ele>
        <time>2026-05-09T10:54:29.666Z</time>
      </trkpt>
      <trkpt lat="47.89484" lon="6.89958">
        <ele>876</ele>
        <time>2026-05-09T10:54:30.666Z</time>
      </trkpt>
      <trkpt lat="47.89484" lon="6.89958">
        <ele>876</ele>
        <time>2026-05-09T10:54:31.666Z</time>
      </trkpt>
      <trkpt lat="47.89485" lon="6.89958">
        <ele>876</ele>
        <time>2026-05-09T10:54:32.666Z</time>
      </trkpt>
      <trkpt lat="47.89486" lon="6.89958">
        <ele>875</ele>
        <time>2026-05-09T10:54:33.667Z</time>
      </trkpt>
      <trkpt lat="47.89487" lon="6.89959">
        <ele>875</ele>
        <time>2026-05-09T10:54:34.666Z</time>
      </trkpt>
      <trkpt lat="47.89487" lon="6.8996">
        <ele>874</ele>
        <time>2026-05-09T10:54:35.667Z</time>
      </trkpt>
      <trkpt lat="47.89488" lon="6.89961">
        <ele>874</ele>
        <time>2026-05-09T10:54:36.666Z</time>
      </trkpt>
      <trkpt lat="47.89488" lon="6.89961">
        <ele>873</ele>
        <time>2026-05-09T10:54:37.666Z</time>
      </trkpt>
      <trkpt lat="47.89488" lon="6.89962">
        <ele>873</ele>
        <time>2026-05-09T10:54:38.666Z</time>
      </trkpt>
      <trkpt lat="47.89488" lon="6.89963">
        <ele>873</ele>
        <time>2026-05-09T10:54:39.667Z</time>
      </trkpt>
      <trkpt lat="47.89488" lon="6.89963">
        <ele>873</ele>
        <time>2026-05-09T10:54:40.667Z</time>
      </trkpt>
      <trkpt lat="47.89488" lon="6.89965">
        <ele>873</ele>
        <time>2026-05-09T10:54:41.667Z</time>
      </trkpt>
      <trkpt lat="47.89488" lon="6.89966">
        <ele>874</ele>
        <time>2026-05-09T10:54:42.667Z</time>
      </trkpt>
      <trkpt lat="47.89488" lon="6.89967">
        <ele>874</ele>
        <time>2026-05-09T10:54:43.667Z</time>
      </trkpt>
      <trkpt lat="47.89489" lon="6.89967">
        <ele>874</ele>
        <time>2026-05-09T10:54:44.667Z</time>
      </trkpt>
      <trkpt lat="47.8949" lon="6.89968">
        <ele>874</ele>
        <time>2026-05-09T10:54:45.666Z</time>
      </trkpt>
      <trkpt lat="47.8949" lon="6.89968">
        <ele>874</ele>
        <time>2026-05-09T10:54:46.666Z</time>
      </trkpt>
      <trkpt lat="47.8949" lon="6.89969">
        <ele>874</ele>
        <time>2026-05-09T10:54:47.666Z</time>
      </trkpt>
      <trkpt lat="47.8949" lon="6.89971">
        <ele>875</ele>
        <time>2026-05-09T10:54:48.667Z</time>
      </trkpt>
      <trkpt lat="47.89491" lon="6.89972">
        <ele>875</ele>
        <time>2026-05-09T10:54:49.666Z</time>
      </trkpt>
      <trkpt lat="47.89492" lon="6.89973">
        <ele>875</ele>
        <time>2026-05-09T10:54:50.667Z</time>
      </trkpt>
      <trkpt lat="47.89492" lon="6.89974">
        <ele>876</ele>
        <time>2026-05-09T10:54:51.667Z</time>
      </trkpt>
      <trkpt lat="47.89492" lon="6.89975">
        <ele>876</ele>
        <time>2026-05-09T10:54:52.666Z</time>
      </trkpt>
      <trkpt lat="47.89493" lon="6.89976">
        <ele>877</ele>
        <time>2026-05-09T10:54:53.667Z</time>
      </trkpt>
      <trkpt lat="47.89493" lon="6.89977">
        <ele>877</ele>
        <time>2026-05-09T10:54:54.666Z</time>
      </trkpt>
      <trkpt lat="47.89492" lon="6.89978">
        <ele>877</ele>
        <time>2026-05-09T10:54:55.666Z</time>
      </trkpt>
      <trkpt lat="47.89492" lon="6.89979">
        <ele>878</ele>
        <time>2026-05-09T10:54:56.667Z</time>
      </trkpt>
      <trkpt lat="47.89492" lon="6.8998">
        <ele>878</ele>
        <time>2026-05-09T10:54:57.666Z</time>
      </trkpt>
      <trkpt lat="47.89492" lon="6.8998">
        <ele>879</ele>
        <time>2026-05-09T10:54:58.666Z</time>
      </trkpt>
      <trkpt lat="47.89492" lon="6.89982">
        <ele>880</ele>
        <time>2026-05-09T10:54:59.667Z</time>
      </trkpt>
      <trkpt lat="47.89492" lon="6.89983">
        <ele>880</ele>
        <time>2026-05-09T10:55:00.666Z</time>
      </trkpt>
      <trkpt lat="47.89493" lon="6.89984">
        <ele>881</ele>
        <time>2026-05-09T10:55:01.667Z</time>
      </trkpt>
      <trkpt lat="47.89493" lon="6.89985">
        <ele>882</ele>
        <time>2026-05-09T10:55:02.666Z</time>
      </trkpt>
      <trkpt lat="47.89493" lon="6.89986">
        <ele>883</ele>
        <time>2026-05-09T10:55:03.666Z</time>
      </trkpt>
      <trkpt lat="47.89494" lon="6.89987">
        <ele>884</ele>
        <time>2026-05-09T10:55:04.666Z</time>
      </trkpt>
      <trkpt lat="47.89494" lon="6.89988">
        <ele>885</ele>
        <time>2026-05-09T10:55:05.666Z</time>
      </trkpt>
      <trkpt lat="47.89495" lon="6.89988">
        <ele>885</ele>
        <time>2026-05-09T10:55:06.666Z</time>
      </trkpt>
      <trkpt lat="47.89496" lon="6.89989">
        <ele>886</ele>
        <time>2026-05-09T10:55:07.667Z</time>
      </trkpt>
      <trkpt lat="47.89497" lon="6.8999">
        <ele>886</ele>
        <time>2026-05-09T10:55:08.666Z</time>
      </trkpt>
      <trkpt lat="47.89498" lon="6.89991">
        <ele>887</ele>
        <time>2026-05-09T10:55:09.666Z</time>
      </trkpt>
      <trkpt lat="47.89499" lon="6.89991">
        <ele>887</ele>
        <time>2026-05-09T10:55:10.667Z</time>
      </trkpt>
      <trkpt lat="47.89499" lon="6.89992">
        <ele>887</ele>
        <time>2026-05-09T10:55:11.666Z</time>
      </trkpt>
      <trkpt lat="47.895" lon="6.89993">
        <ele>887</ele>
        <time>2026-05-09T10:55:12.666Z</time>
      </trkpt>
      <trkpt lat="47.89501" lon="6.89994">
        <ele>887</ele>
        <time>2026-05-09T10:55:13.667Z</time>
      </trkpt>
      <trkpt lat="47.89501" lon="6.89995">
        <ele>887</ele>
        <time>2026-05-09T10:55:14.666Z</time>
      </trkpt>
      <trkpt lat="47.89501" lon="6.89996">
        <ele>888</ele>
        <time>2026-05-09T10:55:15.667Z</time>
      </trkpt>
      <trkpt lat="47.89501" lon="6.89997">
        <ele>888</ele>
        <time>2026-05-09T10:55:16.666Z</time>
      </trkpt>
      <trkpt lat="47.89502" lon="6.89997">
        <ele>888</ele>
        <time>2026-05-09T10:55:17.666Z</time>
      </trkpt>
      <trkpt lat="47.89502" lon="6.89998">
        <ele>889</ele>
        <time>2026-05-09T10:55:18.667Z</time>
      </trkpt>
      <trkpt lat="47.89502" lon="6.89999">
        <ele>890</ele>
        <time>2026-05-09T10:55:19.666Z</time>
      </trkpt>
      <trkpt lat="47.89502" lon="6.9">
        <ele>890</ele>
        <time>2026-05-09T10:55:20.666Z</time>
      </trkpt>
      <trkpt lat="47.89503" lon="6.90001">
        <ele>891</ele>
        <time>2026-05-09T10:55:21.666Z</time>
      </trkpt>
      <trkpt lat="47.89503" lon="6.90002">
        <ele>892</ele>
        <time>2026-05-09T10:55:22.667Z</time>
      </trkpt>
      <trkpt lat="47.89504" lon="6.90003">
        <ele>892</ele>
        <time>2026-05-09T10:55:23.666Z</time>
      </trkpt>
      <trkpt lat="47.89506" lon="6.90004">
        <ele>893</ele>
        <time>2026-05-09T10:55:24.666Z</time>
      </trkpt>
      <trkpt lat="47.89507" lon="6.90005">
        <ele>893</ele>
        <time>2026-05-09T10:55:25.667Z</time>
      </trkpt>
      <trkpt lat="47.89508" lon="6.90006">
        <ele>893</ele>
        <time>2026-05-09T10:55:26.666Z</time>
      </trkpt>
      <trkpt lat="47.89508" lon="6.90007">
        <ele>893</ele>
        <time>2026-05-09T10:55:27.666Z</time>
      </trkpt>
      <trkpt lat="47.89509" lon="6.90008">
        <ele>893</ele>
        <time>2026-05-09T10:55:28.666Z</time>
      </trkpt>
      <trkpt lat="47.89509" lon="6.9001">
        <ele>894</ele>
        <time>2026-05-09T10:55:29.666Z</time>
      </trkpt>
      <trkpt lat="47.89509" lon="6.90011">
        <ele>894</ele>
        <time>2026-05-09T10:55:30.667Z</time>
      </trkpt>
      <trkpt lat="47.89509" lon="6.90013">
        <ele>894</ele>
        <time>2026-05-09T10:55:31.666Z</time>
      </trkpt>
      <trkpt lat="47.8951" lon="6.90014">
        <ele>894</ele>
        <time>2026-05-09T10:55:32.667Z</time>
      </trkpt>
      <trkpt lat="47.8951" lon="6.90016">
        <ele>894</ele>
        <time>2026-05-09T10:55:33.666Z</time>
      </trkpt>
      <trkpt lat="47.8951" lon="6.90018">
        <ele>894</ele>
        <time>2026-05-09T10:55:34.666Z</time>
      </trkpt>
      <trkpt lat="47.8951" lon="6.90019">
        <ele>894</ele>
        <time>2026-05-09T10:55:35.666Z</time>
      </trkpt>
      <trkpt lat="47.89512" lon="6.9002">
        <ele>894</ele>
        <time>2026-05-09T10:55:36.666Z</time>
      </trkpt>
      <trkpt lat="47.89513" lon="6.90021">
        <ele>894</ele>
        <time>2026-05-09T10:55:37.667Z</time>
      </trkpt>
      <trkpt lat="47.89513" lon="6.90022">
        <ele>894</ele>
        <time>2026-05-09T10:55:38.666Z</time>
      </trkpt>
      <trkpt lat="47.89513" lon="6.90024">
        <ele>895</ele>
        <time>2026-05-09T10:55:39.666Z</time>
      </trkpt>
      <trkpt lat="47.89513" lon="6.90025">
        <ele>895</ele>
        <time>2026-05-09T10:55:40.666Z</time>
      </trkpt>
      <trkpt lat="47.89514" lon="6.90027">
        <ele>895</ele>
        <time>2026-05-09T10:55:41.666Z</time>
      </trkpt>
      <trkpt lat="47.89514" lon="6.90028">
        <ele>895</ele>
        <time>2026-05-09T10:55:42.666Z</time>
      </trkpt>
      <trkpt lat="47.89514" lon="6.90029">
        <ele>896</ele>
        <time>2026-05-09T10:55:43.666Z</time>
      </trkpt>
      <trkpt lat="47.89515" lon="6.9003">
        <ele>896</ele>
        <time>2026-05-09T10:55:44.667Z</time>
      </trkpt>
      <trkpt lat="47.89515" lon="6.90031">
        <ele>896</ele>
        <time>2026-05-09T10:55:45.666Z</time>
      </trkpt>
      <trkpt lat="47.89515" lon="6.90033">
        <ele>897</ele>
        <time>2026-05-09T10:55:46.667Z</time>
      </trkpt>
      <trkpt lat="47.89515" lon="6.90034">
        <ele>897</ele>
        <time>2026-05-09T10:55:47.667Z</time>
      </trkpt>
      <trkpt lat="47.89516" lon="6.90035">
        <ele>897</ele>
        <time>2026-05-09T10:55:48.667Z</time>
      </trkpt>
      <trkpt lat="47.89516" lon="6.90037">
        <ele>897</ele>
        <time>2026-05-09T10:55:49.666Z</time>
      </trkpt>
      <trkpt lat="47.89516" lon="6.90038">
        <ele>897</ele>
        <time>2026-05-09T10:55:50.666Z</time>
      </trkpt>
      <trkpt lat="47.89516" lon="6.90039">
        <ele>897</ele>
        <time>2026-05-09T10:55:51.667Z</time>
      </trkpt>
      <trkpt lat="47.89516" lon="6.9004">
        <ele>898</ele>
        <time>2026-05-09T10:55:52.666Z</time>
      </trkpt>
      <trkpt lat="47.89516" lon="6.90042">
        <ele>898</ele>
        <time>2026-05-09T10:55:53.666Z</time>
      </trkpt>
      <trkpt lat="47.89516" lon="6.90044">
        <ele>898</ele>
        <time>2026-05-09T10:55:54.667Z</time>
      </trkpt>
      <trkpt lat="47.89516" lon="6.90044">
        <ele>898</ele>
        <time>2026-05-09T10:55:55.666Z</time>
      </trkpt>
      <trkpt lat="47.89516" lon="6.90046">
        <ele>899</ele>
        <time>2026-05-09T10:55:56.667Z</time>
      </trkpt>
      <trkpt lat="47.89516" lon="6.90047">
        <ele>899</ele>
        <time>2026-05-09T10:55:57.666Z</time>
      </trkpt>
      <trkpt lat="47.89517" lon="6.90049">
        <ele>899</ele>
        <time>2026-05-09T10:55:58.666Z</time>
      </trkpt>
      <trkpt lat="47.89518" lon="6.90051">
        <ele>899</ele>
        <time>2026-05-09T10:55:59.667Z</time>
      </trkpt>
      <trkpt lat="47.89518" lon="6.90052">
        <ele>899</ele>
        <time>2026-05-09T10:56:00.666Z</time>
      </trkpt>
      <trkpt lat="47.89519" lon="6.90054">
        <ele>899</ele>
        <time>2026-05-09T10:56:01.667Z</time>
      </trkpt>
      <trkpt lat="47.89519" lon="6.90056">
        <ele>899</ele>
        <time>2026-05-09T10:56:02.666Z</time>
      </trkpt>
      <trkpt lat="47.89519" lon="6.90057">
        <ele>899</ele>
        <time>2026-05-09T10:56:03.666Z</time>
      </trkpt>
      <trkpt lat="47.8952" lon="6.90059">
        <ele>899</ele>
        <time>2026-05-09T10:56:04.666Z</time>
      </trkpt>
      <trkpt lat="47.8952" lon="6.90061">
        <ele>899</ele>
        <time>2026-05-09T10:56:05.667Z</time>
      </trkpt>
      <trkpt lat="47.89521" lon="6.90063">
        <ele>899</ele>
        <time>2026-05-09T10:56:06.666Z</time>
      </trkpt>
      <trkpt lat="47.89521" lon="6.90065">
        <ele>900</ele>
        <time>2026-05-09T10:56:07.667Z</time>
      </trkpt>
      <trkpt lat="47.89521" lon="6.90067">
        <ele>900</ele>
        <time>2026-05-09T10:56:08.666Z</time>
      </trkpt>
      <trkpt lat="47.89521" lon="6.90069">
        <ele>900</ele>
        <time>2026-05-09T10:56:09.666Z</time>
      </trkpt>
      <trkpt lat="47.89522" lon="6.9007">
        <ele>901</ele>
        <time>2026-05-09T10:56:10.666Z</time>
      </trkpt>
      <trkpt lat="47.89523" lon="6.90073">
        <ele>901</ele>
        <time>2026-05-09T10:56:11.666Z</time>
      </trkpt>
      <trkpt lat="47.89524" lon="6.90076">
        <ele>902</ele>
        <time>2026-05-09T10:56:12.666Z</time>
      </trkpt>
      <trkpt lat="47.89526" lon="6.90079">
        <ele>902</ele>
        <time>2026-05-09T10:56:13.667Z</time>
      </trkpt>
      <trkpt lat="47.89528" lon="6.90082">
        <ele>902</ele>
        <time>2026-05-09T10:56:14.667Z</time>
      </trkpt>
      <trkpt lat="47.89528" lon="6.90087">
        <ele>902</ele>
        <time>2026-05-09T10:56:15.666Z</time>
      </trkpt>
      <trkpt lat="47.89528" lon="6.90094">
        <ele>903</ele>
        <time>2026-05-09T10:56:16.666Z</time>
      </trkpt>
      <trkpt lat="47.89527" lon="6.901">
        <ele>903</ele>
        <time>2026-05-09T10:56:17.666Z</time>
      </trkpt>
      <trkpt lat="47.89528" lon="6.90104">
        <ele>904</ele>
        <time>2026-05-09T10:56:18.666Z</time>
      </trkpt>
      <trkpt lat="47.8953" lon="6.90104">
        <ele>904</ele>
        <time>2026-05-09T10:56:19.667Z</time>
      </trkpt>
      <trkpt lat="47.8953" lon="6.90104">
        <ele>905</ele>
        <time>2026-05-09T10:56:20.666Z</time>
      </trkpt>
      <trkpt lat="47.89531" lon="6.90104">
        <ele>905</ele>
        <time>2026-05-09T10:56:21.666Z</time>
      </trkpt>
      <trkpt lat="47.8953" lon="6.90106">
        <ele>906</ele>
        <time>2026-05-09T10:56:22.666Z</time>
      </trkpt>
      <trkpt lat="47.89529" lon="6.90106">
        <ele>906</ele>
        <time>2026-05-09T10:56:23.666Z</time>
      </trkpt>
      <trkpt lat="47.8953" lon="6.90105">
        <ele>906</ele>
        <time>2026-05-09T10:56:24.667Z</time>
      </trkpt>
      <trkpt lat="47.8953" lon="6.90103">
        <ele>906</ele>
        <time>2026-05-09T10:56:25.667Z</time>
      </trkpt>
      <trkpt lat="47.8953" lon="6.90103">
        <ele>906</ele>
        <time>2026-05-09T10:56:26.667Z</time>
      </trkpt>
      <trkpt lat="47.8953" lon="6.90104">
        <ele>905</ele>
        <time>2026-05-09T10:56:27.667Z</time>
      </trkpt>
      <trkpt lat="47.8953" lon="6.90105">
        <ele>905</ele>
        <time>2026-05-09T10:56:28.667Z</time>
      </trkpt>
      <trkpt lat="47.8953" lon="6.90106">
        <ele>905</ele>
        <time>2026-05-09T10:56:29.666Z</time>
      </trkpt>
      <trkpt lat="47.8953" lon="6.90108">
        <ele>905</ele>
        <time>2026-05-09T10:56:30.666Z</time>
      </trkpt>
      <trkpt lat="47.89529" lon="6.90109">
        <ele>905</ele>
        <time>2026-05-09T10:56:31.667Z</time>
      </trkpt>
      <trkpt lat="47.8953" lon="6.90111">
        <ele>905</ele>
        <time>2026-05-09T10:56:32.667Z</time>
      </trkpt>
      <trkpt lat="47.89531" lon="6.90112">
        <ele>905</ele>
        <time>2026-05-09T10:56:33.666Z</time>
      </trkpt>
      <trkpt lat="47.89531" lon="6.90113">
        <ele>905</ele>
        <time>2026-05-09T10:56:34.667Z</time>
      </trkpt>
      <trkpt lat="47.8953" lon="6.90116">
        <ele>905</ele>
        <time>2026-05-09T10:56:35.666Z</time>
      </trkpt>
      <trkpt lat="47.89528" lon="6.90118">
        <ele>905</ele>
        <time>2026-05-09T10:56:36.666Z</time>
      </trkpt>
      <trkpt lat="47.89528" lon="6.90118">
        <ele>905</ele>
        <time>2026-05-09T10:56:37.666Z</time>
      </trkpt>
      <trkpt lat="47.89528" lon="6.90119">
        <ele>905</ele>
        <time>2026-05-09T10:56:38.666Z</time>
      </trkpt>
      <trkpt lat="47.89528" lon="6.9012">
        <ele>905</ele>
        <time>2026-05-09T10:56:39.666Z</time>
      </trkpt>
      <trkpt lat="47.89527" lon="6.90121">
        <ele>905</ele>
        <time>2026-05-09T10:56:40.666Z</time>
      </trkpt>
      <trkpt lat="47.89526" lon="6.90124">
        <ele>904</ele>
        <time>2026-05-09T10:56:47.060Z</time>
      </trkpt>
      <trkpt lat="47.89526" lon="6.90125">
        <ele>904</ele>
        <time>2026-05-09T10:56:48.060Z</time>
      </trkpt>
      <trkpt lat="47.89525" lon="6.90126">
        <ele>904</ele>
        <time>2026-05-09T10:56:49.060Z</time>
      </trkpt>
      <trkpt lat="47.89525" lon="6.90128">
        <ele>903</ele>
        <time>2026-05-09T10:56:50.060Z</time>
      </trkpt>
      <trkpt lat="47.89525" lon="6.90129">
        <ele>903</ele>
        <time>2026-05-09T10:56:51.060Z</time>
      </trkpt>
      <trkpt lat="47.89525" lon="6.90131">
        <ele>903</ele>
        <time>2026-05-09T10:56:52.060Z</time>
      </trkpt>
      <trkpt lat="47.89526" lon="6.90132">
        <ele>904</ele>
        <time>2026-05-09T10:56:53.060Z</time>
      </trkpt>
      <trkpt lat="47.89525" lon="6.90134">
        <ele>904</ele>
        <time>2026-05-09T10:56:54.060Z</time>
      </trkpt>
      <trkpt lat="47.89525" lon="6.90135">
        <ele>904</ele>
        <time>2026-05-09T10:56:55.060Z</time>
      </trkpt>
      <trkpt lat="47.89525" lon="6.90136">
        <ele>905</ele>
        <time>2026-05-09T10:56:56.060Z</time>
      </trkpt>
      <trkpt lat="47.89525" lon="6.90138">
        <ele>905</ele>
        <time>2026-05-09T10:56:57.060Z</time>
      </trkpt>
      <trkpt lat="47.89525" lon="6.90139">
        <ele>905</ele>
        <time>2026-05-09T10:56:58.060Z</time>
      </trkpt>
      <trkpt lat="47.89525" lon="6.9014">
        <ele>906</ele>
        <time>2026-05-09T10:56:59.060Z</time>
      </trkpt>
      <trkpt lat="47.89526" lon="6.90141">
        <ele>906</ele>
        <time>2026-05-09T10:57:00.060Z</time>
      </trkpt>
      <trkpt lat="47.89526" lon="6.90142">
        <ele>907</ele>
        <time>2026-05-09T10:57:01.060Z</time>
      </trkpt>
      <trkpt lat="47.89527" lon="6.90143">
        <ele>907</ele>
        <time>2026-05-09T10:57:02.060Z</time>
      </trkpt>
      <trkpt lat="47.89527" lon="6.90144">
        <ele>907</ele>
        <time>2026-05-09T10:57:03.060Z</time>
      </trkpt>
      <trkpt lat="47.89527" lon="6.90144">
        <ele>907</ele>
        <time>2026-05-09T10:57:04.060Z</time>
      </trkpt>
      <trkpt lat="47.89527" lon="6.90145">
        <ele>907</ele>
        <time>2026-05-09T10:57:05.060Z</time>
      </trkpt>
      <trkpt lat="47.89527" lon="6.90146">
        <ele>906</ele>
        <time>2026-05-09T10:57:06.060Z</time>
      </trkpt>
      <trkpt lat="47.89527" lon="6.90148">
        <ele>906</ele>
        <time>2026-05-09T10:57:07.060Z</time>
      </trkpt>
      <trkpt lat="47.89527" lon="6.90149">
        <ele>906</ele>
        <time>2026-05-09T10:57:08.060Z</time>
      </trkpt>
      <trkpt lat="47.89527" lon="6.9015">
        <ele>906</ele>
        <time>2026-05-09T10:57:09.060Z</time>
      </trkpt>
      <trkpt lat="47.89528" lon="6.90151">
        <ele>906</ele>
        <time>2026-05-09T10:57:10.060Z</time>
      </trkpt>
      <trkpt lat="47.89528" lon="6.90153">
        <ele>907</ele>
        <time>2026-05-09T10:57:11.060Z</time>
      </trkpt>
      <trkpt lat="47.89528" lon="6.90154">
        <ele>907</ele>
        <time>2026-05-09T10:57:12.060Z</time>
      </trkpt>
      <trkpt lat="47.89528" lon="6.90155">
        <ele>907</ele>
        <time>2026-05-09T10:57:13.060Z</time>
      </trkpt>
      <trkpt lat="47.89527" lon="6.90156">
        <ele>907</ele>
        <time>2026-05-09T10:57:14.060Z</time>
      </trkpt>
      <trkpt lat="47.89527" lon="6.90157">
        <ele>908</ele>
        <time>2026-05-09T10:57:15.060Z</time>
      </trkpt>
      <trkpt lat="47.89527" lon="6.90158">
        <ele>908</ele>
        <time>2026-05-09T10:57:16.060Z</time>
      </trkpt>
      <trkpt lat="47.89527" lon="6.90158">
        <ele>909</ele>
        <time>2026-05-09T10:57:17.060Z</time>
      </trkpt>
      <trkpt lat="47.89527" lon="6.90159">
        <ele>909</ele>
        <time>2026-05-09T10:57:18.060Z</time>
      </trkpt>
      <trkpt lat="47.89528" lon="6.9016">
        <ele>909</ele>
        <time>2026-05-09T10:57:19.060Z</time>
      </trkpt>
      <trkpt lat="47.89529" lon="6.90161">
        <ele>909</ele>
        <time>2026-05-09T10:57:20.060Z</time>
      </trkpt>
      <trkpt lat="47.8953" lon="6.90162">
        <ele>909</ele>
        <time>2026-05-09T10:57:21.060Z</time>
      </trkpt>
      <trkpt lat="47.89531" lon="6.90162">
        <ele>909</ele>
        <time>2026-05-09T10:57:22.060Z</time>
      </trkpt>
      <trkpt lat="47.89531" lon="6.90164">
        <ele>909</ele>
        <time>2026-05-09T10:57:23.060Z</time>
      </trkpt>
      <trkpt lat="47.89531" lon="6.90165">
        <ele>909</ele>
        <time>2026-05-09T10:57:24.060Z</time>
      </trkpt>
      <trkpt lat="47.89531" lon="6.90166">
        <ele>909</ele>
        <time>2026-05-09T10:57:25.060Z</time>
      </trkpt>
      <trkpt lat="47.8953" lon="6.90167">
        <ele>909</ele>
        <time>2026-05-09T10:57:26.060Z</time>
      </trkpt>
      <trkpt lat="47.8953" lon="6.90168">
        <ele>909</ele>
        <time>2026-05-09T10:57:27.060Z</time>
      </trkpt>
      <trkpt lat="47.8953" lon="6.90169">
        <ele>909</ele>
        <time>2026-05-09T10:57:28.060Z</time>
      </trkpt>
      <trkpt lat="47.89531" lon="6.9017">
        <ele>909</ele>
        <time>2026-05-09T10:57:29.060Z</time>
      </trkpt>
      <trkpt lat="47.89531" lon="6.90171">
        <ele>908</ele>
        <time>2026-05-09T10:57:30.060Z</time>
      </trkpt>
      <trkpt lat="47.89531" lon="6.90171">
        <ele>908</ele>
        <time>2026-05-09T10:57:31.060Z</time>
      </trkpt>
      <trkpt lat="47.89532" lon="6.90172">
        <ele>908</ele>
        <time>2026-05-09T10:57:32.060Z</time>
      </trkpt>
      <trkpt lat="47.89533" lon="6.90172">
        <ele>908</ele>
        <time>2026-05-09T10:57:33.060Z</time>
      </trkpt>
      <trkpt lat="47.89534" lon="6.90173">
        <ele>908</ele>
        <time>2026-05-09T10:57:34.060Z</time>
      </trkpt>
      <trkpt lat="47.89535" lon="6.90175">
        <ele>908</ele>
        <time>2026-05-09T10:57:35.060Z</time>
      </trkpt>
      <trkpt lat="47.89536" lon="6.90177">
        <ele>908</ele>
        <time>2026-05-09T10:57:36.060Z</time>
      </trkpt>
      <trkpt lat="47.89537" lon="6.90178">
        <ele>908</ele>
        <time>2026-05-09T10:57:37.060Z</time>
      </trkpt>
      <trkpt lat="47.89537" lon="6.90179">
        <ele>909</ele>
        <time>2026-05-09T10:57:38.060Z</time>
      </trkpt>
      <trkpt lat="47.89538" lon="6.90181">
        <ele>909</ele>
        <time>2026-05-09T10:57:39.060Z</time>
      </trkpt>
      <trkpt lat="47.89538" lon="6.90182">
        <ele>910</ele>
        <time>2026-05-09T10:57:40.060Z</time>
      </trkpt>
      <trkpt lat="47.89538" lon="6.90183">
        <ele>910</ele>
        <time>2026-05-09T10:57:41.060Z</time>
      </trkpt>
      <trkpt lat="47.89539" lon="6.90184">
        <ele>910</ele>
        <time>2026-05-09T10:57:42.060Z</time>
      </trkpt>
      <trkpt lat="47.8954" lon="6.90185">
        <ele>911</ele>
        <time>2026-05-09T10:57:43.060Z</time>
      </trkpt>
      <trkpt lat="47.8954" lon="6.90186">
        <ele>911</ele>
        <time>2026-05-09T10:57:44.060Z</time>
      </trkpt>
      <trkpt lat="47.89541" lon="6.90187">
        <ele>912</ele>
        <time>2026-05-09T10:57:45.060Z</time>
      </trkpt>
      <trkpt lat="47.89541" lon="6.90188">
        <ele>912</ele>
        <time>2026-05-09T10:57:46.060Z</time>
      </trkpt>
      <trkpt lat="47.89542" lon="6.9019">
        <ele>913</ele>
        <time>2026-05-09T10:57:47.060Z</time>
      </trkpt>
      <trkpt lat="47.89542" lon="6.90191">
        <ele>913</ele>
        <time>2026-05-09T10:57:48.060Z</time>
      </trkpt>
      <trkpt lat="47.89542" lon="6.90193">
        <ele>913</ele>
        <time>2026-05-09T10:57:49.060Z</time>
      </trkpt>
      <trkpt lat="47.89542" lon="6.90194">
        <ele>913</ele>
        <time>2026-05-09T10:57:50.060Z</time>
      </trkpt>
      <trkpt lat="47.89543" lon="6.90196">
        <ele>914</ele>
        <time>2026-05-09T10:57:51.060Z</time>
      </trkpt>
      <trkpt lat="47.89544" lon="6.90197">
        <ele>914</ele>
        <time>2026-05-09T10:57:52.060Z</time>
      </trkpt>
      <trkpt lat="47.89545" lon="6.90197">
        <ele>914</ele>
        <time>2026-05-09T10:57:53.060Z</time>
      </trkpt>
      <trkpt lat="47.89545" lon="6.90198">
        <ele>914</ele>
        <time>2026-05-09T10:57:54.060Z</time>
      </trkpt>
      <trkpt lat="47.89545" lon="6.90198">
        <ele>914</ele>
        <time>2026-05-09T10:57:55.060Z</time>
      </trkpt>
      <trkpt lat="47.89545" lon="6.90199">
        <ele>915</ele>
        <time>2026-05-09T10:57:56.060Z</time>
      </trkpt>
      <trkpt lat="47.89545" lon="6.902">
        <ele>915</ele>
        <time>2026-05-09T10:57:57.060Z</time>
      </trkpt>
      <trkpt lat="47.89545" lon="6.902">
        <ele>916</ele>
        <time>2026-05-09T10:57:58.060Z</time>
      </trkpt>
      <trkpt lat="47.89545" lon="6.90201">
        <ele>917</ele>
        <time>2026-05-09T10:57:59.060Z</time>
      </trkpt>
      <trkpt lat="47.89545" lon="6.90201">
        <ele>917</ele>
        <time>2026-05-09T10:58:00.060Z</time>
      </trkpt>
      <trkpt lat="47.89545" lon="6.90201">
        <ele>918</ele>
        <time>2026-05-09T10:58:01.060Z</time>
      </trkpt>
      <trkpt lat="47.89546" lon="6.90202">
        <ele>919</ele>
        <time>2026-05-09T10:58:02.060Z</time>
      </trkpt>
      <trkpt lat="47.89546" lon="6.90203">
        <ele>920</ele>
        <time>2026-05-09T10:58:03.060Z</time>
      </trkpt>
      <trkpt lat="47.89547" lon="6.90203">
        <ele>921</ele>
        <time>2026-05-09T10:58:04.060Z</time>
      </trkpt>
      <trkpt lat="47.89547" lon="6.90203">
        <ele>922</ele>
        <time>2026-05-09T10:58:05.060Z</time>
      </trkpt>
      <trkpt lat="47.89548" lon="6.90204">
        <ele>923</ele>
        <time>2026-05-09T10:58:06.060Z</time>
      </trkpt>
      <trkpt lat="47.89548" lon="6.90204">
        <ele>923</ele>
        <time>2026-05-09T10:58:07.060Z</time>
      </trkpt>
      <trkpt lat="47.89552" lon="6.90208">
        <ele>926</ele>
        <time>2026-05-09T10:58:13.366Z</time>
      </trkpt>
      <trkpt lat="47.89553" lon="6.90209">
        <ele>926</ele>
        <time>2026-05-09T10:58:14.365Z</time>
      </trkpt>
      <trkpt lat="47.89554" lon="6.9021">
        <ele>926</ele>
        <time>2026-05-09T10:58:15.365Z</time>
      </trkpt>
      <trkpt lat="47.89555" lon="6.90211">
        <ele>926</ele>
        <time>2026-05-09T10:58:16.366Z</time>
      </trkpt>
      <trkpt lat="47.89556" lon="6.90212">
        <ele>926</ele>
        <time>2026-05-09T10:58:17.365Z</time>
      </trkpt>
      <trkpt lat="47.89557" lon="6.90213">
        <ele>925</ele>
        <time>2026-05-09T10:58:18.365Z</time>
      </trkpt>
      <trkpt lat="47.89558" lon="6.90214">
        <ele>925</ele>
        <time>2026-05-09T10:58:19.365Z</time>
      </trkpt>
      <trkpt lat="47.89559" lon="6.90215">
        <ele>925</ele>
        <time>2026-05-09T10:58:20.365Z</time>
      </trkpt>
      <trkpt lat="47.8956" lon="6.90215">
        <ele>925</ele>
        <time>2026-05-09T10:58:21.365Z</time>
      </trkpt>
      <trkpt lat="47.8956" lon="6.90216">
        <ele>925</ele>
        <time>2026-05-09T10:58:22.365Z</time>
      </trkpt>
      <trkpt lat="47.8956" lon="6.90216">
        <ele>924</ele>
        <time>2026-05-09T10:58:23.365Z</time>
      </trkpt>
      <trkpt lat="47.89561" lon="6.90217">
        <ele>924</ele>
        <time>2026-05-09T10:58:24.365Z</time>
      </trkpt>
      <trkpt lat="47.89561" lon="6.90217">
        <ele>923</ele>
        <time>2026-05-09T10:58:25.365Z</time>
      </trkpt>
      <trkpt lat="47.89561" lon="6.90218">
        <ele>922</ele>
        <time>2026-05-09T10:58:26.365Z</time>
      </trkpt>
      <trkpt lat="47.89565" lon="6.90218">
        <ele>920</ele>
        <time>2026-05-09T10:58:32.726Z</time>
      </trkpt>
      <trkpt lat="47.89566" lon="6.90218">
        <ele>920</ele>
        <time>2026-05-09T10:58:33.727Z</time>
      </trkpt>
      <trkpt lat="47.89567" lon="6.90218">
        <ele>920</ele>
        <time>2026-05-09T10:58:34.726Z</time>
      </trkpt>
      <trkpt lat="47.89569" lon="6.90217">
        <ele>920</ele>
        <time>2026-05-09T10:58:35.726Z</time>
      </trkpt>
      <trkpt lat="47.8957" lon="6.90217">
        <ele>920</ele>
        <time>2026-05-09T10:58:36.726Z</time>
      </trkpt>
      <trkpt lat="47.89571" lon="6.90216">
        <ele>920</ele>
        <time>2026-05-09T10:58:37.726Z</time>
      </trkpt>
      <trkpt lat="47.89573" lon="6.90216">
        <ele>920</ele>
        <time>2026-05-09T10:58:38.727Z</time>
      </trkpt>
      <trkpt lat="47.89573" lon="6.90217">
        <ele>920</ele>
        <time>2026-05-09T10:58:39.726Z</time>
      </trkpt>
      <trkpt lat="47.89573" lon="6.90217">
        <ele>921</ele>
        <time>2026-05-09T10:58:40.726Z</time>
      </trkpt>
      <trkpt lat="47.89574" lon="6.90217">
        <ele>921</ele>
        <time>2026-05-09T10:58:41.726Z</time>
      </trkpt>
      <trkpt lat="47.89574" lon="6.90218">
        <ele>921</ele>
        <time>2026-05-09T10:58:42.726Z</time>
      </trkpt>
      <trkpt lat="47.89574" lon="6.90218">
        <ele>921</ele>
        <time>2026-05-09T10:58:43.727Z</time>
      </trkpt>
      <trkpt lat="47.89575" lon="6.90219">
        <ele>921</ele>
        <time>2026-05-09T10:58:44.726Z</time>
      </trkpt>
      <trkpt lat="47.89576" lon="6.90219">
        <ele>921</ele>
        <time>2026-05-09T10:58:45.726Z</time>
      </trkpt>
      <trkpt lat="47.89576" lon="6.90219">
        <ele>922</ele>
        <time>2026-05-09T10:58:46.726Z</time>
      </trkpt>
      <trkpt lat="47.89577" lon="6.9022">
        <ele>922</ele>
        <time>2026-05-09T10:58:47.726Z</time>
      </trkpt>
      <trkpt lat="47.89577" lon="6.90221">
        <ele>922</ele>
        <time>2026-05-09T10:58:48.726Z</time>
      </trkpt>
      <trkpt lat="47.89578" lon="6.90221">
        <ele>923</ele>
        <time>2026-05-09T10:58:49.726Z</time>
      </trkpt>
      <trkpt lat="47.89578" lon="6.90222">
        <ele>923</ele>
        <time>2026-05-09T10:58:50.727Z</time>
      </trkpt>
      <trkpt lat="47.89578" lon="6.90222">
        <ele>923</ele>
        <time>2026-05-09T10:58:51.727Z</time>
      </trkpt>
      <trkpt lat="47.89579" lon="6.90222">
        <ele>924</ele>
        <time>2026-05-09T10:58:52.726Z</time>
      </trkpt>
      <trkpt lat="47.8958" lon="6.90222">
        <ele>924</ele>
        <time>2026-05-09T10:58:53.726Z</time>
      </trkpt>
      <trkpt lat="47.89582" lon="6.90222">
        <ele>924</ele>
        <time>2026-05-09T10:58:54.726Z</time>
      </trkpt>
      <trkpt lat="47.89582" lon="6.90222">
        <ele>924</ele>
        <time>2026-05-09T10:58:55.727Z</time>
      </trkpt>
      <trkpt lat="47.89583" lon="6.90223">
        <ele>925</ele>
        <time>2026-05-09T10:58:56.726Z</time>
      </trkpt>
      <trkpt lat="47.89583" lon="6.90223">
        <ele>925</ele>
        <time>2026-05-09T10:58:57.727Z</time>
      </trkpt>
      <trkpt lat="47.89584" lon="6.90223">
        <ele>925</ele>
        <time>2026-05-09T10:58:58.727Z</time>
      </trkpt>
      <trkpt lat="47.89584" lon="6.90223">
        <ele>926</ele>
        <time>2026-05-09T10:58:59.727Z</time>
      </trkpt>
      <trkpt lat="47.89584" lon="6.90223">
        <ele>926</ele>
        <time>2026-05-09T10:59:00.727Z</time>
      </trkpt>
      <trkpt lat="47.89585" lon="6.90223">
        <ele>927</ele>
        <time>2026-05-09T10:59:01.726Z</time>
      </trkpt>
      <trkpt lat="47.89587" lon="6.90222">
        <ele>927</ele>
        <time>2026-05-09T10:59:02.726Z</time>
      </trkpt>
      <trkpt lat="47.89588" lon="6.90221">
        <ele>927</ele>
        <time>2026-05-09T10:59:03.727Z</time>
      </trkpt>
      <trkpt lat="47.89589" lon="6.90222">
        <ele>928</ele>
        <time>2026-05-09T10:59:04.727Z</time>
      </trkpt>
      <trkpt lat="47.8959" lon="6.90222">
        <ele>928</ele>
        <time>2026-05-09T10:59:05.726Z</time>
      </trkpt>
      <trkpt lat="47.89591" lon="6.90223">
        <ele>928</ele>
        <time>2026-05-09T10:59:06.726Z</time>
      </trkpt>
      <trkpt lat="47.89592" lon="6.90223">
        <ele>928</ele>
        <time>2026-05-09T10:59:07.726Z</time>
      </trkpt>
      <trkpt lat="47.89593" lon="6.90224">
        <ele>928</ele>
        <time>2026-05-09T10:59:08.727Z</time>
      </trkpt>
      <trkpt lat="47.89594" lon="6.90224">
        <ele>928</ele>
        <time>2026-05-09T10:59:09.726Z</time>
      </trkpt>
      <trkpt lat="47.89595" lon="6.90224">
        <ele>928</ele>
        <time>2026-05-09T10:59:10.726Z</time>
      </trkpt>
      <trkpt lat="47.89596" lon="6.90224">
        <ele>927</ele>
        <time>2026-05-09T10:59:11.726Z</time>
      </trkpt>
      <trkpt lat="47.89598" lon="6.90225">
        <ele>927</ele>
        <time>2026-05-09T10:59:12.726Z</time>
      </trkpt>
      <trkpt lat="47.89598" lon="6.90225">
        <ele>927</ele>
        <time>2026-05-09T10:59:13.727Z</time>
      </trkpt>
      <trkpt lat="47.89599" lon="6.90226">
        <ele>928</ele>
        <time>2026-05-09T10:59:14.727Z</time>
      </trkpt>
      <trkpt lat="47.89599" lon="6.90227">
        <ele>928</ele>
        <time>2026-05-09T10:59:15.726Z</time>
      </trkpt>
      <trkpt lat="47.89599" lon="6.90227">
        <ele>929</ele>
        <time>2026-05-09T10:59:16.726Z</time>
      </trkpt>
      <trkpt lat="47.89599" lon="6.90227">
        <ele>929</ele>
        <time>2026-05-09T10:59:17.726Z</time>
      </trkpt>
      <trkpt lat="47.896" lon="6.90231">
        <ele>931</ele>
        <time>2026-05-09T10:59:25.161Z</time>
      </trkpt>
      <trkpt lat="47.896" lon="6.90231">
        <ele>931</ele>
        <time>2026-05-09T10:59:26.161Z</time>
      </trkpt>
      <trkpt lat="47.89601" lon="6.90232">
        <ele>931</ele>
        <time>2026-05-09T10:59:27.161Z</time>
      </trkpt>
      <trkpt lat="47.89601" lon="6.90233">
        <ele>932</ele>
        <time>2026-05-09T10:59:28.161Z</time>
      </trkpt>
      <trkpt lat="47.89602" lon="6.90233">
        <ele>932</ele>
        <time>2026-05-09T10:59:29.161Z</time>
      </trkpt>
      <trkpt lat="47.89602" lon="6.90234">
        <ele>932</ele>
        <time>2026-05-09T10:59:30.161Z</time>
      </trkpt>
      <trkpt lat="47.89603" lon="6.90235">
        <ele>932</ele>
        <time>2026-05-09T10:59:31.161Z</time>
      </trkpt>
      <trkpt lat="47.89605" lon="6.90235">
        <ele>932</ele>
        <time>2026-05-09T10:59:32.161Z</time>
      </trkpt>
      <trkpt lat="47.89606" lon="6.90236">
        <ele>932</ele>
        <time>2026-05-09T10:59:33.161Z</time>
      </trkpt>
      <trkpt lat="47.89607" lon="6.90237">
        <ele>933</ele>
        <time>2026-05-09T10:59:34.161Z</time>
      </trkpt>
      <trkpt lat="47.89608" lon="6.90238">
        <ele>933</ele>
        <time>2026-05-09T10:59:35.161Z</time>
      </trkpt>
      <trkpt lat="47.89609" lon="6.90238">
        <ele>933</ele>
        <time>2026-05-09T10:59:36.161Z</time>
      </trkpt>
      <trkpt lat="47.89609" lon="6.90239">
        <ele>933</ele>
        <time>2026-05-09T10:59:37.161Z</time>
      </trkpt>
      <trkpt lat="47.89609" lon="6.90239">
        <ele>933</ele>
        <time>2026-05-09T10:59:38.161Z</time>
      </trkpt>
      <trkpt lat="47.8961" lon="6.9024">
        <ele>934</ele>
        <time>2026-05-09T10:59:39.160Z</time>
      </trkpt>
      <trkpt lat="47.89611" lon="6.90241">
        <ele>934</ele>
        <time>2026-05-09T10:59:40.161Z</time>
      </trkpt>
      <trkpt lat="47.89613" lon="6.90241">
        <ele>934</ele>
        <time>2026-05-09T10:59:41.160Z</time>
      </trkpt>
      <trkpt lat="47.89614" lon="6.90243">
        <ele>934</ele>
        <time>2026-05-09T10:59:42.161Z</time>
      </trkpt>
      <trkpt lat="47.89615" lon="6.90244">
        <ele>934</ele>
        <time>2026-05-09T10:59:43.161Z</time>
      </trkpt>
      <trkpt lat="47.89616" lon="6.90246">
        <ele>934</ele>
        <time>2026-05-09T10:59:44.161Z</time>
      </trkpt>
      <trkpt lat="47.89617" lon="6.90247">
        <ele>934</ele>
        <time>2026-05-09T10:59:45.161Z</time>
      </trkpt>
      <trkpt lat="47.89618" lon="6.90249">
        <ele>934</ele>
        <time>2026-05-09T10:59:46.161Z</time>
      </trkpt>
      <trkpt lat="47.89619" lon="6.9025">
        <ele>934</ele>
        <time>2026-05-09T10:59:47.161Z</time>
      </trkpt>
      <trkpt lat="47.8962" lon="6.90251">
        <ele>934</ele>
        <time>2026-05-09T10:59:48.161Z</time>
      </trkpt>
      <trkpt lat="47.89621" lon="6.90252">
        <ele>934</ele>
        <time>2026-05-09T10:59:49.161Z</time>
      </trkpt>
      <trkpt lat="47.89621" lon="6.90253">
        <ele>934</ele>
        <time>2026-05-09T10:59:50.161Z</time>
      </trkpt>
      <trkpt lat="47.89621" lon="6.90253">
        <ele>934</ele>
        <time>2026-05-09T10:59:51.161Z</time>
      </trkpt>
      <trkpt lat="47.89622" lon="6.90253">
        <ele>935</ele>
        <time>2026-05-09T10:59:52.161Z</time>
      </trkpt>
      <trkpt lat="47.89623" lon="6.90254">
        <ele>935</ele>
        <time>2026-05-09T10:59:53.160Z</time>
      </trkpt>
      <trkpt lat="47.89624" lon="6.90256">
        <ele>935</ele>
        <time>2026-05-09T10:59:54.160Z</time>
      </trkpt>
      <trkpt lat="47.89624" lon="6.90256">
        <ele>936</ele>
        <time>2026-05-09T10:59:55.161Z</time>
      </trkpt>
      <trkpt lat="47.89624" lon="6.90256">
        <ele>936</ele>
        <time>2026-05-09T10:59:56.161Z</time>
      </trkpt>
      <trkpt lat="47.89625" lon="6.90256">
        <ele>937</ele>
        <time>2026-05-09T10:59:57.161Z</time>
      </trkpt>
      <trkpt lat="47.89625" lon="6.90257">
        <ele>937</ele>
        <time>2026-05-09T10:59:58.161Z</time>
      </trkpt>
      <trkpt lat="47.89626" lon="6.90257">
        <ele>938</ele>
        <time>2026-05-09T10:59:59.160Z</time>
      </trkpt>
      <trkpt lat="47.89626" lon="6.90257">
        <ele>938</ele>
        <time>2026-05-09T11:00:00.160Z</time>
      </trkpt>
      <trkpt lat="47.89627" lon="6.90257">
        <ele>938</ele>
        <time>2026-05-09T11:00:01.160Z</time>
      </trkpt>
      <trkpt lat="47.8963" lon="6.90261">
        <ele>940</ele>
        <time>2026-05-09T11:00:06.487Z</time>
      </trkpt>
      <trkpt lat="47.8963" lon="6.90261">
        <ele>940</ele>
        <time>2026-05-09T11:00:07.488Z</time>
      </trkpt>
      <trkpt lat="47.8963" lon="6.90262">
        <ele>940</ele>
        <time>2026-05-09T11:00:08.487Z</time>
      </trkpt>
      <trkpt lat="47.8963" lon="6.90262">
        <ele>940</ele>
        <time>2026-05-09T11:00:09.487Z</time>
      </trkpt>
      <trkpt lat="47.89631" lon="6.90263">
        <ele>940</ele>
        <time>2026-05-09T11:00:10.487Z</time>
      </trkpt>
      <trkpt lat="47.89631" lon="6.90264">
        <ele>940</ele>
        <time>2026-05-09T11:00:11.488Z</time>
      </trkpt>
      <trkpt lat="47.89631" lon="6.90265">
        <ele>940</ele>
        <time>2026-05-09T11:00:12.487Z</time>
      </trkpt>
      <trkpt lat="47.89631" lon="6.90265">
        <ele>940</ele>
        <time>2026-05-09T11:00:13.487Z</time>
      </trkpt>
      <trkpt lat="47.89636" lon="6.90266">
        <ele>940</ele>
        <time>2026-05-09T11:00:20.897Z</time>
      </trkpt>
      <trkpt lat="47.89637" lon="6.90267">
        <ele>940</ele>
        <time>2026-05-09T11:00:21.896Z</time>
      </trkpt>
      <trkpt lat="47.89637" lon="6.90267">
        <ele>940</ele>
        <time>2026-05-09T11:00:22.897Z</time>
      </trkpt>
      <trkpt lat="47.89637" lon="6.90267">
        <ele>940</ele>
        <time>2026-05-09T11:00:23.896Z</time>
      </trkpt>
      <trkpt lat="47.89637" lon="6.90268">
        <ele>940</ele>
        <time>2026-05-09T11:00:24.896Z</time>
      </trkpt>
      <trkpt lat="47.89639" lon="6.90269">
        <ele>940</ele>
        <time>2026-05-09T11:00:25.897Z</time>
      </trkpt>
      <trkpt lat="47.8964" lon="6.9027">
        <ele>940</ele>
        <time>2026-05-09T11:00:26.897Z</time>
      </trkpt>
      <trkpt lat="47.8964" lon="6.90271">
        <ele>940</ele>
        <time>2026-05-09T11:00:27.896Z</time>
      </trkpt>
      <trkpt lat="47.89641" lon="6.90271">
        <ele>940</ele>
        <time>2026-05-09T11:00:28.897Z</time>
      </trkpt>
      <trkpt lat="47.89642" lon="6.90272">
        <ele>940</ele>
        <time>2026-05-09T11:00:29.896Z</time>
      </trkpt>
      <trkpt lat="47.89643" lon="6.90273">
        <ele>940</ele>
        <time>2026-05-09T11:00:30.897Z</time>
      </trkpt>
      <trkpt lat="47.89643" lon="6.90274">
        <ele>940</ele>
        <time>2026-05-09T11:00:31.897Z</time>
      </trkpt>
      <trkpt lat="47.89643" lon="6.90274">
        <ele>940</ele>
        <time>2026-05-09T11:00:32.897Z</time>
      </trkpt>
      <trkpt lat="47.89644" lon="6.90275">
        <ele>940</ele>
        <time>2026-05-09T11:00:33.897Z</time>
      </trkpt>
      <trkpt lat="47.89644" lon="6.90276">
        <ele>940</ele>
        <time>2026-05-09T11:00:34.897Z</time>
      </trkpt>
      <trkpt lat="47.89645" lon="6.90277">
        <ele>940</ele>
        <time>2026-05-09T11:00:35.896Z</time>
      </trkpt>
      <trkpt lat="47.89645" lon="6.90278">
        <ele>940</ele>
        <time>2026-05-09T11:00:36.896Z</time>
      </trkpt>
      <trkpt lat="47.89645" lon="6.90279">
        <ele>940</ele>
        <time>2026-05-09T11:00:37.897Z</time>
      </trkpt>
      <trkpt lat="47.89646" lon="6.9028">
        <ele>941</ele>
        <time>2026-05-09T11:00:38.896Z</time>
      </trkpt>
      <trkpt lat="47.89647" lon="6.90282">
        <ele>941</ele>
        <time>2026-05-09T11:00:39.896Z</time>
      </trkpt>
      <trkpt lat="47.89648" lon="6.90282">
        <ele>941</ele>
        <time>2026-05-09T11:00:40.896Z</time>
      </trkpt>
      <trkpt lat="47.89649" lon="6.90283">
        <ele>940</ele>
        <time>2026-05-09T11:00:41.896Z</time>
      </trkpt>
      <trkpt lat="47.89651" lon="6.90285">
        <ele>940</ele>
        <time>2026-05-09T11:00:42.896Z</time>
      </trkpt>
      <trkpt lat="47.89651" lon="6.90286">
        <ele>940</ele>
        <time>2026-05-09T11:00:43.897Z</time>
      </trkpt>
      <trkpt lat="47.89651" lon="6.90286">
        <ele>939</ele>
        <time>2026-05-09T11:00:44.896Z</time>
      </trkpt>
      <trkpt lat="47.89652" lon="6.90288">
        <ele>939</ele>
        <time>2026-05-09T11:00:45.896Z</time>
      </trkpt>
      <trkpt lat="47.89653" lon="6.90289">
        <ele>939</ele>
        <time>2026-05-09T11:00:46.896Z</time>
      </trkpt>
      <trkpt lat="47.89654" lon="6.9029">
        <ele>940</ele>
        <time>2026-05-09T11:00:47.896Z</time>
      </trkpt>
      <trkpt lat="47.89654" lon="6.90291">
        <ele>940</ele>
        <time>2026-05-09T11:00:48.896Z</time>
      </trkpt>
      <trkpt lat="47.89654" lon="6.90291">
        <ele>940</ele>
        <time>2026-05-09T11:00:49.897Z</time>
      </trkpt>
      <trkpt lat="47.89654" lon="6.90292">
        <ele>940</ele>
        <time>2026-05-09T11:00:50.897Z</time>
      </trkpt>
      <trkpt lat="47.89655" lon="6.90293">
        <ele>940</ele>
        <time>2026-05-09T11:00:51.897Z</time>
      </trkpt>
      <trkpt lat="47.89656" lon="6.90294">
        <ele>940</ele>
        <time>2026-05-09T11:00:52.896Z</time>
      </trkpt>
      <trkpt lat="47.89658" lon="6.90295">
        <ele>941</ele>
        <time>2026-05-09T11:00:53.896Z</time>
      </trkpt>
      <trkpt lat="47.8966" lon="6.90296">
        <ele>941</ele>
        <time>2026-05-09T11:00:54.897Z</time>
      </trkpt>
      <trkpt lat="47.89662" lon="6.90297">
        <ele>941</ele>
        <time>2026-05-09T11:00:55.897Z</time>
      </trkpt>
      <trkpt lat="47.89662" lon="6.90297">
        <ele>941</ele>
        <time>2026-05-09T11:00:56.896Z</time>
      </trkpt>
      <trkpt lat="47.89663" lon="6.90298">
        <ele>941</ele>
        <time>2026-05-09T11:00:57.897Z</time>
      </trkpt>
      <trkpt lat="47.89665" lon="6.90299">
        <ele>941</ele>
        <time>2026-05-09T11:00:58.896Z</time>
      </trkpt>
      <trkpt lat="47.89665" lon="6.90301">
        <ele>941</ele>
        <time>2026-05-09T11:00:59.897Z</time>
      </trkpt>
      <trkpt lat="47.89667" lon="6.90303">
        <ele>942</ele>
        <time>2026-05-09T11:01:00.897Z</time>
      </trkpt>
      <trkpt lat="47.89669" lon="6.90304">
        <ele>942</ele>
        <time>2026-05-09T11:01:01.897Z</time>
      </trkpt>
      <trkpt lat="47.8967" lon="6.90305">
        <ele>942</ele>
        <time>2026-05-09T11:01:02.896Z</time>
      </trkpt>
      <trkpt lat="47.89671" lon="6.90306">
        <ele>942</ele>
        <time>2026-05-09T11:01:03.897Z</time>
      </trkpt>
      <trkpt lat="47.89672" lon="6.90307">
        <ele>942</ele>
        <time>2026-05-09T11:01:04.896Z</time>
      </trkpt>
      <trkpt lat="47.89673" lon="6.90308">
        <ele>942</ele>
        <time>2026-05-09T11:01:05.896Z</time>
      </trkpt>
      <trkpt lat="47.89674" lon="6.90309">
        <ele>942</ele>
        <time>2026-05-09T11:01:06.896Z</time>
      </trkpt>
      <trkpt lat="47.89674" lon="6.90309">
        <ele>943</ele>
        <time>2026-05-09T11:01:07.896Z</time>
      </trkpt>
      <trkpt lat="47.89675" lon="6.9031">
        <ele>943</ele>
        <time>2026-05-09T11:01:08.896Z</time>
      </trkpt>
      <trkpt lat="47.89675" lon="6.90312">
        <ele>944</ele>
        <time>2026-05-09T11:01:09.897Z</time>
      </trkpt>
      <trkpt lat="47.89676" lon="6.90313">
        <ele>944</ele>
        <time>2026-05-09T11:01:10.896Z</time>
      </trkpt>
      <trkpt lat="47.89677" lon="6.90315">
        <ele>944</ele>
        <time>2026-05-09T11:01:11.896Z</time>
      </trkpt>
      <trkpt lat="47.89677" lon="6.90316">
        <ele>944</ele>
        <time>2026-05-09T11:01:12.896Z</time>
      </trkpt>
      <trkpt lat="47.89678" lon="6.90318">
        <ele>944</ele>
        <time>2026-05-09T11:01:13.897Z</time>
      </trkpt>
      <trkpt lat="47.89678" lon="6.90319">
        <ele>944</ele>
        <time>2026-05-09T11:01:14.896Z</time>
      </trkpt>
      <trkpt lat="47.89678" lon="6.90321">
        <ele>944</ele>
        <time>2026-05-09T11:01:15.896Z</time>
      </trkpt>
      <trkpt lat="47.89679" lon="6.90323">
        <ele>945</ele>
        <time>2026-05-09T11:01:16.896Z</time>
      </trkpt>
      <trkpt lat="47.8968" lon="6.90324">
        <ele>945</ele>
        <time>2026-05-09T11:01:17.897Z</time>
      </trkpt>
      <trkpt lat="47.8968" lon="6.90325">
        <ele>946</ele>
        <time>2026-05-09T11:01:18.896Z</time>
      </trkpt>
      <trkpt lat="47.89681" lon="6.90326">
        <ele>946</ele>
        <time>2026-05-09T11:01:19.896Z</time>
      </trkpt>
      <trkpt lat="47.89682" lon="6.90328">
        <ele>947</ele>
        <time>2026-05-09T11:01:20.896Z</time>
      </trkpt>
      <trkpt lat="47.89682" lon="6.90329">
        <ele>948</ele>
        <time>2026-05-09T11:01:21.896Z</time>
      </trkpt>
      <trkpt lat="47.89682" lon="6.9033">
        <ele>948</ele>
        <time>2026-05-09T11:01:22.897Z</time>
      </trkpt>
      <trkpt lat="47.89682" lon="6.90331">
        <ele>949</ele>
        <time>2026-05-09T11:01:23.897Z</time>
      </trkpt>
      <trkpt lat="47.89682" lon="6.90332">
        <ele>949</ele>
        <time>2026-05-09T11:01:24.896Z</time>
      </trkpt>
      <trkpt lat="47.89684" lon="6.90333">
        <ele>950</ele>
        <time>2026-05-09T11:01:25.897Z</time>
      </trkpt>
      <trkpt lat="47.89684" lon="6.90333">
        <ele>950</ele>
        <time>2026-05-09T11:01:26.897Z</time>
      </trkpt>
      <trkpt lat="47.89685" lon="6.90334">
        <ele>951</ele>
        <time>2026-05-09T11:01:27.896Z</time>
      </trkpt>
      <trkpt lat="47.89686" lon="6.90335">
        <ele>951</ele>
        <time>2026-05-09T11:01:28.897Z</time>
      </trkpt>
      <trkpt lat="47.89686" lon="6.90336">
        <ele>952</ele>
        <time>2026-05-09T11:01:29.896Z</time>
      </trkpt>
      <trkpt lat="47.89687" lon="6.90338">
        <ele>952</ele>
        <time>2026-05-09T11:01:30.896Z</time>
      </trkpt>
      <trkpt lat="47.89687" lon="6.90338">
        <ele>952</ele>
        <time>2026-05-09T11:01:31.896Z</time>
      </trkpt>
      <trkpt lat="47.89688" lon="6.90339">
        <ele>952</ele>
        <time>2026-05-09T11:01:32.896Z</time>
      </trkpt>
      <trkpt lat="47.89689" lon="6.90341">
        <ele>953</ele>
        <time>2026-05-09T11:01:33.897Z</time>
      </trkpt>
      <trkpt lat="47.89689" lon="6.90341">
        <ele>953</ele>
        <time>2026-05-09T11:01:34.896Z</time>
      </trkpt>
      <trkpt lat="47.89689" lon="6.90342">
        <ele>953</ele>
        <time>2026-05-09T11:01:35.896Z</time>
      </trkpt>
      <trkpt lat="47.89689" lon="6.90343">
        <ele>954</ele>
        <time>2026-05-09T11:01:36.896Z</time>
      </trkpt>
      <trkpt lat="47.8969" lon="6.90345">
        <ele>954</ele>
        <time>2026-05-09T11:01:37.896Z</time>
      </trkpt>
      <trkpt lat="47.8969" lon="6.90348">
        <ele>955</ele>
        <time>2026-05-09T11:01:38.897Z</time>
      </trkpt>
      <trkpt lat="47.89691" lon="6.90349">
        <ele>955</ele>
        <time>2026-05-09T11:01:39.896Z</time>
      </trkpt>
      <trkpt lat="47.8969" lon="6.90351">
        <ele>956</ele>
        <time>2026-05-09T11:01:40.896Z</time>
      </trkpt>
      <trkpt lat="47.89689" lon="6.90354">
        <ele>956</ele>
        <time>2026-05-09T11:01:41.896Z</time>
      </trkpt>
      <trkpt lat="47.89689" lon="6.90357">
        <ele>957</ele>
        <time>2026-05-09T11:01:42.896Z</time>
      </trkpt>
      <trkpt lat="47.89688" lon="6.90358">
        <ele>958</ele>
        <time>2026-05-09T11:01:43.897Z</time>
      </trkpt>
      <trkpt lat="47.89689" lon="6.90359">
        <ele>959</ele>
        <time>2026-05-09T11:01:44.897Z</time>
      </trkpt>
      <trkpt lat="47.89689" lon="6.90359">
        <ele>959</ele>
        <time>2026-05-09T11:01:45.896Z</time>
      </trkpt>
      <trkpt lat="47.8969" lon="6.9036">
        <ele>960</ele>
        <time>2026-05-09T11:01:46.897Z</time>
      </trkpt>
      <trkpt lat="47.8969" lon="6.90361">
        <ele>960</ele>
        <time>2026-05-09T11:01:47.897Z</time>
      </trkpt>
      <trkpt lat="47.8969" lon="6.90362">
        <ele>961</ele>
        <time>2026-05-09T11:01:48.896Z</time>
      </trkpt>
      <trkpt lat="47.8969" lon="6.90363">
        <ele>962</ele>
        <time>2026-05-09T11:01:49.896Z</time>
      </trkpt>
      <trkpt lat="47.8969" lon="6.90364">
        <ele>963</ele>
        <time>2026-05-09T11:01:50.896Z</time>
      </trkpt>
      <trkpt lat="47.8969" lon="6.90365">
        <ele>963</ele>
        <time>2026-05-09T11:01:51.896Z</time>
      </trkpt>
      <trkpt lat="47.89689" lon="6.90366">
        <ele>964</ele>
        <time>2026-05-09T11:01:52.896Z</time>
      </trkpt>
      <trkpt lat="47.89689" lon="6.90367">
        <ele>964</ele>
        <time>2026-05-09T11:01:53.896Z</time>
      </trkpt>
      <trkpt lat="47.8969" lon="6.90368">
        <ele>964</ele>
        <time>2026-05-09T11:01:54.897Z</time>
      </trkpt>
      <trkpt lat="47.8969" lon="6.90369">
        <ele>964</ele>
        <time>2026-05-09T11:01:55.896Z</time>
      </trkpt>
      <trkpt lat="47.8969" lon="6.9037">
        <ele>965</ele>
        <time>2026-05-09T11:01:56.897Z</time>
      </trkpt>
      <trkpt lat="47.8969" lon="6.9037">
        <ele>965</ele>
        <time>2026-05-09T11:01:57.897Z</time>
      </trkpt>
      <trkpt lat="47.8969" lon="6.90371">
        <ele>965</ele>
        <time>2026-05-09T11:01:58.896Z</time>
      </trkpt>
      <trkpt lat="47.8969" lon="6.90373">
        <ele>966</ele>
        <time>2026-05-09T11:01:59.897Z</time>
      </trkpt>
      <trkpt lat="47.89691" lon="6.90374">
        <ele>966</ele>
        <time>2026-05-09T11:02:00.897Z</time>
      </trkpt>
      <trkpt lat="47.89691" lon="6.90376">
        <ele>966</ele>
        <time>2026-05-09T11:02:01.897Z</time>
      </trkpt>
      <trkpt lat="47.89692" lon="6.90377">
        <ele>967</ele>
        <time>2026-05-09T11:02:02.897Z</time>
      </trkpt>
      <trkpt lat="47.89692" lon="6.90378">
        <ele>967</ele>
        <time>2026-05-09T11:02:03.896Z</time>
      </trkpt>
      <trkpt lat="47.89692" lon="6.9038">
        <ele>968</ele>
        <time>2026-05-09T11:02:04.896Z</time>
      </trkpt>
      <trkpt lat="47.89692" lon="6.90382">
        <ele>968</ele>
        <time>2026-05-09T11:02:05.896Z</time>
      </trkpt>
      <trkpt lat="47.89692" lon="6.90384">
        <ele>969</ele>
        <time>2026-05-09T11:02:06.896Z</time>
      </trkpt>
      <trkpt lat="47.89692" lon="6.90386">
        <ele>969</ele>
        <time>2026-05-09T11:02:07.896Z</time>
      </trkpt>
      <trkpt lat="47.89692" lon="6.90388">
        <ele>969</ele>
        <time>2026-05-09T11:02:08.896Z</time>
      </trkpt>
      <trkpt lat="47.89692" lon="6.9039">
        <ele>969</ele>
        <time>2026-05-09T11:02:09.896Z</time>
      </trkpt>
      <trkpt lat="47.89693" lon="6.90391">
        <ele>970</ele>
        <time>2026-05-09T11:02:10.896Z</time>
      </trkpt>
      <trkpt lat="47.89693" lon="6.90393">
        <ele>970</ele>
        <time>2026-05-09T11:02:11.896Z</time>
      </trkpt>
      <trkpt lat="47.89693" lon="6.90394">
        <ele>970</ele>
        <time>2026-05-09T11:02:12.896Z</time>
      </trkpt>
      <trkpt lat="47.89693" lon="6.90396">
        <ele>970</ele>
        <time>2026-05-09T11:02:13.897Z</time>
      </trkpt>
      <trkpt lat="47.89693" lon="6.90398">
        <ele>970</ele>
        <time>2026-05-09T11:02:14.897Z</time>
      </trkpt>
      <trkpt lat="47.89694" lon="6.90399">
        <ele>971</ele>
        <time>2026-05-09T11:02:15.896Z</time>
      </trkpt>
      <trkpt lat="47.89694" lon="6.904">
        <ele>971</ele>
        <time>2026-05-09T11:02:16.896Z</time>
      </trkpt>
      <trkpt lat="47.89694" lon="6.90401">
        <ele>971</ele>
        <time>2026-05-09T11:02:17.896Z</time>
      </trkpt>
      <trkpt lat="47.89695" lon="6.90402">
        <ele>971</ele>
        <time>2026-05-09T11:02:18.896Z</time>
      </trkpt>
      <trkpt lat="47.89695" lon="6.90403">
        <ele>972</ele>
        <time>2026-05-09T11:02:19.897Z</time>
      </trkpt>
      <trkpt lat="47.89695" lon="6.90405">
        <ele>972</ele>
        <time>2026-05-09T11:02:20.896Z</time>
      </trkpt>
      <trkpt lat="47.89696" lon="6.90406">
        <ele>973</ele>
        <time>2026-05-09T11:02:21.896Z</time>
      </trkpt>
      <trkpt lat="47.89697" lon="6.90407">
        <ele>973</ele>
        <time>2026-05-09T11:02:22.896Z</time>
      </trkpt>
      <trkpt lat="47.89697" lon="6.90409">
        <ele>973</ele>
        <time>2026-05-09T11:02:23.896Z</time>
      </trkpt>
      <trkpt lat="47.89698" lon="6.9041">
        <ele>973</ele>
        <time>2026-05-09T11:02:24.896Z</time>
      </trkpt>
      <trkpt lat="47.89699" lon="6.90412">
        <ele>973</ele>
        <time>2026-05-09T11:02:25.896Z</time>
      </trkpt>
      <trkpt lat="47.897" lon="6.90413">
        <ele>973</ele>
        <time>2026-05-09T11:02:26.896Z</time>
      </trkpt>
      <trkpt lat="47.897" lon="6.90415">
        <ele>973</ele>
        <time>2026-05-09T11:02:27.896Z</time>
      </trkpt>
      <trkpt lat="47.897" lon="6.90417">
        <ele>973</ele>
        <time>2026-05-09T11:02:28.896Z</time>
      </trkpt>
      <trkpt lat="47.89701" lon="6.90418">
        <ele>973</ele>
        <time>2026-05-09T11:02:29.896Z</time>
      </trkpt>
      <trkpt lat="47.89702" lon="6.9042">
        <ele>972</ele>
        <time>2026-05-09T11:02:30.896Z</time>
      </trkpt>
      <trkpt lat="47.89703" lon="6.90421">
        <ele>972</ele>
        <time>2026-05-09T11:02:31.896Z</time>
      </trkpt>
      <trkpt lat="47.89704" lon="6.90423">
        <ele>972</ele>
        <time>2026-05-09T11:02:32.896Z</time>
      </trkpt>
      <trkpt lat="47.89705" lon="6.90424">
        <ele>971</ele>
        <time>2026-05-09T11:02:33.896Z</time>
      </trkpt>
      <trkpt lat="47.89706" lon="6.90425">
        <ele>971</ele>
        <time>2026-05-09T11:02:34.896Z</time>
      </trkpt>
      <trkpt lat="47.89707" lon="6.90425">
        <ele>970</ele>
        <time>2026-05-09T11:02:35.896Z</time>
      </trkpt>
      <trkpt lat="47.89708" lon="6.90426">
        <ele>970</ele>
        <time>2026-05-09T11:02:36.897Z</time>
      </trkpt>
      <trkpt lat="47.89708" lon="6.90427">
        <ele>969</ele>
        <time>2026-05-09T11:02:37.897Z</time>
      </trkpt>
      <trkpt lat="47.8971" lon="6.90428">
        <ele>969</ele>
        <time>2026-05-09T11:02:38.897Z</time>
      </trkpt>
      <trkpt lat="47.8971" lon="6.90428">
        <ele>968</ele>
        <time>2026-05-09T11:02:39.897Z</time>
      </trkpt>
      <trkpt lat="47.89711" lon="6.90429">
        <ele>968</ele>
        <time>2026-05-09T11:02:40.896Z</time>
      </trkpt>
      <trkpt lat="47.8971" lon="6.9043">
        <ele>968</ele>
        <time>2026-05-09T11:02:41.896Z</time>
      </trkpt>
      <trkpt lat="47.89711" lon="6.90433">
        <ele>968</ele>
        <time>2026-05-09T11:02:42.896Z</time>
      </trkpt>
      <trkpt lat="47.89712" lon="6.90436">
        <ele>968</ele>
        <time>2026-05-09T11:02:43.897Z</time>
      </trkpt>
      <trkpt lat="47.89713" lon="6.90438">
        <ele>968</ele>
        <time>2026-05-09T11:02:44.897Z</time>
      </trkpt>
      <trkpt lat="47.89714" lon="6.9044">
        <ele>968</ele>
        <time>2026-05-09T11:02:45.897Z</time>
      </trkpt>
      <trkpt lat="47.89718" lon="6.9044">
        <ele>968</ele>
        <time>2026-05-09T11:02:46.897Z</time>
      </trkpt>
      <trkpt lat="47.89722" lon="6.90442">
        <ele>968</ele>
        <time>2026-05-09T11:02:47.897Z</time>
      </trkpt>
      <trkpt lat="47.89725" lon="6.90443">
        <ele>968</ele>
        <time>2026-05-09T11:02:48.896Z</time>
      </trkpt>
      <trkpt lat="47.89727" lon="6.90445">
        <ele>968</ele>
        <time>2026-05-09T11:02:49.896Z</time>
      </trkpt>
      <trkpt lat="47.89728" lon="6.90447">
        <ele>968</ele>
        <time>2026-05-09T11:02:50.896Z</time>
      </trkpt>
      <trkpt lat="47.8973" lon="6.90449">
        <ele>968</ele>
        <time>2026-05-09T11:02:51.896Z</time>
      </trkpt>
      <trkpt lat="47.89733" lon="6.9045">
        <ele>969</ele>
        <time>2026-05-09T11:02:52.896Z</time>
      </trkpt>
      <trkpt lat="47.89735" lon="6.9045">
        <ele>969</ele>
        <time>2026-05-09T11:02:53.896Z</time>
      </trkpt>
      <trkpt lat="47.89736" lon="6.90453">
        <ele>969</ele>
        <time>2026-05-09T11:02:54.896Z</time>
      </trkpt>
      <trkpt lat="47.89735" lon="6.90455">
        <ele>970</ele>
        <time>2026-05-09T11:02:55.896Z</time>
      </trkpt>
      <trkpt lat="47.89733" lon="6.90459">
        <ele>971</ele>
        <time>2026-05-09T11:02:56.896Z</time>
      </trkpt>
      <trkpt lat="47.8973" lon="6.90462">
        <ele>971</ele>
        <time>2026-05-09T11:02:57.896Z</time>
      </trkpt>
      <trkpt lat="47.89729" lon="6.90467">
        <ele>972</ele>
        <time>2026-05-09T11:02:58.896Z</time>
      </trkpt>
      <trkpt lat="47.89728" lon="6.90469">
        <ele>973</ele>
        <time>2026-05-09T11:02:59.897Z</time>
      </trkpt>
      <trkpt lat="47.89727" lon="6.90471">
        <ele>974</ele>
        <time>2026-05-09T11:03:00.897Z</time>
      </trkpt>
      <trkpt lat="47.89725" lon="6.90474">
        <ele>974</ele>
        <time>2026-05-09T11:03:01.897Z</time>
      </trkpt>
      <trkpt lat="47.89722" lon="6.90476">
        <ele>974</ele>
        <time>2026-05-09T11:03:02.897Z</time>
      </trkpt>
      <trkpt lat="47.89722" lon="6.90479">
        <ele>974</ele>
        <time>2026-05-09T11:03:03.897Z</time>
      </trkpt>
      <trkpt lat="47.89723" lon="6.9048">
        <ele>974</ele>
        <time>2026-05-09T11:03:04.896Z</time>
      </trkpt>
      <trkpt lat="47.89722" lon="6.90485">
        <ele>974</ele>
        <time>2026-05-09T11:03:05.896Z</time>
      </trkpt>
      <trkpt lat="47.89723" lon="6.90485">
        <ele>974</ele>
        <time>2026-05-09T11:03:06.896Z</time>
      </trkpt>
      <trkpt lat="47.89726" lon="6.90484">
        <ele>974</ele>
        <time>2026-05-09T11:03:07.896Z</time>
      </trkpt>
      <trkpt lat="47.89725" lon="6.90486">
        <ele>974</ele>
        <time>2026-05-09T11:03:08.897Z</time>
      </trkpt>
      <trkpt lat="47.89725" lon="6.90488">
        <ele>974</ele>
        <time>2026-05-09T11:03:09.896Z</time>
      </trkpt>
      <trkpt lat="47.89725" lon="6.9049">
        <ele>974</ele>
        <time>2026-05-09T11:03:10.896Z</time>
      </trkpt>
      <trkpt lat="47.89725" lon="6.90492">
        <ele>974</ele>
        <time>2026-05-09T11:03:11.896Z</time>
      </trkpt>
      <trkpt lat="47.89726" lon="6.90494">
        <ele>973</ele>
        <time>2026-05-09T11:03:12.896Z</time>
      </trkpt>
      <trkpt lat="47.89722" lon="6.90495">
        <ele>973</ele>
        <time>2026-05-09T11:03:13.896Z</time>
      </trkpt>
      <trkpt lat="47.89722" lon="6.90497">
        <ele>972</ele>
        <time>2026-05-09T11:03:14.896Z</time>
      </trkpt>
      <trkpt lat="47.89722" lon="6.90499">
        <ele>972</ele>
        <time>2026-05-09T11:03:15.897Z</time>
      </trkpt>
      <trkpt lat="47.89722" lon="6.90497">
        <ele>971</ele>
        <time>2026-05-09T11:03:16.897Z</time>
      </trkpt>
      <trkpt lat="47.89721" lon="6.90498">
        <ele>971</ele>
        <time>2026-05-09T11:03:17.897Z</time>
      </trkpt>
      <trkpt lat="47.89719" lon="6.90495">
        <ele>971</ele>
        <time>2026-05-09T11:03:18.897Z</time>
      </trkpt>
      <trkpt lat="47.8972" lon="6.90495">
        <ele>971</ele>
        <time>2026-05-09T11:03:19.897Z</time>
      </trkpt>
      <trkpt lat="47.8972" lon="6.90496">
        <ele>971</ele>
        <time>2026-05-09T11:03:20.896Z</time>
      </trkpt>
      <trkpt lat="47.8972" lon="6.90497">
        <ele>972</ele>
        <time>2026-05-09T11:03:21.896Z</time>
      </trkpt>
      <trkpt lat="47.89722" lon="6.90497">
        <ele>972</ele>
        <time>2026-05-09T11:03:22.896Z</time>
      </trkpt>
      <trkpt lat="47.89721" lon="6.90498">
        <ele>973</ele>
        <time>2026-05-09T11:03:23.896Z</time>
      </trkpt>
      <trkpt lat="47.8972" lon="6.90499">
        <ele>973</ele>
        <time>2026-05-09T11:03:24.897Z</time>
      </trkpt>
      <trkpt lat="47.8972" lon="6.905">
        <ele>973</ele>
        <time>2026-05-09T11:03:25.897Z</time>
      </trkpt>
      <trkpt lat="47.8972" lon="6.90501">
        <ele>973</ele>
        <time>2026-05-09T11:03:26.897Z</time>
      </trkpt>
      <trkpt lat="47.89721" lon="6.90501">
        <ele>973</ele>
        <time>2026-05-09T11:03:27.896Z</time>
      </trkpt>
      <trkpt lat="47.89721" lon="6.90502">
        <ele>973</ele>
        <time>2026-05-09T11:03:28.896Z</time>
      </trkpt>
      <trkpt lat="47.89722" lon="6.90502">
        <ele>973</ele>
        <time>2026-05-09T11:03:29.897Z</time>
      </trkpt>
      <trkpt lat="47.89724" lon="6.90502">
        <ele>974</ele>
        <time>2026-05-09T11:03:30.896Z</time>
      </trkpt>
      <trkpt lat="47.89723" lon="6.90504">
        <ele>974</ele>
        <time>2026-05-09T11:03:31.896Z</time>
      </trkpt>
      <trkpt lat="47.89723" lon="6.90505">
        <ele>974</ele>
        <time>2026-05-09T11:03:32.896Z</time>
      </trkpt>
      <trkpt lat="47.89723" lon="6.90506">
        <ele>974</ele>
        <time>2026-05-09T11:03:33.896Z</time>
      </trkpt>
      <trkpt lat="47.89724" lon="6.90507">
        <ele>974</ele>
        <time>2026-05-09T11:03:34.896Z</time>
      </trkpt>
      <trkpt lat="47.89724" lon="6.90508">
        <ele>975</ele>
        <time>2026-05-09T11:03:35.896Z</time>
      </trkpt>
      <trkpt lat="47.89724" lon="6.90509">
        <ele>975</ele>
        <time>2026-05-09T11:03:36.896Z</time>
      </trkpt>
      <trkpt lat="47.89723" lon="6.90511">
        <ele>976</ele>
        <time>2026-05-09T11:03:37.896Z</time>
      </trkpt>
      <trkpt lat="47.89722" lon="6.90512">
        <ele>976</ele>
        <time>2026-05-09T11:03:38.896Z</time>
      </trkpt>
      <trkpt lat="47.89722" lon="6.90513">
        <ele>977</ele>
        <time>2026-05-09T11:03:39.896Z</time>
      </trkpt>
      <trkpt lat="47.89722" lon="6.90513">
        <ele>978</ele>
        <time>2026-05-09T11:03:40.896Z</time>
      </trkpt>
      <trkpt lat="47.89721" lon="6.90515">
        <ele>978</ele>
        <time>2026-05-09T11:03:41.897Z</time>
      </trkpt>
      <trkpt lat="47.8972" lon="6.90516">
        <ele>979</ele>
        <time>2026-05-09T11:03:42.897Z</time>
      </trkpt>
      <trkpt lat="47.8972" lon="6.90516">
        <ele>979</ele>
        <time>2026-05-09T11:03:43.897Z</time>
      </trkpt>
      <trkpt lat="47.8972" lon="6.90518">
        <ele>980</ele>
        <time>2026-05-09T11:03:44.897Z</time>
      </trkpt>
      <trkpt lat="47.8972" lon="6.90519">
        <ele>980</ele>
        <time>2026-05-09T11:03:45.896Z</time>
      </trkpt>
      <trkpt lat="47.8972" lon="6.9052">
        <ele>981</ele>
        <time>2026-05-09T11:03:46.896Z</time>
      </trkpt>
      <trkpt lat="47.8972" lon="6.90522">
        <ele>981</ele>
        <time>2026-05-09T11:03:47.896Z</time>
      </trkpt>
      <trkpt lat="47.8972" lon="6.90524">
        <ele>982</ele>
        <time>2026-05-09T11:03:48.896Z</time>
      </trkpt>
      <trkpt lat="47.8972" lon="6.90525">
        <ele>982</ele>
        <time>2026-05-09T11:03:49.897Z</time>
      </trkpt>
      <trkpt lat="47.8972" lon="6.90526">
        <ele>983</ele>
        <time>2026-05-09T11:03:50.897Z</time>
      </trkpt>
      <trkpt lat="47.8972" lon="6.90527">
        <ele>983</ele>
        <time>2026-05-09T11:03:51.897Z</time>
      </trkpt>
      <trkpt lat="47.8972" lon="6.90527">
        <ele>984</ele>
        <time>2026-05-09T11:03:52.896Z</time>
      </trkpt>
      <trkpt lat="47.89721" lon="6.90529">
        <ele>985</ele>
        <time>2026-05-09T11:03:53.897Z</time>
      </trkpt>
      <trkpt lat="47.89721" lon="6.9053">
        <ele>986</ele>
        <time>2026-05-09T11:03:54.896Z</time>
      </trkpt>
      <trkpt lat="47.89721" lon="6.90532">
        <ele>986</ele>
        <time>2026-05-09T11:03:55.896Z</time>
      </trkpt>
      <trkpt lat="47.89721" lon="6.90533">
        <ele>987</ele>
        <time>2026-05-09T11:03:56.896Z</time>
      </trkpt>
      <trkpt lat="47.89721" lon="6.90534">
        <ele>987</ele>
        <time>2026-05-09T11:03:57.897Z</time>
      </trkpt>
      <trkpt lat="47.89721" lon="6.90536">
        <ele>988</ele>
        <time>2026-05-09T11:03:58.897Z</time>
      </trkpt>
      <trkpt lat="47.89721" lon="6.90537">
        <ele>988</ele>
        <time>2026-05-09T11:03:59.897Z</time>
      </trkpt>
      <trkpt lat="47.89721" lon="6.90538">
        <ele>988</ele>
        <time>2026-05-09T11:04:00.896Z</time>
      </trkpt>
      <trkpt lat="47.89721" lon="6.9054">
        <ele>989</ele>
        <time>2026-05-09T11:04:01.897Z</time>
      </trkpt>
      <trkpt lat="47.89721" lon="6.90541">
        <ele>989</ele>
        <time>2026-05-09T11:04:02.897Z</time>
      </trkpt>
      <trkpt lat="47.89722" lon="6.90542">
        <ele>990</ele>
        <time>2026-05-09T11:04:03.897Z</time>
      </trkpt>
      <trkpt lat="47.89723" lon="6.90543">
        <ele>990</ele>
        <time>2026-05-09T11:04:04.896Z</time>
      </trkpt>
      <trkpt lat="47.89723" lon="6.90544">
        <ele>991</ele>
        <time>2026-05-09T11:04:05.897Z</time>
      </trkpt>
      <trkpt lat="47.89723" lon="6.90545">
        <ele>991</ele>
        <time>2026-05-09T11:04:06.896Z</time>
      </trkpt>
      <trkpt lat="47.89723" lon="6.90546">
        <ele>992</ele>
        <time>2026-05-09T11:04:07.897Z</time>
      </trkpt>
      <trkpt lat="47.89724" lon="6.90547">
        <ele>992</ele>
        <time>2026-05-09T11:04:08.896Z</time>
      </trkpt>
      <trkpt lat="47.89724" lon="6.90548">
        <ele>993</ele>
        <time>2026-05-09T11:04:09.896Z</time>
      </trkpt>
      <trkpt lat="47.89724" lon="6.90549">
        <ele>993</ele>
        <time>2026-05-09T11:04:10.896Z</time>
      </trkpt>
      <trkpt lat="47.89725" lon="6.9055">
        <ele>994</ele>
        <time>2026-05-09T11:04:11.897Z</time>
      </trkpt>
      <trkpt lat="47.89725" lon="6.90551">
        <ele>994</ele>
        <time>2026-05-09T11:04:12.896Z</time>
      </trkpt>
      <trkpt lat="47.89725" lon="6.90553">
        <ele>994</ele>
        <time>2026-05-09T11:04:13.897Z</time>
      </trkpt>
      <trkpt lat="47.89724" lon="6.90554">
        <ele>995</ele>
        <time>2026-05-09T11:04:14.896Z</time>
      </trkpt>
      <trkpt lat="47.89723" lon="6.90556">
        <ele>996</ele>
        <time>2026-05-09T11:04:15.897Z</time>
      </trkpt>
      <trkpt lat="47.89722" lon="6.90557">
        <ele>996</ele>
        <time>2026-05-09T11:04:16.896Z</time>
      </trkpt>
      <trkpt lat="47.89721" lon="6.90558">
        <ele>997</ele>
        <time>2026-05-09T11:04:17.897Z</time>
      </trkpt>
      <trkpt lat="47.89721" lon="6.90559">
        <ele>997</ele>
        <time>2026-05-09T11:04:18.896Z</time>
      </trkpt>
      <trkpt lat="47.89721" lon="6.9056">
        <ele>997</ele>
        <time>2026-05-09T11:04:19.897Z</time>
      </trkpt>
      <trkpt lat="47.89721" lon="6.90561">
        <ele>997</ele>
        <time>2026-05-09T11:04:20.897Z</time>
      </trkpt>
      <trkpt lat="47.8972" lon="6.90562">
        <ele>996</ele>
        <time>2026-05-09T11:04:21.897Z</time>
      </trkpt>
      <trkpt lat="47.8972" lon="6.90563">
        <ele>996</ele>
        <time>2026-05-09T11:04:22.897Z</time>
      </trkpt>
      <trkpt lat="47.89721" lon="6.90564">
        <ele>995</ele>
        <time>2026-05-09T11:04:23.896Z</time>
      </trkpt>
      <trkpt lat="47.89721" lon="6.90565">
        <ele>995</ele>
        <time>2026-05-09T11:04:24.897Z</time>
      </trkpt>
      <trkpt lat="47.89721" lon="6.90566">
        <ele>995</ele>
        <time>2026-05-09T11:04:25.897Z</time>
      </trkpt>
      <trkpt lat="47.89722" lon="6.90566">
        <ele>996</ele>
        <time>2026-05-09T11:04:26.896Z</time>
      </trkpt>
      <trkpt lat="47.89722" lon="6.90567">
        <ele>996</ele>
        <time>2026-05-09T11:04:27.897Z</time>
      </trkpt>
      <trkpt lat="47.89723" lon="6.90568">
        <ele>996</ele>
        <time>2026-05-09T11:04:28.896Z</time>
      </trkpt>
      <trkpt lat="47.89723" lon="6.9057">
        <ele>996</ele>
        <time>2026-05-09T11:04:29.897Z</time>
      </trkpt>
      <trkpt lat="47.89723" lon="6.90571">
        <ele>996</ele>
        <time>2026-05-09T11:04:30.896Z</time>
      </trkpt>
      <trkpt lat="47.89722" lon="6.90573">
        <ele>996</ele>
        <time>2026-05-09T11:04:31.897Z</time>
      </trkpt>
      <trkpt lat="47.89722" lon="6.90574">
        <ele>997</ele>
        <time>2026-05-09T11:04:32.896Z</time>
      </trkpt>
      <trkpt lat="47.89723" lon="6.90576">
        <ele>997</ele>
        <time>2026-05-09T11:04:33.896Z</time>
      </trkpt>
      <trkpt lat="47.89722" lon="6.90576">
        <ele>997</ele>
        <time>2026-05-09T11:04:34.896Z</time>
      </trkpt>
      <trkpt lat="47.89722" lon="6.90577">
        <ele>997</ele>
        <time>2026-05-09T11:04:35.897Z</time>
      </trkpt>
      <trkpt lat="47.89722" lon="6.90578">
        <ele>998</ele>
        <time>2026-05-09T11:04:36.896Z</time>
      </trkpt>
      <trkpt lat="47.89722" lon="6.90578">
        <ele>998</ele>
        <time>2026-05-09T11:04:37.897Z</time>
      </trkpt>
      <trkpt lat="47.89722" lon="6.90579">
        <ele>998</ele>
        <time>2026-05-09T11:04:38.896Z</time>
      </trkpt>
      <trkpt lat="47.89721" lon="6.9058">
        <ele>999</ele>
        <time>2026-05-09T11:04:39.896Z</time>
      </trkpt>
      <trkpt lat="47.89721" lon="6.90581">
        <ele>999</ele>
        <time>2026-05-09T11:04:40.896Z</time>
      </trkpt>
      <trkpt lat="47.89721" lon="6.90582">
        <ele>999</ele>
        <time>2026-05-09T11:04:41.897Z</time>
      </trkpt>
      <trkpt lat="47.89721" lon="6.90583">
        <ele>999</ele>
        <time>2026-05-09T11:04:42.897Z</time>
      </trkpt>
      <trkpt lat="47.8972" lon="6.90583">
        <ele>999</ele>
        <time>2026-05-09T11:04:43.896Z</time>
      </trkpt>
      <trkpt lat="47.8972" lon="6.90584">
        <ele>999</ele>
        <time>2026-05-09T11:04:44.897Z</time>
      </trkpt>
      <trkpt lat="47.8972" lon="6.90584">
        <ele>999</ele>
        <time>2026-05-09T11:04:45.896Z</time>
      </trkpt>
      <trkpt lat="47.89721" lon="6.90584">
        <ele>999</ele>
        <time>2026-05-09T11:04:46.897Z</time>
      </trkpt>
      <trkpt lat="47.89721" lon="6.90584">
        <ele>999</ele>
        <time>2026-05-09T11:04:47.896Z</time>
      </trkpt>
      <trkpt lat="47.89721" lon="6.90585">
        <ele>999</ele>
        <time>2026-05-09T11:04:48.896Z</time>
      </trkpt>
      <trkpt lat="47.89721" lon="6.90584">
        <ele>999</ele>
        <time>2026-05-09T11:04:49.896Z</time>
      </trkpt>
      <trkpt lat="47.89721" lon="6.90584">
        <ele>1000</ele>
        <time>2026-05-09T11:04:50.897Z</time>
      </trkpt>
      <trkpt lat="47.89722" lon="6.90584">
        <ele>1000</ele>
        <time>2026-05-09T11:04:51.896Z</time>
      </trkpt>
      <trkpt lat="47.89722" lon="6.90583">
        <ele>1001</ele>
        <time>2026-05-09T11:04:52.897Z</time>
      </trkpt>
      <trkpt lat="47.89722" lon="6.90583">
        <ele>1002</ele>
        <time>2026-05-09T11:04:53.896Z</time>
      </trkpt>
      <trkpt lat="47.89723" lon="6.90583">
        <ele>1003</ele>
        <time>2026-05-09T11:04:54.897Z</time>
      </trkpt>
      <trkpt lat="47.89723" lon="6.90583">
        <ele>1004</ele>
        <time>2026-05-09T11:04:55.897Z</time>
      </trkpt>
      <trkpt lat="47.89724" lon="6.90583">
        <ele>1005</ele>
        <time>2026-05-09T11:04:56.897Z</time>
      </trkpt>
      <trkpt lat="47.89724" lon="6.90582">
        <ele>1006</ele>
        <time>2026-05-09T11:04:57.897Z</time>
      </trkpt>
      <trkpt lat="47.89725" lon="6.90581">
        <ele>1006</ele>
        <time>2026-05-09T11:04:58.897Z</time>
      </trkpt>
      <trkpt lat="47.89725" lon="6.90581">
        <ele>1007</ele>
        <time>2026-05-09T11:04:59.897Z</time>
      </trkpt>
      <trkpt lat="47.89726" lon="6.90581">
        <ele>1007</ele>
        <time>2026-05-09T11:05:00.896Z</time>
      </trkpt>
      <trkpt lat="47.89725" lon="6.90581">
        <ele>1008</ele>
        <time>2026-05-09T11:05:01.897Z</time>
      </trkpt>
      <trkpt lat="47.89725" lon="6.90581">
        <ele>1008</ele>
        <time>2026-05-09T11:05:02.896Z</time>
      </trkpt>
      <trkpt lat="47.89725" lon="6.90581">
        <ele>1008</ele>
        <time>2026-05-09T11:05:03.897Z</time>
      </trkpt>
      <trkpt lat="47.89724" lon="6.90581">
        <ele>1008</ele>
        <time>2026-05-09T11:05:04.896Z</time>
      </trkpt>
      <trkpt lat="47.89724" lon="6.90582">
        <ele>1008</ele>
        <time>2026-05-09T11:05:05.897Z</time>
      </trkpt>
      <trkpt lat="47.89728" lon="6.90578">
        <ele>1006</ele>
        <time>2026-05-09T11:05:15.064Z</time>
      </trkpt>
      <trkpt lat="47.89728" lon="6.90578">
        <ele>1005</ele>
        <time>2026-05-09T11:05:16.064Z</time>
      </trkpt>
      <trkpt lat="47.89728" lon="6.90578">
        <ele>1005</ele>
        <time>2026-05-09T11:05:17.065Z</time>
      </trkpt>
      <trkpt lat="47.89728" lon="6.90578">
        <ele>1005</ele>
        <time>2026-05-09T11:05:18.064Z</time>
      </trkpt>
      <trkpt lat="47.8973" lon="6.90573">
        <ele>1005</ele>
        <time>2026-05-09T11:05:28.301Z</time>
      </trkpt>
      <trkpt lat="47.89731" lon="6.90573">
        <ele>1005</ele>
        <time>2026-05-09T11:05:29.300Z</time>
      </trkpt>
      <trkpt lat="47.89732" lon="6.90574">
        <ele>1005</ele>
        <time>2026-05-09T11:05:30.301Z</time>
      </trkpt>
      <trkpt lat="47.89731" lon="6.90574">
        <ele>1004</ele>
        <time>2026-05-09T11:05:31.300Z</time>
      </trkpt>
      <trkpt lat="47.89731" lon="6.90575">
        <ele>1003</ele>
        <time>2026-05-09T11:05:32.301Z</time>
      </trkpt>
      <trkpt lat="47.89731" lon="6.90575">
        <ele>1003</ele>
        <time>2026-05-09T11:05:33.301Z</time>
      </trkpt>
      <trkpt lat="47.89731" lon="6.90575">
        <ele>1002</ele>
        <time>2026-05-09T11:05:34.300Z</time>
      </trkpt>
      <trkpt lat="47.89732" lon="6.90576">
        <ele>991</ele>
        <time>2026-05-09T11:05:42.390Z</time>
      </trkpt>
      <trkpt lat="47.89732" lon="6.90576">
        <ele>989</ele>
        <time>2026-05-09T11:05:43.390Z</time>
      </trkpt>
      <trkpt lat="47.89732" lon="6.90576">
        <ele>988</ele>
        <time>2026-05-09T11:05:44.390Z</time>
      </trkpt>
      <trkpt lat="47.89732" lon="6.90576">
        <ele>986</ele>
        <time>2026-05-09T11:05:45.390Z</time>
      </trkpt>
      <trkpt lat="47.89732" lon="6.90576">
        <ele>984</ele>
        <time>2026-05-09T11:05:46.390Z</time>
      </trkpt>
      <trkpt lat="47.89732" lon="6.90576">
        <ele>982</ele>
        <time>2026-05-09T11:05:47.390Z</time>
      </trkpt>
      <trkpt lat="47.89731" lon="6.90576">
        <ele>981</ele>
        <time>2026-05-09T11:05:48.390Z</time>
      </trkpt>
      <trkpt lat="47.89733" lon="6.90576">
        <ele>979</ele>
        <time>2026-05-09T11:05:49.391Z</time>
      </trkpt>
      <trkpt lat="47.89733" lon="6.90576">
        <ele>978</ele>
        <time>2026-05-09T11:05:50.390Z</time>
      </trkpt>
      <trkpt lat="47.89733" lon="6.90576">
        <ele>977</ele>
        <time>2026-05-09T11:05:51.390Z</time>
      </trkpt>
      <trkpt lat="47.89733" lon="6.90576">
        <ele>975</ele>
        <time>2026-05-09T11:05:52.391Z</time>
      </trkpt>
      <trkpt lat="47.89732" lon="6.90576">
        <ele>974</ele>
        <time>2026-05-09T11:05:53.390Z</time>
      </trkpt>
      <trkpt lat="47.89732" lon="6.90576">
        <ele>973</ele>
        <time>2026-05-09T11:05:54.390Z</time>
      </trkpt>
      <trkpt lat="47.89732" lon="6.90576">
        <ele>972</ele>
        <time>2026-05-09T11:05:55.391Z</time>
      </trkpt>
      <trkpt lat="47.89731" lon="6.90576">
        <ele>971</ele>
        <time>2026-05-09T11:05:56.391Z</time>
      </trkpt>
      <trkpt lat="47.89731" lon="6.90575">
        <ele>970</ele>
        <time>2026-05-09T11:05:57.390Z</time>
      </trkpt>
      <trkpt lat="47.89731" lon="6.90575">
        <ele>969</ele>
        <time>2026-05-09T11:05:58.390Z</time>
      </trkpt>
      <trkpt lat="47.89731" lon="6.90575">
        <ele>968</ele>
        <time>2026-05-09T11:05:59.391Z</time>
      </trkpt>
      <trkpt lat="47.89731" lon="6.90574">
        <ele>967</ele>
        <time>2026-05-09T11:06:00.390Z</time>
      </trkpt>
      <trkpt lat="47.89732" lon="6.90574">
        <ele>966</ele>
        <time>2026-05-09T11:06:01.391Z</time>
      </trkpt>
      <trkpt lat="47.89732" lon="6.90574">
        <ele>965</ele>
        <time>2026-05-09T11:06:02.390Z</time>
      </trkpt>
      <trkpt lat="47.89733" lon="6.90575">
        <ele>964</ele>
        <time>2026-05-09T11:06:03.390Z</time>
      </trkpt>
      <trkpt lat="47.89732" lon="6.90576">
        <ele>964</ele>
        <time>2026-05-09T11:06:04.390Z</time>
      </trkpt>
      <trkpt lat="47.89732" lon="6.90576">
        <ele>963</ele>
        <time>2026-05-09T11:06:05.390Z</time>
      </trkpt>
      <trkpt lat="47.89731" lon="6.90577">
        <ele>963</ele>
        <time>2026-05-09T11:06:06.390Z</time>
      </trkpt>
      <trkpt lat="47.89732" lon="6.90576">
        <ele>962</ele>
        <time>2026-05-09T11:06:07.390Z</time>
      </trkpt>
      <trkpt lat="47.89732" lon="6.90576">
        <ele>963</ele>
        <time>2026-05-09T11:06:08.390Z</time>
      </trkpt>
      <trkpt lat="47.89731" lon="6.90576">
        <ele>963</ele>
        <time>2026-05-09T11:06:09.390Z</time>
      </trkpt>
      <trkpt lat="47.89731" lon="6.90577">
        <ele>963</ele>
        <time>2026-05-09T11:06:10.391Z</time>
      </trkpt>
      <trkpt lat="47.89731" lon="6.90578">
        <ele>964</ele>
        <time>2026-05-09T11:06:11.390Z</time>
      </trkpt>
      <trkpt lat="47.89731" lon="6.90578">
        <ele>964</ele>
        <time>2026-05-09T11:06:12.390Z</time>
      </trkpt>
      <trkpt lat="47.89731" lon="6.90578">
        <ele>964</ele>
        <time>2026-05-09T11:06:13.390Z</time>
      </trkpt>
      <trkpt lat="47.89731" lon="6.90578">
        <ele>964</ele>
        <time>2026-05-09T11:06:14.391Z</time>
      </trkpt>
      <trkpt lat="47.89732" lon="6.90578">
        <ele>965</ele>
        <time>2026-05-09T11:06:15.391Z</time>
      </trkpt>
      <trkpt lat="47.89732" lon="6.90579">
        <ele>965</ele>
        <time>2026-05-09T11:06:16.390Z</time>
      </trkpt>
      <trkpt lat="47.89732" lon="6.90579">
        <ele>965</ele>
        <time>2026-05-09T11:06:17.391Z</time>
      </trkpt>
      <trkpt lat="47.89733" lon="6.90579">
        <ele>965</ele>
        <time>2026-05-09T11:06:18.390Z</time>
      </trkpt>
      <trkpt lat="47.89733" lon="6.9058">
        <ele>966</ele>
        <time>2026-05-09T11:06:19.390Z</time>
      </trkpt>
      <trkpt lat="47.89738" lon="6.9058">
        <ele>966</ele>
        <time>2026-05-09T11:06:20.391Z</time>
      </trkpt>
      <trkpt lat="47.89739" lon="6.9058">
        <ele>966</ele>
        <time>2026-05-09T11:06:21.390Z</time>
      </trkpt>
      <trkpt lat="47.89739" lon="6.90581">
        <ele>967</ele>
        <time>2026-05-09T11:06:22.390Z</time>
      </trkpt>
      <trkpt lat="47.89739" lon="6.90581">
        <ele>967</ele>
        <time>2026-05-09T11:06:23.390Z</time>
      </trkpt>
      <trkpt lat="47.89739" lon="6.90582">
        <ele>968</ele>
        <time>2026-05-09T11:06:24.391Z</time>
      </trkpt>
      <trkpt lat="47.89739" lon="6.90582">
        <ele>969</ele>
        <time>2026-05-09T11:06:25.391Z</time>
      </trkpt>
      <trkpt lat="47.89738" lon="6.90582">
        <ele>969</ele>
        <time>2026-05-09T11:06:26.391Z</time>
      </trkpt>
      <trkpt lat="47.89738" lon="6.90582">
        <ele>970</ele>
        <time>2026-05-09T11:06:27.390Z</time>
      </trkpt>
      <trkpt lat="47.89738" lon="6.90581">
        <ele>970</ele>
        <time>2026-05-09T11:06:28.390Z</time>
      </trkpt>
      <trkpt lat="47.89738" lon="6.90581">
        <ele>971</ele>
        <time>2026-05-09T11:06:29.390Z</time>
      </trkpt>
      <trkpt lat="47.89739" lon="6.90582">
        <ele>971</ele>
        <time>2026-05-09T11:06:30.390Z</time>
      </trkpt>
      <trkpt lat="47.89739" lon="6.90582">
        <ele>971</ele>
        <time>2026-05-09T11:06:31.390Z</time>
      </trkpt>
      <trkpt lat="47.89738" lon="6.90583">
        <ele>972</ele>
        <time>2026-05-09T11:06:32.390Z</time>
      </trkpt>
      <trkpt lat="47.89737" lon="6.90584">
        <ele>972</ele>
        <time>2026-05-09T11:06:33.390Z</time>
      </trkpt>
      <trkpt lat="47.89737" lon="6.90585">
        <ele>973</ele>
        <time>2026-05-09T11:06:34.391Z</time>
      </trkpt>
      <trkpt lat="47.89738" lon="6.90586">
        <ele>974</ele>
        <time>2026-05-09T11:06:35.390Z</time>
      </trkpt>
      <trkpt lat="47.89737" lon="6.90588">
        <ele>975</ele>
        <time>2026-05-09T11:06:36.390Z</time>
      </trkpt>
      <trkpt lat="47.89736" lon="6.90589">
        <ele>976</ele>
        <time>2026-05-09T11:06:37.391Z</time>
      </trkpt>
      <trkpt lat="47.89736" lon="6.9059">
        <ele>977</ele>
        <time>2026-05-09T11:06:38.391Z</time>
      </trkpt>
      <trkpt lat="47.89737" lon="6.90592">
        <ele>978</ele>
        <time>2026-05-09T11:06:39.390Z</time>
      </trkpt>
      <trkpt lat="47.89737" lon="6.90593">
        <ele>979</ele>
        <time>2026-05-09T11:06:40.391Z</time>
      </trkpt>
      <trkpt lat="47.89736" lon="6.90595">
        <ele>980</ele>
        <time>2026-05-09T11:06:41.390Z</time>
      </trkpt>
      <trkpt lat="47.89735" lon="6.90596">
        <ele>981</ele>
        <time>2026-05-09T11:06:42.390Z</time>
      </trkpt>
      <trkpt lat="47.89736" lon="6.90598">
        <ele>982</ele>
        <time>2026-05-09T11:06:43.390Z</time>
      </trkpt>
      <trkpt lat="47.89736" lon="6.906">
        <ele>983</ele>
        <time>2026-05-09T11:06:44.391Z</time>
      </trkpt>
      <trkpt lat="47.89736" lon="6.90601">
        <ele>984</ele>
        <time>2026-05-09T11:06:45.390Z</time>
      </trkpt>
      <trkpt lat="47.89735" lon="6.90603">
        <ele>985</ele>
        <time>2026-05-09T11:06:46.391Z</time>
      </trkpt>
      <trkpt lat="47.89735" lon="6.90604">
        <ele>986</ele>
        <time>2026-05-09T11:06:47.390Z</time>
      </trkpt>
      <trkpt lat="47.89735" lon="6.90605">
        <ele>986</ele>
        <time>2026-05-09T11:06:48.391Z</time>
      </trkpt>
      <trkpt lat="47.89736" lon="6.90606">
        <ele>987</ele>
        <time>2026-05-09T11:06:49.391Z</time>
      </trkpt>
      <trkpt lat="47.89736" lon="6.90607">
        <ele>988</ele>
        <time>2026-05-09T11:06:50.390Z</time>
      </trkpt>
      <trkpt lat="47.89738" lon="6.90608">
        <ele>988</ele>
        <time>2026-05-09T11:06:51.390Z</time>
      </trkpt>
      <trkpt lat="47.89739" lon="6.90608">
        <ele>989</ele>
        <time>2026-05-09T11:06:52.390Z</time>
      </trkpt>
      <trkpt lat="47.8974" lon="6.90608">
        <ele>990</ele>
        <time>2026-05-09T11:06:53.390Z</time>
      </trkpt>
      <trkpt lat="47.89739" lon="6.90609">
        <ele>991</ele>
        <time>2026-05-09T11:06:54.390Z</time>
      </trkpt>
      <trkpt lat="47.8974" lon="6.9061">
        <ele>991</ele>
        <time>2026-05-09T11:06:55.390Z</time>
      </trkpt>
      <trkpt lat="47.8974" lon="6.90611">
        <ele>992</ele>
        <time>2026-05-09T11:06:56.391Z</time>
      </trkpt>
      <trkpt lat="47.8974" lon="6.90613">
        <ele>992</ele>
        <time>2026-05-09T11:06:57.390Z</time>
      </trkpt>
      <trkpt lat="47.8974" lon="6.90614">
        <ele>992</ele>
        <time>2026-05-09T11:06:58.390Z</time>
      </trkpt>
      <trkpt lat="47.8974" lon="6.90615">
        <ele>992</ele>
        <time>2026-05-09T11:06:59.390Z</time>
      </trkpt>
      <trkpt lat="47.89741" lon="6.90615">
        <ele>993</ele>
        <time>2026-05-09T11:07:00.390Z</time>
      </trkpt>
      <trkpt lat="47.89741" lon="6.90616">
        <ele>993</ele>
        <time>2026-05-09T11:07:01.390Z</time>
      </trkpt>
      <trkpt lat="47.89741" lon="6.90617">
        <ele>993</ele>
        <time>2026-05-09T11:07:02.390Z</time>
      </trkpt>
      <trkpt lat="47.8974" lon="6.90618">
        <ele>993</ele>
        <time>2026-05-09T11:07:03.391Z</time>
      </trkpt>
      <trkpt lat="47.89741" lon="6.90619">
        <ele>993</ele>
        <time>2026-05-09T11:07:04.390Z</time>
      </trkpt>
      <trkpt lat="47.8974" lon="6.90619">
        <ele>993</ele>
        <time>2026-05-09T11:07:05.391Z</time>
      </trkpt>
      <trkpt lat="47.8974" lon="6.9062">
        <ele>994</ele>
        <time>2026-05-09T11:07:06.390Z</time>
      </trkpt>
      <trkpt lat="47.89739" lon="6.90621">
        <ele>994</ele>
        <time>2026-05-09T11:07:07.390Z</time>
      </trkpt>
      <trkpt lat="47.89739" lon="6.90622">
        <ele>994</ele>
        <time>2026-05-09T11:07:08.390Z</time>
      </trkpt>
      <trkpt lat="47.89738" lon="6.90623">
        <ele>994</ele>
        <time>2026-05-09T11:07:09.390Z</time>
      </trkpt>
      <trkpt lat="47.89738" lon="6.90624">
        <ele>995</ele>
        <time>2026-05-09T11:07:10.390Z</time>
      </trkpt>
      <trkpt lat="47.89738" lon="6.90625">
        <ele>995</ele>
        <time>2026-05-09T11:07:11.390Z</time>
      </trkpt>
      <trkpt lat="47.89738" lon="6.90625">
        <ele>996</ele>
        <time>2026-05-09T11:07:12.390Z</time>
      </trkpt>
      <trkpt lat="47.89738" lon="6.90626">
        <ele>996</ele>
        <time>2026-05-09T11:07:13.391Z</time>
      </trkpt>
      <trkpt lat="47.89737" lon="6.90628">
        <ele>997</ele>
        <time>2026-05-09T11:07:14.391Z</time>
      </trkpt>
      <trkpt lat="47.89737" lon="6.90629">
        <ele>997</ele>
        <time>2026-05-09T11:07:15.390Z</time>
      </trkpt>
      <trkpt lat="47.89738" lon="6.9063">
        <ele>998</ele>
        <time>2026-05-09T11:07:16.390Z</time>
      </trkpt>
      <trkpt lat="47.89738" lon="6.90631">
        <ele>998</ele>
        <time>2026-05-09T11:07:17.391Z</time>
      </trkpt>
      <trkpt lat="47.89738" lon="6.90632">
        <ele>999</ele>
        <time>2026-05-09T11:07:18.390Z</time>
      </trkpt>
      <trkpt lat="47.89738" lon="6.90634">
        <ele>999</ele>
        <time>2026-05-09T11:07:19.391Z</time>
      </trkpt>
      <trkpt lat="47.89738" lon="6.90635">
        <ele>999</ele>
        <time>2026-05-09T11:07:20.390Z</time>
      </trkpt>
      <trkpt lat="47.89738" lon="6.90637">
        <ele>1000</ele>
        <time>2026-05-09T11:07:21.390Z</time>
      </trkpt>
      <trkpt lat="47.89738" lon="6.90638">
        <ele>1001</ele>
        <time>2026-05-09T11:07:22.390Z</time>
      </trkpt>
      <trkpt lat="47.89738" lon="6.90641">
        <ele>1001</ele>
        <time>2026-05-09T11:07:23.390Z</time>
      </trkpt>
      <trkpt lat="47.89738" lon="6.90643">
        <ele>1002</ele>
        <time>2026-05-09T11:07:24.390Z</time>
      </trkpt>
      <trkpt lat="47.89738" lon="6.90645">
        <ele>1002</ele>
        <time>2026-05-09T11:07:25.390Z</time>
      </trkpt>
      <trkpt lat="47.89738" lon="6.90646">
        <ele>1003</ele>
        <time>2026-05-09T11:07:26.391Z</time>
      </trkpt>
      <trkpt lat="47.89738" lon="6.90648">
        <ele>1004</ele>
        <time>2026-05-09T11:07:27.390Z</time>
      </trkpt>
      <trkpt lat="47.89739" lon="6.90649">
        <ele>1005</ele>
        <time>2026-05-09T11:07:28.390Z</time>
      </trkpt>
      <trkpt lat="47.89738" lon="6.9065">
        <ele>1005</ele>
        <time>2026-05-09T11:07:29.391Z</time>
      </trkpt>
      <trkpt lat="47.89738" lon="6.90652">
        <ele>1006</ele>
        <time>2026-05-09T11:07:30.390Z</time>
      </trkpt>
      <trkpt lat="47.89738" lon="6.90653">
        <ele>1006</ele>
        <time>2026-05-09T11:07:31.391Z</time>
      </trkpt>
      <trkpt lat="47.89737" lon="6.90655">
        <ele>1007</ele>
        <time>2026-05-09T11:07:32.390Z</time>
      </trkpt>
      <trkpt lat="47.89736" lon="6.90657">
        <ele>1008</ele>
        <time>2026-05-09T11:07:33.390Z</time>
      </trkpt>
      <trkpt lat="47.89735" lon="6.90659">
        <ele>1008</ele>
        <time>2026-05-09T11:07:34.390Z</time>
      </trkpt>
      <trkpt lat="47.89735" lon="6.9066">
        <ele>1008</ele>
        <time>2026-05-09T11:07:35.390Z</time>
      </trkpt>
      <trkpt lat="47.89735" lon="6.90661">
        <ele>1009</ele>
        <time>2026-05-09T11:07:36.390Z</time>
      </trkpt>
      <trkpt lat="47.89736" lon="6.90663">
        <ele>1009</ele>
        <time>2026-05-09T11:07:37.390Z</time>
      </trkpt>
      <trkpt lat="47.89737" lon="6.90664">
        <ele>1009</ele>
        <time>2026-05-09T11:07:38.391Z</time>
      </trkpt>
      <trkpt lat="47.89737" lon="6.90665">
        <ele>1009</ele>
        <time>2026-05-09T11:07:39.390Z</time>
      </trkpt>
      <trkpt lat="47.89738" lon="6.90666">
        <ele>1009</ele>
        <time>2026-05-09T11:07:40.390Z</time>
      </trkpt>
      <trkpt lat="47.89738" lon="6.90668">
        <ele>1009</ele>
        <time>2026-05-09T11:07:41.390Z</time>
      </trkpt>
      <trkpt lat="47.89738" lon="6.90669">
        <ele>1009</ele>
        <time>2026-05-09T11:07:42.391Z</time>
      </trkpt>
      <trkpt lat="47.89738" lon="6.9067">
        <ele>1009</ele>
        <time>2026-05-09T11:07:43.391Z</time>
      </trkpt>
      <trkpt lat="47.89738" lon="6.90671">
        <ele>1009</ele>
        <time>2026-05-09T11:07:44.391Z</time>
      </trkpt>
      <trkpt lat="47.89738" lon="6.90672">
        <ele>1009</ele>
        <time>2026-05-09T11:07:45.391Z</time>
      </trkpt>
      <trkpt lat="47.89738" lon="6.90673">
        <ele>1009</ele>
        <time>2026-05-09T11:07:46.390Z</time>
      </trkpt>
      <trkpt lat="47.89738" lon="6.90674">
        <ele>1010</ele>
        <time>2026-05-09T11:07:47.391Z</time>
      </trkpt>
      <trkpt lat="47.89738" lon="6.90675">
        <ele>1010</ele>
        <time>2026-05-09T11:07:48.391Z</time>
      </trkpt>
      <trkpt lat="47.89738" lon="6.90677">
        <ele>1010</ele>
        <time>2026-05-09T11:07:49.390Z</time>
      </trkpt>
      <trkpt lat="47.89739" lon="6.90678">
        <ele>1010</ele>
        <time>2026-05-09T11:07:50.390Z</time>
      </trkpt>
      <trkpt lat="47.89739" lon="6.90679">
        <ele>1010</ele>
        <time>2026-05-09T11:07:51.391Z</time>
      </trkpt>
      <trkpt lat="47.89738" lon="6.90681">
        <ele>1011</ele>
        <time>2026-05-09T11:07:52.390Z</time>
      </trkpt>
      <trkpt lat="47.89739" lon="6.90682">
        <ele>1011</ele>
        <time>2026-05-09T11:07:53.390Z</time>
      </trkpt>
      <trkpt lat="47.89739" lon="6.90684">
        <ele>1011</ele>
        <time>2026-05-09T11:07:54.390Z</time>
      </trkpt>
      <trkpt lat="47.89739" lon="6.90685">
        <ele>1011</ele>
        <time>2026-05-09T11:07:55.391Z</time>
      </trkpt>
      <trkpt lat="47.89739" lon="6.90687">
        <ele>1011</ele>
        <time>2026-05-09T11:07:56.390Z</time>
      </trkpt>
      <trkpt lat="47.8974" lon="6.90688">
        <ele>1011</ele>
        <time>2026-05-09T11:07:57.390Z</time>
      </trkpt>
      <trkpt lat="47.89741" lon="6.9069">
        <ele>1011</ele>
        <time>2026-05-09T11:07:58.390Z</time>
      </trkpt>
      <trkpt lat="47.89743" lon="6.90691">
        <ele>1011</ele>
        <time>2026-05-09T11:07:59.390Z</time>
      </trkpt>
      <trkpt lat="47.89744" lon="6.90693">
        <ele>1011</ele>
        <time>2026-05-09T11:08:00.390Z</time>
      </trkpt>
      <trkpt lat="47.89746" lon="6.90694">
        <ele>1011</ele>
        <time>2026-05-09T11:08:01.390Z</time>
      </trkpt>
      <trkpt lat="47.89746" lon="6.90695">
        <ele>1011</ele>
        <time>2026-05-09T11:08:02.390Z</time>
      </trkpt>
      <trkpt lat="47.89746" lon="6.90697">
        <ele>1011</ele>
        <time>2026-05-09T11:08:03.390Z</time>
      </trkpt>
      <trkpt lat="47.89747" lon="6.90698">
        <ele>1011</ele>
        <time>2026-05-09T11:08:04.391Z</time>
      </trkpt>
      <trkpt lat="47.89747" lon="6.90699">
        <ele>1011</ele>
        <time>2026-05-09T11:08:05.391Z</time>
      </trkpt>
      <trkpt lat="47.89746" lon="6.90701">
        <ele>1011</ele>
        <time>2026-05-09T11:08:06.390Z</time>
      </trkpt>
      <trkpt lat="47.89746" lon="6.90703">
        <ele>1011</ele>
        <time>2026-05-09T11:08:07.390Z</time>
      </trkpt>
      <trkpt lat="47.89746" lon="6.90704">
        <ele>1012</ele>
        <time>2026-05-09T11:08:08.390Z</time>
      </trkpt>
      <trkpt lat="47.89746" lon="6.90705">
        <ele>1012</ele>
        <time>2026-05-09T11:08:09.390Z</time>
      </trkpt>
      <trkpt lat="47.89746" lon="6.90706">
        <ele>1013</ele>
        <time>2026-05-09T11:08:10.390Z</time>
      </trkpt>
      <trkpt lat="47.89746" lon="6.90707">
        <ele>1013</ele>
        <time>2026-05-09T11:08:11.390Z</time>
      </trkpt>
      <trkpt lat="47.89746" lon="6.90708">
        <ele>1013</ele>
        <time>2026-05-09T11:08:12.390Z</time>
      </trkpt>
      <trkpt lat="47.89746" lon="6.90709">
        <ele>1013</ele>
        <time>2026-05-09T11:08:13.390Z</time>
      </trkpt>
      <trkpt lat="47.89746" lon="6.9071">
        <ele>1013</ele>
        <time>2026-05-09T11:08:14.390Z</time>
      </trkpt>
      <trkpt lat="47.89746" lon="6.9071">
        <ele>1014</ele>
        <time>2026-05-09T11:08:15.391Z</time>
      </trkpt>
      <trkpt lat="47.89745" lon="6.90711">
        <ele>1014</ele>
        <time>2026-05-09T11:08:16.390Z</time>
      </trkpt>
      <trkpt lat="47.89746" lon="6.90712">
        <ele>1014</ele>
        <time>2026-05-09T11:08:17.390Z</time>
      </trkpt>
      <trkpt lat="47.89746" lon="6.90712">
        <ele>1013</ele>
        <time>2026-05-09T11:08:18.390Z</time>
      </trkpt>
      <trkpt lat="47.89747" lon="6.90713">
        <ele>1013</ele>
        <time>2026-05-09T11:08:19.390Z</time>
      </trkpt>
      <trkpt lat="47.89747" lon="6.90715">
        <ele>1013</ele>
        <time>2026-05-09T11:08:20.390Z</time>
      </trkpt>
      <trkpt lat="47.89746" lon="6.90716">
        <ele>1013</ele>
        <time>2026-05-09T11:08:21.390Z</time>
      </trkpt>
      <trkpt lat="47.89746" lon="6.90718">
        <ele>1013</ele>
        <time>2026-05-09T11:08:22.390Z</time>
      </trkpt>
      <trkpt lat="47.89746" lon="6.9072">
        <ele>1013</ele>
        <time>2026-05-09T11:08:23.390Z</time>
      </trkpt>
      <trkpt lat="47.89747" lon="6.90721">
        <ele>1013</ele>
        <time>2026-05-09T11:08:24.390Z</time>
      </trkpt>
      <trkpt lat="47.89747" lon="6.90722">
        <ele>1013</ele>
        <time>2026-05-09T11:08:25.390Z</time>
      </trkpt>
      <trkpt lat="47.89748" lon="6.90724">
        <ele>1013</ele>
        <time>2026-05-09T11:08:26.390Z</time>
      </trkpt>
      <trkpt lat="47.89748" lon="6.90725">
        <ele>1013</ele>
        <time>2026-05-09T11:08:27.391Z</time>
      </trkpt>
      <trkpt lat="47.89748" lon="6.90727">
        <ele>1013</ele>
        <time>2026-05-09T11:08:28.391Z</time>
      </trkpt>
      <trkpt lat="47.89748" lon="6.90729">
        <ele>1014</ele>
        <time>2026-05-09T11:08:29.391Z</time>
      </trkpt>
      <trkpt lat="47.89748" lon="6.9073">
        <ele>1014</ele>
        <time>2026-05-09T11:08:30.390Z</time>
      </trkpt>
      <trkpt lat="47.89748" lon="6.90731">
        <ele>1014</ele>
        <time>2026-05-09T11:08:31.390Z</time>
      </trkpt>
      <trkpt lat="47.89748" lon="6.90732">
        <ele>1014</ele>
        <time>2026-05-09T11:08:32.391Z</time>
      </trkpt>
      <trkpt lat="47.89748" lon="6.90733">
        <ele>1014</ele>
        <time>2026-05-09T11:08:33.390Z</time>
      </trkpt>
      <trkpt lat="47.89748" lon="6.90734">
        <ele>1014</ele>
        <time>2026-05-09T11:08:34.391Z</time>
      </trkpt>
      <trkpt lat="47.89748" lon="6.90736">
        <ele>1014</ele>
        <time>2026-05-09T11:08:35.390Z</time>
      </trkpt>
      <trkpt lat="47.89748" lon="6.90737">
        <ele>1014</ele>
        <time>2026-05-09T11:08:36.390Z</time>
      </trkpt>
      <trkpt lat="47.89749" lon="6.90737">
        <ele>1014</ele>
        <time>2026-05-09T11:08:37.391Z</time>
      </trkpt>
      <trkpt lat="47.89751" lon="6.90739">
        <ele>1014</ele>
        <time>2026-05-09T11:08:38.390Z</time>
      </trkpt>
      <trkpt lat="47.89752" lon="6.90741">
        <ele>1014</ele>
        <time>2026-05-09T11:08:39.390Z</time>
      </trkpt>
      <trkpt lat="47.89752" lon="6.90743">
        <ele>1014</ele>
        <time>2026-05-09T11:08:40.390Z</time>
      </trkpt>
      <trkpt lat="47.89752" lon="6.90745">
        <ele>1015</ele>
        <time>2026-05-09T11:08:41.390Z</time>
      </trkpt>
      <trkpt lat="47.89752" lon="6.90746">
        <ele>1015</ele>
        <time>2026-05-09T11:08:42.390Z</time>
      </trkpt>
      <trkpt lat="47.89753" lon="6.90747">
        <ele>1016</ele>
        <time>2026-05-09T11:08:43.390Z</time>
      </trkpt>
      <trkpt lat="47.89753" lon="6.90748">
        <ele>1016</ele>
        <time>2026-05-09T11:08:44.390Z</time>
      </trkpt>
      <trkpt lat="47.89753" lon="6.90749">
        <ele>1016</ele>
        <time>2026-05-09T11:08:45.390Z</time>
      </trkpt>
      <trkpt lat="47.89753" lon="6.9075">
        <ele>1017</ele>
        <time>2026-05-09T11:08:46.391Z</time>
      </trkpt>
      <trkpt lat="47.89753" lon="6.90751">
        <ele>1017</ele>
        <time>2026-05-09T11:08:47.390Z</time>
      </trkpt>
      <trkpt lat="47.89752" lon="6.90752">
        <ele>1018</ele>
        <time>2026-05-09T11:08:48.390Z</time>
      </trkpt>
      <trkpt lat="47.89751" lon="6.90753">
        <ele>1018</ele>
        <time>2026-05-09T11:08:49.390Z</time>
      </trkpt>
      <trkpt lat="47.8975" lon="6.90754">
        <ele>1018</ele>
        <time>2026-05-09T11:08:50.390Z</time>
      </trkpt>
      <trkpt lat="47.89749" lon="6.90755">
        <ele>1019</ele>
        <time>2026-05-09T11:08:51.390Z</time>
      </trkpt>
      <trkpt lat="47.89749" lon="6.90756">
        <ele>1019</ele>
        <time>2026-05-09T11:08:52.391Z</time>
      </trkpt>
      <trkpt lat="47.89749" lon="6.90757">
        <ele>1020</ele>
        <time>2026-05-09T11:08:53.391Z</time>
      </trkpt>
      <trkpt lat="47.89749" lon="6.90758">
        <ele>1020</ele>
        <time>2026-05-09T11:08:54.390Z</time>
      </trkpt>
      <trkpt lat="47.89749" lon="6.90758">
        <ele>1021</ele>
        <time>2026-05-09T11:08:55.390Z</time>
      </trkpt>
      <trkpt lat="47.8975" lon="6.90758">
        <ele>1022</ele>
        <time>2026-05-09T11:08:56.391Z</time>
      </trkpt>
      <trkpt lat="47.8975" lon="6.90759">
        <ele>1022</ele>
        <time>2026-05-09T11:08:57.391Z</time>
      </trkpt>
      <trkpt lat="47.89751" lon="6.90759">
        <ele>1023</ele>
        <time>2026-05-09T11:08:58.390Z</time>
      </trkpt>
      <trkpt lat="47.8975" lon="6.9076">
        <ele>1023</ele>
        <time>2026-05-09T11:08:59.390Z</time>
      </trkpt>
      <trkpt lat="47.8975" lon="6.90761">
        <ele>1023</ele>
        <time>2026-05-09T11:09:00.390Z</time>
      </trkpt>
      <trkpt lat="47.8975" lon="6.90761">
        <ele>1023</ele>
        <time>2026-05-09T11:09:01.390Z</time>
      </trkpt>
      <trkpt lat="47.8975" lon="6.90761">
        <ele>1023</ele>
        <time>2026-05-09T11:09:02.390Z</time>
      </trkpt>
      <trkpt lat="47.89749" lon="6.90762">
        <ele>1023</ele>
        <time>2026-05-09T11:09:03.391Z</time>
      </trkpt>
      <trkpt lat="47.8975" lon="6.90763">
        <ele>1023</ele>
        <time>2026-05-09T11:09:04.390Z</time>
      </trkpt>
      <trkpt lat="47.89751" lon="6.90764">
        <ele>1023</ele>
        <time>2026-05-09T11:09:05.391Z</time>
      </trkpt>
      <trkpt lat="47.89752" lon="6.90766">
        <ele>1023</ele>
        <time>2026-05-09T11:09:06.390Z</time>
      </trkpt>
      <trkpt lat="47.89752" lon="6.90767">
        <ele>1024</ele>
        <time>2026-05-09T11:09:07.390Z</time>
      </trkpt>
      <trkpt lat="47.89753" lon="6.90769">
        <ele>1024</ele>
        <time>2026-05-09T11:09:08.390Z</time>
      </trkpt>
      <trkpt lat="47.89753" lon="6.90771">
        <ele>1024</ele>
        <time>2026-05-09T11:09:09.390Z</time>
      </trkpt>
      <trkpt lat="47.89753" lon="6.90772">
        <ele>1025</ele>
        <time>2026-05-09T11:09:10.390Z</time>
      </trkpt>
      <trkpt lat="47.89753" lon="6.90773">
        <ele>1025</ele>
        <time>2026-05-09T11:09:11.391Z</time>
      </trkpt>
      <trkpt lat="47.89753" lon="6.90774">
        <ele>1026</ele>
        <time>2026-05-09T11:09:12.391Z</time>
      </trkpt>
      <trkpt lat="47.89752" lon="6.90776">
        <ele>1026</ele>
        <time>2026-05-09T11:09:13.391Z</time>
      </trkpt>
      <trkpt lat="47.89752" lon="6.90777">
        <ele>1027</ele>
        <time>2026-05-09T11:09:14.391Z</time>
      </trkpt>
      <trkpt lat="47.89753" lon="6.90779">
        <ele>1027</ele>
        <time>2026-05-09T11:09:15.391Z</time>
      </trkpt>
      <trkpt lat="47.89752" lon="6.9078">
        <ele>1028</ele>
        <time>2026-05-09T11:09:16.390Z</time>
      </trkpt>
      <trkpt lat="47.89752" lon="6.90781">
        <ele>1028</ele>
        <time>2026-05-09T11:09:17.390Z</time>
      </trkpt>
      <trkpt lat="47.89752" lon="6.90781">
        <ele>1029</ele>
        <time>2026-05-09T11:09:18.390Z</time>
      </trkpt>
      <trkpt lat="47.89752" lon="6.90781">
        <ele>1029</ele>
        <time>2026-05-09T11:09:19.390Z</time>
      </trkpt>
      <trkpt lat="47.89753" lon="6.90782">
        <ele>1029</ele>
        <time>2026-05-09T11:09:20.390Z</time>
      </trkpt>
      <trkpt lat="47.89754" lon="6.90783">
        <ele>1030</ele>
        <time>2026-05-09T11:09:21.390Z</time>
      </trkpt>
      <trkpt lat="47.89754" lon="6.90785">
        <ele>1030</ele>
        <time>2026-05-09T11:09:22.390Z</time>
      </trkpt>
      <trkpt lat="47.89755" lon="6.90786">
        <ele>1029</ele>
        <time>2026-05-09T11:09:23.390Z</time>
      </trkpt>
      <trkpt lat="47.89756" lon="6.90787">
        <ele>1029</ele>
        <time>2026-05-09T11:09:24.390Z</time>
      </trkpt>
      <trkpt lat="47.89757" lon="6.90788">
        <ele>1029</ele>
        <time>2026-05-09T11:09:25.390Z</time>
      </trkpt>
      <trkpt lat="47.89758" lon="6.9079">
        <ele>1028</ele>
        <time>2026-05-09T11:09:26.390Z</time>
      </trkpt>
      <trkpt lat="47.89758" lon="6.90791">
        <ele>1027</ele>
        <time>2026-05-09T11:09:27.391Z</time>
      </trkpt>
      <trkpt lat="47.89758" lon="6.90793">
        <ele>1027</ele>
        <time>2026-05-09T11:09:28.390Z</time>
      </trkpt>
      <trkpt lat="47.89758" lon="6.90794">
        <ele>1026</ele>
        <time>2026-05-09T11:09:29.391Z</time>
      </trkpt>
      <trkpt lat="47.89758" lon="6.90794">
        <ele>1026</ele>
        <time>2026-05-09T11:09:30.391Z</time>
      </trkpt>
      <trkpt lat="47.89758" lon="6.90795">
        <ele>1026</ele>
        <time>2026-05-09T11:09:31.390Z</time>
      </trkpt>
      <trkpt lat="47.89758" lon="6.90796">
        <ele>1026</ele>
        <time>2026-05-09T11:09:32.391Z</time>
      </trkpt>
      <trkpt lat="47.89758" lon="6.90797">
        <ele>1026</ele>
        <time>2026-05-09T11:09:33.391Z</time>
      </trkpt>
      <trkpt lat="47.89758" lon="6.90798">
        <ele>1026</ele>
        <time>2026-05-09T11:09:34.390Z</time>
      </trkpt>
      <trkpt lat="47.89757" lon="6.90799">
        <ele>1026</ele>
        <time>2026-05-09T11:09:35.391Z</time>
      </trkpt>
      <trkpt lat="47.89758" lon="6.908">
        <ele>1026</ele>
        <time>2026-05-09T11:09:36.390Z</time>
      </trkpt>
      <trkpt lat="47.89758" lon="6.90801">
        <ele>1026</ele>
        <time>2026-05-09T11:09:37.391Z</time>
      </trkpt>
      <trkpt lat="47.89758" lon="6.90802">
        <ele>1026</ele>
        <time>2026-05-09T11:09:38.391Z</time>
      </trkpt>
      <trkpt lat="47.89758" lon="6.90803">
        <ele>1026</ele>
        <time>2026-05-09T11:09:39.391Z</time>
      </trkpt>
      <trkpt lat="47.89758" lon="6.90804">
        <ele>1026</ele>
        <time>2026-05-09T11:09:40.391Z</time>
      </trkpt>
      <trkpt lat="47.89758" lon="6.90805">
        <ele>1026</ele>
        <time>2026-05-09T11:09:41.391Z</time>
      </trkpt>
      <trkpt lat="47.89758" lon="6.90806">
        <ele>1026</ele>
        <time>2026-05-09T11:09:42.391Z</time>
      </trkpt>
      <trkpt lat="47.89759" lon="6.90807">
        <ele>1027</ele>
        <time>2026-05-09T11:09:43.391Z</time>
      </trkpt>
      <trkpt lat="47.89759" lon="6.90808">
        <ele>1027</ele>
        <time>2026-05-09T11:09:44.390Z</time>
      </trkpt>
      <trkpt lat="47.8976" lon="6.9081">
        <ele>1027</ele>
        <time>2026-05-09T11:09:45.390Z</time>
      </trkpt>
      <trkpt lat="47.8976" lon="6.90811">
        <ele>1027</ele>
        <time>2026-05-09T11:09:46.390Z</time>
      </trkpt>
      <trkpt lat="47.89761" lon="6.90812">
        <ele>1027</ele>
        <time>2026-05-09T11:09:47.391Z</time>
      </trkpt>
      <trkpt lat="47.89763" lon="6.90813">
        <ele>1027</ele>
        <time>2026-05-09T11:09:48.390Z</time>
      </trkpt>
      <trkpt lat="47.89764" lon="6.90814">
        <ele>1028</ele>
        <time>2026-05-09T11:09:49.391Z</time>
      </trkpt>
      <trkpt lat="47.89765" lon="6.90815">
        <ele>1028</ele>
        <time>2026-05-09T11:09:50.390Z</time>
      </trkpt>
      <trkpt lat="47.89766" lon="6.90816">
        <ele>1028</ele>
        <time>2026-05-09T11:09:51.390Z</time>
      </trkpt>
      <trkpt lat="47.89768" lon="6.90816">
        <ele>1028</ele>
        <time>2026-05-09T11:09:52.390Z</time>
      </trkpt>
      <trkpt lat="47.89769" lon="6.90817">
        <ele>1028</ele>
        <time>2026-05-09T11:09:53.391Z</time>
      </trkpt>
      <trkpt lat="47.8977" lon="6.90818">
        <ele>1028</ele>
        <time>2026-05-09T11:09:54.390Z</time>
      </trkpt>
      <trkpt lat="47.89771" lon="6.9082">
        <ele>1028</ele>
        <time>2026-05-09T11:09:55.390Z</time>
      </trkpt>
      <trkpt lat="47.89772" lon="6.90822">
        <ele>1028</ele>
        <time>2026-05-09T11:09:56.390Z</time>
      </trkpt>
      <trkpt lat="47.89773" lon="6.90823">
        <ele>1028</ele>
        <time>2026-05-09T11:09:57.391Z</time>
      </trkpt>
      <trkpt lat="47.89774" lon="6.90824">
        <ele>1028</ele>
        <time>2026-05-09T11:09:58.390Z</time>
      </trkpt>
      <trkpt lat="47.89775" lon="6.90825">
        <ele>1028</ele>
        <time>2026-05-09T11:09:59.390Z</time>
      </trkpt>
      <trkpt lat="47.89776" lon="6.90826">
        <ele>1028</ele>
        <time>2026-05-09T11:10:00.390Z</time>
      </trkpt>
      <trkpt lat="47.89777" lon="6.90827">
        <ele>1028</ele>
        <time>2026-05-09T11:10:01.390Z</time>
      </trkpt>
      <trkpt lat="47.89777" lon="6.90828">
        <ele>1028</ele>
        <time>2026-05-09T11:10:02.390Z</time>
      </trkpt>
      <trkpt lat="47.89777" lon="6.90829">
        <ele>1028</ele>
        <time>2026-05-09T11:10:03.390Z</time>
      </trkpt>
      <trkpt lat="47.89779" lon="6.90829">
        <ele>1028</ele>
        <time>2026-05-09T11:10:04.390Z</time>
      </trkpt>
      <trkpt lat="47.8978" lon="6.90829">
        <ele>1028</ele>
        <time>2026-05-09T11:10:05.390Z</time>
      </trkpt>
      <trkpt lat="47.89781" lon="6.9083">
        <ele>1028</ele>
        <time>2026-05-09T11:10:06.390Z</time>
      </trkpt>
      <trkpt lat="47.89782" lon="6.90831">
        <ele>1028</ele>
        <time>2026-05-09T11:10:07.391Z</time>
      </trkpt>
      <trkpt lat="47.89783" lon="6.90832">
        <ele>1028</ele>
        <time>2026-05-09T11:10:08.391Z</time>
      </trkpt>
      <trkpt lat="47.89783" lon="6.90833">
        <ele>1029</ele>
        <time>2026-05-09T11:10:09.390Z</time>
      </trkpt>
      <trkpt lat="47.89784" lon="6.90835">
        <ele>1029</ele>
        <time>2026-05-09T11:10:10.390Z</time>
      </trkpt>
      <trkpt lat="47.89784" lon="6.90836">
        <ele>1029</ele>
        <time>2026-05-09T11:10:11.390Z</time>
      </trkpt>
      <trkpt lat="47.89784" lon="6.90837">
        <ele>1030</ele>
        <time>2026-05-09T11:10:12.390Z</time>
      </trkpt>
      <trkpt lat="47.89784" lon="6.90838">
        <ele>1030</ele>
        <time>2026-05-09T11:10:13.391Z</time>
      </trkpt>
      <trkpt lat="47.89784" lon="6.90839">
        <ele>1030</ele>
        <time>2026-05-09T11:10:14.390Z</time>
      </trkpt>
      <trkpt lat="47.89784" lon="6.90841">
        <ele>1030</ele>
        <time>2026-05-09T11:10:15.390Z</time>
      </trkpt>
      <trkpt lat="47.89784" lon="6.90842">
        <ele>1030</ele>
        <time>2026-05-09T11:10:16.390Z</time>
      </trkpt>
      <trkpt lat="47.89784" lon="6.90842">
        <ele>1030</ele>
        <time>2026-05-09T11:10:17.390Z</time>
      </trkpt>
      <trkpt lat="47.89784" lon="6.90842">
        <ele>1030</ele>
        <time>2026-05-09T11:10:18.390Z</time>
      </trkpt>
      <trkpt lat="47.89785" lon="6.90843">
        <ele>1030</ele>
        <time>2026-05-09T11:10:19.391Z</time>
      </trkpt>
      <trkpt lat="47.89786" lon="6.90843">
        <ele>1030</ele>
        <time>2026-05-09T11:10:20.391Z</time>
      </trkpt>
      <trkpt lat="47.89787" lon="6.90844">
        <ele>1030</ele>
        <time>2026-05-09T11:10:21.390Z</time>
      </trkpt>
      <trkpt lat="47.89788" lon="6.90846">
        <ele>1030</ele>
        <time>2026-05-09T11:10:22.390Z</time>
      </trkpt>
      <trkpt lat="47.89789" lon="6.90847">
        <ele>1030</ele>
        <time>2026-05-09T11:10:23.390Z</time>
      </trkpt>
      <trkpt lat="47.8979" lon="6.90848">
        <ele>1030</ele>
        <time>2026-05-09T11:10:24.390Z</time>
      </trkpt>
      <trkpt lat="47.8979" lon="6.9085">
        <ele>1030</ele>
        <time>2026-05-09T11:10:25.390Z</time>
      </trkpt>
      <trkpt lat="47.89789" lon="6.90852">
        <ele>1030</ele>
        <time>2026-05-09T11:10:26.390Z</time>
      </trkpt>
      <trkpt lat="47.89789" lon="6.90854">
        <ele>1030</ele>
        <time>2026-05-09T11:10:27.391Z</time>
      </trkpt>
      <trkpt lat="47.89789" lon="6.90856">
        <ele>1030</ele>
        <time>2026-05-09T11:10:28.390Z</time>
      </trkpt>
      <trkpt lat="47.89788" lon="6.90857">
        <ele>1030</ele>
        <time>2026-05-09T11:10:29.391Z</time>
      </trkpt>
      <trkpt lat="47.89789" lon="6.90858">
        <ele>1031</ele>
        <time>2026-05-09T11:10:30.390Z</time>
      </trkpt>
      <trkpt lat="47.8979" lon="6.90858">
        <ele>1031</ele>
        <time>2026-05-09T11:10:31.391Z</time>
      </trkpt>
      <trkpt lat="47.8979" lon="6.90859">
        <ele>1031</ele>
        <time>2026-05-09T11:10:32.391Z</time>
      </trkpt>
      <trkpt lat="47.89791" lon="6.9086">
        <ele>1031</ele>
        <time>2026-05-09T11:10:33.390Z</time>
      </trkpt>
      <trkpt lat="47.89791" lon="6.90861">
        <ele>1032</ele>
        <time>2026-05-09T11:10:34.390Z</time>
      </trkpt>
      <trkpt lat="47.89791" lon="6.90862">
        <ele>1032</ele>
        <time>2026-05-09T11:10:35.390Z</time>
      </trkpt>
      <trkpt lat="47.89791" lon="6.90863">
        <ele>1032</ele>
        <time>2026-05-09T11:10:36.390Z</time>
      </trkpt>
      <trkpt lat="47.89791" lon="6.90865">
        <ele>1032</ele>
        <time>2026-05-09T11:10:37.390Z</time>
      </trkpt>
      <trkpt lat="47.89792" lon="6.90866">
        <ele>1033</ele>
        <time>2026-05-09T11:10:38.391Z</time>
      </trkpt>
      <trkpt lat="47.89792" lon="6.90867">
        <ele>1033</ele>
        <time>2026-05-09T11:10:39.390Z</time>
      </trkpt>
      <trkpt lat="47.89791" lon="6.90868">
        <ele>1033</ele>
        <time>2026-05-09T11:10:40.391Z</time>
      </trkpt>
      <trkpt lat="47.8979" lon="6.90869">
        <ele>1034</ele>
        <time>2026-05-09T11:10:41.390Z</time>
      </trkpt>
      <trkpt lat="47.8979" lon="6.9087">
        <ele>1035</ele>
        <time>2026-05-09T11:10:42.390Z</time>
      </trkpt>
      <trkpt lat="47.8979" lon="6.90871">
        <ele>1035</ele>
        <time>2026-05-09T11:10:43.390Z</time>
      </trkpt>
      <trkpt lat="47.89789" lon="6.90872">
        <ele>1035</ele>
        <time>2026-05-09T11:10:44.390Z</time>
      </trkpt>
      <trkpt lat="47.89789" lon="6.90872">
        <ele>1036</ele>
        <time>2026-05-09T11:10:45.390Z</time>
      </trkpt>
      <trkpt lat="47.89789" lon="6.90873">
        <ele>1036</ele>
        <time>2026-05-09T11:10:46.391Z</time>
      </trkpt>
      <trkpt lat="47.89788" lon="6.90873">
        <ele>1036</ele>
        <time>2026-05-09T11:10:47.390Z</time>
      </trkpt>
      <trkpt lat="47.89788" lon="6.90873">
        <ele>1036</ele>
        <time>2026-05-09T11:10:48.390Z</time>
      </trkpt>
      <trkpt lat="47.89788" lon="6.90874">
        <ele>1036</ele>
        <time>2026-05-09T11:10:49.390Z</time>
      </trkpt>
      <trkpt lat="47.89788" lon="6.90875">
        <ele>1036</ele>
        <time>2026-05-09T11:10:50.390Z</time>
      </trkpt>
      <trkpt lat="47.89788" lon="6.90876">
        <ele>1037</ele>
        <time>2026-05-09T11:10:51.390Z</time>
      </trkpt>
      <trkpt lat="47.89788" lon="6.90876">
        <ele>1037</ele>
        <time>2026-05-09T11:10:52.390Z</time>
      </trkpt>
      <trkpt lat="47.89788" lon="6.90877">
        <ele>1037</ele>
        <time>2026-05-09T11:10:53.390Z</time>
      </trkpt>
      <trkpt lat="47.89788" lon="6.90878">
        <ele>1038</ele>
        <time>2026-05-09T11:10:54.390Z</time>
      </trkpt>
      <trkpt lat="47.89788" lon="6.90879">
        <ele>1038</ele>
        <time>2026-05-09T11:10:55.390Z</time>
      </trkpt>
      <trkpt lat="47.89788" lon="6.90881">
        <ele>1038</ele>
        <time>2026-05-09T11:10:56.390Z</time>
      </trkpt>
      <trkpt lat="47.89788" lon="6.90882">
        <ele>1038</ele>
        <time>2026-05-09T11:10:57.391Z</time>
      </trkpt>
      <trkpt lat="47.89789" lon="6.90883">
        <ele>1038</ele>
        <time>2026-05-09T11:10:58.391Z</time>
      </trkpt>
      <trkpt lat="47.89789" lon="6.90884">
        <ele>1038</ele>
        <time>2026-05-09T11:10:59.391Z</time>
      </trkpt>
      <trkpt lat="47.89789" lon="6.90886">
        <ele>1038</ele>
        <time>2026-05-09T11:11:00.390Z</time>
      </trkpt>
      <trkpt lat="47.8979" lon="6.90887">
        <ele>1037</ele>
        <time>2026-05-09T11:11:01.391Z</time>
      </trkpt>
      <trkpt lat="47.89791" lon="6.90888">
        <ele>1037</ele>
        <time>2026-05-09T11:11:02.391Z</time>
      </trkpt>
      <trkpt lat="47.89791" lon="6.9089">
        <ele>1037</ele>
        <time>2026-05-09T11:11:03.390Z</time>
      </trkpt>
      <trkpt lat="47.89791" lon="6.90892">
        <ele>1037</ele>
        <time>2026-05-09T11:11:04.391Z</time>
      </trkpt>
      <trkpt lat="47.89792" lon="6.90894">
        <ele>1037</ele>
        <time>2026-05-09T11:11:05.390Z</time>
      </trkpt>
      <trkpt lat="47.89792" lon="6.90895">
        <ele>1037</ele>
        <time>2026-05-09T11:11:06.390Z</time>
      </trkpt>
      <trkpt lat="47.89792" lon="6.90897">
        <ele>1037</ele>
        <time>2026-05-09T11:11:07.390Z</time>
      </trkpt>
      <trkpt lat="47.89792" lon="6.90897">
        <ele>1037</ele>
        <time>2026-05-09T11:11:08.390Z</time>
      </trkpt>
      <trkpt lat="47.89792" lon="6.90899">
        <ele>1037</ele>
        <time>2026-05-09T11:11:09.390Z</time>
      </trkpt>
      <trkpt lat="47.89792" lon="6.909">
        <ele>1037</ele>
        <time>2026-05-09T11:11:10.390Z</time>
      </trkpt>
      <trkpt lat="47.89792" lon="6.90902">
        <ele>1037</ele>
        <time>2026-05-09T11:11:11.391Z</time>
      </trkpt>
      <trkpt lat="47.89793" lon="6.90903">
        <ele>1037</ele>
        <time>2026-05-09T11:11:12.391Z</time>
      </trkpt>
      <trkpt lat="47.89793" lon="6.90904">
        <ele>1037</ele>
        <time>2026-05-09T11:11:13.391Z</time>
      </trkpt>
      <trkpt lat="47.89794" lon="6.90905">
        <ele>1037</ele>
        <time>2026-05-09T11:11:14.390Z</time>
      </trkpt>
      <trkpt lat="47.89795" lon="6.90906">
        <ele>1037</ele>
        <time>2026-05-09T11:11:15.391Z</time>
      </trkpt>
      <trkpt lat="47.89794" lon="6.90907">
        <ele>1037</ele>
        <time>2026-05-09T11:11:16.390Z</time>
      </trkpt>
      <trkpt lat="47.89794" lon="6.90908">
        <ele>1037</ele>
        <time>2026-05-09T11:11:17.390Z</time>
      </trkpt>
      <trkpt lat="47.89794" lon="6.90909">
        <ele>1037</ele>
        <time>2026-05-09T11:11:18.390Z</time>
      </trkpt>
      <trkpt lat="47.89794" lon="6.90911">
        <ele>1037</ele>
        <time>2026-05-09T11:11:19.390Z</time>
      </trkpt>
      <trkpt lat="47.89794" lon="6.90912">
        <ele>1037</ele>
        <time>2026-05-09T11:11:20.390Z</time>
      </trkpt>
      <trkpt lat="47.89794" lon="6.90913">
        <ele>1037</ele>
        <time>2026-05-09T11:11:21.391Z</time>
      </trkpt>
      <trkpt lat="47.89794" lon="6.90914">
        <ele>1037</ele>
        <time>2026-05-09T11:11:22.390Z</time>
      </trkpt>
      <trkpt lat="47.89794" lon="6.90916">
        <ele>1037</ele>
        <time>2026-05-09T11:11:23.390Z</time>
      </trkpt>
      <trkpt lat="47.89794" lon="6.90917">
        <ele>1037</ele>
        <time>2026-05-09T11:11:24.390Z</time>
      </trkpt>
      <trkpt lat="47.89794" lon="6.90918">
        <ele>1038</ele>
        <time>2026-05-09T11:11:25.390Z</time>
      </trkpt>
      <trkpt lat="47.89793" lon="6.90919">
        <ele>1038</ele>
        <time>2026-05-09T11:11:26.390Z</time>
      </trkpt>
      <trkpt lat="47.89793" lon="6.90921">
        <ele>1038</ele>
        <time>2026-05-09T11:11:27.390Z</time>
      </trkpt>
      <trkpt lat="47.89792" lon="6.90922">
        <ele>1039</ele>
        <time>2026-05-09T11:11:28.390Z</time>
      </trkpt>
      <trkpt lat="47.89792" lon="6.90923">
        <ele>1040</ele>
        <time>2026-05-09T11:11:29.390Z</time>
      </trkpt>
      <trkpt lat="47.89791" lon="6.90924">
        <ele>1040</ele>
        <time>2026-05-09T11:11:30.390Z</time>
      </trkpt>
      <trkpt lat="47.89791" lon="6.90925">
        <ele>1041</ele>
        <time>2026-05-09T11:11:31.390Z</time>
      </trkpt>
      <trkpt lat="47.89791" lon="6.90927">
        <ele>1041</ele>
        <time>2026-05-09T11:11:32.391Z</time>
      </trkpt>
      <trkpt lat="47.89791" lon="6.90928">
        <ele>1042</ele>
        <time>2026-05-09T11:11:33.390Z</time>
      </trkpt>
      <trkpt lat="47.89791" lon="6.90929">
        <ele>1042</ele>
        <time>2026-05-09T11:11:34.390Z</time>
      </trkpt>
      <trkpt lat="47.8979" lon="6.9093">
        <ele>1043</ele>
        <time>2026-05-09T11:11:35.391Z</time>
      </trkpt>
      <trkpt lat="47.89791" lon="6.90932">
        <ele>1043</ele>
        <time>2026-05-09T11:11:36.390Z</time>
      </trkpt>
      <trkpt lat="47.89791" lon="6.90934">
        <ele>1043</ele>
        <time>2026-05-09T11:11:37.391Z</time>
      </trkpt>
      <trkpt lat="47.89792" lon="6.90935">
        <ele>1044</ele>
        <time>2026-05-09T11:11:38.391Z</time>
      </trkpt>
      <trkpt lat="47.89792" lon="6.90937">
        <ele>1044</ele>
        <time>2026-05-09T11:11:39.390Z</time>
      </trkpt>
      <trkpt lat="47.89793" lon="6.90937">
        <ele>1044</ele>
        <time>2026-05-09T11:11:40.391Z</time>
      </trkpt>
      <trkpt lat="47.89793" lon="6.90939">
        <ele>1044</ele>
        <time>2026-05-09T11:11:41.390Z</time>
      </trkpt>
      <trkpt lat="47.89793" lon="6.90941">
        <ele>1045</ele>
        <time>2026-05-09T11:11:42.391Z</time>
      </trkpt>
      <trkpt lat="47.89793" lon="6.90943">
        <ele>1045</ele>
        <time>2026-05-09T11:11:43.390Z</time>
      </trkpt>
      <trkpt lat="47.89793" lon="6.90944">
        <ele>1045</ele>
        <time>2026-05-09T11:11:44.390Z</time>
      </trkpt>
      <trkpt lat="47.89793" lon="6.90946">
        <ele>1046</ele>
        <time>2026-05-09T11:11:45.391Z</time>
      </trkpt>
      <trkpt lat="47.89794" lon="6.90947">
        <ele>1047</ele>
        <time>2026-05-09T11:11:46.390Z</time>
      </trkpt>
      <trkpt lat="47.89794" lon="6.90949">
        <ele>1047</ele>
        <time>2026-05-09T11:11:47.390Z</time>
      </trkpt>
      <trkpt lat="47.89794" lon="6.90951">
        <ele>1048</ele>
        <time>2026-05-09T11:11:48.390Z</time>
      </trkpt>
      <trkpt lat="47.89794" lon="6.90953">
        <ele>1049</ele>
        <time>2026-05-09T11:11:49.390Z</time>
      </trkpt>
      <trkpt lat="47.89794" lon="6.90955">
        <ele>1049</ele>
        <time>2026-05-09T11:11:50.391Z</time>
      </trkpt>
      <trkpt lat="47.89794" lon="6.90957">
        <ele>1049</ele>
        <time>2026-05-09T11:11:51.390Z</time>
      </trkpt>
      <trkpt lat="47.89794" lon="6.90959">
        <ele>1049</ele>
        <time>2026-05-09T11:11:52.390Z</time>
      </trkpt>
      <trkpt lat="47.89793" lon="6.90961">
        <ele>1050</ele>
        <time>2026-05-09T11:11:53.390Z</time>
      </trkpt>
      <trkpt lat="47.89794" lon="6.90963">
        <ele>1050</ele>
        <time>2026-05-09T11:11:54.390Z</time>
      </trkpt>
      <trkpt lat="47.89794" lon="6.90964">
        <ele>1050</ele>
        <time>2026-05-09T11:11:55.390Z</time>
      </trkpt>
      <trkpt lat="47.89794" lon="6.90965">
        <ele>1050</ele>
        <time>2026-05-09T11:11:56.390Z</time>
      </trkpt>
      <trkpt lat="47.89795" lon="6.90967">
        <ele>1051</ele>
        <time>2026-05-09T11:11:57.391Z</time>
      </trkpt>
      <trkpt lat="47.89795" lon="6.90969">
        <ele>1051</ele>
        <time>2026-05-09T11:11:58.390Z</time>
      </trkpt>
      <trkpt lat="47.89797" lon="6.90972">
        <ele>1051</ele>
        <time>2026-05-09T11:11:59.390Z</time>
      </trkpt>
      <trkpt lat="47.89798" lon="6.90974">
        <ele>1051</ele>
        <time>2026-05-09T11:12:00.390Z</time>
      </trkpt>
      <trkpt lat="47.89799" lon="6.90976">
        <ele>1051</ele>
        <time>2026-05-09T11:12:01.390Z</time>
      </trkpt>
      <trkpt lat="47.898" lon="6.9098">
        <ele>1051</ele>
        <time>2026-05-09T11:12:02.390Z</time>
      </trkpt>
      <trkpt lat="47.898" lon="6.90984">
        <ele>1051</ele>
        <time>2026-05-09T11:12:03.390Z</time>
      </trkpt>
      <trkpt lat="47.898" lon="6.90989">
        <ele>1051</ele>
        <time>2026-05-09T11:12:04.390Z</time>
      </trkpt>
      <trkpt lat="47.89801" lon="6.90992">
        <ele>1051</ele>
        <time>2026-05-09T11:12:05.390Z</time>
      </trkpt>
      <trkpt lat="47.89801" lon="6.90995">
        <ele>1051</ele>
        <time>2026-05-09T11:12:06.390Z</time>
      </trkpt>
      <trkpt lat="47.89801" lon="6.90998">
        <ele>1051</ele>
        <time>2026-05-09T11:12:07.390Z</time>
      </trkpt>
      <trkpt lat="47.89801" lon="6.91001">
        <ele>1051</ele>
        <time>2026-05-09T11:12:08.390Z</time>
      </trkpt>
      <trkpt lat="47.89801" lon="6.91004">
        <ele>1051</ele>
        <time>2026-05-09T11:12:09.391Z</time>
      </trkpt>
      <trkpt lat="47.89803" lon="6.91006">
        <ele>1050</ele>
        <time>2026-05-09T11:12:10.390Z</time>
      </trkpt>
      <trkpt lat="47.89802" lon="6.91009">
        <ele>1050</ele>
        <time>2026-05-09T11:12:11.390Z</time>
      </trkpt>
      <trkpt lat="47.89803" lon="6.91009">
        <ele>1050</ele>
        <time>2026-05-09T11:12:12.390Z</time>
      </trkpt>
      <trkpt lat="47.89802" lon="6.9101">
        <ele>1050</ele>
        <time>2026-05-09T11:12:13.390Z</time>
      </trkpt>
      <trkpt lat="47.898" lon="6.91013">
        <ele>1050</ele>
        <time>2026-05-09T11:12:14.390Z</time>
      </trkpt>
      <trkpt lat="47.89799" lon="6.91012">
        <ele>1050</ele>
        <time>2026-05-09T11:12:15.390Z</time>
      </trkpt>
      <trkpt lat="47.89801" lon="6.91011">
        <ele>1050</ele>
        <time>2026-05-09T11:12:16.391Z</time>
      </trkpt>
      <trkpt lat="47.89803" lon="6.9101">
        <ele>1050</ele>
        <time>2026-05-09T11:12:17.390Z</time>
      </trkpt>
      <trkpt lat="47.89803" lon="6.91009">
        <ele>1050</ele>
        <time>2026-05-09T11:12:18.390Z</time>
      </trkpt>
      <trkpt lat="47.89804" lon="6.91012">
        <ele>1051</ele>
        <time>2026-05-09T11:12:19.390Z</time>
      </trkpt>
      <trkpt lat="47.89804" lon="6.91013">
        <ele>1051</ele>
        <time>2026-05-09T11:12:20.390Z</time>
      </trkpt>
      <trkpt lat="47.89806" lon="6.91014">
        <ele>1052</ele>
        <time>2026-05-09T11:12:21.390Z</time>
      </trkpt>
      <trkpt lat="47.89807" lon="6.91014">
        <ele>1052</ele>
        <time>2026-05-09T11:12:22.390Z</time>
      </trkpt>
      <trkpt lat="47.89809" lon="6.91014">
        <ele>1053</ele>
        <time>2026-05-09T11:12:23.390Z</time>
      </trkpt>
      <trkpt lat="47.89809" lon="6.91017">
        <ele>1053</ele>
        <time>2026-05-09T11:12:24.391Z</time>
      </trkpt>
      <trkpt lat="47.8981" lon="6.91019">
        <ele>1053</ele>
        <time>2026-05-09T11:12:25.390Z</time>
      </trkpt>
      <trkpt lat="47.89808" lon="6.9102">
        <ele>1054</ele>
        <time>2026-05-09T11:12:26.390Z</time>
      </trkpt>
      <trkpt lat="47.89806" lon="6.91021">
        <ele>1054</ele>
        <time>2026-05-09T11:12:27.391Z</time>
      </trkpt>
      <trkpt lat="47.89807" lon="6.91021">
        <ele>1055</ele>
        <time>2026-05-09T11:12:28.390Z</time>
      </trkpt>
      <trkpt lat="47.89807" lon="6.91021">
        <ele>1055</ele>
        <time>2026-05-09T11:12:29.391Z</time>
      </trkpt>
      <trkpt lat="47.89807" lon="6.91022">
        <ele>1056</ele>
        <time>2026-05-09T11:12:30.391Z</time>
      </trkpt>
      <trkpt lat="47.89807" lon="6.91023">
        <ele>1056</ele>
        <time>2026-05-09T11:12:31.391Z</time>
      </trkpt>
      <trkpt lat="47.89807" lon="6.91025">
        <ele>1057</ele>
        <time>2026-05-09T11:12:32.390Z</time>
      </trkpt>
      <trkpt lat="47.89807" lon="6.91027">
        <ele>1057</ele>
        <time>2026-05-09T11:12:33.390Z</time>
      </trkpt>
      <trkpt lat="47.89806" lon="6.91029">
        <ele>1058</ele>
        <time>2026-05-09T11:12:34.390Z</time>
      </trkpt>
      <trkpt lat="47.89805" lon="6.91031">
        <ele>1058</ele>
        <time>2026-05-09T11:12:35.390Z</time>
      </trkpt>
      <trkpt lat="47.89804" lon="6.91032">
        <ele>1059</ele>
        <time>2026-05-09T11:12:36.391Z</time>
      </trkpt>
      <trkpt lat="47.89802" lon="6.91033">
        <ele>1059</ele>
        <time>2026-05-09T11:12:37.390Z</time>
      </trkpt>
      <trkpt lat="47.89802" lon="6.91034">
        <ele>1059</ele>
        <time>2026-05-09T11:12:38.390Z</time>
      </trkpt>
      <trkpt lat="47.89803" lon="6.91035">
        <ele>1060</ele>
        <time>2026-05-09T11:12:39.390Z</time>
      </trkpt>
      <trkpt lat="47.89802" lon="6.91036">
        <ele>1060</ele>
        <time>2026-05-09T11:12:40.390Z</time>
      </trkpt>
      <trkpt lat="47.89801" lon="6.91037">
        <ele>1060</ele>
        <time>2026-05-09T11:12:41.390Z</time>
      </trkpt>
      <trkpt lat="47.898" lon="6.91038">
        <ele>1061</ele>
        <time>2026-05-09T11:12:42.390Z</time>
      </trkpt>
      <trkpt lat="47.898" lon="6.91039">
        <ele>1061</ele>
        <time>2026-05-09T11:12:43.390Z</time>
      </trkpt>
      <trkpt lat="47.89801" lon="6.91039">
        <ele>1061</ele>
        <time>2026-05-09T11:12:44.390Z</time>
      </trkpt>
      <trkpt lat="47.898" lon="6.91039">
        <ele>1062</ele>
        <time>2026-05-09T11:12:45.390Z</time>
      </trkpt>
      <trkpt lat="47.898" lon="6.9104">
        <ele>1063</ele>
        <time>2026-05-09T11:12:46.390Z</time>
      </trkpt>
      <trkpt lat="47.89799" lon="6.91041">
        <ele>1063</ele>
        <time>2026-05-09T11:12:47.390Z</time>
      </trkpt>
      <trkpt lat="47.89799" lon="6.91041">
        <ele>1064</ele>
        <time>2026-05-09T11:12:48.390Z</time>
      </trkpt>
      <trkpt lat="47.89799" lon="6.91042">
        <ele>1065</ele>
        <time>2026-05-09T11:12:49.390Z</time>
      </trkpt>
      <trkpt lat="47.898" lon="6.91042">
        <ele>1065</ele>
        <time>2026-05-09T11:12:50.390Z</time>
      </trkpt>
      <trkpt lat="47.89801" lon="6.91043">
        <ele>1066</ele>
        <time>2026-05-09T11:12:51.390Z</time>
      </trkpt>
      <trkpt lat="47.89801" lon="6.91045">
        <ele>1066</ele>
        <time>2026-05-09T11:12:52.391Z</time>
      </trkpt>
      <trkpt lat="47.898" lon="6.91045">
        <ele>1067</ele>
        <time>2026-05-09T11:12:53.391Z</time>
      </trkpt>
      <trkpt lat="47.898" lon="6.91046">
        <ele>1067</ele>
        <time>2026-05-09T11:12:54.390Z</time>
      </trkpt>
      <trkpt lat="47.898" lon="6.91047">
        <ele>1067</ele>
        <time>2026-05-09T11:12:55.390Z</time>
      </trkpt>
      <trkpt lat="47.89799" lon="6.91047">
        <ele>1067</ele>
        <time>2026-05-09T11:12:56.390Z</time>
      </trkpt>
      <trkpt lat="47.89799" lon="6.91048">
        <ele>1068</ele>
        <time>2026-05-09T11:12:57.391Z</time>
      </trkpt>
      <trkpt lat="47.89798" lon="6.91048">
        <ele>1068</ele>
        <time>2026-05-09T11:12:58.390Z</time>
      </trkpt>
      <trkpt lat="47.89798" lon="6.91049">
        <ele>1068</ele>
        <time>2026-05-09T11:12:59.390Z</time>
      </trkpt>
      <trkpt lat="47.89797" lon="6.9105">
        <ele>1068</ele>
        <time>2026-05-09T11:13:00.390Z</time>
      </trkpt>
      <trkpt lat="47.89797" lon="6.9105">
        <ele>1068</ele>
        <time>2026-05-09T11:13:01.390Z</time>
      </trkpt>
      <trkpt lat="47.89796" lon="6.91051">
        <ele>1069</ele>
        <time>2026-05-09T11:13:02.391Z</time>
      </trkpt>
      <trkpt lat="47.89795" lon="6.91052">
        <ele>1069</ele>
        <time>2026-05-09T11:13:03.391Z</time>
      </trkpt>
      <trkpt lat="47.89794" lon="6.91053">
        <ele>1069</ele>
        <time>2026-05-09T11:13:04.390Z</time>
      </trkpt>
      <trkpt lat="47.89794" lon="6.91054">
        <ele>1070</ele>
        <time>2026-05-09T11:13:05.391Z</time>
      </trkpt>
      <trkpt lat="47.89793" lon="6.91055">
        <ele>1070</ele>
        <time>2026-05-09T11:13:06.390Z</time>
      </trkpt>
      <trkpt lat="47.89793" lon="6.91056">
        <ele>1071</ele>
        <time>2026-05-09T11:13:07.390Z</time>
      </trkpt>
      <trkpt lat="47.89793" lon="6.91058">
        <ele>1072</ele>
        <time>2026-05-09T11:13:08.390Z</time>
      </trkpt>
      <trkpt lat="47.89792" lon="6.91059">
        <ele>1072</ele>
        <time>2026-05-09T11:13:09.390Z</time>
      </trkpt>
      <trkpt lat="47.89791" lon="6.91061">
        <ele>1073</ele>
        <time>2026-05-09T11:13:10.390Z</time>
      </trkpt>
      <trkpt lat="47.89791" lon="6.91063">
        <ele>1073</ele>
        <time>2026-05-09T11:13:11.390Z</time>
      </trkpt>
      <trkpt lat="47.8979" lon="6.91064">
        <ele>1074</ele>
        <time>2026-05-09T11:13:12.390Z</time>
      </trkpt>
      <trkpt lat="47.8979" lon="6.91064">
        <ele>1074</ele>
        <time>2026-05-09T11:13:13.390Z</time>
      </trkpt>
      <trkpt lat="47.8979" lon="6.91066">
        <ele>1075</ele>
        <time>2026-05-09T11:13:14.390Z</time>
      </trkpt>
      <trkpt lat="47.8979" lon="6.91067">
        <ele>1075</ele>
        <time>2026-05-09T11:13:15.390Z</time>
      </trkpt>
      <trkpt lat="47.89789" lon="6.91068">
        <ele>1076</ele>
        <time>2026-05-09T11:13:16.390Z</time>
      </trkpt>
      <trkpt lat="47.89788" lon="6.9107">
        <ele>1076</ele>
        <time>2026-05-09T11:13:17.390Z</time>
      </trkpt>
      <trkpt lat="47.89788" lon="6.9107">
        <ele>1076</ele>
        <time>2026-05-09T11:13:18.390Z</time>
      </trkpt>
      <trkpt lat="47.89788" lon="6.91072">
        <ele>1077</ele>
        <time>2026-05-09T11:13:19.390Z</time>
      </trkpt>
      <trkpt lat="47.89787" lon="6.91072">
        <ele>1077</ele>
        <time>2026-05-09T11:13:20.390Z</time>
      </trkpt>
      <trkpt lat="47.89788" lon="6.91074">
        <ele>1077</ele>
        <time>2026-05-09T11:13:21.390Z</time>
      </trkpt>
      <trkpt lat="47.89788" lon="6.91075">
        <ele>1078</ele>
        <time>2026-05-09T11:13:22.390Z</time>
      </trkpt>
      <trkpt lat="47.89788" lon="6.91075">
        <ele>1078</ele>
        <time>2026-05-09T11:13:23.390Z</time>
      </trkpt>
      <trkpt lat="47.89788" lon="6.91076">
        <ele>1078</ele>
        <time>2026-05-09T11:13:24.390Z</time>
      </trkpt>
      <trkpt lat="47.89788" lon="6.91076">
        <ele>1079</ele>
        <time>2026-05-09T11:13:25.391Z</time>
      </trkpt>
      <trkpt lat="47.89788" lon="6.91077">
        <ele>1080</ele>
        <time>2026-05-09T11:13:26.390Z</time>
      </trkpt>
      <trkpt lat="47.89788" lon="6.91077">
        <ele>1080</ele>
        <time>2026-05-09T11:13:27.390Z</time>
      </trkpt>
      <trkpt lat="47.89787" lon="6.91078">
        <ele>1080</ele>
        <time>2026-05-09T11:13:28.390Z</time>
      </trkpt>
      <trkpt lat="47.89785" lon="6.91081">
        <ele>1081</ele>
        <time>2026-05-09T11:13:29.390Z</time>
      </trkpt>
      <trkpt lat="47.89784" lon="6.91082">
        <ele>1081</ele>
        <time>2026-05-09T11:13:30.390Z</time>
      </trkpt>
      <trkpt lat="47.89782" lon="6.91083">
        <ele>1081</ele>
        <time>2026-05-09T11:13:31.391Z</time>
      </trkpt>
      <trkpt lat="47.89782" lon="6.91083">
        <ele>1081</ele>
        <time>2026-05-09T11:13:32.390Z</time>
      </trkpt>
      <trkpt lat="47.89781" lon="6.91085">
        <ele>1082</ele>
        <time>2026-05-09T11:13:33.391Z</time>
      </trkpt>
      <trkpt lat="47.89781" lon="6.91086">
        <ele>1082</ele>
        <time>2026-05-09T11:13:34.390Z</time>
      </trkpt>
      <trkpt lat="47.89781" lon="6.91086">
        <ele>1082</ele>
        <time>2026-05-09T11:13:35.390Z</time>
      </trkpt>
      <trkpt lat="47.89781" lon="6.91087">
        <ele>1082</ele>
        <time>2026-05-09T11:13:36.390Z</time>
      </trkpt>
      <trkpt lat="47.89781" lon="6.91087">
        <ele>1082</ele>
        <time>2026-05-09T11:13:37.391Z</time>
      </trkpt>
      <trkpt lat="47.89781" lon="6.91087">
        <ele>1082</ele>
        <time>2026-05-09T11:13:38.391Z</time>
      </trkpt>
      <trkpt lat="47.8978" lon="6.91088">
        <ele>1083</ele>
        <time>2026-05-09T11:13:39.390Z</time>
      </trkpt>
      <trkpt lat="47.8978" lon="6.91089">
        <ele>1083</ele>
        <time>2026-05-09T11:13:40.390Z</time>
      </trkpt>
      <trkpt lat="47.8978" lon="6.91089">
        <ele>1083</ele>
        <time>2026-05-09T11:13:41.390Z</time>
      </trkpt>
      <trkpt lat="47.8978" lon="6.9109">
        <ele>1083</ele>
        <time>2026-05-09T11:13:42.390Z</time>
      </trkpt>
      <trkpt lat="47.8978" lon="6.9109">
        <ele>1084</ele>
        <time>2026-05-09T11:13:43.390Z</time>
      </trkpt>
      <trkpt lat="47.89781" lon="6.91091">
        <ele>1084</ele>
        <time>2026-05-09T11:13:44.390Z</time>
      </trkpt>
      <trkpt lat="47.8978" lon="6.91092">
        <ele>1085</ele>
        <time>2026-05-09T11:13:45.391Z</time>
      </trkpt>
      <trkpt lat="47.8978" lon="6.91092">
        <ele>1085</ele>
        <time>2026-05-09T11:13:46.390Z</time>
      </trkpt>
      <trkpt lat="47.8978" lon="6.91093">
        <ele>1085</ele>
        <time>2026-05-09T11:13:47.390Z</time>
      </trkpt>
      <trkpt lat="47.8978" lon="6.91094">
        <ele>1085</ele>
        <time>2026-05-09T11:13:48.391Z</time>
      </trkpt>
      <trkpt lat="47.89779" lon="6.91095">
        <ele>1087</ele>
        <time>2026-05-09T11:13:49.391Z</time>
      </trkpt>
      <trkpt lat="47.89779" lon="6.91097">
        <ele>1087</ele>
        <time>2026-05-09T11:13:50.390Z</time>
      </trkpt>
      <trkpt lat="47.89779" lon="6.91097">
        <ele>1087</ele>
        <time>2026-05-09T11:13:51.390Z</time>
      </trkpt>
      <trkpt lat="47.89779" lon="6.91099">
        <ele>1088</ele>
        <time>2026-05-09T11:13:52.390Z</time>
      </trkpt>
      <trkpt lat="47.89779" lon="6.911">
        <ele>1088</ele>
        <time>2026-05-09T11:13:53.390Z</time>
      </trkpt>
      <trkpt lat="47.89778" lon="6.91101">
        <ele>1088</ele>
        <time>2026-05-09T11:13:54.390Z</time>
      </trkpt>
      <trkpt lat="47.89778" lon="6.91101">
        <ele>1088</ele>
        <time>2026-05-09T11:13:55.391Z</time>
      </trkpt>
      <trkpt lat="47.89778" lon="6.91101">
        <ele>1088</ele>
        <time>2026-05-09T11:13:56.390Z</time>
      </trkpt>
      <trkpt lat="47.89777" lon="6.91103">
        <ele>1088</ele>
        <time>2026-05-09T11:13:57.390Z</time>
      </trkpt>
      <trkpt lat="47.89776" lon="6.91105">
        <ele>1088</ele>
        <time>2026-05-09T11:13:58.391Z</time>
      </trkpt>
      <trkpt lat="47.89776" lon="6.91109">
        <ele>1087</ele>
        <time>2026-05-09T11:13:59.391Z</time>
      </trkpt>
      <trkpt lat="47.89775" lon="6.9111">
        <ele>1087</ele>
        <time>2026-05-09T11:14:00.390Z</time>
      </trkpt>
      <trkpt lat="47.89775" lon="6.9111">
        <ele>1087</ele>
        <time>2026-05-09T11:14:01.390Z</time>
      </trkpt>
      <trkpt lat="47.89774" lon="6.91112">
        <ele>1087</ele>
        <time>2026-05-09T11:14:02.391Z</time>
      </trkpt>
      <trkpt lat="47.89774" lon="6.91113">
        <ele>1087</ele>
        <time>2026-05-09T11:14:03.391Z</time>
      </trkpt>
      <trkpt lat="47.89773" lon="6.91115">
        <ele>1086</ele>
        <time>2026-05-09T11:14:04.390Z</time>
      </trkpt>
      <trkpt lat="47.89773" lon="6.91116">
        <ele>1086</ele>
        <time>2026-05-09T11:14:05.391Z</time>
      </trkpt>
      <trkpt lat="47.89773" lon="6.91116">
        <ele>1086</ele>
        <time>2026-05-09T11:14:06.390Z</time>
      </trkpt>
      <trkpt lat="47.89772" lon="6.91117">
        <ele>1085</ele>
        <time>2026-05-09T11:14:07.391Z</time>
      </trkpt>
      <trkpt lat="47.89772" lon="6.91117">
        <ele>1085</ele>
        <time>2026-05-09T11:14:08.390Z</time>
      </trkpt>
      <trkpt lat="47.8977" lon="6.91119">
        <ele>1085</ele>
        <time>2026-05-09T11:14:09.391Z</time>
      </trkpt>
      <trkpt lat="47.8977" lon="6.91119">
        <ele>1085</ele>
        <time>2026-05-09T11:14:10.390Z</time>
      </trkpt>
      <trkpt lat="47.8977" lon="6.91119">
        <ele>1085</ele>
        <time>2026-05-09T11:14:11.390Z</time>
      </trkpt>
      <trkpt lat="47.89769" lon="6.9112">
        <ele>1085</ele>
        <time>2026-05-09T11:14:12.390Z</time>
      </trkpt>
      <trkpt lat="47.89768" lon="6.91121">
        <ele>1085</ele>
        <time>2026-05-09T11:14:13.391Z</time>
      </trkpt>
      <trkpt lat="47.89767" lon="6.91123">
        <ele>1085</ele>
        <time>2026-05-09T11:14:14.390Z</time>
      </trkpt>
      <trkpt lat="47.89766" lon="6.91123">
        <ele>1085</ele>
        <time>2026-05-09T11:14:15.390Z</time>
      </trkpt>
      <trkpt lat="47.89766" lon="6.91123">
        <ele>1085</ele>
        <time>2026-05-09T11:14:16.390Z</time>
      </trkpt>
      <trkpt lat="47.89765" lon="6.91124">
        <ele>1085</ele>
        <time>2026-05-09T11:14:17.391Z</time>
      </trkpt>
      <trkpt lat="47.89764" lon="6.91125">
        <ele>1085</ele>
        <time>2026-05-09T11:14:18.391Z</time>
      </trkpt>
      <trkpt lat="47.89763" lon="6.91127">
        <ele>1085</ele>
        <time>2026-05-09T11:14:19.391Z</time>
      </trkpt>
      <trkpt lat="47.89763" lon="6.91128">
        <ele>1085</ele>
        <time>2026-05-09T11:14:20.391Z</time>
      </trkpt>
      <trkpt lat="47.89763" lon="6.91128">
        <ele>1085</ele>
        <time>2026-05-09T11:14:21.390Z</time>
      </trkpt>
      <trkpt lat="47.89763" lon="6.9113">
        <ele>1086</ele>
        <time>2026-05-09T11:14:22.390Z</time>
      </trkpt>
      <trkpt lat="47.89762" lon="6.91131">
        <ele>1086</ele>
        <time>2026-05-09T11:14:23.390Z</time>
      </trkpt>
      <trkpt lat="47.89762" lon="6.91134">
        <ele>1086</ele>
        <time>2026-05-09T11:14:24.391Z</time>
      </trkpt>
      <trkpt lat="47.89762" lon="6.91135">
        <ele>1085</ele>
        <time>2026-05-09T11:14:25.391Z</time>
      </trkpt>
      <trkpt lat="47.89762" lon="6.91136">
        <ele>1085</ele>
        <time>2026-05-09T11:14:26.390Z</time>
      </trkpt>
      <trkpt lat="47.89762" lon="6.91136">
        <ele>1085</ele>
        <time>2026-05-09T11:14:27.390Z</time>
      </trkpt>
      <trkpt lat="47.89762" lon="6.91138">
        <ele>1085</ele>
        <time>2026-05-09T11:14:28.390Z</time>
      </trkpt>
      <trkpt lat="47.8976" lon="6.91142">
        <ele>1085</ele>
        <time>2026-05-09T11:14:29.391Z</time>
      </trkpt>
      <trkpt lat="47.89759" lon="6.91143">
        <ele>1085</ele>
        <time>2026-05-09T11:14:30.390Z</time>
      </trkpt>
      <trkpt lat="47.89759" lon="6.91143">
        <ele>1085</ele>
        <time>2026-05-09T11:14:31.390Z</time>
      </trkpt>
      <trkpt lat="47.89758" lon="6.91144">
        <ele>1085</ele>
        <time>2026-05-09T11:14:32.390Z</time>
      </trkpt>
      <trkpt lat="47.89758" lon="6.91145">
        <ele>1085</ele>
        <time>2026-05-09T11:14:33.390Z</time>
      </trkpt>
      <trkpt lat="47.89756" lon="6.91148">
        <ele>1085</ele>
        <time>2026-05-09T11:14:34.391Z</time>
      </trkpt>
      <trkpt lat="47.89756" lon="6.91149">
        <ele>1085</ele>
        <time>2026-05-09T11:14:35.390Z</time>
      </trkpt>
      <trkpt lat="47.89756" lon="6.91149">
        <ele>1085</ele>
        <time>2026-05-09T11:14:36.391Z</time>
      </trkpt>
      <trkpt lat="47.89755" lon="6.91151">
        <ele>1085</ele>
        <time>2026-05-09T11:14:37.390Z</time>
      </trkpt>
      <trkpt lat="47.89754" lon="6.91151">
        <ele>1085</ele>
        <time>2026-05-09T11:14:38.390Z</time>
      </trkpt>
      <trkpt lat="47.89753" lon="6.91154">
        <ele>1086</ele>
        <time>2026-05-09T11:14:39.390Z</time>
      </trkpt>
      <trkpt lat="47.89752" lon="6.91155">
        <ele>1086</ele>
        <time>2026-05-09T11:14:40.390Z</time>
      </trkpt>
      <trkpt lat="47.89752" lon="6.91155">
        <ele>1086</ele>
        <time>2026-05-09T11:14:41.390Z</time>
      </trkpt>
      <trkpt lat="47.89752" lon="6.91156">
        <ele>1086</ele>
        <time>2026-05-09T11:14:42.391Z</time>
      </trkpt>
      <trkpt lat="47.89752" lon="6.91156">
        <ele>1086</ele>
        <time>2026-05-09T11:14:43.390Z</time>
      </trkpt>
      <trkpt lat="47.89752" lon="6.91156">
        <ele>1086</ele>
        <time>2026-05-09T11:14:44.390Z</time>
      </trkpt>
      <trkpt lat="47.89751" lon="6.91156">
        <ele>1086</ele>
        <time>2026-05-09T11:14:45.390Z</time>
      </trkpt>
      <trkpt lat="47.89751" lon="6.91156">
        <ele>1086</ele>
        <time>2026-05-09T11:14:46.391Z</time>
      </trkpt>
      <trkpt lat="47.89751" lon="6.91157">
        <ele>1086</ele>
        <time>2026-05-09T11:14:47.390Z</time>
      </trkpt>
      <trkpt lat="47.89751" lon="6.91157">
        <ele>1087</ele>
        <time>2026-05-09T11:14:48.390Z</time>
      </trkpt>
      <trkpt lat="47.89749" lon="6.91159">
        <ele>1087</ele>
        <time>2026-05-09T11:14:49.390Z</time>
      </trkpt>
      <trkpt lat="47.89749" lon="6.91159">
        <ele>1088</ele>
        <time>2026-05-09T11:14:50.390Z</time>
      </trkpt>
      <trkpt lat="47.89749" lon="6.91159">
        <ele>1088</ele>
        <time>2026-05-09T11:14:51.390Z</time>
      </trkpt>
      <trkpt lat="47.89748" lon="6.9116">
        <ele>1088</ele>
        <time>2026-05-09T11:14:52.390Z</time>
      </trkpt>
      <trkpt lat="47.89747" lon="6.91161">
        <ele>1089</ele>
        <time>2026-05-09T11:14:53.390Z</time>
      </trkpt>
      <trkpt lat="47.89746" lon="6.91163">
        <ele>1090</ele>
        <time>2026-05-09T11:14:54.391Z</time>
      </trkpt>
      <trkpt lat="47.89745" lon="6.91164">
        <ele>1090</ele>
        <time>2026-05-09T11:14:55.390Z</time>
      </trkpt>
      <trkpt lat="47.89745" lon="6.91164">
        <ele>1090</ele>
        <time>2026-05-09T11:14:56.390Z</time>
      </trkpt>
      <trkpt lat="47.89745" lon="6.91165">
        <ele>1091</ele>
        <time>2026-05-09T11:14:57.390Z</time>
      </trkpt>
      <trkpt lat="47.89745" lon="6.91166">
        <ele>1091</ele>
        <time>2026-05-09T11:14:58.390Z</time>
      </trkpt>
      <trkpt lat="47.89744" lon="6.91168">
        <ele>1092</ele>
        <time>2026-05-09T11:14:59.391Z</time>
      </trkpt>
      <trkpt lat="47.89743" lon="6.91169">
        <ele>1093</ele>
        <time>2026-05-09T11:15:00.390Z</time>
      </trkpt>
      <trkpt lat="47.89743" lon="6.91169">
        <ele>1093</ele>
        <time>2026-05-09T11:15:01.390Z</time>
      </trkpt>
      <trkpt lat="47.89743" lon="6.91171">
        <ele>1093</ele>
        <time>2026-05-09T11:15:02.390Z</time>
      </trkpt>
      <trkpt lat="47.89742" lon="6.91172">
        <ele>1093</ele>
        <time>2026-05-09T11:15:03.390Z</time>
      </trkpt>
      <trkpt lat="47.89741" lon="6.91174">
        <ele>1094</ele>
        <time>2026-05-09T11:15:04.390Z</time>
      </trkpt>
      <trkpt lat="47.89741" lon="6.91174">
        <ele>1094</ele>
        <time>2026-05-09T11:15:05.391Z</time>
      </trkpt>
      <trkpt lat="47.89741" lon="6.91174">
        <ele>1094</ele>
        <time>2026-05-09T11:15:06.390Z</time>
      </trkpt>
      <trkpt lat="47.8974" lon="6.91175">
        <ele>1094</ele>
        <time>2026-05-09T11:15:07.390Z</time>
      </trkpt>
      <trkpt lat="47.8974" lon="6.91175">
        <ele>1094</ele>
        <time>2026-05-09T11:15:08.390Z</time>
      </trkpt>
      <trkpt lat="47.8974" lon="6.91177">
        <ele>1094</ele>
        <time>2026-05-09T11:15:09.390Z</time>
      </trkpt>
      <trkpt lat="47.89739" lon="6.91177">
        <ele>1094</ele>
        <time>2026-05-09T11:15:10.390Z</time>
      </trkpt>
      <trkpt lat="47.89739" lon="6.91177">
        <ele>1094</ele>
        <time>2026-05-09T11:15:11.391Z</time>
      </trkpt>
      <trkpt lat="47.89739" lon="6.91177">
        <ele>1094</ele>
        <time>2026-05-09T11:15:12.391Z</time>
      </trkpt>
      <trkpt lat="47.89739" lon="6.91178">
        <ele>1094</ele>
        <time>2026-05-09T11:15:13.391Z</time>
      </trkpt>
      <trkpt lat="47.89737" lon="6.91179">
        <ele>1094</ele>
        <time>2026-05-09T11:15:14.390Z</time>
      </trkpt>
      <trkpt lat="47.89736" lon="6.9118">
        <ele>1094</ele>
        <time>2026-05-09T11:15:15.390Z</time>
      </trkpt>
      <trkpt lat="47.89735" lon="6.9118">
        <ele>1094</ele>
        <time>2026-05-09T11:15:16.390Z</time>
      </trkpt>
      <trkpt lat="47.89735" lon="6.9118">
        <ele>1094</ele>
        <time>2026-05-09T11:15:17.390Z</time>
      </trkpt>
      <trkpt lat="47.89735" lon="6.91181">
        <ele>1094</ele>
        <time>2026-05-09T11:15:18.390Z</time>
      </trkpt>
      <trkpt lat="47.89734" lon="6.91183">
        <ele>1094</ele>
        <time>2026-05-09T11:15:19.390Z</time>
      </trkpt>
      <trkpt lat="47.89733" lon="6.91184">
        <ele>1094</ele>
        <time>2026-05-09T11:15:20.391Z</time>
      </trkpt>
      <trkpt lat="47.89733" lon="6.91184">
        <ele>1094</ele>
        <time>2026-05-09T11:15:21.390Z</time>
      </trkpt>
      <trkpt lat="47.89733" lon="6.91184">
        <ele>1094</ele>
        <time>2026-05-09T11:15:22.390Z</time>
      </trkpt>
      <trkpt lat="47.89733" lon="6.91185">
        <ele>1094</ele>
        <time>2026-05-09T11:15:23.390Z</time>
      </trkpt>
      <trkpt lat="47.89732" lon="6.91187">
        <ele>1093</ele>
        <time>2026-05-09T11:15:24.391Z</time>
      </trkpt>
      <trkpt lat="47.89732" lon="6.91188">
        <ele>1093</ele>
        <time>2026-05-09T11:15:25.390Z</time>
      </trkpt>
      <trkpt lat="47.89732" lon="6.91188">
        <ele>1093</ele>
        <time>2026-05-09T11:15:26.391Z</time>
      </trkpt>
      <trkpt lat="47.89732" lon="6.91188">
        <ele>1093</ele>
        <time>2026-05-09T11:15:27.391Z</time>
      </trkpt>
      <trkpt lat="47.89732" lon="6.91189">
        <ele>1093</ele>
        <time>2026-05-09T11:15:28.390Z</time>
      </trkpt>
      <trkpt lat="47.89734" lon="6.91192">
        <ele>1093</ele>
        <time>2026-05-09T11:15:29.390Z</time>
      </trkpt>
      <trkpt lat="47.89734" lon="6.91194">
        <ele>1093</ele>
        <time>2026-05-09T11:15:30.390Z</time>
      </trkpt>
      <trkpt lat="47.89734" lon="6.91195">
        <ele>1093</ele>
        <time>2026-05-09T11:15:31.390Z</time>
      </trkpt>
      <trkpt lat="47.89734" lon="6.91195">
        <ele>1093</ele>
        <time>2026-05-09T11:15:32.390Z</time>
      </trkpt>
      <trkpt lat="47.89735" lon="6.91196">
        <ele>1093</ele>
        <time>2026-05-09T11:15:33.390Z</time>
      </trkpt>
      <trkpt lat="47.89736" lon="6.91199">
        <ele>1094</ele>
        <time>2026-05-09T11:15:34.390Z</time>
      </trkpt>
      <trkpt lat="47.89736" lon="6.912">
        <ele>1094</ele>
        <time>2026-05-09T11:15:35.390Z</time>
      </trkpt>
      <trkpt lat="47.89736" lon="6.91202">
        <ele>1094</ele>
        <time>2026-05-09T11:15:36.391Z</time>
      </trkpt>
      <trkpt lat="47.89736" lon="6.91202">
        <ele>1094</ele>
        <time>2026-05-09T11:15:37.390Z</time>
      </trkpt>
      <trkpt lat="47.89736" lon="6.91202">
        <ele>1094</ele>
        <time>2026-05-09T11:15:38.390Z</time>
      </trkpt>
      <trkpt lat="47.89737" lon="6.91203">
        <ele>1095</ele>
        <time>2026-05-09T11:15:39.390Z</time>
      </trkpt>
      <trkpt lat="47.89737" lon="6.91204">
        <ele>1095</ele>
        <time>2026-05-09T11:15:40.390Z</time>
      </trkpt>
      <trkpt lat="47.89738" lon="6.91204">
        <ele>1095</ele>
        <time>2026-05-09T11:15:41.390Z</time>
      </trkpt>
      <trkpt lat="47.89738" lon="6.91204">
        <ele>1095</ele>
        <time>2026-05-09T11:15:42.391Z</time>
      </trkpt>
      <trkpt lat="47.89738" lon="6.91205">
        <ele>1095</ele>
        <time>2026-05-09T11:15:43.391Z</time>
      </trkpt>
      <trkpt lat="47.89738" lon="6.91208">
        <ele>1095</ele>
        <time>2026-05-09T11:15:44.390Z</time>
      </trkpt>
      <trkpt lat="47.89738" lon="6.91209">
        <ele>1096</ele>
        <time>2026-05-09T11:15:45.390Z</time>
      </trkpt>
      <trkpt lat="47.89739" lon="6.91209">
        <ele>1096</ele>
        <time>2026-05-09T11:15:46.391Z</time>
      </trkpt>
      <trkpt lat="47.89739" lon="6.91209">
        <ele>1096</ele>
        <time>2026-05-09T11:15:47.391Z</time>
      </trkpt>
      <trkpt lat="47.89739" lon="6.9121">
        <ele>1096</ele>
        <time>2026-05-09T11:15:48.390Z</time>
      </trkpt>
      <trkpt lat="47.89739" lon="6.91212">
        <ele>1097</ele>
        <time>2026-05-09T11:15:49.390Z</time>
      </trkpt>
      <trkpt lat="47.89739" lon="6.91212">
        <ele>1098</ele>
        <time>2026-05-09T11:15:50.390Z</time>
      </trkpt>
      <trkpt lat="47.89738" lon="6.91213">
        <ele>1098</ele>
        <time>2026-05-09T11:15:51.391Z</time>
      </trkpt>
      <trkpt lat="47.89738" lon="6.91213">
        <ele>1098</ele>
        <time>2026-05-09T11:15:52.391Z</time>
      </trkpt>
      <trkpt lat="47.89739" lon="6.91215">
        <ele>1098</ele>
        <time>2026-05-09T11:15:53.390Z</time>
      </trkpt>
      <trkpt lat="47.89739" lon="6.91216">
        <ele>1097</ele>
        <time>2026-05-09T11:15:54.390Z</time>
      </trkpt>
      <trkpt lat="47.8974" lon="6.91217">
        <ele>1097</ele>
        <time>2026-05-09T11:15:55.390Z</time>
      </trkpt>
      <trkpt lat="47.8974" lon="6.91217">
        <ele>1097</ele>
        <time>2026-05-09T11:15:56.390Z</time>
      </trkpt>
      <trkpt lat="47.8974" lon="6.91218">
        <ele>1096</ele>
        <time>2026-05-09T11:15:57.390Z</time>
      </trkpt>
      <trkpt lat="47.89741" lon="6.91218">
        <ele>1095</ele>
        <time>2026-05-09T11:15:58.390Z</time>
      </trkpt>
      <trkpt lat="47.89741" lon="6.91219">
        <ele>1095</ele>
        <time>2026-05-09T11:15:59.390Z</time>
      </trkpt>
      <trkpt lat="47.8974" lon="6.9122">
        <ele>1095</ele>
        <time>2026-05-09T11:16:00.390Z</time>
      </trkpt>
      <trkpt lat="47.89739" lon="6.91221">
        <ele>1094</ele>
        <time>2026-05-09T11:16:01.390Z</time>
      </trkpt>
      <trkpt lat="47.89739" lon="6.91222">
        <ele>1094</ele>
        <time>2026-05-09T11:16:02.390Z</time>
      </trkpt>
      <trkpt lat="47.89738" lon="6.91224">
        <ele>1094</ele>
        <time>2026-05-09T11:16:03.390Z</time>
      </trkpt>
      <trkpt lat="47.89738" lon="6.91226">
        <ele>1094</ele>
        <time>2026-05-09T11:16:04.390Z</time>
      </trkpt>
      <trkpt lat="47.89737" lon="6.91227">
        <ele>1094</ele>
        <time>2026-05-09T11:16:05.390Z</time>
      </trkpt>
      <trkpt lat="47.89737" lon="6.91229">
        <ele>1094</ele>
        <time>2026-05-09T11:16:06.390Z</time>
      </trkpt>
      <trkpt lat="47.89736" lon="6.91229">
        <ele>1093</ele>
        <time>2026-05-09T11:16:07.390Z</time>
      </trkpt>
      <trkpt lat="47.89736" lon="6.91229">
        <ele>1093</ele>
        <time>2026-05-09T11:16:08.390Z</time>
      </trkpt>
      <trkpt lat="47.89736" lon="6.91231">
        <ele>1093</ele>
        <time>2026-05-09T11:16:09.391Z</time>
      </trkpt>
      <trkpt lat="47.89736" lon="6.91232">
        <ele>1093</ele>
        <time>2026-05-09T11:16:10.391Z</time>
      </trkpt>
      <trkpt lat="47.89736" lon="6.91233">
        <ele>1093</ele>
        <time>2026-05-09T11:16:11.390Z</time>
      </trkpt>
      <trkpt lat="47.89736" lon="6.91234">
        <ele>1093</ele>
        <time>2026-05-09T11:16:12.391Z</time>
      </trkpt>
      <trkpt lat="47.89736" lon="6.91235">
        <ele>1092</ele>
        <time>2026-05-09T11:16:13.390Z</time>
      </trkpt>
      <trkpt lat="47.89736" lon="6.91236">
        <ele>1092</ele>
        <time>2026-05-09T11:16:14.390Z</time>
      </trkpt>
      <trkpt lat="47.89736" lon="6.91237">
        <ele>1092</ele>
        <time>2026-05-09T11:16:15.391Z</time>
      </trkpt>
      <trkpt lat="47.89736" lon="6.91238">
        <ele>1091</ele>
        <time>2026-05-09T11:16:16.391Z</time>
      </trkpt>
      <trkpt lat="47.89736" lon="6.91239">
        <ele>1091</ele>
        <time>2026-05-09T11:16:17.391Z</time>
      </trkpt>
      <trkpt lat="47.89736" lon="6.91241">
        <ele>1091</ele>
        <time>2026-05-09T11:16:18.391Z</time>
      </trkpt>
      <trkpt lat="47.89735" lon="6.91242">
        <ele>1090</ele>
        <time>2026-05-09T11:16:19.390Z</time>
      </trkpt>
      <trkpt lat="47.89735" lon="6.91243">
        <ele>1090</ele>
        <time>2026-05-09T11:16:20.391Z</time>
      </trkpt>
      <trkpt lat="47.89734" lon="6.91245">
        <ele>1090</ele>
        <time>2026-05-09T11:16:21.390Z</time>
      </trkpt>
      <trkpt lat="47.89734" lon="6.91245">
        <ele>1089</ele>
        <time>2026-05-09T11:16:22.390Z</time>
      </trkpt>
      <trkpt lat="47.89734" lon="6.91245">
        <ele>1089</ele>
        <time>2026-05-09T11:16:23.390Z</time>
      </trkpt>
      <trkpt lat="47.89734" lon="6.91245">
        <ele>1089</ele>
        <time>2026-05-09T11:16:24.390Z</time>
      </trkpt>
      <trkpt lat="47.89734" lon="6.91245">
        <ele>1088</ele>
        <time>2026-05-09T11:16:25.390Z</time>
      </trkpt>
      <trkpt lat="47.89733" lon="6.91245">
        <ele>1088</ele>
        <time>2026-05-09T11:16:26.391Z</time>
      </trkpt>
      <trkpt lat="47.89733" lon="6.91245">
        <ele>1088</ele>
        <time>2026-05-09T11:16:27.390Z</time>
      </trkpt>
      <trkpt lat="47.89733" lon="6.91245">
        <ele>1088</ele>
        <time>2026-05-09T11:16:28.390Z</time>
      </trkpt>
      <trkpt lat="47.89733" lon="6.91245">
        <ele>1088</ele>
        <time>2026-05-09T11:16:29.390Z</time>
      </trkpt>
      <trkpt lat="47.89733" lon="6.91244">
        <ele>1088</ele>
        <time>2026-05-09T11:16:30.390Z</time>
      </trkpt>
      <trkpt lat="47.89732" lon="6.91244">
        <ele>1088</ele>
        <time>2026-05-09T11:16:31.390Z</time>
      </trkpt>
      <trkpt lat="47.89734" lon="6.91244">
        <ele>1088</ele>
        <time>2026-05-09T11:16:38.824Z</time>
      </trkpt>
      <trkpt lat="47.89734" lon="6.91244">
        <ele>1088</ele>
        <time>2026-05-09T11:16:39.825Z</time>
      </trkpt>
      <trkpt lat="47.89734" lon="6.91244">
        <ele>1089</ele>
        <time>2026-05-09T11:16:40.825Z</time>
      </trkpt>
      <trkpt lat="47.89734" lon="6.91244">
        <ele>1089</ele>
        <time>2026-05-09T11:16:41.824Z</time>
      </trkpt>
      <trkpt lat="47.89734" lon="6.91245">
        <ele>1089</ele>
        <time>2026-05-09T11:16:42.825Z</time>
      </trkpt>
      <trkpt lat="47.89735" lon="6.91244">
        <ele>1089</ele>
        <time>2026-05-09T11:16:43.824Z</time>
      </trkpt>
      <trkpt lat="47.89736" lon="6.91245">
        <ele>1089</ele>
        <time>2026-05-09T11:16:44.825Z</time>
      </trkpt>
      <trkpt lat="47.89736" lon="6.91246">
        <ele>1090</ele>
        <time>2026-05-09T11:16:45.824Z</time>
      </trkpt>
      <trkpt lat="47.89736" lon="6.91247">
        <ele>1090</ele>
        <time>2026-05-09T11:16:46.825Z</time>
      </trkpt>
      <trkpt lat="47.89736" lon="6.91247">
        <ele>1091</ele>
        <time>2026-05-09T11:16:47.824Z</time>
      </trkpt>
      <trkpt lat="47.89736" lon="6.91248">
        <ele>1091</ele>
        <time>2026-05-09T11:16:48.825Z</time>
      </trkpt>
      <trkpt lat="47.89736" lon="6.91248">
        <ele>1092</ele>
        <time>2026-05-09T11:16:49.824Z</time>
      </trkpt>
      <trkpt lat="47.89736" lon="6.91248">
        <ele>1093</ele>
        <time>2026-05-09T11:16:50.825Z</time>
      </trkpt>
      <trkpt lat="47.89736" lon="6.91248">
        <ele>1093</ele>
        <time>2026-05-09T11:16:51.824Z</time>
      </trkpt>
      <trkpt lat="47.89736" lon="6.91248">
        <ele>1094</ele>
        <time>2026-05-09T11:16:52.824Z</time>
      </trkpt>
      <trkpt lat="47.89736" lon="6.91248">
        <ele>1094</ele>
        <time>2026-05-09T11:16:53.824Z</time>
      </trkpt>
      <trkpt lat="47.89736" lon="6.91248">
        <ele>1095</ele>
        <time>2026-05-09T11:16:54.825Z</time>
      </trkpt>
      <trkpt lat="47.89736" lon="6.91248">
        <ele>1095</ele>
        <time>2026-05-09T11:16:55.824Z</time>
      </trkpt>
      <trkpt lat="47.89736" lon="6.91248">
        <ele>1095</ele>
        <time>2026-05-09T11:16:56.824Z</time>
      </trkpt>
      <trkpt lat="47.89735" lon="6.91249">
        <ele>1095</ele>
        <time>2026-05-09T11:16:57.825Z</time>
      </trkpt>
      <trkpt lat="47.89735" lon="6.91249">
        <ele>1095</ele>
        <time>2026-05-09T11:16:58.824Z</time>
      </trkpt>
      <trkpt lat="47.89735" lon="6.91249">
        <ele>1096</ele>
        <time>2026-05-09T11:16:59.825Z</time>
      </trkpt>
      <trkpt lat="47.89734" lon="6.91249">
        <ele>1096</ele>
        <time>2026-05-09T11:17:00.824Z</time>
      </trkpt>
      <trkpt lat="47.89734" lon="6.91249">
        <ele>1096</ele>
        <time>2026-05-09T11:17:01.825Z</time>
      </trkpt>
      <trkpt lat="47.89734" lon="6.91249">
        <ele>1096</ele>
        <time>2026-05-09T11:17:02.825Z</time>
      </trkpt>
      <trkpt lat="47.89735" lon="6.91248">
        <ele>1097</ele>
        <time>2026-05-09T11:17:03.824Z</time>
      </trkpt>
      <trkpt lat="47.89735" lon="6.91248">
        <ele>1097</ele>
        <time>2026-05-09T11:17:04.825Z</time>
      </trkpt>
      <trkpt lat="47.89735" lon="6.91248">
        <ele>1098</ele>
        <time>2026-05-09T11:17:05.824Z</time>
      </trkpt>
      <trkpt lat="47.89735" lon="6.91248">
        <ele>1098</ele>
        <time>2026-05-09T11:17:06.824Z</time>
      </trkpt>
      <trkpt lat="47.89737" lon="6.91247">
        <ele>1098</ele>
        <time>2026-05-09T11:17:07.825Z</time>
      </trkpt>
      <trkpt lat="47.89737" lon="6.91247">
        <ele>1098</ele>
        <time>2026-05-09T11:17:08.824Z</time>
      </trkpt>
      <trkpt lat="47.89737" lon="6.91247">
        <ele>1098</ele>
        <time>2026-05-09T11:17:09.825Z</time>
      </trkpt>
      <trkpt lat="47.89738" lon="6.91247">
        <ele>1098</ele>
        <time>2026-05-09T11:17:10.824Z</time>
      </trkpt>
      <trkpt lat="47.89739" lon="6.91246">
        <ele>1098</ele>
        <time>2026-05-09T11:17:19.358Z</time>
      </trkpt>
      <trkpt lat="47.89737" lon="6.91247">
        <ele>1101</ele>
        <time>2026-05-09T11:17:30.569Z</time>
      </trkpt>
      <trkpt lat="47.89737" lon="6.91246">
        <ele>1101</ele>
        <time>2026-05-09T11:17:31.569Z</time>
      </trkpt>
      <trkpt lat="47.89737" lon="6.91246">
        <ele>1101</ele>
        <time>2026-05-09T11:17:32.568Z</time>
      </trkpt>
      <trkpt lat="47.89736" lon="6.91248">
        <ele>1102</ele>
        <time>2026-05-09T11:17:33.568Z</time>
      </trkpt>
      <trkpt lat="47.89735" lon="6.91248">
        <ele>1102</ele>
        <time>2026-05-09T11:17:34.569Z</time>
      </trkpt>
      <trkpt lat="47.89736" lon="6.91248">
        <ele>1102</ele>
        <time>2026-05-09T11:17:35.568Z</time>
      </trkpt>
      <trkpt lat="47.89735" lon="6.91248">
        <ele>1103</ele>
        <time>2026-05-09T11:17:36.568Z</time>
      </trkpt>
      <trkpt lat="47.89735" lon="6.91248">
        <ele>1103</ele>
        <time>2026-05-09T11:17:37.569Z</time>
      </trkpt>
      <trkpt lat="47.89736" lon="6.91247">
        <ele>1103</ele>
        <time>2026-05-09T11:17:38.568Z</time>
      </trkpt>
      <trkpt lat="47.89737" lon="6.91247">
        <ele>1103</ele>
        <time>2026-05-09T11:17:39.568Z</time>
      </trkpt>
      <trkpt lat="47.89737" lon="6.91247">
        <ele>1103</ele>
        <time>2026-05-09T11:17:40.568Z</time>
      </trkpt>
      <trkpt lat="47.89737" lon="6.91247">
        <ele>1104</ele>
        <time>2026-05-09T11:17:41.568Z</time>
      </trkpt>
      <trkpt lat="47.89738" lon="6.91247">
        <ele>1104</ele>
        <time>2026-05-09T11:17:42.568Z</time>
      </trkpt>
      <trkpt lat="47.89738" lon="6.91247">
        <ele>1104</ele>
        <time>2026-05-09T11:17:43.569Z</time>
      </trkpt>
      <trkpt lat="47.89738" lon="6.91247">
        <ele>1104</ele>
        <time>2026-05-09T11:17:44.568Z</time>
      </trkpt>
      <trkpt lat="47.89738" lon="6.91247">
        <ele>1104</ele>
        <time>2026-05-09T11:17:45.569Z</time>
      </trkpt>
      <trkpt lat="47.89738" lon="6.91247">
        <ele>1104</ele>
        <time>2026-05-09T11:17:46.568Z</time>
      </trkpt>
      <trkpt lat="47.89738" lon="6.91246">
        <ele>1104</ele>
        <time>2026-05-09T11:17:47.568Z</time>
      </trkpt>
      <trkpt lat="47.89739" lon="6.91246">
        <ele>1105</ele>
        <time>2026-05-09T11:17:48.568Z</time>
      </trkpt>
      <trkpt lat="47.89738" lon="6.91246">
        <ele>1105</ele>
        <time>2026-05-09T11:17:49.569Z</time>
      </trkpt>
      <trkpt lat="47.89738" lon="6.91246">
        <ele>1105</ele>
        <time>2026-05-09T11:17:50.569Z</time>
      </trkpt>
      <trkpt lat="47.89737" lon="6.91246">
        <ele>1105</ele>
        <time>2026-05-09T11:17:51.569Z</time>
      </trkpt>
      <trkpt lat="47.89737" lon="6.91247">
        <ele>1105</ele>
        <time>2026-05-09T11:17:52.569Z</time>
      </trkpt>
      <trkpt lat="47.89739" lon="6.91246">
        <ele>1105</ele>
        <time>2026-05-09T11:17:53.568Z</time>
      </trkpt>
      <trkpt lat="47.89741" lon="6.91245">
        <ele>1105</ele>
        <time>2026-05-09T11:17:54.568Z</time>
      </trkpt>
      <trkpt lat="47.89743" lon="6.91244">
        <ele>1105</ele>
        <time>2026-05-09T11:17:55.569Z</time>
      </trkpt>
      <trkpt lat="47.89746" lon="6.91243">
        <ele>1105</ele>
        <time>2026-05-09T11:17:56.568Z</time>
      </trkpt>
      <trkpt lat="47.89747" lon="6.91243">
        <ele>1105</ele>
        <time>2026-05-09T11:17:57.569Z</time>
      </trkpt>
      <trkpt lat="47.89747" lon="6.91243">
        <ele>1105</ele>
        <time>2026-05-09T11:17:58.569Z</time>
      </trkpt>
      <trkpt lat="47.89746" lon="6.91243">
        <ele>1105</ele>
        <time>2026-05-09T11:17:59.569Z</time>
      </trkpt>
      <trkpt lat="47.89747" lon="6.91243">
        <ele>1105</ele>
        <time>2026-05-09T11:18:00.568Z</time>
      </trkpt>
      <trkpt lat="47.89748" lon="6.91243">
        <ele>1105</ele>
        <time>2026-05-09T11:18:01.568Z</time>
      </trkpt>
      <trkpt lat="47.89748" lon="6.91243">
        <ele>1105</ele>
        <time>2026-05-09T11:18:02.569Z</time>
      </trkpt>
      <trkpt lat="47.89748" lon="6.91243">
        <ele>1105</ele>
        <time>2026-05-09T11:18:03.569Z</time>
      </trkpt>
      <trkpt lat="47.89749" lon="6.91242">
        <ele>1105</ele>
        <time>2026-05-09T11:18:10.756Z</time>
      </trkpt>
      <trkpt lat="47.89749" lon="6.91243">
        <ele>1104</ele>
        <time>2026-05-09T11:18:11.755Z</time>
      </trkpt>
      <trkpt lat="47.89749" lon="6.91242">
        <ele>1104</ele>
        <time>2026-05-09T11:18:12.755Z</time>
      </trkpt>
      <trkpt lat="47.8975" lon="6.91243">
        <ele>1103</ele>
        <time>2026-05-09T11:18:13.756Z</time>
      </trkpt>
      <trkpt lat="47.8975" lon="6.91243">
        <ele>1103</ele>
        <time>2026-05-09T11:18:14.755Z</time>
      </trkpt>
      <trkpt lat="47.8975" lon="6.91243">
        <ele>1103</ele>
        <time>2026-05-09T11:18:15.756Z</time>
      </trkpt>
      <trkpt lat="47.89749" lon="6.91244">
        <ele>1103</ele>
        <time>2026-05-09T11:18:16.756Z</time>
      </trkpt>
      <trkpt lat="47.89749" lon="6.91245">
        <ele>1103</ele>
        <time>2026-05-09T11:18:17.755Z</time>
      </trkpt>
      <trkpt lat="47.89749" lon="6.91245">
        <ele>1103</ele>
        <time>2026-05-09T11:18:18.756Z</time>
      </trkpt>
      <trkpt lat="47.89749" lon="6.91246">
        <ele>1103</ele>
        <time>2026-05-09T11:18:19.755Z</time>
      </trkpt>
      <trkpt lat="47.89749" lon="6.91246">
        <ele>1103</ele>
        <time>2026-05-09T11:18:20.755Z</time>
      </trkpt>
      <trkpt lat="47.89749" lon="6.91246">
        <ele>1104</ele>
        <time>2026-05-09T11:18:21.755Z</time>
      </trkpt>
      <trkpt lat="47.89748" lon="6.91247">
        <ele>1104</ele>
        <time>2026-05-09T11:18:22.756Z</time>
      </trkpt>
      <trkpt lat="47.89748" lon="6.91247">
        <ele>1104</ele>
        <time>2026-05-09T11:18:23.755Z</time>
      </trkpt>
      <trkpt lat="47.89749" lon="6.91247">
        <ele>1105</ele>
        <time>2026-05-09T11:18:24.755Z</time>
      </trkpt>
      <trkpt lat="47.89751" lon="6.91247">
        <ele>1105</ele>
        <time>2026-05-09T11:18:25.755Z</time>
      </trkpt>
      <trkpt lat="47.89752" lon="6.91247">
        <ele>1106</ele>
        <time>2026-05-09T11:18:26.755Z</time>
      </trkpt>
      <trkpt lat="47.89752" lon="6.91248">
        <ele>1106</ele>
        <time>2026-05-09T11:18:27.755Z</time>
      </trkpt>
      <trkpt lat="47.89756" lon="6.91251">
        <ele>1107</ele>
        <time>2026-05-09T11:18:35.941Z</time>
      </trkpt>
      <trkpt lat="47.89756" lon="6.91252">
        <ele>1107</ele>
        <time>2026-05-09T11:18:36.942Z</time>
      </trkpt>
      <trkpt lat="47.89758" lon="6.91252">
        <ele>1107</ele>
        <time>2026-05-09T11:18:37.941Z</time>
      </trkpt>
      <trkpt lat="47.89758" lon="6.91253">
        <ele>1107</ele>
        <time>2026-05-09T11:18:38.942Z</time>
      </trkpt>
      <trkpt lat="47.89757" lon="6.91254">
        <ele>1107</ele>
        <time>2026-05-09T11:18:39.941Z</time>
      </trkpt>
      <trkpt lat="47.89757" lon="6.91254">
        <ele>1107</ele>
        <time>2026-05-09T11:18:40.942Z</time>
      </trkpt>
      <trkpt lat="47.89757" lon="6.91255">
        <ele>1107</ele>
        <time>2026-05-09T11:18:41.941Z</time>
      </trkpt>
      <trkpt lat="47.89757" lon="6.91256">
        <ele>1107</ele>
        <time>2026-05-09T11:18:42.941Z</time>
      </trkpt>
      <trkpt lat="47.89756" lon="6.91257">
        <ele>1107</ele>
        <time>2026-05-09T11:18:43.942Z</time>
      </trkpt>
      <trkpt lat="47.89756" lon="6.91258">
        <ele>1107</ele>
        <time>2026-05-09T11:18:44.941Z</time>
      </trkpt>
      <trkpt lat="47.89756" lon="6.91259">
        <ele>1107</ele>
        <time>2026-05-09T11:18:45.942Z</time>
      </trkpt>
      <trkpt lat="47.89756" lon="6.91261">
        <ele>1106</ele>
        <time>2026-05-09T11:18:46.941Z</time>
      </trkpt>
      <trkpt lat="47.89756" lon="6.91263">
        <ele>1106</ele>
        <time>2026-05-09T11:18:47.942Z</time>
      </trkpt>
      <trkpt lat="47.89756" lon="6.91264">
        <ele>1105</ele>
        <time>2026-05-09T11:18:48.941Z</time>
      </trkpt>
      <trkpt lat="47.89756" lon="6.91266">
        <ele>1105</ele>
        <time>2026-05-09T11:18:49.942Z</time>
      </trkpt>
      <trkpt lat="47.89754" lon="6.91267">
        <ele>1105</ele>
        <time>2026-05-09T11:18:50.941Z</time>
      </trkpt>
      <trkpt lat="47.89754" lon="6.91268">
        <ele>1104</ele>
        <time>2026-05-09T11:18:51.942Z</time>
      </trkpt>
      <trkpt lat="47.89753" lon="6.9127">
        <ele>1104</ele>
        <time>2026-05-09T11:18:52.942Z</time>
      </trkpt>
      <trkpt lat="47.89752" lon="6.91271">
        <ele>1104</ele>
        <time>2026-05-09T11:18:53.942Z</time>
      </trkpt>
      <trkpt lat="47.89752" lon="6.91272">
        <ele>1104</ele>
        <time>2026-05-09T11:18:54.941Z</time>
      </trkpt>
      <trkpt lat="47.89751" lon="6.91274">
        <ele>1104</ele>
        <time>2026-05-09T11:18:55.942Z</time>
      </trkpt>
      <trkpt lat="47.8975" lon="6.91275">
        <ele>1103</ele>
        <time>2026-05-09T11:18:56.941Z</time>
      </trkpt>
      <trkpt lat="47.8975" lon="6.91277">
        <ele>1104</ele>
        <time>2026-05-09T11:18:57.942Z</time>
      </trkpt>
      <trkpt lat="47.89749" lon="6.91278">
        <ele>1104</ele>
        <time>2026-05-09T11:18:58.941Z</time>
      </trkpt>
      <trkpt lat="47.89749" lon="6.91279">
        <ele>1104</ele>
        <time>2026-05-09T11:18:59.942Z</time>
      </trkpt>
      <trkpt lat="47.89748" lon="6.9128">
        <ele>1104</ele>
        <time>2026-05-09T11:19:00.941Z</time>
      </trkpt>
      <trkpt lat="47.89747" lon="6.91282">
        <ele>1104</ele>
        <time>2026-05-09T11:19:01.942Z</time>
      </trkpt>
      <trkpt lat="47.89746" lon="6.91283">
        <ele>1104</ele>
        <time>2026-05-09T11:19:02.941Z</time>
      </trkpt>
      <trkpt lat="47.89746" lon="6.91284">
        <ele>1104</ele>
        <time>2026-05-09T11:19:03.942Z</time>
      </trkpt>
      <trkpt lat="47.89746" lon="6.91286">
        <ele>1104</ele>
        <time>2026-05-09T11:19:04.941Z</time>
      </trkpt>
      <trkpt lat="47.89745" lon="6.91288">
        <ele>1104</ele>
        <time>2026-05-09T11:19:05.942Z</time>
      </trkpt>
      <trkpt lat="47.89745" lon="6.91289">
        <ele>1104</ele>
        <time>2026-05-09T11:19:06.941Z</time>
      </trkpt>
      <trkpt lat="47.89746" lon="6.9129">
        <ele>1105</ele>
        <time>2026-05-09T11:19:07.942Z</time>
      </trkpt>
      <trkpt lat="47.89747" lon="6.9129">
        <ele>1105</ele>
        <time>2026-05-09T11:19:08.942Z</time>
      </trkpt>
      <trkpt lat="47.89748" lon="6.9129">
        <ele>1105</ele>
        <time>2026-05-09T11:19:09.941Z</time>
      </trkpt>
      <trkpt lat="47.89748" lon="6.91291">
        <ele>1106</ele>
        <time>2026-05-09T11:19:10.942Z</time>
      </trkpt>
      <trkpt lat="47.89748" lon="6.91292">
        <ele>1106</ele>
        <time>2026-05-09T11:19:11.941Z</time>
      </trkpt>
      <trkpt lat="47.89748" lon="6.91293">
        <ele>1106</ele>
        <time>2026-05-09T11:19:12.941Z</time>
      </trkpt>
      <trkpt lat="47.89748" lon="6.91294">
        <ele>1106</ele>
        <time>2026-05-09T11:19:13.941Z</time>
      </trkpt>
      <trkpt lat="47.89748" lon="6.91295">
        <ele>1106</ele>
        <time>2026-05-09T11:19:14.942Z</time>
      </trkpt>
      <trkpt lat="47.89748" lon="6.91296">
        <ele>1107</ele>
        <time>2026-05-09T11:19:15.941Z</time>
      </trkpt>
      <trkpt lat="47.89748" lon="6.91297">
        <ele>1107</ele>
        <time>2026-05-09T11:19:16.942Z</time>
      </trkpt>
      <trkpt lat="47.89749" lon="6.91297">
        <ele>1107</ele>
        <time>2026-05-09T11:19:17.941Z</time>
      </trkpt>
      <trkpt lat="47.89749" lon="6.91297">
        <ele>1108</ele>
        <time>2026-05-09T11:19:18.942Z</time>
      </trkpt>
      <trkpt lat="47.89749" lon="6.91298">
        <ele>1108</ele>
        <time>2026-05-09T11:19:19.941Z</time>
      </trkpt>
      <trkpt lat="47.89749" lon="6.91299">
        <ele>1108</ele>
        <time>2026-05-09T11:19:20.941Z</time>
      </trkpt>
      <trkpt lat="47.89749" lon="6.913">
        <ele>1108</ele>
        <time>2026-05-09T11:19:21.941Z</time>
      </trkpt>
      <trkpt lat="47.89748" lon="6.91301">
        <ele>1109</ele>
        <time>2026-05-09T11:19:22.942Z</time>
      </trkpt>
      <trkpt lat="47.89748" lon="6.91302">
        <ele>1109</ele>
        <time>2026-05-09T11:19:23.941Z</time>
      </trkpt>
      <trkpt lat="47.89748" lon="6.91303">
        <ele>1110</ele>
        <time>2026-05-09T11:19:24.942Z</time>
      </trkpt>
      <trkpt lat="47.89747" lon="6.91305">
        <ele>1110</ele>
        <time>2026-05-09T11:19:25.941Z</time>
      </trkpt>
      <trkpt lat="47.89747" lon="6.91307">
        <ele>1111</ele>
        <time>2026-05-09T11:19:26.942Z</time>
      </trkpt>
      <trkpt lat="47.89747" lon="6.91309">
        <ele>1111</ele>
        <time>2026-05-09T11:19:27.941Z</time>
      </trkpt>
      <trkpt lat="47.89747" lon="6.91311">
        <ele>1112</ele>
        <time>2026-05-09T11:19:28.941Z</time>
      </trkpt>
      <trkpt lat="47.89746" lon="6.91314">
        <ele>1112</ele>
        <time>2026-05-09T11:19:29.941Z</time>
      </trkpt>
      <trkpt lat="47.89746" lon="6.91316">
        <ele>1112</ele>
        <time>2026-05-09T11:19:30.942Z</time>
      </trkpt>
      <trkpt lat="47.89746" lon="6.91317">
        <ele>1113</ele>
        <time>2026-05-09T11:19:31.941Z</time>
      </trkpt>
      <trkpt lat="47.89745" lon="6.91319">
        <ele>1113</ele>
        <time>2026-05-09T11:19:32.942Z</time>
      </trkpt>
      <trkpt lat="47.89745" lon="6.91322">
        <ele>1113</ele>
        <time>2026-05-09T11:19:33.941Z</time>
      </trkpt>
      <trkpt lat="47.89745" lon="6.91324">
        <ele>1114</ele>
        <time>2026-05-09T11:19:34.942Z</time>
      </trkpt>
      <trkpt lat="47.89745" lon="6.91326">
        <ele>1114</ele>
        <time>2026-05-09T11:19:35.942Z</time>
      </trkpt>
      <trkpt lat="47.89745" lon="6.91328">
        <ele>1114</ele>
        <time>2026-05-09T11:19:36.942Z</time>
      </trkpt>
      <trkpt lat="47.89744" lon="6.9133">
        <ele>1115</ele>
        <time>2026-05-09T11:19:37.941Z</time>
      </trkpt>
      <trkpt lat="47.89743" lon="6.91332">
        <ele>1115</ele>
        <time>2026-05-09T11:19:38.942Z</time>
      </trkpt>
      <trkpt lat="47.89743" lon="6.91333">
        <ele>1115</ele>
        <time>2026-05-09T11:19:39.942Z</time>
      </trkpt>
      <trkpt lat="47.89744" lon="6.91335">
        <ele>1115</ele>
        <time>2026-05-09T11:19:40.941Z</time>
      </trkpt>
      <trkpt lat="47.89745" lon="6.91336">
        <ele>1116</ele>
        <time>2026-05-09T11:19:41.942Z</time>
      </trkpt>
      <trkpt lat="47.89745" lon="6.91338">
        <ele>1116</ele>
        <time>2026-05-09T11:19:42.941Z</time>
      </trkpt>
      <trkpt lat="47.89746" lon="6.91339">
        <ele>1116</ele>
        <time>2026-05-09T11:19:43.941Z</time>
      </trkpt>
      <trkpt lat="47.89745" lon="6.91341">
        <ele>1117</ele>
        <time>2026-05-09T11:19:44.941Z</time>
      </trkpt>
      <trkpt lat="47.89745" lon="6.91343">
        <ele>1117</ele>
        <time>2026-05-09T11:19:45.942Z</time>
      </trkpt>
      <trkpt lat="47.89745" lon="6.91345">
        <ele>1117</ele>
        <time>2026-05-09T11:19:46.942Z</time>
      </trkpt>
      <trkpt lat="47.89745" lon="6.91347">
        <ele>1118</ele>
        <time>2026-05-09T11:19:47.941Z</time>
      </trkpt>
      <trkpt lat="47.89744" lon="6.91348">
        <ele>1118</ele>
        <time>2026-05-09T11:19:48.941Z</time>
      </trkpt>
      <trkpt lat="47.89745" lon="6.91349">
        <ele>1118</ele>
        <time>2026-05-09T11:19:49.941Z</time>
      </trkpt>
      <trkpt lat="47.89744" lon="6.91351">
        <ele>1118</ele>
        <time>2026-05-09T11:19:50.942Z</time>
      </trkpt>
      <trkpt lat="47.89744" lon="6.91352">
        <ele>1119</ele>
        <time>2026-05-09T11:19:51.941Z</time>
      </trkpt>
      <trkpt lat="47.89744" lon="6.91353">
        <ele>1119</ele>
        <time>2026-05-09T11:19:52.942Z</time>
      </trkpt>
      <trkpt lat="47.89744" lon="6.91354">
        <ele>1120</ele>
        <time>2026-05-09T11:19:53.941Z</time>
      </trkpt>
      <trkpt lat="47.89744" lon="6.91354">
        <ele>1120</ele>
        <time>2026-05-09T11:19:54.941Z</time>
      </trkpt>
      <trkpt lat="47.89743" lon="6.91355">
        <ele>1120</ele>
        <time>2026-05-09T11:19:55.941Z</time>
      </trkpt>
      <trkpt lat="47.89743" lon="6.91357">
        <ele>1120</ele>
        <time>2026-05-09T11:19:56.942Z</time>
      </trkpt>
      <trkpt lat="47.89743" lon="6.91358">
        <ele>1121</ele>
        <time>2026-05-09T11:19:57.942Z</time>
      </trkpt>
      <trkpt lat="47.89744" lon="6.9136">
        <ele>1121</ele>
        <time>2026-05-09T11:19:58.941Z</time>
      </trkpt>
      <trkpt lat="47.89744" lon="6.91361">
        <ele>1122</ele>
        <time>2026-05-09T11:19:59.941Z</time>
      </trkpt>
      <trkpt lat="47.89744" lon="6.91362">
        <ele>1122</ele>
        <time>2026-05-09T11:20:00.941Z</time>
      </trkpt>
      <trkpt lat="47.89744" lon="6.91363">
        <ele>1122</ele>
        <time>2026-05-09T11:20:01.942Z</time>
      </trkpt>
      <trkpt lat="47.89744" lon="6.91364">
        <ele>1122</ele>
        <time>2026-05-09T11:20:02.941Z</time>
      </trkpt>
      <trkpt lat="47.89743" lon="6.91365">
        <ele>1122</ele>
        <time>2026-05-09T11:20:03.942Z</time>
      </trkpt>
      <trkpt lat="47.89744" lon="6.91366">
        <ele>1122</ele>
        <time>2026-05-09T11:20:04.941Z</time>
      </trkpt>
      <trkpt lat="47.89743" lon="6.91368">
        <ele>1122</ele>
        <time>2026-05-09T11:20:05.942Z</time>
      </trkpt>
      <trkpt lat="47.89743" lon="6.91369">
        <ele>1122</ele>
        <time>2026-05-09T11:20:06.941Z</time>
      </trkpt>
      <trkpt lat="47.89743" lon="6.9137">
        <ele>1122</ele>
        <time>2026-05-09T11:20:07.942Z</time>
      </trkpt>
      <trkpt lat="47.89744" lon="6.91371">
        <ele>1122</ele>
        <time>2026-05-09T11:20:08.942Z</time>
      </trkpt>
      <trkpt lat="47.89744" lon="6.91373">
        <ele>1122</ele>
        <time>2026-05-09T11:20:09.941Z</time>
      </trkpt>
      <trkpt lat="47.89744" lon="6.91375">
        <ele>1122</ele>
        <time>2026-05-09T11:20:10.942Z</time>
      </trkpt>
      <trkpt lat="47.89744" lon="6.91376">
        <ele>1122</ele>
        <time>2026-05-09T11:20:11.941Z</time>
      </trkpt>
      <trkpt lat="47.89744" lon="6.91378">
        <ele>1121</ele>
        <time>2026-05-09T11:20:12.941Z</time>
      </trkpt>
      <trkpt lat="47.89744" lon="6.91379">
        <ele>1121</ele>
        <time>2026-05-09T11:20:13.942Z</time>
      </trkpt>
      <trkpt lat="47.89744" lon="6.9138">
        <ele>1121</ele>
        <time>2026-05-09T11:20:14.942Z</time>
      </trkpt>
      <trkpt lat="47.89745" lon="6.91381">
        <ele>1121</ele>
        <time>2026-05-09T11:20:15.941Z</time>
      </trkpt>
      <trkpt lat="47.89745" lon="6.91383">
        <ele>1121</ele>
        <time>2026-05-09T11:20:16.941Z</time>
      </trkpt>
      <trkpt lat="47.89745" lon="6.91384">
        <ele>1122</ele>
        <time>2026-05-09T11:20:17.942Z</time>
      </trkpt>
      <trkpt lat="47.89746" lon="6.91385">
        <ele>1122</ele>
        <time>2026-05-09T11:20:18.941Z</time>
      </trkpt>
      <trkpt lat="47.89746" lon="6.91385">
        <ele>1122</ele>
        <time>2026-05-09T11:20:19.941Z</time>
      </trkpt>
      <trkpt lat="47.89747" lon="6.91386">
        <ele>1123</ele>
        <time>2026-05-09T11:20:20.941Z</time>
      </trkpt>
      <trkpt lat="47.89746" lon="6.91388">
        <ele>1123</ele>
        <time>2026-05-09T11:20:21.942Z</time>
      </trkpt>
      <trkpt lat="47.89746" lon="6.91389">
        <ele>1123</ele>
        <time>2026-05-09T11:20:22.942Z</time>
      </trkpt>
      <trkpt lat="47.89746" lon="6.9139">
        <ele>1123</ele>
        <time>2026-05-09T11:20:23.942Z</time>
      </trkpt>
      <trkpt lat="47.89745" lon="6.91391">
        <ele>1123</ele>
        <time>2026-05-09T11:20:24.941Z</time>
      </trkpt>
      <trkpt lat="47.89745" lon="6.91392">
        <ele>1123</ele>
        <time>2026-05-09T11:20:25.942Z</time>
      </trkpt>
      <trkpt lat="47.89744" lon="6.91393">
        <ele>1123</ele>
        <time>2026-05-09T11:20:26.942Z</time>
      </trkpt>
      <trkpt lat="47.89744" lon="6.91394">
        <ele>1123</ele>
        <time>2026-05-09T11:20:27.942Z</time>
      </trkpt>
      <trkpt lat="47.89744" lon="6.91395">
        <ele>1123</ele>
        <time>2026-05-09T11:20:28.942Z</time>
      </trkpt>
      <trkpt lat="47.89744" lon="6.91397">
        <ele>1123</ele>
        <time>2026-05-09T11:20:29.942Z</time>
      </trkpt>
      <trkpt lat="47.89745" lon="6.91398">
        <ele>1123</ele>
        <time>2026-05-09T11:20:30.941Z</time>
      </trkpt>
      <trkpt lat="47.89744" lon="6.914">
        <ele>1123</ele>
        <time>2026-05-09T11:20:31.942Z</time>
      </trkpt>
      <trkpt lat="47.89744" lon="6.914">
        <ele>1123</ele>
        <time>2026-05-09T11:20:32.942Z</time>
      </trkpt>
      <trkpt lat="47.89744" lon="6.91402">
        <ele>1123</ele>
        <time>2026-05-09T11:20:33.942Z</time>
      </trkpt>
      <trkpt lat="47.89743" lon="6.91403">
        <ele>1122</ele>
        <time>2026-05-09T11:20:34.941Z</time>
      </trkpt>
      <trkpt lat="47.89743" lon="6.91404">
        <ele>1122</ele>
        <time>2026-05-09T11:20:35.942Z</time>
      </trkpt>
      <trkpt lat="47.89742" lon="6.91405">
        <ele>1122</ele>
        <time>2026-05-09T11:20:36.942Z</time>
      </trkpt>
      <trkpt lat="47.89743" lon="6.91406">
        <ele>1123</ele>
        <time>2026-05-09T11:20:37.942Z</time>
      </trkpt>
      <trkpt lat="47.89743" lon="6.91407">
        <ele>1123</ele>
        <time>2026-05-09T11:20:38.941Z</time>
      </trkpt>
      <trkpt lat="47.89742" lon="6.91408">
        <ele>1124</ele>
        <time>2026-05-09T11:20:39.941Z</time>
      </trkpt>
      <trkpt lat="47.89742" lon="6.9141">
        <ele>1124</ele>
        <time>2026-05-09T11:20:40.942Z</time>
      </trkpt>
      <trkpt lat="47.89742" lon="6.91411">
        <ele>1125</ele>
        <time>2026-05-09T11:20:41.942Z</time>
      </trkpt>
      <trkpt lat="47.89742" lon="6.91412">
        <ele>1125</ele>
        <time>2026-05-09T11:20:42.942Z</time>
      </trkpt>
      <trkpt lat="47.89741" lon="6.91413">
        <ele>1125</ele>
        <time>2026-05-09T11:20:43.941Z</time>
      </trkpt>
      <trkpt lat="47.89742" lon="6.91414">
        <ele>1125</ele>
        <time>2026-05-09T11:20:44.941Z</time>
      </trkpt>
      <trkpt lat="47.89742" lon="6.91415">
        <ele>1126</ele>
        <time>2026-05-09T11:20:45.941Z</time>
      </trkpt>
      <trkpt lat="47.89742" lon="6.91417">
        <ele>1126</ele>
        <time>2026-05-09T11:20:46.942Z</time>
      </trkpt>
      <trkpt lat="47.89742" lon="6.91418">
        <ele>1126</ele>
        <time>2026-05-09T11:20:47.942Z</time>
      </trkpt>
      <trkpt lat="47.89742" lon="6.91419">
        <ele>1127</ele>
        <time>2026-05-09T11:20:48.942Z</time>
      </trkpt>
      <trkpt lat="47.89743" lon="6.9142">
        <ele>1127</ele>
        <time>2026-05-09T11:20:49.941Z</time>
      </trkpt>
      <trkpt lat="47.89744" lon="6.91421">
        <ele>1128</ele>
        <time>2026-05-09T11:20:50.941Z</time>
      </trkpt>
      <trkpt lat="47.89745" lon="6.91421">
        <ele>1128</ele>
        <time>2026-05-09T11:20:51.942Z</time>
      </trkpt>
      <trkpt lat="47.89745" lon="6.91422">
        <ele>1128</ele>
        <time>2026-05-09T11:20:52.942Z</time>
      </trkpt>
      <trkpt lat="47.89746" lon="6.91424">
        <ele>1129</ele>
        <time>2026-05-09T11:20:53.941Z</time>
      </trkpt>
      <trkpt lat="47.89747" lon="6.91425">
        <ele>1129</ele>
        <time>2026-05-09T11:20:54.942Z</time>
      </trkpt>
      <trkpt lat="47.89747" lon="6.91426">
        <ele>1129</ele>
        <time>2026-05-09T11:20:55.941Z</time>
      </trkpt>
      <trkpt lat="47.89748" lon="6.91426">
        <ele>1130</ele>
        <time>2026-05-09T11:20:56.942Z</time>
      </trkpt>
      <trkpt lat="47.89748" lon="6.91427">
        <ele>1130</ele>
        <time>2026-05-09T11:20:57.942Z</time>
      </trkpt>
      <trkpt lat="47.89749" lon="6.91428">
        <ele>1130</ele>
        <time>2026-05-09T11:20:58.941Z</time>
      </trkpt>
      <trkpt lat="47.89749" lon="6.91429">
        <ele>1130</ele>
        <time>2026-05-09T11:20:59.942Z</time>
      </trkpt>
      <trkpt lat="47.89749" lon="6.91429">
        <ele>1131</ele>
        <time>2026-05-09T11:21:00.942Z</time>
      </trkpt>
      <trkpt lat="47.89749" lon="6.9143">
        <ele>1131</ele>
        <time>2026-05-09T11:21:01.942Z</time>
      </trkpt>
      <trkpt lat="47.89748" lon="6.91432">
        <ele>1131</ele>
        <time>2026-05-09T11:21:02.942Z</time>
      </trkpt>
      <trkpt lat="47.89747" lon="6.91434">
        <ele>1131</ele>
        <time>2026-05-09T11:21:03.942Z</time>
      </trkpt>
      <trkpt lat="47.89746" lon="6.91435">
        <ele>1132</ele>
        <time>2026-05-09T11:21:04.941Z</time>
      </trkpt>
      <trkpt lat="47.89746" lon="6.91437">
        <ele>1132</ele>
        <time>2026-05-09T11:21:05.942Z</time>
      </trkpt>
      <trkpt lat="47.89746" lon="6.91438">
        <ele>1132</ele>
        <time>2026-05-09T11:21:06.941Z</time>
      </trkpt>
      <trkpt lat="47.89746" lon="6.91439">
        <ele>1133</ele>
        <time>2026-05-09T11:21:07.941Z</time>
      </trkpt>
      <trkpt lat="47.89746" lon="6.91441">
        <ele>1133</ele>
        <time>2026-05-09T11:21:08.942Z</time>
      </trkpt>
      <trkpt lat="47.89746" lon="6.91442">
        <ele>1133</ele>
        <time>2026-05-09T11:21:09.941Z</time>
      </trkpt>
      <trkpt lat="47.89748" lon="6.91442">
        <ele>1133</ele>
        <time>2026-05-09T11:21:10.942Z</time>
      </trkpt>
      <trkpt lat="47.89748" lon="6.91443">
        <ele>1133</ele>
        <time>2026-05-09T11:21:11.941Z</time>
      </trkpt>
      <trkpt lat="47.89748" lon="6.91444">
        <ele>1134</ele>
        <time>2026-05-09T11:21:12.942Z</time>
      </trkpt>
      <trkpt lat="47.89748" lon="6.91446">
        <ele>1134</ele>
        <time>2026-05-09T11:21:13.942Z</time>
      </trkpt>
      <trkpt lat="47.89748" lon="6.91447">
        <ele>1134</ele>
        <time>2026-05-09T11:21:14.942Z</time>
      </trkpt>
      <trkpt lat="47.89748" lon="6.91449">
        <ele>1135</ele>
        <time>2026-05-09T11:21:15.942Z</time>
      </trkpt>
      <trkpt lat="47.89748" lon="6.9145">
        <ele>1135</ele>
        <time>2026-05-09T11:21:16.942Z</time>
      </trkpt>
      <trkpt lat="47.89749" lon="6.91452">
        <ele>1135</ele>
        <time>2026-05-09T11:21:17.942Z</time>
      </trkpt>
      <trkpt lat="47.89749" lon="6.91453">
        <ele>1135</ele>
        <time>2026-05-09T11:21:18.942Z</time>
      </trkpt>
      <trkpt lat="47.8975" lon="6.91454">
        <ele>1136</ele>
        <time>2026-05-09T11:21:19.942Z</time>
      </trkpt>
      <trkpt lat="47.89751" lon="6.91455">
        <ele>1136</ele>
        <time>2026-05-09T11:21:20.942Z</time>
      </trkpt>
      <trkpt lat="47.89751" lon="6.91456">
        <ele>1136</ele>
        <time>2026-05-09T11:21:21.941Z</time>
      </trkpt>
      <trkpt lat="47.89751" lon="6.91457">
        <ele>1136</ele>
        <time>2026-05-09T11:21:22.942Z</time>
      </trkpt>
      <trkpt lat="47.89752" lon="6.91457">
        <ele>1137</ele>
        <time>2026-05-09T11:21:23.941Z</time>
      </trkpt>
      <trkpt lat="47.89752" lon="6.91458">
        <ele>1137</ele>
        <time>2026-05-09T11:21:24.941Z</time>
      </trkpt>
      <trkpt lat="47.89752" lon="6.91459">
        <ele>1137</ele>
        <time>2026-05-09T11:21:25.941Z</time>
      </trkpt>
      <trkpt lat="47.89753" lon="6.91461">
        <ele>1137</ele>
        <time>2026-05-09T11:21:26.942Z</time>
      </trkpt>
      <trkpt lat="47.89753" lon="6.91463">
        <ele>1137</ele>
        <time>2026-05-09T11:21:27.942Z</time>
      </trkpt>
      <trkpt lat="47.89753" lon="6.91464">
        <ele>1137</ele>
        <time>2026-05-09T11:21:28.942Z</time>
      </trkpt>
      <trkpt lat="47.89754" lon="6.91465">
        <ele>1137</ele>
        <time>2026-05-09T11:21:29.942Z</time>
      </trkpt>
      <trkpt lat="47.89754" lon="6.91466">
        <ele>1137</ele>
        <time>2026-05-09T11:21:30.942Z</time>
      </trkpt>
      <trkpt lat="47.89755" lon="6.91468">
        <ele>1137</ele>
        <time>2026-05-09T11:21:31.941Z</time>
      </trkpt>
      <trkpt lat="47.89755" lon="6.91469">
        <ele>1137</ele>
        <time>2026-05-09T11:21:32.941Z</time>
      </trkpt>
      <trkpt lat="47.89754" lon="6.91471">
        <ele>1138</ele>
        <time>2026-05-09T11:21:33.941Z</time>
      </trkpt>
      <trkpt lat="47.89755" lon="6.91473">
        <ele>1138</ele>
        <time>2026-05-09T11:21:34.942Z</time>
      </trkpt>
      <trkpt lat="47.89755" lon="6.91474">
        <ele>1138</ele>
        <time>2026-05-09T11:21:35.942Z</time>
      </trkpt>
      <trkpt lat="47.89755" lon="6.91476">
        <ele>1137</ele>
        <time>2026-05-09T11:21:36.942Z</time>
      </trkpt>
      <trkpt lat="47.89756" lon="6.91477">
        <ele>1137</ele>
        <time>2026-05-09T11:21:37.941Z</time>
      </trkpt>
      <trkpt lat="47.89755" lon="6.91478">
        <ele>1137</ele>
        <time>2026-05-09T11:21:38.942Z</time>
      </trkpt>
      <trkpt lat="47.89756" lon="6.9148">
        <ele>1137</ele>
        <time>2026-05-09T11:21:39.941Z</time>
      </trkpt>
      <trkpt lat="47.89755" lon="6.91483">
        <ele>1136</ele>
        <time>2026-05-09T11:21:40.942Z</time>
      </trkpt>
      <trkpt lat="47.89755" lon="6.91485">
        <ele>1135</ele>
        <time>2026-05-09T11:21:41.941Z</time>
      </trkpt>
      <trkpt lat="47.89755" lon="6.91486">
        <ele>1135</ele>
        <time>2026-05-09T11:21:42.942Z</time>
      </trkpt>
      <trkpt lat="47.89754" lon="6.91488">
        <ele>1135</ele>
        <time>2026-05-09T11:21:43.941Z</time>
      </trkpt>
      <trkpt lat="47.89755" lon="6.9149">
        <ele>1134</ele>
        <time>2026-05-09T11:21:44.941Z</time>
      </trkpt>
      <trkpt lat="47.89754" lon="6.91492">
        <ele>1134</ele>
        <time>2026-05-09T11:21:45.942Z</time>
      </trkpt>
      <trkpt lat="47.89755" lon="6.91493">
        <ele>1134</ele>
        <time>2026-05-09T11:21:46.942Z</time>
      </trkpt>
      <trkpt lat="47.89755" lon="6.91492">
        <ele>1134</ele>
        <time>2026-05-09T11:21:47.942Z</time>
      </trkpt>
      <trkpt lat="47.89755" lon="6.91493">
        <ele>1134</ele>
        <time>2026-05-09T11:21:48.942Z</time>
      </trkpt>
      <trkpt lat="47.89755" lon="6.91494">
        <ele>1134</ele>
        <time>2026-05-09T11:21:49.942Z</time>
      </trkpt>
      <trkpt lat="47.89755" lon="6.91495">
        <ele>1134</ele>
        <time>2026-05-09T11:21:50.942Z</time>
      </trkpt>
      <trkpt lat="47.89754" lon="6.91496">
        <ele>1134</ele>
        <time>2026-05-09T11:21:51.942Z</time>
      </trkpt>
      <trkpt lat="47.89754" lon="6.91496">
        <ele>1134</ele>
        <time>2026-05-09T11:21:52.942Z</time>
      </trkpt>
      <trkpt lat="47.89753" lon="6.91498">
        <ele>1134</ele>
        <time>2026-05-09T11:21:53.941Z</time>
      </trkpt>
      <trkpt lat="47.89753" lon="6.91499">
        <ele>1135</ele>
        <time>2026-05-09T11:21:54.941Z</time>
      </trkpt>
      <trkpt lat="47.89754" lon="6.915">
        <ele>1134</ele>
        <time>2026-05-09T11:21:55.941Z</time>
      </trkpt>
      <trkpt lat="47.89754" lon="6.91501">
        <ele>1134</ele>
        <time>2026-05-09T11:21:56.941Z</time>
      </trkpt>
      <trkpt lat="47.89755" lon="6.91501">
        <ele>1134</ele>
        <time>2026-05-09T11:21:57.942Z</time>
      </trkpt>
      <trkpt lat="47.89756" lon="6.91502">
        <ele>1135</ele>
        <time>2026-05-09T11:21:58.941Z</time>
      </trkpt>
      <trkpt lat="47.89756" lon="6.91503">
        <ele>1135</ele>
        <time>2026-05-09T11:21:59.941Z</time>
      </trkpt>
      <trkpt lat="47.89756" lon="6.91504">
        <ele>1135</ele>
        <time>2026-05-09T11:22:00.941Z</time>
      </trkpt>
      <trkpt lat="47.89755" lon="6.91505">
        <ele>1135</ele>
        <time>2026-05-09T11:22:01.942Z</time>
      </trkpt>
      <trkpt lat="47.89755" lon="6.91506">
        <ele>1136</ele>
        <time>2026-05-09T11:22:02.941Z</time>
      </trkpt>
      <trkpt lat="47.89755" lon="6.91506">
        <ele>1136</ele>
        <time>2026-05-09T11:22:03.942Z</time>
      </trkpt>
      <trkpt lat="47.89755" lon="6.91507">
        <ele>1137</ele>
        <time>2026-05-09T11:22:04.941Z</time>
      </trkpt>
      <trkpt lat="47.89754" lon="6.91508">
        <ele>1137</ele>
        <time>2026-05-09T11:22:05.941Z</time>
      </trkpt>
      <trkpt lat="47.89754" lon="6.91508">
        <ele>1138</ele>
        <time>2026-05-09T11:22:06.942Z</time>
      </trkpt>
      <trkpt lat="47.89754" lon="6.91509">
        <ele>1138</ele>
        <time>2026-05-09T11:22:07.942Z</time>
      </trkpt>
      <trkpt lat="47.89754" lon="6.9151">
        <ele>1138</ele>
        <time>2026-05-09T11:22:08.942Z</time>
      </trkpt>
      <trkpt lat="47.89755" lon="6.91511">
        <ele>1139</ele>
        <time>2026-05-09T11:22:09.942Z</time>
      </trkpt>
      <trkpt lat="47.89755" lon="6.91512">
        <ele>1139</ele>
        <time>2026-05-09T11:22:10.941Z</time>
      </trkpt>
      <trkpt lat="47.89755" lon="6.91513">
        <ele>1139</ele>
        <time>2026-05-09T11:22:11.941Z</time>
      </trkpt>
      <trkpt lat="47.89755" lon="6.91514">
        <ele>1139</ele>
        <time>2026-05-09T11:22:12.941Z</time>
      </trkpt>
      <trkpt lat="47.89756" lon="6.91515">
        <ele>1139</ele>
        <time>2026-05-09T11:22:13.941Z</time>
      </trkpt>
      <trkpt lat="47.89756" lon="6.91516">
        <ele>1139</ele>
        <time>2026-05-09T11:22:14.941Z</time>
      </trkpt>
      <trkpt lat="47.89756" lon="6.91517">
        <ele>1139</ele>
        <time>2026-05-09T11:22:15.942Z</time>
      </trkpt>
      <trkpt lat="47.89756" lon="6.91518">
        <ele>1139</ele>
        <time>2026-05-09T11:22:16.942Z</time>
      </trkpt>
      <trkpt lat="47.89755" lon="6.91519">
        <ele>1139</ele>
        <time>2026-05-09T11:22:17.942Z</time>
      </trkpt>
      <trkpt lat="47.89755" lon="6.9152">
        <ele>1139</ele>
        <time>2026-05-09T11:22:18.941Z</time>
      </trkpt>
      <trkpt lat="47.89756" lon="6.91522">
        <ele>1139</ele>
        <time>2026-05-09T11:22:19.941Z</time>
      </trkpt>
      <trkpt lat="47.89757" lon="6.91523">
        <ele>1139</ele>
        <time>2026-05-09T11:22:20.941Z</time>
      </trkpt>
      <trkpt lat="47.89758" lon="6.91523">
        <ele>1140</ele>
        <time>2026-05-09T11:22:21.941Z</time>
      </trkpt>
      <trkpt lat="47.89759" lon="6.91524">
        <ele>1140</ele>
        <time>2026-05-09T11:22:22.941Z</time>
      </trkpt>
      <trkpt lat="47.8976" lon="6.91524">
        <ele>1140</ele>
        <time>2026-05-09T11:22:23.941Z</time>
      </trkpt>
      <trkpt lat="47.8976" lon="6.91525">
        <ele>1141</ele>
        <time>2026-05-09T11:22:24.942Z</time>
      </trkpt>
      <trkpt lat="47.8976" lon="6.91526">
        <ele>1141</ele>
        <time>2026-05-09T11:22:25.942Z</time>
      </trkpt>
      <trkpt lat="47.89761" lon="6.91527">
        <ele>1141</ele>
        <time>2026-05-09T11:22:26.941Z</time>
      </trkpt>
      <trkpt lat="47.89761" lon="6.91528">
        <ele>1142</ele>
        <time>2026-05-09T11:22:27.942Z</time>
      </trkpt>
      <trkpt lat="47.89761" lon="6.91529">
        <ele>1142</ele>
        <time>2026-05-09T11:22:28.942Z</time>
      </trkpt>
      <trkpt lat="47.89761" lon="6.9153">
        <ele>1143</ele>
        <time>2026-05-09T11:22:29.941Z</time>
      </trkpt>
      <trkpt lat="47.89761" lon="6.91531">
        <ele>1143</ele>
        <time>2026-05-09T11:22:30.941Z</time>
      </trkpt>
      <trkpt lat="47.89761" lon="6.91532">
        <ele>1144</ele>
        <time>2026-05-09T11:22:31.942Z</time>
      </trkpt>
      <trkpt lat="47.89762" lon="6.91532">
        <ele>1144</ele>
        <time>2026-05-09T11:22:32.942Z</time>
      </trkpt>
      <trkpt lat="47.89762" lon="6.91533">
        <ele>1144</ele>
        <time>2026-05-09T11:22:33.941Z</time>
      </trkpt>
      <trkpt lat="47.89763" lon="6.91534">
        <ele>1144</ele>
        <time>2026-05-09T11:22:34.941Z</time>
      </trkpt>
      <trkpt lat="47.89763" lon="6.91535">
        <ele>1144</ele>
        <time>2026-05-09T11:22:35.941Z</time>
      </trkpt>
      <trkpt lat="47.89763" lon="6.91537">
        <ele>1144</ele>
        <time>2026-05-09T11:22:36.941Z</time>
      </trkpt>
      <trkpt lat="47.89763" lon="6.91539">
        <ele>1144</ele>
        <time>2026-05-09T11:22:37.941Z</time>
      </trkpt>
      <trkpt lat="47.89765" lon="6.9154">
        <ele>1144</ele>
        <time>2026-05-09T11:22:38.942Z</time>
      </trkpt>
      <trkpt lat="47.89766" lon="6.91541">
        <ele>1144</ele>
        <time>2026-05-09T11:22:39.941Z</time>
      </trkpt>
      <trkpt lat="47.89767" lon="6.91542">
        <ele>1144</ele>
        <time>2026-05-09T11:22:40.942Z</time>
      </trkpt>
      <trkpt lat="47.89768" lon="6.91543">
        <ele>1145</ele>
        <time>2026-05-09T11:22:41.941Z</time>
      </trkpt>
      <trkpt lat="47.89768" lon="6.91544">
        <ele>1145</ele>
        <time>2026-05-09T11:22:42.941Z</time>
      </trkpt>
      <trkpt lat="47.89769" lon="6.91546">
        <ele>1145</ele>
        <time>2026-05-09T11:22:43.942Z</time>
      </trkpt>
      <trkpt lat="47.89769" lon="6.91548">
        <ele>1145</ele>
        <time>2026-05-09T11:22:44.941Z</time>
      </trkpt>
      <trkpt lat="47.89768" lon="6.9155">
        <ele>1146</ele>
        <time>2026-05-09T11:22:45.942Z</time>
      </trkpt>
      <trkpt lat="47.89768" lon="6.9155">
        <ele>1146</ele>
        <time>2026-05-09T11:22:46.942Z</time>
      </trkpt>
      <trkpt lat="47.89769" lon="6.91551">
        <ele>1146</ele>
        <time>2026-05-09T11:22:47.941Z</time>
      </trkpt>
      <trkpt lat="47.89769" lon="6.91552">
        <ele>1146</ele>
        <time>2026-05-09T11:22:48.941Z</time>
      </trkpt>
      <trkpt lat="47.89769" lon="6.91553">
        <ele>1146</ele>
        <time>2026-05-09T11:22:49.941Z</time>
      </trkpt>
      <trkpt lat="47.8977" lon="6.91553">
        <ele>1147</ele>
        <time>2026-05-09T11:22:50.942Z</time>
      </trkpt>
      <trkpt lat="47.8977" lon="6.91554">
        <ele>1147</ele>
        <time>2026-05-09T11:22:51.941Z</time>
      </trkpt>
      <trkpt lat="47.8977" lon="6.91555">
        <ele>1147</ele>
        <time>2026-05-09T11:22:52.942Z</time>
      </trkpt>
      <trkpt lat="47.89769" lon="6.91555">
        <ele>1147</ele>
        <time>2026-05-09T11:22:53.942Z</time>
      </trkpt>
      <trkpt lat="47.89769" lon="6.91556">
        <ele>1147</ele>
        <time>2026-05-09T11:22:54.942Z</time>
      </trkpt>
      <trkpt lat="47.8977" lon="6.91557">
        <ele>1148</ele>
        <time>2026-05-09T11:22:55.942Z</time>
      </trkpt>
      <trkpt lat="47.8977" lon="6.91558">
        <ele>1148</ele>
        <time>2026-05-09T11:22:56.941Z</time>
      </trkpt>
      <trkpt lat="47.89771" lon="6.91558">
        <ele>1149</ele>
        <time>2026-05-09T11:22:57.942Z</time>
      </trkpt>
      <trkpt lat="47.89772" lon="6.91559">
        <ele>1149</ele>
        <time>2026-05-09T11:22:58.941Z</time>
      </trkpt>
      <trkpt lat="47.89773" lon="6.9156">
        <ele>1149</ele>
        <time>2026-05-09T11:22:59.941Z</time>
      </trkpt>
      <trkpt lat="47.89774" lon="6.91561">
        <ele>1149</ele>
        <time>2026-05-09T11:23:00.942Z</time>
      </trkpt>
      <trkpt lat="47.89774" lon="6.91562">
        <ele>1150</ele>
        <time>2026-05-09T11:23:01.942Z</time>
      </trkpt>
      <trkpt lat="47.89775" lon="6.91563">
        <ele>1150</ele>
        <time>2026-05-09T11:23:02.941Z</time>
      </trkpt>
      <trkpt lat="47.89776" lon="6.91564">
        <ele>1151</ele>
        <time>2026-05-09T11:23:03.942Z</time>
      </trkpt>
      <trkpt lat="47.89776" lon="6.91565">
        <ele>1151</ele>
        <time>2026-05-09T11:23:04.941Z</time>
      </trkpt>
      <trkpt lat="47.89777" lon="6.91566">
        <ele>1151</ele>
        <time>2026-05-09T11:23:05.942Z</time>
      </trkpt>
      <trkpt lat="47.89777" lon="6.91567">
        <ele>1151</ele>
        <time>2026-05-09T11:23:06.941Z</time>
      </trkpt>
      <trkpt lat="47.89778" lon="6.91568">
        <ele>1151</ele>
        <time>2026-05-09T11:23:07.942Z</time>
      </trkpt>
      <trkpt lat="47.89779" lon="6.9157">
        <ele>1151</ele>
        <time>2026-05-09T11:23:08.942Z</time>
      </trkpt>
      <trkpt lat="47.8978" lon="6.91571">
        <ele>1152</ele>
        <time>2026-05-09T11:23:09.942Z</time>
      </trkpt>
      <trkpt lat="47.89781" lon="6.91571">
        <ele>1152</ele>
        <time>2026-05-09T11:23:10.941Z</time>
      </trkpt>
      <trkpt lat="47.89781" lon="6.91572">
        <ele>1152</ele>
        <time>2026-05-09T11:23:11.942Z</time>
      </trkpt>
      <trkpt lat="47.89781" lon="6.91573">
        <ele>1152</ele>
        <time>2026-05-09T11:23:12.941Z</time>
      </trkpt>
      <trkpt lat="47.89781" lon="6.91575">
        <ele>1152</ele>
        <time>2026-05-09T11:23:13.942Z</time>
      </trkpt>
      <trkpt lat="47.89781" lon="6.91575">
        <ele>1152</ele>
        <time>2026-05-09T11:23:14.941Z</time>
      </trkpt>
      <trkpt lat="47.89783" lon="6.91576">
        <ele>1152</ele>
        <time>2026-05-09T11:23:15.942Z</time>
      </trkpt>
      <trkpt lat="47.89784" lon="6.91576">
        <ele>1152</ele>
        <time>2026-05-09T11:23:16.942Z</time>
      </trkpt>
      <trkpt lat="47.89785" lon="6.91577">
        <ele>1152</ele>
        <time>2026-05-09T11:23:17.941Z</time>
      </trkpt>
      <trkpt lat="47.89785" lon="6.91577">
        <ele>1152</ele>
        <time>2026-05-09T11:23:18.942Z</time>
      </trkpt>
      <trkpt lat="47.89786" lon="6.91578">
        <ele>1152</ele>
        <time>2026-05-09T11:23:19.942Z</time>
      </trkpt>
      <trkpt lat="47.89786" lon="6.91578">
        <ele>1152</ele>
        <time>2026-05-09T11:23:20.941Z</time>
      </trkpt>
      <trkpt lat="47.89786" lon="6.91578">
        <ele>1152</ele>
        <time>2026-05-09T11:23:21.942Z</time>
      </trkpt>
      <trkpt lat="47.89786" lon="6.91579">
        <ele>1152</ele>
        <time>2026-05-09T11:23:22.942Z</time>
      </trkpt>
      <trkpt lat="47.89787" lon="6.9158">
        <ele>1153</ele>
        <time>2026-05-09T11:23:23.941Z</time>
      </trkpt>
      <trkpt lat="47.89788" lon="6.91581">
        <ele>1153</ele>
        <time>2026-05-09T11:23:24.941Z</time>
      </trkpt>
      <trkpt lat="47.89788" lon="6.91582">
        <ele>1153</ele>
        <time>2026-05-09T11:23:25.942Z</time>
      </trkpt>
      <trkpt lat="47.89788" lon="6.91582">
        <ele>1153</ele>
        <time>2026-05-09T11:23:26.941Z</time>
      </trkpt>
      <trkpt lat="47.89789" lon="6.91583">
        <ele>1153</ele>
        <time>2026-05-09T11:23:27.941Z</time>
      </trkpt>
      <trkpt lat="47.89788" lon="6.91584">
        <ele>1153</ele>
        <time>2026-05-09T11:23:28.942Z</time>
      </trkpt>
      <trkpt lat="47.89788" lon="6.91585">
        <ele>1153</ele>
        <time>2026-05-09T11:23:29.941Z</time>
      </trkpt>
      <trkpt lat="47.89788" lon="6.91586">
        <ele>1153</ele>
        <time>2026-05-09T11:23:30.941Z</time>
      </trkpt>
      <trkpt lat="47.89788" lon="6.91587">
        <ele>1153</ele>
        <time>2026-05-09T11:23:31.941Z</time>
      </trkpt>
      <trkpt lat="47.89788" lon="6.91588">
        <ele>1153</ele>
        <time>2026-05-09T11:23:32.942Z</time>
      </trkpt>
      <trkpt lat="47.89787" lon="6.91589">
        <ele>1153</ele>
        <time>2026-05-09T11:23:33.941Z</time>
      </trkpt>
      <trkpt lat="47.89787" lon="6.91589">
        <ele>1154</ele>
        <time>2026-05-09T11:23:34.942Z</time>
      </trkpt>
      <trkpt lat="47.89787" lon="6.9159">
        <ele>1154</ele>
        <time>2026-05-09T11:23:35.941Z</time>
      </trkpt>
      <trkpt lat="47.89787" lon="6.91591">
        <ele>1154</ele>
        <time>2026-05-09T11:23:36.941Z</time>
      </trkpt>
      <trkpt lat="47.89787" lon="6.91592">
        <ele>1154</ele>
        <time>2026-05-09T11:23:37.942Z</time>
      </trkpt>
      <trkpt lat="47.89787" lon="6.91592">
        <ele>1154</ele>
        <time>2026-05-09T11:23:38.941Z</time>
      </trkpt>
      <trkpt lat="47.89788" lon="6.91593">
        <ele>1154</ele>
        <time>2026-05-09T11:23:39.942Z</time>
      </trkpt>
      <trkpt lat="47.89788" lon="6.91595">
        <ele>1154</ele>
        <time>2026-05-09T11:23:40.941Z</time>
      </trkpt>
      <trkpt lat="47.89789" lon="6.91595">
        <ele>1154</ele>
        <time>2026-05-09T11:23:41.941Z</time>
      </trkpt>
      <trkpt lat="47.8979" lon="6.91595">
        <ele>1154</ele>
        <time>2026-05-09T11:23:42.942Z</time>
      </trkpt>
      <trkpt lat="47.89791" lon="6.91595">
        <ele>1154</ele>
        <time>2026-05-09T11:23:43.941Z</time>
      </trkpt>
      <trkpt lat="47.89791" lon="6.91596">
        <ele>1154</ele>
        <time>2026-05-09T11:23:44.941Z</time>
      </trkpt>
      <trkpt lat="47.89792" lon="6.91596">
        <ele>1154</ele>
        <time>2026-05-09T11:23:45.942Z</time>
      </trkpt>
      <trkpt lat="47.89792" lon="6.91597">
        <ele>1154</ele>
        <time>2026-05-09T11:23:46.941Z</time>
      </trkpt>
      <trkpt lat="47.89793" lon="6.91598">
        <ele>1154</ele>
        <time>2026-05-09T11:23:47.942Z</time>
      </trkpt>
      <trkpt lat="47.89793" lon="6.91599">
        <ele>1154</ele>
        <time>2026-05-09T11:23:48.941Z</time>
      </trkpt>
      <trkpt lat="47.89794" lon="6.91599">
        <ele>1154</ele>
        <time>2026-05-09T11:23:49.941Z</time>
      </trkpt>
      <trkpt lat="47.89794" lon="6.916">
        <ele>1154</ele>
        <time>2026-05-09T11:23:50.941Z</time>
      </trkpt>
      <trkpt lat="47.89794" lon="6.91601">
        <ele>1154</ele>
        <time>2026-05-09T11:23:51.941Z</time>
      </trkpt>
      <trkpt lat="47.89794" lon="6.91602">
        <ele>1154</ele>
        <time>2026-05-09T11:23:52.941Z</time>
      </trkpt>
      <trkpt lat="47.89794" lon="6.91604">
        <ele>1154</ele>
        <time>2026-05-09T11:23:53.942Z</time>
      </trkpt>
      <trkpt lat="47.89794" lon="6.91606">
        <ele>1154</ele>
        <time>2026-05-09T11:23:54.942Z</time>
      </trkpt>
      <trkpt lat="47.89794" lon="6.91608">
        <ele>1154</ele>
        <time>2026-05-09T11:23:55.942Z</time>
      </trkpt>
      <trkpt lat="47.89795" lon="6.91609">
        <ele>1154</ele>
        <time>2026-05-09T11:23:56.941Z</time>
      </trkpt>
      <trkpt lat="47.89794" lon="6.9161">
        <ele>1154</ele>
        <time>2026-05-09T11:23:57.941Z</time>
      </trkpt>
      <trkpt lat="47.89794" lon="6.91612">
        <ele>1154</ele>
        <time>2026-05-09T11:23:58.942Z</time>
      </trkpt>
      <trkpt lat="47.89794" lon="6.91613">
        <ele>1154</ele>
        <time>2026-05-09T11:23:59.941Z</time>
      </trkpt>
      <trkpt lat="47.89794" lon="6.91614">
        <ele>1154</ele>
        <time>2026-05-09T11:24:00.942Z</time>
      </trkpt>
      <trkpt lat="47.89794" lon="6.91615">
        <ele>1154</ele>
        <time>2026-05-09T11:24:01.941Z</time>
      </trkpt>
      <trkpt lat="47.89794" lon="6.91616">
        <ele>1154</ele>
        <time>2026-05-09T11:24:02.941Z</time>
      </trkpt>
      <trkpt lat="47.89795" lon="6.91617">
        <ele>1154</ele>
        <time>2026-05-09T11:24:03.942Z</time>
      </trkpt>
      <trkpt lat="47.89796" lon="6.91618">
        <ele>1155</ele>
        <time>2026-05-09T11:24:04.942Z</time>
      </trkpt>
      <trkpt lat="47.89798" lon="6.91619">
        <ele>1155</ele>
        <time>2026-05-09T11:24:05.942Z</time>
      </trkpt>
      <trkpt lat="47.89799" lon="6.9162">
        <ele>1155</ele>
        <time>2026-05-09T11:24:06.941Z</time>
      </trkpt>
      <trkpt lat="47.898" lon="6.91621">
        <ele>1155</ele>
        <time>2026-05-09T11:24:07.942Z</time>
      </trkpt>
      <trkpt lat="47.89801" lon="6.91621">
        <ele>1156</ele>
        <time>2026-05-09T11:24:08.942Z</time>
      </trkpt>
      <trkpt lat="47.89802" lon="6.91622">
        <ele>1155</ele>
        <time>2026-05-09T11:24:09.941Z</time>
      </trkpt>
      <trkpt lat="47.89804" lon="6.91623">
        <ele>1155</ele>
        <time>2026-05-09T11:24:10.941Z</time>
      </trkpt>
      <trkpt lat="47.89804" lon="6.91624">
        <ele>1155</ele>
        <time>2026-05-09T11:24:11.942Z</time>
      </trkpt>
      <trkpt lat="47.89804" lon="6.91624">
        <ele>1155</ele>
        <time>2026-05-09T11:24:12.941Z</time>
      </trkpt>
      <trkpt lat="47.89804" lon="6.91624">
        <ele>1155</ele>
        <time>2026-05-09T11:24:13.942Z</time>
      </trkpt>
      <trkpt lat="47.89805" lon="6.91625">
        <ele>1155</ele>
        <time>2026-05-09T11:24:14.942Z</time>
      </trkpt>
      <trkpt lat="47.89805" lon="6.91626">
        <ele>1155</ele>
        <time>2026-05-09T11:24:15.941Z</time>
      </trkpt>
      <trkpt lat="47.89806" lon="6.91627">
        <ele>1156</ele>
        <time>2026-05-09T11:24:16.942Z</time>
      </trkpt>
      <trkpt lat="47.89805" lon="6.91628">
        <ele>1156</ele>
        <time>2026-05-09T11:24:17.941Z</time>
      </trkpt>
      <trkpt lat="47.89806" lon="6.91629">
        <ele>1156</ele>
        <time>2026-05-09T11:24:18.941Z</time>
      </trkpt>
      <trkpt lat="47.89807" lon="6.91629">
        <ele>1156</ele>
        <time>2026-05-09T11:24:19.941Z</time>
      </trkpt>
      <trkpt lat="47.89808" lon="6.91629">
        <ele>1156</ele>
        <time>2026-05-09T11:24:20.942Z</time>
      </trkpt>
      <trkpt lat="47.89809" lon="6.91629">
        <ele>1156</ele>
        <time>2026-05-09T11:24:21.941Z</time>
      </trkpt>
      <trkpt lat="47.8981" lon="6.91629">
        <ele>1156</ele>
        <time>2026-05-09T11:24:22.942Z</time>
      </trkpt>
      <trkpt lat="47.89811" lon="6.9163">
        <ele>1156</ele>
        <time>2026-05-09T11:24:23.941Z</time>
      </trkpt>
      <trkpt lat="47.89811" lon="6.91631">
        <ele>1156</ele>
        <time>2026-05-09T11:24:24.941Z</time>
      </trkpt>
      <trkpt lat="47.89811" lon="6.91632">
        <ele>1156</ele>
        <time>2026-05-09T11:24:25.942Z</time>
      </trkpt>
      <trkpt lat="47.89812" lon="6.91633">
        <ele>1156</ele>
        <time>2026-05-09T11:24:26.941Z</time>
      </trkpt>
      <trkpt lat="47.89813" lon="6.91635">
        <ele>1156</ele>
        <time>2026-05-09T11:24:27.942Z</time>
      </trkpt>
      <trkpt lat="47.89814" lon="6.91636">
        <ele>1157</ele>
        <time>2026-05-09T11:24:28.941Z</time>
      </trkpt>
      <trkpt lat="47.89815" lon="6.91637">
        <ele>1157</ele>
        <time>2026-05-09T11:24:29.942Z</time>
      </trkpt>
      <trkpt lat="47.89815" lon="6.91638">
        <ele>1158</ele>
        <time>2026-05-09T11:24:30.941Z</time>
      </trkpt>
      <trkpt lat="47.89816" lon="6.9164">
        <ele>1158</ele>
        <time>2026-05-09T11:24:31.942Z</time>
      </trkpt>
      <trkpt lat="47.89817" lon="6.91641">
        <ele>1159</ele>
        <time>2026-05-09T11:24:32.941Z</time>
      </trkpt>
      <trkpt lat="47.89818" lon="6.91642">
        <ele>1159</ele>
        <time>2026-05-09T11:24:33.941Z</time>
      </trkpt>
      <trkpt lat="47.8982" lon="6.91642">
        <ele>1159</ele>
        <time>2026-05-09T11:24:34.942Z</time>
      </trkpt>
      <trkpt lat="47.89821" lon="6.91642">
        <ele>1160</ele>
        <time>2026-05-09T11:24:35.942Z</time>
      </trkpt>
      <trkpt lat="47.89822" lon="6.91643">
        <ele>1160</ele>
        <time>2026-05-09T11:24:36.941Z</time>
      </trkpt>
      <trkpt lat="47.89822" lon="6.91644">
        <ele>1160</ele>
        <time>2026-05-09T11:24:37.942Z</time>
      </trkpt>
      <trkpt lat="47.89822" lon="6.91644">
        <ele>1160</ele>
        <time>2026-05-09T11:24:38.941Z</time>
      </trkpt>
      <trkpt lat="47.89822" lon="6.91645">
        <ele>1160</ele>
        <time>2026-05-09T11:24:39.942Z</time>
      </trkpt>
      <trkpt lat="47.89823" lon="6.91646">
        <ele>1161</ele>
        <time>2026-05-09T11:24:40.941Z</time>
      </trkpt>
      <trkpt lat="47.89823" lon="6.91646">
        <ele>1161</ele>
        <time>2026-05-09T11:24:41.942Z</time>
      </trkpt>
      <trkpt lat="47.89822" lon="6.91646">
        <ele>1161</ele>
        <time>2026-05-09T11:24:42.941Z</time>
      </trkpt>
      <trkpt lat="47.89822" lon="6.91647">
        <ele>1161</ele>
        <time>2026-05-09T11:24:43.942Z</time>
      </trkpt>
      <trkpt lat="47.89822" lon="6.91647">
        <ele>1162</ele>
        <time>2026-05-09T11:24:44.941Z</time>
      </trkpt>
      <trkpt lat="47.89824" lon="6.91647">
        <ele>1163</ele>
        <time>2026-05-09T11:24:52.370Z</time>
      </trkpt>
      <trkpt lat="47.89824" lon="6.91648">
        <ele>1163</ele>
        <time>2026-05-09T11:24:53.370Z</time>
      </trkpt>
      <trkpt lat="47.89824" lon="6.91649">
        <ele>1163</ele>
        <time>2026-05-09T11:24:54.370Z</time>
      </trkpt>
      <trkpt lat="47.89825" lon="6.9165">
        <ele>1163</ele>
        <time>2026-05-09T11:24:55.371Z</time>
      </trkpt>
      <trkpt lat="47.89826" lon="6.91651">
        <ele>1163</ele>
        <time>2026-05-09T11:24:56.370Z</time>
      </trkpt>
      <trkpt lat="47.89828" lon="6.91652">
        <ele>1163</ele>
        <time>2026-05-09T11:24:57.370Z</time>
      </trkpt>
      <trkpt lat="47.8983" lon="6.91652">
        <ele>1163</ele>
        <time>2026-05-09T11:24:58.370Z</time>
      </trkpt>
      <trkpt lat="47.89831" lon="6.91653">
        <ele>1163</ele>
        <time>2026-05-09T11:24:59.370Z</time>
      </trkpt>
      <trkpt lat="47.89833" lon="6.91654">
        <ele>1163</ele>
        <time>2026-05-09T11:25:00.371Z</time>
      </trkpt>
      <trkpt lat="47.89834" lon="6.91656">
        <ele>1163</ele>
        <time>2026-05-09T11:25:01.370Z</time>
      </trkpt>
      <trkpt lat="47.89836" lon="6.91657">
        <ele>1163</ele>
        <time>2026-05-09T11:25:02.370Z</time>
      </trkpt>
      <trkpt lat="47.89837" lon="6.91659">
        <ele>1163</ele>
        <time>2026-05-09T11:25:03.370Z</time>
      </trkpt>
      <trkpt lat="47.89838" lon="6.9166">
        <ele>1163</ele>
        <time>2026-05-09T11:25:04.370Z</time>
      </trkpt>
      <trkpt lat="47.89841" lon="6.91661">
        <ele>1163</ele>
        <time>2026-05-09T11:25:05.370Z</time>
      </trkpt>
      <trkpt lat="47.89843" lon="6.91662">
        <ele>1163</ele>
        <time>2026-05-09T11:25:06.371Z</time>
      </trkpt>
      <trkpt lat="47.89844" lon="6.91662">
        <ele>1162</ele>
        <time>2026-05-09T11:25:07.371Z</time>
      </trkpt>
      <trkpt lat="47.89846" lon="6.91663">
        <ele>1162</ele>
        <time>2026-05-09T11:25:08.370Z</time>
      </trkpt>
      <trkpt lat="47.89847" lon="6.91665">
        <ele>1162</ele>
        <time>2026-05-09T11:25:09.370Z</time>
      </trkpt>
      <trkpt lat="47.89849" lon="6.91666">
        <ele>1161</ele>
        <time>2026-05-09T11:25:10.370Z</time>
      </trkpt>
      <trkpt lat="47.89851" lon="6.91668">
        <ele>1161</ele>
        <time>2026-05-09T11:25:11.370Z</time>
      </trkpt>
      <trkpt lat="47.89852" lon="6.9167">
        <ele>1161</ele>
        <time>2026-05-09T11:25:12.370Z</time>
      </trkpt>
      <trkpt lat="47.89853" lon="6.91671">
        <ele>1160</ele>
        <time>2026-05-09T11:25:13.370Z</time>
      </trkpt>
      <trkpt lat="47.89855" lon="6.91673">
        <ele>1160</ele>
        <time>2026-05-09T11:25:14.370Z</time>
      </trkpt>
      <trkpt lat="47.89856" lon="6.91674">
        <ele>1160</ele>
        <time>2026-05-09T11:25:15.370Z</time>
      </trkpt>
      <trkpt lat="47.89858" lon="6.91675">
        <ele>1159</ele>
        <time>2026-05-09T11:25:16.370Z</time>
      </trkpt>
      <trkpt lat="47.89859" lon="6.91676">
        <ele>1159</ele>
        <time>2026-05-09T11:25:17.370Z</time>
      </trkpt>
      <trkpt lat="47.8986" lon="6.91677">
        <ele>1159</ele>
        <time>2026-05-09T11:25:18.370Z</time>
      </trkpt>
      <trkpt lat="47.89861" lon="6.91679">
        <ele>1159</ele>
        <time>2026-05-09T11:25:19.370Z</time>
      </trkpt>
      <trkpt lat="47.89863" lon="6.91679">
        <ele>1160</ele>
        <time>2026-05-09T11:25:20.370Z</time>
      </trkpt>
      <trkpt lat="47.89864" lon="6.9168">
        <ele>1160</ele>
        <time>2026-05-09T11:25:21.370Z</time>
      </trkpt>
      <trkpt lat="47.89865" lon="6.9168">
        <ele>1160</ele>
        <time>2026-05-09T11:25:22.370Z</time>
      </trkpt>
      <trkpt lat="47.89867" lon="6.91681">
        <ele>1160</ele>
        <time>2026-05-09T11:25:23.370Z</time>
      </trkpt>
      <trkpt lat="47.89868" lon="6.91681">
        <ele>1161</ele>
        <time>2026-05-09T11:25:24.370Z</time>
      </trkpt>
      <trkpt lat="47.89869" lon="6.91682">
        <ele>1161</ele>
        <time>2026-05-09T11:25:25.370Z</time>
      </trkpt>
      <trkpt lat="47.8987" lon="6.91683">
        <ele>1161</ele>
        <time>2026-05-09T11:25:26.370Z</time>
      </trkpt>
      <trkpt lat="47.89872" lon="6.91684">
        <ele>1162</ele>
        <time>2026-05-09T11:25:27.370Z</time>
      </trkpt>
      <trkpt lat="47.89874" lon="6.91684">
        <ele>1162</ele>
        <time>2026-05-09T11:25:28.370Z</time>
      </trkpt>
      <trkpt lat="47.89875" lon="6.91685">
        <ele>1163</ele>
        <time>2026-05-09T11:25:29.370Z</time>
      </trkpt>
      <trkpt lat="47.89876" lon="6.91686">
        <ele>1163</ele>
        <time>2026-05-09T11:25:30.371Z</time>
      </trkpt>
      <trkpt lat="47.89877" lon="6.91687">
        <ele>1163</ele>
        <time>2026-05-09T11:25:31.370Z</time>
      </trkpt>
      <trkpt lat="47.89878" lon="6.91688">
        <ele>1163</ele>
        <time>2026-05-09T11:25:32.370Z</time>
      </trkpt>
      <trkpt lat="47.89879" lon="6.91689">
        <ele>1164</ele>
        <time>2026-05-09T11:25:33.370Z</time>
      </trkpt>
      <trkpt lat="47.8988" lon="6.91691">
        <ele>1164</ele>
        <time>2026-05-09T11:25:34.370Z</time>
      </trkpt>
      <trkpt lat="47.89881" lon="6.91692">
        <ele>1164</ele>
        <time>2026-05-09T11:25:35.370Z</time>
      </trkpt>
      <trkpt lat="47.89882" lon="6.91693">
        <ele>1165</ele>
        <time>2026-05-09T11:25:36.370Z</time>
      </trkpt>
      <trkpt lat="47.89883" lon="6.91693">
        <ele>1165</ele>
        <time>2026-05-09T11:25:37.370Z</time>
      </trkpt>
      <trkpt lat="47.89884" lon="6.91695">
        <ele>1165</ele>
        <time>2026-05-09T11:25:38.371Z</time>
      </trkpt>
      <trkpt lat="47.89885" lon="6.91696">
        <ele>1165</ele>
        <time>2026-05-09T11:25:39.370Z</time>
      </trkpt>
      <trkpt lat="47.89887" lon="6.91696">
        <ele>1166</ele>
        <time>2026-05-09T11:25:40.370Z</time>
      </trkpt>
      <trkpt lat="47.89887" lon="6.91697">
        <ele>1166</ele>
        <time>2026-05-09T11:25:41.370Z</time>
      </trkpt>
      <trkpt lat="47.89889" lon="6.91697">
        <ele>1166</ele>
        <time>2026-05-09T11:25:42.371Z</time>
      </trkpt>
      <trkpt lat="47.8989" lon="6.91698">
        <ele>1166</ele>
        <time>2026-05-09T11:25:43.370Z</time>
      </trkpt>
      <trkpt lat="47.89891" lon="6.91698">
        <ele>1166</ele>
        <time>2026-05-09T11:25:44.370Z</time>
      </trkpt>
      <trkpt lat="47.89892" lon="6.91698">
        <ele>1166</ele>
        <time>2026-05-09T11:25:45.370Z</time>
      </trkpt>
      <trkpt lat="47.89893" lon="6.91699">
        <ele>1166</ele>
        <time>2026-05-09T11:25:46.370Z</time>
      </trkpt>
      <trkpt lat="47.89895" lon="6.917">
        <ele>1166</ele>
        <time>2026-05-09T11:25:47.371Z</time>
      </trkpt>
      <trkpt lat="47.89896" lon="6.91701">
        <ele>1166</ele>
        <time>2026-05-09T11:25:48.370Z</time>
      </trkpt>
      <trkpt lat="47.89897" lon="6.91701">
        <ele>1166</ele>
        <time>2026-05-09T11:25:49.371Z</time>
      </trkpt>
      <trkpt lat="47.89898" lon="6.91702">
        <ele>1166</ele>
        <time>2026-05-09T11:25:50.370Z</time>
      </trkpt>
      <trkpt lat="47.89899" lon="6.91702">
        <ele>1167</ele>
        <time>2026-05-09T11:25:51.370Z</time>
      </trkpt>
      <trkpt lat="47.89901" lon="6.91703">
        <ele>1167</ele>
        <time>2026-05-09T11:25:52.370Z</time>
      </trkpt>
      <trkpt lat="47.89902" lon="6.91704">
        <ele>1167</ele>
        <time>2026-05-09T11:25:53.370Z</time>
      </trkpt>
      <trkpt lat="47.89903" lon="6.91704">
        <ele>1167</ele>
        <time>2026-05-09T11:25:54.370Z</time>
      </trkpt>
      <trkpt lat="47.89904" lon="6.91706">
        <ele>1167</ele>
        <time>2026-05-09T11:25:55.371Z</time>
      </trkpt>
      <trkpt lat="47.89905" lon="6.91707">
        <ele>1167</ele>
        <time>2026-05-09T11:25:56.370Z</time>
      </trkpt>
      <trkpt lat="47.89906" lon="6.91708">
        <ele>1167</ele>
        <time>2026-05-09T11:25:57.370Z</time>
      </trkpt>
      <trkpt lat="47.89907" lon="6.9171">
        <ele>1167</ele>
        <time>2026-05-09T11:25:58.370Z</time>
      </trkpt>
      <trkpt lat="47.89907" lon="6.91711">
        <ele>1168</ele>
        <time>2026-05-09T11:25:59.370Z</time>
      </trkpt>
      <trkpt lat="47.89908" lon="6.91712">
        <ele>1168</ele>
        <time>2026-05-09T11:26:00.370Z</time>
      </trkpt>
      <trkpt lat="47.89909" lon="6.91713">
        <ele>1168</ele>
        <time>2026-05-09T11:26:01.370Z</time>
      </trkpt>
      <trkpt lat="47.8991" lon="6.91713">
        <ele>1168</ele>
        <time>2026-05-09T11:26:02.371Z</time>
      </trkpt>
      <trkpt lat="47.89911" lon="6.91714">
        <ele>1167</ele>
        <time>2026-05-09T11:26:03.370Z</time>
      </trkpt>
      <trkpt lat="47.89912" lon="6.91714">
        <ele>1167</ele>
        <time>2026-05-09T11:26:04.371Z</time>
      </trkpt>
      <trkpt lat="47.89913" lon="6.91714">
        <ele>1167</ele>
        <time>2026-05-09T11:26:05.371Z</time>
      </trkpt>
      <trkpt lat="47.89915" lon="6.91714">
        <ele>1167</ele>
        <time>2026-05-09T11:26:06.370Z</time>
      </trkpt>
      <trkpt lat="47.89916" lon="6.91715">
        <ele>1167</ele>
        <time>2026-05-09T11:26:07.370Z</time>
      </trkpt>
      <trkpt lat="47.89917" lon="6.91715">
        <ele>1167</ele>
        <time>2026-05-09T11:26:08.370Z</time>
      </trkpt>
      <trkpt lat="47.89918" lon="6.91715">
        <ele>1166</ele>
        <time>2026-05-09T11:26:09.370Z</time>
      </trkpt>
      <trkpt lat="47.89919" lon="6.91716">
        <ele>1166</ele>
        <time>2026-05-09T11:26:10.370Z</time>
      </trkpt>
      <trkpt lat="47.8992" lon="6.91717">
        <ele>1166</ele>
        <time>2026-05-09T11:26:11.370Z</time>
      </trkpt>
      <trkpt lat="47.89921" lon="6.91718">
        <ele>1166</ele>
        <time>2026-05-09T11:26:12.371Z</time>
      </trkpt>
      <trkpt lat="47.89922" lon="6.91719">
        <ele>1165</ele>
        <time>2026-05-09T11:26:13.370Z</time>
      </trkpt>
      <trkpt lat="47.89923" lon="6.9172">
        <ele>1165</ele>
        <time>2026-05-09T11:26:14.370Z</time>
      </trkpt>
      <trkpt lat="47.89924" lon="6.91721">
        <ele>1166</ele>
        <time>2026-05-09T11:26:15.371Z</time>
      </trkpt>
      <trkpt lat="47.89925" lon="6.91721">
        <ele>1166</ele>
        <time>2026-05-09T11:26:16.370Z</time>
      </trkpt>
      <trkpt lat="47.89927" lon="6.91722">
        <ele>1166</ele>
        <time>2026-05-09T11:26:17.370Z</time>
      </trkpt>
      <trkpt lat="47.89928" lon="6.91723">
        <ele>1166</ele>
        <time>2026-05-09T11:26:18.371Z</time>
      </trkpt>
      <trkpt lat="47.89929" lon="6.91725">
        <ele>1166</ele>
        <time>2026-05-09T11:26:19.370Z</time>
      </trkpt>
      <trkpt lat="47.8993" lon="6.91726">
        <ele>1166</ele>
        <time>2026-05-09T11:26:20.370Z</time>
      </trkpt>
      <trkpt lat="47.8993" lon="6.91727">
        <ele>1166</ele>
        <time>2026-05-09T11:26:21.370Z</time>
      </trkpt>
      <trkpt lat="47.89931" lon="6.91728">
        <ele>1166</ele>
        <time>2026-05-09T11:26:22.370Z</time>
      </trkpt>
      <trkpt lat="47.89932" lon="6.91729">
        <ele>1167</ele>
        <time>2026-05-09T11:26:23.370Z</time>
      </trkpt>
      <trkpt lat="47.89933" lon="6.9173">
        <ele>1167</ele>
        <time>2026-05-09T11:26:24.370Z</time>
      </trkpt>
      <trkpt lat="47.89934" lon="6.91731">
        <ele>1167</ele>
        <time>2026-05-09T11:26:25.370Z</time>
      </trkpt>
      <trkpt lat="47.89935" lon="6.91732">
        <ele>1167</ele>
        <time>2026-05-09T11:26:26.370Z</time>
      </trkpt>
      <trkpt lat="47.89935" lon="6.91733">
        <ele>1167</ele>
        <time>2026-05-09T11:26:27.370Z</time>
      </trkpt>
      <trkpt lat="47.89936" lon="6.91733">
        <ele>1168</ele>
        <time>2026-05-09T11:26:28.370Z</time>
      </trkpt>
      <trkpt lat="47.89937" lon="6.91734">
        <ele>1168</ele>
        <time>2026-05-09T11:26:29.370Z</time>
      </trkpt>
      <trkpt lat="47.89938" lon="6.91735">
        <ele>1168</ele>
        <time>2026-05-09T11:26:30.370Z</time>
      </trkpt>
      <trkpt lat="47.8994" lon="6.91736">
        <ele>1167</ele>
        <time>2026-05-09T11:26:31.371Z</time>
      </trkpt>
      <trkpt lat="47.89941" lon="6.91737">
        <ele>1168</ele>
        <time>2026-05-09T11:26:32.371Z</time>
      </trkpt>
      <trkpt lat="47.89942" lon="6.91738">
        <ele>1168</ele>
        <time>2026-05-09T11:26:33.370Z</time>
      </trkpt>
      <trkpt lat="47.89943" lon="6.91739">
        <ele>1168</ele>
        <time>2026-05-09T11:26:34.370Z</time>
      </trkpt>
      <trkpt lat="47.89944" lon="6.9174">
        <ele>1168</ele>
        <time>2026-05-09T11:26:35.370Z</time>
      </trkpt>
      <trkpt lat="47.89945" lon="6.91741">
        <ele>1169</ele>
        <time>2026-05-09T11:26:36.370Z</time>
      </trkpt>
      <trkpt lat="47.89946" lon="6.91742">
        <ele>1168</ele>
        <time>2026-05-09T11:26:37.370Z</time>
      </trkpt>
      <trkpt lat="47.89947" lon="6.91743">
        <ele>1168</ele>
        <time>2026-05-09T11:26:38.371Z</time>
      </trkpt>
      <trkpt lat="47.89948" lon="6.91744">
        <ele>1168</ele>
        <time>2026-05-09T11:26:39.370Z</time>
      </trkpt>
      <trkpt lat="47.89949" lon="6.91745">
        <ele>1168</ele>
        <time>2026-05-09T11:26:40.371Z</time>
      </trkpt>
      <trkpt lat="47.8995" lon="6.91746">
        <ele>1168</ele>
        <time>2026-05-09T11:26:41.370Z</time>
      </trkpt>
      <trkpt lat="47.89951" lon="6.91747">
        <ele>1168</ele>
        <time>2026-05-09T11:26:42.370Z</time>
      </trkpt>
      <trkpt lat="47.89952" lon="6.91748">
        <ele>1168</ele>
        <time>2026-05-09T11:26:43.370Z</time>
      </trkpt>
      <trkpt lat="47.89952" lon="6.91749">
        <ele>1168</ele>
        <time>2026-05-09T11:26:44.370Z</time>
      </trkpt>
      <trkpt lat="47.89953" lon="6.9175">
        <ele>1168</ele>
        <time>2026-05-09T11:26:45.370Z</time>
      </trkpt>
      <trkpt lat="47.89954" lon="6.91752">
        <ele>1168</ele>
        <time>2026-05-09T11:26:46.370Z</time>
      </trkpt>
      <trkpt lat="47.89955" lon="6.91753">
        <ele>1169</ele>
        <time>2026-05-09T11:26:47.370Z</time>
      </trkpt>
      <trkpt lat="47.89956" lon="6.91754">
        <ele>1169</ele>
        <time>2026-05-09T11:26:48.370Z</time>
      </trkpt>
      <trkpt lat="47.89957" lon="6.91755">
        <ele>1169</ele>
        <time>2026-05-09T11:26:49.370Z</time>
      </trkpt>
      <trkpt lat="47.89958" lon="6.91756">
        <ele>1169</ele>
        <time>2026-05-09T11:26:50.371Z</time>
      </trkpt>
      <trkpt lat="47.89959" lon="6.91757">
        <ele>1169</ele>
        <time>2026-05-09T11:26:51.370Z</time>
      </trkpt>
      <trkpt lat="47.89961" lon="6.91757">
        <ele>1169</ele>
        <time>2026-05-09T11:26:52.371Z</time>
      </trkpt>
      <trkpt lat="47.89962" lon="6.91758">
        <ele>1169</ele>
        <time>2026-05-09T11:26:53.371Z</time>
      </trkpt>
      <trkpt lat="47.89963" lon="6.91758">
        <ele>1169</ele>
        <time>2026-05-09T11:26:54.370Z</time>
      </trkpt>
      <trkpt lat="47.89965" lon="6.91758">
        <ele>1169</ele>
        <time>2026-05-09T11:26:55.371Z</time>
      </trkpt>
      <trkpt lat="47.89966" lon="6.91759">
        <ele>1170</ele>
        <time>2026-05-09T11:26:56.370Z</time>
      </trkpt>
      <trkpt lat="47.89967" lon="6.91759">
        <ele>1170</ele>
        <time>2026-05-09T11:26:57.370Z</time>
      </trkpt>
      <trkpt lat="47.89968" lon="6.9176">
        <ele>1170</ele>
        <time>2026-05-09T11:26:58.370Z</time>
      </trkpt>
      <trkpt lat="47.8997" lon="6.9176">
        <ele>1171</ele>
        <time>2026-05-09T11:26:59.371Z</time>
      </trkpt>
      <trkpt lat="47.8997" lon="6.91761">
        <ele>1171</ele>
        <time>2026-05-09T11:27:00.370Z</time>
      </trkpt>
      <trkpt lat="47.89971" lon="6.91762">
        <ele>1171</ele>
        <time>2026-05-09T11:27:01.370Z</time>
      </trkpt>
      <trkpt lat="47.89972" lon="6.91764">
        <ele>1171</ele>
        <time>2026-05-09T11:27:02.371Z</time>
      </trkpt>
      <trkpt lat="47.89972" lon="6.91764">
        <ele>1171</ele>
        <time>2026-05-09T11:27:03.370Z</time>
      </trkpt>
      <trkpt lat="47.89973" lon="6.91765">
        <ele>1171</ele>
        <time>2026-05-09T11:27:04.371Z</time>
      </trkpt>
      <trkpt lat="47.89973" lon="6.91765">
        <ele>1171</ele>
        <time>2026-05-09T11:27:05.370Z</time>
      </trkpt>
      <trkpt lat="47.89973" lon="6.91765">
        <ele>1170</ele>
        <time>2026-05-09T11:27:06.370Z</time>
      </trkpt>
      <trkpt lat="47.89973" lon="6.91765">
        <ele>1170</ele>
        <time>2026-05-09T11:27:07.371Z</time>
      </trkpt>
      <trkpt lat="47.89974" lon="6.91765">
        <ele>1170</ele>
        <time>2026-05-09T11:27:15.768Z</time>
      </trkpt>
      <trkpt lat="47.89974" lon="6.91764">
        <ele>1170</ele>
        <time>2026-05-09T11:27:16.768Z</time>
      </trkpt>
      <trkpt lat="47.89974" lon="6.91764">
        <ele>1170</ele>
        <time>2026-05-09T11:27:17.768Z</time>
      </trkpt>
      <trkpt lat="47.89974" lon="6.91764">
        <ele>1170</ele>
        <time>2026-05-09T11:27:18.768Z</time>
      </trkpt>
      <trkpt lat="47.89974" lon="6.91764">
        <ele>1170</ele>
        <time>2026-05-09T11:27:19.767Z</time>
      </trkpt>
      <trkpt lat="47.89974" lon="6.91764">
        <ele>1170</ele>
        <time>2026-05-09T11:27:20.768Z</time>
      </trkpt>
      <trkpt lat="47.89974" lon="6.91764">
        <ele>1170</ele>
        <time>2026-05-09T11:27:21.767Z</time>
      </trkpt>
      <trkpt lat="47.89974" lon="6.91764">
        <ele>1170</ele>
        <time>2026-05-09T11:27:22.767Z</time>
      </trkpt>
      <trkpt lat="47.89974" lon="6.91764">
        <ele>1170</ele>
        <time>2026-05-09T11:27:23.767Z</time>
      </trkpt>
      <trkpt lat="47.89974" lon="6.91764">
        <ele>1170</ele>
        <time>2026-05-09T11:27:24.767Z</time>
      </trkpt>
      <trkpt lat="47.89974" lon="6.91764">
        <ele>1170</ele>
        <time>2026-05-09T11:27:25.768Z</time>
      </trkpt>
      <trkpt lat="47.89974" lon="6.91763">
        <ele>1170</ele>
        <time>2026-05-09T11:27:26.767Z</time>
      </trkpt>
      <trkpt lat="47.89974" lon="6.91763">
        <ele>1170</ele>
        <time>2026-05-09T11:27:27.767Z</time>
      </trkpt>
      <trkpt lat="47.89974" lon="6.91763">
        <ele>1170</ele>
        <time>2026-05-09T11:27:28.767Z</time>
      </trkpt>
      <trkpt lat="47.89974" lon="6.91763">
        <ele>1170</ele>
        <time>2026-05-09T11:27:29.768Z</time>
      </trkpt>
      <trkpt lat="47.89974" lon="6.91763">
        <ele>1171</ele>
        <time>2026-05-09T11:27:30.767Z</time>
      </trkpt>
      <trkpt lat="47.89975" lon="6.91763">
        <ele>1171</ele>
        <time>2026-05-09T11:27:31.767Z</time>
      </trkpt>
      <trkpt lat="47.89976" lon="6.91762">
        <ele>1171</ele>
        <time>2026-05-09T11:27:32.768Z</time>
      </trkpt>
      <trkpt lat="47.89976" lon="6.91762">
        <ele>1171</ele>
        <time>2026-05-09T11:27:33.767Z</time>
      </trkpt>
      <trkpt lat="47.89977" lon="6.91763">
        <ele>1171</ele>
        <time>2026-05-09T11:27:34.767Z</time>
      </trkpt>
      <trkpt lat="47.89978" lon="6.91763">
        <ele>1171</ele>
        <time>2026-05-09T11:27:35.767Z</time>
      </trkpt>
      <trkpt lat="47.89979" lon="6.91763">
        <ele>1171</ele>
        <time>2026-05-09T11:27:36.767Z</time>
      </trkpt>
      <trkpt lat="47.89979" lon="6.91763">
        <ele>1171</ele>
        <time>2026-05-09T11:27:37.767Z</time>
      </trkpt>
      <trkpt lat="47.8998" lon="6.91763">
        <ele>1171</ele>
        <time>2026-05-09T11:27:38.767Z</time>
      </trkpt>
      <trkpt lat="47.89982" lon="6.91762">
        <ele>1171</ele>
        <time>2026-05-09T11:27:39.767Z</time>
      </trkpt>
      <trkpt lat="47.89983" lon="6.91762">
        <ele>1171</ele>
        <time>2026-05-09T11:27:40.768Z</time>
      </trkpt>
      <trkpt lat="47.89984" lon="6.91761">
        <ele>1171</ele>
        <time>2026-05-09T11:27:41.768Z</time>
      </trkpt>
      <trkpt lat="47.89984" lon="6.91762">
        <ele>1171</ele>
        <time>2026-05-09T11:27:42.767Z</time>
      </trkpt>
      <trkpt lat="47.89985" lon="6.91762">
        <ele>1171</ele>
        <time>2026-05-09T11:27:43.767Z</time>
      </trkpt>
      <trkpt lat="47.89985" lon="6.91763">
        <ele>1171</ele>
        <time>2026-05-09T11:27:44.768Z</time>
      </trkpt>
      <trkpt lat="47.89986" lon="6.91764">
        <ele>1171</ele>
        <time>2026-05-09T11:27:45.767Z</time>
      </trkpt>
      <trkpt lat="47.89986" lon="6.91764">
        <ele>1171</ele>
        <time>2026-05-09T11:27:46.767Z</time>
      </trkpt>
      <trkpt lat="47.89987" lon="6.91764">
        <ele>1171</ele>
        <time>2026-05-09T11:27:47.767Z</time>
      </trkpt>
      <trkpt lat="47.89988" lon="6.91764">
        <ele>1171</ele>
        <time>2026-05-09T11:27:48.767Z</time>
      </trkpt>
      <trkpt lat="47.89989" lon="6.91764">
        <ele>1171</ele>
        <time>2026-05-09T11:27:49.767Z</time>
      </trkpt>
      <trkpt lat="47.8999" lon="6.91764">
        <ele>1171</ele>
        <time>2026-05-09T11:27:50.767Z</time>
      </trkpt>
      <trkpt lat="47.89991" lon="6.91764">
        <ele>1171</ele>
        <time>2026-05-09T11:27:51.767Z</time>
      </trkpt>
      <trkpt lat="47.89992" lon="6.91764">
        <ele>1171</ele>
        <time>2026-05-09T11:27:52.767Z</time>
      </trkpt>
      <trkpt lat="47.89993" lon="6.91764">
        <ele>1171</ele>
        <time>2026-05-09T11:27:53.767Z</time>
      </trkpt>
      <trkpt lat="47.89994" lon="6.91764">
        <ele>1171</ele>
        <time>2026-05-09T11:27:54.767Z</time>
      </trkpt>
      <trkpt lat="47.89995" lon="6.91764">
        <ele>1171</ele>
        <time>2026-05-09T11:27:55.767Z</time>
      </trkpt>
      <trkpt lat="47.89997" lon="6.91764">
        <ele>1171</ele>
        <time>2026-05-09T11:27:56.767Z</time>
      </trkpt>
      <trkpt lat="47.89998" lon="6.91764">
        <ele>1171</ele>
        <time>2026-05-09T11:27:57.767Z</time>
      </trkpt>
      <trkpt lat="47.89999" lon="6.91763">
        <ele>1171</ele>
        <time>2026-05-09T11:27:58.767Z</time>
      </trkpt>
      <trkpt lat="47.9" lon="6.91763">
        <ele>1171</ele>
        <time>2026-05-09T11:27:59.767Z</time>
      </trkpt>
      <trkpt lat="47.90001" lon="6.91763">
        <ele>1171</ele>
        <time>2026-05-09T11:28:00.767Z</time>
      </trkpt>
      <trkpt lat="47.90003" lon="6.91763">
        <ele>1171</ele>
        <time>2026-05-09T11:28:01.768Z</time>
      </trkpt>
      <trkpt lat="47.90003" lon="6.91763">
        <ele>1171</ele>
        <time>2026-05-09T11:28:02.768Z</time>
      </trkpt>
      <trkpt lat="47.90004" lon="6.91763">
        <ele>1171</ele>
        <time>2026-05-09T11:28:03.767Z</time>
      </trkpt>
      <trkpt lat="47.90005" lon="6.91763">
        <ele>1171</ele>
        <time>2026-05-09T11:28:04.768Z</time>
      </trkpt>
      <trkpt lat="47.90006" lon="6.91763">
        <ele>1172</ele>
        <time>2026-05-09T11:28:05.768Z</time>
      </trkpt>
      <trkpt lat="47.90007" lon="6.91763">
        <ele>1172</ele>
        <time>2026-05-09T11:28:06.768Z</time>
      </trkpt>
      <trkpt lat="47.90007" lon="6.91763">
        <ele>1172</ele>
        <time>2026-05-09T11:28:07.768Z</time>
      </trkpt>
      <trkpt lat="47.90008" lon="6.91762">
        <ele>1172</ele>
        <time>2026-05-09T11:28:08.768Z</time>
      </trkpt>
      <trkpt lat="47.9001" lon="6.91762">
        <ele>1172</ele>
        <time>2026-05-09T11:28:09.767Z</time>
      </trkpt>
      <trkpt lat="47.90011" lon="6.91762">
        <ele>1172</ele>
        <time>2026-05-09T11:28:10.768Z</time>
      </trkpt>
      <trkpt lat="47.90012" lon="6.91762">
        <ele>1173</ele>
        <time>2026-05-09T11:28:11.767Z</time>
      </trkpt>
      <trkpt lat="47.90012" lon="6.91762">
        <ele>1173</ele>
        <time>2026-05-09T11:28:12.767Z</time>
      </trkpt>
      <trkpt lat="47.90013" lon="6.91762">
        <ele>1173</ele>
        <time>2026-05-09T11:28:13.768Z</time>
      </trkpt>
      <trkpt lat="47.90014" lon="6.91762">
        <ele>1173</ele>
        <time>2026-05-09T11:28:14.768Z</time>
      </trkpt>
      <trkpt lat="47.90015" lon="6.91762">
        <ele>1173</ele>
        <time>2026-05-09T11:28:15.767Z</time>
      </trkpt>
      <trkpt lat="47.90016" lon="6.91762">
        <ele>1173</ele>
        <time>2026-05-09T11:28:16.767Z</time>
      </trkpt>
      <trkpt lat="47.90017" lon="6.91761">
        <ele>1173</ele>
        <time>2026-05-09T11:28:17.767Z</time>
      </trkpt>
      <trkpt lat="47.90018" lon="6.91761">
        <ele>1173</ele>
        <time>2026-05-09T11:28:18.767Z</time>
      </trkpt>
      <trkpt lat="47.90019" lon="6.91761">
        <ele>1173</ele>
        <time>2026-05-09T11:28:19.768Z</time>
      </trkpt>
      <trkpt lat="47.9002" lon="6.91761">
        <ele>1173</ele>
        <time>2026-05-09T11:28:20.768Z</time>
      </trkpt>
      <trkpt lat="47.90021" lon="6.91761">
        <ele>1173</ele>
        <time>2026-05-09T11:28:21.767Z</time>
      </trkpt>
      <trkpt lat="47.90022" lon="6.91761">
        <ele>1173</ele>
        <time>2026-05-09T11:28:22.767Z</time>
      </trkpt>
      <trkpt lat="47.90022" lon="6.91761">
        <ele>1173</ele>
        <time>2026-05-09T11:28:23.768Z</time>
      </trkpt>
      <trkpt lat="47.90023" lon="6.91762">
        <ele>1173</ele>
        <time>2026-05-09T11:28:24.768Z</time>
      </trkpt>
      <trkpt lat="47.90024" lon="6.91761">
        <ele>1173</ele>
        <time>2026-05-09T11:28:25.768Z</time>
      </trkpt>
      <trkpt lat="47.90025" lon="6.91762">
        <ele>1173</ele>
        <time>2026-05-09T11:28:26.767Z</time>
      </trkpt>
      <trkpt lat="47.90026" lon="6.91762">
        <ele>1174</ele>
        <time>2026-05-09T11:28:27.767Z</time>
      </trkpt>
      <trkpt lat="47.90027" lon="6.91762">
        <ele>1174</ele>
        <time>2026-05-09T11:28:28.767Z</time>
      </trkpt>
      <trkpt lat="47.90028" lon="6.91762">
        <ele>1174</ele>
        <time>2026-05-09T11:28:29.768Z</time>
      </trkpt>
      <trkpt lat="47.90029" lon="6.91762">
        <ele>1174</ele>
        <time>2026-05-09T11:28:30.768Z</time>
      </trkpt>
      <trkpt lat="47.9003" lon="6.91761">
        <ele>1174</ele>
        <time>2026-05-09T11:28:31.767Z</time>
      </trkpt>
      <trkpt lat="47.90031" lon="6.91761">
        <ele>1175</ele>
        <time>2026-05-09T11:28:32.767Z</time>
      </trkpt>
      <trkpt lat="47.90032" lon="6.91761">
        <ele>1175</ele>
        <time>2026-05-09T11:28:33.767Z</time>
      </trkpt>
      <trkpt lat="47.90033" lon="6.9176">
        <ele>1175</ele>
        <time>2026-05-09T11:28:34.767Z</time>
      </trkpt>
      <trkpt lat="47.90034" lon="6.9176">
        <ele>1175</ele>
        <time>2026-05-09T11:28:35.767Z</time>
      </trkpt>
      <trkpt lat="47.90035" lon="6.91759">
        <ele>1175</ele>
        <time>2026-05-09T11:28:36.768Z</time>
      </trkpt>
      <trkpt lat="47.90036" lon="6.91759">
        <ele>1175</ele>
        <time>2026-05-09T11:28:37.768Z</time>
      </trkpt>
      <trkpt lat="47.90037" lon="6.9176">
        <ele>1175</ele>
        <time>2026-05-09T11:28:38.767Z</time>
      </trkpt>
      <trkpt lat="47.90038" lon="6.9176">
        <ele>1175</ele>
        <time>2026-05-09T11:28:39.767Z</time>
      </trkpt>
      <trkpt lat="47.90039" lon="6.91759">
        <ele>1176</ele>
        <time>2026-05-09T11:28:40.767Z</time>
      </trkpt>
      <trkpt lat="47.9004" lon="6.91759">
        <ele>1176</ele>
        <time>2026-05-09T11:28:41.767Z</time>
      </trkpt>
      <trkpt lat="47.90041" lon="6.91759">
        <ele>1176</ele>
        <time>2026-05-09T11:28:42.767Z</time>
      </trkpt>
      <trkpt lat="47.90041" lon="6.9176">
        <ele>1176</ele>
        <time>2026-05-09T11:28:43.767Z</time>
      </trkpt>
      <trkpt lat="47.90042" lon="6.9176">
        <ele>1177</ele>
        <time>2026-05-09T11:28:44.768Z</time>
      </trkpt>
      <trkpt lat="47.90043" lon="6.91759">
        <ele>1177</ele>
        <time>2026-05-09T11:28:45.768Z</time>
      </trkpt>
      <trkpt lat="47.90044" lon="6.91759">
        <ele>1177</ele>
        <time>2026-05-09T11:28:46.767Z</time>
      </trkpt>
      <trkpt lat="47.90045" lon="6.91759">
        <ele>1177</ele>
        <time>2026-05-09T11:28:47.767Z</time>
      </trkpt>
      <trkpt lat="47.90046" lon="6.91759">
        <ele>1177</ele>
        <time>2026-05-09T11:28:48.767Z</time>
      </trkpt>
      <trkpt lat="47.90047" lon="6.91759">
        <ele>1177</ele>
        <time>2026-05-09T11:28:49.767Z</time>
      </trkpt>
      <trkpt lat="47.90048" lon="6.9176">
        <ele>1177</ele>
        <time>2026-05-09T11:28:50.767Z</time>
      </trkpt>
      <trkpt lat="47.90048" lon="6.9176">
        <ele>1177</ele>
        <time>2026-05-09T11:28:51.767Z</time>
      </trkpt>
      <trkpt lat="47.90049" lon="6.9176">
        <ele>1177</ele>
        <time>2026-05-09T11:28:52.768Z</time>
      </trkpt>
      <trkpt lat="47.9005" lon="6.9176">
        <ele>1177</ele>
        <time>2026-05-09T11:28:53.767Z</time>
      </trkpt>
      <trkpt lat="47.90051" lon="6.9176">
        <ele>1177</ele>
        <time>2026-05-09T11:28:54.768Z</time>
      </trkpt>
      <trkpt lat="47.90052" lon="6.91761">
        <ele>1177</ele>
        <time>2026-05-09T11:28:55.768Z</time>
      </trkpt>
      <trkpt lat="47.90053" lon="6.9176">
        <ele>1177</ele>
        <time>2026-05-09T11:28:56.768Z</time>
      </trkpt>
      <trkpt lat="47.90055" lon="6.9176">
        <ele>1177</ele>
        <time>2026-05-09T11:28:57.767Z</time>
      </trkpt>
      <trkpt lat="47.90055" lon="6.9176">
        <ele>1177</ele>
        <time>2026-05-09T11:28:58.768Z</time>
      </trkpt>
      <trkpt lat="47.90056" lon="6.9176">
        <ele>1177</ele>
        <time>2026-05-09T11:28:59.767Z</time>
      </trkpt>
      <trkpt lat="47.90057" lon="6.9176">
        <ele>1177</ele>
        <time>2026-05-09T11:29:00.768Z</time>
      </trkpt>
      <trkpt lat="47.90057" lon="6.91761">
        <ele>1177</ele>
        <time>2026-05-09T11:29:01.767Z</time>
      </trkpt>
      <trkpt lat="47.90058" lon="6.91761">
        <ele>1177</ele>
        <time>2026-05-09T11:29:02.768Z</time>
      </trkpt>
      <trkpt lat="47.90059" lon="6.91761">
        <ele>1177</ele>
        <time>2026-05-09T11:29:03.767Z</time>
      </trkpt>
      <trkpt lat="47.90059" lon="6.91761">
        <ele>1177</ele>
        <time>2026-05-09T11:29:04.767Z</time>
      </trkpt>
      <trkpt lat="47.9006" lon="6.91761">
        <ele>1177</ele>
        <time>2026-05-09T11:29:05.767Z</time>
      </trkpt>
      <trkpt lat="47.90061" lon="6.91761">
        <ele>1178</ele>
        <time>2026-05-09T11:29:06.768Z</time>
      </trkpt>
      <trkpt lat="47.90063" lon="6.91761">
        <ele>1178</ele>
        <time>2026-05-09T11:29:07.767Z</time>
      </trkpt>
      <trkpt lat="47.90063" lon="6.91761">
        <ele>1178</ele>
        <time>2026-05-09T11:29:08.768Z</time>
      </trkpt>
      <trkpt lat="47.90064" lon="6.91761">
        <ele>1178</ele>
        <time>2026-05-09T11:29:09.767Z</time>
      </trkpt>
      <trkpt lat="47.90065" lon="6.91761">
        <ele>1178</ele>
        <time>2026-05-09T11:29:10.767Z</time>
      </trkpt>
      <trkpt lat="47.90066" lon="6.91761">
        <ele>1178</ele>
        <time>2026-05-09T11:29:11.767Z</time>
      </trkpt>
      <trkpt lat="47.90066" lon="6.91761">
        <ele>1178</ele>
        <time>2026-05-09T11:29:12.768Z</time>
      </trkpt>
      <trkpt lat="47.90067" lon="6.91761">
        <ele>1178</ele>
        <time>2026-05-09T11:29:13.768Z</time>
      </trkpt>
      <trkpt lat="47.90068" lon="6.9176">
        <ele>1178</ele>
        <time>2026-05-09T11:29:14.767Z</time>
      </trkpt>
      <trkpt lat="47.90069" lon="6.9176">
        <ele>1178</ele>
        <time>2026-05-09T11:29:15.768Z</time>
      </trkpt>
      <trkpt lat="47.9007" lon="6.9176">
        <ele>1178</ele>
        <time>2026-05-09T11:29:16.767Z</time>
      </trkpt>
      <trkpt lat="47.90071" lon="6.91761">
        <ele>1178</ele>
        <time>2026-05-09T11:29:17.768Z</time>
      </trkpt>
      <trkpt lat="47.90072" lon="6.91761">
        <ele>1178</ele>
        <time>2026-05-09T11:29:18.767Z</time>
      </trkpt>
      <trkpt lat="47.90073" lon="6.9176">
        <ele>1178</ele>
        <time>2026-05-09T11:29:19.767Z</time>
      </trkpt>
      <trkpt lat="47.90074" lon="6.9176">
        <ele>1179</ele>
        <time>2026-05-09T11:29:20.767Z</time>
      </trkpt>
      <trkpt lat="47.90075" lon="6.9176">
        <ele>1179</ele>
        <time>2026-05-09T11:29:21.768Z</time>
      </trkpt>
      <trkpt lat="47.90076" lon="6.9176">
        <ele>1179</ele>
        <time>2026-05-09T11:29:22.767Z</time>
      </trkpt>
      <trkpt lat="47.90077" lon="6.9176">
        <ele>1179</ele>
        <time>2026-05-09T11:29:23.768Z</time>
      </trkpt>
      <trkpt lat="47.90077" lon="6.9176">
        <ele>1179</ele>
        <time>2026-05-09T11:29:24.767Z</time>
      </trkpt>
      <trkpt lat="47.90078" lon="6.9176">
        <ele>1180</ele>
        <time>2026-05-09T11:29:25.767Z</time>
      </trkpt>
      <trkpt lat="47.90078" lon="6.9176">
        <ele>1180</ele>
        <time>2026-05-09T11:29:26.767Z</time>
      </trkpt>
      <trkpt lat="47.90079" lon="6.91759">
        <ele>1180</ele>
        <time>2026-05-09T11:29:27.768Z</time>
      </trkpt>
      <trkpt lat="47.9008" lon="6.91759">
        <ele>1180</ele>
        <time>2026-05-09T11:29:28.768Z</time>
      </trkpt>
      <trkpt lat="47.90082" lon="6.91759">
        <ele>1180</ele>
        <time>2026-05-09T11:29:29.767Z</time>
      </trkpt>
      <trkpt lat="47.90083" lon="6.91758">
        <ele>1180</ele>
        <time>2026-05-09T11:29:30.767Z</time>
      </trkpt>
      <trkpt lat="47.90084" lon="6.91757">
        <ele>1180</ele>
        <time>2026-05-09T11:29:31.767Z</time>
      </trkpt>
      <trkpt lat="47.90085" lon="6.91757">
        <ele>1180</ele>
        <time>2026-05-09T11:29:32.768Z</time>
      </trkpt>
      <trkpt lat="47.90086" lon="6.91756">
        <ele>1180</ele>
        <time>2026-05-09T11:29:33.767Z</time>
      </trkpt>
      <trkpt lat="47.90087" lon="6.91756">
        <ele>1180</ele>
        <time>2026-05-09T11:29:34.767Z</time>
      </trkpt>
      <trkpt lat="47.90087" lon="6.91756">
        <ele>1180</ele>
        <time>2026-05-09T11:29:35.767Z</time>
      </trkpt>
      <trkpt lat="47.90088" lon="6.91756">
        <ele>1180</ele>
        <time>2026-05-09T11:29:36.768Z</time>
      </trkpt>
      <trkpt lat="47.90088" lon="6.91755">
        <ele>1180</ele>
        <time>2026-05-09T11:29:37.767Z</time>
      </trkpt>
      <trkpt lat="47.90089" lon="6.91755">
        <ele>1180</ele>
        <time>2026-05-09T11:29:38.768Z</time>
      </trkpt>
      <trkpt lat="47.90089" lon="6.91754">
        <ele>1180</ele>
        <time>2026-05-09T11:29:39.768Z</time>
      </trkpt>
      <trkpt lat="47.9009" lon="6.91754">
        <ele>1180</ele>
        <time>2026-05-09T11:29:40.768Z</time>
      </trkpt>
      <trkpt lat="47.90091" lon="6.91753">
        <ele>1180</ele>
        <time>2026-05-09T11:29:41.767Z</time>
      </trkpt>
      <trkpt lat="47.90091" lon="6.91752">
        <ele>1180</ele>
        <time>2026-05-09T11:29:42.768Z</time>
      </trkpt>
      <trkpt lat="47.90092" lon="6.91751">
        <ele>1180</ele>
        <time>2026-05-09T11:29:43.767Z</time>
      </trkpt>
      <trkpt lat="47.90093" lon="6.9175">
        <ele>1180</ele>
        <time>2026-05-09T11:29:44.768Z</time>
      </trkpt>
      <trkpt lat="47.90094" lon="6.9175">
        <ele>1180</ele>
        <time>2026-05-09T11:29:45.768Z</time>
      </trkpt>
      <trkpt lat="47.90095" lon="6.91749">
        <ele>1180</ele>
        <time>2026-05-09T11:29:46.768Z</time>
      </trkpt>
      <trkpt lat="47.90096" lon="6.91748">
        <ele>1180</ele>
        <time>2026-05-09T11:29:47.768Z</time>
      </trkpt>
      <trkpt lat="47.90097" lon="6.91747">
        <ele>1180</ele>
        <time>2026-05-09T11:29:48.767Z</time>
      </trkpt>
      <trkpt lat="47.90098" lon="6.91747">
        <ele>1180</ele>
        <time>2026-05-09T11:29:49.768Z</time>
      </trkpt>
      <trkpt lat="47.90098" lon="6.91746">
        <ele>1180</ele>
        <time>2026-05-09T11:29:50.767Z</time>
      </trkpt>
      <trkpt lat="47.90099" lon="6.91744">
        <ele>1180</ele>
        <time>2026-05-09T11:29:51.768Z</time>
      </trkpt>
      <trkpt lat="47.901" lon="6.91743">
        <ele>1180</ele>
        <time>2026-05-09T11:29:52.767Z</time>
      </trkpt>
      <trkpt lat="47.90101" lon="6.91742">
        <ele>1181</ele>
        <time>2026-05-09T11:29:53.768Z</time>
      </trkpt>
      <trkpt lat="47.90101" lon="6.91741">
        <ele>1181</ele>
        <time>2026-05-09T11:29:54.767Z</time>
      </trkpt>
      <trkpt lat="47.90102" lon="6.91739">
        <ele>1181</ele>
        <time>2026-05-09T11:29:55.768Z</time>
      </trkpt>
      <trkpt lat="47.90102" lon="6.91738">
        <ele>1181</ele>
        <time>2026-05-09T11:29:56.767Z</time>
      </trkpt>
      <trkpt lat="47.90103" lon="6.91737">
        <ele>1182</ele>
        <time>2026-05-09T11:29:57.768Z</time>
      </trkpt>
      <trkpt lat="47.90105" lon="6.91735">
        <ele>1182</ele>
        <time>2026-05-09T11:29:58.767Z</time>
      </trkpt>
      <trkpt lat="47.90106" lon="6.91734">
        <ele>1182</ele>
        <time>2026-05-09T11:29:59.767Z</time>
      </trkpt>
      <trkpt lat="47.90107" lon="6.91733">
        <ele>1182</ele>
        <time>2026-05-09T11:30:00.767Z</time>
      </trkpt>
      <trkpt lat="47.90108" lon="6.91732">
        <ele>1183</ele>
        <time>2026-05-09T11:30:01.768Z</time>
      </trkpt>
      <trkpt lat="47.9011" lon="6.91731">
        <ele>1183</ele>
        <time>2026-05-09T11:30:02.768Z</time>
      </trkpt>
      <trkpt lat="47.90111" lon="6.9173">
        <ele>1183</ele>
        <time>2026-05-09T11:30:03.767Z</time>
      </trkpt>
      <trkpt lat="47.90112" lon="6.91729">
        <ele>1183</ele>
        <time>2026-05-09T11:30:04.768Z</time>
      </trkpt>
      <trkpt lat="47.90114" lon="6.91728">
        <ele>1183</ele>
        <time>2026-05-09T11:30:05.767Z</time>
      </trkpt>
      <trkpt lat="47.90115" lon="6.91727">
        <ele>1183</ele>
        <time>2026-05-09T11:30:06.768Z</time>
      </trkpt>
      <trkpt lat="47.90115" lon="6.91726">
        <ele>1183</ele>
        <time>2026-05-09T11:30:07.767Z</time>
      </trkpt>
      <trkpt lat="47.90116" lon="6.91725">
        <ele>1183</ele>
        <time>2026-05-09T11:30:08.768Z</time>
      </trkpt>
      <trkpt lat="47.90117" lon="6.91724">
        <ele>1182</ele>
        <time>2026-05-09T11:30:09.767Z</time>
      </trkpt>
      <trkpt lat="47.90118" lon="6.91722">
        <ele>1182</ele>
        <time>2026-05-09T11:30:10.768Z</time>
      </trkpt>
      <trkpt lat="47.90119" lon="6.91721">
        <ele>1182</ele>
        <time>2026-05-09T11:30:11.767Z</time>
      </trkpt>
      <trkpt lat="47.9012" lon="6.9172">
        <ele>1182</ele>
        <time>2026-05-09T11:30:12.768Z</time>
      </trkpt>
      <trkpt lat="47.90121" lon="6.91719">
        <ele>1182</ele>
        <time>2026-05-09T11:30:13.767Z</time>
      </trkpt>
      <trkpt lat="47.90123" lon="6.91718">
        <ele>1182</ele>
        <time>2026-05-09T11:30:14.767Z</time>
      </trkpt>
      <trkpt lat="47.90124" lon="6.91716">
        <ele>1182</ele>
        <time>2026-05-09T11:30:15.767Z</time>
      </trkpt>
      <trkpt lat="47.90125" lon="6.91715">
        <ele>1182</ele>
        <time>2026-05-09T11:30:16.767Z</time>
      </trkpt>
      <trkpt lat="47.90126" lon="6.91715">
        <ele>1182</ele>
        <time>2026-05-09T11:30:17.767Z</time>
      </trkpt>
      <trkpt lat="47.90127" lon="6.91714">
        <ele>1181</ele>
        <time>2026-05-09T11:30:18.767Z</time>
      </trkpt>
      <trkpt lat="47.90128" lon="6.91712">
        <ele>1181</ele>
        <time>2026-05-09T11:30:19.767Z</time>
      </trkpt>
      <trkpt lat="47.9013" lon="6.91711">
        <ele>1181</ele>
        <time>2026-05-09T11:30:20.767Z</time>
      </trkpt>
      <trkpt lat="47.90131" lon="6.9171">
        <ele>1181</ele>
        <time>2026-05-09T11:30:21.768Z</time>
      </trkpt>
      <trkpt lat="47.90132" lon="6.91708">
        <ele>1181</ele>
        <time>2026-05-09T11:30:22.767Z</time>
      </trkpt>
      <trkpt lat="47.90133" lon="6.91707">
        <ele>1181</ele>
        <time>2026-05-09T11:30:23.768Z</time>
      </trkpt>
      <trkpt lat="47.90134" lon="6.91706">
        <ele>1181</ele>
        <time>2026-05-09T11:30:24.768Z</time>
      </trkpt>
      <trkpt lat="47.90135" lon="6.91705">
        <ele>1181</ele>
        <time>2026-05-09T11:30:25.767Z</time>
      </trkpt>
      <trkpt lat="47.90136" lon="6.91704">
        <ele>1181</ele>
        <time>2026-05-09T11:30:26.767Z</time>
      </trkpt>
      <trkpt lat="47.90137" lon="6.91703">
        <ele>1181</ele>
        <time>2026-05-09T11:30:27.768Z</time>
      </trkpt>
      <trkpt lat="47.90138" lon="6.91701">
        <ele>1181</ele>
        <time>2026-05-09T11:30:28.767Z</time>
      </trkpt>
      <trkpt lat="47.90139" lon="6.917">
        <ele>1181</ele>
        <time>2026-05-09T11:30:29.767Z</time>
      </trkpt>
      <trkpt lat="47.9014" lon="6.91699">
        <ele>1181</ele>
        <time>2026-05-09T11:30:30.767Z</time>
      </trkpt>
      <trkpt lat="47.90141" lon="6.91699">
        <ele>1181</ele>
        <time>2026-05-09T11:30:31.768Z</time>
      </trkpt>
      <trkpt lat="47.90142" lon="6.91698">
        <ele>1181</ele>
        <time>2026-05-09T11:30:32.767Z</time>
      </trkpt>
      <trkpt lat="47.90143" lon="6.91697">
        <ele>1181</ele>
        <time>2026-05-09T11:30:33.767Z</time>
      </trkpt>
      <trkpt lat="47.90144" lon="6.91697">
        <ele>1181</ele>
        <time>2026-05-09T11:30:34.767Z</time>
      </trkpt>
      <trkpt lat="47.90145" lon="6.91696">
        <ele>1181</ele>
        <time>2026-05-09T11:30:35.767Z</time>
      </trkpt>
      <trkpt lat="47.90146" lon="6.91696">
        <ele>1181</ele>
        <time>2026-05-09T11:30:36.767Z</time>
      </trkpt>
      <trkpt lat="47.90147" lon="6.91695">
        <ele>1181</ele>
        <time>2026-05-09T11:30:37.767Z</time>
      </trkpt>
      <trkpt lat="47.90148" lon="6.91695">
        <ele>1182</ele>
        <time>2026-05-09T11:30:38.768Z</time>
      </trkpt>
      <trkpt lat="47.90149" lon="6.91694">
        <ele>1182</ele>
        <time>2026-05-09T11:30:39.767Z</time>
      </trkpt>
      <trkpt lat="47.9015" lon="6.91694">
        <ele>1182</ele>
        <time>2026-05-09T11:30:40.768Z</time>
      </trkpt>
      <trkpt lat="47.90151" lon="6.91694">
        <ele>1182</ele>
        <time>2026-05-09T11:30:41.767Z</time>
      </trkpt>
      <trkpt lat="47.90152" lon="6.91694">
        <ele>1182</ele>
        <time>2026-05-09T11:30:42.768Z</time>
      </trkpt>
      <trkpt lat="47.90153" lon="6.91693">
        <ele>1183</ele>
        <time>2026-05-09T11:30:43.767Z</time>
      </trkpt>
      <trkpt lat="47.90154" lon="6.91693">
        <ele>1183</ele>
        <time>2026-05-09T11:30:44.768Z</time>
      </trkpt>
      <trkpt lat="47.90155" lon="6.91693">
        <ele>1183</ele>
        <time>2026-05-09T11:30:45.767Z</time>
      </trkpt>
      <trkpt lat="47.90156" lon="6.91693">
        <ele>1183</ele>
        <time>2026-05-09T11:30:46.768Z</time>
      </trkpt>
      <trkpt lat="47.90157" lon="6.91692">
        <ele>1184</ele>
        <time>2026-05-09T11:30:47.767Z</time>
      </trkpt>
      <trkpt lat="47.90158" lon="6.91692">
        <ele>1184</ele>
        <time>2026-05-09T11:30:48.768Z</time>
      </trkpt>
      <trkpt lat="47.90159" lon="6.91692">
        <ele>1184</ele>
        <time>2026-05-09T11:30:49.768Z</time>
      </trkpt>
      <trkpt lat="47.9016" lon="6.91691">
        <ele>1184</ele>
        <time>2026-05-09T11:30:50.768Z</time>
      </trkpt>
      <trkpt lat="47.90161" lon="6.91691">
        <ele>1185</ele>
        <time>2026-05-09T11:30:51.768Z</time>
      </trkpt>
      <trkpt lat="47.90161" lon="6.9169">
        <ele>1185</ele>
        <time>2026-05-09T11:30:52.767Z</time>
      </trkpt>
      <trkpt lat="47.90162" lon="6.9169">
        <ele>1185</ele>
        <time>2026-05-09T11:30:53.768Z</time>
      </trkpt>
      <trkpt lat="47.90163" lon="6.9169">
        <ele>1185</ele>
        <time>2026-05-09T11:30:54.767Z</time>
      </trkpt>
      <trkpt lat="47.90163" lon="6.9169">
        <ele>1186</ele>
        <time>2026-05-09T11:30:55.768Z</time>
      </trkpt>
      <trkpt lat="47.90164" lon="6.9169">
        <ele>1186</ele>
        <time>2026-05-09T11:30:56.767Z</time>
      </trkpt>
      <trkpt lat="47.90164" lon="6.9169">
        <ele>1186</ele>
        <time>2026-05-09T11:30:57.768Z</time>
      </trkpt>
      <trkpt lat="47.90165" lon="6.91689">
        <ele>1187</ele>
        <time>2026-05-09T11:30:58.767Z</time>
      </trkpt>
      <trkpt lat="47.90166" lon="6.91689">
        <ele>1187</ele>
        <time>2026-05-09T11:30:59.768Z</time>
      </trkpt>
      <trkpt lat="47.90167" lon="6.91688">
        <ele>1187</ele>
        <time>2026-05-09T11:31:00.767Z</time>
      </trkpt>
      <trkpt lat="47.90168" lon="6.91688">
        <ele>1188</ele>
        <time>2026-05-09T11:31:01.768Z</time>
      </trkpt>
      <trkpt lat="47.90169" lon="6.91688">
        <ele>1188</ele>
        <time>2026-05-09T11:31:02.767Z</time>
      </trkpt>
      <trkpt lat="47.9017" lon="6.91687">
        <ele>1188</ele>
        <time>2026-05-09T11:31:03.768Z</time>
      </trkpt>
      <trkpt lat="47.90171" lon="6.91687">
        <ele>1189</ele>
        <time>2026-05-09T11:31:04.767Z</time>
      </trkpt>
      <trkpt lat="47.90172" lon="6.91686">
        <ele>1189</ele>
        <time>2026-05-09T11:31:05.768Z</time>
      </trkpt>
      <trkpt lat="47.90173" lon="6.91686">
        <ele>1189</ele>
        <time>2026-05-09T11:31:06.768Z</time>
      </trkpt>
      <trkpt lat="47.90174" lon="6.91686">
        <ele>1189</ele>
        <time>2026-05-09T11:31:07.767Z</time>
      </trkpt>
      <trkpt lat="47.90176" lon="6.91685">
        <ele>1190</ele>
        <time>2026-05-09T11:31:08.767Z</time>
      </trkpt>
      <trkpt lat="47.90177" lon="6.91685">
        <ele>1190</ele>
        <time>2026-05-09T11:31:09.767Z</time>
      </trkpt>
      <trkpt lat="47.90178" lon="6.91685">
        <ele>1190</ele>
        <time>2026-05-09T11:31:10.767Z</time>
      </trkpt>
      <trkpt lat="47.90179" lon="6.91684">
        <ele>1189</ele>
        <time>2026-05-09T11:31:11.767Z</time>
      </trkpt>
      <trkpt lat="47.90181" lon="6.91684">
        <ele>1189</ele>
        <time>2026-05-09T11:31:12.768Z</time>
      </trkpt>
      <trkpt lat="47.90182" lon="6.91683">
        <ele>1189</ele>
        <time>2026-05-09T11:31:13.767Z</time>
      </trkpt>
      <trkpt lat="47.90183" lon="6.91683">
        <ele>1190</ele>
        <time>2026-05-09T11:31:14.768Z</time>
      </trkpt>
      <trkpt lat="47.90185" lon="6.91682">
        <ele>1190</ele>
        <time>2026-05-09T11:31:15.767Z</time>
      </trkpt>
      <trkpt lat="47.90186" lon="6.91682">
        <ele>1190</ele>
        <time>2026-05-09T11:31:16.768Z</time>
      </trkpt>
      <trkpt lat="47.90187" lon="6.91681">
        <ele>1191</ele>
        <time>2026-05-09T11:31:17.767Z</time>
      </trkpt>
      <trkpt lat="47.90188" lon="6.91681">
        <ele>1191</ele>
        <time>2026-05-09T11:31:18.768Z</time>
      </trkpt>
      <trkpt lat="47.90189" lon="6.9168">
        <ele>1191</ele>
        <time>2026-05-09T11:31:19.768Z</time>
      </trkpt>
      <trkpt lat="47.9019" lon="6.9168">
        <ele>1191</ele>
        <time>2026-05-09T11:31:20.768Z</time>
      </trkpt>
      <trkpt lat="47.90191" lon="6.9168">
        <ele>1192</ele>
        <time>2026-05-09T11:31:21.767Z</time>
      </trkpt>
      <trkpt lat="47.90192" lon="6.91679">
        <ele>1192</ele>
        <time>2026-05-09T11:31:22.768Z</time>
      </trkpt>
      <trkpt lat="47.90193" lon="6.91679">
        <ele>1192</ele>
        <time>2026-05-09T11:31:23.768Z</time>
      </trkpt>
      <trkpt lat="47.90194" lon="6.91679">
        <ele>1192</ele>
        <time>2026-05-09T11:31:24.768Z</time>
      </trkpt>
      <trkpt lat="47.90195" lon="6.91678">
        <ele>1192</ele>
        <time>2026-05-09T11:31:25.768Z</time>
      </trkpt>
      <trkpt lat="47.90197" lon="6.91678">
        <ele>1192</ele>
        <time>2026-05-09T11:31:26.767Z</time>
      </trkpt>
      <trkpt lat="47.90198" lon="6.91678">
        <ele>1193</ele>
        <time>2026-05-09T11:31:27.768Z</time>
      </trkpt>
      <trkpt lat="47.90199" lon="6.91678">
        <ele>1193</ele>
        <time>2026-05-09T11:31:28.767Z</time>
      </trkpt>
      <trkpt lat="47.902" lon="6.91678">
        <ele>1193</ele>
        <time>2026-05-09T11:31:29.768Z</time>
      </trkpt>
      <trkpt lat="47.90201" lon="6.91677">
        <ele>1193</ele>
        <time>2026-05-09T11:31:30.767Z</time>
      </trkpt>
      <trkpt lat="47.90201" lon="6.91677">
        <ele>1193</ele>
        <time>2026-05-09T11:31:31.768Z</time>
      </trkpt>
      <trkpt lat="47.90202" lon="6.91677">
        <ele>1193</ele>
        <time>2026-05-09T11:31:32.767Z</time>
      </trkpt>
      <trkpt lat="47.90203" lon="6.91676">
        <ele>1193</ele>
        <time>2026-05-09T11:31:33.768Z</time>
      </trkpt>
      <trkpt lat="47.90204" lon="6.91676">
        <ele>1193</ele>
        <time>2026-05-09T11:31:34.767Z</time>
      </trkpt>
      <trkpt lat="47.90205" lon="6.91675">
        <ele>1193</ele>
        <time>2026-05-09T11:31:35.768Z</time>
      </trkpt>
      <trkpt lat="47.90207" lon="6.91675">
        <ele>1193</ele>
        <time>2026-05-09T11:31:36.767Z</time>
      </trkpt>
      <trkpt lat="47.90208" lon="6.91675">
        <ele>1194</ele>
        <time>2026-05-09T11:31:37.768Z</time>
      </trkpt>
      <trkpt lat="47.90209" lon="6.91675">
        <ele>1194</ele>
        <time>2026-05-09T11:31:38.768Z</time>
      </trkpt>
      <trkpt lat="47.9021" lon="6.91675">
        <ele>1194</ele>
        <time>2026-05-09T11:31:39.768Z</time>
      </trkpt>
      <trkpt lat="47.90211" lon="6.91675">
        <ele>1194</ele>
        <time>2026-05-09T11:31:40.768Z</time>
      </trkpt>
      <trkpt lat="47.90212" lon="6.91675">
        <ele>1194</ele>
        <time>2026-05-09T11:31:41.767Z</time>
      </trkpt>
      <trkpt lat="47.90213" lon="6.91675">
        <ele>1195</ele>
        <time>2026-05-09T11:31:42.767Z</time>
      </trkpt>
      <trkpt lat="47.90214" lon="6.91675">
        <ele>1195</ele>
        <time>2026-05-09T11:31:43.768Z</time>
      </trkpt>
      <trkpt lat="47.90215" lon="6.91675">
        <ele>1195</ele>
        <time>2026-05-09T11:31:44.768Z</time>
      </trkpt>
      <trkpt lat="47.90216" lon="6.91675">
        <ele>1195</ele>
        <time>2026-05-09T11:31:45.767Z</time>
      </trkpt>
      <trkpt lat="47.90217" lon="6.91675">
        <ele>1195</ele>
        <time>2026-05-09T11:31:46.768Z</time>
      </trkpt>
      <trkpt lat="47.90218" lon="6.91675">
        <ele>1195</ele>
        <time>2026-05-09T11:31:47.767Z</time>
      </trkpt>
      <trkpt lat="47.90218" lon="6.91676">
        <ele>1195</ele>
        <time>2026-05-09T11:31:48.767Z</time>
      </trkpt>
      <trkpt lat="47.90219" lon="6.91676">
        <ele>1195</ele>
        <time>2026-05-09T11:31:49.767Z</time>
      </trkpt>
      <trkpt lat="47.90219" lon="6.91676">
        <ele>1196</ele>
        <time>2026-05-09T11:31:50.768Z</time>
      </trkpt>
      <trkpt lat="47.90218" lon="6.91678">
        <ele>1199</ele>
        <time>2026-05-09T11:32:53.203Z</time>
      </trkpt>
      <trkpt lat="47.90218" lon="6.91678">
        <ele>1199</ele>
        <time>2026-05-09T11:32:54.204Z</time>
      </trkpt>
      <trkpt lat="47.90218" lon="6.91678">
        <ele>1199</ele>
        <time>2026-05-09T11:32:55.203Z</time>
      </trkpt>
      <trkpt lat="47.90217" lon="6.91678">
        <ele>1199</ele>
        <time>2026-05-09T11:32:56.204Z</time>
      </trkpt>
      <trkpt lat="47.90217" lon="6.91678">
        <ele>1199</ele>
        <time>2026-05-09T11:32:57.203Z</time>
      </trkpt>
      <trkpt lat="47.90215" lon="6.91681">
        <ele>1199</ele>
        <time>2026-05-09T11:33:10.456Z</time>
      </trkpt>
      <trkpt lat="47.90215" lon="6.91681">
        <ele>1199</ele>
        <time>2026-05-09T11:33:11.457Z</time>
      </trkpt>
      <trkpt lat="47.90215" lon="6.91681">
        <ele>1199</ele>
        <time>2026-05-09T11:33:12.456Z</time>
      </trkpt>
      <trkpt lat="47.90215" lon="6.91686">
        <ele>1197</ele>
        <time>2026-05-09T11:33:44.601Z</time>
      </trkpt>
      <trkpt lat="47.90216" lon="6.91686">
        <ele>1197</ele>
        <time>2026-05-09T11:33:45.600Z</time>
      </trkpt>
      <trkpt lat="47.90216" lon="6.91687">
        <ele>1197</ele>
        <time>2026-05-09T11:33:46.600Z</time>
      </trkpt>
      <trkpt lat="47.90215" lon="6.91688">
        <ele>1197</ele>
        <time>2026-05-09T11:33:47.600Z</time>
      </trkpt>
      <trkpt lat="47.90215" lon="6.91688">
        <ele>1198</ele>
        <time>2026-05-09T11:33:48.600Z</time>
      </trkpt>
      <trkpt lat="47.90215" lon="6.91689">
        <ele>1198</ele>
        <time>2026-05-09T11:33:49.600Z</time>
      </trkpt>
      <trkpt lat="47.90215" lon="6.91689">
        <ele>1198</ele>
        <time>2026-05-09T11:33:50.601Z</time>
      </trkpt>
      <trkpt lat="47.90215" lon="6.91689">
        <ele>1201</ele>
        <time>2026-05-09T11:33:59.935Z</time>
      </trkpt>
      <trkpt lat="47.90215" lon="6.91689">
        <ele>1201</ele>
        <time>2026-05-09T11:34:00.936Z</time>
      </trkpt>
      <trkpt lat="47.90215" lon="6.91689">
        <ele>1201</ele>
        <time>2026-05-09T11:34:01.935Z</time>
      </trkpt>
      <trkpt lat="47.90215" lon="6.91688">
        <ele>1201</ele>
        <time>2026-05-09T11:34:02.936Z</time>
      </trkpt>
      <trkpt lat="47.90215" lon="6.91688">
        <ele>1201</ele>
        <time>2026-05-09T11:34:03.935Z</time>
      </trkpt>
      <trkpt lat="47.90215" lon="6.91688">
        <ele>1201</ele>
        <time>2026-05-09T11:34:04.936Z</time>
      </trkpt>
      <trkpt lat="47.90215" lon="6.91688">
        <ele>1202</ele>
        <time>2026-05-09T11:34:05.935Z</time>
      </trkpt>
      <trkpt lat="47.90215" lon="6.91688">
        <ele>1202</ele>
        <time>2026-05-09T11:34:06.936Z</time>
      </trkpt>
      <trkpt lat="47.90215" lon="6.91688">
        <ele>1202</ele>
        <time>2026-05-09T11:34:07.935Z</time>
      </trkpt>
      <trkpt lat="47.90215" lon="6.91688">
        <ele>1201</ele>
        <time>2026-05-09T11:34:08.936Z</time>
      </trkpt>
      <trkpt lat="47.90215" lon="6.91688">
        <ele>1201</ele>
        <time>2026-05-09T11:34:09.936Z</time>
      </trkpt>
      <trkpt lat="47.90215" lon="6.91688">
        <ele>1201</ele>
        <time>2026-05-09T11:34:10.935Z</time>
      </trkpt>
      <trkpt lat="47.90215" lon="6.91688">
        <ele>1200</ele>
        <time>2026-05-09T11:34:11.935Z</time>
      </trkpt>
      <trkpt lat="47.90216" lon="6.91688">
        <ele>1200</ele>
        <time>2026-05-09T11:34:12.935Z</time>
      </trkpt>
      <trkpt lat="47.90216" lon="6.91688">
        <ele>1200</ele>
        <time>2026-05-09T11:34:13.936Z</time>
      </trkpt>
      <trkpt lat="47.90215" lon="6.91688">
        <ele>1200</ele>
        <time>2026-05-09T11:34:14.935Z</time>
      </trkpt>
      <trkpt lat="47.90215" lon="6.91688">
        <ele>1200</ele>
        <time>2026-05-09T11:34:15.936Z</time>
      </trkpt>
      <trkpt lat="47.90216" lon="6.91688">
        <ele>1201</ele>
        <time>2026-05-09T11:34:16.935Z</time>
      </trkpt>
      <trkpt lat="47.90215" lon="6.91688">
        <ele>1201</ele>
        <time>2026-05-09T11:34:17.935Z</time>
      </trkpt>
      <trkpt lat="47.90215" lon="6.91688">
        <ele>1201</ele>
        <time>2026-05-09T11:34:18.935Z</time>
      </trkpt>
      <trkpt lat="47.90216" lon="6.91687">
        <ele>1200</ele>
        <time>2026-05-09T11:34:19.935Z</time>
      </trkpt>
      <trkpt lat="47.90217" lon="6.91687">
        <ele>1200</ele>
        <time>2026-05-09T11:34:20.935Z</time>
      </trkpt>
      <trkpt lat="47.90217" lon="6.91687">
        <ele>1200</ele>
        <time>2026-05-09T11:34:21.936Z</time>
      </trkpt>
      <trkpt lat="47.90217" lon="6.91687">
        <ele>1201</ele>
        <time>2026-05-09T11:34:22.935Z</time>
      </trkpt>
      <trkpt lat="47.90217" lon="6.91687">
        <ele>1201</ele>
        <time>2026-05-09T11:34:23.936Z</time>
      </trkpt>
      <trkpt lat="47.90217" lon="6.91687">
        <ele>1201</ele>
        <time>2026-05-09T11:34:24.935Z</time>
      </trkpt>
      <trkpt lat="47.90217" lon="6.91687">
        <ele>1201</ele>
        <time>2026-05-09T11:34:25.935Z</time>
      </trkpt>
      <trkpt lat="47.90217" lon="6.91687">
        <ele>1201</ele>
        <time>2026-05-09T11:34:26.936Z</time>
      </trkpt>
      <trkpt lat="47.90217" lon="6.91687">
        <ele>1201</ele>
        <time>2026-05-09T11:34:27.936Z</time>
      </trkpt>
      <trkpt lat="47.90217" lon="6.91687">
        <ele>1200</ele>
        <time>2026-05-09T11:34:28.936Z</time>
      </trkpt>
      <trkpt lat="47.90217" lon="6.91687">
        <ele>1200</ele>
        <time>2026-05-09T11:34:29.936Z</time>
      </trkpt>
      <trkpt lat="47.90217" lon="6.91688">
        <ele>1200</ele>
        <time>2026-05-09T11:34:30.936Z</time>
      </trkpt>
      <trkpt lat="47.90217" lon="6.91688">
        <ele>1200</ele>
        <time>2026-05-09T11:34:31.935Z</time>
      </trkpt>
      <trkpt lat="47.90215" lon="6.91689">
        <ele>1200</ele>
        <time>2026-05-09T11:34:38.283Z</time>
      </trkpt>
      <trkpt lat="47.90215" lon="6.91689">
        <ele>1200</ele>
        <time>2026-05-09T11:34:39.282Z</time>
      </trkpt>
      <trkpt lat="47.90215" lon="6.91689">
        <ele>1200</ele>
        <time>2026-05-09T11:34:40.283Z</time>
      </trkpt>
      <trkpt lat="47.90215" lon="6.91689">
        <ele>1200</ele>
        <time>2026-05-09T11:34:41.283Z</time>
      </trkpt>
      <trkpt lat="47.90215" lon="6.91689">
        <ele>1200</ele>
        <time>2026-05-09T11:34:42.282Z</time>
      </trkpt>
      <trkpt lat="47.90215" lon="6.91689">
        <ele>1200</ele>
        <time>2026-05-09T11:34:43.282Z</time>
      </trkpt>
      <trkpt lat="47.90215" lon="6.91689">
        <ele>1200</ele>
        <time>2026-05-09T11:34:44.282Z</time>
      </trkpt>
      <trkpt lat="47.90216" lon="6.91689">
        <ele>1200</ele>
        <time>2026-05-09T11:34:45.283Z</time>
      </trkpt>
      <trkpt lat="47.90216" lon="6.91689">
        <ele>1200</ele>
        <time>2026-05-09T11:34:46.283Z</time>
      </trkpt>
      <trkpt lat="47.90216" lon="6.91689">
        <ele>1199</ele>
        <time>2026-05-09T11:34:47.282Z</time>
      </trkpt>
      <trkpt lat="47.90216" lon="6.91689">
        <ele>1199</ele>
        <time>2026-05-09T11:34:48.282Z</time>
      </trkpt>
      <trkpt lat="47.90216" lon="6.91689">
        <ele>1199</ele>
        <time>2026-05-09T11:34:49.283Z</time>
      </trkpt>
      <trkpt lat="47.90217" lon="6.91689">
        <ele>1199</ele>
        <time>2026-05-09T11:34:50.283Z</time>
      </trkpt>
      <trkpt lat="47.90217" lon="6.91689">
        <ele>1199</ele>
        <time>2026-05-09T11:34:51.282Z</time>
      </trkpt>
      <trkpt lat="47.90218" lon="6.91689">
        <ele>1199</ele>
        <time>2026-05-09T11:34:52.283Z</time>
      </trkpt>
      <trkpt lat="47.90218" lon="6.91689">
        <ele>1199</ele>
        <time>2026-05-09T11:34:53.282Z</time>
      </trkpt>
      <trkpt lat="47.90218" lon="6.91689">
        <ele>1198</ele>
        <time>2026-05-09T11:34:54.283Z</time>
      </trkpt>
      <trkpt lat="47.90218" lon="6.9169">
        <ele>1198</ele>
        <time>2026-05-09T11:34:55.283Z</time>
      </trkpt>
      <trkpt lat="47.90218" lon="6.9169">
        <ele>1198</ele>
        <time>2026-05-09T11:34:56.282Z</time>
      </trkpt>
      <trkpt lat="47.90218" lon="6.9169">
        <ele>1198</ele>
        <time>2026-05-09T11:34:57.283Z</time>
      </trkpt>
      <trkpt lat="47.90218" lon="6.9169">
        <ele>1198</ele>
        <time>2026-05-09T11:34:58.283Z</time>
      </trkpt>
      <trkpt lat="47.90218" lon="6.9169">
        <ele>1197</ele>
        <time>2026-05-09T11:34:59.283Z</time>
      </trkpt>
      <trkpt lat="47.90218" lon="6.9169">
        <ele>1197</ele>
        <time>2026-05-09T11:35:00.282Z</time>
      </trkpt>
      <trkpt lat="47.90218" lon="6.91689">
        <ele>1197</ele>
        <time>2026-05-09T11:35:01.282Z</time>
      </trkpt>
      <trkpt lat="47.90219" lon="6.91689">
        <ele>1196</ele>
        <time>2026-05-09T11:35:02.283Z</time>
      </trkpt>
      <trkpt lat="47.90219" lon="6.9169">
        <ele>1196</ele>
        <time>2026-05-09T11:35:03.283Z</time>
      </trkpt>
      <trkpt lat="47.90219" lon="6.9169">
        <ele>1196</ele>
        <time>2026-05-09T11:35:04.282Z</time>
      </trkpt>
      <trkpt lat="47.90219" lon="6.91691">
        <ele>1196</ele>
        <time>2026-05-09T11:35:05.282Z</time>
      </trkpt>
      <trkpt lat="47.9022" lon="6.91691">
        <ele>1196</ele>
        <time>2026-05-09T11:35:06.283Z</time>
      </trkpt>
      <trkpt lat="47.9022" lon="6.91691">
        <ele>1196</ele>
        <time>2026-05-09T11:35:07.283Z</time>
      </trkpt>
      <trkpt lat="47.90222" lon="6.91692">
        <ele>1196</ele>
        <time>2026-05-09T11:35:22.483Z</time>
      </trkpt>
      <trkpt lat="47.90223" lon="6.91691">
        <ele>1196</ele>
        <time>2026-05-09T11:35:23.483Z</time>
      </trkpt>
      <trkpt lat="47.90223" lon="6.91691">
        <ele>1195</ele>
        <time>2026-05-09T11:35:24.483Z</time>
      </trkpt>
      <trkpt lat="47.90224" lon="6.91692">
        <ele>1195</ele>
        <time>2026-05-09T11:35:25.483Z</time>
      </trkpt>
      <trkpt lat="47.90225" lon="6.91692">
        <ele>1195</ele>
        <time>2026-05-09T11:35:26.482Z</time>
      </trkpt>
      <trkpt lat="47.90225" lon="6.91692">
        <ele>1195</ele>
        <time>2026-05-09T11:35:27.482Z</time>
      </trkpt>
      <trkpt lat="47.90226" lon="6.91693">
        <ele>1195</ele>
        <time>2026-05-09T11:35:28.482Z</time>
      </trkpt>
      <trkpt lat="47.90226" lon="6.91693">
        <ele>1195</ele>
        <time>2026-05-09T11:35:29.482Z</time>
      </trkpt>
      <trkpt lat="47.90226" lon="6.91694">
        <ele>1195</ele>
        <time>2026-05-09T11:35:30.482Z</time>
      </trkpt>
      <trkpt lat="47.90226" lon="6.91694">
        <ele>1195</ele>
        <time>2026-05-09T11:35:31.482Z</time>
      </trkpt>
      <trkpt lat="47.90227" lon="6.91696">
        <ele>1195</ele>
        <time>2026-05-09T11:35:40.928Z</time>
      </trkpt>
      <trkpt lat="47.90227" lon="6.91697">
        <ele>1195</ele>
        <time>2026-05-09T11:35:41.929Z</time>
      </trkpt>
      <trkpt lat="47.90228" lon="6.91698">
        <ele>1195</ele>
        <time>2026-05-09T11:35:42.928Z</time>
      </trkpt>
      <trkpt lat="47.90229" lon="6.91699">
        <ele>1195</ele>
        <time>2026-05-09T11:35:43.929Z</time>
      </trkpt>
      <trkpt lat="47.9023" lon="6.917">
        <ele>1195</ele>
        <time>2026-05-09T11:35:44.929Z</time>
      </trkpt>
      <trkpt lat="47.90231" lon="6.917">
        <ele>1195</ele>
        <time>2026-05-09T11:35:45.928Z</time>
      </trkpt>
      <trkpt lat="47.90232" lon="6.91701">
        <ele>1196</ele>
        <time>2026-05-09T11:35:46.928Z</time>
      </trkpt>
      <trkpt lat="47.90233" lon="6.91702">
        <ele>1196</ele>
        <time>2026-05-09T11:35:47.929Z</time>
      </trkpt>
      <trkpt lat="47.90233" lon="6.91703">
        <ele>1196</ele>
        <time>2026-05-09T11:35:48.928Z</time>
      </trkpt>
      <trkpt lat="47.90234" lon="6.91704">
        <ele>1196</ele>
        <time>2026-05-09T11:35:49.929Z</time>
      </trkpt>
      <trkpt lat="47.90235" lon="6.91704">
        <ele>1195</ele>
        <time>2026-05-09T11:35:50.928Z</time>
      </trkpt>
      <trkpt lat="47.90236" lon="6.91705">
        <ele>1195</ele>
        <time>2026-05-09T11:35:51.929Z</time>
      </trkpt>
      <trkpt lat="47.90237" lon="6.91706">
        <ele>1195</ele>
        <time>2026-05-09T11:35:52.928Z</time>
      </trkpt>
      <trkpt lat="47.90238" lon="6.91707">
        <ele>1195</ele>
        <time>2026-05-09T11:35:53.929Z</time>
      </trkpt>
      <trkpt lat="47.90239" lon="6.91708">
        <ele>1195</ele>
        <time>2026-05-09T11:35:54.929Z</time>
      </trkpt>
      <trkpt lat="47.90239" lon="6.91709">
        <ele>1194</ele>
        <time>2026-05-09T11:35:55.928Z</time>
      </trkpt>
      <trkpt lat="47.9024" lon="6.9171">
        <ele>1194</ele>
        <time>2026-05-09T11:35:56.929Z</time>
      </trkpt>
      <trkpt lat="47.90241" lon="6.91711">
        <ele>1194</ele>
        <time>2026-05-09T11:35:57.928Z</time>
      </trkpt>
      <trkpt lat="47.90242" lon="6.91712">
        <ele>1194</ele>
        <time>2026-05-09T11:35:58.928Z</time>
      </trkpt>
      <trkpt lat="47.90242" lon="6.91712">
        <ele>1194</ele>
        <time>2026-05-09T11:35:59.928Z</time>
      </trkpt>
      <trkpt lat="47.90243" lon="6.91713">
        <ele>1193</ele>
        <time>2026-05-09T11:36:00.929Z</time>
      </trkpt>
      <trkpt lat="47.90244" lon="6.91714">
        <ele>1193</ele>
        <time>2026-05-09T11:36:01.928Z</time>
      </trkpt>
      <trkpt lat="47.90245" lon="6.91716">
        <ele>1193</ele>
        <time>2026-05-09T11:36:02.929Z</time>
      </trkpt>
      <trkpt lat="47.90246" lon="6.91717">
        <ele>1193</ele>
        <time>2026-05-09T11:36:03.928Z</time>
      </trkpt>
      <trkpt lat="47.90247" lon="6.91718">
        <ele>1193</ele>
        <time>2026-05-09T11:36:04.929Z</time>
      </trkpt>
      <trkpt lat="47.90248" lon="6.91719">
        <ele>1192</ele>
        <time>2026-05-09T11:36:05.928Z</time>
      </trkpt>
      <trkpt lat="47.90249" lon="6.9172">
        <ele>1192</ele>
        <time>2026-05-09T11:36:06.928Z</time>
      </trkpt>
      <trkpt lat="47.9025" lon="6.91721">
        <ele>1191</ele>
        <time>2026-05-09T11:36:07.928Z</time>
      </trkpt>
      <trkpt lat="47.90251" lon="6.91722">
        <ele>1191</ele>
        <time>2026-05-09T11:36:08.928Z</time>
      </trkpt>
      <trkpt lat="47.90252" lon="6.91723">
        <ele>1191</ele>
        <time>2026-05-09T11:36:09.928Z</time>
      </trkpt>
      <trkpt lat="47.90253" lon="6.91724">
        <ele>1190</ele>
        <time>2026-05-09T11:36:10.928Z</time>
      </trkpt>
      <trkpt lat="47.90254" lon="6.91725">
        <ele>1190</ele>
        <time>2026-05-09T11:36:11.929Z</time>
      </trkpt>
      <trkpt lat="47.90255" lon="6.91726">
        <ele>1190</ele>
        <time>2026-05-09T11:36:12.928Z</time>
      </trkpt>
      <trkpt lat="47.90256" lon="6.91726">
        <ele>1190</ele>
        <time>2026-05-09T11:36:13.929Z</time>
      </trkpt>
      <trkpt lat="47.90257" lon="6.91727">
        <ele>1189</ele>
        <time>2026-05-09T11:36:14.929Z</time>
      </trkpt>
      <trkpt lat="47.90258" lon="6.91728">
        <ele>1189</ele>
        <time>2026-05-09T11:36:15.929Z</time>
      </trkpt>
      <trkpt lat="47.90259" lon="6.91729">
        <ele>1189</ele>
        <time>2026-05-09T11:36:16.928Z</time>
      </trkpt>
      <trkpt lat="47.9026" lon="6.91731">
        <ele>1188</ele>
        <time>2026-05-09T11:36:17.929Z</time>
      </trkpt>
      <trkpt lat="47.9026" lon="6.91732">
        <ele>1188</ele>
        <time>2026-05-09T11:36:18.928Z</time>
      </trkpt>
      <trkpt lat="47.90262" lon="6.91733">
        <ele>1188</ele>
        <time>2026-05-09T11:36:19.929Z</time>
      </trkpt>
      <trkpt lat="47.90263" lon="6.91733">
        <ele>1188</ele>
        <time>2026-05-09T11:36:20.928Z</time>
      </trkpt>
      <trkpt lat="47.90264" lon="6.91734">
        <ele>1188</ele>
        <time>2026-05-09T11:36:21.929Z</time>
      </trkpt>
      <trkpt lat="47.90265" lon="6.91735">
        <ele>1188</ele>
        <time>2026-05-09T11:36:22.928Z</time>
      </trkpt>
      <trkpt lat="47.90266" lon="6.91736">
        <ele>1188</ele>
        <time>2026-05-09T11:36:23.928Z</time>
      </trkpt>
      <trkpt lat="47.90267" lon="6.91737">
        <ele>1188</ele>
        <time>2026-05-09T11:36:24.928Z</time>
      </trkpt>
      <trkpt lat="47.90268" lon="6.91738">
        <ele>1187</ele>
        <time>2026-05-09T11:36:25.929Z</time>
      </trkpt>
      <trkpt lat="47.90269" lon="6.91739">
        <ele>1187</ele>
        <time>2026-05-09T11:36:26.928Z</time>
      </trkpt>
      <trkpt lat="47.90271" lon="6.9174">
        <ele>1187</ele>
        <time>2026-05-09T11:36:27.929Z</time>
      </trkpt>
      <trkpt lat="47.90272" lon="6.91741">
        <ele>1187</ele>
        <time>2026-05-09T11:36:28.928Z</time>
      </trkpt>
      <trkpt lat="47.90273" lon="6.91742">
        <ele>1187</ele>
        <time>2026-05-09T11:36:29.929Z</time>
      </trkpt>
      <trkpt lat="47.90274" lon="6.91744">
        <ele>1187</ele>
        <time>2026-05-09T11:36:30.928Z</time>
      </trkpt>
      <trkpt lat="47.90275" lon="6.91745">
        <ele>1187</ele>
        <time>2026-05-09T11:36:31.929Z</time>
      </trkpt>
      <trkpt lat="47.90276" lon="6.91746">
        <ele>1186</ele>
        <time>2026-05-09T11:36:32.929Z</time>
      </trkpt>
      <trkpt lat="47.90277" lon="6.91747">
        <ele>1186</ele>
        <time>2026-05-09T11:36:33.928Z</time>
      </trkpt>
      <trkpt lat="47.90278" lon="6.91749">
        <ele>1186</ele>
        <time>2026-05-09T11:36:34.928Z</time>
      </trkpt>
      <trkpt lat="47.90279" lon="6.9175">
        <ele>1186</ele>
        <time>2026-05-09T11:36:35.928Z</time>
      </trkpt>
      <trkpt lat="47.9028" lon="6.91751">
        <ele>1186</ele>
        <time>2026-05-09T11:36:36.928Z</time>
      </trkpt>
      <trkpt lat="47.90282" lon="6.91752">
        <ele>1186</ele>
        <time>2026-05-09T11:36:37.929Z</time>
      </trkpt>
      <trkpt lat="47.90283" lon="6.91752">
        <ele>1186</ele>
        <time>2026-05-09T11:36:38.928Z</time>
      </trkpt>
      <trkpt lat="47.90285" lon="6.91753">
        <ele>1186</ele>
        <time>2026-05-09T11:36:39.928Z</time>
      </trkpt>
      <trkpt lat="47.90286" lon="6.91754">
        <ele>1186</ele>
        <time>2026-05-09T11:36:40.928Z</time>
      </trkpt>
      <trkpt lat="47.90287" lon="6.91756">
        <ele>1185</ele>
        <time>2026-05-09T11:36:41.929Z</time>
      </trkpt>
      <trkpt lat="47.90288" lon="6.91756">
        <ele>1185</ele>
        <time>2026-05-09T11:36:42.928Z</time>
      </trkpt>
      <trkpt lat="47.9029" lon="6.91756">
        <ele>1185</ele>
        <time>2026-05-09T11:36:43.929Z</time>
      </trkpt>
      <trkpt lat="47.90291" lon="6.91757">
        <ele>1185</ele>
        <time>2026-05-09T11:36:44.928Z</time>
      </trkpt>
      <trkpt lat="47.90292" lon="6.91759">
        <ele>1185</ele>
        <time>2026-05-09T11:36:45.929Z</time>
      </trkpt>
      <trkpt lat="47.90294" lon="6.9176">
        <ele>1184</ele>
        <time>2026-05-09T11:36:46.929Z</time>
      </trkpt>
      <trkpt lat="47.90295" lon="6.9176">
        <ele>1184</ele>
        <time>2026-05-09T11:36:47.928Z</time>
      </trkpt>
      <trkpt lat="47.90297" lon="6.91761">
        <ele>1184</ele>
        <time>2026-05-09T11:36:48.929Z</time>
      </trkpt>
      <trkpt lat="47.90298" lon="6.91762">
        <ele>1184</ele>
        <time>2026-05-09T11:36:49.928Z</time>
      </trkpt>
      <trkpt lat="47.90299" lon="6.91763">
        <ele>1184</ele>
        <time>2026-05-09T11:36:50.929Z</time>
      </trkpt>
      <trkpt lat="47.903" lon="6.91764">
        <ele>1184</ele>
        <time>2026-05-09T11:36:51.928Z</time>
      </trkpt>
      <trkpt lat="47.90301" lon="6.91765">
        <ele>1184</ele>
        <time>2026-05-09T11:36:52.929Z</time>
      </trkpt>
      <trkpt lat="47.90302" lon="6.91767">
        <ele>1183</ele>
        <time>2026-05-09T11:36:53.929Z</time>
      </trkpt>
      <trkpt lat="47.90302" lon="6.91768">
        <ele>1183</ele>
        <time>2026-05-09T11:36:54.928Z</time>
      </trkpt>
      <trkpt lat="47.90303" lon="6.9177">
        <ele>1183</ele>
        <time>2026-05-09T11:36:55.928Z</time>
      </trkpt>
      <trkpt lat="47.90304" lon="6.9177">
        <ele>1183</ele>
        <time>2026-05-09T11:36:56.928Z</time>
      </trkpt>
      <trkpt lat="47.90305" lon="6.91772">
        <ele>1183</ele>
        <time>2026-05-09T11:36:57.929Z</time>
      </trkpt>
      <trkpt lat="47.90306" lon="6.91774">
        <ele>1182</ele>
        <time>2026-05-09T11:36:58.928Z</time>
      </trkpt>
      <trkpt lat="47.90306" lon="6.91775">
        <ele>1182</ele>
        <time>2026-05-09T11:36:59.928Z</time>
      </trkpt>
      <trkpt lat="47.90307" lon="6.91777">
        <ele>1182</ele>
        <time>2026-05-09T11:37:00.928Z</time>
      </trkpt>
      <trkpt lat="47.90308" lon="6.91779">
        <ele>1182</ele>
        <time>2026-05-09T11:37:01.928Z</time>
      </trkpt>
      <trkpt lat="47.90308" lon="6.9178">
        <ele>1182</ele>
        <time>2026-05-09T11:37:02.928Z</time>
      </trkpt>
      <trkpt lat="47.90309" lon="6.91781">
        <ele>1182</ele>
        <time>2026-05-09T11:37:03.929Z</time>
      </trkpt>
      <trkpt lat="47.90309" lon="6.91783">
        <ele>1181</ele>
        <time>2026-05-09T11:37:04.928Z</time>
      </trkpt>
      <trkpt lat="47.9031" lon="6.91785">
        <ele>1181</ele>
        <time>2026-05-09T11:37:05.929Z</time>
      </trkpt>
      <trkpt lat="47.9031" lon="6.91787">
        <ele>1181</ele>
        <time>2026-05-09T11:37:06.928Z</time>
      </trkpt>
      <trkpt lat="47.90311" lon="6.91789">
        <ele>1181</ele>
        <time>2026-05-09T11:37:07.929Z</time>
      </trkpt>
      <trkpt lat="47.90312" lon="6.91791">
        <ele>1181</ele>
        <time>2026-05-09T11:37:08.928Z</time>
      </trkpt>
      <trkpt lat="47.90313" lon="6.91793">
        <ele>1180</ele>
        <time>2026-05-09T11:37:09.928Z</time>
      </trkpt>
      <trkpt lat="47.90313" lon="6.91795">
        <ele>1180</ele>
        <time>2026-05-09T11:37:10.928Z</time>
      </trkpt>
      <trkpt lat="47.90314" lon="6.91796">
        <ele>1180</ele>
        <time>2026-05-09T11:37:11.929Z</time>
      </trkpt>
      <trkpt lat="47.90314" lon="6.91798">
        <ele>1179</ele>
        <time>2026-05-09T11:37:12.929Z</time>
      </trkpt>
      <trkpt lat="47.90315" lon="6.918">
        <ele>1179</ele>
        <time>2026-05-09T11:37:13.928Z</time>
      </trkpt>
      <trkpt lat="47.90316" lon="6.91801">
        <ele>1179</ele>
        <time>2026-05-09T11:37:14.929Z</time>
      </trkpt>
      <trkpt lat="47.90317" lon="6.91803">
        <ele>1179</ele>
        <time>2026-05-09T11:37:15.928Z</time>
      </trkpt>
      <trkpt lat="47.90318" lon="6.91805">
        <ele>1179</ele>
        <time>2026-05-09T11:37:16.929Z</time>
      </trkpt>
      <trkpt lat="47.90319" lon="6.91806">
        <ele>1179</ele>
        <time>2026-05-09T11:37:17.928Z</time>
      </trkpt>
      <trkpt lat="47.90319" lon="6.91808">
        <ele>1178</ele>
        <time>2026-05-09T11:37:18.928Z</time>
      </trkpt>
      <trkpt lat="47.9032" lon="6.9181">
        <ele>1178</ele>
        <time>2026-05-09T11:37:19.929Z</time>
      </trkpt>
      <trkpt lat="47.90321" lon="6.91812">
        <ele>1178</ele>
        <time>2026-05-09T11:37:20.928Z</time>
      </trkpt>
      <trkpt lat="47.90322" lon="6.91814">
        <ele>1178</ele>
        <time>2026-05-09T11:37:21.929Z</time>
      </trkpt>
      <trkpt lat="47.90323" lon="6.91816">
        <ele>1178</ele>
        <time>2026-05-09T11:37:22.929Z</time>
      </trkpt>
      <trkpt lat="47.90324" lon="6.91818">
        <ele>1178</ele>
        <time>2026-05-09T11:37:23.928Z</time>
      </trkpt>
      <trkpt lat="47.90324" lon="6.9182">
        <ele>1178</ele>
        <time>2026-05-09T11:37:24.929Z</time>
      </trkpt>
      <trkpt lat="47.90325" lon="6.91822">
        <ele>1178</ele>
        <time>2026-05-09T11:37:25.928Z</time>
      </trkpt>
      <trkpt lat="47.90325" lon="6.91824">
        <ele>1178</ele>
        <time>2026-05-09T11:37:26.929Z</time>
      </trkpt>
      <trkpt lat="47.90326" lon="6.91825">
        <ele>1178</ele>
        <time>2026-05-09T11:37:27.928Z</time>
      </trkpt>
      <trkpt lat="47.90327" lon="6.91827">
        <ele>1178</ele>
        <time>2026-05-09T11:37:28.928Z</time>
      </trkpt>
      <trkpt lat="47.90328" lon="6.91829">
        <ele>1178</ele>
        <time>2026-05-09T11:37:29.928Z</time>
      </trkpt>
      <trkpt lat="47.90329" lon="6.9183">
        <ele>1177</ele>
        <time>2026-05-09T11:37:30.929Z</time>
      </trkpt>
      <trkpt lat="47.9033" lon="6.91832">
        <ele>1177</ele>
        <time>2026-05-09T11:37:31.928Z</time>
      </trkpt>
      <trkpt lat="47.9033" lon="6.91833">
        <ele>1177</ele>
        <time>2026-05-09T11:37:32.929Z</time>
      </trkpt>
      <trkpt lat="47.90331" lon="6.91835">
        <ele>1177</ele>
        <time>2026-05-09T11:37:33.929Z</time>
      </trkpt>
      <trkpt lat="47.90332" lon="6.91837">
        <ele>1176</ele>
        <time>2026-05-09T11:37:34.929Z</time>
      </trkpt>
      <trkpt lat="47.90333" lon="6.91839">
        <ele>1176</ele>
        <time>2026-05-09T11:37:35.929Z</time>
      </trkpt>
      <trkpt lat="47.90333" lon="6.91841">
        <ele>1176</ele>
        <time>2026-05-09T11:37:36.928Z</time>
      </trkpt>
      <trkpt lat="47.90334" lon="6.91842">
        <ele>1176</ele>
        <time>2026-05-09T11:37:37.928Z</time>
      </trkpt>
      <trkpt lat="47.90335" lon="6.91844">
        <ele>1175</ele>
        <time>2026-05-09T11:37:38.929Z</time>
      </trkpt>
      <trkpt lat="47.90336" lon="6.91845">
        <ele>1175</ele>
        <time>2026-05-09T11:37:39.928Z</time>
      </trkpt>
      <trkpt lat="47.90337" lon="6.91846">
        <ele>1175</ele>
        <time>2026-05-09T11:37:40.928Z</time>
      </trkpt>
      <trkpt lat="47.90338" lon="6.91847">
        <ele>1175</ele>
        <time>2026-05-09T11:37:41.929Z</time>
      </trkpt>
      <trkpt lat="47.90339" lon="6.91849">
        <ele>1175</ele>
        <time>2026-05-09T11:37:42.929Z</time>
      </trkpt>
      <trkpt lat="47.90339" lon="6.91851">
        <ele>1175</ele>
        <time>2026-05-09T11:37:43.928Z</time>
      </trkpt>
      <trkpt lat="47.9034" lon="6.91852">
        <ele>1175</ele>
        <time>2026-05-09T11:37:44.929Z</time>
      </trkpt>
      <trkpt lat="47.90341" lon="6.91853">
        <ele>1175</ele>
        <time>2026-05-09T11:37:45.928Z</time>
      </trkpt>
      <trkpt lat="47.90342" lon="6.91854">
        <ele>1174</ele>
        <time>2026-05-09T11:37:46.928Z</time>
      </trkpt>
      <trkpt lat="47.90343" lon="6.91856">
        <ele>1174</ele>
        <time>2026-05-09T11:37:47.929Z</time>
      </trkpt>
      <trkpt lat="47.90343" lon="6.91857">
        <ele>1173</ele>
        <time>2026-05-09T11:37:48.928Z</time>
      </trkpt>
      <trkpt lat="47.90344" lon="6.91858">
        <ele>1173</ele>
        <time>2026-05-09T11:37:49.929Z</time>
      </trkpt>
      <trkpt lat="47.90345" lon="6.91859">
        <ele>1172</ele>
        <time>2026-05-09T11:37:50.928Z</time>
      </trkpt>
      <trkpt lat="47.90346" lon="6.91861">
        <ele>1172</ele>
        <time>2026-05-09T11:37:51.928Z</time>
      </trkpt>
      <trkpt lat="47.90346" lon="6.91862">
        <ele>1172</ele>
        <time>2026-05-09T11:37:52.928Z</time>
      </trkpt>
      <trkpt lat="47.90347" lon="6.91864">
        <ele>1172</ele>
        <time>2026-05-09T11:37:53.929Z</time>
      </trkpt>
      <trkpt lat="47.90347" lon="6.91866">
        <ele>1171</ele>
        <time>2026-05-09T11:37:54.929Z</time>
      </trkpt>
      <trkpt lat="47.90347" lon="6.91868">
        <ele>1171</ele>
        <time>2026-05-09T11:37:55.928Z</time>
      </trkpt>
      <trkpt lat="47.90348" lon="6.91869">
        <ele>1171</ele>
        <time>2026-05-09T11:37:56.929Z</time>
      </trkpt>
      <trkpt lat="47.90348" lon="6.91871">
        <ele>1170</ele>
        <time>2026-05-09T11:37:57.928Z</time>
      </trkpt>
      <trkpt lat="47.90348" lon="6.91873">
        <ele>1170</ele>
        <time>2026-05-09T11:37:58.929Z</time>
      </trkpt>
      <trkpt lat="47.90349" lon="6.91875">
        <ele>1170</ele>
        <time>2026-05-09T11:37:59.928Z</time>
      </trkpt>
      <trkpt lat="47.90349" lon="6.91877">
        <ele>1170</ele>
        <time>2026-05-09T11:38:00.928Z</time>
      </trkpt>
      <trkpt lat="47.9035" lon="6.91878">
        <ele>1170</ele>
        <time>2026-05-09T11:38:01.929Z</time>
      </trkpt>
      <trkpt lat="47.90351" lon="6.9188">
        <ele>1170</ele>
        <time>2026-05-09T11:38:02.928Z</time>
      </trkpt>
      <trkpt lat="47.90352" lon="6.91881">
        <ele>1170</ele>
        <time>2026-05-09T11:38:03.929Z</time>
      </trkpt>
      <trkpt lat="47.90352" lon="6.91883">
        <ele>1170</ele>
        <time>2026-05-09T11:38:04.928Z</time>
      </trkpt>
      <trkpt lat="47.90353" lon="6.91884">
        <ele>1171</ele>
        <time>2026-05-09T11:38:05.928Z</time>
      </trkpt>
      <trkpt lat="47.90354" lon="6.91886">
        <ele>1171</ele>
        <time>2026-05-09T11:38:06.929Z</time>
      </trkpt>
      <trkpt lat="47.90355" lon="6.91888">
        <ele>1171</ele>
        <time>2026-05-09T11:38:07.928Z</time>
      </trkpt>
      <trkpt lat="47.90357" lon="6.9189">
        <ele>1171</ele>
        <time>2026-05-09T11:38:08.929Z</time>
      </trkpt>
      <trkpt lat="47.90358" lon="6.91891">
        <ele>1171</ele>
        <time>2026-05-09T11:38:09.929Z</time>
      </trkpt>
      <trkpt lat="47.90359" lon="6.91894">
        <ele>1172</ele>
        <time>2026-05-09T11:38:10.928Z</time>
      </trkpt>
      <trkpt lat="47.9036" lon="6.91895">
        <ele>1172</ele>
        <time>2026-05-09T11:38:11.928Z</time>
      </trkpt>
      <trkpt lat="47.9036" lon="6.91897">
        <ele>1172</ele>
        <time>2026-05-09T11:38:12.929Z</time>
      </trkpt>
      <trkpt lat="47.90361" lon="6.91899">
        <ele>1172</ele>
        <time>2026-05-09T11:38:13.929Z</time>
      </trkpt>
      <trkpt lat="47.90362" lon="6.919">
        <ele>1172</ele>
        <time>2026-05-09T11:38:14.929Z</time>
      </trkpt>
      <trkpt lat="47.90364" lon="6.91901">
        <ele>1172</ele>
        <time>2026-05-09T11:38:15.928Z</time>
      </trkpt>
      <trkpt lat="47.90365" lon="6.91902">
        <ele>1173</ele>
        <time>2026-05-09T11:38:16.928Z</time>
      </trkpt>
      <trkpt lat="47.90366" lon="6.91904">
        <ele>1173</ele>
        <time>2026-05-09T11:38:17.929Z</time>
      </trkpt>
      <trkpt lat="47.90366" lon="6.91906">
        <ele>1173</ele>
        <time>2026-05-09T11:38:18.928Z</time>
      </trkpt>
      <trkpt lat="47.90367" lon="6.91907">
        <ele>1173</ele>
        <time>2026-05-09T11:38:19.929Z</time>
      </trkpt>
      <trkpt lat="47.90369" lon="6.91909">
        <ele>1174</ele>
        <time>2026-05-09T11:38:20.928Z</time>
      </trkpt>
      <trkpt lat="47.9037" lon="6.9191">
        <ele>1174</ele>
        <time>2026-05-09T11:38:21.928Z</time>
      </trkpt>
      <trkpt lat="47.90371" lon="6.91912">
        <ele>1174</ele>
        <time>2026-05-09T11:38:22.929Z</time>
      </trkpt>
      <trkpt lat="47.90371" lon="6.91914">
        <ele>1174</ele>
        <time>2026-05-09T11:38:23.928Z</time>
      </trkpt>
      <trkpt lat="47.90371" lon="6.91917">
        <ele>1174</ele>
        <time>2026-05-09T11:38:24.929Z</time>
      </trkpt>
      <trkpt lat="47.90372" lon="6.91919">
        <ele>1174</ele>
        <time>2026-05-09T11:38:25.928Z</time>
      </trkpt>
      <trkpt lat="47.90373" lon="6.9192">
        <ele>1174</ele>
        <time>2026-05-09T11:38:26.929Z</time>
      </trkpt>
      <trkpt lat="47.90373" lon="6.91922">
        <ele>1175</ele>
        <time>2026-05-09T11:38:27.928Z</time>
      </trkpt>
      <trkpt lat="47.90374" lon="6.91924">
        <ele>1175</ele>
        <time>2026-05-09T11:38:28.929Z</time>
      </trkpt>
      <trkpt lat="47.90374" lon="6.91925">
        <ele>1175</ele>
        <time>2026-05-09T11:38:29.929Z</time>
      </trkpt>
      <trkpt lat="47.90375" lon="6.91927">
        <ele>1175</ele>
        <time>2026-05-09T11:38:30.928Z</time>
      </trkpt>
      <trkpt lat="47.90376" lon="6.91928">
        <ele>1175</ele>
        <time>2026-05-09T11:38:31.929Z</time>
      </trkpt>
      <trkpt lat="47.90376" lon="6.9193">
        <ele>1175</ele>
        <time>2026-05-09T11:38:32.928Z</time>
      </trkpt>
      <trkpt lat="47.90376" lon="6.91931">
        <ele>1175</ele>
        <time>2026-05-09T11:38:33.928Z</time>
      </trkpt>
      <trkpt lat="47.90377" lon="6.91932">
        <ele>1175</ele>
        <time>2026-05-09T11:38:34.929Z</time>
      </trkpt>
      <trkpt lat="47.90377" lon="6.91933">
        <ele>1175</ele>
        <time>2026-05-09T11:38:35.929Z</time>
      </trkpt>
      <trkpt lat="47.90378" lon="6.91935">
        <ele>1175</ele>
        <time>2026-05-09T11:38:36.929Z</time>
      </trkpt>
      <trkpt lat="47.90378" lon="6.91937">
        <ele>1175</ele>
        <time>2026-05-09T11:38:37.928Z</time>
      </trkpt>
      <trkpt lat="47.90378" lon="6.91939">
        <ele>1174</ele>
        <time>2026-05-09T11:38:38.929Z</time>
      </trkpt>
      <trkpt lat="47.90379" lon="6.9194">
        <ele>1174</ele>
        <time>2026-05-09T11:38:39.928Z</time>
      </trkpt>
      <trkpt lat="47.9038" lon="6.91942">
        <ele>1174</ele>
        <time>2026-05-09T11:38:40.928Z</time>
      </trkpt>
      <trkpt lat="47.90381" lon="6.91944">
        <ele>1174</ele>
        <time>2026-05-09T11:38:41.929Z</time>
      </trkpt>
      <trkpt lat="47.90381" lon="6.91946">
        <ele>1174</ele>
        <time>2026-05-09T11:38:42.928Z</time>
      </trkpt>
      <trkpt lat="47.90382" lon="6.91947">
        <ele>1174</ele>
        <time>2026-05-09T11:38:43.929Z</time>
      </trkpt>
      <trkpt lat="47.90382" lon="6.91949">
        <ele>1173</ele>
        <time>2026-05-09T11:38:44.928Z</time>
      </trkpt>
      <trkpt lat="47.90382" lon="6.91951">
        <ele>1173</ele>
        <time>2026-05-09T11:38:45.929Z</time>
      </trkpt>
      <trkpt lat="47.90382" lon="6.91953">
        <ele>1173</ele>
        <time>2026-05-09T11:38:46.929Z</time>
      </trkpt>
      <trkpt lat="47.90382" lon="6.91955">
        <ele>1173</ele>
        <time>2026-05-09T11:38:47.928Z</time>
      </trkpt>
      <trkpt lat="47.90382" lon="6.91957">
        <ele>1172</ele>
        <time>2026-05-09T11:38:48.929Z</time>
      </trkpt>
      <trkpt lat="47.90382" lon="6.91958">
        <ele>1173</ele>
        <time>2026-05-09T11:38:49.928Z</time>
      </trkpt>
      <trkpt lat="47.90383" lon="6.91959">
        <ele>1173</ele>
        <time>2026-05-09T11:38:50.929Z</time>
      </trkpt>
      <trkpt lat="47.90384" lon="6.9196">
        <ele>1172</ele>
        <time>2026-05-09T11:38:51.929Z</time>
      </trkpt>
      <trkpt lat="47.90385" lon="6.91961">
        <ele>1172</ele>
        <time>2026-05-09T11:38:52.929Z</time>
      </trkpt>
      <trkpt lat="47.90386" lon="6.91962">
        <ele>1172</ele>
        <time>2026-05-09T11:38:53.928Z</time>
      </trkpt>
      <trkpt lat="47.90388" lon="6.91962">
        <ele>1172</ele>
        <time>2026-05-09T11:38:54.928Z</time>
      </trkpt>
      <trkpt lat="47.90389" lon="6.91964">
        <ele>1172</ele>
        <time>2026-05-09T11:38:55.929Z</time>
      </trkpt>
      <trkpt lat="47.90391" lon="6.91965">
        <ele>1172</ele>
        <time>2026-05-09T11:38:56.928Z</time>
      </trkpt>
      <trkpt lat="47.90392" lon="6.91966">
        <ele>1172</ele>
        <time>2026-05-09T11:38:57.929Z</time>
      </trkpt>
      <trkpt lat="47.90393" lon="6.91967">
        <ele>1172</ele>
        <time>2026-05-09T11:38:58.928Z</time>
      </trkpt>
      <trkpt lat="47.90394" lon="6.91968">
        <ele>1171</ele>
        <time>2026-05-09T11:38:59.928Z</time>
      </trkpt>
      <trkpt lat="47.90395" lon="6.91969">
        <ele>1171</ele>
        <time>2026-05-09T11:39:00.929Z</time>
      </trkpt>
      <trkpt lat="47.90396" lon="6.9197">
        <ele>1171</ele>
        <time>2026-05-09T11:39:01.928Z</time>
      </trkpt>
      <trkpt lat="47.90397" lon="6.91971">
        <ele>1171</ele>
        <time>2026-05-09T11:39:02.929Z</time>
      </trkpt>
      <trkpt lat="47.90397" lon="6.91973">
        <ele>1171</ele>
        <time>2026-05-09T11:39:03.928Z</time>
      </trkpt>
      <trkpt lat="47.90398" lon="6.91975">
        <ele>1171</ele>
        <time>2026-05-09T11:39:04.928Z</time>
      </trkpt>
      <trkpt lat="47.90398" lon="6.91977">
        <ele>1171</ele>
        <time>2026-05-09T11:39:05.929Z</time>
      </trkpt>
      <trkpt lat="47.90398" lon="6.91979">
        <ele>1171</ele>
        <time>2026-05-09T11:39:06.928Z</time>
      </trkpt>
      <trkpt lat="47.90399" lon="6.91981">
        <ele>1171</ele>
        <time>2026-05-09T11:39:07.929Z</time>
      </trkpt>
      <trkpt lat="47.904" lon="6.91984">
        <ele>1171</ele>
        <time>2026-05-09T11:39:08.928Z</time>
      </trkpt>
      <trkpt lat="47.90401" lon="6.91986">
        <ele>1171</ele>
        <time>2026-05-09T11:39:09.929Z</time>
      </trkpt>
      <trkpt lat="47.90402" lon="6.91988">
        <ele>1171</ele>
        <time>2026-05-09T11:39:10.928Z</time>
      </trkpt>
      <trkpt lat="47.90403" lon="6.9199">
        <ele>1171</ele>
        <time>2026-05-09T11:39:11.929Z</time>
      </trkpt>
      <trkpt lat="47.90404" lon="6.91992">
        <ele>1171</ele>
        <time>2026-05-09T11:39:12.928Z</time>
      </trkpt>
      <trkpt lat="47.90405" lon="6.91993">
        <ele>1171</ele>
        <time>2026-05-09T11:39:13.928Z</time>
      </trkpt>
      <trkpt lat="47.90406" lon="6.91995">
        <ele>1170</ele>
        <time>2026-05-09T11:39:14.929Z</time>
      </trkpt>
      <trkpt lat="47.90406" lon="6.91996">
        <ele>1170</ele>
        <time>2026-05-09T11:39:15.928Z</time>
      </trkpt>
      <trkpt lat="47.90407" lon="6.91998">
        <ele>1170</ele>
        <time>2026-05-09T11:39:16.929Z</time>
      </trkpt>
      <trkpt lat="47.90408" lon="6.92001">
        <ele>1170</ele>
        <time>2026-05-09T11:39:17.928Z</time>
      </trkpt>
      <trkpt lat="47.90409" lon="6.92003">
        <ele>1170</ele>
        <time>2026-05-09T11:39:18.929Z</time>
      </trkpt>
      <trkpt lat="47.90411" lon="6.92005">
        <ele>1169</ele>
        <time>2026-05-09T11:39:19.928Z</time>
      </trkpt>
      <trkpt lat="47.90412" lon="6.92007">
        <ele>1169</ele>
        <time>2026-05-09T11:39:20.929Z</time>
      </trkpt>
      <trkpt lat="47.90413" lon="6.9201">
        <ele>1169</ele>
        <time>2026-05-09T11:39:21.929Z</time>
      </trkpt>
      <trkpt lat="47.90414" lon="6.92012">
        <ele>1169</ele>
        <time>2026-05-09T11:39:22.928Z</time>
      </trkpt>
      <trkpt lat="47.90415" lon="6.92014">
        <ele>1169</ele>
        <time>2026-05-09T11:39:23.928Z</time>
      </trkpt>
      <trkpt lat="47.90415" lon="6.92016">
        <ele>1169</ele>
        <time>2026-05-09T11:39:24.928Z</time>
      </trkpt>
      <trkpt lat="47.90416" lon="6.92018">
        <ele>1169</ele>
        <time>2026-05-09T11:39:25.929Z</time>
      </trkpt>
      <trkpt lat="47.90417" lon="6.92021">
        <ele>1169</ele>
        <time>2026-05-09T11:39:26.929Z</time>
      </trkpt>
      <trkpt lat="47.90418" lon="6.92023">
        <ele>1169</ele>
        <time>2026-05-09T11:39:27.929Z</time>
      </trkpt>
      <trkpt lat="47.90419" lon="6.92025">
        <ele>1169</ele>
        <time>2026-05-09T11:39:28.928Z</time>
      </trkpt>
      <trkpt lat="47.9042" lon="6.92027">
        <ele>1169</ele>
        <time>2026-05-09T11:39:29.928Z</time>
      </trkpt>
      <trkpt lat="47.90421" lon="6.92029">
        <ele>1169</ele>
        <time>2026-05-09T11:39:30.928Z</time>
      </trkpt>
      <trkpt lat="47.90422" lon="6.92031">
        <ele>1169</ele>
        <time>2026-05-09T11:39:31.928Z</time>
      </trkpt>
      <trkpt lat="47.90422" lon="6.92032">
        <ele>1168</ele>
        <time>2026-05-09T11:39:32.929Z</time>
      </trkpt>
      <trkpt lat="47.90423" lon="6.92034">
        <ele>1168</ele>
        <time>2026-05-09T11:39:33.929Z</time>
      </trkpt>
      <trkpt lat="47.90423" lon="6.92036">
        <ele>1168</ele>
        <time>2026-05-09T11:39:34.929Z</time>
      </trkpt>
      <trkpt lat="47.90423" lon="6.92037">
        <ele>1168</ele>
        <time>2026-05-09T11:39:35.928Z</time>
      </trkpt>
      <trkpt lat="47.90423" lon="6.92039">
        <ele>1168</ele>
        <time>2026-05-09T11:39:36.929Z</time>
      </trkpt>
      <trkpt lat="47.90425" lon="6.9204">
        <ele>1168</ele>
        <time>2026-05-09T11:39:37.928Z</time>
      </trkpt>
      <trkpt lat="47.90426" lon="6.92041">
        <ele>1168</ele>
        <time>2026-05-09T11:39:38.929Z</time>
      </trkpt>
      <trkpt lat="47.90426" lon="6.92043">
        <ele>1168</ele>
        <time>2026-05-09T11:39:39.928Z</time>
      </trkpt>
      <trkpt lat="47.90427" lon="6.92046">
        <ele>1168</ele>
        <time>2026-05-09T11:39:40.929Z</time>
      </trkpt>
      <trkpt lat="47.90427" lon="6.92048">
        <ele>1167</ele>
        <time>2026-05-09T11:39:41.929Z</time>
      </trkpt>
      <trkpt lat="47.90428" lon="6.92051">
        <ele>1167</ele>
        <time>2026-05-09T11:39:42.928Z</time>
      </trkpt>
      <trkpt lat="47.90429" lon="6.92053">
        <ele>1166</ele>
        <time>2026-05-09T11:39:43.929Z</time>
      </trkpt>
      <trkpt lat="47.90429" lon="6.92055">
        <ele>1166</ele>
        <time>2026-05-09T11:39:44.929Z</time>
      </trkpt>
      <trkpt lat="47.9043" lon="6.92058">
        <ele>1165</ele>
        <time>2026-05-09T11:39:45.928Z</time>
      </trkpt>
      <trkpt lat="47.90431" lon="6.9206">
        <ele>1165</ele>
        <time>2026-05-09T11:39:46.928Z</time>
      </trkpt>
      <trkpt lat="47.90432" lon="6.92063">
        <ele>1164</ele>
        <time>2026-05-09T11:39:47.928Z</time>
      </trkpt>
      <trkpt lat="47.90433" lon="6.92066">
        <ele>1164</ele>
        <time>2026-05-09T11:39:48.929Z</time>
      </trkpt>
      <trkpt lat="47.90433" lon="6.92069">
        <ele>1163</ele>
        <time>2026-05-09T11:39:49.929Z</time>
      </trkpt>
      <trkpt lat="47.90433" lon="6.9207">
        <ele>1163</ele>
        <time>2026-05-09T11:39:50.929Z</time>
      </trkpt>
      <trkpt lat="47.90434" lon="6.92071">
        <ele>1163</ele>
        <time>2026-05-09T11:39:51.928Z</time>
      </trkpt>
      <trkpt lat="47.90435" lon="6.92071">
        <ele>1162</ele>
        <time>2026-05-09T11:39:52.928Z</time>
      </trkpt>
      <trkpt lat="47.90435" lon="6.92073">
        <ele>1162</ele>
        <time>2026-05-09T11:39:53.928Z</time>
      </trkpt>
      <trkpt lat="47.90436" lon="6.92073">
        <ele>1162</ele>
        <time>2026-05-09T11:39:54.928Z</time>
      </trkpt>
      <trkpt lat="47.90436" lon="6.92074">
        <ele>1161</ele>
        <time>2026-05-09T11:39:55.929Z</time>
      </trkpt>
      <trkpt lat="47.90437" lon="6.92076">
        <ele>1161</ele>
        <time>2026-05-09T11:39:56.928Z</time>
      </trkpt>
      <trkpt lat="47.90437" lon="6.92078">
        <ele>1160</ele>
        <time>2026-05-09T11:39:57.928Z</time>
      </trkpt>
      <trkpt lat="47.90438" lon="6.92081">
        <ele>1160</ele>
        <time>2026-05-09T11:39:58.928Z</time>
      </trkpt>
      <trkpt lat="47.90438" lon="6.92083">
        <ele>1160</ele>
        <time>2026-05-09T11:39:59.929Z</time>
      </trkpt>
      <trkpt lat="47.90439" lon="6.92086">
        <ele>1160</ele>
        <time>2026-05-09T11:40:00.929Z</time>
      </trkpt>
      <trkpt lat="47.90439" lon="6.92088">
        <ele>1160</ele>
        <time>2026-05-09T11:40:01.929Z</time>
      </trkpt>
      <trkpt lat="47.90439" lon="6.9209">
        <ele>1160</ele>
        <time>2026-05-09T11:40:02.929Z</time>
      </trkpt>
      <trkpt lat="47.9044" lon="6.92092">
        <ele>1160</ele>
        <time>2026-05-09T11:40:03.929Z</time>
      </trkpt>
      <trkpt lat="47.9044" lon="6.92094">
        <ele>1161</ele>
        <time>2026-05-09T11:40:04.929Z</time>
      </trkpt>
      <trkpt lat="47.90441" lon="6.92096">
        <ele>1161</ele>
        <time>2026-05-09T11:40:05.929Z</time>
      </trkpt>
      <trkpt lat="47.90441" lon="6.92097">
        <ele>1161</ele>
        <time>2026-05-09T11:40:06.929Z</time>
      </trkpt>
      <trkpt lat="47.90441" lon="6.92099">
        <ele>1161</ele>
        <time>2026-05-09T11:40:07.929Z</time>
      </trkpt>
      <trkpt lat="47.90442" lon="6.92101">
        <ele>1161</ele>
        <time>2026-05-09T11:40:08.929Z</time>
      </trkpt>
      <trkpt lat="47.90442" lon="6.92103">
        <ele>1161</ele>
        <time>2026-05-09T11:40:09.928Z</time>
      </trkpt>
      <trkpt lat="47.90442" lon="6.92105">
        <ele>1161</ele>
        <time>2026-05-09T11:40:10.929Z</time>
      </trkpt>
      <trkpt lat="47.90442" lon="6.92107">
        <ele>1161</ele>
        <time>2026-05-09T11:40:11.928Z</time>
      </trkpt>
      <trkpt lat="47.90442" lon="6.92109">
        <ele>1161</ele>
        <time>2026-05-09T11:40:12.928Z</time>
      </trkpt>
      <trkpt lat="47.90443" lon="6.92111">
        <ele>1161</ele>
        <time>2026-05-09T11:40:13.929Z</time>
      </trkpt>
      <trkpt lat="47.90443" lon="6.92113">
        <ele>1161</ele>
        <time>2026-05-09T11:40:14.928Z</time>
      </trkpt>
      <trkpt lat="47.90444" lon="6.92116">
        <ele>1161</ele>
        <time>2026-05-09T11:40:15.928Z</time>
      </trkpt>
      <trkpt lat="47.90444" lon="6.92118">
        <ele>1161</ele>
        <time>2026-05-09T11:40:16.929Z</time>
      </trkpt>
      <trkpt lat="47.90444" lon="6.92121">
        <ele>1161</ele>
        <time>2026-05-09T11:40:17.929Z</time>
      </trkpt>
      <trkpt lat="47.90445" lon="6.92123">
        <ele>1161</ele>
        <time>2026-05-09T11:40:18.929Z</time>
      </trkpt>
      <trkpt lat="47.90445" lon="6.92125">
        <ele>1161</ele>
        <time>2026-05-09T11:40:19.928Z</time>
      </trkpt>
      <trkpt lat="47.90445" lon="6.92126">
        <ele>1161</ele>
        <time>2026-05-09T11:40:20.928Z</time>
      </trkpt>
      <trkpt lat="47.90445" lon="6.92127">
        <ele>1161</ele>
        <time>2026-05-09T11:40:21.928Z</time>
      </trkpt>
      <trkpt lat="47.90445" lon="6.92128">
        <ele>1161</ele>
        <time>2026-05-09T11:40:22.929Z</time>
      </trkpt>
      <trkpt lat="47.90446" lon="6.92129">
        <ele>1161</ele>
        <time>2026-05-09T11:40:23.929Z</time>
      </trkpt>
      <trkpt lat="47.90446" lon="6.9213">
        <ele>1161</ele>
        <time>2026-05-09T11:40:24.929Z</time>
      </trkpt>
      <trkpt lat="47.90446" lon="6.92131">
        <ele>1161</ele>
        <time>2026-05-09T11:40:25.928Z</time>
      </trkpt>
      <trkpt lat="47.90446" lon="6.92133">
        <ele>1160</ele>
        <time>2026-05-09T11:40:26.928Z</time>
      </trkpt>
      <trkpt lat="47.90447" lon="6.92133">
        <ele>1160</ele>
        <time>2026-05-09T11:40:27.929Z</time>
      </trkpt>
      <trkpt lat="47.90447" lon="6.92134">
        <ele>1160</ele>
        <time>2026-05-09T11:40:28.929Z</time>
      </trkpt>
      <trkpt lat="47.90447" lon="6.92134">
        <ele>1160</ele>
        <time>2026-05-09T11:40:29.929Z</time>
      </trkpt>
      <trkpt lat="47.90447" lon="6.92135">
        <ele>1160</ele>
        <time>2026-05-09T11:40:30.929Z</time>
      </trkpt>
      <trkpt lat="47.90447" lon="6.92137">
        <ele>1160</ele>
        <time>2026-05-09T11:40:31.928Z</time>
      </trkpt>
      <trkpt lat="47.90447" lon="6.92138">
        <ele>1160</ele>
        <time>2026-05-09T11:40:32.928Z</time>
      </trkpt>
      <trkpt lat="47.90447" lon="6.9214">
        <ele>1160</ele>
        <time>2026-05-09T11:40:33.928Z</time>
      </trkpt>
      <trkpt lat="47.90447" lon="6.92142">
        <ele>1161</ele>
        <time>2026-05-09T11:40:34.928Z</time>
      </trkpt>
      <trkpt lat="47.90447" lon="6.92144">
        <ele>1161</ele>
        <time>2026-05-09T11:40:35.928Z</time>
      </trkpt>
      <trkpt lat="47.90448" lon="6.92145">
        <ele>1161</ele>
        <time>2026-05-09T11:40:36.928Z</time>
      </trkpt>
      <trkpt lat="47.90448" lon="6.92147">
        <ele>1161</ele>
        <time>2026-05-09T11:40:37.929Z</time>
      </trkpt>
      <trkpt lat="47.90449" lon="6.92149">
        <ele>1161</ele>
        <time>2026-05-09T11:40:38.929Z</time>
      </trkpt>
      <trkpt lat="47.9045" lon="6.92152">
        <ele>1161</ele>
        <time>2026-05-09T11:40:39.929Z</time>
      </trkpt>
      <trkpt lat="47.90451" lon="6.92155">
        <ele>1161</ele>
        <time>2026-05-09T11:40:40.929Z</time>
      </trkpt>
      <trkpt lat="47.90453" lon="6.92156">
        <ele>1161</ele>
        <time>2026-05-09T11:40:41.929Z</time>
      </trkpt>
      <trkpt lat="47.90454" lon="6.92157">
        <ele>1161</ele>
        <time>2026-05-09T11:40:42.929Z</time>
      </trkpt>
      <trkpt lat="47.90455" lon="6.92159">
        <ele>1161</ele>
        <time>2026-05-09T11:40:43.928Z</time>
      </trkpt>
      <trkpt lat="47.90456" lon="6.9216">
        <ele>1161</ele>
        <time>2026-05-09T11:40:44.928Z</time>
      </trkpt>
      <trkpt lat="47.90457" lon="6.92161">
        <ele>1161</ele>
        <time>2026-05-09T11:40:45.928Z</time>
      </trkpt>
      <trkpt lat="47.90458" lon="6.92163">
        <ele>1162</ele>
        <time>2026-05-09T11:40:46.928Z</time>
      </trkpt>
      <trkpt lat="47.9046" lon="6.92164">
        <ele>1162</ele>
        <time>2026-05-09T11:40:47.929Z</time>
      </trkpt>
      <trkpt lat="47.9046" lon="6.92167">
        <ele>1162</ele>
        <time>2026-05-09T11:40:48.929Z</time>
      </trkpt>
      <trkpt lat="47.9046" lon="6.92169">
        <ele>1163</ele>
        <time>2026-05-09T11:40:49.928Z</time>
      </trkpt>
      <trkpt lat="47.90461" lon="6.92171">
        <ele>1163</ele>
        <time>2026-05-09T11:40:50.928Z</time>
      </trkpt>
      <trkpt lat="47.90461" lon="6.92172">
        <ele>1163</ele>
        <time>2026-05-09T11:40:51.929Z</time>
      </trkpt>
      <trkpt lat="47.90462" lon="6.92174">
        <ele>1163</ele>
        <time>2026-05-09T11:40:52.928Z</time>
      </trkpt>
      <trkpt lat="47.90463" lon="6.92176">
        <ele>1164</ele>
        <time>2026-05-09T11:40:53.928Z</time>
      </trkpt>
      <trkpt lat="47.90463" lon="6.92178">
        <ele>1164</ele>
        <time>2026-05-09T11:40:54.928Z</time>
      </trkpt>
      <trkpt lat="47.90465" lon="6.92179">
        <ele>1163</ele>
        <time>2026-05-09T11:40:55.928Z</time>
      </trkpt>
      <trkpt lat="47.90466" lon="6.9218">
        <ele>1163</ele>
        <time>2026-05-09T11:40:56.928Z</time>
      </trkpt>
      <trkpt lat="47.90468" lon="6.92181">
        <ele>1163</ele>
        <time>2026-05-09T11:40:57.928Z</time>
      </trkpt>
      <trkpt lat="47.9047" lon="6.92182">
        <ele>1162</ele>
        <time>2026-05-09T11:40:58.928Z</time>
      </trkpt>
      <trkpt lat="47.90472" lon="6.92183">
        <ele>1162</ele>
        <time>2026-05-09T11:40:59.928Z</time>
      </trkpt>
      <trkpt lat="47.90473" lon="6.92184">
        <ele>1162</ele>
        <time>2026-05-09T11:41:00.928Z</time>
      </trkpt>
      <trkpt lat="47.90475" lon="6.92185">
        <ele>1162</ele>
        <time>2026-05-09T11:41:01.928Z</time>
      </trkpt>
      <trkpt lat="47.90476" lon="6.92187">
        <ele>1162</ele>
        <time>2026-05-09T11:41:02.928Z</time>
      </trkpt>
      <trkpt lat="47.90476" lon="6.92188">
        <ele>1162</ele>
        <time>2026-05-09T11:41:03.929Z</time>
      </trkpt>
      <trkpt lat="47.90477" lon="6.92189">
        <ele>1162</ele>
        <time>2026-05-09T11:41:04.928Z</time>
      </trkpt>
      <trkpt lat="47.90477" lon="6.92191">
        <ele>1162</ele>
        <time>2026-05-09T11:41:05.929Z</time>
      </trkpt>
      <trkpt lat="47.90479" lon="6.92192">
        <ele>1162</ele>
        <time>2026-05-09T11:41:06.929Z</time>
      </trkpt>
      <trkpt lat="47.90479" lon="6.92194">
        <ele>1163</ele>
        <time>2026-05-09T11:41:07.929Z</time>
      </trkpt>
      <trkpt lat="47.9048" lon="6.92196">
        <ele>1163</ele>
        <time>2026-05-09T11:41:08.928Z</time>
      </trkpt>
      <trkpt lat="47.9048" lon="6.92198">
        <ele>1163</ele>
        <time>2026-05-09T11:41:09.929Z</time>
      </trkpt>
      <trkpt lat="47.90481" lon="6.922">
        <ele>1163</ele>
        <time>2026-05-09T11:41:10.928Z</time>
      </trkpt>
      <trkpt lat="47.90481" lon="6.92201">
        <ele>1163</ele>
        <time>2026-05-09T11:41:11.929Z</time>
      </trkpt>
      <trkpt lat="47.90482" lon="6.92203">
        <ele>1164</ele>
        <time>2026-05-09T11:41:12.929Z</time>
      </trkpt>
      <trkpt lat="47.90484" lon="6.92205">
        <ele>1164</ele>
        <time>2026-05-09T11:41:13.928Z</time>
      </trkpt>
      <trkpt lat="47.90486" lon="6.92206">
        <ele>1164</ele>
        <time>2026-05-09T11:41:14.928Z</time>
      </trkpt>
      <trkpt lat="47.90487" lon="6.92208">
        <ele>1164</ele>
        <time>2026-05-09T11:41:15.928Z</time>
      </trkpt>
      <trkpt lat="47.90488" lon="6.9221">
        <ele>1164</ele>
        <time>2026-05-09T11:41:16.928Z</time>
      </trkpt>
      <trkpt lat="47.90489" lon="6.92211">
        <ele>1164</ele>
        <time>2026-05-09T11:41:17.928Z</time>
      </trkpt>
      <trkpt lat="47.9049" lon="6.92213">
        <ele>1165</ele>
        <time>2026-05-09T11:41:18.929Z</time>
      </trkpt>
      <trkpt lat="47.90492" lon="6.92214">
        <ele>1164</ele>
        <time>2026-05-09T11:41:19.929Z</time>
      </trkpt>
      <trkpt lat="47.90493" lon="6.92215">
        <ele>1164</ele>
        <time>2026-05-09T11:41:20.929Z</time>
      </trkpt>
      <trkpt lat="47.90495" lon="6.92216">
        <ele>1164</ele>
        <time>2026-05-09T11:41:21.929Z</time>
      </trkpt>
      <trkpt lat="47.90496" lon="6.92217">
        <ele>1164</ele>
        <time>2026-05-09T11:41:22.928Z</time>
      </trkpt>
      <trkpt lat="47.90497" lon="6.92219">
        <ele>1163</ele>
        <time>2026-05-09T11:41:23.929Z</time>
      </trkpt>
      <trkpt lat="47.90498" lon="6.92221">
        <ele>1163</ele>
        <time>2026-05-09T11:41:24.929Z</time>
      </trkpt>
      <trkpt lat="47.90499" lon="6.92222">
        <ele>1163</ele>
        <time>2026-05-09T11:41:25.928Z</time>
      </trkpt>
      <trkpt lat="47.905" lon="6.92224">
        <ele>1163</ele>
        <time>2026-05-09T11:41:26.928Z</time>
      </trkpt>
      <trkpt lat="47.90501" lon="6.92226">
        <ele>1163</ele>
        <time>2026-05-09T11:41:27.928Z</time>
      </trkpt>
      <trkpt lat="47.90501" lon="6.92228">
        <ele>1163</ele>
        <time>2026-05-09T11:41:28.928Z</time>
      </trkpt>
      <trkpt lat="47.90502" lon="6.9223">
        <ele>1163</ele>
        <time>2026-05-09T11:41:29.929Z</time>
      </trkpt>
      <trkpt lat="47.90503" lon="6.92232">
        <ele>1163</ele>
        <time>2026-05-09T11:41:30.928Z</time>
      </trkpt>
      <trkpt lat="47.90504" lon="6.92233">
        <ele>1163</ele>
        <time>2026-05-09T11:41:31.928Z</time>
      </trkpt>
      <trkpt lat="47.90505" lon="6.92235">
        <ele>1163</ele>
        <time>2026-05-09T11:41:32.929Z</time>
      </trkpt>
      <trkpt lat="47.90506" lon="6.92237">
        <ele>1163</ele>
        <time>2026-05-09T11:41:33.928Z</time>
      </trkpt>
      <trkpt lat="47.90507" lon="6.92239">
        <ele>1163</ele>
        <time>2026-05-09T11:41:34.929Z</time>
      </trkpt>
      <trkpt lat="47.90508" lon="6.92241">
        <ele>1163</ele>
        <time>2026-05-09T11:41:35.929Z</time>
      </trkpt>
      <trkpt lat="47.90509" lon="6.92243">
        <ele>1163</ele>
        <time>2026-05-09T11:41:36.929Z</time>
      </trkpt>
      <trkpt lat="47.90509" lon="6.92244">
        <ele>1163</ele>
        <time>2026-05-09T11:41:37.929Z</time>
      </trkpt>
      <trkpt lat="47.9051" lon="6.92247">
        <ele>1163</ele>
        <time>2026-05-09T11:41:38.929Z</time>
      </trkpt>
      <trkpt lat="47.9051" lon="6.92249">
        <ele>1162</ele>
        <time>2026-05-09T11:41:39.928Z</time>
      </trkpt>
      <trkpt lat="47.9051" lon="6.92251">
        <ele>1162</ele>
        <time>2026-05-09T11:41:40.928Z</time>
      </trkpt>
      <trkpt lat="47.9051" lon="6.92253">
        <ele>1162</ele>
        <time>2026-05-09T11:41:41.929Z</time>
      </trkpt>
      <trkpt lat="47.90511" lon="6.92255">
        <ele>1162</ele>
        <time>2026-05-09T11:41:42.929Z</time>
      </trkpt>
      <trkpt lat="47.90512" lon="6.92256">
        <ele>1162</ele>
        <time>2026-05-09T11:41:43.929Z</time>
      </trkpt>
      <trkpt lat="47.90512" lon="6.92258">
        <ele>1161</ele>
        <time>2026-05-09T11:41:44.929Z</time>
      </trkpt>
      <trkpt lat="47.90513" lon="6.9226">
        <ele>1161</ele>
        <time>2026-05-09T11:41:45.929Z</time>
      </trkpt>
      <trkpt lat="47.90513" lon="6.92261">
        <ele>1161</ele>
        <time>2026-05-09T11:41:46.928Z</time>
      </trkpt>
      <trkpt lat="47.90513" lon="6.92264">
        <ele>1160</ele>
        <time>2026-05-09T11:41:47.929Z</time>
      </trkpt>
      <trkpt lat="47.90514" lon="6.92266">
        <ele>1160</ele>
        <time>2026-05-09T11:41:48.928Z</time>
      </trkpt>
      <trkpt lat="47.90514" lon="6.92268">
        <ele>1160</ele>
        <time>2026-05-09T11:41:49.928Z</time>
      </trkpt>
      <trkpt lat="47.90515" lon="6.9227">
        <ele>1159</ele>
        <time>2026-05-09T11:41:50.928Z</time>
      </trkpt>
      <trkpt lat="47.90516" lon="6.92273">
        <ele>1159</ele>
        <time>2026-05-09T11:41:51.928Z</time>
      </trkpt>
      <trkpt lat="47.90516" lon="6.92275">
        <ele>1158</ele>
        <time>2026-05-09T11:41:52.929Z</time>
      </trkpt>
      <trkpt lat="47.90517" lon="6.92277">
        <ele>1158</ele>
        <time>2026-05-09T11:41:53.929Z</time>
      </trkpt>
      <trkpt lat="47.90518" lon="6.92278">
        <ele>1158</ele>
        <time>2026-05-09T11:41:54.929Z</time>
      </trkpt>
      <trkpt lat="47.90519" lon="6.92279">
        <ele>1158</ele>
        <time>2026-05-09T11:41:55.929Z</time>
      </trkpt>
      <trkpt lat="47.9052" lon="6.92281">
        <ele>1157</ele>
        <time>2026-05-09T11:41:56.929Z</time>
      </trkpt>
      <trkpt lat="47.90521" lon="6.92283">
        <ele>1157</ele>
        <time>2026-05-09T11:41:57.929Z</time>
      </trkpt>
      <trkpt lat="47.90521" lon="6.92286">
        <ele>1157</ele>
        <time>2026-05-09T11:41:58.929Z</time>
      </trkpt>
      <trkpt lat="47.9052" lon="6.92288">
        <ele>1157</ele>
        <time>2026-05-09T11:41:59.929Z</time>
      </trkpt>
      <trkpt lat="47.9052" lon="6.92291">
        <ele>1157</ele>
        <time>2026-05-09T11:42:00.929Z</time>
      </trkpt>
      <trkpt lat="47.90521" lon="6.92293">
        <ele>1157</ele>
        <time>2026-05-09T11:42:01.929Z</time>
      </trkpt>
      <trkpt lat="47.90522" lon="6.92295">
        <ele>1157</ele>
        <time>2026-05-09T11:42:02.928Z</time>
      </trkpt>
      <trkpt lat="47.90524" lon="6.92296">
        <ele>1157</ele>
        <time>2026-05-09T11:42:03.928Z</time>
      </trkpt>
      <trkpt lat="47.90524" lon="6.92298">
        <ele>1157</ele>
        <time>2026-05-09T11:42:04.928Z</time>
      </trkpt>
      <trkpt lat="47.90525" lon="6.92299">
        <ele>1157</ele>
        <time>2026-05-09T11:42:05.928Z</time>
      </trkpt>
      <trkpt lat="47.90527" lon="6.92301">
        <ele>1157</ele>
        <time>2026-05-09T11:42:06.928Z</time>
      </trkpt>
      <trkpt lat="47.90528" lon="6.92303">
        <ele>1158</ele>
        <time>2026-05-09T11:42:07.928Z</time>
      </trkpt>
      <trkpt lat="47.90529" lon="6.92304">
        <ele>1158</ele>
        <time>2026-05-09T11:42:08.928Z</time>
      </trkpt>
      <trkpt lat="47.9053" lon="6.92307">
        <ele>1158</ele>
        <time>2026-05-09T11:42:09.929Z</time>
      </trkpt>
      <trkpt lat="47.9053" lon="6.92308">
        <ele>1158</ele>
        <time>2026-05-09T11:42:10.929Z</time>
      </trkpt>
      <trkpt lat="47.90531" lon="6.92309">
        <ele>1158</ele>
        <time>2026-05-09T11:42:11.929Z</time>
      </trkpt>
      <trkpt lat="47.90532" lon="6.92311">
        <ele>1158</ele>
        <time>2026-05-09T11:42:12.929Z</time>
      </trkpt>
      <trkpt lat="47.90533" lon="6.92313">
        <ele>1158</ele>
        <time>2026-05-09T11:42:13.929Z</time>
      </trkpt>
      <trkpt lat="47.90534" lon="6.92315">
        <ele>1159</ele>
        <time>2026-05-09T11:42:14.929Z</time>
      </trkpt>
      <trkpt lat="47.90534" lon="6.92317">
        <ele>1159</ele>
        <time>2026-05-09T11:42:15.929Z</time>
      </trkpt>
      <trkpt lat="47.90536" lon="6.92318">
        <ele>1158</ele>
        <time>2026-05-09T11:42:16.929Z</time>
      </trkpt>
      <trkpt lat="47.90537" lon="6.92319">
        <ele>1158</ele>
        <time>2026-05-09T11:42:17.928Z</time>
      </trkpt>
      <trkpt lat="47.90538" lon="6.92321">
        <ele>1158</ele>
        <time>2026-05-09T11:42:18.928Z</time>
      </trkpt>
      <trkpt lat="47.9054" lon="6.92323">
        <ele>1158</ele>
        <time>2026-05-09T11:42:19.928Z</time>
      </trkpt>
      <trkpt lat="47.90541" lon="6.92324">
        <ele>1158</ele>
        <time>2026-05-09T11:42:20.928Z</time>
      </trkpt>
      <trkpt lat="47.90542" lon="6.92326">
        <ele>1158</ele>
        <time>2026-05-09T11:42:21.928Z</time>
      </trkpt>
      <trkpt lat="47.90543" lon="6.92327">
        <ele>1158</ele>
        <time>2026-05-09T11:42:22.928Z</time>
      </trkpt>
      <trkpt lat="47.90545" lon="6.92328">
        <ele>1158</ele>
        <time>2026-05-09T11:42:23.928Z</time>
      </trkpt>
      <trkpt lat="47.90546" lon="6.9233">
        <ele>1158</ele>
        <time>2026-05-09T11:42:24.929Z</time>
      </trkpt>
      <trkpt lat="47.90547" lon="6.92332">
        <ele>1158</ele>
        <time>2026-05-09T11:42:25.929Z</time>
      </trkpt>
      <trkpt lat="47.90548" lon="6.92333">
        <ele>1158</ele>
        <time>2026-05-09T11:42:26.929Z</time>
      </trkpt>
      <trkpt lat="47.90548" lon="6.92335">
        <ele>1158</ele>
        <time>2026-05-09T11:42:27.929Z</time>
      </trkpt>
      <trkpt lat="47.90548" lon="6.92337">
        <ele>1157</ele>
        <time>2026-05-09T11:42:28.929Z</time>
      </trkpt>
      <trkpt lat="47.90549" lon="6.92339">
        <ele>1157</ele>
        <time>2026-05-09T11:42:29.929Z</time>
      </trkpt>
      <trkpt lat="47.9055" lon="6.92341">
        <ele>1157</ele>
        <time>2026-05-09T11:42:30.929Z</time>
      </trkpt>
      <trkpt lat="47.9055" lon="6.92343">
        <ele>1156</ele>
        <time>2026-05-09T11:42:31.928Z</time>
      </trkpt>
      <trkpt lat="47.90551" lon="6.92344">
        <ele>1156</ele>
        <time>2026-05-09T11:42:32.929Z</time>
      </trkpt>
      <trkpt lat="47.90552" lon="6.92345">
        <ele>1156</ele>
        <time>2026-05-09T11:42:33.929Z</time>
      </trkpt>
      <trkpt lat="47.90553" lon="6.92346">
        <ele>1156</ele>
        <time>2026-05-09T11:42:34.928Z</time>
      </trkpt>
      <trkpt lat="47.90555" lon="6.92347">
        <ele>1156</ele>
        <time>2026-05-09T11:42:35.928Z</time>
      </trkpt>
      <trkpt lat="47.90556" lon="6.92349">
        <ele>1156</ele>
        <time>2026-05-09T11:42:36.929Z</time>
      </trkpt>
      <trkpt lat="47.90557" lon="6.9235">
        <ele>1156</ele>
        <time>2026-05-09T11:42:37.929Z</time>
      </trkpt>
      <trkpt lat="47.90558" lon="6.92351">
        <ele>1156</ele>
        <time>2026-05-09T11:42:38.928Z</time>
      </trkpt>
      <trkpt lat="47.90558" lon="6.92352">
        <ele>1156</ele>
        <time>2026-05-09T11:42:39.929Z</time>
      </trkpt>
      <trkpt lat="47.90558" lon="6.92353">
        <ele>1156</ele>
        <time>2026-05-09T11:42:40.929Z</time>
      </trkpt>
      <trkpt lat="47.90558" lon="6.92355">
        <ele>1156</ele>
        <time>2026-05-09T11:42:41.928Z</time>
      </trkpt>
      <trkpt lat="47.90558" lon="6.92356">
        <ele>1156</ele>
        <time>2026-05-09T11:42:42.928Z</time>
      </trkpt>
      <trkpt lat="47.90558" lon="6.92357">
        <ele>1155</ele>
        <time>2026-05-09T11:42:43.928Z</time>
      </trkpt>
      <trkpt lat="47.90558" lon="6.92359">
        <ele>1155</ele>
        <time>2026-05-09T11:42:44.928Z</time>
      </trkpt>
      <trkpt lat="47.90557" lon="6.9236">
        <ele>1155</ele>
        <time>2026-05-09T11:42:45.928Z</time>
      </trkpt>
      <trkpt lat="47.90557" lon="6.92362">
        <ele>1155</ele>
        <time>2026-05-09T11:42:46.929Z</time>
      </trkpt>
      <trkpt lat="47.90556" lon="6.92364">
        <ele>1154</ele>
        <time>2026-05-09T11:42:47.929Z</time>
      </trkpt>
      <trkpt lat="47.90556" lon="6.92366">
        <ele>1154</ele>
        <time>2026-05-09T11:42:48.929Z</time>
      </trkpt>
      <trkpt lat="47.90556" lon="6.92369">
        <ele>1154</ele>
        <time>2026-05-09T11:42:49.929Z</time>
      </trkpt>
      <trkpt lat="47.90556" lon="6.92371">
        <ele>1154</ele>
        <time>2026-05-09T11:42:50.929Z</time>
      </trkpt>
      <trkpt lat="47.90557" lon="6.92374">
        <ele>1154</ele>
        <time>2026-05-09T11:42:51.928Z</time>
      </trkpt>
      <trkpt lat="47.90556" lon="6.92376">
        <ele>1154</ele>
        <time>2026-05-09T11:42:52.928Z</time>
      </trkpt>
      <trkpt lat="47.90557" lon="6.92377">
        <ele>1154</ele>
        <time>2026-05-09T11:42:53.928Z</time>
      </trkpt>
      <trkpt lat="47.90559" lon="6.92379">
        <ele>1154</ele>
        <time>2026-05-09T11:42:54.928Z</time>
      </trkpt>
      <trkpt lat="47.90559" lon="6.92381">
        <ele>1154</ele>
        <time>2026-05-09T11:42:55.928Z</time>
      </trkpt>
      <trkpt lat="47.9056" lon="6.92383">
        <ele>1154</ele>
        <time>2026-05-09T11:42:56.929Z</time>
      </trkpt>
      <trkpt lat="47.90561" lon="6.92387">
        <ele>1154</ele>
        <time>2026-05-09T11:42:57.928Z</time>
      </trkpt>
      <trkpt lat="47.90563" lon="6.92389">
        <ele>1155</ele>
        <time>2026-05-09T11:42:58.928Z</time>
      </trkpt>
      <trkpt lat="47.90565" lon="6.92391">
        <ele>1155</ele>
        <time>2026-05-09T11:42:59.928Z</time>
      </trkpt>
      <trkpt lat="47.90567" lon="6.92391">
        <ele>1155</ele>
        <time>2026-05-09T11:43:00.928Z</time>
      </trkpt>
      <trkpt lat="47.90568" lon="6.92392">
        <ele>1155</ele>
        <time>2026-05-09T11:43:01.929Z</time>
      </trkpt>
      <trkpt lat="47.90569" lon="6.92394">
        <ele>1155</ele>
        <time>2026-05-09T11:43:02.929Z</time>
      </trkpt>
      <trkpt lat="47.90569" lon="6.92397">
        <ele>1156</ele>
        <time>2026-05-09T11:43:03.929Z</time>
      </trkpt>
      <trkpt lat="47.90571" lon="6.92403">
        <ele>1156</ele>
        <time>2026-05-09T11:43:04.929Z</time>
      </trkpt>
      <trkpt lat="47.9057" lon="6.92404">
        <ele>1157</ele>
        <time>2026-05-09T11:43:05.928Z</time>
      </trkpt>
      <trkpt lat="47.9057" lon="6.92406">
        <ele>1157</ele>
        <time>2026-05-09T11:43:06.928Z</time>
      </trkpt>
      <trkpt lat="47.90571" lon="6.92406">
        <ele>1158</ele>
        <time>2026-05-09T11:43:07.928Z</time>
      </trkpt>
      <trkpt lat="47.90572" lon="6.92405">
        <ele>1158</ele>
        <time>2026-05-09T11:43:08.928Z</time>
      </trkpt>
      <trkpt lat="47.90573" lon="6.92405">
        <ele>1158</ele>
        <time>2026-05-09T11:43:09.929Z</time>
      </trkpt>
      <trkpt lat="47.90573" lon="6.92405">
        <ele>1159</ele>
        <time>2026-05-09T11:43:10.928Z</time>
      </trkpt>
      <trkpt lat="47.90573" lon="6.92406">
        <ele>1159</ele>
        <time>2026-05-09T11:43:11.929Z</time>
      </trkpt>
      <trkpt lat="47.90574" lon="6.92409">
        <ele>1159</ele>
        <time>2026-05-09T11:43:12.929Z</time>
      </trkpt>
      <trkpt lat="47.90575" lon="6.92409">
        <ele>1160</ele>
        <time>2026-05-09T11:43:13.929Z</time>
      </trkpt>
      <trkpt lat="47.90575" lon="6.92408">
        <ele>1160</ele>
        <time>2026-05-09T11:43:14.929Z</time>
      </trkpt>
      <trkpt lat="47.90576" lon="6.9241">
        <ele>1161</ele>
        <time>2026-05-09T11:43:15.928Z</time>
      </trkpt>
      <trkpt lat="47.90577" lon="6.92412">
        <ele>1161</ele>
        <time>2026-05-09T11:43:16.929Z</time>
      </trkpt>
      <trkpt lat="47.90577" lon="6.92412">
        <ele>1161</ele>
        <time>2026-05-09T11:43:17.929Z</time>
      </trkpt>
      <trkpt lat="47.90577" lon="6.92413">
        <ele>1162</ele>
        <time>2026-05-09T11:43:18.928Z</time>
      </trkpt>
      <trkpt lat="47.90577" lon="6.92413">
        <ele>1162</ele>
        <time>2026-05-09T11:43:19.928Z</time>
      </trkpt>
      <trkpt lat="47.90578" lon="6.92414">
        <ele>1162</ele>
        <time>2026-05-09T11:43:20.929Z</time>
      </trkpt>
      <trkpt lat="47.90578" lon="6.92415">
        <ele>1162</ele>
        <time>2026-05-09T11:43:21.929Z</time>
      </trkpt>
      <trkpt lat="47.90578" lon="6.92416">
        <ele>1162</ele>
        <time>2026-05-09T11:43:22.928Z</time>
      </trkpt>
      <trkpt lat="47.90578" lon="6.92417">
        <ele>1162</ele>
        <time>2026-05-09T11:43:23.928Z</time>
      </trkpt>
      <trkpt lat="47.90578" lon="6.92418">
        <ele>1162</ele>
        <time>2026-05-09T11:43:24.928Z</time>
      </trkpt>
      <trkpt lat="47.90578" lon="6.92419">
        <ele>1162</ele>
        <time>2026-05-09T11:43:25.928Z</time>
      </trkpt>
      <trkpt lat="47.90579" lon="6.9242">
        <ele>1162</ele>
        <time>2026-05-09T11:43:26.928Z</time>
      </trkpt>
      <trkpt lat="47.9058" lon="6.9242">
        <ele>1162</ele>
        <time>2026-05-09T11:43:27.929Z</time>
      </trkpt>
      <trkpt lat="47.90581" lon="6.9242">
        <ele>1162</ele>
        <time>2026-05-09T11:43:28.928Z</time>
      </trkpt>
      <trkpt lat="47.90581" lon="6.9242">
        <ele>1162</ele>
        <time>2026-05-09T11:43:29.929Z</time>
      </trkpt>
      <trkpt lat="47.90582" lon="6.92422">
        <ele>1162</ele>
        <time>2026-05-09T11:43:30.929Z</time>
      </trkpt>
      <trkpt lat="47.90582" lon="6.92423">
        <ele>1162</ele>
        <time>2026-05-09T11:43:31.928Z</time>
      </trkpt>
      <trkpt lat="47.90582" lon="6.92424">
        <ele>1162</ele>
        <time>2026-05-09T11:43:32.928Z</time>
      </trkpt>
      <trkpt lat="47.90582" lon="6.92425">
        <ele>1163</ele>
        <time>2026-05-09T11:43:33.928Z</time>
      </trkpt>
      <trkpt lat="47.90582" lon="6.92426">
        <ele>1163</ele>
        <time>2026-05-09T11:43:34.928Z</time>
      </trkpt>
      <trkpt lat="47.90583" lon="6.92427">
        <ele>1164</ele>
        <time>2026-05-09T11:43:35.928Z</time>
      </trkpt>
      <trkpt lat="47.90583" lon="6.92428">
        <ele>1164</ele>
        <time>2026-05-09T11:43:36.929Z</time>
      </trkpt>
      <trkpt lat="47.90584" lon="6.92429">
        <ele>1165</ele>
        <time>2026-05-09T11:43:37.929Z</time>
      </trkpt>
      <trkpt lat="47.90585" lon="6.92431">
        <ele>1165</ele>
        <time>2026-05-09T11:43:38.928Z</time>
      </trkpt>
      <trkpt lat="47.90586" lon="6.92432">
        <ele>1165</ele>
        <time>2026-05-09T11:43:39.928Z</time>
      </trkpt>
      <trkpt lat="47.90587" lon="6.92432">
        <ele>1166</ele>
        <time>2026-05-09T11:43:40.928Z</time>
      </trkpt>
      <trkpt lat="47.90587" lon="6.92433">
        <ele>1166</ele>
        <time>2026-05-09T11:43:41.928Z</time>
      </trkpt>
      <trkpt lat="47.90587" lon="6.92435">
        <ele>1166</ele>
        <time>2026-05-09T11:43:42.929Z</time>
      </trkpt>
      <trkpt lat="47.90587" lon="6.92436">
        <ele>1166</ele>
        <time>2026-05-09T11:43:43.929Z</time>
      </trkpt>
      <trkpt lat="47.90587" lon="6.92438">
        <ele>1166</ele>
        <time>2026-05-09T11:43:44.929Z</time>
      </trkpt>
      <trkpt lat="47.90587" lon="6.92439">
        <ele>1167</ele>
        <time>2026-05-09T11:43:45.928Z</time>
      </trkpt>
      <trkpt lat="47.90588" lon="6.9244">
        <ele>1167</ele>
        <time>2026-05-09T11:43:46.929Z</time>
      </trkpt>
      <trkpt lat="47.90588" lon="6.92442">
        <ele>1167</ele>
        <time>2026-05-09T11:43:47.929Z</time>
      </trkpt>
      <trkpt lat="47.90588" lon="6.92443">
        <ele>1167</ele>
        <time>2026-05-09T11:43:48.929Z</time>
      </trkpt>
      <trkpt lat="47.90588" lon="6.92444">
        <ele>1168</ele>
        <time>2026-05-09T11:43:49.928Z</time>
      </trkpt>
      <trkpt lat="47.90588" lon="6.92444">
        <ele>1168</ele>
        <time>2026-05-09T11:43:50.929Z</time>
      </trkpt>
      <trkpt lat="47.90587" lon="6.92446">
        <ele>1168</ele>
        <time>2026-05-09T11:43:51.928Z</time>
      </trkpt>
      <trkpt lat="47.90587" lon="6.92447">
        <ele>1168</ele>
        <time>2026-05-09T11:43:52.928Z</time>
      </trkpt>
      <trkpt lat="47.90587" lon="6.92447">
        <ele>1169</ele>
        <time>2026-05-09T11:43:53.928Z</time>
      </trkpt>
      <trkpt lat="47.90585" lon="6.92449">
        <ele>1169</ele>
        <time>2026-05-09T11:43:54.929Z</time>
      </trkpt>
      <trkpt lat="47.90584" lon="6.92452">
        <ele>1169</ele>
        <time>2026-05-09T11:43:55.928Z</time>
      </trkpt>
      <trkpt lat="47.90583" lon="6.92453">
        <ele>1169</ele>
        <time>2026-05-09T11:43:56.928Z</time>
      </trkpt>
      <trkpt lat="47.90583" lon="6.92455">
        <ele>1169</ele>
        <time>2026-05-09T11:43:57.928Z</time>
      </trkpt>
      <trkpt lat="47.90584" lon="6.92455">
        <ele>1170</ele>
        <time>2026-05-09T11:43:58.928Z</time>
      </trkpt>
      <trkpt lat="47.90584" lon="6.92456">
        <ele>1170</ele>
        <time>2026-05-09T11:43:59.928Z</time>
      </trkpt>
      <trkpt lat="47.90585" lon="6.92457">
        <ele>1170</ele>
        <time>2026-05-09T11:44:00.928Z</time>
      </trkpt>
      <trkpt lat="47.90585" lon="6.92458">
        <ele>1171</ele>
        <time>2026-05-09T11:44:01.929Z</time>
      </trkpt>
      <trkpt lat="47.90586" lon="6.92459">
        <ele>1171</ele>
        <time>2026-05-09T11:44:02.928Z</time>
      </trkpt>
      <trkpt lat="47.90587" lon="6.9246">
        <ele>1171</ele>
        <time>2026-05-09T11:44:03.929Z</time>
      </trkpt>
      <trkpt lat="47.90588" lon="6.92461">
        <ele>1171</ele>
        <time>2026-05-09T11:44:04.928Z</time>
      </trkpt>
      <trkpt lat="47.90588" lon="6.92463">
        <ele>1171</ele>
        <time>2026-05-09T11:44:05.929Z</time>
      </trkpt>
      <trkpt lat="47.90589" lon="6.92463">
        <ele>1171</ele>
        <time>2026-05-09T11:44:06.929Z</time>
      </trkpt>
      <trkpt lat="47.90588" lon="6.92464">
        <ele>1172</ele>
        <time>2026-05-09T11:44:07.929Z</time>
      </trkpt>
      <trkpt lat="47.90589" lon="6.92466">
        <ele>1172</ele>
        <time>2026-05-09T11:44:08.928Z</time>
      </trkpt>
      <trkpt lat="47.90588" lon="6.92466">
        <ele>1172</ele>
        <time>2026-05-09T11:44:09.928Z</time>
      </trkpt>
      <trkpt lat="47.90588" lon="6.92467">
        <ele>1172</ele>
        <time>2026-05-09T11:44:10.928Z</time>
      </trkpt>
      <trkpt lat="47.90588" lon="6.92467">
        <ele>1172</ele>
        <time>2026-05-09T11:44:11.929Z</time>
      </trkpt>
      <trkpt lat="47.90588" lon="6.92468">
        <ele>1172</ele>
        <time>2026-05-09T11:44:12.929Z</time>
      </trkpt>
      <trkpt lat="47.90588" lon="6.92468">
        <ele>1172</ele>
        <time>2026-05-09T11:44:13.928Z</time>
      </trkpt>
      <trkpt lat="47.90589" lon="6.9247">
        <ele>1172</ele>
        <time>2026-05-09T11:44:14.928Z</time>
      </trkpt>
      <trkpt lat="47.90589" lon="6.92471">
        <ele>1172</ele>
        <time>2026-05-09T11:44:15.928Z</time>
      </trkpt>
      <trkpt lat="47.9059" lon="6.92473">
        <ele>1172</ele>
        <time>2026-05-09T11:44:16.929Z</time>
      </trkpt>
      <trkpt lat="47.9059" lon="6.92474">
        <ele>1172</ele>
        <time>2026-05-09T11:44:17.928Z</time>
      </trkpt>
      <trkpt lat="47.90591" lon="6.92475">
        <ele>1171</ele>
        <time>2026-05-09T11:44:18.929Z</time>
      </trkpt>
      <trkpt lat="47.90591" lon="6.92476">
        <ele>1171</ele>
        <time>2026-05-09T11:44:19.929Z</time>
      </trkpt>
      <trkpt lat="47.90592" lon="6.92477">
        <ele>1171</ele>
        <time>2026-05-09T11:44:20.928Z</time>
      </trkpt>
      <trkpt lat="47.90593" lon="6.92479">
        <ele>1172</ele>
        <time>2026-05-09T11:44:21.929Z</time>
      </trkpt>
      <trkpt lat="47.90594" lon="6.9248">
        <ele>1172</ele>
        <time>2026-05-09T11:44:22.929Z</time>
      </trkpt>
      <trkpt lat="47.90595" lon="6.92481">
        <ele>1172</ele>
        <time>2026-05-09T11:44:23.928Z</time>
      </trkpt>
      <trkpt lat="47.90596" lon="6.92483">
        <ele>1172</ele>
        <time>2026-05-09T11:44:24.929Z</time>
      </trkpt>
      <trkpt lat="47.90596" lon="6.92484">
        <ele>1172</ele>
        <time>2026-05-09T11:44:25.929Z</time>
      </trkpt>
      <trkpt lat="47.90596" lon="6.92485">
        <ele>1172</ele>
        <time>2026-05-09T11:44:26.928Z</time>
      </trkpt>
      <trkpt lat="47.90597" lon="6.92487">
        <ele>1172</ele>
        <time>2026-05-09T11:44:27.929Z</time>
      </trkpt>
      <trkpt lat="47.90597" lon="6.92489">
        <ele>1172</ele>
        <time>2026-05-09T11:44:28.928Z</time>
      </trkpt>
      <trkpt lat="47.90597" lon="6.9249">
        <ele>1172</ele>
        <time>2026-05-09T11:44:29.929Z</time>
      </trkpt>
      <trkpt lat="47.90597" lon="6.92491">
        <ele>1172</ele>
        <time>2026-05-09T11:44:30.928Z</time>
      </trkpt>
      <trkpt lat="47.90597" lon="6.92492">
        <ele>1172</ele>
        <time>2026-05-09T11:44:31.929Z</time>
      </trkpt>
      <trkpt lat="47.90598" lon="6.92498">
        <ele>1173</ele>
        <time>2026-05-09T11:44:39.162Z</time>
      </trkpt>
      <trkpt lat="47.90598" lon="6.925">
        <ele>1173</ele>
        <time>2026-05-09T11:44:40.163Z</time>
      </trkpt>
      <trkpt lat="47.90598" lon="6.92502">
        <ele>1174</ele>
        <time>2026-05-09T11:44:41.163Z</time>
      </trkpt>
      <trkpt lat="47.90598" lon="6.92502">
        <ele>1174</ele>
        <time>2026-05-09T11:44:42.162Z</time>
      </trkpt>
      <trkpt lat="47.90598" lon="6.92504">
        <ele>1174</ele>
        <time>2026-05-09T11:44:43.163Z</time>
      </trkpt>
      <trkpt lat="47.90598" lon="6.92505">
        <ele>1175</ele>
        <time>2026-05-09T11:44:44.162Z</time>
      </trkpt>
      <trkpt lat="47.90599" lon="6.92506">
        <ele>1175</ele>
        <time>2026-05-09T11:44:45.163Z</time>
      </trkpt>
      <trkpt lat="47.90601" lon="6.92507">
        <ele>1175</ele>
        <time>2026-05-09T11:44:46.162Z</time>
      </trkpt>
      <trkpt lat="47.90602" lon="6.92508">
        <ele>1176</ele>
        <time>2026-05-09T11:44:47.163Z</time>
      </trkpt>
      <trkpt lat="47.90603" lon="6.92508">
        <ele>1176</ele>
        <time>2026-05-09T11:44:48.163Z</time>
      </trkpt>
      <trkpt lat="47.90603" lon="6.92509">
        <ele>1176</ele>
        <time>2026-05-09T11:44:49.162Z</time>
      </trkpt>
      <trkpt lat="47.90603" lon="6.92509">
        <ele>1176</ele>
        <time>2026-05-09T11:44:50.162Z</time>
      </trkpt>
      <trkpt lat="47.90603" lon="6.92509">
        <ele>1177</ele>
        <time>2026-05-09T11:44:51.162Z</time>
      </trkpt>
      <trkpt lat="47.90603" lon="6.9251">
        <ele>1177</ele>
        <time>2026-05-09T11:44:52.162Z</time>
      </trkpt>
      <trkpt lat="47.90603" lon="6.92511">
        <ele>1177</ele>
        <time>2026-05-09T11:44:53.162Z</time>
      </trkpt>
      <trkpt lat="47.90603" lon="6.92512">
        <ele>1177</ele>
        <time>2026-05-09T11:44:54.163Z</time>
      </trkpt>
      <trkpt lat="47.90604" lon="6.92514">
        <ele>1177</ele>
        <time>2026-05-09T11:44:55.162Z</time>
      </trkpt>
      <trkpt lat="47.90603" lon="6.92515">
        <ele>1177</ele>
        <time>2026-05-09T11:44:56.163Z</time>
      </trkpt>
      <trkpt lat="47.90603" lon="6.92517">
        <ele>1178</ele>
        <time>2026-05-09T11:44:57.163Z</time>
      </trkpt>
      <trkpt lat="47.90603" lon="6.92519">
        <ele>1178</ele>
        <time>2026-05-09T11:44:58.162Z</time>
      </trkpt>
      <trkpt lat="47.90603" lon="6.9252">
        <ele>1178</ele>
        <time>2026-05-09T11:44:59.163Z</time>
      </trkpt>
      <trkpt lat="47.90603" lon="6.92521">
        <ele>1178</ele>
        <time>2026-05-09T11:45:00.163Z</time>
      </trkpt>
      <trkpt lat="47.90604" lon="6.92522">
        <ele>1178</ele>
        <time>2026-05-09T11:45:01.162Z</time>
      </trkpt>
      <trkpt lat="47.90604" lon="6.92522">
        <ele>1178</ele>
        <time>2026-05-09T11:45:02.163Z</time>
      </trkpt>
      <trkpt lat="47.90604" lon="6.92522">
        <ele>1178</ele>
        <time>2026-05-09T11:45:03.162Z</time>
      </trkpt>
      <trkpt lat="47.90605" lon="6.92525">
        <ele>1178</ele>
        <time>2026-05-09T11:45:04.163Z</time>
      </trkpt>
      <trkpt lat="47.90605" lon="6.92527">
        <ele>1178</ele>
        <time>2026-05-09T11:45:05.162Z</time>
      </trkpt>
      <trkpt lat="47.90605" lon="6.92527">
        <ele>1178</ele>
        <time>2026-05-09T11:45:06.163Z</time>
      </trkpt>
      <trkpt lat="47.90605" lon="6.92528">
        <ele>1178</ele>
        <time>2026-05-09T11:45:07.162Z</time>
      </trkpt>
      <trkpt lat="47.90605" lon="6.92529">
        <ele>1178</ele>
        <time>2026-05-09T11:45:08.162Z</time>
      </trkpt>
      <trkpt lat="47.90605" lon="6.92529">
        <ele>1178</ele>
        <time>2026-05-09T11:45:09.163Z</time>
      </trkpt>
      <trkpt lat="47.90605" lon="6.9253">
        <ele>1178</ele>
        <time>2026-05-09T11:45:10.163Z</time>
      </trkpt>
      <trkpt lat="47.90605" lon="6.92531">
        <ele>1178</ele>
        <time>2026-05-09T11:45:11.163Z</time>
      </trkpt>
      <trkpt lat="47.90605" lon="6.92531">
        <ele>1179</ele>
        <time>2026-05-09T11:45:12.163Z</time>
      </trkpt>
      <trkpt lat="47.90606" lon="6.92531">
        <ele>1179</ele>
        <time>2026-05-09T11:45:13.162Z</time>
      </trkpt>
      <trkpt lat="47.90605" lon="6.92541">
        <ele>1182</ele>
        <time>2026-05-09T11:45:19.596Z</time>
      </trkpt>
      <trkpt lat="47.90604" lon="6.92542">
        <ele>1182</ele>
        <time>2026-05-09T11:45:20.596Z</time>
      </trkpt>
      <trkpt lat="47.90604" lon="6.92543">
        <ele>1182</ele>
        <time>2026-05-09T11:45:21.596Z</time>
      </trkpt>
      <trkpt lat="47.90604" lon="6.92543">
        <ele>1181</ele>
        <time>2026-05-09T11:45:22.597Z</time>
      </trkpt>
      <trkpt lat="47.90604" lon="6.92545">
        <ele>1181</ele>
        <time>2026-05-09T11:45:23.597Z</time>
      </trkpt>
      <trkpt lat="47.90604" lon="6.92545">
        <ele>1180</ele>
        <time>2026-05-09T11:45:24.597Z</time>
      </trkpt>
      <trkpt lat="47.90604" lon="6.92546">
        <ele>1180</ele>
        <time>2026-05-09T11:45:25.596Z</time>
      </trkpt>
      <trkpt lat="47.90605" lon="6.92546">
        <ele>1180</ele>
        <time>2026-05-09T11:45:26.596Z</time>
      </trkpt>
      <trkpt lat="47.90605" lon="6.92547">
        <ele>1180</ele>
        <time>2026-05-09T11:45:27.596Z</time>
      </trkpt>
      <trkpt lat="47.90605" lon="6.92548">
        <ele>1180</ele>
        <time>2026-05-09T11:45:28.597Z</time>
      </trkpt>
      <trkpt lat="47.90605" lon="6.92548">
        <ele>1180</ele>
        <time>2026-05-09T11:45:29.596Z</time>
      </trkpt>
      <trkpt lat="47.90606" lon="6.9255">
        <ele>1180</ele>
        <time>2026-05-09T11:45:30.596Z</time>
      </trkpt>
      <trkpt lat="47.90606" lon="6.9255">
        <ele>1180</ele>
        <time>2026-05-09T11:45:31.596Z</time>
      </trkpt>
      <trkpt lat="47.90606" lon="6.92552">
        <ele>1180</ele>
        <time>2026-05-09T11:45:32.597Z</time>
      </trkpt>
      <trkpt lat="47.90606" lon="6.92552">
        <ele>1181</ele>
        <time>2026-05-09T11:45:33.596Z</time>
      </trkpt>
      <trkpt lat="47.90606" lon="6.92554">
        <ele>1181</ele>
        <time>2026-05-09T11:45:34.596Z</time>
      </trkpt>
      <trkpt lat="47.90606" lon="6.92555">
        <ele>1181</ele>
        <time>2026-05-09T11:45:35.597Z</time>
      </trkpt>
      <trkpt lat="47.90606" lon="6.92556">
        <ele>1181</ele>
        <time>2026-05-09T11:45:36.596Z</time>
      </trkpt>
      <trkpt lat="47.90607" lon="6.92557">
        <ele>1182</ele>
        <time>2026-05-09T11:45:37.597Z</time>
      </trkpt>
      <trkpt lat="47.90607" lon="6.92558">
        <ele>1182</ele>
        <time>2026-05-09T11:45:38.596Z</time>
      </trkpt>
      <trkpt lat="47.90607" lon="6.92558">
        <ele>1182</ele>
        <time>2026-05-09T11:45:39.597Z</time>
      </trkpt>
      <trkpt lat="47.90607" lon="6.92559">
        <ele>1182</ele>
        <time>2026-05-09T11:45:40.596Z</time>
      </trkpt>
      <trkpt lat="47.90607" lon="6.9256">
        <ele>1182</ele>
        <time>2026-05-09T11:45:41.596Z</time>
      </trkpt>
      <trkpt lat="47.90607" lon="6.92561">
        <ele>1182</ele>
        <time>2026-05-09T11:45:42.597Z</time>
      </trkpt>
      <trkpt lat="47.90607" lon="6.92562">
        <ele>1182</ele>
        <time>2026-05-09T11:45:43.596Z</time>
      </trkpt>
      <trkpt lat="47.90607" lon="6.92564">
        <ele>1182</ele>
        <time>2026-05-09T11:45:44.597Z</time>
      </trkpt>
      <trkpt lat="47.90607" lon="6.92565">
        <ele>1182</ele>
        <time>2026-05-09T11:45:45.597Z</time>
      </trkpt>
      <trkpt lat="47.90607" lon="6.92566">
        <ele>1183</ele>
        <time>2026-05-09T11:45:46.597Z</time>
      </trkpt>
      <trkpt lat="47.90607" lon="6.92568">
        <ele>1183</ele>
        <time>2026-05-09T11:45:47.596Z</time>
      </trkpt>
      <trkpt lat="47.90607" lon="6.92569">
        <ele>1183</ele>
        <time>2026-05-09T11:45:48.597Z</time>
      </trkpt>
      <trkpt lat="47.90607" lon="6.9257">
        <ele>1184</ele>
        <time>2026-05-09T11:45:49.597Z</time>
      </trkpt>
      <trkpt lat="47.90608" lon="6.9257">
        <ele>1184</ele>
        <time>2026-05-09T11:45:50.596Z</time>
      </trkpt>
      <trkpt lat="47.90608" lon="6.92571">
        <ele>1184</ele>
        <time>2026-05-09T11:45:51.597Z</time>
      </trkpt>
      <trkpt lat="47.90609" lon="6.92572">
        <ele>1184</ele>
        <time>2026-05-09T11:45:52.597Z</time>
      </trkpt>
      <trkpt lat="47.9061" lon="6.92573">
        <ele>1184</ele>
        <time>2026-05-09T11:45:53.597Z</time>
      </trkpt>
      <trkpt lat="47.9061" lon="6.92574">
        <ele>1184</ele>
        <time>2026-05-09T11:45:54.596Z</time>
      </trkpt>
      <trkpt lat="47.90611" lon="6.92574">
        <ele>1184</ele>
        <time>2026-05-09T11:45:55.596Z</time>
      </trkpt>
      <trkpt lat="47.90611" lon="6.92576">
        <ele>1184</ele>
        <time>2026-05-09T11:45:56.596Z</time>
      </trkpt>
      <trkpt lat="47.90611" lon="6.92577">
        <ele>1184</ele>
        <time>2026-05-09T11:45:57.597Z</time>
      </trkpt>
      <trkpt lat="47.90611" lon="6.92579">
        <ele>1184</ele>
        <time>2026-05-09T11:45:58.597Z</time>
      </trkpt>
      <trkpt lat="47.90612" lon="6.92581">
        <ele>1184</ele>
        <time>2026-05-09T11:45:59.597Z</time>
      </trkpt>
      <trkpt lat="47.90613" lon="6.92582">
        <ele>1184</ele>
        <time>2026-05-09T11:46:00.596Z</time>
      </trkpt>
      <trkpt lat="47.90613" lon="6.92582">
        <ele>1184</ele>
        <time>2026-05-09T11:46:01.597Z</time>
      </trkpt>
      <trkpt lat="47.90614" lon="6.92584">
        <ele>1184</ele>
        <time>2026-05-09T11:46:02.596Z</time>
      </trkpt>
      <trkpt lat="47.90614" lon="6.92584">
        <ele>1184</ele>
        <time>2026-05-09T11:46:03.597Z</time>
      </trkpt>
      <trkpt lat="47.90615" lon="6.92585">
        <ele>1185</ele>
        <time>2026-05-09T11:46:04.597Z</time>
      </trkpt>
      <trkpt lat="47.90617" lon="6.92584">
        <ele>1186</ele>
        <time>2026-05-09T11:46:22.046Z</time>
      </trkpt>
      <trkpt lat="47.90618" lon="6.92584">
        <ele>1186</ele>
        <time>2026-05-09T11:46:23.047Z</time>
      </trkpt>
      <trkpt lat="47.90618" lon="6.92584">
        <ele>1186</ele>
        <time>2026-05-09T11:46:24.046Z</time>
      </trkpt>
      <trkpt lat="47.90619" lon="6.92584">
        <ele>1186</ele>
        <time>2026-05-09T11:46:25.047Z</time>
      </trkpt>
      <trkpt lat="47.9062" lon="6.92585">
        <ele>1185</ele>
        <time>2026-05-09T11:46:26.046Z</time>
      </trkpt>
      <trkpt lat="47.90621" lon="6.92586">
        <ele>1185</ele>
        <time>2026-05-09T11:46:27.047Z</time>
      </trkpt>
      <trkpt lat="47.90622" lon="6.92586">
        <ele>1185</ele>
        <time>2026-05-09T11:46:28.046Z</time>
      </trkpt>
      <trkpt lat="47.90622" lon="6.92587">
        <ele>1185</ele>
        <time>2026-05-09T11:46:29.047Z</time>
      </trkpt>
      <trkpt lat="47.90623" lon="6.92588">
        <ele>1185</ele>
        <time>2026-05-09T11:46:30.046Z</time>
      </trkpt>
      <trkpt lat="47.90625" lon="6.92589">
        <ele>1185</ele>
        <time>2026-05-09T11:46:31.047Z</time>
      </trkpt>
      <trkpt lat="47.90626" lon="6.9259">
        <ele>1185</ele>
        <time>2026-05-09T11:46:32.046Z</time>
      </trkpt>
      <trkpt lat="47.90627" lon="6.9259">
        <ele>1185</ele>
        <time>2026-05-09T11:46:33.047Z</time>
      </trkpt>
      <trkpt lat="47.90628" lon="6.9259">
        <ele>1185</ele>
        <time>2026-05-09T11:46:34.047Z</time>
      </trkpt>
      <trkpt lat="47.90629" lon="6.92591">
        <ele>1186</ele>
        <time>2026-05-09T11:46:35.047Z</time>
      </trkpt>
      <trkpt lat="47.9063" lon="6.92591">
        <ele>1186</ele>
        <time>2026-05-09T11:46:36.047Z</time>
      </trkpt>
      <trkpt lat="47.90631" lon="6.92592">
        <ele>1186</ele>
        <time>2026-05-09T11:46:37.046Z</time>
      </trkpt>
      <trkpt lat="47.90632" lon="6.92593">
        <ele>1186</ele>
        <time>2026-05-09T11:46:38.046Z</time>
      </trkpt>
      <trkpt lat="47.90633" lon="6.92593">
        <ele>1186</ele>
        <time>2026-05-09T11:46:39.046Z</time>
      </trkpt>
      <trkpt lat="47.90634" lon="6.92594">
        <ele>1186</ele>
        <time>2026-05-09T11:46:40.046Z</time>
      </trkpt>
      <trkpt lat="47.90635" lon="6.92595">
        <ele>1186</ele>
        <time>2026-05-09T11:46:41.046Z</time>
      </trkpt>
      <trkpt lat="47.90636" lon="6.92595">
        <ele>1186</ele>
        <time>2026-05-09T11:46:42.046Z</time>
      </trkpt>
      <trkpt lat="47.90637" lon="6.92596">
        <ele>1186</ele>
        <time>2026-05-09T11:46:43.047Z</time>
      </trkpt>
      <trkpt lat="47.90638" lon="6.92597">
        <ele>1185</ele>
        <time>2026-05-09T11:46:44.046Z</time>
      </trkpt>
      <trkpt lat="47.9064" lon="6.92598">
        <ele>1185</ele>
        <time>2026-05-09T11:46:45.047Z</time>
      </trkpt>
      <trkpt lat="47.90641" lon="6.92598">
        <ele>1185</ele>
        <time>2026-05-09T11:46:46.046Z</time>
      </trkpt>
      <trkpt lat="47.90642" lon="6.92599">
        <ele>1185</ele>
        <time>2026-05-09T11:46:47.047Z</time>
      </trkpt>
      <trkpt lat="47.90643" lon="6.926">
        <ele>1185</ele>
        <time>2026-05-09T11:46:48.046Z</time>
      </trkpt>
      <trkpt lat="47.90644" lon="6.92601">
        <ele>1185</ele>
        <time>2026-05-09T11:46:49.047Z</time>
      </trkpt>
      <trkpt lat="47.90646" lon="6.92602">
        <ele>1185</ele>
        <time>2026-05-09T11:46:50.046Z</time>
      </trkpt>
      <trkpt lat="47.90648" lon="6.92603">
        <ele>1185</ele>
        <time>2026-05-09T11:46:51.046Z</time>
      </trkpt>
      <trkpt lat="47.90649" lon="6.92605">
        <ele>1185</ele>
        <time>2026-05-09T11:46:52.047Z</time>
      </trkpt>
      <trkpt lat="47.9065" lon="6.92607">
        <ele>1185</ele>
        <time>2026-05-09T11:46:53.047Z</time>
      </trkpt>
      <trkpt lat="47.90652" lon="6.92608">
        <ele>1185</ele>
        <time>2026-05-09T11:46:54.046Z</time>
      </trkpt>
      <trkpt lat="47.90653" lon="6.92609">
        <ele>1185</ele>
        <time>2026-05-09T11:46:55.047Z</time>
      </trkpt>
      <trkpt lat="47.90655" lon="6.9261">
        <ele>1185</ele>
        <time>2026-05-09T11:46:56.046Z</time>
      </trkpt>
      <trkpt lat="47.90656" lon="6.92611">
        <ele>1185</ele>
        <time>2026-05-09T11:46:57.047Z</time>
      </trkpt>
      <trkpt lat="47.90657" lon="6.92612">
        <ele>1185</ele>
        <time>2026-05-09T11:46:58.047Z</time>
      </trkpt>
      <trkpt lat="47.90658" lon="6.92613">
        <ele>1186</ele>
        <time>2026-05-09T11:46:59.047Z</time>
      </trkpt>
      <trkpt lat="47.90659" lon="6.92613">
        <ele>1186</ele>
        <time>2026-05-09T11:47:00.046Z</time>
      </trkpt>
      <trkpt lat="47.9066" lon="6.92614">
        <ele>1186</ele>
        <time>2026-05-09T11:47:01.047Z</time>
      </trkpt>
      <trkpt lat="47.90661" lon="6.92615">
        <ele>1186</ele>
        <time>2026-05-09T11:47:02.046Z</time>
      </trkpt>
      <trkpt lat="47.90663" lon="6.92615">
        <ele>1185</ele>
        <time>2026-05-09T11:47:03.047Z</time>
      </trkpt>
      <trkpt lat="47.90664" lon="6.92616">
        <ele>1185</ele>
        <time>2026-05-09T11:47:04.046Z</time>
      </trkpt>
      <trkpt lat="47.90665" lon="6.92617">
        <ele>1185</ele>
        <time>2026-05-09T11:47:05.047Z</time>
      </trkpt>
      <trkpt lat="47.90666" lon="6.92618">
        <ele>1185</ele>
        <time>2026-05-09T11:47:06.046Z</time>
      </trkpt>
      <trkpt lat="47.90667" lon="6.92619">
        <ele>1185</ele>
        <time>2026-05-09T11:47:07.047Z</time>
      </trkpt>
      <trkpt lat="47.90669" lon="6.9262">
        <ele>1184</ele>
        <time>2026-05-09T11:47:08.047Z</time>
      </trkpt>
      <trkpt lat="47.9067" lon="6.9262">
        <ele>1184</ele>
        <time>2026-05-09T11:47:09.047Z</time>
      </trkpt>
      <trkpt lat="47.90671" lon="6.9262">
        <ele>1184</ele>
        <time>2026-05-09T11:47:10.047Z</time>
      </trkpt>
      <trkpt lat="47.90671" lon="6.92621">
        <ele>1183</ele>
        <time>2026-05-09T11:47:11.046Z</time>
      </trkpt>
      <trkpt lat="47.90672" lon="6.92622">
        <ele>1183</ele>
        <time>2026-05-09T11:47:12.046Z</time>
      </trkpt>
      <trkpt lat="47.90673" lon="6.92624">
        <ele>1183</ele>
        <time>2026-05-09T11:47:13.046Z</time>
      </trkpt>
      <trkpt lat="47.90674" lon="6.92625">
        <ele>1183</ele>
        <time>2026-05-09T11:47:14.047Z</time>
      </trkpt>
      <trkpt lat="47.90675" lon="6.92628">
        <ele>1183</ele>
        <time>2026-05-09T11:47:15.046Z</time>
      </trkpt>
      <trkpt lat="47.90677" lon="6.92629">
        <ele>1183</ele>
        <time>2026-05-09T11:47:16.047Z</time>
      </trkpt>
      <trkpt lat="47.90678" lon="6.9263">
        <ele>1183</ele>
        <time>2026-05-09T11:47:17.046Z</time>
      </trkpt>
      <trkpt lat="47.90679" lon="6.92631">
        <ele>1183</ele>
        <time>2026-05-09T11:47:18.047Z</time>
      </trkpt>
      <trkpt lat="47.9068" lon="6.92632">
        <ele>1183</ele>
        <time>2026-05-09T11:47:19.046Z</time>
      </trkpt>
      <trkpt lat="47.90681" lon="6.92633">
        <ele>1183</ele>
        <time>2026-05-09T11:47:20.047Z</time>
      </trkpt>
      <trkpt lat="47.90682" lon="6.92634">
        <ele>1184</ele>
        <time>2026-05-09T11:47:21.046Z</time>
      </trkpt>
      <trkpt lat="47.90683" lon="6.92635">
        <ele>1184</ele>
        <time>2026-05-09T11:47:22.047Z</time>
      </trkpt>
      <trkpt lat="47.90684" lon="6.92635">
        <ele>1184</ele>
        <time>2026-05-09T11:47:23.047Z</time>
      </trkpt>
      <trkpt lat="47.90685" lon="6.92636">
        <ele>1184</ele>
        <time>2026-05-09T11:47:24.047Z</time>
      </trkpt>
      <trkpt lat="47.90686" lon="6.92637">
        <ele>1183</ele>
        <time>2026-05-09T11:47:25.047Z</time>
      </trkpt>
      <trkpt lat="47.90688" lon="6.92637">
        <ele>1183</ele>
        <time>2026-05-09T11:47:26.046Z</time>
      </trkpt>
      <trkpt lat="47.90689" lon="6.92638">
        <ele>1183</ele>
        <time>2026-05-09T11:47:27.047Z</time>
      </trkpt>
      <trkpt lat="47.9069" lon="6.92639">
        <ele>1183</ele>
        <time>2026-05-09T11:47:28.046Z</time>
      </trkpt>
      <trkpt lat="47.90692" lon="6.9264">
        <ele>1183</ele>
        <time>2026-05-09T11:47:29.047Z</time>
      </trkpt>
      <trkpt lat="47.90693" lon="6.92642">
        <ele>1183</ele>
        <time>2026-05-09T11:47:30.046Z</time>
      </trkpt>
      <trkpt lat="47.90694" lon="6.92644">
        <ele>1183</ele>
        <time>2026-05-09T11:47:31.046Z</time>
      </trkpt>
      <trkpt lat="47.90695" lon="6.92645">
        <ele>1184</ele>
        <time>2026-05-09T11:47:32.046Z</time>
      </trkpt>
      <trkpt lat="47.90697" lon="6.92645">
        <ele>1184</ele>
        <time>2026-05-09T11:47:33.047Z</time>
      </trkpt>
      <trkpt lat="47.90698" lon="6.92646">
        <ele>1184</ele>
        <time>2026-05-09T11:47:34.046Z</time>
      </trkpt>
      <trkpt lat="47.907" lon="6.92646">
        <ele>1184</ele>
        <time>2026-05-09T11:47:35.047Z</time>
      </trkpt>
      <trkpt lat="47.90701" lon="6.92647">
        <ele>1184</ele>
        <time>2026-05-09T11:47:36.047Z</time>
      </trkpt>
      <trkpt lat="47.90703" lon="6.92648">
        <ele>1184</ele>
        <time>2026-05-09T11:47:37.047Z</time>
      </trkpt>
      <trkpt lat="47.90705" lon="6.92649">
        <ele>1184</ele>
        <time>2026-05-09T11:47:38.047Z</time>
      </trkpt>
      <trkpt lat="47.90706" lon="6.9265">
        <ele>1184</ele>
        <time>2026-05-09T11:47:39.046Z</time>
      </trkpt>
      <trkpt lat="47.90708" lon="6.92652">
        <ele>1183</ele>
        <time>2026-05-09T11:47:40.047Z</time>
      </trkpt>
      <trkpt lat="47.90709" lon="6.92654">
        <ele>1183</ele>
        <time>2026-05-09T11:47:41.046Z</time>
      </trkpt>
      <trkpt lat="47.90709" lon="6.92656">
        <ele>1183</ele>
        <time>2026-05-09T11:47:42.047Z</time>
      </trkpt>
      <trkpt lat="47.9071" lon="6.92657">
        <ele>1183</ele>
        <time>2026-05-09T11:47:43.046Z</time>
      </trkpt>
      <trkpt lat="47.90711" lon="6.92657">
        <ele>1183</ele>
        <time>2026-05-09T11:47:44.047Z</time>
      </trkpt>
      <trkpt lat="47.90713" lon="6.92657">
        <ele>1183</ele>
        <time>2026-05-09T11:47:45.046Z</time>
      </trkpt>
      <trkpt lat="47.90714" lon="6.92658">
        <ele>1183</ele>
        <time>2026-05-09T11:47:46.046Z</time>
      </trkpt>
      <trkpt lat="47.90716" lon="6.92658">
        <ele>1183</ele>
        <time>2026-05-09T11:47:47.046Z</time>
      </trkpt>
      <trkpt lat="47.90717" lon="6.92659">
        <ele>1183</ele>
        <time>2026-05-09T11:47:48.047Z</time>
      </trkpt>
      <trkpt lat="47.90719" lon="6.9266">
        <ele>1183</ele>
        <time>2026-05-09T11:47:49.046Z</time>
      </trkpt>
      <trkpt lat="47.90721" lon="6.92661">
        <ele>1183</ele>
        <time>2026-05-09T11:47:50.047Z</time>
      </trkpt>
      <trkpt lat="47.90722" lon="6.92662">
        <ele>1184</ele>
        <time>2026-05-09T11:47:51.046Z</time>
      </trkpt>
      <trkpt lat="47.90723" lon="6.92663">
        <ele>1184</ele>
        <time>2026-05-09T11:47:52.047Z</time>
      </trkpt>
      <trkpt lat="47.90724" lon="6.92664">
        <ele>1183</ele>
        <time>2026-05-09T11:47:53.046Z</time>
      </trkpt>
      <trkpt lat="47.90725" lon="6.92664">
        <ele>1183</ele>
        <time>2026-05-09T11:47:54.047Z</time>
      </trkpt>
      <trkpt lat="47.90726" lon="6.92665">
        <ele>1183</ele>
        <time>2026-05-09T11:47:55.046Z</time>
      </trkpt>
      <trkpt lat="47.90728" lon="6.92666">
        <ele>1182</ele>
        <time>2026-05-09T11:47:56.047Z</time>
      </trkpt>
      <trkpt lat="47.90729" lon="6.92667">
        <ele>1182</ele>
        <time>2026-05-09T11:47:57.046Z</time>
      </trkpt>
      <trkpt lat="47.9073" lon="6.92669">
        <ele>1181</ele>
        <time>2026-05-09T11:47:58.047Z</time>
      </trkpt>
      <trkpt lat="47.90731" lon="6.92671">
        <ele>1181</ele>
        <time>2026-05-09T11:47:59.046Z</time>
      </trkpt>
      <trkpt lat="47.90732" lon="6.92672">
        <ele>1180</ele>
        <time>2026-05-09T11:48:00.046Z</time>
      </trkpt>
      <trkpt lat="47.90733" lon="6.92674">
        <ele>1180</ele>
        <time>2026-05-09T11:48:01.046Z</time>
      </trkpt>
      <trkpt lat="47.90735" lon="6.92675">
        <ele>1180</ele>
        <time>2026-05-09T11:48:02.047Z</time>
      </trkpt>
      <trkpt lat="47.90737" lon="6.92675">
        <ele>1180</ele>
        <time>2026-05-09T11:48:03.046Z</time>
      </trkpt>
      <trkpt lat="47.90738" lon="6.92676">
        <ele>1180</ele>
        <time>2026-05-09T11:48:04.047Z</time>
      </trkpt>
      <trkpt lat="47.90739" lon="6.92676">
        <ele>1180</ele>
        <time>2026-05-09T11:48:05.047Z</time>
      </trkpt>
      <trkpt lat="47.9074" lon="6.92677">
        <ele>1179</ele>
        <time>2026-05-09T11:48:06.047Z</time>
      </trkpt>
      <trkpt lat="47.90741" lon="6.92678">
        <ele>1179</ele>
        <time>2026-05-09T11:48:07.047Z</time>
      </trkpt>
      <trkpt lat="47.90743" lon="6.92678">
        <ele>1179</ele>
        <time>2026-05-09T11:48:08.046Z</time>
      </trkpt>
      <trkpt lat="47.90744" lon="6.92679">
        <ele>1179</ele>
        <time>2026-05-09T11:48:09.047Z</time>
      </trkpt>
      <trkpt lat="47.90745" lon="6.92679">
        <ele>1179</ele>
        <time>2026-05-09T11:48:10.046Z</time>
      </trkpt>
      <trkpt lat="47.90747" lon="6.9268">
        <ele>1179</ele>
        <time>2026-05-09T11:48:11.047Z</time>
      </trkpt>
      <trkpt lat="47.90748" lon="6.92679">
        <ele>1179</ele>
        <time>2026-05-09T11:48:12.046Z</time>
      </trkpt>
      <trkpt lat="47.90749" lon="6.92679">
        <ele>1179</ele>
        <time>2026-05-09T11:48:13.047Z</time>
      </trkpt>
      <trkpt lat="47.90751" lon="6.92679">
        <ele>1180</ele>
        <time>2026-05-09T11:48:14.046Z</time>
      </trkpt>
      <trkpt lat="47.90752" lon="6.9268">
        <ele>1180</ele>
        <time>2026-05-09T11:48:15.047Z</time>
      </trkpt>
      <trkpt lat="47.90754" lon="6.92681">
        <ele>1180</ele>
        <time>2026-05-09T11:48:16.046Z</time>
      </trkpt>
      <trkpt lat="47.90755" lon="6.92682">
        <ele>1179</ele>
        <time>2026-05-09T11:48:17.047Z</time>
      </trkpt>
      <trkpt lat="47.90757" lon="6.92682">
        <ele>1179</ele>
        <time>2026-05-09T11:48:18.046Z</time>
      </trkpt>
      <trkpt lat="47.90758" lon="6.92683">
        <ele>1179</ele>
        <time>2026-05-09T11:48:19.046Z</time>
      </trkpt>
      <trkpt lat="47.90759" lon="6.92683">
        <ele>1179</ele>
        <time>2026-05-09T11:48:20.046Z</time>
      </trkpt>
      <trkpt lat="47.90761" lon="6.92683">
        <ele>1179</ele>
        <time>2026-05-09T11:48:21.047Z</time>
      </trkpt>
      <trkpt lat="47.90762" lon="6.92684">
        <ele>1179</ele>
        <time>2026-05-09T11:48:22.047Z</time>
      </trkpt>
      <trkpt lat="47.90764" lon="6.92685">
        <ele>1179</ele>
        <time>2026-05-09T11:48:23.047Z</time>
      </trkpt>
      <trkpt lat="47.90766" lon="6.92686">
        <ele>1179</ele>
        <time>2026-05-09T11:48:24.047Z</time>
      </trkpt>
      <trkpt lat="47.90767" lon="6.92686">
        <ele>1180</ele>
        <time>2026-05-09T11:48:25.047Z</time>
      </trkpt>
      <trkpt lat="47.90768" lon="6.92687">
        <ele>1180</ele>
        <time>2026-05-09T11:48:26.047Z</time>
      </trkpt>
      <trkpt lat="47.90769" lon="6.92688">
        <ele>1180</ele>
        <time>2026-05-09T11:48:27.046Z</time>
      </trkpt>
      <trkpt lat="47.90771" lon="6.92688">
        <ele>1181</ele>
        <time>2026-05-09T11:48:28.047Z</time>
      </trkpt>
      <trkpt lat="47.90772" lon="6.92689">
        <ele>1181</ele>
        <time>2026-05-09T11:48:29.047Z</time>
      </trkpt>
      <trkpt lat="47.90773" lon="6.9269">
        <ele>1181</ele>
        <time>2026-05-09T11:48:30.047Z</time>
      </trkpt>
      <trkpt lat="47.90774" lon="6.92691">
        <ele>1181</ele>
        <time>2026-05-09T11:48:31.046Z</time>
      </trkpt>
      <trkpt lat="47.90775" lon="6.92692">
        <ele>1181</ele>
        <time>2026-05-09T11:48:32.047Z</time>
      </trkpt>
      <trkpt lat="47.90776" lon="6.92693">
        <ele>1181</ele>
        <time>2026-05-09T11:48:33.046Z</time>
      </trkpt>
      <trkpt lat="47.90778" lon="6.92693">
        <ele>1181</ele>
        <time>2026-05-09T11:48:34.047Z</time>
      </trkpt>
      <trkpt lat="47.90779" lon="6.92693">
        <ele>1181</ele>
        <time>2026-05-09T11:48:35.046Z</time>
      </trkpt>
      <trkpt lat="47.9078" lon="6.92693">
        <ele>1180</ele>
        <time>2026-05-09T11:48:36.047Z</time>
      </trkpt>
      <trkpt lat="47.90782" lon="6.92694">
        <ele>1180</ele>
        <time>2026-05-09T11:48:37.046Z</time>
      </trkpt>
      <trkpt lat="47.90782" lon="6.92695">
        <ele>1180</ele>
        <time>2026-05-09T11:48:38.047Z</time>
      </trkpt>
      <trkpt lat="47.90783" lon="6.92695">
        <ele>1179</ele>
        <time>2026-05-09T11:48:39.046Z</time>
      </trkpt>
      <trkpt lat="47.90786" lon="6.92697">
        <ele>1179</ele>
        <time>2026-05-09T11:48:40.047Z</time>
      </trkpt>
      <trkpt lat="47.90787" lon="6.92698">
        <ele>1179</ele>
        <time>2026-05-09T11:48:41.046Z</time>
      </trkpt>
      <trkpt lat="47.90789" lon="6.92698">
        <ele>1178</ele>
        <time>2026-05-09T11:48:42.047Z</time>
      </trkpt>
      <trkpt lat="47.9079" lon="6.927">
        <ele>1178</ele>
        <time>2026-05-09T11:48:43.046Z</time>
      </trkpt>
      <trkpt lat="47.90791" lon="6.92701">
        <ele>1178</ele>
        <time>2026-05-09T11:48:44.047Z</time>
      </trkpt>
      <trkpt lat="47.90793" lon="6.92702">
        <ele>1178</ele>
        <time>2026-05-09T11:48:45.047Z</time>
      </trkpt>
      <trkpt lat="47.90794" lon="6.92704">
        <ele>1177</ele>
        <time>2026-05-09T11:48:46.047Z</time>
      </trkpt>
      <trkpt lat="47.90795" lon="6.92704">
        <ele>1177</ele>
        <time>2026-05-09T11:48:47.047Z</time>
      </trkpt>
      <trkpt lat="47.90796" lon="6.92704">
        <ele>1177</ele>
        <time>2026-05-09T11:48:48.046Z</time>
      </trkpt>
      <trkpt lat="47.90798" lon="6.92705">
        <ele>1177</ele>
        <time>2026-05-09T11:48:49.047Z</time>
      </trkpt>
      <trkpt lat="47.90799" lon="6.92706">
        <ele>1178</ele>
        <time>2026-05-09T11:48:50.046Z</time>
      </trkpt>
      <trkpt lat="47.90801" lon="6.92706">
        <ele>1178</ele>
        <time>2026-05-09T11:48:51.046Z</time>
      </trkpt>
      <trkpt lat="47.90802" lon="6.92705">
        <ele>1178</ele>
        <time>2026-05-09T11:48:52.046Z</time>
      </trkpt>
      <trkpt lat="47.90804" lon="6.92705">
        <ele>1178</ele>
        <time>2026-05-09T11:48:53.046Z</time>
      </trkpt>
      <trkpt lat="47.90805" lon="6.92705">
        <ele>1178</ele>
        <time>2026-05-09T11:48:54.046Z</time>
      </trkpt>
      <trkpt lat="47.90806" lon="6.92706">
        <ele>1179</ele>
        <time>2026-05-09T11:48:55.047Z</time>
      </trkpt>
      <trkpt lat="47.90807" lon="6.92706">
        <ele>1179</ele>
        <time>2026-05-09T11:48:56.046Z</time>
      </trkpt>
      <trkpt lat="47.90808" lon="6.92707">
        <ele>1179</ele>
        <time>2026-05-09T11:48:57.047Z</time>
      </trkpt>
      <trkpt lat="47.90809" lon="6.92707">
        <ele>1179</ele>
        <time>2026-05-09T11:48:58.047Z</time>
      </trkpt>
      <trkpt lat="47.9081" lon="6.92707">
        <ele>1180</ele>
        <time>2026-05-09T11:48:59.047Z</time>
      </trkpt>
      <trkpt lat="47.9081" lon="6.92707">
        <ele>1180</ele>
        <time>2026-05-09T11:49:00.046Z</time>
      </trkpt>
      <trkpt lat="47.90811" lon="6.92707">
        <ele>1181</ele>
        <time>2026-05-09T11:49:01.047Z</time>
      </trkpt>
      <trkpt lat="47.90812" lon="6.92707">
        <ele>1181</ele>
        <time>2026-05-09T11:49:02.046Z</time>
      </trkpt>
      <trkpt lat="47.90813" lon="6.92707">
        <ele>1181</ele>
        <time>2026-05-09T11:49:03.047Z</time>
      </trkpt>
      <trkpt lat="47.90814" lon="6.92707">
        <ele>1182</ele>
        <time>2026-05-09T11:49:04.046Z</time>
      </trkpt>
      <trkpt lat="47.90816" lon="6.92707">
        <ele>1182</ele>
        <time>2026-05-09T11:49:05.047Z</time>
      </trkpt>
      <trkpt lat="47.90817" lon="6.92708">
        <ele>1182</ele>
        <time>2026-05-09T11:49:06.046Z</time>
      </trkpt>
      <trkpt lat="47.90818" lon="6.92708">
        <ele>1182</ele>
        <time>2026-05-09T11:49:07.047Z</time>
      </trkpt>
      <trkpt lat="47.90819" lon="6.92709">
        <ele>1182</ele>
        <time>2026-05-09T11:49:08.047Z</time>
      </trkpt>
      <trkpt lat="47.90819" lon="6.92709">
        <ele>1182</ele>
        <time>2026-05-09T11:49:09.047Z</time>
      </trkpt>
      <trkpt lat="47.9082" lon="6.92709">
        <ele>1182</ele>
        <time>2026-05-09T11:49:10.047Z</time>
      </trkpt>
      <trkpt lat="47.90821" lon="6.9271">
        <ele>1182</ele>
        <time>2026-05-09T11:49:11.047Z</time>
      </trkpt>
      <trkpt lat="47.90822" lon="6.92711">
        <ele>1182</ele>
        <time>2026-05-09T11:49:12.046Z</time>
      </trkpt>
      <trkpt lat="47.90823" lon="6.92711">
        <ele>1182</ele>
        <time>2026-05-09T11:49:13.047Z</time>
      </trkpt>
      <trkpt lat="47.90824" lon="6.92712">
        <ele>1182</ele>
        <time>2026-05-09T11:49:14.047Z</time>
      </trkpt>
      <trkpt lat="47.90825" lon="6.92712">
        <ele>1182</ele>
        <time>2026-05-09T11:49:15.047Z</time>
      </trkpt>
      <trkpt lat="47.90826" lon="6.92712">
        <ele>1182</ele>
        <time>2026-05-09T11:49:16.047Z</time>
      </trkpt>
      <trkpt lat="47.90827" lon="6.92713">
        <ele>1182</ele>
        <time>2026-05-09T11:49:17.046Z</time>
      </trkpt>
      <trkpt lat="47.90828" lon="6.92715">
        <ele>1183</ele>
        <time>2026-05-09T11:49:18.047Z</time>
      </trkpt>
      <trkpt lat="47.90829" lon="6.92716">
        <ele>1183</ele>
        <time>2026-05-09T11:49:19.046Z</time>
      </trkpt>
      <trkpt lat="47.90829" lon="6.92717">
        <ele>1183</ele>
        <time>2026-05-09T11:49:20.047Z</time>
      </trkpt>
      <trkpt lat="47.9083" lon="6.92718">
        <ele>1183</ele>
        <time>2026-05-09T11:49:21.046Z</time>
      </trkpt>
      <trkpt lat="47.90831" lon="6.92719">
        <ele>1183</ele>
        <time>2026-05-09T11:49:22.047Z</time>
      </trkpt>
      <trkpt lat="47.90832" lon="6.92721">
        <ele>1184</ele>
        <time>2026-05-09T11:49:23.047Z</time>
      </trkpt>
      <trkpt lat="47.90833" lon="6.92721">
        <ele>1184</ele>
        <time>2026-05-09T11:49:24.047Z</time>
      </trkpt>
      <trkpt lat="47.90834" lon="6.92721">
        <ele>1184</ele>
        <time>2026-05-09T11:49:25.046Z</time>
      </trkpt>
      <trkpt lat="47.90835" lon="6.92721">
        <ele>1184</ele>
        <time>2026-05-09T11:49:26.046Z</time>
      </trkpt>
      <trkpt lat="47.90835" lon="6.92721">
        <ele>1184</ele>
        <time>2026-05-09T11:49:27.046Z</time>
      </trkpt>
      <trkpt lat="47.90835" lon="6.92722">
        <ele>1184</ele>
        <time>2026-05-09T11:49:28.047Z</time>
      </trkpt>
      <trkpt lat="47.90835" lon="6.92721">
        <ele>1184</ele>
        <time>2026-05-09T11:49:29.047Z</time>
      </trkpt>
      <trkpt lat="47.90836" lon="6.92722">
        <ele>1184</ele>
        <time>2026-05-09T11:49:30.047Z</time>
      </trkpt>
      <trkpt lat="47.90836" lon="6.92722">
        <ele>1184</ele>
        <time>2026-05-09T11:49:31.046Z</time>
      </trkpt>
      <trkpt lat="47.90838" lon="6.92722">
        <ele>1184</ele>
        <time>2026-05-09T11:49:32.046Z</time>
      </trkpt>
      <trkpt lat="47.90838" lon="6.92722">
        <ele>1184</ele>
        <time>2026-05-09T11:49:33.047Z</time>
      </trkpt>
      <trkpt lat="47.90839" lon="6.92724">
        <ele>1184</ele>
        <time>2026-05-09T11:49:34.047Z</time>
      </trkpt>
      <trkpt lat="47.9084" lon="6.92725">
        <ele>1184</ele>
        <time>2026-05-09T11:49:35.046Z</time>
      </trkpt>
      <trkpt lat="47.90841" lon="6.92726">
        <ele>1184</ele>
        <time>2026-05-09T11:49:36.046Z</time>
      </trkpt>
      <trkpt lat="47.90841" lon="6.92727">
        <ele>1185</ele>
        <time>2026-05-09T11:49:37.047Z</time>
      </trkpt>
      <trkpt lat="47.90841" lon="6.92727">
        <ele>1185</ele>
        <time>2026-05-09T11:49:38.047Z</time>
      </trkpt>
      <trkpt lat="47.90842" lon="6.92727">
        <ele>1185</ele>
        <time>2026-05-09T11:49:39.046Z</time>
      </trkpt>
      <trkpt lat="47.90842" lon="6.92728">
        <ele>1186</ele>
        <time>2026-05-09T11:49:40.047Z</time>
      </trkpt>
      <trkpt lat="47.90843" lon="6.92729">
        <ele>1186</ele>
        <time>2026-05-09T11:49:41.046Z</time>
      </trkpt>
      <trkpt lat="47.90843" lon="6.9273">
        <ele>1187</ele>
        <time>2026-05-09T11:49:42.047Z</time>
      </trkpt>
      <trkpt lat="47.90844" lon="6.9273">
        <ele>1187</ele>
        <time>2026-05-09T11:49:43.046Z</time>
      </trkpt>
      <trkpt lat="47.90844" lon="6.92731">
        <ele>1187</ele>
        <time>2026-05-09T11:49:44.047Z</time>
      </trkpt>
      <trkpt lat="47.90845" lon="6.92731">
        <ele>1187</ele>
        <time>2026-05-09T11:49:45.046Z</time>
      </trkpt>
      <trkpt lat="47.90846" lon="6.92731">
        <ele>1187</ele>
        <time>2026-05-09T11:49:46.047Z</time>
      </trkpt>
      <trkpt lat="47.90847" lon="6.92731">
        <ele>1187</ele>
        <time>2026-05-09T11:49:47.046Z</time>
      </trkpt>
      <trkpt lat="47.90848" lon="6.92731">
        <ele>1188</ele>
        <time>2026-05-09T11:49:48.047Z</time>
      </trkpt>
      <trkpt lat="47.90849" lon="6.92731">
        <ele>1188</ele>
        <time>2026-05-09T11:49:49.046Z</time>
      </trkpt>
      <trkpt lat="47.9085" lon="6.92731">
        <ele>1188</ele>
        <time>2026-05-09T11:49:50.047Z</time>
      </trkpt>
      <trkpt lat="47.90851" lon="6.92731">
        <ele>1188</ele>
        <time>2026-05-09T11:49:51.046Z</time>
      </trkpt>
      <trkpt lat="47.90852" lon="6.92731">
        <ele>1188</ele>
        <time>2026-05-09T11:49:52.047Z</time>
      </trkpt>
      <trkpt lat="47.90852" lon="6.92731">
        <ele>1188</ele>
        <time>2026-05-09T11:49:53.046Z</time>
      </trkpt>
      <trkpt lat="47.90853" lon="6.92731">
        <ele>1188</ele>
        <time>2026-05-09T11:49:54.047Z</time>
      </trkpt>
      <trkpt lat="47.90853" lon="6.92731">
        <ele>1188</ele>
        <time>2026-05-09T11:49:55.046Z</time>
      </trkpt>
      <trkpt lat="47.90854" lon="6.92731">
        <ele>1189</ele>
        <time>2026-05-09T11:49:56.047Z</time>
      </trkpt>
      <trkpt lat="47.90854" lon="6.92731">
        <ele>1189</ele>
        <time>2026-05-09T11:49:57.046Z</time>
      </trkpt>
      <trkpt lat="47.90855" lon="6.92731">
        <ele>1189</ele>
        <time>2026-05-09T11:49:58.046Z</time>
      </trkpt>
      <trkpt lat="47.90855" lon="6.92731">
        <ele>1189</ele>
        <time>2026-05-09T11:49:59.046Z</time>
      </trkpt>
      <trkpt lat="47.90855" lon="6.92731">
        <ele>1189</ele>
        <time>2026-05-09T11:50:00.046Z</time>
      </trkpt>
      <trkpt lat="47.90856" lon="6.92731">
        <ele>1189</ele>
        <time>2026-05-09T11:50:01.047Z</time>
      </trkpt>
      <trkpt lat="47.90856" lon="6.92731">
        <ele>1189</ele>
        <time>2026-05-09T11:50:02.046Z</time>
      </trkpt>
      <trkpt lat="47.90856" lon="6.92732">
        <ele>1189</ele>
        <time>2026-05-09T11:50:03.047Z</time>
      </trkpt>
      <trkpt lat="47.90856" lon="6.92732">
        <ele>1189</ele>
        <time>2026-05-09T11:50:04.046Z</time>
      </trkpt>
      <trkpt lat="47.90858" lon="6.92732">
        <ele>1190</ele>
        <time>2026-05-09T11:50:05.047Z</time>
      </trkpt>
      <trkpt lat="47.90859" lon="6.92733">
        <ele>1190</ele>
        <time>2026-05-09T11:50:06.046Z</time>
      </trkpt>
      <trkpt lat="47.9086" lon="6.92734">
        <ele>1190</ele>
        <time>2026-05-09T11:50:07.047Z</time>
      </trkpt>
      <trkpt lat="47.90861" lon="6.92736">
        <ele>1190</ele>
        <time>2026-05-09T11:50:08.046Z</time>
      </trkpt>
      <trkpt lat="47.90861" lon="6.92737">
        <ele>1190</ele>
        <time>2026-05-09T11:50:09.047Z</time>
      </trkpt>
      <trkpt lat="47.90861" lon="6.92738">
        <ele>1190</ele>
        <time>2026-05-09T11:50:10.047Z</time>
      </trkpt>
      <trkpt lat="47.90862" lon="6.92739">
        <ele>1190</ele>
        <time>2026-05-09T11:50:11.046Z</time>
      </trkpt>
      <trkpt lat="47.90863" lon="6.92739">
        <ele>1190</ele>
        <time>2026-05-09T11:50:12.047Z</time>
      </trkpt>
      <trkpt lat="47.90863" lon="6.9274">
        <ele>1190</ele>
        <time>2026-05-09T11:50:13.047Z</time>
      </trkpt>
      <trkpt lat="47.90864" lon="6.9274">
        <ele>1191</ele>
        <time>2026-05-09T11:50:14.046Z</time>
      </trkpt>
      <trkpt lat="47.90865" lon="6.9274">
        <ele>1191</ele>
        <time>2026-05-09T11:50:15.047Z</time>
      </trkpt>
      <trkpt lat="47.90866" lon="6.9274">
        <ele>1191</ele>
        <time>2026-05-09T11:50:16.046Z</time>
      </trkpt>
      <trkpt lat="47.90867" lon="6.9274">
        <ele>1191</ele>
        <time>2026-05-09T11:50:17.047Z</time>
      </trkpt>
      <trkpt lat="47.90868" lon="6.9274">
        <ele>1191</ele>
        <time>2026-05-09T11:50:18.046Z</time>
      </trkpt>
      <trkpt lat="47.90869" lon="6.9274">
        <ele>1191</ele>
        <time>2026-05-09T11:50:19.047Z</time>
      </trkpt>
      <trkpt lat="47.90869" lon="6.92739">
        <ele>1191</ele>
        <time>2026-05-09T11:50:20.046Z</time>
      </trkpt>
      <trkpt lat="47.90869" lon="6.92739">
        <ele>1191</ele>
        <time>2026-05-09T11:50:21.047Z</time>
      </trkpt>
      <trkpt lat="47.9087" lon="6.9274">
        <ele>1191</ele>
        <time>2026-05-09T11:50:22.047Z</time>
      </trkpt>
      <trkpt lat="47.9087" lon="6.9274">
        <ele>1191</ele>
        <time>2026-05-09T11:50:23.046Z</time>
      </trkpt>
      <trkpt lat="47.90871" lon="6.9274">
        <ele>1192</ele>
        <time>2026-05-09T11:50:24.047Z</time>
      </trkpt>
      <trkpt lat="47.90872" lon="6.9274">
        <ele>1192</ele>
        <time>2026-05-09T11:50:25.047Z</time>
      </trkpt>
      <trkpt lat="47.90874" lon="6.9274">
        <ele>1192</ele>
        <time>2026-05-09T11:50:26.047Z</time>
      </trkpt>
      <trkpt lat="47.90874" lon="6.9274">
        <ele>1192</ele>
        <time>2026-05-09T11:50:27.047Z</time>
      </trkpt>
      <trkpt lat="47.90875" lon="6.92741">
        <ele>1192</ele>
        <time>2026-05-09T11:50:28.046Z</time>
      </trkpt>
      <trkpt lat="47.90876" lon="6.92742">
        <ele>1192</ele>
        <time>2026-05-09T11:50:29.046Z</time>
      </trkpt>
      <trkpt lat="47.90877" lon="6.92743">
        <ele>1192</ele>
        <time>2026-05-09T11:50:30.047Z</time>
      </trkpt>
      <trkpt lat="47.90878" lon="6.92743">
        <ele>1192</ele>
        <time>2026-05-09T11:50:31.046Z</time>
      </trkpt>
      <trkpt lat="47.90879" lon="6.92744">
        <ele>1193</ele>
        <time>2026-05-09T11:50:32.046Z</time>
      </trkpt>
      <trkpt lat="47.9088" lon="6.92746">
        <ele>1193</ele>
        <time>2026-05-09T11:50:33.046Z</time>
      </trkpt>
      <trkpt lat="47.90881" lon="6.92747">
        <ele>1193</ele>
        <time>2026-05-09T11:50:34.047Z</time>
      </trkpt>
      <trkpt lat="47.90882" lon="6.92749">
        <ele>1193</ele>
        <time>2026-05-09T11:50:35.047Z</time>
      </trkpt>
      <trkpt lat="47.90883" lon="6.9275">
        <ele>1193</ele>
        <time>2026-05-09T11:50:36.047Z</time>
      </trkpt>
      <trkpt lat="47.90885" lon="6.92751">
        <ele>1194</ele>
        <time>2026-05-09T11:50:37.046Z</time>
      </trkpt>
      <trkpt lat="47.90886" lon="6.92752">
        <ele>1194</ele>
        <time>2026-05-09T11:50:38.047Z</time>
      </trkpt>
      <trkpt lat="47.90887" lon="6.92753">
        <ele>1194</ele>
        <time>2026-05-09T11:50:39.047Z</time>
      </trkpt>
      <trkpt lat="47.90887" lon="6.92754">
        <ele>1194</ele>
        <time>2026-05-09T11:50:40.047Z</time>
      </trkpt>
      <trkpt lat="47.90888" lon="6.92755">
        <ele>1195</ele>
        <time>2026-05-09T11:50:41.047Z</time>
      </trkpt>
      <trkpt lat="47.90889" lon="6.92757">
        <ele>1195</ele>
        <time>2026-05-09T11:50:42.046Z</time>
      </trkpt>
      <trkpt lat="47.9089" lon="6.92758">
        <ele>1195</ele>
        <time>2026-05-09T11:50:43.047Z</time>
      </trkpt>
      <trkpt lat="47.90891" lon="6.92761">
        <ele>1196</ele>
        <time>2026-05-09T11:50:44.047Z</time>
      </trkpt>
      <trkpt lat="47.90892" lon="6.92762">
        <ele>1196</ele>
        <time>2026-05-09T11:50:45.046Z</time>
      </trkpt>
      <trkpt lat="47.90893" lon="6.92763">
        <ele>1197</ele>
        <time>2026-05-09T11:50:46.047Z</time>
      </trkpt>
      <trkpt lat="47.90894" lon="6.92763">
        <ele>1198</ele>
        <time>2026-05-09T11:50:47.046Z</time>
      </trkpt>
      <trkpt lat="47.90895" lon="6.92763">
        <ele>1198</ele>
        <time>2026-05-09T11:50:48.047Z</time>
      </trkpt>
      <trkpt lat="47.90897" lon="6.92764">
        <ele>1199</ele>
        <time>2026-05-09T11:50:49.046Z</time>
      </trkpt>
      <trkpt lat="47.90898" lon="6.92765">
        <ele>1199</ele>
        <time>2026-05-09T11:50:50.047Z</time>
      </trkpt>
      <trkpt lat="47.90899" lon="6.92766">
        <ele>1200</ele>
        <time>2026-05-09T11:50:51.046Z</time>
      </trkpt>
      <trkpt lat="47.909" lon="6.92767">
        <ele>1201</ele>
        <time>2026-05-09T11:50:52.046Z</time>
      </trkpt>
      <trkpt lat="47.90901" lon="6.92768">
        <ele>1201</ele>
        <time>2026-05-09T11:50:53.047Z</time>
      </trkpt>
      <trkpt lat="47.90903" lon="6.9277">
        <ele>1202</ele>
        <time>2026-05-09T11:50:54.046Z</time>
      </trkpt>
      <trkpt lat="47.90904" lon="6.92772">
        <ele>1203</ele>
        <time>2026-05-09T11:50:55.047Z</time>
      </trkpt>
      <trkpt lat="47.90905" lon="6.92773">
        <ele>1204</ele>
        <time>2026-05-09T11:50:56.046Z</time>
      </trkpt>
      <trkpt lat="47.90906" lon="6.92774">
        <ele>1204</ele>
        <time>2026-05-09T11:50:57.046Z</time>
      </trkpt>
      <trkpt lat="47.90907" lon="6.92776">
        <ele>1204</ele>
        <time>2026-05-09T11:50:58.046Z</time>
      </trkpt>
      <trkpt lat="47.90907" lon="6.92778">
        <ele>1204</ele>
        <time>2026-05-09T11:50:59.046Z</time>
      </trkpt>
      <trkpt lat="47.90907" lon="6.9278">
        <ele>1204</ele>
        <time>2026-05-09T11:51:00.047Z</time>
      </trkpt>
      <trkpt lat="47.90908" lon="6.92782">
        <ele>1204</ele>
        <time>2026-05-09T11:51:01.047Z</time>
      </trkpt>
      <trkpt lat="47.90909" lon="6.92784">
        <ele>1204</ele>
        <time>2026-05-09T11:51:02.046Z</time>
      </trkpt>
      <trkpt lat="47.90909" lon="6.92785">
        <ele>1204</ele>
        <time>2026-05-09T11:51:03.047Z</time>
      </trkpt>
      <trkpt lat="47.9091" lon="6.92786">
        <ele>1205</ele>
        <time>2026-05-09T11:51:04.047Z</time>
      </trkpt>
      <trkpt lat="47.9091" lon="6.92788">
        <ele>1205</ele>
        <time>2026-05-09T11:51:05.046Z</time>
      </trkpt>
      <trkpt lat="47.90911" lon="6.92789">
        <ele>1205</ele>
        <time>2026-05-09T11:51:06.046Z</time>
      </trkpt>
      <trkpt lat="47.90912" lon="6.92789">
        <ele>1205</ele>
        <time>2026-05-09T11:51:07.047Z</time>
      </trkpt>
      <trkpt lat="47.90912" lon="6.92791">
        <ele>1205</ele>
        <time>2026-05-09T11:51:08.047Z</time>
      </trkpt>
      <trkpt lat="47.90913" lon="6.92792">
        <ele>1205</ele>
        <time>2026-05-09T11:51:09.046Z</time>
      </trkpt>
      <trkpt lat="47.90914" lon="6.92793">
        <ele>1205</ele>
        <time>2026-05-09T11:51:10.046Z</time>
      </trkpt>
      <trkpt lat="47.90914" lon="6.92795">
        <ele>1205</ele>
        <time>2026-05-09T11:51:11.046Z</time>
      </trkpt>
      <trkpt lat="47.90915" lon="6.92797">
        <ele>1205</ele>
        <time>2026-05-09T11:51:12.047Z</time>
      </trkpt>
      <trkpt lat="47.90916" lon="6.92798">
        <ele>1205</ele>
        <time>2026-05-09T11:51:13.046Z</time>
      </trkpt>
      <trkpt lat="47.90917" lon="6.928">
        <ele>1205</ele>
        <time>2026-05-09T11:51:14.047Z</time>
      </trkpt>
      <trkpt lat="47.90918" lon="6.92801">
        <ele>1206</ele>
        <time>2026-05-09T11:51:15.046Z</time>
      </trkpt>
      <trkpt lat="47.90919" lon="6.92802">
        <ele>1206</ele>
        <time>2026-05-09T11:51:16.047Z</time>
      </trkpt>
      <trkpt lat="47.90919" lon="6.92804">
        <ele>1207</ele>
        <time>2026-05-09T11:51:17.046Z</time>
      </trkpt>
      <trkpt lat="47.9092" lon="6.92806">
        <ele>1207</ele>
        <time>2026-05-09T11:51:18.047Z</time>
      </trkpt>
      <trkpt lat="47.90921" lon="6.92807">
        <ele>1208</ele>
        <time>2026-05-09T11:51:19.047Z</time>
      </trkpt>
      <trkpt lat="47.90922" lon="6.92809">
        <ele>1208</ele>
        <time>2026-05-09T11:51:20.047Z</time>
      </trkpt>
      <trkpt lat="47.90922" lon="6.92811">
        <ele>1208</ele>
        <time>2026-05-09T11:51:21.046Z</time>
      </trkpt>
      <trkpt lat="47.90921" lon="6.92814">
        <ele>1209</ele>
        <time>2026-05-09T11:51:22.046Z</time>
      </trkpt>
      <trkpt lat="47.90921" lon="6.92815">
        <ele>1209</ele>
        <time>2026-05-09T11:51:23.046Z</time>
      </trkpt>
      <trkpt lat="47.90922" lon="6.92817">
        <ele>1209</ele>
        <time>2026-05-09T11:51:24.046Z</time>
      </trkpt>
      <trkpt lat="47.90923" lon="6.92819">
        <ele>1210</ele>
        <time>2026-05-09T11:51:25.047Z</time>
      </trkpt>
      <trkpt lat="47.90923" lon="6.9282">
        <ele>1210</ele>
        <time>2026-05-09T11:51:26.047Z</time>
      </trkpt>
      <trkpt lat="47.90923" lon="6.92822">
        <ele>1209</ele>
        <time>2026-05-09T11:51:27.047Z</time>
      </trkpt>
      <trkpt lat="47.90924" lon="6.92824">
        <ele>1209</ele>
        <time>2026-05-09T11:51:28.047Z</time>
      </trkpt>
      <trkpt lat="47.90924" lon="6.92826">
        <ele>1209</ele>
        <time>2026-05-09T11:51:29.046Z</time>
      </trkpt>
      <trkpt lat="47.90924" lon="6.92827">
        <ele>1209</ele>
        <time>2026-05-09T11:51:30.047Z</time>
      </trkpt>
      <trkpt lat="47.90924" lon="6.92829">
        <ele>1209</ele>
        <time>2026-05-09T11:51:31.046Z</time>
      </trkpt>
      <trkpt lat="47.90925" lon="6.9283">
        <ele>1209</ele>
        <time>2026-05-09T11:51:32.047Z</time>
      </trkpt>
      <trkpt lat="47.90926" lon="6.92831">
        <ele>1209</ele>
        <time>2026-05-09T11:51:33.046Z</time>
      </trkpt>
      <trkpt lat="47.90927" lon="6.92832">
        <ele>1209</ele>
        <time>2026-05-09T11:51:34.046Z</time>
      </trkpt>
      <trkpt lat="47.90927" lon="6.92834">
        <ele>1210</ele>
        <time>2026-05-09T11:51:35.047Z</time>
      </trkpt>
      <trkpt lat="47.90928" lon="6.92835">
        <ele>1210</ele>
        <time>2026-05-09T11:51:36.046Z</time>
      </trkpt>
      <trkpt lat="47.90929" lon="6.92836">
        <ele>1210</ele>
        <time>2026-05-09T11:51:37.047Z</time>
      </trkpt>
      <trkpt lat="47.9093" lon="6.92838">
        <ele>1210</ele>
        <time>2026-05-09T11:51:38.047Z</time>
      </trkpt>
      <trkpt lat="47.90931" lon="6.92839">
        <ele>1210</ele>
        <time>2026-05-09T11:51:39.046Z</time>
      </trkpt>
      <trkpt lat="47.90932" lon="6.9284">
        <ele>1210</ele>
        <time>2026-05-09T11:51:40.046Z</time>
      </trkpt>
      <trkpt lat="47.90932" lon="6.92841">
        <ele>1210</ele>
        <time>2026-05-09T11:51:41.047Z</time>
      </trkpt>
      <trkpt lat="47.90933" lon="6.92843">
        <ele>1209</ele>
        <time>2026-05-09T11:51:42.047Z</time>
      </trkpt>
      <trkpt lat="47.90933" lon="6.92844">
        <ele>1209</ele>
        <time>2026-05-09T11:51:43.047Z</time>
      </trkpt>
      <trkpt lat="47.90934" lon="6.92844">
        <ele>1209</ele>
        <time>2026-05-09T11:51:44.047Z</time>
      </trkpt>
      <trkpt lat="47.90934" lon="6.92845">
        <ele>1208</ele>
        <time>2026-05-09T11:51:45.047Z</time>
      </trkpt>
      <trkpt lat="47.90935" lon="6.92845">
        <ele>1208</ele>
        <time>2026-05-09T11:51:46.046Z</time>
      </trkpt>
      <trkpt lat="47.90936" lon="6.92845">
        <ele>1208</ele>
        <time>2026-05-09T11:51:47.046Z</time>
      </trkpt>
      <trkpt lat="47.90937" lon="6.92844">
        <ele>1208</ele>
        <time>2026-05-09T11:51:48.047Z</time>
      </trkpt>
      <trkpt lat="47.90938" lon="6.92844">
        <ele>1208</ele>
        <time>2026-05-09T11:51:49.046Z</time>
      </trkpt>
      <trkpt lat="47.90939" lon="6.92844">
        <ele>1208</ele>
        <time>2026-05-09T11:51:50.047Z</time>
      </trkpt>
      <trkpt lat="47.90939" lon="6.92844">
        <ele>1208</ele>
        <time>2026-05-09T11:51:51.046Z</time>
      </trkpt>
      <trkpt lat="47.90939" lon="6.92843">
        <ele>1209</ele>
        <time>2026-05-09T11:51:52.046Z</time>
      </trkpt>
      <trkpt lat="47.9094" lon="6.92843">
        <ele>1209</ele>
        <time>2026-05-09T11:51:53.046Z</time>
      </trkpt>
      <trkpt lat="47.9094" lon="6.92843">
        <ele>1209</ele>
        <time>2026-05-09T11:51:54.046Z</time>
      </trkpt>
      <trkpt lat="47.90941" lon="6.92844">
        <ele>1210</ele>
        <time>2026-05-09T11:51:55.047Z</time>
      </trkpt>
      <trkpt lat="47.90942" lon="6.92844">
        <ele>1210</ele>
        <time>2026-05-09T11:51:56.046Z</time>
      </trkpt>
      <trkpt lat="47.90942" lon="6.92844">
        <ele>1210</ele>
        <time>2026-05-09T11:51:57.047Z</time>
      </trkpt>
      <trkpt lat="47.90943" lon="6.92845">
        <ele>1210</ele>
        <time>2026-05-09T11:51:58.046Z</time>
      </trkpt>
      <trkpt lat="47.90944" lon="6.92845">
        <ele>1210</ele>
        <time>2026-05-09T11:51:59.047Z</time>
      </trkpt>
      <trkpt lat="47.90945" lon="6.92846">
        <ele>1211</ele>
        <time>2026-05-09T11:52:00.046Z</time>
      </trkpt>
      <trkpt lat="47.90945" lon="6.92846">
        <ele>1211</ele>
        <time>2026-05-09T11:52:01.047Z</time>
      </trkpt>
      <trkpt lat="47.90946" lon="6.92847">
        <ele>1212</ele>
        <time>2026-05-09T11:52:02.046Z</time>
      </trkpt>
      <trkpt lat="47.90947" lon="6.92848">
        <ele>1213</ele>
        <time>2026-05-09T11:52:03.047Z</time>
      </trkpt>
      <trkpt lat="47.90947" lon="6.92848">
        <ele>1214</ele>
        <time>2026-05-09T11:52:04.047Z</time>
      </trkpt>
      <trkpt lat="47.90948" lon="6.92849">
        <ele>1214</ele>
        <time>2026-05-09T11:52:05.047Z</time>
      </trkpt>
      <trkpt lat="47.90949" lon="6.92849">
        <ele>1214</ele>
        <time>2026-05-09T11:52:06.047Z</time>
      </trkpt>
      <trkpt lat="47.9095" lon="6.92849">
        <ele>1215</ele>
        <time>2026-05-09T11:52:07.046Z</time>
      </trkpt>
      <trkpt lat="47.9095" lon="6.92849">
        <ele>1215</ele>
        <time>2026-05-09T11:52:08.046Z</time>
      </trkpt>
      <trkpt lat="47.90951" lon="6.9285">
        <ele>1215</ele>
        <time>2026-05-09T11:52:09.047Z</time>
      </trkpt>
      <trkpt lat="47.90952" lon="6.9285">
        <ele>1215</ele>
        <time>2026-05-09T11:52:10.046Z</time>
      </trkpt>
      <trkpt lat="47.90953" lon="6.92851">
        <ele>1216</ele>
        <time>2026-05-09T11:52:11.046Z</time>
      </trkpt>
      <trkpt lat="47.90954" lon="6.92851">
        <ele>1216</ele>
        <time>2026-05-09T11:52:12.047Z</time>
      </trkpt>
      <trkpt lat="47.90955" lon="6.92852">
        <ele>1216</ele>
        <time>2026-05-09T11:52:13.046Z</time>
      </trkpt>
      <trkpt lat="47.90956" lon="6.92852">
        <ele>1216</ele>
        <time>2026-05-09T11:52:14.046Z</time>
      </trkpt>
      <trkpt lat="47.90956" lon="6.92853">
        <ele>1216</ele>
        <time>2026-05-09T11:52:15.047Z</time>
      </trkpt>
      <trkpt lat="47.90957" lon="6.92855">
        <ele>1216</ele>
        <time>2026-05-09T11:52:16.047Z</time>
      </trkpt>
      <trkpt lat="47.90957" lon="6.92855">
        <ele>1216</ele>
        <time>2026-05-09T11:52:17.046Z</time>
      </trkpt>
      <trkpt lat="47.90958" lon="6.92856">
        <ele>1217</ele>
        <time>2026-05-09T11:52:18.046Z</time>
      </trkpt>
      <trkpt lat="47.90958" lon="6.92856">
        <ele>1217</ele>
        <time>2026-05-09T11:52:19.046Z</time>
      </trkpt>
      <trkpt lat="47.90959" lon="6.92855">
        <ele>1217</ele>
        <time>2026-05-09T11:52:20.046Z</time>
      </trkpt>
      <trkpt lat="47.9096" lon="6.92855">
        <ele>1217</ele>
        <time>2026-05-09T11:52:21.046Z</time>
      </trkpt>
      <trkpt lat="47.90961" lon="6.92854">
        <ele>1218</ele>
        <time>2026-05-09T11:52:22.047Z</time>
      </trkpt>
      <trkpt lat="47.90963" lon="6.92854">
        <ele>1218</ele>
        <time>2026-05-09T11:52:23.047Z</time>
      </trkpt>
      <trkpt lat="47.90963" lon="6.92854">
        <ele>1218</ele>
        <time>2026-05-09T11:52:24.046Z</time>
      </trkpt>
      <trkpt lat="47.90964" lon="6.92854">
        <ele>1218</ele>
        <time>2026-05-09T11:52:25.046Z</time>
      </trkpt>
      <trkpt lat="47.90965" lon="6.92855">
        <ele>1218</ele>
        <time>2026-05-09T11:52:26.046Z</time>
      </trkpt>
      <trkpt lat="47.90966" lon="6.92855">
        <ele>1218</ele>
        <time>2026-05-09T11:52:27.047Z</time>
      </trkpt>
      <trkpt lat="47.90966" lon="6.92856">
        <ele>1219</ele>
        <time>2026-05-09T11:52:28.047Z</time>
      </trkpt>
      <trkpt lat="47.90967" lon="6.92857">
        <ele>1219</ele>
        <time>2026-05-09T11:52:29.046Z</time>
      </trkpt>
      <trkpt lat="47.90968" lon="6.92858">
        <ele>1219</ele>
        <time>2026-05-09T11:52:30.046Z</time>
      </trkpt>
      <trkpt lat="47.90969" lon="6.92858">
        <ele>1219</ele>
        <time>2026-05-09T11:52:31.046Z</time>
      </trkpt>
      <trkpt lat="47.9097" lon="6.92858">
        <ele>1218</ele>
        <time>2026-05-09T11:52:32.047Z</time>
      </trkpt>
      <trkpt lat="47.90971" lon="6.92858">
        <ele>1218</ele>
        <time>2026-05-09T11:52:33.047Z</time>
      </trkpt>
      <trkpt lat="47.90972" lon="6.92859">
        <ele>1218</ele>
        <time>2026-05-09T11:52:34.047Z</time>
      </trkpt>
      <trkpt lat="47.90973" lon="6.9286">
        <ele>1218</ele>
        <time>2026-05-09T11:52:35.047Z</time>
      </trkpt>
      <trkpt lat="47.90974" lon="6.9286">
        <ele>1218</ele>
        <time>2026-05-09T11:52:36.047Z</time>
      </trkpt>
      <trkpt lat="47.90975" lon="6.92861">
        <ele>1218</ele>
        <time>2026-05-09T11:52:37.047Z</time>
      </trkpt>
      <trkpt lat="47.90976" lon="6.92861">
        <ele>1218</ele>
        <time>2026-05-09T11:52:38.047Z</time>
      </trkpt>
      <trkpt lat="47.90977" lon="6.92862">
        <ele>1218</ele>
        <time>2026-05-09T11:52:39.047Z</time>
      </trkpt>
      <trkpt lat="47.90977" lon="6.92863">
        <ele>1218</ele>
        <time>2026-05-09T11:52:40.047Z</time>
      </trkpt>
      <trkpt lat="47.90979" lon="6.92863">
        <ele>1218</ele>
        <time>2026-05-09T11:52:41.047Z</time>
      </trkpt>
      <trkpt lat="47.90979" lon="6.92864">
        <ele>1219</ele>
        <time>2026-05-09T11:52:42.047Z</time>
      </trkpt>
      <trkpt lat="47.9098" lon="6.92864">
        <ele>1219</ele>
        <time>2026-05-09T11:52:43.046Z</time>
      </trkpt>
      <trkpt lat="47.9098" lon="6.92865">
        <ele>1219</ele>
        <time>2026-05-09T11:52:44.046Z</time>
      </trkpt>
      <trkpt lat="47.90981" lon="6.92865">
        <ele>1219</ele>
        <time>2026-05-09T11:52:45.047Z</time>
      </trkpt>
      <trkpt lat="47.90981" lon="6.92866">
        <ele>1219</ele>
        <time>2026-05-09T11:52:46.046Z</time>
      </trkpt>
      <trkpt lat="47.90982" lon="6.92867">
        <ele>1219</ele>
        <time>2026-05-09T11:52:47.047Z</time>
      </trkpt>
      <trkpt lat="47.90983" lon="6.92868">
        <ele>1219</ele>
        <time>2026-05-09T11:52:48.046Z</time>
      </trkpt>
      <trkpt lat="47.90984" lon="6.92869">
        <ele>1219</ele>
        <time>2026-05-09T11:52:49.046Z</time>
      </trkpt>
      <trkpt lat="47.90985" lon="6.9287">
        <ele>1219</ele>
        <time>2026-05-09T11:52:50.046Z</time>
      </trkpt>
      <trkpt lat="47.90986" lon="6.92872">
        <ele>1219</ele>
        <time>2026-05-09T11:52:51.046Z</time>
      </trkpt>
      <trkpt lat="47.90986" lon="6.92873">
        <ele>1219</ele>
        <time>2026-05-09T11:52:52.047Z</time>
      </trkpt>
      <trkpt lat="47.90987" lon="6.92873">
        <ele>1220</ele>
        <time>2026-05-09T11:52:53.047Z</time>
      </trkpt>
      <trkpt lat="47.90988" lon="6.92874">
        <ele>1220</ele>
        <time>2026-05-09T11:52:54.046Z</time>
      </trkpt>
      <trkpt lat="47.90989" lon="6.92875">
        <ele>1220</ele>
        <time>2026-05-09T11:52:55.047Z</time>
      </trkpt>
      <trkpt lat="47.9099" lon="6.92875">
        <ele>1220</ele>
        <time>2026-05-09T11:52:56.046Z</time>
      </trkpt>
      <trkpt lat="47.9099" lon="6.92876">
        <ele>1220</ele>
        <time>2026-05-09T11:52:57.046Z</time>
      </trkpt>
      <trkpt lat="47.90991" lon="6.92877">
        <ele>1220</ele>
        <time>2026-05-09T11:52:58.046Z</time>
      </trkpt>
      <trkpt lat="47.90991" lon="6.92877">
        <ele>1220</ele>
        <time>2026-05-09T11:52:59.047Z</time>
      </trkpt>
      <trkpt lat="47.90992" lon="6.92877">
        <ele>1220</ele>
        <time>2026-05-09T11:53:00.046Z</time>
      </trkpt>
      <trkpt lat="47.90994" lon="6.92876">
        <ele>1220</ele>
        <time>2026-05-09T11:53:01.047Z</time>
      </trkpt>
      <trkpt lat="47.90995" lon="6.92876">
        <ele>1221</ele>
        <time>2026-05-09T11:53:02.047Z</time>
      </trkpt>
      <trkpt lat="47.90996" lon="6.92875">
        <ele>1221</ele>
        <time>2026-05-09T11:53:03.046Z</time>
      </trkpt>
      <trkpt lat="47.90996" lon="6.92874">
        <ele>1221</ele>
        <time>2026-05-09T11:53:04.047Z</time>
      </trkpt>
      <trkpt lat="47.90997" lon="6.92874">
        <ele>1221</ele>
        <time>2026-05-09T11:53:05.047Z</time>
      </trkpt>
      <trkpt lat="47.90998" lon="6.92873">
        <ele>1221</ele>
        <time>2026-05-09T11:53:06.047Z</time>
      </trkpt>
      <trkpt lat="47.90999" lon="6.92873">
        <ele>1221</ele>
        <time>2026-05-09T11:53:07.046Z</time>
      </trkpt>
      <trkpt lat="47.91" lon="6.92874">
        <ele>1221</ele>
        <time>2026-05-09T11:53:08.047Z</time>
      </trkpt>
      <trkpt lat="47.91002" lon="6.92874">
        <ele>1221</ele>
        <time>2026-05-09T11:53:09.046Z</time>
      </trkpt>
      <trkpt lat="47.91003" lon="6.92874">
        <ele>1221</ele>
        <time>2026-05-09T11:53:10.047Z</time>
      </trkpt>
      <trkpt lat="47.91004" lon="6.92875">
        <ele>1221</ele>
        <time>2026-05-09T11:53:11.047Z</time>
      </trkpt>
      <trkpt lat="47.91006" lon="6.92875">
        <ele>1221</ele>
        <time>2026-05-09T11:53:12.046Z</time>
      </trkpt>
      <trkpt lat="47.91007" lon="6.92876">
        <ele>1221</ele>
        <time>2026-05-09T11:53:13.046Z</time>
      </trkpt>
      <trkpt lat="47.91009" lon="6.92876">
        <ele>1222</ele>
        <time>2026-05-09T11:53:14.046Z</time>
      </trkpt>
      <trkpt lat="47.9101" lon="6.92876">
        <ele>1222</ele>
        <time>2026-05-09T11:53:15.047Z</time>
      </trkpt>
      <trkpt lat="47.91011" lon="6.92876">
        <ele>1222</ele>
        <time>2026-05-09T11:53:16.046Z</time>
      </trkpt>
      <trkpt lat="47.91012" lon="6.92877">
        <ele>1223</ele>
        <time>2026-05-09T11:53:17.047Z</time>
      </trkpt>
      <trkpt lat="47.91013" lon="6.92877">
        <ele>1223</ele>
        <time>2026-05-09T11:53:18.046Z</time>
      </trkpt>
      <trkpt lat="47.91015" lon="6.92877">
        <ele>1223</ele>
        <time>2026-05-09T11:53:19.047Z</time>
      </trkpt>
      <trkpt lat="47.91016" lon="6.92877">
        <ele>1223</ele>
        <time>2026-05-09T11:53:20.046Z</time>
      </trkpt>
      <trkpt lat="47.91017" lon="6.92877">
        <ele>1224</ele>
        <time>2026-05-09T11:53:21.047Z</time>
      </trkpt>
      <trkpt lat="47.91018" lon="6.92876">
        <ele>1224</ele>
        <time>2026-05-09T11:53:22.047Z</time>
      </trkpt>
      <trkpt lat="47.9102" lon="6.92876">
        <ele>1224</ele>
        <time>2026-05-09T11:53:23.046Z</time>
      </trkpt>
      <trkpt lat="47.91021" lon="6.92876">
        <ele>1225</ele>
        <time>2026-05-09T11:53:24.046Z</time>
      </trkpt>
      <trkpt lat="47.91021" lon="6.92876">
        <ele>1225</ele>
        <time>2026-05-09T11:53:25.046Z</time>
      </trkpt>
      <trkpt lat="47.91022" lon="6.92876">
        <ele>1225</ele>
        <time>2026-05-09T11:53:26.047Z</time>
      </trkpt>
      <trkpt lat="47.91024" lon="6.92875">
        <ele>1225</ele>
        <time>2026-05-09T11:53:27.046Z</time>
      </trkpt>
      <trkpt lat="47.91025" lon="6.92875">
        <ele>1225</ele>
        <time>2026-05-09T11:53:28.047Z</time>
      </trkpt>
      <trkpt lat="47.91026" lon="6.92875">
        <ele>1225</ele>
        <time>2026-05-09T11:53:29.046Z</time>
      </trkpt>
      <trkpt lat="47.91027" lon="6.92875">
        <ele>1225</ele>
        <time>2026-05-09T11:53:30.047Z</time>
      </trkpt>
      <trkpt lat="47.91028" lon="6.92875">
        <ele>1225</ele>
        <time>2026-05-09T11:53:31.047Z</time>
      </trkpt>
      <trkpt lat="47.91029" lon="6.92875">
        <ele>1225</ele>
        <time>2026-05-09T11:53:32.046Z</time>
      </trkpt>
      <trkpt lat="47.9103" lon="6.92875">
        <ele>1225</ele>
        <time>2026-05-09T11:53:33.047Z</time>
      </trkpt>
      <trkpt lat="47.91031" lon="6.92876">
        <ele>1225</ele>
        <time>2026-05-09T11:53:34.047Z</time>
      </trkpt>
      <trkpt lat="47.91032" lon="6.92876">
        <ele>1225</ele>
        <time>2026-05-09T11:53:35.046Z</time>
      </trkpt>
      <trkpt lat="47.91033" lon="6.92876">
        <ele>1225</ele>
        <time>2026-05-09T11:53:36.047Z</time>
      </trkpt>
      <trkpt lat="47.91035" lon="6.92876">
        <ele>1225</ele>
        <time>2026-05-09T11:53:37.046Z</time>
      </trkpt>
      <trkpt lat="47.91036" lon="6.92876">
        <ele>1224</ele>
        <time>2026-05-09T11:53:38.047Z</time>
      </trkpt>
      <trkpt lat="47.91038" lon="6.92876">
        <ele>1224</ele>
        <time>2026-05-09T11:53:39.047Z</time>
      </trkpt>
      <trkpt lat="47.91039" lon="6.92876">
        <ele>1224</ele>
        <time>2026-05-09T11:53:40.046Z</time>
      </trkpt>
      <trkpt lat="47.9104" lon="6.92876">
        <ele>1223</ele>
        <time>2026-05-09T11:53:41.046Z</time>
      </trkpt>
      <trkpt lat="47.91041" lon="6.92875">
        <ele>1223</ele>
        <time>2026-05-09T11:53:42.047Z</time>
      </trkpt>
      <trkpt lat="47.91042" lon="6.92875">
        <ele>1223</ele>
        <time>2026-05-09T11:53:43.046Z</time>
      </trkpt>
      <trkpt lat="47.91043" lon="6.92875">
        <ele>1223</ele>
        <time>2026-05-09T11:53:44.047Z</time>
      </trkpt>
      <trkpt lat="47.91045" lon="6.92874">
        <ele>1223</ele>
        <time>2026-05-09T11:53:45.047Z</time>
      </trkpt>
      <trkpt lat="47.91046" lon="6.92874">
        <ele>1223</ele>
        <time>2026-05-09T11:53:46.047Z</time>
      </trkpt>
      <trkpt lat="47.91048" lon="6.92874">
        <ele>1223</ele>
        <time>2026-05-09T11:53:47.046Z</time>
      </trkpt>
      <trkpt lat="47.91049" lon="6.92874">
        <ele>1222</ele>
        <time>2026-05-09T11:53:48.047Z</time>
      </trkpt>
      <trkpt lat="47.91051" lon="6.92874">
        <ele>1222</ele>
        <time>2026-05-09T11:53:49.047Z</time>
      </trkpt>
      <trkpt lat="47.91053" lon="6.92874">
        <ele>1222</ele>
        <time>2026-05-09T11:53:50.046Z</time>
      </trkpt>
      <trkpt lat="47.91054" lon="6.92874">
        <ele>1222</ele>
        <time>2026-05-09T11:53:51.047Z</time>
      </trkpt>
      <trkpt lat="47.91055" lon="6.92874">
        <ele>1222</ele>
        <time>2026-05-09T11:53:52.046Z</time>
      </trkpt>
      <trkpt lat="47.91057" lon="6.92874">
        <ele>1222</ele>
        <time>2026-05-09T11:53:53.047Z</time>
      </trkpt>
      <trkpt lat="47.91058" lon="6.92874">
        <ele>1221</ele>
        <time>2026-05-09T11:53:54.047Z</time>
      </trkpt>
      <trkpt lat="47.9106" lon="6.92873">
        <ele>1221</ele>
        <time>2026-05-09T11:53:55.046Z</time>
      </trkpt>
      <trkpt lat="47.91061" lon="6.92873">
        <ele>1221</ele>
        <time>2026-05-09T11:53:56.047Z</time>
      </trkpt>
      <trkpt lat="47.91062" lon="6.92873">
        <ele>1221</ele>
        <time>2026-05-09T11:53:57.047Z</time>
      </trkpt>
      <trkpt lat="47.91063" lon="6.92874">
        <ele>1221</ele>
        <time>2026-05-09T11:53:58.047Z</time>
      </trkpt>
      <trkpt lat="47.91066" lon="6.92874">
        <ele>1220</ele>
        <time>2026-05-09T11:53:59.046Z</time>
      </trkpt>
      <trkpt lat="47.91068" lon="6.92874">
        <ele>1220</ele>
        <time>2026-05-09T11:54:00.046Z</time>
      </trkpt>
      <trkpt lat="47.91069" lon="6.92873">
        <ele>1220</ele>
        <time>2026-05-09T11:54:01.047Z</time>
      </trkpt>
      <trkpt lat="47.91071" lon="6.92872">
        <ele>1220</ele>
        <time>2026-05-09T11:54:02.047Z</time>
      </trkpt>
      <trkpt lat="47.91073" lon="6.92871">
        <ele>1219</ele>
        <time>2026-05-09T11:54:03.047Z</time>
      </trkpt>
      <trkpt lat="47.91075" lon="6.9287">
        <ele>1219</ele>
        <time>2026-05-09T11:54:04.046Z</time>
      </trkpt>
      <trkpt lat="47.91075" lon="6.92869">
        <ele>1219</ele>
        <time>2026-05-09T11:54:05.047Z</time>
      </trkpt>
      <trkpt lat="47.91077" lon="6.92868">
        <ele>1219</ele>
        <time>2026-05-09T11:54:06.046Z</time>
      </trkpt>
      <trkpt lat="47.91078" lon="6.92867">
        <ele>1219</ele>
        <time>2026-05-09T11:54:07.047Z</time>
      </trkpt>
      <trkpt lat="47.91079" lon="6.92867">
        <ele>1219</ele>
        <time>2026-05-09T11:54:08.046Z</time>
      </trkpt>
      <trkpt lat="47.9108" lon="6.92866">
        <ele>1219</ele>
        <time>2026-05-09T11:54:09.046Z</time>
      </trkpt>
      <trkpt lat="47.9108" lon="6.92864">
        <ele>1219</ele>
        <time>2026-05-09T11:54:10.047Z</time>
      </trkpt>
      <trkpt lat="47.91081" lon="6.92863">
        <ele>1218</ele>
        <time>2026-05-09T11:54:11.046Z</time>
      </trkpt>
      <trkpt lat="47.91083" lon="6.92861">
        <ele>1218</ele>
        <time>2026-05-09T11:54:12.046Z</time>
      </trkpt>
      <trkpt lat="47.91085" lon="6.9286">
        <ele>1218</ele>
        <time>2026-05-09T11:54:13.047Z</time>
      </trkpt>
      <trkpt lat="47.91086" lon="6.92859">
        <ele>1218</ele>
        <time>2026-05-09T11:54:14.047Z</time>
      </trkpt>
      <trkpt lat="47.91086" lon="6.92858">
        <ele>1218</ele>
        <time>2026-05-09T11:54:15.046Z</time>
      </trkpt>
      <trkpt lat="47.91086" lon="6.92856">
        <ele>1217</ele>
        <time>2026-05-09T11:54:16.047Z</time>
      </trkpt>
      <trkpt lat="47.91087" lon="6.92854">
        <ele>1217</ele>
        <time>2026-05-09T11:54:17.047Z</time>
      </trkpt>
      <trkpt lat="47.91087" lon="6.92853">
        <ele>1217</ele>
        <time>2026-05-09T11:54:18.046Z</time>
      </trkpt>
      <trkpt lat="47.91088" lon="6.92851">
        <ele>1216</ele>
        <time>2026-05-09T11:54:19.046Z</time>
      </trkpt>
      <trkpt lat="47.91088" lon="6.9285">
        <ele>1216</ele>
        <time>2026-05-09T11:54:20.047Z</time>
      </trkpt>
      <trkpt lat="47.91089" lon="6.92849">
        <ele>1216</ele>
        <time>2026-05-09T11:54:21.047Z</time>
      </trkpt>
      <trkpt lat="47.9109" lon="6.92848">
        <ele>1216</ele>
        <time>2026-05-09T11:54:22.046Z</time>
      </trkpt>
      <trkpt lat="47.91091" lon="6.92847">
        <ele>1215</ele>
        <time>2026-05-09T11:54:23.046Z</time>
      </trkpt>
      <trkpt lat="47.91092" lon="6.92845">
        <ele>1215</ele>
        <time>2026-05-09T11:54:24.047Z</time>
      </trkpt>
      <trkpt lat="47.91092" lon="6.92843">
        <ele>1215</ele>
        <time>2026-05-09T11:54:25.047Z</time>
      </trkpt>
      <trkpt lat="47.91093" lon="6.92841">
        <ele>1215</ele>
        <time>2026-05-09T11:54:26.047Z</time>
      </trkpt>
      <trkpt lat="47.91094" lon="6.9284">
        <ele>1214</ele>
        <time>2026-05-09T11:54:27.046Z</time>
      </trkpt>
      <trkpt lat="47.91095" lon="6.92839">
        <ele>1214</ele>
        <time>2026-05-09T11:54:28.046Z</time>
      </trkpt>
      <trkpt lat="47.91096" lon="6.92839">
        <ele>1214</ele>
        <time>2026-05-09T11:54:29.046Z</time>
      </trkpt>
      <trkpt lat="47.91098" lon="6.92841">
        <ele>1214</ele>
        <time>2026-05-09T11:54:30.047Z</time>
      </trkpt>
      <trkpt lat="47.91099" lon="6.92843">
        <ele>1214</ele>
        <time>2026-05-09T11:54:31.046Z</time>
      </trkpt>
      <trkpt lat="47.911" lon="6.92845">
        <ele>1213</ele>
        <time>2026-05-09T11:54:32.047Z</time>
      </trkpt>
      <trkpt lat="47.91101" lon="6.92846">
        <ele>1213</ele>
        <time>2026-05-09T11:54:33.046Z</time>
      </trkpt>
      <trkpt lat="47.91101" lon="6.92845">
        <ele>1213</ele>
        <time>2026-05-09T11:54:34.046Z</time>
      </trkpt>
      <trkpt lat="47.91101" lon="6.92845">
        <ele>1212</ele>
        <time>2026-05-09T11:54:35.047Z</time>
      </trkpt>
      <trkpt lat="47.91102" lon="6.92844">
        <ele>1212</ele>
        <time>2026-05-09T11:54:36.046Z</time>
      </trkpt>
      <trkpt lat="47.91101" lon="6.92843">
        <ele>1212</ele>
        <time>2026-05-09T11:54:37.046Z</time>
      </trkpt>
      <trkpt lat="47.91101" lon="6.92842">
        <ele>1211</ele>
        <time>2026-05-09T11:54:38.047Z</time>
      </trkpt>
      <trkpt lat="47.91102" lon="6.9284">
        <ele>1211</ele>
        <time>2026-05-09T11:54:39.046Z</time>
      </trkpt>
      <trkpt lat="47.91102" lon="6.92838">
        <ele>1211</ele>
        <time>2026-05-09T11:54:40.047Z</time>
      </trkpt>
      <trkpt lat="47.91102" lon="6.92836">
        <ele>1210</ele>
        <time>2026-05-09T11:54:41.047Z</time>
      </trkpt>
      <trkpt lat="47.91102" lon="6.92835">
        <ele>1210</ele>
        <time>2026-05-09T11:54:42.046Z</time>
      </trkpt>
      <trkpt lat="47.91102" lon="6.92833">
        <ele>1210</ele>
        <time>2026-05-09T11:54:43.047Z</time>
      </trkpt>
      <trkpt lat="47.91104" lon="6.92832">
        <ele>1210</ele>
        <time>2026-05-09T11:54:44.047Z</time>
      </trkpt>
      <trkpt lat="47.91105" lon="6.92831">
        <ele>1209</ele>
        <time>2026-05-09T11:54:45.046Z</time>
      </trkpt>
      <trkpt lat="47.91106" lon="6.9283">
        <ele>1209</ele>
        <time>2026-05-09T11:54:46.046Z</time>
      </trkpt>
      <trkpt lat="47.91108" lon="6.92829">
        <ele>1209</ele>
        <time>2026-05-09T11:54:47.047Z</time>
      </trkpt>
      <trkpt lat="47.91109" lon="6.92828">
        <ele>1209</ele>
        <time>2026-05-09T11:54:48.047Z</time>
      </trkpt>
      <trkpt lat="47.91111" lon="6.92827">
        <ele>1209</ele>
        <time>2026-05-09T11:54:49.047Z</time>
      </trkpt>
      <trkpt lat="47.91113" lon="6.92826">
        <ele>1209</ele>
        <time>2026-05-09T11:54:50.046Z</time>
      </trkpt>
      <trkpt lat="47.91114" lon="6.92824">
        <ele>1209</ele>
        <time>2026-05-09T11:54:51.046Z</time>
      </trkpt>
      <trkpt lat="47.91115" lon="6.92822">
        <ele>1209</ele>
        <time>2026-05-09T11:54:52.047Z</time>
      </trkpt>
      <trkpt lat="47.91117" lon="6.9282">
        <ele>1208</ele>
        <time>2026-05-09T11:54:53.047Z</time>
      </trkpt>
      <trkpt lat="47.91119" lon="6.92819">
        <ele>1208</ele>
        <time>2026-05-09T11:54:54.046Z</time>
      </trkpt>
      <trkpt lat="47.91121" lon="6.92817">
        <ele>1207</ele>
        <time>2026-05-09T11:54:55.046Z</time>
      </trkpt>
      <trkpt lat="47.91121" lon="6.92817">
        <ele>1207</ele>
        <time>2026-05-09T11:54:56.047Z</time>
      </trkpt>
      <trkpt lat="47.91122" lon="6.92816">
        <ele>1206</ele>
        <time>2026-05-09T11:54:57.047Z</time>
      </trkpt>
      <trkpt lat="47.91123" lon="6.92816">
        <ele>1206</ele>
        <time>2026-05-09T11:54:58.046Z</time>
      </trkpt>
      <trkpt lat="47.91123" lon="6.92815">
        <ele>1205</ele>
        <time>2026-05-09T11:54:59.046Z</time>
      </trkpt>
      <trkpt lat="47.91125" lon="6.92814">
        <ele>1205</ele>
        <time>2026-05-09T11:55:00.047Z</time>
      </trkpt>
      <trkpt lat="47.91126" lon="6.92813">
        <ele>1204</ele>
        <time>2026-05-09T11:55:01.047Z</time>
      </trkpt>
      <trkpt lat="47.91128" lon="6.92812">
        <ele>1204</ele>
        <time>2026-05-09T11:55:02.046Z</time>
      </trkpt>
      <trkpt lat="47.9113" lon="6.92811">
        <ele>1204</ele>
        <time>2026-05-09T11:55:03.046Z</time>
      </trkpt>
      <trkpt lat="47.91131" lon="6.9281">
        <ele>1203</ele>
        <time>2026-05-09T11:55:04.046Z</time>
      </trkpt>
      <trkpt lat="47.91133" lon="6.9281">
        <ele>1203</ele>
        <time>2026-05-09T11:55:05.046Z</time>
      </trkpt>
      <trkpt lat="47.91134" lon="6.92809">
        <ele>1203</ele>
        <time>2026-05-09T11:55:06.046Z</time>
      </trkpt>
      <trkpt lat="47.91135" lon="6.92808">
        <ele>1202</ele>
        <time>2026-05-09T11:55:07.046Z</time>
      </trkpt>
      <trkpt lat="47.91137" lon="6.92806">
        <ele>1202</ele>
        <time>2026-05-09T11:55:08.047Z</time>
      </trkpt>
      <trkpt lat="47.91137" lon="6.92805">
        <ele>1202</ele>
        <time>2026-05-09T11:55:09.047Z</time>
      </trkpt>
      <trkpt lat="47.91138" lon="6.92804">
        <ele>1201</ele>
        <time>2026-05-09T11:55:10.046Z</time>
      </trkpt>
      <trkpt lat="47.9114" lon="6.92803">
        <ele>1201</ele>
        <time>2026-05-09T11:55:11.046Z</time>
      </trkpt>
      <trkpt lat="47.91141" lon="6.92802">
        <ele>1201</ele>
        <time>2026-05-09T11:55:12.047Z</time>
      </trkpt>
      <trkpt lat="47.91142" lon="6.92802">
        <ele>1200</ele>
        <time>2026-05-09T11:55:13.047Z</time>
      </trkpt>
      <trkpt lat="47.91144" lon="6.928">
        <ele>1200</ele>
        <time>2026-05-09T11:55:14.047Z</time>
      </trkpt>
      <trkpt lat="47.91145" lon="6.92799">
        <ele>1199</ele>
        <time>2026-05-09T11:55:15.046Z</time>
      </trkpt>
      <trkpt lat="47.91146" lon="6.92797">
        <ele>1199</ele>
        <time>2026-05-09T11:55:16.046Z</time>
      </trkpt>
      <trkpt lat="47.91147" lon="6.92795">
        <ele>1198</ele>
        <time>2026-05-09T11:55:17.047Z</time>
      </trkpt>
      <trkpt lat="47.91149" lon="6.92794">
        <ele>1197</ele>
        <time>2026-05-09T11:55:18.047Z</time>
      </trkpt>
      <trkpt lat="47.91151" lon="6.92793">
        <ele>1197</ele>
        <time>2026-05-09T11:55:19.046Z</time>
      </trkpt>
      <trkpt lat="47.91153" lon="6.92792">
        <ele>1196</ele>
        <time>2026-05-09T11:55:20.046Z</time>
      </trkpt>
      <trkpt lat="47.91154" lon="6.9279">
        <ele>1196</ele>
        <time>2026-05-09T11:55:21.047Z</time>
      </trkpt>
      <trkpt lat="47.91156" lon="6.92788">
        <ele>1195</ele>
        <time>2026-05-09T11:55:22.047Z</time>
      </trkpt>
      <trkpt lat="47.91157" lon="6.92786">
        <ele>1195</ele>
        <time>2026-05-09T11:55:23.047Z</time>
      </trkpt>
      <trkpt lat="47.91158" lon="6.92785">
        <ele>1195</ele>
        <time>2026-05-09T11:55:24.046Z</time>
      </trkpt>
      <trkpt lat="47.91159" lon="6.92783">
        <ele>1194</ele>
        <time>2026-05-09T11:55:25.046Z</time>
      </trkpt>
      <trkpt lat="47.91161" lon="6.92781">
        <ele>1194</ele>
        <time>2026-05-09T11:55:26.047Z</time>
      </trkpt>
      <trkpt lat="47.91162" lon="6.92779">
        <ele>1194</ele>
        <time>2026-05-09T11:55:27.047Z</time>
      </trkpt>
      <trkpt lat="47.91164" lon="6.92777">
        <ele>1194</ele>
        <time>2026-05-09T11:55:28.046Z</time>
      </trkpt>
      <trkpt lat="47.91164" lon="6.92775">
        <ele>1193</ele>
        <time>2026-05-09T11:55:29.046Z</time>
      </trkpt>
      <trkpt lat="47.91166" lon="6.92773">
        <ele>1193</ele>
        <time>2026-05-09T11:55:30.047Z</time>
      </trkpt>
      <trkpt lat="47.91168" lon="6.92772">
        <ele>1193</ele>
        <time>2026-05-09T11:55:31.046Z</time>
      </trkpt>
      <trkpt lat="47.91169" lon="6.92772">
        <ele>1193</ele>
        <time>2026-05-09T11:55:32.047Z</time>
      </trkpt>
      <trkpt lat="47.9117" lon="6.92771">
        <ele>1193</ele>
        <time>2026-05-09T11:55:33.046Z</time>
      </trkpt>
      <trkpt lat="47.91171" lon="6.92769">
        <ele>1192</ele>
        <time>2026-05-09T11:55:34.046Z</time>
      </trkpt>
      <trkpt lat="47.91173" lon="6.92767">
        <ele>1192</ele>
        <time>2026-05-09T11:55:35.046Z</time>
      </trkpt>
      <trkpt lat="47.91175" lon="6.92766">
        <ele>1192</ele>
        <time>2026-05-09T11:55:36.047Z</time>
      </trkpt>
      <trkpt lat="47.91176" lon="6.92765">
        <ele>1192</ele>
        <time>2026-05-09T11:55:37.047Z</time>
      </trkpt>
      <trkpt lat="47.91177" lon="6.92764">
        <ele>1192</ele>
        <time>2026-05-09T11:55:38.046Z</time>
      </trkpt>
      <trkpt lat="47.91177" lon="6.92763">
        <ele>1191</ele>
        <time>2026-05-09T11:55:39.047Z</time>
      </trkpt>
      <trkpt lat="47.91178" lon="6.92762">
        <ele>1191</ele>
        <time>2026-05-09T11:55:40.047Z</time>
      </trkpt>
      <trkpt lat="47.91179" lon="6.92762">
        <ele>1190</ele>
        <time>2026-05-09T11:55:41.046Z</time>
      </trkpt>
      <trkpt lat="47.9118" lon="6.92761">
        <ele>1190</ele>
        <time>2026-05-09T11:55:42.047Z</time>
      </trkpt>
      <trkpt lat="47.9118" lon="6.92761">
        <ele>1189</ele>
        <time>2026-05-09T11:55:43.047Z</time>
      </trkpt>
      <trkpt lat="47.91181" lon="6.9276">
        <ele>1189</ele>
        <time>2026-05-09T11:55:44.047Z</time>
      </trkpt>
      <trkpt lat="47.91183" lon="6.92759">
        <ele>1188</ele>
        <time>2026-05-09T11:55:45.046Z</time>
      </trkpt>
      <trkpt lat="47.91185" lon="6.92759">
        <ele>1188</ele>
        <time>2026-05-09T11:55:46.046Z</time>
      </trkpt>
      <trkpt lat="47.91187" lon="6.92757">
        <ele>1188</ele>
        <time>2026-05-09T11:55:47.047Z</time>
      </trkpt>
      <trkpt lat="47.91189" lon="6.92755">
        <ele>1188</ele>
        <time>2026-05-09T11:55:48.047Z</time>
      </trkpt>
      <trkpt lat="47.91191" lon="6.92753">
        <ele>1187</ele>
        <time>2026-05-09T11:55:49.047Z</time>
      </trkpt>
      <trkpt lat="47.91193" lon="6.92752">
        <ele>1187</ele>
        <time>2026-05-09T11:55:50.046Z</time>
      </trkpt>
      <trkpt lat="47.91194" lon="6.92751">
        <ele>1187</ele>
        <time>2026-05-09T11:55:51.047Z</time>
      </trkpt>
      <trkpt lat="47.91195" lon="6.9275">
        <ele>1187</ele>
        <time>2026-05-09T11:55:52.047Z</time>
      </trkpt>
      <trkpt lat="47.91196" lon="6.92749">
        <ele>1186</ele>
        <time>2026-05-09T11:55:53.047Z</time>
      </trkpt>
      <trkpt lat="47.91198" lon="6.92747">
        <ele>1186</ele>
        <time>2026-05-09T11:55:54.046Z</time>
      </trkpt>
      <trkpt lat="47.91199" lon="6.92746">
        <ele>1186</ele>
        <time>2026-05-09T11:55:55.046Z</time>
      </trkpt>
      <trkpt lat="47.912" lon="6.92745">
        <ele>1186</ele>
        <time>2026-05-09T11:55:56.047Z</time>
      </trkpt>
      <trkpt lat="47.91201" lon="6.92745">
        <ele>1186</ele>
        <time>2026-05-09T11:55:57.046Z</time>
      </trkpt>
      <trkpt lat="47.91202" lon="6.92745">
        <ele>1186</ele>
        <time>2026-05-09T11:55:58.047Z</time>
      </trkpt>
      <trkpt lat="47.91203" lon="6.92744">
        <ele>1186</ele>
        <time>2026-05-09T11:55:59.047Z</time>
      </trkpt>
      <trkpt lat="47.91204" lon="6.92743">
        <ele>1185</ele>
        <time>2026-05-09T11:56:00.046Z</time>
      </trkpt>
      <trkpt lat="47.91204" lon="6.92742">
        <ele>1185</ele>
        <time>2026-05-09T11:56:01.047Z</time>
      </trkpt>
      <trkpt lat="47.91205" lon="6.92741">
        <ele>1184</ele>
        <time>2026-05-09T11:56:02.046Z</time>
      </trkpt>
      <trkpt lat="47.91206" lon="6.92741">
        <ele>1184</ele>
        <time>2026-05-09T11:56:03.047Z</time>
      </trkpt>
      <trkpt lat="47.91207" lon="6.92741">
        <ele>1183</ele>
        <time>2026-05-09T11:56:04.047Z</time>
      </trkpt>
      <trkpt lat="47.91209" lon="6.92741">
        <ele>1183</ele>
        <time>2026-05-09T11:56:05.046Z</time>
      </trkpt>
      <trkpt lat="47.91211" lon="6.92741">
        <ele>1183</ele>
        <time>2026-05-09T11:56:06.046Z</time>
      </trkpt>
      <trkpt lat="47.91212" lon="6.92741">
        <ele>1182</ele>
        <time>2026-05-09T11:56:07.046Z</time>
      </trkpt>
      <trkpt lat="47.91214" lon="6.92741">
        <ele>1182</ele>
        <time>2026-05-09T11:56:08.046Z</time>
      </trkpt>
      <trkpt lat="47.91216" lon="6.9274">
        <ele>1181</ele>
        <time>2026-05-09T11:56:09.046Z</time>
      </trkpt>
      <trkpt lat="47.91217" lon="6.92739">
        <ele>1181</ele>
        <time>2026-05-09T11:56:10.047Z</time>
      </trkpt>
      <trkpt lat="47.91218" lon="6.92739">
        <ele>1181</ele>
        <time>2026-05-09T11:56:11.047Z</time>
      </trkpt>
      <trkpt lat="47.9122" lon="6.92738">
        <ele>1180</ele>
        <time>2026-05-09T11:56:12.046Z</time>
      </trkpt>
      <trkpt lat="47.91221" lon="6.92738">
        <ele>1180</ele>
        <time>2026-05-09T11:56:13.047Z</time>
      </trkpt>
      <trkpt lat="47.91223" lon="6.92737">
        <ele>1179</ele>
        <time>2026-05-09T11:56:14.046Z</time>
      </trkpt>
      <trkpt lat="47.91224" lon="6.92737">
        <ele>1179</ele>
        <time>2026-05-09T11:56:15.047Z</time>
      </trkpt>
      <trkpt lat="47.91225" lon="6.92737">
        <ele>1178</ele>
        <time>2026-05-09T11:56:16.046Z</time>
      </trkpt>
      <trkpt lat="47.91227" lon="6.92736">
        <ele>1177</ele>
        <time>2026-05-09T11:56:17.047Z</time>
      </trkpt>
      <trkpt lat="47.91228" lon="6.92736">
        <ele>1177</ele>
        <time>2026-05-09T11:56:18.046Z</time>
      </trkpt>
      <trkpt lat="47.91229" lon="6.92737">
        <ele>1176</ele>
        <time>2026-05-09T11:56:19.047Z</time>
      </trkpt>
      <trkpt lat="47.91231" lon="6.92738">
        <ele>1176</ele>
        <time>2026-05-09T11:56:20.047Z</time>
      </trkpt>
      <trkpt lat="47.91231" lon="6.92739">
        <ele>1176</ele>
        <time>2026-05-09T11:56:21.046Z</time>
      </trkpt>
      <trkpt lat="47.91232" lon="6.92739">
        <ele>1175</ele>
        <time>2026-05-09T11:56:22.047Z</time>
      </trkpt>
      <trkpt lat="47.91234" lon="6.92738">
        <ele>1175</ele>
        <time>2026-05-09T11:56:23.046Z</time>
      </trkpt>
      <trkpt lat="47.91235" lon="6.92738">
        <ele>1174</ele>
        <time>2026-05-09T11:56:24.047Z</time>
      </trkpt>
      <trkpt lat="47.91237" lon="6.92738">
        <ele>1174</ele>
        <time>2026-05-09T11:56:25.046Z</time>
      </trkpt>
      <trkpt lat="47.91239" lon="6.92737">
        <ele>1174</ele>
        <time>2026-05-09T11:56:26.046Z</time>
      </trkpt>
      <trkpt lat="47.9124" lon="6.92737">
        <ele>1174</ele>
        <time>2026-05-09T11:56:27.046Z</time>
      </trkpt>
      <trkpt lat="47.91242" lon="6.92736">
        <ele>1173</ele>
        <time>2026-05-09T11:56:28.047Z</time>
      </trkpt>
      <trkpt lat="47.91243" lon="6.92736">
        <ele>1173</ele>
        <time>2026-05-09T11:56:29.047Z</time>
      </trkpt>
      <trkpt lat="47.91244" lon="6.92735">
        <ele>1173</ele>
        <time>2026-05-09T11:56:30.046Z</time>
      </trkpt>
      <trkpt lat="47.91245" lon="6.92734">
        <ele>1173</ele>
        <time>2026-05-09T11:56:31.046Z</time>
      </trkpt>
      <trkpt lat="47.91247" lon="6.92732">
        <ele>1173</ele>
        <time>2026-05-09T11:56:32.047Z</time>
      </trkpt>
      <trkpt lat="47.91248" lon="6.92729">
        <ele>1173</ele>
        <time>2026-05-09T11:56:33.046Z</time>
      </trkpt>
      <trkpt lat="47.91249" lon="6.92727">
        <ele>1173</ele>
        <time>2026-05-09T11:56:34.046Z</time>
      </trkpt>
      <trkpt lat="47.9125" lon="6.92726">
        <ele>1172</ele>
        <time>2026-05-09T11:56:35.047Z</time>
      </trkpt>
      <trkpt lat="47.91251" lon="6.92725">
        <ele>1172</ele>
        <time>2026-05-09T11:56:36.047Z</time>
      </trkpt>
      <trkpt lat="47.91252" lon="6.92724">
        <ele>1172</ele>
        <time>2026-05-09T11:56:37.046Z</time>
      </trkpt>
      <trkpt lat="47.91254" lon="6.92723">
        <ele>1172</ele>
        <time>2026-05-09T11:56:38.046Z</time>
      </trkpt>
      <trkpt lat="47.91255" lon="6.92722">
        <ele>1172</ele>
        <time>2026-05-09T11:56:39.047Z</time>
      </trkpt>
      <trkpt lat="47.91255" lon="6.92722">
        <ele>1171</ele>
        <time>2026-05-09T11:56:40.047Z</time>
      </trkpt>
      <trkpt lat="47.91255" lon="6.92721">
        <ele>1171</ele>
        <time>2026-05-09T11:56:41.046Z</time>
      </trkpt>
      <trkpt lat="47.91256" lon="6.9272">
        <ele>1171</ele>
        <time>2026-05-09T11:56:42.047Z</time>
      </trkpt>
      <trkpt lat="47.91257" lon="6.92719">
        <ele>1171</ele>
        <time>2026-05-09T11:56:43.046Z</time>
      </trkpt>
      <trkpt lat="47.91257" lon="6.92717">
        <ele>1171</ele>
        <time>2026-05-09T11:56:44.047Z</time>
      </trkpt>
      <trkpt lat="47.91259" lon="6.92716">
        <ele>1171</ele>
        <time>2026-05-09T11:56:45.047Z</time>
      </trkpt>
      <trkpt lat="47.9126" lon="6.92715">
        <ele>1170</ele>
        <time>2026-05-09T11:56:46.047Z</time>
      </trkpt>
      <trkpt lat="47.91261" lon="6.92715">
        <ele>1170</ele>
        <time>2026-05-09T11:56:47.046Z</time>
      </trkpt>
      <trkpt lat="47.91262" lon="6.92715">
        <ele>1169</ele>
        <time>2026-05-09T11:56:48.047Z</time>
      </trkpt>
      <trkpt lat="47.91263" lon="6.92716">
        <ele>1169</ele>
        <time>2026-05-09T11:56:49.047Z</time>
      </trkpt>
      <trkpt lat="47.91264" lon="6.92717">
        <ele>1169</ele>
        <time>2026-05-09T11:56:50.046Z</time>
      </trkpt>
      <trkpt lat="47.91265" lon="6.92718">
        <ele>1168</ele>
        <time>2026-05-09T11:56:51.047Z</time>
      </trkpt>
      <trkpt lat="47.91265" lon="6.92719">
        <ele>1168</ele>
        <time>2026-05-09T11:56:52.047Z</time>
      </trkpt>
      <trkpt lat="47.91266" lon="6.9272">
        <ele>1167</ele>
        <time>2026-05-09T11:56:53.047Z</time>
      </trkpt>
      <trkpt lat="47.91266" lon="6.92721">
        <ele>1167</ele>
        <time>2026-05-09T11:56:54.046Z</time>
      </trkpt>
      <trkpt lat="47.91267" lon="6.92722">
        <ele>1167</ele>
        <time>2026-05-09T11:56:55.047Z</time>
      </trkpt>
      <trkpt lat="47.91268" lon="6.92724">
        <ele>1166</ele>
        <time>2026-05-09T11:56:56.046Z</time>
      </trkpt>
      <trkpt lat="47.91269" lon="6.92725">
        <ele>1166</ele>
        <time>2026-05-09T11:56:57.047Z</time>
      </trkpt>
      <trkpt lat="47.9127" lon="6.92727">
        <ele>1166</ele>
        <time>2026-05-09T11:56:58.046Z</time>
      </trkpt>
      <trkpt lat="47.91271" lon="6.92729">
        <ele>1166</ele>
        <time>2026-05-09T11:56:59.047Z</time>
      </trkpt>
      <trkpt lat="47.91272" lon="6.92729">
        <ele>1166</ele>
        <time>2026-05-09T11:57:00.046Z</time>
      </trkpt>
      <trkpt lat="47.91273" lon="6.92728">
        <ele>1165</ele>
        <time>2026-05-09T11:57:01.047Z</time>
      </trkpt>
      <trkpt lat="47.91273" lon="6.92727">
        <ele>1165</ele>
        <time>2026-05-09T11:57:02.047Z</time>
      </trkpt>
      <trkpt lat="47.91274" lon="6.92726">
        <ele>1165</ele>
        <time>2026-05-09T11:57:03.046Z</time>
      </trkpt>
      <trkpt lat="47.91275" lon="6.92726">
        <ele>1166</ele>
        <time>2026-05-09T11:57:04.047Z</time>
      </trkpt>
      <trkpt lat="47.91276" lon="6.92725">
        <ele>1166</ele>
        <time>2026-05-09T11:57:05.047Z</time>
      </trkpt>
      <trkpt lat="47.91276" lon="6.92724">
        <ele>1166</ele>
        <time>2026-05-09T11:57:06.046Z</time>
      </trkpt>
      <trkpt lat="47.91276" lon="6.92723">
        <ele>1166</ele>
        <time>2026-05-09T11:57:07.046Z</time>
      </trkpt>
      <trkpt lat="47.91277" lon="6.92721">
        <ele>1166</ele>
        <time>2026-05-09T11:57:08.046Z</time>
      </trkpt>
      <trkpt lat="47.91278" lon="6.9272">
        <ele>1166</ele>
        <time>2026-05-09T11:57:09.047Z</time>
      </trkpt>
      <trkpt lat="47.91278" lon="6.92719">
        <ele>1166</ele>
        <time>2026-05-09T11:57:10.047Z</time>
      </trkpt>
      <trkpt lat="47.91279" lon="6.92718">
        <ele>1166</ele>
        <time>2026-05-09T11:57:11.047Z</time>
      </trkpt>
      <trkpt lat="47.91279" lon="6.92717">
        <ele>1166</ele>
        <time>2026-05-09T11:57:12.046Z</time>
      </trkpt>
      <trkpt lat="47.9128" lon="6.92717">
        <ele>1165</ele>
        <time>2026-05-09T11:57:13.047Z</time>
      </trkpt>
      <trkpt lat="47.91281" lon="6.92716">
        <ele>1165</ele>
        <time>2026-05-09T11:57:14.046Z</time>
      </trkpt>
      <trkpt lat="47.91282" lon="6.92716">
        <ele>1165</ele>
        <time>2026-05-09T11:57:15.047Z</time>
      </trkpt>
      <trkpt lat="47.91283" lon="6.92716">
        <ele>1164</ele>
        <time>2026-05-09T11:57:16.046Z</time>
      </trkpt>
      <trkpt lat="47.91284" lon="6.92716">
        <ele>1164</ele>
        <time>2026-05-09T11:57:17.047Z</time>
      </trkpt>
      <trkpt lat="47.91287" lon="6.92716">
        <ele>1163</ele>
        <time>2026-05-09T11:57:18.047Z</time>
      </trkpt>
      <trkpt lat="47.91289" lon="6.92717">
        <ele>1162</ele>
        <time>2026-05-09T11:57:19.046Z</time>
      </trkpt>
      <trkpt lat="47.9129" lon="6.92718">
        <ele>1162</ele>
        <time>2026-05-09T11:57:20.047Z</time>
      </trkpt>
      <trkpt lat="47.91292" lon="6.92719">
        <ele>1161</ele>
        <time>2026-05-09T11:57:21.046Z</time>
      </trkpt>
      <trkpt lat="47.91294" lon="6.92719">
        <ele>1161</ele>
        <time>2026-05-09T11:57:22.047Z</time>
      </trkpt>
      <trkpt lat="47.91295" lon="6.92719">
        <ele>1160</ele>
        <time>2026-05-09T11:57:23.047Z</time>
      </trkpt>
      <trkpt lat="47.91295" lon="6.92719">
        <ele>1160</ele>
        <time>2026-05-09T11:57:24.047Z</time>
      </trkpt>
      <trkpt lat="47.91296" lon="6.92719">
        <ele>1159</ele>
        <time>2026-05-09T11:57:25.046Z</time>
      </trkpt>
      <trkpt lat="47.91297" lon="6.92718">
        <ele>1159</ele>
        <time>2026-05-09T11:57:26.047Z</time>
      </trkpt>
      <trkpt lat="47.91298" lon="6.92717">
        <ele>1158</ele>
        <time>2026-05-09T11:57:27.046Z</time>
      </trkpt>
      <trkpt lat="47.91299" lon="6.92716">
        <ele>1158</ele>
        <time>2026-05-09T11:57:28.047Z</time>
      </trkpt>
      <trkpt lat="47.91299" lon="6.92715">
        <ele>1157</ele>
        <time>2026-05-09T11:57:29.047Z</time>
      </trkpt>
      <trkpt lat="47.913" lon="6.92714">
        <ele>1157</ele>
        <time>2026-05-09T11:57:30.046Z</time>
      </trkpt>
      <trkpt lat="47.91301" lon="6.92714">
        <ele>1156</ele>
        <time>2026-05-09T11:57:31.047Z</time>
      </trkpt>
      <trkpt lat="47.91302" lon="6.92713">
        <ele>1156</ele>
        <time>2026-05-09T11:57:32.046Z</time>
      </trkpt>
      <trkpt lat="47.91303" lon="6.92712">
        <ele>1155</ele>
        <time>2026-05-09T11:57:33.047Z</time>
      </trkpt>
      <trkpt lat="47.91304" lon="6.92711">
        <ele>1155</ele>
        <time>2026-05-09T11:57:34.047Z</time>
      </trkpt>
      <trkpt lat="47.91305" lon="6.92711">
        <ele>1155</ele>
        <time>2026-05-09T11:57:35.046Z</time>
      </trkpt>
      <trkpt lat="47.91306" lon="6.92712">
        <ele>1154</ele>
        <time>2026-05-09T11:57:36.046Z</time>
      </trkpt>
      <trkpt lat="47.91305" lon="6.92713">
        <ele>1154</ele>
        <time>2026-05-09T11:57:37.046Z</time>
      </trkpt>
      <trkpt lat="47.91305" lon="6.92714">
        <ele>1154</ele>
        <time>2026-05-09T11:57:38.046Z</time>
      </trkpt>
      <trkpt lat="47.91305" lon="6.92716">
        <ele>1154</ele>
        <time>2026-05-09T11:57:39.047Z</time>
      </trkpt>
      <trkpt lat="47.91305" lon="6.92717">
        <ele>1153</ele>
        <time>2026-05-09T11:57:40.046Z</time>
      </trkpt>
      <trkpt lat="47.91305" lon="6.92718">
        <ele>1153</ele>
        <time>2026-05-09T11:57:41.047Z</time>
      </trkpt>
      <trkpt lat="47.91305" lon="6.92719">
        <ele>1153</ele>
        <time>2026-05-09T11:57:42.047Z</time>
      </trkpt>
      <trkpt lat="47.91305" lon="6.9272">
        <ele>1153</ele>
        <time>2026-05-09T11:57:43.046Z</time>
      </trkpt>
      <trkpt lat="47.91305" lon="6.9272">
        <ele>1152</ele>
        <time>2026-05-09T11:57:44.047Z</time>
      </trkpt>
      <trkpt lat="47.91307" lon="6.9272">
        <ele>1152</ele>
        <time>2026-05-09T11:57:45.047Z</time>
      </trkpt>
      <trkpt lat="47.91308" lon="6.9272">
        <ele>1152</ele>
        <time>2026-05-09T11:57:46.046Z</time>
      </trkpt>
      <trkpt lat="47.91309" lon="6.92718">
        <ele>1152</ele>
        <time>2026-05-09T11:57:47.047Z</time>
      </trkpt>
      <trkpt lat="47.91311" lon="6.92717">
        <ele>1152</ele>
        <time>2026-05-09T11:57:48.046Z</time>
      </trkpt>
      <trkpt lat="47.91312" lon="6.92716">
        <ele>1152</ele>
        <time>2026-05-09T11:57:49.047Z</time>
      </trkpt>
      <trkpt lat="47.91312" lon="6.92715">
        <ele>1151</ele>
        <time>2026-05-09T11:57:50.047Z</time>
      </trkpt>
      <trkpt lat="47.91313" lon="6.92714">
        <ele>1151</ele>
        <time>2026-05-09T11:57:51.046Z</time>
      </trkpt>
      <trkpt lat="47.91314" lon="6.92712">
        <ele>1151</ele>
        <time>2026-05-09T11:57:52.047Z</time>
      </trkpt>
      <trkpt lat="47.91316" lon="6.92711">
        <ele>1150</ele>
        <time>2026-05-09T11:57:53.046Z</time>
      </trkpt>
      <trkpt lat="47.91316" lon="6.9271">
        <ele>1150</ele>
        <time>2026-05-09T11:57:54.047Z</time>
      </trkpt>
      <trkpt lat="47.91317" lon="6.92708">
        <ele>1149</ele>
        <time>2026-05-09T11:57:55.047Z</time>
      </trkpt>
      <trkpt lat="47.91318" lon="6.92707">
        <ele>1148</ele>
        <time>2026-05-09T11:57:56.046Z</time>
      </trkpt>
      <trkpt lat="47.91319" lon="6.92706">
        <ele>1148</ele>
        <time>2026-05-09T11:57:57.047Z</time>
      </trkpt>
      <trkpt lat="47.9132" lon="6.92705">
        <ele>1147</ele>
        <time>2026-05-09T11:57:58.046Z</time>
      </trkpt>
      <trkpt lat="47.9132" lon="6.92703">
        <ele>1147</ele>
        <time>2026-05-09T11:57:59.047Z</time>
      </trkpt>
      <trkpt lat="47.91323" lon="6.927">
        <ele>1146</ele>
        <time>2026-05-09T11:58:00.047Z</time>
      </trkpt>
      <trkpt lat="47.91325" lon="6.92699">
        <ele>1146</ele>
        <time>2026-05-09T11:58:01.046Z</time>
      </trkpt>
      <trkpt lat="47.91326" lon="6.927">
        <ele>1146</ele>
        <time>2026-05-09T11:58:02.047Z</time>
      </trkpt>
      <trkpt lat="47.91328" lon="6.92701">
        <ele>1145</ele>
        <time>2026-05-09T11:58:03.046Z</time>
      </trkpt>
      <trkpt lat="47.91329" lon="6.92703">
        <ele>1145</ele>
        <time>2026-05-09T11:58:04.046Z</time>
      </trkpt>
      <trkpt lat="47.9133" lon="6.92705">
        <ele>1145</ele>
        <time>2026-05-09T11:58:05.047Z</time>
      </trkpt>
      <trkpt lat="47.91331" lon="6.92706">
        <ele>1144</ele>
        <time>2026-05-09T11:58:06.047Z</time>
      </trkpt>
      <trkpt lat="47.91331" lon="6.92708">
        <ele>1144</ele>
        <time>2026-05-09T11:58:07.046Z</time>
      </trkpt>
      <trkpt lat="47.91331" lon="6.92709">
        <ele>1143</ele>
        <time>2026-05-09T11:58:08.047Z</time>
      </trkpt>
      <trkpt lat="47.91331" lon="6.9271">
        <ele>1143</ele>
        <time>2026-05-09T11:58:09.047Z</time>
      </trkpt>
      <trkpt lat="47.91331" lon="6.92712">
        <ele>1142</ele>
        <time>2026-05-09T11:58:10.046Z</time>
      </trkpt>
      <trkpt lat="47.91331" lon="6.92713">
        <ele>1141</ele>
        <time>2026-05-09T11:58:11.046Z</time>
      </trkpt>
      <trkpt lat="47.91331" lon="6.92713">
        <ele>1141</ele>
        <time>2026-05-09T11:58:12.047Z</time>
      </trkpt>
      <trkpt lat="47.91332" lon="6.92713">
        <ele>1140</ele>
        <time>2026-05-09T11:58:13.046Z</time>
      </trkpt>
      <trkpt lat="47.91333" lon="6.92712">
        <ele>1140</ele>
        <time>2026-05-09T11:58:14.046Z</time>
      </trkpt>
      <trkpt lat="47.91334" lon="6.92711">
        <ele>1139</ele>
        <time>2026-05-09T11:58:15.047Z</time>
      </trkpt>
      <trkpt lat="47.91334" lon="6.9271">
        <ele>1139</ele>
        <time>2026-05-09T11:58:16.047Z</time>
      </trkpt>
      <trkpt lat="47.91335" lon="6.92709">
        <ele>1139</ele>
        <time>2026-05-09T11:58:17.046Z</time>
      </trkpt>
      <trkpt lat="47.91335" lon="6.92708">
        <ele>1139</ele>
        <time>2026-05-09T11:58:18.047Z</time>
      </trkpt>
      <trkpt lat="47.91336" lon="6.92708">
        <ele>1138</ele>
        <time>2026-05-09T11:58:19.046Z</time>
      </trkpt>
      <trkpt lat="47.91338" lon="6.92707">
        <ele>1138</ele>
        <time>2026-05-09T11:58:20.047Z</time>
      </trkpt>
      <trkpt lat="47.91339" lon="6.92707">
        <ele>1137</ele>
        <time>2026-05-09T11:58:21.047Z</time>
      </trkpt>
      <trkpt lat="47.91341" lon="6.92707">
        <ele>1137</ele>
        <time>2026-05-09T11:58:22.046Z</time>
      </trkpt>
      <trkpt lat="47.91342" lon="6.92708">
        <ele>1136</ele>
        <time>2026-05-09T11:58:23.047Z</time>
      </trkpt>
      <trkpt lat="47.91343" lon="6.92708">
        <ele>1136</ele>
        <time>2026-05-09T11:58:24.046Z</time>
      </trkpt>
      <trkpt lat="47.91344" lon="6.92708">
        <ele>1135</ele>
        <time>2026-05-09T11:58:25.047Z</time>
      </trkpt>
      <trkpt lat="47.91345" lon="6.92708">
        <ele>1134</ele>
        <time>2026-05-09T11:58:26.046Z</time>
      </trkpt>
      <trkpt lat="47.91346" lon="6.92707">
        <ele>1134</ele>
        <time>2026-05-09T11:58:27.047Z</time>
      </trkpt>
      <trkpt lat="47.91348" lon="6.92708">
        <ele>1134</ele>
        <time>2026-05-09T11:58:28.047Z</time>
      </trkpt>
      <trkpt lat="47.9135" lon="6.92709">
        <ele>1133</ele>
        <time>2026-05-09T11:58:29.046Z</time>
      </trkpt>
      <trkpt lat="47.91351" lon="6.92709">
        <ele>1133</ele>
        <time>2026-05-09T11:58:30.046Z</time>
      </trkpt>
      <trkpt lat="47.91353" lon="6.92709">
        <ele>1133</ele>
        <time>2026-05-09T11:58:31.046Z</time>
      </trkpt>
      <trkpt lat="47.91355" lon="6.92709">
        <ele>1133</ele>
        <time>2026-05-09T11:58:32.047Z</time>
      </trkpt>
      <trkpt lat="47.91356" lon="6.92708">
        <ele>1132</ele>
        <time>2026-05-09T11:58:33.047Z</time>
      </trkpt>
      <trkpt lat="47.91358" lon="6.92706">
        <ele>1132</ele>
        <time>2026-05-09T11:58:34.046Z</time>
      </trkpt>
      <trkpt lat="47.9136" lon="6.92704">
        <ele>1132</ele>
        <time>2026-05-09T11:58:35.047Z</time>
      </trkpt>
      <trkpt lat="47.91362" lon="6.92703">
        <ele>1132</ele>
        <time>2026-05-09T11:58:36.046Z</time>
      </trkpt>
      <trkpt lat="47.91364" lon="6.92701">
        <ele>1132</ele>
        <time>2026-05-09T11:58:37.047Z</time>
      </trkpt>
      <trkpt lat="47.91366" lon="6.92701">
        <ele>1132</ele>
        <time>2026-05-09T11:58:38.046Z</time>
      </trkpt>
      <trkpt lat="47.91368" lon="6.92701">
        <ele>1132</ele>
        <time>2026-05-09T11:58:39.046Z</time>
      </trkpt>
      <trkpt lat="47.9137" lon="6.92702">
        <ele>1132</ele>
        <time>2026-05-09T11:58:40.047Z</time>
      </trkpt>
      <trkpt lat="47.91372" lon="6.92703">
        <ele>1132</ele>
        <time>2026-05-09T11:58:41.046Z</time>
      </trkpt>
      <trkpt lat="47.91374" lon="6.92703">
        <ele>1131</ele>
        <time>2026-05-09T11:58:42.047Z</time>
      </trkpt>
      <trkpt lat="47.91375" lon="6.92704">
        <ele>1131</ele>
        <time>2026-05-09T11:58:43.046Z</time>
      </trkpt>
      <trkpt lat="47.91375" lon="6.92704">
        <ele>1131</ele>
        <time>2026-05-09T11:58:44.046Z</time>
      </trkpt>
      <trkpt lat="47.91376" lon="6.92703">
        <ele>1130</ele>
        <time>2026-05-09T11:58:45.046Z</time>
      </trkpt>
      <trkpt lat="47.91377" lon="6.92702">
        <ele>1129</ele>
        <time>2026-05-09T11:58:46.047Z</time>
      </trkpt>
      <trkpt lat="47.91379" lon="6.92701">
        <ele>1129</ele>
        <time>2026-05-09T11:58:47.047Z</time>
      </trkpt>
      <trkpt lat="47.9138" lon="6.92699">
        <ele>1128</ele>
        <time>2026-05-09T11:58:48.046Z</time>
      </trkpt>
      <trkpt lat="47.91382" lon="6.92698">
        <ele>1128</ele>
        <time>2026-05-09T11:58:49.046Z</time>
      </trkpt>
      <trkpt lat="47.91384" lon="6.92696">
        <ele>1127</ele>
        <time>2026-05-09T11:58:50.046Z</time>
      </trkpt>
      <trkpt lat="47.91387" lon="6.92695">
        <ele>1127</ele>
        <time>2026-05-09T11:58:51.046Z</time>
      </trkpt>
      <trkpt lat="47.91389" lon="6.92695">
        <ele>1127</ele>
        <time>2026-05-09T11:58:52.046Z</time>
      </trkpt>
      <trkpt lat="47.91391" lon="6.92695">
        <ele>1127</ele>
        <time>2026-05-09T11:58:53.046Z</time>
      </trkpt>
      <trkpt lat="47.91393" lon="6.92695">
        <ele>1127</ele>
        <time>2026-05-09T11:58:54.046Z</time>
      </trkpt>
      <trkpt lat="47.91394" lon="6.92696">
        <ele>1127</ele>
        <time>2026-05-09T11:58:55.047Z</time>
      </trkpt>
      <trkpt lat="47.91396" lon="6.92697">
        <ele>1127</ele>
        <time>2026-05-09T11:58:56.046Z</time>
      </trkpt>
      <trkpt lat="47.91397" lon="6.92698">
        <ele>1127</ele>
        <time>2026-05-09T11:58:57.046Z</time>
      </trkpt>
      <trkpt lat="47.91398" lon="6.92699">
        <ele>1127</ele>
        <time>2026-05-09T11:58:58.046Z</time>
      </trkpt>
      <trkpt lat="47.91398" lon="6.927">
        <ele>1127</ele>
        <time>2026-05-09T11:58:59.047Z</time>
      </trkpt>
      <trkpt lat="47.91398" lon="6.927">
        <ele>1127</ele>
        <time>2026-05-09T11:59:00.046Z</time>
      </trkpt>
      <trkpt lat="47.91398" lon="6.92701">
        <ele>1127</ele>
        <time>2026-05-09T11:59:01.047Z</time>
      </trkpt>
      <trkpt lat="47.91406" lon="6.927">
        <ele>1127</ele>
        <time>2026-05-09T11:59:07.606Z</time>
      </trkpt>
      <trkpt lat="47.91407" lon="6.92699">
        <ele>1126</ele>
        <time>2026-05-09T11:59:08.606Z</time>
      </trkpt>
      <trkpt lat="47.91408" lon="6.92699">
        <ele>1126</ele>
        <time>2026-05-09T11:59:09.607Z</time>
      </trkpt>
      <trkpt lat="47.91408" lon="6.92699">
        <ele>1125</ele>
        <time>2026-05-09T11:59:10.606Z</time>
      </trkpt>
      <trkpt lat="47.91408" lon="6.92699">
        <ele>1125</ele>
        <time>2026-05-09T11:59:11.607Z</time>
      </trkpt>
      <trkpt lat="47.91415" lon="6.927">
        <ele>1122</ele>
        <time>2026-05-09T11:59:18.891Z</time>
      </trkpt>
      <trkpt lat="47.91417" lon="6.927">
        <ele>1122</ele>
        <time>2026-05-09T11:59:19.891Z</time>
      </trkpt>
      <trkpt lat="47.91418" lon="6.927">
        <ele>1122</ele>
        <time>2026-05-09T11:59:20.890Z</time>
      </trkpt>
      <trkpt lat="47.9142" lon="6.927">
        <ele>1122</ele>
        <time>2026-05-09T11:59:21.890Z</time>
      </trkpt>
      <trkpt lat="47.91421" lon="6.927">
        <ele>1122</ele>
        <time>2026-05-09T11:59:22.890Z</time>
      </trkpt>
      <trkpt lat="47.91423" lon="6.927">
        <ele>1121</ele>
        <time>2026-05-09T11:59:23.890Z</time>
      </trkpt>
      <trkpt lat="47.91424" lon="6.927">
        <ele>1121</ele>
        <time>2026-05-09T11:59:24.890Z</time>
      </trkpt>
      <trkpt lat="47.91426" lon="6.927">
        <ele>1121</ele>
        <time>2026-05-09T11:59:25.890Z</time>
      </trkpt>
      <trkpt lat="47.91427" lon="6.927">
        <ele>1121</ele>
        <time>2026-05-09T11:59:26.890Z</time>
      </trkpt>
      <trkpt lat="47.91429" lon="6.927">
        <ele>1121</ele>
        <time>2026-05-09T11:59:27.890Z</time>
      </trkpt>
      <trkpt lat="47.91431" lon="6.927">
        <ele>1120</ele>
        <time>2026-05-09T11:59:28.890Z</time>
      </trkpt>
      <trkpt lat="47.91432" lon="6.92701">
        <ele>1120</ele>
        <time>2026-05-09T11:59:29.890Z</time>
      </trkpt>
      <trkpt lat="47.91434" lon="6.92702">
        <ele>1120</ele>
        <time>2026-05-09T11:59:30.890Z</time>
      </trkpt>
      <trkpt lat="47.91436" lon="6.92703">
        <ele>1120</ele>
        <time>2026-05-09T11:59:31.890Z</time>
      </trkpt>
      <trkpt lat="47.91439" lon="6.92703">
        <ele>1119</ele>
        <time>2026-05-09T11:59:32.890Z</time>
      </trkpt>
      <trkpt lat="47.91441" lon="6.92704">
        <ele>1119</ele>
        <time>2026-05-09T11:59:33.890Z</time>
      </trkpt>
      <trkpt lat="47.91444" lon="6.92704">
        <ele>1118</ele>
        <time>2026-05-09T11:59:34.890Z</time>
      </trkpt>
      <trkpt lat="47.91445" lon="6.92704">
        <ele>1118</ele>
        <time>2026-05-09T11:59:35.890Z</time>
      </trkpt>
      <trkpt lat="47.91446" lon="6.92704">
        <ele>1118</ele>
        <time>2026-05-09T11:59:36.891Z</time>
      </trkpt>
      <trkpt lat="47.91447" lon="6.92705">
        <ele>1118</ele>
        <time>2026-05-09T11:59:37.891Z</time>
      </trkpt>
      <trkpt lat="47.9145" lon="6.92706">
        <ele>1117</ele>
        <time>2026-05-09T11:59:38.891Z</time>
      </trkpt>
      <trkpt lat="47.91452" lon="6.92707">
        <ele>1117</ele>
        <time>2026-05-09T11:59:39.890Z</time>
      </trkpt>
      <trkpt lat="47.91455" lon="6.92707">
        <ele>1117</ele>
        <time>2026-05-09T11:59:40.890Z</time>
      </trkpt>
      <trkpt lat="47.91456" lon="6.92707">
        <ele>1116</ele>
        <time>2026-05-09T11:59:41.890Z</time>
      </trkpt>
      <trkpt lat="47.91458" lon="6.92707">
        <ele>1116</ele>
        <time>2026-05-09T11:59:42.890Z</time>
      </trkpt>
      <trkpt lat="47.9146" lon="6.92707">
        <ele>1116</ele>
        <time>2026-05-09T11:59:43.891Z</time>
      </trkpt>
      <trkpt lat="47.91461" lon="6.92707">
        <ele>1116</ele>
        <time>2026-05-09T11:59:44.891Z</time>
      </trkpt>
      <trkpt lat="47.91463" lon="6.92707">
        <ele>1115</ele>
        <time>2026-05-09T11:59:45.891Z</time>
      </trkpt>
      <trkpt lat="47.91464" lon="6.92707">
        <ele>1115</ele>
        <time>2026-05-09T11:59:46.891Z</time>
      </trkpt>
      <trkpt lat="47.91465" lon="6.92707">
        <ele>1115</ele>
        <time>2026-05-09T11:59:47.891Z</time>
      </trkpt>
      <trkpt lat="47.91466" lon="6.92707">
        <ele>1114</ele>
        <time>2026-05-09T11:59:48.890Z</time>
      </trkpt>
      <trkpt lat="47.91468" lon="6.92707">
        <ele>1114</ele>
        <time>2026-05-09T11:59:49.890Z</time>
      </trkpt>
      <trkpt lat="47.91469" lon="6.92708">
        <ele>1114</ele>
        <time>2026-05-09T11:59:50.890Z</time>
      </trkpt>
      <trkpt lat="47.91471" lon="6.92708">
        <ele>1114</ele>
        <time>2026-05-09T11:59:51.890Z</time>
      </trkpt>
      <trkpt lat="47.91473" lon="6.92709">
        <ele>1114</ele>
        <time>2026-05-09T11:59:52.890Z</time>
      </trkpt>
      <trkpt lat="47.91475" lon="6.92709">
        <ele>1113</ele>
        <time>2026-05-09T11:59:53.890Z</time>
      </trkpt>
      <trkpt lat="47.91477" lon="6.9271">
        <ele>1113</ele>
        <time>2026-05-09T11:59:54.890Z</time>
      </trkpt>
      <trkpt lat="47.91479" lon="6.92711">
        <ele>1112</ele>
        <time>2026-05-09T11:59:55.890Z</time>
      </trkpt>
      <trkpt lat="47.91482" lon="6.92711">
        <ele>1112</ele>
        <time>2026-05-09T11:59:56.891Z</time>
      </trkpt>
      <trkpt lat="47.91484" lon="6.92711">
        <ele>1112</ele>
        <time>2026-05-09T11:59:57.890Z</time>
      </trkpt>
      <trkpt lat="47.91485" lon="6.92711">
        <ele>1112</ele>
        <time>2026-05-09T11:59:58.890Z</time>
      </trkpt>
      <trkpt lat="47.91486" lon="6.92711">
        <ele>1112</ele>
        <time>2026-05-09T11:59:59.890Z</time>
      </trkpt>
      <trkpt lat="47.91487" lon="6.92711">
        <ele>1112</ele>
        <time>2026-05-09T12:00:00.890Z</time>
      </trkpt>
      <trkpt lat="47.91488" lon="6.92711">
        <ele>1112</ele>
        <time>2026-05-09T12:00:01.890Z</time>
      </trkpt>
      <trkpt lat="47.9149" lon="6.9271">
        <ele>1112</ele>
        <time>2026-05-09T12:00:02.890Z</time>
      </trkpt>
      <trkpt lat="47.91492" lon="6.9271">
        <ele>1112</ele>
        <time>2026-05-09T12:00:03.890Z</time>
      </trkpt>
      <trkpt lat="47.91493" lon="6.9271">
        <ele>1112</ele>
        <time>2026-05-09T12:00:04.890Z</time>
      </trkpt>
      <trkpt lat="47.91495" lon="6.92711">
        <ele>1112</ele>
        <time>2026-05-09T12:00:05.890Z</time>
      </trkpt>
      <trkpt lat="47.91496" lon="6.92711">
        <ele>1112</ele>
        <time>2026-05-09T12:00:06.890Z</time>
      </trkpt>
      <trkpt lat="47.91497" lon="6.92711">
        <ele>1113</ele>
        <time>2026-05-09T12:00:07.890Z</time>
      </trkpt>
      <trkpt lat="47.91497" lon="6.92711">
        <ele>1113</ele>
        <time>2026-05-09T12:00:08.890Z</time>
      </trkpt>
      <trkpt lat="47.91499" lon="6.92711">
        <ele>1113</ele>
        <time>2026-05-09T12:00:09.891Z</time>
      </trkpt>
      <trkpt lat="47.91501" lon="6.92712">
        <ele>1113</ele>
        <time>2026-05-09T12:00:10.890Z</time>
      </trkpt>
      <trkpt lat="47.91503" lon="6.92713">
        <ele>1113</ele>
        <time>2026-05-09T12:00:11.891Z</time>
      </trkpt>
      <trkpt lat="47.91504" lon="6.92713">
        <ele>1113</ele>
        <time>2026-05-09T12:00:12.891Z</time>
      </trkpt>
      <trkpt lat="47.91506" lon="6.92713">
        <ele>1113</ele>
        <time>2026-05-09T12:00:13.890Z</time>
      </trkpt>
      <trkpt lat="47.91507" lon="6.92714">
        <ele>1113</ele>
        <time>2026-05-09T12:00:14.890Z</time>
      </trkpt>
      <trkpt lat="47.91508" lon="6.92715">
        <ele>1113</ele>
        <time>2026-05-09T12:00:15.891Z</time>
      </trkpt>
      <trkpt lat="47.91509" lon="6.92715">
        <ele>1113</ele>
        <time>2026-05-09T12:00:16.891Z</time>
      </trkpt>
      <trkpt lat="47.91511" lon="6.92716">
        <ele>1113</ele>
        <time>2026-05-09T12:00:17.891Z</time>
      </trkpt>
      <trkpt lat="47.91513" lon="6.92717">
        <ele>1113</ele>
        <time>2026-05-09T12:00:18.891Z</time>
      </trkpt>
      <trkpt lat="47.91512" lon="6.92717">
        <ele>1113</ele>
        <time>2026-05-09T12:00:19.890Z</time>
      </trkpt>
      <trkpt lat="47.91512" lon="6.92717">
        <ele>1113</ele>
        <time>2026-05-09T12:00:20.891Z</time>
      </trkpt>
      <trkpt lat="47.91512" lon="6.92717">
        <ele>1112</ele>
        <time>2026-05-09T12:00:21.890Z</time>
      </trkpt>
      <trkpt lat="47.91522" lon="6.92715">
        <ele>1111</ele>
        <time>2026-05-09T12:00:28.413Z</time>
      </trkpt>
      <trkpt lat="47.91523" lon="6.92715">
        <ele>1111</ele>
        <time>2026-05-09T12:00:29.413Z</time>
      </trkpt>
      <trkpt lat="47.91524" lon="6.92715">
        <ele>1111</ele>
        <time>2026-05-09T12:00:30.413Z</time>
      </trkpt>
      <trkpt lat="47.91524" lon="6.92714">
        <ele>1111</ele>
        <time>2026-05-09T12:00:31.413Z</time>
      </trkpt>
      <trkpt lat="47.91525" lon="6.92714">
        <ele>1111</ele>
        <time>2026-05-09T12:00:32.413Z</time>
      </trkpt>
      <trkpt lat="47.91526" lon="6.92713">
        <ele>1111</ele>
        <time>2026-05-09T12:00:33.413Z</time>
      </trkpt>
      <trkpt lat="47.91527" lon="6.92713">
        <ele>1111</ele>
        <time>2026-05-09T12:00:34.413Z</time>
      </trkpt>
      <trkpt lat="47.91528" lon="6.92714">
        <ele>1110</ele>
        <time>2026-05-09T12:00:35.414Z</time>
      </trkpt>
      <trkpt lat="47.9153" lon="6.92714">
        <ele>1110</ele>
        <time>2026-05-09T12:00:36.413Z</time>
      </trkpt>
      <trkpt lat="47.91531" lon="6.92714">
        <ele>1110</ele>
        <time>2026-05-09T12:00:37.413Z</time>
      </trkpt>
      <trkpt lat="47.91532" lon="6.92713">
        <ele>1109</ele>
        <time>2026-05-09T12:00:38.413Z</time>
      </trkpt>
      <trkpt lat="47.91533" lon="6.92712">
        <ele>1109</ele>
        <time>2026-05-09T12:00:39.414Z</time>
      </trkpt>
      <trkpt lat="47.91534" lon="6.92712">
        <ele>1109</ele>
        <time>2026-05-09T12:00:40.413Z</time>
      </trkpt>
      <trkpt lat="47.91535" lon="6.92713">
        <ele>1108</ele>
        <time>2026-05-09T12:00:41.414Z</time>
      </trkpt>
      <trkpt lat="47.91536" lon="6.92713">
        <ele>1108</ele>
        <time>2026-05-09T12:00:42.413Z</time>
      </trkpt>
      <trkpt lat="47.91537" lon="6.92714">
        <ele>1107</ele>
        <time>2026-05-09T12:00:43.413Z</time>
      </trkpt>
      <trkpt lat="47.91537" lon="6.92714">
        <ele>1106</ele>
        <time>2026-05-09T12:00:44.413Z</time>
      </trkpt>
      <trkpt lat="47.91537" lon="6.92714">
        <ele>1106</ele>
        <time>2026-05-09T12:00:45.414Z</time>
      </trkpt>
      <trkpt lat="47.91539" lon="6.92714">
        <ele>1106</ele>
        <time>2026-05-09T12:00:46.414Z</time>
      </trkpt>
      <trkpt lat="47.91539" lon="6.92715">
        <ele>1105</ele>
        <time>2026-05-09T12:00:47.413Z</time>
      </trkpt>
      <trkpt lat="47.9154" lon="6.92715">
        <ele>1105</ele>
        <time>2026-05-09T12:00:48.413Z</time>
      </trkpt>
      <trkpt lat="47.91541" lon="6.92714">
        <ele>1105</ele>
        <time>2026-05-09T12:00:49.413Z</time>
      </trkpt>
      <trkpt lat="47.91541" lon="6.92714">
        <ele>1104</ele>
        <time>2026-05-09T12:00:50.413Z</time>
      </trkpt>
      <trkpt lat="47.91542" lon="6.92714">
        <ele>1104</ele>
        <time>2026-05-09T12:00:51.413Z</time>
      </trkpt>
      <trkpt lat="47.91544" lon="6.92714">
        <ele>1103</ele>
        <time>2026-05-09T12:00:52.413Z</time>
      </trkpt>
      <trkpt lat="47.91544" lon="6.92714">
        <ele>1103</ele>
        <time>2026-05-09T12:00:53.413Z</time>
      </trkpt>
      <trkpt lat="47.91546" lon="6.92714">
        <ele>1102</ele>
        <time>2026-05-09T12:00:54.413Z</time>
      </trkpt>
      <trkpt lat="47.91547" lon="6.92713">
        <ele>1102</ele>
        <time>2026-05-09T12:00:55.414Z</time>
      </trkpt>
      <trkpt lat="47.91548" lon="6.92713">
        <ele>1102</ele>
        <time>2026-05-09T12:00:56.414Z</time>
      </trkpt>
      <trkpt lat="47.91548" lon="6.92713">
        <ele>1101</ele>
        <time>2026-05-09T12:00:57.413Z</time>
      </trkpt>
      <trkpt lat="47.91549" lon="6.92713">
        <ele>1101</ele>
        <time>2026-05-09T12:00:58.413Z</time>
      </trkpt>
      <trkpt lat="47.91551" lon="6.92711">
        <ele>1101</ele>
        <time>2026-05-09T12:00:59.413Z</time>
      </trkpt>
      <trkpt lat="47.91552" lon="6.9271">
        <ele>1101</ele>
        <time>2026-05-09T12:01:00.414Z</time>
      </trkpt>
      <trkpt lat="47.91554" lon="6.92709">
        <ele>1101</ele>
        <time>2026-05-09T12:01:01.413Z</time>
      </trkpt>
      <trkpt lat="47.91555" lon="6.92709">
        <ele>1101</ele>
        <time>2026-05-09T12:01:02.413Z</time>
      </trkpt>
      <trkpt lat="47.91556" lon="6.92708">
        <ele>1101</ele>
        <time>2026-05-09T12:01:03.413Z</time>
      </trkpt>
      <trkpt lat="47.91556" lon="6.92708">
        <ele>1100</ele>
        <time>2026-05-09T12:01:04.413Z</time>
      </trkpt>
      <trkpt lat="47.91558" lon="6.92708">
        <ele>1100</ele>
        <time>2026-05-09T12:01:05.413Z</time>
      </trkpt>
      <trkpt lat="47.91559" lon="6.92709">
        <ele>1099</ele>
        <time>2026-05-09T12:01:06.413Z</time>
      </trkpt>
      <trkpt lat="47.91562" lon="6.92709">
        <ele>1098</ele>
        <time>2026-05-09T12:01:07.413Z</time>
      </trkpt>
      <trkpt lat="47.91564" lon="6.92709">
        <ele>1098</ele>
        <time>2026-05-09T12:01:08.413Z</time>
      </trkpt>
      <trkpt lat="47.91566" lon="6.92708">
        <ele>1097</ele>
        <time>2026-05-09T12:01:09.413Z</time>
      </trkpt>
      <trkpt lat="47.91566" lon="6.92708">
        <ele>1097</ele>
        <time>2026-05-09T12:01:10.414Z</time>
      </trkpt>
      <trkpt lat="47.91569" lon="6.92707">
        <ele>1097</ele>
        <time>2026-05-09T12:01:11.414Z</time>
      </trkpt>
      <trkpt lat="47.91572" lon="6.92707">
        <ele>1096</ele>
        <time>2026-05-09T12:01:12.413Z</time>
      </trkpt>
      <trkpt lat="47.91573" lon="6.92707">
        <ele>1096</ele>
        <time>2026-05-09T12:01:13.413Z</time>
      </trkpt>
      <trkpt lat="47.91575" lon="6.92707">
        <ele>1095</ele>
        <time>2026-05-09T12:01:14.414Z</time>
      </trkpt>
      <trkpt lat="47.91577" lon="6.92706">
        <ele>1095</ele>
        <time>2026-05-09T12:01:15.414Z</time>
      </trkpt>
      <trkpt lat="47.91579" lon="6.92706">
        <ele>1095</ele>
        <time>2026-05-09T12:01:16.413Z</time>
      </trkpt>
      <trkpt lat="47.9158" lon="6.92707">
        <ele>1095</ele>
        <time>2026-05-09T12:01:17.414Z</time>
      </trkpt>
      <trkpt lat="47.91582" lon="6.92707">
        <ele>1096</ele>
        <time>2026-05-09T12:01:18.413Z</time>
      </trkpt>
      <trkpt lat="47.91583" lon="6.92707">
        <ele>1096</ele>
        <time>2026-05-09T12:01:19.413Z</time>
      </trkpt>
      <trkpt lat="47.91585" lon="6.92708">
        <ele>1095</ele>
        <time>2026-05-09T12:01:20.413Z</time>
      </trkpt>
      <trkpt lat="47.91587" lon="6.92708">
        <ele>1095</ele>
        <time>2026-05-09T12:01:21.414Z</time>
      </trkpt>
      <trkpt lat="47.91589" lon="6.92709">
        <ele>1095</ele>
        <time>2026-05-09T12:01:22.413Z</time>
      </trkpt>
      <trkpt lat="47.91591" lon="6.92709">
        <ele>1095</ele>
        <time>2026-05-09T12:01:23.413Z</time>
      </trkpt>
      <trkpt lat="47.91592" lon="6.92709">
        <ele>1095</ele>
        <time>2026-05-09T12:01:24.414Z</time>
      </trkpt>
      <trkpt lat="47.91594" lon="6.92708">
        <ele>1094</ele>
        <time>2026-05-09T12:01:25.413Z</time>
      </trkpt>
      <trkpt lat="47.91594" lon="6.92708">
        <ele>1094</ele>
        <time>2026-05-09T12:01:26.414Z</time>
      </trkpt>
      <trkpt lat="47.91598" lon="6.92706">
        <ele>1094</ele>
        <time>2026-05-09T12:01:27.414Z</time>
      </trkpt>
      <trkpt lat="47.91599" lon="6.92705">
        <ele>1094</ele>
        <time>2026-05-09T12:01:28.414Z</time>
      </trkpt>
      <trkpt lat="47.91601" lon="6.92704">
        <ele>1094</ele>
        <time>2026-05-09T12:01:29.414Z</time>
      </trkpt>
      <trkpt lat="47.91601" lon="6.92704">
        <ele>1094</ele>
        <time>2026-05-09T12:01:30.413Z</time>
      </trkpt>
      <trkpt lat="47.91604" lon="6.92702">
        <ele>1093</ele>
        <time>2026-05-09T12:01:31.413Z</time>
      </trkpt>
      <trkpt lat="47.91605" lon="6.92701">
        <ele>1093</ele>
        <time>2026-05-09T12:01:32.413Z</time>
      </trkpt>
      <trkpt lat="47.91607" lon="6.927">
        <ele>1093</ele>
        <time>2026-05-09T12:01:33.413Z</time>
      </trkpt>
      <trkpt lat="47.91609" lon="6.92698">
        <ele>1092</ele>
        <time>2026-05-09T12:01:34.413Z</time>
      </trkpt>
      <trkpt lat="47.91611" lon="6.92698">
        <ele>1092</ele>
        <time>2026-05-09T12:01:35.413Z</time>
      </trkpt>
      <trkpt lat="47.91613" lon="6.92697">
        <ele>1091</ele>
        <time>2026-05-09T12:01:36.414Z</time>
      </trkpt>
      <trkpt lat="47.91614" lon="6.92696">
        <ele>1091</ele>
        <time>2026-05-09T12:01:37.413Z</time>
      </trkpt>
      <trkpt lat="47.91616" lon="6.92695">
        <ele>1091</ele>
        <time>2026-05-09T12:01:38.413Z</time>
      </trkpt>
      <trkpt lat="47.91617" lon="6.92694">
        <ele>1090</ele>
        <time>2026-05-09T12:01:39.414Z</time>
      </trkpt>
      <trkpt lat="47.91618" lon="6.92693">
        <ele>1090</ele>
        <time>2026-05-09T12:01:40.413Z</time>
      </trkpt>
      <trkpt lat="47.91618" lon="6.92693">
        <ele>1090</ele>
        <time>2026-05-09T12:01:41.413Z</time>
      </trkpt>
      <trkpt lat="47.91619" lon="6.92693">
        <ele>1090</ele>
        <time>2026-05-09T12:01:42.413Z</time>
      </trkpt>
      <trkpt lat="47.91619" lon="6.92694">
        <ele>1090</ele>
        <time>2026-05-09T12:01:43.413Z</time>
      </trkpt>
      <trkpt lat="47.91619" lon="6.92694">
        <ele>1089</ele>
        <time>2026-05-09T12:01:44.413Z</time>
      </trkpt>
      <trkpt lat="47.91619" lon="6.92694">
        <ele>1089</ele>
        <time>2026-05-09T12:01:45.413Z</time>
      </trkpt>
      <trkpt lat="47.91618" lon="6.92693">
        <ele>1088</ele>
        <time>2026-05-09T12:01:50.933Z</time>
      </trkpt>
      <trkpt lat="47.91618" lon="6.92693">
        <ele>1088</ele>
        <time>2026-05-09T12:01:51.934Z</time>
      </trkpt>
      <trkpt lat="47.91622" lon="6.92693">
        <ele>1088</ele>
        <time>2026-05-09T12:02:06.118Z</time>
      </trkpt>
      <trkpt lat="47.91623" lon="6.92693">
        <ele>1087</ele>
        <time>2026-05-09T12:02:07.117Z</time>
      </trkpt>
      <trkpt lat="47.91625" lon="6.92693">
        <ele>1087</ele>
        <time>2026-05-09T12:02:08.117Z</time>
      </trkpt>
      <trkpt lat="47.91625" lon="6.92693">
        <ele>1087</ele>
        <time>2026-05-09T12:02:09.118Z</time>
      </trkpt>
      <trkpt lat="47.91626" lon="6.92692">
        <ele>1086</ele>
        <time>2026-05-09T12:02:10.118Z</time>
      </trkpt>
      <trkpt lat="47.91627" lon="6.92691">
        <ele>1086</ele>
        <time>2026-05-09T12:02:11.118Z</time>
      </trkpt>
      <trkpt lat="47.91629" lon="6.92691">
        <ele>1086</ele>
        <time>2026-05-09T12:02:12.117Z</time>
      </trkpt>
      <trkpt lat="47.9163" lon="6.92691">
        <ele>1086</ele>
        <time>2026-05-09T12:02:13.117Z</time>
      </trkpt>
      <trkpt lat="47.91631" lon="6.92691">
        <ele>1086</ele>
        <time>2026-05-09T12:02:14.118Z</time>
      </trkpt>
      <trkpt lat="47.91631" lon="6.9269">
        <ele>1085</ele>
        <time>2026-05-09T12:02:15.118Z</time>
      </trkpt>
      <trkpt lat="47.91632" lon="6.9269">
        <ele>1085</ele>
        <time>2026-05-09T12:02:16.118Z</time>
      </trkpt>
      <trkpt lat="47.91633" lon="6.92689">
        <ele>1085</ele>
        <time>2026-05-09T12:02:17.118Z</time>
      </trkpt>
      <trkpt lat="47.91633" lon="6.92688">
        <ele>1085</ele>
        <time>2026-05-09T12:02:18.117Z</time>
      </trkpt>
      <trkpt lat="47.91633" lon="6.92686">
        <ele>1085</ele>
        <time>2026-05-09T12:02:19.117Z</time>
      </trkpt>
      <trkpt lat="47.91634" lon="6.92684">
        <ele>1085</ele>
        <time>2026-05-09T12:02:20.118Z</time>
      </trkpt>
      <trkpt lat="47.91635" lon="6.92683">
        <ele>1084</ele>
        <time>2026-05-09T12:02:21.117Z</time>
      </trkpt>
      <trkpt lat="47.91635" lon="6.92682">
        <ele>1084</ele>
        <time>2026-05-09T12:02:22.118Z</time>
      </trkpt>
      <trkpt lat="47.91636" lon="6.92681">
        <ele>1083</ele>
        <time>2026-05-09T12:02:23.117Z</time>
      </trkpt>
      <trkpt lat="47.91637" lon="6.9268">
        <ele>1083</ele>
        <time>2026-05-09T12:02:24.118Z</time>
      </trkpt>
      <trkpt lat="47.91639" lon="6.92678">
        <ele>1082</ele>
        <time>2026-05-09T12:02:25.117Z</time>
      </trkpt>
      <trkpt lat="47.91639" lon="6.92677">
        <ele>1082</ele>
        <time>2026-05-09T12:02:26.117Z</time>
      </trkpt>
      <trkpt lat="47.9164" lon="6.92677">
        <ele>1082</ele>
        <time>2026-05-09T12:02:27.117Z</time>
      </trkpt>
      <trkpt lat="47.91641" lon="6.92677">
        <ele>1081</ele>
        <time>2026-05-09T12:02:28.117Z</time>
      </trkpt>
      <trkpt lat="47.91641" lon="6.92677">
        <ele>1081</ele>
        <time>2026-05-09T12:02:29.118Z</time>
      </trkpt>
      <trkpt lat="47.9165" lon="6.92672">
        <ele>1080</ele>
        <time>2026-05-09T12:02:35.447Z</time>
      </trkpt>
      <trkpt lat="47.9165" lon="6.92672">
        <ele>1080</ele>
        <time>2026-05-09T12:02:36.447Z</time>
      </trkpt>
      <trkpt lat="47.9165" lon="6.92672">
        <ele>1080</ele>
        <time>2026-05-09T12:02:37.447Z</time>
      </trkpt>
      <trkpt lat="47.91651" lon="6.92671">
        <ele>1080</ele>
        <time>2026-05-09T12:02:38.448Z</time>
      </trkpt>
      <trkpt lat="47.91652" lon="6.9267">
        <ele>1080</ele>
        <time>2026-05-09T12:02:39.447Z</time>
      </trkpt>
      <trkpt lat="47.91654" lon="6.92671">
        <ele>1080</ele>
        <time>2026-05-09T12:02:40.447Z</time>
      </trkpt>
      <trkpt lat="47.91655" lon="6.92671">
        <ele>1080</ele>
        <time>2026-05-09T12:02:41.447Z</time>
      </trkpt>
      <trkpt lat="47.91656" lon="6.92671">
        <ele>1080</ele>
        <time>2026-05-09T12:02:42.447Z</time>
      </trkpt>
      <trkpt lat="47.91657" lon="6.9267">
        <ele>1080</ele>
        <time>2026-05-09T12:02:43.447Z</time>
      </trkpt>
      <trkpt lat="47.91658" lon="6.9267">
        <ele>1080</ele>
        <time>2026-05-09T12:02:44.447Z</time>
      </trkpt>
      <trkpt lat="47.9166" lon="6.92669">
        <ele>1080</ele>
        <time>2026-05-09T12:02:45.447Z</time>
      </trkpt>
      <trkpt lat="47.91661" lon="6.92669">
        <ele>1080</ele>
        <time>2026-05-09T12:02:46.448Z</time>
      </trkpt>
      <trkpt lat="47.91663" lon="6.92669">
        <ele>1079</ele>
        <time>2026-05-09T12:02:47.447Z</time>
      </trkpt>
      <trkpt lat="47.91664" lon="6.92668">
        <ele>1079</ele>
        <time>2026-05-09T12:02:48.447Z</time>
      </trkpt>
      <trkpt lat="47.91666" lon="6.92668">
        <ele>1079</ele>
        <time>2026-05-09T12:02:49.447Z</time>
      </trkpt>
      <trkpt lat="47.91668" lon="6.92667">
        <ele>1079</ele>
        <time>2026-05-09T12:02:50.448Z</time>
      </trkpt>
      <trkpt lat="47.9167" lon="6.92666">
        <ele>1079</ele>
        <time>2026-05-09T12:02:51.448Z</time>
      </trkpt>
      <trkpt lat="47.91672" lon="6.92665">
        <ele>1079</ele>
        <time>2026-05-09T12:02:52.447Z</time>
      </trkpt>
      <trkpt lat="47.91673" lon="6.92665">
        <ele>1078</ele>
        <time>2026-05-09T12:02:53.447Z</time>
      </trkpt>
      <trkpt lat="47.91674" lon="6.92664">
        <ele>1078</ele>
        <time>2026-05-09T12:02:54.448Z</time>
      </trkpt>
      <trkpt lat="47.91676" lon="6.92664">
        <ele>1078</ele>
        <time>2026-05-09T12:02:55.448Z</time>
      </trkpt>
      <trkpt lat="47.91677" lon="6.92663">
        <ele>1078</ele>
        <time>2026-05-09T12:02:56.447Z</time>
      </trkpt>
      <trkpt lat="47.91677" lon="6.92663">
        <ele>1078</ele>
        <time>2026-05-09T12:02:57.447Z</time>
      </trkpt>
      <trkpt lat="47.91678" lon="6.92663">
        <ele>1077</ele>
        <time>2026-05-09T12:02:58.447Z</time>
      </trkpt>
      <trkpt lat="47.91678" lon="6.92662">
        <ele>1077</ele>
        <time>2026-05-09T12:02:59.448Z</time>
      </trkpt>
      <trkpt lat="47.91679" lon="6.92661">
        <ele>1077</ele>
        <time>2026-05-09T12:03:00.447Z</time>
      </trkpt>
      <trkpt lat="47.9168" lon="6.92661">
        <ele>1076</ele>
        <time>2026-05-09T12:03:01.447Z</time>
      </trkpt>
      <trkpt lat="47.91681" lon="6.92661">
        <ele>1076</ele>
        <time>2026-05-09T12:03:02.447Z</time>
      </trkpt>
      <trkpt lat="47.91683" lon="6.9266">
        <ele>1076</ele>
        <time>2026-05-09T12:03:03.447Z</time>
      </trkpt>
      <trkpt lat="47.91684" lon="6.92659">
        <ele>1076</ele>
        <time>2026-05-09T12:03:04.447Z</time>
      </trkpt>
      <trkpt lat="47.91684" lon="6.92659">
        <ele>1076</ele>
        <time>2026-05-09T12:03:05.448Z</time>
      </trkpt>
      <trkpt lat="47.91685" lon="6.92659">
        <ele>1076</ele>
        <time>2026-05-09T12:03:06.447Z</time>
      </trkpt>
      <trkpt lat="47.91685" lon="6.92658">
        <ele>1075</ele>
        <time>2026-05-09T12:03:07.447Z</time>
      </trkpt>
      <trkpt lat="47.91687" lon="6.92657">
        <ele>1075</ele>
        <time>2026-05-09T12:03:08.447Z</time>
      </trkpt>
      <trkpt lat="47.91688" lon="6.92656">
        <ele>1075</ele>
        <time>2026-05-09T12:03:09.447Z</time>
      </trkpt>
      <trkpt lat="47.91689" lon="6.92654">
        <ele>1074</ele>
        <time>2026-05-09T12:03:10.447Z</time>
      </trkpt>
      <trkpt lat="47.91689" lon="6.92654">
        <ele>1074</ele>
        <time>2026-05-09T12:03:11.447Z</time>
      </trkpt>
      <trkpt lat="47.9169" lon="6.92654">
        <ele>1074</ele>
        <time>2026-05-09T12:03:12.447Z</time>
      </trkpt>
      <trkpt lat="47.9169" lon="6.92654">
        <ele>1073</ele>
        <time>2026-05-09T12:03:13.447Z</time>
      </trkpt>
      <trkpt lat="47.9169" lon="6.92654">
        <ele>1073</ele>
        <time>2026-05-09T12:03:14.448Z</time>
      </trkpt>
      <trkpt lat="47.91691" lon="6.92654">
        <ele>1072</ele>
        <time>2026-05-09T12:03:15.447Z</time>
      </trkpt>
      <trkpt lat="47.91692" lon="6.92654">
        <ele>1072</ele>
        <time>2026-05-09T12:03:16.447Z</time>
      </trkpt>
      <trkpt lat="47.91694" lon="6.92653">
        <ele>1072</ele>
        <time>2026-05-09T12:03:17.448Z</time>
      </trkpt>
      <trkpt lat="47.91695" lon="6.92652">
        <ele>1071</ele>
        <time>2026-05-09T12:03:18.448Z</time>
      </trkpt>
      <trkpt lat="47.91698" lon="6.92651">
        <ele>1071</ele>
        <time>2026-05-09T12:03:19.447Z</time>
      </trkpt>
      <trkpt lat="47.917" lon="6.92649">
        <ele>1071</ele>
        <time>2026-05-09T12:03:20.447Z</time>
      </trkpt>
      <trkpt lat="47.91701" lon="6.92648">
        <ele>1071</ele>
        <time>2026-05-09T12:03:21.447Z</time>
      </trkpt>
      <trkpt lat="47.91703" lon="6.92647">
        <ele>1071</ele>
        <time>2026-05-09T12:03:22.447Z</time>
      </trkpt>
      <trkpt lat="47.91705" lon="6.92647">
        <ele>1070</ele>
        <time>2026-05-09T12:03:23.447Z</time>
      </trkpt>
      <trkpt lat="47.91706" lon="6.92647">
        <ele>1070</ele>
        <time>2026-05-09T12:03:24.447Z</time>
      </trkpt>
      <trkpt lat="47.91708" lon="6.92647">
        <ele>1070</ele>
        <time>2026-05-09T12:03:25.447Z</time>
      </trkpt>
      <trkpt lat="47.91709" lon="6.92646">
        <ele>1069</ele>
        <time>2026-05-09T12:03:26.447Z</time>
      </trkpt>
      <trkpt lat="47.9171" lon="6.92646">
        <ele>1069</ele>
        <time>2026-05-09T12:03:27.447Z</time>
      </trkpt>
      <trkpt lat="47.91712" lon="6.92645">
        <ele>1069</ele>
        <time>2026-05-09T12:03:28.448Z</time>
      </trkpt>
      <trkpt lat="47.91714" lon="6.92644">
        <ele>1069</ele>
        <time>2026-05-09T12:03:29.447Z</time>
      </trkpt>
      <trkpt lat="47.91715" lon="6.92643">
        <ele>1069</ele>
        <time>2026-05-09T12:03:30.447Z</time>
      </trkpt>
      <trkpt lat="47.91716" lon="6.92643">
        <ele>1069</ele>
        <time>2026-05-09T12:03:31.447Z</time>
      </trkpt>
      <trkpt lat="47.91717" lon="6.92642">
        <ele>1068</ele>
        <time>2026-05-09T12:03:32.447Z</time>
      </trkpt>
      <trkpt lat="47.91717" lon="6.9264">
        <ele>1068</ele>
        <time>2026-05-09T12:03:33.447Z</time>
      </trkpt>
      <trkpt lat="47.91718" lon="6.92639">
        <ele>1067</ele>
        <time>2026-05-09T12:03:34.447Z</time>
      </trkpt>
      <trkpt lat="47.91719" lon="6.92638">
        <ele>1067</ele>
        <time>2026-05-09T12:03:35.448Z</time>
      </trkpt>
      <trkpt lat="47.9172" lon="6.92637">
        <ele>1066</ele>
        <time>2026-05-09T12:03:36.447Z</time>
      </trkpt>
      <trkpt lat="47.91722" lon="6.92635">
        <ele>1066</ele>
        <time>2026-05-09T12:03:37.447Z</time>
      </trkpt>
      <trkpt lat="47.91724" lon="6.92633">
        <ele>1066</ele>
        <time>2026-05-09T12:03:38.447Z</time>
      </trkpt>
      <trkpt lat="47.91725" lon="6.92632">
        <ele>1066</ele>
        <time>2026-05-09T12:03:39.448Z</time>
      </trkpt>
      <trkpt lat="47.91725" lon="6.92631">
        <ele>1066</ele>
        <time>2026-05-09T12:03:40.447Z</time>
      </trkpt>
      <trkpt lat="47.91726" lon="6.92629">
        <ele>1066</ele>
        <time>2026-05-09T12:03:41.448Z</time>
      </trkpt>
      <trkpt lat="47.91726" lon="6.92628">
        <ele>1066</ele>
        <time>2026-05-09T12:03:42.447Z</time>
      </trkpt>
      <trkpt lat="47.91727" lon="6.92626">
        <ele>1066</ele>
        <time>2026-05-09T12:03:43.447Z</time>
      </trkpt>
      <trkpt lat="47.91728" lon="6.92625">
        <ele>1066</ele>
        <time>2026-05-09T12:03:44.447Z</time>
      </trkpt>
      <trkpt lat="47.91729" lon="6.92624">
        <ele>1066</ele>
        <time>2026-05-09T12:03:45.448Z</time>
      </trkpt>
      <trkpt lat="47.9173" lon="6.92623">
        <ele>1066</ele>
        <time>2026-05-09T12:03:46.447Z</time>
      </trkpt>
      <trkpt lat="47.91731" lon="6.92622">
        <ele>1066</ele>
        <time>2026-05-09T12:03:47.447Z</time>
      </trkpt>
      <trkpt lat="47.91732" lon="6.9262">
        <ele>1066</ele>
        <time>2026-05-09T12:03:48.447Z</time>
      </trkpt>
      <trkpt lat="47.91733" lon="6.92619">
        <ele>1067</ele>
        <time>2026-05-09T12:03:49.447Z</time>
      </trkpt>
      <trkpt lat="47.91734" lon="6.92618">
        <ele>1066</ele>
        <time>2026-05-09T12:03:50.447Z</time>
      </trkpt>
      <trkpt lat="47.91735" lon="6.92617">
        <ele>1066</ele>
        <time>2026-05-09T12:03:51.447Z</time>
      </trkpt>
      <trkpt lat="47.91736" lon="6.92616">
        <ele>1066</ele>
        <time>2026-05-09T12:03:52.448Z</time>
      </trkpt>
      <trkpt lat="47.91737" lon="6.92615">
        <ele>1066</ele>
        <time>2026-05-09T12:03:53.447Z</time>
      </trkpt>
      <trkpt lat="47.91737" lon="6.92614">
        <ele>1065</ele>
        <time>2026-05-09T12:03:54.447Z</time>
      </trkpt>
      <trkpt lat="47.91738" lon="6.92614">
        <ele>1065</ele>
        <time>2026-05-09T12:03:55.447Z</time>
      </trkpt>
      <trkpt lat="47.91738" lon="6.92613">
        <ele>1064</ele>
        <time>2026-05-09T12:03:56.447Z</time>
      </trkpt>
      <trkpt lat="47.91739" lon="6.92612">
        <ele>1064</ele>
        <time>2026-05-09T12:03:57.447Z</time>
      </trkpt>
      <trkpt lat="47.91739" lon="6.92611">
        <ele>1063</ele>
        <time>2026-05-09T12:03:58.448Z</time>
      </trkpt>
      <trkpt lat="47.9174" lon="6.92611">
        <ele>1062</ele>
        <time>2026-05-09T12:03:59.447Z</time>
      </trkpt>
      <trkpt lat="47.91741" lon="6.92611">
        <ele>1062</ele>
        <time>2026-05-09T12:04:00.447Z</time>
      </trkpt>
      <trkpt lat="47.91742" lon="6.9261">
        <ele>1062</ele>
        <time>2026-05-09T12:04:01.447Z</time>
      </trkpt>
      <trkpt lat="47.91743" lon="6.9261">
        <ele>1062</ele>
        <time>2026-05-09T12:04:02.448Z</time>
      </trkpt>
      <trkpt lat="47.91743" lon="6.92609">
        <ele>1061</ele>
        <time>2026-05-09T12:04:03.447Z</time>
      </trkpt>
      <trkpt lat="47.91744" lon="6.92608">
        <ele>1061</ele>
        <time>2026-05-09T12:04:04.447Z</time>
      </trkpt>
      <trkpt lat="47.91745" lon="6.92607">
        <ele>1061</ele>
        <time>2026-05-09T12:04:05.447Z</time>
      </trkpt>
      <trkpt lat="47.91746" lon="6.92606">
        <ele>1061</ele>
        <time>2026-05-09T12:04:06.447Z</time>
      </trkpt>
      <trkpt lat="47.91746" lon="6.92605">
        <ele>1060</ele>
        <time>2026-05-09T12:04:07.447Z</time>
      </trkpt>
      <trkpt lat="47.91747" lon="6.92603">
        <ele>1060</ele>
        <time>2026-05-09T12:04:08.448Z</time>
      </trkpt>
      <trkpt lat="47.91747" lon="6.92602">
        <ele>1060</ele>
        <time>2026-05-09T12:04:09.447Z</time>
      </trkpt>
      <trkpt lat="47.91747" lon="6.92601">
        <ele>1059</ele>
        <time>2026-05-09T12:04:10.447Z</time>
      </trkpt>
      <trkpt lat="47.91747" lon="6.926">
        <ele>1059</ele>
        <time>2026-05-09T12:04:11.447Z</time>
      </trkpt>
      <trkpt lat="47.91748" lon="6.92598">
        <ele>1059</ele>
        <time>2026-05-09T12:04:12.447Z</time>
      </trkpt>
      <trkpt lat="47.91748" lon="6.92597">
        <ele>1058</ele>
        <time>2026-05-09T12:04:13.447Z</time>
      </trkpt>
      <trkpt lat="47.91748" lon="6.92597">
        <ele>1058</ele>
        <time>2026-05-09T12:04:14.447Z</time>
      </trkpt>
      <trkpt lat="47.91749" lon="6.92596">
        <ele>1058</ele>
        <time>2026-05-09T12:04:15.447Z</time>
      </trkpt>
      <trkpt lat="47.9175" lon="6.92596">
        <ele>1057</ele>
        <time>2026-05-09T12:04:16.448Z</time>
      </trkpt>
      <trkpt lat="47.91751" lon="6.92595">
        <ele>1057</ele>
        <time>2026-05-09T12:04:17.448Z</time>
      </trkpt>
      <trkpt lat="47.91752" lon="6.92595">
        <ele>1057</ele>
        <time>2026-05-09T12:04:18.448Z</time>
      </trkpt>
      <trkpt lat="47.91753" lon="6.92596">
        <ele>1056</ele>
        <time>2026-05-09T12:04:19.447Z</time>
      </trkpt>
      <trkpt lat="47.91754" lon="6.92596">
        <ele>1056</ele>
        <time>2026-05-09T12:04:20.447Z</time>
      </trkpt>
      <trkpt lat="47.91754" lon="6.92596">
        <ele>1055</ele>
        <time>2026-05-09T12:04:21.447Z</time>
      </trkpt>
      <trkpt lat="47.91755" lon="6.92595">
        <ele>1055</ele>
        <time>2026-05-09T12:04:22.447Z</time>
      </trkpt>
      <trkpt lat="47.91755" lon="6.92594">
        <ele>1055</ele>
        <time>2026-05-09T12:04:23.447Z</time>
      </trkpt>
      <trkpt lat="47.91755" lon="6.92594">
        <ele>1055</ele>
        <time>2026-05-09T12:04:24.448Z</time>
      </trkpt>
      <trkpt lat="47.91756" lon="6.92593">
        <ele>1055</ele>
        <time>2026-05-09T12:04:25.447Z</time>
      </trkpt>
      <trkpt lat="47.91756" lon="6.92591">
        <ele>1055</ele>
        <time>2026-05-09T12:04:26.448Z</time>
      </trkpt>
      <trkpt lat="47.91756" lon="6.92591">
        <ele>1055</ele>
        <time>2026-05-09T12:04:27.447Z</time>
      </trkpt>
      <trkpt lat="47.91755" lon="6.92589">
        <ele>1056</ele>
        <time>2026-05-09T12:04:28.447Z</time>
      </trkpt>
      <trkpt lat="47.91755" lon="6.92588">
        <ele>1056</ele>
        <time>2026-05-09T12:04:29.448Z</time>
      </trkpt>
      <trkpt lat="47.91755" lon="6.92587">
        <ele>1056</ele>
        <time>2026-05-09T12:04:30.448Z</time>
      </trkpt>
      <trkpt lat="47.91755" lon="6.92586">
        <ele>1055</ele>
        <time>2026-05-09T12:04:31.447Z</time>
      </trkpt>
      <trkpt lat="47.91754" lon="6.92586">
        <ele>1055</ele>
        <time>2026-05-09T12:04:32.447Z</time>
      </trkpt>
      <trkpt lat="47.91754" lon="6.92585">
        <ele>1055</ele>
        <time>2026-05-09T12:04:33.447Z</time>
      </trkpt>
      <trkpt lat="47.91753" lon="6.92584">
        <ele>1055</ele>
        <time>2026-05-09T12:04:34.448Z</time>
      </trkpt>
      <trkpt lat="47.91753" lon="6.92584">
        <ele>1054</ele>
        <time>2026-05-09T12:04:35.447Z</time>
      </trkpt>
      <trkpt lat="47.91752" lon="6.92584">
        <ele>1054</ele>
        <time>2026-05-09T12:04:36.447Z</time>
      </trkpt>
      <trkpt lat="47.91752" lon="6.92582">
        <ele>1054</ele>
        <time>2026-05-09T12:04:37.447Z</time>
      </trkpt>
      <trkpt lat="47.91751" lon="6.92582">
        <ele>1054</ele>
        <time>2026-05-09T12:04:38.447Z</time>
      </trkpt>
      <trkpt lat="47.91751" lon="6.92581">
        <ele>1054</ele>
        <time>2026-05-09T12:04:39.447Z</time>
      </trkpt>
      <trkpt lat="47.91752" lon="6.9258">
        <ele>1054</ele>
        <time>2026-05-09T12:04:40.447Z</time>
      </trkpt>
      <trkpt lat="47.91752" lon="6.9258">
        <ele>1054</ele>
        <time>2026-05-09T12:04:41.448Z</time>
      </trkpt>
      <trkpt lat="47.91758" lon="6.92578">
        <ele>1050</ele>
        <time>2026-05-09T12:04:48.656Z</time>
      </trkpt>
      <trkpt lat="47.91758" lon="6.92578">
        <ele>1050</ele>
        <time>2026-05-09T12:04:49.656Z</time>
      </trkpt>
      <trkpt lat="47.91759" lon="6.92579">
        <ele>1050</ele>
        <time>2026-05-09T12:04:50.656Z</time>
      </trkpt>
      <trkpt lat="47.91759" lon="6.92579">
        <ele>1049</ele>
        <time>2026-05-09T12:04:51.656Z</time>
      </trkpt>
      <trkpt lat="47.91759" lon="6.92579">
        <ele>1049</ele>
        <time>2026-05-09T12:04:52.656Z</time>
      </trkpt>
      <trkpt lat="47.9176" lon="6.92578">
        <ele>1049</ele>
        <time>2026-05-09T12:04:53.656Z</time>
      </trkpt>
      <trkpt lat="47.9176" lon="6.92578">
        <ele>1048</ele>
        <time>2026-05-09T12:04:54.657Z</time>
      </trkpt>
      <trkpt lat="47.91761" lon="6.92578">
        <ele>1048</ele>
        <time>2026-05-09T12:04:55.657Z</time>
      </trkpt>
      <trkpt lat="47.91763" lon="6.92578">
        <ele>1048</ele>
        <time>2026-05-09T12:04:56.656Z</time>
      </trkpt>
      <trkpt lat="47.91765" lon="6.92577">
        <ele>1047</ele>
        <time>2026-05-09T12:04:57.656Z</time>
      </trkpt>
      <trkpt lat="47.91767" lon="6.92577">
        <ele>1047</ele>
        <time>2026-05-09T12:04:58.657Z</time>
      </trkpt>
      <trkpt lat="47.91768" lon="6.92575">
        <ele>1047</ele>
        <time>2026-05-09T12:04:59.657Z</time>
      </trkpt>
      <trkpt lat="47.9177" lon="6.92574">
        <ele>1046</ele>
        <time>2026-05-09T12:05:00.656Z</time>
      </trkpt>
      <trkpt lat="47.9177" lon="6.92572">
        <ele>1046</ele>
        <time>2026-05-09T12:05:01.656Z</time>
      </trkpt>
      <trkpt lat="47.9177" lon="6.92571">
        <ele>1045</ele>
        <time>2026-05-09T12:05:02.656Z</time>
      </trkpt>
      <trkpt lat="47.9177" lon="6.9257">
        <ele>1045</ele>
        <time>2026-05-09T12:05:03.656Z</time>
      </trkpt>
      <trkpt lat="47.91769" lon="6.9257">
        <ele>1045</ele>
        <time>2026-05-09T12:05:04.656Z</time>
      </trkpt>
      <trkpt lat="47.91768" lon="6.92568">
        <ele>1044</ele>
        <time>2026-05-09T12:05:05.656Z</time>
      </trkpt>
      <trkpt lat="47.91769" lon="6.92566">
        <ele>1044</ele>
        <time>2026-05-09T12:05:06.656Z</time>
      </trkpt>
      <trkpt lat="47.91769" lon="6.92565">
        <ele>1043</ele>
        <time>2026-05-09T12:05:07.656Z</time>
      </trkpt>
      <trkpt lat="47.91768" lon="6.92564">
        <ele>1042</ele>
        <time>2026-05-09T12:05:08.656Z</time>
      </trkpt>
      <trkpt lat="47.91768" lon="6.92563">
        <ele>1042</ele>
        <time>2026-05-09T12:05:09.656Z</time>
      </trkpt>
      <trkpt lat="47.91768" lon="6.92562">
        <ele>1041</ele>
        <time>2026-05-09T12:05:10.657Z</time>
      </trkpt>
      <trkpt lat="47.91766" lon="6.92561">
        <ele>1041</ele>
        <time>2026-05-09T12:05:11.657Z</time>
      </trkpt>
      <trkpt lat="47.91765" lon="6.9256">
        <ele>1040</ele>
        <time>2026-05-09T12:05:12.656Z</time>
      </trkpt>
      <trkpt lat="47.91765" lon="6.92558">
        <ele>1040</ele>
        <time>2026-05-09T12:05:13.656Z</time>
      </trkpt>
      <trkpt lat="47.91764" lon="6.92557">
        <ele>1039</ele>
        <time>2026-05-09T12:05:14.656Z</time>
      </trkpt>
      <trkpt lat="47.91764" lon="6.92556">
        <ele>1039</ele>
        <time>2026-05-09T12:05:15.656Z</time>
      </trkpt>
      <trkpt lat="47.91764" lon="6.92555">
        <ele>1039</ele>
        <time>2026-05-09T12:05:16.656Z</time>
      </trkpt>
      <trkpt lat="47.91764" lon="6.92554">
        <ele>1039</ele>
        <time>2026-05-09T12:05:17.656Z</time>
      </trkpt>
      <trkpt lat="47.91764" lon="6.92553">
        <ele>1039</ele>
        <time>2026-05-09T12:05:18.657Z</time>
      </trkpt>
      <trkpt lat="47.91763" lon="6.92551">
        <ele>1039</ele>
        <time>2026-05-09T12:05:19.657Z</time>
      </trkpt>
      <trkpt lat="47.91763" lon="6.9255">
        <ele>1039</ele>
        <time>2026-05-09T12:05:20.657Z</time>
      </trkpt>
      <trkpt lat="47.91763" lon="6.92548">
        <ele>1039</ele>
        <time>2026-05-09T12:05:21.657Z</time>
      </trkpt>
      <trkpt lat="47.91763" lon="6.92547">
        <ele>1039</ele>
        <time>2026-05-09T12:05:22.657Z</time>
      </trkpt>
      <trkpt lat="47.91763" lon="6.92544">
        <ele>1039</ele>
        <time>2026-05-09T12:05:23.657Z</time>
      </trkpt>
      <trkpt lat="47.91764" lon="6.92543">
        <ele>1040</ele>
        <time>2026-05-09T12:05:24.657Z</time>
      </trkpt>
      <trkpt lat="47.91764" lon="6.92542">
        <ele>1040</ele>
        <time>2026-05-09T12:05:25.656Z</time>
      </trkpt>
      <trkpt lat="47.91765" lon="6.92541">
        <ele>1040</ele>
        <time>2026-05-09T12:05:26.657Z</time>
      </trkpt>
      <trkpt lat="47.91766" lon="6.92541">
        <ele>1040</ele>
        <time>2026-05-09T12:05:27.656Z</time>
      </trkpt>
      <trkpt lat="47.91767" lon="6.9254">
        <ele>1040</ele>
        <time>2026-05-09T12:05:28.656Z</time>
      </trkpt>
      <trkpt lat="47.91769" lon="6.92539">
        <ele>1040</ele>
        <time>2026-05-09T12:05:29.656Z</time>
      </trkpt>
      <trkpt lat="47.9177" lon="6.92538">
        <ele>1040</ele>
        <time>2026-05-09T12:05:30.656Z</time>
      </trkpt>
      <trkpt lat="47.91771" lon="6.92538">
        <ele>1040</ele>
        <time>2026-05-09T12:05:31.656Z</time>
      </trkpt>
      <trkpt lat="47.91772" lon="6.92538">
        <ele>1040</ele>
        <time>2026-05-09T12:05:32.656Z</time>
      </trkpt>
      <trkpt lat="47.91773" lon="6.92538">
        <ele>1040</ele>
        <time>2026-05-09T12:05:33.656Z</time>
      </trkpt>
      <trkpt lat="47.91774" lon="6.92537">
        <ele>1040</ele>
        <time>2026-05-09T12:05:34.657Z</time>
      </trkpt>
      <trkpt lat="47.91776" lon="6.92536">
        <ele>1040</ele>
        <time>2026-05-09T12:05:35.657Z</time>
      </trkpt>
      <trkpt lat="47.91777" lon="6.92536">
        <ele>1040</ele>
        <time>2026-05-09T12:05:36.657Z</time>
      </trkpt>
      <trkpt lat="47.91778" lon="6.92536">
        <ele>1040</ele>
        <time>2026-05-09T12:05:37.657Z</time>
      </trkpt>
      <trkpt lat="47.91779" lon="6.92536">
        <ele>1040</ele>
        <time>2026-05-09T12:05:38.657Z</time>
      </trkpt>
      <trkpt lat="47.91781" lon="6.92535">
        <ele>1040</ele>
        <time>2026-05-09T12:05:39.657Z</time>
      </trkpt>
      <trkpt lat="47.91782" lon="6.92535">
        <ele>1039</ele>
        <time>2026-05-09T12:05:40.656Z</time>
      </trkpt>
      <trkpt lat="47.91784" lon="6.92534">
        <ele>1039</ele>
        <time>2026-05-09T12:05:41.656Z</time>
      </trkpt>
      <trkpt lat="47.91785" lon="6.92535">
        <ele>1039</ele>
        <time>2026-05-09T12:05:42.656Z</time>
      </trkpt>
      <trkpt lat="47.91786" lon="6.92535">
        <ele>1038</ele>
        <time>2026-05-09T12:05:43.656Z</time>
      </trkpt>
      <trkpt lat="47.91787" lon="6.92536">
        <ele>1038</ele>
        <time>2026-05-09T12:05:44.656Z</time>
      </trkpt>
      <trkpt lat="47.91788" lon="6.92536">
        <ele>1037</ele>
        <time>2026-05-09T12:05:45.656Z</time>
      </trkpt>
      <trkpt lat="47.9179" lon="6.92537">
        <ele>1037</ele>
        <time>2026-05-09T12:05:46.656Z</time>
      </trkpt>
      <trkpt lat="47.91791" lon="6.92538">
        <ele>1036</ele>
        <time>2026-05-09T12:05:47.656Z</time>
      </trkpt>
      <trkpt lat="47.91793" lon="6.9254">
        <ele>1036</ele>
        <time>2026-05-09T12:05:48.656Z</time>
      </trkpt>
      <trkpt lat="47.91794" lon="6.92541">
        <ele>1035</ele>
        <time>2026-05-09T12:05:49.656Z</time>
      </trkpt>
      <trkpt lat="47.91794" lon="6.9254">
        <ele>1035</ele>
        <time>2026-05-09T12:05:50.657Z</time>
      </trkpt>
      <trkpt lat="47.91795" lon="6.9254">
        <ele>1034</ele>
        <time>2026-05-09T12:05:51.657Z</time>
      </trkpt>
      <trkpt lat="47.91797" lon="6.92541">
        <ele>1033</ele>
        <time>2026-05-09T12:05:52.657Z</time>
      </trkpt>
      <trkpt lat="47.91799" lon="6.92542">
        <ele>1033</ele>
        <time>2026-05-09T12:05:53.657Z</time>
      </trkpt>
      <trkpt lat="47.91801" lon="6.92542">
        <ele>1032</ele>
        <time>2026-05-09T12:05:54.657Z</time>
      </trkpt>
      <trkpt lat="47.91802" lon="6.92542">
        <ele>1032</ele>
        <time>2026-05-09T12:05:55.657Z</time>
      </trkpt>
      <trkpt lat="47.91803" lon="6.9254">
        <ele>1031</ele>
        <time>2026-05-09T12:05:56.657Z</time>
      </trkpt>
      <trkpt lat="47.91803" lon="6.92539">
        <ele>1030</ele>
        <time>2026-05-09T12:05:57.656Z</time>
      </trkpt>
      <trkpt lat="47.91803" lon="6.92537">
        <ele>1029</ele>
        <time>2026-05-09T12:05:58.656Z</time>
      </trkpt>
      <trkpt lat="47.91803" lon="6.92536">
        <ele>1029</ele>
        <time>2026-05-09T12:05:59.656Z</time>
      </trkpt>
      <trkpt lat="47.91803" lon="6.92535">
        <ele>1028</ele>
        <time>2026-05-09T12:06:00.656Z</time>
      </trkpt>
      <trkpt lat="47.91803" lon="6.92533">
        <ele>1027</ele>
        <time>2026-05-09T12:06:01.656Z</time>
      </trkpt>
      <trkpt lat="47.91804" lon="6.92531">
        <ele>1027</ele>
        <time>2026-05-09T12:06:02.656Z</time>
      </trkpt>
      <trkpt lat="47.91804" lon="6.92529">
        <ele>1026</ele>
        <time>2026-05-09T12:06:03.656Z</time>
      </trkpt>
      <trkpt lat="47.91804" lon="6.92527">
        <ele>1026</ele>
        <time>2026-05-09T12:06:04.656Z</time>
      </trkpt>
      <trkpt lat="47.91804" lon="6.92525">
        <ele>1025</ele>
        <time>2026-05-09T12:06:05.656Z</time>
      </trkpt>
      <trkpt lat="47.91804" lon="6.92523">
        <ele>1025</ele>
        <time>2026-05-09T12:06:06.656Z</time>
      </trkpt>
      <trkpt lat="47.91803" lon="6.92521">
        <ele>1025</ele>
        <time>2026-05-09T12:06:07.657Z</time>
      </trkpt>
      <trkpt lat="47.91803" lon="6.9252">
        <ele>1024</ele>
        <time>2026-05-09T12:06:08.657Z</time>
      </trkpt>
      <trkpt lat="47.91802" lon="6.92518">
        <ele>1024</ele>
        <time>2026-05-09T12:06:09.656Z</time>
      </trkpt>
      <trkpt lat="47.91802" lon="6.92516">
        <ele>1024</ele>
        <time>2026-05-09T12:06:10.656Z</time>
      </trkpt>
      <trkpt lat="47.91801" lon="6.92513">
        <ele>1023</ele>
        <time>2026-05-09T12:06:11.656Z</time>
      </trkpt>
      <trkpt lat="47.91801" lon="6.9251">
        <ele>1023</ele>
        <time>2026-05-09T12:06:12.656Z</time>
      </trkpt>
      <trkpt lat="47.918" lon="6.92507">
        <ele>1022</ele>
        <time>2026-05-09T12:06:13.656Z</time>
      </trkpt>
      <trkpt lat="47.91799" lon="6.92504">
        <ele>1021</ele>
        <time>2026-05-09T12:06:14.656Z</time>
      </trkpt>
      <trkpt lat="47.91798" lon="6.92501">
        <ele>1021</ele>
        <time>2026-05-09T12:06:15.656Z</time>
      </trkpt>
      <trkpt lat="47.91798" lon="6.92497">
        <ele>1020</ele>
        <time>2026-05-09T12:06:16.656Z</time>
      </trkpt>
      <trkpt lat="47.91798" lon="6.92495">
        <ele>1020</ele>
        <time>2026-05-09T12:06:17.657Z</time>
      </trkpt>
      <trkpt lat="47.91798" lon="6.92491">
        <ele>1020</ele>
        <time>2026-05-09T12:06:18.657Z</time>
      </trkpt>
      <trkpt lat="47.91799" lon="6.92488">
        <ele>1020</ele>
        <time>2026-05-09T12:06:19.657Z</time>
      </trkpt>
      <trkpt lat="47.91799" lon="6.92484">
        <ele>1020</ele>
        <time>2026-05-09T12:06:20.657Z</time>
      </trkpt>
      <trkpt lat="47.91798" lon="6.92482">
        <ele>1020</ele>
        <time>2026-05-09T12:06:21.657Z</time>
      </trkpt>
      <trkpt lat="47.91797" lon="6.9248">
        <ele>1020</ele>
        <time>2026-05-09T12:06:22.657Z</time>
      </trkpt>
      <trkpt lat="47.91796" lon="6.92479">
        <ele>1019</ele>
        <time>2026-05-09T12:06:23.656Z</time>
      </trkpt>
      <trkpt lat="47.91795" lon="6.92477">
        <ele>1019</ele>
        <time>2026-05-09T12:06:24.657Z</time>
      </trkpt>
      <trkpt lat="47.91794" lon="6.92474">
        <ele>1019</ele>
        <time>2026-05-09T12:06:25.657Z</time>
      </trkpt>
      <trkpt lat="47.91793" lon="6.92471">
        <ele>1018</ele>
        <time>2026-05-09T12:06:26.656Z</time>
      </trkpt>
      <trkpt lat="47.91793" lon="6.92468">
        <ele>1018</ele>
        <time>2026-05-09T12:06:27.657Z</time>
      </trkpt>
      <trkpt lat="47.91793" lon="6.92465">
        <ele>1018</ele>
        <time>2026-05-09T12:06:28.657Z</time>
      </trkpt>
      <trkpt lat="47.91793" lon="6.92463">
        <ele>1017</ele>
        <time>2026-05-09T12:06:29.657Z</time>
      </trkpt>
      <trkpt lat="47.91793" lon="6.92462">
        <ele>1017</ele>
        <time>2026-05-09T12:06:30.656Z</time>
      </trkpt>
      <trkpt lat="47.91793" lon="6.9246">
        <ele>1017</ele>
        <time>2026-05-09T12:06:31.656Z</time>
      </trkpt>
      <trkpt lat="47.91792" lon="6.92459">
        <ele>1017</ele>
        <time>2026-05-09T12:06:32.657Z</time>
      </trkpt>
      <trkpt lat="47.91791" lon="6.92457">
        <ele>1017</ele>
        <time>2026-05-09T12:06:33.657Z</time>
      </trkpt>
      <trkpt lat="47.9179" lon="6.92455">
        <ele>1017</ele>
        <time>2026-05-09T12:06:34.657Z</time>
      </trkpt>
      <trkpt lat="47.91789" lon="6.92452">
        <ele>1017</ele>
        <time>2026-05-09T12:06:35.656Z</time>
      </trkpt>
      <trkpt lat="47.91788" lon="6.92449">
        <ele>1017</ele>
        <time>2026-05-09T12:06:36.656Z</time>
      </trkpt>
      <trkpt lat="47.91787" lon="6.92446">
        <ele>1017</ele>
        <time>2026-05-09T12:06:37.656Z</time>
      </trkpt>
      <trkpt lat="47.91785" lon="6.92443">
        <ele>1017</ele>
        <time>2026-05-09T12:06:38.656Z</time>
      </trkpt>
      <trkpt lat="47.91784" lon="6.92441">
        <ele>1016</ele>
        <time>2026-05-09T12:06:39.656Z</time>
      </trkpt>
      <trkpt lat="47.91783" lon="6.92438">
        <ele>1016</ele>
        <time>2026-05-09T12:06:40.656Z</time>
      </trkpt>
      <trkpt lat="47.91782" lon="6.92435">
        <ele>1016</ele>
        <time>2026-05-09T12:06:41.656Z</time>
      </trkpt>
      <trkpt lat="47.91782" lon="6.92432">
        <ele>1016</ele>
        <time>2026-05-09T12:06:42.657Z</time>
      </trkpt>
      <trkpt lat="47.91782" lon="6.9243">
        <ele>1015</ele>
        <time>2026-05-09T12:06:43.657Z</time>
      </trkpt>
      <trkpt lat="47.91782" lon="6.92427">
        <ele>1015</ele>
        <time>2026-05-09T12:06:44.657Z</time>
      </trkpt>
      <trkpt lat="47.91782" lon="6.92425">
        <ele>1014</ele>
        <time>2026-05-09T12:06:45.657Z</time>
      </trkpt>
      <trkpt lat="47.91782" lon="6.92423">
        <ele>1014</ele>
        <time>2026-05-09T12:06:46.657Z</time>
      </trkpt>
      <trkpt lat="47.91782" lon="6.92422">
        <ele>1013</ele>
        <time>2026-05-09T12:06:47.657Z</time>
      </trkpt>
      <trkpt lat="47.91783" lon="6.9242">
        <ele>1012</ele>
        <time>2026-05-09T12:06:48.657Z</time>
      </trkpt>
      <trkpt lat="47.91783" lon="6.92418">
        <ele>1012</ele>
        <time>2026-05-09T12:06:49.657Z</time>
      </trkpt>
      <trkpt lat="47.91783" lon="6.92416">
        <ele>1011</ele>
        <time>2026-05-09T12:06:50.656Z</time>
      </trkpt>
      <trkpt lat="47.91783" lon="6.92415">
        <ele>1011</ele>
        <time>2026-05-09T12:06:51.657Z</time>
      </trkpt>
      <trkpt lat="47.91782" lon="6.92413">
        <ele>1010</ele>
        <time>2026-05-09T12:06:52.656Z</time>
      </trkpt>
      <trkpt lat="47.91781" lon="6.92411">
        <ele>1009</ele>
        <time>2026-05-09T12:06:53.657Z</time>
      </trkpt>
      <trkpt lat="47.9178" lon="6.92409">
        <ele>1009</ele>
        <time>2026-05-09T12:06:54.657Z</time>
      </trkpt>
      <trkpt lat="47.91779" lon="6.92407">
        <ele>1008</ele>
        <time>2026-05-09T12:06:55.657Z</time>
      </trkpt>
      <trkpt lat="47.91778" lon="6.92405">
        <ele>1008</ele>
        <time>2026-05-09T12:06:56.657Z</time>
      </trkpt>
      <trkpt lat="47.91776" lon="6.92403">
        <ele>1007</ele>
        <time>2026-05-09T12:06:57.656Z</time>
      </trkpt>
      <trkpt lat="47.91774" lon="6.92399">
        <ele>1007</ele>
        <time>2026-05-09T12:06:58.656Z</time>
      </trkpt>
      <trkpt lat="47.91772" lon="6.92395">
        <ele>1006</ele>
        <time>2026-05-09T12:06:59.656Z</time>
      </trkpt>
      <trkpt lat="47.9177" lon="6.92392">
        <ele>1006</ele>
        <time>2026-05-09T12:07:00.656Z</time>
      </trkpt>
      <trkpt lat="47.91768" lon="6.92389">
        <ele>1006</ele>
        <time>2026-05-09T12:07:01.656Z</time>
      </trkpt>
      <trkpt lat="47.91766" lon="6.92387">
        <ele>1005</ele>
        <time>2026-05-09T12:07:02.656Z</time>
      </trkpt>
      <trkpt lat="47.91764" lon="6.92385">
        <ele>1005</ele>
        <time>2026-05-09T12:07:03.656Z</time>
      </trkpt>
      <trkpt lat="47.91763" lon="6.92383">
        <ele>1004</ele>
        <time>2026-05-09T12:07:04.656Z</time>
      </trkpt>
      <trkpt lat="47.91762" lon="6.9238">
        <ele>1003</ele>
        <time>2026-05-09T12:07:05.657Z</time>
      </trkpt>
      <trkpt lat="47.91761" lon="6.92376">
        <ele>1003</ele>
        <time>2026-05-09T12:07:06.657Z</time>
      </trkpt>
      <trkpt lat="47.91758" lon="6.92373">
        <ele>1002</ele>
        <time>2026-05-09T12:07:07.657Z</time>
      </trkpt>
      <trkpt lat="47.91754" lon="6.92369">
        <ele>1002</ele>
        <time>2026-05-09T12:07:08.657Z</time>
      </trkpt>
      <trkpt lat="47.9175" lon="6.92366">
        <ele>1001</ele>
        <time>2026-05-09T12:07:09.656Z</time>
      </trkpt>
      <trkpt lat="47.91746" lon="6.92364">
        <ele>1000</ele>
        <time>2026-05-09T12:07:10.657Z</time>
      </trkpt>
      <trkpt lat="47.91743" lon="6.92361">
        <ele>1000</ele>
        <time>2026-05-09T12:07:11.657Z</time>
      </trkpt>
      <trkpt lat="47.91741" lon="6.92358">
        <ele>999</ele>
        <time>2026-05-09T12:07:12.657Z</time>
      </trkpt>
      <trkpt lat="47.91738" lon="6.92355">
        <ele>999</ele>
        <time>2026-05-09T12:07:13.657Z</time>
      </trkpt>
      <trkpt lat="47.91736" lon="6.92352">
        <ele>999</ele>
        <time>2026-05-09T12:07:14.657Z</time>
      </trkpt>
      <trkpt lat="47.91733" lon="6.9235">
        <ele>998</ele>
        <time>2026-05-09T12:07:15.656Z</time>
      </trkpt>
      <trkpt lat="47.91729" lon="6.92348">
        <ele>998</ele>
        <time>2026-05-09T12:07:16.656Z</time>
      </trkpt>
      <trkpt lat="47.91726" lon="6.92347">
        <ele>998</ele>
        <time>2026-05-09T12:07:17.657Z</time>
      </trkpt>
      <trkpt lat="47.91723" lon="6.92348">
        <ele>998</ele>
        <time>2026-05-09T12:07:18.657Z</time>
      </trkpt>
      <trkpt lat="47.9172" lon="6.92346">
        <ele>998</ele>
        <time>2026-05-09T12:07:19.657Z</time>
      </trkpt>
      <trkpt lat="47.91719" lon="6.92343">
        <ele>998</ele>
        <time>2026-05-09T12:07:20.657Z</time>
      </trkpt>
      <trkpt lat="47.91718" lon="6.92341">
        <ele>998</ele>
        <time>2026-05-09T12:07:21.657Z</time>
      </trkpt>
      <trkpt lat="47.91718" lon="6.9234">
        <ele>998</ele>
        <time>2026-05-09T12:07:22.656Z</time>
      </trkpt>
      <trkpt lat="47.91718" lon="6.92341">
        <ele>998</ele>
        <time>2026-05-09T12:07:23.656Z</time>
      </trkpt>
      <trkpt lat="47.91716" lon="6.9234">
        <ele>997</ele>
        <time>2026-05-09T12:07:24.656Z</time>
      </trkpt>
      <trkpt lat="47.91713" lon="6.92339">
        <ele>997</ele>
        <time>2026-05-09T12:07:25.656Z</time>
      </trkpt>
      <trkpt lat="47.91712" lon="6.9234">
        <ele>997</ele>
        <time>2026-05-09T12:07:26.656Z</time>
      </trkpt>
      <trkpt lat="47.9171" lon="6.92338">
        <ele>997</ele>
        <time>2026-05-09T12:07:27.656Z</time>
      </trkpt>
      <trkpt lat="47.91708" lon="6.92337">
        <ele>997</ele>
        <time>2026-05-09T12:07:28.656Z</time>
      </trkpt>
      <trkpt lat="47.91708" lon="6.92337">
        <ele>997</ele>
        <time>2026-05-09T12:07:29.656Z</time>
      </trkpt>
      <trkpt lat="47.91707" lon="6.92336">
        <ele>997</ele>
        <time>2026-05-09T12:07:30.656Z</time>
      </trkpt>
      <trkpt lat="47.91711" lon="6.92332">
        <ele>997</ele>
        <time>2026-05-09T12:07:31.657Z</time>
      </trkpt>
      <trkpt lat="47.91712" lon="6.92329">
        <ele>997</ele>
        <time>2026-05-09T12:07:32.657Z</time>
      </trkpt>
      <trkpt lat="47.91712" lon="6.92327">
        <ele>997</ele>
        <time>2026-05-09T12:07:33.656Z</time>
      </trkpt>
      <trkpt lat="47.91714" lon="6.92326">
        <ele>997</ele>
        <time>2026-05-09T12:07:34.657Z</time>
      </trkpt>
      <trkpt lat="47.91716" lon="6.92323">
        <ele>998</ele>
        <time>2026-05-09T12:07:35.657Z</time>
      </trkpt>
      <trkpt lat="47.91717" lon="6.92321">
        <ele>998</ele>
        <time>2026-05-09T12:07:36.657Z</time>
      </trkpt>
      <trkpt lat="47.91718" lon="6.92319">
        <ele>998</ele>
        <time>2026-05-09T12:07:37.656Z</time>
      </trkpt>
      <trkpt lat="47.91721" lon="6.92316">
        <ele>998</ele>
        <time>2026-05-09T12:07:38.656Z</time>
      </trkpt>
      <trkpt lat="47.91723" lon="6.92313">
        <ele>998</ele>
        <time>2026-05-09T12:07:39.657Z</time>
      </trkpt>
      <trkpt lat="47.91725" lon="6.92309">
        <ele>998</ele>
        <time>2026-05-09T12:07:40.656Z</time>
      </trkpt>
      <trkpt lat="47.91726" lon="6.92306">
        <ele>999</ele>
        <time>2026-05-09T12:07:41.657Z</time>
      </trkpt>
      <trkpt lat="47.91727" lon="6.92305">
        <ele>999</ele>
        <time>2026-05-09T12:07:42.657Z</time>
      </trkpt>
      <trkpt lat="47.91727" lon="6.92304">
        <ele>999</ele>
        <time>2026-05-09T12:07:43.657Z</time>
      </trkpt>
      <trkpt lat="47.91729" lon="6.92303">
        <ele>999</ele>
        <time>2026-05-09T12:07:44.656Z</time>
      </trkpt>
      <trkpt lat="47.9173" lon="6.92303">
        <ele>999</ele>
        <time>2026-05-09T12:07:45.657Z</time>
      </trkpt>
      <trkpt lat="47.91731" lon="6.92302">
        <ele>999</ele>
        <time>2026-05-09T12:07:46.657Z</time>
      </trkpt>
      <trkpt lat="47.91731" lon="6.92301">
        <ele>998</ele>
        <time>2026-05-09T12:07:47.656Z</time>
      </trkpt>
      <trkpt lat="47.91731" lon="6.923">
        <ele>998</ele>
        <time>2026-05-09T12:07:48.657Z</time>
      </trkpt>
      <trkpt lat="47.91732" lon="6.923">
        <ele>997</ele>
        <time>2026-05-09T12:07:49.656Z</time>
      </trkpt>
      <trkpt lat="47.91734" lon="6.92297">
        <ele>997</ele>
        <time>2026-05-09T12:07:50.656Z</time>
      </trkpt>
      <trkpt lat="47.91736" lon="6.92295">
        <ele>996</ele>
        <time>2026-05-09T12:07:51.656Z</time>
      </trkpt>
      <trkpt lat="47.91737" lon="6.92294">
        <ele>996</ele>
        <time>2026-05-09T12:07:52.656Z</time>
      </trkpt>
      <trkpt lat="47.91738" lon="6.9229">
        <ele>995</ele>
        <time>2026-05-09T12:07:53.656Z</time>
      </trkpt>
      <trkpt lat="47.91738" lon="6.92287">
        <ele>995</ele>
        <time>2026-05-09T12:07:54.656Z</time>
      </trkpt>
      <trkpt lat="47.91738" lon="6.92284">
        <ele>995</ele>
        <time>2026-05-09T12:07:55.657Z</time>
      </trkpt>
      <trkpt lat="47.91738" lon="6.92284">
        <ele>995</ele>
        <time>2026-05-09T12:07:56.657Z</time>
      </trkpt>
      <trkpt lat="47.91741" lon="6.92281">
        <ele>995</ele>
        <time>2026-05-09T12:07:57.657Z</time>
      </trkpt>
      <trkpt lat="47.91744" lon="6.92283">
        <ele>995</ele>
        <time>2026-05-09T12:07:58.657Z</time>
      </trkpt>
      <trkpt lat="47.9175" lon="6.92287">
        <ele>994</ele>
        <time>2026-05-09T12:07:59.657Z</time>
      </trkpt>
      <trkpt lat="47.91752" lon="6.92288">
        <ele>994</ele>
        <time>2026-05-09T12:08:00.657Z</time>
      </trkpt>
      <trkpt lat="47.91752" lon="6.92288">
        <ele>994</ele>
        <time>2026-05-09T12:08:01.657Z</time>
      </trkpt>
      <trkpt lat="47.91756" lon="6.9229">
        <ele>994</ele>
        <time>2026-05-09T12:08:02.656Z</time>
      </trkpt>
      <trkpt lat="47.91756" lon="6.92288">
        <ele>994</ele>
        <time>2026-05-09T12:08:03.656Z</time>
      </trkpt>
      <trkpt lat="47.91757" lon="6.92287">
        <ele>993</ele>
        <time>2026-05-09T12:08:04.657Z</time>
      </trkpt>
      <trkpt lat="47.91757" lon="6.92287">
        <ele>993</ele>
        <time>2026-05-09T12:08:05.657Z</time>
      </trkpt>
      <trkpt lat="47.91759" lon="6.92286">
        <ele>992</ele>
        <time>2026-05-09T12:08:06.657Z</time>
      </trkpt>
      <trkpt lat="47.9176" lon="6.92285">
        <ele>992</ele>
        <time>2026-05-09T12:08:07.657Z</time>
      </trkpt>
      <trkpt lat="47.91762" lon="6.92285">
        <ele>991</ele>
        <time>2026-05-09T12:08:08.656Z</time>
      </trkpt>
      <trkpt lat="47.91763" lon="6.92285">
        <ele>991</ele>
        <time>2026-05-09T12:08:09.656Z</time>
      </trkpt>
      <trkpt lat="47.91765" lon="6.92286">
        <ele>990</ele>
        <time>2026-05-09T12:08:10.656Z</time>
      </trkpt>
      <trkpt lat="47.91766" lon="6.92286">
        <ele>989</ele>
        <time>2026-05-09T12:08:11.656Z</time>
      </trkpt>
      <trkpt lat="47.91768" lon="6.92286">
        <ele>989</ele>
        <time>2026-05-09T12:08:12.656Z</time>
      </trkpt>
      <trkpt lat="47.91769" lon="6.92286">
        <ele>989</ele>
        <time>2026-05-09T12:08:13.657Z</time>
      </trkpt>
      <trkpt lat="47.9177" lon="6.92286">
        <ele>989</ele>
        <time>2026-05-09T12:08:14.657Z</time>
      </trkpt>
      <trkpt lat="47.91771" lon="6.92287">
        <ele>989</ele>
        <time>2026-05-09T12:08:15.657Z</time>
      </trkpt>
      <trkpt lat="47.91772" lon="6.92288">
        <ele>988</ele>
        <time>2026-05-09T12:08:16.657Z</time>
      </trkpt>
      <trkpt lat="47.91773" lon="6.92289">
        <ele>988</ele>
        <time>2026-05-09T12:08:17.657Z</time>
      </trkpt>
      <trkpt lat="47.91774" lon="6.9229">
        <ele>988</ele>
        <time>2026-05-09T12:08:18.657Z</time>
      </trkpt>
      <trkpt lat="47.91776" lon="6.92291">
        <ele>987</ele>
        <time>2026-05-09T12:08:19.656Z</time>
      </trkpt>
      <trkpt lat="47.91778" lon="6.92291">
        <ele>987</ele>
        <time>2026-05-09T12:08:20.656Z</time>
      </trkpt>
      <trkpt lat="47.91779" lon="6.92292">
        <ele>986</ele>
        <time>2026-05-09T12:08:21.657Z</time>
      </trkpt>
      <trkpt lat="47.9178" lon="6.92292">
        <ele>986</ele>
        <time>2026-05-09T12:08:22.656Z</time>
      </trkpt>
      <trkpt lat="47.91781" lon="6.92291">
        <ele>985</ele>
        <time>2026-05-09T12:08:23.656Z</time>
      </trkpt>
      <trkpt lat="47.91782" lon="6.92291">
        <ele>985</ele>
        <time>2026-05-09T12:08:24.656Z</time>
      </trkpt>
      <trkpt lat="47.91784" lon="6.92291">
        <ele>985</ele>
        <time>2026-05-09T12:08:25.656Z</time>
      </trkpt>
      <trkpt lat="47.91784" lon="6.92291">
        <ele>984</ele>
        <time>2026-05-09T12:08:26.656Z</time>
      </trkpt>
      <trkpt lat="47.91785" lon="6.9229">
        <ele>984</ele>
        <time>2026-05-09T12:08:27.656Z</time>
      </trkpt>
      <trkpt lat="47.91787" lon="6.9229">
        <ele>984</ele>
        <time>2026-05-09T12:08:28.657Z</time>
      </trkpt>
      <trkpt lat="47.91788" lon="6.92289">
        <ele>984</ele>
        <time>2026-05-09T12:08:29.656Z</time>
      </trkpt>
      <trkpt lat="47.91789" lon="6.92288">
        <ele>984</ele>
        <time>2026-05-09T12:08:30.657Z</time>
      </trkpt>
      <trkpt lat="47.9179" lon="6.92286">
        <ele>984</ele>
        <time>2026-05-09T12:08:31.656Z</time>
      </trkpt>
      <trkpt lat="47.91791" lon="6.92284">
        <ele>984</ele>
        <time>2026-05-09T12:08:32.657Z</time>
      </trkpt>
      <trkpt lat="47.91792" lon="6.92282">
        <ele>984</ele>
        <time>2026-05-09T12:08:33.656Z</time>
      </trkpt>
      <trkpt lat="47.91793" lon="6.9228">
        <ele>984</ele>
        <time>2026-05-09T12:08:34.656Z</time>
      </trkpt>
      <trkpt lat="47.91793" lon="6.92278">
        <ele>984</ele>
        <time>2026-05-09T12:08:35.656Z</time>
      </trkpt>
      <trkpt lat="47.91794" lon="6.92277">
        <ele>984</ele>
        <time>2026-05-09T12:08:36.657Z</time>
      </trkpt>
      <trkpt lat="47.91795" lon="6.92275">
        <ele>984</ele>
        <time>2026-05-09T12:08:37.656Z</time>
      </trkpt>
      <trkpt lat="47.91796" lon="6.92272">
        <ele>984</ele>
        <time>2026-05-09T12:08:38.656Z</time>
      </trkpt>
      <trkpt lat="47.91796" lon="6.9227">
        <ele>985</ele>
        <time>2026-05-09T12:08:39.657Z</time>
      </trkpt>
      <trkpt lat="47.91798" lon="6.92267">
        <ele>985</ele>
        <time>2026-05-09T12:08:40.656Z</time>
      </trkpt>
      <trkpt lat="47.91798" lon="6.92265">
        <ele>985</ele>
        <time>2026-05-09T12:08:41.656Z</time>
      </trkpt>
      <trkpt lat="47.91799" lon="6.92263">
        <ele>986</ele>
        <time>2026-05-09T12:08:42.656Z</time>
      </trkpt>
      <trkpt lat="47.918" lon="6.9226">
        <ele>986</ele>
        <time>2026-05-09T12:08:43.657Z</time>
      </trkpt>
      <trkpt lat="47.91801" lon="6.92257">
        <ele>986</ele>
        <time>2026-05-09T12:08:44.656Z</time>
      </trkpt>
      <trkpt lat="47.91802" lon="6.92255">
        <ele>986</ele>
        <time>2026-05-09T12:08:45.657Z</time>
      </trkpt>
      <trkpt lat="47.91803" lon="6.92253">
        <ele>987</ele>
        <time>2026-05-09T12:08:46.656Z</time>
      </trkpt>
      <trkpt lat="47.91803" lon="6.92251">
        <ele>987</ele>
        <time>2026-05-09T12:08:47.657Z</time>
      </trkpt>
      <trkpt lat="47.91802" lon="6.92249">
        <ele>987</ele>
        <time>2026-05-09T12:08:48.657Z</time>
      </trkpt>
      <trkpt lat="47.91802" lon="6.92247">
        <ele>987</ele>
        <time>2026-05-09T12:08:49.657Z</time>
      </trkpt>
      <trkpt lat="47.91804" lon="6.92246">
        <ele>988</ele>
        <time>2026-05-09T12:08:50.656Z</time>
      </trkpt>
      <trkpt lat="47.91804" lon="6.92244">
        <ele>988</ele>
        <time>2026-05-09T12:08:51.657Z</time>
      </trkpt>
      <trkpt lat="47.91805" lon="6.92243">
        <ele>988</ele>
        <time>2026-05-09T12:08:52.656Z</time>
      </trkpt>
      <trkpt lat="47.91806" lon="6.92242">
        <ele>988</ele>
        <time>2026-05-09T12:08:53.657Z</time>
      </trkpt>
      <trkpt lat="47.91806" lon="6.9224">
        <ele>988</ele>
        <time>2026-05-09T12:08:54.657Z</time>
      </trkpt>
      <trkpt lat="47.91807" lon="6.92239">
        <ele>988</ele>
        <time>2026-05-09T12:08:55.656Z</time>
      </trkpt>
      <trkpt lat="47.91807" lon="6.92237">
        <ele>988</ele>
        <time>2026-05-09T12:08:56.656Z</time>
      </trkpt>
      <trkpt lat="47.91808" lon="6.92235">
        <ele>988</ele>
        <time>2026-05-09T12:08:57.656Z</time>
      </trkpt>
      <trkpt lat="47.91808" lon="6.92233">
        <ele>988</ele>
        <time>2026-05-09T12:08:58.656Z</time>
      </trkpt>
      <trkpt lat="47.91808" lon="6.92231">
        <ele>988</ele>
        <time>2026-05-09T12:08:59.656Z</time>
      </trkpt>
      <trkpt lat="47.91809" lon="6.92229">
        <ele>987</ele>
        <time>2026-05-09T12:09:00.657Z</time>
      </trkpt>
      <trkpt lat="47.91809" lon="6.92228">
        <ele>987</ele>
        <time>2026-05-09T12:09:01.656Z</time>
      </trkpt>
      <trkpt lat="47.91811" lon="6.92226">
        <ele>987</ele>
        <time>2026-05-09T12:09:02.657Z</time>
      </trkpt>
      <trkpt lat="47.91812" lon="6.92225">
        <ele>986</ele>
        <time>2026-05-09T12:09:03.656Z</time>
      </trkpt>
      <trkpt lat="47.91813" lon="6.92223">
        <ele>985</ele>
        <time>2026-05-09T12:09:04.657Z</time>
      </trkpt>
      <trkpt lat="47.91814" lon="6.92221">
        <ele>985</ele>
        <time>2026-05-09T12:09:05.657Z</time>
      </trkpt>
      <trkpt lat="47.91816" lon="6.92219">
        <ele>984</ele>
        <time>2026-05-09T12:09:06.657Z</time>
      </trkpt>
      <trkpt lat="47.91816" lon="6.92216">
        <ele>984</ele>
        <time>2026-05-09T12:09:07.656Z</time>
      </trkpt>
      <trkpt lat="47.91816" lon="6.92214">
        <ele>983</ele>
        <time>2026-05-09T12:09:08.657Z</time>
      </trkpt>
      <trkpt lat="47.91817" lon="6.92212">
        <ele>983</ele>
        <time>2026-05-09T12:09:09.656Z</time>
      </trkpt>
      <trkpt lat="47.91817" lon="6.9221">
        <ele>982</ele>
        <time>2026-05-09T12:09:10.656Z</time>
      </trkpt>
      <trkpt lat="47.91818" lon="6.92208">
        <ele>981</ele>
        <time>2026-05-09T12:09:11.656Z</time>
      </trkpt>
      <trkpt lat="47.91819" lon="6.92206">
        <ele>980</ele>
        <time>2026-05-09T12:09:12.656Z</time>
      </trkpt>
      <trkpt lat="47.9182" lon="6.92204">
        <ele>980</ele>
        <time>2026-05-09T12:09:13.657Z</time>
      </trkpt>
      <trkpt lat="47.9182" lon="6.92202">
        <ele>979</ele>
        <time>2026-05-09T12:09:14.656Z</time>
      </trkpt>
      <trkpt lat="47.91821" lon="6.922">
        <ele>978</ele>
        <time>2026-05-09T12:09:15.657Z</time>
      </trkpt>
      <trkpt lat="47.91822" lon="6.92198">
        <ele>978</ele>
        <time>2026-05-09T12:09:16.656Z</time>
      </trkpt>
      <trkpt lat="47.91822" lon="6.92195">
        <ele>978</ele>
        <time>2026-05-09T12:09:17.657Z</time>
      </trkpt>
      <trkpt lat="47.91822" lon="6.92192">
        <ele>977</ele>
        <time>2026-05-09T12:09:18.656Z</time>
      </trkpt>
      <trkpt lat="47.91823" lon="6.9219">
        <ele>977</ele>
        <time>2026-05-09T12:09:19.657Z</time>
      </trkpt>
      <trkpt lat="47.91823" lon="6.92187">
        <ele>976</ele>
        <time>2026-05-09T12:09:20.656Z</time>
      </trkpt>
      <trkpt lat="47.91824" lon="6.92185">
        <ele>975</ele>
        <time>2026-05-09T12:09:21.656Z</time>
      </trkpt>
      <trkpt lat="47.91825" lon="6.92183">
        <ele>975</ele>
        <time>2026-05-09T12:09:22.657Z</time>
      </trkpt>
      <trkpt lat="47.91826" lon="6.9218">
        <ele>974</ele>
        <time>2026-05-09T12:09:23.657Z</time>
      </trkpt>
      <trkpt lat="47.91827" lon="6.92178">
        <ele>973</ele>
        <time>2026-05-09T12:09:24.656Z</time>
      </trkpt>
      <trkpt lat="47.91828" lon="6.92175">
        <ele>973</ele>
        <time>2026-05-09T12:09:25.656Z</time>
      </trkpt>
      <trkpt lat="47.91828" lon="6.92173">
        <ele>972</ele>
        <time>2026-05-09T12:09:26.656Z</time>
      </trkpt>
      <trkpt lat="47.91829" lon="6.9217">
        <ele>972</ele>
        <time>2026-05-09T12:09:27.657Z</time>
      </trkpt>
      <trkpt lat="47.9183" lon="6.92167">
        <ele>971</ele>
        <time>2026-05-09T12:09:28.657Z</time>
      </trkpt>
      <trkpt lat="47.91831" lon="6.92165">
        <ele>970</ele>
        <time>2026-05-09T12:09:29.656Z</time>
      </trkpt>
      <trkpt lat="47.91832" lon="6.92163">
        <ele>970</ele>
        <time>2026-05-09T12:09:30.657Z</time>
      </trkpt>
      <trkpt lat="47.91833" lon="6.92162">
        <ele>969</ele>
        <time>2026-05-09T12:09:31.656Z</time>
      </trkpt>
      <trkpt lat="47.91833" lon="6.9216">
        <ele>969</ele>
        <time>2026-05-09T12:09:32.656Z</time>
      </trkpt>
      <trkpt lat="47.91835" lon="6.92159">
        <ele>968</ele>
        <time>2026-05-09T12:09:33.656Z</time>
      </trkpt>
      <trkpt lat="47.91836" lon="6.92157">
        <ele>968</ele>
        <time>2026-05-09T12:09:34.657Z</time>
      </trkpt>
      <trkpt lat="47.91837" lon="6.92156">
        <ele>967</ele>
        <time>2026-05-09T12:09:35.656Z</time>
      </trkpt>
      <trkpt lat="47.91838" lon="6.92153">
        <ele>967</ele>
        <time>2026-05-09T12:09:36.657Z</time>
      </trkpt>
      <trkpt lat="47.9184" lon="6.9215">
        <ele>966</ele>
        <time>2026-05-09T12:09:37.656Z</time>
      </trkpt>
      <trkpt lat="47.91841" lon="6.92147">
        <ele>966</ele>
        <time>2026-05-09T12:09:38.657Z</time>
      </trkpt>
      <trkpt lat="47.91843" lon="6.92143">
        <ele>965</ele>
        <time>2026-05-09T12:09:39.656Z</time>
      </trkpt>
      <trkpt lat="47.91845" lon="6.92141">
        <ele>965</ele>
        <time>2026-05-09T12:09:40.657Z</time>
      </trkpt>
      <trkpt lat="47.91847" lon="6.92139">
        <ele>965</ele>
        <time>2026-05-09T12:09:41.656Z</time>
      </trkpt>
      <trkpt lat="47.91848" lon="6.92137">
        <ele>964</ele>
        <time>2026-05-09T12:09:42.656Z</time>
      </trkpt>
      <trkpt lat="47.9185" lon="6.92135">
        <ele>964</ele>
        <time>2026-05-09T12:09:43.657Z</time>
      </trkpt>
      <trkpt lat="47.91851" lon="6.92134">
        <ele>964</ele>
        <time>2026-05-09T12:09:44.656Z</time>
      </trkpt>
      <trkpt lat="47.91852" lon="6.92133">
        <ele>963</ele>
        <time>2026-05-09T12:09:45.657Z</time>
      </trkpt>
      <trkpt lat="47.91853" lon="6.92131">
        <ele>963</ele>
        <time>2026-05-09T12:09:46.656Z</time>
      </trkpt>
      <trkpt lat="47.91854" lon="6.9213">
        <ele>962</ele>
        <time>2026-05-09T12:09:47.657Z</time>
      </trkpt>
      <trkpt lat="47.91855" lon="6.92128">
        <ele>961</ele>
        <time>2026-05-09T12:09:48.656Z</time>
      </trkpt>
      <trkpt lat="47.91856" lon="6.92127">
        <ele>961</ele>
        <time>2026-05-09T12:09:49.657Z</time>
      </trkpt>
      <trkpt lat="47.91857" lon="6.92126">
        <ele>960</ele>
        <time>2026-05-09T12:09:50.656Z</time>
      </trkpt>
      <trkpt lat="47.91858" lon="6.92124">
        <ele>960</ele>
        <time>2026-05-09T12:09:51.657Z</time>
      </trkpt>
      <trkpt lat="47.91859" lon="6.92123">
        <ele>959</ele>
        <time>2026-05-09T12:09:52.656Z</time>
      </trkpt>
      <trkpt lat="47.91859" lon="6.92122">
        <ele>959</ele>
        <time>2026-05-09T12:09:53.656Z</time>
      </trkpt>
      <trkpt lat="47.9186" lon="6.9212">
        <ele>959</ele>
        <time>2026-05-09T12:09:54.656Z</time>
      </trkpt>
      <trkpt lat="47.91861" lon="6.92119">
        <ele>958</ele>
        <time>2026-05-09T12:09:55.656Z</time>
      </trkpt>
      <trkpt lat="47.91861" lon="6.92116">
        <ele>958</ele>
        <time>2026-05-09T12:09:56.656Z</time>
      </trkpt>
      <trkpt lat="47.91861" lon="6.92114">
        <ele>958</ele>
        <time>2026-05-09T12:09:57.656Z</time>
      </trkpt>
      <trkpt lat="47.91862" lon="6.9211">
        <ele>957</ele>
        <time>2026-05-09T12:09:58.656Z</time>
      </trkpt>
      <trkpt lat="47.9186" lon="6.92106">
        <ele>957</ele>
        <time>2026-05-09T12:09:59.656Z</time>
      </trkpt>
      <trkpt lat="47.91861" lon="6.92104">
        <ele>957</ele>
        <time>2026-05-09T12:10:00.657Z</time>
      </trkpt>
      <trkpt lat="47.91861" lon="6.92104">
        <ele>956</ele>
        <time>2026-05-09T12:10:01.657Z</time>
      </trkpt>
      <trkpt lat="47.91862" lon="6.92102">
        <ele>956</ele>
        <time>2026-05-09T12:10:02.656Z</time>
      </trkpt>
      <trkpt lat="47.91861" lon="6.92099">
        <ele>955</ele>
        <time>2026-05-09T12:10:03.656Z</time>
      </trkpt>
      <trkpt lat="47.9186" lon="6.92096">
        <ele>955</ele>
        <time>2026-05-09T12:10:04.657Z</time>
      </trkpt>
      <trkpt lat="47.91859" lon="6.92093">
        <ele>954</ele>
        <time>2026-05-09T12:10:05.656Z</time>
      </trkpt>
      <trkpt lat="47.91858" lon="6.9209">
        <ele>953</ele>
        <time>2026-05-09T12:10:06.657Z</time>
      </trkpt>
      <trkpt lat="47.91857" lon="6.92088">
        <ele>953</ele>
        <time>2026-05-09T12:10:07.656Z</time>
      </trkpt>
      <trkpt lat="47.91855" lon="6.92086">
        <ele>952</ele>
        <time>2026-05-09T12:10:08.657Z</time>
      </trkpt>
      <trkpt lat="47.91855" lon="6.92084">
        <ele>952</ele>
        <time>2026-05-09T12:10:09.656Z</time>
      </trkpt>
      <trkpt lat="47.91857" lon="6.92082">
        <ele>952</ele>
        <time>2026-05-09T12:10:10.656Z</time>
      </trkpt>
      <trkpt lat="47.91857" lon="6.9208">
        <ele>951</ele>
        <time>2026-05-09T12:10:11.657Z</time>
      </trkpt>
      <trkpt lat="47.91857" lon="6.92078">
        <ele>951</ele>
        <time>2026-05-09T12:10:12.656Z</time>
      </trkpt>
      <trkpt lat="47.91856" lon="6.92075">
        <ele>951</ele>
        <time>2026-05-09T12:10:13.657Z</time>
      </trkpt>
      <trkpt lat="47.91856" lon="6.92073">
        <ele>951</ele>
        <time>2026-05-09T12:10:14.657Z</time>
      </trkpt>
      <trkpt lat="47.91857" lon="6.9207">
        <ele>951</ele>
        <time>2026-05-09T12:10:15.657Z</time>
      </trkpt>
      <trkpt lat="47.91857" lon="6.92068">
        <ele>951</ele>
        <time>2026-05-09T12:10:16.657Z</time>
      </trkpt>
      <trkpt lat="47.91857" lon="6.92066">
        <ele>950</ele>
        <time>2026-05-09T12:10:17.657Z</time>
      </trkpt>
      <trkpt lat="47.91857" lon="6.92063">
        <ele>950</ele>
        <time>2026-05-09T12:10:18.656Z</time>
      </trkpt>
      <trkpt lat="47.91856" lon="6.92061">
        <ele>950</ele>
        <time>2026-05-09T12:10:19.656Z</time>
      </trkpt>
      <trkpt lat="47.91855" lon="6.92058">
        <ele>950</ele>
        <time>2026-05-09T12:10:20.656Z</time>
      </trkpt>
      <trkpt lat="47.91855" lon="6.92055">
        <ele>949</ele>
        <time>2026-05-09T12:10:21.657Z</time>
      </trkpt>
      <trkpt lat="47.91855" lon="6.92053">
        <ele>949</ele>
        <time>2026-05-09T12:10:22.656Z</time>
      </trkpt>
      <trkpt lat="47.91856" lon="6.92051">
        <ele>949</ele>
        <time>2026-05-09T12:10:23.656Z</time>
      </trkpt>
      <trkpt lat="47.91856" lon="6.92048">
        <ele>949</ele>
        <time>2026-05-09T12:10:24.656Z</time>
      </trkpt>
      <trkpt lat="47.91857" lon="6.92045">
        <ele>949</ele>
        <time>2026-05-09T12:10:25.657Z</time>
      </trkpt>
      <trkpt lat="47.91858" lon="6.92041">
        <ele>950</ele>
        <time>2026-05-09T12:10:26.656Z</time>
      </trkpt>
      <trkpt lat="47.91858" lon="6.92038">
        <ele>950</ele>
        <time>2026-05-09T12:10:27.656Z</time>
      </trkpt>
      <trkpt lat="47.91858" lon="6.92036">
        <ele>950</ele>
        <time>2026-05-09T12:10:28.656Z</time>
      </trkpt>
      <trkpt lat="47.91859" lon="6.92035">
        <ele>950</ele>
        <time>2026-05-09T12:10:29.657Z</time>
      </trkpt>
      <trkpt lat="47.91859" lon="6.92032">
        <ele>950</ele>
        <time>2026-05-09T12:10:30.656Z</time>
      </trkpt>
      <trkpt lat="47.91858" lon="6.9203">
        <ele>950</ele>
        <time>2026-05-09T12:10:31.656Z</time>
      </trkpt>
      <trkpt lat="47.91858" lon="6.92027">
        <ele>950</ele>
        <time>2026-05-09T12:10:32.657Z</time>
      </trkpt>
      <trkpt lat="47.91859" lon="6.92025">
        <ele>949</ele>
        <time>2026-05-09T12:10:33.656Z</time>
      </trkpt>
      <trkpt lat="47.91858" lon="6.92022">
        <ele>949</ele>
        <time>2026-05-09T12:10:34.657Z</time>
      </trkpt>
      <trkpt lat="47.91857" lon="6.9202">
        <ele>949</ele>
        <time>2026-05-09T12:10:35.656Z</time>
      </trkpt>
      <trkpt lat="47.91857" lon="6.92017">
        <ele>949</ele>
        <time>2026-05-09T12:10:36.657Z</time>
      </trkpt>
      <trkpt lat="47.91858" lon="6.92012">
        <ele>949</ele>
        <time>2026-05-09T12:10:37.656Z</time>
      </trkpt>
      <trkpt lat="47.91858" lon="6.92007">
        <ele>949</ele>
        <time>2026-05-09T12:10:38.657Z</time>
      </trkpt>
      <trkpt lat="47.91859" lon="6.92004">
        <ele>948</ele>
        <time>2026-05-09T12:10:39.656Z</time>
      </trkpt>
      <trkpt lat="47.91861" lon="6.92003">
        <ele>948</ele>
        <time>2026-05-09T12:10:40.656Z</time>
      </trkpt>
      <trkpt lat="47.91862" lon="6.92002">
        <ele>948</ele>
        <time>2026-05-09T12:10:41.657Z</time>
      </trkpt>
      <trkpt lat="47.91862" lon="6.92">
        <ele>948</ele>
        <time>2026-05-09T12:10:42.656Z</time>
      </trkpt>
      <trkpt lat="47.91861" lon="6.91998">
        <ele>948</ele>
        <time>2026-05-09T12:10:43.656Z</time>
      </trkpt>
      <trkpt lat="47.9186" lon="6.91997">
        <ele>948</ele>
        <time>2026-05-09T12:10:44.657Z</time>
      </trkpt>
      <trkpt lat="47.91861" lon="6.91995">
        <ele>948</ele>
        <time>2026-05-09T12:10:45.656Z</time>
      </trkpt>
      <trkpt lat="47.9186" lon="6.91994">
        <ele>947</ele>
        <time>2026-05-09T12:10:46.657Z</time>
      </trkpt>
      <trkpt lat="47.91859" lon="6.91992">
        <ele>947</ele>
        <time>2026-05-09T12:10:47.656Z</time>
      </trkpt>
      <trkpt lat="47.91859" lon="6.9199">
        <ele>946</ele>
        <time>2026-05-09T12:10:48.656Z</time>
      </trkpt>
      <trkpt lat="47.9186" lon="6.91988">
        <ele>945</ele>
        <time>2026-05-09T12:10:49.657Z</time>
      </trkpt>
      <trkpt lat="47.91861" lon="6.91986">
        <ele>945</ele>
        <time>2026-05-09T12:10:50.657Z</time>
      </trkpt>
      <trkpt lat="47.91862" lon="6.91983">
        <ele>944</ele>
        <time>2026-05-09T12:10:51.656Z</time>
      </trkpt>
      <trkpt lat="47.91863" lon="6.9198">
        <ele>944</ele>
        <time>2026-05-09T12:10:52.656Z</time>
      </trkpt>
      <trkpt lat="47.91864" lon="6.91977">
        <ele>943</ele>
        <time>2026-05-09T12:10:53.656Z</time>
      </trkpt>
      <trkpt lat="47.91865" lon="6.91974">
        <ele>943</ele>
        <time>2026-05-09T12:10:54.657Z</time>
      </trkpt>
      <trkpt lat="47.91866" lon="6.91972">
        <ele>943</ele>
        <time>2026-05-09T12:10:55.656Z</time>
      </trkpt>
      <trkpt lat="47.91868" lon="6.91969">
        <ele>943</ele>
        <time>2026-05-09T12:10:56.657Z</time>
      </trkpt>
      <trkpt lat="47.91868" lon="6.91967">
        <ele>942</ele>
        <time>2026-05-09T12:10:57.656Z</time>
      </trkpt>
      <trkpt lat="47.91869" lon="6.91966">
        <ele>942</ele>
        <time>2026-05-09T12:10:58.657Z</time>
      </trkpt>
      <trkpt lat="47.9187" lon="6.91964">
        <ele>941</ele>
        <time>2026-05-09T12:10:59.657Z</time>
      </trkpt>
      <trkpt lat="47.9187" lon="6.91963">
        <ele>941</ele>
        <time>2026-05-09T12:11:00.656Z</time>
      </trkpt>
      <trkpt lat="47.91872" lon="6.91963">
        <ele>940</ele>
        <time>2026-05-09T12:11:01.656Z</time>
      </trkpt>
      <trkpt lat="47.91873" lon="6.91962">
        <ele>940</ele>
        <time>2026-05-09T12:11:02.657Z</time>
      </trkpt>
      <trkpt lat="47.91875" lon="6.91962">
        <ele>939</ele>
        <time>2026-05-09T12:11:03.656Z</time>
      </trkpt>
      <trkpt lat="47.91876" lon="6.91961">
        <ele>939</ele>
        <time>2026-05-09T12:11:04.656Z</time>
      </trkpt>
      <trkpt lat="47.91878" lon="6.91961">
        <ele>938</ele>
        <time>2026-05-09T12:11:05.657Z</time>
      </trkpt>
      <trkpt lat="47.91879" lon="6.9196">
        <ele>938</ele>
        <time>2026-05-09T12:11:06.656Z</time>
      </trkpt>
      <trkpt lat="47.91881" lon="6.9196">
        <ele>937</ele>
        <time>2026-05-09T12:11:07.656Z</time>
      </trkpt>
      <trkpt lat="47.91883" lon="6.9196">
        <ele>937</ele>
        <time>2026-05-09T12:11:08.657Z</time>
      </trkpt>
      <trkpt lat="47.91885" lon="6.9196">
        <ele>936</ele>
        <time>2026-05-09T12:11:09.657Z</time>
      </trkpt>
      <trkpt lat="47.91888" lon="6.91959">
        <ele>936</ele>
        <time>2026-05-09T12:11:10.656Z</time>
      </trkpt>
      <trkpt lat="47.9189" lon="6.91958">
        <ele>936</ele>
        <time>2026-05-09T12:11:11.656Z</time>
      </trkpt>
      <trkpt lat="47.91892" lon="6.91957">
        <ele>935</ele>
        <time>2026-05-09T12:11:12.656Z</time>
      </trkpt>
      <trkpt lat="47.91894" lon="6.91956">
        <ele>935</ele>
        <time>2026-05-09T12:11:13.657Z</time>
      </trkpt>
      <trkpt lat="47.91895" lon="6.91956">
        <ele>935</ele>
        <time>2026-05-09T12:11:14.656Z</time>
      </trkpt>
      <trkpt lat="47.91897" lon="6.91956">
        <ele>934</ele>
        <time>2026-05-09T12:11:15.656Z</time>
      </trkpt>
      <trkpt lat="47.91899" lon="6.91956">
        <ele>933</ele>
        <time>2026-05-09T12:11:16.657Z</time>
      </trkpt>
      <trkpt lat="47.91902" lon="6.91955">
        <ele>933</ele>
        <time>2026-05-09T12:11:17.656Z</time>
      </trkpt>
      <trkpt lat="47.91903" lon="6.91956">
        <ele>932</ele>
        <time>2026-05-09T12:11:18.656Z</time>
      </trkpt>
      <trkpt lat="47.91905" lon="6.91956">
        <ele>931</ele>
        <time>2026-05-09T12:11:19.656Z</time>
      </trkpt>
      <trkpt lat="47.91906" lon="6.91957">
        <ele>931</ele>
        <time>2026-05-09T12:11:20.656Z</time>
      </trkpt>
      <trkpt lat="47.91908" lon="6.91958">
        <ele>931</ele>
        <time>2026-05-09T12:11:21.656Z</time>
      </trkpt>
      <trkpt lat="47.9191" lon="6.9196">
        <ele>930</ele>
        <time>2026-05-09T12:11:22.657Z</time>
      </trkpt>
      <trkpt lat="47.91912" lon="6.91961">
        <ele>930</ele>
        <time>2026-05-09T12:11:23.656Z</time>
      </trkpt>
      <trkpt lat="47.91913" lon="6.91962">
        <ele>930</ele>
        <time>2026-05-09T12:11:24.656Z</time>
      </trkpt>
      <trkpt lat="47.91914" lon="6.91962">
        <ele>930</ele>
        <time>2026-05-09T12:11:25.656Z</time>
      </trkpt>
      <trkpt lat="47.91915" lon="6.91961">
        <ele>929</ele>
        <time>2026-05-09T12:11:26.657Z</time>
      </trkpt>
      <trkpt lat="47.91915" lon="6.91961">
        <ele>929</ele>
        <time>2026-05-09T12:11:27.657Z</time>
      </trkpt>
      <trkpt lat="47.91916" lon="6.9196">
        <ele>929</ele>
        <time>2026-05-09T12:11:28.657Z</time>
      </trkpt>
      <trkpt lat="47.91917" lon="6.9196">
        <ele>928</ele>
        <time>2026-05-09T12:11:29.657Z</time>
      </trkpt>
      <trkpt lat="47.91917" lon="6.91958">
        <ele>928</ele>
        <time>2026-05-09T12:11:30.657Z</time>
      </trkpt>
      <trkpt lat="47.91918" lon="6.91957">
        <ele>928</ele>
        <time>2026-05-09T12:11:31.657Z</time>
      </trkpt>
      <trkpt lat="47.91919" lon="6.91956">
        <ele>928</ele>
        <time>2026-05-09T12:11:32.656Z</time>
      </trkpt>
      <trkpt lat="47.9192" lon="6.91956">
        <ele>927</ele>
        <time>2026-05-09T12:11:33.656Z</time>
      </trkpt>
      <trkpt lat="47.91922" lon="6.91956">
        <ele>927</ele>
        <time>2026-05-09T12:11:34.657Z</time>
      </trkpt>
      <trkpt lat="47.91923" lon="6.91956">
        <ele>927</ele>
        <time>2026-05-09T12:11:35.656Z</time>
      </trkpt>
      <trkpt lat="47.91924" lon="6.91956">
        <ele>927</ele>
        <time>2026-05-09T12:11:36.657Z</time>
      </trkpt>
      <trkpt lat="47.91925" lon="6.91956">
        <ele>926</ele>
        <time>2026-05-09T12:11:37.656Z</time>
      </trkpt>
      <trkpt lat="47.91926" lon="6.91956">
        <ele>926</ele>
        <time>2026-05-09T12:11:38.656Z</time>
      </trkpt>
      <trkpt lat="47.91927" lon="6.91957">
        <ele>925</ele>
        <time>2026-05-09T12:11:39.656Z</time>
      </trkpt>
      <trkpt lat="47.91929" lon="6.91957">
        <ele>924</ele>
        <time>2026-05-09T12:11:40.657Z</time>
      </trkpt>
      <trkpt lat="47.91931" lon="6.91958">
        <ele>923</ele>
        <time>2026-05-09T12:11:41.656Z</time>
      </trkpt>
      <trkpt lat="47.91932" lon="6.91958">
        <ele>922</ele>
        <time>2026-05-09T12:11:42.656Z</time>
      </trkpt>
      <trkpt lat="47.91934" lon="6.91958">
        <ele>922</ele>
        <time>2026-05-09T12:11:43.657Z</time>
      </trkpt>
      <trkpt lat="47.91935" lon="6.91957">
        <ele>921</ele>
        <time>2026-05-09T12:11:44.656Z</time>
      </trkpt>
      <trkpt lat="47.91938" lon="6.91957">
        <ele>921</ele>
        <time>2026-05-09T12:11:45.657Z</time>
      </trkpt>
      <trkpt lat="47.91939" lon="6.91958">
        <ele>920</ele>
        <time>2026-05-09T12:11:46.656Z</time>
      </trkpt>
      <trkpt lat="47.91941" lon="6.91959">
        <ele>920</ele>
        <time>2026-05-09T12:11:47.657Z</time>
      </trkpt>
      <trkpt lat="47.91942" lon="6.91959">
        <ele>920</ele>
        <time>2026-05-09T12:11:48.657Z</time>
      </trkpt>
      <trkpt lat="47.91944" lon="6.91959">
        <ele>919</ele>
        <time>2026-05-09T12:11:49.656Z</time>
      </trkpt>
      <trkpt lat="47.91946" lon="6.91959">
        <ele>919</ele>
        <time>2026-05-09T12:11:50.656Z</time>
      </trkpt>
      <trkpt lat="47.91948" lon="6.9196">
        <ele>918</ele>
        <time>2026-05-09T12:11:51.657Z</time>
      </trkpt>
      <trkpt lat="47.9195" lon="6.9196">
        <ele>918</ele>
        <time>2026-05-09T12:11:52.656Z</time>
      </trkpt>
      <trkpt lat="47.91951" lon="6.9196">
        <ele>918</ele>
        <time>2026-05-09T12:11:53.657Z</time>
      </trkpt>
      <trkpt lat="47.91953" lon="6.91959">
        <ele>917</ele>
        <time>2026-05-09T12:11:54.657Z</time>
      </trkpt>
      <trkpt lat="47.91954" lon="6.91958">
        <ele>917</ele>
        <time>2026-05-09T12:11:55.656Z</time>
      </trkpt>
      <trkpt lat="47.91955" lon="6.91956">
        <ele>917</ele>
        <time>2026-05-09T12:11:56.657Z</time>
      </trkpt>
      <trkpt lat="47.91957" lon="6.91955">
        <ele>917</ele>
        <time>2026-05-09T12:11:57.656Z</time>
      </trkpt>
      <trkpt lat="47.91959" lon="6.91954">
        <ele>917</ele>
        <time>2026-05-09T12:11:58.656Z</time>
      </trkpt>
      <trkpt lat="47.91961" lon="6.91953">
        <ele>917</ele>
        <time>2026-05-09T12:11:59.657Z</time>
      </trkpt>
      <trkpt lat="47.91962" lon="6.91952">
        <ele>917</ele>
        <time>2026-05-09T12:12:00.656Z</time>
      </trkpt>
      <trkpt lat="47.91963" lon="6.91951">
        <ele>916</ele>
        <time>2026-05-09T12:12:01.657Z</time>
      </trkpt>
      <trkpt lat="47.91964" lon="6.91949">
        <ele>916</ele>
        <time>2026-05-09T12:12:02.656Z</time>
      </trkpt>
      <trkpt lat="47.91965" lon="6.91947">
        <ele>916</ele>
        <time>2026-05-09T12:12:03.656Z</time>
      </trkpt>
      <trkpt lat="47.91966" lon="6.91945">
        <ele>916</ele>
        <time>2026-05-09T12:12:04.656Z</time>
      </trkpt>
      <trkpt lat="47.91967" lon="6.91943">
        <ele>916</ele>
        <time>2026-05-09T12:12:05.657Z</time>
      </trkpt>
      <trkpt lat="47.91968" lon="6.9194">
        <ele>915</ele>
        <time>2026-05-09T12:12:06.656Z</time>
      </trkpt>
      <trkpt lat="47.91969" lon="6.91938">
        <ele>915</ele>
        <time>2026-05-09T12:12:07.656Z</time>
      </trkpt>
      <trkpt lat="47.9197" lon="6.91936">
        <ele>915</ele>
        <time>2026-05-09T12:12:08.656Z</time>
      </trkpt>
      <trkpt lat="47.91971" lon="6.91934">
        <ele>915</ele>
        <time>2026-05-09T12:12:09.656Z</time>
      </trkpt>
      <trkpt lat="47.91971" lon="6.91932">
        <ele>914</ele>
        <time>2026-05-09T12:12:10.656Z</time>
      </trkpt>
      <trkpt lat="47.91973" lon="6.9193">
        <ele>914</ele>
        <time>2026-05-09T12:12:11.656Z</time>
      </trkpt>
      <trkpt lat="47.91974" lon="6.91927">
        <ele>913</ele>
        <time>2026-05-09T12:12:12.656Z</time>
      </trkpt>
      <trkpt lat="47.91977" lon="6.91924">
        <ele>913</ele>
        <time>2026-05-09T12:12:13.656Z</time>
      </trkpt>
      <trkpt lat="47.91979" lon="6.91921">
        <ele>913</ele>
        <time>2026-05-09T12:12:14.656Z</time>
      </trkpt>
      <trkpt lat="47.91982" lon="6.91919">
        <ele>912</ele>
        <time>2026-05-09T12:12:15.656Z</time>
      </trkpt>
      <trkpt lat="47.91985" lon="6.91917">
        <ele>911</ele>
        <time>2026-05-09T12:12:16.657Z</time>
      </trkpt>
      <trkpt lat="47.91988" lon="6.91914">
        <ele>911</ele>
        <time>2026-05-09T12:12:17.656Z</time>
      </trkpt>
      <trkpt lat="47.91991" lon="6.91913">
        <ele>911</ele>
        <time>2026-05-09T12:12:18.657Z</time>
      </trkpt>
      <trkpt lat="47.91993" lon="6.91911">
        <ele>911</ele>
        <time>2026-05-09T12:12:19.656Z</time>
      </trkpt>
      <trkpt lat="47.91995" lon="6.91909">
        <ele>911</ele>
        <time>2026-05-09T12:12:20.656Z</time>
      </trkpt>
      <trkpt lat="47.91998" lon="6.91907">
        <ele>911</ele>
        <time>2026-05-09T12:12:21.657Z</time>
      </trkpt>
      <trkpt lat="47.92" lon="6.91906">
        <ele>911</ele>
        <time>2026-05-09T12:12:22.656Z</time>
      </trkpt>
      <trkpt lat="47.92002" lon="6.91904">
        <ele>911</ele>
        <time>2026-05-09T12:12:23.656Z</time>
      </trkpt>
      <trkpt lat="47.92004" lon="6.91903">
        <ele>911</ele>
        <time>2026-05-09T12:12:24.656Z</time>
      </trkpt>
      <trkpt lat="47.92006" lon="6.91903">
        <ele>911</ele>
        <time>2026-05-09T12:12:25.656Z</time>
      </trkpt>
      <trkpt lat="47.92008" lon="6.91903">
        <ele>911</ele>
        <time>2026-05-09T12:12:26.656Z</time>
      </trkpt>
      <trkpt lat="47.92009" lon="6.91902">
        <ele>911</ele>
        <time>2026-05-09T12:12:27.656Z</time>
      </trkpt>
      <trkpt lat="47.9201" lon="6.91901">
        <ele>911</ele>
        <time>2026-05-09T12:12:28.656Z</time>
      </trkpt>
      <trkpt lat="47.92012" lon="6.91901">
        <ele>911</ele>
        <time>2026-05-09T12:12:29.656Z</time>
      </trkpt>
      <trkpt lat="47.92013" lon="6.919">
        <ele>911</ele>
        <time>2026-05-09T12:12:30.656Z</time>
      </trkpt>
      <trkpt lat="47.92014" lon="6.91899">
        <ele>910</ele>
        <time>2026-05-09T12:12:31.656Z</time>
      </trkpt>
      <trkpt lat="47.92015" lon="6.91898">
        <ele>910</ele>
        <time>2026-05-09T12:12:32.656Z</time>
      </trkpt>
      <trkpt lat="47.92016" lon="6.91897">
        <ele>910</ele>
        <time>2026-05-09T12:12:33.656Z</time>
      </trkpt>
      <trkpt lat="47.92018" lon="6.91895">
        <ele>909</ele>
        <time>2026-05-09T12:12:34.657Z</time>
      </trkpt>
      <trkpt lat="47.92019" lon="6.91894">
        <ele>909</ele>
        <time>2026-05-09T12:12:35.656Z</time>
      </trkpt>
      <trkpt lat="47.9202" lon="6.91893">
        <ele>908</ele>
        <time>2026-05-09T12:12:36.656Z</time>
      </trkpt>
      <trkpt lat="47.9202" lon="6.91892">
        <ele>908</ele>
        <time>2026-05-09T12:12:37.657Z</time>
      </trkpt>
      <trkpt lat="47.92021" lon="6.91891">
        <ele>907</ele>
        <time>2026-05-09T12:12:38.656Z</time>
      </trkpt>
      <trkpt lat="47.92022" lon="6.9189">
        <ele>907</ele>
        <time>2026-05-09T12:12:39.657Z</time>
      </trkpt>
      <trkpt lat="47.92022" lon="6.91889">
        <ele>906</ele>
        <time>2026-05-09T12:12:40.657Z</time>
      </trkpt>
      <trkpt lat="47.92023" lon="6.91888">
        <ele>906</ele>
        <time>2026-05-09T12:12:41.656Z</time>
      </trkpt>
      <trkpt lat="47.92025" lon="6.91887">
        <ele>905</ele>
        <time>2026-05-09T12:12:42.656Z</time>
      </trkpt>
      <trkpt lat="47.92026" lon="6.91885">
        <ele>905</ele>
        <time>2026-05-09T12:12:43.656Z</time>
      </trkpt>
      <trkpt lat="47.92028" lon="6.91883">
        <ele>906</ele>
        <time>2026-05-09T12:12:44.656Z</time>
      </trkpt>
      <trkpt lat="47.9203" lon="6.91881">
        <ele>906</ele>
        <time>2026-05-09T12:12:45.656Z</time>
      </trkpt>
      <trkpt lat="47.9203" lon="6.9188">
        <ele>906</ele>
        <time>2026-05-09T12:12:46.656Z</time>
      </trkpt>
      <trkpt lat="47.92031" lon="6.91878">
        <ele>906</ele>
        <time>2026-05-09T12:12:47.656Z</time>
      </trkpt>
      <trkpt lat="47.92032" lon="6.91876">
        <ele>906</ele>
        <time>2026-05-09T12:12:48.656Z</time>
      </trkpt>
      <trkpt lat="47.92034" lon="6.91875">
        <ele>907</ele>
        <time>2026-05-09T12:12:49.656Z</time>
      </trkpt>
      <trkpt lat="47.92036" lon="6.91873">
        <ele>907</ele>
        <time>2026-05-09T12:12:50.657Z</time>
      </trkpt>
      <trkpt lat="47.92038" lon="6.91871">
        <ele>907</ele>
        <time>2026-05-09T12:12:51.657Z</time>
      </trkpt>
      <trkpt lat="47.92038" lon="6.91869">
        <ele>908</ele>
        <time>2026-05-09T12:12:52.656Z</time>
      </trkpt>
      <trkpt lat="47.92039" lon="6.91867">
        <ele>908</ele>
        <time>2026-05-09T12:12:53.657Z</time>
      </trkpt>
      <trkpt lat="47.92039" lon="6.91865">
        <ele>908</ele>
        <time>2026-05-09T12:12:54.656Z</time>
      </trkpt>
      <trkpt lat="47.92041" lon="6.91863">
        <ele>908</ele>
        <time>2026-05-09T12:12:55.656Z</time>
      </trkpt>
      <trkpt lat="47.92041" lon="6.91861">
        <ele>909</ele>
        <time>2026-05-09T12:12:56.656Z</time>
      </trkpt>
      <trkpt lat="47.92043" lon="6.91859">
        <ele>909</ele>
        <time>2026-05-09T12:12:57.657Z</time>
      </trkpt>
      <trkpt lat="47.92043" lon="6.91858">
        <ele>909</ele>
        <time>2026-05-09T12:12:58.657Z</time>
      </trkpt>
      <trkpt lat="47.92044" lon="6.91857">
        <ele>909</ele>
        <time>2026-05-09T12:12:59.657Z</time>
      </trkpt>
      <trkpt lat="47.92046" lon="6.91855">
        <ele>908</ele>
        <time>2026-05-09T12:13:00.656Z</time>
      </trkpt>
      <trkpt lat="47.92046" lon="6.91854">
        <ele>908</ele>
        <time>2026-05-09T12:13:01.657Z</time>
      </trkpt>
      <trkpt lat="47.92047" lon="6.91852">
        <ele>908</ele>
        <time>2026-05-09T12:13:02.657Z</time>
      </trkpt>
      <trkpt lat="47.92048" lon="6.9185">
        <ele>908</ele>
        <time>2026-05-09T12:13:03.656Z</time>
      </trkpt>
      <trkpt lat="47.9205" lon="6.91849">
        <ele>907</ele>
        <time>2026-05-09T12:13:04.656Z</time>
      </trkpt>
      <trkpt lat="47.92051" lon="6.91847">
        <ele>907</ele>
        <time>2026-05-09T12:13:05.657Z</time>
      </trkpt>
      <trkpt lat="47.92053" lon="6.91846">
        <ele>907</ele>
        <time>2026-05-09T12:13:06.657Z</time>
      </trkpt>
      <trkpt lat="47.92054" lon="6.91845">
        <ele>907</ele>
        <time>2026-05-09T12:13:07.656Z</time>
      </trkpt>
      <trkpt lat="47.92055" lon="6.91844">
        <ele>906</ele>
        <time>2026-05-09T12:13:08.656Z</time>
      </trkpt>
      <trkpt lat="47.92057" lon="6.91843">
        <ele>906</ele>
        <time>2026-05-09T12:13:09.656Z</time>
      </trkpt>
      <trkpt lat="47.92058" lon="6.91842">
        <ele>906</ele>
        <time>2026-05-09T12:13:10.656Z</time>
      </trkpt>
      <trkpt lat="47.92059" lon="6.91841">
        <ele>906</ele>
        <time>2026-05-09T12:13:11.656Z</time>
      </trkpt>
      <trkpt lat="47.9206" lon="6.9184">
        <ele>906</ele>
        <time>2026-05-09T12:13:12.657Z</time>
      </trkpt>
      <trkpt lat="47.92062" lon="6.91838">
        <ele>906</ele>
        <time>2026-05-09T12:13:13.656Z</time>
      </trkpt>
      <trkpt lat="47.92063" lon="6.91837">
        <ele>906</ele>
        <time>2026-05-09T12:13:14.656Z</time>
      </trkpt>
      <trkpt lat="47.92065" lon="6.91835">
        <ele>906</ele>
        <time>2026-05-09T12:13:15.656Z</time>
      </trkpt>
      <trkpt lat="47.92066" lon="6.91834">
        <ele>906</ele>
        <time>2026-05-09T12:13:16.656Z</time>
      </trkpt>
      <trkpt lat="47.92067" lon="6.91833">
        <ele>907</ele>
        <time>2026-05-09T12:13:17.657Z</time>
      </trkpt>
      <trkpt lat="47.92069" lon="6.91832">
        <ele>907</ele>
        <time>2026-05-09T12:13:18.656Z</time>
      </trkpt>
      <trkpt lat="47.92069" lon="6.91831">
        <ele>907</ele>
        <time>2026-05-09T12:13:19.656Z</time>
      </trkpt>
      <trkpt lat="47.9207" lon="6.9183">
        <ele>908</ele>
        <time>2026-05-09T12:13:20.656Z</time>
      </trkpt>
      <trkpt lat="47.92072" lon="6.91828">
        <ele>908</ele>
        <time>2026-05-09T12:13:21.656Z</time>
      </trkpt>
      <trkpt lat="47.92073" lon="6.91827">
        <ele>908</ele>
        <time>2026-05-09T12:13:22.657Z</time>
      </trkpt>
      <trkpt lat="47.92074" lon="6.91826">
        <ele>909</ele>
        <time>2026-05-09T12:13:23.656Z</time>
      </trkpt>
      <trkpt lat="47.92075" lon="6.91825">
        <ele>909</ele>
        <time>2026-05-09T12:13:24.656Z</time>
      </trkpt>
      <trkpt lat="47.92076" lon="6.91823">
        <ele>909</ele>
        <time>2026-05-09T12:13:25.656Z</time>
      </trkpt>
      <trkpt lat="47.92077" lon="6.91821">
        <ele>909</ele>
        <time>2026-05-09T12:13:26.656Z</time>
      </trkpt>
      <trkpt lat="47.92078" lon="6.9182">
        <ele>909</ele>
        <time>2026-05-09T12:13:27.656Z</time>
      </trkpt>
      <trkpt lat="47.92079" lon="6.91819">
        <ele>909</ele>
        <time>2026-05-09T12:13:28.656Z</time>
      </trkpt>
      <trkpt lat="47.9208" lon="6.91817">
        <ele>909</ele>
        <time>2026-05-09T12:13:29.656Z</time>
      </trkpt>
      <trkpt lat="47.92081" lon="6.91816">
        <ele>909</ele>
        <time>2026-05-09T12:13:30.656Z</time>
      </trkpt>
      <trkpt lat="47.92082" lon="6.91814">
        <ele>909</ele>
        <time>2026-05-09T12:13:31.656Z</time>
      </trkpt>
      <trkpt lat="47.92083" lon="6.91812">
        <ele>909</ele>
        <time>2026-05-09T12:13:32.656Z</time>
      </trkpt>
      <trkpt lat="47.92084" lon="6.91811">
        <ele>909</ele>
        <time>2026-05-09T12:13:33.656Z</time>
      </trkpt>
      <trkpt lat="47.92084" lon="6.9181">
        <ele>909</ele>
        <time>2026-05-09T12:13:34.656Z</time>
      </trkpt>
      <trkpt lat="47.92086" lon="6.91809">
        <ele>908</ele>
        <time>2026-05-09T12:13:35.657Z</time>
      </trkpt>
      <trkpt lat="47.92087" lon="6.91807">
        <ele>908</ele>
        <time>2026-05-09T12:13:36.656Z</time>
      </trkpt>
      <trkpt lat="47.92089" lon="6.91806">
        <ele>908</ele>
        <time>2026-05-09T12:13:37.656Z</time>
      </trkpt>
      <trkpt lat="47.9209" lon="6.91804">
        <ele>907</ele>
        <time>2026-05-09T12:13:38.657Z</time>
      </trkpt>
      <trkpt lat="47.92092" lon="6.91803">
        <ele>907</ele>
        <time>2026-05-09T12:13:39.656Z</time>
      </trkpt>
      <trkpt lat="47.92093" lon="6.91802">
        <ele>908</ele>
        <time>2026-05-09T12:13:40.657Z</time>
      </trkpt>
      <trkpt lat="47.92094" lon="6.91801">
        <ele>908</ele>
        <time>2026-05-09T12:13:41.656Z</time>
      </trkpt>
      <trkpt lat="47.92095" lon="6.918">
        <ele>908</ele>
        <time>2026-05-09T12:13:42.656Z</time>
      </trkpt>
      <trkpt lat="47.92097" lon="6.91798">
        <ele>908</ele>
        <time>2026-05-09T12:13:43.657Z</time>
      </trkpt>
      <trkpt lat="47.92098" lon="6.91797">
        <ele>909</ele>
        <time>2026-05-09T12:13:44.656Z</time>
      </trkpt>
      <trkpt lat="47.92099" lon="6.91797">
        <ele>909</ele>
        <time>2026-05-09T12:13:45.656Z</time>
      </trkpt>
      <trkpt lat="47.92101" lon="6.91796">
        <ele>909</ele>
        <time>2026-05-09T12:13:46.657Z</time>
      </trkpt>
      <trkpt lat="47.92102" lon="6.91796">
        <ele>908</ele>
        <time>2026-05-09T12:13:47.657Z</time>
      </trkpt>
      <trkpt lat="47.92104" lon="6.91796">
        <ele>908</ele>
        <time>2026-05-09T12:13:48.656Z</time>
      </trkpt>
      <trkpt lat="47.92106" lon="6.91796">
        <ele>907</ele>
        <time>2026-05-09T12:13:49.656Z</time>
      </trkpt>
      <trkpt lat="47.92107" lon="6.91797">
        <ele>906</ele>
        <time>2026-05-09T12:13:50.656Z</time>
      </trkpt>
      <trkpt lat="47.92109" lon="6.91796">
        <ele>905</ele>
        <time>2026-05-09T12:13:51.657Z</time>
      </trkpt>
      <trkpt lat="47.9211" lon="6.91797">
        <ele>904</ele>
        <time>2026-05-09T12:13:52.657Z</time>
      </trkpt>
      <trkpt lat="47.92113" lon="6.91797">
        <ele>904</ele>
        <time>2026-05-09T12:13:53.656Z</time>
      </trkpt>
      <trkpt lat="47.92114" lon="6.91798">
        <ele>903</ele>
        <time>2026-05-09T12:13:54.657Z</time>
      </trkpt>
      <trkpt lat="47.92116" lon="6.91799">
        <ele>902</ele>
        <time>2026-05-09T12:13:55.657Z</time>
      </trkpt>
      <trkpt lat="47.92118" lon="6.91799">
        <ele>902</ele>
        <time>2026-05-09T12:13:56.656Z</time>
      </trkpt>
      <trkpt lat="47.92119" lon="6.918">
        <ele>901</ele>
        <time>2026-05-09T12:13:57.657Z</time>
      </trkpt>
      <trkpt lat="47.9212" lon="6.918">
        <ele>900</ele>
        <time>2026-05-09T12:13:58.657Z</time>
      </trkpt>
      <trkpt lat="47.92121" lon="6.918">
        <ele>900</ele>
        <time>2026-05-09T12:13:59.657Z</time>
      </trkpt>
      <trkpt lat="47.92122" lon="6.91801">
        <ele>899</ele>
        <time>2026-05-09T12:14:00.657Z</time>
      </trkpt>
      <trkpt lat="47.92123" lon="6.91801">
        <ele>899</ele>
        <time>2026-05-09T12:14:01.656Z</time>
      </trkpt>
      <trkpt lat="47.92125" lon="6.91801">
        <ele>898</ele>
        <time>2026-05-09T12:14:02.657Z</time>
      </trkpt>
      <trkpt lat="47.92126" lon="6.91802">
        <ele>898</ele>
        <time>2026-05-09T12:14:03.656Z</time>
      </trkpt>
      <trkpt lat="47.92127" lon="6.91803">
        <ele>898</ele>
        <time>2026-05-09T12:14:04.657Z</time>
      </trkpt>
      <trkpt lat="47.92128" lon="6.91804">
        <ele>898</ele>
        <time>2026-05-09T12:14:05.657Z</time>
      </trkpt>
      <trkpt lat="47.92129" lon="6.91803">
        <ele>898</ele>
        <time>2026-05-09T12:14:06.656Z</time>
      </trkpt>
      <trkpt lat="47.9213" lon="6.91801">
        <ele>898</ele>
        <time>2026-05-09T12:14:07.657Z</time>
      </trkpt>
      <trkpt lat="47.92132" lon="6.91799">
        <ele>898</ele>
        <time>2026-05-09T12:14:08.657Z</time>
      </trkpt>
      <trkpt lat="47.92134" lon="6.91799">
        <ele>898</ele>
        <time>2026-05-09T12:14:09.656Z</time>
      </trkpt>
      <trkpt lat="47.92135" lon="6.91799">
        <ele>898</ele>
        <time>2026-05-09T12:14:10.657Z</time>
      </trkpt>
      <trkpt lat="47.92136" lon="6.91799">
        <ele>898</ele>
        <time>2026-05-09T12:14:11.657Z</time>
      </trkpt>
      <trkpt lat="47.92138" lon="6.91799">
        <ele>898</ele>
        <time>2026-05-09T12:14:12.657Z</time>
      </trkpt>
      <trkpt lat="47.92139" lon="6.91798">
        <ele>898</ele>
        <time>2026-05-09T12:14:13.656Z</time>
      </trkpt>
      <trkpt lat="47.92141" lon="6.91798">
        <ele>898</ele>
        <time>2026-05-09T12:14:14.657Z</time>
      </trkpt>
      <trkpt lat="47.92143" lon="6.91798">
        <ele>899</ele>
        <time>2026-05-09T12:14:15.656Z</time>
      </trkpt>
      <trkpt lat="47.92145" lon="6.91798">
        <ele>899</ele>
        <time>2026-05-09T12:14:16.656Z</time>
      </trkpt>
      <trkpt lat="47.92146" lon="6.91797">
        <ele>899</ele>
        <time>2026-05-09T12:14:17.656Z</time>
      </trkpt>
      <trkpt lat="47.92147" lon="6.91797">
        <ele>899</ele>
        <time>2026-05-09T12:14:18.656Z</time>
      </trkpt>
      <trkpt lat="47.92148" lon="6.91796">
        <ele>899</ele>
        <time>2026-05-09T12:14:19.657Z</time>
      </trkpt>
      <trkpt lat="47.92149" lon="6.91795">
        <ele>899</ele>
        <time>2026-05-09T12:14:20.657Z</time>
      </trkpt>
      <trkpt lat="47.9215" lon="6.91794">
        <ele>899</ele>
        <time>2026-05-09T12:14:21.656Z</time>
      </trkpt>
      <trkpt lat="47.92152" lon="6.91793">
        <ele>900</ele>
        <time>2026-05-09T12:14:22.656Z</time>
      </trkpt>
      <trkpt lat="47.92154" lon="6.91792">
        <ele>900</ele>
        <time>2026-05-09T12:14:23.657Z</time>
      </trkpt>
      <trkpt lat="47.92155" lon="6.91791">
        <ele>900</ele>
        <time>2026-05-09T12:14:24.657Z</time>
      </trkpt>
      <trkpt lat="47.92157" lon="6.9179">
        <ele>901</ele>
        <time>2026-05-09T12:14:25.656Z</time>
      </trkpt>
      <trkpt lat="47.92159" lon="6.91789">
        <ele>901</ele>
        <time>2026-05-09T12:14:26.657Z</time>
      </trkpt>
      <trkpt lat="47.9216" lon="6.91789">
        <ele>901</ele>
        <time>2026-05-09T12:14:27.656Z</time>
      </trkpt>
      <trkpt lat="47.92162" lon="6.91788">
        <ele>901</ele>
        <time>2026-05-09T12:14:28.657Z</time>
      </trkpt>
      <trkpt lat="47.92164" lon="6.91788">
        <ele>901</ele>
        <time>2026-05-09T12:14:29.656Z</time>
      </trkpt>
      <trkpt lat="47.92165" lon="6.91788">
        <ele>901</ele>
        <time>2026-05-09T12:14:30.656Z</time>
      </trkpt>
      <trkpt lat="47.92167" lon="6.91788">
        <ele>901</ele>
        <time>2026-05-09T12:14:31.656Z</time>
      </trkpt>
      <trkpt lat="47.92169" lon="6.91788">
        <ele>901</ele>
        <time>2026-05-09T12:14:32.656Z</time>
      </trkpt>
      <trkpt lat="47.92171" lon="6.91787">
        <ele>901</ele>
        <time>2026-05-09T12:14:33.656Z</time>
      </trkpt>
      <trkpt lat="47.92173" lon="6.91786">
        <ele>901</ele>
        <time>2026-05-09T12:14:34.656Z</time>
      </trkpt>
      <trkpt lat="47.92174" lon="6.91786">
        <ele>901</ele>
        <time>2026-05-09T12:14:35.656Z</time>
      </trkpt>
      <trkpt lat="47.92175" lon="6.91786">
        <ele>901</ele>
        <time>2026-05-09T12:14:36.657Z</time>
      </trkpt>
      <trkpt lat="47.92176" lon="6.91786">
        <ele>901</ele>
        <time>2026-05-09T12:14:37.657Z</time>
      </trkpt>
      <trkpt lat="47.92177" lon="6.91786">
        <ele>901</ele>
        <time>2026-05-09T12:14:38.656Z</time>
      </trkpt>
      <trkpt lat="47.92179" lon="6.91786">
        <ele>902</ele>
        <time>2026-05-09T12:14:39.656Z</time>
      </trkpt>
      <trkpt lat="47.9218" lon="6.91787">
        <ele>902</ele>
        <time>2026-05-09T12:14:40.657Z</time>
      </trkpt>
      <trkpt lat="47.92181" lon="6.91787">
        <ele>902</ele>
        <time>2026-05-09T12:14:41.656Z</time>
      </trkpt>
      <trkpt lat="47.92182" lon="6.91788">
        <ele>902</ele>
        <time>2026-05-09T12:14:42.656Z</time>
      </trkpt>
      <trkpt lat="47.92183" lon="6.91789">
        <ele>902</ele>
        <time>2026-05-09T12:14:43.656Z</time>
      </trkpt>
      <trkpt lat="47.92185" lon="6.9179">
        <ele>902</ele>
        <time>2026-05-09T12:14:44.656Z</time>
      </trkpt>
      <trkpt lat="47.92186" lon="6.91791">
        <ele>902</ele>
        <time>2026-05-09T12:14:45.656Z</time>
      </trkpt>
      <trkpt lat="47.92188" lon="6.91792">
        <ele>902</ele>
        <time>2026-05-09T12:14:46.656Z</time>
      </trkpt>
      <trkpt lat="47.92189" lon="6.91792">
        <ele>902</ele>
        <time>2026-05-09T12:14:47.657Z</time>
      </trkpt>
      <trkpt lat="47.92191" lon="6.91793">
        <ele>902</ele>
        <time>2026-05-09T12:14:48.657Z</time>
      </trkpt>
      <trkpt lat="47.92193" lon="6.91793">
        <ele>902</ele>
        <time>2026-05-09T12:14:49.657Z</time>
      </trkpt>
      <trkpt lat="47.92196" lon="6.91792">
        <ele>902</ele>
        <time>2026-05-09T12:14:50.656Z</time>
      </trkpt>
      <trkpt lat="47.92197" lon="6.91792">
        <ele>901</ele>
        <time>2026-05-09T12:14:51.656Z</time>
      </trkpt>
      <trkpt lat="47.92198" lon="6.91791">
        <ele>901</ele>
        <time>2026-05-09T12:14:52.656Z</time>
      </trkpt>
      <trkpt lat="47.922" lon="6.9179">
        <ele>900</ele>
        <time>2026-05-09T12:14:53.657Z</time>
      </trkpt>
      <trkpt lat="47.92201" lon="6.91789">
        <ele>900</ele>
        <time>2026-05-09T12:14:54.656Z</time>
      </trkpt>
      <trkpt lat="47.92202" lon="6.91788">
        <ele>900</ele>
        <time>2026-05-09T12:14:55.656Z</time>
      </trkpt>
      <trkpt lat="47.92204" lon="6.91787">
        <ele>899</ele>
        <time>2026-05-09T12:14:56.656Z</time>
      </trkpt>
      <trkpt lat="47.92205" lon="6.91785">
        <ele>899</ele>
        <time>2026-05-09T12:14:57.656Z</time>
      </trkpt>
      <trkpt lat="47.92205" lon="6.91783">
        <ele>898</ele>
        <time>2026-05-09T12:14:58.656Z</time>
      </trkpt>
      <trkpt lat="47.92206" lon="6.91781">
        <ele>898</ele>
        <time>2026-05-09T12:14:59.657Z</time>
      </trkpt>
      <trkpt lat="47.92207" lon="6.91779">
        <ele>898</ele>
        <time>2026-05-09T12:15:00.656Z</time>
      </trkpt>
      <trkpt lat="47.92208" lon="6.91778">
        <ele>898</ele>
        <time>2026-05-09T12:15:01.656Z</time>
      </trkpt>
      <trkpt lat="47.92209" lon="6.91776">
        <ele>898</ele>
        <time>2026-05-09T12:15:02.656Z</time>
      </trkpt>
      <trkpt lat="47.92211" lon="6.91774">
        <ele>898</ele>
        <time>2026-05-09T12:15:03.656Z</time>
      </trkpt>
      <trkpt lat="47.92211" lon="6.91772">
        <ele>899</ele>
        <time>2026-05-09T12:15:04.657Z</time>
      </trkpt>
      <trkpt lat="47.92212" lon="6.9177">
        <ele>899</ele>
        <time>2026-05-09T12:15:05.657Z</time>
      </trkpt>
      <trkpt lat="47.92213" lon="6.91767">
        <ele>900</ele>
        <time>2026-05-09T12:15:06.656Z</time>
      </trkpt>
      <trkpt lat="47.92213" lon="6.91764">
        <ele>900</ele>
        <time>2026-05-09T12:15:07.656Z</time>
      </trkpt>
      <trkpt lat="47.92214" lon="6.91762">
        <ele>901</ele>
        <time>2026-05-09T12:15:08.656Z</time>
      </trkpt>
      <trkpt lat="47.92214" lon="6.91761">
        <ele>902</ele>
        <time>2026-05-09T12:15:09.657Z</time>
      </trkpt>
      <trkpt lat="47.92215" lon="6.9176">
        <ele>902</ele>
        <time>2026-05-09T12:15:10.656Z</time>
      </trkpt>
      <trkpt lat="47.92216" lon="6.91759">
        <ele>903</ele>
        <time>2026-05-09T12:15:11.656Z</time>
      </trkpt>
      <trkpt lat="47.92217" lon="6.91757">
        <ele>903</ele>
        <time>2026-05-09T12:15:12.656Z</time>
      </trkpt>
      <trkpt lat="47.92219" lon="6.91756">
        <ele>904</ele>
        <time>2026-05-09T12:15:13.656Z</time>
      </trkpt>
      <trkpt lat="47.9222" lon="6.91754">
        <ele>904</ele>
        <time>2026-05-09T12:15:14.657Z</time>
      </trkpt>
      <trkpt lat="47.9222" lon="6.91753">
        <ele>905</ele>
        <time>2026-05-09T12:15:15.656Z</time>
      </trkpt>
      <trkpt lat="47.92221" lon="6.91751">
        <ele>905</ele>
        <time>2026-05-09T12:15:16.656Z</time>
      </trkpt>
      <trkpt lat="47.92222" lon="6.9175">
        <ele>906</ele>
        <time>2026-05-09T12:15:17.656Z</time>
      </trkpt>
      <trkpt lat="47.92222" lon="6.91747">
        <ele>906</ele>
        <time>2026-05-09T12:15:18.656Z</time>
      </trkpt>
      <trkpt lat="47.92224" lon="6.91746">
        <ele>907</ele>
        <time>2026-05-09T12:15:19.656Z</time>
      </trkpt>
      <trkpt lat="47.92225" lon="6.91745">
        <ele>907</ele>
        <time>2026-05-09T12:15:20.656Z</time>
      </trkpt>
      <trkpt lat="47.92226" lon="6.91743">
        <ele>907</ele>
        <time>2026-05-09T12:15:21.656Z</time>
      </trkpt>
      <trkpt lat="47.92228" lon="6.91741">
        <ele>907</ele>
        <time>2026-05-09T12:15:22.656Z</time>
      </trkpt>
      <trkpt lat="47.92229" lon="6.9174">
        <ele>907</ele>
        <time>2026-05-09T12:15:23.656Z</time>
      </trkpt>
      <trkpt lat="47.92231" lon="6.91737">
        <ele>907</ele>
        <time>2026-05-09T12:15:24.656Z</time>
      </trkpt>
      <trkpt lat="47.92231" lon="6.91735">
        <ele>906</ele>
        <time>2026-05-09T12:15:25.657Z</time>
      </trkpt>
      <trkpt lat="47.92233" lon="6.91733">
        <ele>906</ele>
        <time>2026-05-09T12:15:26.656Z</time>
      </trkpt>
      <trkpt lat="47.92234" lon="6.91733">
        <ele>905</ele>
        <time>2026-05-09T12:15:27.656Z</time>
      </trkpt>
      <trkpt lat="47.92235" lon="6.91733">
        <ele>904</ele>
        <time>2026-05-09T12:15:28.657Z</time>
      </trkpt>
      <trkpt lat="47.92237" lon="6.91733">
        <ele>904</ele>
        <time>2026-05-09T12:15:29.657Z</time>
      </trkpt>
      <trkpt lat="47.92238" lon="6.91733">
        <ele>902</ele>
        <time>2026-05-09T12:15:30.656Z</time>
      </trkpt>
      <trkpt lat="47.9224" lon="6.91732">
        <ele>901</ele>
        <time>2026-05-09T12:15:31.656Z</time>
      </trkpt>
      <trkpt lat="47.92242" lon="6.91732">
        <ele>900</ele>
        <time>2026-05-09T12:15:32.657Z</time>
      </trkpt>
      <trkpt lat="47.92244" lon="6.91732">
        <ele>899</ele>
        <time>2026-05-09T12:15:33.657Z</time>
      </trkpt>
      <trkpt lat="47.92245" lon="6.91732">
        <ele>898</ele>
        <time>2026-05-09T12:15:34.657Z</time>
      </trkpt>
      <trkpt lat="47.92247" lon="6.91732">
        <ele>897</ele>
        <time>2026-05-09T12:15:35.656Z</time>
      </trkpt>
      <trkpt lat="47.92249" lon="6.91733">
        <ele>896</ele>
        <time>2026-05-09T12:15:36.656Z</time>
      </trkpt>
      <trkpt lat="47.92251" lon="6.91733">
        <ele>896</ele>
        <time>2026-05-09T12:15:37.656Z</time>
      </trkpt>
      <trkpt lat="47.92252" lon="6.91733">
        <ele>895</ele>
        <time>2026-05-09T12:15:38.656Z</time>
      </trkpt>
      <trkpt lat="47.92254" lon="6.91733">
        <ele>895</ele>
        <time>2026-05-09T12:15:39.656Z</time>
      </trkpt>
      <trkpt lat="47.92255" lon="6.91733">
        <ele>894</ele>
        <time>2026-05-09T12:15:40.656Z</time>
      </trkpt>
      <trkpt lat="47.92256" lon="6.91735">
        <ele>894</ele>
        <time>2026-05-09T12:15:41.656Z</time>
      </trkpt>
      <trkpt lat="47.92257" lon="6.91735">
        <ele>893</ele>
        <time>2026-05-09T12:15:42.657Z</time>
      </trkpt>
      <trkpt lat="47.92258" lon="6.91736">
        <ele>892</ele>
        <time>2026-05-09T12:15:43.657Z</time>
      </trkpt>
      <trkpt lat="47.9226" lon="6.91736">
        <ele>891</ele>
        <time>2026-05-09T12:15:44.656Z</time>
      </trkpt>
      <trkpt lat="47.92261" lon="6.91737">
        <ele>891</ele>
        <time>2026-05-09T12:15:45.656Z</time>
      </trkpt>
      <trkpt lat="47.92263" lon="6.91737">
        <ele>890</ele>
        <time>2026-05-09T12:15:46.656Z</time>
      </trkpt>
      <trkpt lat="47.92264" lon="6.91737">
        <ele>890</ele>
        <time>2026-05-09T12:15:47.657Z</time>
      </trkpt>
      <trkpt lat="47.92265" lon="6.91736">
        <ele>889</ele>
        <time>2026-05-09T12:15:48.656Z</time>
      </trkpt>
      <trkpt lat="47.92267" lon="6.91734">
        <ele>889</ele>
        <time>2026-05-09T12:15:49.656Z</time>
      </trkpt>
      <trkpt lat="47.92268" lon="6.91733">
        <ele>889</ele>
        <time>2026-05-09T12:15:50.657Z</time>
      </trkpt>
      <trkpt lat="47.9227" lon="6.91731">
        <ele>890</ele>
        <time>2026-05-09T12:15:51.657Z</time>
      </trkpt>
      <trkpt lat="47.92271" lon="6.91731">
        <ele>890</ele>
        <time>2026-05-09T12:15:52.657Z</time>
      </trkpt>
      <trkpt lat="47.92271" lon="6.9173">
        <ele>890</ele>
        <time>2026-05-09T12:15:53.656Z</time>
      </trkpt>
      <trkpt lat="47.92272" lon="6.91729">
        <ele>891</ele>
        <time>2026-05-09T12:15:54.656Z</time>
      </trkpt>
      <trkpt lat="47.92273" lon="6.91729">
        <ele>891</ele>
        <time>2026-05-09T12:15:55.657Z</time>
      </trkpt>
      <trkpt lat="47.92274" lon="6.91729">
        <ele>892</ele>
        <time>2026-05-09T12:15:56.657Z</time>
      </trkpt>
      <trkpt lat="47.92274" lon="6.91728">
        <ele>892</ele>
        <time>2026-05-09T12:15:57.657Z</time>
      </trkpt>
      <trkpt lat="47.92275" lon="6.91727">
        <ele>893</ele>
        <time>2026-05-09T12:15:58.657Z</time>
      </trkpt>
      <trkpt lat="47.92275" lon="6.91726">
        <ele>893</ele>
        <time>2026-05-09T12:15:59.657Z</time>
      </trkpt>
      <trkpt lat="47.92275" lon="6.91725">
        <ele>894</ele>
        <time>2026-05-09T12:16:00.656Z</time>
      </trkpt>
      <trkpt lat="47.92275" lon="6.91724">
        <ele>895</ele>
        <time>2026-05-09T12:16:01.656Z</time>
      </trkpt>
      <trkpt lat="47.92276" lon="6.91723">
        <ele>896</ele>
        <time>2026-05-09T12:16:02.656Z</time>
      </trkpt>
      <trkpt lat="47.92275" lon="6.91723">
        <ele>897</ele>
        <time>2026-05-09T12:16:03.657Z</time>
      </trkpt>
      <trkpt lat="47.92275" lon="6.91722">
        <ele>898</ele>
        <time>2026-05-09T12:16:04.656Z</time>
      </trkpt>
      <trkpt lat="47.92275" lon="6.91721">
        <ele>899</ele>
        <time>2026-05-09T12:16:05.657Z</time>
      </trkpt>
      <trkpt lat="47.92276" lon="6.9172">
        <ele>900</ele>
        <time>2026-05-09T12:16:06.657Z</time>
      </trkpt>
      <trkpt lat="47.92276" lon="6.91718">
        <ele>902</ele>
        <time>2026-05-09T12:16:07.656Z</time>
      </trkpt>
      <trkpt lat="47.92276" lon="6.91716">
        <ele>903</ele>
        <time>2026-05-09T12:16:08.657Z</time>
      </trkpt>
      <trkpt lat="47.92277" lon="6.91714">
        <ele>904</ele>
        <time>2026-05-09T12:16:09.657Z</time>
      </trkpt>
      <trkpt lat="47.92278" lon="6.91712">
        <ele>904</ele>
        <time>2026-05-09T12:16:10.656Z</time>
      </trkpt>
      <trkpt lat="47.92278" lon="6.91711">
        <ele>905</ele>
        <time>2026-05-09T12:16:11.657Z</time>
      </trkpt>
      <trkpt lat="47.92279" lon="6.9171">
        <ele>906</ele>
        <time>2026-05-09T12:16:12.657Z</time>
      </trkpt>
      <trkpt lat="47.9228" lon="6.91709">
        <ele>907</ele>
        <time>2026-05-09T12:16:13.656Z</time>
      </trkpt>
      <trkpt lat="47.92281" lon="6.91708">
        <ele>909</ele>
        <time>2026-05-09T12:16:14.656Z</time>
      </trkpt>
      <trkpt lat="47.92281" lon="6.91707">
        <ele>910</ele>
        <time>2026-05-09T12:16:15.656Z</time>
      </trkpt>
      <trkpt lat="47.92282" lon="6.91706">
        <ele>911</ele>
        <time>2026-05-09T12:16:16.656Z</time>
      </trkpt>
      <trkpt lat="47.92282" lon="6.91706">
        <ele>912</ele>
        <time>2026-05-09T12:16:17.657Z</time>
      </trkpt>
      <trkpt lat="47.92283" lon="6.91704">
        <ele>912</ele>
        <time>2026-05-09T12:16:18.656Z</time>
      </trkpt>
      <trkpt lat="47.92283" lon="6.91703">
        <ele>912</ele>
        <time>2026-05-09T12:16:19.656Z</time>
      </trkpt>
      <trkpt lat="47.92284" lon="6.91702">
        <ele>912</ele>
        <time>2026-05-09T12:16:20.657Z</time>
      </trkpt>
      <trkpt lat="47.92285" lon="6.91701">
        <ele>911</ele>
        <time>2026-05-09T12:16:21.657Z</time>
      </trkpt>
      <trkpt lat="47.92286" lon="6.91701">
        <ele>911</ele>
        <time>2026-05-09T12:16:22.657Z</time>
      </trkpt>
      <trkpt lat="47.92287" lon="6.91701">
        <ele>911</ele>
        <time>2026-05-09T12:16:23.657Z</time>
      </trkpt>
      <trkpt lat="47.92288" lon="6.91701">
        <ele>911</ele>
        <time>2026-05-09T12:16:24.657Z</time>
      </trkpt>
      <trkpt lat="47.92289" lon="6.917">
        <ele>911</ele>
        <time>2026-05-09T12:16:25.657Z</time>
      </trkpt>
      <trkpt lat="47.9229" lon="6.917">
        <ele>910</ele>
        <time>2026-05-09T12:16:26.657Z</time>
      </trkpt>
      <trkpt lat="47.92291" lon="6.91699">
        <ele>910</ele>
        <time>2026-05-09T12:16:27.656Z</time>
      </trkpt>
      <trkpt lat="47.92292" lon="6.91698">
        <ele>910</ele>
        <time>2026-05-09T12:16:28.656Z</time>
      </trkpt>
      <trkpt lat="47.92293" lon="6.91697">
        <ele>910</ele>
        <time>2026-05-09T12:16:29.657Z</time>
      </trkpt>
      <trkpt lat="47.92294" lon="6.91697">
        <ele>910</ele>
        <time>2026-05-09T12:16:30.657Z</time>
      </trkpt>
      <trkpt lat="47.92294" lon="6.91697">
        <ele>910</ele>
        <time>2026-05-09T12:16:31.656Z</time>
      </trkpt>
      <trkpt lat="47.92295" lon="6.91696">
        <ele>910</ele>
        <time>2026-05-09T12:16:32.656Z</time>
      </trkpt>
      <trkpt lat="47.92296" lon="6.91695">
        <ele>910</ele>
        <time>2026-05-09T12:16:33.656Z</time>
      </trkpt>
      <trkpt lat="47.92296" lon="6.91695">
        <ele>910</ele>
        <time>2026-05-09T12:16:34.657Z</time>
      </trkpt>
      <trkpt lat="47.92296" lon="6.91696">
        <ele>910</ele>
        <time>2026-05-09T12:16:35.657Z</time>
      </trkpt>
      <trkpt lat="47.92295" lon="6.91696">
        <ele>909</ele>
        <time>2026-05-09T12:16:36.656Z</time>
      </trkpt>
      <trkpt lat="47.92295" lon="6.91696">
        <ele>909</ele>
        <time>2026-05-09T12:16:37.657Z</time>
      </trkpt>
      <trkpt lat="47.92299" lon="6.91699">
        <ele>907</ele>
        <time>2026-05-09T12:16:44.893Z</time>
      </trkpt>
      <trkpt lat="47.92299" lon="6.91699">
        <ele>906</ele>
        <time>2026-05-09T12:16:45.893Z</time>
      </trkpt>
      <trkpt lat="47.923" lon="6.917">
        <ele>906</ele>
        <time>2026-05-09T12:16:46.893Z</time>
      </trkpt>
      <trkpt lat="47.92301" lon="6.917">
        <ele>905</ele>
        <time>2026-05-09T12:16:47.893Z</time>
      </trkpt>
      <trkpt lat="47.92301" lon="6.91699">
        <ele>904</ele>
        <time>2026-05-09T12:16:48.893Z</time>
      </trkpt>
      <trkpt lat="47.92301" lon="6.91699">
        <ele>904</ele>
        <time>2026-05-09T12:16:49.893Z</time>
      </trkpt>
      <trkpt lat="47.92301" lon="6.91699">
        <ele>903</ele>
        <time>2026-05-09T12:16:50.893Z</time>
      </trkpt>
      <trkpt lat="47.92302" lon="6.91699">
        <ele>903</ele>
        <time>2026-05-09T12:16:51.893Z</time>
      </trkpt>
      <trkpt lat="47.92303" lon="6.91699">
        <ele>903</ele>
        <time>2026-05-09T12:16:52.893Z</time>
      </trkpt>
      <trkpt lat="47.92305" lon="6.91698">
        <ele>903</ele>
        <time>2026-05-09T12:16:53.893Z</time>
      </trkpt>
      <trkpt lat="47.92305" lon="6.91697">
        <ele>904</ele>
        <time>2026-05-09T12:16:54.893Z</time>
      </trkpt>
      <trkpt lat="47.92306" lon="6.91696">
        <ele>904</ele>
        <time>2026-05-09T12:16:55.893Z</time>
      </trkpt>
      <trkpt lat="47.92307" lon="6.91695">
        <ele>905</ele>
        <time>2026-05-09T12:16:56.893Z</time>
      </trkpt>
      <trkpt lat="47.92308" lon="6.91693">
        <ele>905</ele>
        <time>2026-05-09T12:16:57.893Z</time>
      </trkpt>
      <trkpt lat="47.9231" lon="6.91692">
        <ele>905</ele>
        <time>2026-05-09T12:16:58.893Z</time>
      </trkpt>
      <trkpt lat="47.92311" lon="6.91691">
        <ele>906</ele>
        <time>2026-05-09T12:16:59.893Z</time>
      </trkpt>
      <trkpt lat="47.92312" lon="6.9169">
        <ele>906</ele>
        <time>2026-05-09T12:17:00.893Z</time>
      </trkpt>
      <trkpt lat="47.92313" lon="6.91689">
        <ele>906</ele>
        <time>2026-05-09T12:17:01.893Z</time>
      </trkpt>
      <trkpt lat="47.92315" lon="6.91688">
        <ele>906</ele>
        <time>2026-05-09T12:17:02.893Z</time>
      </trkpt>
      <trkpt lat="47.92316" lon="6.91687">
        <ele>906</ele>
        <time>2026-05-09T12:17:03.893Z</time>
      </trkpt>
      <trkpt lat="47.92318" lon="6.91687">
        <ele>907</ele>
        <time>2026-05-09T12:17:04.893Z</time>
      </trkpt>
      <trkpt lat="47.9232" lon="6.91687">
        <ele>907</ele>
        <time>2026-05-09T12:17:05.893Z</time>
      </trkpt>
      <trkpt lat="47.92321" lon="6.91687">
        <ele>907</ele>
        <time>2026-05-09T12:17:06.893Z</time>
      </trkpt>
      <trkpt lat="47.92321" lon="6.91686">
        <ele>908</ele>
        <time>2026-05-09T12:17:07.893Z</time>
      </trkpt>
      <trkpt lat="47.92322" lon="6.91684">
        <ele>908</ele>
        <time>2026-05-09T12:17:08.893Z</time>
      </trkpt>
      <trkpt lat="47.92323" lon="6.91682">
        <ele>908</ele>
        <time>2026-05-09T12:17:09.893Z</time>
      </trkpt>
      <trkpt lat="47.92324" lon="6.91681">
        <ele>908</ele>
        <time>2026-05-09T12:17:10.893Z</time>
      </trkpt>
      <trkpt lat="47.92325" lon="6.91679">
        <ele>908</ele>
        <time>2026-05-09T12:17:11.893Z</time>
      </trkpt>
      <trkpt lat="47.92326" lon="6.91679">
        <ele>908</ele>
        <time>2026-05-09T12:17:12.893Z</time>
      </trkpt>
      <trkpt lat="47.92327" lon="6.91679">
        <ele>908</ele>
        <time>2026-05-09T12:17:13.893Z</time>
      </trkpt>
      <trkpt lat="47.92328" lon="6.91678">
        <ele>907</ele>
        <time>2026-05-09T12:17:14.893Z</time>
      </trkpt>
      <trkpt lat="47.92329" lon="6.91678">
        <ele>907</ele>
        <time>2026-05-09T12:17:15.893Z</time>
      </trkpt>
      <trkpt lat="47.92331" lon="6.91677">
        <ele>907</ele>
        <time>2026-05-09T12:17:16.893Z</time>
      </trkpt>
      <trkpt lat="47.92332" lon="6.91678">
        <ele>907</ele>
        <time>2026-05-09T12:17:17.893Z</time>
      </trkpt>
      <trkpt lat="47.92333" lon="6.91678">
        <ele>907</ele>
        <time>2026-05-09T12:17:18.893Z</time>
      </trkpt>
      <trkpt lat="47.92334" lon="6.91678">
        <ele>907</ele>
        <time>2026-05-09T12:17:19.893Z</time>
      </trkpt>
      <trkpt lat="47.92335" lon="6.91678">
        <ele>907</ele>
        <time>2026-05-09T12:17:20.893Z</time>
      </trkpt>
      <trkpt lat="47.92336" lon="6.91678">
        <ele>907</ele>
        <time>2026-05-09T12:17:21.893Z</time>
      </trkpt>
      <trkpt lat="47.92337" lon="6.91678">
        <ele>907</ele>
        <time>2026-05-09T12:17:22.893Z</time>
      </trkpt>
      <trkpt lat="47.92338" lon="6.91677">
        <ele>907</ele>
        <time>2026-05-09T12:17:23.893Z</time>
      </trkpt>
      <trkpt lat="47.92339" lon="6.91677">
        <ele>907</ele>
        <time>2026-05-09T12:17:24.893Z</time>
      </trkpt>
      <trkpt lat="47.92339" lon="6.91676">
        <ele>907</ele>
        <time>2026-05-09T12:17:25.893Z</time>
      </trkpt>
      <trkpt lat="47.92339" lon="6.91676">
        <ele>907</ele>
        <time>2026-05-09T12:17:26.893Z</time>
      </trkpt>
      <trkpt lat="47.9234" lon="6.91675">
        <ele>907</ele>
        <time>2026-05-09T12:17:27.893Z</time>
      </trkpt>
      <trkpt lat="47.92341" lon="6.91674">
        <ele>907</ele>
        <time>2026-05-09T12:17:28.893Z</time>
      </trkpt>
      <trkpt lat="47.92342" lon="6.91674">
        <ele>907</ele>
        <time>2026-05-09T12:17:29.893Z</time>
      </trkpt>
      <trkpt lat="47.92343" lon="6.91673">
        <ele>907</ele>
        <time>2026-05-09T12:17:30.893Z</time>
      </trkpt>
      <trkpt lat="47.92344" lon="6.91673">
        <ele>907</ele>
        <time>2026-05-09T12:17:31.893Z</time>
      </trkpt>
      <trkpt lat="47.92346" lon="6.91672">
        <ele>907</ele>
        <time>2026-05-09T12:17:32.893Z</time>
      </trkpt>
      <trkpt lat="47.92347" lon="6.91672">
        <ele>907</ele>
        <time>2026-05-09T12:17:33.893Z</time>
      </trkpt>
      <trkpt lat="47.92348" lon="6.91672">
        <ele>907</ele>
        <time>2026-05-09T12:17:34.893Z</time>
      </trkpt>
      <trkpt lat="47.9235" lon="6.91672">
        <ele>908</ele>
        <time>2026-05-09T12:17:35.893Z</time>
      </trkpt>
      <trkpt lat="47.92351" lon="6.91671">
        <ele>908</ele>
        <time>2026-05-09T12:17:36.893Z</time>
      </trkpt>
      <trkpt lat="47.92352" lon="6.91671">
        <ele>909</ele>
        <time>2026-05-09T12:17:37.893Z</time>
      </trkpt>
      <trkpt lat="47.92354" lon="6.91671">
        <ele>909</ele>
        <time>2026-05-09T12:17:38.893Z</time>
      </trkpt>
      <trkpt lat="47.92355" lon="6.9167">
        <ele>910</ele>
        <time>2026-05-09T12:17:39.893Z</time>
      </trkpt>
      <trkpt lat="47.92356" lon="6.9167">
        <ele>911</ele>
        <time>2026-05-09T12:17:40.893Z</time>
      </trkpt>
      <trkpt lat="47.92357" lon="6.91669">
        <ele>911</ele>
        <time>2026-05-09T12:17:41.893Z</time>
      </trkpt>
      <trkpt lat="47.92358" lon="6.91669">
        <ele>912</ele>
        <time>2026-05-09T12:17:42.893Z</time>
      </trkpt>
      <trkpt lat="47.92358" lon="6.91668">
        <ele>913</ele>
        <time>2026-05-09T12:17:43.893Z</time>
      </trkpt>
      <trkpt lat="47.9236" lon="6.91668">
        <ele>913</ele>
        <time>2026-05-09T12:17:44.893Z</time>
      </trkpt>
      <trkpt lat="47.92362" lon="6.91668">
        <ele>913</ele>
        <time>2026-05-09T12:17:45.893Z</time>
      </trkpt>
      <trkpt lat="47.92365" lon="6.91669">
        <ele>913</ele>
        <time>2026-05-09T12:17:46.893Z</time>
      </trkpt>
      <trkpt lat="47.92367" lon="6.9167">
        <ele>913</ele>
        <time>2026-05-09T12:17:47.893Z</time>
      </trkpt>
      <trkpt lat="47.92369" lon="6.9167">
        <ele>913</ele>
        <time>2026-05-09T12:17:48.893Z</time>
      </trkpt>
      <trkpt lat="47.92371" lon="6.9167">
        <ele>913</ele>
        <time>2026-05-09T12:17:49.893Z</time>
      </trkpt>
      <trkpt lat="47.92371" lon="6.91671">
        <ele>913</ele>
        <time>2026-05-09T12:17:50.893Z</time>
      </trkpt>
      <trkpt lat="47.92372" lon="6.91671">
        <ele>913</ele>
        <time>2026-05-09T12:17:51.893Z</time>
      </trkpt>
      <trkpt lat="47.92373" lon="6.91671">
        <ele>912</ele>
        <time>2026-05-09T12:17:52.893Z</time>
      </trkpt>
      <trkpt lat="47.92374" lon="6.91672">
        <ele>912</ele>
        <time>2026-05-09T12:17:53.893Z</time>
      </trkpt>
      <trkpt lat="47.92374" lon="6.91673">
        <ele>912</ele>
        <time>2026-05-09T12:17:54.893Z</time>
      </trkpt>
      <trkpt lat="47.92375" lon="6.91673">
        <ele>912</ele>
        <time>2026-05-09T12:17:55.893Z</time>
      </trkpt>
      <trkpt lat="47.92376" lon="6.91674">
        <ele>912</ele>
        <time>2026-05-09T12:17:56.893Z</time>
      </trkpt>
      <trkpt lat="47.92376" lon="6.91675">
        <ele>912</ele>
        <time>2026-05-09T12:17:57.893Z</time>
      </trkpt>
      <trkpt lat="47.92377" lon="6.91676">
        <ele>912</ele>
        <time>2026-05-09T12:17:58.893Z</time>
      </trkpt>
      <trkpt lat="47.92377" lon="6.91676">
        <ele>912</ele>
        <time>2026-05-09T12:17:59.893Z</time>
      </trkpt>
      <trkpt lat="47.92378" lon="6.91678">
        <ele>912</ele>
        <time>2026-05-09T12:18:00.893Z</time>
      </trkpt>
      <trkpt lat="47.9238" lon="6.9168">
        <ele>912</ele>
        <time>2026-05-09T12:18:01.893Z</time>
      </trkpt>
      <trkpt lat="47.92381" lon="6.91681">
        <ele>913</ele>
        <time>2026-05-09T12:18:02.893Z</time>
      </trkpt>
      <trkpt lat="47.92381" lon="6.91683">
        <ele>913</ele>
        <time>2026-05-09T12:18:03.893Z</time>
      </trkpt>
      <trkpt lat="47.92382" lon="6.91683">
        <ele>913</ele>
        <time>2026-05-09T12:18:04.893Z</time>
      </trkpt>
      <trkpt lat="47.92382" lon="6.91684">
        <ele>913</ele>
        <time>2026-05-09T12:18:05.893Z</time>
      </trkpt>
      <trkpt lat="47.92383" lon="6.91684">
        <ele>913</ele>
        <time>2026-05-09T12:18:06.893Z</time>
      </trkpt>
      <trkpt lat="47.92384" lon="6.91685">
        <ele>913</ele>
        <time>2026-05-09T12:18:07.893Z</time>
      </trkpt>
      <trkpt lat="47.92384" lon="6.91685">
        <ele>913</ele>
        <time>2026-05-09T12:18:08.893Z</time>
      </trkpt>
      <trkpt lat="47.92385" lon="6.91686">
        <ele>913</ele>
        <time>2026-05-09T12:18:09.893Z</time>
      </trkpt>
      <trkpt lat="47.92385" lon="6.91687">
        <ele>913</ele>
        <time>2026-05-09T12:18:10.893Z</time>
      </trkpt>
      <trkpt lat="47.92386" lon="6.91688">
        <ele>913</ele>
        <time>2026-05-09T12:18:11.893Z</time>
      </trkpt>
      <trkpt lat="47.92387" lon="6.91689">
        <ele>913</ele>
        <time>2026-05-09T12:18:12.893Z</time>
      </trkpt>
      <trkpt lat="47.92387" lon="6.91689">
        <ele>913</ele>
        <time>2026-05-09T12:18:13.893Z</time>
      </trkpt>
      <trkpt lat="47.92387" lon="6.9169">
        <ele>913</ele>
        <time>2026-05-09T12:18:14.893Z</time>
      </trkpt>
      <trkpt lat="47.92388" lon="6.91691">
        <ele>913</ele>
        <time>2026-05-09T12:18:15.893Z</time>
      </trkpt>
      <trkpt lat="47.92388" lon="6.91692">
        <ele>913</ele>
        <time>2026-05-09T12:18:16.893Z</time>
      </trkpt>
      <trkpt lat="47.92389" lon="6.91693">
        <ele>913</ele>
        <time>2026-05-09T12:18:17.893Z</time>
      </trkpt>
      <trkpt lat="47.9239" lon="6.91693">
        <ele>913</ele>
        <time>2026-05-09T12:18:18.893Z</time>
      </trkpt>
      <trkpt lat="47.92391" lon="6.91694">
        <ele>913</ele>
        <time>2026-05-09T12:18:19.893Z</time>
      </trkpt>
      <trkpt lat="47.92391" lon="6.91695">
        <ele>914</ele>
        <time>2026-05-09T12:18:20.893Z</time>
      </trkpt>
      <trkpt lat="47.92392" lon="6.91696">
        <ele>914</ele>
        <time>2026-05-09T12:18:21.893Z</time>
      </trkpt>
      <trkpt lat="47.92392" lon="6.91697">
        <ele>914</ele>
        <time>2026-05-09T12:18:22.893Z</time>
      </trkpt>
      <trkpt lat="47.92393" lon="6.91697">
        <ele>915</ele>
        <time>2026-05-09T12:18:23.893Z</time>
      </trkpt>
      <trkpt lat="47.92394" lon="6.91698">
        <ele>915</ele>
        <time>2026-05-09T12:18:24.893Z</time>
      </trkpt>
      <trkpt lat="47.92394" lon="6.91699">
        <ele>916</ele>
        <time>2026-05-09T12:18:25.893Z</time>
      </trkpt>
      <trkpt lat="47.92394" lon="6.917">
        <ele>916</ele>
        <time>2026-05-09T12:18:26.893Z</time>
      </trkpt>
      <trkpt lat="47.92394" lon="6.917">
        <ele>917</ele>
        <time>2026-05-09T12:18:27.893Z</time>
      </trkpt>
      <trkpt lat="47.92395" lon="6.91701">
        <ele>918</ele>
        <time>2026-05-09T12:18:28.893Z</time>
      </trkpt>
      <trkpt lat="47.92396" lon="6.917">
        <ele>918</ele>
        <time>2026-05-09T12:18:29.893Z</time>
      </trkpt>
      <trkpt lat="47.92397" lon="6.91701">
        <ele>918</ele>
        <time>2026-05-09T12:18:30.893Z</time>
      </trkpt>
      <trkpt lat="47.92397" lon="6.91701">
        <ele>918</ele>
        <time>2026-05-09T12:18:31.893Z</time>
      </trkpt>
      <trkpt lat="47.92398" lon="6.91701">
        <ele>918</ele>
        <time>2026-05-09T12:18:32.893Z</time>
      </trkpt>
      <trkpt lat="47.92398" lon="6.91701">
        <ele>918</ele>
        <time>2026-05-09T12:18:33.893Z</time>
      </trkpt>
      <trkpt lat="47.92399" lon="6.91702">
        <ele>918</ele>
        <time>2026-05-09T12:18:34.893Z</time>
      </trkpt>
      <trkpt lat="47.92399" lon="6.91702">
        <ele>919</ele>
        <time>2026-05-09T12:18:35.893Z</time>
      </trkpt>
      <trkpt lat="47.92399" lon="6.91703">
        <ele>920</ele>
        <time>2026-05-09T12:18:36.893Z</time>
      </trkpt>
      <trkpt lat="47.924" lon="6.91704">
        <ele>921</ele>
        <time>2026-05-09T12:18:37.893Z</time>
      </trkpt>
      <trkpt lat="47.924" lon="6.91705">
        <ele>922</ele>
        <time>2026-05-09T12:18:38.893Z</time>
      </trkpt>
      <trkpt lat="47.924" lon="6.91706">
        <ele>922</ele>
        <time>2026-05-09T12:18:39.893Z</time>
      </trkpt>
      <trkpt lat="47.924" lon="6.91708">
        <ele>923</ele>
        <time>2026-05-09T12:18:40.893Z</time>
      </trkpt>
      <trkpt lat="47.924" lon="6.91708">
        <ele>923</ele>
        <time>2026-05-09T12:18:41.893Z</time>
      </trkpt>
      <trkpt lat="47.92399" lon="6.91708">
        <ele>924</ele>
        <time>2026-05-09T12:18:42.893Z</time>
      </trkpt>
      <trkpt lat="47.92399" lon="6.9171">
        <ele>924</ele>
        <time>2026-05-09T12:18:43.893Z</time>
      </trkpt>
      <trkpt lat="47.92399" lon="6.91709">
        <ele>925</ele>
        <time>2026-05-09T12:18:44.893Z</time>
      </trkpt>
      <trkpt lat="47.92398" lon="6.91709">
        <ele>926</ele>
        <time>2026-05-09T12:18:45.893Z</time>
      </trkpt>
      <trkpt lat="47.92398" lon="6.9171">
        <ele>926</ele>
        <time>2026-05-09T12:18:46.893Z</time>
      </trkpt>
      <trkpt lat="47.92398" lon="6.9171">
        <ele>927</ele>
        <time>2026-05-09T12:18:47.893Z</time>
      </trkpt>
      <trkpt lat="47.92397" lon="6.9171">
        <ele>927</ele>
        <time>2026-05-09T12:18:48.893Z</time>
      </trkpt>
      <trkpt lat="47.92397" lon="6.91711">
        <ele>927</ele>
        <time>2026-05-09T12:18:49.893Z</time>
      </trkpt>
      <trkpt lat="47.92396" lon="6.91711">
        <ele>928</ele>
        <time>2026-05-09T12:18:50.893Z</time>
      </trkpt>
      <trkpt lat="47.92396" lon="6.91712">
        <ele>928</ele>
        <time>2026-05-09T12:18:51.893Z</time>
      </trkpt>
      <trkpt lat="47.92395" lon="6.91713">
        <ele>928</ele>
        <time>2026-05-09T12:18:52.893Z</time>
      </trkpt>
      <trkpt lat="47.92394" lon="6.91713">
        <ele>928</ele>
        <time>2026-05-09T12:18:53.893Z</time>
      </trkpt>
      <trkpt lat="47.92393" lon="6.91714">
        <ele>928</ele>
        <time>2026-05-09T12:18:54.893Z</time>
      </trkpt>
      <trkpt lat="47.92393" lon="6.91715">
        <ele>928</ele>
        <time>2026-05-09T12:18:55.893Z</time>
      </trkpt>
      <trkpt lat="47.92392" lon="6.91715">
        <ele>928</ele>
        <time>2026-05-09T12:18:56.893Z</time>
      </trkpt>
      <trkpt lat="47.92392" lon="6.91716">
        <ele>928</ele>
        <time>2026-05-09T12:18:57.893Z</time>
      </trkpt>
      <trkpt lat="47.92391" lon="6.91716">
        <ele>928</ele>
        <time>2026-05-09T12:18:58.893Z</time>
      </trkpt>
      <trkpt lat="47.9239" lon="6.91717">
        <ele>928</ele>
        <time>2026-05-09T12:18:59.893Z</time>
      </trkpt>
      <trkpt lat="47.92389" lon="6.91717">
        <ele>929</ele>
        <time>2026-05-09T12:19:00.893Z</time>
      </trkpt>
      <trkpt lat="47.92388" lon="6.91717">
        <ele>929</ele>
        <time>2026-05-09T12:19:01.893Z</time>
      </trkpt>
      <trkpt lat="47.92387" lon="6.91718">
        <ele>929</ele>
        <time>2026-05-09T12:19:02.893Z</time>
      </trkpt>
      <trkpt lat="47.92386" lon="6.91718">
        <ele>930</ele>
        <time>2026-05-09T12:19:03.893Z</time>
      </trkpt>
      <trkpt lat="47.92385" lon="6.91718">
        <ele>930</ele>
        <time>2026-05-09T12:19:04.893Z</time>
      </trkpt>
      <trkpt lat="47.92383" lon="6.91719">
        <ele>930</ele>
        <time>2026-05-09T12:19:05.893Z</time>
      </trkpt>
      <trkpt lat="47.92382" lon="6.9172">
        <ele>931</ele>
        <time>2026-05-09T12:19:06.893Z</time>
      </trkpt>
      <trkpt lat="47.92381" lon="6.9172">
        <ele>931</ele>
        <time>2026-05-09T12:19:07.893Z</time>
      </trkpt>
      <trkpt lat="47.9238" lon="6.9172">
        <ele>931</ele>
        <time>2026-05-09T12:19:08.893Z</time>
      </trkpt>
      <trkpt lat="47.92379" lon="6.9172">
        <ele>931</ele>
        <time>2026-05-09T12:19:09.893Z</time>
      </trkpt>
      <trkpt lat="47.92378" lon="6.9172">
        <ele>931</ele>
        <time>2026-05-09T12:19:10.893Z</time>
      </trkpt>
      <trkpt lat="47.92378" lon="6.9172">
        <ele>931</ele>
        <time>2026-05-09T12:19:11.893Z</time>
      </trkpt>
      <trkpt lat="47.92377" lon="6.9172">
        <ele>931</ele>
        <time>2026-05-09T12:19:12.893Z</time>
      </trkpt>
      <trkpt lat="47.92376" lon="6.9172">
        <ele>931</ele>
        <time>2026-05-09T12:19:13.893Z</time>
      </trkpt>
      <trkpt lat="47.92376" lon="6.9172">
        <ele>931</ele>
        <time>2026-05-09T12:19:14.893Z</time>
      </trkpt>
      <trkpt lat="47.92375" lon="6.91721">
        <ele>931</ele>
        <time>2026-05-09T12:19:15.893Z</time>
      </trkpt>
      <trkpt lat="47.92375" lon="6.91721">
        <ele>931</ele>
        <time>2026-05-09T12:19:16.893Z</time>
      </trkpt>
      <trkpt lat="47.92374" lon="6.91721">
        <ele>931</ele>
        <time>2026-05-09T12:19:17.893Z</time>
      </trkpt>
      <trkpt lat="47.92373" lon="6.91722">
        <ele>931</ele>
        <time>2026-05-09T12:19:18.893Z</time>
      </trkpt>
      <trkpt lat="47.92373" lon="6.91722">
        <ele>931</ele>
        <time>2026-05-09T12:19:19.893Z</time>
      </trkpt>
      <trkpt lat="47.92372" lon="6.91723">
        <ele>931</ele>
        <time>2026-05-09T12:19:20.893Z</time>
      </trkpt>
      <trkpt lat="47.92372" lon="6.91726">
        <ele>931</ele>
        <time>2026-05-09T12:19:21.893Z</time>
      </trkpt>
      <trkpt lat="47.9237" lon="6.91728">
        <ele>931</ele>
        <time>2026-05-09T12:19:22.893Z</time>
      </trkpt>
      <trkpt lat="47.9237" lon="6.91729">
        <ele>932</ele>
        <time>2026-05-09T12:19:23.893Z</time>
      </trkpt>
      <trkpt lat="47.92369" lon="6.9173">
        <ele>932</ele>
        <time>2026-05-09T12:19:24.893Z</time>
      </trkpt>
      <trkpt lat="47.92369" lon="6.91731">
        <ele>933</ele>
        <time>2026-05-09T12:19:25.893Z</time>
      </trkpt>
      <trkpt lat="47.92368" lon="6.91732">
        <ele>933</ele>
        <time>2026-05-09T12:19:26.893Z</time>
      </trkpt>
      <trkpt lat="47.92368" lon="6.91734">
        <ele>933</ele>
        <time>2026-05-09T12:19:27.893Z</time>
      </trkpt>
      <trkpt lat="47.92367" lon="6.91735">
        <ele>934</ele>
        <time>2026-05-09T12:19:28.893Z</time>
      </trkpt>
      <trkpt lat="47.92366" lon="6.91736">
        <ele>934</ele>
        <time>2026-05-09T12:19:29.893Z</time>
      </trkpt>
      <trkpt lat="47.92366" lon="6.91736">
        <ele>935</ele>
        <time>2026-05-09T12:19:30.893Z</time>
      </trkpt>
      <trkpt lat="47.92365" lon="6.91737">
        <ele>935</ele>
        <time>2026-05-09T12:19:31.893Z</time>
      </trkpt>
      <trkpt lat="47.92365" lon="6.91737">
        <ele>935</ele>
        <time>2026-05-09T12:19:32.893Z</time>
      </trkpt>
      <trkpt lat="47.92364" lon="6.91738">
        <ele>936</ele>
        <time>2026-05-09T12:19:33.893Z</time>
      </trkpt>
      <trkpt lat="47.92363" lon="6.91738">
        <ele>936</ele>
        <time>2026-05-09T12:19:34.893Z</time>
      </trkpt>
      <trkpt lat="47.92363" lon="6.91739">
        <ele>936</ele>
        <time>2026-05-09T12:19:35.893Z</time>
      </trkpt>
      <trkpt lat="47.92362" lon="6.91739">
        <ele>936</ele>
        <time>2026-05-09T12:19:36.893Z</time>
      </trkpt>
      <trkpt lat="47.92362" lon="6.91739">
        <ele>936</ele>
        <time>2026-05-09T12:19:37.893Z</time>
      </trkpt>
      <trkpt lat="47.92361" lon="6.91739">
        <ele>936</ele>
        <time>2026-05-09T12:19:38.893Z</time>
      </trkpt>
      <trkpt lat="47.9236" lon="6.9174">
        <ele>936</ele>
        <time>2026-05-09T12:19:39.893Z</time>
      </trkpt>
      <trkpt lat="47.92359" lon="6.91741">
        <ele>936</ele>
        <time>2026-05-09T12:19:40.893Z</time>
      </trkpt>
      <trkpt lat="47.92358" lon="6.91742">
        <ele>936</ele>
        <time>2026-05-09T12:19:41.893Z</time>
      </trkpt>
      <trkpt lat="47.92356" lon="6.91743">
        <ele>936</ele>
        <time>2026-05-09T12:19:42.893Z</time>
      </trkpt>
      <trkpt lat="47.92355" lon="6.91744">
        <ele>936</ele>
        <time>2026-05-09T12:19:43.893Z</time>
      </trkpt>
      <trkpt lat="47.92355" lon="6.91745">
        <ele>936</ele>
        <time>2026-05-09T12:19:44.893Z</time>
      </trkpt>
      <trkpt lat="47.92354" lon="6.91745">
        <ele>936</ele>
        <time>2026-05-09T12:19:45.893Z</time>
      </trkpt>
      <trkpt lat="47.92356" lon="6.91746">
        <ele>935</ele>
        <time>2026-05-09T12:19:52.321Z</time>
      </trkpt>
      <trkpt lat="47.92357" lon="6.91745">
        <ele>935</ele>
        <time>2026-05-09T12:19:53.322Z</time>
      </trkpt>
      <trkpt lat="47.92358" lon="6.91745">
        <ele>935</ele>
        <time>2026-05-09T12:19:54.322Z</time>
      </trkpt>
      <trkpt lat="47.92359" lon="6.91744">
        <ele>935</ele>
        <time>2026-05-09T12:19:55.321Z</time>
      </trkpt>
      <trkpt lat="47.9236" lon="6.91744">
        <ele>935</ele>
        <time>2026-05-09T12:19:56.322Z</time>
      </trkpt>
      <trkpt lat="47.92361" lon="6.91744">
        <ele>936</ele>
        <time>2026-05-09T12:19:57.321Z</time>
      </trkpt>
      <trkpt lat="47.92361" lon="6.91744">
        <ele>936</ele>
        <time>2026-05-09T12:19:58.322Z</time>
      </trkpt>
      <trkpt lat="47.92362" lon="6.91744">
        <ele>936</ele>
        <time>2026-05-09T12:19:59.321Z</time>
      </trkpt>
      <trkpt lat="47.92364" lon="6.91744">
        <ele>936</ele>
        <time>2026-05-09T12:20:00.321Z</time>
      </trkpt>
      <trkpt lat="47.92365" lon="6.91744">
        <ele>936</ele>
        <time>2026-05-09T12:20:01.322Z</time>
      </trkpt>
      <trkpt lat="47.92367" lon="6.91743">
        <ele>935</ele>
        <time>2026-05-09T12:20:02.321Z</time>
      </trkpt>
      <trkpt lat="47.92367" lon="6.91744">
        <ele>935</ele>
        <time>2026-05-09T12:20:03.322Z</time>
      </trkpt>
      <trkpt lat="47.92368" lon="6.91744">
        <ele>935</ele>
        <time>2026-05-09T12:20:04.322Z</time>
      </trkpt>
      <trkpt lat="47.92369" lon="6.91744">
        <ele>934</ele>
        <time>2026-05-09T12:20:05.321Z</time>
      </trkpt>
      <trkpt lat="47.9237" lon="6.91744">
        <ele>934</ele>
        <time>2026-05-09T12:20:06.321Z</time>
      </trkpt>
      <trkpt lat="47.92371" lon="6.91745">
        <ele>933</ele>
        <time>2026-05-09T12:20:07.321Z</time>
      </trkpt>
      <trkpt lat="47.92372" lon="6.91746">
        <ele>933</ele>
        <time>2026-05-09T12:20:08.322Z</time>
      </trkpt>
      <trkpt lat="47.92373" lon="6.91747">
        <ele>932</ele>
        <time>2026-05-09T12:20:09.321Z</time>
      </trkpt>
      <trkpt lat="47.92373" lon="6.91749">
        <ele>932</ele>
        <time>2026-05-09T12:20:10.322Z</time>
      </trkpt>
      <trkpt lat="47.92374" lon="6.91751">
        <ele>932</ele>
        <time>2026-05-09T12:20:11.321Z</time>
      </trkpt>
      <trkpt lat="47.92374" lon="6.91752">
        <ele>931</ele>
        <time>2026-05-09T12:20:12.322Z</time>
      </trkpt>
      <trkpt lat="47.92374" lon="6.91752">
        <ele>931</ele>
        <time>2026-05-09T12:20:13.322Z</time>
      </trkpt>
      <trkpt lat="47.92375" lon="6.91754">
        <ele>930</ele>
        <time>2026-05-09T12:20:14.321Z</time>
      </trkpt>
      <trkpt lat="47.92376" lon="6.91754">
        <ele>930</ele>
        <time>2026-05-09T12:20:15.322Z</time>
      </trkpt>
      <trkpt lat="47.92377" lon="6.91754">
        <ele>930</ele>
        <time>2026-05-09T12:20:16.321Z</time>
      </trkpt>
      <trkpt lat="47.92378" lon="6.91754">
        <ele>930</ele>
        <time>2026-05-09T12:20:17.322Z</time>
      </trkpt>
      <trkpt lat="47.92378" lon="6.91756">
        <ele>930</ele>
        <time>2026-05-09T12:20:18.321Z</time>
      </trkpt>
      <trkpt lat="47.92379" lon="6.91757">
        <ele>930</ele>
        <time>2026-05-09T12:20:19.322Z</time>
      </trkpt>
      <trkpt lat="47.9238" lon="6.91758">
        <ele>930</ele>
        <time>2026-05-09T12:20:20.321Z</time>
      </trkpt>
      <trkpt lat="47.92381" lon="6.91758">
        <ele>930</ele>
        <time>2026-05-09T12:20:21.322Z</time>
      </trkpt>
      <trkpt lat="47.92383" lon="6.91759">
        <ele>930</ele>
        <time>2026-05-09T12:20:22.322Z</time>
      </trkpt>
      <trkpt lat="47.92384" lon="6.9176">
        <ele>930</ele>
        <time>2026-05-09T12:20:23.321Z</time>
      </trkpt>
      <trkpt lat="47.92385" lon="6.91761">
        <ele>929</ele>
        <time>2026-05-09T12:20:24.322Z</time>
      </trkpt>
      <trkpt lat="47.92385" lon="6.91763">
        <ele>929</ele>
        <time>2026-05-09T12:20:25.322Z</time>
      </trkpt>
      <trkpt lat="47.92387" lon="6.91763">
        <ele>929</ele>
        <time>2026-05-09T12:20:26.321Z</time>
      </trkpt>
      <trkpt lat="47.92388" lon="6.91765">
        <ele>929</ele>
        <time>2026-05-09T12:20:27.321Z</time>
      </trkpt>
      <trkpt lat="47.9239" lon="6.91766">
        <ele>929</ele>
        <time>2026-05-09T12:20:28.322Z</time>
      </trkpt>
      <trkpt lat="47.92391" lon="6.91767">
        <ele>930</ele>
        <time>2026-05-09T12:20:29.321Z</time>
      </trkpt>
      <trkpt lat="47.92391" lon="6.91768">
        <ele>930</ele>
        <time>2026-05-09T12:20:30.322Z</time>
      </trkpt>
      <trkpt lat="47.92392" lon="6.91768">
        <ele>930</ele>
        <time>2026-05-09T12:20:31.322Z</time>
      </trkpt>
      <trkpt lat="47.92393" lon="6.91768">
        <ele>931</ele>
        <time>2026-05-09T12:20:32.321Z</time>
      </trkpt>
      <trkpt lat="47.92393" lon="6.91768">
        <ele>932</ele>
        <time>2026-05-09T12:20:33.322Z</time>
      </trkpt>
      <trkpt lat="47.92393" lon="6.91767">
        <ele>932</ele>
        <time>2026-05-09T12:20:34.321Z</time>
      </trkpt>
      <trkpt lat="47.92394" lon="6.91768">
        <ele>933</ele>
        <time>2026-05-09T12:20:35.322Z</time>
      </trkpt>
      <trkpt lat="47.92396" lon="6.91768">
        <ele>934</ele>
        <time>2026-05-09T12:20:36.322Z</time>
      </trkpt>
      <trkpt lat="47.92397" lon="6.91769">
        <ele>935</ele>
        <time>2026-05-09T12:20:37.322Z</time>
      </trkpt>
      <trkpt lat="47.92398" lon="6.9177">
        <ele>935</ele>
        <time>2026-05-09T12:20:38.321Z</time>
      </trkpt>
      <trkpt lat="47.92398" lon="6.91771">
        <ele>936</ele>
        <time>2026-05-09T12:20:39.321Z</time>
      </trkpt>
      <trkpt lat="47.92399" lon="6.91772">
        <ele>936</ele>
        <time>2026-05-09T12:20:40.322Z</time>
      </trkpt>
      <trkpt lat="47.924" lon="6.91773">
        <ele>937</ele>
        <time>2026-05-09T12:20:41.322Z</time>
      </trkpt>
      <trkpt lat="47.92401" lon="6.91773">
        <ele>938</ele>
        <time>2026-05-09T12:20:42.322Z</time>
      </trkpt>
      <trkpt lat="47.92401" lon="6.91774">
        <ele>938</ele>
        <time>2026-05-09T12:20:43.321Z</time>
      </trkpt>
      <trkpt lat="47.92402" lon="6.91775">
        <ele>938</ele>
        <time>2026-05-09T12:20:44.322Z</time>
      </trkpt>
      <trkpt lat="47.92402" lon="6.91776">
        <ele>939</ele>
        <time>2026-05-09T12:20:45.322Z</time>
      </trkpt>
      <trkpt lat="47.92403" lon="6.91776">
        <ele>939</ele>
        <time>2026-05-09T12:20:46.321Z</time>
      </trkpt>
      <trkpt lat="47.92403" lon="6.91777">
        <ele>939</ele>
        <time>2026-05-09T12:20:47.322Z</time>
      </trkpt>
      <trkpt lat="47.92404" lon="6.91777">
        <ele>939</ele>
        <time>2026-05-09T12:20:48.322Z</time>
      </trkpt>
      <trkpt lat="47.92405" lon="6.91778">
        <ele>939</ele>
        <time>2026-05-09T12:20:49.322Z</time>
      </trkpt>
      <trkpt lat="47.92406" lon="6.91778">
        <ele>939</ele>
        <time>2026-05-09T12:20:50.322Z</time>
      </trkpt>
      <trkpt lat="47.92407" lon="6.91779">
        <ele>939</ele>
        <time>2026-05-09T12:20:51.322Z</time>
      </trkpt>
      <trkpt lat="47.92407" lon="6.91779">
        <ele>939</ele>
        <time>2026-05-09T12:20:52.322Z</time>
      </trkpt>
      <trkpt lat="47.92407" lon="6.9178">
        <ele>939</ele>
        <time>2026-05-09T12:20:53.322Z</time>
      </trkpt>
      <trkpt lat="47.92407" lon="6.9178">
        <ele>939</ele>
        <time>2026-05-09T12:20:54.322Z</time>
      </trkpt>
      <trkpt lat="47.92408" lon="6.9178">
        <ele>940</ele>
        <time>2026-05-09T12:20:55.322Z</time>
      </trkpt>
      <trkpt lat="47.92409" lon="6.91781">
        <ele>940</ele>
        <time>2026-05-09T12:20:56.321Z</time>
      </trkpt>
      <trkpt lat="47.9241" lon="6.91782">
        <ele>940</ele>
        <time>2026-05-09T12:20:57.322Z</time>
      </trkpt>
      <trkpt lat="47.92411" lon="6.91782">
        <ele>941</ele>
        <time>2026-05-09T12:20:58.321Z</time>
      </trkpt>
      <trkpt lat="47.92412" lon="6.91783">
        <ele>941</ele>
        <time>2026-05-09T12:20:59.322Z</time>
      </trkpt>
      <trkpt lat="47.92413" lon="6.91784">
        <ele>942</ele>
        <time>2026-05-09T12:21:00.321Z</time>
      </trkpt>
      <trkpt lat="47.92414" lon="6.91785">
        <ele>942</ele>
        <time>2026-05-09T12:21:01.321Z</time>
      </trkpt>
      <trkpt lat="47.92415" lon="6.91786">
        <ele>942</ele>
        <time>2026-05-09T12:21:02.322Z</time>
      </trkpt>
      <trkpt lat="47.92415" lon="6.91788">
        <ele>942</ele>
        <time>2026-05-09T12:21:03.321Z</time>
      </trkpt>
      <trkpt lat="47.92416" lon="6.91789">
        <ele>942</ele>
        <time>2026-05-09T12:21:04.322Z</time>
      </trkpt>
      <trkpt lat="47.92417" lon="6.9179">
        <ele>943</ele>
        <time>2026-05-09T12:21:05.321Z</time>
      </trkpt>
      <trkpt lat="47.92418" lon="6.91791">
        <ele>943</ele>
        <time>2026-05-09T12:21:06.321Z</time>
      </trkpt>
      <trkpt lat="47.92418" lon="6.91792">
        <ele>943</ele>
        <time>2026-05-09T12:21:07.321Z</time>
      </trkpt>
      <trkpt lat="47.92419" lon="6.91793">
        <ele>943</ele>
        <time>2026-05-09T12:21:08.322Z</time>
      </trkpt>
      <trkpt lat="47.9242" lon="6.91794">
        <ele>943</ele>
        <time>2026-05-09T12:21:09.322Z</time>
      </trkpt>
      <trkpt lat="47.92422" lon="6.91795">
        <ele>943</ele>
        <time>2026-05-09T12:21:10.321Z</time>
      </trkpt>
      <trkpt lat="47.92423" lon="6.91796">
        <ele>943</ele>
        <time>2026-05-09T12:21:11.322Z</time>
      </trkpt>
      <trkpt lat="47.92424" lon="6.91796">
        <ele>943</ele>
        <time>2026-05-09T12:21:12.321Z</time>
      </trkpt>
      <trkpt lat="47.92425" lon="6.91795">
        <ele>942</ele>
        <time>2026-05-09T12:21:13.321Z</time>
      </trkpt>
      <trkpt lat="47.92425" lon="6.91796">
        <ele>942</ele>
        <time>2026-05-09T12:21:14.322Z</time>
      </trkpt>
      <trkpt lat="47.92425" lon="6.91795">
        <ele>943</ele>
        <time>2026-05-09T12:21:15.322Z</time>
      </trkpt>
      <trkpt lat="47.92426" lon="6.91795">
        <ele>943</ele>
        <time>2026-05-09T12:21:16.322Z</time>
      </trkpt>
      <trkpt lat="47.92427" lon="6.91795">
        <ele>943</ele>
        <time>2026-05-09T12:21:17.322Z</time>
      </trkpt>
      <trkpt lat="47.92428" lon="6.91796">
        <ele>943</ele>
        <time>2026-05-09T12:21:18.322Z</time>
      </trkpt>
      <trkpt lat="47.9243" lon="6.91797">
        <ele>943</ele>
        <time>2026-05-09T12:21:19.322Z</time>
      </trkpt>
      <trkpt lat="47.92431" lon="6.91799">
        <ele>943</ele>
        <time>2026-05-09T12:21:20.322Z</time>
      </trkpt>
      <trkpt lat="47.92432" lon="6.918">
        <ele>944</ele>
        <time>2026-05-09T12:21:21.321Z</time>
      </trkpt>
      <trkpt lat="47.92433" lon="6.91801">
        <ele>944</ele>
        <time>2026-05-09T12:21:22.322Z</time>
      </trkpt>
      <trkpt lat="47.92434" lon="6.91802">
        <ele>943</ele>
        <time>2026-05-09T12:21:23.322Z</time>
      </trkpt>
      <trkpt lat="47.92435" lon="6.91803">
        <ele>943</ele>
        <time>2026-05-09T12:21:24.321Z</time>
      </trkpt>
      <trkpt lat="47.92436" lon="6.91803">
        <ele>944</ele>
        <time>2026-05-09T12:21:25.321Z</time>
      </trkpt>
      <trkpt lat="47.92437" lon="6.91803">
        <ele>944</ele>
        <time>2026-05-09T12:21:26.321Z</time>
      </trkpt>
      <trkpt lat="47.92438" lon="6.91803">
        <ele>944</ele>
        <time>2026-05-09T12:21:27.322Z</time>
      </trkpt>
      <trkpt lat="47.92439" lon="6.91804">
        <ele>944</ele>
        <time>2026-05-09T12:21:28.322Z</time>
      </trkpt>
      <trkpt lat="47.9244" lon="6.91804">
        <ele>945</ele>
        <time>2026-05-09T12:21:29.322Z</time>
      </trkpt>
      <trkpt lat="47.92441" lon="6.91806">
        <ele>945</ele>
        <time>2026-05-09T12:21:30.322Z</time>
      </trkpt>
      <trkpt lat="47.92442" lon="6.91807">
        <ele>945</ele>
        <time>2026-05-09T12:21:31.321Z</time>
      </trkpt>
      <trkpt lat="47.92443" lon="6.91807">
        <ele>945</ele>
        <time>2026-05-09T12:21:32.322Z</time>
      </trkpt>
      <trkpt lat="47.92444" lon="6.91808">
        <ele>946</ele>
        <time>2026-05-09T12:21:33.322Z</time>
      </trkpt>
      <trkpt lat="47.92445" lon="6.91809">
        <ele>946</ele>
        <time>2026-05-09T12:21:34.322Z</time>
      </trkpt>
      <trkpt lat="47.92446" lon="6.9181">
        <ele>947</ele>
        <time>2026-05-09T12:21:35.322Z</time>
      </trkpt>
      <trkpt lat="47.92447" lon="6.91811">
        <ele>948</ele>
        <time>2026-05-09T12:21:36.321Z</time>
      </trkpt>
      <trkpt lat="47.92447" lon="6.91812">
        <ele>948</ele>
        <time>2026-05-09T12:21:37.322Z</time>
      </trkpt>
      <trkpt lat="47.92448" lon="6.91813">
        <ele>949</ele>
        <time>2026-05-09T12:21:38.322Z</time>
      </trkpt>
      <trkpt lat="47.92449" lon="6.91813">
        <ele>949</ele>
        <time>2026-05-09T12:21:39.321Z</time>
      </trkpt>
      <trkpt lat="47.9245" lon="6.91814">
        <ele>949</ele>
        <time>2026-05-09T12:21:40.322Z</time>
      </trkpt>
      <trkpt lat="47.92451" lon="6.91816">
        <ele>949</ele>
        <time>2026-05-09T12:21:41.322Z</time>
      </trkpt>
      <trkpt lat="47.92452" lon="6.91817">
        <ele>949</ele>
        <time>2026-05-09T12:21:42.321Z</time>
      </trkpt>
      <trkpt lat="47.92454" lon="6.91817">
        <ele>949</ele>
        <time>2026-05-09T12:21:43.322Z</time>
      </trkpt>
      <trkpt lat="47.92455" lon="6.91818">
        <ele>949</ele>
        <time>2026-05-09T12:21:44.322Z</time>
      </trkpt>
      <trkpt lat="47.92456" lon="6.91819">
        <ele>949</ele>
        <time>2026-05-09T12:21:45.321Z</time>
      </trkpt>
      <trkpt lat="47.92457" lon="6.9182">
        <ele>950</ele>
        <time>2026-05-09T12:21:46.321Z</time>
      </trkpt>
      <trkpt lat="47.92458" lon="6.9182">
        <ele>950</ele>
        <time>2026-05-09T12:21:47.321Z</time>
      </trkpt>
      <trkpt lat="47.92459" lon="6.9182">
        <ele>951</ele>
        <time>2026-05-09T12:21:48.321Z</time>
      </trkpt>
      <trkpt lat="47.9246" lon="6.9182">
        <ele>951</ele>
        <time>2026-05-09T12:21:49.321Z</time>
      </trkpt>
      <trkpt lat="47.92461" lon="6.9182">
        <ele>952</ele>
        <time>2026-05-09T12:21:50.321Z</time>
      </trkpt>
      <trkpt lat="47.92461" lon="6.91821">
        <ele>953</ele>
        <time>2026-05-09T12:21:51.322Z</time>
      </trkpt>
      <trkpt lat="47.92461" lon="6.91821">
        <ele>953</ele>
        <time>2026-05-09T12:21:52.322Z</time>
      </trkpt>
      <trkpt lat="47.92462" lon="6.91823">
        <ele>954</ele>
        <time>2026-05-09T12:21:53.322Z</time>
      </trkpt>
      <trkpt lat="47.92463" lon="6.91825">
        <ele>954</ele>
        <time>2026-05-09T12:21:54.322Z</time>
      </trkpt>
      <trkpt lat="47.92464" lon="6.91826">
        <ele>954</ele>
        <time>2026-05-09T12:21:55.322Z</time>
      </trkpt>
      <trkpt lat="47.92465" lon="6.91827">
        <ele>955</ele>
        <time>2026-05-09T12:21:56.322Z</time>
      </trkpt>
      <trkpt lat="47.92465" lon="6.91829">
        <ele>955</ele>
        <time>2026-05-09T12:21:57.322Z</time>
      </trkpt>
      <trkpt lat="47.92466" lon="6.9183">
        <ele>956</ele>
        <time>2026-05-09T12:21:58.321Z</time>
      </trkpt>
      <trkpt lat="47.92467" lon="6.91831">
        <ele>956</ele>
        <time>2026-05-09T12:21:59.321Z</time>
      </trkpt>
      <trkpt lat="47.92468" lon="6.91832">
        <ele>956</ele>
        <time>2026-05-09T12:22:00.322Z</time>
      </trkpt>
      <trkpt lat="47.92468" lon="6.91833">
        <ele>957</ele>
        <time>2026-05-09T12:22:01.322Z</time>
      </trkpt>
      <trkpt lat="47.92468" lon="6.91833">
        <ele>957</ele>
        <time>2026-05-09T12:22:02.321Z</time>
      </trkpt>
      <trkpt lat="47.92469" lon="6.91834">
        <ele>958</ele>
        <time>2026-05-09T12:22:03.321Z</time>
      </trkpt>
      <trkpt lat="47.9247" lon="6.91834">
        <ele>958</ele>
        <time>2026-05-09T12:22:04.321Z</time>
      </trkpt>
      <trkpt lat="47.9247" lon="6.91835">
        <ele>959</ele>
        <time>2026-05-09T12:22:05.322Z</time>
      </trkpt>
      <trkpt lat="47.92471" lon="6.91836">
        <ele>959</ele>
        <time>2026-05-09T12:22:06.321Z</time>
      </trkpt>
      <trkpt lat="47.92472" lon="6.91836">
        <ele>960</ele>
        <time>2026-05-09T12:22:07.321Z</time>
      </trkpt>
      <trkpt lat="47.92472" lon="6.91837">
        <ele>960</ele>
        <time>2026-05-09T12:22:08.321Z</time>
      </trkpt>
      <trkpt lat="47.92473" lon="6.91838">
        <ele>961</ele>
        <time>2026-05-09T12:22:09.321Z</time>
      </trkpt>
      <trkpt lat="47.92473" lon="6.91839">
        <ele>961</ele>
        <time>2026-05-09T12:22:10.321Z</time>
      </trkpt>
      <trkpt lat="47.92474" lon="6.9184">
        <ele>961</ele>
        <time>2026-05-09T12:22:11.322Z</time>
      </trkpt>
      <trkpt lat="47.92474" lon="6.91841">
        <ele>961</ele>
        <time>2026-05-09T12:22:12.322Z</time>
      </trkpt>
      <trkpt lat="47.92475" lon="6.91843">
        <ele>961</ele>
        <time>2026-05-09T12:22:13.322Z</time>
      </trkpt>
      <trkpt lat="47.92476" lon="6.91843">
        <ele>961</ele>
        <time>2026-05-09T12:22:14.321Z</time>
      </trkpt>
      <trkpt lat="47.92476" lon="6.91844">
        <ele>961</ele>
        <time>2026-05-09T12:22:15.321Z</time>
      </trkpt>
      <trkpt lat="47.92477" lon="6.91845">
        <ele>961</ele>
        <time>2026-05-09T12:22:16.321Z</time>
      </trkpt>
      <trkpt lat="47.92477" lon="6.91847">
        <ele>961</ele>
        <time>2026-05-09T12:22:17.322Z</time>
      </trkpt>
      <trkpt lat="47.92477" lon="6.91848">
        <ele>960</ele>
        <time>2026-05-09T12:22:18.322Z</time>
      </trkpt>
      <trkpt lat="47.92477" lon="6.91849">
        <ele>960</ele>
        <time>2026-05-09T12:22:19.321Z</time>
      </trkpt>
      <trkpt lat="47.92478" lon="6.9185">
        <ele>960</ele>
        <time>2026-05-09T12:22:20.322Z</time>
      </trkpt>
      <trkpt lat="47.92479" lon="6.91851">
        <ele>960</ele>
        <time>2026-05-09T12:22:21.322Z</time>
      </trkpt>
      <trkpt lat="47.9248" lon="6.91851">
        <ele>960</ele>
        <time>2026-05-09T12:22:22.321Z</time>
      </trkpt>
      <trkpt lat="47.92481" lon="6.91852">
        <ele>960</ele>
        <time>2026-05-09T12:22:23.322Z</time>
      </trkpt>
      <trkpt lat="47.92481" lon="6.91854">
        <ele>960</ele>
        <time>2026-05-09T12:22:24.322Z</time>
      </trkpt>
      <trkpt lat="47.92482" lon="6.91855">
        <ele>960</ele>
        <time>2026-05-09T12:22:25.321Z</time>
      </trkpt>
      <trkpt lat="47.92482" lon="6.91856">
        <ele>960</ele>
        <time>2026-05-09T12:22:26.321Z</time>
      </trkpt>
      <trkpt lat="47.92482" lon="6.91857">
        <ele>960</ele>
        <time>2026-05-09T12:22:27.321Z</time>
      </trkpt>
      <trkpt lat="47.92483" lon="6.91858">
        <ele>960</ele>
        <time>2026-05-09T12:22:28.322Z</time>
      </trkpt>
      <trkpt lat="47.92483" lon="6.91858">
        <ele>960</ele>
        <time>2026-05-09T12:22:29.322Z</time>
      </trkpt>
      <trkpt lat="47.92484" lon="6.9186">
        <ele>960</ele>
        <time>2026-05-09T12:22:30.322Z</time>
      </trkpt>
      <trkpt lat="47.92485" lon="6.91861">
        <ele>960</ele>
        <time>2026-05-09T12:22:31.322Z</time>
      </trkpt>
      <trkpt lat="47.92485" lon="6.91862">
        <ele>960</ele>
        <time>2026-05-09T12:22:32.321Z</time>
      </trkpt>
      <trkpt lat="47.92486" lon="6.91863">
        <ele>960</ele>
        <time>2026-05-09T12:22:33.321Z</time>
      </trkpt>
      <trkpt lat="47.92486" lon="6.91864">
        <ele>960</ele>
        <time>2026-05-09T12:22:34.321Z</time>
      </trkpt>
      <trkpt lat="47.92486" lon="6.91864">
        <ele>960</ele>
        <time>2026-05-09T12:22:35.322Z</time>
      </trkpt>
      <trkpt lat="47.92486" lon="6.91865">
        <ele>960</ele>
        <time>2026-05-09T12:22:36.321Z</time>
      </trkpt>
      <trkpt lat="47.92486" lon="6.91865">
        <ele>960</ele>
        <time>2026-05-09T12:22:37.322Z</time>
      </trkpt>
      <trkpt lat="47.92487" lon="6.91866">
        <ele>960</ele>
        <time>2026-05-09T12:22:38.321Z</time>
      </trkpt>
      <trkpt lat="47.92488" lon="6.91867">
        <ele>960</ele>
        <time>2026-05-09T12:22:39.322Z</time>
      </trkpt>
      <trkpt lat="47.92489" lon="6.91869">
        <ele>960</ele>
        <time>2026-05-09T12:22:40.322Z</time>
      </trkpt>
      <trkpt lat="47.9249" lon="6.9187">
        <ele>960</ele>
        <time>2026-05-09T12:22:41.322Z</time>
      </trkpt>
      <trkpt lat="47.92491" lon="6.91872">
        <ele>961</ele>
        <time>2026-05-09T12:22:42.322Z</time>
      </trkpt>
      <trkpt lat="47.92491" lon="6.91872">
        <ele>961</ele>
        <time>2026-05-09T12:22:43.321Z</time>
      </trkpt>
      <trkpt lat="47.92491" lon="6.91873">
        <ele>961</ele>
        <time>2026-05-09T12:22:44.321Z</time>
      </trkpt>
      <trkpt lat="47.92492" lon="6.91873">
        <ele>962</ele>
        <time>2026-05-09T12:22:45.321Z</time>
      </trkpt>
      <trkpt lat="47.92492" lon="6.91873">
        <ele>962</ele>
        <time>2026-05-09T12:22:46.321Z</time>
      </trkpt>
      <trkpt lat="47.92493" lon="6.91873">
        <ele>962</ele>
        <time>2026-05-09T12:22:47.322Z</time>
      </trkpt>
      <trkpt lat="47.92493" lon="6.91873">
        <ele>962</ele>
        <time>2026-05-09T12:22:48.322Z</time>
      </trkpt>
      <trkpt lat="47.92494" lon="6.91874">
        <ele>963</ele>
        <time>2026-05-09T12:22:49.322Z</time>
      </trkpt>
      <trkpt lat="47.92495" lon="6.91875">
        <ele>963</ele>
        <time>2026-05-09T12:22:50.322Z</time>
      </trkpt>
      <trkpt lat="47.92496" lon="6.91875">
        <ele>963</ele>
        <time>2026-05-09T12:22:51.322Z</time>
      </trkpt>
      <trkpt lat="47.92497" lon="6.91876">
        <ele>963</ele>
        <time>2026-05-09T12:22:52.321Z</time>
      </trkpt>
      <trkpt lat="47.92498" lon="6.91877">
        <ele>964</ele>
        <time>2026-05-09T12:22:53.322Z</time>
      </trkpt>
      <trkpt lat="47.92498" lon="6.91878">
        <ele>964</ele>
        <time>2026-05-09T12:22:54.321Z</time>
      </trkpt>
      <trkpt lat="47.92498" lon="6.9188">
        <ele>964</ele>
        <time>2026-05-09T12:22:55.321Z</time>
      </trkpt>
      <trkpt lat="47.92499" lon="6.91881">
        <ele>964</ele>
        <time>2026-05-09T12:22:56.321Z</time>
      </trkpt>
      <trkpt lat="47.92499" lon="6.91882">
        <ele>964</ele>
        <time>2026-05-09T12:22:57.322Z</time>
      </trkpt>
      <trkpt lat="47.925" lon="6.91883">
        <ele>964</ele>
        <time>2026-05-09T12:22:58.322Z</time>
      </trkpt>
      <trkpt lat="47.925" lon="6.91885">
        <ele>964</ele>
        <time>2026-05-09T12:22:59.322Z</time>
      </trkpt>
      <trkpt lat="47.925" lon="6.91886">
        <ele>963</ele>
        <time>2026-05-09T12:23:00.322Z</time>
      </trkpt>
      <trkpt lat="47.92501" lon="6.91887">
        <ele>963</ele>
        <time>2026-05-09T12:23:01.322Z</time>
      </trkpt>
      <trkpt lat="47.92501" lon="6.91889">
        <ele>963</ele>
        <time>2026-05-09T12:23:02.322Z</time>
      </trkpt>
      <trkpt lat="47.92502" lon="6.9189">
        <ele>963</ele>
        <time>2026-05-09T12:23:03.322Z</time>
      </trkpt>
      <trkpt lat="47.92503" lon="6.91892">
        <ele>963</ele>
        <time>2026-05-09T12:23:04.321Z</time>
      </trkpt>
      <trkpt lat="47.92504" lon="6.91893">
        <ele>963</ele>
        <time>2026-05-09T12:23:05.321Z</time>
      </trkpt>
      <trkpt lat="47.92505" lon="6.91895">
        <ele>963</ele>
        <time>2026-05-09T12:23:06.322Z</time>
      </trkpt>
      <trkpt lat="47.92506" lon="6.91897">
        <ele>963</ele>
        <time>2026-05-09T12:23:07.322Z</time>
      </trkpt>
      <trkpt lat="47.92506" lon="6.91898">
        <ele>963</ele>
        <time>2026-05-09T12:23:08.321Z</time>
      </trkpt>
      <trkpt lat="47.92507" lon="6.919">
        <ele>963</ele>
        <time>2026-05-09T12:23:09.321Z</time>
      </trkpt>
      <trkpt lat="47.92509" lon="6.91902">
        <ele>963</ele>
        <time>2026-05-09T12:23:10.321Z</time>
      </trkpt>
      <trkpt lat="47.9251" lon="6.91903">
        <ele>963</ele>
        <time>2026-05-09T12:23:11.321Z</time>
      </trkpt>
      <trkpt lat="47.92511" lon="6.91904">
        <ele>964</ele>
        <time>2026-05-09T12:23:12.322Z</time>
      </trkpt>
      <trkpt lat="47.92512" lon="6.91905">
        <ele>964</ele>
        <time>2026-05-09T12:23:13.321Z</time>
      </trkpt>
      <trkpt lat="47.92513" lon="6.91906">
        <ele>964</ele>
        <time>2026-05-09T12:23:14.321Z</time>
      </trkpt>
      <trkpt lat="47.92514" lon="6.91907">
        <ele>965</ele>
        <time>2026-05-09T12:23:15.322Z</time>
      </trkpt>
      <trkpt lat="47.92515" lon="6.91908">
        <ele>965</ele>
        <time>2026-05-09T12:23:16.322Z</time>
      </trkpt>
      <trkpt lat="47.92516" lon="6.91909">
        <ele>966</ele>
        <time>2026-05-09T12:23:17.321Z</time>
      </trkpt>
      <trkpt lat="47.92517" lon="6.91909">
        <ele>966</ele>
        <time>2026-05-09T12:23:18.322Z</time>
      </trkpt>
      <trkpt lat="47.92518" lon="6.9191">
        <ele>967</ele>
        <time>2026-05-09T12:23:19.322Z</time>
      </trkpt>
      <trkpt lat="47.9252" lon="6.9191">
        <ele>967</ele>
        <time>2026-05-09T12:23:20.322Z</time>
      </trkpt>
      <trkpt lat="47.92521" lon="6.91912">
        <ele>967</ele>
        <time>2026-05-09T12:23:21.321Z</time>
      </trkpt>
      <trkpt lat="47.92524" lon="6.91913">
        <ele>967</ele>
        <time>2026-05-09T12:23:22.321Z</time>
      </trkpt>
      <trkpt lat="47.92527" lon="6.91914">
        <ele>967</ele>
        <time>2026-05-09T12:23:23.321Z</time>
      </trkpt>
      <trkpt lat="47.92529" lon="6.91915">
        <ele>967</ele>
        <time>2026-05-09T12:23:24.322Z</time>
      </trkpt>
      <trkpt lat="47.92532" lon="6.91914">
        <ele>967</ele>
        <time>2026-05-09T12:23:25.322Z</time>
      </trkpt>
      <trkpt lat="47.92535" lon="6.91915">
        <ele>967</ele>
        <time>2026-05-09T12:23:26.321Z</time>
      </trkpt>
      <trkpt lat="47.92535" lon="6.91917">
        <ele>967</ele>
        <time>2026-05-09T12:23:27.322Z</time>
      </trkpt>
      <trkpt lat="47.92534" lon="6.91919">
        <ele>967</ele>
        <time>2026-05-09T12:23:28.322Z</time>
      </trkpt>
      <trkpt lat="47.92535" lon="6.9192">
        <ele>968</ele>
        <time>2026-05-09T12:23:29.322Z</time>
      </trkpt>
      <trkpt lat="47.92536" lon="6.9192">
        <ele>968</ele>
        <time>2026-05-09T12:23:30.322Z</time>
      </trkpt>
      <trkpt lat="47.92538" lon="6.91921">
        <ele>968</ele>
        <time>2026-05-09T12:23:31.321Z</time>
      </trkpt>
      <trkpt lat="47.92539" lon="6.91922">
        <ele>969</ele>
        <time>2026-05-09T12:23:32.321Z</time>
      </trkpt>
      <trkpt lat="47.9254" lon="6.91923">
        <ele>969</ele>
        <time>2026-05-09T12:23:33.322Z</time>
      </trkpt>
      <trkpt lat="47.92541" lon="6.91923">
        <ele>970</ele>
        <time>2026-05-09T12:23:34.322Z</time>
      </trkpt>
      <trkpt lat="47.92543" lon="6.91923">
        <ele>970</ele>
        <time>2026-05-09T12:23:35.322Z</time>
      </trkpt>
      <trkpt lat="47.92545" lon="6.91922">
        <ele>971</ele>
        <time>2026-05-09T12:23:36.322Z</time>
      </trkpt>
      <trkpt lat="47.92548" lon="6.91921">
        <ele>971</ele>
        <time>2026-05-09T12:23:37.321Z</time>
      </trkpt>
      <trkpt lat="47.9255" lon="6.91921">
        <ele>971</ele>
        <time>2026-05-09T12:23:38.322Z</time>
      </trkpt>
      <trkpt lat="47.92551" lon="6.91922">
        <ele>971</ele>
        <time>2026-05-09T12:23:39.321Z</time>
      </trkpt>
      <trkpt lat="47.92554" lon="6.91924">
        <ele>971</ele>
        <time>2026-05-09T12:23:40.321Z</time>
      </trkpt>
      <trkpt lat="47.92556" lon="6.91926">
        <ele>972</ele>
        <time>2026-05-09T12:23:41.322Z</time>
      </trkpt>
      <trkpt lat="47.9256" lon="6.91928">
        <ele>972</ele>
        <time>2026-05-09T12:23:42.322Z</time>
      </trkpt>
      <trkpt lat="47.92561" lon="6.9193">
        <ele>972</ele>
        <time>2026-05-09T12:23:43.322Z</time>
      </trkpt>
      <trkpt lat="47.9256" lon="6.91932">
        <ele>972</ele>
        <time>2026-05-09T12:23:44.321Z</time>
      </trkpt>
      <trkpt lat="47.9256" lon="6.91932">
        <ele>973</ele>
        <time>2026-05-09T12:23:45.321Z</time>
      </trkpt>
      <trkpt lat="47.9256" lon="6.91932">
        <ele>973</ele>
        <time>2026-05-09T12:23:46.321Z</time>
      </trkpt>
      <trkpt lat="47.92561" lon="6.91934">
        <ele>973</ele>
        <time>2026-05-09T12:23:47.322Z</time>
      </trkpt>
      <trkpt lat="47.92562" lon="6.91934">
        <ele>973</ele>
        <time>2026-05-09T12:23:48.322Z</time>
      </trkpt>
      <trkpt lat="47.92564" lon="6.91935">
        <ele>974</ele>
        <time>2026-05-09T12:23:49.322Z</time>
      </trkpt>
      <trkpt lat="47.92566" lon="6.91936">
        <ele>974</ele>
        <time>2026-05-09T12:23:50.321Z</time>
      </trkpt>
      <trkpt lat="47.92567" lon="6.91937">
        <ele>975</ele>
        <time>2026-05-09T12:23:51.322Z</time>
      </trkpt>
      <trkpt lat="47.92567" lon="6.91938">
        <ele>975</ele>
        <time>2026-05-09T12:23:52.321Z</time>
      </trkpt>
      <trkpt lat="47.92567" lon="6.91939">
        <ele>976</ele>
        <time>2026-05-09T12:23:53.322Z</time>
      </trkpt>
      <trkpt lat="47.92567" lon="6.9194">
        <ele>976</ele>
        <time>2026-05-09T12:23:54.322Z</time>
      </trkpt>
      <trkpt lat="47.92567" lon="6.91941">
        <ele>977</ele>
        <time>2026-05-09T12:23:55.322Z</time>
      </trkpt>
      <trkpt lat="47.92567" lon="6.91941">
        <ele>977</ele>
        <time>2026-05-09T12:23:56.322Z</time>
      </trkpt>
      <trkpt lat="47.92565" lon="6.91941">
        <ele>979</ele>
        <time>2026-05-09T12:24:01.775Z</time>
      </trkpt>
      <trkpt lat="47.92563" lon="6.91942">
        <ele>980</ele>
        <time>2026-05-09T12:24:02.775Z</time>
      </trkpt>
      <trkpt lat="47.9256" lon="6.91942">
        <ele>980</ele>
        <time>2026-05-09T12:24:03.775Z</time>
      </trkpt>
      <trkpt lat="47.92558" lon="6.91942">
        <ele>981</ele>
        <time>2026-05-09T12:24:04.775Z</time>
      </trkpt>
      <trkpt lat="47.92557" lon="6.91942">
        <ele>981</ele>
        <time>2026-05-09T12:24:05.775Z</time>
      </trkpt>
      <trkpt lat="47.92556" lon="6.91942">
        <ele>982</ele>
        <time>2026-05-09T12:24:06.775Z</time>
      </trkpt>
      <trkpt lat="47.92556" lon="6.91942">
        <ele>982</ele>
        <time>2026-05-09T12:24:07.776Z</time>
      </trkpt>
      <trkpt lat="47.92555" lon="6.91942">
        <ele>983</ele>
        <time>2026-05-09T12:24:08.776Z</time>
      </trkpt>
      <trkpt lat="47.92553" lon="6.91942">
        <ele>983</ele>
        <time>2026-05-09T12:24:09.775Z</time>
      </trkpt>
      <trkpt lat="47.92552" lon="6.91942">
        <ele>983</ele>
        <time>2026-05-09T12:24:10.776Z</time>
      </trkpt>
      <trkpt lat="47.92551" lon="6.91942">
        <ele>984</ele>
        <time>2026-05-09T12:24:11.775Z</time>
      </trkpt>
      <trkpt lat="47.9255" lon="6.91942">
        <ele>984</ele>
        <time>2026-05-09T12:24:12.775Z</time>
      </trkpt>
      <trkpt lat="47.92549" lon="6.91942">
        <ele>985</ele>
        <time>2026-05-09T12:24:13.775Z</time>
      </trkpt>
      <trkpt lat="47.92548" lon="6.91942">
        <ele>985</ele>
        <time>2026-05-09T12:24:14.775Z</time>
      </trkpt>
      <trkpt lat="47.92548" lon="6.91942">
        <ele>986</ele>
        <time>2026-05-09T12:24:15.775Z</time>
      </trkpt>
      <trkpt lat="47.92546" lon="6.91942">
        <ele>986</ele>
        <time>2026-05-09T12:24:16.775Z</time>
      </trkpt>
      <trkpt lat="47.92543" lon="6.91943">
        <ele>986</ele>
        <time>2026-05-09T12:24:17.775Z</time>
      </trkpt>
      <trkpt lat="47.92539" lon="6.91944">
        <ele>987</ele>
        <time>2026-05-09T12:24:18.775Z</time>
      </trkpt>
      <trkpt lat="47.92539" lon="6.91944">
        <ele>987</ele>
        <time>2026-05-09T12:24:19.775Z</time>
      </trkpt>
      <trkpt lat="47.92537" lon="6.91945">
        <ele>987</ele>
        <time>2026-05-09T12:24:20.775Z</time>
      </trkpt>
      <trkpt lat="47.92536" lon="6.91947">
        <ele>987</ele>
        <time>2026-05-09T12:24:21.775Z</time>
      </trkpt>
      <trkpt lat="47.92534" lon="6.91947">
        <ele>987</ele>
        <time>2026-05-09T12:24:22.775Z</time>
      </trkpt>
      <trkpt lat="47.92532" lon="6.91948">
        <ele>987</ele>
        <time>2026-05-09T12:24:23.775Z</time>
      </trkpt>
      <trkpt lat="47.9253" lon="6.91949">
        <ele>987</ele>
        <time>2026-05-09T12:24:24.775Z</time>
      </trkpt>
      <trkpt lat="47.92529" lon="6.9195">
        <ele>987</ele>
        <time>2026-05-09T12:24:25.775Z</time>
      </trkpt>
      <trkpt lat="47.92528" lon="6.91951">
        <ele>987</ele>
        <time>2026-05-09T12:24:26.776Z</time>
      </trkpt>
      <trkpt lat="47.92527" lon="6.91952">
        <ele>988</ele>
        <time>2026-05-09T12:24:27.776Z</time>
      </trkpt>
      <trkpt lat="47.92526" lon="6.91952">
        <ele>988</ele>
        <time>2026-05-09T12:24:28.775Z</time>
      </trkpt>
      <trkpt lat="47.92525" lon="6.91952">
        <ele>988</ele>
        <time>2026-05-09T12:24:29.775Z</time>
      </trkpt>
      <trkpt lat="47.92524" lon="6.91953">
        <ele>989</ele>
        <time>2026-05-09T12:24:30.775Z</time>
      </trkpt>
      <trkpt lat="47.92524" lon="6.91952">
        <ele>989</ele>
        <time>2026-05-09T12:24:31.775Z</time>
      </trkpt>
      <trkpt lat="47.92523" lon="6.91952">
        <ele>989</ele>
        <time>2026-05-09T12:24:32.775Z</time>
      </trkpt>
      <trkpt lat="47.92523" lon="6.91952">
        <ele>990</ele>
        <time>2026-05-09T12:24:33.775Z</time>
      </trkpt>
      <trkpt lat="47.92523" lon="6.91952">
        <ele>990</ele>
        <time>2026-05-09T12:24:34.775Z</time>
      </trkpt>
      <trkpt lat="47.92519" lon="6.91951">
        <ele>991</ele>
        <time>2026-05-09T12:24:41.156Z</time>
      </trkpt>
      <trkpt lat="47.92518" lon="6.91951">
        <ele>991</ele>
        <time>2026-05-09T12:24:42.156Z</time>
      </trkpt>
      <trkpt lat="47.92518" lon="6.9195">
        <ele>991</ele>
        <time>2026-05-09T12:24:43.157Z</time>
      </trkpt>
      <trkpt lat="47.92517" lon="6.9195">
        <ele>991</ele>
        <time>2026-05-09T12:24:44.157Z</time>
      </trkpt>
      <trkpt lat="47.92516" lon="6.91949">
        <ele>991</ele>
        <time>2026-05-09T12:24:45.157Z</time>
      </trkpt>
      <trkpt lat="47.92516" lon="6.91949">
        <ele>991</ele>
        <time>2026-05-09T12:24:46.156Z</time>
      </trkpt>
      <trkpt lat="47.92515" lon="6.91948">
        <ele>991</ele>
        <time>2026-05-09T12:24:47.157Z</time>
      </trkpt>
      <trkpt lat="47.92515" lon="6.91948">
        <ele>991</ele>
        <time>2026-05-09T12:24:48.156Z</time>
      </trkpt>
      <trkpt lat="47.92515" lon="6.91948">
        <ele>991</ele>
        <time>2026-05-09T12:24:49.157Z</time>
      </trkpt>
      <trkpt lat="47.92513" lon="6.91947">
        <ele>991</ele>
        <time>2026-05-09T12:24:50.157Z</time>
      </trkpt>
      <trkpt lat="47.92512" lon="6.91947">
        <ele>990</ele>
        <time>2026-05-09T12:24:51.157Z</time>
      </trkpt>
      <trkpt lat="47.92512" lon="6.91947">
        <ele>990</ele>
        <time>2026-05-09T12:24:52.156Z</time>
      </trkpt>
      <trkpt lat="47.92512" lon="6.91946">
        <ele>990</ele>
        <time>2026-05-09T12:24:53.156Z</time>
      </trkpt>
      <trkpt lat="47.92512" lon="6.91946">
        <ele>990</ele>
        <time>2026-05-09T12:24:54.157Z</time>
      </trkpt>
      <trkpt lat="47.92504" lon="6.91947">
        <ele>990</ele>
        <time>2026-05-09T12:25:00.465Z</time>
      </trkpt>
      <trkpt lat="47.92503" lon="6.91947">
        <ele>990</ele>
        <time>2026-05-09T12:25:01.465Z</time>
      </trkpt>
      <trkpt lat="47.92502" lon="6.91947">
        <ele>990</ele>
        <time>2026-05-09T12:25:02.464Z</time>
      </trkpt>
      <trkpt lat="47.92501" lon="6.91947">
        <ele>989</ele>
        <time>2026-05-09T12:25:03.464Z</time>
      </trkpt>
      <trkpt lat="47.925" lon="6.91947">
        <ele>989</ele>
        <time>2026-05-09T12:25:04.464Z</time>
      </trkpt>
      <trkpt lat="47.92499" lon="6.91948">
        <ele>989</ele>
        <time>2026-05-09T12:25:05.464Z</time>
      </trkpt>
      <trkpt lat="47.92499" lon="6.91948">
        <ele>988</ele>
        <time>2026-05-09T12:25:06.465Z</time>
      </trkpt>
      <trkpt lat="47.92498" lon="6.91949">
        <ele>988</ele>
        <time>2026-05-09T12:25:07.464Z</time>
      </trkpt>
      <trkpt lat="47.92498" lon="6.9195">
        <ele>987</ele>
        <time>2026-05-09T12:25:08.464Z</time>
      </trkpt>
      <trkpt lat="47.92498" lon="6.91951">
        <ele>986</ele>
        <time>2026-05-09T12:25:09.465Z</time>
      </trkpt>
      <trkpt lat="47.92498" lon="6.91951">
        <ele>986</ele>
        <time>2026-05-09T12:25:10.464Z</time>
      </trkpt>
      <trkpt lat="47.92499" lon="6.91952">
        <ele>985</ele>
        <time>2026-05-09T12:25:11.464Z</time>
      </trkpt>
      <trkpt lat="47.92499" lon="6.91952">
        <ele>985</ele>
        <time>2026-05-09T12:25:12.465Z</time>
      </trkpt>
      <trkpt lat="47.925" lon="6.91953">
        <ele>985</ele>
        <time>2026-05-09T12:25:13.464Z</time>
      </trkpt>
      <trkpt lat="47.92501" lon="6.91953">
        <ele>985</ele>
        <time>2026-05-09T12:25:14.465Z</time>
      </trkpt>
      <trkpt lat="47.92501" lon="6.91954">
        <ele>985</ele>
        <time>2026-05-09T12:25:15.465Z</time>
      </trkpt>
      <trkpt lat="47.92501" lon="6.91955">
        <ele>984</ele>
        <time>2026-05-09T12:25:16.465Z</time>
      </trkpt>
      <trkpt lat="47.92502" lon="6.91956">
        <ele>984</ele>
        <time>2026-05-09T12:25:17.464Z</time>
      </trkpt>
      <trkpt lat="47.92502" lon="6.91957">
        <ele>984</ele>
        <time>2026-05-09T12:25:18.465Z</time>
      </trkpt>
      <trkpt lat="47.92503" lon="6.91958">
        <ele>983</ele>
        <time>2026-05-09T12:25:19.464Z</time>
      </trkpt>
      <trkpt lat="47.92504" lon="6.91959">
        <ele>983</ele>
        <time>2026-05-09T12:25:20.465Z</time>
      </trkpt>
      <trkpt lat="47.92504" lon="6.91961">
        <ele>983</ele>
        <time>2026-05-09T12:25:21.465Z</time>
      </trkpt>
      <trkpt lat="47.92505" lon="6.91963">
        <ele>983</ele>
        <time>2026-05-09T12:25:22.464Z</time>
      </trkpt>
      <trkpt lat="47.92504" lon="6.91965">
        <ele>984</ele>
        <time>2026-05-09T12:25:23.464Z</time>
      </trkpt>
      <trkpt lat="47.92503" lon="6.91966">
        <ele>984</ele>
        <time>2026-05-09T12:25:24.464Z</time>
      </trkpt>
      <trkpt lat="47.92502" lon="6.91968">
        <ele>984</ele>
        <time>2026-05-09T12:25:25.465Z</time>
      </trkpt>
      <trkpt lat="47.92502" lon="6.91971">
        <ele>984</ele>
        <time>2026-05-09T12:25:26.464Z</time>
      </trkpt>
      <trkpt lat="47.92502" lon="6.91972">
        <ele>984</ele>
        <time>2026-05-09T12:25:27.465Z</time>
      </trkpt>
      <trkpt lat="47.92503" lon="6.91974">
        <ele>984</ele>
        <time>2026-05-09T12:25:28.464Z</time>
      </trkpt>
      <trkpt lat="47.92504" lon="6.91975">
        <ele>984</ele>
        <time>2026-05-09T12:25:29.464Z</time>
      </trkpt>
      <trkpt lat="47.92504" lon="6.91976">
        <ele>985</ele>
        <time>2026-05-09T12:25:30.465Z</time>
      </trkpt>
      <trkpt lat="47.92504" lon="6.91978">
        <ele>985</ele>
        <time>2026-05-09T12:25:31.464Z</time>
      </trkpt>
      <trkpt lat="47.92503" lon="6.91979">
        <ele>985</ele>
        <time>2026-05-09T12:25:32.464Z</time>
      </trkpt>
      <trkpt lat="47.92504" lon="6.9198">
        <ele>985</ele>
        <time>2026-05-09T12:25:33.464Z</time>
      </trkpt>
      <trkpt lat="47.92504" lon="6.91981">
        <ele>985</ele>
        <time>2026-05-09T12:25:34.464Z</time>
      </trkpt>
      <trkpt lat="47.92505" lon="6.91982">
        <ele>985</ele>
        <time>2026-05-09T12:25:35.464Z</time>
      </trkpt>
      <trkpt lat="47.92506" lon="6.91983">
        <ele>985</ele>
        <time>2026-05-09T12:25:36.465Z</time>
      </trkpt>
      <trkpt lat="47.92506" lon="6.91983">
        <ele>985</ele>
        <time>2026-05-09T12:25:37.464Z</time>
      </trkpt>
      <trkpt lat="47.92507" lon="6.91983">
        <ele>985</ele>
        <time>2026-05-09T12:25:38.465Z</time>
      </trkpt>
      <trkpt lat="47.92507" lon="6.91984">
        <ele>986</ele>
        <time>2026-05-09T12:25:39.465Z</time>
      </trkpt>
      <trkpt lat="47.92508" lon="6.91985">
        <ele>986</ele>
        <time>2026-05-09T12:25:40.464Z</time>
      </trkpt>
      <trkpt lat="47.92509" lon="6.91985">
        <ele>987</ele>
        <time>2026-05-09T12:25:41.464Z</time>
      </trkpt>
      <trkpt lat="47.9251" lon="6.91985">
        <ele>987</ele>
        <time>2026-05-09T12:25:42.464Z</time>
      </trkpt>
      <trkpt lat="47.92511" lon="6.91985">
        <ele>988</ele>
        <time>2026-05-09T12:25:43.464Z</time>
      </trkpt>
      <trkpt lat="47.92511" lon="6.91984">
        <ele>988</ele>
        <time>2026-05-09T12:25:44.465Z</time>
      </trkpt>
      <trkpt lat="47.92512" lon="6.91984">
        <ele>989</ele>
        <time>2026-05-09T12:25:45.464Z</time>
      </trkpt>
      <trkpt lat="47.92514" lon="6.91984">
        <ele>989</ele>
        <time>2026-05-09T12:25:46.464Z</time>
      </trkpt>
      <trkpt lat="47.92515" lon="6.91984">
        <ele>990</ele>
        <time>2026-05-09T12:25:47.464Z</time>
      </trkpt>
      <trkpt lat="47.92515" lon="6.91984">
        <ele>991</ele>
        <time>2026-05-09T12:25:48.464Z</time>
      </trkpt>
      <trkpt lat="47.92516" lon="6.91985">
        <ele>991</ele>
        <time>2026-05-09T12:25:49.464Z</time>
      </trkpt>
      <trkpt lat="47.92517" lon="6.91985">
        <ele>991</ele>
        <time>2026-05-09T12:25:50.465Z</time>
      </trkpt>
      <trkpt lat="47.92518" lon="6.91986">
        <ele>992</ele>
        <time>2026-05-09T12:25:51.464Z</time>
      </trkpt>
      <trkpt lat="47.92519" lon="6.91986">
        <ele>992</ele>
        <time>2026-05-09T12:25:52.464Z</time>
      </trkpt>
      <trkpt lat="47.92521" lon="6.91987">
        <ele>993</ele>
        <time>2026-05-09T12:25:53.464Z</time>
      </trkpt>
      <trkpt lat="47.92523" lon="6.91987">
        <ele>994</ele>
        <time>2026-05-09T12:25:54.464Z</time>
      </trkpt>
      <trkpt lat="47.92524" lon="6.91988">
        <ele>994</ele>
        <time>2026-05-09T12:25:55.464Z</time>
      </trkpt>
      <trkpt lat="47.92526" lon="6.91989">
        <ele>994</ele>
        <time>2026-05-09T12:25:56.464Z</time>
      </trkpt>
      <trkpt lat="47.92527" lon="6.9199">
        <ele>994</ele>
        <time>2026-05-09T12:25:57.464Z</time>
      </trkpt>
      <trkpt lat="47.92529" lon="6.9199">
        <ele>994</ele>
        <time>2026-05-09T12:25:58.464Z</time>
      </trkpt>
      <trkpt lat="47.92529" lon="6.91991">
        <ele>995</ele>
        <time>2026-05-09T12:25:59.465Z</time>
      </trkpt>
      <trkpt lat="47.9253" lon="6.91991">
        <ele>995</ele>
        <time>2026-05-09T12:26:00.464Z</time>
      </trkpt>
      <trkpt lat="47.92531" lon="6.91992">
        <ele>995</ele>
        <time>2026-05-09T12:26:01.464Z</time>
      </trkpt>
      <trkpt lat="47.92531" lon="6.91993">
        <ele>995</ele>
        <time>2026-05-09T12:26:02.465Z</time>
      </trkpt>
      <trkpt lat="47.92532" lon="6.91994">
        <ele>995</ele>
        <time>2026-05-09T12:26:03.464Z</time>
      </trkpt>
      <trkpt lat="47.92532" lon="6.91994">
        <ele>995</ele>
        <time>2026-05-09T12:26:04.464Z</time>
      </trkpt>
      <trkpt lat="47.92533" lon="6.91995">
        <ele>995</ele>
        <time>2026-05-09T12:26:05.465Z</time>
      </trkpt>
      <trkpt lat="47.92533" lon="6.91995">
        <ele>994</ele>
        <time>2026-05-09T12:26:06.464Z</time>
      </trkpt>
      <trkpt lat="47.92534" lon="6.91996">
        <ele>994</ele>
        <time>2026-05-09T12:26:07.465Z</time>
      </trkpt>
      <trkpt lat="47.92534" lon="6.91996">
        <ele>994</ele>
        <time>2026-05-09T12:26:08.465Z</time>
      </trkpt>
      <trkpt lat="47.92534" lon="6.91997">
        <ele>993</ele>
        <time>2026-05-09T12:26:09.464Z</time>
      </trkpt>
      <trkpt lat="47.92535" lon="6.91997">
        <ele>993</ele>
        <time>2026-05-09T12:26:10.464Z</time>
      </trkpt>
      <trkpt lat="47.92535" lon="6.91997">
        <ele>993</ele>
        <time>2026-05-09T12:26:11.465Z</time>
      </trkpt>
      <trkpt lat="47.92537" lon="6.91998">
        <ele>993</ele>
        <time>2026-05-09T12:26:12.464Z</time>
      </trkpt>
      <trkpt lat="47.92537" lon="6.91998">
        <ele>993</ele>
        <time>2026-05-09T12:26:13.464Z</time>
      </trkpt>
      <trkpt lat="47.92538" lon="6.91998">
        <ele>993</ele>
        <time>2026-05-09T12:26:14.464Z</time>
      </trkpt>
      <trkpt lat="47.92538" lon="6.91998">
        <ele>994</ele>
        <time>2026-05-09T12:26:15.464Z</time>
      </trkpt>
      <trkpt lat="47.92541" lon="6.91998">
        <ele>995</ele>
        <time>2026-05-09T12:26:20.811Z</time>
      </trkpt>
      <trkpt lat="47.92542" lon="6.91999">
        <ele>995</ele>
        <time>2026-05-09T12:26:21.812Z</time>
      </trkpt>
      <trkpt lat="47.92543" lon="6.92">
        <ele>995</ele>
        <time>2026-05-09T12:26:22.811Z</time>
      </trkpt>
      <trkpt lat="47.92544" lon="6.92001">
        <ele>995</ele>
        <time>2026-05-09T12:26:23.811Z</time>
      </trkpt>
      <trkpt lat="47.92545" lon="6.92001">
        <ele>996</ele>
        <time>2026-05-09T12:26:24.812Z</time>
      </trkpt>
      <trkpt lat="47.92546" lon="6.92002">
        <ele>996</ele>
        <time>2026-05-09T12:26:25.811Z</time>
      </trkpt>
      <trkpt lat="47.92547" lon="6.92003">
        <ele>996</ele>
        <time>2026-05-09T12:26:26.811Z</time>
      </trkpt>
      <trkpt lat="47.92548" lon="6.92003">
        <ele>997</ele>
        <time>2026-05-09T12:26:27.812Z</time>
      </trkpt>
      <trkpt lat="47.92548" lon="6.92003">
        <ele>997</ele>
        <time>2026-05-09T12:26:28.812Z</time>
      </trkpt>
      <trkpt lat="47.92548" lon="6.92003">
        <ele>998</ele>
        <time>2026-05-09T12:26:29.811Z</time>
      </trkpt>
      <trkpt lat="47.9255" lon="6.92003">
        <ele>998</ele>
        <time>2026-05-09T12:26:30.812Z</time>
      </trkpt>
      <trkpt lat="47.92551" lon="6.92004">
        <ele>998</ele>
        <time>2026-05-09T12:26:31.812Z</time>
      </trkpt>
      <trkpt lat="47.92552" lon="6.92004">
        <ele>999</ele>
        <time>2026-05-09T12:26:32.811Z</time>
      </trkpt>
      <trkpt lat="47.92552" lon="6.92004">
        <ele>999</ele>
        <time>2026-05-09T12:26:33.811Z</time>
      </trkpt>
      <trkpt lat="47.92552" lon="6.92005">
        <ele>999</ele>
        <time>2026-05-09T12:26:34.812Z</time>
      </trkpt>
      <trkpt lat="47.92553" lon="6.92006">
        <ele>999</ele>
        <time>2026-05-09T12:26:35.811Z</time>
      </trkpt>
      <trkpt lat="47.92554" lon="6.92006">
        <ele>999</ele>
        <time>2026-05-09T12:26:36.811Z</time>
      </trkpt>
      <trkpt lat="47.92555" lon="6.92007">
        <ele>999</ele>
        <time>2026-05-09T12:26:37.812Z</time>
      </trkpt>
      <trkpt lat="47.92556" lon="6.92008">
        <ele>999</ele>
        <time>2026-05-09T12:26:38.812Z</time>
      </trkpt>
      <trkpt lat="47.92557" lon="6.9201">
        <ele>999</ele>
        <time>2026-05-09T12:26:39.812Z</time>
      </trkpt>
      <trkpt lat="47.92557" lon="6.92011">
        <ele>999</ele>
        <time>2026-05-09T12:26:40.811Z</time>
      </trkpt>
      <trkpt lat="47.92558" lon="6.92012">
        <ele>999</ele>
        <time>2026-05-09T12:26:41.811Z</time>
      </trkpt>
      <trkpt lat="47.92559" lon="6.92013">
        <ele>999</ele>
        <time>2026-05-09T12:26:42.811Z</time>
      </trkpt>
      <trkpt lat="47.92559" lon="6.92014">
        <ele>999</ele>
        <time>2026-05-09T12:26:43.812Z</time>
      </trkpt>
      <trkpt lat="47.9256" lon="6.92015">
        <ele>999</ele>
        <time>2026-05-09T12:26:44.811Z</time>
      </trkpt>
      <trkpt lat="47.92561" lon="6.92015">
        <ele>999</ele>
        <time>2026-05-09T12:26:45.812Z</time>
      </trkpt>
      <trkpt lat="47.92561" lon="6.92016">
        <ele>999</ele>
        <time>2026-05-09T12:26:46.811Z</time>
      </trkpt>
      <trkpt lat="47.92563" lon="6.92018">
        <ele>999</ele>
        <time>2026-05-09T12:26:47.812Z</time>
      </trkpt>
      <trkpt lat="47.92564" lon="6.92019">
        <ele>999</ele>
        <time>2026-05-09T12:26:48.811Z</time>
      </trkpt>
      <trkpt lat="47.92565" lon="6.92021">
        <ele>999</ele>
        <time>2026-05-09T12:26:49.812Z</time>
      </trkpt>
      <trkpt lat="47.92566" lon="6.92022">
        <ele>999</ele>
        <time>2026-05-09T12:26:50.812Z</time>
      </trkpt>
      <trkpt lat="47.92566" lon="6.92022">
        <ele>999</ele>
        <time>2026-05-09T12:26:51.812Z</time>
      </trkpt>
      <trkpt lat="47.92568" lon="6.92023">
        <ele>999</ele>
        <time>2026-05-09T12:26:52.811Z</time>
      </trkpt>
      <trkpt lat="47.92569" lon="6.92024">
        <ele>998</ele>
        <time>2026-05-09T12:26:53.812Z</time>
      </trkpt>
      <trkpt lat="47.9257" lon="6.92024">
        <ele>999</ele>
        <time>2026-05-09T12:26:54.812Z</time>
      </trkpt>
      <trkpt lat="47.92571" lon="6.92025">
        <ele>999</ele>
        <time>2026-05-09T12:26:55.811Z</time>
      </trkpt>
      <trkpt lat="47.92572" lon="6.92025">
        <ele>999</ele>
        <time>2026-05-09T12:26:56.812Z</time>
      </trkpt>
      <trkpt lat="47.92572" lon="6.92026">
        <ele>999</ele>
        <time>2026-05-09T12:26:57.811Z</time>
      </trkpt>
      <trkpt lat="47.92573" lon="6.92027">
        <ele>999</ele>
        <time>2026-05-09T12:26:58.812Z</time>
      </trkpt>
      <trkpt lat="47.92574" lon="6.92028">
        <ele>999</ele>
        <time>2026-05-09T12:26:59.811Z</time>
      </trkpt>
      <trkpt lat="47.92574" lon="6.92028">
        <ele>1000</ele>
        <time>2026-05-09T12:27:00.811Z</time>
      </trkpt>
      <trkpt lat="47.92575" lon="6.92029">
        <ele>1000</ele>
        <time>2026-05-09T12:27:01.811Z</time>
      </trkpt>
      <trkpt lat="47.92575" lon="6.92029">
        <ele>1000</ele>
        <time>2026-05-09T12:27:02.812Z</time>
      </trkpt>
      <trkpt lat="47.92576" lon="6.9203">
        <ele>1001</ele>
        <time>2026-05-09T12:27:03.812Z</time>
      </trkpt>
      <trkpt lat="47.92577" lon="6.9203">
        <ele>1001</ele>
        <time>2026-05-09T12:27:04.811Z</time>
      </trkpt>
      <trkpt lat="47.92577" lon="6.92031">
        <ele>1001</ele>
        <time>2026-05-09T12:27:05.812Z</time>
      </trkpt>
      <trkpt lat="47.92578" lon="6.92031">
        <ele>1002</ele>
        <time>2026-05-09T12:27:06.811Z</time>
      </trkpt>
      <trkpt lat="47.9258" lon="6.92032">
        <ele>1002</ele>
        <time>2026-05-09T12:27:07.812Z</time>
      </trkpt>
      <trkpt lat="47.92581" lon="6.92033">
        <ele>1002</ele>
        <time>2026-05-09T12:27:08.811Z</time>
      </trkpt>
      <trkpt lat="47.92582" lon="6.92034">
        <ele>1002</ele>
        <time>2026-05-09T12:27:09.812Z</time>
      </trkpt>
      <trkpt lat="47.92583" lon="6.92034">
        <ele>1002</ele>
        <time>2026-05-09T12:27:10.812Z</time>
      </trkpt>
      <trkpt lat="47.92584" lon="6.92034">
        <ele>1002</ele>
        <time>2026-05-09T12:27:11.812Z</time>
      </trkpt>
      <trkpt lat="47.92585" lon="6.92035">
        <ele>1002</ele>
        <time>2026-05-09T12:27:12.811Z</time>
      </trkpt>
      <trkpt lat="47.92586" lon="6.92035">
        <ele>1002</ele>
        <time>2026-05-09T12:27:13.812Z</time>
      </trkpt>
      <trkpt lat="47.92587" lon="6.92036">
        <ele>1002</ele>
        <time>2026-05-09T12:27:14.811Z</time>
      </trkpt>
      <trkpt lat="47.92588" lon="6.92036">
        <ele>1002</ele>
        <time>2026-05-09T12:27:15.812Z</time>
      </trkpt>
      <trkpt lat="47.92589" lon="6.92037">
        <ele>1003</ele>
        <time>2026-05-09T12:27:16.811Z</time>
      </trkpt>
      <trkpt lat="47.9259" lon="6.92037">
        <ele>1003</ele>
        <time>2026-05-09T12:27:17.812Z</time>
      </trkpt>
      <trkpt lat="47.92591" lon="6.92038">
        <ele>1002</ele>
        <time>2026-05-09T12:27:18.812Z</time>
      </trkpt>
      <trkpt lat="47.92592" lon="6.92039">
        <ele>1002</ele>
        <time>2026-05-09T12:27:19.812Z</time>
      </trkpt>
      <trkpt lat="47.92593" lon="6.92039">
        <ele>1002</ele>
        <time>2026-05-09T12:27:20.812Z</time>
      </trkpt>
      <trkpt lat="47.92595" lon="6.9204">
        <ele>1002</ele>
        <time>2026-05-09T12:27:21.811Z</time>
      </trkpt>
      <trkpt lat="47.92597" lon="6.9204">
        <ele>1002</ele>
        <time>2026-05-09T12:27:22.812Z</time>
      </trkpt>
      <trkpt lat="47.92598" lon="6.92041">
        <ele>1001</ele>
        <time>2026-05-09T12:27:23.811Z</time>
      </trkpt>
      <trkpt lat="47.92599" lon="6.92043">
        <ele>1001</ele>
        <time>2026-05-09T12:27:24.812Z</time>
      </trkpt>
      <trkpt lat="47.926" lon="6.92044">
        <ele>1002</ele>
        <time>2026-05-09T12:27:25.811Z</time>
      </trkpt>
      <trkpt lat="47.92599" lon="6.92045">
        <ele>1002</ele>
        <time>2026-05-09T12:27:26.812Z</time>
      </trkpt>
      <trkpt lat="47.92598" lon="6.92045">
        <ele>1002</ele>
        <time>2026-05-09T12:27:27.811Z</time>
      </trkpt>
      <trkpt lat="47.92598" lon="6.92045">
        <ele>1003</ele>
        <time>2026-05-09T12:27:28.812Z</time>
      </trkpt>
      <trkpt lat="47.92597" lon="6.92046">
        <ele>1003</ele>
        <time>2026-05-09T12:27:29.811Z</time>
      </trkpt>
      <trkpt lat="47.92596" lon="6.92046">
        <ele>1003</ele>
        <time>2026-05-09T12:27:30.812Z</time>
      </trkpt>
      <trkpt lat="47.92596" lon="6.92046">
        <ele>1004</ele>
        <time>2026-05-09T12:27:31.811Z</time>
      </trkpt>
      <trkpt lat="47.92595" lon="6.92046">
        <ele>1004</ele>
        <time>2026-05-09T12:27:32.812Z</time>
      </trkpt>
      <trkpt lat="47.92595" lon="6.92047">
        <ele>1004</ele>
        <time>2026-05-09T12:27:33.811Z</time>
      </trkpt>
      <trkpt lat="47.92594" lon="6.92047">
        <ele>1005</ele>
        <time>2026-05-09T12:27:34.811Z</time>
      </trkpt>
      <trkpt lat="47.92594" lon="6.92047">
        <ele>1005</ele>
        <time>2026-05-09T12:27:35.811Z</time>
      </trkpt>
      <trkpt lat="47.92593" lon="6.92047">
        <ele>1006</ele>
        <time>2026-05-09T12:27:36.811Z</time>
      </trkpt>
      <trkpt lat="47.92592" lon="6.92048">
        <ele>1006</ele>
        <time>2026-05-09T12:27:37.812Z</time>
      </trkpt>
      <trkpt lat="47.92591" lon="6.92048">
        <ele>1007</ele>
        <time>2026-05-09T12:27:38.811Z</time>
      </trkpt>
      <trkpt lat="47.9259" lon="6.92048">
        <ele>1007</ele>
        <time>2026-05-09T12:27:39.812Z</time>
      </trkpt>
      <trkpt lat="47.9259" lon="6.92048">
        <ele>1007</ele>
        <time>2026-05-09T12:27:40.811Z</time>
      </trkpt>
      <trkpt lat="47.92589" lon="6.92049">
        <ele>1008</ele>
        <time>2026-05-09T12:27:41.812Z</time>
      </trkpt>
      <trkpt lat="47.92588" lon="6.92049">
        <ele>1008</ele>
        <time>2026-05-09T12:27:42.811Z</time>
      </trkpt>
      <trkpt lat="47.92587" lon="6.92051">
        <ele>1009</ele>
        <time>2026-05-09T12:27:43.812Z</time>
      </trkpt>
      <trkpt lat="47.92587" lon="6.92053">
        <ele>1009</ele>
        <time>2026-05-09T12:27:44.811Z</time>
      </trkpt>
      <trkpt lat="47.92587" lon="6.92055">
        <ele>1010</ele>
        <time>2026-05-09T12:27:45.812Z</time>
      </trkpt>
      <trkpt lat="47.92587" lon="6.92057">
        <ele>1011</ele>
        <time>2026-05-09T12:27:46.811Z</time>
      </trkpt>
      <trkpt lat="47.92586" lon="6.92058">
        <ele>1011</ele>
        <time>2026-05-09T12:27:47.811Z</time>
      </trkpt>
      <trkpt lat="47.92585" lon="6.92059">
        <ele>1012</ele>
        <time>2026-05-09T12:27:48.812Z</time>
      </trkpt>
      <trkpt lat="47.92584" lon="6.92059">
        <ele>1012</ele>
        <time>2026-05-09T12:27:49.812Z</time>
      </trkpt>
      <trkpt lat="47.92583" lon="6.9206">
        <ele>1013</ele>
        <time>2026-05-09T12:27:50.812Z</time>
      </trkpt>
      <trkpt lat="47.92582" lon="6.9206">
        <ele>1013</ele>
        <time>2026-05-09T12:27:51.812Z</time>
      </trkpt>
      <trkpt lat="47.92581" lon="6.92061">
        <ele>1013</ele>
        <time>2026-05-09T12:27:52.812Z</time>
      </trkpt>
      <trkpt lat="47.9258" lon="6.92061">
        <ele>1014</ele>
        <time>2026-05-09T12:27:53.811Z</time>
      </trkpt>
      <trkpt lat="47.92578" lon="6.92061">
        <ele>1014</ele>
        <time>2026-05-09T12:27:54.812Z</time>
      </trkpt>
      <trkpt lat="47.92577" lon="6.92061">
        <ele>1014</ele>
        <time>2026-05-09T12:27:55.811Z</time>
      </trkpt>
      <trkpt lat="47.92575" lon="6.92062">
        <ele>1014</ele>
        <time>2026-05-09T12:27:56.812Z</time>
      </trkpt>
      <trkpt lat="47.92574" lon="6.92062">
        <ele>1014</ele>
        <time>2026-05-09T12:27:57.811Z</time>
      </trkpt>
      <trkpt lat="47.92572" lon="6.92062">
        <ele>1015</ele>
        <time>2026-05-09T12:27:58.812Z</time>
      </trkpt>
      <trkpt lat="47.9257" lon="6.92062">
        <ele>1015</ele>
        <time>2026-05-09T12:27:59.811Z</time>
      </trkpt>
      <trkpt lat="47.92569" lon="6.92062">
        <ele>1015</ele>
        <time>2026-05-09T12:28:00.812Z</time>
      </trkpt>
      <trkpt lat="47.92568" lon="6.92063">
        <ele>1015</ele>
        <time>2026-05-09T12:28:01.811Z</time>
      </trkpt>
      <trkpt lat="47.92566" lon="6.92063">
        <ele>1015</ele>
        <time>2026-05-09T12:28:02.812Z</time>
      </trkpt>
      <trkpt lat="47.92565" lon="6.92063">
        <ele>1015</ele>
        <time>2026-05-09T12:28:03.811Z</time>
      </trkpt>
      <trkpt lat="47.92565" lon="6.92063">
        <ele>1015</ele>
        <time>2026-05-09T12:28:04.811Z</time>
      </trkpt>
      <trkpt lat="47.92564" lon="6.92063">
        <ele>1015</ele>
        <time>2026-05-09T12:28:05.811Z</time>
      </trkpt>
      <trkpt lat="47.92564" lon="6.92063">
        <ele>1015</ele>
        <time>2026-05-09T12:28:06.812Z</time>
      </trkpt>
      <trkpt lat="47.92563" lon="6.92063">
        <ele>1016</ele>
        <time>2026-05-09T12:28:07.812Z</time>
      </trkpt>
      <trkpt lat="47.92563" lon="6.92064">
        <ele>1016</ele>
        <time>2026-05-09T12:28:08.811Z</time>
      </trkpt>
      <trkpt lat="47.92563" lon="6.92064">
        <ele>1016</ele>
        <time>2026-05-09T12:28:09.811Z</time>
      </trkpt>
      <trkpt lat="47.92558" lon="6.92067">
        <ele>1017</ele>
        <time>2026-05-09T12:28:16.234Z</time>
      </trkpt>
      <trkpt lat="47.92557" lon="6.92067">
        <ele>1018</ele>
        <time>2026-05-09T12:28:17.235Z</time>
      </trkpt>
      <trkpt lat="47.92557" lon="6.92068">
        <ele>1018</ele>
        <time>2026-05-09T12:28:18.234Z</time>
      </trkpt>
      <trkpt lat="47.92557" lon="6.92069">
        <ele>1018</ele>
        <time>2026-05-09T12:28:19.235Z</time>
      </trkpt>
      <trkpt lat="47.92558" lon="6.92069">
        <ele>1018</ele>
        <time>2026-05-09T12:28:20.234Z</time>
      </trkpt>
      <trkpt lat="47.92559" lon="6.92068">
        <ele>1018</ele>
        <time>2026-05-09T12:28:21.235Z</time>
      </trkpt>
      <trkpt lat="47.92559" lon="6.92068">
        <ele>1018</ele>
        <time>2026-05-09T12:28:22.235Z</time>
      </trkpt>
      <trkpt lat="47.92559" lon="6.92068">
        <ele>1018</ele>
        <time>2026-05-09T12:28:23.235Z</time>
      </trkpt>
      <trkpt lat="47.92561" lon="6.92068">
        <ele>1018</ele>
        <time>2026-05-09T12:28:24.234Z</time>
      </trkpt>
      <trkpt lat="47.92562" lon="6.92068">
        <ele>1018</ele>
        <time>2026-05-09T12:28:25.235Z</time>
      </trkpt>
      <trkpt lat="47.92563" lon="6.92069">
        <ele>1018</ele>
        <time>2026-05-09T12:28:26.235Z</time>
      </trkpt>
      <trkpt lat="47.92564" lon="6.92069">
        <ele>1018</ele>
        <time>2026-05-09T12:28:27.234Z</time>
      </trkpt>
      <trkpt lat="47.92565" lon="6.92069">
        <ele>1017</ele>
        <time>2026-05-09T12:28:28.234Z</time>
      </trkpt>
      <trkpt lat="47.92566" lon="6.92069">
        <ele>1017</ele>
        <time>2026-05-09T12:28:29.235Z</time>
      </trkpt>
      <trkpt lat="47.92567" lon="6.92069">
        <ele>1017</ele>
        <time>2026-05-09T12:28:30.234Z</time>
      </trkpt>
      <trkpt lat="47.92569" lon="6.9207">
        <ele>1017</ele>
        <time>2026-05-09T12:28:31.235Z</time>
      </trkpt>
      <trkpt lat="47.9257" lon="6.92071">
        <ele>1017</ele>
        <time>2026-05-09T12:28:32.234Z</time>
      </trkpt>
      <trkpt lat="47.92571" lon="6.92071">
        <ele>1016</ele>
        <time>2026-05-09T12:28:33.235Z</time>
      </trkpt>
      <trkpt lat="47.92572" lon="6.92071">
        <ele>1016</ele>
        <time>2026-05-09T12:28:34.235Z</time>
      </trkpt>
      <trkpt lat="47.92573" lon="6.92072">
        <ele>1016</ele>
        <time>2026-05-09T12:28:35.234Z</time>
      </trkpt>
      <trkpt lat="47.92574" lon="6.92072">
        <ele>1017</ele>
        <time>2026-05-09T12:28:36.235Z</time>
      </trkpt>
      <trkpt lat="47.92576" lon="6.92072">
        <ele>1017</ele>
        <time>2026-05-09T12:28:37.234Z</time>
      </trkpt>
      <trkpt lat="47.92577" lon="6.92073">
        <ele>1017</ele>
        <time>2026-05-09T12:28:38.235Z</time>
      </trkpt>
      <trkpt lat="47.92578" lon="6.92074">
        <ele>1017</ele>
        <time>2026-05-09T12:28:39.234Z</time>
      </trkpt>
      <trkpt lat="47.92579" lon="6.92075">
        <ele>1017</ele>
        <time>2026-05-09T12:28:40.235Z</time>
      </trkpt>
      <trkpt lat="47.92579" lon="6.92076">
        <ele>1016</ele>
        <time>2026-05-09T12:28:41.234Z</time>
      </trkpt>
      <trkpt lat="47.92581" lon="6.92076">
        <ele>1016</ele>
        <time>2026-05-09T12:28:42.234Z</time>
      </trkpt>
      <trkpt lat="47.92582" lon="6.92077">
        <ele>1016</ele>
        <time>2026-05-09T12:28:43.234Z</time>
      </trkpt>
      <trkpt lat="47.92583" lon="6.92078">
        <ele>1016</ele>
        <time>2026-05-09T12:28:44.235Z</time>
      </trkpt>
      <trkpt lat="47.92583" lon="6.92078">
        <ele>1016</ele>
        <time>2026-05-09T12:28:45.234Z</time>
      </trkpt>
      <trkpt lat="47.92585" lon="6.92078">
        <ele>1016</ele>
        <time>2026-05-09T12:28:46.235Z</time>
      </trkpt>
      <trkpt lat="47.92584" lon="6.92079">
        <ele>1016</ele>
        <time>2026-05-09T12:28:47.234Z</time>
      </trkpt>
      <trkpt lat="47.92585" lon="6.92079">
        <ele>1016</ele>
        <time>2026-05-09T12:28:48.235Z</time>
      </trkpt>
      <trkpt lat="47.92586" lon="6.92077">
        <ele>1016</ele>
        <time>2026-05-09T12:28:49.234Z</time>
      </trkpt>
      <trkpt lat="47.92587" lon="6.92077">
        <ele>1016</ele>
        <time>2026-05-09T12:28:50.235Z</time>
      </trkpt>
      <trkpt lat="47.92588" lon="6.92077">
        <ele>1016</ele>
        <time>2026-05-09T12:28:51.235Z</time>
      </trkpt>
      <trkpt lat="47.92588" lon="6.92077">
        <ele>1016</ele>
        <time>2026-05-09T12:28:52.234Z</time>
      </trkpt>
      <trkpt lat="47.92589" lon="6.92077">
        <ele>1016</ele>
        <time>2026-05-09T12:28:53.235Z</time>
      </trkpt>
      <trkpt lat="47.9259" lon="6.92078">
        <ele>1017</ele>
        <time>2026-05-09T12:28:54.234Z</time>
      </trkpt>
      <trkpt lat="47.92591" lon="6.92078">
        <ele>1017</ele>
        <time>2026-05-09T12:28:55.235Z</time>
      </trkpt>
      <trkpt lat="47.92592" lon="6.92078">
        <ele>1017</ele>
        <time>2026-05-09T12:28:56.234Z</time>
      </trkpt>
      <trkpt lat="47.92593" lon="6.92078">
        <ele>1018</ele>
        <time>2026-05-09T12:28:57.235Z</time>
      </trkpt>
      <trkpt lat="47.92594" lon="6.92078">
        <ele>1018</ele>
        <time>2026-05-09T12:28:58.234Z</time>
      </trkpt>
      <trkpt lat="47.92596" lon="6.92079">
        <ele>1019</ele>
        <time>2026-05-09T12:28:59.235Z</time>
      </trkpt>
      <trkpt lat="47.92597" lon="6.92081">
        <ele>1019</ele>
        <time>2026-05-09T12:29:00.234Z</time>
      </trkpt>
      <trkpt lat="47.92598" lon="6.92082">
        <ele>1019</ele>
        <time>2026-05-09T12:29:01.235Z</time>
      </trkpt>
      <trkpt lat="47.926" lon="6.92083">
        <ele>1019</ele>
        <time>2026-05-09T12:29:02.234Z</time>
      </trkpt>
      <trkpt lat="47.92601" lon="6.92083">
        <ele>1019</ele>
        <time>2026-05-09T12:29:03.235Z</time>
      </trkpt>
      <trkpt lat="47.92602" lon="6.92084">
        <ele>1019</ele>
        <time>2026-05-09T12:29:04.234Z</time>
      </trkpt>
      <trkpt lat="47.92603" lon="6.92085">
        <ele>1019</ele>
        <time>2026-05-09T12:29:05.235Z</time>
      </trkpt>
      <trkpt lat="47.92604" lon="6.92086">
        <ele>1019</ele>
        <time>2026-05-09T12:29:06.235Z</time>
      </trkpt>
      <trkpt lat="47.92605" lon="6.92087">
        <ele>1019</ele>
        <time>2026-05-09T12:29:07.235Z</time>
      </trkpt>
      <trkpt lat="47.92605" lon="6.92088">
        <ele>1019</ele>
        <time>2026-05-09T12:29:08.235Z</time>
      </trkpt>
      <trkpt lat="47.92606" lon="6.92089">
        <ele>1019</ele>
        <time>2026-05-09T12:29:09.234Z</time>
      </trkpt>
      <trkpt lat="47.92607" lon="6.9209">
        <ele>1019</ele>
        <time>2026-05-09T12:29:10.235Z</time>
      </trkpt>
      <trkpt lat="47.92607" lon="6.9209">
        <ele>1019</ele>
        <time>2026-05-09T12:29:11.234Z</time>
      </trkpt>
      <trkpt lat="47.92607" lon="6.9209">
        <ele>1019</ele>
        <time>2026-05-09T12:29:12.235Z</time>
      </trkpt>
      <trkpt lat="47.92607" lon="6.92091">
        <ele>1018</ele>
        <time>2026-05-09T12:29:13.234Z</time>
      </trkpt>
      <trkpt lat="47.92608" lon="6.92091">
        <ele>1018</ele>
        <time>2026-05-09T12:29:14.235Z</time>
      </trkpt>
      <trkpt lat="47.9261" lon="6.92091">
        <ele>1018</ele>
        <time>2026-05-09T12:29:15.234Z</time>
      </trkpt>
      <trkpt lat="47.92611" lon="6.92091">
        <ele>1018</ele>
        <time>2026-05-09T12:29:16.234Z</time>
      </trkpt>
      <trkpt lat="47.92611" lon="6.92092">
        <ele>1019</ele>
        <time>2026-05-09T12:29:17.234Z</time>
      </trkpt>
      <trkpt lat="47.92612" lon="6.92093">
        <ele>1019</ele>
        <time>2026-05-09T12:29:18.235Z</time>
      </trkpt>
      <trkpt lat="47.92613" lon="6.92094">
        <ele>1019</ele>
        <time>2026-05-09T12:29:19.234Z</time>
      </trkpt>
      <trkpt lat="47.92615" lon="6.92095">
        <ele>1019</ele>
        <time>2026-05-09T12:29:20.235Z</time>
      </trkpt>
      <trkpt lat="47.92616" lon="6.92095">
        <ele>1019</ele>
        <time>2026-05-09T12:29:21.234Z</time>
      </trkpt>
      <trkpt lat="47.92617" lon="6.92095">
        <ele>1019</ele>
        <time>2026-05-09T12:29:22.235Z</time>
      </trkpt>
      <trkpt lat="47.92618" lon="6.92096">
        <ele>1019</ele>
        <time>2026-05-09T12:29:23.235Z</time>
      </trkpt>
      <trkpt lat="47.92619" lon="6.92097">
        <ele>1019</ele>
        <time>2026-05-09T12:29:24.235Z</time>
      </trkpt>
      <trkpt lat="47.9262" lon="6.92098">
        <ele>1020</ele>
        <time>2026-05-09T12:29:25.235Z</time>
      </trkpt>
      <trkpt lat="47.92622" lon="6.92099">
        <ele>1020</ele>
        <time>2026-05-09T12:29:26.234Z</time>
      </trkpt>
      <trkpt lat="47.92622" lon="6.921">
        <ele>1021</ele>
        <time>2026-05-09T12:29:27.235Z</time>
      </trkpt>
      <trkpt lat="47.92623" lon="6.92101">
        <ele>1021</ele>
        <time>2026-05-09T12:29:28.234Z</time>
      </trkpt>
      <trkpt lat="47.92623" lon="6.92101">
        <ele>1022</ele>
        <time>2026-05-09T12:29:29.235Z</time>
      </trkpt>
      <trkpt lat="47.92624" lon="6.92102">
        <ele>1022</ele>
        <time>2026-05-09T12:29:30.234Z</time>
      </trkpt>
      <trkpt lat="47.92625" lon="6.92103">
        <ele>1022</ele>
        <time>2026-05-09T12:29:31.235Z</time>
      </trkpt>
      <trkpt lat="47.92625" lon="6.92104">
        <ele>1022</ele>
        <time>2026-05-09T12:29:32.234Z</time>
      </trkpt>
      <trkpt lat="47.92626" lon="6.92104">
        <ele>1023</ele>
        <time>2026-05-09T12:29:33.235Z</time>
      </trkpt>
      <trkpt lat="47.92628" lon="6.92104">
        <ele>1023</ele>
        <time>2026-05-09T12:29:34.234Z</time>
      </trkpt>
      <trkpt lat="47.92629" lon="6.92105">
        <ele>1023</ele>
        <time>2026-05-09T12:29:35.235Z</time>
      </trkpt>
      <trkpt lat="47.9263" lon="6.92105">
        <ele>1023</ele>
        <time>2026-05-09T12:29:36.234Z</time>
      </trkpt>
      <trkpt lat="47.92631" lon="6.92107">
        <ele>1024</ele>
        <time>2026-05-09T12:29:37.235Z</time>
      </trkpt>
      <trkpt lat="47.92632" lon="6.92108">
        <ele>1024</ele>
        <time>2026-05-09T12:29:38.235Z</time>
      </trkpt>
      <trkpt lat="47.92633" lon="6.92109">
        <ele>1024</ele>
        <time>2026-05-09T12:29:39.234Z</time>
      </trkpt>
      <trkpt lat="47.92634" lon="6.9211">
        <ele>1025</ele>
        <time>2026-05-09T12:29:40.235Z</time>
      </trkpt>
      <trkpt lat="47.92636" lon="6.9211">
        <ele>1026</ele>
        <time>2026-05-09T12:29:41.234Z</time>
      </trkpt>
      <trkpt lat="47.92637" lon="6.9211">
        <ele>1026</ele>
        <time>2026-05-09T12:29:42.235Z</time>
      </trkpt>
      <trkpt lat="47.92638" lon="6.92111">
        <ele>1027</ele>
        <time>2026-05-09T12:29:43.234Z</time>
      </trkpt>
      <trkpt lat="47.92639" lon="6.92112">
        <ele>1027</ele>
        <time>2026-05-09T12:29:44.235Z</time>
      </trkpt>
      <trkpt lat="47.9264" lon="6.92112">
        <ele>1028</ele>
        <time>2026-05-09T12:29:45.234Z</time>
      </trkpt>
      <trkpt lat="47.9264" lon="6.92112">
        <ele>1028</ele>
        <time>2026-05-09T12:29:46.235Z</time>
      </trkpt>
      <trkpt lat="47.9264" lon="6.92113">
        <ele>1029</ele>
        <time>2026-05-09T12:29:47.234Z</time>
      </trkpt>
      <trkpt lat="47.92641" lon="6.92113">
        <ele>1029</ele>
        <time>2026-05-09T12:29:48.235Z</time>
      </trkpt>
      <trkpt lat="47.92642" lon="6.92114">
        <ele>1030</ele>
        <time>2026-05-09T12:29:49.234Z</time>
      </trkpt>
      <trkpt lat="47.92643" lon="6.92115">
        <ele>1030</ele>
        <time>2026-05-09T12:29:50.234Z</time>
      </trkpt>
      <trkpt lat="47.92644" lon="6.92115">
        <ele>1031</ele>
        <time>2026-05-09T12:29:51.234Z</time>
      </trkpt>
      <trkpt lat="47.92644" lon="6.92116">
        <ele>1031</ele>
        <time>2026-05-09T12:29:52.235Z</time>
      </trkpt>
      <trkpt lat="47.92645" lon="6.92117">
        <ele>1031</ele>
        <time>2026-05-09T12:29:53.234Z</time>
      </trkpt>
      <trkpt lat="47.92646" lon="6.92118">
        <ele>1031</ele>
        <time>2026-05-09T12:29:54.235Z</time>
      </trkpt>
      <trkpt lat="47.92647" lon="6.92119">
        <ele>1031</ele>
        <time>2026-05-09T12:29:55.235Z</time>
      </trkpt>
      <trkpt lat="47.92648" lon="6.92119">
        <ele>1031</ele>
        <time>2026-05-09T12:29:56.234Z</time>
      </trkpt>
      <trkpt lat="47.92649" lon="6.9212">
        <ele>1030</ele>
        <time>2026-05-09T12:29:57.235Z</time>
      </trkpt>
      <trkpt lat="47.9265" lon="6.92121">
        <ele>1030</ele>
        <time>2026-05-09T12:29:58.234Z</time>
      </trkpt>
      <trkpt lat="47.92652" lon="6.92121">
        <ele>1029</ele>
        <time>2026-05-09T12:29:59.234Z</time>
      </trkpt>
      <trkpt lat="47.92653" lon="6.92122">
        <ele>1029</ele>
        <time>2026-05-09T12:30:00.235Z</time>
      </trkpt>
      <trkpt lat="47.92654" lon="6.92123">
        <ele>1029</ele>
        <time>2026-05-09T12:30:01.235Z</time>
      </trkpt>
      <trkpt lat="47.92656" lon="6.92123">
        <ele>1029</ele>
        <time>2026-05-09T12:30:02.234Z</time>
      </trkpt>
      <trkpt lat="47.92656" lon="6.92123">
        <ele>1030</ele>
        <time>2026-05-09T12:30:03.235Z</time>
      </trkpt>
      <trkpt lat="47.92657" lon="6.92123">
        <ele>1030</ele>
        <time>2026-05-09T12:30:04.234Z</time>
      </trkpt>
      <trkpt lat="47.92658" lon="6.92124">
        <ele>1030</ele>
        <time>2026-05-09T12:30:05.235Z</time>
      </trkpt>
      <trkpt lat="47.92659" lon="6.92124">
        <ele>1030</ele>
        <time>2026-05-09T12:30:06.234Z</time>
      </trkpt>
      <trkpt lat="47.9266" lon="6.92124">
        <ele>1030</ele>
        <time>2026-05-09T12:30:07.235Z</time>
      </trkpt>
      <trkpt lat="47.92661" lon="6.92123">
        <ele>1030</ele>
        <time>2026-05-09T12:30:08.234Z</time>
      </trkpt>
      <trkpt lat="47.92661" lon="6.92123">
        <ele>1030</ele>
        <time>2026-05-09T12:30:09.235Z</time>
      </trkpt>
      <trkpt lat="47.92662" lon="6.92124">
        <ele>1030</ele>
        <time>2026-05-09T12:30:10.234Z</time>
      </trkpt>
      <trkpt lat="47.92662" lon="6.92125">
        <ele>1030</ele>
        <time>2026-05-09T12:30:11.235Z</time>
      </trkpt>
      <trkpt lat="47.92663" lon="6.92127">
        <ele>1030</ele>
        <time>2026-05-09T12:30:12.235Z</time>
      </trkpt>
      <trkpt lat="47.92663" lon="6.92128">
        <ele>1030</ele>
        <time>2026-05-09T12:30:13.234Z</time>
      </trkpt>
      <trkpt lat="47.92663" lon="6.92129">
        <ele>1030</ele>
        <time>2026-05-09T12:30:14.235Z</time>
      </trkpt>
      <trkpt lat="47.92663" lon="6.92129">
        <ele>1030</ele>
        <time>2026-05-09T12:30:15.234Z</time>
      </trkpt>
      <trkpt lat="47.92658" lon="6.92134">
        <ele>1037</ele>
        <time>2026-05-09T12:30:23.447Z</time>
      </trkpt>
      <trkpt lat="47.92657" lon="6.92135">
        <ele>1037</ele>
        <time>2026-05-09T12:30:24.448Z</time>
      </trkpt>
      <trkpt lat="47.92655" lon="6.92136">
        <ele>1037</ele>
        <time>2026-05-09T12:30:25.447Z</time>
      </trkpt>
      <trkpt lat="47.92653" lon="6.92136">
        <ele>1037</ele>
        <time>2026-05-09T12:30:26.447Z</time>
      </trkpt>
      <trkpt lat="47.92652" lon="6.92137">
        <ele>1037</ele>
        <time>2026-05-09T12:30:27.447Z</time>
      </trkpt>
      <trkpt lat="47.92651" lon="6.92137">
        <ele>1037</ele>
        <time>2026-05-09T12:30:28.447Z</time>
      </trkpt>
      <trkpt lat="47.9265" lon="6.92139">
        <ele>1037</ele>
        <time>2026-05-09T12:30:29.447Z</time>
      </trkpt>
      <trkpt lat="47.92649" lon="6.9214">
        <ele>1037</ele>
        <time>2026-05-09T12:30:30.447Z</time>
      </trkpt>
      <trkpt lat="47.92648" lon="6.92141">
        <ele>1037</ele>
        <time>2026-05-09T12:30:31.448Z</time>
      </trkpt>
      <trkpt lat="47.92646" lon="6.92141">
        <ele>1037</ele>
        <time>2026-05-09T12:30:32.447Z</time>
      </trkpt>
      <trkpt lat="47.92643" lon="6.92142">
        <ele>1037</ele>
        <time>2026-05-09T12:30:33.447Z</time>
      </trkpt>
      <trkpt lat="47.92642" lon="6.92143">
        <ele>1038</ele>
        <time>2026-05-09T12:30:34.447Z</time>
      </trkpt>
      <trkpt lat="47.92641" lon="6.92143">
        <ele>1038</ele>
        <time>2026-05-09T12:30:35.448Z</time>
      </trkpt>
      <trkpt lat="47.9264" lon="6.92144">
        <ele>1038</ele>
        <time>2026-05-09T12:30:36.447Z</time>
      </trkpt>
      <trkpt lat="47.92639" lon="6.92143">
        <ele>1038</ele>
        <time>2026-05-09T12:30:37.447Z</time>
      </trkpt>
      <trkpt lat="47.92639" lon="6.92144">
        <ele>1038</ele>
        <time>2026-05-09T12:30:38.447Z</time>
      </trkpt>
      <trkpt lat="47.92638" lon="6.92145">
        <ele>1038</ele>
        <time>2026-05-09T12:30:39.447Z</time>
      </trkpt>
      <trkpt lat="47.92637" lon="6.92145">
        <ele>1038</ele>
        <time>2026-05-09T12:30:40.447Z</time>
      </trkpt>
      <trkpt lat="47.92636" lon="6.92145">
        <ele>1038</ele>
        <time>2026-05-09T12:30:41.447Z</time>
      </trkpt>
      <trkpt lat="47.92636" lon="6.92145">
        <ele>1038</ele>
        <time>2026-05-09T12:30:42.447Z</time>
      </trkpt>
      <trkpt lat="47.92635" lon="6.92145">
        <ele>1038</ele>
        <time>2026-05-09T12:30:43.447Z</time>
      </trkpt>
      <trkpt lat="47.92633" lon="6.92145">
        <ele>1037</ele>
        <time>2026-05-09T12:30:44.447Z</time>
      </trkpt>
      <trkpt lat="47.92633" lon="6.92145">
        <ele>1037</ele>
        <time>2026-05-09T12:30:45.447Z</time>
      </trkpt>
      <trkpt lat="47.92632" lon="6.92146">
        <ele>1037</ele>
        <time>2026-05-09T12:30:46.447Z</time>
      </trkpt>
      <trkpt lat="47.92631" lon="6.92146">
        <ele>1037</ele>
        <time>2026-05-09T12:30:47.447Z</time>
      </trkpt>
      <trkpt lat="47.9263" lon="6.92147">
        <ele>1038</ele>
        <time>2026-05-09T12:30:48.447Z</time>
      </trkpt>
      <trkpt lat="47.92629" lon="6.92146">
        <ele>1038</ele>
        <time>2026-05-09T12:30:49.447Z</time>
      </trkpt>
      <trkpt lat="47.92628" lon="6.92147">
        <ele>1038</ele>
        <time>2026-05-09T12:30:50.448Z</time>
      </trkpt>
      <trkpt lat="47.92628" lon="6.92147">
        <ele>1038</ele>
        <time>2026-05-09T12:30:51.447Z</time>
      </trkpt>
      <trkpt lat="47.92627" lon="6.92147">
        <ele>1038</ele>
        <time>2026-05-09T12:30:52.447Z</time>
      </trkpt>
      <trkpt lat="47.92625" lon="6.92148">
        <ele>1039</ele>
        <time>2026-05-09T12:30:53.447Z</time>
      </trkpt>
      <trkpt lat="47.92624" lon="6.92148">
        <ele>1039</ele>
        <time>2026-05-09T12:30:54.448Z</time>
      </trkpt>
      <trkpt lat="47.92623" lon="6.92149">
        <ele>1039</ele>
        <time>2026-05-09T12:30:55.447Z</time>
      </trkpt>
      <trkpt lat="47.92621" lon="6.92149">
        <ele>1039</ele>
        <time>2026-05-09T12:30:56.447Z</time>
      </trkpt>
      <trkpt lat="47.92621" lon="6.92149">
        <ele>1040</ele>
        <time>2026-05-09T12:30:57.447Z</time>
      </trkpt>
      <trkpt lat="47.92619" lon="6.9215">
        <ele>1040</ele>
        <time>2026-05-09T12:30:58.448Z</time>
      </trkpt>
      <trkpt lat="47.92618" lon="6.92151">
        <ele>1040</ele>
        <time>2026-05-09T12:30:59.448Z</time>
      </trkpt>
      <trkpt lat="47.92616" lon="6.92152">
        <ele>1041</ele>
        <time>2026-05-09T12:31:00.447Z</time>
      </trkpt>
      <trkpt lat="47.92615" lon="6.92153">
        <ele>1041</ele>
        <time>2026-05-09T12:31:01.447Z</time>
      </trkpt>
      <trkpt lat="47.92614" lon="6.92154">
        <ele>1042</ele>
        <time>2026-05-09T12:31:02.447Z</time>
      </trkpt>
      <trkpt lat="47.92613" lon="6.92154">
        <ele>1042</ele>
        <time>2026-05-09T12:31:03.448Z</time>
      </trkpt>
      <trkpt lat="47.92612" lon="6.92154">
        <ele>1043</ele>
        <time>2026-05-09T12:31:04.447Z</time>
      </trkpt>
      <trkpt lat="47.92612" lon="6.92154">
        <ele>1043</ele>
        <time>2026-05-09T12:31:05.448Z</time>
      </trkpt>
      <trkpt lat="47.92612" lon="6.92154">
        <ele>1043</ele>
        <time>2026-05-09T12:31:06.448Z</time>
      </trkpt>
      <trkpt lat="47.92611" lon="6.92154">
        <ele>1043</ele>
        <time>2026-05-09T12:31:07.447Z</time>
      </trkpt>
      <trkpt lat="47.9261" lon="6.92155">
        <ele>1044</ele>
        <time>2026-05-09T12:31:08.448Z</time>
      </trkpt>
      <trkpt lat="47.92609" lon="6.92154">
        <ele>1044</ele>
        <time>2026-05-09T12:31:09.447Z</time>
      </trkpt>
      <trkpt lat="47.92608" lon="6.92155">
        <ele>1044</ele>
        <time>2026-05-09T12:31:10.447Z</time>
      </trkpt>
      <trkpt lat="47.92606" lon="6.92155">
        <ele>1044</ele>
        <time>2026-05-09T12:31:11.447Z</time>
      </trkpt>
      <trkpt lat="47.92605" lon="6.92155">
        <ele>1044</ele>
        <time>2026-05-09T12:31:12.448Z</time>
      </trkpt>
      <trkpt lat="47.92604" lon="6.92155">
        <ele>1044</ele>
        <time>2026-05-09T12:31:13.447Z</time>
      </trkpt>
      <trkpt lat="47.92603" lon="6.92156">
        <ele>1044</ele>
        <time>2026-05-09T12:31:14.448Z</time>
      </trkpt>
      <trkpt lat="47.92602" lon="6.92156">
        <ele>1045</ele>
        <time>2026-05-09T12:31:15.448Z</time>
      </trkpt>
      <trkpt lat="47.92601" lon="6.92157">
        <ele>1045</ele>
        <time>2026-05-09T12:31:16.447Z</time>
      </trkpt>
      <trkpt lat="47.926" lon="6.92157">
        <ele>1045</ele>
        <time>2026-05-09T12:31:17.447Z</time>
      </trkpt>
      <trkpt lat="47.92599" lon="6.92158">
        <ele>1045</ele>
        <time>2026-05-09T12:31:18.447Z</time>
      </trkpt>
      <trkpt lat="47.92598" lon="6.92159">
        <ele>1046</ele>
        <time>2026-05-09T12:31:19.447Z</time>
      </trkpt>
      <trkpt lat="47.92597" lon="6.9216">
        <ele>1046</ele>
        <time>2026-05-09T12:31:20.447Z</time>
      </trkpt>
      <trkpt lat="47.92596" lon="6.92161">
        <ele>1047</ele>
        <time>2026-05-09T12:31:21.447Z</time>
      </trkpt>
      <trkpt lat="47.92595" lon="6.92162">
        <ele>1047</ele>
        <time>2026-05-09T12:31:22.447Z</time>
      </trkpt>
      <trkpt lat="47.92594" lon="6.92163">
        <ele>1047</ele>
        <time>2026-05-09T12:31:23.447Z</time>
      </trkpt>
      <trkpt lat="47.92594" lon="6.92165">
        <ele>1047</ele>
        <time>2026-05-09T12:31:24.447Z</time>
      </trkpt>
      <trkpt lat="47.92593" lon="6.92166">
        <ele>1047</ele>
        <time>2026-05-09T12:31:25.447Z</time>
      </trkpt>
      <trkpt lat="47.92592" lon="6.92167">
        <ele>1047</ele>
        <time>2026-05-09T12:31:26.448Z</time>
      </trkpt>
      <trkpt lat="47.92592" lon="6.92168">
        <ele>1047</ele>
        <time>2026-05-09T12:31:27.448Z</time>
      </trkpt>
      <trkpt lat="47.92592" lon="6.9217">
        <ele>1047</ele>
        <time>2026-05-09T12:31:28.448Z</time>
      </trkpt>
      <trkpt lat="47.92591" lon="6.92171">
        <ele>1048</ele>
        <time>2026-05-09T12:31:29.447Z</time>
      </trkpt>
      <trkpt lat="47.9259" lon="6.92173">
        <ele>1048</ele>
        <time>2026-05-09T12:31:30.447Z</time>
      </trkpt>
      <trkpt lat="47.92589" lon="6.92173">
        <ele>1047</ele>
        <time>2026-05-09T12:31:31.448Z</time>
      </trkpt>
      <trkpt lat="47.92589" lon="6.92176">
        <ele>1047</ele>
        <time>2026-05-09T12:31:32.447Z</time>
      </trkpt>
      <trkpt lat="47.92588" lon="6.92178">
        <ele>1047</ele>
        <time>2026-05-09T12:31:33.448Z</time>
      </trkpt>
      <trkpt lat="47.92587" lon="6.9218">
        <ele>1047</ele>
        <time>2026-05-09T12:31:34.447Z</time>
      </trkpt>
      <trkpt lat="47.92586" lon="6.92181">
        <ele>1047</ele>
        <time>2026-05-09T12:31:35.448Z</time>
      </trkpt>
      <trkpt lat="47.92585" lon="6.92181">
        <ele>1047</ele>
        <time>2026-05-09T12:31:36.447Z</time>
      </trkpt>
      <trkpt lat="47.92584" lon="6.92182">
        <ele>1047</ele>
        <time>2026-05-09T12:31:37.447Z</time>
      </trkpt>
      <trkpt lat="47.92583" lon="6.92184">
        <ele>1047</ele>
        <time>2026-05-09T12:31:38.447Z</time>
      </trkpt>
      <trkpt lat="47.9258" lon="6.92187">
        <ele>1047</ele>
        <time>2026-05-09T12:31:39.448Z</time>
      </trkpt>
      <trkpt lat="47.92578" lon="6.9219">
        <ele>1047</ele>
        <time>2026-05-09T12:31:40.447Z</time>
      </trkpt>
      <trkpt lat="47.92576" lon="6.92193">
        <ele>1047</ele>
        <time>2026-05-09T12:31:41.448Z</time>
      </trkpt>
      <trkpt lat="47.92576" lon="6.92197">
        <ele>1047</ele>
        <time>2026-05-09T12:31:42.447Z</time>
      </trkpt>
      <trkpt lat="47.92576" lon="6.92199">
        <ele>1047</ele>
        <time>2026-05-09T12:31:43.447Z</time>
      </trkpt>
      <trkpt lat="47.92578" lon="6.92202">
        <ele>1048</ele>
        <time>2026-05-09T12:31:44.448Z</time>
      </trkpt>
      <trkpt lat="47.92576" lon="6.92204">
        <ele>1048</ele>
        <time>2026-05-09T12:31:45.448Z</time>
      </trkpt>
      <trkpt lat="47.92575" lon="6.92207">
        <ele>1048</ele>
        <time>2026-05-09T12:31:46.447Z</time>
      </trkpt>
      <trkpt lat="47.92574" lon="6.92209">
        <ele>1048</ele>
        <time>2026-05-09T12:31:47.447Z</time>
      </trkpt>
      <trkpt lat="47.92573" lon="6.92212">
        <ele>1048</ele>
        <time>2026-05-09T12:31:48.448Z</time>
      </trkpt>
      <trkpt lat="47.92573" lon="6.92215">
        <ele>1048</ele>
        <time>2026-05-09T12:31:49.447Z</time>
      </trkpt>
      <trkpt lat="47.92573" lon="6.92217">
        <ele>1047</ele>
        <time>2026-05-09T12:31:50.448Z</time>
      </trkpt>
      <trkpt lat="47.92573" lon="6.92218">
        <ele>1047</ele>
        <time>2026-05-09T12:31:51.447Z</time>
      </trkpt>
      <trkpt lat="47.92574" lon="6.92219">
        <ele>1047</ele>
        <time>2026-05-09T12:31:52.447Z</time>
      </trkpt>
      <trkpt lat="47.92574" lon="6.92221">
        <ele>1047</ele>
        <time>2026-05-09T12:31:53.448Z</time>
      </trkpt>
      <trkpt lat="47.92576" lon="6.9222">
        <ele>1047</ele>
        <time>2026-05-09T12:31:54.448Z</time>
      </trkpt>
      <trkpt lat="47.92577" lon="6.92219">
        <ele>1047</ele>
        <time>2026-05-09T12:31:55.447Z</time>
      </trkpt>
      <trkpt lat="47.92579" lon="6.92218">
        <ele>1047</ele>
        <time>2026-05-09T12:31:56.447Z</time>
      </trkpt>
      <trkpt lat="47.92579" lon="6.92219">
        <ele>1046</ele>
        <time>2026-05-09T12:31:57.447Z</time>
      </trkpt>
      <trkpt lat="47.9258" lon="6.9222">
        <ele>1046</ele>
        <time>2026-05-09T12:31:58.447Z</time>
      </trkpt>
      <trkpt lat="47.9258" lon="6.92222">
        <ele>1046</ele>
        <time>2026-05-09T12:31:59.447Z</time>
      </trkpt>
      <trkpt lat="47.9258" lon="6.92224">
        <ele>1045</ele>
        <time>2026-05-09T12:32:00.447Z</time>
      </trkpt>
      <trkpt lat="47.9258" lon="6.92226">
        <ele>1045</ele>
        <time>2026-05-09T12:32:01.447Z</time>
      </trkpt>
      <trkpt lat="47.92579" lon="6.92228">
        <ele>1045</ele>
        <time>2026-05-09T12:32:02.447Z</time>
      </trkpt>
      <trkpt lat="47.92579" lon="6.92229">
        <ele>1044</ele>
        <time>2026-05-09T12:32:03.448Z</time>
      </trkpt>
      <trkpt lat="47.92579" lon="6.92229">
        <ele>1044</ele>
        <time>2026-05-09T12:32:04.447Z</time>
      </trkpt>
      <trkpt lat="47.9258" lon="6.9223">
        <ele>1044</ele>
        <time>2026-05-09T12:32:05.447Z</time>
      </trkpt>
      <trkpt lat="47.92581" lon="6.9223">
        <ele>1044</ele>
        <time>2026-05-09T12:32:06.447Z</time>
      </trkpt>
      <trkpt lat="47.92582" lon="6.9223">
        <ele>1044</ele>
        <time>2026-05-09T12:32:07.447Z</time>
      </trkpt>
      <trkpt lat="47.92583" lon="6.9223">
        <ele>1045</ele>
        <time>2026-05-09T12:32:08.448Z</time>
      </trkpt>
      <trkpt lat="47.92584" lon="6.92231">
        <ele>1045</ele>
        <time>2026-05-09T12:32:09.447Z</time>
      </trkpt>
      <trkpt lat="47.92585" lon="6.92232">
        <ele>1046</ele>
        <time>2026-05-09T12:32:10.447Z</time>
      </trkpt>
      <trkpt lat="47.92585" lon="6.92233">
        <ele>1046</ele>
        <time>2026-05-09T12:32:11.447Z</time>
      </trkpt>
      <trkpt lat="47.92586" lon="6.92234">
        <ele>1047</ele>
        <time>2026-05-09T12:32:12.447Z</time>
      </trkpt>
      <trkpt lat="47.92587" lon="6.92234">
        <ele>1048</ele>
        <time>2026-05-09T12:32:13.447Z</time>
      </trkpt>
      <trkpt lat="47.92588" lon="6.92234">
        <ele>1049</ele>
        <time>2026-05-09T12:32:14.447Z</time>
      </trkpt>
      <trkpt lat="47.92589" lon="6.92235">
        <ele>1049</ele>
        <time>2026-05-09T12:32:15.447Z</time>
      </trkpt>
      <trkpt lat="47.92589" lon="6.92234">
        <ele>1050</ele>
        <time>2026-05-09T12:32:16.448Z</time>
      </trkpt>
      <trkpt lat="47.9259" lon="6.92234">
        <ele>1050</ele>
        <time>2026-05-09T12:32:17.447Z</time>
      </trkpt>
      <trkpt lat="47.92591" lon="6.92234">
        <ele>1051</ele>
        <time>2026-05-09T12:32:18.447Z</time>
      </trkpt>
      <trkpt lat="47.92592" lon="6.92233">
        <ele>1051</ele>
        <time>2026-05-09T12:32:19.447Z</time>
      </trkpt>
      <trkpt lat="47.92593" lon="6.92233">
        <ele>1051</ele>
        <time>2026-05-09T12:32:20.447Z</time>
      </trkpt>
      <trkpt lat="47.92594" lon="6.92233">
        <ele>1052</ele>
        <time>2026-05-09T12:32:21.448Z</time>
      </trkpt>
      <trkpt lat="47.92596" lon="6.92233">
        <ele>1052</ele>
        <time>2026-05-09T12:32:22.447Z</time>
      </trkpt>
      <trkpt lat="47.92596" lon="6.92233">
        <ele>1052</ele>
        <time>2026-05-09T12:32:23.448Z</time>
      </trkpt>
      <trkpt lat="47.92597" lon="6.92233">
        <ele>1052</ele>
        <time>2026-05-09T12:32:24.448Z</time>
      </trkpt>
      <trkpt lat="47.92599" lon="6.92233">
        <ele>1052</ele>
        <time>2026-05-09T12:32:25.447Z</time>
      </trkpt>
      <trkpt lat="47.926" lon="6.92233">
        <ele>1052</ele>
        <time>2026-05-09T12:32:26.447Z</time>
      </trkpt>
      <trkpt lat="47.92602" lon="6.92234">
        <ele>1052</ele>
        <time>2026-05-09T12:32:27.447Z</time>
      </trkpt>
      <trkpt lat="47.92603" lon="6.92234">
        <ele>1052</ele>
        <time>2026-05-09T12:32:28.447Z</time>
      </trkpt>
      <trkpt lat="47.92605" lon="6.92234">
        <ele>1052</ele>
        <time>2026-05-09T12:32:29.447Z</time>
      </trkpt>
      <trkpt lat="47.92606" lon="6.92234">
        <ele>1052</ele>
        <time>2026-05-09T12:32:30.448Z</time>
      </trkpt>
      <trkpt lat="47.92607" lon="6.92234">
        <ele>1052</ele>
        <time>2026-05-09T12:32:31.448Z</time>
      </trkpt>
      <trkpt lat="47.92608" lon="6.92233">
        <ele>1052</ele>
        <time>2026-05-09T12:32:32.447Z</time>
      </trkpt>
      <trkpt lat="47.92609" lon="6.92233">
        <ele>1052</ele>
        <time>2026-05-09T12:32:33.447Z</time>
      </trkpt>
      <trkpt lat="47.92609" lon="6.92233">
        <ele>1052</ele>
        <time>2026-05-09T12:32:34.448Z</time>
      </trkpt>
      <trkpt lat="47.9261" lon="6.92232">
        <ele>1052</ele>
        <time>2026-05-09T12:32:35.448Z</time>
      </trkpt>
      <trkpt lat="47.92611" lon="6.92232">
        <ele>1051</ele>
        <time>2026-05-09T12:32:36.447Z</time>
      </trkpt>
      <trkpt lat="47.92612" lon="6.92232">
        <ele>1051</ele>
        <time>2026-05-09T12:32:37.448Z</time>
      </trkpt>
      <trkpt lat="47.92613" lon="6.92232">
        <ele>1051</ele>
        <time>2026-05-09T12:32:38.447Z</time>
      </trkpt>
      <trkpt lat="47.92614" lon="6.92232">
        <ele>1051</ele>
        <time>2026-05-09T12:32:39.447Z</time>
      </trkpt>
      <trkpt lat="47.92614" lon="6.92232">
        <ele>1051</ele>
        <time>2026-05-09T12:32:40.447Z</time>
      </trkpt>
      <trkpt lat="47.92615" lon="6.92232">
        <ele>1050</ele>
        <time>2026-05-09T12:32:41.447Z</time>
      </trkpt>
      <trkpt lat="47.92616" lon="6.92232">
        <ele>1050</ele>
        <time>2026-05-09T12:32:42.447Z</time>
      </trkpt>
      <trkpt lat="47.92617" lon="6.92232">
        <ele>1049</ele>
        <time>2026-05-09T12:32:43.447Z</time>
      </trkpt>
      <trkpt lat="47.92617" lon="6.92233">
        <ele>1049</ele>
        <time>2026-05-09T12:32:44.447Z</time>
      </trkpt>
      <trkpt lat="47.92617" lon="6.92233">
        <ele>1049</ele>
        <time>2026-05-09T12:32:45.448Z</time>
      </trkpt>
      <trkpt lat="47.92617" lon="6.92233">
        <ele>1049</ele>
        <time>2026-05-09T12:32:46.447Z</time>
      </trkpt>
      <trkpt lat="47.92617" lon="6.92233">
        <ele>1048</ele>
        <time>2026-05-09T12:32:47.448Z</time>
      </trkpt>
      <trkpt lat="47.92619" lon="6.92234">
        <ele>1049</ele>
        <time>2026-05-09T12:32:52.855Z</time>
      </trkpt>
      <trkpt lat="47.9262" lon="6.92234">
        <ele>1049</ele>
        <time>2026-05-09T12:32:53.855Z</time>
      </trkpt>
      <trkpt lat="47.92621" lon="6.92235">
        <ele>1050</ele>
        <time>2026-05-09T12:32:54.855Z</time>
      </trkpt>
      <trkpt lat="47.92622" lon="6.92235">
        <ele>1050</ele>
        <time>2026-05-09T12:32:55.855Z</time>
      </trkpt>
      <trkpt lat="47.92622" lon="6.92235">
        <ele>1050</ele>
        <time>2026-05-09T12:32:56.855Z</time>
      </trkpt>
      <trkpt lat="47.92623" lon="6.92235">
        <ele>1050</ele>
        <time>2026-05-09T12:32:57.855Z</time>
      </trkpt>
      <trkpt lat="47.92624" lon="6.92235">
        <ele>1051</ele>
        <time>2026-05-09T12:32:58.855Z</time>
      </trkpt>
      <trkpt lat="47.92624" lon="6.92235">
        <ele>1051</ele>
        <time>2026-05-09T12:32:59.855Z</time>
      </trkpt>
      <trkpt lat="47.92624" lon="6.92235">
        <ele>1052</ele>
        <time>2026-05-09T12:33:00.855Z</time>
      </trkpt>
      <trkpt lat="47.92625" lon="6.92234">
        <ele>1053</ele>
        <time>2026-05-09T12:33:01.855Z</time>
      </trkpt>
      <trkpt lat="47.92625" lon="6.92234">
        <ele>1054</ele>
        <time>2026-05-09T12:33:02.855Z</time>
      </trkpt>
      <trkpt lat="47.92625" lon="6.92234">
        <ele>1054</ele>
        <time>2026-05-09T12:33:03.856Z</time>
      </trkpt>
      <trkpt lat="47.92626" lon="6.92234">
        <ele>1055</ele>
        <time>2026-05-09T12:33:04.856Z</time>
      </trkpt>
      <trkpt lat="47.92627" lon="6.92234">
        <ele>1056</ele>
        <time>2026-05-09T12:33:05.856Z</time>
      </trkpt>
      <trkpt lat="47.92628" lon="6.92235">
        <ele>1057</ele>
        <time>2026-05-09T12:33:06.855Z</time>
      </trkpt>
      <trkpt lat="47.92629" lon="6.92236">
        <ele>1057</ele>
        <time>2026-05-09T12:33:07.856Z</time>
      </trkpt>
      <trkpt lat="47.9263" lon="6.92237">
        <ele>1058</ele>
        <time>2026-05-09T12:33:08.855Z</time>
      </trkpt>
      <trkpt lat="47.92631" lon="6.92238">
        <ele>1058</ele>
        <time>2026-05-09T12:33:09.855Z</time>
      </trkpt>
      <trkpt lat="47.92631" lon="6.92238">
        <ele>1058</ele>
        <time>2026-05-09T12:33:10.855Z</time>
      </trkpt>
      <trkpt lat="47.92632" lon="6.92238">
        <ele>1059</ele>
        <time>2026-05-09T12:33:11.855Z</time>
      </trkpt>
      <trkpt lat="47.92633" lon="6.92239">
        <ele>1059</ele>
        <time>2026-05-09T12:33:12.855Z</time>
      </trkpt>
      <trkpt lat="47.92634" lon="6.92239">
        <ele>1059</ele>
        <time>2026-05-09T12:33:13.855Z</time>
      </trkpt>
      <trkpt lat="47.92635" lon="6.92239">
        <ele>1059</ele>
        <time>2026-05-09T12:33:14.855Z</time>
      </trkpt>
      <trkpt lat="47.92636" lon="6.92239">
        <ele>1059</ele>
        <time>2026-05-09T12:33:15.855Z</time>
      </trkpt>
      <trkpt lat="47.92637" lon="6.92239">
        <ele>1059</ele>
        <time>2026-05-09T12:33:16.855Z</time>
      </trkpt>
      <trkpt lat="47.92637" lon="6.9224">
        <ele>1059</ele>
        <time>2026-05-09T12:33:17.856Z</time>
      </trkpt>
      <trkpt lat="47.92638" lon="6.9224">
        <ele>1060</ele>
        <time>2026-05-09T12:33:18.855Z</time>
      </trkpt>
      <trkpt lat="47.9264" lon="6.92241">
        <ele>1060</ele>
        <time>2026-05-09T12:33:19.855Z</time>
      </trkpt>
      <trkpt lat="47.9264" lon="6.92241">
        <ele>1060</ele>
        <time>2026-05-09T12:33:20.855Z</time>
      </trkpt>
      <trkpt lat="47.92641" lon="6.92242">
        <ele>1060</ele>
        <time>2026-05-09T12:33:21.855Z</time>
      </trkpt>
      <trkpt lat="47.92641" lon="6.92244">
        <ele>1060</ele>
        <time>2026-05-09T12:33:22.855Z</time>
      </trkpt>
      <trkpt lat="47.92642" lon="6.92245">
        <ele>1060</ele>
        <time>2026-05-09T12:33:23.855Z</time>
      </trkpt>
      <trkpt lat="47.92643" lon="6.92245">
        <ele>1060</ele>
        <time>2026-05-09T12:33:24.855Z</time>
      </trkpt>
      <trkpt lat="47.92643" lon="6.92246">
        <ele>1060</ele>
        <time>2026-05-09T12:33:25.855Z</time>
      </trkpt>
      <trkpt lat="47.92645" lon="6.92247">
        <ele>1060</ele>
        <time>2026-05-09T12:33:26.855Z</time>
      </trkpt>
      <trkpt lat="47.92645" lon="6.92248">
        <ele>1059</ele>
        <time>2026-05-09T12:33:27.855Z</time>
      </trkpt>
      <trkpt lat="47.92646" lon="6.92249">
        <ele>1059</ele>
        <time>2026-05-09T12:33:28.856Z</time>
      </trkpt>
      <trkpt lat="47.92647" lon="6.9225">
        <ele>1059</ele>
        <time>2026-05-09T12:33:29.856Z</time>
      </trkpt>
      <trkpt lat="47.92648" lon="6.9225">
        <ele>1059</ele>
        <time>2026-05-09T12:33:30.856Z</time>
      </trkpt>
      <trkpt lat="47.92649" lon="6.92251">
        <ele>1059</ele>
        <time>2026-05-09T12:33:31.855Z</time>
      </trkpt>
      <trkpt lat="47.9265" lon="6.92252">
        <ele>1059</ele>
        <time>2026-05-09T12:33:32.856Z</time>
      </trkpt>
      <trkpt lat="47.92651" lon="6.92253">
        <ele>1059</ele>
        <time>2026-05-09T12:33:33.855Z</time>
      </trkpt>
      <trkpt lat="47.92652" lon="6.92253">
        <ele>1059</ele>
        <time>2026-05-09T12:33:34.855Z</time>
      </trkpt>
      <trkpt lat="47.92652" lon="6.92254">
        <ele>1059</ele>
        <time>2026-05-09T12:33:35.855Z</time>
      </trkpt>
      <trkpt lat="47.92653" lon="6.92255">
        <ele>1059</ele>
        <time>2026-05-09T12:33:36.855Z</time>
      </trkpt>
      <trkpt lat="47.92654" lon="6.92255">
        <ele>1059</ele>
        <time>2026-05-09T12:33:37.855Z</time>
      </trkpt>
      <trkpt lat="47.92654" lon="6.92256">
        <ele>1059</ele>
        <time>2026-05-09T12:33:38.855Z</time>
      </trkpt>
      <trkpt lat="47.92655" lon="6.92258">
        <ele>1059</ele>
        <time>2026-05-09T12:33:39.855Z</time>
      </trkpt>
      <trkpt lat="47.92655" lon="6.92259">
        <ele>1059</ele>
        <time>2026-05-09T12:33:40.856Z</time>
      </trkpt>
      <trkpt lat="47.92656" lon="6.9226">
        <ele>1059</ele>
        <time>2026-05-09T12:33:41.855Z</time>
      </trkpt>
      <trkpt lat="47.92657" lon="6.92261">
        <ele>1059</ele>
        <time>2026-05-09T12:33:42.855Z</time>
      </trkpt>
      <trkpt lat="47.92658" lon="6.92262">
        <ele>1060</ele>
        <time>2026-05-09T12:33:43.855Z</time>
      </trkpt>
      <trkpt lat="47.92659" lon="6.92263">
        <ele>1060</ele>
        <time>2026-05-09T12:33:44.855Z</time>
      </trkpt>
      <trkpt lat="47.92659" lon="6.92264">
        <ele>1060</ele>
        <time>2026-05-09T12:33:45.856Z</time>
      </trkpt>
      <trkpt lat="47.9266" lon="6.92266">
        <ele>1060</ele>
        <time>2026-05-09T12:33:46.855Z</time>
      </trkpt>
      <trkpt lat="47.92661" lon="6.92267">
        <ele>1061</ele>
        <time>2026-05-09T12:33:47.855Z</time>
      </trkpt>
      <trkpt lat="47.92661" lon="6.92267">
        <ele>1061</ele>
        <time>2026-05-09T12:33:48.856Z</time>
      </trkpt>
      <trkpt lat="47.92661" lon="6.92267">
        <ele>1061</ele>
        <time>2026-05-09T12:33:49.856Z</time>
      </trkpt>
      <trkpt lat="47.92662" lon="6.92267">
        <ele>1061</ele>
        <time>2026-05-09T12:33:50.856Z</time>
      </trkpt>
      <trkpt lat="47.92662" lon="6.92267">
        <ele>1061</ele>
        <time>2026-05-09T12:33:51.855Z</time>
      </trkpt>
      <trkpt lat="47.92662" lon="6.92267">
        <ele>1061</ele>
        <time>2026-05-09T12:33:52.855Z</time>
      </trkpt>
      <trkpt lat="47.92664" lon="6.92268">
        <ele>1063</ele>
        <time>2026-05-09T12:33:59.259Z</time>
      </trkpt>
      <trkpt lat="47.92664" lon="6.92268">
        <ele>1063</ele>
        <time>2026-05-09T12:34:00.259Z</time>
      </trkpt>
      <trkpt lat="47.92666" lon="6.92269">
        <ele>1064</ele>
        <time>2026-05-09T12:34:06.774Z</time>
      </trkpt>
      <trkpt lat="47.92667" lon="6.92269">
        <ele>1064</ele>
        <time>2026-05-09T12:34:07.774Z</time>
      </trkpt>
      <trkpt lat="47.92668" lon="6.9227">
        <ele>1064</ele>
        <time>2026-05-09T12:34:08.775Z</time>
      </trkpt>
      <trkpt lat="47.92668" lon="6.9227">
        <ele>1064</ele>
        <time>2026-05-09T12:34:09.774Z</time>
      </trkpt>
      <trkpt lat="47.92668" lon="6.92271">
        <ele>1064</ele>
        <time>2026-05-09T12:34:10.775Z</time>
      </trkpt>
      <trkpt lat="47.92668" lon="6.92271">
        <ele>1064</ele>
        <time>2026-05-09T12:34:11.775Z</time>
      </trkpt>
      <trkpt lat="47.92669" lon="6.92271">
        <ele>1065</ele>
        <time>2026-05-09T12:34:12.775Z</time>
      </trkpt>
      <trkpt lat="47.92669" lon="6.92271">
        <ele>1065</ele>
        <time>2026-05-09T12:34:13.775Z</time>
      </trkpt>
      <trkpt lat="47.9267" lon="6.92271">
        <ele>1065</ele>
        <time>2026-05-09T12:34:14.774Z</time>
      </trkpt>
      <trkpt lat="47.92671" lon="6.92272">
        <ele>1065</ele>
        <time>2026-05-09T12:34:15.775Z</time>
      </trkpt>
      <trkpt lat="47.92671" lon="6.92273">
        <ele>1065</ele>
        <time>2026-05-09T12:34:16.774Z</time>
      </trkpt>
      <trkpt lat="47.92671" lon="6.92273">
        <ele>1065</ele>
        <time>2026-05-09T12:34:17.775Z</time>
      </trkpt>
      <trkpt lat="47.92671" lon="6.92273">
        <ele>1066</ele>
        <time>2026-05-09T12:34:18.775Z</time>
      </trkpt>
      <trkpt lat="47.92672" lon="6.92274">
        <ele>1066</ele>
        <time>2026-05-09T12:34:19.774Z</time>
      </trkpt>
      <trkpt lat="47.92672" lon="6.92274">
        <ele>1066</ele>
        <time>2026-05-09T12:34:20.774Z</time>
      </trkpt>
      <trkpt lat="47.92672" lon="6.92274">
        <ele>1066</ele>
        <time>2026-05-09T12:34:21.774Z</time>
      </trkpt>
      <trkpt lat="47.92671" lon="6.92282">
        <ele>1068</ele>
        <time>2026-05-09T12:34:28.130Z</time>
      </trkpt>
      <trkpt lat="47.92671" lon="6.92284">
        <ele>1069</ele>
        <time>2026-05-09T12:34:29.130Z</time>
      </trkpt>
      <trkpt lat="47.92671" lon="6.92285">
        <ele>1069</ele>
        <time>2026-05-09T12:34:30.130Z</time>
      </trkpt>
      <trkpt lat="47.92672" lon="6.92285">
        <ele>1069</ele>
        <time>2026-05-09T12:34:31.131Z</time>
      </trkpt>
      <trkpt lat="47.92672" lon="6.92286">
        <ele>1070</ele>
        <time>2026-05-09T12:34:32.130Z</time>
      </trkpt>
      <trkpt lat="47.92672" lon="6.92286">
        <ele>1070</ele>
        <time>2026-05-09T12:34:33.130Z</time>
      </trkpt>
      <trkpt lat="47.92672" lon="6.92288">
        <ele>1070</ele>
        <time>2026-05-09T12:34:34.130Z</time>
      </trkpt>
      <trkpt lat="47.92672" lon="6.92289">
        <ele>1069</ele>
        <time>2026-05-09T12:34:35.131Z</time>
      </trkpt>
      <trkpt lat="47.92672" lon="6.9229">
        <ele>1069</ele>
        <time>2026-05-09T12:34:36.131Z</time>
      </trkpt>
      <trkpt lat="47.92671" lon="6.92292">
        <ele>1069</ele>
        <time>2026-05-09T12:34:37.130Z</time>
      </trkpt>
      <trkpt lat="47.92671" lon="6.92294">
        <ele>1069</ele>
        <time>2026-05-09T12:34:38.130Z</time>
      </trkpt>
      <trkpt lat="47.92671" lon="6.92295">
        <ele>1068</ele>
        <time>2026-05-09T12:34:39.130Z</time>
      </trkpt>
      <trkpt lat="47.9267" lon="6.92297">
        <ele>1068</ele>
        <time>2026-05-09T12:34:40.131Z</time>
      </trkpt>
      <trkpt lat="47.9267" lon="6.92299">
        <ele>1067</ele>
        <time>2026-05-09T12:34:41.130Z</time>
      </trkpt>
      <trkpt lat="47.9267" lon="6.923">
        <ele>1067</ele>
        <time>2026-05-09T12:34:42.131Z</time>
      </trkpt>
      <trkpt lat="47.9267" lon="6.92302">
        <ele>1066</ele>
        <time>2026-05-09T12:34:43.131Z</time>
      </trkpt>
      <trkpt lat="47.9267" lon="6.92303">
        <ele>1066</ele>
        <time>2026-05-09T12:34:44.131Z</time>
      </trkpt>
      <trkpt lat="47.9267" lon="6.92303">
        <ele>1066</ele>
        <time>2026-05-09T12:34:45.130Z</time>
      </trkpt>
      <trkpt lat="47.92668" lon="6.92304">
        <ele>1068</ele>
        <time>2026-05-09T12:34:59.246Z</time>
      </trkpt>
      <trkpt lat="47.92668" lon="6.9231">
        <ele>1070</ele>
        <time>2026-05-09T12:35:16.684Z</time>
      </trkpt>
      <trkpt lat="47.92667" lon="6.92311">
        <ele>1070</ele>
        <time>2026-05-09T12:35:17.684Z</time>
      </trkpt>
      <trkpt lat="47.92667" lon="6.92313">
        <ele>1070</ele>
        <time>2026-05-09T12:35:18.684Z</time>
      </trkpt>
      <trkpt lat="47.92667" lon="6.92314">
        <ele>1069</ele>
        <time>2026-05-09T12:35:19.684Z</time>
      </trkpt>
      <trkpt lat="47.92667" lon="6.92316">
        <ele>1069</ele>
        <time>2026-05-09T12:35:20.685Z</time>
      </trkpt>
      <trkpt lat="47.92667" lon="6.92317">
        <ele>1069</ele>
        <time>2026-05-09T12:35:21.685Z</time>
      </trkpt>
      <trkpt lat="47.92668" lon="6.92318">
        <ele>1068</ele>
        <time>2026-05-09T12:35:22.684Z</time>
      </trkpt>
      <trkpt lat="47.92668" lon="6.92319">
        <ele>1068</ele>
        <time>2026-05-09T12:35:23.685Z</time>
      </trkpt>
      <trkpt lat="47.92669" lon="6.92319">
        <ele>1069</ele>
        <time>2026-05-09T12:35:24.684Z</time>
      </trkpt>
      <trkpt lat="47.92669" lon="6.9232">
        <ele>1069</ele>
        <time>2026-05-09T12:35:25.685Z</time>
      </trkpt>
      <trkpt lat="47.92669" lon="6.92321">
        <ele>1069</ele>
        <time>2026-05-09T12:35:26.684Z</time>
      </trkpt>
      <trkpt lat="47.9267" lon="6.92321">
        <ele>1070</ele>
        <time>2026-05-09T12:35:27.684Z</time>
      </trkpt>
      <trkpt lat="47.9267" lon="6.92322">
        <ele>1070</ele>
        <time>2026-05-09T12:35:28.684Z</time>
      </trkpt>
      <trkpt lat="47.92671" lon="6.92323">
        <ele>1070</ele>
        <time>2026-05-09T12:35:29.685Z</time>
      </trkpt>
      <trkpt lat="47.92671" lon="6.92323">
        <ele>1070</ele>
        <time>2026-05-09T12:35:30.685Z</time>
      </trkpt>
      <trkpt lat="47.92671" lon="6.92323">
        <ele>1070</ele>
        <time>2026-05-09T12:35:31.685Z</time>
      </trkpt>
      <trkpt lat="47.92672" lon="6.92324">
        <ele>1070</ele>
        <time>2026-05-09T12:35:32.684Z</time>
      </trkpt>
      <trkpt lat="47.92672" lon="6.92324">
        <ele>1070</ele>
        <time>2026-05-09T12:35:33.685Z</time>
      </trkpt>
      <trkpt lat="47.92672" lon="6.92324">
        <ele>1070</ele>
        <time>2026-05-09T12:35:34.685Z</time>
      </trkpt>
      <trkpt lat="47.92673" lon="6.92325">
        <ele>1069</ele>
        <time>2026-05-09T12:35:42.869Z</time>
      </trkpt>
      <trkpt lat="47.92673" lon="6.92325">
        <ele>1069</ele>
        <time>2026-05-09T12:35:43.869Z</time>
      </trkpt>
      <trkpt lat="47.92674" lon="6.92325">
        <ele>1069</ele>
        <time>2026-05-09T12:35:44.868Z</time>
      </trkpt>
      <trkpt lat="47.92674" lon="6.92325">
        <ele>1068</ele>
        <time>2026-05-09T12:35:45.868Z</time>
      </trkpt>
      <trkpt lat="47.92674" lon="6.92325">
        <ele>1068</ele>
        <time>2026-05-09T12:35:46.868Z</time>
      </trkpt>
      <trkpt lat="47.92674" lon="6.92325">
        <ele>1068</ele>
        <time>2026-05-09T12:35:47.868Z</time>
      </trkpt>
      <trkpt lat="47.92674" lon="6.92326">
        <ele>1067</ele>
        <time>2026-05-09T12:35:55.170Z</time>
      </trkpt>
      <trkpt lat="47.92674" lon="6.92326">
        <ele>1066</ele>
        <time>2026-05-09T12:35:56.170Z</time>
      </trkpt>
      <trkpt lat="47.92674" lon="6.92326">
        <ele>1067</ele>
        <time>2026-05-09T12:35:57.169Z</time>
      </trkpt>
      <trkpt lat="47.92674" lon="6.92326">
        <ele>1067</ele>
        <time>2026-05-09T12:35:58.170Z</time>
      </trkpt>
      <trkpt lat="47.92675" lon="6.92327">
        <ele>1067</ele>
        <time>2026-05-09T12:35:59.169Z</time>
      </trkpt>
      <trkpt lat="47.92675" lon="6.92327">
        <ele>1067</ele>
        <time>2026-05-09T12:36:00.170Z</time>
      </trkpt>
      <trkpt lat="47.92675" lon="6.92327">
        <ele>1066</ele>
        <time>2026-05-09T12:36:01.170Z</time>
      </trkpt>
      <trkpt lat="47.92675" lon="6.92327">
        <ele>1066</ele>
        <time>2026-05-09T12:36:02.170Z</time>
      </trkpt>
      <trkpt lat="47.92675" lon="6.92327">
        <ele>1066</ele>
        <time>2026-05-09T12:36:03.170Z</time>
      </trkpt>
      <trkpt lat="47.92675" lon="6.92327">
        <ele>1066</ele>
        <time>2026-05-09T12:36:04.169Z</time>
      </trkpt>
      <trkpt lat="47.92675" lon="6.92327">
        <ele>1066</ele>
        <time>2026-05-09T12:36:05.170Z</time>
      </trkpt>
      <trkpt lat="47.92675" lon="6.92327">
        <ele>1066</ele>
        <time>2026-05-09T12:36:06.169Z</time>
      </trkpt>
      <trkpt lat="47.92675" lon="6.92327">
        <ele>1066</ele>
        <time>2026-05-09T12:36:07.170Z</time>
      </trkpt>
      <trkpt lat="47.92675" lon="6.92326">
        <ele>1067</ele>
        <time>2026-05-09T12:36:08.169Z</time>
      </trkpt>
      <trkpt lat="47.92676" lon="6.92326">
        <ele>1067</ele>
        <time>2026-05-09T12:36:09.169Z</time>
      </trkpt>
      <trkpt lat="47.92676" lon="6.92326">
        <ele>1068</ele>
        <time>2026-05-09T12:36:10.169Z</time>
      </trkpt>
      <trkpt lat="47.92677" lon="6.92326">
        <ele>1068</ele>
        <time>2026-05-09T12:36:11.170Z</time>
      </trkpt>
      <trkpt lat="47.92677" lon="6.92326">
        <ele>1069</ele>
        <time>2026-05-09T12:36:12.169Z</time>
      </trkpt>
      <trkpt lat="47.92678" lon="6.92326">
        <ele>1069</ele>
        <time>2026-05-09T12:36:13.170Z</time>
      </trkpt>
      <trkpt lat="47.92679" lon="6.92326">
        <ele>1069</ele>
        <time>2026-05-09T12:36:14.169Z</time>
      </trkpt>
      <trkpt lat="47.92679" lon="6.92325">
        <ele>1070</ele>
        <time>2026-05-09T12:36:15.170Z</time>
      </trkpt>
      <trkpt lat="47.9268" lon="6.92325">
        <ele>1070</ele>
        <time>2026-05-09T12:36:16.170Z</time>
      </trkpt>
      <trkpt lat="47.9268" lon="6.92325">
        <ele>1070</ele>
        <time>2026-05-09T12:36:17.169Z</time>
      </trkpt>
      <trkpt lat="47.92681" lon="6.92325">
        <ele>1071</ele>
        <time>2026-05-09T12:36:18.170Z</time>
      </trkpt>
      <trkpt lat="47.92681" lon="6.92324">
        <ele>1071</ele>
        <time>2026-05-09T12:36:19.169Z</time>
      </trkpt>
      <trkpt lat="47.92682" lon="6.92324">
        <ele>1072</ele>
        <time>2026-05-09T12:36:20.170Z</time>
      </trkpt>
      <trkpt lat="47.92682" lon="6.92323">
        <ele>1072</ele>
        <time>2026-05-09T12:36:21.169Z</time>
      </trkpt>
      <trkpt lat="47.92682" lon="6.92323">
        <ele>1072</ele>
        <time>2026-05-09T12:36:22.170Z</time>
      </trkpt>
      <trkpt lat="47.92682" lon="6.92322">
        <ele>1072</ele>
        <time>2026-05-09T12:36:23.169Z</time>
      </trkpt>
      <trkpt lat="47.92682" lon="6.92322">
        <ele>1072</ele>
        <time>2026-05-09T12:36:24.170Z</time>
      </trkpt>
      <trkpt lat="47.92682" lon="6.92321">
        <ele>1072</ele>
        <time>2026-05-09T12:36:25.169Z</time>
      </trkpt>
      <trkpt lat="47.92682" lon="6.9232">
        <ele>1072</ele>
        <time>2026-05-09T12:36:26.170Z</time>
      </trkpt>
      <trkpt lat="47.92683" lon="6.92321">
        <ele>1072</ele>
        <time>2026-05-09T12:36:27.169Z</time>
      </trkpt>
      <trkpt lat="47.92684" lon="6.92321">
        <ele>1072</ele>
        <time>2026-05-09T12:36:28.170Z</time>
      </trkpt>
      <trkpt lat="47.92686" lon="6.92321">
        <ele>1072</ele>
        <time>2026-05-09T12:36:29.170Z</time>
      </trkpt>
      <trkpt lat="47.92686" lon="6.92322">
        <ele>1072</ele>
        <time>2026-05-09T12:36:30.170Z</time>
      </trkpt>
      <trkpt lat="47.92687" lon="6.92322">
        <ele>1073</ele>
        <time>2026-05-09T12:36:31.169Z</time>
      </trkpt>
      <trkpt lat="47.92688" lon="6.92322">
        <ele>1073</ele>
        <time>2026-05-09T12:36:32.170Z</time>
      </trkpt>
      <trkpt lat="47.92689" lon="6.92323">
        <ele>1074</ele>
        <time>2026-05-09T12:36:33.170Z</time>
      </trkpt>
      <trkpt lat="47.9269" lon="6.92323">
        <ele>1074</ele>
        <time>2026-05-09T12:36:34.170Z</time>
      </trkpt>
      <trkpt lat="47.92691" lon="6.92324">
        <ele>1074</ele>
        <time>2026-05-09T12:36:35.170Z</time>
      </trkpt>
      <trkpt lat="47.92692" lon="6.92325">
        <ele>1075</ele>
        <time>2026-05-09T12:36:36.169Z</time>
      </trkpt>
      <trkpt lat="47.92692" lon="6.92326">
        <ele>1075</ele>
        <time>2026-05-09T12:36:37.170Z</time>
      </trkpt>
      <trkpt lat="47.92693" lon="6.92327">
        <ele>1075</ele>
        <time>2026-05-09T12:36:38.169Z</time>
      </trkpt>
      <trkpt lat="47.92694" lon="6.92328">
        <ele>1076</ele>
        <time>2026-05-09T12:36:39.170Z</time>
      </trkpt>
      <trkpt lat="47.92694" lon="6.92329">
        <ele>1076</ele>
        <time>2026-05-09T12:36:40.169Z</time>
      </trkpt>
      <trkpt lat="47.92695" lon="6.9233">
        <ele>1077</ele>
        <time>2026-05-09T12:36:41.170Z</time>
      </trkpt>
      <trkpt lat="47.92696" lon="6.92331">
        <ele>1077</ele>
        <time>2026-05-09T12:36:42.169Z</time>
      </trkpt>
      <trkpt lat="47.92697" lon="6.92333">
        <ele>1078</ele>
        <time>2026-05-09T12:36:43.169Z</time>
      </trkpt>
      <trkpt lat="47.92697" lon="6.92334">
        <ele>1078</ele>
        <time>2026-05-09T12:36:44.169Z</time>
      </trkpt>
      <trkpt lat="47.92698" lon="6.92335">
        <ele>1078</ele>
        <time>2026-05-09T12:36:45.170Z</time>
      </trkpt>
      <trkpt lat="47.92699" lon="6.92335">
        <ele>1078</ele>
        <time>2026-05-09T12:36:46.169Z</time>
      </trkpt>
      <trkpt lat="47.927" lon="6.92336">
        <ele>1078</ele>
        <time>2026-05-09T12:36:47.170Z</time>
      </trkpt>
      <trkpt lat="47.92701" lon="6.92337">
        <ele>1078</ele>
        <time>2026-05-09T12:36:48.170Z</time>
      </trkpt>
      <trkpt lat="47.92702" lon="6.92337">
        <ele>1078</ele>
        <time>2026-05-09T12:36:49.170Z</time>
      </trkpt>
      <trkpt lat="47.92704" lon="6.92338">
        <ele>1078</ele>
        <time>2026-05-09T12:36:50.169Z</time>
      </trkpt>
      <trkpt lat="47.92705" lon="6.92339">
        <ele>1079</ele>
        <time>2026-05-09T12:36:51.169Z</time>
      </trkpt>
      <trkpt lat="47.92705" lon="6.92339">
        <ele>1079</ele>
        <time>2026-05-09T12:36:52.170Z</time>
      </trkpt>
      <trkpt lat="47.92706" lon="6.9234">
        <ele>1079</ele>
        <time>2026-05-09T12:36:53.169Z</time>
      </trkpt>
      <trkpt lat="47.92706" lon="6.92341">
        <ele>1080</ele>
        <time>2026-05-09T12:36:54.170Z</time>
      </trkpt>
      <trkpt lat="47.92707" lon="6.92341">
        <ele>1080</ele>
        <time>2026-05-09T12:36:55.169Z</time>
      </trkpt>
      <trkpt lat="47.92708" lon="6.9234">
        <ele>1081</ele>
        <time>2026-05-09T12:36:56.170Z</time>
      </trkpt>
      <trkpt lat="47.92709" lon="6.9234">
        <ele>1082</ele>
        <time>2026-05-09T12:36:57.169Z</time>
      </trkpt>
      <trkpt lat="47.92709" lon="6.9234">
        <ele>1082</ele>
        <time>2026-05-09T12:36:58.170Z</time>
      </trkpt>
      <trkpt lat="47.9271" lon="6.9234">
        <ele>1083</ele>
        <time>2026-05-09T12:36:59.169Z</time>
      </trkpt>
      <trkpt lat="47.9271" lon="6.9234">
        <ele>1083</ele>
        <time>2026-05-09T12:37:00.170Z</time>
      </trkpt>
      <trkpt lat="47.92711" lon="6.92341">
        <ele>1083</ele>
        <time>2026-05-09T12:37:01.169Z</time>
      </trkpt>
      <trkpt lat="47.92711" lon="6.92341">
        <ele>1084</ele>
        <time>2026-05-09T12:37:02.170Z</time>
      </trkpt>
      <trkpt lat="47.92711" lon="6.92342">
        <ele>1084</ele>
        <time>2026-05-09T12:37:03.169Z</time>
      </trkpt>
      <trkpt lat="47.92712" lon="6.92342">
        <ele>1084</ele>
        <time>2026-05-09T12:37:04.170Z</time>
      </trkpt>
      <trkpt lat="47.92713" lon="6.92343">
        <ele>1084</ele>
        <time>2026-05-09T12:37:05.170Z</time>
      </trkpt>
      <trkpt lat="47.92714" lon="6.92344">
        <ele>1084</ele>
        <time>2026-05-09T12:37:06.169Z</time>
      </trkpt>
      <trkpt lat="47.92714" lon="6.92344">
        <ele>1084</ele>
        <time>2026-05-09T12:37:07.170Z</time>
      </trkpt>
      <trkpt lat="47.92715" lon="6.92345">
        <ele>1084</ele>
        <time>2026-05-09T12:37:08.169Z</time>
      </trkpt>
      <trkpt lat="47.92716" lon="6.92345">
        <ele>1083</ele>
        <time>2026-05-09T12:37:09.170Z</time>
      </trkpt>
      <trkpt lat="47.92716" lon="6.92345">
        <ele>1083</ele>
        <time>2026-05-09T12:37:10.169Z</time>
      </trkpt>
      <trkpt lat="47.92718" lon="6.92346">
        <ele>1083</ele>
        <time>2026-05-09T12:37:11.170Z</time>
      </trkpt>
      <trkpt lat="47.92718" lon="6.92347">
        <ele>1083</ele>
        <time>2026-05-09T12:37:12.169Z</time>
      </trkpt>
      <trkpt lat="47.92718" lon="6.92347">
        <ele>1083</ele>
        <time>2026-05-09T12:37:13.170Z</time>
      </trkpt>
      <trkpt lat="47.92718" lon="6.92348">
        <ele>1082</ele>
        <time>2026-05-09T12:37:14.169Z</time>
      </trkpt>
      <trkpt lat="47.92718" lon="6.92348">
        <ele>1082</ele>
        <time>2026-05-09T12:37:15.170Z</time>
      </trkpt>
      <trkpt lat="47.92718" lon="6.92349">
        <ele>1082</ele>
        <time>2026-05-09T12:37:16.169Z</time>
      </trkpt>
      <trkpt lat="47.92718" lon="6.92349">
        <ele>1082</ele>
        <time>2026-05-09T12:37:17.169Z</time>
      </trkpt>
      <trkpt lat="47.92719" lon="6.9235">
        <ele>1081</ele>
        <time>2026-05-09T12:37:18.169Z</time>
      </trkpt>
      <trkpt lat="47.9272" lon="6.92351">
        <ele>1081</ele>
        <time>2026-05-09T12:37:19.169Z</time>
      </trkpt>
      <trkpt lat="47.92721" lon="6.92352">
        <ele>1081</ele>
        <time>2026-05-09T12:37:20.169Z</time>
      </trkpt>
      <trkpt lat="47.92723" lon="6.92353">
        <ele>1081</ele>
        <time>2026-05-09T12:37:21.170Z</time>
      </trkpt>
      <trkpt lat="47.92724" lon="6.92355">
        <ele>1081</ele>
        <time>2026-05-09T12:37:22.170Z</time>
      </trkpt>
      <trkpt lat="47.92725" lon="6.92355">
        <ele>1081</ele>
        <time>2026-05-09T12:37:23.170Z</time>
      </trkpt>
      <trkpt lat="47.92726" lon="6.92356">
        <ele>1082</ele>
        <time>2026-05-09T12:37:24.170Z</time>
      </trkpt>
      <trkpt lat="47.92726" lon="6.92357">
        <ele>1082</ele>
        <time>2026-05-09T12:37:25.169Z</time>
      </trkpt>
      <trkpt lat="47.92726" lon="6.92358">
        <ele>1083</ele>
        <time>2026-05-09T12:37:26.170Z</time>
      </trkpt>
      <trkpt lat="47.92727" lon="6.9236">
        <ele>1083</ele>
        <time>2026-05-09T12:37:27.169Z</time>
      </trkpt>
      <trkpt lat="47.92728" lon="6.92361">
        <ele>1084</ele>
        <time>2026-05-09T12:37:28.170Z</time>
      </trkpt>
      <trkpt lat="47.92729" lon="6.92363">
        <ele>1085</ele>
        <time>2026-05-09T12:37:29.169Z</time>
      </trkpt>
      <trkpt lat="47.9273" lon="6.92364">
        <ele>1085</ele>
        <time>2026-05-09T12:37:30.170Z</time>
      </trkpt>
      <trkpt lat="47.9273" lon="6.92366">
        <ele>1085</ele>
        <time>2026-05-09T12:37:31.169Z</time>
      </trkpt>
      <trkpt lat="47.92731" lon="6.92367">
        <ele>1086</ele>
        <time>2026-05-09T12:37:32.170Z</time>
      </trkpt>
      <trkpt lat="47.92731" lon="6.92368">
        <ele>1086</ele>
        <time>2026-05-09T12:37:33.169Z</time>
      </trkpt>
      <trkpt lat="47.92732" lon="6.92369">
        <ele>1086</ele>
        <time>2026-05-09T12:37:34.170Z</time>
      </trkpt>
      <trkpt lat="47.92733" lon="6.9237">
        <ele>1087</ele>
        <time>2026-05-09T12:37:35.169Z</time>
      </trkpt>
      <trkpt lat="47.92733" lon="6.9237">
        <ele>1087</ele>
        <time>2026-05-09T12:37:36.170Z</time>
      </trkpt>
      <trkpt lat="47.92733" lon="6.9237">
        <ele>1087</ele>
        <time>2026-05-09T12:37:37.170Z</time>
      </trkpt>
      <trkpt lat="47.92734" lon="6.92371">
        <ele>1087</ele>
        <time>2026-05-09T12:37:38.170Z</time>
      </trkpt>
      <trkpt lat="47.92734" lon="6.92371">
        <ele>1087</ele>
        <time>2026-05-09T12:37:39.170Z</time>
      </trkpt>
      <trkpt lat="47.92735" lon="6.92371">
        <ele>1088</ele>
        <time>2026-05-09T12:37:40.169Z</time>
      </trkpt>
      <trkpt lat="47.92734" lon="6.92372">
        <ele>1089</ele>
        <time>2026-05-09T12:37:41.170Z</time>
      </trkpt>
      <trkpt lat="47.92735" lon="6.92373">
        <ele>1090</ele>
        <time>2026-05-09T12:37:42.170Z</time>
      </trkpt>
      <trkpt lat="47.92735" lon="6.92373">
        <ele>1090</ele>
        <time>2026-05-09T12:37:43.169Z</time>
      </trkpt>
      <trkpt lat="47.92735" lon="6.92374">
        <ele>1091</ele>
        <time>2026-05-09T12:37:44.169Z</time>
      </trkpt>
      <trkpt lat="47.92736" lon="6.92376">
        <ele>1092</ele>
        <time>2026-05-09T12:37:45.170Z</time>
      </trkpt>
      <trkpt lat="47.92736" lon="6.92377">
        <ele>1093</ele>
        <time>2026-05-09T12:37:46.169Z</time>
      </trkpt>
      <trkpt lat="47.92737" lon="6.92378">
        <ele>1093</ele>
        <time>2026-05-09T12:37:47.170Z</time>
      </trkpt>
      <trkpt lat="47.92737" lon="6.92379">
        <ele>1093</ele>
        <time>2026-05-09T12:37:48.169Z</time>
      </trkpt>
      <trkpt lat="47.92737" lon="6.92379">
        <ele>1093</ele>
        <time>2026-05-09T12:37:49.170Z</time>
      </trkpt>
      <trkpt lat="47.92737" lon="6.9238">
        <ele>1093</ele>
        <time>2026-05-09T12:37:50.169Z</time>
      </trkpt>
      <trkpt lat="47.92738" lon="6.92381">
        <ele>1094</ele>
        <time>2026-05-09T12:37:51.169Z</time>
      </trkpt>
      <trkpt lat="47.92739" lon="6.92381">
        <ele>1094</ele>
        <time>2026-05-09T12:37:52.170Z</time>
      </trkpt>
      <trkpt lat="47.9274" lon="6.92382">
        <ele>1094</ele>
        <time>2026-05-09T12:37:53.170Z</time>
      </trkpt>
      <trkpt lat="47.9274" lon="6.92382">
        <ele>1094</ele>
        <time>2026-05-09T12:37:54.170Z</time>
      </trkpt>
      <trkpt lat="47.92741" lon="6.92382">
        <ele>1094</ele>
        <time>2026-05-09T12:37:55.170Z</time>
      </trkpt>
      <trkpt lat="47.92742" lon="6.92382">
        <ele>1094</ele>
        <time>2026-05-09T12:37:56.170Z</time>
      </trkpt>
      <trkpt lat="47.92743" lon="6.92383">
        <ele>1095</ele>
        <time>2026-05-09T12:37:57.169Z</time>
      </trkpt>
      <trkpt lat="47.92745" lon="6.92384">
        <ele>1096</ele>
        <time>2026-05-09T12:37:58.170Z</time>
      </trkpt>
      <trkpt lat="47.92746" lon="6.92386">
        <ele>1096</ele>
        <time>2026-05-09T12:37:59.169Z</time>
      </trkpt>
      <trkpt lat="47.92747" lon="6.92386">
        <ele>1097</ele>
        <time>2026-05-09T12:38:00.170Z</time>
      </trkpt>
      <trkpt lat="47.92747" lon="6.92387">
        <ele>1097</ele>
        <time>2026-05-09T12:38:01.169Z</time>
      </trkpt>
      <trkpt lat="47.92748" lon="6.92387">
        <ele>1098</ele>
        <time>2026-05-09T12:38:02.170Z</time>
      </trkpt>
      <trkpt lat="47.92748" lon="6.92388">
        <ele>1098</ele>
        <time>2026-05-09T12:38:03.169Z</time>
      </trkpt>
      <trkpt lat="47.92749" lon="6.92388">
        <ele>1098</ele>
        <time>2026-05-09T12:38:04.169Z</time>
      </trkpt>
      <trkpt lat="47.9275" lon="6.92389">
        <ele>1098</ele>
        <time>2026-05-09T12:38:05.170Z</time>
      </trkpt>
      <trkpt lat="47.92751" lon="6.9239">
        <ele>1098</ele>
        <time>2026-05-09T12:38:06.169Z</time>
      </trkpt>
      <trkpt lat="47.92752" lon="6.92391">
        <ele>1098</ele>
        <time>2026-05-09T12:38:07.170Z</time>
      </trkpt>
      <trkpt lat="47.92752" lon="6.92391">
        <ele>1099</ele>
        <time>2026-05-09T12:38:08.170Z</time>
      </trkpt>
      <trkpt lat="47.92752" lon="6.92392">
        <ele>1099</ele>
        <time>2026-05-09T12:38:09.170Z</time>
      </trkpt>
      <trkpt lat="47.92753" lon="6.92393">
        <ele>1099</ele>
        <time>2026-05-09T12:38:10.170Z</time>
      </trkpt>
      <trkpt lat="47.92753" lon="6.92393">
        <ele>1100</ele>
        <time>2026-05-09T12:38:11.170Z</time>
      </trkpt>
      <trkpt lat="47.92753" lon="6.92394">
        <ele>1100</ele>
        <time>2026-05-09T12:38:12.170Z</time>
      </trkpt>
      <trkpt lat="47.92754" lon="6.92394">
        <ele>1099</ele>
        <time>2026-05-09T12:38:13.169Z</time>
      </trkpt>
      <trkpt lat="47.92754" lon="6.92395">
        <ele>1100</ele>
        <time>2026-05-09T12:38:14.170Z</time>
      </trkpt>
      <trkpt lat="47.92755" lon="6.92395">
        <ele>1100</ele>
        <time>2026-05-09T12:38:15.169Z</time>
      </trkpt>
      <trkpt lat="47.92755" lon="6.92395">
        <ele>1100</ele>
        <time>2026-05-09T12:38:16.170Z</time>
      </trkpt>
      <trkpt lat="47.92756" lon="6.92396">
        <ele>1100</ele>
        <time>2026-05-09T12:38:17.170Z</time>
      </trkpt>
      <trkpt lat="47.92756" lon="6.92396">
        <ele>1100</ele>
        <time>2026-05-09T12:38:18.170Z</time>
      </trkpt>
      <trkpt lat="47.92755" lon="6.92396">
        <ele>1100</ele>
        <time>2026-05-09T12:38:19.169Z</time>
      </trkpt>
      <trkpt lat="47.92755" lon="6.92397">
        <ele>1100</ele>
        <time>2026-05-09T12:38:20.170Z</time>
      </trkpt>
      <trkpt lat="47.92757" lon="6.92398">
        <ele>1101</ele>
        <time>2026-05-09T12:38:21.170Z</time>
      </trkpt>
      <trkpt lat="47.92758" lon="6.92399">
        <ele>1101</ele>
        <time>2026-05-09T12:38:22.170Z</time>
      </trkpt>
      <trkpt lat="47.92757" lon="6.924">
        <ele>1101</ele>
        <time>2026-05-09T12:38:23.170Z</time>
      </trkpt>
      <trkpt lat="47.92758" lon="6.924">
        <ele>1102</ele>
        <time>2026-05-09T12:38:24.169Z</time>
      </trkpt>
      <trkpt lat="47.92758" lon="6.92401">
        <ele>1102</ele>
        <time>2026-05-09T12:38:25.169Z</time>
      </trkpt>
      <trkpt lat="47.92759" lon="6.92401">
        <ele>1103</ele>
        <time>2026-05-09T12:38:26.170Z</time>
      </trkpt>
      <trkpt lat="47.9276" lon="6.92402">
        <ele>1103</ele>
        <time>2026-05-09T12:38:27.169Z</time>
      </trkpt>
      <trkpt lat="47.92761" lon="6.92404">
        <ele>1104</ele>
        <time>2026-05-09T12:38:28.170Z</time>
      </trkpt>
      <trkpt lat="47.92762" lon="6.92406">
        <ele>1104</ele>
        <time>2026-05-09T12:38:29.169Z</time>
      </trkpt>
      <trkpt lat="47.92763" lon="6.92407">
        <ele>1105</ele>
        <time>2026-05-09T12:38:30.170Z</time>
      </trkpt>
      <trkpt lat="47.92764" lon="6.92407">
        <ele>1106</ele>
        <time>2026-05-09T12:38:31.170Z</time>
      </trkpt>
      <trkpt lat="47.92764" lon="6.92408">
        <ele>1106</ele>
        <time>2026-05-09T12:38:32.169Z</time>
      </trkpt>
      <trkpt lat="47.92764" lon="6.92408">
        <ele>1107</ele>
        <time>2026-05-09T12:38:33.170Z</time>
      </trkpt>
      <trkpt lat="47.92764" lon="6.92409">
        <ele>1107</ele>
        <time>2026-05-09T12:38:34.169Z</time>
      </trkpt>
      <trkpt lat="47.92763" lon="6.92409">
        <ele>1108</ele>
        <time>2026-05-09T12:38:35.170Z</time>
      </trkpt>
      <trkpt lat="47.92763" lon="6.9241">
        <ele>1108</ele>
        <time>2026-05-09T12:38:36.169Z</time>
      </trkpt>
      <trkpt lat="47.92764" lon="6.92411">
        <ele>1109</ele>
        <time>2026-05-09T12:38:37.170Z</time>
      </trkpt>
      <trkpt lat="47.92766" lon="6.92412">
        <ele>1109</ele>
        <time>2026-05-09T12:38:38.169Z</time>
      </trkpt>
      <trkpt lat="47.92767" lon="6.92413">
        <ele>1109</ele>
        <time>2026-05-09T12:38:39.170Z</time>
      </trkpt>
      <trkpt lat="47.92768" lon="6.92414">
        <ele>1110</ele>
        <time>2026-05-09T12:38:40.170Z</time>
      </trkpt>
      <trkpt lat="47.92769" lon="6.92414">
        <ele>1110</ele>
        <time>2026-05-09T12:38:41.169Z</time>
      </trkpt>
      <trkpt lat="47.9277" lon="6.92414">
        <ele>1111</ele>
        <time>2026-05-09T12:38:42.170Z</time>
      </trkpt>
      <trkpt lat="47.9277" lon="6.92415">
        <ele>1111</ele>
        <time>2026-05-09T12:38:43.170Z</time>
      </trkpt>
      <trkpt lat="47.92771" lon="6.92416">
        <ele>1111</ele>
        <time>2026-05-09T12:38:44.170Z</time>
      </trkpt>
      <trkpt lat="47.92772" lon="6.92417">
        <ele>1111</ele>
        <time>2026-05-09T12:38:45.169Z</time>
      </trkpt>
      <trkpt lat="47.92773" lon="6.92418">
        <ele>1111</ele>
        <time>2026-05-09T12:38:46.170Z</time>
      </trkpt>
      <trkpt lat="47.92773" lon="6.92419">
        <ele>1110</ele>
        <time>2026-05-09T12:38:47.169Z</time>
      </trkpt>
      <trkpt lat="47.92773" lon="6.9242">
        <ele>1109</ele>
        <time>2026-05-09T12:38:48.170Z</time>
      </trkpt>
      <trkpt lat="47.92774" lon="6.92421">
        <ele>1109</ele>
        <time>2026-05-09T12:38:49.169Z</time>
      </trkpt>
      <trkpt lat="47.92774" lon="6.92421">
        <ele>1109</ele>
        <time>2026-05-09T12:38:50.170Z</time>
      </trkpt>
      <trkpt lat="47.92776" lon="6.92422">
        <ele>1109</ele>
        <time>2026-05-09T12:38:51.170Z</time>
      </trkpt>
      <trkpt lat="47.92778" lon="6.92422">
        <ele>1109</ele>
        <time>2026-05-09T12:38:52.169Z</time>
      </trkpt>
      <trkpt lat="47.92779" lon="6.92423">
        <ele>1109</ele>
        <time>2026-05-09T12:38:53.169Z</time>
      </trkpt>
      <trkpt lat="47.92781" lon="6.92424">
        <ele>1109</ele>
        <time>2026-05-09T12:38:54.170Z</time>
      </trkpt>
      <trkpt lat="47.92783" lon="6.92424">
        <ele>1109</ele>
        <time>2026-05-09T12:38:55.169Z</time>
      </trkpt>
      <trkpt lat="47.92784" lon="6.92424">
        <ele>1109</ele>
        <time>2026-05-09T12:38:56.170Z</time>
      </trkpt>
      <trkpt lat="47.92785" lon="6.92425">
        <ele>1110</ele>
        <time>2026-05-09T12:38:57.169Z</time>
      </trkpt>
      <trkpt lat="47.92786" lon="6.92425">
        <ele>1110</ele>
        <time>2026-05-09T12:38:58.170Z</time>
      </trkpt>
      <trkpt lat="47.92787" lon="6.92424">
        <ele>1110</ele>
        <time>2026-05-09T12:38:59.169Z</time>
      </trkpt>
      <trkpt lat="47.92787" lon="6.92425">
        <ele>1110</ele>
        <time>2026-05-09T12:39:00.170Z</time>
      </trkpt>
      <trkpt lat="47.92788" lon="6.92425">
        <ele>1110</ele>
        <time>2026-05-09T12:39:01.169Z</time>
      </trkpt>
      <trkpt lat="47.92789" lon="6.92425">
        <ele>1111</ele>
        <time>2026-05-09T12:39:02.170Z</time>
      </trkpt>
      <trkpt lat="47.9279" lon="6.92425">
        <ele>1111</ele>
        <time>2026-05-09T12:39:03.170Z</time>
      </trkpt>
      <trkpt lat="47.92792" lon="6.92426">
        <ele>1111</ele>
        <time>2026-05-09T12:39:04.170Z</time>
      </trkpt>
      <trkpt lat="47.92794" lon="6.92427">
        <ele>1111</ele>
        <time>2026-05-09T12:39:05.169Z</time>
      </trkpt>
      <trkpt lat="47.92796" lon="6.92428">
        <ele>1111</ele>
        <time>2026-05-09T12:39:06.170Z</time>
      </trkpt>
      <trkpt lat="47.92798" lon="6.92429">
        <ele>1111</ele>
        <time>2026-05-09T12:39:07.170Z</time>
      </trkpt>
      <trkpt lat="47.928" lon="6.9243">
        <ele>1111</ele>
        <time>2026-05-09T12:39:08.170Z</time>
      </trkpt>
      <trkpt lat="47.92801" lon="6.92431">
        <ele>1111</ele>
        <time>2026-05-09T12:39:09.169Z</time>
      </trkpt>
      <trkpt lat="47.92803" lon="6.92432">
        <ele>1111</ele>
        <time>2026-05-09T12:39:10.170Z</time>
      </trkpt>
      <trkpt lat="47.92805" lon="6.92433">
        <ele>1110</ele>
        <time>2026-05-09T12:39:11.170Z</time>
      </trkpt>
      <trkpt lat="47.92807" lon="6.92434">
        <ele>1110</ele>
        <time>2026-05-09T12:39:12.169Z</time>
      </trkpt>
      <trkpt lat="47.92808" lon="6.92435">
        <ele>1110</ele>
        <time>2026-05-09T12:39:13.170Z</time>
      </trkpt>
      <trkpt lat="47.92811" lon="6.92436">
        <ele>1110</ele>
        <time>2026-05-09T12:39:14.169Z</time>
      </trkpt>
      <trkpt lat="47.92813" lon="6.92437">
        <ele>1110</ele>
        <time>2026-05-09T12:39:15.170Z</time>
      </trkpt>
      <trkpt lat="47.92814" lon="6.92438">
        <ele>1110</ele>
        <time>2026-05-09T12:39:16.169Z</time>
      </trkpt>
      <trkpt lat="47.92815" lon="6.92439">
        <ele>1110</ele>
        <time>2026-05-09T12:39:17.170Z</time>
      </trkpt>
      <trkpt lat="47.92815" lon="6.9244">
        <ele>1110</ele>
        <time>2026-05-09T12:39:18.170Z</time>
      </trkpt>
      <trkpt lat="47.92816" lon="6.92441">
        <ele>1110</ele>
        <time>2026-05-09T12:39:19.169Z</time>
      </trkpt>
      <trkpt lat="47.92817" lon="6.92442">
        <ele>1110</ele>
        <time>2026-05-09T12:39:20.170Z</time>
      </trkpt>
      <trkpt lat="47.92818" lon="6.92443">
        <ele>1110</ele>
        <time>2026-05-09T12:39:21.169Z</time>
      </trkpt>
      <trkpt lat="47.92819" lon="6.92443">
        <ele>1110</ele>
        <time>2026-05-09T12:39:22.169Z</time>
      </trkpt>
      <trkpt lat="47.9282" lon="6.92444">
        <ele>1110</ele>
        <time>2026-05-09T12:39:23.170Z</time>
      </trkpt>
      <trkpt lat="47.92821" lon="6.92444">
        <ele>1110</ele>
        <time>2026-05-09T12:39:24.170Z</time>
      </trkpt>
      <trkpt lat="47.92823" lon="6.92445">
        <ele>1110</ele>
        <time>2026-05-09T12:39:25.170Z</time>
      </trkpt>
      <trkpt lat="47.92823" lon="6.92446">
        <ele>1111</ele>
        <time>2026-05-09T12:39:26.169Z</time>
      </trkpt>
      <trkpt lat="47.92825" lon="6.92446">
        <ele>1111</ele>
        <time>2026-05-09T12:39:27.170Z</time>
      </trkpt>
      <trkpt lat="47.92826" lon="6.92446">
        <ele>1111</ele>
        <time>2026-05-09T12:39:28.169Z</time>
      </trkpt>
      <trkpt lat="47.92827" lon="6.92447">
        <ele>1112</ele>
        <time>2026-05-09T12:39:29.170Z</time>
      </trkpt>
      <trkpt lat="47.92828" lon="6.92447">
        <ele>1112</ele>
        <time>2026-05-09T12:39:30.169Z</time>
      </trkpt>
      <trkpt lat="47.92829" lon="6.92448">
        <ele>1113</ele>
        <time>2026-05-09T12:39:31.169Z</time>
      </trkpt>
      <trkpt lat="47.92831" lon="6.92449">
        <ele>1114</ele>
        <time>2026-05-09T12:39:32.170Z</time>
      </trkpt>
      <trkpt lat="47.92832" lon="6.92449">
        <ele>1115</ele>
        <time>2026-05-09T12:39:33.170Z</time>
      </trkpt>
      <trkpt lat="47.92834" lon="6.92449">
        <ele>1115</ele>
        <time>2026-05-09T12:39:34.170Z</time>
      </trkpt>
      <trkpt lat="47.92835" lon="6.9245">
        <ele>1116</ele>
        <time>2026-05-09T12:39:35.169Z</time>
      </trkpt>
      <trkpt lat="47.92836" lon="6.9245">
        <ele>1116</ele>
        <time>2026-05-09T12:39:36.170Z</time>
      </trkpt>
      <trkpt lat="47.92837" lon="6.9245">
        <ele>1117</ele>
        <time>2026-05-09T12:39:37.169Z</time>
      </trkpt>
      <trkpt lat="47.92838" lon="6.9245">
        <ele>1117</ele>
        <time>2026-05-09T12:39:38.170Z</time>
      </trkpt>
      <trkpt lat="47.92839" lon="6.9245">
        <ele>1118</ele>
        <time>2026-05-09T12:39:39.169Z</time>
      </trkpt>
      <trkpt lat="47.92842" lon="6.9245">
        <ele>1118</ele>
        <time>2026-05-09T12:39:40.170Z</time>
      </trkpt>
      <trkpt lat="47.92844" lon="6.92451">
        <ele>1119</ele>
        <time>2026-05-09T12:39:41.170Z</time>
      </trkpt>
      <trkpt lat="47.92845" lon="6.92452">
        <ele>1119</ele>
        <time>2026-05-09T12:39:42.169Z</time>
      </trkpt>
      <trkpt lat="47.92846" lon="6.92452">
        <ele>1120</ele>
        <time>2026-05-09T12:39:43.170Z</time>
      </trkpt>
      <trkpt lat="47.92847" lon="6.92452">
        <ele>1120</ele>
        <time>2026-05-09T12:39:44.169Z</time>
      </trkpt>
      <trkpt lat="47.92848" lon="6.92452">
        <ele>1120</ele>
        <time>2026-05-09T12:39:45.170Z</time>
      </trkpt>
      <trkpt lat="47.92849" lon="6.92452">
        <ele>1120</ele>
        <time>2026-05-09T12:39:46.169Z</time>
      </trkpt>
      <trkpt lat="47.92851" lon="6.92452">
        <ele>1120</ele>
        <time>2026-05-09T12:39:47.170Z</time>
      </trkpt>
      <trkpt lat="47.92852" lon="6.92452">
        <ele>1121</ele>
        <time>2026-05-09T12:39:48.170Z</time>
      </trkpt>
      <trkpt lat="47.92853" lon="6.92452">
        <ele>1121</ele>
        <time>2026-05-09T12:39:49.170Z</time>
      </trkpt>
      <trkpt lat="47.92853" lon="6.92453">
        <ele>1120</ele>
        <time>2026-05-09T12:39:50.169Z</time>
      </trkpt>
      <trkpt lat="47.92853" lon="6.92453">
        <ele>1120</ele>
        <time>2026-05-09T12:39:51.169Z</time>
      </trkpt>
      <trkpt lat="47.92854" lon="6.92454">
        <ele>1120</ele>
        <time>2026-05-09T12:39:52.170Z</time>
      </trkpt>
      <trkpt lat="47.92855" lon="6.92454">
        <ele>1120</ele>
        <time>2026-05-09T12:39:53.169Z</time>
      </trkpt>
      <trkpt lat="47.92856" lon="6.92455">
        <ele>1120</ele>
        <time>2026-05-09T12:39:54.170Z</time>
      </trkpt>
      <trkpt lat="47.92856" lon="6.92455">
        <ele>1121</ele>
        <time>2026-05-09T12:39:55.169Z</time>
      </trkpt>
      <trkpt lat="47.92856" lon="6.92455">
        <ele>1121</ele>
        <time>2026-05-09T12:39:56.170Z</time>
      </trkpt>
      <trkpt lat="47.92857" lon="6.92455">
        <ele>1121</ele>
        <time>2026-05-09T12:39:57.170Z</time>
      </trkpt>
      <trkpt lat="47.92858" lon="6.92455">
        <ele>1121</ele>
        <time>2026-05-09T12:39:58.169Z</time>
      </trkpt>
      <trkpt lat="47.92858" lon="6.92456">
        <ele>1121</ele>
        <time>2026-05-09T12:39:59.170Z</time>
      </trkpt>
      <trkpt lat="47.92859" lon="6.92456">
        <ele>1121</ele>
        <time>2026-05-09T12:40:00.169Z</time>
      </trkpt>
      <trkpt lat="47.9286" lon="6.92456">
        <ele>1122</ele>
        <time>2026-05-09T12:40:01.170Z</time>
      </trkpt>
      <trkpt lat="47.92861" lon="6.92457">
        <ele>1122</ele>
        <time>2026-05-09T12:40:02.170Z</time>
      </trkpt>
      <trkpt lat="47.92862" lon="6.92457">
        <ele>1122</ele>
        <time>2026-05-09T12:40:03.170Z</time>
      </trkpt>
      <trkpt lat="47.92863" lon="6.92458">
        <ele>1123</ele>
        <time>2026-05-09T12:40:04.170Z</time>
      </trkpt>
      <trkpt lat="47.92863" lon="6.92459">
        <ele>1123</ele>
        <time>2026-05-09T12:40:05.169Z</time>
      </trkpt>
      <trkpt lat="47.92863" lon="6.9246">
        <ele>1123</ele>
        <time>2026-05-09T12:40:06.170Z</time>
      </trkpt>
      <trkpt lat="47.92864" lon="6.9246">
        <ele>1123</ele>
        <time>2026-05-09T12:40:07.169Z</time>
      </trkpt>
      <trkpt lat="47.92865" lon="6.92461">
        <ele>1123</ele>
        <time>2026-05-09T12:40:08.170Z</time>
      </trkpt>
      <trkpt lat="47.92866" lon="6.92461">
        <ele>1123</ele>
        <time>2026-05-09T12:40:09.169Z</time>
      </trkpt>
      <trkpt lat="47.92867" lon="6.92461">
        <ele>1124</ele>
        <time>2026-05-09T12:40:10.169Z</time>
      </trkpt>
      <trkpt lat="47.92867" lon="6.92462">
        <ele>1124</ele>
        <time>2026-05-09T12:40:11.170Z</time>
      </trkpt>
      <trkpt lat="47.92868" lon="6.92462">
        <ele>1124</ele>
        <time>2026-05-09T12:40:12.169Z</time>
      </trkpt>
      <trkpt lat="47.92869" lon="6.92463">
        <ele>1124</ele>
        <time>2026-05-09T12:40:13.170Z</time>
      </trkpt>
      <trkpt lat="47.9287" lon="6.92463">
        <ele>1123</ele>
        <time>2026-05-09T12:40:14.169Z</time>
      </trkpt>
      <trkpt lat="47.92871" lon="6.92463">
        <ele>1124</ele>
        <time>2026-05-09T12:40:15.170Z</time>
      </trkpt>
      <trkpt lat="47.92872" lon="6.92464">
        <ele>1124</ele>
        <time>2026-05-09T12:40:16.170Z</time>
      </trkpt>
      <trkpt lat="47.92873" lon="6.92465">
        <ele>1124</ele>
        <time>2026-05-09T12:40:17.170Z</time>
      </trkpt>
      <trkpt lat="47.92874" lon="6.92465">
        <ele>1124</ele>
        <time>2026-05-09T12:40:18.169Z</time>
      </trkpt>
      <trkpt lat="47.92875" lon="6.92466">
        <ele>1124</ele>
        <time>2026-05-09T12:40:19.169Z</time>
      </trkpt>
      <trkpt lat="47.92876" lon="6.92466">
        <ele>1124</ele>
        <time>2026-05-09T12:40:20.170Z</time>
      </trkpt>
      <trkpt lat="47.92877" lon="6.92466">
        <ele>1124</ele>
        <time>2026-05-09T12:40:21.170Z</time>
      </trkpt>
      <trkpt lat="47.92878" lon="6.92467">
        <ele>1124</ele>
        <time>2026-05-09T12:40:22.170Z</time>
      </trkpt>
      <trkpt lat="47.92879" lon="6.92468">
        <ele>1125</ele>
        <time>2026-05-09T12:40:23.169Z</time>
      </trkpt>
      <trkpt lat="47.9288" lon="6.92468">
        <ele>1125</ele>
        <time>2026-05-09T12:40:24.170Z</time>
      </trkpt>
      <trkpt lat="47.92881" lon="6.92469">
        <ele>1125</ele>
        <time>2026-05-09T12:40:25.170Z</time>
      </trkpt>
      <trkpt lat="47.92882" lon="6.92469">
        <ele>1126</ele>
        <time>2026-05-09T12:40:26.169Z</time>
      </trkpt>
      <trkpt lat="47.92882" lon="6.92469">
        <ele>1126</ele>
        <time>2026-05-09T12:40:27.170Z</time>
      </trkpt>
      <trkpt lat="47.92883" lon="6.9247">
        <ele>1126</ele>
        <time>2026-05-09T12:40:28.169Z</time>
      </trkpt>
      <trkpt lat="47.92884" lon="6.92471">
        <ele>1126</ele>
        <time>2026-05-09T12:40:29.170Z</time>
      </trkpt>
      <trkpt lat="47.92885" lon="6.92472">
        <ele>1126</ele>
        <time>2026-05-09T12:40:30.170Z</time>
      </trkpt>
      <trkpt lat="47.92886" lon="6.92473">
        <ele>1127</ele>
        <time>2026-05-09T12:40:31.169Z</time>
      </trkpt>
      <trkpt lat="47.92887" lon="6.92474">
        <ele>1127</ele>
        <time>2026-05-09T12:40:32.170Z</time>
      </trkpt>
      <trkpt lat="47.92888" lon="6.92475">
        <ele>1127</ele>
        <time>2026-05-09T12:40:33.169Z</time>
      </trkpt>
      <trkpt lat="47.92889" lon="6.92476">
        <ele>1128</ele>
        <time>2026-05-09T12:40:34.170Z</time>
      </trkpt>
      <trkpt lat="47.9289" lon="6.92477">
        <ele>1128</ele>
        <time>2026-05-09T12:40:35.169Z</time>
      </trkpt>
      <trkpt lat="47.92891" lon="6.92478">
        <ele>1129</ele>
        <time>2026-05-09T12:40:36.170Z</time>
      </trkpt>
      <trkpt lat="47.92892" lon="6.92479">
        <ele>1129</ele>
        <time>2026-05-09T12:40:37.170Z</time>
      </trkpt>
      <trkpt lat="47.92893" lon="6.92479">
        <ele>1129</ele>
        <time>2026-05-09T12:40:38.169Z</time>
      </trkpt>
      <trkpt lat="47.92894" lon="6.9248">
        <ele>1129</ele>
        <time>2026-05-09T12:40:39.170Z</time>
      </trkpt>
      <trkpt lat="47.92896" lon="6.92481">
        <ele>1129</ele>
        <time>2026-05-09T12:40:40.169Z</time>
      </trkpt>
      <trkpt lat="47.92897" lon="6.92481">
        <ele>1130</ele>
        <time>2026-05-09T12:40:41.169Z</time>
      </trkpt>
      <trkpt lat="47.92898" lon="6.92482">
        <ele>1130</ele>
        <time>2026-05-09T12:40:42.170Z</time>
      </trkpt>
      <trkpt lat="47.92899" lon="6.92483">
        <ele>1131</ele>
        <time>2026-05-09T12:40:43.169Z</time>
      </trkpt>
      <trkpt lat="47.92899" lon="6.92483">
        <ele>1131</ele>
        <time>2026-05-09T12:40:44.170Z</time>
      </trkpt>
      <trkpt lat="47.929" lon="6.92484">
        <ele>1130</ele>
        <time>2026-05-09T12:40:45.169Z</time>
      </trkpt>
      <trkpt lat="47.929" lon="6.92485">
        <ele>1130</ele>
        <time>2026-05-09T12:40:46.169Z</time>
      </trkpt>
      <trkpt lat="47.92901" lon="6.92485">
        <ele>1130</ele>
        <time>2026-05-09T12:40:47.169Z</time>
      </trkpt>
      <trkpt lat="47.92902" lon="6.92486">
        <ele>1129</ele>
        <time>2026-05-09T12:40:48.170Z</time>
      </trkpt>
      <trkpt lat="47.92903" lon="6.92486">
        <ele>1129</ele>
        <time>2026-05-09T12:40:49.169Z</time>
      </trkpt>
      <trkpt lat="47.92904" lon="6.92487">
        <ele>1129</ele>
        <time>2026-05-09T12:40:50.170Z</time>
      </trkpt>
      <trkpt lat="47.92905" lon="6.92488">
        <ele>1129</ele>
        <time>2026-05-09T12:40:51.169Z</time>
      </trkpt>
      <trkpt lat="47.92906" lon="6.92488">
        <ele>1129</ele>
        <time>2026-05-09T12:40:52.170Z</time>
      </trkpt>
      <trkpt lat="47.92906" lon="6.92489">
        <ele>1129</ele>
        <time>2026-05-09T12:40:53.170Z</time>
      </trkpt>
      <trkpt lat="47.92907" lon="6.9249">
        <ele>1129</ele>
        <time>2026-05-09T12:40:54.169Z</time>
      </trkpt>
      <trkpt lat="47.92908" lon="6.9249">
        <ele>1129</ele>
        <time>2026-05-09T12:40:55.170Z</time>
      </trkpt>
      <trkpt lat="47.92909" lon="6.92491">
        <ele>1129</ele>
        <time>2026-05-09T12:40:56.169Z</time>
      </trkpt>
      <trkpt lat="47.92909" lon="6.92492">
        <ele>1129</ele>
        <time>2026-05-09T12:40:57.170Z</time>
      </trkpt>
      <trkpt lat="47.9291" lon="6.92493">
        <ele>1130</ele>
        <time>2026-05-09T12:40:58.169Z</time>
      </trkpt>
      <trkpt lat="47.92911" lon="6.92493">
        <ele>1130</ele>
        <time>2026-05-09T12:40:59.170Z</time>
      </trkpt>
      <trkpt lat="47.92912" lon="6.92494">
        <ele>1129</ele>
        <time>2026-05-09T12:41:00.170Z</time>
      </trkpt>
      <trkpt lat="47.92913" lon="6.92494">
        <ele>1129</ele>
        <time>2026-05-09T12:41:01.169Z</time>
      </trkpt>
      <trkpt lat="47.92914" lon="6.92495">
        <ele>1130</ele>
        <time>2026-05-09T12:41:02.170Z</time>
      </trkpt>
      <trkpt lat="47.92915" lon="6.92496">
        <ele>1130</ele>
        <time>2026-05-09T12:41:03.169Z</time>
      </trkpt>
      <trkpt lat="47.92917" lon="6.92495">
        <ele>1130</ele>
        <time>2026-05-09T12:41:04.170Z</time>
      </trkpt>
      <trkpt lat="47.92919" lon="6.92496">
        <ele>1130</ele>
        <time>2026-05-09T12:41:05.170Z</time>
      </trkpt>
      <trkpt lat="47.9292" lon="6.92496">
        <ele>1131</ele>
        <time>2026-05-09T12:41:06.169Z</time>
      </trkpt>
      <trkpt lat="47.92921" lon="6.92497">
        <ele>1131</ele>
        <time>2026-05-09T12:41:07.169Z</time>
      </trkpt>
      <trkpt lat="47.92922" lon="6.92498">
        <ele>1131</ele>
        <time>2026-05-09T12:41:08.170Z</time>
      </trkpt>
      <trkpt lat="47.92923" lon="6.92498">
        <ele>1132</ele>
        <time>2026-05-09T12:41:09.169Z</time>
      </trkpt>
      <trkpt lat="47.92924" lon="6.92499">
        <ele>1132</ele>
        <time>2026-05-09T12:41:10.169Z</time>
      </trkpt>
      <trkpt lat="47.92925" lon="6.92499">
        <ele>1132</ele>
        <time>2026-05-09T12:41:11.169Z</time>
      </trkpt>
      <trkpt lat="47.92926" lon="6.92499">
        <ele>1133</ele>
        <time>2026-05-09T12:41:12.169Z</time>
      </trkpt>
      <trkpt lat="47.92927" lon="6.92498">
        <ele>1133</ele>
        <time>2026-05-09T12:41:13.169Z</time>
      </trkpt>
      <trkpt lat="47.92928" lon="6.92498">
        <ele>1134</ele>
        <time>2026-05-09T12:41:14.170Z</time>
      </trkpt>
      <trkpt lat="47.9293" lon="6.92497">
        <ele>1135</ele>
        <time>2026-05-09T12:41:15.170Z</time>
      </trkpt>
      <trkpt lat="47.92929" lon="6.92497">
        <ele>1136</ele>
        <time>2026-05-09T12:41:16.170Z</time>
      </trkpt>
      <trkpt lat="47.92929" lon="6.92498">
        <ele>1136</ele>
        <time>2026-05-09T12:41:17.170Z</time>
      </trkpt>
      <trkpt lat="47.9293" lon="6.92499">
        <ele>1137</ele>
        <time>2026-05-09T12:41:18.169Z</time>
      </trkpt>
      <trkpt lat="47.92931" lon="6.92499">
        <ele>1137</ele>
        <time>2026-05-09T12:41:19.169Z</time>
      </trkpt>
      <trkpt lat="47.92931" lon="6.92498">
        <ele>1138</ele>
        <time>2026-05-09T12:41:20.170Z</time>
      </trkpt>
      <trkpt lat="47.92932" lon="6.92498">
        <ele>1139</ele>
        <time>2026-05-09T12:41:21.170Z</time>
      </trkpt>
      <trkpt lat="47.92933" lon="6.92498">
        <ele>1140</ele>
        <time>2026-05-09T12:41:22.170Z</time>
      </trkpt>
      <trkpt lat="47.92933" lon="6.92498">
        <ele>1140</ele>
        <time>2026-05-09T12:41:23.169Z</time>
      </trkpt>
      <trkpt lat="47.92934" lon="6.92498">
        <ele>1141</ele>
        <time>2026-05-09T12:41:24.169Z</time>
      </trkpt>
      <trkpt lat="47.92935" lon="6.92498">
        <ele>1143</ele>
        <time>2026-05-09T12:41:25.170Z</time>
      </trkpt>
      <trkpt lat="47.92936" lon="6.92499">
        <ele>1144</ele>
        <time>2026-05-09T12:41:26.170Z</time>
      </trkpt>
      <trkpt lat="47.92937" lon="6.92499">
        <ele>1144</ele>
        <time>2026-05-09T12:41:27.170Z</time>
      </trkpt>
      <trkpt lat="47.92938" lon="6.92499">
        <ele>1145</ele>
        <time>2026-05-09T12:41:28.170Z</time>
      </trkpt>
      <trkpt lat="47.92939" lon="6.92499">
        <ele>1145</ele>
        <time>2026-05-09T12:41:29.169Z</time>
      </trkpt>
      <trkpt lat="47.9294" lon="6.925">
        <ele>1146</ele>
        <time>2026-05-09T12:41:30.170Z</time>
      </trkpt>
      <trkpt lat="47.9294" lon="6.925">
        <ele>1146</ele>
        <time>2026-05-09T12:41:31.170Z</time>
      </trkpt>
      <trkpt lat="47.92942" lon="6.92501">
        <ele>1146</ele>
        <time>2026-05-09T12:41:32.169Z</time>
      </trkpt>
      <trkpt lat="47.92942" lon="6.92501">
        <ele>1146</ele>
        <time>2026-05-09T12:41:33.169Z</time>
      </trkpt>
      <trkpt lat="47.92942" lon="6.92502">
        <ele>1146</ele>
        <time>2026-05-09T12:41:34.169Z</time>
      </trkpt>
      <trkpt lat="47.92943" lon="6.92503">
        <ele>1146</ele>
        <time>2026-05-09T12:41:35.169Z</time>
      </trkpt>
      <trkpt lat="47.92944" lon="6.92504">
        <ele>1146</ele>
        <time>2026-05-09T12:41:36.170Z</time>
      </trkpt>
      <trkpt lat="47.92945" lon="6.92506">
        <ele>1146</ele>
        <time>2026-05-09T12:41:37.170Z</time>
      </trkpt>
      <trkpt lat="47.92946" lon="6.92507">
        <ele>1146</ele>
        <time>2026-05-09T12:41:38.170Z</time>
      </trkpt>
      <trkpt lat="47.92947" lon="6.92508">
        <ele>1146</ele>
        <time>2026-05-09T12:41:39.169Z</time>
      </trkpt>
      <trkpt lat="47.92948" lon="6.92509">
        <ele>1146</ele>
        <time>2026-05-09T12:41:40.169Z</time>
      </trkpt>
      <trkpt lat="47.92949" lon="6.92509">
        <ele>1146</ele>
        <time>2026-05-09T12:41:41.169Z</time>
      </trkpt>
      <trkpt lat="47.9295" lon="6.9251">
        <ele>1145</ele>
        <time>2026-05-09T12:41:42.170Z</time>
      </trkpt>
      <trkpt lat="47.92951" lon="6.92511">
        <ele>1145</ele>
        <time>2026-05-09T12:41:43.170Z</time>
      </trkpt>
      <trkpt lat="47.92952" lon="6.92512">
        <ele>1145</ele>
        <time>2026-05-09T12:41:44.170Z</time>
      </trkpt>
      <trkpt lat="47.92953" lon="6.92513">
        <ele>1145</ele>
        <time>2026-05-09T12:41:45.170Z</time>
      </trkpt>
      <trkpt lat="47.92954" lon="6.92514">
        <ele>1144</ele>
        <time>2026-05-09T12:41:46.169Z</time>
      </trkpt>
      <trkpt lat="47.92954" lon="6.92515">
        <ele>1144</ele>
        <time>2026-05-09T12:41:47.170Z</time>
      </trkpt>
      <trkpt lat="47.92955" lon="6.92516">
        <ele>1144</ele>
        <time>2026-05-09T12:41:48.170Z</time>
      </trkpt>
      <trkpt lat="47.92957" lon="6.92516">
        <ele>1144</ele>
        <time>2026-05-09T12:41:49.170Z</time>
      </trkpt>
      <trkpt lat="47.92958" lon="6.92519">
        <ele>1144</ele>
        <time>2026-05-09T12:41:50.169Z</time>
      </trkpt>
      <trkpt lat="47.92959" lon="6.92519">
        <ele>1144</ele>
        <time>2026-05-09T12:41:51.169Z</time>
      </trkpt>
      <trkpt lat="47.9296" lon="6.9252">
        <ele>1145</ele>
        <time>2026-05-09T12:41:52.169Z</time>
      </trkpt>
      <trkpt lat="47.92961" lon="6.92521">
        <ele>1145</ele>
        <time>2026-05-09T12:41:53.169Z</time>
      </trkpt>
      <trkpt lat="47.92962" lon="6.92522">
        <ele>1145</ele>
        <time>2026-05-09T12:41:54.169Z</time>
      </trkpt>
      <trkpt lat="47.92963" lon="6.92522">
        <ele>1145</ele>
        <time>2026-05-09T12:41:55.169Z</time>
      </trkpt>
      <trkpt lat="47.92963" lon="6.92523">
        <ele>1145</ele>
        <time>2026-05-09T12:41:56.170Z</time>
      </trkpt>
      <trkpt lat="47.92964" lon="6.92524">
        <ele>1144</ele>
        <time>2026-05-09T12:41:57.169Z</time>
      </trkpt>
      <trkpt lat="47.92965" lon="6.92525">
        <ele>1144</ele>
        <time>2026-05-09T12:41:58.170Z</time>
      </trkpt>
      <trkpt lat="47.92966" lon="6.92526">
        <ele>1143</ele>
        <time>2026-05-09T12:41:59.170Z</time>
      </trkpt>
      <trkpt lat="47.92966" lon="6.92526">
        <ele>1143</ele>
        <time>2026-05-09T12:42:00.170Z</time>
      </trkpt>
      <trkpt lat="47.92968" lon="6.92527">
        <ele>1143</ele>
        <time>2026-05-09T12:42:01.170Z</time>
      </trkpt>
      <trkpt lat="47.92969" lon="6.92528">
        <ele>1144</ele>
        <time>2026-05-09T12:42:02.170Z</time>
      </trkpt>
      <trkpt lat="47.9297" lon="6.92528">
        <ele>1144</ele>
        <time>2026-05-09T12:42:03.169Z</time>
      </trkpt>
      <trkpt lat="47.9297" lon="6.92529">
        <ele>1144</ele>
        <time>2026-05-09T12:42:04.169Z</time>
      </trkpt>
      <trkpt lat="47.92971" lon="6.92529">
        <ele>1143</ele>
        <time>2026-05-09T12:42:05.169Z</time>
      </trkpt>
      <trkpt lat="47.92971" lon="6.9253">
        <ele>1143</ele>
        <time>2026-05-09T12:42:06.170Z</time>
      </trkpt>
      <trkpt lat="47.92972" lon="6.9253">
        <ele>1143</ele>
        <time>2026-05-09T12:42:07.169Z</time>
      </trkpt>
      <trkpt lat="47.92972" lon="6.92531">
        <ele>1142</ele>
        <time>2026-05-09T12:42:08.169Z</time>
      </trkpt>
      <trkpt lat="47.92973" lon="6.92531">
        <ele>1142</ele>
        <time>2026-05-09T12:42:09.170Z</time>
      </trkpt>
      <trkpt lat="47.92973" lon="6.92532">
        <ele>1142</ele>
        <time>2026-05-09T12:42:10.170Z</time>
      </trkpt>
      <trkpt lat="47.92974" lon="6.92532">
        <ele>1142</ele>
        <time>2026-05-09T12:42:11.170Z</time>
      </trkpt>
      <trkpt lat="47.92974" lon="6.92533">
        <ele>1141</ele>
        <time>2026-05-09T12:42:12.170Z</time>
      </trkpt>
      <trkpt lat="47.92975" lon="6.92533">
        <ele>1141</ele>
        <time>2026-05-09T12:42:13.170Z</time>
      </trkpt>
      <trkpt lat="47.92976" lon="6.92533">
        <ele>1142</ele>
        <time>2026-05-09T12:42:14.170Z</time>
      </trkpt>
      <trkpt lat="47.92976" lon="6.92533">
        <ele>1143</ele>
        <time>2026-05-09T12:42:15.169Z</time>
      </trkpt>
      <trkpt lat="47.92977" lon="6.92534">
        <ele>1143</ele>
        <time>2026-05-09T12:42:16.169Z</time>
      </trkpt>
      <trkpt lat="47.92977" lon="6.92534">
        <ele>1144</ele>
        <time>2026-05-09T12:42:17.169Z</time>
      </trkpt>
      <trkpt lat="47.92978" lon="6.92535">
        <ele>1144</ele>
        <time>2026-05-09T12:42:18.170Z</time>
      </trkpt>
      <trkpt lat="47.92979" lon="6.92535">
        <ele>1144</ele>
        <time>2026-05-09T12:42:19.170Z</time>
      </trkpt>
      <trkpt lat="47.9298" lon="6.92535">
        <ele>1144</ele>
        <time>2026-05-09T12:42:20.170Z</time>
      </trkpt>
      <trkpt lat="47.9298" lon="6.92535">
        <ele>1144</ele>
        <time>2026-05-09T12:42:21.170Z</time>
      </trkpt>
      <trkpt lat="47.9298" lon="6.92535">
        <ele>1144</ele>
        <time>2026-05-09T12:42:22.169Z</time>
      </trkpt>
      <trkpt lat="47.92981" lon="6.92535">
        <ele>1145</ele>
        <time>2026-05-09T12:42:23.170Z</time>
      </trkpt>
      <trkpt lat="47.92981" lon="6.92536">
        <ele>1145</ele>
        <time>2026-05-09T12:42:24.169Z</time>
      </trkpt>
      <trkpt lat="47.92982" lon="6.92536">
        <ele>1146</ele>
        <time>2026-05-09T12:42:25.169Z</time>
      </trkpt>
      <trkpt lat="47.92982" lon="6.92536">
        <ele>1146</ele>
        <time>2026-05-09T12:42:26.169Z</time>
      </trkpt>
      <trkpt lat="47.92982" lon="6.92537">
        <ele>1147</ele>
        <time>2026-05-09T12:42:27.170Z</time>
      </trkpt>
      <trkpt lat="47.92982" lon="6.92537">
        <ele>1147</ele>
        <time>2026-05-09T12:42:28.169Z</time>
      </trkpt>
      <trkpt lat="47.92983" lon="6.92537">
        <ele>1147</ele>
        <time>2026-05-09T12:42:29.170Z</time>
      </trkpt>
      <trkpt lat="47.92983" lon="6.92537">
        <ele>1148</ele>
        <time>2026-05-09T12:42:30.170Z</time>
      </trkpt>
      <trkpt lat="47.92988" lon="6.92538">
        <ele>1149</ele>
        <time>2026-05-09T12:42:37.449Z</time>
      </trkpt>
      <trkpt lat="47.92988" lon="6.92538">
        <ele>1150</ele>
        <time>2026-05-09T12:42:38.449Z</time>
      </trkpt>
      <trkpt lat="47.92988" lon="6.92538">
        <ele>1150</ele>
        <time>2026-05-09T12:42:39.449Z</time>
      </trkpt>
      <trkpt lat="47.9299" lon="6.92538">
        <ele>1150</ele>
        <time>2026-05-09T12:42:40.449Z</time>
      </trkpt>
      <trkpt lat="47.92991" lon="6.92539">
        <ele>1150</ele>
        <time>2026-05-09T12:42:41.450Z</time>
      </trkpt>
      <trkpt lat="47.92993" lon="6.92539">
        <ele>1151</ele>
        <time>2026-05-09T12:42:42.449Z</time>
      </trkpt>
      <trkpt lat="47.92994" lon="6.9254">
        <ele>1152</ele>
        <time>2026-05-09T12:42:43.449Z</time>
      </trkpt>
      <trkpt lat="47.92994" lon="6.9254">
        <ele>1152</ele>
        <time>2026-05-09T12:42:44.449Z</time>
      </trkpt>
      <trkpt lat="47.92995" lon="6.9254">
        <ele>1153</ele>
        <time>2026-05-09T12:42:45.449Z</time>
      </trkpt>
      <trkpt lat="47.92996" lon="6.92541">
        <ele>1153</ele>
        <time>2026-05-09T12:42:46.449Z</time>
      </trkpt>
      <trkpt lat="47.92999" lon="6.92543">
        <ele>1154</ele>
        <time>2026-05-09T12:42:47.449Z</time>
      </trkpt>
      <trkpt lat="47.92999" lon="6.92543">
        <ele>1154</ele>
        <time>2026-05-09T12:42:48.449Z</time>
      </trkpt>
      <trkpt lat="47.93" lon="6.92543">
        <ele>1155</ele>
        <time>2026-05-09T12:42:49.449Z</time>
      </trkpt>
      <trkpt lat="47.93" lon="6.92543">
        <ele>1155</ele>
        <time>2026-05-09T12:42:50.449Z</time>
      </trkpt>
      <trkpt lat="47.93001" lon="6.92544">
        <ele>1155</ele>
        <time>2026-05-09T12:42:51.449Z</time>
      </trkpt>
      <trkpt lat="47.93003" lon="6.92544">
        <ele>1156</ele>
        <time>2026-05-09T12:42:52.450Z</time>
      </trkpt>
      <trkpt lat="47.93004" lon="6.92546">
        <ele>1156</ele>
        <time>2026-05-09T12:42:53.449Z</time>
      </trkpt>
      <trkpt lat="47.93004" lon="6.92547">
        <ele>1155</ele>
        <time>2026-05-09T12:42:54.449Z</time>
      </trkpt>
      <trkpt lat="47.93006" lon="6.92549">
        <ele>1155</ele>
        <time>2026-05-09T12:42:55.450Z</time>
      </trkpt>
      <trkpt lat="47.93006" lon="6.92549">
        <ele>1155</ele>
        <time>2026-05-09T12:42:56.449Z</time>
      </trkpt>
      <trkpt lat="47.93008" lon="6.92549">
        <ele>1155</ele>
        <time>2026-05-09T12:42:57.449Z</time>
      </trkpt>
      <trkpt lat="47.93011" lon="6.92551">
        <ele>1155</ele>
        <time>2026-05-09T12:42:58.449Z</time>
      </trkpt>
      <trkpt lat="47.93013" lon="6.92552">
        <ele>1155</ele>
        <time>2026-05-09T12:42:59.449Z</time>
      </trkpt>
      <trkpt lat="47.93015" lon="6.92553">
        <ele>1155</ele>
        <time>2026-05-09T12:43:00.450Z</time>
      </trkpt>
      <trkpt lat="47.93015" lon="6.92553">
        <ele>1155</ele>
        <time>2026-05-09T12:43:01.449Z</time>
      </trkpt>
      <trkpt lat="47.93017" lon="6.92555">
        <ele>1155</ele>
        <time>2026-05-09T12:43:02.449Z</time>
      </trkpt>
      <trkpt lat="47.93019" lon="6.92556">
        <ele>1155</ele>
        <time>2026-05-09T12:43:03.449Z</time>
      </trkpt>
      <trkpt lat="47.9302" lon="6.92557">
        <ele>1155</ele>
        <time>2026-05-09T12:43:04.449Z</time>
      </trkpt>
      <trkpt lat="47.93022" lon="6.92558">
        <ele>1156</ele>
        <time>2026-05-09T12:43:05.449Z</time>
      </trkpt>
      <trkpt lat="47.93023" lon="6.92559">
        <ele>1156</ele>
        <time>2026-05-09T12:43:06.450Z</time>
      </trkpt>
      <trkpt lat="47.93024" lon="6.92559">
        <ele>1156</ele>
        <time>2026-05-09T12:43:07.449Z</time>
      </trkpt>
      <trkpt lat="47.93026" lon="6.9256">
        <ele>1157</ele>
        <time>2026-05-09T12:43:08.449Z</time>
      </trkpt>
      <trkpt lat="47.93027" lon="6.9256">
        <ele>1157</ele>
        <time>2026-05-09T12:43:09.449Z</time>
      </trkpt>
      <trkpt lat="47.93028" lon="6.92561">
        <ele>1157</ele>
        <time>2026-05-09T12:43:10.449Z</time>
      </trkpt>
      <trkpt lat="47.93029" lon="6.92561">
        <ele>1157</ele>
        <time>2026-05-09T12:43:11.449Z</time>
      </trkpt>
      <trkpt lat="47.9303" lon="6.92562">
        <ele>1157</ele>
        <time>2026-05-09T12:43:12.450Z</time>
      </trkpt>
      <trkpt lat="47.9303" lon="6.92562">
        <ele>1157</ele>
        <time>2026-05-09T12:43:13.450Z</time>
      </trkpt>
      <trkpt lat="47.93032" lon="6.92563">
        <ele>1157</ele>
        <time>2026-05-09T12:43:14.450Z</time>
      </trkpt>
      <trkpt lat="47.93032" lon="6.92564">
        <ele>1157</ele>
        <time>2026-05-09T12:43:15.449Z</time>
      </trkpt>
      <trkpt lat="47.93034" lon="6.92565">
        <ele>1157</ele>
        <time>2026-05-09T12:43:16.449Z</time>
      </trkpt>
      <trkpt lat="47.93034" lon="6.92565">
        <ele>1157</ele>
        <time>2026-05-09T12:43:17.449Z</time>
      </trkpt>
      <trkpt lat="47.93035" lon="6.92566">
        <ele>1157</ele>
        <time>2026-05-09T12:43:18.449Z</time>
      </trkpt>
      <trkpt lat="47.93036" lon="6.92566">
        <ele>1158</ele>
        <time>2026-05-09T12:43:19.449Z</time>
      </trkpt>
      <trkpt lat="47.93037" lon="6.92567">
        <ele>1158</ele>
        <time>2026-05-09T12:43:20.449Z</time>
      </trkpt>
      <trkpt lat="47.93039" lon="6.92568">
        <ele>1158</ele>
        <time>2026-05-09T12:43:21.450Z</time>
      </trkpt>
      <trkpt lat="47.93039" lon="6.92568">
        <ele>1158</ele>
        <time>2026-05-09T12:43:22.449Z</time>
      </trkpt>
      <trkpt lat="47.9304" lon="6.92569">
        <ele>1158</ele>
        <time>2026-05-09T12:43:23.449Z</time>
      </trkpt>
      <trkpt lat="47.93041" lon="6.92571">
        <ele>1159</ele>
        <time>2026-05-09T12:43:24.450Z</time>
      </trkpt>
      <trkpt lat="47.93043" lon="6.92572">
        <ele>1159</ele>
        <time>2026-05-09T12:43:25.449Z</time>
      </trkpt>
      <trkpt lat="47.93046" lon="6.92573">
        <ele>1159</ele>
        <time>2026-05-09T12:43:26.450Z</time>
      </trkpt>
      <trkpt lat="47.93047" lon="6.92575">
        <ele>1159</ele>
        <time>2026-05-09T12:43:27.449Z</time>
      </trkpt>
      <trkpt lat="47.93046" lon="6.92576">
        <ele>1159</ele>
        <time>2026-05-09T12:43:28.450Z</time>
      </trkpt>
      <trkpt lat="47.93046" lon="6.92576">
        <ele>1159</ele>
        <time>2026-05-09T12:43:29.450Z</time>
      </trkpt>
      <trkpt lat="47.93049" lon="6.92576">
        <ele>1160</ele>
        <time>2026-05-09T12:43:30.449Z</time>
      </trkpt>
      <trkpt lat="47.93052" lon="6.92576">
        <ele>1159</ele>
        <time>2026-05-09T12:43:31.449Z</time>
      </trkpt>
      <trkpt lat="47.93052" lon="6.92577">
        <ele>1159</ele>
        <time>2026-05-09T12:43:32.449Z</time>
      </trkpt>
      <trkpt lat="47.93052" lon="6.92577">
        <ele>1159</ele>
        <time>2026-05-09T12:43:33.449Z</time>
      </trkpt>
      <trkpt lat="47.93054" lon="6.92581">
        <ele>1159</ele>
        <time>2026-05-09T12:43:34.450Z</time>
      </trkpt>
      <trkpt lat="47.93055" lon="6.92581">
        <ele>1160</ele>
        <time>2026-05-09T12:43:35.449Z</time>
      </trkpt>
      <trkpt lat="47.93057" lon="6.92582">
        <ele>1160</ele>
        <time>2026-05-09T12:43:36.449Z</time>
      </trkpt>
      <trkpt lat="47.93057" lon="6.92582">
        <ele>1160</ele>
        <time>2026-05-09T12:43:37.450Z</time>
      </trkpt>
      <trkpt lat="47.93057" lon="6.92582">
        <ele>1160</ele>
        <time>2026-05-09T12:43:38.450Z</time>
      </trkpt>
      <trkpt lat="47.93058" lon="6.92582">
        <ele>1159</ele>
        <time>2026-05-09T12:43:39.449Z</time>
      </trkpt>
      <trkpt lat="47.93059" lon="6.92583">
        <ele>1159</ele>
        <time>2026-05-09T12:43:40.450Z</time>
      </trkpt>
      <trkpt lat="47.9306" lon="6.92582">
        <ele>1158</ele>
        <time>2026-05-09T12:43:41.449Z</time>
      </trkpt>
      <trkpt lat="47.93061" lon="6.92583">
        <ele>1158</ele>
        <time>2026-05-09T12:43:42.449Z</time>
      </trkpt>
      <trkpt lat="47.93061" lon="6.92583">
        <ele>1158</ele>
        <time>2026-05-09T12:43:43.449Z</time>
      </trkpt>
      <trkpt lat="47.93062" lon="6.92583">
        <ele>1158</ele>
        <time>2026-05-09T12:43:44.449Z</time>
      </trkpt>
      <trkpt lat="47.93063" lon="6.92584">
        <ele>1158</ele>
        <time>2026-05-09T12:43:45.449Z</time>
      </trkpt>
      <trkpt lat="47.93064" lon="6.92584">
        <ele>1158</ele>
        <time>2026-05-09T12:43:46.449Z</time>
      </trkpt>
      <trkpt lat="47.93065" lon="6.92584">
        <ele>1158</ele>
        <time>2026-05-09T12:43:47.449Z</time>
      </trkpt>
      <trkpt lat="47.93066" lon="6.92585">
        <ele>1158</ele>
        <time>2026-05-09T12:43:48.449Z</time>
      </trkpt>
      <trkpt lat="47.93067" lon="6.92585">
        <ele>1158</ele>
        <time>2026-05-09T12:43:49.449Z</time>
      </trkpt>
      <trkpt lat="47.93069" lon="6.92586">
        <ele>1158</ele>
        <time>2026-05-09T12:43:50.449Z</time>
      </trkpt>
      <trkpt lat="47.9307" lon="6.92585">
        <ele>1159</ele>
        <time>2026-05-09T12:43:51.449Z</time>
      </trkpt>
      <trkpt lat="47.93072" lon="6.92585">
        <ele>1159</ele>
        <time>2026-05-09T12:43:52.450Z</time>
      </trkpt>
      <trkpt lat="47.93073" lon="6.92585">
        <ele>1159</ele>
        <time>2026-05-09T12:43:53.449Z</time>
      </trkpt>
      <trkpt lat="47.93075" lon="6.92586">
        <ele>1159</ele>
        <time>2026-05-09T12:43:54.449Z</time>
      </trkpt>
      <trkpt lat="47.93076" lon="6.92586">
        <ele>1160</ele>
        <time>2026-05-09T12:43:55.449Z</time>
      </trkpt>
      <trkpt lat="47.93077" lon="6.92587">
        <ele>1160</ele>
        <time>2026-05-09T12:43:56.449Z</time>
      </trkpt>
      <trkpt lat="47.93077" lon="6.92587">
        <ele>1160</ele>
        <time>2026-05-09T12:43:57.449Z</time>
      </trkpt>
      <trkpt lat="47.93078" lon="6.92587">
        <ele>1160</ele>
        <time>2026-05-09T12:43:58.449Z</time>
      </trkpt>
      <trkpt lat="47.93079" lon="6.92587">
        <ele>1160</ele>
        <time>2026-05-09T12:43:59.449Z</time>
      </trkpt>
      <trkpt lat="47.9308" lon="6.92587">
        <ele>1159</ele>
        <time>2026-05-09T12:44:00.449Z</time>
      </trkpt>
      <trkpt lat="47.9308" lon="6.92587">
        <ele>1159</ele>
        <time>2026-05-09T12:44:01.449Z</time>
      </trkpt>
      <trkpt lat="47.93081" lon="6.92586">
        <ele>1160</ele>
        <time>2026-05-09T12:44:02.449Z</time>
      </trkpt>
      <trkpt lat="47.93081" lon="6.92586">
        <ele>1160</ele>
        <time>2026-05-09T12:44:03.450Z</time>
      </trkpt>
      <trkpt lat="47.93082" lon="6.92585">
        <ele>1160</ele>
        <time>2026-05-09T12:44:04.449Z</time>
      </trkpt>
      <trkpt lat="47.93083" lon="6.92585">
        <ele>1160</ele>
        <time>2026-05-09T12:44:05.449Z</time>
      </trkpt>
      <trkpt lat="47.93083" lon="6.92585">
        <ele>1160</ele>
        <time>2026-05-09T12:44:06.450Z</time>
      </trkpt>
      <trkpt lat="47.93083" lon="6.92585">
        <ele>1160</ele>
        <time>2026-05-09T12:44:07.450Z</time>
      </trkpt>
      <trkpt lat="47.93085" lon="6.92584">
        <ele>1159</ele>
        <time>2026-05-09T12:44:08.449Z</time>
      </trkpt>
      <trkpt lat="47.93086" lon="6.92585">
        <ele>1159</ele>
        <time>2026-05-09T12:44:09.449Z</time>
      </trkpt>
      <trkpt lat="47.93087" lon="6.92585">
        <ele>1159</ele>
        <time>2026-05-09T12:44:10.449Z</time>
      </trkpt>
      <trkpt lat="47.93087" lon="6.92585">
        <ele>1159</ele>
        <time>2026-05-09T12:44:11.449Z</time>
      </trkpt>
      <trkpt lat="47.93087" lon="6.92585">
        <ele>1160</ele>
        <time>2026-05-09T12:44:12.450Z</time>
      </trkpt>
      <trkpt lat="47.93088" lon="6.92586">
        <ele>1160</ele>
        <time>2026-05-09T12:44:13.450Z</time>
      </trkpt>
      <trkpt lat="47.93088" lon="6.92586">
        <ele>1161</ele>
        <time>2026-05-09T12:44:14.450Z</time>
      </trkpt>
      <trkpt lat="47.93086" lon="6.92581">
        <ele>1160</ele>
        <time>2026-05-09T12:45:10.831Z</time>
      </trkpt>
      <trkpt lat="47.93087" lon="6.92579">
        <ele>1161</ele>
        <time>2026-05-09T12:45:11.830Z</time>
      </trkpt>
      <trkpt lat="47.93087" lon="6.92578">
        <ele>1161</ele>
        <time>2026-05-09T12:45:12.830Z</time>
      </trkpt>
      <trkpt lat="47.93087" lon="6.92577">
        <ele>1161</ele>
        <time>2026-05-09T12:45:13.830Z</time>
      </trkpt>
      <trkpt lat="47.93088" lon="6.92575">
        <ele>1161</ele>
        <time>2026-05-09T12:45:14.831Z</time>
      </trkpt>
      <trkpt lat="47.93088" lon="6.92573">
        <ele>1161</ele>
        <time>2026-05-09T12:45:15.831Z</time>
      </trkpt>
      <trkpt lat="47.93089" lon="6.92572">
        <ele>1161</ele>
        <time>2026-05-09T12:45:16.830Z</time>
      </trkpt>
      <trkpt lat="47.93091" lon="6.92571">
        <ele>1161</ele>
        <time>2026-05-09T12:45:17.831Z</time>
      </trkpt>
      <trkpt lat="47.93091" lon="6.9257">
        <ele>1162</ele>
        <time>2026-05-09T12:45:18.830Z</time>
      </trkpt>
      <trkpt lat="47.93092" lon="6.92568">
        <ele>1162</ele>
        <time>2026-05-09T12:45:19.831Z</time>
      </trkpt>
      <trkpt lat="47.93093" lon="6.92567">
        <ele>1162</ele>
        <time>2026-05-09T12:45:20.830Z</time>
      </trkpt>
      <trkpt lat="47.93093" lon="6.92566">
        <ele>1162</ele>
        <time>2026-05-09T12:45:21.830Z</time>
      </trkpt>
      <trkpt lat="47.93094" lon="6.92565">
        <ele>1162</ele>
        <time>2026-05-09T12:45:22.831Z</time>
      </trkpt>
      <trkpt lat="47.93095" lon="6.92564">
        <ele>1163</ele>
        <time>2026-05-09T12:45:23.830Z</time>
      </trkpt>
      <trkpt lat="47.93095" lon="6.92562">
        <ele>1163</ele>
        <time>2026-05-09T12:45:24.830Z</time>
      </trkpt>
      <trkpt lat="47.93096" lon="6.92559">
        <ele>1163</ele>
        <time>2026-05-09T12:45:25.830Z</time>
      </trkpt>
      <trkpt lat="47.93096" lon="6.92557">
        <ele>1163</ele>
        <time>2026-05-09T12:45:26.830Z</time>
      </trkpt>
      <trkpt lat="47.93096" lon="6.92555">
        <ele>1163</ele>
        <time>2026-05-09T12:45:27.831Z</time>
      </trkpt>
      <trkpt lat="47.93096" lon="6.92552">
        <ele>1162</ele>
        <time>2026-05-09T12:45:28.831Z</time>
      </trkpt>
      <trkpt lat="47.93095" lon="6.9255">
        <ele>1162</ele>
        <time>2026-05-09T12:45:29.831Z</time>
      </trkpt>
      <trkpt lat="47.93095" lon="6.92548">
        <ele>1161</ele>
        <time>2026-05-09T12:45:30.830Z</time>
      </trkpt>
      <trkpt lat="47.93095" lon="6.92546">
        <ele>1160</ele>
        <time>2026-05-09T12:45:31.830Z</time>
      </trkpt>
      <trkpt lat="47.93096" lon="6.92544">
        <ele>1160</ele>
        <time>2026-05-09T12:45:32.831Z</time>
      </trkpt>
      <trkpt lat="47.93097" lon="6.92542">
        <ele>1160</ele>
        <time>2026-05-09T12:45:33.830Z</time>
      </trkpt>
      <trkpt lat="47.93098" lon="6.92541">
        <ele>1160</ele>
        <time>2026-05-09T12:45:34.830Z</time>
      </trkpt>
      <trkpt lat="47.93099" lon="6.92539">
        <ele>1160</ele>
        <time>2026-05-09T12:45:35.831Z</time>
      </trkpt>
      <trkpt lat="47.931" lon="6.92538">
        <ele>1159</ele>
        <time>2026-05-09T12:45:36.831Z</time>
      </trkpt>
      <trkpt lat="47.93101" lon="6.92536">
        <ele>1159</ele>
        <time>2026-05-09T12:45:37.831Z</time>
      </trkpt>
      <trkpt lat="47.93102" lon="6.92533">
        <ele>1159</ele>
        <time>2026-05-09T12:45:38.830Z</time>
      </trkpt>
      <trkpt lat="47.93103" lon="6.92531">
        <ele>1158</ele>
        <time>2026-05-09T12:45:39.830Z</time>
      </trkpt>
      <trkpt lat="47.93104" lon="6.9253">
        <ele>1158</ele>
        <time>2026-05-09T12:45:40.830Z</time>
      </trkpt>
      <trkpt lat="47.93105" lon="6.92528">
        <ele>1157</ele>
        <time>2026-05-09T12:45:41.831Z</time>
      </trkpt>
      <trkpt lat="47.93106" lon="6.92526">
        <ele>1156</ele>
        <time>2026-05-09T12:45:42.830Z</time>
      </trkpt>
      <trkpt lat="47.93107" lon="6.92524">
        <ele>1156</ele>
        <time>2026-05-09T12:45:43.830Z</time>
      </trkpt>
      <trkpt lat="47.93108" lon="6.92521">
        <ele>1155</ele>
        <time>2026-05-09T12:45:44.830Z</time>
      </trkpt>
      <trkpt lat="47.93109" lon="6.92519">
        <ele>1155</ele>
        <time>2026-05-09T12:45:45.831Z</time>
      </trkpt>
      <trkpt lat="47.93109" lon="6.92517">
        <ele>1154</ele>
        <time>2026-05-09T12:45:46.830Z</time>
      </trkpt>
      <trkpt lat="47.9311" lon="6.92515">
        <ele>1154</ele>
        <time>2026-05-09T12:45:47.831Z</time>
      </trkpt>
      <trkpt lat="47.93111" lon="6.92513">
        <ele>1154</ele>
        <time>2026-05-09T12:45:48.830Z</time>
      </trkpt>
      <trkpt lat="47.93111" lon="6.92511">
        <ele>1153</ele>
        <time>2026-05-09T12:45:49.830Z</time>
      </trkpt>
      <trkpt lat="47.93112" lon="6.92509">
        <ele>1153</ele>
        <time>2026-05-09T12:45:50.830Z</time>
      </trkpt>
      <trkpt lat="47.93112" lon="6.92508">
        <ele>1153</ele>
        <time>2026-05-09T12:45:51.831Z</time>
      </trkpt>
      <trkpt lat="47.93112" lon="6.92506">
        <ele>1152</ele>
        <time>2026-05-09T12:45:52.830Z</time>
      </trkpt>
      <trkpt lat="47.93113" lon="6.92504">
        <ele>1152</ele>
        <time>2026-05-09T12:45:53.830Z</time>
      </trkpt>
      <trkpt lat="47.93113" lon="6.92503">
        <ele>1152</ele>
        <time>2026-05-09T12:45:54.831Z</time>
      </trkpt>
      <trkpt lat="47.93114" lon="6.92502">
        <ele>1152</ele>
        <time>2026-05-09T12:45:55.830Z</time>
      </trkpt>
      <trkpt lat="47.93115" lon="6.925">
        <ele>1151</ele>
        <time>2026-05-09T12:45:56.830Z</time>
      </trkpt>
      <trkpt lat="47.93115" lon="6.92499">
        <ele>1151</ele>
        <time>2026-05-09T12:45:57.830Z</time>
      </trkpt>
      <trkpt lat="47.93116" lon="6.92497">
        <ele>1151</ele>
        <time>2026-05-09T12:45:58.830Z</time>
      </trkpt>
      <trkpt lat="47.93116" lon="6.92495">
        <ele>1150</ele>
        <time>2026-05-09T12:45:59.830Z</time>
      </trkpt>
      <trkpt lat="47.93117" lon="6.92494">
        <ele>1150</ele>
        <time>2026-05-09T12:46:00.831Z</time>
      </trkpt>
      <trkpt lat="47.93118" lon="6.92492">
        <ele>1150</ele>
        <time>2026-05-09T12:46:01.831Z</time>
      </trkpt>
      <trkpt lat="47.93119" lon="6.92491">
        <ele>1150</ele>
        <time>2026-05-09T12:46:02.830Z</time>
      </trkpt>
      <trkpt lat="47.93119" lon="6.92489">
        <ele>1149</ele>
        <time>2026-05-09T12:46:03.831Z</time>
      </trkpt>
      <trkpt lat="47.9312" lon="6.92487">
        <ele>1148</ele>
        <time>2026-05-09T12:46:04.830Z</time>
      </trkpt>
      <trkpt lat="47.93121" lon="6.92485">
        <ele>1148</ele>
        <time>2026-05-09T12:46:05.831Z</time>
      </trkpt>
      <trkpt lat="47.93122" lon="6.92484">
        <ele>1148</ele>
        <time>2026-05-09T12:46:06.830Z</time>
      </trkpt>
      <trkpt lat="47.93123" lon="6.92482">
        <ele>1147</ele>
        <time>2026-05-09T12:46:07.831Z</time>
      </trkpt>
      <trkpt lat="47.93123" lon="6.9248">
        <ele>1147</ele>
        <time>2026-05-09T12:46:08.831Z</time>
      </trkpt>
      <trkpt lat="47.93124" lon="6.92479">
        <ele>1147</ele>
        <time>2026-05-09T12:46:09.830Z</time>
      </trkpt>
      <trkpt lat="47.93126" lon="6.92477">
        <ele>1148</ele>
        <time>2026-05-09T12:46:10.831Z</time>
      </trkpt>
      <trkpt lat="47.93128" lon="6.92475">
        <ele>1148</ele>
        <time>2026-05-09T12:46:11.830Z</time>
      </trkpt>
      <trkpt lat="47.93129" lon="6.92474">
        <ele>1148</ele>
        <time>2026-05-09T12:46:12.830Z</time>
      </trkpt>
      <trkpt lat="47.9313" lon="6.92472">
        <ele>1147</ele>
        <time>2026-05-09T12:46:13.830Z</time>
      </trkpt>
      <trkpt lat="47.93131" lon="6.92471">
        <ele>1147</ele>
        <time>2026-05-09T12:46:14.831Z</time>
      </trkpt>
      <trkpt lat="47.93132" lon="6.92469">
        <ele>1147</ele>
        <time>2026-05-09T12:46:15.830Z</time>
      </trkpt>
      <trkpt lat="47.93134" lon="6.92466">
        <ele>1147</ele>
        <time>2026-05-09T12:46:16.830Z</time>
      </trkpt>
      <trkpt lat="47.93135" lon="6.92465">
        <ele>1147</ele>
        <time>2026-05-09T12:46:17.831Z</time>
      </trkpt>
      <trkpt lat="47.93136" lon="6.92463">
        <ele>1147</ele>
        <time>2026-05-09T12:46:18.831Z</time>
      </trkpt>
      <trkpt lat="47.93137" lon="6.92462">
        <ele>1146</ele>
        <time>2026-05-09T12:46:19.831Z</time>
      </trkpt>
      <trkpt lat="47.93138" lon="6.9246">
        <ele>1146</ele>
        <time>2026-05-09T12:46:20.830Z</time>
      </trkpt>
      <trkpt lat="47.93139" lon="6.92459">
        <ele>1146</ele>
        <time>2026-05-09T12:46:21.831Z</time>
      </trkpt>
      <trkpt lat="47.93141" lon="6.92458">
        <ele>1146</ele>
        <time>2026-05-09T12:46:22.830Z</time>
      </trkpt>
      <trkpt lat="47.93142" lon="6.92457">
        <ele>1146</ele>
        <time>2026-05-09T12:46:23.830Z</time>
      </trkpt>
      <trkpt lat="47.93143" lon="6.92456">
        <ele>1146</ele>
        <time>2026-05-09T12:46:24.830Z</time>
      </trkpt>
      <trkpt lat="47.93143" lon="6.92455">
        <ele>1147</ele>
        <time>2026-05-09T12:46:25.831Z</time>
      </trkpt>
      <trkpt lat="47.93144" lon="6.92453">
        <ele>1147</ele>
        <time>2026-05-09T12:46:26.830Z</time>
      </trkpt>
      <trkpt lat="47.93146" lon="6.92451">
        <ele>1147</ele>
        <time>2026-05-09T12:46:27.831Z</time>
      </trkpt>
      <trkpt lat="47.93147" lon="6.9245">
        <ele>1147</ele>
        <time>2026-05-09T12:46:28.830Z</time>
      </trkpt>
      <trkpt lat="47.93148" lon="6.92448">
        <ele>1148</ele>
        <time>2026-05-09T12:46:29.830Z</time>
      </trkpt>
      <trkpt lat="47.93149" lon="6.92447">
        <ele>1148</ele>
        <time>2026-05-09T12:46:30.831Z</time>
      </trkpt>
      <trkpt lat="47.9315" lon="6.92445">
        <ele>1148</ele>
        <time>2026-05-09T12:46:31.831Z</time>
      </trkpt>
      <trkpt lat="47.93152" lon="6.92444">
        <ele>1148</ele>
        <time>2026-05-09T12:46:32.831Z</time>
      </trkpt>
      <trkpt lat="47.93153" lon="6.92443">
        <ele>1148</ele>
        <time>2026-05-09T12:46:33.831Z</time>
      </trkpt>
      <trkpt lat="47.93155" lon="6.92443">
        <ele>1148</ele>
        <time>2026-05-09T12:46:34.830Z</time>
      </trkpt>
      <trkpt lat="47.93156" lon="6.92442">
        <ele>1147</ele>
        <time>2026-05-09T12:46:35.831Z</time>
      </trkpt>
      <trkpt lat="47.93157" lon="6.92441">
        <ele>1147</ele>
        <time>2026-05-09T12:46:36.830Z</time>
      </trkpt>
      <trkpt lat="47.93159" lon="6.92441">
        <ele>1147</ele>
        <time>2026-05-09T12:46:37.830Z</time>
      </trkpt>
      <trkpt lat="47.9316" lon="6.9244">
        <ele>1147</ele>
        <time>2026-05-09T12:46:38.830Z</time>
      </trkpt>
      <trkpt lat="47.93161" lon="6.92439">
        <ele>1147</ele>
        <time>2026-05-09T12:46:39.830Z</time>
      </trkpt>
      <trkpt lat="47.93163" lon="6.92438">
        <ele>1147</ele>
        <time>2026-05-09T12:46:40.830Z</time>
      </trkpt>
      <trkpt lat="47.93164" lon="6.92438">
        <ele>1147</ele>
        <time>2026-05-09T12:46:41.831Z</time>
      </trkpt>
      <trkpt lat="47.93165" lon="6.92437">
        <ele>1147</ele>
        <time>2026-05-09T12:46:42.830Z</time>
      </trkpt>
      <trkpt lat="47.93167" lon="6.92436">
        <ele>1147</ele>
        <time>2026-05-09T12:46:43.830Z</time>
      </trkpt>
      <trkpt lat="47.93168" lon="6.92434">
        <ele>1147</ele>
        <time>2026-05-09T12:46:44.831Z</time>
      </trkpt>
      <trkpt lat="47.93169" lon="6.92433">
        <ele>1147</ele>
        <time>2026-05-09T12:46:45.830Z</time>
      </trkpt>
      <trkpt lat="47.9317" lon="6.92431">
        <ele>1147</ele>
        <time>2026-05-09T12:46:46.830Z</time>
      </trkpt>
      <trkpt lat="47.93172" lon="6.9243">
        <ele>1147</ele>
        <time>2026-05-09T12:46:47.830Z</time>
      </trkpt>
      <trkpt lat="47.93173" lon="6.92429">
        <ele>1146</ele>
        <time>2026-05-09T12:46:48.831Z</time>
      </trkpt>
      <trkpt lat="47.93174" lon="6.92428">
        <ele>1146</ele>
        <time>2026-05-09T12:46:49.830Z</time>
      </trkpt>
      <trkpt lat="47.93176" lon="6.92427">
        <ele>1146</ele>
        <time>2026-05-09T12:46:50.831Z</time>
      </trkpt>
      <trkpt lat="47.93177" lon="6.92426">
        <ele>1146</ele>
        <time>2026-05-09T12:46:51.831Z</time>
      </trkpt>
      <trkpt lat="47.93179" lon="6.92425">
        <ele>1146</ele>
        <time>2026-05-09T12:46:52.830Z</time>
      </trkpt>
      <trkpt lat="47.9318" lon="6.92424">
        <ele>1146</ele>
        <time>2026-05-09T12:46:53.830Z</time>
      </trkpt>
      <trkpt lat="47.93182" lon="6.92423">
        <ele>1146</ele>
        <time>2026-05-09T12:46:54.831Z</time>
      </trkpt>
      <trkpt lat="47.93183" lon="6.92422">
        <ele>1146</ele>
        <time>2026-05-09T12:46:55.830Z</time>
      </trkpt>
      <trkpt lat="47.93184" lon="6.9242">
        <ele>1146</ele>
        <time>2026-05-09T12:46:56.830Z</time>
      </trkpt>
      <trkpt lat="47.93185" lon="6.92418">
        <ele>1146</ele>
        <time>2026-05-09T12:46:57.830Z</time>
      </trkpt>
      <trkpt lat="47.93186" lon="6.92418">
        <ele>1146</ele>
        <time>2026-05-09T12:46:58.831Z</time>
      </trkpt>
      <trkpt lat="47.93188" lon="6.92417">
        <ele>1145</ele>
        <time>2026-05-09T12:46:59.831Z</time>
      </trkpt>
      <trkpt lat="47.9319" lon="6.92416">
        <ele>1145</ele>
        <time>2026-05-09T12:47:00.830Z</time>
      </trkpt>
      <trkpt lat="47.93191" lon="6.92415">
        <ele>1145</ele>
        <time>2026-05-09T12:47:01.830Z</time>
      </trkpt>
      <trkpt lat="47.93193" lon="6.92414">
        <ele>1145</ele>
        <time>2026-05-09T12:47:02.830Z</time>
      </trkpt>
      <trkpt lat="47.93194" lon="6.92413">
        <ele>1145</ele>
        <time>2026-05-09T12:47:03.831Z</time>
      </trkpt>
      <trkpt lat="47.93196" lon="6.92412">
        <ele>1145</ele>
        <time>2026-05-09T12:47:04.831Z</time>
      </trkpt>
      <trkpt lat="47.93198" lon="6.92411">
        <ele>1146</ele>
        <time>2026-05-09T12:47:05.831Z</time>
      </trkpt>
      <trkpt lat="47.93199" lon="6.92411">
        <ele>1146</ele>
        <time>2026-05-09T12:47:06.831Z</time>
      </trkpt>
      <trkpt lat="47.93201" lon="6.9241">
        <ele>1145</ele>
        <time>2026-05-09T12:47:07.831Z</time>
      </trkpt>
      <trkpt lat="47.93202" lon="6.92409">
        <ele>1145</ele>
        <time>2026-05-09T12:47:08.830Z</time>
      </trkpt>
      <trkpt lat="47.93203" lon="6.92408">
        <ele>1145</ele>
        <time>2026-05-09T12:47:09.830Z</time>
      </trkpt>
      <trkpt lat="47.93204" lon="6.92407">
        <ele>1144</ele>
        <time>2026-05-09T12:47:10.830Z</time>
      </trkpt>
      <trkpt lat="47.93206" lon="6.92406">
        <ele>1144</ele>
        <time>2026-05-09T12:47:11.830Z</time>
      </trkpt>
      <trkpt lat="47.93207" lon="6.92405">
        <ele>1144</ele>
        <time>2026-05-09T12:47:12.831Z</time>
      </trkpt>
      <trkpt lat="47.93208" lon="6.92404">
        <ele>1144</ele>
        <time>2026-05-09T12:47:13.830Z</time>
      </trkpt>
      <trkpt lat="47.93209" lon="6.92403">
        <ele>1144</ele>
        <time>2026-05-09T12:47:14.830Z</time>
      </trkpt>
      <trkpt lat="47.93211" lon="6.92402">
        <ele>1144</ele>
        <time>2026-05-09T12:47:15.831Z</time>
      </trkpt>
      <trkpt lat="47.93212" lon="6.924">
        <ele>1144</ele>
        <time>2026-05-09T12:47:16.830Z</time>
      </trkpt>
      <trkpt lat="47.93214" lon="6.92399">
        <ele>1144</ele>
        <time>2026-05-09T12:47:17.830Z</time>
      </trkpt>
      <trkpt lat="47.93215" lon="6.92398">
        <ele>1144</ele>
        <time>2026-05-09T12:47:18.830Z</time>
      </trkpt>
      <trkpt lat="47.93217" lon="6.92397">
        <ele>1144</ele>
        <time>2026-05-09T12:47:19.830Z</time>
      </trkpt>
      <trkpt lat="47.93219" lon="6.92397">
        <ele>1145</ele>
        <time>2026-05-09T12:47:20.830Z</time>
      </trkpt>
      <trkpt lat="47.9322" lon="6.92396">
        <ele>1145</ele>
        <time>2026-05-09T12:47:21.830Z</time>
      </trkpt>
      <trkpt lat="47.93222" lon="6.92396">
        <ele>1145</ele>
        <time>2026-05-09T12:47:22.830Z</time>
      </trkpt>
      <trkpt lat="47.93223" lon="6.92395">
        <ele>1145</ele>
        <time>2026-05-09T12:47:23.830Z</time>
      </trkpt>
      <trkpt lat="47.93224" lon="6.92394">
        <ele>1146</ele>
        <time>2026-05-09T12:47:24.830Z</time>
      </trkpt>
      <trkpt lat="47.93226" lon="6.92394">
        <ele>1146</ele>
        <time>2026-05-09T12:47:25.830Z</time>
      </trkpt>
      <trkpt lat="47.93227" lon="6.92393">
        <ele>1147</ele>
        <time>2026-05-09T12:47:26.830Z</time>
      </trkpt>
      <trkpt lat="47.93229" lon="6.92393">
        <ele>1146</ele>
        <time>2026-05-09T12:47:27.830Z</time>
      </trkpt>
      <trkpt lat="47.9323" lon="6.92393">
        <ele>1146</ele>
        <time>2026-05-09T12:47:28.830Z</time>
      </trkpt>
      <trkpt lat="47.93231" lon="6.92392">
        <ele>1145</ele>
        <time>2026-05-09T12:47:29.830Z</time>
      </trkpt>
      <trkpt lat="47.93233" lon="6.92391">
        <ele>1145</ele>
        <time>2026-05-09T12:47:30.830Z</time>
      </trkpt>
      <trkpt lat="47.93234" lon="6.92391">
        <ele>1145</ele>
        <time>2026-05-09T12:47:31.831Z</time>
      </trkpt>
      <trkpt lat="47.93236" lon="6.92391">
        <ele>1145</ele>
        <time>2026-05-09T12:47:32.830Z</time>
      </trkpt>
      <trkpt lat="47.93238" lon="6.9239">
        <ele>1145</ele>
        <time>2026-05-09T12:47:33.830Z</time>
      </trkpt>
      <trkpt lat="47.93239" lon="6.9239">
        <ele>1145</ele>
        <time>2026-05-09T12:47:34.831Z</time>
      </trkpt>
      <trkpt lat="47.9324" lon="6.9239">
        <ele>1145</ele>
        <time>2026-05-09T12:47:35.830Z</time>
      </trkpt>
      <trkpt lat="47.93242" lon="6.9239">
        <ele>1145</ele>
        <time>2026-05-09T12:47:36.831Z</time>
      </trkpt>
      <trkpt lat="47.93243" lon="6.9239">
        <ele>1145</ele>
        <time>2026-05-09T12:47:37.831Z</time>
      </trkpt>
      <trkpt lat="47.93244" lon="6.9239">
        <ele>1145</ele>
        <time>2026-05-09T12:47:38.830Z</time>
      </trkpt>
      <trkpt lat="47.93246" lon="6.9239">
        <ele>1145</ele>
        <time>2026-05-09T12:47:39.830Z</time>
      </trkpt>
      <trkpt lat="47.93247" lon="6.9239">
        <ele>1145</ele>
        <time>2026-05-09T12:47:40.830Z</time>
      </trkpt>
      <trkpt lat="47.93248" lon="6.92389">
        <ele>1145</ele>
        <time>2026-05-09T12:47:41.831Z</time>
      </trkpt>
      <trkpt lat="47.9325" lon="6.92389">
        <ele>1146</ele>
        <time>2026-05-09T12:47:42.830Z</time>
      </trkpt>
      <trkpt lat="47.93251" lon="6.92389">
        <ele>1146</ele>
        <time>2026-05-09T12:47:43.830Z</time>
      </trkpt>
      <trkpt lat="47.93252" lon="6.92388">
        <ele>1147</ele>
        <time>2026-05-09T12:47:44.830Z</time>
      </trkpt>
      <trkpt lat="47.93254" lon="6.92388">
        <ele>1147</ele>
        <time>2026-05-09T12:47:45.830Z</time>
      </trkpt>
      <trkpt lat="47.93255" lon="6.92387">
        <ele>1147</ele>
        <time>2026-05-09T12:47:46.831Z</time>
      </trkpt>
      <trkpt lat="47.93256" lon="6.92387">
        <ele>1147</ele>
        <time>2026-05-09T12:47:47.830Z</time>
      </trkpt>
      <trkpt lat="47.93257" lon="6.92386">
        <ele>1147</ele>
        <time>2026-05-09T12:47:48.830Z</time>
      </trkpt>
      <trkpt lat="47.93259" lon="6.92386">
        <ele>1146</ele>
        <time>2026-05-09T12:47:49.831Z</time>
      </trkpt>
      <trkpt lat="47.9326" lon="6.92385">
        <ele>1146</ele>
        <time>2026-05-09T12:47:50.831Z</time>
      </trkpt>
      <trkpt lat="47.93262" lon="6.92385">
        <ele>1146</ele>
        <time>2026-05-09T12:47:51.830Z</time>
      </trkpt>
      <trkpt lat="47.93263" lon="6.92386">
        <ele>1146</ele>
        <time>2026-05-09T12:47:52.831Z</time>
      </trkpt>
      <trkpt lat="47.93265" lon="6.92387">
        <ele>1145</ele>
        <time>2026-05-09T12:47:53.830Z</time>
      </trkpt>
      <trkpt lat="47.93266" lon="6.92388">
        <ele>1145</ele>
        <time>2026-05-09T12:47:54.831Z</time>
      </trkpt>
      <trkpt lat="47.93268" lon="6.92389">
        <ele>1145</ele>
        <time>2026-05-09T12:47:55.830Z</time>
      </trkpt>
      <trkpt lat="47.93269" lon="6.92389">
        <ele>1145</ele>
        <time>2026-05-09T12:47:56.830Z</time>
      </trkpt>
      <trkpt lat="47.93272" lon="6.92391">
        <ele>1145</ele>
        <time>2026-05-09T12:47:57.831Z</time>
      </trkpt>
      <trkpt lat="47.93274" lon="6.92392">
        <ele>1145</ele>
        <time>2026-05-09T12:47:58.831Z</time>
      </trkpt>
      <trkpt lat="47.93276" lon="6.92393">
        <ele>1145</ele>
        <time>2026-05-09T12:47:59.831Z</time>
      </trkpt>
      <trkpt lat="47.93277" lon="6.92395">
        <ele>1144</ele>
        <time>2026-05-09T12:48:00.830Z</time>
      </trkpt>
      <trkpt lat="47.93278" lon="6.92395">
        <ele>1144</ele>
        <time>2026-05-09T12:48:01.830Z</time>
      </trkpt>
      <trkpt lat="47.93279" lon="6.92396">
        <ele>1144</ele>
        <time>2026-05-09T12:48:02.831Z</time>
      </trkpt>
      <trkpt lat="47.93281" lon="6.92397">
        <ele>1144</ele>
        <time>2026-05-09T12:48:03.830Z</time>
      </trkpt>
      <trkpt lat="47.93282" lon="6.92398">
        <ele>1143</ele>
        <time>2026-05-09T12:48:04.830Z</time>
      </trkpt>
      <trkpt lat="47.93283" lon="6.92398">
        <ele>1143</ele>
        <time>2026-05-09T12:48:05.830Z</time>
      </trkpt>
      <trkpt lat="47.93284" lon="6.92398">
        <ele>1143</ele>
        <time>2026-05-09T12:48:06.831Z</time>
      </trkpt>
      <trkpt lat="47.93285" lon="6.92399">
        <ele>1143</ele>
        <time>2026-05-09T12:48:07.830Z</time>
      </trkpt>
      <trkpt lat="47.93285" lon="6.92399">
        <ele>1143</ele>
        <time>2026-05-09T12:48:08.831Z</time>
      </trkpt>
      <trkpt lat="47.93286" lon="6.924">
        <ele>1142</ele>
        <time>2026-05-09T12:48:09.830Z</time>
      </trkpt>
      <trkpt lat="47.93286" lon="6.924">
        <ele>1142</ele>
        <time>2026-05-09T12:48:10.831Z</time>
      </trkpt>
      <trkpt lat="47.93287" lon="6.924">
        <ele>1142</ele>
        <time>2026-05-09T12:48:11.831Z</time>
      </trkpt>
      <trkpt lat="47.93296" lon="6.92404">
        <ele>1141</ele>
        <time>2026-05-09T12:48:18.256Z</time>
      </trkpt>
      <trkpt lat="47.93297" lon="6.92405">
        <ele>1141</ele>
        <time>2026-05-09T12:48:19.257Z</time>
      </trkpt>
      <trkpt lat="47.93299" lon="6.92406">
        <ele>1142</ele>
        <time>2026-05-09T12:48:20.256Z</time>
      </trkpt>
      <trkpt lat="47.933" lon="6.92407">
        <ele>1142</ele>
        <time>2026-05-09T12:48:21.257Z</time>
      </trkpt>
      <trkpt lat="47.93301" lon="6.92407">
        <ele>1142</ele>
        <time>2026-05-09T12:48:22.256Z</time>
      </trkpt>
      <trkpt lat="47.93303" lon="6.92409">
        <ele>1143</ele>
        <time>2026-05-09T12:48:23.257Z</time>
      </trkpt>
      <trkpt lat="47.93304" lon="6.9241">
        <ele>1143</ele>
        <time>2026-05-09T12:48:24.256Z</time>
      </trkpt>
      <trkpt lat="47.93306" lon="6.92412">
        <ele>1143</ele>
        <time>2026-05-09T12:48:25.257Z</time>
      </trkpt>
      <trkpt lat="47.93307" lon="6.92413">
        <ele>1143</ele>
        <time>2026-05-09T12:48:26.257Z</time>
      </trkpt>
      <trkpt lat="47.93309" lon="6.92415">
        <ele>1143</ele>
        <time>2026-05-09T12:48:27.257Z</time>
      </trkpt>
      <trkpt lat="47.93311" lon="6.92416">
        <ele>1143</ele>
        <time>2026-05-09T12:48:28.256Z</time>
      </trkpt>
      <trkpt lat="47.93312" lon="6.92417">
        <ele>1144</ele>
        <time>2026-05-09T12:48:29.257Z</time>
      </trkpt>
      <trkpt lat="47.93313" lon="6.92417">
        <ele>1144</ele>
        <time>2026-05-09T12:48:30.256Z</time>
      </trkpt>
      <trkpt lat="47.93314" lon="6.92417">
        <ele>1144</ele>
        <time>2026-05-09T12:48:31.257Z</time>
      </trkpt>
      <trkpt lat="47.93315" lon="6.92418">
        <ele>1144</ele>
        <time>2026-05-09T12:48:32.256Z</time>
      </trkpt>
      <trkpt lat="47.93316" lon="6.92418">
        <ele>1144</ele>
        <time>2026-05-09T12:48:33.257Z</time>
      </trkpt>
      <trkpt lat="47.93317" lon="6.92419">
        <ele>1143</ele>
        <time>2026-05-09T12:48:34.256Z</time>
      </trkpt>
      <trkpt lat="47.93319" lon="6.9242">
        <ele>1143</ele>
        <time>2026-05-09T12:48:35.257Z</time>
      </trkpt>
      <trkpt lat="47.9332" lon="6.9242">
        <ele>1143</ele>
        <time>2026-05-09T12:48:36.256Z</time>
      </trkpt>
      <trkpt lat="47.93321" lon="6.92421">
        <ele>1142</ele>
        <time>2026-05-09T12:48:37.257Z</time>
      </trkpt>
      <trkpt lat="47.93323" lon="6.92421">
        <ele>1142</ele>
        <time>2026-05-09T12:48:38.256Z</time>
      </trkpt>
      <trkpt lat="47.93324" lon="6.92423">
        <ele>1142</ele>
        <time>2026-05-09T12:48:39.256Z</time>
      </trkpt>
      <trkpt lat="47.93326" lon="6.92424">
        <ele>1142</ele>
        <time>2026-05-09T12:48:40.256Z</time>
      </trkpt>
      <trkpt lat="47.93328" lon="6.92425">
        <ele>1141</ele>
        <time>2026-05-09T12:48:41.257Z</time>
      </trkpt>
      <trkpt lat="47.93329" lon="6.92426">
        <ele>1141</ele>
        <time>2026-05-09T12:48:42.256Z</time>
      </trkpt>
      <trkpt lat="47.9333" lon="6.92428">
        <ele>1141</ele>
        <time>2026-05-09T12:48:43.257Z</time>
      </trkpt>
      <trkpt lat="47.93332" lon="6.92428">
        <ele>1140</ele>
        <time>2026-05-09T12:48:44.256Z</time>
      </trkpt>
      <trkpt lat="47.93333" lon="6.92429">
        <ele>1140</ele>
        <time>2026-05-09T12:48:45.257Z</time>
      </trkpt>
      <trkpt lat="47.93334" lon="6.9243">
        <ele>1139</ele>
        <time>2026-05-09T12:48:46.257Z</time>
      </trkpt>
      <trkpt lat="47.93335" lon="6.92431">
        <ele>1139</ele>
        <time>2026-05-09T12:48:47.257Z</time>
      </trkpt>
      <trkpt lat="47.93336" lon="6.92432">
        <ele>1138</ele>
        <time>2026-05-09T12:48:48.256Z</time>
      </trkpt>
      <trkpt lat="47.93337" lon="6.92433">
        <ele>1138</ele>
        <time>2026-05-09T12:48:49.257Z</time>
      </trkpt>
      <trkpt lat="47.93339" lon="6.92434">
        <ele>1138</ele>
        <time>2026-05-09T12:48:50.257Z</time>
      </trkpt>
      <trkpt lat="47.9334" lon="6.92435">
        <ele>1138</ele>
        <time>2026-05-09T12:48:51.256Z</time>
      </trkpt>
      <trkpt lat="47.93341" lon="6.92436">
        <ele>1137</ele>
        <time>2026-05-09T12:48:52.256Z</time>
      </trkpt>
      <trkpt lat="47.93342" lon="6.92436">
        <ele>1137</ele>
        <time>2026-05-09T12:48:53.257Z</time>
      </trkpt>
      <trkpt lat="47.93343" lon="6.92437">
        <ele>1137</ele>
        <time>2026-05-09T12:48:54.257Z</time>
      </trkpt>
      <trkpt lat="47.93345" lon="6.92438">
        <ele>1137</ele>
        <time>2026-05-09T12:48:55.256Z</time>
      </trkpt>
      <trkpt lat="47.93346" lon="6.92438">
        <ele>1137</ele>
        <time>2026-05-09T12:48:56.257Z</time>
      </trkpt>
      <trkpt lat="47.93347" lon="6.92439">
        <ele>1137</ele>
        <time>2026-05-09T12:48:57.257Z</time>
      </trkpt>
      <trkpt lat="47.93348" lon="6.9244">
        <ele>1137</ele>
        <time>2026-05-09T12:48:58.256Z</time>
      </trkpt>
      <trkpt lat="47.9335" lon="6.92441">
        <ele>1137</ele>
        <time>2026-05-09T12:48:59.257Z</time>
      </trkpt>
      <trkpt lat="47.93351" lon="6.92442">
        <ele>1137</ele>
        <time>2026-05-09T12:49:00.256Z</time>
      </trkpt>
      <trkpt lat="47.93352" lon="6.92443">
        <ele>1137</ele>
        <time>2026-05-09T12:49:01.257Z</time>
      </trkpt>
      <trkpt lat="47.93353" lon="6.92445">
        <ele>1136</ele>
        <time>2026-05-09T12:49:02.257Z</time>
      </trkpt>
      <trkpt lat="47.93354" lon="6.92446">
        <ele>1136</ele>
        <time>2026-05-09T12:49:03.256Z</time>
      </trkpt>
      <trkpt lat="47.93356" lon="6.92448">
        <ele>1136</ele>
        <time>2026-05-09T12:49:04.257Z</time>
      </trkpt>
      <trkpt lat="47.93358" lon="6.92449">
        <ele>1136</ele>
        <time>2026-05-09T12:49:05.256Z</time>
      </trkpt>
      <trkpt lat="47.93359" lon="6.92451">
        <ele>1136</ele>
        <time>2026-05-09T12:49:06.257Z</time>
      </trkpt>
      <trkpt lat="47.93361" lon="6.92452">
        <ele>1136</ele>
        <time>2026-05-09T12:49:07.256Z</time>
      </trkpt>
      <trkpt lat="47.93362" lon="6.92454">
        <ele>1136</ele>
        <time>2026-05-09T12:49:08.256Z</time>
      </trkpt>
      <trkpt lat="47.93364" lon="6.92455">
        <ele>1136</ele>
        <time>2026-05-09T12:49:09.256Z</time>
      </trkpt>
      <trkpt lat="47.93365" lon="6.92456">
        <ele>1136</ele>
        <time>2026-05-09T12:49:10.257Z</time>
      </trkpt>
      <trkpt lat="47.93366" lon="6.92457">
        <ele>1136</ele>
        <time>2026-05-09T12:49:11.256Z</time>
      </trkpt>
      <trkpt lat="47.93366" lon="6.92458">
        <ele>1136</ele>
        <time>2026-05-09T12:49:12.257Z</time>
      </trkpt>
      <trkpt lat="47.93367" lon="6.92459">
        <ele>1136</ele>
        <time>2026-05-09T12:49:13.256Z</time>
      </trkpt>
      <trkpt lat="47.93368" lon="6.9246">
        <ele>1135</ele>
        <time>2026-05-09T12:49:14.257Z</time>
      </trkpt>
      <trkpt lat="47.93369" lon="6.9246">
        <ele>1134</ele>
        <time>2026-05-09T12:49:15.256Z</time>
      </trkpt>
      <trkpt lat="47.9337" lon="6.92461">
        <ele>1134</ele>
        <time>2026-05-09T12:49:16.257Z</time>
      </trkpt>
      <trkpt lat="47.93371" lon="6.92462">
        <ele>1133</ele>
        <time>2026-05-09T12:49:17.256Z</time>
      </trkpt>
      <trkpt lat="47.93372" lon="6.92464">
        <ele>1133</ele>
        <time>2026-05-09T12:49:18.257Z</time>
      </trkpt>
      <trkpt lat="47.93374" lon="6.92465">
        <ele>1133</ele>
        <time>2026-05-09T12:49:19.256Z</time>
      </trkpt>
      <trkpt lat="47.93376" lon="6.92466">
        <ele>1133</ele>
        <time>2026-05-09T12:49:20.257Z</time>
      </trkpt>
      <trkpt lat="47.93378" lon="6.92467">
        <ele>1133</ele>
        <time>2026-05-09T12:49:21.256Z</time>
      </trkpt>
      <trkpt lat="47.93379" lon="6.92468">
        <ele>1133</ele>
        <time>2026-05-09T12:49:22.257Z</time>
      </trkpt>
      <trkpt lat="47.9338" lon="6.92469">
        <ele>1133</ele>
        <time>2026-05-09T12:49:23.256Z</time>
      </trkpt>
      <trkpt lat="47.93381" lon="6.9247">
        <ele>1133</ele>
        <time>2026-05-09T12:49:24.256Z</time>
      </trkpt>
      <trkpt lat="47.93382" lon="6.92471">
        <ele>1134</ele>
        <time>2026-05-09T12:49:25.257Z</time>
      </trkpt>
      <trkpt lat="47.93382" lon="6.92472">
        <ele>1134</ele>
        <time>2026-05-09T12:49:26.256Z</time>
      </trkpt>
      <trkpt lat="47.93383" lon="6.92473">
        <ele>1135</ele>
        <time>2026-05-09T12:49:27.257Z</time>
      </trkpt>
      <trkpt lat="47.93384" lon="6.92474">
        <ele>1135</ele>
        <time>2026-05-09T12:49:28.257Z</time>
      </trkpt>
      <trkpt lat="47.93386" lon="6.92475">
        <ele>1136</ele>
        <time>2026-05-09T12:49:29.257Z</time>
      </trkpt>
      <trkpt lat="47.93387" lon="6.92476">
        <ele>1136</ele>
        <time>2026-05-09T12:49:30.256Z</time>
      </trkpt>
      <trkpt lat="47.93388" lon="6.92477">
        <ele>1136</ele>
        <time>2026-05-09T12:49:31.256Z</time>
      </trkpt>
      <trkpt lat="47.93389" lon="6.92478">
        <ele>1136</ele>
        <time>2026-05-09T12:49:32.256Z</time>
      </trkpt>
      <trkpt lat="47.9339" lon="6.92478">
        <ele>1136</ele>
        <time>2026-05-09T12:49:33.256Z</time>
      </trkpt>
      <trkpt lat="47.93391" lon="6.92479">
        <ele>1136</ele>
        <time>2026-05-09T12:49:34.257Z</time>
      </trkpt>
      <trkpt lat="47.93391" lon="6.9248">
        <ele>1136</ele>
        <time>2026-05-09T12:49:35.256Z</time>
      </trkpt>
      <trkpt lat="47.93393" lon="6.92481">
        <ele>1136</ele>
        <time>2026-05-09T12:49:36.256Z</time>
      </trkpt>
      <trkpt lat="47.93393" lon="6.92483">
        <ele>1136</ele>
        <time>2026-05-09T12:49:37.257Z</time>
      </trkpt>
      <trkpt lat="47.93394" lon="6.92483">
        <ele>1137</ele>
        <time>2026-05-09T12:49:38.257Z</time>
      </trkpt>
      <trkpt lat="47.93395" lon="6.92484">
        <ele>1137</ele>
        <time>2026-05-09T12:49:39.257Z</time>
      </trkpt>
      <trkpt lat="47.93397" lon="6.92485">
        <ele>1137</ele>
        <time>2026-05-09T12:49:40.256Z</time>
      </trkpt>
      <trkpt lat="47.93398" lon="6.92486">
        <ele>1137</ele>
        <time>2026-05-09T12:49:41.257Z</time>
      </trkpt>
      <trkpt lat="47.934" lon="6.92487">
        <ele>1138</ele>
        <time>2026-05-09T12:49:42.257Z</time>
      </trkpt>
      <trkpt lat="47.93401" lon="6.92488">
        <ele>1138</ele>
        <time>2026-05-09T12:49:43.257Z</time>
      </trkpt>
      <trkpt lat="47.93403" lon="6.92488">
        <ele>1139</ele>
        <time>2026-05-09T12:49:44.256Z</time>
      </trkpt>
      <trkpt lat="47.93404" lon="6.92489">
        <ele>1139</ele>
        <time>2026-05-09T12:49:45.257Z</time>
      </trkpt>
      <trkpt lat="47.93405" lon="6.92489">
        <ele>1140</ele>
        <time>2026-05-09T12:49:46.257Z</time>
      </trkpt>
      <trkpt lat="47.93406" lon="6.9249">
        <ele>1140</ele>
        <time>2026-05-09T12:49:47.257Z</time>
      </trkpt>
      <trkpt lat="47.93407" lon="6.9249">
        <ele>1141</ele>
        <time>2026-05-09T12:49:48.256Z</time>
      </trkpt>
      <trkpt lat="47.93408" lon="6.92491">
        <ele>1141</ele>
        <time>2026-05-09T12:49:49.257Z</time>
      </trkpt>
      <trkpt lat="47.93409" lon="6.92491">
        <ele>1141</ele>
        <time>2026-05-09T12:49:50.256Z</time>
      </trkpt>
      <trkpt lat="47.93409" lon="6.92492">
        <ele>1142</ele>
        <time>2026-05-09T12:49:51.257Z</time>
      </trkpt>
      <trkpt lat="47.9341" lon="6.92493">
        <ele>1142</ele>
        <time>2026-05-09T12:49:52.256Z</time>
      </trkpt>
      <trkpt lat="47.93411" lon="6.92494">
        <ele>1142</ele>
        <time>2026-05-09T12:49:53.257Z</time>
      </trkpt>
      <trkpt lat="47.93412" lon="6.92494">
        <ele>1143</ele>
        <time>2026-05-09T12:49:54.257Z</time>
      </trkpt>
      <trkpt lat="47.93413" lon="6.92494">
        <ele>1143</ele>
        <time>2026-05-09T12:49:55.257Z</time>
      </trkpt>
      <trkpt lat="47.93414" lon="6.92495">
        <ele>1143</ele>
        <time>2026-05-09T12:49:56.256Z</time>
      </trkpt>
      <trkpt lat="47.93415" lon="6.92495">
        <ele>1143</ele>
        <time>2026-05-09T12:49:57.257Z</time>
      </trkpt>
      <trkpt lat="47.93416" lon="6.92496">
        <ele>1143</ele>
        <time>2026-05-09T12:49:58.257Z</time>
      </trkpt>
      <trkpt lat="47.93416" lon="6.92496">
        <ele>1142</ele>
        <time>2026-05-09T12:49:59.256Z</time>
      </trkpt>
      <trkpt lat="47.93417" lon="6.92495">
        <ele>1143</ele>
        <time>2026-05-09T12:50:00.257Z</time>
      </trkpt>
      <trkpt lat="47.93419" lon="6.92496">
        <ele>1143</ele>
        <time>2026-05-09T12:50:01.257Z</time>
      </trkpt>
      <trkpt lat="47.9342" lon="6.92496">
        <ele>1143</ele>
        <time>2026-05-09T12:50:02.256Z</time>
      </trkpt>
      <trkpt lat="47.93421" lon="6.92496">
        <ele>1142</ele>
        <time>2026-05-09T12:50:03.256Z</time>
      </trkpt>
      <trkpt lat="47.93422" lon="6.92496">
        <ele>1142</ele>
        <time>2026-05-09T12:50:04.256Z</time>
      </trkpt>
      <trkpt lat="47.93424" lon="6.92495">
        <ele>1142</ele>
        <time>2026-05-09T12:50:05.257Z</time>
      </trkpt>
      <trkpt lat="47.93424" lon="6.92495">
        <ele>1142</ele>
        <time>2026-05-09T12:50:06.256Z</time>
      </trkpt>
      <trkpt lat="47.93426" lon="6.92495">
        <ele>1142</ele>
        <time>2026-05-09T12:50:07.256Z</time>
      </trkpt>
      <trkpt lat="47.93426" lon="6.92496">
        <ele>1142</ele>
        <time>2026-05-09T12:50:08.257Z</time>
      </trkpt>
      <trkpt lat="47.93428" lon="6.92497">
        <ele>1141</ele>
        <time>2026-05-09T12:50:09.256Z</time>
      </trkpt>
      <trkpt lat="47.93429" lon="6.92497">
        <ele>1141</ele>
        <time>2026-05-09T12:50:10.257Z</time>
      </trkpt>
      <trkpt lat="47.93431" lon="6.92497">
        <ele>1141</ele>
        <time>2026-05-09T12:50:11.256Z</time>
      </trkpt>
      <trkpt lat="47.93432" lon="6.92498">
        <ele>1142</ele>
        <time>2026-05-09T12:50:12.256Z</time>
      </trkpt>
      <trkpt lat="47.93433" lon="6.92498">
        <ele>1142</ele>
        <time>2026-05-09T12:50:13.257Z</time>
      </trkpt>
      <trkpt lat="47.93434" lon="6.92498">
        <ele>1142</ele>
        <time>2026-05-09T12:50:14.256Z</time>
      </trkpt>
      <trkpt lat="47.93436" lon="6.92498">
        <ele>1143</ele>
        <time>2026-05-09T12:50:15.256Z</time>
      </trkpt>
      <trkpt lat="47.93437" lon="6.92498">
        <ele>1143</ele>
        <time>2026-05-09T12:50:16.256Z</time>
      </trkpt>
      <trkpt lat="47.93438" lon="6.92498">
        <ele>1143</ele>
        <time>2026-05-09T12:50:17.257Z</time>
      </trkpt>
      <trkpt lat="47.9344" lon="6.92499">
        <ele>1143</ele>
        <time>2026-05-09T12:50:18.256Z</time>
      </trkpt>
      <trkpt lat="47.93441" lon="6.92499">
        <ele>1143</ele>
        <time>2026-05-09T12:50:19.257Z</time>
      </trkpt>
      <trkpt lat="47.93442" lon="6.92498">
        <ele>1143</ele>
        <time>2026-05-09T12:50:20.256Z</time>
      </trkpt>
      <trkpt lat="47.93443" lon="6.92498">
        <ele>1143</ele>
        <time>2026-05-09T12:50:21.257Z</time>
      </trkpt>
      <trkpt lat="47.93445" lon="6.92498">
        <ele>1143</ele>
        <time>2026-05-09T12:50:22.256Z</time>
      </trkpt>
      <trkpt lat="47.93446" lon="6.92499">
        <ele>1144</ele>
        <time>2026-05-09T12:50:23.257Z</time>
      </trkpt>
      <trkpt lat="47.93447" lon="6.92499">
        <ele>1144</ele>
        <time>2026-05-09T12:50:24.257Z</time>
      </trkpt>
      <trkpt lat="47.93449" lon="6.92498">
        <ele>1144</ele>
        <time>2026-05-09T12:50:25.257Z</time>
      </trkpt>
      <trkpt lat="47.9345" lon="6.92499">
        <ele>1144</ele>
        <time>2026-05-09T12:50:26.257Z</time>
      </trkpt>
      <trkpt lat="47.93451" lon="6.92499">
        <ele>1145</ele>
        <time>2026-05-09T12:50:27.257Z</time>
      </trkpt>
      <trkpt lat="47.93453" lon="6.92498">
        <ele>1145</ele>
        <time>2026-05-09T12:50:28.256Z</time>
      </trkpt>
      <trkpt lat="47.93455" lon="6.92498">
        <ele>1145</ele>
        <time>2026-05-09T12:50:29.257Z</time>
      </trkpt>
      <trkpt lat="47.93456" lon="6.92497">
        <ele>1145</ele>
        <time>2026-05-09T12:50:30.257Z</time>
      </trkpt>
      <trkpt lat="47.93457" lon="6.92497">
        <ele>1144</ele>
        <time>2026-05-09T12:50:31.256Z</time>
      </trkpt>
      <trkpt lat="47.93458" lon="6.92497">
        <ele>1144</ele>
        <time>2026-05-09T12:50:32.256Z</time>
      </trkpt>
      <trkpt lat="47.93459" lon="6.92497">
        <ele>1144</ele>
        <time>2026-05-09T12:50:33.256Z</time>
      </trkpt>
      <trkpt lat="47.9346" lon="6.92496">
        <ele>1144</ele>
        <time>2026-05-09T12:50:34.256Z</time>
      </trkpt>
      <trkpt lat="47.93461" lon="6.92496">
        <ele>1144</ele>
        <time>2026-05-09T12:50:35.257Z</time>
      </trkpt>
      <trkpt lat="47.93463" lon="6.92493">
        <ele>1144</ele>
        <time>2026-05-09T12:50:36.257Z</time>
      </trkpt>
      <trkpt lat="47.93464" lon="6.92492">
        <ele>1144</ele>
        <time>2026-05-09T12:50:37.257Z</time>
      </trkpt>
      <trkpt lat="47.93465" lon="6.92491">
        <ele>1144</ele>
        <time>2026-05-09T12:50:38.257Z</time>
      </trkpt>
      <trkpt lat="47.93466" lon="6.92491">
        <ele>1144</ele>
        <time>2026-05-09T12:50:39.257Z</time>
      </trkpt>
      <trkpt lat="47.93468" lon="6.92491">
        <ele>1144</ele>
        <time>2026-05-09T12:50:40.257Z</time>
      </trkpt>
      <trkpt lat="47.93469" lon="6.92489">
        <ele>1144</ele>
        <time>2026-05-09T12:50:41.257Z</time>
      </trkpt>
      <trkpt lat="47.9347" lon="6.92488">
        <ele>1144</ele>
        <time>2026-05-09T12:50:42.257Z</time>
      </trkpt>
      <trkpt lat="47.93472" lon="6.92488">
        <ele>1145</ele>
        <time>2026-05-09T12:50:43.256Z</time>
      </trkpt>
      <trkpt lat="47.93473" lon="6.92488">
        <ele>1145</ele>
        <time>2026-05-09T12:50:44.257Z</time>
      </trkpt>
      <trkpt lat="47.93474" lon="6.92488">
        <ele>1145</ele>
        <time>2026-05-09T12:50:45.257Z</time>
      </trkpt>
      <trkpt lat="47.93476" lon="6.92487">
        <ele>1145</ele>
        <time>2026-05-09T12:50:46.257Z</time>
      </trkpt>
      <trkpt lat="47.93477" lon="6.92486">
        <ele>1145</ele>
        <time>2026-05-09T12:50:47.256Z</time>
      </trkpt>
      <trkpt lat="47.93479" lon="6.92487">
        <ele>1146</ele>
        <time>2026-05-09T12:50:48.256Z</time>
      </trkpt>
      <trkpt lat="47.93481" lon="6.92487">
        <ele>1146</ele>
        <time>2026-05-09T12:50:49.257Z</time>
      </trkpt>
      <trkpt lat="47.93482" lon="6.92486">
        <ele>1147</ele>
        <time>2026-05-09T12:50:50.257Z</time>
      </trkpt>
      <trkpt lat="47.93483" lon="6.92485">
        <ele>1147</ele>
        <time>2026-05-09T12:50:51.257Z</time>
      </trkpt>
      <trkpt lat="47.93485" lon="6.92485">
        <ele>1147</ele>
        <time>2026-05-09T12:50:52.257Z</time>
      </trkpt>
      <trkpt lat="47.93487" lon="6.92485">
        <ele>1148</ele>
        <time>2026-05-09T12:50:53.256Z</time>
      </trkpt>
      <trkpt lat="47.93488" lon="6.92484">
        <ele>1149</ele>
        <time>2026-05-09T12:50:54.256Z</time>
      </trkpt>
      <trkpt lat="47.9349" lon="6.92484">
        <ele>1149</ele>
        <time>2026-05-09T12:50:55.256Z</time>
      </trkpt>
      <trkpt lat="47.93491" lon="6.92484">
        <ele>1150</ele>
        <time>2026-05-09T12:50:56.256Z</time>
      </trkpt>
      <trkpt lat="47.93492" lon="6.92483">
        <ele>1150</ele>
        <time>2026-05-09T12:50:57.257Z</time>
      </trkpt>
      <trkpt lat="47.93494" lon="6.92483">
        <ele>1150</ele>
        <time>2026-05-09T12:50:58.257Z</time>
      </trkpt>
      <trkpt lat="47.93495" lon="6.92481">
        <ele>1150</ele>
        <time>2026-05-09T12:50:59.257Z</time>
      </trkpt>
      <trkpt lat="47.93496" lon="6.92481">
        <ele>1150</ele>
        <time>2026-05-09T12:51:00.256Z</time>
      </trkpt>
      <trkpt lat="47.93497" lon="6.9248">
        <ele>1150</ele>
        <time>2026-05-09T12:51:01.257Z</time>
      </trkpt>
      <trkpt lat="47.93499" lon="6.9248">
        <ele>1151</ele>
        <time>2026-05-09T12:51:02.256Z</time>
      </trkpt>
      <trkpt lat="47.935" lon="6.92479">
        <ele>1151</ele>
        <time>2026-05-09T12:51:03.256Z</time>
      </trkpt>
      <trkpt lat="47.93502" lon="6.92479">
        <ele>1151</ele>
        <time>2026-05-09T12:51:04.257Z</time>
      </trkpt>
      <trkpt lat="47.93503" lon="6.92479">
        <ele>1152</ele>
        <time>2026-05-09T12:51:05.257Z</time>
      </trkpt>
      <trkpt lat="47.93504" lon="6.92479">
        <ele>1152</ele>
        <time>2026-05-09T12:51:06.256Z</time>
      </trkpt>
      <trkpt lat="47.93505" lon="6.92479">
        <ele>1152</ele>
        <time>2026-05-09T12:51:07.256Z</time>
      </trkpt>
      <trkpt lat="47.93506" lon="6.92479">
        <ele>1152</ele>
        <time>2026-05-09T12:51:08.256Z</time>
      </trkpt>
      <trkpt lat="47.93507" lon="6.92479">
        <ele>1152</ele>
        <time>2026-05-09T12:51:09.257Z</time>
      </trkpt>
      <trkpt lat="47.93509" lon="6.92478">
        <ele>1151</ele>
        <time>2026-05-09T12:51:10.257Z</time>
      </trkpt>
      <trkpt lat="47.93511" lon="6.92478">
        <ele>1152</ele>
        <time>2026-05-09T12:51:11.256Z</time>
      </trkpt>
      <trkpt lat="47.93512" lon="6.92478">
        <ele>1152</ele>
        <time>2026-05-09T12:51:12.257Z</time>
      </trkpt>
      <trkpt lat="47.93514" lon="6.92478">
        <ele>1152</ele>
        <time>2026-05-09T12:51:13.257Z</time>
      </trkpt>
      <trkpt lat="47.93516" lon="6.92478">
        <ele>1152</ele>
        <time>2026-05-09T12:51:14.257Z</time>
      </trkpt>
      <trkpt lat="47.93517" lon="6.92477">
        <ele>1151</ele>
        <time>2026-05-09T12:51:15.256Z</time>
      </trkpt>
      <trkpt lat="47.93519" lon="6.92477">
        <ele>1151</ele>
        <time>2026-05-09T12:51:16.257Z</time>
      </trkpt>
      <trkpt lat="47.9352" lon="6.92477">
        <ele>1150</ele>
        <time>2026-05-09T12:51:17.256Z</time>
      </trkpt>
      <trkpt lat="47.93522" lon="6.92477">
        <ele>1150</ele>
        <time>2026-05-09T12:51:18.257Z</time>
      </trkpt>
      <trkpt lat="47.93523" lon="6.92477">
        <ele>1149</ele>
        <time>2026-05-09T12:51:19.257Z</time>
      </trkpt>
      <trkpt lat="47.93524" lon="6.92476">
        <ele>1149</ele>
        <time>2026-05-09T12:51:20.256Z</time>
      </trkpt>
      <trkpt lat="47.93526" lon="6.92476">
        <ele>1148</ele>
        <time>2026-05-09T12:51:21.257Z</time>
      </trkpt>
      <trkpt lat="47.93527" lon="6.92476">
        <ele>1147</ele>
        <time>2026-05-09T12:51:22.256Z</time>
      </trkpt>
      <trkpt lat="47.93529" lon="6.92476">
        <ele>1146</ele>
        <time>2026-05-09T12:51:23.256Z</time>
      </trkpt>
      <trkpt lat="47.93531" lon="6.92476">
        <ele>1146</ele>
        <time>2026-05-09T12:51:24.257Z</time>
      </trkpt>
      <trkpt lat="47.93533" lon="6.92476">
        <ele>1146</ele>
        <time>2026-05-09T12:51:25.257Z</time>
      </trkpt>
      <trkpt lat="47.93534" lon="6.92477">
        <ele>1146</ele>
        <time>2026-05-09T12:51:26.257Z</time>
      </trkpt>
      <trkpt lat="47.93536" lon="6.92478">
        <ele>1146</ele>
        <time>2026-05-09T12:51:27.256Z</time>
      </trkpt>
      <trkpt lat="47.93537" lon="6.92478">
        <ele>1145</ele>
        <time>2026-05-09T12:51:28.256Z</time>
      </trkpt>
      <trkpt lat="47.93538" lon="6.92478">
        <ele>1145</ele>
        <time>2026-05-09T12:51:29.256Z</time>
      </trkpt>
      <trkpt lat="47.93539" lon="6.92478">
        <ele>1145</ele>
        <time>2026-05-09T12:51:30.257Z</time>
      </trkpt>
      <trkpt lat="47.9354" lon="6.92478">
        <ele>1145</ele>
        <time>2026-05-09T12:51:31.257Z</time>
      </trkpt>
      <trkpt lat="47.93541" lon="6.92478">
        <ele>1145</ele>
        <time>2026-05-09T12:51:32.256Z</time>
      </trkpt>
      <trkpt lat="47.93543" lon="6.92478">
        <ele>1145</ele>
        <time>2026-05-09T12:51:33.257Z</time>
      </trkpt>
      <trkpt lat="47.93544" lon="6.92478">
        <ele>1144</ele>
        <time>2026-05-09T12:51:34.257Z</time>
      </trkpt>
      <trkpt lat="47.93545" lon="6.92478">
        <ele>1144</ele>
        <time>2026-05-09T12:51:35.256Z</time>
      </trkpt>
      <trkpt lat="47.93547" lon="6.92479">
        <ele>1144</ele>
        <time>2026-05-09T12:51:36.256Z</time>
      </trkpt>
      <trkpt lat="47.93548" lon="6.92479">
        <ele>1144</ele>
        <time>2026-05-09T12:51:37.256Z</time>
      </trkpt>
      <trkpt lat="47.9355" lon="6.9248">
        <ele>1143</ele>
        <time>2026-05-09T12:51:38.257Z</time>
      </trkpt>
      <trkpt lat="47.93551" lon="6.9248">
        <ele>1143</ele>
        <time>2026-05-09T12:51:39.257Z</time>
      </trkpt>
      <trkpt lat="47.93552" lon="6.9248">
        <ele>1143</ele>
        <time>2026-05-09T12:51:40.256Z</time>
      </trkpt>
      <trkpt lat="47.93554" lon="6.92479">
        <ele>1143</ele>
        <time>2026-05-09T12:51:41.256Z</time>
      </trkpt>
      <trkpt lat="47.93555" lon="6.92479">
        <ele>1144</ele>
        <time>2026-05-09T12:51:42.257Z</time>
      </trkpt>
      <trkpt lat="47.93557" lon="6.92479">
        <ele>1144</ele>
        <time>2026-05-09T12:51:43.257Z</time>
      </trkpt>
      <trkpt lat="47.93558" lon="6.92478">
        <ele>1144</ele>
        <time>2026-05-09T12:51:44.257Z</time>
      </trkpt>
      <trkpt lat="47.93559" lon="6.92478">
        <ele>1144</ele>
        <time>2026-05-09T12:51:45.256Z</time>
      </trkpt>
      <trkpt lat="47.93561" lon="6.92478">
        <ele>1143</ele>
        <time>2026-05-09T12:51:46.256Z</time>
      </trkpt>
      <trkpt lat="47.93563" lon="6.92479">
        <ele>1143</ele>
        <time>2026-05-09T12:51:47.256Z</time>
      </trkpt>
      <trkpt lat="47.93565" lon="6.9248">
        <ele>1143</ele>
        <time>2026-05-09T12:51:48.256Z</time>
      </trkpt>
      <trkpt lat="47.93567" lon="6.9248">
        <ele>1143</ele>
        <time>2026-05-09T12:51:49.257Z</time>
      </trkpt>
      <trkpt lat="47.93568" lon="6.92479">
        <ele>1143</ele>
        <time>2026-05-09T12:51:50.257Z</time>
      </trkpt>
      <trkpt lat="47.9357" lon="6.92479">
        <ele>1143</ele>
        <time>2026-05-09T12:51:51.256Z</time>
      </trkpt>
      <trkpt lat="47.93572" lon="6.92478">
        <ele>1143</ele>
        <time>2026-05-09T12:51:52.257Z</time>
      </trkpt>
      <trkpt lat="47.93573" lon="6.92477">
        <ele>1143</ele>
        <time>2026-05-09T12:51:53.257Z</time>
      </trkpt>
      <trkpt lat="47.93575" lon="6.92476">
        <ele>1143</ele>
        <time>2026-05-09T12:51:54.256Z</time>
      </trkpt>
      <trkpt lat="47.93577" lon="6.92475">
        <ele>1144</ele>
        <time>2026-05-09T12:51:55.256Z</time>
      </trkpt>
      <trkpt lat="47.93578" lon="6.92474">
        <ele>1144</ele>
        <time>2026-05-09T12:51:56.257Z</time>
      </trkpt>
      <trkpt lat="47.9358" lon="6.92473">
        <ele>1144</ele>
        <time>2026-05-09T12:51:57.256Z</time>
      </trkpt>
      <trkpt lat="47.93582" lon="6.92471">
        <ele>1145</ele>
        <time>2026-05-09T12:51:58.257Z</time>
      </trkpt>
      <trkpt lat="47.93584" lon="6.9247">
        <ele>1145</ele>
        <time>2026-05-09T12:51:59.256Z</time>
      </trkpt>
      <trkpt lat="47.93585" lon="6.92469">
        <ele>1146</ele>
        <time>2026-05-09T12:52:00.256Z</time>
      </trkpt>
      <trkpt lat="47.93587" lon="6.92469">
        <ele>1147</ele>
        <time>2026-05-09T12:52:01.257Z</time>
      </trkpt>
      <trkpt lat="47.93588" lon="6.92468">
        <ele>1147</ele>
        <time>2026-05-09T12:52:02.256Z</time>
      </trkpt>
      <trkpt lat="47.93588" lon="6.92468">
        <ele>1147</ele>
        <time>2026-05-09T12:52:03.257Z</time>
      </trkpt>
      <trkpt lat="47.93589" lon="6.92468">
        <ele>1148</ele>
        <time>2026-05-09T12:52:04.256Z</time>
      </trkpt>
      <trkpt lat="47.9359" lon="6.92467">
        <ele>1148</ele>
        <time>2026-05-09T12:52:05.257Z</time>
      </trkpt>
      <trkpt lat="47.93591" lon="6.92467">
        <ele>1148</ele>
        <time>2026-05-09T12:52:06.257Z</time>
      </trkpt>
      <trkpt lat="47.93593" lon="6.92467">
        <ele>1148</ele>
        <time>2026-05-09T12:52:07.257Z</time>
      </trkpt>
      <trkpt lat="47.93595" lon="6.92466">
        <ele>1149</ele>
        <time>2026-05-09T12:52:08.256Z</time>
      </trkpt>
      <trkpt lat="47.93597" lon="6.92466">
        <ele>1149</ele>
        <time>2026-05-09T12:52:09.257Z</time>
      </trkpt>
      <trkpt lat="47.93597" lon="6.92466">
        <ele>1150</ele>
        <time>2026-05-09T12:52:10.257Z</time>
      </trkpt>
      <trkpt lat="47.93598" lon="6.92465">
        <ele>1150</ele>
        <time>2026-05-09T12:52:11.256Z</time>
      </trkpt>
      <trkpt lat="47.93599" lon="6.92464">
        <ele>1150</ele>
        <time>2026-05-09T12:52:12.257Z</time>
      </trkpt>
      <trkpt lat="47.936" lon="6.92464">
        <ele>1150</ele>
        <time>2026-05-09T12:52:13.256Z</time>
      </trkpt>
      <trkpt lat="47.93601" lon="6.92464">
        <ele>1150</ele>
        <time>2026-05-09T12:52:14.256Z</time>
      </trkpt>
      <trkpt lat="47.93603" lon="6.92464">
        <ele>1151</ele>
        <time>2026-05-09T12:52:15.257Z</time>
      </trkpt>
      <trkpt lat="47.93605" lon="6.92463">
        <ele>1150</ele>
        <time>2026-05-09T12:52:16.257Z</time>
      </trkpt>
      <trkpt lat="47.93607" lon="6.92463">
        <ele>1150</ele>
        <time>2026-05-09T12:52:17.256Z</time>
      </trkpt>
      <trkpt lat="47.93609" lon="6.92463">
        <ele>1150</ele>
        <time>2026-05-09T12:52:18.257Z</time>
      </trkpt>
      <trkpt lat="47.9361" lon="6.92463">
        <ele>1150</ele>
        <time>2026-05-09T12:52:19.256Z</time>
      </trkpt>
      <trkpt lat="47.93612" lon="6.92462">
        <ele>1149</ele>
        <time>2026-05-09T12:52:20.257Z</time>
      </trkpt>
      <trkpt lat="47.93613" lon="6.92461">
        <ele>1149</ele>
        <time>2026-05-09T12:52:21.256Z</time>
      </trkpt>
      <trkpt lat="47.93615" lon="6.92461">
        <ele>1148</ele>
        <time>2026-05-09T12:52:22.257Z</time>
      </trkpt>
      <trkpt lat="47.93616" lon="6.9246">
        <ele>1148</ele>
        <time>2026-05-09T12:52:23.257Z</time>
      </trkpt>
      <trkpt lat="47.93618" lon="6.92459">
        <ele>1148</ele>
        <time>2026-05-09T12:52:24.257Z</time>
      </trkpt>
      <trkpt lat="47.93619" lon="6.92459">
        <ele>1147</ele>
        <time>2026-05-09T12:52:25.256Z</time>
      </trkpt>
      <trkpt lat="47.9362" lon="6.92458">
        <ele>1146</ele>
        <time>2026-05-09T12:52:26.256Z</time>
      </trkpt>
      <trkpt lat="47.93621" lon="6.92457">
        <ele>1146</ele>
        <time>2026-05-09T12:52:27.257Z</time>
      </trkpt>
      <trkpt lat="47.93622" lon="6.92455">
        <ele>1145</ele>
        <time>2026-05-09T12:52:28.257Z</time>
      </trkpt>
      <trkpt lat="47.93623" lon="6.92452">
        <ele>1144</ele>
        <time>2026-05-09T12:52:29.256Z</time>
      </trkpt>
      <trkpt lat="47.93624" lon="6.92451">
        <ele>1144</ele>
        <time>2026-05-09T12:52:30.257Z</time>
      </trkpt>
      <trkpt lat="47.93626" lon="6.9245">
        <ele>1143</ele>
        <time>2026-05-09T12:52:31.257Z</time>
      </trkpt>
      <trkpt lat="47.93627" lon="6.92449">
        <ele>1143</ele>
        <time>2026-05-09T12:52:32.256Z</time>
      </trkpt>
      <trkpt lat="47.93628" lon="6.92447">
        <ele>1143</ele>
        <time>2026-05-09T12:52:33.257Z</time>
      </trkpt>
      <trkpt lat="47.93629" lon="6.92445">
        <ele>1142</ele>
        <time>2026-05-09T12:52:34.256Z</time>
      </trkpt>
      <trkpt lat="47.9363" lon="6.92443">
        <ele>1142</ele>
        <time>2026-05-09T12:52:35.256Z</time>
      </trkpt>
      <trkpt lat="47.93631" lon="6.92441">
        <ele>1141</ele>
        <time>2026-05-09T12:52:36.257Z</time>
      </trkpt>
      <trkpt lat="47.93632" lon="6.92439">
        <ele>1140</ele>
        <time>2026-05-09T12:52:37.257Z</time>
      </trkpt>
      <trkpt lat="47.93632" lon="6.92437">
        <ele>1139</ele>
        <time>2026-05-09T12:52:38.256Z</time>
      </trkpt>
      <trkpt lat="47.93633" lon="6.92435">
        <ele>1138</ele>
        <time>2026-05-09T12:52:39.257Z</time>
      </trkpt>
      <trkpt lat="47.93634" lon="6.92433">
        <ele>1138</ele>
        <time>2026-05-09T12:52:40.256Z</time>
      </trkpt>
      <trkpt lat="47.93635" lon="6.92431">
        <ele>1137</ele>
        <time>2026-05-09T12:52:41.256Z</time>
      </trkpt>
      <trkpt lat="47.93636" lon="6.92429">
        <ele>1136</ele>
        <time>2026-05-09T12:52:42.257Z</time>
      </trkpt>
      <trkpt lat="47.93636" lon="6.92427">
        <ele>1135</ele>
        <time>2026-05-09T12:52:43.256Z</time>
      </trkpt>
      <trkpt lat="47.93637" lon="6.92424">
        <ele>1135</ele>
        <time>2026-05-09T12:52:44.256Z</time>
      </trkpt>
      <trkpt lat="47.93637" lon="6.92422">
        <ele>1134</ele>
        <time>2026-05-09T12:52:45.257Z</time>
      </trkpt>
      <trkpt lat="47.93638" lon="6.92419">
        <ele>1134</ele>
        <time>2026-05-09T12:52:46.257Z</time>
      </trkpt>
      <trkpt lat="47.93639" lon="6.92417">
        <ele>1133</ele>
        <time>2026-05-09T12:52:47.256Z</time>
      </trkpt>
      <trkpt lat="47.9364" lon="6.92414">
        <ele>1133</ele>
        <time>2026-05-09T12:52:48.257Z</time>
      </trkpt>
      <trkpt lat="47.93641" lon="6.92412">
        <ele>1133</ele>
        <time>2026-05-09T12:52:49.257Z</time>
      </trkpt>
      <trkpt lat="47.93643" lon="6.92408">
        <ele>1132</ele>
        <time>2026-05-09T12:52:50.256Z</time>
      </trkpt>
      <trkpt lat="47.93644" lon="6.92404">
        <ele>1132</ele>
        <time>2026-05-09T12:52:51.257Z</time>
      </trkpt>
      <trkpt lat="47.93645" lon="6.92401">
        <ele>1131</ele>
        <time>2026-05-09T12:52:52.257Z</time>
      </trkpt>
      <trkpt lat="47.93646" lon="6.92398">
        <ele>1131</ele>
        <time>2026-05-09T12:52:53.256Z</time>
      </trkpt>
      <trkpt lat="47.93648" lon="6.92395">
        <ele>1130</ele>
        <time>2026-05-09T12:52:54.257Z</time>
      </trkpt>
      <trkpt lat="47.93649" lon="6.92393">
        <ele>1130</ele>
        <time>2026-05-09T12:52:55.256Z</time>
      </trkpt>
      <trkpt lat="47.9365" lon="6.92391">
        <ele>1130</ele>
        <time>2026-05-09T12:52:56.257Z</time>
      </trkpt>
      <trkpt lat="47.93651" lon="6.92389">
        <ele>1129</ele>
        <time>2026-05-09T12:52:57.257Z</time>
      </trkpt>
      <trkpt lat="47.93652" lon="6.92388">
        <ele>1129</ele>
        <time>2026-05-09T12:52:58.256Z</time>
      </trkpt>
      <trkpt lat="47.93652" lon="6.92387">
        <ele>1128</ele>
        <time>2026-05-09T12:52:59.256Z</time>
      </trkpt>
      <trkpt lat="47.93652" lon="6.92387">
        <ele>1128</ele>
        <time>2026-05-09T12:53:00.257Z</time>
      </trkpt>
      <trkpt lat="47.93653" lon="6.92387">
        <ele>1127</ele>
        <time>2026-05-09T12:53:01.256Z</time>
      </trkpt>
      <trkpt lat="47.93653" lon="6.92386">
        <ele>1127</ele>
        <time>2026-05-09T12:53:02.256Z</time>
      </trkpt>
      <trkpt lat="47.93653" lon="6.92384">
        <ele>1127</ele>
        <time>2026-05-09T12:53:03.256Z</time>
      </trkpt>
      <trkpt lat="47.93655" lon="6.92382">
        <ele>1127</ele>
        <time>2026-05-09T12:53:04.257Z</time>
      </trkpt>
      <trkpt lat="47.93657" lon="6.9238">
        <ele>1127</ele>
        <time>2026-05-09T12:53:05.257Z</time>
      </trkpt>
      <trkpt lat="47.93658" lon="6.92379">
        <ele>1127</ele>
        <time>2026-05-09T12:53:06.256Z</time>
      </trkpt>
      <trkpt lat="47.9366" lon="6.92379">
        <ele>1127</ele>
        <time>2026-05-09T12:53:07.256Z</time>
      </trkpt>
      <trkpt lat="47.93661" lon="6.92378">
        <ele>1127</ele>
        <time>2026-05-09T12:53:08.257Z</time>
      </trkpt>
      <trkpt lat="47.93662" lon="6.92378">
        <ele>1127</ele>
        <time>2026-05-09T12:53:09.257Z</time>
      </trkpt>
      <trkpt lat="47.93663" lon="6.92378">
        <ele>1127</ele>
        <time>2026-05-09T12:53:10.256Z</time>
      </trkpt>
      <trkpt lat="47.93664" lon="6.92378">
        <ele>1127</ele>
        <time>2026-05-09T12:53:11.256Z</time>
      </trkpt>
      <trkpt lat="47.93665" lon="6.92377">
        <ele>1127</ele>
        <time>2026-05-09T12:53:12.257Z</time>
      </trkpt>
      <trkpt lat="47.93665" lon="6.92376">
        <ele>1126</ele>
        <time>2026-05-09T12:53:13.256Z</time>
      </trkpt>
      <trkpt lat="47.93665" lon="6.92375">
        <ele>1126</ele>
        <time>2026-05-09T12:53:14.256Z</time>
      </trkpt>
      <trkpt lat="47.93665" lon="6.92375">
        <ele>1126</ele>
        <time>2026-05-09T12:53:15.256Z</time>
      </trkpt>
      <trkpt lat="47.93665" lon="6.92373">
        <ele>1126</ele>
        <time>2026-05-09T12:53:16.256Z</time>
      </trkpt>
      <trkpt lat="47.93665" lon="6.92372">
        <ele>1126</ele>
        <time>2026-05-09T12:53:17.256Z</time>
      </trkpt>
      <trkpt lat="47.93664" lon="6.92371">
        <ele>1126</ele>
        <time>2026-05-09T12:53:18.257Z</time>
      </trkpt>
      <trkpt lat="47.93664" lon="6.92369">
        <ele>1125</ele>
        <time>2026-05-09T12:53:19.257Z</time>
      </trkpt>
      <trkpt lat="47.93663" lon="6.92367">
        <ele>1125</ele>
        <time>2026-05-09T12:53:20.257Z</time>
      </trkpt>
      <trkpt lat="47.93663" lon="6.92365">
        <ele>1125</ele>
        <time>2026-05-09T12:53:21.256Z</time>
      </trkpt>
      <trkpt lat="47.93662" lon="6.92363">
        <ele>1125</ele>
        <time>2026-05-09T12:53:22.257Z</time>
      </trkpt>
      <trkpt lat="47.93661" lon="6.92361">
        <ele>1124</ele>
        <time>2026-05-09T12:53:23.257Z</time>
      </trkpt>
      <trkpt lat="47.9366" lon="6.9236">
        <ele>1124</ele>
        <time>2026-05-09T12:53:24.256Z</time>
      </trkpt>
      <trkpt lat="47.9366" lon="6.92358">
        <ele>1124</ele>
        <time>2026-05-09T12:53:25.256Z</time>
      </trkpt>
      <trkpt lat="47.93659" lon="6.92357">
        <ele>1124</ele>
        <time>2026-05-09T12:53:26.257Z</time>
      </trkpt>
      <trkpt lat="47.93658" lon="6.92356">
        <ele>1124</ele>
        <time>2026-05-09T12:53:27.257Z</time>
      </trkpt>
      <trkpt lat="47.93657" lon="6.92355">
        <ele>1124</ele>
        <time>2026-05-09T12:53:28.256Z</time>
      </trkpt>
      <trkpt lat="47.93657" lon="6.92352">
        <ele>1124</ele>
        <time>2026-05-09T12:53:29.256Z</time>
      </trkpt>
      <trkpt lat="47.93657" lon="6.92351">
        <ele>1124</ele>
        <time>2026-05-09T12:53:30.257Z</time>
      </trkpt>
      <trkpt lat="47.93657" lon="6.9235">
        <ele>1124</ele>
        <time>2026-05-09T12:53:31.256Z</time>
      </trkpt>
      <trkpt lat="47.93657" lon="6.92349">
        <ele>1123</ele>
        <time>2026-05-09T12:53:32.256Z</time>
      </trkpt>
      <trkpt lat="47.93656" lon="6.92347">
        <ele>1123</ele>
        <time>2026-05-09T12:53:33.257Z</time>
      </trkpt>
      <trkpt lat="47.93656" lon="6.92344">
        <ele>1123</ele>
        <time>2026-05-09T12:53:34.257Z</time>
      </trkpt>
      <trkpt lat="47.93657" lon="6.92342">
        <ele>1123</ele>
        <time>2026-05-09T12:53:35.257Z</time>
      </trkpt>
      <trkpt lat="47.93658" lon="6.92341">
        <ele>1123</ele>
        <time>2026-05-09T12:53:36.256Z</time>
      </trkpt>
      <trkpt lat="47.93659" lon="6.92341">
        <ele>1123</ele>
        <time>2026-05-09T12:53:37.257Z</time>
      </trkpt>
      <trkpt lat="47.93661" lon="6.92342">
        <ele>1123</ele>
        <time>2026-05-09T12:53:38.257Z</time>
      </trkpt>
      <trkpt lat="47.93663" lon="6.92343">
        <ele>1123</ele>
        <time>2026-05-09T12:53:39.256Z</time>
      </trkpt>
      <trkpt lat="47.93664" lon="6.92344">
        <ele>1123</ele>
        <time>2026-05-09T12:53:40.257Z</time>
      </trkpt>
      <trkpt lat="47.93665" lon="6.92344">
        <ele>1123</ele>
        <time>2026-05-09T12:53:41.257Z</time>
      </trkpt>
      <trkpt lat="47.93666" lon="6.92345">
        <ele>1123</ele>
        <time>2026-05-09T12:53:42.256Z</time>
      </trkpt>
      <trkpt lat="47.93667" lon="6.92345">
        <ele>1123</ele>
        <time>2026-05-09T12:53:43.256Z</time>
      </trkpt>
      <trkpt lat="47.93668" lon="6.92346">
        <ele>1122</ele>
        <time>2026-05-09T12:53:44.257Z</time>
      </trkpt>
      <trkpt lat="47.93669" lon="6.92346">
        <ele>1122</ele>
        <time>2026-05-09T12:53:45.256Z</time>
      </trkpt>
      <trkpt lat="47.9367" lon="6.92347">
        <ele>1122</ele>
        <time>2026-05-09T12:53:46.257Z</time>
      </trkpt>
      <trkpt lat="47.93671" lon="6.92347">
        <ele>1122</ele>
        <time>2026-05-09T12:53:47.257Z</time>
      </trkpt>
      <trkpt lat="47.93672" lon="6.92347">
        <ele>1122</ele>
        <time>2026-05-09T12:53:48.256Z</time>
      </trkpt>
      <trkpt lat="47.93672" lon="6.92348">
        <ele>1121</ele>
        <time>2026-05-09T12:53:49.257Z</time>
      </trkpt>
      <trkpt lat="47.93673" lon="6.92348">
        <ele>1121</ele>
        <time>2026-05-09T12:53:50.257Z</time>
      </trkpt>
      <trkpt lat="47.93673" lon="6.92348">
        <ele>1121</ele>
        <time>2026-05-09T12:53:51.257Z</time>
      </trkpt>
      <trkpt lat="47.93675" lon="6.92348">
        <ele>1120</ele>
        <time>2026-05-09T12:53:52.256Z</time>
      </trkpt>
      <trkpt lat="47.93677" lon="6.92349">
        <ele>1120</ele>
        <time>2026-05-09T12:53:53.257Z</time>
      </trkpt>
      <trkpt lat="47.93679" lon="6.9235">
        <ele>1120</ele>
        <time>2026-05-09T12:53:54.257Z</time>
      </trkpt>
      <trkpt lat="47.93681" lon="6.92351">
        <ele>1120</ele>
        <time>2026-05-09T12:53:55.256Z</time>
      </trkpt>
      <trkpt lat="47.93682" lon="6.92352">
        <ele>1119</ele>
        <time>2026-05-09T12:53:56.257Z</time>
      </trkpt>
      <trkpt lat="47.93683" lon="6.92353">
        <ele>1118</ele>
        <time>2026-05-09T12:53:57.257Z</time>
      </trkpt>
      <trkpt lat="47.93685" lon="6.92354">
        <ele>1118</ele>
        <time>2026-05-09T12:53:58.257Z</time>
      </trkpt>
      <trkpt lat="47.93686" lon="6.92355">
        <ele>1117</ele>
        <time>2026-05-09T12:53:59.256Z</time>
      </trkpt>
      <trkpt lat="47.93686" lon="6.92355">
        <ele>1117</ele>
        <time>2026-05-09T12:54:00.256Z</time>
      </trkpt>
      <trkpt lat="47.93687" lon="6.92357">
        <ele>1117</ele>
        <time>2026-05-09T12:54:01.256Z</time>
      </trkpt>
      <trkpt lat="47.93688" lon="6.92358">
        <ele>1116</ele>
        <time>2026-05-09T12:54:02.256Z</time>
      </trkpt>
      <trkpt lat="47.93688" lon="6.9236">
        <ele>1116</ele>
        <time>2026-05-09T12:54:03.257Z</time>
      </trkpt>
      <trkpt lat="47.93689" lon="6.92361">
        <ele>1116</ele>
        <time>2026-05-09T12:54:04.256Z</time>
      </trkpt>
      <trkpt lat="47.9369" lon="6.92363">
        <ele>1116</ele>
        <time>2026-05-09T12:54:05.257Z</time>
      </trkpt>
      <trkpt lat="47.9369" lon="6.92363">
        <ele>1115</ele>
        <time>2026-05-09T12:54:06.257Z</time>
      </trkpt>
      <trkpt lat="47.9369" lon="6.92364">
        <ele>1115</ele>
        <time>2026-05-09T12:54:07.257Z</time>
      </trkpt>
      <trkpt lat="47.93691" lon="6.92364">
        <ele>1115</ele>
        <time>2026-05-09T12:54:08.256Z</time>
      </trkpt>
      <trkpt lat="47.93691" lon="6.92363">
        <ele>1115</ele>
        <time>2026-05-09T12:54:09.257Z</time>
      </trkpt>
      <trkpt lat="47.93691" lon="6.92363">
        <ele>1114</ele>
        <time>2026-05-09T12:54:10.256Z</time>
      </trkpt>
      <trkpt lat="47.9369" lon="6.92362">
        <ele>1114</ele>
        <time>2026-05-09T12:54:11.256Z</time>
      </trkpt>
      <trkpt lat="47.9369" lon="6.9236">
        <ele>1114</ele>
        <time>2026-05-09T12:54:12.256Z</time>
      </trkpt>
      <trkpt lat="47.9369" lon="6.92359">
        <ele>1114</ele>
        <time>2026-05-09T12:54:13.256Z</time>
      </trkpt>
      <trkpt lat="47.9369" lon="6.92358">
        <ele>1113</ele>
        <time>2026-05-09T12:54:14.256Z</time>
      </trkpt>
      <trkpt lat="47.9369" lon="6.92358">
        <ele>1113</ele>
        <time>2026-05-09T12:54:15.256Z</time>
      </trkpt>
      <trkpt lat="47.9369" lon="6.92357">
        <ele>1113</ele>
        <time>2026-05-09T12:54:16.257Z</time>
      </trkpt>
      <trkpt lat="47.93689" lon="6.92357">
        <ele>1112</ele>
        <time>2026-05-09T12:54:17.256Z</time>
      </trkpt>
      <trkpt lat="47.93689" lon="6.92357">
        <ele>1112</ele>
        <time>2026-05-09T12:54:18.256Z</time>
      </trkpt>
      <trkpt lat="47.93689" lon="6.92355">
        <ele>1112</ele>
        <time>2026-05-09T12:54:19.257Z</time>
      </trkpt>
      <trkpt lat="47.93689" lon="6.92353">
        <ele>1113</ele>
        <time>2026-05-09T12:54:20.256Z</time>
      </trkpt>
      <trkpt lat="47.93689" lon="6.92352">
        <ele>1113</ele>
        <time>2026-05-09T12:54:21.257Z</time>
      </trkpt>
      <trkpt lat="47.93689" lon="6.9235">
        <ele>1113</ele>
        <time>2026-05-09T12:54:22.256Z</time>
      </trkpt>
      <trkpt lat="47.93688" lon="6.92349">
        <ele>1113</ele>
        <time>2026-05-09T12:54:23.256Z</time>
      </trkpt>
      <trkpt lat="47.93688" lon="6.92348">
        <ele>1113</ele>
        <time>2026-05-09T12:54:24.257Z</time>
      </trkpt>
      <trkpt lat="47.93687" lon="6.92346">
        <ele>1113</ele>
        <time>2026-05-09T12:54:25.256Z</time>
      </trkpt>
      <trkpt lat="47.93686" lon="6.92343">
        <ele>1113</ele>
        <time>2026-05-09T12:54:26.256Z</time>
      </trkpt>
      <trkpt lat="47.93686" lon="6.92341">
        <ele>1112</ele>
        <time>2026-05-09T12:54:27.256Z</time>
      </trkpt>
      <trkpt lat="47.93686" lon="6.92338">
        <ele>1112</ele>
        <time>2026-05-09T12:54:28.257Z</time>
      </trkpt>
      <trkpt lat="47.93685" lon="6.92337">
        <ele>1112</ele>
        <time>2026-05-09T12:54:29.256Z</time>
      </trkpt>
      <trkpt lat="47.93685" lon="6.92336">
        <ele>1112</ele>
        <time>2026-05-09T12:54:30.257Z</time>
      </trkpt>
      <trkpt lat="47.93685" lon="6.92334">
        <ele>1111</ele>
        <time>2026-05-09T12:54:31.256Z</time>
      </trkpt>
      <trkpt lat="47.93685" lon="6.92332">
        <ele>1111</ele>
        <time>2026-05-09T12:54:32.256Z</time>
      </trkpt>
      <trkpt lat="47.93685" lon="6.9233">
        <ele>1111</ele>
        <time>2026-05-09T12:54:33.257Z</time>
      </trkpt>
      <trkpt lat="47.93685" lon="6.92328">
        <ele>1111</ele>
        <time>2026-05-09T12:54:34.257Z</time>
      </trkpt>
      <trkpt lat="47.93684" lon="6.92326">
        <ele>1111</ele>
        <time>2026-05-09T12:54:35.257Z</time>
      </trkpt>
      <trkpt lat="47.93683" lon="6.92324">
        <ele>1111</ele>
        <time>2026-05-09T12:54:36.257Z</time>
      </trkpt>
      <trkpt lat="47.93682" lon="6.92322">
        <ele>1111</ele>
        <time>2026-05-09T12:54:37.256Z</time>
      </trkpt>
      <trkpt lat="47.93682" lon="6.9232">
        <ele>1110</ele>
        <time>2026-05-09T12:54:38.256Z</time>
      </trkpt>
      <trkpt lat="47.93681" lon="6.92317">
        <ele>1110</ele>
        <time>2026-05-09T12:54:39.256Z</time>
      </trkpt>
      <trkpt lat="47.93681" lon="6.92315">
        <ele>1110</ele>
        <time>2026-05-09T12:54:40.256Z</time>
      </trkpt>
      <trkpt lat="47.93681" lon="6.92313">
        <ele>1110</ele>
        <time>2026-05-09T12:54:41.256Z</time>
      </trkpt>
      <trkpt lat="47.93681" lon="6.92311">
        <ele>1110</ele>
        <time>2026-05-09T12:54:42.256Z</time>
      </trkpt>
      <trkpt lat="47.93681" lon="6.92309">
        <ele>1110</ele>
        <time>2026-05-09T12:54:43.256Z</time>
      </trkpt>
      <trkpt lat="47.9368" lon="6.92307">
        <ele>1109</ele>
        <time>2026-05-09T12:54:44.257Z</time>
      </trkpt>
      <trkpt lat="47.9368" lon="6.92304">
        <ele>1109</ele>
        <time>2026-05-09T12:54:45.257Z</time>
      </trkpt>
      <trkpt lat="47.9368" lon="6.92301">
        <ele>1108</ele>
        <time>2026-05-09T12:54:46.257Z</time>
      </trkpt>
      <trkpt lat="47.93679" lon="6.92298">
        <ele>1108</ele>
        <time>2026-05-09T12:54:47.257Z</time>
      </trkpt>
      <trkpt lat="47.93678" lon="6.92296">
        <ele>1107</ele>
        <time>2026-05-09T12:54:48.256Z</time>
      </trkpt>
      <trkpt lat="47.93678" lon="6.92293">
        <ele>1107</ele>
        <time>2026-05-09T12:54:49.257Z</time>
      </trkpt>
      <trkpt lat="47.93678" lon="6.92291">
        <ele>1107</ele>
        <time>2026-05-09T12:54:50.256Z</time>
      </trkpt>
      <trkpt lat="47.93678" lon="6.92289">
        <ele>1106</ele>
        <time>2026-05-09T12:54:51.256Z</time>
      </trkpt>
      <trkpt lat="47.93679" lon="6.92287">
        <ele>1106</ele>
        <time>2026-05-09T12:54:52.256Z</time>
      </trkpt>
      <trkpt lat="47.9368" lon="6.92286">
        <ele>1106</ele>
        <time>2026-05-09T12:54:53.256Z</time>
      </trkpt>
      <trkpt lat="47.9368" lon="6.92285">
        <ele>1106</ele>
        <time>2026-05-09T12:54:54.256Z</time>
      </trkpt>
      <trkpt lat="47.93681" lon="6.92285">
        <ele>1105</ele>
        <time>2026-05-09T12:54:55.256Z</time>
      </trkpt>
      <trkpt lat="47.93682" lon="6.92284">
        <ele>1105</ele>
        <time>2026-05-09T12:54:56.256Z</time>
      </trkpt>
      <trkpt lat="47.93682" lon="6.92284">
        <ele>1105</ele>
        <time>2026-05-09T12:54:57.256Z</time>
      </trkpt>
      <trkpt lat="47.93683" lon="6.92284">
        <ele>1105</ele>
        <time>2026-05-09T12:54:58.257Z</time>
      </trkpt>
      <trkpt lat="47.93684" lon="6.92285">
        <ele>1104</ele>
        <time>2026-05-09T12:54:59.256Z</time>
      </trkpt>
      <trkpt lat="47.93685" lon="6.92285">
        <ele>1104</ele>
        <time>2026-05-09T12:55:00.256Z</time>
      </trkpt>
      <trkpt lat="47.93686" lon="6.92286">
        <ele>1103</ele>
        <time>2026-05-09T12:55:01.257Z</time>
      </trkpt>
      <trkpt lat="47.93687" lon="6.92287">
        <ele>1103</ele>
        <time>2026-05-09T12:55:02.257Z</time>
      </trkpt>
      <trkpt lat="47.93688" lon="6.92288">
        <ele>1102</ele>
        <time>2026-05-09T12:55:03.257Z</time>
      </trkpt>
      <trkpt lat="47.93689" lon="6.92289">
        <ele>1102</ele>
        <time>2026-05-09T12:55:04.256Z</time>
      </trkpt>
      <trkpt lat="47.93691" lon="6.92291">
        <ele>1102</ele>
        <time>2026-05-09T12:55:05.256Z</time>
      </trkpt>
      <trkpt lat="47.93693" lon="6.92292">
        <ele>1102</ele>
        <time>2026-05-09T12:55:06.256Z</time>
      </trkpt>
      <trkpt lat="47.93695" lon="6.92294">
        <ele>1102</ele>
        <time>2026-05-09T12:55:07.256Z</time>
      </trkpt>
      <trkpt lat="47.93697" lon="6.92295">
        <ele>1102</ele>
        <time>2026-05-09T12:55:08.256Z</time>
      </trkpt>
      <trkpt lat="47.93698" lon="6.92296">
        <ele>1103</ele>
        <time>2026-05-09T12:55:09.256Z</time>
      </trkpt>
      <trkpt lat="47.937" lon="6.92297">
        <ele>1103</ele>
        <time>2026-05-09T12:55:10.256Z</time>
      </trkpt>
      <trkpt lat="47.93702" lon="6.92299">
        <ele>1103</ele>
        <time>2026-05-09T12:55:11.257Z</time>
      </trkpt>
      <trkpt lat="47.93704" lon="6.923">
        <ele>1104</ele>
        <time>2026-05-09T12:55:12.257Z</time>
      </trkpt>
      <trkpt lat="47.93705" lon="6.92302">
        <ele>1104</ele>
        <time>2026-05-09T12:55:13.257Z</time>
      </trkpt>
      <trkpt lat="47.93706" lon="6.92304">
        <ele>1104</ele>
        <time>2026-05-09T12:55:14.257Z</time>
      </trkpt>
      <trkpt lat="47.93708" lon="6.92306">
        <ele>1104</ele>
        <time>2026-05-09T12:55:15.257Z</time>
      </trkpt>
      <trkpt lat="47.93709" lon="6.92308">
        <ele>1104</ele>
        <time>2026-05-09T12:55:16.257Z</time>
      </trkpt>
      <trkpt lat="47.9371" lon="6.92309">
        <ele>1104</ele>
        <time>2026-05-09T12:55:17.256Z</time>
      </trkpt>
      <trkpt lat="47.9371" lon="6.9231">
        <ele>1104</ele>
        <time>2026-05-09T12:55:18.257Z</time>
      </trkpt>
      <trkpt lat="47.9371" lon="6.92311">
        <ele>1103</ele>
        <time>2026-05-09T12:55:19.256Z</time>
      </trkpt>
      <trkpt lat="47.9371" lon="6.92311">
        <ele>1102</ele>
        <time>2026-05-09T12:55:20.257Z</time>
      </trkpt>
      <trkpt lat="47.9371" lon="6.92312">
        <ele>1102</ele>
        <time>2026-05-09T12:55:21.257Z</time>
      </trkpt>
      <trkpt lat="47.9371" lon="6.92312">
        <ele>1101</ele>
        <time>2026-05-09T12:55:22.257Z</time>
      </trkpt>
      <trkpt lat="47.93708" lon="6.92301">
        <ele>1097</ele>
        <time>2026-05-09T12:55:28.730Z</time>
      </trkpt>
      <trkpt lat="47.93708" lon="6.92299">
        <ele>1097</ele>
        <time>2026-05-09T12:55:29.729Z</time>
      </trkpt>
      <trkpt lat="47.93709" lon="6.92298">
        <ele>1096</ele>
        <time>2026-05-09T12:55:30.730Z</time>
      </trkpt>
      <trkpt lat="47.93709" lon="6.92296">
        <ele>1096</ele>
        <time>2026-05-09T12:55:31.729Z</time>
      </trkpt>
      <trkpt lat="47.93708" lon="6.92294">
        <ele>1096</ele>
        <time>2026-05-09T12:55:32.729Z</time>
      </trkpt>
      <trkpt lat="47.93708" lon="6.92293">
        <ele>1095</ele>
        <time>2026-05-09T12:55:33.730Z</time>
      </trkpt>
      <trkpt lat="47.93708" lon="6.92291">
        <ele>1095</ele>
        <time>2026-05-09T12:55:34.730Z</time>
      </trkpt>
      <trkpt lat="47.93708" lon="6.92289">
        <ele>1095</ele>
        <time>2026-05-09T12:55:35.730Z</time>
      </trkpt>
      <trkpt lat="47.93707" lon="6.92288">
        <ele>1094</ele>
        <time>2026-05-09T12:55:36.729Z</time>
      </trkpt>
      <trkpt lat="47.93707" lon="6.92286">
        <ele>1094</ele>
        <time>2026-05-09T12:55:37.729Z</time>
      </trkpt>
      <trkpt lat="47.93707" lon="6.92286">
        <ele>1094</ele>
        <time>2026-05-09T12:55:38.730Z</time>
      </trkpt>
      <trkpt lat="47.93707" lon="6.92285">
        <ele>1094</ele>
        <time>2026-05-09T12:55:39.729Z</time>
      </trkpt>
      <trkpt lat="47.93707" lon="6.92283">
        <ele>1093</ele>
        <time>2026-05-09T12:55:40.730Z</time>
      </trkpt>
      <trkpt lat="47.93706" lon="6.92282">
        <ele>1093</ele>
        <time>2026-05-09T12:55:41.730Z</time>
      </trkpt>
      <trkpt lat="47.93706" lon="6.9228">
        <ele>1093</ele>
        <time>2026-05-09T12:55:42.730Z</time>
      </trkpt>
      <trkpt lat="47.93707" lon="6.92279">
        <ele>1093</ele>
        <time>2026-05-09T12:55:43.730Z</time>
      </trkpt>
      <trkpt lat="47.93707" lon="6.92277">
        <ele>1093</ele>
        <time>2026-05-09T12:55:44.729Z</time>
      </trkpt>
      <trkpt lat="47.93708" lon="6.92275">
        <ele>1092</ele>
        <time>2026-05-09T12:55:45.730Z</time>
      </trkpt>
      <trkpt lat="47.93708" lon="6.92273">
        <ele>1092</ele>
        <time>2026-05-09T12:55:46.729Z</time>
      </trkpt>
      <trkpt lat="47.93708" lon="6.92271">
        <ele>1092</ele>
        <time>2026-05-09T12:55:47.730Z</time>
      </trkpt>
      <trkpt lat="47.93708" lon="6.9227">
        <ele>1092</ele>
        <time>2026-05-09T12:55:48.729Z</time>
      </trkpt>
      <trkpt lat="47.93708" lon="6.92268">
        <ele>1092</ele>
        <time>2026-05-09T12:55:49.730Z</time>
      </trkpt>
      <trkpt lat="47.93708" lon="6.92266">
        <ele>1092</ele>
        <time>2026-05-09T12:55:50.729Z</time>
      </trkpt>
      <trkpt lat="47.93709" lon="6.92264">
        <ele>1092</ele>
        <time>2026-05-09T12:55:51.729Z</time>
      </trkpt>
      <trkpt lat="47.93708" lon="6.92261">
        <ele>1092</ele>
        <time>2026-05-09T12:55:52.729Z</time>
      </trkpt>
      <trkpt lat="47.93708" lon="6.92258">
        <ele>1092</ele>
        <time>2026-05-09T12:55:53.729Z</time>
      </trkpt>
      <trkpt lat="47.93708" lon="6.92255">
        <ele>1092</ele>
        <time>2026-05-09T12:55:54.729Z</time>
      </trkpt>
      <trkpt lat="47.93709" lon="6.92253">
        <ele>1092</ele>
        <time>2026-05-09T12:55:55.730Z</time>
      </trkpt>
      <trkpt lat="47.93709" lon="6.92251">
        <ele>1093</ele>
        <time>2026-05-09T12:55:56.729Z</time>
      </trkpt>
      <trkpt lat="47.93709" lon="6.92248">
        <ele>1093</ele>
        <time>2026-05-09T12:55:57.729Z</time>
      </trkpt>
      <trkpt lat="47.9371" lon="6.92246">
        <ele>1093</ele>
        <time>2026-05-09T12:55:58.729Z</time>
      </trkpt>
      <trkpt lat="47.93711" lon="6.92243">
        <ele>1093</ele>
        <time>2026-05-09T12:55:59.730Z</time>
      </trkpt>
      <trkpt lat="47.93711" lon="6.9224">
        <ele>1093</ele>
        <time>2026-05-09T12:56:00.729Z</time>
      </trkpt>
      <trkpt lat="47.93712" lon="6.92238">
        <ele>1093</ele>
        <time>2026-05-09T12:56:01.730Z</time>
      </trkpt>
      <trkpt lat="47.93712" lon="6.92236">
        <ele>1093</ele>
        <time>2026-05-09T12:56:02.729Z</time>
      </trkpt>
      <trkpt lat="47.93712" lon="6.92234">
        <ele>1093</ele>
        <time>2026-05-09T12:56:03.730Z</time>
      </trkpt>
      <trkpt lat="47.93713" lon="6.92233">
        <ele>1093</ele>
        <time>2026-05-09T12:56:04.729Z</time>
      </trkpt>
      <trkpt lat="47.93714" lon="6.92232">
        <ele>1093</ele>
        <time>2026-05-09T12:56:05.730Z</time>
      </trkpt>
      <trkpt lat="47.93715" lon="6.92231">
        <ele>1093</ele>
        <time>2026-05-09T12:56:06.730Z</time>
      </trkpt>
      <trkpt lat="47.93716" lon="6.92231">
        <ele>1092</ele>
        <time>2026-05-09T12:56:07.729Z</time>
      </trkpt>
      <trkpt lat="47.93717" lon="6.92231">
        <ele>1092</ele>
        <time>2026-05-09T12:56:08.729Z</time>
      </trkpt>
      <trkpt lat="47.93718" lon="6.92231">
        <ele>1092</ele>
        <time>2026-05-09T12:56:09.729Z</time>
      </trkpt>
      <trkpt lat="47.9372" lon="6.9223">
        <ele>1091</ele>
        <time>2026-05-09T12:56:10.730Z</time>
      </trkpt>
      <trkpt lat="47.93721" lon="6.92229">
        <ele>1091</ele>
        <time>2026-05-09T12:56:11.729Z</time>
      </trkpt>
      <trkpt lat="47.93722" lon="6.92226">
        <ele>1091</ele>
        <time>2026-05-09T12:56:12.730Z</time>
      </trkpt>
      <trkpt lat="47.93723" lon="6.92225">
        <ele>1090</ele>
        <time>2026-05-09T12:56:13.729Z</time>
      </trkpt>
      <trkpt lat="47.93725" lon="6.92224">
        <ele>1090</ele>
        <time>2026-05-09T12:56:14.729Z</time>
      </trkpt>
      <trkpt lat="47.93726" lon="6.92223">
        <ele>1089</ele>
        <time>2026-05-09T12:56:15.730Z</time>
      </trkpt>
      <trkpt lat="47.93728" lon="6.92224">
        <ele>1089</ele>
        <time>2026-05-09T12:56:16.729Z</time>
      </trkpt>
      <trkpt lat="47.93729" lon="6.92225">
        <ele>1089</ele>
        <time>2026-05-09T12:56:17.730Z</time>
      </trkpt>
      <trkpt lat="47.93731" lon="6.92227">
        <ele>1088</ele>
        <time>2026-05-09T12:56:18.729Z</time>
      </trkpt>
      <trkpt lat="47.93732" lon="6.92228">
        <ele>1088</ele>
        <time>2026-05-09T12:56:19.729Z</time>
      </trkpt>
      <trkpt lat="47.93734" lon="6.9223">
        <ele>1088</ele>
        <time>2026-05-09T12:56:20.729Z</time>
      </trkpt>
      <trkpt lat="47.93735" lon="6.92231">
        <ele>1088</ele>
        <time>2026-05-09T12:56:21.729Z</time>
      </trkpt>
      <trkpt lat="47.93736" lon="6.92233">
        <ele>1088</ele>
        <time>2026-05-09T12:56:22.730Z</time>
      </trkpt>
      <trkpt lat="47.93737" lon="6.92234">
        <ele>1087</ele>
        <time>2026-05-09T12:56:23.729Z</time>
      </trkpt>
      <trkpt lat="47.93738" lon="6.92236">
        <ele>1088</ele>
        <time>2026-05-09T12:56:24.729Z</time>
      </trkpt>
      <trkpt lat="47.9374" lon="6.92238">
        <ele>1088</ele>
        <time>2026-05-09T12:56:25.730Z</time>
      </trkpt>
      <trkpt lat="47.93742" lon="6.9224">
        <ele>1088</ele>
        <time>2026-05-09T12:56:26.729Z</time>
      </trkpt>
      <trkpt lat="47.93742" lon="6.92242">
        <ele>1088</ele>
        <time>2026-05-09T12:56:27.729Z</time>
      </trkpt>
      <trkpt lat="47.93743" lon="6.92244">
        <ele>1088</ele>
        <time>2026-05-09T12:56:28.730Z</time>
      </trkpt>
      <trkpt lat="47.93743" lon="6.92246">
        <ele>1087</ele>
        <time>2026-05-09T12:56:29.729Z</time>
      </trkpt>
      <trkpt lat="47.93743" lon="6.92248">
        <ele>1087</ele>
        <time>2026-05-09T12:56:30.730Z</time>
      </trkpt>
      <trkpt lat="47.93744" lon="6.9225">
        <ele>1087</ele>
        <time>2026-05-09T12:56:31.730Z</time>
      </trkpt>
      <trkpt lat="47.93745" lon="6.92252">
        <ele>1087</ele>
        <time>2026-05-09T12:56:32.729Z</time>
      </trkpt>
      <trkpt lat="47.93746" lon="6.92255">
        <ele>1087</ele>
        <time>2026-05-09T12:56:33.730Z</time>
      </trkpt>
      <trkpt lat="47.93746" lon="6.92258">
        <ele>1088</ele>
        <time>2026-05-09T12:56:34.729Z</time>
      </trkpt>
      <trkpt lat="47.93746" lon="6.92263">
        <ele>1088</ele>
        <time>2026-05-09T12:56:35.730Z</time>
      </trkpt>
      <trkpt lat="47.93745" lon="6.92267">
        <ele>1087</ele>
        <time>2026-05-09T12:56:36.729Z</time>
      </trkpt>
      <trkpt lat="47.93746" lon="6.92271">
        <ele>1087</ele>
        <time>2026-05-09T12:56:37.730Z</time>
      </trkpt>
      <trkpt lat="47.93747" lon="6.92275">
        <ele>1087</ele>
        <time>2026-05-09T12:56:38.730Z</time>
      </trkpt>
      <trkpt lat="47.93748" lon="6.92279">
        <ele>1087</ele>
        <time>2026-05-09T12:56:39.729Z</time>
      </trkpt>
      <trkpt lat="47.93749" lon="6.92284">
        <ele>1087</ele>
        <time>2026-05-09T12:56:40.730Z</time>
      </trkpt>
      <trkpt lat="47.93747" lon="6.92289">
        <ele>1087</ele>
        <time>2026-05-09T12:56:41.729Z</time>
      </trkpt>
      <trkpt lat="47.93747" lon="6.92292">
        <ele>1087</ele>
        <time>2026-05-09T12:56:42.730Z</time>
      </trkpt>
      <trkpt lat="47.93748" lon="6.92293">
        <ele>1088</ele>
        <time>2026-05-09T12:56:43.729Z</time>
      </trkpt>
      <trkpt lat="47.9375" lon="6.92291">
        <ele>1088</ele>
        <time>2026-05-09T12:56:44.729Z</time>
      </trkpt>
      <trkpt lat="47.9375" lon="6.92291">
        <ele>1088</ele>
        <time>2026-05-09T12:56:45.730Z</time>
      </trkpt>
      <trkpt lat="47.93751" lon="6.92286">
        <ele>1088</ele>
        <time>2026-05-09T12:56:46.729Z</time>
      </trkpt>
      <trkpt lat="47.9375" lon="6.92282">
        <ele>1088</ele>
        <time>2026-05-09T12:56:47.730Z</time>
      </trkpt>
      <trkpt lat="47.9375" lon="6.92277">
        <ele>1088</ele>
        <time>2026-05-09T12:56:48.729Z</time>
      </trkpt>
      <trkpt lat="47.93749" lon="6.92274">
        <ele>1088</ele>
        <time>2026-05-09T12:56:49.729Z</time>
      </trkpt>
      <trkpt lat="47.93749" lon="6.92272">
        <ele>1088</ele>
        <time>2026-05-09T12:56:50.730Z</time>
      </trkpt>
      <trkpt lat="47.93749" lon="6.92271">
        <ele>1087</ele>
        <time>2026-05-09T12:56:51.730Z</time>
      </trkpt>
      <trkpt lat="47.93749" lon="6.92269">
        <ele>1087</ele>
        <time>2026-05-09T12:56:52.730Z</time>
      </trkpt>
      <trkpt lat="47.93749" lon="6.92267">
        <ele>1087</ele>
        <time>2026-05-09T12:56:53.730Z</time>
      </trkpt>
      <trkpt lat="47.9375" lon="6.92266">
        <ele>1087</ele>
        <time>2026-05-09T12:56:54.729Z</time>
      </trkpt>
      <trkpt lat="47.9375" lon="6.92264">
        <ele>1087</ele>
        <time>2026-05-09T12:56:55.730Z</time>
      </trkpt>
      <trkpt lat="47.9375" lon="6.92262">
        <ele>1086</ele>
        <time>2026-05-09T12:56:56.729Z</time>
      </trkpt>
      <trkpt lat="47.9375" lon="6.92261">
        <ele>1086</ele>
        <time>2026-05-09T12:56:57.730Z</time>
      </trkpt>
      <trkpt lat="47.9375" lon="6.92259">
        <ele>1086</ele>
        <time>2026-05-09T12:56:58.730Z</time>
      </trkpt>
      <trkpt lat="47.93752" lon="6.92257">
        <ele>1086</ele>
        <time>2026-05-09T12:56:59.730Z</time>
      </trkpt>
      <trkpt lat="47.93753" lon="6.92255">
        <ele>1085</ele>
        <time>2026-05-09T12:57:00.730Z</time>
      </trkpt>
      <trkpt lat="47.93754" lon="6.92254">
        <ele>1085</ele>
        <time>2026-05-09T12:57:01.729Z</time>
      </trkpt>
      <trkpt lat="47.93755" lon="6.92252">
        <ele>1085</ele>
        <time>2026-05-09T12:57:02.729Z</time>
      </trkpt>
      <trkpt lat="47.93756" lon="6.9225">
        <ele>1085</ele>
        <time>2026-05-09T12:57:03.729Z</time>
      </trkpt>
      <trkpt lat="47.93756" lon="6.92247">
        <ele>1084</ele>
        <time>2026-05-09T12:57:04.730Z</time>
      </trkpt>
      <trkpt lat="47.93756" lon="6.92244">
        <ele>1084</ele>
        <time>2026-05-09T12:57:05.730Z</time>
      </trkpt>
      <trkpt lat="47.93757" lon="6.92241">
        <ele>1084</ele>
        <time>2026-05-09T12:57:06.730Z</time>
      </trkpt>
      <trkpt lat="47.93758" lon="6.92239">
        <ele>1084</ele>
        <time>2026-05-09T12:57:07.729Z</time>
      </trkpt>
      <trkpt lat="47.93758" lon="6.92237">
        <ele>1083</ele>
        <time>2026-05-09T12:57:08.729Z</time>
      </trkpt>
      <trkpt lat="47.93758" lon="6.92236">
        <ele>1083</ele>
        <time>2026-05-09T12:57:09.730Z</time>
      </trkpt>
      <trkpt lat="47.93758" lon="6.92234">
        <ele>1082</ele>
        <time>2026-05-09T12:57:10.729Z</time>
      </trkpt>
      <trkpt lat="47.93758" lon="6.92232">
        <ele>1082</ele>
        <time>2026-05-09T12:57:11.730Z</time>
      </trkpt>
      <trkpt lat="47.93757" lon="6.9223">
        <ele>1081</ele>
        <time>2026-05-09T12:57:12.729Z</time>
      </trkpt>
      <trkpt lat="47.93757" lon="6.92227">
        <ele>1081</ele>
        <time>2026-05-09T12:57:13.729Z</time>
      </trkpt>
      <trkpt lat="47.93757" lon="6.92225">
        <ele>1080</ele>
        <time>2026-05-09T12:57:14.730Z</time>
      </trkpt>
      <trkpt lat="47.93756" lon="6.92223">
        <ele>1079</ele>
        <time>2026-05-09T12:57:15.729Z</time>
      </trkpt>
      <trkpt lat="47.93756" lon="6.92222">
        <ele>1079</ele>
        <time>2026-05-09T12:57:16.729Z</time>
      </trkpt>
      <trkpt lat="47.93757" lon="6.92221">
        <ele>1079</ele>
        <time>2026-05-09T12:57:17.729Z</time>
      </trkpt>
      <trkpt lat="47.93757" lon="6.92219">
        <ele>1078</ele>
        <time>2026-05-09T12:57:18.730Z</time>
      </trkpt>
      <trkpt lat="47.93758" lon="6.92217">
        <ele>1078</ele>
        <time>2026-05-09T12:57:19.729Z</time>
      </trkpt>
      <trkpt lat="47.93759" lon="6.92216">
        <ele>1078</ele>
        <time>2026-05-09T12:57:20.729Z</time>
      </trkpt>
      <trkpt lat="47.93759" lon="6.92214">
        <ele>1077</ele>
        <time>2026-05-09T12:57:21.730Z</time>
      </trkpt>
      <trkpt lat="47.93759" lon="6.92211">
        <ele>1076</ele>
        <time>2026-05-09T12:57:22.730Z</time>
      </trkpt>
      <trkpt lat="47.93761" lon="6.92208">
        <ele>1076</ele>
        <time>2026-05-09T12:57:23.729Z</time>
      </trkpt>
      <trkpt lat="47.93764" lon="6.92209">
        <ele>1075</ele>
        <time>2026-05-09T12:57:24.729Z</time>
      </trkpt>
      <trkpt lat="47.93767" lon="6.92209">
        <ele>1075</ele>
        <time>2026-05-09T12:57:25.729Z</time>
      </trkpt>
      <trkpt lat="47.93771" lon="6.92209">
        <ele>1074</ele>
        <time>2026-05-09T12:57:26.730Z</time>
      </trkpt>
      <trkpt lat="47.93774" lon="6.92209">
        <ele>1074</ele>
        <time>2026-05-09T12:57:27.729Z</time>
      </trkpt>
      <trkpt lat="47.93777" lon="6.9221">
        <ele>1073</ele>
        <time>2026-05-09T12:57:28.729Z</time>
      </trkpt>
      <trkpt lat="47.93779" lon="6.92211">
        <ele>1073</ele>
        <time>2026-05-09T12:57:29.729Z</time>
      </trkpt>
      <trkpt lat="47.9378" lon="6.92213">
        <ele>1072</ele>
        <time>2026-05-09T12:57:30.729Z</time>
      </trkpt>
      <trkpt lat="47.93781" lon="6.92216">
        <ele>1072</ele>
        <time>2026-05-09T12:57:31.730Z</time>
      </trkpt>
      <trkpt lat="47.93781" lon="6.92219">
        <ele>1071</ele>
        <time>2026-05-09T12:57:32.730Z</time>
      </trkpt>
      <trkpt lat="47.9378" lon="6.92222">
        <ele>1071</ele>
        <time>2026-05-09T12:57:33.730Z</time>
      </trkpt>
      <trkpt lat="47.9378" lon="6.92224">
        <ele>1070</ele>
        <time>2026-05-09T12:57:34.730Z</time>
      </trkpt>
      <trkpt lat="47.93779" lon="6.92227">
        <ele>1070</ele>
        <time>2026-05-09T12:57:35.729Z</time>
      </trkpt>
      <trkpt lat="47.93779" lon="6.9223">
        <ele>1070</ele>
        <time>2026-05-09T12:57:36.730Z</time>
      </trkpt>
      <trkpt lat="47.93779" lon="6.92232">
        <ele>1069</ele>
        <time>2026-05-09T12:57:37.729Z</time>
      </trkpt>
      <trkpt lat="47.93779" lon="6.92235">
        <ele>1069</ele>
        <time>2026-05-09T12:57:38.730Z</time>
      </trkpt>
      <trkpt lat="47.93778" lon="6.92237">
        <ele>1069</ele>
        <time>2026-05-09T12:57:39.729Z</time>
      </trkpt>
      <trkpt lat="47.93778" lon="6.92238">
        <ele>1069</ele>
        <time>2026-05-09T12:57:40.729Z</time>
      </trkpt>
      <trkpt lat="47.93777" lon="6.9224">
        <ele>1069</ele>
        <time>2026-05-09T12:57:41.730Z</time>
      </trkpt>
      <trkpt lat="47.93777" lon="6.92242">
        <ele>1068</ele>
        <time>2026-05-09T12:57:42.729Z</time>
      </trkpt>
      <trkpt lat="47.93777" lon="6.92244">
        <ele>1068</ele>
        <time>2026-05-09T12:57:43.730Z</time>
      </trkpt>
      <trkpt lat="47.93778" lon="6.92245">
        <ele>1068</ele>
        <time>2026-05-09T12:57:44.729Z</time>
      </trkpt>
      <trkpt lat="47.93779" lon="6.92247">
        <ele>1068</ele>
        <time>2026-05-09T12:57:45.730Z</time>
      </trkpt>
      <trkpt lat="47.93779" lon="6.9225">
        <ele>1068</ele>
        <time>2026-05-09T12:57:46.730Z</time>
      </trkpt>
      <trkpt lat="47.93779" lon="6.92252">
        <ele>1067</ele>
        <time>2026-05-09T12:57:47.729Z</time>
      </trkpt>
      <trkpt lat="47.9378" lon="6.92254">
        <ele>1067</ele>
        <time>2026-05-09T12:57:48.729Z</time>
      </trkpt>
      <trkpt lat="47.9378" lon="6.92257">
        <ele>1066</ele>
        <time>2026-05-09T12:57:49.729Z</time>
      </trkpt>
      <trkpt lat="47.9378" lon="6.92259">
        <ele>1066</ele>
        <time>2026-05-09T12:57:50.729Z</time>
      </trkpt>
      <trkpt lat="47.9378" lon="6.9226">
        <ele>1066</ele>
        <time>2026-05-09T12:57:51.730Z</time>
      </trkpt>
      <trkpt lat="47.9378" lon="6.92262">
        <ele>1065</ele>
        <time>2026-05-09T12:57:52.730Z</time>
      </trkpt>
      <trkpt lat="47.9378" lon="6.92263">
        <ele>1065</ele>
        <time>2026-05-09T12:57:53.729Z</time>
      </trkpt>
      <trkpt lat="47.9378" lon="6.92264">
        <ele>1065</ele>
        <time>2026-05-09T12:57:54.729Z</time>
      </trkpt>
      <trkpt lat="47.9378" lon="6.92264">
        <ele>1065</ele>
        <time>2026-05-09T12:57:55.729Z</time>
      </trkpt>
      <trkpt lat="47.9378" lon="6.92264">
        <ele>1064</ele>
        <time>2026-05-09T12:57:56.729Z</time>
      </trkpt>
      <trkpt lat="47.93781" lon="6.92263">
        <ele>1064</ele>
        <time>2026-05-09T12:57:57.730Z</time>
      </trkpt>
      <trkpt lat="47.9378" lon="6.9226">
        <ele>1064</ele>
        <time>2026-05-09T12:57:58.729Z</time>
      </trkpt>
      <trkpt lat="47.9378" lon="6.92258">
        <ele>1064</ele>
        <time>2026-05-09T12:57:59.730Z</time>
      </trkpt>
      <trkpt lat="47.9378" lon="6.92256">
        <ele>1064</ele>
        <time>2026-05-09T12:58:00.730Z</time>
      </trkpt>
      <trkpt lat="47.93781" lon="6.92254">
        <ele>1064</ele>
        <time>2026-05-09T12:58:01.730Z</time>
      </trkpt>
      <trkpt lat="47.93781" lon="6.92252">
        <ele>1064</ele>
        <time>2026-05-09T12:58:02.729Z</time>
      </trkpt>
      <trkpt lat="47.93782" lon="6.9225">
        <ele>1064</ele>
        <time>2026-05-09T12:58:03.730Z</time>
      </trkpt>
      <trkpt lat="47.93782" lon="6.92248">
        <ele>1064</ele>
        <time>2026-05-09T12:58:04.729Z</time>
      </trkpt>
      <trkpt lat="47.93782" lon="6.92246">
        <ele>1064</ele>
        <time>2026-05-09T12:58:05.729Z</time>
      </trkpt>
      <trkpt lat="47.93782" lon="6.92244">
        <ele>1064</ele>
        <time>2026-05-09T12:58:06.729Z</time>
      </trkpt>
      <trkpt lat="47.93782" lon="6.92242">
        <ele>1064</ele>
        <time>2026-05-09T12:58:07.730Z</time>
      </trkpt>
      <trkpt lat="47.93782" lon="6.9224">
        <ele>1065</ele>
        <time>2026-05-09T12:58:08.729Z</time>
      </trkpt>
      <trkpt lat="47.93784" lon="6.92238">
        <ele>1065</ele>
        <time>2026-05-09T12:58:09.729Z</time>
      </trkpt>
      <trkpt lat="47.93784" lon="6.92237">
        <ele>1065</ele>
        <time>2026-05-09T12:58:10.730Z</time>
      </trkpt>
      <trkpt lat="47.93784" lon="6.92235">
        <ele>1066</ele>
        <time>2026-05-09T12:58:11.729Z</time>
      </trkpt>
      <trkpt lat="47.93784" lon="6.92233">
        <ele>1066</ele>
        <time>2026-05-09T12:58:12.729Z</time>
      </trkpt>
      <trkpt lat="47.93785" lon="6.92231">
        <ele>1066</ele>
        <time>2026-05-09T12:58:13.730Z</time>
      </trkpt>
      <trkpt lat="47.93785" lon="6.92229">
        <ele>1066</ele>
        <time>2026-05-09T12:58:14.730Z</time>
      </trkpt>
      <trkpt lat="47.93785" lon="6.92227">
        <ele>1066</ele>
        <time>2026-05-09T12:58:15.729Z</time>
      </trkpt>
      <trkpt lat="47.93785" lon="6.92225">
        <ele>1066</ele>
        <time>2026-05-09T12:58:16.729Z</time>
      </trkpt>
      <trkpt lat="47.93785" lon="6.92224">
        <ele>1067</ele>
        <time>2026-05-09T12:58:17.729Z</time>
      </trkpt>
      <trkpt lat="47.93785" lon="6.92222">
        <ele>1067</ele>
        <time>2026-05-09T12:58:18.729Z</time>
      </trkpt>
      <trkpt lat="47.93785" lon="6.92221">
        <ele>1067</ele>
        <time>2026-05-09T12:58:19.729Z</time>
      </trkpt>
      <trkpt lat="47.93785" lon="6.92219">
        <ele>1067</ele>
        <time>2026-05-09T12:58:20.730Z</time>
      </trkpt>
      <trkpt lat="47.93785" lon="6.92217">
        <ele>1067</ele>
        <time>2026-05-09T12:58:21.729Z</time>
      </trkpt>
      <trkpt lat="47.93785" lon="6.92213">
        <ele>1067</ele>
        <time>2026-05-09T12:58:22.729Z</time>
      </trkpt>
      <trkpt lat="47.93785" lon="6.92211">
        <ele>1068</ele>
        <time>2026-05-09T12:58:23.729Z</time>
      </trkpt>
      <trkpt lat="47.93787" lon="6.92206">
        <ele>1068</ele>
        <time>2026-05-09T12:58:24.729Z</time>
      </trkpt>
      <trkpt lat="47.93789" lon="6.92202">
        <ele>1068</ele>
        <time>2026-05-09T12:58:25.729Z</time>
      </trkpt>
      <trkpt lat="47.93793" lon="6.92199">
        <ele>1069</ele>
        <time>2026-05-09T12:58:26.730Z</time>
      </trkpt>
      <trkpt lat="47.93796" lon="6.92197">
        <ele>1069</ele>
        <time>2026-05-09T12:58:27.730Z</time>
      </trkpt>
      <trkpt lat="47.938" lon="6.92196">
        <ele>1069</ele>
        <time>2026-05-09T12:58:28.729Z</time>
      </trkpt>
      <trkpt lat="47.93801" lon="6.92197">
        <ele>1069</ele>
        <time>2026-05-09T12:58:29.729Z</time>
      </trkpt>
      <trkpt lat="47.93802" lon="6.92195">
        <ele>1069</ele>
        <time>2026-05-09T12:58:30.729Z</time>
      </trkpt>
      <trkpt lat="47.93802" lon="6.92194">
        <ele>1069</ele>
        <time>2026-05-09T12:58:31.730Z</time>
      </trkpt>
      <trkpt lat="47.93802" lon="6.92194">
        <ele>1069</ele>
        <time>2026-05-09T12:58:32.729Z</time>
      </trkpt>
      <trkpt lat="47.93803" lon="6.92194">
        <ele>1068</ele>
        <time>2026-05-09T12:58:33.730Z</time>
      </trkpt>
      <trkpt lat="47.93804" lon="6.92194">
        <ele>1068</ele>
        <time>2026-05-09T12:58:34.729Z</time>
      </trkpt>
      <trkpt lat="47.93812" lon="6.92194">
        <ele>1067</ele>
        <time>2026-05-09T12:58:41.989Z</time>
      </trkpt>
      <trkpt lat="47.93813" lon="6.92194">
        <ele>1067</ele>
        <time>2026-05-09T12:58:42.990Z</time>
      </trkpt>
      <trkpt lat="47.93813" lon="6.92194">
        <ele>1067</ele>
        <time>2026-05-09T12:58:43.989Z</time>
      </trkpt>
      <trkpt lat="47.93814" lon="6.92193">
        <ele>1067</ele>
        <time>2026-05-09T12:58:44.989Z</time>
      </trkpt>
      <trkpt lat="47.93815" lon="6.92194">
        <ele>1067</ele>
        <time>2026-05-09T12:58:45.989Z</time>
      </trkpt>
      <trkpt lat="47.93816" lon="6.92194">
        <ele>1066</ele>
        <time>2026-05-09T12:58:46.990Z</time>
      </trkpt>
      <trkpt lat="47.93818" lon="6.92195">
        <ele>1066</ele>
        <time>2026-05-09T12:58:47.990Z</time>
      </trkpt>
      <trkpt lat="47.9382" lon="6.92196">
        <ele>1065</ele>
        <time>2026-05-09T12:58:48.989Z</time>
      </trkpt>
      <trkpt lat="47.93823" lon="6.92196">
        <ele>1065</ele>
        <time>2026-05-09T12:58:49.990Z</time>
      </trkpt>
      <trkpt lat="47.93826" lon="6.92195">
        <ele>1064</ele>
        <time>2026-05-09T12:58:50.989Z</time>
      </trkpt>
      <trkpt lat="47.93827" lon="6.92194">
        <ele>1064</ele>
        <time>2026-05-09T12:58:51.989Z</time>
      </trkpt>
      <trkpt lat="47.93829" lon="6.92193">
        <ele>1064</ele>
        <time>2026-05-09T12:58:52.989Z</time>
      </trkpt>
      <trkpt lat="47.9383" lon="6.92193">
        <ele>1063</ele>
        <time>2026-05-09T12:58:53.989Z</time>
      </trkpt>
      <trkpt lat="47.93831" lon="6.92193">
        <ele>1063</ele>
        <time>2026-05-09T12:58:54.989Z</time>
      </trkpt>
      <trkpt lat="47.93833" lon="6.92193">
        <ele>1063</ele>
        <time>2026-05-09T12:58:55.989Z</time>
      </trkpt>
      <trkpt lat="47.93834" lon="6.92193">
        <ele>1063</ele>
        <time>2026-05-09T12:58:56.990Z</time>
      </trkpt>
      <trkpt lat="47.93836" lon="6.92194">
        <ele>1062</ele>
        <time>2026-05-09T12:58:57.989Z</time>
      </trkpt>
      <trkpt lat="47.93838" lon="6.92195">
        <ele>1062</ele>
        <time>2026-05-09T12:58:58.989Z</time>
      </trkpt>
      <trkpt lat="47.93839" lon="6.92196">
        <ele>1061</ele>
        <time>2026-05-09T12:58:59.989Z</time>
      </trkpt>
      <trkpt lat="47.9384" lon="6.92197">
        <ele>1061</ele>
        <time>2026-05-09T12:59:00.989Z</time>
      </trkpt>
      <trkpt lat="47.93841" lon="6.92198">
        <ele>1060</ele>
        <time>2026-05-09T12:59:01.990Z</time>
      </trkpt>
      <trkpt lat="47.93842" lon="6.92199">
        <ele>1059</ele>
        <time>2026-05-09T12:59:02.989Z</time>
      </trkpt>
      <trkpt lat="47.93844" lon="6.92199">
        <ele>1058</ele>
        <time>2026-05-09T12:59:03.989Z</time>
      </trkpt>
      <trkpt lat="47.93844" lon="6.922">
        <ele>1057</ele>
        <time>2026-05-09T12:59:04.989Z</time>
      </trkpt>
      <trkpt lat="47.93845" lon="6.922">
        <ele>1057</ele>
        <time>2026-05-09T12:59:05.990Z</time>
      </trkpt>
      <trkpt lat="47.93846" lon="6.92199">
        <ele>1056</ele>
        <time>2026-05-09T12:59:06.989Z</time>
      </trkpt>
      <trkpt lat="47.93848" lon="6.92199">
        <ele>1056</ele>
        <time>2026-05-09T12:59:07.989Z</time>
      </trkpt>
      <trkpt lat="47.93849" lon="6.92199">
        <ele>1056</ele>
        <time>2026-05-09T12:59:08.989Z</time>
      </trkpt>
      <trkpt lat="47.9385" lon="6.92199">
        <ele>1055</ele>
        <time>2026-05-09T12:59:09.990Z</time>
      </trkpt>
      <trkpt lat="47.93852" lon="6.922">
        <ele>1055</ele>
        <time>2026-05-09T12:59:10.989Z</time>
      </trkpt>
      <trkpt lat="47.93853" lon="6.92201">
        <ele>1055</ele>
        <time>2026-05-09T12:59:11.990Z</time>
      </trkpt>
      <trkpt lat="47.93853" lon="6.92201">
        <ele>1055</ele>
        <time>2026-05-09T12:59:12.989Z</time>
      </trkpt>
      <trkpt lat="47.93854" lon="6.92201">
        <ele>1055</ele>
        <time>2026-05-09T12:59:13.990Z</time>
      </trkpt>
      <trkpt lat="47.93856" lon="6.92201">
        <ele>1055</ele>
        <time>2026-05-09T12:59:14.989Z</time>
      </trkpt>
      <trkpt lat="47.93857" lon="6.92201">
        <ele>1055</ele>
        <time>2026-05-09T12:59:15.990Z</time>
      </trkpt>
      <trkpt lat="47.93858" lon="6.92201">
        <ele>1055</ele>
        <time>2026-05-09T12:59:16.989Z</time>
      </trkpt>
      <trkpt lat="47.93858" lon="6.92201">
        <ele>1055</ele>
        <time>2026-05-09T12:59:17.990Z</time>
      </trkpt>
      <trkpt lat="47.93859" lon="6.92201">
        <ele>1055</ele>
        <time>2026-05-09T12:59:18.989Z</time>
      </trkpt>
      <trkpt lat="47.93861" lon="6.92202">
        <ele>1056</ele>
        <time>2026-05-09T12:59:19.990Z</time>
      </trkpt>
      <trkpt lat="47.93862" lon="6.92202">
        <ele>1056</ele>
        <time>2026-05-09T12:59:20.990Z</time>
      </trkpt>
      <trkpt lat="47.93863" lon="6.92202">
        <ele>1056</ele>
        <time>2026-05-09T12:59:21.989Z</time>
      </trkpt>
      <trkpt lat="47.93864" lon="6.92203">
        <ele>1056</ele>
        <time>2026-05-09T12:59:22.990Z</time>
      </trkpt>
      <trkpt lat="47.93865" lon="6.92204">
        <ele>1056</ele>
        <time>2026-05-09T12:59:23.989Z</time>
      </trkpt>
      <trkpt lat="47.93866" lon="6.92205">
        <ele>1056</ele>
        <time>2026-05-09T12:59:24.990Z</time>
      </trkpt>
      <trkpt lat="47.93867" lon="6.92205">
        <ele>1056</ele>
        <time>2026-05-09T12:59:25.989Z</time>
      </trkpt>
      <trkpt lat="47.93868" lon="6.92204">
        <ele>1056</ele>
        <time>2026-05-09T12:59:26.990Z</time>
      </trkpt>
      <trkpt lat="47.93869" lon="6.92204">
        <ele>1057</ele>
        <time>2026-05-09T12:59:27.989Z</time>
      </trkpt>
      <trkpt lat="47.9387" lon="6.92204">
        <ele>1057</ele>
        <time>2026-05-09T12:59:28.989Z</time>
      </trkpt>
      <trkpt lat="47.9387" lon="6.92203">
        <ele>1057</ele>
        <time>2026-05-09T12:59:29.989Z</time>
      </trkpt>
      <trkpt lat="47.93871" lon="6.92203">
        <ele>1058</ele>
        <time>2026-05-09T12:59:30.990Z</time>
      </trkpt>
      <trkpt lat="47.93872" lon="6.92202">
        <ele>1058</ele>
        <time>2026-05-09T12:59:31.989Z</time>
      </trkpt>
      <trkpt lat="47.93873" lon="6.92201">
        <ele>1058</ele>
        <time>2026-05-09T12:59:32.990Z</time>
      </trkpt>
      <trkpt lat="47.93874" lon="6.92199">
        <ele>1058</ele>
        <time>2026-05-09T12:59:33.990Z</time>
      </trkpt>
      <trkpt lat="47.93874" lon="6.92197">
        <ele>1058</ele>
        <time>2026-05-09T12:59:34.989Z</time>
      </trkpt>
      <trkpt lat="47.93874" lon="6.92196">
        <ele>1058</ele>
        <time>2026-05-09T12:59:35.990Z</time>
      </trkpt>
      <trkpt lat="47.93874" lon="6.92194">
        <ele>1058</ele>
        <time>2026-05-09T12:59:36.990Z</time>
      </trkpt>
      <trkpt lat="47.93875" lon="6.92193">
        <ele>1058</ele>
        <time>2026-05-09T12:59:37.990Z</time>
      </trkpt>
      <trkpt lat="47.93875" lon="6.92193">
        <ele>1058</ele>
        <time>2026-05-09T12:59:38.990Z</time>
      </trkpt>
      <trkpt lat="47.93875" lon="6.92192">
        <ele>1058</ele>
        <time>2026-05-09T12:59:39.989Z</time>
      </trkpt>
      <trkpt lat="47.93875" lon="6.92191">
        <ele>1058</ele>
        <time>2026-05-09T12:59:40.990Z</time>
      </trkpt>
      <trkpt lat="47.93876" lon="6.9219">
        <ele>1058</ele>
        <time>2026-05-09T12:59:41.989Z</time>
      </trkpt>
      <trkpt lat="47.93876" lon="6.92189">
        <ele>1058</ele>
        <time>2026-05-09T12:59:42.990Z</time>
      </trkpt>
      <trkpt lat="47.93877" lon="6.92188">
        <ele>1057</ele>
        <time>2026-05-09T12:59:43.990Z</time>
      </trkpt>
      <trkpt lat="47.93878" lon="6.92187">
        <ele>1057</ele>
        <time>2026-05-09T12:59:44.990Z</time>
      </trkpt>
      <trkpt lat="47.93878" lon="6.92186">
        <ele>1056</ele>
        <time>2026-05-09T12:59:45.990Z</time>
      </trkpt>
      <trkpt lat="47.93879" lon="6.92184">
        <ele>1056</ele>
        <time>2026-05-09T12:59:46.990Z</time>
      </trkpt>
      <trkpt lat="47.93879" lon="6.92182">
        <ele>1056</ele>
        <time>2026-05-09T12:59:47.989Z</time>
      </trkpt>
      <trkpt lat="47.93879" lon="6.92179">
        <ele>1056</ele>
        <time>2026-05-09T12:59:48.989Z</time>
      </trkpt>
      <trkpt lat="47.9388" lon="6.92177">
        <ele>1056</ele>
        <time>2026-05-09T12:59:49.990Z</time>
      </trkpt>
      <trkpt lat="47.93881" lon="6.92175">
        <ele>1056</ele>
        <time>2026-05-09T12:59:50.989Z</time>
      </trkpt>
      <trkpt lat="47.93882" lon="6.92173">
        <ele>1056</ele>
        <time>2026-05-09T12:59:51.990Z</time>
      </trkpt>
      <trkpt lat="47.93882" lon="6.92171">
        <ele>1056</ele>
        <time>2026-05-09T12:59:52.989Z</time>
      </trkpt>
      <trkpt lat="47.93882" lon="6.92169">
        <ele>1056</ele>
        <time>2026-05-09T12:59:53.990Z</time>
      </trkpt>
      <trkpt lat="47.93882" lon="6.92168">
        <ele>1057</ele>
        <time>2026-05-09T12:59:54.989Z</time>
      </trkpt>
      <trkpt lat="47.93883" lon="6.92166">
        <ele>1057</ele>
        <time>2026-05-09T12:59:55.990Z</time>
      </trkpt>
      <trkpt lat="47.93884" lon="6.92165">
        <ele>1057</ele>
        <time>2026-05-09T12:59:56.989Z</time>
      </trkpt>
      <trkpt lat="47.93884" lon="6.92163">
        <ele>1058</ele>
        <time>2026-05-09T12:59:57.990Z</time>
      </trkpt>
      <trkpt lat="47.93885" lon="6.92161">
        <ele>1058</ele>
        <time>2026-05-09T12:59:58.989Z</time>
      </trkpt>
      <trkpt lat="47.93886" lon="6.92159">
        <ele>1059</ele>
        <time>2026-05-09T12:59:59.990Z</time>
      </trkpt>
      <trkpt lat="47.93886" lon="6.92156">
        <ele>1059</ele>
        <time>2026-05-09T13:00:00.989Z</time>
      </trkpt>
      <trkpt lat="47.93886" lon="6.92154">
        <ele>1060</ele>
        <time>2026-05-09T13:00:01.989Z</time>
      </trkpt>
      <trkpt lat="47.93887" lon="6.92151">
        <ele>1060</ele>
        <time>2026-05-09T13:00:02.990Z</time>
      </trkpt>
      <trkpt lat="47.93886" lon="6.92148">
        <ele>1061</ele>
        <time>2026-05-09T13:00:03.990Z</time>
      </trkpt>
      <trkpt lat="47.93886" lon="6.92147">
        <ele>1061</ele>
        <time>2026-05-09T13:00:04.990Z</time>
      </trkpt>
      <trkpt lat="47.93886" lon="6.92146">
        <ele>1061</ele>
        <time>2026-05-09T13:00:05.989Z</time>
      </trkpt>
      <trkpt lat="47.93886" lon="6.92145">
        <ele>1062</ele>
        <time>2026-05-09T13:00:06.989Z</time>
      </trkpt>
      <trkpt lat="47.93886" lon="6.92143">
        <ele>1062</ele>
        <time>2026-05-09T13:00:07.989Z</time>
      </trkpt>
      <trkpt lat="47.93886" lon="6.92143">
        <ele>1062</ele>
        <time>2026-05-09T13:00:08.990Z</time>
      </trkpt>
      <trkpt lat="47.93886" lon="6.92142">
        <ele>1063</ele>
        <time>2026-05-09T13:00:09.989Z</time>
      </trkpt>
      <trkpt lat="47.93887" lon="6.92142">
        <ele>1063</ele>
        <time>2026-05-09T13:00:10.990Z</time>
      </trkpt>
      <trkpt lat="47.93887" lon="6.92141">
        <ele>1063</ele>
        <time>2026-05-09T13:00:11.989Z</time>
      </trkpt>
      <trkpt lat="47.93887" lon="6.92141">
        <ele>1064</ele>
        <time>2026-05-09T13:00:12.990Z</time>
      </trkpt>
      <trkpt lat="47.93886" lon="6.92138">
        <ele>1062</ele>
        <time>2026-05-09T13:00:21.222Z</time>
      </trkpt>
      <trkpt lat="47.93886" lon="6.92138">
        <ele>1062</ele>
        <time>2026-05-09T13:00:22.222Z</time>
      </trkpt>
      <trkpt lat="47.93886" lon="6.92138">
        <ele>1062</ele>
        <time>2026-05-09T13:00:23.221Z</time>
      </trkpt>
      <trkpt lat="47.93885" lon="6.92138">
        <ele>1061</ele>
        <time>2026-05-09T13:00:24.221Z</time>
      </trkpt>
      <trkpt lat="47.93885" lon="6.92138">
        <ele>1061</ele>
        <time>2026-05-09T13:00:25.221Z</time>
      </trkpt>
      <trkpt lat="47.93885" lon="6.92138">
        <ele>1061</ele>
        <time>2026-05-09T13:00:26.221Z</time>
      </trkpt>
      <trkpt lat="47.93885" lon="6.92139">
        <ele>1061</ele>
        <time>2026-05-09T13:00:27.222Z</time>
      </trkpt>
      <trkpt lat="47.93885" lon="6.92139">
        <ele>1061</ele>
        <time>2026-05-09T13:00:28.221Z</time>
      </trkpt>
      <trkpt lat="47.93885" lon="6.92139">
        <ele>1062</ele>
        <time>2026-05-09T13:00:29.221Z</time>
      </trkpt>
      <trkpt lat="47.93884" lon="6.92139">
        <ele>1062</ele>
        <time>2026-05-09T13:00:30.222Z</time>
      </trkpt>
      <trkpt lat="47.93884" lon="6.92139">
        <ele>1062</ele>
        <time>2026-05-09T13:00:31.222Z</time>
      </trkpt>
      <trkpt lat="47.93884" lon="6.92139">
        <ele>1062</ele>
        <time>2026-05-09T13:00:32.222Z</time>
      </trkpt>
      <trkpt lat="47.93884" lon="6.92139">
        <ele>1062</ele>
        <time>2026-05-09T13:00:33.221Z</time>
      </trkpt>
      <trkpt lat="47.93884" lon="6.92139">
        <ele>1062</ele>
        <time>2026-05-09T13:00:34.221Z</time>
      </trkpt>
      <trkpt lat="47.93884" lon="6.92139">
        <ele>1062</ele>
        <time>2026-05-09T13:00:35.221Z</time>
      </trkpt>
      <trkpt lat="47.93884" lon="6.92139">
        <ele>1062</ele>
        <time>2026-05-09T13:00:36.221Z</time>
      </trkpt>
      <trkpt lat="47.93883" lon="6.92139">
        <ele>1063</ele>
        <time>2026-05-09T13:00:37.221Z</time>
      </trkpt>
      <trkpt lat="47.93883" lon="6.92139">
        <ele>1063</ele>
        <time>2026-05-09T13:00:38.222Z</time>
      </trkpt>
      <trkpt lat="47.93883" lon="6.9214">
        <ele>1063</ele>
        <time>2026-05-09T13:00:39.221Z</time>
      </trkpt>
      <trkpt lat="47.93883" lon="6.9214">
        <ele>1064</ele>
        <time>2026-05-09T13:00:40.221Z</time>
      </trkpt>
      <trkpt lat="47.93883" lon="6.92141">
        <ele>1064</ele>
        <time>2026-05-09T13:00:41.221Z</time>
      </trkpt>
      <trkpt lat="47.93884" lon="6.92142">
        <ele>1064</ele>
        <time>2026-05-09T13:00:42.222Z</time>
      </trkpt>
      <trkpt lat="47.93884" lon="6.92143">
        <ele>1064</ele>
        <time>2026-05-09T13:00:43.221Z</time>
      </trkpt>
      <trkpt lat="47.93884" lon="6.92143">
        <ele>1064</ele>
        <time>2026-05-09T13:00:44.222Z</time>
      </trkpt>
      <trkpt lat="47.93884" lon="6.92144">
        <ele>1064</ele>
        <time>2026-05-09T13:00:45.222Z</time>
      </trkpt>
      <trkpt lat="47.93884" lon="6.92144">
        <ele>1063</ele>
        <time>2026-05-09T13:00:46.221Z</time>
      </trkpt>
      <trkpt lat="47.93884" lon="6.92144">
        <ele>1063</ele>
        <time>2026-05-09T13:00:47.222Z</time>
      </trkpt>
      <trkpt lat="47.93884" lon="6.92144">
        <ele>1063</ele>
        <time>2026-05-09T13:00:48.222Z</time>
      </trkpt>
      <trkpt lat="47.93884" lon="6.92144">
        <ele>1063</ele>
        <time>2026-05-09T13:00:49.221Z</time>
      </trkpt>
      <trkpt lat="47.93884" lon="6.92144">
        <ele>1063</ele>
        <time>2026-05-09T13:00:50.221Z</time>
      </trkpt>
      <trkpt lat="47.93884" lon="6.92143">
        <ele>1063</ele>
        <time>2026-05-09T13:00:51.221Z</time>
      </trkpt>
      <trkpt lat="47.93884" lon="6.92143">
        <ele>1063</ele>
        <time>2026-05-09T13:00:52.222Z</time>
      </trkpt>
      <trkpt lat="47.93884" lon="6.92142">
        <ele>1063</ele>
        <time>2026-05-09T13:00:53.221Z</time>
      </trkpt>
      <trkpt lat="47.93886" lon="6.92141">
        <ele>1071</ele>
        <time>2026-05-09T13:01:10.580Z</time>
      </trkpt>
      <trkpt lat="47.93886" lon="6.92141">
        <ele>1070</ele>
        <time>2026-05-09T13:01:18.017Z</time>
      </trkpt>
      <trkpt lat="47.93886" lon="6.92141">
        <ele>1070</ele>
        <time>2026-05-09T13:01:19.018Z</time>
      </trkpt>
      <trkpt lat="47.93886" lon="6.92141">
        <ele>1071</ele>
        <time>2026-05-09T13:01:20.017Z</time>
      </trkpt>
      <trkpt lat="47.93886" lon="6.92141">
        <ele>1071</ele>
        <time>2026-05-09T13:01:21.017Z</time>
      </trkpt>
      <trkpt lat="47.93886" lon="6.92141">
        <ele>1072</ele>
        <time>2026-05-09T13:01:22.017Z</time>
      </trkpt>
      <trkpt lat="47.93886" lon="6.92141">
        <ele>1072</ele>
        <time>2026-05-09T13:01:23.017Z</time>
      </trkpt>
      <trkpt lat="47.93885" lon="6.92141">
        <ele>1073</ele>
        <time>2026-05-09T13:01:24.017Z</time>
      </trkpt>
      <trkpt lat="47.93885" lon="6.92141">
        <ele>1073</ele>
        <time>2026-05-09T13:01:25.018Z</time>
      </trkpt>
      <trkpt lat="47.93885" lon="6.92141">
        <ele>1073</ele>
        <time>2026-05-09T13:01:26.018Z</time>
      </trkpt>
      <trkpt lat="47.93885" lon="6.92142">
        <ele>1074</ele>
        <time>2026-05-09T13:01:27.018Z</time>
      </trkpt>
      <trkpt lat="47.93886" lon="6.92142">
        <ele>1074</ele>
        <time>2026-05-09T13:01:28.018Z</time>
      </trkpt>
      <trkpt lat="47.93886" lon="6.92142">
        <ele>1073</ele>
        <time>2026-05-09T13:01:29.017Z</time>
      </trkpt>
      <trkpt lat="47.93886" lon="6.92143">
        <ele>1073</ele>
        <time>2026-05-09T13:01:30.018Z</time>
      </trkpt>
      <trkpt lat="47.93886" lon="6.92142">
        <ele>1072</ele>
        <time>2026-05-09T13:01:31.017Z</time>
      </trkpt>
      <trkpt lat="47.93886" lon="6.92142">
        <ele>1072</ele>
        <time>2026-05-09T13:01:32.017Z</time>
      </trkpt>
      <trkpt lat="47.93886" lon="6.92142">
        <ele>1071</ele>
        <time>2026-05-09T13:01:33.017Z</time>
      </trkpt>
      <trkpt lat="47.93886" lon="6.92142">
        <ele>1070</ele>
        <time>2026-05-09T13:01:34.018Z</time>
      </trkpt>
      <trkpt lat="47.93886" lon="6.92142">
        <ele>1070</ele>
        <time>2026-05-09T13:01:35.017Z</time>
      </trkpt>
      <trkpt lat="47.93886" lon="6.92142">
        <ele>1069</ele>
        <time>2026-05-09T13:01:36.018Z</time>
      </trkpt>
      <trkpt lat="47.93886" lon="6.92142">
        <ele>1068</ele>
        <time>2026-05-09T13:01:37.017Z</time>
      </trkpt>
      <trkpt lat="47.93886" lon="6.92142">
        <ele>1068</ele>
        <time>2026-05-09T13:01:38.018Z</time>
      </trkpt>
      <trkpt lat="47.93885" lon="6.92142">
        <ele>1067</ele>
        <time>2026-05-09T13:01:39.017Z</time>
      </trkpt>
      <trkpt lat="47.93885" lon="6.92141">
        <ele>1066</ele>
        <time>2026-05-09T13:01:40.018Z</time>
      </trkpt>
      <trkpt lat="47.93885" lon="6.92141">
        <ele>1066</ele>
        <time>2026-05-09T13:01:41.017Z</time>
      </trkpt>
      <trkpt lat="47.93884" lon="6.92141">
        <ele>1065</ele>
        <time>2026-05-09T13:01:42.018Z</time>
      </trkpt>
      <trkpt lat="47.93884" lon="6.9214">
        <ele>1065</ele>
        <time>2026-05-09T13:01:43.018Z</time>
      </trkpt>
      <trkpt lat="47.93884" lon="6.9214">
        <ele>1064</ele>
        <time>2026-05-09T13:01:44.017Z</time>
      </trkpt>
      <trkpt lat="47.93884" lon="6.9214">
        <ele>1064</ele>
        <time>2026-05-09T13:01:45.018Z</time>
      </trkpt>
      <trkpt lat="47.93883" lon="6.92141">
        <ele>1064</ele>
        <time>2026-05-09T13:01:46.017Z</time>
      </trkpt>
      <trkpt lat="47.93883" lon="6.92141">
        <ele>1063</ele>
        <time>2026-05-09T13:01:47.018Z</time>
      </trkpt>
      <trkpt lat="47.93883" lon="6.92141">
        <ele>1063</ele>
        <time>2026-05-09T13:01:48.017Z</time>
      </trkpt>
      <trkpt lat="47.93883" lon="6.92141">
        <ele>1063</ele>
        <time>2026-05-09T13:01:49.018Z</time>
      </trkpt>
      <trkpt lat="47.93883" lon="6.92142">
        <ele>1063</ele>
        <time>2026-05-09T13:01:50.017Z</time>
      </trkpt>
      <trkpt lat="47.93883" lon="6.92143">
        <ele>1063</ele>
        <time>2026-05-09T13:01:51.018Z</time>
      </trkpt>
      <trkpt lat="47.93883" lon="6.92145">
        <ele>1062</ele>
        <time>2026-05-09T13:01:52.017Z</time>
      </trkpt>
      <trkpt lat="47.93882" lon="6.92146">
        <ele>1062</ele>
        <time>2026-05-09T13:01:53.018Z</time>
      </trkpt>
      <trkpt lat="47.93882" lon="6.92149">
        <ele>1062</ele>
        <time>2026-05-09T13:01:54.017Z</time>
      </trkpt>
      <trkpt lat="47.93882" lon="6.92151">
        <ele>1062</ele>
        <time>2026-05-09T13:01:55.017Z</time>
      </trkpt>
      <trkpt lat="47.93882" lon="6.92153">
        <ele>1062</ele>
        <time>2026-05-09T13:01:56.017Z</time>
      </trkpt>
      <trkpt lat="47.93882" lon="6.92154">
        <ele>1062</ele>
        <time>2026-05-09T13:01:57.018Z</time>
      </trkpt>
      <trkpt lat="47.93882" lon="6.92155">
        <ele>1062</ele>
        <time>2026-05-09T13:01:58.018Z</time>
      </trkpt>
      <trkpt lat="47.93881" lon="6.92156">
        <ele>1062</ele>
        <time>2026-05-09T13:01:59.018Z</time>
      </trkpt>
      <trkpt lat="47.9388" lon="6.92157">
        <ele>1062</ele>
        <time>2026-05-09T13:02:00.018Z</time>
      </trkpt>
      <trkpt lat="47.9388" lon="6.92159">
        <ele>1062</ele>
        <time>2026-05-09T13:02:01.017Z</time>
      </trkpt>
      <trkpt lat="47.93879" lon="6.9216">
        <ele>1062</ele>
        <time>2026-05-09T13:02:02.018Z</time>
      </trkpt>
      <trkpt lat="47.93879" lon="6.92161">
        <ele>1062</ele>
        <time>2026-05-09T13:02:03.017Z</time>
      </trkpt>
      <trkpt lat="47.93879" lon="6.92162">
        <ele>1062</ele>
        <time>2026-05-09T13:02:04.018Z</time>
      </trkpt>
      <trkpt lat="47.93879" lon="6.92163">
        <ele>1062</ele>
        <time>2026-05-09T13:02:05.017Z</time>
      </trkpt>
      <trkpt lat="47.93879" lon="6.92163">
        <ele>1062</ele>
        <time>2026-05-09T13:02:06.017Z</time>
      </trkpt>
      <trkpt lat="47.93879" lon="6.92165">
        <ele>1062</ele>
        <time>2026-05-09T13:02:07.017Z</time>
      </trkpt>
      <trkpt lat="47.93878" lon="6.92166">
        <ele>1062</ele>
        <time>2026-05-09T13:02:08.018Z</time>
      </trkpt>
      <trkpt lat="47.93878" lon="6.9217">
        <ele>1062</ele>
        <time>2026-05-09T13:02:09.017Z</time>
      </trkpt>
      <trkpt lat="47.93878" lon="6.92173">
        <ele>1062</ele>
        <time>2026-05-09T13:02:10.018Z</time>
      </trkpt>
      <trkpt lat="47.93879" lon="6.92176">
        <ele>1062</ele>
        <time>2026-05-09T13:02:11.017Z</time>
      </trkpt>
      <trkpt lat="47.9388" lon="6.9218">
        <ele>1062</ele>
        <time>2026-05-09T13:02:12.018Z</time>
      </trkpt>
      <trkpt lat="47.9388" lon="6.92183">
        <ele>1062</ele>
        <time>2026-05-09T13:02:13.017Z</time>
      </trkpt>
      <trkpt lat="47.9388" lon="6.92185">
        <ele>1062</ele>
        <time>2026-05-09T13:02:14.018Z</time>
      </trkpt>
      <trkpt lat="47.93881" lon="6.92186">
        <ele>1062</ele>
        <time>2026-05-09T13:02:15.018Z</time>
      </trkpt>
      <trkpt lat="47.9388" lon="6.92186">
        <ele>1062</ele>
        <time>2026-05-09T13:02:16.018Z</time>
      </trkpt>
      <trkpt lat="47.93881" lon="6.92187">
        <ele>1062</ele>
        <time>2026-05-09T13:02:17.018Z</time>
      </trkpt>
      <trkpt lat="47.9388" lon="6.92187">
        <ele>1062</ele>
        <time>2026-05-09T13:02:18.017Z</time>
      </trkpt>
      <trkpt lat="47.93882" lon="6.92183">
        <ele>1060</ele>
        <time>2026-05-09T13:02:31.290Z</time>
      </trkpt>
      <trkpt lat="47.93883" lon="6.92182">
        <ele>1060</ele>
        <time>2026-05-09T13:02:32.289Z</time>
      </trkpt>
      <trkpt lat="47.93883" lon="6.92181">
        <ele>1060</ele>
        <time>2026-05-09T13:02:33.289Z</time>
      </trkpt>
      <trkpt lat="47.93883" lon="6.9218">
        <ele>1060</ele>
        <time>2026-05-09T13:02:34.290Z</time>
      </trkpt>
      <trkpt lat="47.93884" lon="6.92179">
        <ele>1059</ele>
        <time>2026-05-09T13:02:35.289Z</time>
      </trkpt>
      <trkpt lat="47.93884" lon="6.92178">
        <ele>1059</ele>
        <time>2026-05-09T13:02:36.290Z</time>
      </trkpt>
      <trkpt lat="47.93885" lon="6.92177">
        <ele>1059</ele>
        <time>2026-05-09T13:02:37.290Z</time>
      </trkpt>
      <trkpt lat="47.93885" lon="6.92177">
        <ele>1059</ele>
        <time>2026-05-09T13:02:38.289Z</time>
      </trkpt>
      <trkpt lat="47.93885" lon="6.92175">
        <ele>1059</ele>
        <time>2026-05-09T13:02:39.289Z</time>
      </trkpt>
      <trkpt lat="47.93886" lon="6.92173">
        <ele>1059</ele>
        <time>2026-05-09T13:02:40.290Z</time>
      </trkpt>
      <trkpt lat="47.93886" lon="6.92172">
        <ele>1059</ele>
        <time>2026-05-09T13:02:41.289Z</time>
      </trkpt>
      <trkpt lat="47.93888" lon="6.92172">
        <ele>1059</ele>
        <time>2026-05-09T13:02:42.289Z</time>
      </trkpt>
      <trkpt lat="47.93888" lon="6.9217">
        <ele>1059</ele>
        <time>2026-05-09T13:02:43.290Z</time>
      </trkpt>
      <trkpt lat="47.93888" lon="6.92169">
        <ele>1059</ele>
        <time>2026-05-09T13:02:44.290Z</time>
      </trkpt>
      <trkpt lat="47.93888" lon="6.92167">
        <ele>1059</ele>
        <time>2026-05-09T13:02:45.290Z</time>
      </trkpt>
      <trkpt lat="47.93889" lon="6.92166">
        <ele>1058</ele>
        <time>2026-05-09T13:02:46.290Z</time>
      </trkpt>
      <trkpt lat="47.9389" lon="6.92165">
        <ele>1058</ele>
        <time>2026-05-09T13:02:47.289Z</time>
      </trkpt>
      <trkpt lat="47.9389" lon="6.92164">
        <ele>1058</ele>
        <time>2026-05-09T13:02:48.290Z</time>
      </trkpt>
      <trkpt lat="47.93891" lon="6.92163">
        <ele>1058</ele>
        <time>2026-05-09T13:02:49.289Z</time>
      </trkpt>
      <trkpt lat="47.93891" lon="6.92162">
        <ele>1058</ele>
        <time>2026-05-09T13:02:50.289Z</time>
      </trkpt>
      <trkpt lat="47.93892" lon="6.92162">
        <ele>1058</ele>
        <time>2026-05-09T13:02:51.290Z</time>
      </trkpt>
      <trkpt lat="47.93893" lon="6.92161">
        <ele>1058</ele>
        <time>2026-05-09T13:02:52.289Z</time>
      </trkpt>
      <trkpt lat="47.93893" lon="6.9216">
        <ele>1058</ele>
        <time>2026-05-09T13:02:53.290Z</time>
      </trkpt>
      <trkpt lat="47.93894" lon="6.92159">
        <ele>1058</ele>
        <time>2026-05-09T13:02:54.289Z</time>
      </trkpt>
      <trkpt lat="47.93894" lon="6.92159">
        <ele>1058</ele>
        <time>2026-05-09T13:02:55.289Z</time>
      </trkpt>
      <trkpt lat="47.93895" lon="6.92157">
        <ele>1058</ele>
        <time>2026-05-09T13:02:56.289Z</time>
      </trkpt>
      <trkpt lat="47.93895" lon="6.92156">
        <ele>1058</ele>
        <time>2026-05-09T13:02:57.289Z</time>
      </trkpt>
      <trkpt lat="47.93896" lon="6.92154">
        <ele>1058</ele>
        <time>2026-05-09T13:02:58.289Z</time>
      </trkpt>
      <trkpt lat="47.93897" lon="6.92152">
        <ele>1057</ele>
        <time>2026-05-09T13:02:59.289Z</time>
      </trkpt>
      <trkpt lat="47.93898" lon="6.92151">
        <ele>1057</ele>
        <time>2026-05-09T13:03:00.290Z</time>
      </trkpt>
      <trkpt lat="47.93898" lon="6.92151">
        <ele>1057</ele>
        <time>2026-05-09T13:03:01.290Z</time>
      </trkpt>
      <trkpt lat="47.93899" lon="6.9215">
        <ele>1057</ele>
        <time>2026-05-09T13:03:02.290Z</time>
      </trkpt>
      <trkpt lat="47.93899" lon="6.9215">
        <ele>1058</ele>
        <time>2026-05-09T13:03:03.290Z</time>
      </trkpt>
      <trkpt lat="47.93899" lon="6.9215">
        <ele>1058</ele>
        <time>2026-05-09T13:03:04.290Z</time>
      </trkpt>
      <trkpt lat="47.93901" lon="6.92158">
        <ele>1061</ele>
        <time>2026-05-09T13:03:09.764Z</time>
      </trkpt>
      <trkpt lat="47.93901" lon="6.9216">
        <ele>1061</ele>
        <time>2026-05-09T13:03:10.763Z</time>
      </trkpt>
      <trkpt lat="47.93901" lon="6.92162">
        <ele>1061</ele>
        <time>2026-05-09T13:03:11.763Z</time>
      </trkpt>
      <trkpt lat="47.93901" lon="6.92163">
        <ele>1060</ele>
        <time>2026-05-09T13:03:12.764Z</time>
      </trkpt>
      <trkpt lat="47.93902" lon="6.92165">
        <ele>1060</ele>
        <time>2026-05-09T13:03:13.764Z</time>
      </trkpt>
      <trkpt lat="47.93903" lon="6.92166">
        <ele>1060</ele>
        <time>2026-05-09T13:03:14.764Z</time>
      </trkpt>
      <trkpt lat="47.93904" lon="6.92167">
        <ele>1060</ele>
        <time>2026-05-09T13:03:15.764Z</time>
      </trkpt>
      <trkpt lat="47.93905" lon="6.92169">
        <ele>1060</ele>
        <time>2026-05-09T13:03:16.764Z</time>
      </trkpt>
      <trkpt lat="47.93906" lon="6.9217">
        <ele>1059</ele>
        <time>2026-05-09T13:03:17.764Z</time>
      </trkpt>
      <trkpt lat="47.93906" lon="6.92171">
        <ele>1059</ele>
        <time>2026-05-09T13:03:18.764Z</time>
      </trkpt>
      <trkpt lat="47.93906" lon="6.92172">
        <ele>1059</ele>
        <time>2026-05-09T13:03:19.764Z</time>
      </trkpt>
      <trkpt lat="47.93906" lon="6.92172">
        <ele>1059</ele>
        <time>2026-05-09T13:03:20.764Z</time>
      </trkpt>
      <trkpt lat="47.93906" lon="6.92173">
        <ele>1059</ele>
        <time>2026-05-09T13:03:21.763Z</time>
      </trkpt>
      <trkpt lat="47.93906" lon="6.92173">
        <ele>1059</ele>
        <time>2026-05-09T13:03:22.763Z</time>
      </trkpt>
      <trkpt lat="47.93907" lon="6.92174">
        <ele>1059</ele>
        <time>2026-05-09T13:03:23.763Z</time>
      </trkpt>
      <trkpt lat="47.93907" lon="6.92174">
        <ele>1059</ele>
        <time>2026-05-09T13:03:24.763Z</time>
      </trkpt>
      <trkpt lat="47.93908" lon="6.92176">
        <ele>1060</ele>
        <time>2026-05-09T13:03:25.763Z</time>
      </trkpt>
      <trkpt lat="47.93908" lon="6.92178">
        <ele>1060</ele>
        <time>2026-05-09T13:03:26.763Z</time>
      </trkpt>
      <trkpt lat="47.93909" lon="6.9218">
        <ele>1060</ele>
        <time>2026-05-09T13:03:27.763Z</time>
      </trkpt>
      <trkpt lat="47.9391" lon="6.92182">
        <ele>1060</ele>
        <time>2026-05-09T13:03:28.764Z</time>
      </trkpt>
      <trkpt lat="47.9391" lon="6.92183">
        <ele>1060</ele>
        <time>2026-05-09T13:03:29.764Z</time>
      </trkpt>
      <trkpt lat="47.9391" lon="6.92185">
        <ele>1060</ele>
        <time>2026-05-09T13:03:30.764Z</time>
      </trkpt>
      <trkpt lat="47.93911" lon="6.92186">
        <ele>1060</ele>
        <time>2026-05-09T13:03:31.764Z</time>
      </trkpt>
      <trkpt lat="47.93911" lon="6.92188">
        <ele>1061</ele>
        <time>2026-05-09T13:03:32.764Z</time>
      </trkpt>
      <trkpt lat="47.93912" lon="6.92189">
        <ele>1061</ele>
        <time>2026-05-09T13:03:33.763Z</time>
      </trkpt>
      <trkpt lat="47.93913" lon="6.92191">
        <ele>1061</ele>
        <time>2026-05-09T13:03:34.764Z</time>
      </trkpt>
      <trkpt lat="47.93914" lon="6.92193">
        <ele>1062</ele>
        <time>2026-05-09T13:03:35.764Z</time>
      </trkpt>
      <trkpt lat="47.93914" lon="6.92195">
        <ele>1062</ele>
        <time>2026-05-09T13:03:36.764Z</time>
      </trkpt>
      <trkpt lat="47.93914" lon="6.92196">
        <ele>1062</ele>
        <time>2026-05-09T13:03:37.763Z</time>
      </trkpt>
      <trkpt lat="47.93914" lon="6.92198">
        <ele>1062</ele>
        <time>2026-05-09T13:03:38.763Z</time>
      </trkpt>
      <trkpt lat="47.93915" lon="6.922">
        <ele>1062</ele>
        <time>2026-05-09T13:03:39.764Z</time>
      </trkpt>
      <trkpt lat="47.93915" lon="6.92203">
        <ele>1063</ele>
        <time>2026-05-09T13:03:40.763Z</time>
      </trkpt>
      <trkpt lat="47.93915" lon="6.92205">
        <ele>1063</ele>
        <time>2026-05-09T13:03:41.764Z</time>
      </trkpt>
      <trkpt lat="47.93914" lon="6.92207">
        <ele>1064</ele>
        <time>2026-05-09T13:03:42.763Z</time>
      </trkpt>
      <trkpt lat="47.93913" lon="6.92208">
        <ele>1064</ele>
        <time>2026-05-09T13:03:43.764Z</time>
      </trkpt>
      <trkpt lat="47.93913" lon="6.9221">
        <ele>1064</ele>
        <time>2026-05-09T13:03:44.764Z</time>
      </trkpt>
      <trkpt lat="47.93913" lon="6.92211">
        <ele>1064</ele>
        <time>2026-05-09T13:03:45.764Z</time>
      </trkpt>
      <trkpt lat="47.93914" lon="6.92212">
        <ele>1064</ele>
        <time>2026-05-09T13:03:46.764Z</time>
      </trkpt>
      <trkpt lat="47.93914" lon="6.92213">
        <ele>1064</ele>
        <time>2026-05-09T13:03:47.763Z</time>
      </trkpt>
      <trkpt lat="47.93914" lon="6.92215">
        <ele>1064</ele>
        <time>2026-05-09T13:03:48.763Z</time>
      </trkpt>
      <trkpt lat="47.93914" lon="6.92215">
        <ele>1065</ele>
        <time>2026-05-09T13:03:49.763Z</time>
      </trkpt>
      <trkpt lat="47.93914" lon="6.92215">
        <ele>1065</ele>
        <time>2026-05-09T13:03:50.763Z</time>
      </trkpt>
      <trkpt lat="47.93916" lon="6.92224">
        <ele>1065</ele>
        <time>2026-05-09T13:04:13.098Z</time>
      </trkpt>
      <trkpt lat="47.93917" lon="6.92226">
        <ele>1065</ele>
        <time>2026-05-09T13:04:14.098Z</time>
      </trkpt>
      <trkpt lat="47.93917" lon="6.92228">
        <ele>1065</ele>
        <time>2026-05-09T13:04:15.098Z</time>
      </trkpt>
      <trkpt lat="47.93918" lon="6.92229">
        <ele>1065</ele>
        <time>2026-05-09T13:04:16.098Z</time>
      </trkpt>
      <trkpt lat="47.93918" lon="6.9223">
        <ele>1065</ele>
        <time>2026-05-09T13:04:17.097Z</time>
      </trkpt>
      <trkpt lat="47.93918" lon="6.9223">
        <ele>1066</ele>
        <time>2026-05-09T13:04:18.098Z</time>
      </trkpt>
      <trkpt lat="47.93919" lon="6.9223">
        <ele>1066</ele>
        <time>2026-05-09T13:04:19.097Z</time>
      </trkpt>
      <trkpt lat="47.93919" lon="6.92228">
        <ele>1066</ele>
        <time>2026-05-09T13:04:20.098Z</time>
      </trkpt>
      <trkpt lat="47.93919" lon="6.92227">
        <ele>1066</ele>
        <time>2026-05-09T13:04:21.097Z</time>
      </trkpt>
      <trkpt lat="47.93919" lon="6.92226">
        <ele>1066</ele>
        <time>2026-05-09T13:04:22.098Z</time>
      </trkpt>
      <trkpt lat="47.9392" lon="6.92225">
        <ele>1067</ele>
        <time>2026-05-09T13:04:23.097Z</time>
      </trkpt>
      <trkpt lat="47.9392" lon="6.92224">
        <ele>1067</ele>
        <time>2026-05-09T13:04:24.098Z</time>
      </trkpt>
      <trkpt lat="47.93921" lon="6.92223">
        <ele>1067</ele>
        <time>2026-05-09T13:04:25.097Z</time>
      </trkpt>
      <trkpt lat="47.93921" lon="6.92222">
        <ele>1068</ele>
        <time>2026-05-09T13:04:26.098Z</time>
      </trkpt>
      <trkpt lat="47.93921" lon="6.92221">
        <ele>1068</ele>
        <time>2026-05-09T13:04:27.097Z</time>
      </trkpt>
      <trkpt lat="47.93921" lon="6.92219">
        <ele>1069</ele>
        <time>2026-05-09T13:04:28.097Z</time>
      </trkpt>
      <trkpt lat="47.93922" lon="6.92218">
        <ele>1069</ele>
        <time>2026-05-09T13:04:29.097Z</time>
      </trkpt>
      <trkpt lat="47.93923" lon="6.92217">
        <ele>1070</ele>
        <time>2026-05-09T13:04:30.098Z</time>
      </trkpt>
      <trkpt lat="47.93923" lon="6.92216">
        <ele>1070</ele>
        <time>2026-05-09T13:04:31.097Z</time>
      </trkpt>
      <trkpt lat="47.93924" lon="6.92215">
        <ele>1071</ele>
        <time>2026-05-09T13:04:32.097Z</time>
      </trkpt>
      <trkpt lat="47.93925" lon="6.92214">
        <ele>1072</ele>
        <time>2026-05-09T13:04:33.098Z</time>
      </trkpt>
      <trkpt lat="47.93926" lon="6.92213">
        <ele>1072</ele>
        <time>2026-05-09T13:04:34.097Z</time>
      </trkpt>
      <trkpt lat="47.93926" lon="6.92212">
        <ele>1072</ele>
        <time>2026-05-09T13:04:35.097Z</time>
      </trkpt>
      <trkpt lat="47.93927" lon="6.9221">
        <ele>1073</ele>
        <time>2026-05-09T13:04:36.097Z</time>
      </trkpt>
      <trkpt lat="47.93928" lon="6.92208">
        <ele>1073</ele>
        <time>2026-05-09T13:04:37.097Z</time>
      </trkpt>
      <trkpt lat="47.93928" lon="6.92206">
        <ele>1073</ele>
        <time>2026-05-09T13:04:38.097Z</time>
      </trkpt>
      <trkpt lat="47.93929" lon="6.92205">
        <ele>1073</ele>
        <time>2026-05-09T13:04:39.098Z</time>
      </trkpt>
      <trkpt lat="47.9393" lon="6.92203">
        <ele>1073</ele>
        <time>2026-05-09T13:04:40.097Z</time>
      </trkpt>
      <trkpt lat="47.93931" lon="6.92201">
        <ele>1073</ele>
        <time>2026-05-09T13:04:41.098Z</time>
      </trkpt>
      <trkpt lat="47.93931" lon="6.92198">
        <ele>1073</ele>
        <time>2026-05-09T13:04:42.097Z</time>
      </trkpt>
      <trkpt lat="47.93932" lon="6.92195">
        <ele>1073</ele>
        <time>2026-05-09T13:04:43.098Z</time>
      </trkpt>
      <trkpt lat="47.93933" lon="6.92193">
        <ele>1073</ele>
        <time>2026-05-09T13:04:44.098Z</time>
      </trkpt>
      <trkpt lat="47.93933" lon="6.92191">
        <ele>1073</ele>
        <time>2026-05-09T13:04:45.098Z</time>
      </trkpt>
      <trkpt lat="47.93933" lon="6.92188">
        <ele>1072</ele>
        <time>2026-05-09T13:04:46.097Z</time>
      </trkpt>
      <trkpt lat="47.93933" lon="6.92186">
        <ele>1072</ele>
        <time>2026-05-09T13:04:47.098Z</time>
      </trkpt>
      <trkpt lat="47.93935" lon="6.92185">
        <ele>1072</ele>
        <time>2026-05-09T13:04:48.098Z</time>
      </trkpt>
      <trkpt lat="47.93936" lon="6.92185">
        <ele>1072</ele>
        <time>2026-05-09T13:04:49.097Z</time>
      </trkpt>
      <trkpt lat="47.93937" lon="6.92187">
        <ele>1072</ele>
        <time>2026-05-09T13:04:50.098Z</time>
      </trkpt>
      <trkpt lat="47.93937" lon="6.92189">
        <ele>1072</ele>
        <time>2026-05-09T13:04:51.097Z</time>
      </trkpt>
      <trkpt lat="47.93938" lon="6.92191">
        <ele>1072</ele>
        <time>2026-05-09T13:04:52.097Z</time>
      </trkpt>
      <trkpt lat="47.93938" lon="6.92193">
        <ele>1073</ele>
        <time>2026-05-09T13:04:53.097Z</time>
      </trkpt>
      <trkpt lat="47.93938" lon="6.92195">
        <ele>1073</ele>
        <time>2026-05-09T13:04:54.098Z</time>
      </trkpt>
      <trkpt lat="47.93938" lon="6.92197">
        <ele>1073</ele>
        <time>2026-05-09T13:04:55.097Z</time>
      </trkpt>
      <trkpt lat="47.93938" lon="6.92198">
        <ele>1074</ele>
        <time>2026-05-09T13:04:56.098Z</time>
      </trkpt>
      <trkpt lat="47.93938" lon="6.92199">
        <ele>1074</ele>
        <time>2026-05-09T13:04:57.097Z</time>
      </trkpt>
      <trkpt lat="47.93938" lon="6.92201">
        <ele>1074</ele>
        <time>2026-05-09T13:04:58.098Z</time>
      </trkpt>
      <trkpt lat="47.93938" lon="6.92202">
        <ele>1075</ele>
        <time>2026-05-09T13:04:59.097Z</time>
      </trkpt>
      <trkpt lat="47.93938" lon="6.92203">
        <ele>1075</ele>
        <time>2026-05-09T13:05:00.098Z</time>
      </trkpt>
      <trkpt lat="47.93937" lon="6.92204">
        <ele>1075</ele>
        <time>2026-05-09T13:05:01.098Z</time>
      </trkpt>
      <trkpt lat="47.93937" lon="6.92206">
        <ele>1075</ele>
        <time>2026-05-09T13:05:02.097Z</time>
      </trkpt>
      <trkpt lat="47.93936" lon="6.92207">
        <ele>1075</ele>
        <time>2026-05-09T13:05:03.098Z</time>
      </trkpt>
      <trkpt lat="47.93936" lon="6.92209">
        <ele>1076</ele>
        <time>2026-05-09T13:05:04.097Z</time>
      </trkpt>
      <trkpt lat="47.93935" lon="6.92212">
        <ele>1076</ele>
        <time>2026-05-09T13:05:05.098Z</time>
      </trkpt>
      <trkpt lat="47.93935" lon="6.92215">
        <ele>1076</ele>
        <time>2026-05-09T13:05:06.097Z</time>
      </trkpt>
      <trkpt lat="47.93935" lon="6.92218">
        <ele>1076</ele>
        <time>2026-05-09T13:05:07.097Z</time>
      </trkpt>
      <trkpt lat="47.93934" lon="6.9222">
        <ele>1077</ele>
        <time>2026-05-09T13:05:08.098Z</time>
      </trkpt>
      <trkpt lat="47.93934" lon="6.92221">
        <ele>1077</ele>
        <time>2026-05-09T13:05:09.098Z</time>
      </trkpt>
      <trkpt lat="47.93934" lon="6.92222">
        <ele>1077</ele>
        <time>2026-05-09T13:05:10.097Z</time>
      </trkpt>
      <trkpt lat="47.93934" lon="6.92224">
        <ele>1077</ele>
        <time>2026-05-09T13:05:11.098Z</time>
      </trkpt>
      <trkpt lat="47.93934" lon="6.92226">
        <ele>1077</ele>
        <time>2026-05-09T13:05:12.097Z</time>
      </trkpt>
      <trkpt lat="47.93934" lon="6.92228">
        <ele>1077</ele>
        <time>2026-05-09T13:05:13.098Z</time>
      </trkpt>
      <trkpt lat="47.93934" lon="6.92229">
        <ele>1077</ele>
        <time>2026-05-09T13:05:14.098Z</time>
      </trkpt>
      <trkpt lat="47.93933" lon="6.9223">
        <ele>1077</ele>
        <time>2026-05-09T13:05:15.097Z</time>
      </trkpt>
      <trkpt lat="47.93932" lon="6.92233">
        <ele>1077</ele>
        <time>2026-05-09T13:05:16.098Z</time>
      </trkpt>
      <trkpt lat="47.93932" lon="6.92235">
        <ele>1077</ele>
        <time>2026-05-09T13:05:17.097Z</time>
      </trkpt>
      <trkpt lat="47.93931" lon="6.92237">
        <ele>1076</ele>
        <time>2026-05-09T13:05:18.098Z</time>
      </trkpt>
      <trkpt lat="47.9393" lon="6.92238">
        <ele>1076</ele>
        <time>2026-05-09T13:05:19.097Z</time>
      </trkpt>
      <trkpt lat="47.93929" lon="6.92239">
        <ele>1076</ele>
        <time>2026-05-09T13:05:20.098Z</time>
      </trkpt>
      <trkpt lat="47.93929" lon="6.92241">
        <ele>1076</ele>
        <time>2026-05-09T13:05:21.098Z</time>
      </trkpt>
      <trkpt lat="47.93928" lon="6.92242">
        <ele>1076</ele>
        <time>2026-05-09T13:05:22.097Z</time>
      </trkpt>
      <trkpt lat="47.93927" lon="6.92244">
        <ele>1076</ele>
        <time>2026-05-09T13:05:23.098Z</time>
      </trkpt>
      <trkpt lat="47.93927" lon="6.92245">
        <ele>1076</ele>
        <time>2026-05-09T13:05:24.098Z</time>
      </trkpt>
      <trkpt lat="47.93926" lon="6.92247">
        <ele>1076</ele>
        <time>2026-05-09T13:05:25.098Z</time>
      </trkpt>
      <trkpt lat="47.93926" lon="6.92249">
        <ele>1076</ele>
        <time>2026-05-09T13:05:26.097Z</time>
      </trkpt>
      <trkpt lat="47.93926" lon="6.9225">
        <ele>1076</ele>
        <time>2026-05-09T13:05:27.098Z</time>
      </trkpt>
      <trkpt lat="47.93925" lon="6.92251">
        <ele>1076</ele>
        <time>2026-05-09T13:05:28.097Z</time>
      </trkpt>
      <trkpt lat="47.93925" lon="6.92252">
        <ele>1075</ele>
        <time>2026-05-09T13:05:29.098Z</time>
      </trkpt>
      <trkpt lat="47.93925" lon="6.92254">
        <ele>1075</ele>
        <time>2026-05-09T13:05:30.098Z</time>
      </trkpt>
      <trkpt lat="47.93925" lon="6.92257">
        <ele>1075</ele>
        <time>2026-05-09T13:05:31.097Z</time>
      </trkpt>
      <trkpt lat="47.93925" lon="6.9226">
        <ele>1075</ele>
        <time>2026-05-09T13:05:32.098Z</time>
      </trkpt>
      <trkpt lat="47.93924" lon="6.92262">
        <ele>1075</ele>
        <time>2026-05-09T13:05:33.097Z</time>
      </trkpt>
      <trkpt lat="47.93924" lon="6.92264">
        <ele>1075</ele>
        <time>2026-05-09T13:05:34.098Z</time>
      </trkpt>
      <trkpt lat="47.93924" lon="6.92266">
        <ele>1075</ele>
        <time>2026-05-09T13:05:35.097Z</time>
      </trkpt>
      <trkpt lat="47.93923" lon="6.92269">
        <ele>1074</ele>
        <time>2026-05-09T13:05:36.097Z</time>
      </trkpt>
      <trkpt lat="47.93923" lon="6.92271">
        <ele>1074</ele>
        <time>2026-05-09T13:05:37.098Z</time>
      </trkpt>
      <trkpt lat="47.93923" lon="6.92273">
        <ele>1074</ele>
        <time>2026-05-09T13:05:38.097Z</time>
      </trkpt>
      <trkpt lat="47.93924" lon="6.92275">
        <ele>1074</ele>
        <time>2026-05-09T13:05:39.098Z</time>
      </trkpt>
      <trkpt lat="47.93925" lon="6.92276">
        <ele>1073</ele>
        <time>2026-05-09T13:05:40.097Z</time>
      </trkpt>
      <trkpt lat="47.93926" lon="6.92277">
        <ele>1073</ele>
        <time>2026-05-09T13:05:41.098Z</time>
      </trkpt>
      <trkpt lat="47.93927" lon="6.92279">
        <ele>1073</ele>
        <time>2026-05-09T13:05:42.097Z</time>
      </trkpt>
      <trkpt lat="47.93928" lon="6.9228">
        <ele>1073</ele>
        <time>2026-05-09T13:05:43.098Z</time>
      </trkpt>
      <trkpt lat="47.93929" lon="6.92281">
        <ele>1073</ele>
        <time>2026-05-09T13:05:44.098Z</time>
      </trkpt>
      <trkpt lat="47.9393" lon="6.92282">
        <ele>1072</ele>
        <time>2026-05-09T13:05:45.097Z</time>
      </trkpt>
      <trkpt lat="47.93931" lon="6.92283">
        <ele>1072</ele>
        <time>2026-05-09T13:05:46.098Z</time>
      </trkpt>
      <trkpt lat="47.93932" lon="6.92284">
        <ele>1072</ele>
        <time>2026-05-09T13:05:47.097Z</time>
      </trkpt>
      <trkpt lat="47.93933" lon="6.92285">
        <ele>1072</ele>
        <time>2026-05-09T13:05:48.098Z</time>
      </trkpt>
      <trkpt lat="47.93934" lon="6.92286">
        <ele>1071</ele>
        <time>2026-05-09T13:05:49.098Z</time>
      </trkpt>
      <trkpt lat="47.93935" lon="6.92287">
        <ele>1071</ele>
        <time>2026-05-09T13:05:50.097Z</time>
      </trkpt>
      <trkpt lat="47.93936" lon="6.92287">
        <ele>1071</ele>
        <time>2026-05-09T13:05:51.098Z</time>
      </trkpt>
      <trkpt lat="47.93937" lon="6.92288">
        <ele>1071</ele>
        <time>2026-05-09T13:05:52.097Z</time>
      </trkpt>
      <trkpt lat="47.93938" lon="6.92289">
        <ele>1071</ele>
        <time>2026-05-09T13:05:53.098Z</time>
      </trkpt>
      <trkpt lat="47.93939" lon="6.9229">
        <ele>1071</ele>
        <time>2026-05-09T13:05:54.097Z</time>
      </trkpt>
      <trkpt lat="47.9394" lon="6.9229">
        <ele>1072</ele>
        <time>2026-05-09T13:05:55.098Z</time>
      </trkpt>
      <trkpt lat="47.9394" lon="6.92291">
        <ele>1072</ele>
        <time>2026-05-09T13:05:56.098Z</time>
      </trkpt>
      <trkpt lat="47.9394" lon="6.9229">
        <ele>1071</ele>
        <time>2026-05-09T13:05:57.097Z</time>
      </trkpt>
      <trkpt lat="47.93944" lon="6.92291">
        <ele>1074</ele>
        <time>2026-05-09T13:06:05.335Z</time>
      </trkpt>
      <trkpt lat="47.93945" lon="6.92292">
        <ele>1075</ele>
        <time>2026-05-09T13:06:06.336Z</time>
      </trkpt>
      <trkpt lat="47.93946" lon="6.92292">
        <ele>1075</ele>
        <time>2026-05-09T13:06:07.335Z</time>
      </trkpt>
      <trkpt lat="47.93948" lon="6.92292">
        <ele>1076</ele>
        <time>2026-05-09T13:06:08.335Z</time>
      </trkpt>
      <trkpt lat="47.93949" lon="6.92293">
        <ele>1076</ele>
        <time>2026-05-09T13:06:09.336Z</time>
      </trkpt>
      <trkpt lat="47.9395" lon="6.92294">
        <ele>1076</ele>
        <time>2026-05-09T13:06:10.336Z</time>
      </trkpt>
      <trkpt lat="47.93951" lon="6.92294">
        <ele>1077</ele>
        <time>2026-05-09T13:06:11.335Z</time>
      </trkpt>
      <trkpt lat="47.93953" lon="6.92295">
        <ele>1077</ele>
        <time>2026-05-09T13:06:12.335Z</time>
      </trkpt>
      <trkpt lat="47.93954" lon="6.92295">
        <ele>1077</ele>
        <time>2026-05-09T13:06:13.335Z</time>
      </trkpt>
      <trkpt lat="47.93955" lon="6.92296">
        <ele>1077</ele>
        <time>2026-05-09T13:06:14.335Z</time>
      </trkpt>
      <trkpt lat="47.93957" lon="6.92296">
        <ele>1078</ele>
        <time>2026-05-09T13:06:15.335Z</time>
      </trkpt>
      <trkpt lat="47.93958" lon="6.92297">
        <ele>1078</ele>
        <time>2026-05-09T13:06:16.335Z</time>
      </trkpt>
      <trkpt lat="47.93959" lon="6.92298">
        <ele>1078</ele>
        <time>2026-05-09T13:06:17.335Z</time>
      </trkpt>
      <trkpt lat="47.9396" lon="6.92298">
        <ele>1078</ele>
        <time>2026-05-09T13:06:18.335Z</time>
      </trkpt>
      <trkpt lat="47.93961" lon="6.92297">
        <ele>1077</ele>
        <time>2026-05-09T13:06:19.336Z</time>
      </trkpt>
      <trkpt lat="47.93963" lon="6.92297">
        <ele>1077</ele>
        <time>2026-05-09T13:06:20.335Z</time>
      </trkpt>
      <trkpt lat="47.93964" lon="6.92297">
        <ele>1078</ele>
        <time>2026-05-09T13:06:21.335Z</time>
      </trkpt>
      <trkpt lat="47.93965" lon="6.92296">
        <ele>1078</ele>
        <time>2026-05-09T13:06:22.335Z</time>
      </trkpt>
      <trkpt lat="47.93966" lon="6.92296">
        <ele>1078</ele>
        <time>2026-05-09T13:06:23.335Z</time>
      </trkpt>
      <trkpt lat="47.93968" lon="6.92297">
        <ele>1079</ele>
        <time>2026-05-09T13:06:24.335Z</time>
      </trkpt>
      <trkpt lat="47.93969" lon="6.92298">
        <ele>1079</ele>
        <time>2026-05-09T13:06:25.335Z</time>
      </trkpt>
      <trkpt lat="47.93971" lon="6.92299">
        <ele>1080</ele>
        <time>2026-05-09T13:06:26.335Z</time>
      </trkpt>
      <trkpt lat="47.93973" lon="6.92299">
        <ele>1080</ele>
        <time>2026-05-09T13:06:27.336Z</time>
      </trkpt>
      <trkpt lat="47.93975" lon="6.92299">
        <ele>1081</ele>
        <time>2026-05-09T13:06:28.336Z</time>
      </trkpt>
      <trkpt lat="47.93977" lon="6.92299">
        <ele>1081</ele>
        <time>2026-05-09T13:06:29.336Z</time>
      </trkpt>
      <trkpt lat="47.93978" lon="6.92299">
        <ele>1082</ele>
        <time>2026-05-09T13:06:30.336Z</time>
      </trkpt>
      <trkpt lat="47.93979" lon="6.923">
        <ele>1083</ele>
        <time>2026-05-09T13:06:31.336Z</time>
      </trkpt>
      <trkpt lat="47.9398" lon="6.923">
        <ele>1083</ele>
        <time>2026-05-09T13:06:32.335Z</time>
      </trkpt>
      <trkpt lat="47.93982" lon="6.923">
        <ele>1083</ele>
        <time>2026-05-09T13:06:33.336Z</time>
      </trkpt>
      <trkpt lat="47.93983" lon="6.923">
        <ele>1084</ele>
        <time>2026-05-09T13:06:34.335Z</time>
      </trkpt>
      <trkpt lat="47.93985" lon="6.92301">
        <ele>1083</ele>
        <time>2026-05-09T13:06:35.335Z</time>
      </trkpt>
      <trkpt lat="47.93986" lon="6.92301">
        <ele>1083</ele>
        <time>2026-05-09T13:06:36.335Z</time>
      </trkpt>
      <trkpt lat="47.93988" lon="6.92301">
        <ele>1083</ele>
        <time>2026-05-09T13:06:37.335Z</time>
      </trkpt>
      <trkpt lat="47.93988" lon="6.92301">
        <ele>1083</ele>
        <time>2026-05-09T13:06:38.335Z</time>
      </trkpt>
      <trkpt lat="47.9399" lon="6.92301">
        <ele>1083</ele>
        <time>2026-05-09T13:06:39.335Z</time>
      </trkpt>
      <trkpt lat="47.93991" lon="6.92301">
        <ele>1082</ele>
        <time>2026-05-09T13:06:40.335Z</time>
      </trkpt>
      <trkpt lat="47.93993" lon="6.923">
        <ele>1082</ele>
        <time>2026-05-09T13:06:41.335Z</time>
      </trkpt>
      <trkpt lat="47.93995" lon="6.923">
        <ele>1082</ele>
        <time>2026-05-09T13:06:42.335Z</time>
      </trkpt>
      <trkpt lat="47.93997" lon="6.92301">
        <ele>1082</ele>
        <time>2026-05-09T13:06:43.335Z</time>
      </trkpt>
      <trkpt lat="47.93999" lon="6.92302">
        <ele>1082</ele>
        <time>2026-05-09T13:06:44.336Z</time>
      </trkpt>
      <trkpt lat="47.94001" lon="6.92301">
        <ele>1082</ele>
        <time>2026-05-09T13:06:45.336Z</time>
      </trkpt>
      <trkpt lat="47.94001" lon="6.92302">
        <ele>1082</ele>
        <time>2026-05-09T13:06:46.335Z</time>
      </trkpt>
      <trkpt lat="47.94003" lon="6.92303">
        <ele>1081</ele>
        <time>2026-05-09T13:06:47.335Z</time>
      </trkpt>
      <trkpt lat="47.94005" lon="6.92304">
        <ele>1081</ele>
        <time>2026-05-09T13:06:48.335Z</time>
      </trkpt>
      <trkpt lat="47.94006" lon="6.92306">
        <ele>1081</ele>
        <time>2026-05-09T13:06:49.335Z</time>
      </trkpt>
      <trkpt lat="47.94008" lon="6.92307">
        <ele>1081</ele>
        <time>2026-05-09T13:06:50.335Z</time>
      </trkpt>
      <trkpt lat="47.94009" lon="6.92308">
        <ele>1081</ele>
        <time>2026-05-09T13:06:51.335Z</time>
      </trkpt>
      <trkpt lat="47.9401" lon="6.92308">
        <ele>1082</ele>
        <time>2026-05-09T13:06:52.336Z</time>
      </trkpt>
      <trkpt lat="47.94012" lon="6.92309">
        <ele>1082</ele>
        <time>2026-05-09T13:06:53.336Z</time>
      </trkpt>
      <trkpt lat="47.94013" lon="6.92309">
        <ele>1082</ele>
        <time>2026-05-09T13:06:54.336Z</time>
      </trkpt>
      <trkpt lat="47.94016" lon="6.9231">
        <ele>1082</ele>
        <time>2026-05-09T13:06:55.336Z</time>
      </trkpt>
      <trkpt lat="47.94018" lon="6.9231">
        <ele>1082</ele>
        <time>2026-05-09T13:06:56.335Z</time>
      </trkpt>
      <trkpt lat="47.94019" lon="6.9231">
        <ele>1082</ele>
        <time>2026-05-09T13:06:57.335Z</time>
      </trkpt>
      <trkpt lat="47.94021" lon="6.92311">
        <ele>1082</ele>
        <time>2026-05-09T13:06:58.336Z</time>
      </trkpt>
      <trkpt lat="47.94022" lon="6.92311">
        <ele>1082</ele>
        <time>2026-05-09T13:06:59.335Z</time>
      </trkpt>
      <trkpt lat="47.94024" lon="6.92312">
        <ele>1081</ele>
        <time>2026-05-09T13:07:00.335Z</time>
      </trkpt>
      <trkpt lat="47.94025" lon="6.92312">
        <ele>1081</ele>
        <time>2026-05-09T13:07:01.335Z</time>
      </trkpt>
      <trkpt lat="47.94027" lon="6.92312">
        <ele>1081</ele>
        <time>2026-05-09T13:07:02.335Z</time>
      </trkpt>
      <trkpt lat="47.94028" lon="6.92313">
        <ele>1081</ele>
        <time>2026-05-09T13:07:03.335Z</time>
      </trkpt>
      <trkpt lat="47.94031" lon="6.92313">
        <ele>1081</ele>
        <time>2026-05-09T13:07:04.335Z</time>
      </trkpt>
      <trkpt lat="47.94034" lon="6.92312">
        <ele>1081</ele>
        <time>2026-05-09T13:07:05.335Z</time>
      </trkpt>
      <trkpt lat="47.94036" lon="6.92312">
        <ele>1082</ele>
        <time>2026-05-09T13:07:06.335Z</time>
      </trkpt>
      <trkpt lat="47.94038" lon="6.92313">
        <ele>1082</ele>
        <time>2026-05-09T13:07:07.335Z</time>
      </trkpt>
      <trkpt lat="47.9404" lon="6.92313">
        <ele>1082</ele>
        <time>2026-05-09T13:07:08.336Z</time>
      </trkpt>
      <trkpt lat="47.9404" lon="6.92311">
        <ele>1082</ele>
        <time>2026-05-09T13:07:09.336Z</time>
      </trkpt>
      <trkpt lat="47.94043" lon="6.92312">
        <ele>1082</ele>
        <time>2026-05-09T13:07:10.336Z</time>
      </trkpt>
      <trkpt lat="47.94045" lon="6.92312">
        <ele>1083</ele>
        <time>2026-05-09T13:07:11.336Z</time>
      </trkpt>
      <trkpt lat="47.94048" lon="6.92309">
        <ele>1083</ele>
        <time>2026-05-09T13:07:12.336Z</time>
      </trkpt>
      <trkpt lat="47.94051" lon="6.92307">
        <ele>1083</ele>
        <time>2026-05-09T13:07:13.336Z</time>
      </trkpt>
      <trkpt lat="47.94055" lon="6.92306">
        <ele>1083</ele>
        <time>2026-05-09T13:07:14.336Z</time>
      </trkpt>
      <trkpt lat="47.94056" lon="6.92306">
        <ele>1083</ele>
        <time>2026-05-09T13:07:15.335Z</time>
      </trkpt>
      <trkpt lat="47.94056" lon="6.92307">
        <ele>1083</ele>
        <time>2026-05-09T13:07:16.335Z</time>
      </trkpt>
      <trkpt lat="47.94058" lon="6.92304">
        <ele>1083</ele>
        <time>2026-05-09T13:07:17.335Z</time>
      </trkpt>
      <trkpt lat="47.94058" lon="6.92304">
        <ele>1084</ele>
        <time>2026-05-09T13:07:18.335Z</time>
      </trkpt>
      <trkpt lat="47.94059" lon="6.92302">
        <ele>1084</ele>
        <time>2026-05-09T13:07:19.335Z</time>
      </trkpt>
      <trkpt lat="47.94061" lon="6.92302">
        <ele>1085</ele>
        <time>2026-05-09T13:07:20.335Z</time>
      </trkpt>
      <trkpt lat="47.94063" lon="6.92302">
        <ele>1085</ele>
        <time>2026-05-09T13:07:21.335Z</time>
      </trkpt>
      <trkpt lat="47.94066" lon="6.92302">
        <ele>1085</ele>
        <time>2026-05-09T13:07:22.335Z</time>
      </trkpt>
      <trkpt lat="47.94067" lon="6.92301">
        <ele>1086</ele>
        <time>2026-05-09T13:07:23.335Z</time>
      </trkpt>
      <trkpt lat="47.94069" lon="6.92302">
        <ele>1086</ele>
        <time>2026-05-09T13:07:24.335Z</time>
      </trkpt>
      <trkpt lat="47.9407" lon="6.92301">
        <ele>1086</ele>
        <time>2026-05-09T13:07:25.335Z</time>
      </trkpt>
      <trkpt lat="47.9407" lon="6.923">
        <ele>1086</ele>
        <time>2026-05-09T13:07:26.335Z</time>
      </trkpt>
      <trkpt lat="47.94071" lon="6.92299">
        <ele>1087</ele>
        <time>2026-05-09T13:07:27.335Z</time>
      </trkpt>
      <trkpt lat="47.94074" lon="6.923">
        <ele>1087</ele>
        <time>2026-05-09T13:07:28.335Z</time>
      </trkpt>
      <trkpt lat="47.94078" lon="6.92302">
        <ele>1087</ele>
        <time>2026-05-09T13:07:29.335Z</time>
      </trkpt>
      <trkpt lat="47.9408" lon="6.92303">
        <ele>1087</ele>
        <time>2026-05-09T13:07:30.335Z</time>
      </trkpt>
      <trkpt lat="47.94083" lon="6.92302">
        <ele>1088</ele>
        <time>2026-05-09T13:07:31.335Z</time>
      </trkpt>
      <trkpt lat="47.94084" lon="6.92303">
        <ele>1088</ele>
        <time>2026-05-09T13:07:32.335Z</time>
      </trkpt>
      <trkpt lat="47.94085" lon="6.92304">
        <ele>1088</ele>
        <time>2026-05-09T13:07:33.336Z</time>
      </trkpt>
      <trkpt lat="47.94087" lon="6.92304">
        <ele>1088</ele>
        <time>2026-05-09T13:07:34.336Z</time>
      </trkpt>
      <trkpt lat="47.94089" lon="6.92304">
        <ele>1088</ele>
        <time>2026-05-09T13:07:35.335Z</time>
      </trkpt>
      <trkpt lat="47.9409" lon="6.92303">
        <ele>1088</ele>
        <time>2026-05-09T13:07:36.336Z</time>
      </trkpt>
      <trkpt lat="47.94088" lon="6.92304">
        <ele>1087</ele>
        <time>2026-05-09T13:07:37.336Z</time>
      </trkpt>
      <trkpt lat="47.94089" lon="6.92306">
        <ele>1087</ele>
        <time>2026-05-09T13:07:38.336Z</time>
      </trkpt>
      <trkpt lat="47.94089" lon="6.92306">
        <ele>1087</ele>
        <time>2026-05-09T13:07:39.336Z</time>
      </trkpt>
      <trkpt lat="47.94089" lon="6.92306">
        <ele>1087</ele>
        <time>2026-05-09T13:07:40.336Z</time>
      </trkpt>
      <trkpt lat="47.9409" lon="6.92306">
        <ele>1086</ele>
        <time>2026-05-09T13:07:41.336Z</time>
      </trkpt>
      <trkpt lat="47.94091" lon="6.92307">
        <ele>1086</ele>
        <time>2026-05-09T13:07:42.336Z</time>
      </trkpt>
      <trkpt lat="47.94092" lon="6.92306">
        <ele>1086</ele>
        <time>2026-05-09T13:07:43.335Z</time>
      </trkpt>
      <trkpt lat="47.94093" lon="6.92306">
        <ele>1085</ele>
        <time>2026-05-09T13:07:44.335Z</time>
      </trkpt>
      <trkpt lat="47.94094" lon="6.92306">
        <ele>1085</ele>
        <time>2026-05-09T13:07:45.335Z</time>
      </trkpt>
      <trkpt lat="47.94095" lon="6.92307">
        <ele>1084</ele>
        <time>2026-05-09T13:07:46.336Z</time>
      </trkpt>
      <trkpt lat="47.94096" lon="6.92307">
        <ele>1084</ele>
        <time>2026-05-09T13:07:47.335Z</time>
      </trkpt>
      <trkpt lat="47.94097" lon="6.92307">
        <ele>1084</ele>
        <time>2026-05-09T13:07:48.336Z</time>
      </trkpt>
      <trkpt lat="47.94098" lon="6.92307">
        <ele>1084</ele>
        <time>2026-05-09T13:07:49.336Z</time>
      </trkpt>
      <trkpt lat="47.94099" lon="6.92307">
        <ele>1084</ele>
        <time>2026-05-09T13:07:50.336Z</time>
      </trkpt>
      <trkpt lat="47.941" lon="6.92307">
        <ele>1084</ele>
        <time>2026-05-09T13:07:51.335Z</time>
      </trkpt>
      <trkpt lat="47.94101" lon="6.92307">
        <ele>1084</ele>
        <time>2026-05-09T13:07:52.336Z</time>
      </trkpt>
      <trkpt lat="47.94102" lon="6.92307">
        <ele>1084</ele>
        <time>2026-05-09T13:07:53.336Z</time>
      </trkpt>
      <trkpt lat="47.94104" lon="6.92307">
        <ele>1084</ele>
        <time>2026-05-09T13:07:54.336Z</time>
      </trkpt>
      <trkpt lat="47.94106" lon="6.92308">
        <ele>1084</ele>
        <time>2026-05-09T13:07:55.336Z</time>
      </trkpt>
      <trkpt lat="47.94107" lon="6.92309">
        <ele>1084</ele>
        <time>2026-05-09T13:07:56.336Z</time>
      </trkpt>
      <trkpt lat="47.94108" lon="6.92309">
        <ele>1084</ele>
        <time>2026-05-09T13:07:57.336Z</time>
      </trkpt>
      <trkpt lat="47.9411" lon="6.9231">
        <ele>1084</ele>
        <time>2026-05-09T13:07:58.335Z</time>
      </trkpt>
      <trkpt lat="47.94111" lon="6.9231">
        <ele>1083</ele>
        <time>2026-05-09T13:07:59.336Z</time>
      </trkpt>
      <trkpt lat="47.94112" lon="6.92311">
        <ele>1083</ele>
        <time>2026-05-09T13:08:00.335Z</time>
      </trkpt>
      <trkpt lat="47.94113" lon="6.92312">
        <ele>1083</ele>
        <time>2026-05-09T13:08:01.336Z</time>
      </trkpt>
      <trkpt lat="47.94114" lon="6.92313">
        <ele>1083</ele>
        <time>2026-05-09T13:08:02.335Z</time>
      </trkpt>
      <trkpt lat="47.94115" lon="6.92314">
        <ele>1083</ele>
        <time>2026-05-09T13:08:03.336Z</time>
      </trkpt>
      <trkpt lat="47.94115" lon="6.92315">
        <ele>1083</ele>
        <time>2026-05-09T13:08:04.335Z</time>
      </trkpt>
      <trkpt lat="47.94116" lon="6.92316">
        <ele>1082</ele>
        <time>2026-05-09T13:08:05.336Z</time>
      </trkpt>
      <trkpt lat="47.94117" lon="6.92318">
        <ele>1082</ele>
        <time>2026-05-09T13:08:06.335Z</time>
      </trkpt>
      <trkpt lat="47.94118" lon="6.92318">
        <ele>1082</ele>
        <time>2026-05-09T13:08:07.335Z</time>
      </trkpt>
      <trkpt lat="47.94119" lon="6.92319">
        <ele>1081</ele>
        <time>2026-05-09T13:08:08.336Z</time>
      </trkpt>
      <trkpt lat="47.94121" lon="6.9232">
        <ele>1081</ele>
        <time>2026-05-09T13:08:09.336Z</time>
      </trkpt>
      <trkpt lat="47.94122" lon="6.9232">
        <ele>1081</ele>
        <time>2026-05-09T13:08:10.335Z</time>
      </trkpt>
      <trkpt lat="47.94123" lon="6.9232">
        <ele>1081</ele>
        <time>2026-05-09T13:08:11.336Z</time>
      </trkpt>
      <trkpt lat="47.94124" lon="6.92321">
        <ele>1081</ele>
        <time>2026-05-09T13:08:12.336Z</time>
      </trkpt>
      <trkpt lat="47.94126" lon="6.92321">
        <ele>1081</ele>
        <time>2026-05-09T13:08:13.336Z</time>
      </trkpt>
      <trkpt lat="47.94127" lon="6.92322">
        <ele>1080</ele>
        <time>2026-05-09T13:08:14.335Z</time>
      </trkpt>
      <trkpt lat="47.94128" lon="6.92322">
        <ele>1080</ele>
        <time>2026-05-09T13:08:15.335Z</time>
      </trkpt>
      <trkpt lat="47.94129" lon="6.92322">
        <ele>1080</ele>
        <time>2026-05-09T13:08:16.336Z</time>
      </trkpt>
      <trkpt lat="47.9413" lon="6.92321">
        <ele>1080</ele>
        <time>2026-05-09T13:08:17.335Z</time>
      </trkpt>
      <trkpt lat="47.94131" lon="6.9232">
        <ele>1080</ele>
        <time>2026-05-09T13:08:18.335Z</time>
      </trkpt>
      <trkpt lat="47.94129" lon="6.92317">
        <ele>1079</ele>
        <time>2026-05-09T13:08:19.335Z</time>
      </trkpt>
      <trkpt lat="47.94129" lon="6.92316">
        <ele>1079</ele>
        <time>2026-05-09T13:08:20.336Z</time>
      </trkpt>
      <trkpt lat="47.9413" lon="6.92314">
        <ele>1079</ele>
        <time>2026-05-09T13:08:21.335Z</time>
      </trkpt>
      <trkpt lat="47.94131" lon="6.92313">
        <ele>1079</ele>
        <time>2026-05-09T13:08:22.335Z</time>
      </trkpt>
      <trkpt lat="47.94132" lon="6.92311">
        <ele>1079</ele>
        <time>2026-05-09T13:08:23.335Z</time>
      </trkpt>
      <trkpt lat="47.94133" lon="6.9231">
        <ele>1080</ele>
        <time>2026-05-09T13:08:24.336Z</time>
      </trkpt>
      <trkpt lat="47.94134" lon="6.92309">
        <ele>1080</ele>
        <time>2026-05-09T13:08:25.335Z</time>
      </trkpt>
      <trkpt lat="47.94134" lon="6.92307">
        <ele>1080</ele>
        <time>2026-05-09T13:08:26.336Z</time>
      </trkpt>
      <trkpt lat="47.94135" lon="6.92306">
        <ele>1080</ele>
        <time>2026-05-09T13:08:27.336Z</time>
      </trkpt>
      <trkpt lat="47.94135" lon="6.92304">
        <ele>1079</ele>
        <time>2026-05-09T13:08:28.336Z</time>
      </trkpt>
      <trkpt lat="47.94135" lon="6.92302">
        <ele>1079</ele>
        <time>2026-05-09T13:08:29.336Z</time>
      </trkpt>
      <trkpt lat="47.94135" lon="6.923">
        <ele>1079</ele>
        <time>2026-05-09T13:08:30.335Z</time>
      </trkpt>
      <trkpt lat="47.94135" lon="6.92298">
        <ele>1079</ele>
        <time>2026-05-09T13:08:31.336Z</time>
      </trkpt>
      <trkpt lat="47.94135" lon="6.92297">
        <ele>1079</ele>
        <time>2026-05-09T13:08:32.336Z</time>
      </trkpt>
      <trkpt lat="47.94135" lon="6.92294">
        <ele>1079</ele>
        <time>2026-05-09T13:08:33.335Z</time>
      </trkpt>
      <trkpt lat="47.94135" lon="6.92292">
        <ele>1079</ele>
        <time>2026-05-09T13:08:34.336Z</time>
      </trkpt>
      <trkpt lat="47.94136" lon="6.9229">
        <ele>1080</ele>
        <time>2026-05-09T13:08:35.335Z</time>
      </trkpt>
      <trkpt lat="47.94136" lon="6.92287">
        <ele>1080</ele>
        <time>2026-05-09T13:08:36.336Z</time>
      </trkpt>
      <trkpt lat="47.94137" lon="6.92286">
        <ele>1080</ele>
        <time>2026-05-09T13:08:37.335Z</time>
      </trkpt>
      <trkpt lat="47.94137" lon="6.92283">
        <ele>1080</ele>
        <time>2026-05-09T13:08:38.336Z</time>
      </trkpt>
      <trkpt lat="47.94137" lon="6.92281">
        <ele>1080</ele>
        <time>2026-05-09T13:08:39.336Z</time>
      </trkpt>
      <trkpt lat="47.94137" lon="6.92279">
        <ele>1081</ele>
        <time>2026-05-09T13:08:40.335Z</time>
      </trkpt>
      <trkpt lat="47.94137" lon="6.92277">
        <ele>1081</ele>
        <time>2026-05-09T13:08:41.335Z</time>
      </trkpt>
      <trkpt lat="47.94137" lon="6.92274">
        <ele>1081</ele>
        <time>2026-05-09T13:08:42.335Z</time>
      </trkpt>
      <trkpt lat="47.94138" lon="6.92273">
        <ele>1082</ele>
        <time>2026-05-09T13:08:43.335Z</time>
      </trkpt>
      <trkpt lat="47.94138" lon="6.92272">
        <ele>1082</ele>
        <time>2026-05-09T13:08:44.335Z</time>
      </trkpt>
      <trkpt lat="47.94138" lon="6.9227">
        <ele>1083</ele>
        <time>2026-05-09T13:08:45.336Z</time>
      </trkpt>
      <trkpt lat="47.94138" lon="6.92267">
        <ele>1083</ele>
        <time>2026-05-09T13:08:46.335Z</time>
      </trkpt>
      <trkpt lat="47.94138" lon="6.92265">
        <ele>1083</ele>
        <time>2026-05-09T13:08:47.336Z</time>
      </trkpt>
      <trkpt lat="47.94138" lon="6.92263">
        <ele>1084</ele>
        <time>2026-05-09T13:08:48.335Z</time>
      </trkpt>
      <trkpt lat="47.94138" lon="6.92261">
        <ele>1084</ele>
        <time>2026-05-09T13:08:49.336Z</time>
      </trkpt>
      <trkpt lat="47.94137" lon="6.92259">
        <ele>1085</ele>
        <time>2026-05-09T13:08:50.335Z</time>
      </trkpt>
      <trkpt lat="47.94136" lon="6.92256">
        <ele>1085</ele>
        <time>2026-05-09T13:08:51.336Z</time>
      </trkpt>
      <trkpt lat="47.94136" lon="6.92254">
        <ele>1085</ele>
        <time>2026-05-09T13:08:52.336Z</time>
      </trkpt>
      <trkpt lat="47.94137" lon="6.92252">
        <ele>1084</ele>
        <time>2026-05-09T13:08:53.336Z</time>
      </trkpt>
      <trkpt lat="47.94137" lon="6.9225">
        <ele>1084</ele>
        <time>2026-05-09T13:08:54.336Z</time>
      </trkpt>
      <trkpt lat="47.94137" lon="6.92248">
        <ele>1084</ele>
        <time>2026-05-09T13:08:55.336Z</time>
      </trkpt>
      <trkpt lat="47.94137" lon="6.92246">
        <ele>1083</ele>
        <time>2026-05-09T13:08:56.336Z</time>
      </trkpt>
      <trkpt lat="47.94137" lon="6.92243">
        <ele>1083</ele>
        <time>2026-05-09T13:08:57.335Z</time>
      </trkpt>
      <trkpt lat="47.94137" lon="6.92241">
        <ele>1082</ele>
        <time>2026-05-09T13:08:58.336Z</time>
      </trkpt>
      <trkpt lat="47.94136" lon="6.9224">
        <ele>1082</ele>
        <time>2026-05-09T13:08:59.335Z</time>
      </trkpt>
      <trkpt lat="47.94136" lon="6.92238">
        <ele>1081</ele>
        <time>2026-05-09T13:09:00.336Z</time>
      </trkpt>
      <trkpt lat="47.94135" lon="6.92236">
        <ele>1080</ele>
        <time>2026-05-09T13:09:01.335Z</time>
      </trkpt>
      <trkpt lat="47.94134" lon="6.92234">
        <ele>1080</ele>
        <time>2026-05-09T13:09:02.336Z</time>
      </trkpt>
      <trkpt lat="47.94133" lon="6.92232">
        <ele>1080</ele>
        <time>2026-05-09T13:09:03.335Z</time>
      </trkpt>
      <trkpt lat="47.94133" lon="6.92229">
        <ele>1079</ele>
        <time>2026-05-09T13:09:04.336Z</time>
      </trkpt>
      <trkpt lat="47.94133" lon="6.92227">
        <ele>1079</ele>
        <time>2026-05-09T13:09:05.335Z</time>
      </trkpt>
      <trkpt lat="47.94133" lon="6.92224">
        <ele>1079</ele>
        <time>2026-05-09T13:09:06.336Z</time>
      </trkpt>
      <trkpt lat="47.94134" lon="6.92222">
        <ele>1079</ele>
        <time>2026-05-09T13:09:07.335Z</time>
      </trkpt>
      <trkpt lat="47.94135" lon="6.92221">
        <ele>1079</ele>
        <time>2026-05-09T13:09:08.336Z</time>
      </trkpt>
      <trkpt lat="47.94136" lon="6.92219">
        <ele>1079</ele>
        <time>2026-05-09T13:09:09.335Z</time>
      </trkpt>
      <trkpt lat="47.94137" lon="6.92218">
        <ele>1079</ele>
        <time>2026-05-09T13:09:10.336Z</time>
      </trkpt>
      <trkpt lat="47.94138" lon="6.92217">
        <ele>1079</ele>
        <time>2026-05-09T13:09:11.336Z</time>
      </trkpt>
      <trkpt lat="47.94138" lon="6.92215">
        <ele>1078</ele>
        <time>2026-05-09T13:09:12.336Z</time>
      </trkpt>
      <trkpt lat="47.94139" lon="6.92215">
        <ele>1078</ele>
        <time>2026-05-09T13:09:13.336Z</time>
      </trkpt>
      <trkpt lat="47.9414" lon="6.92213">
        <ele>1078</ele>
        <time>2026-05-09T13:09:14.335Z</time>
      </trkpt>
      <trkpt lat="47.94141" lon="6.92212">
        <ele>1078</ele>
        <time>2026-05-09T13:09:15.335Z</time>
      </trkpt>
      <trkpt lat="47.94141" lon="6.9221">
        <ele>1078</ele>
        <time>2026-05-09T13:09:16.335Z</time>
      </trkpt>
      <trkpt lat="47.94142" lon="6.92208">
        <ele>1078</ele>
        <time>2026-05-09T13:09:17.336Z</time>
      </trkpt>
      <trkpt lat="47.94143" lon="6.92206">
        <ele>1078</ele>
        <time>2026-05-09T13:09:18.335Z</time>
      </trkpt>
      <trkpt lat="47.94144" lon="6.92205">
        <ele>1078</ele>
        <time>2026-05-09T13:09:19.336Z</time>
      </trkpt>
      <trkpt lat="47.94144" lon="6.92204">
        <ele>1078</ele>
        <time>2026-05-09T13:09:20.335Z</time>
      </trkpt>
      <trkpt lat="47.94146" lon="6.92203">
        <ele>1078</ele>
        <time>2026-05-09T13:09:21.336Z</time>
      </trkpt>
      <trkpt lat="47.94147" lon="6.92202">
        <ele>1078</ele>
        <time>2026-05-09T13:09:22.336Z</time>
      </trkpt>
      <trkpt lat="47.94148" lon="6.92201">
        <ele>1077</ele>
        <time>2026-05-09T13:09:23.336Z</time>
      </trkpt>
      <trkpt lat="47.94149" lon="6.922">
        <ele>1077</ele>
        <time>2026-05-09T13:09:24.335Z</time>
      </trkpt>
      <trkpt lat="47.9415" lon="6.92199">
        <ele>1077</ele>
        <time>2026-05-09T13:09:25.336Z</time>
      </trkpt>
      <trkpt lat="47.94151" lon="6.92197">
        <ele>1076</ele>
        <time>2026-05-09T13:09:26.335Z</time>
      </trkpt>
      <trkpt lat="47.94153" lon="6.92197">
        <ele>1076</ele>
        <time>2026-05-09T13:09:27.336Z</time>
      </trkpt>
      <trkpt lat="47.94154" lon="6.92196">
        <ele>1076</ele>
        <time>2026-05-09T13:09:28.336Z</time>
      </trkpt>
      <trkpt lat="47.94155" lon="6.92194">
        <ele>1075</ele>
        <time>2026-05-09T13:09:29.336Z</time>
      </trkpt>
      <trkpt lat="47.94157" lon="6.92193">
        <ele>1075</ele>
        <time>2026-05-09T13:09:30.336Z</time>
      </trkpt>
      <trkpt lat="47.94158" lon="6.92193">
        <ele>1075</ele>
        <time>2026-05-09T13:09:31.335Z</time>
      </trkpt>
      <trkpt lat="47.94159" lon="6.92191">
        <ele>1075</ele>
        <time>2026-05-09T13:09:32.336Z</time>
      </trkpt>
      <trkpt lat="47.9416" lon="6.9219">
        <ele>1075</ele>
        <time>2026-05-09T13:09:33.335Z</time>
      </trkpt>
      <trkpt lat="47.94161" lon="6.92188">
        <ele>1075</ele>
        <time>2026-05-09T13:09:34.336Z</time>
      </trkpt>
      <trkpt lat="47.94162" lon="6.92186">
        <ele>1075</ele>
        <time>2026-05-09T13:09:35.335Z</time>
      </trkpt>
      <trkpt lat="47.94162" lon="6.92184">
        <ele>1075</ele>
        <time>2026-05-09T13:09:36.336Z</time>
      </trkpt>
      <trkpt lat="47.94163" lon="6.92181">
        <ele>1075</ele>
        <time>2026-05-09T13:09:37.335Z</time>
      </trkpt>
      <trkpt lat="47.94164" lon="6.92179">
        <ele>1075</ele>
        <time>2026-05-09T13:09:38.336Z</time>
      </trkpt>
      <trkpt lat="47.94164" lon="6.92176">
        <ele>1075</ele>
        <time>2026-05-09T13:09:39.335Z</time>
      </trkpt>
      <trkpt lat="47.94165" lon="6.92174">
        <ele>1075</ele>
        <time>2026-05-09T13:09:40.336Z</time>
      </trkpt>
      <trkpt lat="47.94167" lon="6.92172">
        <ele>1075</ele>
        <time>2026-05-09T13:09:41.335Z</time>
      </trkpt>
      <trkpt lat="47.94168" lon="6.9217">
        <ele>1076</ele>
        <time>2026-05-09T13:09:42.336Z</time>
      </trkpt>
      <trkpt lat="47.9417" lon="6.92169">
        <ele>1076</ele>
        <time>2026-05-09T13:09:43.336Z</time>
      </trkpt>
      <trkpt lat="47.94171" lon="6.92168">
        <ele>1076</ele>
        <time>2026-05-09T13:09:44.336Z</time>
      </trkpt>
      <trkpt lat="47.94172" lon="6.92167">
        <ele>1076</ele>
        <time>2026-05-09T13:09:45.336Z</time>
      </trkpt>
      <trkpt lat="47.94173" lon="6.92166">
        <ele>1076</ele>
        <time>2026-05-09T13:09:46.335Z</time>
      </trkpt>
      <trkpt lat="47.94175" lon="6.92166">
        <ele>1076</ele>
        <time>2026-05-09T13:09:47.336Z</time>
      </trkpt>
      <trkpt lat="47.94176" lon="6.92165">
        <ele>1076</ele>
        <time>2026-05-09T13:09:48.335Z</time>
      </trkpt>
      <trkpt lat="47.94178" lon="6.92165">
        <ele>1075</ele>
        <time>2026-05-09T13:09:49.335Z</time>
      </trkpt>
      <trkpt lat="47.94179" lon="6.92163">
        <ele>1075</ele>
        <time>2026-05-09T13:09:50.335Z</time>
      </trkpt>
      <trkpt lat="47.9418" lon="6.92161">
        <ele>1075</ele>
        <time>2026-05-09T13:09:51.336Z</time>
      </trkpt>
      <trkpt lat="47.94181" lon="6.9216">
        <ele>1074</ele>
        <time>2026-05-09T13:09:52.336Z</time>
      </trkpt>
      <trkpt lat="47.94182" lon="6.92159">
        <ele>1074</ele>
        <time>2026-05-09T13:09:53.335Z</time>
      </trkpt>
      <trkpt lat="47.94183" lon="6.92159">
        <ele>1074</ele>
        <time>2026-05-09T13:09:54.335Z</time>
      </trkpt>
      <trkpt lat="47.94185" lon="6.92158">
        <ele>1074</ele>
        <time>2026-05-09T13:09:55.336Z</time>
      </trkpt>
      <trkpt lat="47.94186" lon="6.92158">
        <ele>1074</ele>
        <time>2026-05-09T13:09:56.335Z</time>
      </trkpt>
      <trkpt lat="47.94187" lon="6.92157">
        <ele>1073</ele>
        <time>2026-05-09T13:09:57.336Z</time>
      </trkpt>
      <trkpt lat="47.94188" lon="6.92155">
        <ele>1073</ele>
        <time>2026-05-09T13:09:58.335Z</time>
      </trkpt>
      <trkpt lat="47.9419" lon="6.92154">
        <ele>1073</ele>
        <time>2026-05-09T13:09:59.336Z</time>
      </trkpt>
      <trkpt lat="47.94191" lon="6.92152">
        <ele>1073</ele>
        <time>2026-05-09T13:10:00.336Z</time>
      </trkpt>
      <trkpt lat="47.94192" lon="6.92152">
        <ele>1073</ele>
        <time>2026-05-09T13:10:01.336Z</time>
      </trkpt>
      <trkpt lat="47.94194" lon="6.92152">
        <ele>1073</ele>
        <time>2026-05-09T13:10:02.336Z</time>
      </trkpt>
      <trkpt lat="47.94195" lon="6.92151">
        <ele>1074</ele>
        <time>2026-05-09T13:10:03.335Z</time>
      </trkpt>
      <trkpt lat="47.94196" lon="6.92151">
        <ele>1074</ele>
        <time>2026-05-09T13:10:04.336Z</time>
      </trkpt>
      <trkpt lat="47.94197" lon="6.92151">
        <ele>1073</ele>
        <time>2026-05-09T13:10:05.335Z</time>
      </trkpt>
      <trkpt lat="47.94198" lon="6.92151">
        <ele>1073</ele>
        <time>2026-05-09T13:10:06.336Z</time>
      </trkpt>
      <trkpt lat="47.94199" lon="6.92151">
        <ele>1073</ele>
        <time>2026-05-09T13:10:07.335Z</time>
      </trkpt>
      <trkpt lat="47.94199" lon="6.92152">
        <ele>1073</ele>
        <time>2026-05-09T13:10:08.336Z</time>
      </trkpt>
      <trkpt lat="47.942" lon="6.92153">
        <ele>1072</ele>
        <time>2026-05-09T13:10:09.335Z</time>
      </trkpt>
      <trkpt lat="47.94202" lon="6.92153">
        <ele>1072</ele>
        <time>2026-05-09T13:10:10.336Z</time>
      </trkpt>
      <trkpt lat="47.94202" lon="6.92153">
        <ele>1072</ele>
        <time>2026-05-09T13:10:11.335Z</time>
      </trkpt>
      <trkpt lat="47.94204" lon="6.92153">
        <ele>1072</ele>
        <time>2026-05-09T13:10:12.336Z</time>
      </trkpt>
      <trkpt lat="47.94205" lon="6.92153">
        <ele>1072</ele>
        <time>2026-05-09T13:10:13.335Z</time>
      </trkpt>
      <trkpt lat="47.94206" lon="6.92153">
        <ele>1072</ele>
        <time>2026-05-09T13:10:14.335Z</time>
      </trkpt>
      <trkpt lat="47.94207" lon="6.92153">
        <ele>1072</ele>
        <time>2026-05-09T13:10:15.335Z</time>
      </trkpt>
      <trkpt lat="47.94208" lon="6.92153">
        <ele>1072</ele>
        <time>2026-05-09T13:10:16.336Z</time>
      </trkpt>
      <trkpt lat="47.94209" lon="6.92154">
        <ele>1073</ele>
        <time>2026-05-09T13:10:17.336Z</time>
      </trkpt>
      <trkpt lat="47.94211" lon="6.92155">
        <ele>1073</ele>
        <time>2026-05-09T13:10:18.336Z</time>
      </trkpt>
      <trkpt lat="47.94212" lon="6.92156">
        <ele>1074</ele>
        <time>2026-05-09T13:10:19.336Z</time>
      </trkpt>
      <trkpt lat="47.94214" lon="6.92157">
        <ele>1074</ele>
        <time>2026-05-09T13:10:20.335Z</time>
      </trkpt>
      <trkpt lat="47.94216" lon="6.92157">
        <ele>1074</ele>
        <time>2026-05-09T13:10:21.336Z</time>
      </trkpt>
      <trkpt lat="47.94216" lon="6.92158">
        <ele>1075</ele>
        <time>2026-05-09T13:10:22.335Z</time>
      </trkpt>
      <trkpt lat="47.94218" lon="6.92158">
        <ele>1075</ele>
        <time>2026-05-09T13:10:23.336Z</time>
      </trkpt>
      <trkpt lat="47.94218" lon="6.92159">
        <ele>1075</ele>
        <time>2026-05-09T13:10:24.335Z</time>
      </trkpt>
      <trkpt lat="47.9422" lon="6.92158">
        <ele>1076</ele>
        <time>2026-05-09T13:10:25.336Z</time>
      </trkpt>
      <trkpt lat="47.9422" lon="6.92158">
        <ele>1076</ele>
        <time>2026-05-09T13:10:26.335Z</time>
      </trkpt>
      <trkpt lat="47.94221" lon="6.92157">
        <ele>1077</ele>
        <time>2026-05-09T13:10:27.336Z</time>
      </trkpt>
      <trkpt lat="47.94222" lon="6.92158">
        <ele>1078</ele>
        <time>2026-05-09T13:10:28.335Z</time>
      </trkpt>
      <trkpt lat="47.94222" lon="6.92158">
        <ele>1078</ele>
        <time>2026-05-09T13:10:29.336Z</time>
      </trkpt>
      <trkpt lat="47.94223" lon="6.92158">
        <ele>1079</ele>
        <time>2026-05-09T13:10:30.335Z</time>
      </trkpt>
      <trkpt lat="47.94224" lon="6.92159">
        <ele>1079</ele>
        <time>2026-05-09T13:10:31.336Z</time>
      </trkpt>
      <trkpt lat="47.94226" lon="6.92158">
        <ele>1080</ele>
        <time>2026-05-09T13:10:32.336Z</time>
      </trkpt>
      <trkpt lat="47.94227" lon="6.92157">
        <ele>1080</ele>
        <time>2026-05-09T13:10:33.336Z</time>
      </trkpt>
      <trkpt lat="47.94228" lon="6.92156">
        <ele>1081</ele>
        <time>2026-05-09T13:10:34.336Z</time>
      </trkpt>
      <trkpt lat="47.9423" lon="6.92155">
        <ele>1081</ele>
        <time>2026-05-09T13:10:35.335Z</time>
      </trkpt>
      <trkpt lat="47.94232" lon="6.92155">
        <ele>1082</ele>
        <time>2026-05-09T13:10:36.336Z</time>
      </trkpt>
      <trkpt lat="47.94233" lon="6.92154">
        <ele>1082</ele>
        <time>2026-05-09T13:10:37.335Z</time>
      </trkpt>
      <trkpt lat="47.94234" lon="6.92153">
        <ele>1082</ele>
        <time>2026-05-09T13:10:38.336Z</time>
      </trkpt>
      <trkpt lat="47.94236" lon="6.92153">
        <ele>1082</ele>
        <time>2026-05-09T13:10:39.335Z</time>
      </trkpt>
      <trkpt lat="47.94237" lon="6.92152">
        <ele>1082</ele>
        <time>2026-05-09T13:10:40.336Z</time>
      </trkpt>
      <trkpt lat="47.94238" lon="6.92151">
        <ele>1082</ele>
        <time>2026-05-09T13:10:41.335Z</time>
      </trkpt>
      <trkpt lat="47.94238" lon="6.92151">
        <ele>1082</ele>
        <time>2026-05-09T13:10:42.336Z</time>
      </trkpt>
      <trkpt lat="47.9424" lon="6.92151">
        <ele>1082</ele>
        <time>2026-05-09T13:10:43.335Z</time>
      </trkpt>
      <trkpt lat="47.94241" lon="6.9215">
        <ele>1082</ele>
        <time>2026-05-09T13:10:44.336Z</time>
      </trkpt>
      <trkpt lat="47.94243" lon="6.92149">
        <ele>1082</ele>
        <time>2026-05-09T13:10:45.335Z</time>
      </trkpt>
      <trkpt lat="47.94244" lon="6.92148">
        <ele>1082</ele>
        <time>2026-05-09T13:10:46.336Z</time>
      </trkpt>
      <trkpt lat="47.94246" lon="6.92146">
        <ele>1081</ele>
        <time>2026-05-09T13:10:47.335Z</time>
      </trkpt>
      <trkpt lat="47.94247" lon="6.92145">
        <ele>1081</ele>
        <time>2026-05-09T13:10:48.336Z</time>
      </trkpt>
      <trkpt lat="47.94249" lon="6.92145">
        <ele>1081</ele>
        <time>2026-05-09T13:10:49.335Z</time>
      </trkpt>
      <trkpt lat="47.9425" lon="6.92144">
        <ele>1081</ele>
        <time>2026-05-09T13:10:50.336Z</time>
      </trkpt>
      <trkpt lat="47.94251" lon="6.92144">
        <ele>1081</ele>
        <time>2026-05-09T13:10:51.336Z</time>
      </trkpt>
      <trkpt lat="47.94253" lon="6.92144">
        <ele>1081</ele>
        <time>2026-05-09T13:10:52.335Z</time>
      </trkpt>
      <trkpt lat="47.94254" lon="6.92143">
        <ele>1081</ele>
        <time>2026-05-09T13:10:53.335Z</time>
      </trkpt>
      <trkpt lat="47.94256" lon="6.92142">
        <ele>1081</ele>
        <time>2026-05-09T13:10:54.336Z</time>
      </trkpt>
      <trkpt lat="47.94257" lon="6.92142">
        <ele>1080</ele>
        <time>2026-05-09T13:10:55.335Z</time>
      </trkpt>
      <trkpt lat="47.94258" lon="6.92142">
        <ele>1080</ele>
        <time>2026-05-09T13:10:56.335Z</time>
      </trkpt>
      <trkpt lat="47.94259" lon="6.92142">
        <ele>1080</ele>
        <time>2026-05-09T13:10:57.335Z</time>
      </trkpt>
      <trkpt lat="47.94259" lon="6.92143">
        <ele>1081</ele>
        <time>2026-05-09T13:10:58.336Z</time>
      </trkpt>
      <trkpt lat="47.9426" lon="6.92142">
        <ele>1081</ele>
        <time>2026-05-09T13:10:59.336Z</time>
      </trkpt>
      <trkpt lat="47.94262" lon="6.92141">
        <ele>1081</ele>
        <time>2026-05-09T13:11:00.335Z</time>
      </trkpt>
      <trkpt lat="47.94263" lon="6.92141">
        <ele>1081</ele>
        <time>2026-05-09T13:11:01.336Z</time>
      </trkpt>
      <trkpt lat="47.94264" lon="6.92141">
        <ele>1081</ele>
        <time>2026-05-09T13:11:02.335Z</time>
      </trkpt>
      <trkpt lat="47.94265" lon="6.9214">
        <ele>1081</ele>
        <time>2026-05-09T13:11:03.336Z</time>
      </trkpt>
      <trkpt lat="47.94265" lon="6.92139">
        <ele>1081</ele>
        <time>2026-05-09T13:11:04.335Z</time>
      </trkpt>
      <trkpt lat="47.94265" lon="6.92139">
        <ele>1081</ele>
        <time>2026-05-09T13:11:05.336Z</time>
      </trkpt>
      <trkpt lat="47.94267" lon="6.92139">
        <ele>1081</ele>
        <time>2026-05-09T13:11:06.335Z</time>
      </trkpt>
      <trkpt lat="47.94268" lon="6.92139">
        <ele>1081</ele>
        <time>2026-05-09T13:11:07.336Z</time>
      </trkpt>
      <trkpt lat="47.94269" lon="6.92138">
        <ele>1081</ele>
        <time>2026-05-09T13:11:08.336Z</time>
      </trkpt>
      <trkpt lat="47.94271" lon="6.92138">
        <ele>1082</ele>
        <time>2026-05-09T13:11:09.335Z</time>
      </trkpt>
      <trkpt lat="47.94274" lon="6.92138">
        <ele>1082</ele>
        <time>2026-05-09T13:11:10.336Z</time>
      </trkpt>
      <trkpt lat="47.94276" lon="6.9214">
        <ele>1082</ele>
        <time>2026-05-09T13:11:11.335Z</time>
      </trkpt>
      <trkpt lat="47.94279" lon="6.92141">
        <ele>1082</ele>
        <time>2026-05-09T13:11:12.335Z</time>
      </trkpt>
      <trkpt lat="47.94282" lon="6.92142">
        <ele>1082</ele>
        <time>2026-05-09T13:11:13.336Z</time>
      </trkpt>
      <trkpt lat="47.94286" lon="6.92144">
        <ele>1083</ele>
        <time>2026-05-09T13:11:14.335Z</time>
      </trkpt>
      <trkpt lat="47.9429" lon="6.92145">
        <ele>1083</ele>
        <time>2026-05-09T13:11:15.336Z</time>
      </trkpt>
      <trkpt lat="47.94293" lon="6.92146">
        <ele>1083</ele>
        <time>2026-05-09T13:11:16.336Z</time>
      </trkpt>
      <trkpt lat="47.94296" lon="6.92146">
        <ele>1083</ele>
        <time>2026-05-09T13:11:17.335Z</time>
      </trkpt>
      <trkpt lat="47.94297" lon="6.92148">
        <ele>1083</ele>
        <time>2026-05-09T13:11:18.336Z</time>
      </trkpt>
      <trkpt lat="47.94298" lon="6.92145">
        <ele>1084</ele>
        <time>2026-05-09T13:11:19.336Z</time>
      </trkpt>
      <trkpt lat="47.94298" lon="6.92144">
        <ele>1084</ele>
        <time>2026-05-09T13:11:20.335Z</time>
      </trkpt>
      <trkpt lat="47.94298" lon="6.92144">
        <ele>1084</ele>
        <time>2026-05-09T13:11:21.336Z</time>
      </trkpt>
      <trkpt lat="47.94298" lon="6.92144">
        <ele>1085</ele>
        <time>2026-05-09T13:11:22.335Z</time>
      </trkpt>
      <trkpt lat="47.94297" lon="6.92142">
        <ele>1085</ele>
        <time>2026-05-09T13:11:23.335Z</time>
      </trkpt>
      <trkpt lat="47.94296" lon="6.92141">
        <ele>1085</ele>
        <time>2026-05-09T13:11:24.336Z</time>
      </trkpt>
      <trkpt lat="47.94296" lon="6.9214">
        <ele>1085</ele>
        <time>2026-05-09T13:11:25.336Z</time>
      </trkpt>
      <trkpt lat="47.94296" lon="6.92139">
        <ele>1086</ele>
        <time>2026-05-09T13:11:26.336Z</time>
      </trkpt>
      <trkpt lat="47.94295" lon="6.92138">
        <ele>1086</ele>
        <time>2026-05-09T13:11:27.336Z</time>
      </trkpt>
      <trkpt lat="47.94294" lon="6.92138">
        <ele>1086</ele>
        <time>2026-05-09T13:11:28.335Z</time>
      </trkpt>
      <trkpt lat="47.94293" lon="6.92138">
        <ele>1086</ele>
        <time>2026-05-09T13:11:29.336Z</time>
      </trkpt>
      <trkpt lat="47.94293" lon="6.92136">
        <ele>1086</ele>
        <time>2026-05-09T13:11:30.335Z</time>
      </trkpt>
      <trkpt lat="47.94293" lon="6.92134">
        <ele>1087</ele>
        <time>2026-05-09T13:11:31.336Z</time>
      </trkpt>
      <trkpt lat="47.94292" lon="6.92131">
        <ele>1087</ele>
        <time>2026-05-09T13:11:32.336Z</time>
      </trkpt>
      <trkpt lat="47.94292" lon="6.92129">
        <ele>1088</ele>
        <time>2026-05-09T13:11:33.335Z</time>
      </trkpt>
      <trkpt lat="47.94293" lon="6.92127">
        <ele>1088</ele>
        <time>2026-05-09T13:11:34.336Z</time>
      </trkpt>
      <trkpt lat="47.94293" lon="6.92125">
        <ele>1089</ele>
        <time>2026-05-09T13:11:35.335Z</time>
      </trkpt>
      <trkpt lat="47.94294" lon="6.92124">
        <ele>1089</ele>
        <time>2026-05-09T13:11:36.335Z</time>
      </trkpt>
      <trkpt lat="47.94295" lon="6.92122">
        <ele>1089</ele>
        <time>2026-05-09T13:11:37.335Z</time>
      </trkpt>
      <trkpt lat="47.94295" lon="6.92121">
        <ele>1090</ele>
        <time>2026-05-09T13:11:38.335Z</time>
      </trkpt>
      <trkpt lat="47.94296" lon="6.9212">
        <ele>1090</ele>
        <time>2026-05-09T13:11:39.336Z</time>
      </trkpt>
      <trkpt lat="47.94297" lon="6.92119">
        <ele>1091</ele>
        <time>2026-05-09T13:11:40.335Z</time>
      </trkpt>
      <trkpt lat="47.94297" lon="6.92118">
        <ele>1091</ele>
        <time>2026-05-09T13:11:41.336Z</time>
      </trkpt>
      <trkpt lat="47.94298" lon="6.92117">
        <ele>1091</ele>
        <time>2026-05-09T13:11:42.335Z</time>
      </trkpt>
      <trkpt lat="47.943" lon="6.92116">
        <ele>1092</ele>
        <time>2026-05-09T13:11:43.336Z</time>
      </trkpt>
      <trkpt lat="47.943" lon="6.92116">
        <ele>1092</ele>
        <time>2026-05-09T13:11:44.336Z</time>
      </trkpt>
      <trkpt lat="47.94301" lon="6.92115">
        <ele>1092</ele>
        <time>2026-05-09T13:11:45.336Z</time>
      </trkpt>
      <trkpt lat="47.94302" lon="6.92114">
        <ele>1092</ele>
        <time>2026-05-09T13:11:46.336Z</time>
      </trkpt>
      <trkpt lat="47.94303" lon="6.92113">
        <ele>1092</ele>
        <time>2026-05-09T13:11:47.336Z</time>
      </trkpt>
      <trkpt lat="47.94303" lon="6.92113">
        <ele>1092</ele>
        <time>2026-05-09T13:11:48.335Z</time>
      </trkpt>
      <trkpt lat="47.94304" lon="6.92113">
        <ele>1092</ele>
        <time>2026-05-09T13:11:49.336Z</time>
      </trkpt>
      <trkpt lat="47.94305" lon="6.92113">
        <ele>1093</ele>
        <time>2026-05-09T13:11:50.335Z</time>
      </trkpt>
      <trkpt lat="47.94305" lon="6.92112">
        <ele>1092</ele>
        <time>2026-05-09T13:11:51.335Z</time>
      </trkpt>
      <trkpt lat="47.94306" lon="6.92111">
        <ele>1092</ele>
        <time>2026-05-09T13:11:52.336Z</time>
      </trkpt>
      <trkpt lat="47.94307" lon="6.92111">
        <ele>1092</ele>
        <time>2026-05-09T13:11:53.335Z</time>
      </trkpt>
      <trkpt lat="47.94308" lon="6.9211">
        <ele>1092</ele>
        <time>2026-05-09T13:11:54.336Z</time>
      </trkpt>
      <trkpt lat="47.94309" lon="6.9211">
        <ele>1092</ele>
        <time>2026-05-09T13:11:55.335Z</time>
      </trkpt>
      <trkpt lat="47.9431" lon="6.92109">
        <ele>1092</ele>
        <time>2026-05-09T13:11:56.336Z</time>
      </trkpt>
      <trkpt lat="47.94311" lon="6.92109">
        <ele>1091</ele>
        <time>2026-05-09T13:11:57.335Z</time>
      </trkpt>
      <trkpt lat="47.94312" lon="6.92108">
        <ele>1091</ele>
        <time>2026-05-09T13:11:58.335Z</time>
      </trkpt>
      <trkpt lat="47.94313" lon="6.92108">
        <ele>1091</ele>
        <time>2026-05-09T13:11:59.336Z</time>
      </trkpt>
      <trkpt lat="47.94313" lon="6.92109">
        <ele>1091</ele>
        <time>2026-05-09T13:12:00.335Z</time>
      </trkpt>
      <trkpt lat="47.94314" lon="6.92109">
        <ele>1090</ele>
        <time>2026-05-09T13:12:01.336Z</time>
      </trkpt>
      <trkpt lat="47.94315" lon="6.92109">
        <ele>1090</ele>
        <time>2026-05-09T13:12:02.335Z</time>
      </trkpt>
      <trkpt lat="47.94316" lon="6.92108">
        <ele>1089</ele>
        <time>2026-05-09T13:12:03.335Z</time>
      </trkpt>
      <trkpt lat="47.94317" lon="6.92107">
        <ele>1089</ele>
        <time>2026-05-09T13:12:04.336Z</time>
      </trkpt>
      <trkpt lat="47.94318" lon="6.92107">
        <ele>1089</ele>
        <time>2026-05-09T13:12:05.335Z</time>
      </trkpt>
      <trkpt lat="47.9432" lon="6.92107">
        <ele>1089</ele>
        <time>2026-05-09T13:12:06.336Z</time>
      </trkpt>
      <trkpt lat="47.94322" lon="6.92108">
        <ele>1089</ele>
        <time>2026-05-09T13:12:07.336Z</time>
      </trkpt>
      <trkpt lat="47.94324" lon="6.92109">
        <ele>1089</ele>
        <time>2026-05-09T13:12:08.335Z</time>
      </trkpt>
      <trkpt lat="47.94325" lon="6.92109">
        <ele>1089</ele>
        <time>2026-05-09T13:12:09.336Z</time>
      </trkpt>
      <trkpt lat="47.94326" lon="6.92109">
        <ele>1089</ele>
        <time>2026-05-09T13:12:10.336Z</time>
      </trkpt>
      <trkpt lat="47.94327" lon="6.92107">
        <ele>1090</ele>
        <time>2026-05-09T13:12:11.335Z</time>
      </trkpt>
      <trkpt lat="47.94327" lon="6.92106">
        <ele>1091</ele>
        <time>2026-05-09T13:12:12.336Z</time>
      </trkpt>
      <trkpt lat="47.94328" lon="6.92105">
        <ele>1091</ele>
        <time>2026-05-09T13:12:13.336Z</time>
      </trkpt>
      <trkpt lat="47.94329" lon="6.92103">
        <ele>1092</ele>
        <time>2026-05-09T13:12:14.336Z</time>
      </trkpt>
      <trkpt lat="47.94329" lon="6.92103">
        <ele>1092</ele>
        <time>2026-05-09T13:12:15.336Z</time>
      </trkpt>
      <trkpt lat="47.94329" lon="6.92102">
        <ele>1093</ele>
        <time>2026-05-09T13:12:16.336Z</time>
      </trkpt>
      <trkpt lat="47.9433" lon="6.92102">
        <ele>1093</ele>
        <time>2026-05-09T13:12:17.335Z</time>
      </trkpt>
      <trkpt lat="47.9433" lon="6.92101">
        <ele>1093</ele>
        <time>2026-05-09T13:12:18.335Z</time>
      </trkpt>
      <trkpt lat="47.9433" lon="6.921">
        <ele>1093</ele>
        <time>2026-05-09T13:12:19.335Z</time>
      </trkpt>
      <trkpt lat="47.9433" lon="6.92098">
        <ele>1092</ele>
        <time>2026-05-09T13:12:20.335Z</time>
      </trkpt>
      <trkpt lat="47.94329" lon="6.92097">
        <ele>1092</ele>
        <time>2026-05-09T13:12:21.336Z</time>
      </trkpt>
      <trkpt lat="47.94329" lon="6.92096">
        <ele>1092</ele>
        <time>2026-05-09T13:12:22.335Z</time>
      </trkpt>
      <trkpt lat="47.9433" lon="6.92094">
        <ele>1092</ele>
        <time>2026-05-09T13:12:23.336Z</time>
      </trkpt>
      <trkpt lat="47.9433" lon="6.92092">
        <ele>1092</ele>
        <time>2026-05-09T13:12:24.336Z</time>
      </trkpt>
      <trkpt lat="47.94331" lon="6.92091">
        <ele>1092</ele>
        <time>2026-05-09T13:12:25.335Z</time>
      </trkpt>
      <trkpt lat="47.9433" lon="6.9209">
        <ele>1092</ele>
        <time>2026-05-09T13:12:26.336Z</time>
      </trkpt>
      <trkpt lat="47.94331" lon="6.92089">
        <ele>1093</ele>
        <time>2026-05-09T13:12:27.336Z</time>
      </trkpt>
      <trkpt lat="47.94331" lon="6.92087">
        <ele>1092</ele>
        <time>2026-05-09T13:12:28.335Z</time>
      </trkpt>
      <trkpt lat="47.94331" lon="6.92085">
        <ele>1092</ele>
        <time>2026-05-09T13:12:29.336Z</time>
      </trkpt>
      <trkpt lat="47.94332" lon="6.92083">
        <ele>1092</ele>
        <time>2026-05-09T13:12:30.335Z</time>
      </trkpt>
      <trkpt lat="47.94333" lon="6.92081">
        <ele>1092</ele>
        <time>2026-05-09T13:12:31.335Z</time>
      </trkpt>
      <trkpt lat="47.94334" lon="6.9208">
        <ele>1092</ele>
        <time>2026-05-09T13:12:32.336Z</time>
      </trkpt>
      <trkpt lat="47.94334" lon="6.92079">
        <ele>1092</ele>
        <time>2026-05-09T13:12:33.335Z</time>
      </trkpt>
      <trkpt lat="47.94334" lon="6.92078">
        <ele>1092</ele>
        <time>2026-05-09T13:12:34.336Z</time>
      </trkpt>
      <trkpt lat="47.94333" lon="6.92077">
        <ele>1092</ele>
        <time>2026-05-09T13:12:35.336Z</time>
      </trkpt>
      <trkpt lat="47.94334" lon="6.92075">
        <ele>1092</ele>
        <time>2026-05-09T13:12:36.335Z</time>
      </trkpt>
      <trkpt lat="47.94334" lon="6.92073">
        <ele>1092</ele>
        <time>2026-05-09T13:12:37.336Z</time>
      </trkpt>
      <trkpt lat="47.94334" lon="6.92071">
        <ele>1093</ele>
        <time>2026-05-09T13:12:38.335Z</time>
      </trkpt>
      <trkpt lat="47.94334" lon="6.9207">
        <ele>1093</ele>
        <time>2026-05-09T13:12:39.336Z</time>
      </trkpt>
      <trkpt lat="47.94334" lon="6.92068">
        <ele>1094</ele>
        <time>2026-05-09T13:12:40.336Z</time>
      </trkpt>
      <trkpt lat="47.94334" lon="6.92066">
        <ele>1094</ele>
        <time>2026-05-09T13:12:41.335Z</time>
      </trkpt>
      <trkpt lat="47.94334" lon="6.92065">
        <ele>1094</ele>
        <time>2026-05-09T13:12:42.336Z</time>
      </trkpt>
      <trkpt lat="47.94334" lon="6.92063">
        <ele>1095</ele>
        <time>2026-05-09T13:12:43.336Z</time>
      </trkpt>
      <trkpt lat="47.94334" lon="6.92062">
        <ele>1096</ele>
        <time>2026-05-09T13:12:44.336Z</time>
      </trkpt>
      <trkpt lat="47.94334" lon="6.92061">
        <ele>1096</ele>
        <time>2026-05-09T13:12:45.336Z</time>
      </trkpt>
      <trkpt lat="47.94334" lon="6.92059">
        <ele>1097</ele>
        <time>2026-05-09T13:12:46.335Z</time>
      </trkpt>
      <trkpt lat="47.94334" lon="6.92058">
        <ele>1098</ele>
        <time>2026-05-09T13:12:47.336Z</time>
      </trkpt>
      <trkpt lat="47.94334" lon="6.92056">
        <ele>1098</ele>
        <time>2026-05-09T13:12:48.336Z</time>
      </trkpt>
      <trkpt lat="47.94335" lon="6.92054">
        <ele>1099</ele>
        <time>2026-05-09T13:12:49.335Z</time>
      </trkpt>
      <trkpt lat="47.94335" lon="6.92053">
        <ele>1099</ele>
        <time>2026-05-09T13:12:50.335Z</time>
      </trkpt>
      <trkpt lat="47.94335" lon="6.92051">
        <ele>1100</ele>
        <time>2026-05-09T13:12:51.336Z</time>
      </trkpt>
      <trkpt lat="47.94335" lon="6.9205">
        <ele>1100</ele>
        <time>2026-05-09T13:12:52.335Z</time>
      </trkpt>
      <trkpt lat="47.94336" lon="6.92046">
        <ele>1101</ele>
        <time>2026-05-09T13:12:53.336Z</time>
      </trkpt>
      <trkpt lat="47.94336" lon="6.92043">
        <ele>1101</ele>
        <time>2026-05-09T13:12:54.336Z</time>
      </trkpt>
      <trkpt lat="47.94336" lon="6.9204">
        <ele>1101</ele>
        <time>2026-05-09T13:12:55.335Z</time>
      </trkpt>
      <trkpt lat="47.94336" lon="6.92036">
        <ele>1101</ele>
        <time>2026-05-09T13:12:56.336Z</time>
      </trkpt>
      <trkpt lat="47.94335" lon="6.92032">
        <ele>1101</ele>
        <time>2026-05-09T13:12:57.335Z</time>
      </trkpt>
      <trkpt lat="47.94334" lon="6.92029">
        <ele>1101</ele>
        <time>2026-05-09T13:12:58.335Z</time>
      </trkpt>
      <trkpt lat="47.94336" lon="6.92028">
        <ele>1101</ele>
        <time>2026-05-09T13:12:59.336Z</time>
      </trkpt>
      <trkpt lat="47.94338" lon="6.9203">
        <ele>1101</ele>
        <time>2026-05-09T13:13:00.335Z</time>
      </trkpt>
      <trkpt lat="47.94341" lon="6.9203">
        <ele>1101</ele>
        <time>2026-05-09T13:13:01.335Z</time>
      </trkpt>
      <trkpt lat="47.94344" lon="6.92032">
        <ele>1102</ele>
        <time>2026-05-09T13:13:02.335Z</time>
      </trkpt>
      <trkpt lat="47.94347" lon="6.92034">
        <ele>1102</ele>
        <time>2026-05-09T13:13:03.335Z</time>
      </trkpt>
      <trkpt lat="47.9435" lon="6.92035">
        <ele>1102</ele>
        <time>2026-05-09T13:13:04.336Z</time>
      </trkpt>
      <trkpt lat="47.94352" lon="6.92036">
        <ele>1102</ele>
        <time>2026-05-09T13:13:05.335Z</time>
      </trkpt>
      <trkpt lat="47.94353" lon="6.92038">
        <ele>1103</ele>
        <time>2026-05-09T13:13:06.336Z</time>
      </trkpt>
      <trkpt lat="47.94354" lon="6.92039">
        <ele>1103</ele>
        <time>2026-05-09T13:13:07.336Z</time>
      </trkpt>
      <trkpt lat="47.94355" lon="6.92039">
        <ele>1104</ele>
        <time>2026-05-09T13:13:08.335Z</time>
      </trkpt>
      <trkpt lat="47.94356" lon="6.92039">
        <ele>1104</ele>
        <time>2026-05-09T13:13:09.336Z</time>
      </trkpt>
      <trkpt lat="47.94357" lon="6.9204">
        <ele>1104</ele>
        <time>2026-05-09T13:13:10.335Z</time>
      </trkpt>
      <trkpt lat="47.94358" lon="6.92041">
        <ele>1104</ele>
        <time>2026-05-09T13:13:11.336Z</time>
      </trkpt>
      <trkpt lat="47.94357" lon="6.92041">
        <ele>1103</ele>
        <time>2026-05-09T13:13:12.336Z</time>
      </trkpt>
      <trkpt lat="47.94357" lon="6.92043">
        <ele>1104</ele>
        <time>2026-05-09T13:13:13.335Z</time>
      </trkpt>
      <trkpt lat="47.94358" lon="6.92043">
        <ele>1103</ele>
        <time>2026-05-09T13:13:14.336Z</time>
      </trkpt>
      <trkpt lat="47.94359" lon="6.92043">
        <ele>1103</ele>
        <time>2026-05-09T13:13:15.335Z</time>
      </trkpt>
      <trkpt lat="47.94359" lon="6.92044">
        <ele>1103</ele>
        <time>2026-05-09T13:13:16.336Z</time>
      </trkpt>
      <trkpt lat="47.94359" lon="6.92045">
        <ele>1102</ele>
        <time>2026-05-09T13:13:17.336Z</time>
      </trkpt>
      <trkpt lat="47.9436" lon="6.92047">
        <ele>1102</ele>
        <time>2026-05-09T13:13:18.335Z</time>
      </trkpt>
      <trkpt lat="47.94361" lon="6.92049">
        <ele>1102</ele>
        <time>2026-05-09T13:13:19.336Z</time>
      </trkpt>
      <trkpt lat="47.94362" lon="6.92049">
        <ele>1102</ele>
        <time>2026-05-09T13:13:20.335Z</time>
      </trkpt>
      <trkpt lat="47.94363" lon="6.9205">
        <ele>1102</ele>
        <time>2026-05-09T13:13:21.336Z</time>
      </trkpt>
      <trkpt lat="47.94364" lon="6.92052">
        <ele>1102</ele>
        <time>2026-05-09T13:13:22.336Z</time>
      </trkpt>
      <trkpt lat="47.94364" lon="6.92052">
        <ele>1102</ele>
        <time>2026-05-09T13:13:23.336Z</time>
      </trkpt>
      <trkpt lat="47.94365" lon="6.92053">
        <ele>1103</ele>
        <time>2026-05-09T13:13:24.335Z</time>
      </trkpt>
      <trkpt lat="47.94366" lon="6.92054">
        <ele>1103</ele>
        <time>2026-05-09T13:13:25.336Z</time>
      </trkpt>
      <trkpt lat="47.94366" lon="6.92054">
        <ele>1103</ele>
        <time>2026-05-09T13:13:26.336Z</time>
      </trkpt>
      <trkpt lat="47.94367" lon="6.92054">
        <ele>1104</ele>
        <time>2026-05-09T13:13:27.335Z</time>
      </trkpt>
      <trkpt lat="47.94368" lon="6.92054">
        <ele>1104</ele>
        <time>2026-05-09T13:13:28.335Z</time>
      </trkpt>
      <trkpt lat="47.94368" lon="6.92054">
        <ele>1104</ele>
        <time>2026-05-09T13:13:29.336Z</time>
      </trkpt>
      <trkpt lat="47.94368" lon="6.92054">
        <ele>1104</ele>
        <time>2026-05-09T13:13:30.336Z</time>
      </trkpt>
      <trkpt lat="47.94369" lon="6.92054">
        <ele>1105</ele>
        <time>2026-05-09T13:13:31.336Z</time>
      </trkpt>
      <trkpt lat="47.9437" lon="6.92053">
        <ele>1105</ele>
        <time>2026-05-09T13:13:32.336Z</time>
      </trkpt>
      <trkpt lat="47.94371" lon="6.92053">
        <ele>1105</ele>
        <time>2026-05-09T13:13:33.336Z</time>
      </trkpt>
      <trkpt lat="47.94372" lon="6.92053">
        <ele>1105</ele>
        <time>2026-05-09T13:13:34.336Z</time>
      </trkpt>
      <trkpt lat="47.94373" lon="6.92052">
        <ele>1106</ele>
        <time>2026-05-09T13:13:35.335Z</time>
      </trkpt>
      <trkpt lat="47.94374" lon="6.92051">
        <ele>1106</ele>
        <time>2026-05-09T13:13:36.336Z</time>
      </trkpt>
      <trkpt lat="47.94375" lon="6.92051">
        <ele>1106</ele>
        <time>2026-05-09T13:13:37.336Z</time>
      </trkpt>
      <trkpt lat="47.94376" lon="6.92051">
        <ele>1106</ele>
        <time>2026-05-09T13:13:38.336Z</time>
      </trkpt>
      <trkpt lat="47.94376" lon="6.9205">
        <ele>1106</ele>
        <time>2026-05-09T13:13:39.335Z</time>
      </trkpt>
      <trkpt lat="47.94376" lon="6.9205">
        <ele>1106</ele>
        <time>2026-05-09T13:13:40.336Z</time>
      </trkpt>
      <trkpt lat="47.94375" lon="6.92049">
        <ele>1105</ele>
        <time>2026-05-09T13:13:41.336Z</time>
      </trkpt>
      <trkpt lat="47.94375" lon="6.92048">
        <ele>1105</ele>
        <time>2026-05-09T13:13:42.336Z</time>
      </trkpt>
      <trkpt lat="47.94374" lon="6.92048">
        <ele>1105</ele>
        <time>2026-05-09T13:13:43.335Z</time>
      </trkpt>
      <trkpt lat="47.94374" lon="6.92048">
        <ele>1105</ele>
        <time>2026-05-09T13:13:44.336Z</time>
      </trkpt>
      <trkpt lat="47.94372" lon="6.92047">
        <ele>1104</ele>
        <time>2026-05-09T13:13:45.336Z</time>
      </trkpt>
      <trkpt lat="47.94372" lon="6.92047">
        <ele>1104</ele>
        <time>2026-05-09T13:13:46.335Z</time>
      </trkpt>
      <trkpt lat="47.94371" lon="6.92046">
        <ele>1104</ele>
        <time>2026-05-09T13:13:47.336Z</time>
      </trkpt>
      <trkpt lat="47.9437" lon="6.92044">
        <ele>1104</ele>
        <time>2026-05-09T13:13:48.336Z</time>
      </trkpt>
      <trkpt lat="47.9437" lon="6.92043">
        <ele>1104</ele>
        <time>2026-05-09T13:13:49.335Z</time>
      </trkpt>
      <trkpt lat="47.94369" lon="6.92042">
        <ele>1104</ele>
        <time>2026-05-09T13:13:50.335Z</time>
      </trkpt>
      <trkpt lat="47.94369" lon="6.92041">
        <ele>1103</ele>
        <time>2026-05-09T13:13:51.335Z</time>
      </trkpt>
      <trkpt lat="47.94368" lon="6.92039">
        <ele>1103</ele>
        <time>2026-05-09T13:13:52.335Z</time>
      </trkpt>
      <trkpt lat="47.94367" lon="6.92039">
        <ele>1103</ele>
        <time>2026-05-09T13:13:53.336Z</time>
      </trkpt>
      <trkpt lat="47.94367" lon="6.92037">
        <ele>1103</ele>
        <time>2026-05-09T13:13:54.336Z</time>
      </trkpt>
      <trkpt lat="47.94367" lon="6.92036">
        <ele>1103</ele>
        <time>2026-05-09T13:13:55.336Z</time>
      </trkpt>
      <trkpt lat="47.94367" lon="6.92036">
        <ele>1104</ele>
        <time>2026-05-09T13:13:56.335Z</time>
      </trkpt>
      <trkpt lat="47.94367" lon="6.92035">
        <ele>1104</ele>
        <time>2026-05-09T13:13:57.335Z</time>
      </trkpt>
      <trkpt lat="47.94367" lon="6.92036">
        <ele>1104</ele>
        <time>2026-05-09T13:13:58.336Z</time>
      </trkpt>
      <trkpt lat="47.94369" lon="6.92036">
        <ele>1105</ele>
        <time>2026-05-09T13:13:59.336Z</time>
      </trkpt>
      <trkpt lat="47.94369" lon="6.92036">
        <ele>1105</ele>
        <time>2026-05-09T13:14:00.335Z</time>
      </trkpt>
      <trkpt lat="47.9437" lon="6.92036">
        <ele>1105</ele>
        <time>2026-05-09T13:14:01.336Z</time>
      </trkpt>
      <trkpt lat="47.9437" lon="6.92037">
        <ele>1106</ele>
        <time>2026-05-09T13:14:02.336Z</time>
      </trkpt>
      <trkpt lat="47.94371" lon="6.92036">
        <ele>1106</ele>
        <time>2026-05-09T13:14:03.335Z</time>
      </trkpt>
      <trkpt lat="47.94371" lon="6.92036">
        <ele>1107</ele>
        <time>2026-05-09T13:14:04.335Z</time>
      </trkpt>
      <trkpt lat="47.94371" lon="6.92035">
        <ele>1107</ele>
        <time>2026-05-09T13:14:05.336Z</time>
      </trkpt>
      <trkpt lat="47.94371" lon="6.92035">
        <ele>1108</ele>
        <time>2026-05-09T13:14:06.336Z</time>
      </trkpt>
      <trkpt lat="47.9437" lon="6.92034">
        <ele>1108</ele>
        <time>2026-05-09T13:14:07.335Z</time>
      </trkpt>
      <trkpt lat="47.94371" lon="6.92032">
        <ele>1108</ele>
        <time>2026-05-09T13:14:08.335Z</time>
      </trkpt>
      <trkpt lat="47.94371" lon="6.92032">
        <ele>1109</ele>
        <time>2026-05-09T13:14:09.336Z</time>
      </trkpt>
      <trkpt lat="47.94372" lon="6.92032">
        <ele>1109</ele>
        <time>2026-05-09T13:14:10.336Z</time>
      </trkpt>
      <trkpt lat="47.94373" lon="6.92032">
        <ele>1109</ele>
        <time>2026-05-09T13:14:11.335Z</time>
      </trkpt>
      <trkpt lat="47.94373" lon="6.92033">
        <ele>1109</ele>
        <time>2026-05-09T13:14:12.335Z</time>
      </trkpt>
      <trkpt lat="47.94373" lon="6.92033">
        <ele>1109</ele>
        <time>2026-05-09T13:14:13.335Z</time>
      </trkpt>
      <trkpt lat="47.94374" lon="6.92033">
        <ele>1109</ele>
        <time>2026-05-09T13:14:14.335Z</time>
      </trkpt>
      <trkpt lat="47.94375" lon="6.92033">
        <ele>1109</ele>
        <time>2026-05-09T13:14:15.335Z</time>
      </trkpt>
      <trkpt lat="47.94375" lon="6.92033">
        <ele>1110</ele>
        <time>2026-05-09T13:14:16.335Z</time>
      </trkpt>
      <trkpt lat="47.94376" lon="6.92033">
        <ele>1110</ele>
        <time>2026-05-09T13:14:17.335Z</time>
      </trkpt>
      <trkpt lat="47.94377" lon="6.92033">
        <ele>1110</ele>
        <time>2026-05-09T13:14:18.335Z</time>
      </trkpt>
      <trkpt lat="47.94378" lon="6.92033">
        <ele>1111</ele>
        <time>2026-05-09T13:14:19.336Z</time>
      </trkpt>
      <trkpt lat="47.94379" lon="6.92033">
        <ele>1111</ele>
        <time>2026-05-09T13:14:20.335Z</time>
      </trkpt>
      <trkpt lat="47.9438" lon="6.92032">
        <ele>1112</ele>
        <time>2026-05-09T13:14:21.335Z</time>
      </trkpt>
      <trkpt lat="47.94381" lon="6.92032">
        <ele>1113</ele>
        <time>2026-05-09T13:14:22.336Z</time>
      </trkpt>
      <trkpt lat="47.94381" lon="6.92032">
        <ele>1113</ele>
        <time>2026-05-09T13:14:23.336Z</time>
      </trkpt>
      <trkpt lat="47.94381" lon="6.92032">
        <ele>1114</ele>
        <time>2026-05-09T13:14:24.335Z</time>
      </trkpt>
      <trkpt lat="47.94382" lon="6.92032">
        <ele>1114</ele>
        <time>2026-05-09T13:14:25.335Z</time>
      </trkpt>
      <trkpt lat="47.94382" lon="6.92031">
        <ele>1115</ele>
        <time>2026-05-09T13:14:26.336Z</time>
      </trkpt>
      <trkpt lat="47.94383" lon="6.92031">
        <ele>1115</ele>
        <time>2026-05-09T13:14:27.336Z</time>
      </trkpt>
      <trkpt lat="47.94384" lon="6.9203">
        <ele>1115</ele>
        <time>2026-05-09T13:14:28.335Z</time>
      </trkpt>
      <trkpt lat="47.94385" lon="6.92029">
        <ele>1116</ele>
        <time>2026-05-09T13:14:29.335Z</time>
      </trkpt>
      <trkpt lat="47.94386" lon="6.92028">
        <ele>1117</ele>
        <time>2026-05-09T13:14:30.336Z</time>
      </trkpt>
      <trkpt lat="47.94388" lon="6.92026">
        <ele>1117</ele>
        <time>2026-05-09T13:14:31.335Z</time>
      </trkpt>
      <trkpt lat="47.94389" lon="6.92026">
        <ele>1117</ele>
        <time>2026-05-09T13:14:32.335Z</time>
      </trkpt>
      <trkpt lat="47.9439" lon="6.92025">
        <ele>1118</ele>
        <time>2026-05-09T13:14:33.336Z</time>
      </trkpt>
      <trkpt lat="47.9439" lon="6.92025">
        <ele>1118</ele>
        <time>2026-05-09T13:14:34.336Z</time>
      </trkpt>
      <trkpt lat="47.9439" lon="6.92025">
        <ele>1118</ele>
        <time>2026-05-09T13:14:35.336Z</time>
      </trkpt>
      <trkpt lat="47.9439" lon="6.92025">
        <ele>1119</ele>
        <time>2026-05-09T13:14:36.335Z</time>
      </trkpt>
      <trkpt lat="47.94395" lon="6.9202">
        <ele>1121</ele>
        <time>2026-05-09T13:14:42.620Z</time>
      </trkpt>
      <trkpt lat="47.94395" lon="6.9202">
        <ele>1121</ele>
        <time>2026-05-09T13:14:43.620Z</time>
      </trkpt>
      <trkpt lat="47.94395" lon="6.9202">
        <ele>1122</ele>
        <time>2026-05-09T13:14:44.621Z</time>
      </trkpt>
      <trkpt lat="47.94394" lon="6.9202">
        <ele>1122</ele>
        <time>2026-05-09T13:14:45.620Z</time>
      </trkpt>
      <trkpt lat="47.94392" lon="6.92022">
        <ele>1123</ele>
        <time>2026-05-09T13:14:46.620Z</time>
      </trkpt>
      <trkpt lat="47.94391" lon="6.92023">
        <ele>1123</ele>
        <time>2026-05-09T13:14:47.621Z</time>
      </trkpt>
      <trkpt lat="47.9439" lon="6.92024">
        <ele>1123</ele>
        <time>2026-05-09T13:14:48.621Z</time>
      </trkpt>
      <trkpt lat="47.94389" lon="6.92024">
        <ele>1124</ele>
        <time>2026-05-09T13:14:49.621Z</time>
      </trkpt>
      <trkpt lat="47.94388" lon="6.92023">
        <ele>1124</ele>
        <time>2026-05-09T13:14:50.620Z</time>
      </trkpt>
      <trkpt lat="47.94388" lon="6.92022">
        <ele>1124</ele>
        <time>2026-05-09T13:14:51.620Z</time>
      </trkpt>
      <trkpt lat="47.94387" lon="6.92022">
        <ele>1123</ele>
        <time>2026-05-09T13:14:52.621Z</time>
      </trkpt>
      <trkpt lat="47.94385" lon="6.92022">
        <ele>1123</ele>
        <time>2026-05-09T13:14:53.621Z</time>
      </trkpt>
      <trkpt lat="47.94384" lon="6.92021">
        <ele>1123</ele>
        <time>2026-05-09T13:14:54.620Z</time>
      </trkpt>
      <trkpt lat="47.94384" lon="6.9202">
        <ele>1123</ele>
        <time>2026-05-09T13:14:55.620Z</time>
      </trkpt>
      <trkpt lat="47.94383" lon="6.92019">
        <ele>1123</ele>
        <time>2026-05-09T13:14:56.620Z</time>
      </trkpt>
      <trkpt lat="47.94384" lon="6.92019">
        <ele>1122</ele>
        <time>2026-05-09T13:14:57.620Z</time>
      </trkpt>
      <trkpt lat="47.94384" lon="6.92019">
        <ele>1122</ele>
        <time>2026-05-09T13:14:58.620Z</time>
      </trkpt>
      <trkpt lat="47.94384" lon="6.92019">
        <ele>1122</ele>
        <time>2026-05-09T13:14:59.620Z</time>
      </trkpt>
      <trkpt lat="47.94385" lon="6.92019">
        <ele>1122</ele>
        <time>2026-05-09T13:15:00.620Z</time>
      </trkpt>
      <trkpt lat="47.94385" lon="6.92018">
        <ele>1122</ele>
        <time>2026-05-09T13:15:01.620Z</time>
      </trkpt>
      <trkpt lat="47.94386" lon="6.92017">
        <ele>1122</ele>
        <time>2026-05-09T13:15:02.620Z</time>
      </trkpt>
      <trkpt lat="47.94387" lon="6.92017">
        <ele>1122</ele>
        <time>2026-05-09T13:15:03.621Z</time>
      </trkpt>
      <trkpt lat="47.94387" lon="6.92017">
        <ele>1122</ele>
        <time>2026-05-09T13:15:04.621Z</time>
      </trkpt>
      <trkpt lat="47.94387" lon="6.92017">
        <ele>1122</ele>
        <time>2026-05-09T13:15:05.620Z</time>
      </trkpt>
      <trkpt lat="47.94387" lon="6.92017">
        <ele>1122</ele>
        <time>2026-05-09T13:15:06.620Z</time>
      </trkpt>
      <trkpt lat="47.94388" lon="6.92017">
        <ele>1122</ele>
        <time>2026-05-09T13:15:07.621Z</time>
      </trkpt>
      <trkpt lat="47.94389" lon="6.92017">
        <ele>1122</ele>
        <time>2026-05-09T13:15:08.620Z</time>
      </trkpt>
      <trkpt lat="47.9439" lon="6.92017">
        <ele>1123</ele>
        <time>2026-05-09T13:15:09.621Z</time>
      </trkpt>
      <trkpt lat="47.9439" lon="6.92017">
        <ele>1123</ele>
        <time>2026-05-09T13:15:10.621Z</time>
      </trkpt>
      <trkpt lat="47.9439" lon="6.92016">
        <ele>1124</ele>
        <time>2026-05-09T13:15:11.620Z</time>
      </trkpt>
      <trkpt lat="47.9439" lon="6.92016">
        <ele>1124</ele>
        <time>2026-05-09T13:15:12.620Z</time>
      </trkpt>
      <trkpt lat="47.9439" lon="6.92017">
        <ele>1125</ele>
        <time>2026-05-09T13:15:13.620Z</time>
      </trkpt>
      <trkpt lat="47.94389" lon="6.92017">
        <ele>1125</ele>
        <time>2026-05-09T13:15:14.620Z</time>
      </trkpt>
      <trkpt lat="47.94389" lon="6.92016">
        <ele>1125</ele>
        <time>2026-05-09T13:15:15.621Z</time>
      </trkpt>
      <trkpt lat="47.94388" lon="6.92016">
        <ele>1125</ele>
        <time>2026-05-09T13:15:16.621Z</time>
      </trkpt>
      <trkpt lat="47.94388" lon="6.92016">
        <ele>1125</ele>
        <time>2026-05-09T13:15:17.621Z</time>
      </trkpt>
      <trkpt lat="47.94387" lon="6.92015">
        <ele>1124</ele>
        <time>2026-05-09T13:15:18.620Z</time>
      </trkpt>
      <trkpt lat="47.94387" lon="6.92014">
        <ele>1124</ele>
        <time>2026-05-09T13:15:19.621Z</time>
      </trkpt>
      <trkpt lat="47.94386" lon="6.92014">
        <ele>1124</ele>
        <time>2026-05-09T13:15:20.620Z</time>
      </trkpt>
      <trkpt lat="47.94385" lon="6.92013">
        <ele>1123</ele>
        <time>2026-05-09T13:15:21.620Z</time>
      </trkpt>
      <trkpt lat="47.94385" lon="6.92012">
        <ele>1123</ele>
        <time>2026-05-09T13:15:22.620Z</time>
      </trkpt>
      <trkpt lat="47.94385" lon="6.92011">
        <ele>1123</ele>
        <time>2026-05-09T13:15:23.620Z</time>
      </trkpt>
      <trkpt lat="47.94384" lon="6.9201">
        <ele>1122</ele>
        <time>2026-05-09T13:15:24.620Z</time>
      </trkpt>
      <trkpt lat="47.94383" lon="6.9201">
        <ele>1123</ele>
        <time>2026-05-09T13:15:25.620Z</time>
      </trkpt>
      <trkpt lat="47.94383" lon="6.92009">
        <ele>1123</ele>
        <time>2026-05-09T13:15:26.620Z</time>
      </trkpt>
      <trkpt lat="47.94383" lon="6.92007">
        <ele>1123</ele>
        <time>2026-05-09T13:15:27.620Z</time>
      </trkpt>
      <trkpt lat="47.94384" lon="6.92004">
        <ele>1124</ele>
        <time>2026-05-09T13:15:28.620Z</time>
      </trkpt>
      <trkpt lat="47.94384" lon="6.92002">
        <ele>1124</ele>
        <time>2026-05-09T13:15:29.620Z</time>
      </trkpt>
      <trkpt lat="47.94384" lon="6.92001">
        <ele>1125</ele>
        <time>2026-05-09T13:15:30.620Z</time>
      </trkpt>
      <trkpt lat="47.94385" lon="6.92001">
        <ele>1126</ele>
        <time>2026-05-09T13:15:31.621Z</time>
      </trkpt>
      <trkpt lat="47.94385" lon="6.92001">
        <ele>1127</ele>
        <time>2026-05-09T13:15:32.621Z</time>
      </trkpt>
      <trkpt lat="47.94385" lon="6.92001">
        <ele>1127</ele>
        <time>2026-05-09T13:15:33.620Z</time>
      </trkpt>
      <trkpt lat="47.94388" lon="6.92003">
        <ele>1130</ele>
        <time>2026-05-09T13:15:40.085Z</time>
      </trkpt>
      <trkpt lat="47.9439" lon="6.92003">
        <ele>1130</ele>
        <time>2026-05-09T13:15:41.084Z</time>
      </trkpt>
      <trkpt lat="47.94392" lon="6.92003">
        <ele>1130</ele>
        <time>2026-05-09T13:15:42.085Z</time>
      </trkpt>
      <trkpt lat="47.94393" lon="6.92003">
        <ele>1130</ele>
        <time>2026-05-09T13:15:43.084Z</time>
      </trkpt>
      <trkpt lat="47.94394" lon="6.92003">
        <ele>1130</ele>
        <time>2026-05-09T13:15:44.085Z</time>
      </trkpt>
      <trkpt lat="47.94394" lon="6.92003">
        <ele>1129</ele>
        <time>2026-05-09T13:15:45.084Z</time>
      </trkpt>
      <trkpt lat="47.94395" lon="6.92002">
        <ele>1129</ele>
        <time>2026-05-09T13:15:46.084Z</time>
      </trkpt>
      <trkpt lat="47.94396" lon="6.92001">
        <ele>1129</ele>
        <time>2026-05-09T13:15:47.084Z</time>
      </trkpt>
      <trkpt lat="47.94396" lon="6.92001">
        <ele>1128</ele>
        <time>2026-05-09T13:15:48.084Z</time>
      </trkpt>
      <trkpt lat="47.94396" lon="6.92001">
        <ele>1128</ele>
        <time>2026-05-09T13:15:49.084Z</time>
      </trkpt>
      <trkpt lat="47.94395" lon="6.92001">
        <ele>1128</ele>
        <time>2026-05-09T13:15:50.085Z</time>
      </trkpt>
      <trkpt lat="47.94395" lon="6.92">
        <ele>1127</ele>
        <time>2026-05-09T13:15:51.085Z</time>
      </trkpt>
      <trkpt lat="47.94395" lon="6.91999">
        <ele>1127</ele>
        <time>2026-05-09T13:15:52.084Z</time>
      </trkpt>
      <trkpt lat="47.94395" lon="6.91998">
        <ele>1127</ele>
        <time>2026-05-09T13:15:53.085Z</time>
      </trkpt>
      <trkpt lat="47.94395" lon="6.91996">
        <ele>1127</ele>
        <time>2026-05-09T13:15:54.084Z</time>
      </trkpt>
      <trkpt lat="47.94394" lon="6.91995">
        <ele>1127</ele>
        <time>2026-05-09T13:15:55.085Z</time>
      </trkpt>
      <trkpt lat="47.94394" lon="6.91994">
        <ele>1127</ele>
        <time>2026-05-09T13:15:56.084Z</time>
      </trkpt>
      <trkpt lat="47.94394" lon="6.91993">
        <ele>1128</ele>
        <time>2026-05-09T13:15:57.085Z</time>
      </trkpt>
      <trkpt lat="47.94395" lon="6.91993">
        <ele>1128</ele>
        <time>2026-05-09T13:15:58.084Z</time>
      </trkpt>
      <trkpt lat="47.94395" lon="6.91992">
        <ele>1128</ele>
        <time>2026-05-09T13:15:59.085Z</time>
      </trkpt>
      <trkpt lat="47.94396" lon="6.91992">
        <ele>1128</ele>
        <time>2026-05-09T13:16:00.084Z</time>
      </trkpt>
      <trkpt lat="47.94396" lon="6.91991">
        <ele>1128</ele>
        <time>2026-05-09T13:16:01.084Z</time>
      </trkpt>
      <trkpt lat="47.94397" lon="6.91991">
        <ele>1129</ele>
        <time>2026-05-09T13:16:02.085Z</time>
      </trkpt>
      <trkpt lat="47.94398" lon="6.9199">
        <ele>1129</ele>
        <time>2026-05-09T13:16:03.084Z</time>
      </trkpt>
      <trkpt lat="47.94399" lon="6.9199">
        <ele>1130</ele>
        <time>2026-05-09T13:16:04.085Z</time>
      </trkpt>
      <trkpt lat="47.94399" lon="6.91989">
        <ele>1130</ele>
        <time>2026-05-09T13:16:05.084Z</time>
      </trkpt>
      <trkpt lat="47.944" lon="6.91989">
        <ele>1131</ele>
        <time>2026-05-09T13:16:06.085Z</time>
      </trkpt>
      <trkpt lat="47.94402" lon="6.91988">
        <ele>1131</ele>
        <time>2026-05-09T13:16:07.084Z</time>
      </trkpt>
      <trkpt lat="47.94403" lon="6.91988">
        <ele>1131</ele>
        <time>2026-05-09T13:16:08.084Z</time>
      </trkpt>
      <trkpt lat="47.94404" lon="6.91988">
        <ele>1131</ele>
        <time>2026-05-09T13:16:09.085Z</time>
      </trkpt>
      <trkpt lat="47.94404" lon="6.91988">
        <ele>1132</ele>
        <time>2026-05-09T13:16:10.084Z</time>
      </trkpt>
      <trkpt lat="47.94404" lon="6.91989">
        <ele>1132</ele>
        <time>2026-05-09T13:16:11.084Z</time>
      </trkpt>
      <trkpt lat="47.94405" lon="6.91989">
        <ele>1132</ele>
        <time>2026-05-09T13:16:12.085Z</time>
      </trkpt>
      <trkpt lat="47.94405" lon="6.9199">
        <ele>1132</ele>
        <time>2026-05-09T13:16:13.084Z</time>
      </trkpt>
      <trkpt lat="47.94406" lon="6.9199">
        <ele>1132</ele>
        <time>2026-05-09T13:16:14.085Z</time>
      </trkpt>
      <trkpt lat="47.94407" lon="6.91991">
        <ele>1133</ele>
        <time>2026-05-09T13:16:15.084Z</time>
      </trkpt>
      <trkpt lat="47.94407" lon="6.91991">
        <ele>1133</ele>
        <time>2026-05-09T13:16:16.085Z</time>
      </trkpt>
      <trkpt lat="47.94408" lon="6.91991">
        <ele>1133</ele>
        <time>2026-05-09T13:16:17.084Z</time>
      </trkpt>
      <trkpt lat="47.94408" lon="6.91991">
        <ele>1133</ele>
        <time>2026-05-09T13:16:18.084Z</time>
      </trkpt>
      <trkpt lat="47.94409" lon="6.9199">
        <ele>1134</ele>
        <time>2026-05-09T13:16:19.084Z</time>
      </trkpt>
      <trkpt lat="47.94409" lon="6.9199">
        <ele>1134</ele>
        <time>2026-05-09T13:16:20.085Z</time>
      </trkpt>
      <trkpt lat="47.9441" lon="6.9199">
        <ele>1134</ele>
        <time>2026-05-09T13:16:21.084Z</time>
      </trkpt>
      <trkpt lat="47.9441" lon="6.91989">
        <ele>1134</ele>
        <time>2026-05-09T13:16:22.085Z</time>
      </trkpt>
      <trkpt lat="47.9441" lon="6.9199">
        <ele>1134</ele>
        <time>2026-05-09T13:16:23.085Z</time>
      </trkpt>
      <trkpt lat="47.9441" lon="6.9199">
        <ele>1134</ele>
        <time>2026-05-09T13:16:24.084Z</time>
      </trkpt>
      <trkpt lat="47.94411" lon="6.91986">
        <ele>1135</ele>
        <time>2026-05-09T13:16:33.275Z</time>
      </trkpt>
      <trkpt lat="47.94411" lon="6.91986">
        <ele>1136</ele>
        <time>2026-05-09T13:16:34.274Z</time>
      </trkpt>
      <trkpt lat="47.94412" lon="6.91985">
        <ele>1136</ele>
        <time>2026-05-09T13:16:35.275Z</time>
      </trkpt>
      <trkpt lat="47.94412" lon="6.91984">
        <ele>1136</ele>
        <time>2026-05-09T13:16:36.274Z</time>
      </trkpt>
      <trkpt lat="47.94413" lon="6.91983">
        <ele>1136</ele>
        <time>2026-05-09T13:16:37.275Z</time>
      </trkpt>
      <trkpt lat="47.94413" lon="6.91981">
        <ele>1136</ele>
        <time>2026-05-09T13:16:38.275Z</time>
      </trkpt>
      <trkpt lat="47.94414" lon="6.9198">
        <ele>1136</ele>
        <time>2026-05-09T13:16:39.275Z</time>
      </trkpt>
      <trkpt lat="47.94415" lon="6.9198">
        <ele>1136</ele>
        <time>2026-05-09T13:16:40.274Z</time>
      </trkpt>
      <trkpt lat="47.94415" lon="6.91979">
        <ele>1136</ele>
        <time>2026-05-09T13:16:41.275Z</time>
      </trkpt>
      <trkpt lat="47.94416" lon="6.91977">
        <ele>1137</ele>
        <time>2026-05-09T13:16:42.274Z</time>
      </trkpt>
      <trkpt lat="47.94416" lon="6.91977">
        <ele>1137</ele>
        <time>2026-05-09T13:16:43.274Z</time>
      </trkpt>
      <trkpt lat="47.94416" lon="6.91976">
        <ele>1137</ele>
        <time>2026-05-09T13:16:44.274Z</time>
      </trkpt>
      <trkpt lat="47.94417" lon="6.91974">
        <ele>1137</ele>
        <time>2026-05-09T13:16:45.275Z</time>
      </trkpt>
      <trkpt lat="47.94417" lon="6.91972">
        <ele>1137</ele>
        <time>2026-05-09T13:16:46.275Z</time>
      </trkpt>
      <trkpt lat="47.94417" lon="6.9197">
        <ele>1138</ele>
        <time>2026-05-09T13:16:47.275Z</time>
      </trkpt>
      <trkpt lat="47.94418" lon="6.91969">
        <ele>1138</ele>
        <time>2026-05-09T13:16:48.275Z</time>
      </trkpt>
      <trkpt lat="47.94418" lon="6.91967">
        <ele>1138</ele>
        <time>2026-05-09T13:16:49.275Z</time>
      </trkpt>
      <trkpt lat="47.94418" lon="6.91965">
        <ele>1139</ele>
        <time>2026-05-09T13:16:50.275Z</time>
      </trkpt>
      <trkpt lat="47.94417" lon="6.91963">
        <ele>1139</ele>
        <time>2026-05-09T13:16:51.275Z</time>
      </trkpt>
      <trkpt lat="47.94417" lon="6.91962">
        <ele>1140</ele>
        <time>2026-05-09T13:16:52.274Z</time>
      </trkpt>
      <trkpt lat="47.94416" lon="6.9196">
        <ele>1140</ele>
        <time>2026-05-09T13:16:53.274Z</time>
      </trkpt>
      <trkpt lat="47.94416" lon="6.91957">
        <ele>1141</ele>
        <time>2026-05-09T13:16:54.275Z</time>
      </trkpt>
      <trkpt lat="47.94416" lon="6.91956">
        <ele>1141</ele>
        <time>2026-05-09T13:16:55.274Z</time>
      </trkpt>
      <trkpt lat="47.94416" lon="6.91954">
        <ele>1142</ele>
        <time>2026-05-09T13:16:56.275Z</time>
      </trkpt>
      <trkpt lat="47.94417" lon="6.91952">
        <ele>1142</ele>
        <time>2026-05-09T13:16:57.274Z</time>
      </trkpt>
      <trkpt lat="47.94418" lon="6.91951">
        <ele>1143</ele>
        <time>2026-05-09T13:16:58.275Z</time>
      </trkpt>
      <trkpt lat="47.94419" lon="6.91949">
        <ele>1143</ele>
        <time>2026-05-09T13:16:59.274Z</time>
      </trkpt>
      <trkpt lat="47.9442" lon="6.91947">
        <ele>1144</ele>
        <time>2026-05-09T13:17:00.275Z</time>
      </trkpt>
      <trkpt lat="47.94421" lon="6.91945">
        <ele>1144</ele>
        <time>2026-05-09T13:17:01.274Z</time>
      </trkpt>
      <trkpt lat="47.94422" lon="6.91943">
        <ele>1145</ele>
        <time>2026-05-09T13:17:02.275Z</time>
      </trkpt>
      <trkpt lat="47.94424" lon="6.91942">
        <ele>1145</ele>
        <time>2026-05-09T13:17:03.274Z</time>
      </trkpt>
      <trkpt lat="47.94425" lon="6.91942">
        <ele>1145</ele>
        <time>2026-05-09T13:17:04.275Z</time>
      </trkpt>
      <trkpt lat="47.94427" lon="6.91941">
        <ele>1145</ele>
        <time>2026-05-09T13:17:05.275Z</time>
      </trkpt>
      <trkpt lat="47.94427" lon="6.91941">
        <ele>1145</ele>
        <time>2026-05-09T13:17:06.275Z</time>
      </trkpt>
      <trkpt lat="47.94427" lon="6.91941">
        <ele>1146</ele>
        <time>2026-05-09T13:17:07.275Z</time>
      </trkpt>
      <trkpt lat="47.94428" lon="6.91941">
        <ele>1146</ele>
        <time>2026-05-09T13:17:08.275Z</time>
      </trkpt>
      <trkpt lat="47.94429" lon="6.91942">
        <ele>1145</ele>
        <time>2026-05-09T13:17:09.274Z</time>
      </trkpt>
      <trkpt lat="47.9443" lon="6.91943">
        <ele>1145</ele>
        <time>2026-05-09T13:17:10.275Z</time>
      </trkpt>
      <trkpt lat="47.94431" lon="6.91943">
        <ele>1145</ele>
        <time>2026-05-09T13:17:11.274Z</time>
      </trkpt>
      <trkpt lat="47.94432" lon="6.91943">
        <ele>1145</ele>
        <time>2026-05-09T13:17:12.275Z</time>
      </trkpt>
      <trkpt lat="47.94433" lon="6.91944">
        <ele>1145</ele>
        <time>2026-05-09T13:17:13.274Z</time>
      </trkpt>
      <trkpt lat="47.94434" lon="6.91944">
        <ele>1145</ele>
        <time>2026-05-09T13:17:14.275Z</time>
      </trkpt>
      <trkpt lat="47.94434" lon="6.91944">
        <ele>1145</ele>
        <time>2026-05-09T13:17:15.275Z</time>
      </trkpt>
      <trkpt lat="47.94435" lon="6.91944">
        <ele>1145</ele>
        <time>2026-05-09T13:17:16.275Z</time>
      </trkpt>
      <trkpt lat="47.94436" lon="6.91944">
        <ele>1145</ele>
        <time>2026-05-09T13:17:17.274Z</time>
      </trkpt>
      <trkpt lat="47.94435" lon="6.91944">
        <ele>1146</ele>
        <time>2026-05-09T13:17:18.275Z</time>
      </trkpt>
      <trkpt lat="47.94437" lon="6.91945">
        <ele>1146</ele>
        <time>2026-05-09T13:17:19.274Z</time>
      </trkpt>
      <trkpt lat="47.94438" lon="6.91946">
        <ele>1146</ele>
        <time>2026-05-09T13:17:20.275Z</time>
      </trkpt>
      <trkpt lat="47.94438" lon="6.91946">
        <ele>1146</ele>
        <time>2026-05-09T13:17:21.275Z</time>
      </trkpt>
      <trkpt lat="47.94443" lon="6.91949">
        <ele>1146</ele>
        <time>2026-05-09T13:17:27.662Z</time>
      </trkpt>
      <trkpt lat="47.94444" lon="6.91949">
        <ele>1146</ele>
        <time>2026-05-09T13:17:28.662Z</time>
      </trkpt>
      <trkpt lat="47.94445" lon="6.9195">
        <ele>1146</ele>
        <time>2026-05-09T13:17:29.662Z</time>
      </trkpt>
      <trkpt lat="47.94446" lon="6.91951">
        <ele>1146</ele>
        <time>2026-05-09T13:17:30.662Z</time>
      </trkpt>
      <trkpt lat="47.94447" lon="6.91951">
        <ele>1146</ele>
        <time>2026-05-09T13:17:31.662Z</time>
      </trkpt>
      <trkpt lat="47.94447" lon="6.91952">
        <ele>1146</ele>
        <time>2026-05-09T13:17:32.663Z</time>
      </trkpt>
      <trkpt lat="47.94448" lon="6.91953">
        <ele>1146</ele>
        <time>2026-05-09T13:17:33.662Z</time>
      </trkpt>
      <trkpt lat="47.9445" lon="6.91954">
        <ele>1146</ele>
        <time>2026-05-09T13:17:34.662Z</time>
      </trkpt>
      <trkpt lat="47.94451" lon="6.91955">
        <ele>1146</ele>
        <time>2026-05-09T13:17:35.662Z</time>
      </trkpt>
      <trkpt lat="47.94452" lon="6.91957">
        <ele>1146</ele>
        <time>2026-05-09T13:17:36.662Z</time>
      </trkpt>
      <trkpt lat="47.94453" lon="6.91958">
        <ele>1146</ele>
        <time>2026-05-09T13:17:37.662Z</time>
      </trkpt>
      <trkpt lat="47.94455" lon="6.91959">
        <ele>1147</ele>
        <time>2026-05-09T13:17:38.662Z</time>
      </trkpt>
      <trkpt lat="47.94458" lon="6.91961">
        <ele>1146</ele>
        <time>2026-05-09T13:17:39.662Z</time>
      </trkpt>
      <trkpt lat="47.9446" lon="6.91962">
        <ele>1146</ele>
        <time>2026-05-09T13:17:40.662Z</time>
      </trkpt>
      <trkpt lat="47.94462" lon="6.91964">
        <ele>1146</ele>
        <time>2026-05-09T13:17:41.662Z</time>
      </trkpt>
      <trkpt lat="47.94463" lon="6.91967">
        <ele>1146</ele>
        <time>2026-05-09T13:17:42.662Z</time>
      </trkpt>
      <trkpt lat="47.94465" lon="6.91969">
        <ele>1146</ele>
        <time>2026-05-09T13:17:43.662Z</time>
      </trkpt>
      <trkpt lat="47.94468" lon="6.91971">
        <ele>1145</ele>
        <time>2026-05-09T13:17:44.663Z</time>
      </trkpt>
      <trkpt lat="47.94469" lon="6.91972">
        <ele>1145</ele>
        <time>2026-05-09T13:17:45.662Z</time>
      </trkpt>
      <trkpt lat="47.9447" lon="6.91973">
        <ele>1145</ele>
        <time>2026-05-09T13:17:46.662Z</time>
      </trkpt>
      <trkpt lat="47.94471" lon="6.91973">
        <ele>1145</ele>
        <time>2026-05-09T13:17:47.662Z</time>
      </trkpt>
      <trkpt lat="47.94472" lon="6.91974">
        <ele>1144</ele>
        <time>2026-05-09T13:17:48.663Z</time>
      </trkpt>
      <trkpt lat="47.94473" lon="6.91975">
        <ele>1144</ele>
        <time>2026-05-09T13:17:49.662Z</time>
      </trkpt>
      <trkpt lat="47.94474" lon="6.91975">
        <ele>1144</ele>
        <time>2026-05-09T13:17:50.662Z</time>
      </trkpt>
      <trkpt lat="47.94476" lon="6.91976">
        <ele>1144</ele>
        <time>2026-05-09T13:17:51.662Z</time>
      </trkpt>
      <trkpt lat="47.94477" lon="6.91977">
        <ele>1144</ele>
        <time>2026-05-09T13:17:52.663Z</time>
      </trkpt>
      <trkpt lat="47.94478" lon="6.91979">
        <ele>1144</ele>
        <time>2026-05-09T13:17:53.662Z</time>
      </trkpt>
      <trkpt lat="47.94479" lon="6.9198">
        <ele>1144</ele>
        <time>2026-05-09T13:17:54.662Z</time>
      </trkpt>
      <trkpt lat="47.94481" lon="6.9198">
        <ele>1144</ele>
        <time>2026-05-09T13:17:55.662Z</time>
      </trkpt>
      <trkpt lat="47.94481" lon="6.91981">
        <ele>1144</ele>
        <time>2026-05-09T13:17:56.662Z</time>
      </trkpt>
      <trkpt lat="47.94482" lon="6.91982">
        <ele>1144</ele>
        <time>2026-05-09T13:17:57.663Z</time>
      </trkpt>
      <trkpt lat="47.94483" lon="6.91983">
        <ele>1144</ele>
        <time>2026-05-09T13:17:58.662Z</time>
      </trkpt>
      <trkpt lat="47.94484" lon="6.91984">
        <ele>1144</ele>
        <time>2026-05-09T13:17:59.662Z</time>
      </trkpt>
      <trkpt lat="47.94486" lon="6.91985">
        <ele>1144</ele>
        <time>2026-05-09T13:18:00.662Z</time>
      </trkpt>
      <trkpt lat="47.94488" lon="6.91987">
        <ele>1143</ele>
        <time>2026-05-09T13:18:01.662Z</time>
      </trkpt>
      <trkpt lat="47.94491" lon="6.9199">
        <ele>1143</ele>
        <time>2026-05-09T13:18:02.662Z</time>
      </trkpt>
      <trkpt lat="47.94494" lon="6.9199">
        <ele>1143</ele>
        <time>2026-05-09T13:18:03.662Z</time>
      </trkpt>
      <trkpt lat="47.94497" lon="6.9199">
        <ele>1143</ele>
        <time>2026-05-09T13:18:04.663Z</time>
      </trkpt>
      <trkpt lat="47.94502" lon="6.91991">
        <ele>1144</ele>
        <time>2026-05-09T13:18:05.662Z</time>
      </trkpt>
      <trkpt lat="47.94507" lon="6.91994">
        <ele>1144</ele>
        <time>2026-05-09T13:18:06.662Z</time>
      </trkpt>
      <trkpt lat="47.9451" lon="6.91995">
        <ele>1144</ele>
        <time>2026-05-09T13:18:07.662Z</time>
      </trkpt>
      <trkpt lat="47.94513" lon="6.91999">
        <ele>1144</ele>
        <time>2026-05-09T13:18:08.663Z</time>
      </trkpt>
      <trkpt lat="47.94516" lon="6.92001">
        <ele>1145</ele>
        <time>2026-05-09T13:18:09.662Z</time>
      </trkpt>
      <trkpt lat="47.94517" lon="6.92">
        <ele>1145</ele>
        <time>2026-05-09T13:18:10.663Z</time>
      </trkpt>
      <trkpt lat="47.94518" lon="6.91999">
        <ele>1145</ele>
        <time>2026-05-09T13:18:11.663Z</time>
      </trkpt>
      <trkpt lat="47.94517" lon="6.91998">
        <ele>1145</ele>
        <time>2026-05-09T13:18:12.663Z</time>
      </trkpt>
      <trkpt lat="47.94518" lon="6.91997">
        <ele>1145</ele>
        <time>2026-05-09T13:18:13.663Z</time>
      </trkpt>
      <trkpt lat="47.9452" lon="6.91996">
        <ele>1145</ele>
        <time>2026-05-09T13:18:14.662Z</time>
      </trkpt>
      <trkpt lat="47.94522" lon="6.91996">
        <ele>1145</ele>
        <time>2026-05-09T13:18:15.662Z</time>
      </trkpt>
      <trkpt lat="47.94524" lon="6.91997">
        <ele>1145</ele>
        <time>2026-05-09T13:18:16.663Z</time>
      </trkpt>
      <trkpt lat="47.94526" lon="6.91997">
        <ele>1145</ele>
        <time>2026-05-09T13:18:17.663Z</time>
      </trkpt>
      <trkpt lat="47.94527" lon="6.91993">
        <ele>1145</ele>
        <time>2026-05-09T13:18:18.662Z</time>
      </trkpt>
      <trkpt lat="47.94527" lon="6.91992">
        <ele>1146</ele>
        <time>2026-05-09T13:18:19.662Z</time>
      </trkpt>
      <trkpt lat="47.94527" lon="6.91992">
        <ele>1146</ele>
        <time>2026-05-09T13:18:20.662Z</time>
      </trkpt>
      <trkpt lat="47.94529" lon="6.91992">
        <ele>1146</ele>
        <time>2026-05-09T13:18:21.662Z</time>
      </trkpt>
      <trkpt lat="47.94531" lon="6.91991">
        <ele>1146</ele>
        <time>2026-05-09T13:18:22.662Z</time>
      </trkpt>
      <trkpt lat="47.94533" lon="6.91989">
        <ele>1147</ele>
        <time>2026-05-09T13:18:23.662Z</time>
      </trkpt>
      <trkpt lat="47.94536" lon="6.9199">
        <ele>1147</ele>
        <time>2026-05-09T13:18:24.662Z</time>
      </trkpt>
      <trkpt lat="47.94537" lon="6.9199">
        <ele>1148</ele>
        <time>2026-05-09T13:18:25.663Z</time>
      </trkpt>
      <trkpt lat="47.9454" lon="6.91992">
        <ele>1148</ele>
        <time>2026-05-09T13:18:26.662Z</time>
      </trkpt>
      <trkpt lat="47.94542" lon="6.91995">
        <ele>1148</ele>
        <time>2026-05-09T13:18:27.662Z</time>
      </trkpt>
      <trkpt lat="47.94544" lon="6.91999">
        <ele>1149</ele>
        <time>2026-05-09T13:18:28.662Z</time>
      </trkpt>
      <trkpt lat="47.94546" lon="6.92">
        <ele>1149</ele>
        <time>2026-05-09T13:18:29.662Z</time>
      </trkpt>
      <trkpt lat="47.94548" lon="6.92002">
        <ele>1149</ele>
        <time>2026-05-09T13:18:30.663Z</time>
      </trkpt>
      <trkpt lat="47.94549" lon="6.92002">
        <ele>1149</ele>
        <time>2026-05-09T13:18:31.663Z</time>
      </trkpt>
      <trkpt lat="47.94549" lon="6.92003">
        <ele>1149</ele>
        <time>2026-05-09T13:18:32.662Z</time>
      </trkpt>
      <trkpt lat="47.94549" lon="6.92002">
        <ele>1150</ele>
        <time>2026-05-09T13:18:33.663Z</time>
      </trkpt>
      <trkpt lat="47.9455" lon="6.92003">
        <ele>1150</ele>
        <time>2026-05-09T13:18:34.662Z</time>
      </trkpt>
      <trkpt lat="47.94549" lon="6.92003">
        <ele>1150</ele>
        <time>2026-05-09T13:18:35.662Z</time>
      </trkpt>
      <trkpt lat="47.94549" lon="6.92003">
        <ele>1150</ele>
        <time>2026-05-09T13:18:36.663Z</time>
      </trkpt>
      <trkpt lat="47.9455" lon="6.92002">
        <ele>1150</ele>
        <time>2026-05-09T13:18:37.662Z</time>
      </trkpt>
      <trkpt lat="47.94551" lon="6.92">
        <ele>1150</ele>
        <time>2026-05-09T13:18:38.663Z</time>
      </trkpt>
      <trkpt lat="47.94552" lon="6.91999">
        <ele>1150</ele>
        <time>2026-05-09T13:18:39.662Z</time>
      </trkpt>
      <trkpt lat="47.94553" lon="6.91998">
        <ele>1150</ele>
        <time>2026-05-09T13:18:40.662Z</time>
      </trkpt>
      <trkpt lat="47.94554" lon="6.91997">
        <ele>1150</ele>
        <time>2026-05-09T13:18:41.662Z</time>
      </trkpt>
      <trkpt lat="47.94554" lon="6.91996">
        <ele>1150</ele>
        <time>2026-05-09T13:18:42.663Z</time>
      </trkpt>
      <trkpt lat="47.94554" lon="6.91995">
        <ele>1150</ele>
        <time>2026-05-09T13:18:43.662Z</time>
      </trkpt>
      <trkpt lat="47.94554" lon="6.91994">
        <ele>1150</ele>
        <time>2026-05-09T13:18:44.662Z</time>
      </trkpt>
      <trkpt lat="47.94555" lon="6.91992">
        <ele>1149</ele>
        <time>2026-05-09T13:18:45.663Z</time>
      </trkpt>
      <trkpt lat="47.94556" lon="6.91991">
        <ele>1149</ele>
        <time>2026-05-09T13:18:46.662Z</time>
      </trkpt>
      <trkpt lat="47.94556" lon="6.91991">
        <ele>1149</ele>
        <time>2026-05-09T13:18:47.662Z</time>
      </trkpt>
      <trkpt lat="47.94557" lon="6.9199">
        <ele>1149</ele>
        <time>2026-05-09T13:18:48.662Z</time>
      </trkpt>
      <trkpt lat="47.94557" lon="6.91989">
        <ele>1149</ele>
        <time>2026-05-09T13:18:49.663Z</time>
      </trkpt>
      <trkpt lat="47.94558" lon="6.91988">
        <ele>1149</ele>
        <time>2026-05-09T13:18:50.662Z</time>
      </trkpt>
      <trkpt lat="47.94559" lon="6.91988">
        <ele>1149</ele>
        <time>2026-05-09T13:18:51.662Z</time>
      </trkpt>
      <trkpt lat="47.9456" lon="6.91988">
        <ele>1149</ele>
        <time>2026-05-09T13:18:52.662Z</time>
      </trkpt>
      <trkpt lat="47.94561" lon="6.91989">
        <ele>1149</ele>
        <time>2026-05-09T13:18:53.662Z</time>
      </trkpt>
      <trkpt lat="47.94561" lon="6.91989">
        <ele>1149</ele>
        <time>2026-05-09T13:18:54.662Z</time>
      </trkpt>
      <trkpt lat="47.94562" lon="6.91992">
        <ele>1150</ele>
        <time>2026-05-09T13:18:55.662Z</time>
      </trkpt>
      <trkpt lat="47.94563" lon="6.91994">
        <ele>1150</ele>
        <time>2026-05-09T13:18:56.662Z</time>
      </trkpt>
      <trkpt lat="47.94564" lon="6.91995">
        <ele>1150</ele>
        <time>2026-05-09T13:18:57.663Z</time>
      </trkpt>
      <trkpt lat="47.94565" lon="6.91996">
        <ele>1150</ele>
        <time>2026-05-09T13:18:58.662Z</time>
      </trkpt>
      <trkpt lat="47.94566" lon="6.91997">
        <ele>1151</ele>
        <time>2026-05-09T13:18:59.662Z</time>
      </trkpt>
      <trkpt lat="47.94566" lon="6.91998">
        <ele>1151</ele>
        <time>2026-05-09T13:19:00.662Z</time>
      </trkpt>
      <trkpt lat="47.94567" lon="6.92">
        <ele>1150</ele>
        <time>2026-05-09T13:19:01.662Z</time>
      </trkpt>
      <trkpt lat="47.94567" lon="6.92001">
        <ele>1150</ele>
        <time>2026-05-09T13:19:02.663Z</time>
      </trkpt>
      <trkpt lat="47.94568" lon="6.92003">
        <ele>1150</ele>
        <time>2026-05-09T13:19:03.662Z</time>
      </trkpt>
      <trkpt lat="47.94568" lon="6.92004">
        <ele>1150</ele>
        <time>2026-05-09T13:19:04.662Z</time>
      </trkpt>
      <trkpt lat="47.94569" lon="6.92005">
        <ele>1150</ele>
        <time>2026-05-09T13:19:05.662Z</time>
      </trkpt>
      <trkpt lat="47.94569" lon="6.92005">
        <ele>1150</ele>
        <time>2026-05-09T13:19:06.662Z</time>
      </trkpt>
      <trkpt lat="47.94569" lon="6.92006">
        <ele>1150</ele>
        <time>2026-05-09T13:19:07.663Z</time>
      </trkpt>
      <trkpt lat="47.9457" lon="6.92007">
        <ele>1150</ele>
        <time>2026-05-09T13:19:08.662Z</time>
      </trkpt>
      <trkpt lat="47.9457" lon="6.92009">
        <ele>1150</ele>
        <time>2026-05-09T13:19:09.662Z</time>
      </trkpt>
      <trkpt lat="47.9457" lon="6.9201">
        <ele>1149</ele>
        <time>2026-05-09T13:19:10.662Z</time>
      </trkpt>
      <trkpt lat="47.9457" lon="6.92012">
        <ele>1150</ele>
        <time>2026-05-09T13:19:11.662Z</time>
      </trkpt>
      <trkpt lat="47.9457" lon="6.92013">
        <ele>1150</ele>
        <time>2026-05-09T13:19:12.663Z</time>
      </trkpt>
      <trkpt lat="47.9457" lon="6.92013">
        <ele>1150</ele>
        <time>2026-05-09T13:19:13.662Z</time>
      </trkpt>
      <trkpt lat="47.94571" lon="6.92014">
        <ele>1150</ele>
        <time>2026-05-09T13:19:14.663Z</time>
      </trkpt>
      <trkpt lat="47.94573" lon="6.92016">
        <ele>1150</ele>
        <time>2026-05-09T13:19:15.662Z</time>
      </trkpt>
      <trkpt lat="47.94574" lon="6.92017">
        <ele>1150</ele>
        <time>2026-05-09T13:19:16.662Z</time>
      </trkpt>
      <trkpt lat="47.94575" lon="6.92019">
        <ele>1150</ele>
        <time>2026-05-09T13:19:17.662Z</time>
      </trkpt>
      <trkpt lat="47.94575" lon="6.9202">
        <ele>1150</ele>
        <time>2026-05-09T13:19:18.662Z</time>
      </trkpt>
      <trkpt lat="47.94576" lon="6.92022">
        <ele>1150</ele>
        <time>2026-05-09T13:19:19.662Z</time>
      </trkpt>
      <trkpt lat="47.94577" lon="6.92023">
        <ele>1151</ele>
        <time>2026-05-09T13:19:20.662Z</time>
      </trkpt>
      <trkpt lat="47.94577" lon="6.92024">
        <ele>1151</ele>
        <time>2026-05-09T13:19:21.662Z</time>
      </trkpt>
      <trkpt lat="47.94577" lon="6.92026">
        <ele>1151</ele>
        <time>2026-05-09T13:19:22.662Z</time>
      </trkpt>
      <trkpt lat="47.94577" lon="6.92028">
        <ele>1151</ele>
        <time>2026-05-09T13:19:23.662Z</time>
      </trkpt>
      <trkpt lat="47.94577" lon="6.92029">
        <ele>1151</ele>
        <time>2026-05-09T13:19:24.662Z</time>
      </trkpt>
      <trkpt lat="47.94577" lon="6.92031">
        <ele>1150</ele>
        <time>2026-05-09T13:19:25.663Z</time>
      </trkpt>
      <trkpt lat="47.94577" lon="6.92032">
        <ele>1150</ele>
        <time>2026-05-09T13:19:26.662Z</time>
      </trkpt>
      <trkpt lat="47.94577" lon="6.92034">
        <ele>1150</ele>
        <time>2026-05-09T13:19:27.662Z</time>
      </trkpt>
      <trkpt lat="47.94576" lon="6.92035">
        <ele>1150</ele>
        <time>2026-05-09T13:19:28.663Z</time>
      </trkpt>
      <trkpt lat="47.94575" lon="6.92037">
        <ele>1150</ele>
        <time>2026-05-09T13:19:29.662Z</time>
      </trkpt>
      <trkpt lat="47.94574" lon="6.92041">
        <ele>1149</ele>
        <time>2026-05-09T13:19:30.663Z</time>
      </trkpt>
      <trkpt lat="47.94573" lon="6.92043">
        <ele>1149</ele>
        <time>2026-05-09T13:19:31.663Z</time>
      </trkpt>
      <trkpt lat="47.94572" lon="6.92046">
        <ele>1149</ele>
        <time>2026-05-09T13:19:32.662Z</time>
      </trkpt>
      <trkpt lat="47.94572" lon="6.92048">
        <ele>1149</ele>
        <time>2026-05-09T13:19:33.662Z</time>
      </trkpt>
      <trkpt lat="47.94571" lon="6.9205">
        <ele>1149</ele>
        <time>2026-05-09T13:19:34.663Z</time>
      </trkpt>
      <trkpt lat="47.94571" lon="6.92052">
        <ele>1149</ele>
        <time>2026-05-09T13:19:35.662Z</time>
      </trkpt>
      <trkpt lat="47.9457" lon="6.92053">
        <ele>1149</ele>
        <time>2026-05-09T13:19:36.662Z</time>
      </trkpt>
      <trkpt lat="47.9457" lon="6.92055">
        <ele>1149</ele>
        <time>2026-05-09T13:19:37.663Z</time>
      </trkpt>
      <trkpt lat="47.94569" lon="6.92057">
        <ele>1149</ele>
        <time>2026-05-09T13:19:38.662Z</time>
      </trkpt>
      <trkpt lat="47.94569" lon="6.92058">
        <ele>1149</ele>
        <time>2026-05-09T13:19:39.662Z</time>
      </trkpt>
      <trkpt lat="47.94569" lon="6.92058">
        <ele>1148</ele>
        <time>2026-05-09T13:19:40.663Z</time>
      </trkpt>
      <trkpt lat="47.94572" lon="6.92058">
        <ele>1147</ele>
        <time>2026-05-09T13:19:56.053Z</time>
      </trkpt>
      <trkpt lat="47.94573" lon="6.92058">
        <ele>1147</ele>
        <time>2026-05-09T13:19:57.054Z</time>
      </trkpt>
      <trkpt lat="47.94574" lon="6.92057">
        <ele>1147</ele>
        <time>2026-05-09T13:19:58.054Z</time>
      </trkpt>
      <trkpt lat="47.94575" lon="6.92056">
        <ele>1147</ele>
        <time>2026-05-09T13:19:59.053Z</time>
      </trkpt>
      <trkpt lat="47.94576" lon="6.92056">
        <ele>1147</ele>
        <time>2026-05-09T13:20:00.054Z</time>
      </trkpt>
      <trkpt lat="47.94577" lon="6.92055">
        <ele>1147</ele>
        <time>2026-05-09T13:20:01.053Z</time>
      </trkpt>
      <trkpt lat="47.94578" lon="6.92055">
        <ele>1147</ele>
        <time>2026-05-09T13:20:02.054Z</time>
      </trkpt>
      <trkpt lat="47.94579" lon="6.92054">
        <ele>1147</ele>
        <time>2026-05-09T13:20:03.053Z</time>
      </trkpt>
      <trkpt lat="47.94581" lon="6.92053">
        <ele>1147</ele>
        <time>2026-05-09T13:20:04.054Z</time>
      </trkpt>
      <trkpt lat="47.94582" lon="6.92052">
        <ele>1147</ele>
        <time>2026-05-09T13:20:05.053Z</time>
      </trkpt>
      <trkpt lat="47.94583" lon="6.92052">
        <ele>1147</ele>
        <time>2026-05-09T13:20:06.054Z</time>
      </trkpt>
      <trkpt lat="47.94584" lon="6.92051">
        <ele>1147</ele>
        <time>2026-05-09T13:20:07.053Z</time>
      </trkpt>
      <trkpt lat="47.94585" lon="6.92051">
        <ele>1147</ele>
        <time>2026-05-09T13:20:08.054Z</time>
      </trkpt>
      <trkpt lat="47.94586" lon="6.92049">
        <ele>1147</ele>
        <time>2026-05-09T13:20:09.053Z</time>
      </trkpt>
      <trkpt lat="47.94588" lon="6.92048">
        <ele>1147</ele>
        <time>2026-05-09T13:20:10.054Z</time>
      </trkpt>
      <trkpt lat="47.9459" lon="6.92047">
        <ele>1147</ele>
        <time>2026-05-09T13:20:11.053Z</time>
      </trkpt>
      <trkpt lat="47.94592" lon="6.92046">
        <ele>1147</ele>
        <time>2026-05-09T13:20:12.054Z</time>
      </trkpt>
      <trkpt lat="47.94594" lon="6.92045">
        <ele>1147</ele>
        <time>2026-05-09T13:20:13.053Z</time>
      </trkpt>
      <trkpt lat="47.94595" lon="6.92046">
        <ele>1147</ele>
        <time>2026-05-09T13:20:14.054Z</time>
      </trkpt>
      <trkpt lat="47.94597" lon="6.92046">
        <ele>1147</ele>
        <time>2026-05-09T13:20:15.054Z</time>
      </trkpt>
      <trkpt lat="47.94598" lon="6.92046">
        <ele>1147</ele>
        <time>2026-05-09T13:20:16.054Z</time>
      </trkpt>
      <trkpt lat="47.94599" lon="6.92047">
        <ele>1147</ele>
        <time>2026-05-09T13:20:17.054Z</time>
      </trkpt>
      <trkpt lat="47.94601" lon="6.92048">
        <ele>1148</ele>
        <time>2026-05-09T13:20:18.053Z</time>
      </trkpt>
      <trkpt lat="47.94602" lon="6.92048">
        <ele>1148</ele>
        <time>2026-05-09T13:20:19.054Z</time>
      </trkpt>
      <trkpt lat="47.94604" lon="6.92048">
        <ele>1148</ele>
        <time>2026-05-09T13:20:20.053Z</time>
      </trkpt>
      <trkpt lat="47.94605" lon="6.92048">
        <ele>1148</ele>
        <time>2026-05-09T13:20:21.054Z</time>
      </trkpt>
      <trkpt lat="47.94606" lon="6.92047">
        <ele>1149</ele>
        <time>2026-05-09T13:20:22.053Z</time>
      </trkpt>
      <trkpt lat="47.94608" lon="6.92046">
        <ele>1149</ele>
        <time>2026-05-09T13:20:23.054Z</time>
      </trkpt>
      <trkpt lat="47.94609" lon="6.92046">
        <ele>1149</ele>
        <time>2026-05-09T13:20:24.053Z</time>
      </trkpt>
      <trkpt lat="47.94611" lon="6.92046">
        <ele>1149</ele>
        <time>2026-05-09T13:20:25.053Z</time>
      </trkpt>
      <trkpt lat="47.94612" lon="6.92046">
        <ele>1149</ele>
        <time>2026-05-09T13:20:26.053Z</time>
      </trkpt>
      <trkpt lat="47.94614" lon="6.92047">
        <ele>1149</ele>
        <time>2026-05-09T13:20:27.054Z</time>
      </trkpt>
      <trkpt lat="47.94615" lon="6.92047">
        <ele>1149</ele>
        <time>2026-05-09T13:20:28.053Z</time>
      </trkpt>
      <trkpt lat="47.94616" lon="6.92047">
        <ele>1149</ele>
        <time>2026-05-09T13:20:29.054Z</time>
      </trkpt>
      <trkpt lat="47.94618" lon="6.92046">
        <ele>1149</ele>
        <time>2026-05-09T13:20:30.053Z</time>
      </trkpt>
      <trkpt lat="47.94619" lon="6.92046">
        <ele>1149</ele>
        <time>2026-05-09T13:20:31.054Z</time>
      </trkpt>
      <trkpt lat="47.9462" lon="6.92047">
        <ele>1150</ele>
        <time>2026-05-09T13:20:32.053Z</time>
      </trkpt>
      <trkpt lat="47.94621" lon="6.92047">
        <ele>1150</ele>
        <time>2026-05-09T13:20:33.054Z</time>
      </trkpt>
      <trkpt lat="47.94623" lon="6.92047">
        <ele>1150</ele>
        <time>2026-05-09T13:20:34.053Z</time>
      </trkpt>
      <trkpt lat="47.94624" lon="6.92047">
        <ele>1150</ele>
        <time>2026-05-09T13:20:35.054Z</time>
      </trkpt>
      <trkpt lat="47.94625" lon="6.92046">
        <ele>1150</ele>
        <time>2026-05-09T13:20:36.053Z</time>
      </trkpt>
      <trkpt lat="47.94627" lon="6.92045">
        <ele>1150</ele>
        <time>2026-05-09T13:20:37.053Z</time>
      </trkpt>
      <trkpt lat="47.94629" lon="6.92045">
        <ele>1151</ele>
        <time>2026-05-09T13:20:38.054Z</time>
      </trkpt>
      <trkpt lat="47.9463" lon="6.92044">
        <ele>1151</ele>
        <time>2026-05-09T13:20:39.053Z</time>
      </trkpt>
      <trkpt lat="47.94631" lon="6.92044">
        <ele>1151</ele>
        <time>2026-05-09T13:20:40.054Z</time>
      </trkpt>
      <trkpt lat="47.94632" lon="6.92044">
        <ele>1151</ele>
        <time>2026-05-09T13:20:41.053Z</time>
      </trkpt>
      <trkpt lat="47.94633" lon="6.92043">
        <ele>1151</ele>
        <time>2026-05-09T13:20:42.054Z</time>
      </trkpt>
      <trkpt lat="47.94635" lon="6.92043">
        <ele>1151</ele>
        <time>2026-05-09T13:20:43.053Z</time>
      </trkpt>
      <trkpt lat="47.94636" lon="6.92044">
        <ele>1151</ele>
        <time>2026-05-09T13:20:44.054Z</time>
      </trkpt>
      <trkpt lat="47.94637" lon="6.92045">
        <ele>1150</ele>
        <time>2026-05-09T13:20:45.053Z</time>
      </trkpt>
      <trkpt lat="47.94639" lon="6.92046">
        <ele>1150</ele>
        <time>2026-05-09T13:20:46.054Z</time>
      </trkpt>
      <trkpt lat="47.94641" lon="6.92047">
        <ele>1150</ele>
        <time>2026-05-09T13:20:47.053Z</time>
      </trkpt>
      <trkpt lat="47.94642" lon="6.92048">
        <ele>1150</ele>
        <time>2026-05-09T13:20:48.054Z</time>
      </trkpt>
      <trkpt lat="47.94644" lon="6.92049">
        <ele>1150</ele>
        <time>2026-05-09T13:20:49.053Z</time>
      </trkpt>
      <trkpt lat="47.94646" lon="6.92049">
        <ele>1150</ele>
        <time>2026-05-09T13:20:50.054Z</time>
      </trkpt>
      <trkpt lat="47.94648" lon="6.9205">
        <ele>1150</ele>
        <time>2026-05-09T13:20:51.053Z</time>
      </trkpt>
      <trkpt lat="47.9465" lon="6.92051">
        <ele>1150</ele>
        <time>2026-05-09T13:20:52.054Z</time>
      </trkpt>
      <trkpt lat="47.94653" lon="6.92054">
        <ele>1150</ele>
        <time>2026-05-09T13:20:53.053Z</time>
      </trkpt>
      <trkpt lat="47.94655" lon="6.92055">
        <ele>1150</ele>
        <time>2026-05-09T13:20:54.054Z</time>
      </trkpt>
      <trkpt lat="47.94657" lon="6.92055">
        <ele>1149</ele>
        <time>2026-05-09T13:20:55.054Z</time>
      </trkpt>
      <trkpt lat="47.94659" lon="6.92055">
        <ele>1149</ele>
        <time>2026-05-09T13:20:56.053Z</time>
      </trkpt>
      <trkpt lat="47.9466" lon="6.92057">
        <ele>1149</ele>
        <time>2026-05-09T13:20:57.054Z</time>
      </trkpt>
      <trkpt lat="47.94663" lon="6.92057">
        <ele>1149</ele>
        <time>2026-05-09T13:20:58.053Z</time>
      </trkpt>
      <trkpt lat="47.94666" lon="6.92056">
        <ele>1149</ele>
        <time>2026-05-09T13:20:59.053Z</time>
      </trkpt>
      <trkpt lat="47.94669" lon="6.92056">
        <ele>1149</ele>
        <time>2026-05-09T13:21:00.053Z</time>
      </trkpt>
      <trkpt lat="47.94672" lon="6.92053">
        <ele>1149</ele>
        <time>2026-05-09T13:21:01.054Z</time>
      </trkpt>
      <trkpt lat="47.94674" lon="6.92054">
        <ele>1149</ele>
        <time>2026-05-09T13:21:02.053Z</time>
      </trkpt>
      <trkpt lat="47.94676" lon="6.92055">
        <ele>1149</ele>
        <time>2026-05-09T13:21:03.054Z</time>
      </trkpt>
      <trkpt lat="47.94678" lon="6.92059">
        <ele>1149</ele>
        <time>2026-05-09T13:21:04.053Z</time>
      </trkpt>
      <trkpt lat="47.9468" lon="6.9206">
        <ele>1149</ele>
        <time>2026-05-09T13:21:05.054Z</time>
      </trkpt>
      <trkpt lat="47.94681" lon="6.9206">
        <ele>1149</ele>
        <time>2026-05-09T13:21:06.053Z</time>
      </trkpt>
      <trkpt lat="47.94683" lon="6.92062">
        <ele>1149</ele>
        <time>2026-05-09T13:21:07.054Z</time>
      </trkpt>
      <trkpt lat="47.94686" lon="6.92064">
        <ele>1149</ele>
        <time>2026-05-09T13:21:08.053Z</time>
      </trkpt>
      <trkpt lat="47.94689" lon="6.92064">
        <ele>1149</ele>
        <time>2026-05-09T13:21:09.054Z</time>
      </trkpt>
      <trkpt lat="47.94691" lon="6.92065">
        <ele>1148</ele>
        <time>2026-05-09T13:21:10.053Z</time>
      </trkpt>
      <trkpt lat="47.94693" lon="6.92066">
        <ele>1148</ele>
        <time>2026-05-09T13:21:11.054Z</time>
      </trkpt>
      <trkpt lat="47.94695" lon="6.92067">
        <ele>1148</ele>
        <time>2026-05-09T13:21:12.054Z</time>
      </trkpt>
      <trkpt lat="47.94697" lon="6.92068">
        <ele>1148</ele>
        <time>2026-05-09T13:21:13.054Z</time>
      </trkpt>
      <trkpt lat="47.94698" lon="6.92069">
        <ele>1148</ele>
        <time>2026-05-09T13:21:14.054Z</time>
      </trkpt>
      <trkpt lat="47.947" lon="6.92071">
        <ele>1148</ele>
        <time>2026-05-09T13:21:15.053Z</time>
      </trkpt>
      <trkpt lat="47.94702" lon="6.92073">
        <ele>1147</ele>
        <time>2026-05-09T13:21:16.053Z</time>
      </trkpt>
      <trkpt lat="47.94703" lon="6.92075">
        <ele>1147</ele>
        <time>2026-05-09T13:21:17.054Z</time>
      </trkpt>
      <trkpt lat="47.94702" lon="6.92076">
        <ele>1147</ele>
        <time>2026-05-09T13:21:18.053Z</time>
      </trkpt>
      <trkpt lat="47.94701" lon="6.92077">
        <ele>1146</ele>
        <time>2026-05-09T13:21:19.053Z</time>
      </trkpt>
      <trkpt lat="47.94701" lon="6.92078">
        <ele>1146</ele>
        <time>2026-05-09T13:21:20.054Z</time>
      </trkpt>
      <trkpt lat="47.94702" lon="6.92079">
        <ele>1146</ele>
        <time>2026-05-09T13:21:21.053Z</time>
      </trkpt>
      <trkpt lat="47.94703" lon="6.92081">
        <ele>1145</ele>
        <time>2026-05-09T13:21:22.054Z</time>
      </trkpt>
      <trkpt lat="47.94703" lon="6.92083">
        <ele>1145</ele>
        <time>2026-05-09T13:21:23.054Z</time>
      </trkpt>
      <trkpt lat="47.94703" lon="6.92085">
        <ele>1145</ele>
        <time>2026-05-09T13:21:24.053Z</time>
      </trkpt>
      <trkpt lat="47.94703" lon="6.92088">
        <ele>1145</ele>
        <time>2026-05-09T13:21:25.053Z</time>
      </trkpt>
      <trkpt lat="47.94704" lon="6.9209">
        <ele>1145</ele>
        <time>2026-05-09T13:21:26.053Z</time>
      </trkpt>
      <trkpt lat="47.94704" lon="6.92092">
        <ele>1145</ele>
        <time>2026-05-09T13:21:27.054Z</time>
      </trkpt>
      <trkpt lat="47.94705" lon="6.92093">
        <ele>1145</ele>
        <time>2026-05-09T13:21:28.054Z</time>
      </trkpt>
      <trkpt lat="47.94705" lon="6.92094">
        <ele>1145</ele>
        <time>2026-05-09T13:21:29.053Z</time>
      </trkpt>
      <trkpt lat="47.94706" lon="6.92095">
        <ele>1145</ele>
        <time>2026-05-09T13:21:30.054Z</time>
      </trkpt>
      <trkpt lat="47.94706" lon="6.92095">
        <ele>1145</ele>
        <time>2026-05-09T13:21:31.054Z</time>
      </trkpt>
      <trkpt lat="47.94707" lon="6.92095">
        <ele>1144</ele>
        <time>2026-05-09T13:21:32.053Z</time>
      </trkpt>
      <trkpt lat="47.94707" lon="6.92095">
        <ele>1144</ele>
        <time>2026-05-09T13:21:33.053Z</time>
      </trkpt>
      <trkpt lat="47.94708" lon="6.92095">
        <ele>1144</ele>
        <time>2026-05-09T13:21:34.054Z</time>
      </trkpt>
      <trkpt lat="47.94708" lon="6.92095">
        <ele>1144</ele>
        <time>2026-05-09T13:21:35.053Z</time>
      </trkpt>
      <trkpt lat="47.94709" lon="6.92094">
        <ele>1144</ele>
        <time>2026-05-09T13:21:36.054Z</time>
      </trkpt>
      <trkpt lat="47.94709" lon="6.92094">
        <ele>1144</ele>
        <time>2026-05-09T13:21:37.053Z</time>
      </trkpt>
      <trkpt lat="47.9471" lon="6.92093">
        <ele>1145</ele>
        <time>2026-05-09T13:21:38.053Z</time>
      </trkpt>
      <trkpt lat="47.94712" lon="6.92092">
        <ele>1145</ele>
        <time>2026-05-09T13:21:39.053Z</time>
      </trkpt>
      <trkpt lat="47.94712" lon="6.92092">
        <ele>1145</ele>
        <time>2026-05-09T13:21:40.054Z</time>
      </trkpt>
      <trkpt lat="47.94713" lon="6.92091">
        <ele>1145</ele>
        <time>2026-05-09T13:21:41.053Z</time>
      </trkpt>
      <trkpt lat="47.94715" lon="6.92091">
        <ele>1146</ele>
        <time>2026-05-09T13:21:42.053Z</time>
      </trkpt>
      <trkpt lat="47.94716" lon="6.9209">
        <ele>1146</ele>
        <time>2026-05-09T13:21:43.053Z</time>
      </trkpt>
      <trkpt lat="47.94718" lon="6.92091">
        <ele>1145</ele>
        <time>2026-05-09T13:21:44.053Z</time>
      </trkpt>
      <trkpt lat="47.94721" lon="6.92092">
        <ele>1145</ele>
        <time>2026-05-09T13:21:45.053Z</time>
      </trkpt>
      <trkpt lat="47.94723" lon="6.92093">
        <ele>1145</ele>
        <time>2026-05-09T13:21:46.053Z</time>
      </trkpt>
      <trkpt lat="47.94726" lon="6.92094">
        <ele>1145</ele>
        <time>2026-05-09T13:21:47.053Z</time>
      </trkpt>
      <trkpt lat="47.94728" lon="6.92094">
        <ele>1145</ele>
        <time>2026-05-09T13:21:48.054Z</time>
      </trkpt>
      <trkpt lat="47.94729" lon="6.92094">
        <ele>1145</ele>
        <time>2026-05-09T13:21:49.054Z</time>
      </trkpt>
      <trkpt lat="47.94729" lon="6.92094">
        <ele>1145</ele>
        <time>2026-05-09T13:21:50.053Z</time>
      </trkpt>
      <trkpt lat="47.94731" lon="6.92095">
        <ele>1145</ele>
        <time>2026-05-09T13:21:51.053Z</time>
      </trkpt>
      <trkpt lat="47.94732" lon="6.92095">
        <ele>1145</ele>
        <time>2026-05-09T13:21:52.054Z</time>
      </trkpt>
      <trkpt lat="47.94733" lon="6.92096">
        <ele>1145</ele>
        <time>2026-05-09T13:21:53.054Z</time>
      </trkpt>
      <trkpt lat="47.94735" lon="6.92096">
        <ele>1145</ele>
        <time>2026-05-09T13:21:54.053Z</time>
      </trkpt>
      <trkpt lat="47.94736" lon="6.92097">
        <ele>1145</ele>
        <time>2026-05-09T13:21:55.053Z</time>
      </trkpt>
      <trkpt lat="47.94737" lon="6.92097">
        <ele>1145</ele>
        <time>2026-05-09T13:21:56.053Z</time>
      </trkpt>
      <trkpt lat="47.94738" lon="6.92098">
        <ele>1145</ele>
        <time>2026-05-09T13:21:57.054Z</time>
      </trkpt>
      <trkpt lat="47.94739" lon="6.92099">
        <ele>1145</ele>
        <time>2026-05-09T13:21:58.053Z</time>
      </trkpt>
      <trkpt lat="47.9474" lon="6.921">
        <ele>1144</ele>
        <time>2026-05-09T13:21:59.053Z</time>
      </trkpt>
      <trkpt lat="47.94741" lon="6.92102">
        <ele>1144</ele>
        <time>2026-05-09T13:22:00.053Z</time>
      </trkpt>
      <trkpt lat="47.94743" lon="6.92103">
        <ele>1145</ele>
        <time>2026-05-09T13:22:01.054Z</time>
      </trkpt>
      <trkpt lat="47.94744" lon="6.92105">
        <ele>1145</ele>
        <time>2026-05-09T13:22:02.054Z</time>
      </trkpt>
      <trkpt lat="47.94747" lon="6.92107">
        <ele>1145</ele>
        <time>2026-05-09T13:22:03.054Z</time>
      </trkpt>
      <trkpt lat="47.9475" lon="6.9211">
        <ele>1145</ele>
        <time>2026-05-09T13:22:04.053Z</time>
      </trkpt>
      <trkpt lat="47.94753" lon="6.92113">
        <ele>1145</ele>
        <time>2026-05-09T13:22:05.054Z</time>
      </trkpt>
      <trkpt lat="47.94755" lon="6.92114">
        <ele>1146</ele>
        <time>2026-05-09T13:22:06.053Z</time>
      </trkpt>
      <trkpt lat="47.94761" lon="6.92117">
        <ele>1146</ele>
        <time>2026-05-09T13:22:07.053Z</time>
      </trkpt>
      <trkpt lat="47.94766" lon="6.92121">
        <ele>1147</ele>
        <time>2026-05-09T13:22:08.053Z</time>
      </trkpt>
      <trkpt lat="47.94768" lon="6.92124">
        <ele>1147</ele>
        <time>2026-05-09T13:22:09.054Z</time>
      </trkpt>
      <trkpt lat="47.9477" lon="6.92126">
        <ele>1147</ele>
        <time>2026-05-09T13:22:10.054Z</time>
      </trkpt>
      <trkpt lat="47.9477" lon="6.92127">
        <ele>1147</ele>
        <time>2026-05-09T13:22:11.054Z</time>
      </trkpt>
      <trkpt lat="47.94769" lon="6.92128">
        <ele>1146</ele>
        <time>2026-05-09T13:22:12.053Z</time>
      </trkpt>
      <trkpt lat="47.94769" lon="6.92131">
        <ele>1146</ele>
        <time>2026-05-09T13:22:13.054Z</time>
      </trkpt>
      <trkpt lat="47.9477" lon="6.92134">
        <ele>1145</ele>
        <time>2026-05-09T13:22:14.054Z</time>
      </trkpt>
      <trkpt lat="47.94771" lon="6.92137">
        <ele>1145</ele>
        <time>2026-05-09T13:22:15.053Z</time>
      </trkpt>
      <trkpt lat="47.94771" lon="6.92139">
        <ele>1144</ele>
        <time>2026-05-09T13:22:16.053Z</time>
      </trkpt>
      <trkpt lat="47.94772" lon="6.9214">
        <ele>1144</ele>
        <time>2026-05-09T13:22:17.053Z</time>
      </trkpt>
      <trkpt lat="47.94771" lon="6.9214">
        <ele>1143</ele>
        <time>2026-05-09T13:22:18.053Z</time>
      </trkpt>
      <trkpt lat="47.94771" lon="6.92141">
        <ele>1143</ele>
        <time>2026-05-09T13:22:19.054Z</time>
      </trkpt>
      <trkpt lat="47.94771" lon="6.92141">
        <ele>1143</ele>
        <time>2026-05-09T13:22:20.054Z</time>
      </trkpt>
      <trkpt lat="47.94772" lon="6.92142">
        <ele>1143</ele>
        <time>2026-05-09T13:22:21.054Z</time>
      </trkpt>
      <trkpt lat="47.94773" lon="6.92144">
        <ele>1143</ele>
        <time>2026-05-09T13:22:22.053Z</time>
      </trkpt>
      <trkpt lat="47.94773" lon="6.92145">
        <ele>1143</ele>
        <time>2026-05-09T13:22:23.053Z</time>
      </trkpt>
      <trkpt lat="47.94774" lon="6.92148">
        <ele>1143</ele>
        <time>2026-05-09T13:22:24.053Z</time>
      </trkpt>
      <trkpt lat="47.94775" lon="6.9215">
        <ele>1143</ele>
        <time>2026-05-09T13:22:25.053Z</time>
      </trkpt>
      <trkpt lat="47.94775" lon="6.92152">
        <ele>1143</ele>
        <time>2026-05-09T13:22:26.054Z</time>
      </trkpt>
      <trkpt lat="47.94775" lon="6.92155">
        <ele>1143</ele>
        <time>2026-05-09T13:22:27.053Z</time>
      </trkpt>
      <trkpt lat="47.94777" lon="6.92157">
        <ele>1143</ele>
        <time>2026-05-09T13:22:28.053Z</time>
      </trkpt>
      <trkpt lat="47.94778" lon="6.92158">
        <ele>1143</ele>
        <time>2026-05-09T13:22:29.054Z</time>
      </trkpt>
      <trkpt lat="47.94778" lon="6.9216">
        <ele>1143</ele>
        <time>2026-05-09T13:22:30.053Z</time>
      </trkpt>
      <trkpt lat="47.94779" lon="6.92162">
        <ele>1143</ele>
        <time>2026-05-09T13:22:31.053Z</time>
      </trkpt>
      <trkpt lat="47.9478" lon="6.92163">
        <ele>1143</ele>
        <time>2026-05-09T13:22:32.054Z</time>
      </trkpt>
      <trkpt lat="47.94779" lon="6.92166">
        <ele>1143</ele>
        <time>2026-05-09T13:22:33.054Z</time>
      </trkpt>
      <trkpt lat="47.94781" lon="6.92169">
        <ele>1143</ele>
        <time>2026-05-09T13:22:34.054Z</time>
      </trkpt>
      <trkpt lat="47.94782" lon="6.92173">
        <ele>1143</ele>
        <time>2026-05-09T13:22:35.053Z</time>
      </trkpt>
      <trkpt lat="47.94784" lon="6.92177">
        <ele>1143</ele>
        <time>2026-05-09T13:22:36.053Z</time>
      </trkpt>
      <trkpt lat="47.94785" lon="6.92181">
        <ele>1143</ele>
        <time>2026-05-09T13:22:37.054Z</time>
      </trkpt>
      <trkpt lat="47.94785" lon="6.92186">
        <ele>1143</ele>
        <time>2026-05-09T13:22:38.053Z</time>
      </trkpt>
      <trkpt lat="47.94785" lon="6.92188">
        <ele>1143</ele>
        <time>2026-05-09T13:22:39.053Z</time>
      </trkpt>
      <trkpt lat="47.94785" lon="6.9219">
        <ele>1143</ele>
        <time>2026-05-09T13:22:40.053Z</time>
      </trkpt>
      <trkpt lat="47.94785" lon="6.92192">
        <ele>1143</ele>
        <time>2026-05-09T13:22:41.054Z</time>
      </trkpt>
      <trkpt lat="47.94786" lon="6.92193">
        <ele>1143</ele>
        <time>2026-05-09T13:22:42.054Z</time>
      </trkpt>
      <trkpt lat="47.94787" lon="6.92196">
        <ele>1143</ele>
        <time>2026-05-09T13:22:43.053Z</time>
      </trkpt>
      <trkpt lat="47.94787" lon="6.92197">
        <ele>1143</ele>
        <time>2026-05-09T13:22:44.054Z</time>
      </trkpt>
      <trkpt lat="47.94788" lon="6.92198">
        <ele>1143</ele>
        <time>2026-05-09T13:22:45.054Z</time>
      </trkpt>
      <trkpt lat="47.94788" lon="6.92199">
        <ele>1143</ele>
        <time>2026-05-09T13:22:46.053Z</time>
      </trkpt>
      <trkpt lat="47.94789" lon="6.922">
        <ele>1143</ele>
        <time>2026-05-09T13:22:47.053Z</time>
      </trkpt>
      <trkpt lat="47.9479" lon="6.92201">
        <ele>1143</ele>
        <time>2026-05-09T13:22:48.054Z</time>
      </trkpt>
      <trkpt lat="47.94791" lon="6.92201">
        <ele>1143</ele>
        <time>2026-05-09T13:22:49.053Z</time>
      </trkpt>
      <trkpt lat="47.94792" lon="6.92202">
        <ele>1144</ele>
        <time>2026-05-09T13:22:50.053Z</time>
      </trkpt>
      <trkpt lat="47.94794" lon="6.92204">
        <ele>1144</ele>
        <time>2026-05-09T13:22:51.054Z</time>
      </trkpt>
      <trkpt lat="47.94796" lon="6.92207">
        <ele>1144</ele>
        <time>2026-05-09T13:22:52.053Z</time>
      </trkpt>
      <trkpt lat="47.94797" lon="6.92209">
        <ele>1144</ele>
        <time>2026-05-09T13:22:53.053Z</time>
      </trkpt>
      <trkpt lat="47.94797" lon="6.9221">
        <ele>1144</ele>
        <time>2026-05-09T13:22:54.053Z</time>
      </trkpt>
      <trkpt lat="47.94798" lon="6.92212">
        <ele>1143</ele>
        <time>2026-05-09T13:22:55.054Z</time>
      </trkpt>
      <trkpt lat="47.948" lon="6.92213">
        <ele>1143</ele>
        <time>2026-05-09T13:22:56.053Z</time>
      </trkpt>
      <trkpt lat="47.94801" lon="6.92215">
        <ele>1143</ele>
        <time>2026-05-09T13:22:57.054Z</time>
      </trkpt>
      <trkpt lat="47.94803" lon="6.92216">
        <ele>1142</ele>
        <time>2026-05-09T13:22:58.053Z</time>
      </trkpt>
      <trkpt lat="47.94805" lon="6.92218">
        <ele>1142</ele>
        <time>2026-05-09T13:22:59.053Z</time>
      </trkpt>
      <trkpt lat="47.94807" lon="6.92221">
        <ele>1141</ele>
        <time>2026-05-09T13:23:00.054Z</time>
      </trkpt>
      <trkpt lat="47.94808" lon="6.92223">
        <ele>1141</ele>
        <time>2026-05-09T13:23:01.054Z</time>
      </trkpt>
      <trkpt lat="47.94809" lon="6.92226">
        <ele>1141</ele>
        <time>2026-05-09T13:23:02.054Z</time>
      </trkpt>
      <trkpt lat="47.94811" lon="6.92227">
        <ele>1141</ele>
        <time>2026-05-09T13:23:03.053Z</time>
      </trkpt>
      <trkpt lat="47.94811" lon="6.92228">
        <ele>1141</ele>
        <time>2026-05-09T13:23:04.054Z</time>
      </trkpt>
      <trkpt lat="47.94811" lon="6.92228">
        <ele>1141</ele>
        <time>2026-05-09T13:23:05.053Z</time>
      </trkpt>
      <trkpt lat="47.94811" lon="6.92228">
        <ele>1141</ele>
        <time>2026-05-09T13:23:06.054Z</time>
      </trkpt>
      <trkpt lat="47.94811" lon="6.92229">
        <ele>1140</ele>
        <time>2026-05-09T13:23:07.053Z</time>
      </trkpt>
      <trkpt lat="47.94812" lon="6.92231">
        <ele>1140</ele>
        <time>2026-05-09T13:23:08.053Z</time>
      </trkpt>
      <trkpt lat="47.94812" lon="6.92231">
        <ele>1140</ele>
        <time>2026-05-09T13:23:09.054Z</time>
      </trkpt>
      <trkpt lat="47.94813" lon="6.92231">
        <ele>1140</ele>
        <time>2026-05-09T13:23:10.054Z</time>
      </trkpt>
      <trkpt lat="47.94814" lon="6.92232">
        <ele>1140</ele>
        <time>2026-05-09T13:23:11.054Z</time>
      </trkpt>
      <trkpt lat="47.94815" lon="6.92233">
        <ele>1139</ele>
        <time>2026-05-09T13:23:12.054Z</time>
      </trkpt>
      <trkpt lat="47.94816" lon="6.92234">
        <ele>1139</ele>
        <time>2026-05-09T13:23:13.053Z</time>
      </trkpt>
      <trkpt lat="47.94817" lon="6.92235">
        <ele>1138</ele>
        <time>2026-05-09T13:23:14.053Z</time>
      </trkpt>
      <trkpt lat="47.94817" lon="6.92236">
        <ele>1138</ele>
        <time>2026-05-09T13:23:15.054Z</time>
      </trkpt>
      <trkpt lat="47.94818" lon="6.92238">
        <ele>1138</ele>
        <time>2026-05-09T13:23:16.053Z</time>
      </trkpt>
      <trkpt lat="47.94818" lon="6.9224">
        <ele>1137</ele>
        <time>2026-05-09T13:23:17.054Z</time>
      </trkpt>
      <trkpt lat="47.94818" lon="6.92241">
        <ele>1137</ele>
        <time>2026-05-09T13:23:18.054Z</time>
      </trkpt>
      <trkpt lat="47.94819" lon="6.92242">
        <ele>1137</ele>
        <time>2026-05-09T13:23:19.054Z</time>
      </trkpt>
      <trkpt lat="47.94819" lon="6.92243">
        <ele>1137</ele>
        <time>2026-05-09T13:23:20.053Z</time>
      </trkpt>
      <trkpt lat="47.9482" lon="6.92244">
        <ele>1137</ele>
        <time>2026-05-09T13:23:21.054Z</time>
      </trkpt>
      <trkpt lat="47.9482" lon="6.92245">
        <ele>1136</ele>
        <time>2026-05-09T13:23:22.053Z</time>
      </trkpt>
      <trkpt lat="47.94821" lon="6.92246">
        <ele>1135</ele>
        <time>2026-05-09T13:23:23.053Z</time>
      </trkpt>
      <trkpt lat="47.94821" lon="6.92248">
        <ele>1135</ele>
        <time>2026-05-09T13:23:24.053Z</time>
      </trkpt>
      <trkpt lat="47.94822" lon="6.9225">
        <ele>1134</ele>
        <time>2026-05-09T13:23:25.053Z</time>
      </trkpt>
      <trkpt lat="47.94824" lon="6.92252">
        <ele>1134</ele>
        <time>2026-05-09T13:23:26.053Z</time>
      </trkpt>
      <trkpt lat="47.94825" lon="6.92254">
        <ele>1133</ele>
        <time>2026-05-09T13:23:27.054Z</time>
      </trkpt>
      <trkpt lat="47.94826" lon="6.92256">
        <ele>1133</ele>
        <time>2026-05-09T13:23:28.053Z</time>
      </trkpt>
      <trkpt lat="47.94826" lon="6.92258">
        <ele>1133</ele>
        <time>2026-05-09T13:23:29.053Z</time>
      </trkpt>
      <trkpt lat="47.94826" lon="6.9226">
        <ele>1133</ele>
        <time>2026-05-09T13:23:30.054Z</time>
      </trkpt>
      <trkpt lat="47.94827" lon="6.92261">
        <ele>1133</ele>
        <time>2026-05-09T13:23:31.053Z</time>
      </trkpt>
      <trkpt lat="47.94828" lon="6.92262">
        <ele>1133</ele>
        <time>2026-05-09T13:23:32.054Z</time>
      </trkpt>
      <trkpt lat="47.94829" lon="6.92263">
        <ele>1133</ele>
        <time>2026-05-09T13:23:33.053Z</time>
      </trkpt>
      <trkpt lat="47.9483" lon="6.92264">
        <ele>1133</ele>
        <time>2026-05-09T13:23:34.053Z</time>
      </trkpt>
      <trkpt lat="47.9483" lon="6.92265">
        <ele>1134</ele>
        <time>2026-05-09T13:23:35.054Z</time>
      </trkpt>
      <trkpt lat="47.94832" lon="6.92267">
        <ele>1134</ele>
        <time>2026-05-09T13:23:36.054Z</time>
      </trkpt>
      <trkpt lat="47.94832" lon="6.92269">
        <ele>1134</ele>
        <time>2026-05-09T13:23:37.053Z</time>
      </trkpt>
      <trkpt lat="47.94833" lon="6.9227">
        <ele>1135</ele>
        <time>2026-05-09T13:23:38.054Z</time>
      </trkpt>
      <trkpt lat="47.94833" lon="6.92272">
        <ele>1135</ele>
        <time>2026-05-09T13:23:39.053Z</time>
      </trkpt>
      <trkpt lat="47.94834" lon="6.92273">
        <ele>1135</ele>
        <time>2026-05-09T13:23:40.053Z</time>
      </trkpt>
      <trkpt lat="47.94835" lon="6.92275">
        <ele>1135</ele>
        <time>2026-05-09T13:23:41.053Z</time>
      </trkpt>
      <trkpt lat="47.94837" lon="6.92276">
        <ele>1136</ele>
        <time>2026-05-09T13:23:42.053Z</time>
      </trkpt>
      <trkpt lat="47.94839" lon="6.92277">
        <ele>1136</ele>
        <time>2026-05-09T13:23:43.053Z</time>
      </trkpt>
      <trkpt lat="47.9484" lon="6.92277">
        <ele>1136</ele>
        <time>2026-05-09T13:23:44.053Z</time>
      </trkpt>
      <trkpt lat="47.94842" lon="6.92277">
        <ele>1136</ele>
        <time>2026-05-09T13:23:45.054Z</time>
      </trkpt>
      <trkpt lat="47.94843" lon="6.92277">
        <ele>1136</ele>
        <time>2026-05-09T13:23:46.053Z</time>
      </trkpt>
      <trkpt lat="47.94844" lon="6.92277">
        <ele>1136</ele>
        <time>2026-05-09T13:23:47.053Z</time>
      </trkpt>
      <trkpt lat="47.94846" lon="6.92277">
        <ele>1136</ele>
        <time>2026-05-09T13:23:48.054Z</time>
      </trkpt>
      <trkpt lat="47.94848" lon="6.92277">
        <ele>1136</ele>
        <time>2026-05-09T13:23:49.053Z</time>
      </trkpt>
      <trkpt lat="47.94851" lon="6.92278">
        <ele>1136</ele>
        <time>2026-05-09T13:23:50.054Z</time>
      </trkpt>
      <trkpt lat="47.94854" lon="6.9228">
        <ele>1136</ele>
        <time>2026-05-09T13:23:51.053Z</time>
      </trkpt>
      <trkpt lat="47.94856" lon="6.92281">
        <ele>1136</ele>
        <time>2026-05-09T13:23:52.054Z</time>
      </trkpt>
      <trkpt lat="47.94857" lon="6.92281">
        <ele>1136</ele>
        <time>2026-05-09T13:23:53.054Z</time>
      </trkpt>
      <trkpt lat="47.94858" lon="6.92279">
        <ele>1136</ele>
        <time>2026-05-09T13:23:54.053Z</time>
      </trkpt>
      <trkpt lat="47.94858" lon="6.92277">
        <ele>1135</ele>
        <time>2026-05-09T13:23:55.053Z</time>
      </trkpt>
      <trkpt lat="47.94859" lon="6.92276">
        <ele>1135</ele>
        <time>2026-05-09T13:23:56.053Z</time>
      </trkpt>
      <trkpt lat="47.9486" lon="6.92274">
        <ele>1135</ele>
        <time>2026-05-09T13:23:57.054Z</time>
      </trkpt>
      <trkpt lat="47.9486" lon="6.92271">
        <ele>1135</ele>
        <time>2026-05-09T13:23:58.054Z</time>
      </trkpt>
      <trkpt lat="47.9486" lon="6.92267">
        <ele>1136</ele>
        <time>2026-05-09T13:23:59.053Z</time>
      </trkpt>
      <trkpt lat="47.94862" lon="6.92265">
        <ele>1135</ele>
        <time>2026-05-09T13:24:00.054Z</time>
      </trkpt>
      <trkpt lat="47.94863" lon="6.92264">
        <ele>1135</ele>
        <time>2026-05-09T13:24:01.053Z</time>
      </trkpt>
      <trkpt lat="47.94864" lon="6.9226">
        <ele>1135</ele>
        <time>2026-05-09T13:24:02.054Z</time>
      </trkpt>
      <trkpt lat="47.94865" lon="6.92258">
        <ele>1135</ele>
        <time>2026-05-09T13:24:03.054Z</time>
      </trkpt>
      <trkpt lat="47.94866" lon="6.92258">
        <ele>1135</ele>
        <time>2026-05-09T13:24:04.054Z</time>
      </trkpt>
      <trkpt lat="47.94867" lon="6.92258">
        <ele>1135</ele>
        <time>2026-05-09T13:24:05.054Z</time>
      </trkpt>
      <trkpt lat="47.94868" lon="6.92258">
        <ele>1134</ele>
        <time>2026-05-09T13:24:06.054Z</time>
      </trkpt>
      <trkpt lat="47.94869" lon="6.92256">
        <ele>1134</ele>
        <time>2026-05-09T13:24:07.053Z</time>
      </trkpt>
      <trkpt lat="47.94871" lon="6.92256">
        <ele>1133</ele>
        <time>2026-05-09T13:24:08.053Z</time>
      </trkpt>
      <trkpt lat="47.94872" lon="6.92256">
        <ele>1133</ele>
        <time>2026-05-09T13:24:09.054Z</time>
      </trkpt>
      <trkpt lat="47.94873" lon="6.92255">
        <ele>1132</ele>
        <time>2026-05-09T13:24:10.053Z</time>
      </trkpt>
      <trkpt lat="47.94874" lon="6.92255">
        <ele>1131</ele>
        <time>2026-05-09T13:24:11.054Z</time>
      </trkpt>
      <trkpt lat="47.94875" lon="6.92254">
        <ele>1131</ele>
        <time>2026-05-09T13:24:12.053Z</time>
      </trkpt>
      <trkpt lat="47.94876" lon="6.92253">
        <ele>1131</ele>
        <time>2026-05-09T13:24:13.054Z</time>
      </trkpt>
      <trkpt lat="47.94878" lon="6.92252">
        <ele>1130</ele>
        <time>2026-05-09T13:24:14.054Z</time>
      </trkpt>
      <trkpt lat="47.94879" lon="6.92251">
        <ele>1130</ele>
        <time>2026-05-09T13:24:15.053Z</time>
      </trkpt>
      <trkpt lat="47.9488" lon="6.92249">
        <ele>1130</ele>
        <time>2026-05-09T13:24:16.053Z</time>
      </trkpt>
      <trkpt lat="47.94881" lon="6.92248">
        <ele>1129</ele>
        <time>2026-05-09T13:24:17.054Z</time>
      </trkpt>
      <trkpt lat="47.94882" lon="6.92247">
        <ele>1129</ele>
        <time>2026-05-09T13:24:18.054Z</time>
      </trkpt>
      <trkpt lat="47.94882" lon="6.92245">
        <ele>1129</ele>
        <time>2026-05-09T13:24:19.053Z</time>
      </trkpt>
      <trkpt lat="47.94883" lon="6.92244">
        <ele>1129</ele>
        <time>2026-05-09T13:24:20.053Z</time>
      </trkpt>
      <trkpt lat="47.94884" lon="6.92243">
        <ele>1129</ele>
        <time>2026-05-09T13:24:21.053Z</time>
      </trkpt>
      <trkpt lat="47.94886" lon="6.92241">
        <ele>1129</ele>
        <time>2026-05-09T13:24:22.054Z</time>
      </trkpt>
      <trkpt lat="47.94887" lon="6.9224">
        <ele>1128</ele>
        <time>2026-05-09T13:24:23.053Z</time>
      </trkpt>
      <trkpt lat="47.94888" lon="6.92238">
        <ele>1128</ele>
        <time>2026-05-09T13:24:24.053Z</time>
      </trkpt>
      <trkpt lat="47.94889" lon="6.92237">
        <ele>1128</ele>
        <time>2026-05-09T13:24:25.054Z</time>
      </trkpt>
      <trkpt lat="47.94889" lon="6.92235">
        <ele>1128</ele>
        <time>2026-05-09T13:24:26.053Z</time>
      </trkpt>
      <trkpt lat="47.9489" lon="6.92234">
        <ele>1128</ele>
        <time>2026-05-09T13:24:27.053Z</time>
      </trkpt>
      <trkpt lat="47.9489" lon="6.92234">
        <ele>1128</ele>
        <time>2026-05-09T13:24:28.053Z</time>
      </trkpt>
      <trkpt lat="47.9489" lon="6.92233">
        <ele>1128</ele>
        <time>2026-05-09T13:24:29.054Z</time>
      </trkpt>
      <trkpt lat="47.94891" lon="6.92233">
        <ele>1128</ele>
        <time>2026-05-09T13:24:30.053Z</time>
      </trkpt>
      <trkpt lat="47.94891" lon="6.92233">
        <ele>1128</ele>
        <time>2026-05-09T13:24:31.054Z</time>
      </trkpt>
      <trkpt lat="47.94892" lon="6.92235">
        <ele>1132</ele>
        <time>2026-05-09T13:24:46.425Z</time>
      </trkpt>
      <trkpt lat="47.94892" lon="6.92234">
        <ele>1131</ele>
        <time>2026-05-09T13:24:47.425Z</time>
      </trkpt>
      <trkpt lat="47.94893" lon="6.92234">
        <ele>1131</ele>
        <time>2026-05-09T13:24:48.425Z</time>
      </trkpt>
      <trkpt lat="47.94893" lon="6.92234">
        <ele>1131</ele>
        <time>2026-05-09T13:24:49.425Z</time>
      </trkpt>
      <trkpt lat="47.94894" lon="6.92235">
        <ele>1131</ele>
        <time>2026-05-09T13:24:50.424Z</time>
      </trkpt>
      <trkpt lat="47.94894" lon="6.92237">
        <ele>1130</ele>
        <time>2026-05-09T13:24:51.424Z</time>
      </trkpt>
      <trkpt lat="47.94894" lon="6.92238">
        <ele>1130</ele>
        <time>2026-05-09T13:24:52.425Z</time>
      </trkpt>
      <trkpt lat="47.94895" lon="6.9224">
        <ele>1129</ele>
        <time>2026-05-09T13:24:53.424Z</time>
      </trkpt>
      <trkpt lat="47.94895" lon="6.92241">
        <ele>1128</ele>
        <time>2026-05-09T13:24:54.425Z</time>
      </trkpt>
      <trkpt lat="47.94895" lon="6.92243">
        <ele>1128</ele>
        <time>2026-05-09T13:24:55.424Z</time>
      </trkpt>
      <trkpt lat="47.94895" lon="6.92244">
        <ele>1127</ele>
        <time>2026-05-09T13:24:56.425Z</time>
      </trkpt>
      <trkpt lat="47.94896" lon="6.92245">
        <ele>1127</ele>
        <time>2026-05-09T13:24:57.424Z</time>
      </trkpt>
      <trkpt lat="47.94896" lon="6.92246">
        <ele>1127</ele>
        <time>2026-05-09T13:24:58.424Z</time>
      </trkpt>
      <trkpt lat="47.94895" lon="6.92247">
        <ele>1127</ele>
        <time>2026-05-09T13:24:59.425Z</time>
      </trkpt>
      <trkpt lat="47.94895" lon="6.92247">
        <ele>1126</ele>
        <time>2026-05-09T13:25:00.424Z</time>
      </trkpt>
      <trkpt lat="47.94895" lon="6.92247">
        <ele>1126</ele>
        <time>2026-05-09T13:25:01.425Z</time>
      </trkpt>
      <trkpt lat="47.94895" lon="6.92247">
        <ele>1125</ele>
        <time>2026-05-09T13:25:02.424Z</time>
      </trkpt>
      <trkpt lat="47.94896" lon="6.92248">
        <ele>1125</ele>
        <time>2026-05-09T13:25:03.424Z</time>
      </trkpt>
      <trkpt lat="47.94896" lon="6.92249">
        <ele>1124</ele>
        <time>2026-05-09T13:25:04.425Z</time>
      </trkpt>
      <trkpt lat="47.94896" lon="6.92251">
        <ele>1124</ele>
        <time>2026-05-09T13:25:05.424Z</time>
      </trkpt>
      <trkpt lat="47.94896" lon="6.92252">
        <ele>1123</ele>
        <time>2026-05-09T13:25:06.424Z</time>
      </trkpt>
      <trkpt lat="47.94896" lon="6.92254">
        <ele>1123</ele>
        <time>2026-05-09T13:25:07.424Z</time>
      </trkpt>
      <trkpt lat="47.94896" lon="6.92256">
        <ele>1122</ele>
        <time>2026-05-09T13:25:08.425Z</time>
      </trkpt>
      <trkpt lat="47.94895" lon="6.92258">
        <ele>1122</ele>
        <time>2026-05-09T13:25:09.425Z</time>
      </trkpt>
      <trkpt lat="47.94894" lon="6.9226">
        <ele>1122</ele>
        <time>2026-05-09T13:25:10.425Z</time>
      </trkpt>
      <trkpt lat="47.94893" lon="6.92262">
        <ele>1122</ele>
        <time>2026-05-09T13:25:11.424Z</time>
      </trkpt>
      <trkpt lat="47.94892" lon="6.92265">
        <ele>1121</ele>
        <time>2026-05-09T13:25:12.424Z</time>
      </trkpt>
      <trkpt lat="47.94892" lon="6.92267">
        <ele>1121</ele>
        <time>2026-05-09T13:25:13.424Z</time>
      </trkpt>
      <trkpt lat="47.94892" lon="6.92269">
        <ele>1121</ele>
        <time>2026-05-09T13:25:14.424Z</time>
      </trkpt>
      <trkpt lat="47.94892" lon="6.92271">
        <ele>1120</ele>
        <time>2026-05-09T13:25:15.425Z</time>
      </trkpt>
      <trkpt lat="47.94892" lon="6.92274">
        <ele>1120</ele>
        <time>2026-05-09T13:25:16.425Z</time>
      </trkpt>
      <trkpt lat="47.94893" lon="6.92277">
        <ele>1120</ele>
        <time>2026-05-09T13:25:17.424Z</time>
      </trkpt>
      <trkpt lat="47.94892" lon="6.9228">
        <ele>1120</ele>
        <time>2026-05-09T13:25:18.424Z</time>
      </trkpt>
      <trkpt lat="47.94892" lon="6.92283">
        <ele>1120</ele>
        <time>2026-05-09T13:25:19.425Z</time>
      </trkpt>
      <trkpt lat="47.94893" lon="6.92286">
        <ele>1120</ele>
        <time>2026-05-09T13:25:20.425Z</time>
      </trkpt>
      <trkpt lat="47.94892" lon="6.92289">
        <ele>1120</ele>
        <time>2026-05-09T13:25:21.424Z</time>
      </trkpt>
      <trkpt lat="47.94892" lon="6.92292">
        <ele>1121</ele>
        <time>2026-05-09T13:25:22.425Z</time>
      </trkpt>
      <trkpt lat="47.94892" lon="6.92294">
        <ele>1121</ele>
        <time>2026-05-09T13:25:23.425Z</time>
      </trkpt>
      <trkpt lat="47.94892" lon="6.92297">
        <ele>1121</ele>
        <time>2026-05-09T13:25:24.424Z</time>
      </trkpt>
      <trkpt lat="47.94892" lon="6.92299">
        <ele>1121</ele>
        <time>2026-05-09T13:25:25.425Z</time>
      </trkpt>
      <trkpt lat="47.94892" lon="6.92302">
        <ele>1120</ele>
        <time>2026-05-09T13:25:26.425Z</time>
      </trkpt>
      <trkpt lat="47.94891" lon="6.92305">
        <ele>1120</ele>
        <time>2026-05-09T13:25:27.425Z</time>
      </trkpt>
      <trkpt lat="47.9489" lon="6.92307">
        <ele>1120</ele>
        <time>2026-05-09T13:25:28.425Z</time>
      </trkpt>
      <trkpt lat="47.9489" lon="6.9231">
        <ele>1119</ele>
        <time>2026-05-09T13:25:29.424Z</time>
      </trkpt>
      <trkpt lat="47.94889" lon="6.92312">
        <ele>1119</ele>
        <time>2026-05-09T13:25:30.425Z</time>
      </trkpt>
      <trkpt lat="47.94889" lon="6.92315">
        <ele>1119</ele>
        <time>2026-05-09T13:25:31.425Z</time>
      </trkpt>
      <trkpt lat="47.94889" lon="6.92317">
        <ele>1119</ele>
        <time>2026-05-09T13:25:32.424Z</time>
      </trkpt>
      <trkpt lat="47.94889" lon="6.92319">
        <ele>1119</ele>
        <time>2026-05-09T13:25:33.424Z</time>
      </trkpt>
      <trkpt lat="47.94889" lon="6.92322">
        <ele>1119</ele>
        <time>2026-05-09T13:25:34.424Z</time>
      </trkpt>
      <trkpt lat="47.94889" lon="6.92324">
        <ele>1119</ele>
        <time>2026-05-09T13:25:35.424Z</time>
      </trkpt>
      <trkpt lat="47.94889" lon="6.92326">
        <ele>1119</ele>
        <time>2026-05-09T13:25:36.424Z</time>
      </trkpt>
      <trkpt lat="47.9489" lon="6.92328">
        <ele>1120</ele>
        <time>2026-05-09T13:25:37.424Z</time>
      </trkpt>
      <trkpt lat="47.94892" lon="6.92329">
        <ele>1120</ele>
        <time>2026-05-09T13:25:38.424Z</time>
      </trkpt>
      <trkpt lat="47.94893" lon="6.92328">
        <ele>1120</ele>
        <time>2026-05-09T13:25:39.425Z</time>
      </trkpt>
      <trkpt lat="47.94894" lon="6.92326">
        <ele>1120</ele>
        <time>2026-05-09T13:25:40.425Z</time>
      </trkpt>
      <trkpt lat="47.94894" lon="6.92324">
        <ele>1120</ele>
        <time>2026-05-09T13:25:41.425Z</time>
      </trkpt>
      <trkpt lat="47.94895" lon="6.92323">
        <ele>1119</ele>
        <time>2026-05-09T13:25:42.425Z</time>
      </trkpt>
      <trkpt lat="47.94896" lon="6.92322">
        <ele>1118</ele>
        <time>2026-05-09T13:25:43.425Z</time>
      </trkpt>
      <trkpt lat="47.94897" lon="6.92321">
        <ele>1118</ele>
        <time>2026-05-09T13:25:44.425Z</time>
      </trkpt>
      <trkpt lat="47.94897" lon="6.9232">
        <ele>1117</ele>
        <time>2026-05-09T13:25:45.425Z</time>
      </trkpt>
      <trkpt lat="47.94898" lon="6.92319">
        <ele>1116</ele>
        <time>2026-05-09T13:25:46.425Z</time>
      </trkpt>
      <trkpt lat="47.94899" lon="6.92318">
        <ele>1115</ele>
        <time>2026-05-09T13:25:47.424Z</time>
      </trkpt>
      <trkpt lat="47.949" lon="6.92316">
        <ele>1114</ele>
        <time>2026-05-09T13:25:48.424Z</time>
      </trkpt>
      <trkpt lat="47.949" lon="6.92315">
        <ele>1114</ele>
        <time>2026-05-09T13:25:49.424Z</time>
      </trkpt>
      <trkpt lat="47.94902" lon="6.92313">
        <ele>1113</ele>
        <time>2026-05-09T13:25:50.424Z</time>
      </trkpt>
      <trkpt lat="47.94903" lon="6.92311">
        <ele>1112</ele>
        <time>2026-05-09T13:25:51.424Z</time>
      </trkpt>
      <trkpt lat="47.94904" lon="6.9231">
        <ele>1111</ele>
        <time>2026-05-09T13:25:52.424Z</time>
      </trkpt>
      <trkpt lat="47.94905" lon="6.92309">
        <ele>1110</ele>
        <time>2026-05-09T13:25:53.424Z</time>
      </trkpt>
      <trkpt lat="47.94906" lon="6.92308">
        <ele>1110</ele>
        <time>2026-05-09T13:25:54.424Z</time>
      </trkpt>
      <trkpt lat="47.94907" lon="6.92306">
        <ele>1109</ele>
        <time>2026-05-09T13:25:55.424Z</time>
      </trkpt>
      <trkpt lat="47.94909" lon="6.92303">
        <ele>1109</ele>
        <time>2026-05-09T13:25:56.424Z</time>
      </trkpt>
      <trkpt lat="47.9491" lon="6.92301">
        <ele>1108</ele>
        <time>2026-05-09T13:25:57.424Z</time>
      </trkpt>
      <trkpt lat="47.94911" lon="6.92299">
        <ele>1108</ele>
        <time>2026-05-09T13:25:58.424Z</time>
      </trkpt>
      <trkpt lat="47.94912" lon="6.92297">
        <ele>1108</ele>
        <time>2026-05-09T13:25:59.425Z</time>
      </trkpt>
      <trkpt lat="47.94913" lon="6.92296">
        <ele>1108</ele>
        <time>2026-05-09T13:26:00.425Z</time>
      </trkpt>
      <trkpt lat="47.94914" lon="6.92293">
        <ele>1108</ele>
        <time>2026-05-09T13:26:01.425Z</time>
      </trkpt>
      <trkpt lat="47.94914" lon="6.92291">
        <ele>1108</ele>
        <time>2026-05-09T13:26:02.425Z</time>
      </trkpt>
      <trkpt lat="47.94915" lon="6.9229">
        <ele>1108</ele>
        <time>2026-05-09T13:26:03.425Z</time>
      </trkpt>
      <trkpt lat="47.94915" lon="6.92288">
        <ele>1107</ele>
        <time>2026-05-09T13:26:04.425Z</time>
      </trkpt>
      <trkpt lat="47.94916" lon="6.92286">
        <ele>1107</ele>
        <time>2026-05-09T13:26:05.424Z</time>
      </trkpt>
      <trkpt lat="47.94917" lon="6.92284">
        <ele>1106</ele>
        <time>2026-05-09T13:26:06.424Z</time>
      </trkpt>
      <trkpt lat="47.94918" lon="6.92282">
        <ele>1106</ele>
        <time>2026-05-09T13:26:07.424Z</time>
      </trkpt>
      <trkpt lat="47.94919" lon="6.9228">
        <ele>1106</ele>
        <time>2026-05-09T13:26:08.424Z</time>
      </trkpt>
      <trkpt lat="47.9492" lon="6.92278">
        <ele>1106</ele>
        <time>2026-05-09T13:26:09.424Z</time>
      </trkpt>
      <trkpt lat="47.94921" lon="6.92276">
        <ele>1106</ele>
        <time>2026-05-09T13:26:10.424Z</time>
      </trkpt>
      <trkpt lat="47.94921" lon="6.92274">
        <ele>1105</ele>
        <time>2026-05-09T13:26:11.424Z</time>
      </trkpt>
      <trkpt lat="47.94921" lon="6.92273">
        <ele>1105</ele>
        <time>2026-05-09T13:26:12.425Z</time>
      </trkpt>
      <trkpt lat="47.94922" lon="6.92269">
        <ele>1105</ele>
        <time>2026-05-09T13:26:13.424Z</time>
      </trkpt>
      <trkpt lat="47.94923" lon="6.92265">
        <ele>1105</ele>
        <time>2026-05-09T13:26:14.425Z</time>
      </trkpt>
      <trkpt lat="47.94925" lon="6.92264">
        <ele>1105</ele>
        <time>2026-05-09T13:26:15.425Z</time>
      </trkpt>
      <trkpt lat="47.94926" lon="6.92261">
        <ele>1105</ele>
        <time>2026-05-09T13:26:16.425Z</time>
      </trkpt>
      <trkpt lat="47.94927" lon="6.92259">
        <ele>1105</ele>
        <time>2026-05-09T13:26:17.425Z</time>
      </trkpt>
      <trkpt lat="47.94927" lon="6.92257">
        <ele>1105</ele>
        <time>2026-05-09T13:26:18.425Z</time>
      </trkpt>
      <trkpt lat="47.94927" lon="6.92254">
        <ele>1105</ele>
        <time>2026-05-09T13:26:19.425Z</time>
      </trkpt>
      <trkpt lat="47.94928" lon="6.92253">
        <ele>1105</ele>
        <time>2026-05-09T13:26:20.424Z</time>
      </trkpt>
      <trkpt lat="47.94928" lon="6.92251">
        <ele>1105</ele>
        <time>2026-05-09T13:26:21.425Z</time>
      </trkpt>
      <trkpt lat="47.94929" lon="6.92249">
        <ele>1104</ele>
        <time>2026-05-09T13:26:22.425Z</time>
      </trkpt>
      <trkpt lat="47.9493" lon="6.92247">
        <ele>1104</ele>
        <time>2026-05-09T13:26:23.424Z</time>
      </trkpt>
      <trkpt lat="47.94931" lon="6.92246">
        <ele>1104</ele>
        <time>2026-05-09T13:26:24.425Z</time>
      </trkpt>
      <trkpt lat="47.94932" lon="6.92245">
        <ele>1103</ele>
        <time>2026-05-09T13:26:25.425Z</time>
      </trkpt>
      <trkpt lat="47.94933" lon="6.92244">
        <ele>1103</ele>
        <time>2026-05-09T13:26:26.425Z</time>
      </trkpt>
      <trkpt lat="47.94935" lon="6.92243">
        <ele>1103</ele>
        <time>2026-05-09T13:26:27.425Z</time>
      </trkpt>
      <trkpt lat="47.94936" lon="6.92243">
        <ele>1103</ele>
        <time>2026-05-09T13:26:28.424Z</time>
      </trkpt>
      <trkpt lat="47.94937" lon="6.92242">
        <ele>1103</ele>
        <time>2026-05-09T13:26:29.425Z</time>
      </trkpt>
      <trkpt lat="47.94938" lon="6.92243">
        <ele>1103</ele>
        <time>2026-05-09T13:26:30.424Z</time>
      </trkpt>
      <trkpt lat="47.94941" lon="6.92243">
        <ele>1102</ele>
        <time>2026-05-09T13:26:31.424Z</time>
      </trkpt>
      <trkpt lat="47.94943" lon="6.92244">
        <ele>1102</ele>
        <time>2026-05-09T13:26:32.424Z</time>
      </trkpt>
      <trkpt lat="47.94944" lon="6.92245">
        <ele>1102</ele>
        <time>2026-05-09T13:26:33.424Z</time>
      </trkpt>
      <trkpt lat="47.94945" lon="6.92245">
        <ele>1102</ele>
        <time>2026-05-09T13:26:34.424Z</time>
      </trkpt>
      <trkpt lat="47.94946" lon="6.92245">
        <ele>1102</ele>
        <time>2026-05-09T13:26:35.424Z</time>
      </trkpt>
      <trkpt lat="47.94947" lon="6.92245">
        <ele>1103</ele>
        <time>2026-05-09T13:26:36.424Z</time>
      </trkpt>
      <trkpt lat="47.94948" lon="6.92245">
        <ele>1102</ele>
        <time>2026-05-09T13:26:37.424Z</time>
      </trkpt>
      <trkpt lat="47.94949" lon="6.92245">
        <ele>1102</ele>
        <time>2026-05-09T13:26:38.425Z</time>
      </trkpt>
      <trkpt lat="47.94951" lon="6.92245">
        <ele>1102</ele>
        <time>2026-05-09T13:26:39.425Z</time>
      </trkpt>
      <trkpt lat="47.94952" lon="6.92246">
        <ele>1102</ele>
        <time>2026-05-09T13:26:40.425Z</time>
      </trkpt>
      <trkpt lat="47.94954" lon="6.92246">
        <ele>1101</ele>
        <time>2026-05-09T13:26:41.425Z</time>
      </trkpt>
      <trkpt lat="47.94955" lon="6.92247">
        <ele>1101</ele>
        <time>2026-05-09T13:26:42.425Z</time>
      </trkpt>
      <trkpt lat="47.94956" lon="6.92248">
        <ele>1100</ele>
        <time>2026-05-09T13:26:43.425Z</time>
      </trkpt>
      <trkpt lat="47.94957" lon="6.92249">
        <ele>1100</ele>
        <time>2026-05-09T13:26:44.425Z</time>
      </trkpt>
      <trkpt lat="47.94959" lon="6.9225">
        <ele>1100</ele>
        <time>2026-05-09T13:26:45.424Z</time>
      </trkpt>
      <trkpt lat="47.9496" lon="6.92252">
        <ele>1099</ele>
        <time>2026-05-09T13:26:46.425Z</time>
      </trkpt>
      <trkpt lat="47.94961" lon="6.92254">
        <ele>1099</ele>
        <time>2026-05-09T13:26:47.425Z</time>
      </trkpt>
      <trkpt lat="47.94962" lon="6.92255">
        <ele>1099</ele>
        <time>2026-05-09T13:26:48.425Z</time>
      </trkpt>
      <trkpt lat="47.94962" lon="6.92256">
        <ele>1098</ele>
        <time>2026-05-09T13:26:49.424Z</time>
      </trkpt>
      <trkpt lat="47.94963" lon="6.92256">
        <ele>1098</ele>
        <time>2026-05-09T13:26:50.425Z</time>
      </trkpt>
      <trkpt lat="47.94964" lon="6.92257">
        <ele>1098</ele>
        <time>2026-05-09T13:26:51.425Z</time>
      </trkpt>
      <trkpt lat="47.94965" lon="6.92259">
        <ele>1098</ele>
        <time>2026-05-09T13:26:52.424Z</time>
      </trkpt>
      <trkpt lat="47.94966" lon="6.92261">
        <ele>1098</ele>
        <time>2026-05-09T13:26:53.425Z</time>
      </trkpt>
      <trkpt lat="47.94967" lon="6.92263">
        <ele>1098</ele>
        <time>2026-05-09T13:26:54.424Z</time>
      </trkpt>
      <trkpt lat="47.94968" lon="6.92264">
        <ele>1098</ele>
        <time>2026-05-09T13:26:55.425Z</time>
      </trkpt>
      <trkpt lat="47.94968" lon="6.92266">
        <ele>1098</ele>
        <time>2026-05-09T13:26:56.425Z</time>
      </trkpt>
      <trkpt lat="47.94968" lon="6.92267">
        <ele>1098</ele>
        <time>2026-05-09T13:26:57.425Z</time>
      </trkpt>
      <trkpt lat="47.94968" lon="6.92269">
        <ele>1098</ele>
        <time>2026-05-09T13:26:58.425Z</time>
      </trkpt>
      <trkpt lat="47.94968" lon="6.9227">
        <ele>1098</ele>
        <time>2026-05-09T13:26:59.425Z</time>
      </trkpt>
      <trkpt lat="47.94968" lon="6.92272">
        <ele>1098</ele>
        <time>2026-05-09T13:27:00.425Z</time>
      </trkpt>
      <trkpt lat="47.94969" lon="6.92273">
        <ele>1098</ele>
        <time>2026-05-09T13:27:01.425Z</time>
      </trkpt>
      <trkpt lat="47.94969" lon="6.92274">
        <ele>1098</ele>
        <time>2026-05-09T13:27:02.425Z</time>
      </trkpt>
      <trkpt lat="47.94969" lon="6.92276">
        <ele>1098</ele>
        <time>2026-05-09T13:27:03.425Z</time>
      </trkpt>
      <trkpt lat="47.94969" lon="6.92279">
        <ele>1098</ele>
        <time>2026-05-09T13:27:04.425Z</time>
      </trkpt>
      <trkpt lat="47.94969" lon="6.92281">
        <ele>1098</ele>
        <time>2026-05-09T13:27:05.424Z</time>
      </trkpt>
      <trkpt lat="47.94968" lon="6.92283">
        <ele>1099</ele>
        <time>2026-05-09T13:27:06.424Z</time>
      </trkpt>
      <trkpt lat="47.94967" lon="6.92285">
        <ele>1099</ele>
        <time>2026-05-09T13:27:07.424Z</time>
      </trkpt>
      <trkpt lat="47.94966" lon="6.92288">
        <ele>1099</ele>
        <time>2026-05-09T13:27:08.424Z</time>
      </trkpt>
      <trkpt lat="47.94966" lon="6.92291">
        <ele>1100</ele>
        <time>2026-05-09T13:27:09.424Z</time>
      </trkpt>
      <trkpt lat="47.94965" lon="6.92296">
        <ele>1100</ele>
        <time>2026-05-09T13:27:10.424Z</time>
      </trkpt>
      <trkpt lat="47.94964" lon="6.92301">
        <ele>1101</ele>
        <time>2026-05-09T13:27:11.424Z</time>
      </trkpt>
      <trkpt lat="47.94963" lon="6.92304">
        <ele>1101</ele>
        <time>2026-05-09T13:27:12.424Z</time>
      </trkpt>
      <trkpt lat="47.94963" lon="6.92306">
        <ele>1102</ele>
        <time>2026-05-09T13:27:13.425Z</time>
      </trkpt>
      <trkpt lat="47.94962" lon="6.92308">
        <ele>1102</ele>
        <time>2026-05-09T13:27:14.424Z</time>
      </trkpt>
      <trkpt lat="47.94962" lon="6.9231">
        <ele>1102</ele>
        <time>2026-05-09T13:27:15.425Z</time>
      </trkpt>
      <trkpt lat="47.94962" lon="6.92312">
        <ele>1103</ele>
        <time>2026-05-09T13:27:16.424Z</time>
      </trkpt>
      <trkpt lat="47.94961" lon="6.92315">
        <ele>1103</ele>
        <time>2026-05-09T13:27:17.424Z</time>
      </trkpt>
      <trkpt lat="47.94961" lon="6.92318">
        <ele>1103</ele>
        <time>2026-05-09T13:27:18.424Z</time>
      </trkpt>
      <trkpt lat="47.9496" lon="6.92322">
        <ele>1103</ele>
        <time>2026-05-09T13:27:19.425Z</time>
      </trkpt>
      <trkpt lat="47.94958" lon="6.92324">
        <ele>1104</ele>
        <time>2026-05-09T13:27:20.425Z</time>
      </trkpt>
      <trkpt lat="47.94958" lon="6.92326">
        <ele>1104</ele>
        <time>2026-05-09T13:27:21.425Z</time>
      </trkpt>
      <trkpt lat="47.94958" lon="6.92327">
        <ele>1105</ele>
        <time>2026-05-09T13:27:22.425Z</time>
      </trkpt>
      <trkpt lat="47.94958" lon="6.92327">
        <ele>1105</ele>
        <time>2026-05-09T13:27:23.424Z</time>
      </trkpt>
      <trkpt lat="47.94958" lon="6.92327">
        <ele>1106</ele>
        <time>2026-05-09T13:27:24.424Z</time>
      </trkpt>
      <trkpt lat="47.94958" lon="6.92328">
        <ele>1106</ele>
        <time>2026-05-09T13:27:25.424Z</time>
      </trkpt>
      <trkpt lat="47.94958" lon="6.92329">
        <ele>1106</ele>
        <time>2026-05-09T13:27:26.425Z</time>
      </trkpt>
      <trkpt lat="47.94958" lon="6.92331">
        <ele>1106</ele>
        <time>2026-05-09T13:27:27.425Z</time>
      </trkpt>
      <trkpt lat="47.94958" lon="6.92332">
        <ele>1106</ele>
        <time>2026-05-09T13:27:28.424Z</time>
      </trkpt>
      <trkpt lat="47.94959" lon="6.92333">
        <ele>1106</ele>
        <time>2026-05-09T13:27:29.425Z</time>
      </trkpt>
      <trkpt lat="47.94959" lon="6.92334">
        <ele>1105</ele>
        <time>2026-05-09T13:27:30.424Z</time>
      </trkpt>
      <trkpt lat="47.94959" lon="6.92336">
        <ele>1105</ele>
        <time>2026-05-09T13:27:31.424Z</time>
      </trkpt>
      <trkpt lat="47.94959" lon="6.92337">
        <ele>1106</ele>
        <time>2026-05-09T13:27:32.424Z</time>
      </trkpt>
      <trkpt lat="47.94958" lon="6.92338">
        <ele>1106</ele>
        <time>2026-05-09T13:27:33.424Z</time>
      </trkpt>
      <trkpt lat="47.94959" lon="6.92339">
        <ele>1106</ele>
        <time>2026-05-09T13:27:34.425Z</time>
      </trkpt>
      <trkpt lat="47.94959" lon="6.92339">
        <ele>1106</ele>
        <time>2026-05-09T13:27:35.425Z</time>
      </trkpt>
      <trkpt lat="47.94959" lon="6.92341">
        <ele>1106</ele>
        <time>2026-05-09T13:27:36.425Z</time>
      </trkpt>
      <trkpt lat="47.94958" lon="6.92344">
        <ele>1107</ele>
        <time>2026-05-09T13:27:37.424Z</time>
      </trkpt>
      <trkpt lat="47.94958" lon="6.92347">
        <ele>1107</ele>
        <time>2026-05-09T13:27:38.424Z</time>
      </trkpt>
      <trkpt lat="47.94958" lon="6.9235">
        <ele>1107</ele>
        <time>2026-05-09T13:27:39.424Z</time>
      </trkpt>
      <trkpt lat="47.94957" lon="6.92352">
        <ele>1108</ele>
        <time>2026-05-09T13:27:40.425Z</time>
      </trkpt>
      <trkpt lat="47.94957" lon="6.92354">
        <ele>1108</ele>
        <time>2026-05-09T13:27:41.425Z</time>
      </trkpt>
      <trkpt lat="47.94958" lon="6.92355">
        <ele>1108</ele>
        <time>2026-05-09T13:27:42.425Z</time>
      </trkpt>
      <trkpt lat="47.94959" lon="6.92358">
        <ele>1109</ele>
        <time>2026-05-09T13:27:43.424Z</time>
      </trkpt>
      <trkpt lat="47.94959" lon="6.9236">
        <ele>1109</ele>
        <time>2026-05-09T13:27:44.425Z</time>
      </trkpt>
      <trkpt lat="47.9496" lon="6.92363">
        <ele>1109</ele>
        <time>2026-05-09T13:27:45.424Z</time>
      </trkpt>
      <trkpt lat="47.9496" lon="6.92365">
        <ele>1110</ele>
        <time>2026-05-09T13:27:46.424Z</time>
      </trkpt>
      <trkpt lat="47.94959" lon="6.92367">
        <ele>1110</ele>
        <time>2026-05-09T13:27:47.424Z</time>
      </trkpt>
      <trkpt lat="47.9496" lon="6.92368">
        <ele>1110</ele>
        <time>2026-05-09T13:27:48.424Z</time>
      </trkpt>
      <trkpt lat="47.94959" lon="6.9237">
        <ele>1111</ele>
        <time>2026-05-09T13:27:49.425Z</time>
      </trkpt>
      <trkpt lat="47.94959" lon="6.92371">
        <ele>1111</ele>
        <time>2026-05-09T13:27:50.425Z</time>
      </trkpt>
      <trkpt lat="47.94957" lon="6.92373">
        <ele>1111</ele>
        <time>2026-05-09T13:27:51.425Z</time>
      </trkpt>
      <trkpt lat="47.94957" lon="6.92374">
        <ele>1111</ele>
        <time>2026-05-09T13:27:52.425Z</time>
      </trkpt>
      <trkpt lat="47.94957" lon="6.92376">
        <ele>1112</ele>
        <time>2026-05-09T13:27:53.425Z</time>
      </trkpt>
      <trkpt lat="47.94956" lon="6.92377">
        <ele>1112</ele>
        <time>2026-05-09T13:27:54.424Z</time>
      </trkpt>
      <trkpt lat="47.94956" lon="6.92379">
        <ele>1113</ele>
        <time>2026-05-09T13:27:55.425Z</time>
      </trkpt>
      <trkpt lat="47.94957" lon="6.9238">
        <ele>1113</ele>
        <time>2026-05-09T13:27:56.425Z</time>
      </trkpt>
      <trkpt lat="47.94958" lon="6.92382">
        <ele>1113</ele>
        <time>2026-05-09T13:27:57.425Z</time>
      </trkpt>
      <trkpt lat="47.94959" lon="6.92383">
        <ele>1113</ele>
        <time>2026-05-09T13:27:58.425Z</time>
      </trkpt>
      <trkpt lat="47.94959" lon="6.92384">
        <ele>1113</ele>
        <time>2026-05-09T13:27:59.425Z</time>
      </trkpt>
      <trkpt lat="47.94959" lon="6.92385">
        <ele>1113</ele>
        <time>2026-05-09T13:28:00.425Z</time>
      </trkpt>
      <trkpt lat="47.94959" lon="6.92386">
        <ele>1113</ele>
        <time>2026-05-09T13:28:01.424Z</time>
      </trkpt>
      <trkpt lat="47.94959" lon="6.92389">
        <ele>1113</ele>
        <time>2026-05-09T13:28:02.425Z</time>
      </trkpt>
      <trkpt lat="47.94959" lon="6.9239">
        <ele>1113</ele>
        <time>2026-05-09T13:28:03.424Z</time>
      </trkpt>
      <trkpt lat="47.94959" lon="6.92392">
        <ele>1114</ele>
        <time>2026-05-09T13:28:04.424Z</time>
      </trkpt>
      <trkpt lat="47.94958" lon="6.92392">
        <ele>1114</ele>
        <time>2026-05-09T13:28:05.425Z</time>
      </trkpt>
      <trkpt lat="47.94958" lon="6.92392">
        <ele>1114</ele>
        <time>2026-05-09T13:28:06.425Z</time>
      </trkpt>
      <trkpt lat="47.94958" lon="6.92391">
        <ele>1113</ele>
        <time>2026-05-09T13:28:07.425Z</time>
      </trkpt>
      <trkpt lat="47.94958" lon="6.92389">
        <ele>1113</ele>
        <time>2026-05-09T13:28:08.424Z</time>
      </trkpt>
      <trkpt lat="47.94958" lon="6.92389">
        <ele>1113</ele>
        <time>2026-05-09T13:28:09.424Z</time>
      </trkpt>
      <trkpt lat="47.94959" lon="6.92388">
        <ele>1113</ele>
        <time>2026-05-09T13:28:10.425Z</time>
      </trkpt>
      <trkpt lat="47.94959" lon="6.92387">
        <ele>1113</ele>
        <time>2026-05-09T13:28:11.425Z</time>
      </trkpt>
      <trkpt lat="47.94959" lon="6.92386">
        <ele>1113</ele>
        <time>2026-05-09T13:28:12.425Z</time>
      </trkpt>
      <trkpt lat="47.9496" lon="6.92384">
        <ele>1113</ele>
        <time>2026-05-09T13:28:13.425Z</time>
      </trkpt>
      <trkpt lat="47.9496" lon="6.92383">
        <ele>1113</ele>
        <time>2026-05-09T13:28:14.425Z</time>
      </trkpt>
      <trkpt lat="47.9496" lon="6.92382">
        <ele>1113</ele>
        <time>2026-05-09T13:28:15.425Z</time>
      </trkpt>
      <trkpt lat="47.9496" lon="6.9238">
        <ele>1113</ele>
        <time>2026-05-09T13:28:16.425Z</time>
      </trkpt>
      <trkpt lat="47.9496" lon="6.92379">
        <ele>1114</ele>
        <time>2026-05-09T13:28:17.425Z</time>
      </trkpt>
      <trkpt lat="47.94961" lon="6.92377">
        <ele>1114</ele>
        <time>2026-05-09T13:28:18.425Z</time>
      </trkpt>
      <trkpt lat="47.94962" lon="6.92376">
        <ele>1114</ele>
        <time>2026-05-09T13:28:19.424Z</time>
      </trkpt>
      <trkpt lat="47.94963" lon="6.92374">
        <ele>1114</ele>
        <time>2026-05-09T13:28:20.424Z</time>
      </trkpt>
      <trkpt lat="47.94963" lon="6.9237">
        <ele>1114</ele>
        <time>2026-05-09T13:28:21.424Z</time>
      </trkpt>
      <trkpt lat="47.94964" lon="6.92369">
        <ele>1115</ele>
        <time>2026-05-09T13:28:22.424Z</time>
      </trkpt>
      <trkpt lat="47.94966" lon="6.92367">
        <ele>1115</ele>
        <time>2026-05-09T13:28:23.424Z</time>
      </trkpt>
      <trkpt lat="47.94967" lon="6.92366">
        <ele>1115</ele>
        <time>2026-05-09T13:28:24.424Z</time>
      </trkpt>
      <trkpt lat="47.94968" lon="6.92364">
        <ele>1115</ele>
        <time>2026-05-09T13:28:25.424Z</time>
      </trkpt>
      <trkpt lat="47.94969" lon="6.92362">
        <ele>1116</ele>
        <time>2026-05-09T13:28:26.424Z</time>
      </trkpt>
      <trkpt lat="47.94969" lon="6.9236">
        <ele>1116</ele>
        <time>2026-05-09T13:28:27.424Z</time>
      </trkpt>
      <trkpt lat="47.9497" lon="6.9236">
        <ele>1116</ele>
        <time>2026-05-09T13:28:28.424Z</time>
      </trkpt>
      <trkpt lat="47.94971" lon="6.92359">
        <ele>1116</ele>
        <time>2026-05-09T13:28:29.424Z</time>
      </trkpt>
      <trkpt lat="47.94971" lon="6.92357">
        <ele>1117</ele>
        <time>2026-05-09T13:28:30.424Z</time>
      </trkpt>
      <trkpt lat="47.94973" lon="6.92356">
        <ele>1117</ele>
        <time>2026-05-09T13:28:31.425Z</time>
      </trkpt>
      <trkpt lat="47.94974" lon="6.92353">
        <ele>1117</ele>
        <time>2026-05-09T13:28:32.425Z</time>
      </trkpt>
      <trkpt lat="47.94974" lon="6.92351">
        <ele>1117</ele>
        <time>2026-05-09T13:28:33.425Z</time>
      </trkpt>
      <trkpt lat="47.94974" lon="6.92349">
        <ele>1117</ele>
        <time>2026-05-09T13:28:34.425Z</time>
      </trkpt>
      <trkpt lat="47.94975" lon="6.92347">
        <ele>1117</ele>
        <time>2026-05-09T13:28:35.425Z</time>
      </trkpt>
      <trkpt lat="47.94976" lon="6.92345">
        <ele>1117</ele>
        <time>2026-05-09T13:28:36.424Z</time>
      </trkpt>
      <trkpt lat="47.94978" lon="6.92343">
        <ele>1117</ele>
        <time>2026-05-09T13:28:37.425Z</time>
      </trkpt>
      <trkpt lat="47.9498" lon="6.9234">
        <ele>1117</ele>
        <time>2026-05-09T13:28:38.425Z</time>
      </trkpt>
      <trkpt lat="47.94984" lon="6.92334">
        <ele>1118</ele>
        <time>2026-05-09T13:28:39.424Z</time>
      </trkpt>
      <trkpt lat="47.94984" lon="6.92332">
        <ele>1118</ele>
        <time>2026-05-09T13:28:40.424Z</time>
      </trkpt>
      <trkpt lat="47.94985" lon="6.92331">
        <ele>1118</ele>
        <time>2026-05-09T13:28:41.424Z</time>
      </trkpt>
      <trkpt lat="47.94985" lon="6.92329">
        <ele>1118</ele>
        <time>2026-05-09T13:28:42.425Z</time>
      </trkpt>
      <trkpt lat="47.94986" lon="6.92328">
        <ele>1118</ele>
        <time>2026-05-09T13:28:43.425Z</time>
      </trkpt>
      <trkpt lat="47.94987" lon="6.92327">
        <ele>1118</ele>
        <time>2026-05-09T13:28:44.425Z</time>
      </trkpt>
      <trkpt lat="47.94988" lon="6.92326">
        <ele>1119</ele>
        <time>2026-05-09T13:28:45.424Z</time>
      </trkpt>
      <trkpt lat="47.94987" lon="6.92326">
        <ele>1118</ele>
        <time>2026-05-09T13:28:46.424Z</time>
      </trkpt>
      <trkpt lat="47.94988" lon="6.92325">
        <ele>1118</ele>
        <time>2026-05-09T13:28:47.424Z</time>
      </trkpt>
      <trkpt lat="47.94989" lon="6.92326">
        <ele>1118</ele>
        <time>2026-05-09T13:28:48.424Z</time>
      </trkpt>
      <trkpt lat="47.9499" lon="6.92325">
        <ele>1118</ele>
        <time>2026-05-09T13:28:49.424Z</time>
      </trkpt>
      <trkpt lat="47.94992" lon="6.92326">
        <ele>1118</ele>
        <time>2026-05-09T13:28:50.425Z</time>
      </trkpt>
      <trkpt lat="47.94992" lon="6.92326">
        <ele>1118</ele>
        <time>2026-05-09T13:28:51.425Z</time>
      </trkpt>
      <trkpt lat="47.94993" lon="6.92326">
        <ele>1117</ele>
        <time>2026-05-09T13:28:52.425Z</time>
      </trkpt>
      <trkpt lat="47.94994" lon="6.92326">
        <ele>1117</ele>
        <time>2026-05-09T13:28:53.425Z</time>
      </trkpt>
      <trkpt lat="47.94995" lon="6.92326">
        <ele>1117</ele>
        <time>2026-05-09T13:28:54.424Z</time>
      </trkpt>
      <trkpt lat="47.94996" lon="6.92326">
        <ele>1117</ele>
        <time>2026-05-09T13:28:55.424Z</time>
      </trkpt>
      <trkpt lat="47.94997" lon="6.92325">
        <ele>1117</ele>
        <time>2026-05-09T13:28:56.425Z</time>
      </trkpt>
      <trkpt lat="47.94998" lon="6.92325">
        <ele>1118</ele>
        <time>2026-05-09T13:28:57.424Z</time>
      </trkpt>
      <trkpt lat="47.94999" lon="6.92324">
        <ele>1118</ele>
        <time>2026-05-09T13:28:58.424Z</time>
      </trkpt>
      <trkpt lat="47.95" lon="6.92323">
        <ele>1118</ele>
        <time>2026-05-09T13:28:59.425Z</time>
      </trkpt>
      <trkpt lat="47.95001" lon="6.92322">
        <ele>1118</ele>
        <time>2026-05-09T13:29:00.425Z</time>
      </trkpt>
      <trkpt lat="47.95002" lon="6.92322">
        <ele>1119</ele>
        <time>2026-05-09T13:29:01.425Z</time>
      </trkpt>
      <trkpt lat="47.95003" lon="6.92322">
        <ele>1119</ele>
        <time>2026-05-09T13:29:02.424Z</time>
      </trkpt>
      <trkpt lat="47.95004" lon="6.92322">
        <ele>1119</ele>
        <time>2026-05-09T13:29:03.425Z</time>
      </trkpt>
      <trkpt lat="47.95004" lon="6.92324">
        <ele>1119</ele>
        <time>2026-05-09T13:29:04.424Z</time>
      </trkpt>
      <trkpt lat="47.95003" lon="6.92327">
        <ele>1119</ele>
        <time>2026-05-09T13:29:05.424Z</time>
      </trkpt>
      <trkpt lat="47.95003" lon="6.92328">
        <ele>1119</ele>
        <time>2026-05-09T13:29:06.424Z</time>
      </trkpt>
      <trkpt lat="47.95003" lon="6.9233">
        <ele>1119</ele>
        <time>2026-05-09T13:29:07.424Z</time>
      </trkpt>
      <trkpt lat="47.95002" lon="6.92332">
        <ele>1120</ele>
        <time>2026-05-09T13:29:08.424Z</time>
      </trkpt>
      <trkpt lat="47.95001" lon="6.92334">
        <ele>1120</ele>
        <time>2026-05-09T13:29:09.424Z</time>
      </trkpt>
      <trkpt lat="47.95001" lon="6.92335">
        <ele>1120</ele>
        <time>2026-05-09T13:29:10.425Z</time>
      </trkpt>
      <trkpt lat="47.95001" lon="6.92336">
        <ele>1121</ele>
        <time>2026-05-09T13:29:11.425Z</time>
      </trkpt>
      <trkpt lat="47.95001" lon="6.92338">
        <ele>1121</ele>
        <time>2026-05-09T13:29:12.424Z</time>
      </trkpt>
      <trkpt lat="47.95001" lon="6.92339">
        <ele>1121</ele>
        <time>2026-05-09T13:29:13.425Z</time>
      </trkpt>
      <trkpt lat="47.95001" lon="6.92341">
        <ele>1121</ele>
        <time>2026-05-09T13:29:14.425Z</time>
      </trkpt>
      <trkpt lat="47.95001" lon="6.92343">
        <ele>1121</ele>
        <time>2026-05-09T13:29:15.425Z</time>
      </trkpt>
      <trkpt lat="47.95001" lon="6.92345">
        <ele>1122</ele>
        <time>2026-05-09T13:29:16.425Z</time>
      </trkpt>
      <trkpt lat="47.95001" lon="6.92345">
        <ele>1122</ele>
        <time>2026-05-09T13:29:17.425Z</time>
      </trkpt>
      <trkpt lat="47.95001" lon="6.92347">
        <ele>1122</ele>
        <time>2026-05-09T13:29:18.425Z</time>
      </trkpt>
      <trkpt lat="47.94999" lon="6.92349">
        <ele>1122</ele>
        <time>2026-05-09T13:29:19.424Z</time>
      </trkpt>
      <trkpt lat="47.94999" lon="6.92352">
        <ele>1123</ele>
        <time>2026-05-09T13:29:20.424Z</time>
      </trkpt>
      <trkpt lat="47.94998" lon="6.92354">
        <ele>1123</ele>
        <time>2026-05-09T13:29:21.424Z</time>
      </trkpt>
      <trkpt lat="47.94998" lon="6.92355">
        <ele>1123</ele>
        <time>2026-05-09T13:29:22.424Z</time>
      </trkpt>
      <trkpt lat="47.94998" lon="6.92357">
        <ele>1124</ele>
        <time>2026-05-09T13:29:23.424Z</time>
      </trkpt>
      <trkpt lat="47.94998" lon="6.92359">
        <ele>1124</ele>
        <time>2026-05-09T13:29:24.424Z</time>
      </trkpt>
      <trkpt lat="47.94996" lon="6.92361">
        <ele>1124</ele>
        <time>2026-05-09T13:29:25.425Z</time>
      </trkpt>
      <trkpt lat="47.94995" lon="6.92364">
        <ele>1124</ele>
        <time>2026-05-09T13:29:26.425Z</time>
      </trkpt>
      <trkpt lat="47.94994" lon="6.92366">
        <ele>1124</ele>
        <time>2026-05-09T13:29:27.425Z</time>
      </trkpt>
      <trkpt lat="47.94994" lon="6.92368">
        <ele>1125</ele>
        <time>2026-05-09T13:29:28.424Z</time>
      </trkpt>
      <trkpt lat="47.94994" lon="6.92369">
        <ele>1125</ele>
        <time>2026-05-09T13:29:29.424Z</time>
      </trkpt>
      <trkpt lat="47.94993" lon="6.9237">
        <ele>1125</ele>
        <time>2026-05-09T13:29:30.425Z</time>
      </trkpt>
      <trkpt lat="47.94993" lon="6.92371">
        <ele>1126</ele>
        <time>2026-05-09T13:29:31.425Z</time>
      </trkpt>
      <trkpt lat="47.94992" lon="6.92373">
        <ele>1126</ele>
        <time>2026-05-09T13:29:32.425Z</time>
      </trkpt>
      <trkpt lat="47.94992" lon="6.92375">
        <ele>1126</ele>
        <time>2026-05-09T13:29:33.425Z</time>
      </trkpt>
      <trkpt lat="47.94992" lon="6.92377">
        <ele>1126</ele>
        <time>2026-05-09T13:29:34.425Z</time>
      </trkpt>
      <trkpt lat="47.94992" lon="6.92381">
        <ele>1126</ele>
        <time>2026-05-09T13:29:35.425Z</time>
      </trkpt>
      <trkpt lat="47.94992" lon="6.92385">
        <ele>1126</ele>
        <time>2026-05-09T13:29:36.424Z</time>
      </trkpt>
      <trkpt lat="47.94992" lon="6.9239">
        <ele>1127</ele>
        <time>2026-05-09T13:29:37.424Z</time>
      </trkpt>
      <trkpt lat="47.94992" lon="6.92395">
        <ele>1127</ele>
        <time>2026-05-09T13:29:38.424Z</time>
      </trkpt>
      <trkpt lat="47.94991" lon="6.92396">
        <ele>1127</ele>
        <time>2026-05-09T13:29:39.424Z</time>
      </trkpt>
      <trkpt lat="47.94991" lon="6.92398">
        <ele>1127</ele>
        <time>2026-05-09T13:29:40.424Z</time>
      </trkpt>
      <trkpt lat="47.94992" lon="6.92401">
        <ele>1127</ele>
        <time>2026-05-09T13:29:41.424Z</time>
      </trkpt>
      <trkpt lat="47.94993" lon="6.92406">
        <ele>1127</ele>
        <time>2026-05-09T13:29:42.425Z</time>
      </trkpt>
      <trkpt lat="47.94993" lon="6.92408">
        <ele>1127</ele>
        <time>2026-05-09T13:29:43.425Z</time>
      </trkpt>
      <trkpt lat="47.94992" lon="6.92412">
        <ele>1127</ele>
        <time>2026-05-09T13:29:44.425Z</time>
      </trkpt>
      <trkpt lat="47.94992" lon="6.92414">
        <ele>1127</ele>
        <time>2026-05-09T13:29:45.425Z</time>
      </trkpt>
      <trkpt lat="47.94989" lon="6.92415">
        <ele>1127</ele>
        <time>2026-05-09T13:29:46.424Z</time>
      </trkpt>
      <trkpt lat="47.94987" lon="6.92413">
        <ele>1128</ele>
        <time>2026-05-09T13:29:47.425Z</time>
      </trkpt>
      <trkpt lat="47.94988" lon="6.92413">
        <ele>1128</ele>
        <time>2026-05-09T13:29:48.425Z</time>
      </trkpt>
      <trkpt lat="47.94988" lon="6.92413">
        <ele>1128</ele>
        <time>2026-05-09T13:29:49.425Z</time>
      </trkpt>
      <trkpt lat="47.94987" lon="6.92414">
        <ele>1128</ele>
        <time>2026-05-09T13:29:50.425Z</time>
      </trkpt>
      <trkpt lat="47.94986" lon="6.92416">
        <ele>1129</ele>
        <time>2026-05-09T13:29:51.424Z</time>
      </trkpt>
      <trkpt lat="47.94986" lon="6.92417">
        <ele>1129</ele>
        <time>2026-05-09T13:29:52.424Z</time>
      </trkpt>
      <trkpt lat="47.94985" lon="6.92419">
        <ele>1130</ele>
        <time>2026-05-09T13:29:53.425Z</time>
      </trkpt>
      <trkpt lat="47.94985" lon="6.9242">
        <ele>1131</ele>
        <time>2026-05-09T13:29:54.424Z</time>
      </trkpt>
      <trkpt lat="47.94984" lon="6.92421">
        <ele>1131</ele>
        <time>2026-05-09T13:29:55.424Z</time>
      </trkpt>
      <trkpt lat="47.94983" lon="6.92423">
        <ele>1131</ele>
        <time>2026-05-09T13:29:56.424Z</time>
      </trkpt>
      <trkpt lat="47.94983" lon="6.92424">
        <ele>1132</ele>
        <time>2026-05-09T13:29:57.424Z</time>
      </trkpt>
      <trkpt lat="47.94982" lon="6.92425">
        <ele>1132</ele>
        <time>2026-05-09T13:29:58.425Z</time>
      </trkpt>
      <trkpt lat="47.94983" lon="6.92426">
        <ele>1132</ele>
        <time>2026-05-09T13:29:59.425Z</time>
      </trkpt>
      <trkpt lat="47.94982" lon="6.92427">
        <ele>1132</ele>
        <time>2026-05-09T13:30:00.425Z</time>
      </trkpt>
      <trkpt lat="47.94982" lon="6.92429">
        <ele>1132</ele>
        <time>2026-05-09T13:30:01.425Z</time>
      </trkpt>
      <trkpt lat="47.94982" lon="6.9243">
        <ele>1132</ele>
        <time>2026-05-09T13:30:02.425Z</time>
      </trkpt>
      <trkpt lat="47.94982" lon="6.92432">
        <ele>1132</ele>
        <time>2026-05-09T13:30:03.424Z</time>
      </trkpt>
      <trkpt lat="47.94982" lon="6.92433">
        <ele>1132</ele>
        <time>2026-05-09T13:30:04.425Z</time>
      </trkpt>
      <trkpt lat="47.94981" lon="6.92435">
        <ele>1131</ele>
        <time>2026-05-09T13:30:05.424Z</time>
      </trkpt>
      <trkpt lat="47.94981" lon="6.92436">
        <ele>1131</ele>
        <time>2026-05-09T13:30:06.425Z</time>
      </trkpt>
      <trkpt lat="47.94981" lon="6.92436">
        <ele>1131</ele>
        <time>2026-05-09T13:30:07.424Z</time>
      </trkpt>
      <trkpt lat="47.94981" lon="6.92437">
        <ele>1130</ele>
        <time>2026-05-09T13:30:08.425Z</time>
      </trkpt>
      <trkpt lat="47.94981" lon="6.92438">
        <ele>1130</ele>
        <time>2026-05-09T13:30:09.424Z</time>
      </trkpt>
      <trkpt lat="47.94981" lon="6.9244">
        <ele>1130</ele>
        <time>2026-05-09T13:30:10.424Z</time>
      </trkpt>
      <trkpt lat="47.94981" lon="6.92441">
        <ele>1130</ele>
        <time>2026-05-09T13:30:11.424Z</time>
      </trkpt>
      <trkpt lat="47.94982" lon="6.92443">
        <ele>1130</ele>
        <time>2026-05-09T13:30:12.424Z</time>
      </trkpt>
      <trkpt lat="47.94983" lon="6.92444">
        <ele>1129</ele>
        <time>2026-05-09T13:30:13.425Z</time>
      </trkpt>
      <trkpt lat="47.94983" lon="6.92446">
        <ele>1129</ele>
        <time>2026-05-09T13:30:14.424Z</time>
      </trkpt>
      <trkpt lat="47.94984" lon="6.92447">
        <ele>1129</ele>
        <time>2026-05-09T13:30:15.424Z</time>
      </trkpt>
      <trkpt lat="47.94984" lon="6.92449">
        <ele>1129</ele>
        <time>2026-05-09T13:30:16.424Z</time>
      </trkpt>
      <trkpt lat="47.94985" lon="6.9245">
        <ele>1129</ele>
        <time>2026-05-09T13:30:17.424Z</time>
      </trkpt>
      <trkpt lat="47.94986" lon="6.92452">
        <ele>1129</ele>
        <time>2026-05-09T13:30:18.424Z</time>
      </trkpt>
      <trkpt lat="47.94986" lon="6.92453">
        <ele>1129</ele>
        <time>2026-05-09T13:30:19.425Z</time>
      </trkpt>
      <trkpt lat="47.94986" lon="6.92455">
        <ele>1129</ele>
        <time>2026-05-09T13:30:20.425Z</time>
      </trkpt>
      <trkpt lat="47.94987" lon="6.92456">
        <ele>1130</ele>
        <time>2026-05-09T13:30:21.425Z</time>
      </trkpt>
      <trkpt lat="47.94987" lon="6.92457">
        <ele>1130</ele>
        <time>2026-05-09T13:30:22.424Z</time>
      </trkpt>
      <trkpt lat="47.94988" lon="6.92459">
        <ele>1130</ele>
        <time>2026-05-09T13:30:23.425Z</time>
      </trkpt>
      <trkpt lat="47.94988" lon="6.9246">
        <ele>1131</ele>
        <time>2026-05-09T13:30:24.424Z</time>
      </trkpt>
      <trkpt lat="47.94988" lon="6.92462">
        <ele>1132</ele>
        <time>2026-05-09T13:30:25.425Z</time>
      </trkpt>
      <trkpt lat="47.94989" lon="6.92463">
        <ele>1132</ele>
        <time>2026-05-09T13:30:26.425Z</time>
      </trkpt>
      <trkpt lat="47.94989" lon="6.92464">
        <ele>1133</ele>
        <time>2026-05-09T13:30:27.425Z</time>
      </trkpt>
      <trkpt lat="47.9499" lon="6.92465">
        <ele>1133</ele>
        <time>2026-05-09T13:30:28.424Z</time>
      </trkpt>
      <trkpt lat="47.94991" lon="6.92466">
        <ele>1133</ele>
        <time>2026-05-09T13:30:29.425Z</time>
      </trkpt>
      <trkpt lat="47.94992" lon="6.92468">
        <ele>1134</ele>
        <time>2026-05-09T13:30:30.424Z</time>
      </trkpt>
      <trkpt lat="47.94992" lon="6.9247">
        <ele>1134</ele>
        <time>2026-05-09T13:30:31.425Z</time>
      </trkpt>
      <trkpt lat="47.94992" lon="6.92471">
        <ele>1134</ele>
        <time>2026-05-09T13:30:32.424Z</time>
      </trkpt>
      <trkpt lat="47.94993" lon="6.92471">
        <ele>1134</ele>
        <time>2026-05-09T13:30:33.425Z</time>
      </trkpt>
      <trkpt lat="47.94993" lon="6.92472">
        <ele>1134</ele>
        <time>2026-05-09T13:30:34.424Z</time>
      </trkpt>
      <trkpt lat="47.94993" lon="6.92473">
        <ele>1134</ele>
        <time>2026-05-09T13:30:35.424Z</time>
      </trkpt>
      <trkpt lat="47.94993" lon="6.92475">
        <ele>1135</ele>
        <time>2026-05-09T13:30:36.425Z</time>
      </trkpt>
      <trkpt lat="47.94994" lon="6.92476">
        <ele>1135</ele>
        <time>2026-05-09T13:30:37.424Z</time>
      </trkpt>
      <trkpt lat="47.94994" lon="6.92478">
        <ele>1135</ele>
        <time>2026-05-09T13:30:38.425Z</time>
      </trkpt>
      <trkpt lat="47.94994" lon="6.92479">
        <ele>1136</ele>
        <time>2026-05-09T13:30:39.424Z</time>
      </trkpt>
      <trkpt lat="47.94994" lon="6.9248">
        <ele>1136</ele>
        <time>2026-05-09T13:30:40.425Z</time>
      </trkpt>
      <trkpt lat="47.94993" lon="6.92481">
        <ele>1136</ele>
        <time>2026-05-09T13:30:41.424Z</time>
      </trkpt>
      <trkpt lat="47.94993" lon="6.92482">
        <ele>1136</ele>
        <time>2026-05-09T13:30:42.425Z</time>
      </trkpt>
      <trkpt lat="47.94993" lon="6.92484">
        <ele>1136</ele>
        <time>2026-05-09T13:30:43.424Z</time>
      </trkpt>
      <trkpt lat="47.94993" lon="6.92485">
        <ele>1136</ele>
        <time>2026-05-09T13:30:44.425Z</time>
      </trkpt>
      <trkpt lat="47.94993" lon="6.92486">
        <ele>1137</ele>
        <time>2026-05-09T13:30:45.424Z</time>
      </trkpt>
      <trkpt lat="47.94993" lon="6.92487">
        <ele>1137</ele>
        <time>2026-05-09T13:30:46.425Z</time>
      </trkpt>
      <trkpt lat="47.94993" lon="6.92489">
        <ele>1138</ele>
        <time>2026-05-09T13:30:47.425Z</time>
      </trkpt>
      <trkpt lat="47.94994" lon="6.9249">
        <ele>1138</ele>
        <time>2026-05-09T13:30:48.425Z</time>
      </trkpt>
      <trkpt lat="47.94994" lon="6.92491">
        <ele>1138</ele>
        <time>2026-05-09T13:30:49.424Z</time>
      </trkpt>
      <trkpt lat="47.94994" lon="6.92493">
        <ele>1138</ele>
        <time>2026-05-09T13:30:50.425Z</time>
      </trkpt>
      <trkpt lat="47.94994" lon="6.92494">
        <ele>1138</ele>
        <time>2026-05-09T13:30:51.424Z</time>
      </trkpt>
      <trkpt lat="47.94994" lon="6.92496">
        <ele>1138</ele>
        <time>2026-05-09T13:30:52.425Z</time>
      </trkpt>
      <trkpt lat="47.94994" lon="6.92497">
        <ele>1138</ele>
        <time>2026-05-09T13:30:53.425Z</time>
      </trkpt>
      <trkpt lat="47.94993" lon="6.92499">
        <ele>1138</ele>
        <time>2026-05-09T13:30:54.424Z</time>
      </trkpt>
      <trkpt lat="47.94993" lon="6.925">
        <ele>1137</ele>
        <time>2026-05-09T13:30:55.425Z</time>
      </trkpt>
      <trkpt lat="47.94993" lon="6.92502">
        <ele>1137</ele>
        <time>2026-05-09T13:30:56.424Z</time>
      </trkpt>
      <trkpt lat="47.94993" lon="6.92504">
        <ele>1136</ele>
        <time>2026-05-09T13:30:57.425Z</time>
      </trkpt>
      <trkpt lat="47.94993" lon="6.92506">
        <ele>1136</ele>
        <time>2026-05-09T13:30:58.424Z</time>
      </trkpt>
      <trkpt lat="47.94993" lon="6.92508">
        <ele>1136</ele>
        <time>2026-05-09T13:30:59.425Z</time>
      </trkpt>
      <trkpt lat="47.94993" lon="6.92511">
        <ele>1136</ele>
        <time>2026-05-09T13:31:00.424Z</time>
      </trkpt>
      <trkpt lat="47.94993" lon="6.92512">
        <ele>1136</ele>
        <time>2026-05-09T13:31:01.425Z</time>
      </trkpt>
      <trkpt lat="47.94993" lon="6.92514">
        <ele>1136</ele>
        <time>2026-05-09T13:31:02.424Z</time>
      </trkpt>
      <trkpt lat="47.94994" lon="6.92516">
        <ele>1136</ele>
        <time>2026-05-09T13:31:03.425Z</time>
      </trkpt>
      <trkpt lat="47.94994" lon="6.92519">
        <ele>1136</ele>
        <time>2026-05-09T13:31:04.424Z</time>
      </trkpt>
      <trkpt lat="47.94994" lon="6.92521">
        <ele>1136</ele>
        <time>2026-05-09T13:31:05.425Z</time>
      </trkpt>
      <trkpt lat="47.94995" lon="6.92524">
        <ele>1136</ele>
        <time>2026-05-09T13:31:06.424Z</time>
      </trkpt>
      <trkpt lat="47.94996" lon="6.92526">
        <ele>1136</ele>
        <time>2026-05-09T13:31:07.425Z</time>
      </trkpt>
      <trkpt lat="47.94997" lon="6.9253">
        <ele>1135</ele>
        <time>2026-05-09T13:31:08.424Z</time>
      </trkpt>
      <trkpt lat="47.94997" lon="6.92532">
        <ele>1135</ele>
        <time>2026-05-09T13:31:09.424Z</time>
      </trkpt>
      <trkpt lat="47.94998" lon="6.92534">
        <ele>1135</ele>
        <time>2026-05-09T13:31:10.424Z</time>
      </trkpt>
      <trkpt lat="47.94998" lon="6.92535">
        <ele>1135</ele>
        <time>2026-05-09T13:31:11.424Z</time>
      </trkpt>
      <trkpt lat="47.94999" lon="6.92536">
        <ele>1135</ele>
        <time>2026-05-09T13:31:12.425Z</time>
      </trkpt>
      <trkpt lat="47.94999" lon="6.92538">
        <ele>1135</ele>
        <time>2026-05-09T13:31:13.425Z</time>
      </trkpt>
      <trkpt lat="47.95" lon="6.92539">
        <ele>1135</ele>
        <time>2026-05-09T13:31:14.425Z</time>
      </trkpt>
      <trkpt lat="47.95" lon="6.92541">
        <ele>1135</ele>
        <time>2026-05-09T13:31:15.424Z</time>
      </trkpt>
      <trkpt lat="47.95001" lon="6.92541">
        <ele>1135</ele>
        <time>2026-05-09T13:31:16.425Z</time>
      </trkpt>
      <trkpt lat="47.95002" lon="6.92542">
        <ele>1135</ele>
        <time>2026-05-09T13:31:17.425Z</time>
      </trkpt>
      <trkpt lat="47.95002" lon="6.92544">
        <ele>1135</ele>
        <time>2026-05-09T13:31:18.425Z</time>
      </trkpt>
      <trkpt lat="47.95003" lon="6.92545">
        <ele>1135</ele>
        <time>2026-05-09T13:31:19.424Z</time>
      </trkpt>
      <trkpt lat="47.95004" lon="6.92548">
        <ele>1135</ele>
        <time>2026-05-09T13:31:20.425Z</time>
      </trkpt>
      <trkpt lat="47.95005" lon="6.92549">
        <ele>1136</ele>
        <time>2026-05-09T13:31:21.424Z</time>
      </trkpt>
      <trkpt lat="47.95006" lon="6.92551">
        <ele>1136</ele>
        <time>2026-05-09T13:31:22.425Z</time>
      </trkpt>
      <trkpt lat="47.95008" lon="6.92554">
        <ele>1137</ele>
        <time>2026-05-09T13:31:23.424Z</time>
      </trkpt>
      <trkpt lat="47.95009" lon="6.92554">
        <ele>1137</ele>
        <time>2026-05-09T13:31:24.425Z</time>
      </trkpt>
      <trkpt lat="47.9501" lon="6.92553">
        <ele>1137</ele>
        <time>2026-05-09T13:31:25.424Z</time>
      </trkpt>
      <trkpt lat="47.95012" lon="6.92553">
        <ele>1137</ele>
        <time>2026-05-09T13:31:26.425Z</time>
      </trkpt>
      <trkpt lat="47.95014" lon="6.92553">
        <ele>1137</ele>
        <time>2026-05-09T13:31:27.424Z</time>
      </trkpt>
      <trkpt lat="47.95015" lon="6.92554">
        <ele>1138</ele>
        <time>2026-05-09T13:31:28.425Z</time>
      </trkpt>
      <trkpt lat="47.95016" lon="6.92553">
        <ele>1138</ele>
        <time>2026-05-09T13:31:29.424Z</time>
      </trkpt>
      <trkpt lat="47.9502" lon="6.92554">
        <ele>1138</ele>
        <time>2026-05-09T13:31:30.425Z</time>
      </trkpt>
      <trkpt lat="47.95022" lon="6.92557">
        <ele>1139</ele>
        <time>2026-05-09T13:31:31.424Z</time>
      </trkpt>
      <trkpt lat="47.95024" lon="6.92558">
        <ele>1139</ele>
        <time>2026-05-09T13:31:32.424Z</time>
      </trkpt>
      <trkpt lat="47.95025" lon="6.92559">
        <ele>1139</ele>
        <time>2026-05-09T13:31:33.425Z</time>
      </trkpt>
      <trkpt lat="47.95027" lon="6.9256">
        <ele>1140</ele>
        <time>2026-05-09T13:31:34.424Z</time>
      </trkpt>
      <trkpt lat="47.95028" lon="6.92561">
        <ele>1140</ele>
        <time>2026-05-09T13:31:35.425Z</time>
      </trkpt>
      <trkpt lat="47.9503" lon="6.92562">
        <ele>1140</ele>
        <time>2026-05-09T13:31:36.424Z</time>
      </trkpt>
      <trkpt lat="47.95031" lon="6.92563">
        <ele>1140</ele>
        <time>2026-05-09T13:31:37.425Z</time>
      </trkpt>
      <trkpt lat="47.95033" lon="6.92564">
        <ele>1140</ele>
        <time>2026-05-09T13:31:38.424Z</time>
      </trkpt>
      <trkpt lat="47.95033" lon="6.92567">
        <ele>1140</ele>
        <time>2026-05-09T13:31:39.425Z</time>
      </trkpt>
      <trkpt lat="47.95033" lon="6.92568">
        <ele>1140</ele>
        <time>2026-05-09T13:31:40.424Z</time>
      </trkpt>
      <trkpt lat="47.95033" lon="6.92568">
        <ele>1139</ele>
        <time>2026-05-09T13:31:41.425Z</time>
      </trkpt>
      <trkpt lat="47.95033" lon="6.92569">
        <ele>1139</ele>
        <time>2026-05-09T13:31:42.424Z</time>
      </trkpt>
      <trkpt lat="47.95032" lon="6.92569">
        <ele>1139</ele>
        <time>2026-05-09T13:31:43.424Z</time>
      </trkpt>
      <trkpt lat="47.9503" lon="6.92568">
        <ele>1140</ele>
        <time>2026-05-09T13:31:44.424Z</time>
      </trkpt>
      <trkpt lat="47.9503" lon="6.92568">
        <ele>1140</ele>
        <time>2026-05-09T13:31:45.425Z</time>
      </trkpt>
      <trkpt lat="47.95031" lon="6.92567">
        <ele>1140</ele>
        <time>2026-05-09T13:31:46.424Z</time>
      </trkpt>
      <trkpt lat="47.95031" lon="6.92567">
        <ele>1140</ele>
        <time>2026-05-09T13:31:47.425Z</time>
      </trkpt>
      <trkpt lat="47.95029" lon="6.92568">
        <ele>1139</ele>
        <time>2026-05-09T13:31:48.424Z</time>
      </trkpt>
      <trkpt lat="47.95029" lon="6.92568">
        <ele>1138</ele>
        <time>2026-05-09T13:31:49.425Z</time>
      </trkpt>
      <trkpt lat="47.95029" lon="6.92568">
        <ele>1137</ele>
        <time>2026-05-09T13:31:50.424Z</time>
      </trkpt>
      <trkpt lat="47.95029" lon="6.9257">
        <ele>1135</ele>
        <time>2026-05-09T13:31:58.635Z</time>
      </trkpt>
      <trkpt lat="47.95029" lon="6.92569">
        <ele>1134</ele>
        <time>2026-05-09T13:31:59.635Z</time>
      </trkpt>
      <trkpt lat="47.95029" lon="6.92569">
        <ele>1134</ele>
        <time>2026-05-09T13:32:00.635Z</time>
      </trkpt>
      <trkpt lat="47.95029" lon="6.9257">
        <ele>1133</ele>
        <time>2026-05-09T13:32:01.635Z</time>
      </trkpt>
      <trkpt lat="47.95029" lon="6.9257">
        <ele>1132</ele>
        <time>2026-05-09T13:32:02.635Z</time>
      </trkpt>
      <trkpt lat="47.95029" lon="6.9257">
        <ele>1132</ele>
        <time>2026-05-09T13:32:03.635Z</time>
      </trkpt>
      <trkpt lat="47.95029" lon="6.9257">
        <ele>1131</ele>
        <time>2026-05-09T13:32:04.635Z</time>
      </trkpt>
      <trkpt lat="47.95029" lon="6.9257">
        <ele>1131</ele>
        <time>2026-05-09T13:32:05.635Z</time>
      </trkpt>
      <trkpt lat="47.95029" lon="6.9257">
        <ele>1131</ele>
        <time>2026-05-09T13:32:06.635Z</time>
      </trkpt>
      <trkpt lat="47.95029" lon="6.9257">
        <ele>1131</ele>
        <time>2026-05-09T13:32:07.636Z</time>
      </trkpt>
      <trkpt lat="47.95029" lon="6.9257">
        <ele>1131</ele>
        <time>2026-05-09T13:32:08.635Z</time>
      </trkpt>
      <trkpt lat="47.95029" lon="6.9257">
        <ele>1132</ele>
        <time>2026-05-09T13:32:09.636Z</time>
      </trkpt>
      <trkpt lat="47.95029" lon="6.9257">
        <ele>1132</ele>
        <time>2026-05-09T13:32:10.635Z</time>
      </trkpt>
      <trkpt lat="47.95029" lon="6.92571">
        <ele>1133</ele>
        <time>2026-05-09T13:32:11.635Z</time>
      </trkpt>
      <trkpt lat="47.95028" lon="6.92571">
        <ele>1134</ele>
        <time>2026-05-09T13:32:12.635Z</time>
      </trkpt>
      <trkpt lat="47.95028" lon="6.92571">
        <ele>1134</ele>
        <time>2026-05-09T13:32:13.635Z</time>
      </trkpt>
      <trkpt lat="47.95028" lon="6.92571">
        <ele>1135</ele>
        <time>2026-05-09T13:32:14.635Z</time>
      </trkpt>
      <trkpt lat="47.95028" lon="6.92571">
        <ele>1135</ele>
        <time>2026-05-09T13:32:15.635Z</time>
      </trkpt>
      <trkpt lat="47.95028" lon="6.92571">
        <ele>1136</ele>
        <time>2026-05-09T13:32:16.635Z</time>
      </trkpt>
      <trkpt lat="47.95028" lon="6.92571">
        <ele>1136</ele>
        <time>2026-05-09T13:32:17.636Z</time>
      </trkpt>
      <trkpt lat="47.95028" lon="6.92572">
        <ele>1137</ele>
        <time>2026-05-09T13:32:18.635Z</time>
      </trkpt>
      <trkpt lat="47.95027" lon="6.92572">
        <ele>1137</ele>
        <time>2026-05-09T13:32:19.636Z</time>
      </trkpt>
      <trkpt lat="47.95027" lon="6.92572">
        <ele>1138</ele>
        <time>2026-05-09T13:32:20.636Z</time>
      </trkpt>
      <trkpt lat="47.95027" lon="6.92573">
        <ele>1139</ele>
        <time>2026-05-09T13:32:21.635Z</time>
      </trkpt>
      <trkpt lat="47.95027" lon="6.92573">
        <ele>1140</ele>
        <time>2026-05-09T13:32:22.635Z</time>
      </trkpt>
      <trkpt lat="47.95027" lon="6.92573">
        <ele>1141</ele>
        <time>2026-05-09T13:32:23.635Z</time>
      </trkpt>
      <trkpt lat="47.95026" lon="6.92574">
        <ele>1142</ele>
        <time>2026-05-09T13:32:24.635Z</time>
      </trkpt>
      <trkpt lat="47.95024" lon="6.92574">
        <ele>1142</ele>
        <time>2026-05-09T13:32:25.635Z</time>
      </trkpt>
      <trkpt lat="47.95024" lon="6.92574">
        <ele>1143</ele>
        <time>2026-05-09T13:32:26.636Z</time>
      </trkpt>
      <trkpt lat="47.95024" lon="6.92574">
        <ele>1143</ele>
        <time>2026-05-09T13:32:27.635Z</time>
      </trkpt>
      <trkpt lat="47.95023" lon="6.92574">
        <ele>1143</ele>
        <time>2026-05-09T13:32:28.635Z</time>
      </trkpt>
      <trkpt lat="47.95024" lon="6.92574">
        <ele>1144</ele>
        <time>2026-05-09T13:32:29.635Z</time>
      </trkpt>
      <trkpt lat="47.95021" lon="6.92576">
        <ele>1144</ele>
        <time>2026-05-09T13:32:36.817Z</time>
      </trkpt>
      <trkpt lat="47.95019" lon="6.92576">
        <ele>1134</ele>
        <time>2026-05-09T13:32:46.972Z</time>
      </trkpt>
      <trkpt lat="47.95019" lon="6.92576">
        <ele>1133</ele>
        <time>2026-05-09T13:32:47.973Z</time>
      </trkpt>
      <trkpt lat="47.95019" lon="6.92576">
        <ele>1133</ele>
        <time>2026-05-09T13:32:48.972Z</time>
      </trkpt>
      <trkpt lat="47.9502" lon="6.92576">
        <ele>1132</ele>
        <time>2026-05-09T13:32:49.972Z</time>
      </trkpt>
      <trkpt lat="47.9502" lon="6.92576">
        <ele>1132</ele>
        <time>2026-05-09T13:32:50.973Z</time>
      </trkpt>
      <trkpt lat="47.9502" lon="6.92576">
        <ele>1132</ele>
        <time>2026-05-09T13:32:51.972Z</time>
      </trkpt>
      <trkpt lat="47.9502" lon="6.92576">
        <ele>1132</ele>
        <time>2026-05-09T13:32:52.972Z</time>
      </trkpt>
      <trkpt lat="47.9502" lon="6.92576">
        <ele>1132</ele>
        <time>2026-05-09T13:32:53.973Z</time>
      </trkpt>
      <trkpt lat="47.9502" lon="6.92576">
        <ele>1132</ele>
        <time>2026-05-09T13:32:54.972Z</time>
      </trkpt>
      <trkpt lat="47.9502" lon="6.92576">
        <ele>1132</ele>
        <time>2026-05-09T13:32:55.973Z</time>
      </trkpt>
      <trkpt lat="47.9502" lon="6.92576">
        <ele>1132</ele>
        <time>2026-05-09T13:32:56.973Z</time>
      </trkpt>
      <trkpt lat="47.9502" lon="6.92576">
        <ele>1132</ele>
        <time>2026-05-09T13:32:57.973Z</time>
      </trkpt>
      <trkpt lat="47.9502" lon="6.92576">
        <ele>1132</ele>
        <time>2026-05-09T13:32:58.972Z</time>
      </trkpt>
      <trkpt lat="47.9502" lon="6.92577">
        <ele>1132</ele>
        <time>2026-05-09T13:32:59.973Z</time>
      </trkpt>
      <trkpt lat="47.9502" lon="6.92577">
        <ele>1132</ele>
        <time>2026-05-09T13:33:00.973Z</time>
      </trkpt>
      <trkpt lat="47.95019" lon="6.92577">
        <ele>1132</ele>
        <time>2026-05-09T13:33:01.972Z</time>
      </trkpt>
      <trkpt lat="47.95019" lon="6.92578">
        <ele>1132</ele>
        <time>2026-05-09T13:33:02.973Z</time>
      </trkpt>
      <trkpt lat="47.95019" lon="6.92578">
        <ele>1131</ele>
        <time>2026-05-09T13:33:03.973Z</time>
      </trkpt>
      <trkpt lat="47.95019" lon="6.92579">
        <ele>1131</ele>
        <time>2026-05-09T13:33:04.972Z</time>
      </trkpt>
      <trkpt lat="47.95019" lon="6.9258">
        <ele>1131</ele>
        <time>2026-05-09T13:33:05.973Z</time>
      </trkpt>
      <trkpt lat="47.95019" lon="6.92581">
        <ele>1132</ele>
        <time>2026-05-09T13:33:06.973Z</time>
      </trkpt>
      <trkpt lat="47.95019" lon="6.92583">
        <ele>1132</ele>
        <time>2026-05-09T13:33:07.972Z</time>
      </trkpt>
      <trkpt lat="47.95019" lon="6.92584">
        <ele>1132</ele>
        <time>2026-05-09T13:33:08.973Z</time>
      </trkpt>
      <trkpt lat="47.9502" lon="6.92585">
        <ele>1133</ele>
        <time>2026-05-09T13:33:09.972Z</time>
      </trkpt>
      <trkpt lat="47.9502" lon="6.92585">
        <ele>1133</ele>
        <time>2026-05-09T13:33:10.973Z</time>
      </trkpt>
      <trkpt lat="47.9502" lon="6.92587">
        <ele>1133</ele>
        <time>2026-05-09T13:33:11.972Z</time>
      </trkpt>
      <trkpt lat="47.9502" lon="6.92588">
        <ele>1134</ele>
        <time>2026-05-09T13:33:12.973Z</time>
      </trkpt>
      <trkpt lat="47.9502" lon="6.92588">
        <ele>1134</ele>
        <time>2026-05-09T13:33:13.972Z</time>
      </trkpt>
      <trkpt lat="47.95019" lon="6.92589">
        <ele>1135</ele>
        <time>2026-05-09T13:33:14.972Z</time>
      </trkpt>
      <trkpt lat="47.95019" lon="6.92591">
        <ele>1135</ele>
        <time>2026-05-09T13:33:15.973Z</time>
      </trkpt>
      <trkpt lat="47.95018" lon="6.92592">
        <ele>1135</ele>
        <time>2026-05-09T13:33:16.973Z</time>
      </trkpt>
      <trkpt lat="47.95018" lon="6.92594">
        <ele>1136</ele>
        <time>2026-05-09T13:33:17.972Z</time>
      </trkpt>
      <trkpt lat="47.95017" lon="6.92596">
        <ele>1136</ele>
        <time>2026-05-09T13:33:18.972Z</time>
      </trkpt>
      <trkpt lat="47.95017" lon="6.92597">
        <ele>1136</ele>
        <time>2026-05-09T13:33:19.972Z</time>
      </trkpt>
      <trkpt lat="47.95017" lon="6.92599">
        <ele>1136</ele>
        <time>2026-05-09T13:33:20.973Z</time>
      </trkpt>
      <trkpt lat="47.95016" lon="6.92601">
        <ele>1136</ele>
        <time>2026-05-09T13:33:21.973Z</time>
      </trkpt>
      <trkpt lat="47.95017" lon="6.92603">
        <ele>1136</ele>
        <time>2026-05-09T13:33:22.972Z</time>
      </trkpt>
      <trkpt lat="47.95018" lon="6.92606">
        <ele>1136</ele>
        <time>2026-05-09T13:33:23.973Z</time>
      </trkpt>
      <trkpt lat="47.95018" lon="6.92608">
        <ele>1137</ele>
        <time>2026-05-09T13:33:24.973Z</time>
      </trkpt>
      <trkpt lat="47.95018" lon="6.92609">
        <ele>1137</ele>
        <time>2026-05-09T13:33:25.973Z</time>
      </trkpt>
      <trkpt lat="47.95018" lon="6.92611">
        <ele>1137</ele>
        <time>2026-05-09T13:33:26.972Z</time>
      </trkpt>
      <trkpt lat="47.95018" lon="6.92612">
        <ele>1137</ele>
        <time>2026-05-09T13:33:27.973Z</time>
      </trkpt>
      <trkpt lat="47.95018" lon="6.92612">
        <ele>1137</ele>
        <time>2026-05-09T13:33:28.973Z</time>
      </trkpt>
      <trkpt lat="47.95018" lon="6.92613">
        <ele>1137</ele>
        <time>2026-05-09T13:33:29.973Z</time>
      </trkpt>
      <trkpt lat="47.95018" lon="6.92613">
        <ele>1137</ele>
        <time>2026-05-09T13:33:30.973Z</time>
      </trkpt>
      <trkpt lat="47.95018" lon="6.92614">
        <ele>1137</ele>
        <time>2026-05-09T13:33:31.972Z</time>
      </trkpt>
      <trkpt lat="47.95018" lon="6.92615">
        <ele>1136</ele>
        <time>2026-05-09T13:33:32.973Z</time>
      </trkpt>
      <trkpt lat="47.95018" lon="6.92617">
        <ele>1136</ele>
        <time>2026-05-09T13:33:33.972Z</time>
      </trkpt>
      <trkpt lat="47.95019" lon="6.92618">
        <ele>1135</ele>
        <time>2026-05-09T13:33:34.972Z</time>
      </trkpt>
      <trkpt lat="47.9502" lon="6.92619">
        <ele>1134</ele>
        <time>2026-05-09T13:33:35.972Z</time>
      </trkpt>
      <trkpt lat="47.95021" lon="6.9262">
        <ele>1134</ele>
        <time>2026-05-09T13:33:36.973Z</time>
      </trkpt>
      <trkpt lat="47.95021" lon="6.92621">
        <ele>1133</ele>
        <time>2026-05-09T13:33:37.973Z</time>
      </trkpt>
      <trkpt lat="47.95022" lon="6.92622">
        <ele>1132</ele>
        <time>2026-05-09T13:33:38.973Z</time>
      </trkpt>
      <trkpt lat="47.95022" lon="6.92623">
        <ele>1132</ele>
        <time>2026-05-09T13:33:39.973Z</time>
      </trkpt>
      <trkpt lat="47.95023" lon="6.92625">
        <ele>1131</ele>
        <time>2026-05-09T13:33:40.973Z</time>
      </trkpt>
      <trkpt lat="47.95023" lon="6.92627">
        <ele>1131</ele>
        <time>2026-05-09T13:33:41.973Z</time>
      </trkpt>
      <trkpt lat="47.95023" lon="6.92628">
        <ele>1131</ele>
        <time>2026-05-09T13:33:42.972Z</time>
      </trkpt>
      <trkpt lat="47.95024" lon="6.9263">
        <ele>1131</ele>
        <time>2026-05-09T13:33:43.972Z</time>
      </trkpt>
      <trkpt lat="47.95024" lon="6.92631">
        <ele>1131</ele>
        <time>2026-05-09T13:33:44.973Z</time>
      </trkpt>
      <trkpt lat="47.95025" lon="6.92633">
        <ele>1131</ele>
        <time>2026-05-09T13:33:45.973Z</time>
      </trkpt>
      <trkpt lat="47.95025" lon="6.92635">
        <ele>1131</ele>
        <time>2026-05-09T13:33:46.973Z</time>
      </trkpt>
      <trkpt lat="47.95024" lon="6.92637">
        <ele>1131</ele>
        <time>2026-05-09T13:33:47.973Z</time>
      </trkpt>
      <trkpt lat="47.95024" lon="6.92639">
        <ele>1132</ele>
        <time>2026-05-09T13:33:48.973Z</time>
      </trkpt>
      <trkpt lat="47.95024" lon="6.9264">
        <ele>1132</ele>
        <time>2026-05-09T13:33:49.972Z</time>
      </trkpt>
      <trkpt lat="47.95024" lon="6.92643">
        <ele>1132</ele>
        <time>2026-05-09T13:33:50.973Z</time>
      </trkpt>
      <trkpt lat="47.95024" lon="6.92646">
        <ele>1132</ele>
        <time>2026-05-09T13:33:51.973Z</time>
      </trkpt>
      <trkpt lat="47.95024" lon="6.92648">
        <ele>1132</ele>
        <time>2026-05-09T13:33:52.972Z</time>
      </trkpt>
      <trkpt lat="47.95025" lon="6.92649">
        <ele>1131</ele>
        <time>2026-05-09T13:33:53.973Z</time>
      </trkpt>
      <trkpt lat="47.95026" lon="6.92648">
        <ele>1131</ele>
        <time>2026-05-09T13:33:54.973Z</time>
      </trkpt>
      <trkpt lat="47.95027" lon="6.92657">
        <ele>1129</ele>
        <time>2026-05-09T13:34:01.278Z</time>
      </trkpt>
      <trkpt lat="47.95028" lon="6.92658">
        <ele>1128</ele>
        <time>2026-05-09T13:34:02.277Z</time>
      </trkpt>
      <trkpt lat="47.95028" lon="6.92659">
        <ele>1128</ele>
        <time>2026-05-09T13:34:03.278Z</time>
      </trkpt>
      <trkpt lat="47.95029" lon="6.9266">
        <ele>1128</ele>
        <time>2026-05-09T13:34:04.278Z</time>
      </trkpt>
      <trkpt lat="47.95029" lon="6.92662">
        <ele>1128</ele>
        <time>2026-05-09T13:34:05.278Z</time>
      </trkpt>
      <trkpt lat="47.9503" lon="6.92664">
        <ele>1128</ele>
        <time>2026-05-09T13:34:06.277Z</time>
      </trkpt>
      <trkpt lat="47.9503" lon="6.92665">
        <ele>1128</ele>
        <time>2026-05-09T13:34:07.277Z</time>
      </trkpt>
      <trkpt lat="47.9503" lon="6.92666">
        <ele>1128</ele>
        <time>2026-05-09T13:34:08.277Z</time>
      </trkpt>
      <trkpt lat="47.9503" lon="6.92667">
        <ele>1127</ele>
        <time>2026-05-09T13:34:09.278Z</time>
      </trkpt>
      <trkpt lat="47.9503" lon="6.92668">
        <ele>1127</ele>
        <time>2026-05-09T13:34:10.277Z</time>
      </trkpt>
      <trkpt lat="47.9503" lon="6.92669">
        <ele>1127</ele>
        <time>2026-05-09T13:34:11.277Z</time>
      </trkpt>
      <trkpt lat="47.9503" lon="6.92671">
        <ele>1127</ele>
        <time>2026-05-09T13:34:12.277Z</time>
      </trkpt>
      <trkpt lat="47.95029" lon="6.92672">
        <ele>1127</ele>
        <time>2026-05-09T13:34:13.278Z</time>
      </trkpt>
      <trkpt lat="47.95028" lon="6.92673">
        <ele>1127</ele>
        <time>2026-05-09T13:34:14.278Z</time>
      </trkpt>
      <trkpt lat="47.95028" lon="6.92676">
        <ele>1127</ele>
        <time>2026-05-09T13:34:15.278Z</time>
      </trkpt>
      <trkpt lat="47.95027" lon="6.92678">
        <ele>1127</ele>
        <time>2026-05-09T13:34:16.277Z</time>
      </trkpt>
      <trkpt lat="47.95026" lon="6.92681">
        <ele>1127</ele>
        <time>2026-05-09T13:34:17.277Z</time>
      </trkpt>
      <trkpt lat="47.95025" lon="6.92683">
        <ele>1127</ele>
        <time>2026-05-09T13:34:18.277Z</time>
      </trkpt>
      <trkpt lat="47.95025" lon="6.92686">
        <ele>1127</ele>
        <time>2026-05-09T13:34:19.278Z</time>
      </trkpt>
      <trkpt lat="47.95025" lon="6.92688">
        <ele>1127</ele>
        <time>2026-05-09T13:34:20.278Z</time>
      </trkpt>
      <trkpt lat="47.95026" lon="6.92689">
        <ele>1127</ele>
        <time>2026-05-09T13:34:21.277Z</time>
      </trkpt>
      <trkpt lat="47.95026" lon="6.92689">
        <ele>1127</ele>
        <time>2026-05-09T13:34:22.277Z</time>
      </trkpt>
      <trkpt lat="47.95025" lon="6.92687">
        <ele>1126</ele>
        <time>2026-05-09T13:34:23.277Z</time>
      </trkpt>
      <trkpt lat="47.95024" lon="6.92686">
        <ele>1126</ele>
        <time>2026-05-09T13:34:24.277Z</time>
      </trkpt>
      <trkpt lat="47.95025" lon="6.92686">
        <ele>1125</ele>
        <time>2026-05-09T13:34:25.277Z</time>
      </trkpt>
      <trkpt lat="47.95025" lon="6.92686">
        <ele>1124</ele>
        <time>2026-05-09T13:34:26.277Z</time>
      </trkpt>
      <trkpt lat="47.95026" lon="6.92687">
        <ele>1123</ele>
        <time>2026-05-09T13:34:27.277Z</time>
      </trkpt>
      <trkpt lat="47.95026" lon="6.92688">
        <ele>1122</ele>
        <time>2026-05-09T13:34:28.277Z</time>
      </trkpt>
      <trkpt lat="47.95025" lon="6.92691">
        <ele>1121</ele>
        <time>2026-05-09T13:34:29.278Z</time>
      </trkpt>
      <trkpt lat="47.95025" lon="6.92692">
        <ele>1121</ele>
        <time>2026-05-09T13:34:30.278Z</time>
      </trkpt>
      <trkpt lat="47.95024" lon="6.92694">
        <ele>1120</ele>
        <time>2026-05-09T13:34:31.278Z</time>
      </trkpt>
      <trkpt lat="47.95023" lon="6.92694">
        <ele>1119</ele>
        <time>2026-05-09T13:34:32.278Z</time>
      </trkpt>
      <trkpt lat="47.95022" lon="6.92695">
        <ele>1119</ele>
        <time>2026-05-09T13:34:33.277Z</time>
      </trkpt>
      <trkpt lat="47.95021" lon="6.92697">
        <ele>1118</ele>
        <time>2026-05-09T13:34:34.278Z</time>
      </trkpt>
      <trkpt lat="47.9502" lon="6.92698">
        <ele>1117</ele>
        <time>2026-05-09T13:34:35.277Z</time>
      </trkpt>
      <trkpt lat="47.95019" lon="6.92699">
        <ele>1116</ele>
        <time>2026-05-09T13:34:36.277Z</time>
      </trkpt>
      <trkpt lat="47.95018" lon="6.927">
        <ele>1115</ele>
        <time>2026-05-09T13:34:37.277Z</time>
      </trkpt>
      <trkpt lat="47.95016" lon="6.92701">
        <ele>1114</ele>
        <time>2026-05-09T13:34:38.277Z</time>
      </trkpt>
      <trkpt lat="47.95015" lon="6.92701">
        <ele>1113</ele>
        <time>2026-05-09T13:34:39.277Z</time>
      </trkpt>
      <trkpt lat="47.95014" lon="6.92702">
        <ele>1113</ele>
        <time>2026-05-09T13:34:40.278Z</time>
      </trkpt>
      <trkpt lat="47.95013" lon="6.92703">
        <ele>1112</ele>
        <time>2026-05-09T13:34:41.278Z</time>
      </trkpt>
      <trkpt lat="47.95013" lon="6.92703">
        <ele>1111</ele>
        <time>2026-05-09T13:34:42.278Z</time>
      </trkpt>
      <trkpt lat="47.95012" lon="6.92705">
        <ele>1111</ele>
        <time>2026-05-09T13:34:43.278Z</time>
      </trkpt>
      <trkpt lat="47.95012" lon="6.92707">
        <ele>1111</ele>
        <time>2026-05-09T13:34:44.277Z</time>
      </trkpt>
      <trkpt lat="47.95011" lon="6.92708">
        <ele>1111</ele>
        <time>2026-05-09T13:34:45.277Z</time>
      </trkpt>
      <trkpt lat="47.9501" lon="6.9271">
        <ele>1110</ele>
        <time>2026-05-09T13:34:46.277Z</time>
      </trkpt>
      <trkpt lat="47.95009" lon="6.92713">
        <ele>1110</ele>
        <time>2026-05-09T13:34:47.277Z</time>
      </trkpt>
      <trkpt lat="47.95008" lon="6.92715">
        <ele>1110</ele>
        <time>2026-05-09T13:34:48.277Z</time>
      </trkpt>
      <trkpt lat="47.95007" lon="6.92717">
        <ele>1110</ele>
        <time>2026-05-09T13:34:49.277Z</time>
      </trkpt>
      <trkpt lat="47.95006" lon="6.92719">
        <ele>1110</ele>
        <time>2026-05-09T13:34:50.277Z</time>
      </trkpt>
      <trkpt lat="47.95005" lon="6.92721">
        <ele>1110</ele>
        <time>2026-05-09T13:34:51.278Z</time>
      </trkpt>
      <trkpt lat="47.95005" lon="6.92724">
        <ele>1110</ele>
        <time>2026-05-09T13:34:52.278Z</time>
      </trkpt>
      <trkpt lat="47.95003" lon="6.92727">
        <ele>1110</ele>
        <time>2026-05-09T13:34:53.278Z</time>
      </trkpt>
      <trkpt lat="47.95002" lon="6.9273">
        <ele>1110</ele>
        <time>2026-05-09T13:34:54.278Z</time>
      </trkpt>
      <trkpt lat="47.95001" lon="6.92733">
        <ele>1109</ele>
        <time>2026-05-09T13:34:55.277Z</time>
      </trkpt>
      <trkpt lat="47.95" lon="6.92737">
        <ele>1109</ele>
        <time>2026-05-09T13:34:56.277Z</time>
      </trkpt>
      <trkpt lat="47.94998" lon="6.9274">
        <ele>1109</ele>
        <time>2026-05-09T13:34:57.277Z</time>
      </trkpt>
      <trkpt lat="47.94997" lon="6.92742">
        <ele>1109</ele>
        <time>2026-05-09T13:34:58.277Z</time>
      </trkpt>
      <trkpt lat="47.94996" lon="6.92744">
        <ele>1108</ele>
        <time>2026-05-09T13:34:59.278Z</time>
      </trkpt>
      <trkpt lat="47.94995" lon="6.92746">
        <ele>1108</ele>
        <time>2026-05-09T13:35:00.278Z</time>
      </trkpt>
      <trkpt lat="47.94994" lon="6.92748">
        <ele>1107</ele>
        <time>2026-05-09T13:35:01.277Z</time>
      </trkpt>
      <trkpt lat="47.94993" lon="6.92751">
        <ele>1107</ele>
        <time>2026-05-09T13:35:02.277Z</time>
      </trkpt>
      <trkpt lat="47.94992" lon="6.92753">
        <ele>1106</ele>
        <time>2026-05-09T13:35:03.277Z</time>
      </trkpt>
      <trkpt lat="47.94991" lon="6.92756">
        <ele>1106</ele>
        <time>2026-05-09T13:35:04.277Z</time>
      </trkpt>
      <trkpt lat="47.94991" lon="6.92758">
        <ele>1105</ele>
        <time>2026-05-09T13:35:05.277Z</time>
      </trkpt>
      <trkpt lat="47.9499" lon="6.92761">
        <ele>1105</ele>
        <time>2026-05-09T13:35:06.277Z</time>
      </trkpt>
      <trkpt lat="47.9499" lon="6.92763">
        <ele>1105</ele>
        <time>2026-05-09T13:35:07.277Z</time>
      </trkpt>
      <trkpt lat="47.94989" lon="6.92765">
        <ele>1105</ele>
        <time>2026-05-09T13:35:08.277Z</time>
      </trkpt>
      <trkpt lat="47.94988" lon="6.92767">
        <ele>1105</ele>
        <time>2026-05-09T13:35:09.277Z</time>
      </trkpt>
      <trkpt lat="47.94988" lon="6.92769">
        <ele>1104</ele>
        <time>2026-05-09T13:35:10.277Z</time>
      </trkpt>
      <trkpt lat="47.94988" lon="6.9277">
        <ele>1104</ele>
        <time>2026-05-09T13:35:11.277Z</time>
      </trkpt>
      <trkpt lat="47.94988" lon="6.92773">
        <ele>1104</ele>
        <time>2026-05-09T13:35:12.277Z</time>
      </trkpt>
      <trkpt lat="47.94987" lon="6.92775">
        <ele>1103</ele>
        <time>2026-05-09T13:35:13.278Z</time>
      </trkpt>
      <trkpt lat="47.94987" lon="6.92776">
        <ele>1103</ele>
        <time>2026-05-09T13:35:14.278Z</time>
      </trkpt>
      <trkpt lat="47.94987" lon="6.92778">
        <ele>1103</ele>
        <time>2026-05-09T13:35:15.278Z</time>
      </trkpt>
      <trkpt lat="47.94986" lon="6.9278">
        <ele>1102</ele>
        <time>2026-05-09T13:35:16.277Z</time>
      </trkpt>
      <trkpt lat="47.94986" lon="6.92781">
        <ele>1102</ele>
        <time>2026-05-09T13:35:17.277Z</time>
      </trkpt>
      <trkpt lat="47.94986" lon="6.92784">
        <ele>1102</ele>
        <time>2026-05-09T13:35:18.277Z</time>
      </trkpt>
      <trkpt lat="47.94984" lon="6.92787">
        <ele>1102</ele>
        <time>2026-05-09T13:35:19.278Z</time>
      </trkpt>
      <trkpt lat="47.94984" lon="6.92789">
        <ele>1102</ele>
        <time>2026-05-09T13:35:20.277Z</time>
      </trkpt>
      <trkpt lat="47.94983" lon="6.92791">
        <ele>1101</ele>
        <time>2026-05-09T13:35:21.278Z</time>
      </trkpt>
      <trkpt lat="47.94982" lon="6.92794">
        <ele>1100</ele>
        <time>2026-05-09T13:35:22.278Z</time>
      </trkpt>
      <trkpt lat="47.94982" lon="6.92797">
        <ele>1100</ele>
        <time>2026-05-09T13:35:23.278Z</time>
      </trkpt>
      <trkpt lat="47.94981" lon="6.92799">
        <ele>1100</ele>
        <time>2026-05-09T13:35:24.278Z</time>
      </trkpt>
      <trkpt lat="47.9498" lon="6.92801">
        <ele>1099</ele>
        <time>2026-05-09T13:35:25.277Z</time>
      </trkpt>
      <trkpt lat="47.9498" lon="6.92803">
        <ele>1099</ele>
        <time>2026-05-09T13:35:26.277Z</time>
      </trkpt>
      <trkpt lat="47.94979" lon="6.92805">
        <ele>1098</ele>
        <time>2026-05-09T13:35:27.277Z</time>
      </trkpt>
      <trkpt lat="47.94979" lon="6.92807">
        <ele>1098</ele>
        <time>2026-05-09T13:35:28.277Z</time>
      </trkpt>
      <trkpt lat="47.94978" lon="6.92809">
        <ele>1097</ele>
        <time>2026-05-09T13:35:29.277Z</time>
      </trkpt>
      <trkpt lat="47.94977" lon="6.92811">
        <ele>1097</ele>
        <time>2026-05-09T13:35:30.277Z</time>
      </trkpt>
      <trkpt lat="47.94976" lon="6.92813">
        <ele>1096</ele>
        <time>2026-05-09T13:35:31.277Z</time>
      </trkpt>
      <trkpt lat="47.94976" lon="6.92815">
        <ele>1096</ele>
        <time>2026-05-09T13:35:32.277Z</time>
      </trkpt>
      <trkpt lat="47.94975" lon="6.92818">
        <ele>1096</ele>
        <time>2026-05-09T13:35:33.277Z</time>
      </trkpt>
      <trkpt lat="47.94974" lon="6.9282">
        <ele>1096</ele>
        <time>2026-05-09T13:35:34.277Z</time>
      </trkpt>
      <trkpt lat="47.94974" lon="6.92822">
        <ele>1095</ele>
        <time>2026-05-09T13:35:35.277Z</time>
      </trkpt>
      <trkpt lat="47.94973" lon="6.92825">
        <ele>1095</ele>
        <time>2026-05-09T13:35:36.277Z</time>
      </trkpt>
      <trkpt lat="47.94972" lon="6.92827">
        <ele>1095</ele>
        <time>2026-05-09T13:35:37.278Z</time>
      </trkpt>
      <trkpt lat="47.94972" lon="6.92827">
        <ele>1094</ele>
        <time>2026-05-09T13:35:38.278Z</time>
      </trkpt>
      <trkpt lat="47.94971" lon="6.92829">
        <ele>1094</ele>
        <time>2026-05-09T13:35:39.278Z</time>
      </trkpt>
      <trkpt lat="47.9497" lon="6.92831">
        <ele>1094</ele>
        <time>2026-05-09T13:35:40.278Z</time>
      </trkpt>
      <trkpt lat="47.94969" lon="6.92833">
        <ele>1093</ele>
        <time>2026-05-09T13:35:41.277Z</time>
      </trkpt>
      <trkpt lat="47.94969" lon="6.92835">
        <ele>1093</ele>
        <time>2026-05-09T13:35:42.278Z</time>
      </trkpt>
      <trkpt lat="47.94968" lon="6.92837">
        <ele>1092</ele>
        <time>2026-05-09T13:35:43.277Z</time>
      </trkpt>
      <trkpt lat="47.94967" lon="6.92838">
        <ele>1092</ele>
        <time>2026-05-09T13:35:44.278Z</time>
      </trkpt>
      <trkpt lat="47.94965" lon="6.92839">
        <ele>1091</ele>
        <time>2026-05-09T13:35:45.277Z</time>
      </trkpt>
      <trkpt lat="47.94963" lon="6.9284">
        <ele>1091</ele>
        <time>2026-05-09T13:35:46.278Z</time>
      </trkpt>
      <trkpt lat="47.94962" lon="6.9284">
        <ele>1090</ele>
        <time>2026-05-09T13:35:47.277Z</time>
      </trkpt>
      <trkpt lat="47.9496" lon="6.9284">
        <ele>1089</ele>
        <time>2026-05-09T13:35:48.278Z</time>
      </trkpt>
      <trkpt lat="47.94959" lon="6.9284">
        <ele>1088</ele>
        <time>2026-05-09T13:35:49.277Z</time>
      </trkpt>
      <trkpt lat="47.94958" lon="6.92839">
        <ele>1088</ele>
        <time>2026-05-09T13:35:50.278Z</time>
      </trkpt>
      <trkpt lat="47.94957" lon="6.92837">
        <ele>1087</ele>
        <time>2026-05-09T13:35:51.277Z</time>
      </trkpt>
      <trkpt lat="47.94956" lon="6.92836">
        <ele>1087</ele>
        <time>2026-05-09T13:35:52.278Z</time>
      </trkpt>
      <trkpt lat="47.94955" lon="6.92835">
        <ele>1087</ele>
        <time>2026-05-09T13:35:53.277Z</time>
      </trkpt>
      <trkpt lat="47.94954" lon="6.92834">
        <ele>1087</ele>
        <time>2026-05-09T13:35:54.278Z</time>
      </trkpt>
      <trkpt lat="47.94953" lon="6.92833">
        <ele>1086</ele>
        <time>2026-05-09T13:35:55.278Z</time>
      </trkpt>
      <trkpt lat="47.94951" lon="6.92832">
        <ele>1086</ele>
        <time>2026-05-09T13:35:56.278Z</time>
      </trkpt>
      <trkpt lat="47.9495" lon="6.9283">
        <ele>1085</ele>
        <time>2026-05-09T13:35:57.278Z</time>
      </trkpt>
      <trkpt lat="47.94949" lon="6.92829">
        <ele>1085</ele>
        <time>2026-05-09T13:35:58.277Z</time>
      </trkpt>
      <trkpt lat="47.94948" lon="6.92829">
        <ele>1085</ele>
        <time>2026-05-09T13:35:59.278Z</time>
      </trkpt>
      <trkpt lat="47.94947" lon="6.92829">
        <ele>1084</ele>
        <time>2026-05-09T13:36:00.278Z</time>
      </trkpt>
      <trkpt lat="47.94946" lon="6.92828">
        <ele>1084</ele>
        <time>2026-05-09T13:36:01.278Z</time>
      </trkpt>
      <trkpt lat="47.94946" lon="6.92828">
        <ele>1084</ele>
        <time>2026-05-09T13:36:02.277Z</time>
      </trkpt>
      <trkpt lat="47.94945" lon="6.92829">
        <ele>1084</ele>
        <time>2026-05-09T13:36:03.278Z</time>
      </trkpt>
      <trkpt lat="47.94944" lon="6.92829">
        <ele>1084</ele>
        <time>2026-05-09T13:36:04.277Z</time>
      </trkpt>
      <trkpt lat="47.94943" lon="6.92829">
        <ele>1083</ele>
        <time>2026-05-09T13:36:05.278Z</time>
      </trkpt>
      <trkpt lat="47.94943" lon="6.9283">
        <ele>1083</ele>
        <time>2026-05-09T13:36:06.277Z</time>
      </trkpt>
      <trkpt lat="47.94941" lon="6.9283">
        <ele>1082</ele>
        <time>2026-05-09T13:36:07.278Z</time>
      </trkpt>
      <trkpt lat="47.9494" lon="6.9283">
        <ele>1082</ele>
        <time>2026-05-09T13:36:08.277Z</time>
      </trkpt>
      <trkpt lat="47.94939" lon="6.9283">
        <ele>1082</ele>
        <time>2026-05-09T13:36:09.278Z</time>
      </trkpt>
      <trkpt lat="47.94938" lon="6.92831">
        <ele>1081</ele>
        <time>2026-05-09T13:36:10.277Z</time>
      </trkpt>
      <trkpt lat="47.94937" lon="6.92832">
        <ele>1081</ele>
        <time>2026-05-09T13:36:11.278Z</time>
      </trkpt>
      <trkpt lat="47.94937" lon="6.92834">
        <ele>1081</ele>
        <time>2026-05-09T13:36:12.278Z</time>
      </trkpt>
      <trkpt lat="47.94937" lon="6.92836">
        <ele>1081</ele>
        <time>2026-05-09T13:36:13.277Z</time>
      </trkpt>
      <trkpt lat="47.94936" lon="6.92838">
        <ele>1081</ele>
        <time>2026-05-09T13:36:14.277Z</time>
      </trkpt>
      <trkpt lat="47.94936" lon="6.92841">
        <ele>1081</ele>
        <time>2026-05-09T13:36:15.278Z</time>
      </trkpt>
      <trkpt lat="47.94935" lon="6.92844">
        <ele>1080</ele>
        <time>2026-05-09T13:36:16.278Z</time>
      </trkpt>
      <trkpt lat="47.94935" lon="6.92847">
        <ele>1080</ele>
        <time>2026-05-09T13:36:17.278Z</time>
      </trkpt>
      <trkpt lat="47.94935" lon="6.92849">
        <ele>1079</ele>
        <time>2026-05-09T13:36:18.278Z</time>
      </trkpt>
      <trkpt lat="47.94935" lon="6.92851">
        <ele>1079</ele>
        <time>2026-05-09T13:36:19.277Z</time>
      </trkpt>
      <trkpt lat="47.94935" lon="6.92853">
        <ele>1079</ele>
        <time>2026-05-09T13:36:20.277Z</time>
      </trkpt>
      <trkpt lat="47.94935" lon="6.92855">
        <ele>1079</ele>
        <time>2026-05-09T13:36:21.277Z</time>
      </trkpt>
      <trkpt lat="47.94936" lon="6.92857">
        <ele>1078</ele>
        <time>2026-05-09T13:36:22.278Z</time>
      </trkpt>
      <trkpt lat="47.94936" lon="6.9286">
        <ele>1078</ele>
        <time>2026-05-09T13:36:23.277Z</time>
      </trkpt>
      <trkpt lat="47.94935" lon="6.92863">
        <ele>1078</ele>
        <time>2026-05-09T13:36:24.278Z</time>
      </trkpt>
      <trkpt lat="47.94934" lon="6.92866">
        <ele>1078</ele>
        <time>2026-05-09T13:36:25.278Z</time>
      </trkpt>
      <trkpt lat="47.94934" lon="6.92869">
        <ele>1078</ele>
        <time>2026-05-09T13:36:26.278Z</time>
      </trkpt>
      <trkpt lat="47.94934" lon="6.92871">
        <ele>1078</ele>
        <time>2026-05-09T13:36:27.277Z</time>
      </trkpt>
      <trkpt lat="47.94934" lon="6.92874">
        <ele>1078</ele>
        <time>2026-05-09T13:36:28.277Z</time>
      </trkpt>
      <trkpt lat="47.94934" lon="6.92876">
        <ele>1078</ele>
        <time>2026-05-09T13:36:29.277Z</time>
      </trkpt>
      <trkpt lat="47.94933" lon="6.92879">
        <ele>1078</ele>
        <time>2026-05-09T13:36:30.277Z</time>
      </trkpt>
      <trkpt lat="47.94933" lon="6.92882">
        <ele>1078</ele>
        <time>2026-05-09T13:36:31.278Z</time>
      </trkpt>
      <trkpt lat="47.94932" lon="6.92884">
        <ele>1078</ele>
        <time>2026-05-09T13:36:32.277Z</time>
      </trkpt>
      <trkpt lat="47.94932" lon="6.92886">
        <ele>1077</ele>
        <time>2026-05-09T13:36:33.278Z</time>
      </trkpt>
      <trkpt lat="47.94931" lon="6.92889">
        <ele>1077</ele>
        <time>2026-05-09T13:36:34.277Z</time>
      </trkpt>
      <trkpt lat="47.94931" lon="6.92892">
        <ele>1076</ele>
        <time>2026-05-09T13:36:35.278Z</time>
      </trkpt>
      <trkpt lat="47.9493" lon="6.92894">
        <ele>1076</ele>
        <time>2026-05-09T13:36:36.277Z</time>
      </trkpt>
      <trkpt lat="47.94929" lon="6.92898">
        <ele>1075</ele>
        <time>2026-05-09T13:36:37.278Z</time>
      </trkpt>
      <trkpt lat="47.94928" lon="6.92901">
        <ele>1075</ele>
        <time>2026-05-09T13:36:38.277Z</time>
      </trkpt>
      <trkpt lat="47.94927" lon="6.92904">
        <ele>1074</ele>
        <time>2026-05-09T13:36:39.278Z</time>
      </trkpt>
      <trkpt lat="47.94926" lon="6.92906">
        <ele>1074</ele>
        <time>2026-05-09T13:36:40.277Z</time>
      </trkpt>
      <trkpt lat="47.94926" lon="6.92908">
        <ele>1073</ele>
        <time>2026-05-09T13:36:41.278Z</time>
      </trkpt>
      <trkpt lat="47.94926" lon="6.92911">
        <ele>1073</ele>
        <time>2026-05-09T13:36:42.277Z</time>
      </trkpt>
      <trkpt lat="47.94926" lon="6.92914">
        <ele>1072</ele>
        <time>2026-05-09T13:36:43.278Z</time>
      </trkpt>
      <trkpt lat="47.94927" lon="6.92916">
        <ele>1072</ele>
        <time>2026-05-09T13:36:44.278Z</time>
      </trkpt>
      <trkpt lat="47.94926" lon="6.92918">
        <ele>1071</ele>
        <time>2026-05-09T13:36:45.277Z</time>
      </trkpt>
      <trkpt lat="47.94926" lon="6.9292">
        <ele>1071</ele>
        <time>2026-05-09T13:36:46.277Z</time>
      </trkpt>
      <trkpt lat="47.94925" lon="6.92922">
        <ele>1070</ele>
        <time>2026-05-09T13:36:47.277Z</time>
      </trkpt>
      <trkpt lat="47.94925" lon="6.92925">
        <ele>1070</ele>
        <time>2026-05-09T13:36:48.277Z</time>
      </trkpt>
      <trkpt lat="47.94924" lon="6.92928">
        <ele>1069</ele>
        <time>2026-05-09T13:36:49.277Z</time>
      </trkpt>
      <trkpt lat="47.94924" lon="6.92931">
        <ele>1069</ele>
        <time>2026-05-09T13:36:50.278Z</time>
      </trkpt>
      <trkpt lat="47.94924" lon="6.92933">
        <ele>1069</ele>
        <time>2026-05-09T13:36:51.277Z</time>
      </trkpt>
      <trkpt lat="47.94924" lon="6.92935">
        <ele>1068</ele>
        <time>2026-05-09T13:36:52.278Z</time>
      </trkpt>
      <trkpt lat="47.94923" lon="6.92938">
        <ele>1068</ele>
        <time>2026-05-09T13:36:53.277Z</time>
      </trkpt>
      <trkpt lat="47.94923" lon="6.9294">
        <ele>1068</ele>
        <time>2026-05-09T13:36:54.278Z</time>
      </trkpt>
      <trkpt lat="47.94923" lon="6.92943">
        <ele>1068</ele>
        <time>2026-05-09T13:36:55.277Z</time>
      </trkpt>
      <trkpt lat="47.94922" lon="6.92945">
        <ele>1067</ele>
        <time>2026-05-09T13:36:56.278Z</time>
      </trkpt>
      <trkpt lat="47.94921" lon="6.92947">
        <ele>1067</ele>
        <time>2026-05-09T13:36:57.277Z</time>
      </trkpt>
      <trkpt lat="47.94921" lon="6.9295">
        <ele>1067</ele>
        <time>2026-05-09T13:36:58.278Z</time>
      </trkpt>
      <trkpt lat="47.94921" lon="6.92952">
        <ele>1067</ele>
        <time>2026-05-09T13:36:59.278Z</time>
      </trkpt>
      <trkpt lat="47.94921" lon="6.92954">
        <ele>1067</ele>
        <time>2026-05-09T13:37:00.278Z</time>
      </trkpt>
      <trkpt lat="47.94921" lon="6.92956">
        <ele>1067</ele>
        <time>2026-05-09T13:37:01.278Z</time>
      </trkpt>
      <trkpt lat="47.9492" lon="6.92959">
        <ele>1066</ele>
        <time>2026-05-09T13:37:02.277Z</time>
      </trkpt>
      <trkpt lat="47.9492" lon="6.92962">
        <ele>1066</ele>
        <time>2026-05-09T13:37:03.278Z</time>
      </trkpt>
      <trkpt lat="47.9492" lon="6.92965">
        <ele>1066</ele>
        <time>2026-05-09T13:37:04.277Z</time>
      </trkpt>
      <trkpt lat="47.94921" lon="6.92969">
        <ele>1065</ele>
        <time>2026-05-09T13:37:05.278Z</time>
      </trkpt>
      <trkpt lat="47.94921" lon="6.92972">
        <ele>1065</ele>
        <time>2026-05-09T13:37:06.277Z</time>
      </trkpt>
      <trkpt lat="47.94921" lon="6.92974">
        <ele>1064</ele>
        <time>2026-05-09T13:37:07.278Z</time>
      </trkpt>
      <trkpt lat="47.94921" lon="6.92977">
        <ele>1064</ele>
        <time>2026-05-09T13:37:08.278Z</time>
      </trkpt>
      <trkpt lat="47.94921" lon="6.9298">
        <ele>1064</ele>
        <time>2026-05-09T13:37:09.278Z</time>
      </trkpt>
      <trkpt lat="47.9492" lon="6.92982">
        <ele>1064</ele>
        <time>2026-05-09T13:37:10.277Z</time>
      </trkpt>
      <trkpt lat="47.94919" lon="6.92985">
        <ele>1064</ele>
        <time>2026-05-09T13:37:11.278Z</time>
      </trkpt>
      <trkpt lat="47.94918" lon="6.92987">
        <ele>1064</ele>
        <time>2026-05-09T13:37:12.277Z</time>
      </trkpt>
      <trkpt lat="47.94918" lon="6.92989">
        <ele>1064</ele>
        <time>2026-05-09T13:37:13.278Z</time>
      </trkpt>
      <trkpt lat="47.94918" lon="6.92992">
        <ele>1064</ele>
        <time>2026-05-09T13:37:14.277Z</time>
      </trkpt>
      <trkpt lat="47.94918" lon="6.92993">
        <ele>1064</ele>
        <time>2026-05-09T13:37:15.278Z</time>
      </trkpt>
      <trkpt lat="47.94918" lon="6.92995">
        <ele>1064</ele>
        <time>2026-05-09T13:37:16.278Z</time>
      </trkpt>
      <trkpt lat="47.94919" lon="6.92997">
        <ele>1064</ele>
        <time>2026-05-09T13:37:17.278Z</time>
      </trkpt>
      <trkpt lat="47.94919" lon="6.92999">
        <ele>1064</ele>
        <time>2026-05-09T13:37:18.278Z</time>
      </trkpt>
      <trkpt lat="47.94919" lon="6.93001">
        <ele>1064</ele>
        <time>2026-05-09T13:37:19.278Z</time>
      </trkpt>
      <trkpt lat="47.94919" lon="6.93003">
        <ele>1064</ele>
        <time>2026-05-09T13:37:20.278Z</time>
      </trkpt>
      <trkpt lat="47.94919" lon="6.93006">
        <ele>1064</ele>
        <time>2026-05-09T13:37:21.277Z</time>
      </trkpt>
      <trkpt lat="47.94918" lon="6.93008">
        <ele>1064</ele>
        <time>2026-05-09T13:37:22.277Z</time>
      </trkpt>
      <trkpt lat="47.94918" lon="6.9301">
        <ele>1064</ele>
        <time>2026-05-09T13:37:23.278Z</time>
      </trkpt>
      <trkpt lat="47.94918" lon="6.93013">
        <ele>1064</ele>
        <time>2026-05-09T13:37:24.278Z</time>
      </trkpt>
      <trkpt lat="47.94917" lon="6.93015">
        <ele>1064</ele>
        <time>2026-05-09T13:37:25.278Z</time>
      </trkpt>
      <trkpt lat="47.94918" lon="6.93017">
        <ele>1064</ele>
        <time>2026-05-09T13:37:26.277Z</time>
      </trkpt>
      <trkpt lat="47.94917" lon="6.93019">
        <ele>1064</ele>
        <time>2026-05-09T13:37:27.278Z</time>
      </trkpt>
      <trkpt lat="47.94917" lon="6.93021">
        <ele>1063</ele>
        <time>2026-05-09T13:37:28.277Z</time>
      </trkpt>
      <trkpt lat="47.94917" lon="6.93023">
        <ele>1063</ele>
        <time>2026-05-09T13:37:29.278Z</time>
      </trkpt>
      <trkpt lat="47.94916" lon="6.93026">
        <ele>1063</ele>
        <time>2026-05-09T13:37:30.277Z</time>
      </trkpt>
      <trkpt lat="47.94916" lon="6.93028">
        <ele>1063</ele>
        <time>2026-05-09T13:37:31.278Z</time>
      </trkpt>
      <trkpt lat="47.94916" lon="6.93031">
        <ele>1063</ele>
        <time>2026-05-09T13:37:32.277Z</time>
      </trkpt>
      <trkpt lat="47.94916" lon="6.93034">
        <ele>1063</ele>
        <time>2026-05-09T13:37:33.278Z</time>
      </trkpt>
      <trkpt lat="47.94915" lon="6.93037">
        <ele>1063</ele>
        <time>2026-05-09T13:37:34.277Z</time>
      </trkpt>
      <trkpt lat="47.94915" lon="6.93039">
        <ele>1063</ele>
        <time>2026-05-09T13:37:35.278Z</time>
      </trkpt>
      <trkpt lat="47.94915" lon="6.93043">
        <ele>1062</ele>
        <time>2026-05-09T13:37:36.277Z</time>
      </trkpt>
      <trkpt lat="47.94914" lon="6.93047">
        <ele>1062</ele>
        <time>2026-05-09T13:37:37.278Z</time>
      </trkpt>
      <trkpt lat="47.94914" lon="6.9305">
        <ele>1062</ele>
        <time>2026-05-09T13:37:38.277Z</time>
      </trkpt>
      <trkpt lat="47.94913" lon="6.93054">
        <ele>1061</ele>
        <time>2026-05-09T13:37:39.278Z</time>
      </trkpt>
      <trkpt lat="47.94913" lon="6.93057">
        <ele>1061</ele>
        <time>2026-05-09T13:37:40.277Z</time>
      </trkpt>
      <trkpt lat="47.94912" lon="6.93059">
        <ele>1061</ele>
        <time>2026-05-09T13:37:41.278Z</time>
      </trkpt>
      <trkpt lat="47.94912" lon="6.93062">
        <ele>1060</ele>
        <time>2026-05-09T13:37:42.277Z</time>
      </trkpt>
      <trkpt lat="47.94912" lon="6.93064">
        <ele>1060</ele>
        <time>2026-05-09T13:37:43.278Z</time>
      </trkpt>
      <trkpt lat="47.94911" lon="6.93067">
        <ele>1060</ele>
        <time>2026-05-09T13:37:44.277Z</time>
      </trkpt>
      <trkpt lat="47.94911" lon="6.9307">
        <ele>1060</ele>
        <time>2026-05-09T13:37:45.278Z</time>
      </trkpt>
      <trkpt lat="47.9491" lon="6.93072">
        <ele>1059</ele>
        <time>2026-05-09T13:37:46.277Z</time>
      </trkpt>
      <trkpt lat="47.94909" lon="6.93074">
        <ele>1059</ele>
        <time>2026-05-09T13:37:47.278Z</time>
      </trkpt>
      <trkpt lat="47.94909" lon="6.93076">
        <ele>1059</ele>
        <time>2026-05-09T13:37:48.278Z</time>
      </trkpt>
      <trkpt lat="47.94909" lon="6.93079">
        <ele>1059</ele>
        <time>2026-05-09T13:37:49.277Z</time>
      </trkpt>
      <trkpt lat="47.94909" lon="6.93081">
        <ele>1059</ele>
        <time>2026-05-09T13:37:50.278Z</time>
      </trkpt>
      <trkpt lat="47.94908" lon="6.93084">
        <ele>1059</ele>
        <time>2026-05-09T13:37:51.277Z</time>
      </trkpt>
      <trkpt lat="47.94909" lon="6.93086">
        <ele>1058</ele>
        <time>2026-05-09T13:37:52.278Z</time>
      </trkpt>
      <trkpt lat="47.94909" lon="6.93088">
        <ele>1058</ele>
        <time>2026-05-09T13:37:53.277Z</time>
      </trkpt>
      <trkpt lat="47.94909" lon="6.93091">
        <ele>1057</ele>
        <time>2026-05-09T13:37:54.278Z</time>
      </trkpt>
      <trkpt lat="47.94909" lon="6.93094">
        <ele>1057</ele>
        <time>2026-05-09T13:37:55.277Z</time>
      </trkpt>
      <trkpt lat="47.94908" lon="6.93097">
        <ele>1057</ele>
        <time>2026-05-09T13:37:56.277Z</time>
      </trkpt>
      <trkpt lat="47.94908" lon="6.931">
        <ele>1057</ele>
        <time>2026-05-09T13:37:57.277Z</time>
      </trkpt>
      <trkpt lat="47.94908" lon="6.93103">
        <ele>1057</ele>
        <time>2026-05-09T13:37:58.278Z</time>
      </trkpt>
      <trkpt lat="47.94908" lon="6.93105">
        <ele>1057</ele>
        <time>2026-05-09T13:37:59.277Z</time>
      </trkpt>
      <trkpt lat="47.94909" lon="6.93107">
        <ele>1057</ele>
        <time>2026-05-09T13:38:00.278Z</time>
      </trkpt>
      <trkpt lat="47.94909" lon="6.93108">
        <ele>1056</ele>
        <time>2026-05-09T13:38:01.278Z</time>
      </trkpt>
      <trkpt lat="47.94909" lon="6.9311">
        <ele>1056</ele>
        <time>2026-05-09T13:38:02.278Z</time>
      </trkpt>
      <trkpt lat="47.94908" lon="6.93112">
        <ele>1056</ele>
        <time>2026-05-09T13:38:03.277Z</time>
      </trkpt>
      <trkpt lat="47.94908" lon="6.93114">
        <ele>1056</ele>
        <time>2026-05-09T13:38:04.278Z</time>
      </trkpt>
      <trkpt lat="47.94908" lon="6.93116">
        <ele>1055</ele>
        <time>2026-05-09T13:38:05.278Z</time>
      </trkpt>
      <trkpt lat="47.94908" lon="6.93118">
        <ele>1055</ele>
        <time>2026-05-09T13:38:06.277Z</time>
      </trkpt>
      <trkpt lat="47.94908" lon="6.9312">
        <ele>1055</ele>
        <time>2026-05-09T13:38:07.278Z</time>
      </trkpt>
      <trkpt lat="47.94909" lon="6.93123">
        <ele>1055</ele>
        <time>2026-05-09T13:38:08.277Z</time>
      </trkpt>
      <trkpt lat="47.94909" lon="6.93126">
        <ele>1055</ele>
        <time>2026-05-09T13:38:09.278Z</time>
      </trkpt>
      <trkpt lat="47.94909" lon="6.93129">
        <ele>1055</ele>
        <time>2026-05-09T13:38:10.277Z</time>
      </trkpt>
      <trkpt lat="47.94909" lon="6.93132">
        <ele>1055</ele>
        <time>2026-05-09T13:38:11.278Z</time>
      </trkpt>
      <trkpt lat="47.94909" lon="6.93135">
        <ele>1055</ele>
        <time>2026-05-09T13:38:12.277Z</time>
      </trkpt>
      <trkpt lat="47.94909" lon="6.93138">
        <ele>1054</ele>
        <time>2026-05-09T13:38:13.278Z</time>
      </trkpt>
      <trkpt lat="47.94909" lon="6.93141">
        <ele>1054</ele>
        <time>2026-05-09T13:38:14.277Z</time>
      </trkpt>
      <trkpt lat="47.94909" lon="6.93144">
        <ele>1054</ele>
        <time>2026-05-09T13:38:15.278Z</time>
      </trkpt>
      <trkpt lat="47.9491" lon="6.93147">
        <ele>1053</ele>
        <time>2026-05-09T13:38:16.277Z</time>
      </trkpt>
      <trkpt lat="47.94911" lon="6.93151">
        <ele>1053</ele>
        <time>2026-05-09T13:38:17.277Z</time>
      </trkpt>
      <trkpt lat="47.94912" lon="6.93154">
        <ele>1053</ele>
        <time>2026-05-09T13:38:18.277Z</time>
      </trkpt>
      <trkpt lat="47.94914" lon="6.93157">
        <ele>1053</ele>
        <time>2026-05-09T13:38:19.278Z</time>
      </trkpt>
      <trkpt lat="47.94915" lon="6.9316">
        <ele>1053</ele>
        <time>2026-05-09T13:38:20.277Z</time>
      </trkpt>
      <trkpt lat="47.94915" lon="6.93163">
        <ele>1053</ele>
        <time>2026-05-09T13:38:21.278Z</time>
      </trkpt>
      <trkpt lat="47.94914" lon="6.93165">
        <ele>1053</ele>
        <time>2026-05-09T13:38:22.278Z</time>
      </trkpt>
      <trkpt lat="47.94913" lon="6.93168">
        <ele>1053</ele>
        <time>2026-05-09T13:38:23.278Z</time>
      </trkpt>
      <trkpt lat="47.94913" lon="6.93171">
        <ele>1052</ele>
        <time>2026-05-09T13:38:24.277Z</time>
      </trkpt>
      <trkpt lat="47.94912" lon="6.93173">
        <ele>1052</ele>
        <time>2026-05-09T13:38:25.278Z</time>
      </trkpt>
      <trkpt lat="47.94912" lon="6.93175">
        <ele>1052</ele>
        <time>2026-05-09T13:38:26.278Z</time>
      </trkpt>
      <trkpt lat="47.94912" lon="6.93178">
        <ele>1051</ele>
        <time>2026-05-09T13:38:27.277Z</time>
      </trkpt>
      <trkpt lat="47.94911" lon="6.93181">
        <ele>1051</ele>
        <time>2026-05-09T13:38:28.277Z</time>
      </trkpt>
      <trkpt lat="47.94911" lon="6.93183">
        <ele>1051</ele>
        <time>2026-05-09T13:38:29.277Z</time>
      </trkpt>
      <trkpt lat="47.94911" lon="6.93186">
        <ele>1051</ele>
        <time>2026-05-09T13:38:30.277Z</time>
      </trkpt>
      <trkpt lat="47.94911" lon="6.93188">
        <ele>1050</ele>
        <time>2026-05-09T13:38:31.277Z</time>
      </trkpt>
      <trkpt lat="47.94911" lon="6.9319">
        <ele>1050</ele>
        <time>2026-05-09T13:38:32.278Z</time>
      </trkpt>
      <trkpt lat="47.94912" lon="6.93191">
        <ele>1049</ele>
        <time>2026-05-09T13:38:33.277Z</time>
      </trkpt>
      <trkpt lat="47.94912" lon="6.93193">
        <ele>1049</ele>
        <time>2026-05-09T13:38:34.278Z</time>
      </trkpt>
      <trkpt lat="47.94912" lon="6.93196">
        <ele>1049</ele>
        <time>2026-05-09T13:38:35.277Z</time>
      </trkpt>
      <trkpt lat="47.94912" lon="6.93198">
        <ele>1049</ele>
        <time>2026-05-09T13:38:36.278Z</time>
      </trkpt>
      <trkpt lat="47.94911" lon="6.932">
        <ele>1048</ele>
        <time>2026-05-09T13:38:37.277Z</time>
      </trkpt>
      <trkpt lat="47.9491" lon="6.93201">
        <ele>1048</ele>
        <time>2026-05-09T13:38:38.278Z</time>
      </trkpt>
      <trkpt lat="47.9491" lon="6.93203">
        <ele>1048</ele>
        <time>2026-05-09T13:38:39.277Z</time>
      </trkpt>
      <trkpt lat="47.9491" lon="6.93205">
        <ele>1048</ele>
        <time>2026-05-09T13:38:40.278Z</time>
      </trkpt>
      <trkpt lat="47.9491" lon="6.93208">
        <ele>1048</ele>
        <time>2026-05-09T13:38:41.277Z</time>
      </trkpt>
      <trkpt lat="47.9491" lon="6.93211">
        <ele>1047</ele>
        <time>2026-05-09T13:38:42.278Z</time>
      </trkpt>
      <trkpt lat="47.9491" lon="6.93212">
        <ele>1047</ele>
        <time>2026-05-09T13:38:43.277Z</time>
      </trkpt>
      <trkpt lat="47.94909" lon="6.93214">
        <ele>1047</ele>
        <time>2026-05-09T13:38:44.278Z</time>
      </trkpt>
      <trkpt lat="47.94908" lon="6.93216">
        <ele>1046</ele>
        <time>2026-05-09T13:38:45.277Z</time>
      </trkpt>
      <trkpt lat="47.94908" lon="6.93218">
        <ele>1046</ele>
        <time>2026-05-09T13:38:46.278Z</time>
      </trkpt>
      <trkpt lat="47.94907" lon="6.93221">
        <ele>1046</ele>
        <time>2026-05-09T13:38:47.278Z</time>
      </trkpt>
      <trkpt lat="47.94906" lon="6.93223">
        <ele>1045</ele>
        <time>2026-05-09T13:38:48.277Z</time>
      </trkpt>
      <trkpt lat="47.94904" lon="6.93226">
        <ele>1045</ele>
        <time>2026-05-09T13:38:49.278Z</time>
      </trkpt>
      <trkpt lat="47.94904" lon="6.93228">
        <ele>1045</ele>
        <time>2026-05-09T13:38:50.277Z</time>
      </trkpt>
      <trkpt lat="47.94903" lon="6.93229">
        <ele>1045</ele>
        <time>2026-05-09T13:38:51.278Z</time>
      </trkpt>
      <trkpt lat="47.94902" lon="6.93231">
        <ele>1044</ele>
        <time>2026-05-09T13:38:52.277Z</time>
      </trkpt>
      <trkpt lat="47.94902" lon="6.93232">
        <ele>1044</ele>
        <time>2026-05-09T13:38:53.278Z</time>
      </trkpt>
      <trkpt lat="47.94902" lon="6.93233">
        <ele>1043</ele>
        <time>2026-05-09T13:38:54.277Z</time>
      </trkpt>
      <trkpt lat="47.94901" lon="6.93235">
        <ele>1043</ele>
        <time>2026-05-09T13:38:55.278Z</time>
      </trkpt>
      <trkpt lat="47.94901" lon="6.93236">
        <ele>1043</ele>
        <time>2026-05-09T13:38:56.277Z</time>
      </trkpt>
      <trkpt lat="47.94901" lon="6.93238">
        <ele>1044</ele>
        <time>2026-05-09T13:38:57.278Z</time>
      </trkpt>
      <trkpt lat="47.949" lon="6.93239">
        <ele>1044</ele>
        <time>2026-05-09T13:38:58.277Z</time>
      </trkpt>
      <trkpt lat="47.949" lon="6.93242">
        <ele>1044</ele>
        <time>2026-05-09T13:38:59.278Z</time>
      </trkpt>
      <trkpt lat="47.949" lon="6.93245">
        <ele>1044</ele>
        <time>2026-05-09T13:39:00.277Z</time>
      </trkpt>
      <trkpt lat="47.949" lon="6.93247">
        <ele>1044</ele>
        <time>2026-05-09T13:39:01.278Z</time>
      </trkpt>
      <trkpt lat="47.949" lon="6.93251">
        <ele>1045</ele>
        <time>2026-05-09T13:39:02.277Z</time>
      </trkpt>
      <trkpt lat="47.949" lon="6.93253">
        <ele>1045</ele>
        <time>2026-05-09T13:39:03.277Z</time>
      </trkpt>
      <trkpt lat="47.94899" lon="6.93255">
        <ele>1045</ele>
        <time>2026-05-09T13:39:04.277Z</time>
      </trkpt>
      <trkpt lat="47.949" lon="6.93258">
        <ele>1045</ele>
        <time>2026-05-09T13:39:05.277Z</time>
      </trkpt>
      <trkpt lat="47.94901" lon="6.93262">
        <ele>1045</ele>
        <time>2026-05-09T13:39:06.278Z</time>
      </trkpt>
      <trkpt lat="47.94902" lon="6.93265">
        <ele>1045</ele>
        <time>2026-05-09T13:39:07.277Z</time>
      </trkpt>
      <trkpt lat="47.94903" lon="6.93269">
        <ele>1045</ele>
        <time>2026-05-09T13:39:08.278Z</time>
      </trkpt>
      <trkpt lat="47.94904" lon="6.93273">
        <ele>1045</ele>
        <time>2026-05-09T13:39:09.277Z</time>
      </trkpt>
      <trkpt lat="47.94903" lon="6.93277">
        <ele>1045</ele>
        <time>2026-05-09T13:39:10.278Z</time>
      </trkpt>
      <trkpt lat="47.94903" lon="6.93281">
        <ele>1045</ele>
        <time>2026-05-09T13:39:11.277Z</time>
      </trkpt>
      <trkpt lat="47.94902" lon="6.93285">
        <ele>1046</ele>
        <time>2026-05-09T13:39:12.278Z</time>
      </trkpt>
      <trkpt lat="47.94902" lon="6.93286">
        <ele>1046</ele>
        <time>2026-05-09T13:39:13.277Z</time>
      </trkpt>
      <trkpt lat="47.94905" lon="6.93286">
        <ele>1047</ele>
        <time>2026-05-09T13:39:14.278Z</time>
      </trkpt>
      <trkpt lat="47.94908" lon="6.93286">
        <ele>1047</ele>
        <time>2026-05-09T13:39:15.277Z</time>
      </trkpt>
      <trkpt lat="47.94909" lon="6.93287">
        <ele>1047</ele>
        <time>2026-05-09T13:39:16.278Z</time>
      </trkpt>
      <trkpt lat="47.9491" lon="6.93287">
        <ele>1047</ele>
        <time>2026-05-09T13:39:17.277Z</time>
      </trkpt>
      <trkpt lat="47.9491" lon="6.9329">
        <ele>1047</ele>
        <time>2026-05-09T13:39:18.278Z</time>
      </trkpt>
      <trkpt lat="47.9491" lon="6.93292">
        <ele>1047</ele>
        <time>2026-05-09T13:39:19.277Z</time>
      </trkpt>
      <trkpt lat="47.94911" lon="6.93293">
        <ele>1046</ele>
        <time>2026-05-09T13:39:20.277Z</time>
      </trkpt>
      <trkpt lat="47.94911" lon="6.93295">
        <ele>1046</ele>
        <time>2026-05-09T13:39:21.278Z</time>
      </trkpt>
      <trkpt lat="47.94911" lon="6.93296">
        <ele>1046</ele>
        <time>2026-05-09T13:39:22.277Z</time>
      </trkpt>
      <trkpt lat="47.94912" lon="6.93298">
        <ele>1046</ele>
        <time>2026-05-09T13:39:23.278Z</time>
      </trkpt>
      <trkpt lat="47.94913" lon="6.93299">
        <ele>1045</ele>
        <time>2026-05-09T13:39:24.277Z</time>
      </trkpt>
      <trkpt lat="47.94914" lon="6.933">
        <ele>1045</ele>
        <time>2026-05-09T13:39:25.278Z</time>
      </trkpt>
      <trkpt lat="47.94916" lon="6.93302">
        <ele>1045</ele>
        <time>2026-05-09T13:39:26.277Z</time>
      </trkpt>
      <trkpt lat="47.94916" lon="6.93303">
        <ele>1045</ele>
        <time>2026-05-09T13:39:27.278Z</time>
      </trkpt>
      <trkpt lat="47.94917" lon="6.93305">
        <ele>1044</ele>
        <time>2026-05-09T13:39:28.277Z</time>
      </trkpt>
      <trkpt lat="47.94917" lon="6.93307">
        <ele>1044</ele>
        <time>2026-05-09T13:39:29.278Z</time>
      </trkpt>
      <trkpt lat="47.94918" lon="6.93308">
        <ele>1044</ele>
        <time>2026-05-09T13:39:30.277Z</time>
      </trkpt>
      <trkpt lat="47.94919" lon="6.9331">
        <ele>1044</ele>
        <time>2026-05-09T13:39:31.278Z</time>
      </trkpt>
      <trkpt lat="47.94919" lon="6.93311">
        <ele>1044</ele>
        <time>2026-05-09T13:39:32.277Z</time>
      </trkpt>
      <trkpt lat="47.94919" lon="6.93314">
        <ele>1044</ele>
        <time>2026-05-09T13:39:33.278Z</time>
      </trkpt>
      <trkpt lat="47.9492" lon="6.93316">
        <ele>1044</ele>
        <time>2026-05-09T13:39:34.277Z</time>
      </trkpt>
      <trkpt lat="47.94921" lon="6.93318">
        <ele>1044</ele>
        <time>2026-05-09T13:39:35.277Z</time>
      </trkpt>
      <trkpt lat="47.94921" lon="6.9332">
        <ele>1044</ele>
        <time>2026-05-09T13:39:36.278Z</time>
      </trkpt>
      <trkpt lat="47.94922" lon="6.93321">
        <ele>1044</ele>
        <time>2026-05-09T13:39:37.277Z</time>
      </trkpt>
      <trkpt lat="47.94924" lon="6.93322">
        <ele>1044</ele>
        <time>2026-05-09T13:39:38.277Z</time>
      </trkpt>
      <trkpt lat="47.94925" lon="6.93324">
        <ele>1044</ele>
        <time>2026-05-09T13:39:39.277Z</time>
      </trkpt>
      <trkpt lat="47.94926" lon="6.93326">
        <ele>1044</ele>
        <time>2026-05-09T13:39:40.278Z</time>
      </trkpt>
      <trkpt lat="47.94927" lon="6.93327">
        <ele>1044</ele>
        <time>2026-05-09T13:39:41.277Z</time>
      </trkpt>
      <trkpt lat="47.94928" lon="6.93329">
        <ele>1043</ele>
        <time>2026-05-09T13:39:42.278Z</time>
      </trkpt>
      <trkpt lat="47.94929" lon="6.9333">
        <ele>1043</ele>
        <time>2026-05-09T13:39:43.277Z</time>
      </trkpt>
      <trkpt lat="47.9493" lon="6.93332">
        <ele>1043</ele>
        <time>2026-05-09T13:39:44.278Z</time>
      </trkpt>
      <trkpt lat="47.94931" lon="6.93334">
        <ele>1043</ele>
        <time>2026-05-09T13:39:45.277Z</time>
      </trkpt>
      <trkpt lat="47.94932" lon="6.93336">
        <ele>1042</ele>
        <time>2026-05-09T13:39:46.278Z</time>
      </trkpt>
      <trkpt lat="47.94933" lon="6.93338">
        <ele>1042</ele>
        <time>2026-05-09T13:39:47.277Z</time>
      </trkpt>
      <trkpt lat="47.94934" lon="6.9334">
        <ele>1042</ele>
        <time>2026-05-09T13:39:48.277Z</time>
      </trkpt>
      <trkpt lat="47.94935" lon="6.93342">
        <ele>1041</ele>
        <time>2026-05-09T13:39:49.277Z</time>
      </trkpt>
      <trkpt lat="47.94935" lon="6.93345">
        <ele>1041</ele>
        <time>2026-05-09T13:39:50.278Z</time>
      </trkpt>
      <trkpt lat="47.94936" lon="6.93346">
        <ele>1041</ele>
        <time>2026-05-09T13:39:51.277Z</time>
      </trkpt>
      <trkpt lat="47.94936" lon="6.93348">
        <ele>1041</ele>
        <time>2026-05-09T13:39:52.278Z</time>
      </trkpt>
      <trkpt lat="47.94936" lon="6.93351">
        <ele>1040</ele>
        <time>2026-05-09T13:39:53.277Z</time>
      </trkpt>
      <trkpt lat="47.94937" lon="6.93353">
        <ele>1040</ele>
        <time>2026-05-09T13:39:54.278Z</time>
      </trkpt>
      <trkpt lat="47.94938" lon="6.93356">
        <ele>1040</ele>
        <time>2026-05-09T13:39:55.277Z</time>
      </trkpt>
      <trkpt lat="47.94938" lon="6.93358">
        <ele>1040</ele>
        <time>2026-05-09T13:39:56.278Z</time>
      </trkpt>
      <trkpt lat="47.94938" lon="6.9336">
        <ele>1040</ele>
        <time>2026-05-09T13:39:57.278Z</time>
      </trkpt>
      <trkpt lat="47.94937" lon="6.93362">
        <ele>1041</ele>
        <time>2026-05-09T13:39:58.278Z</time>
      </trkpt>
      <trkpt lat="47.94935" lon="6.93365">
        <ele>1040</ele>
        <time>2026-05-09T13:39:59.277Z</time>
      </trkpt>
      <trkpt lat="47.94934" lon="6.93368">
        <ele>1040</ele>
        <time>2026-05-09T13:40:00.278Z</time>
      </trkpt>
      <trkpt lat="47.94933" lon="6.93371">
        <ele>1040</ele>
        <time>2026-05-09T13:40:01.278Z</time>
      </trkpt>
      <trkpt lat="47.94933" lon="6.93374">
        <ele>1040</ele>
        <time>2026-05-09T13:40:02.277Z</time>
      </trkpt>
      <trkpt lat="47.94933" lon="6.93377">
        <ele>1039</ele>
        <time>2026-05-09T13:40:03.278Z</time>
      </trkpt>
      <trkpt lat="47.94933" lon="6.9338">
        <ele>1039</ele>
        <time>2026-05-09T13:40:04.277Z</time>
      </trkpt>
      <trkpt lat="47.94935" lon="6.93383">
        <ele>1039</ele>
        <time>2026-05-09T13:40:05.278Z</time>
      </trkpt>
      <trkpt lat="47.94937" lon="6.93387">
        <ele>1039</ele>
        <time>2026-05-09T13:40:06.277Z</time>
      </trkpt>
      <trkpt lat="47.94937" lon="6.93391">
        <ele>1039</ele>
        <time>2026-05-09T13:40:07.278Z</time>
      </trkpt>
      <trkpt lat="47.94938" lon="6.93395">
        <ele>1039</ele>
        <time>2026-05-09T13:40:08.277Z</time>
      </trkpt>
      <trkpt lat="47.94938" lon="6.93399">
        <ele>1039</ele>
        <time>2026-05-09T13:40:09.277Z</time>
      </trkpt>
      <trkpt lat="47.94939" lon="6.93402">
        <ele>1039</ele>
        <time>2026-05-09T13:40:10.277Z</time>
      </trkpt>
      <trkpt lat="47.9494" lon="6.93406">
        <ele>1039</ele>
        <time>2026-05-09T13:40:11.278Z</time>
      </trkpt>
      <trkpt lat="47.94941" lon="6.9341">
        <ele>1038</ele>
        <time>2026-05-09T13:40:12.278Z</time>
      </trkpt>
      <trkpt lat="47.94941" lon="6.93414">
        <ele>1038</ele>
        <time>2026-05-09T13:40:13.277Z</time>
      </trkpt>
      <trkpt lat="47.94943" lon="6.93418">
        <ele>1038</ele>
        <time>2026-05-09T13:40:14.277Z</time>
      </trkpt>
      <trkpt lat="47.94943" lon="6.93422">
        <ele>1038</ele>
        <time>2026-05-09T13:40:15.277Z</time>
      </trkpt>
      <trkpt lat="47.94944" lon="6.93427">
        <ele>1038</ele>
        <time>2026-05-09T13:40:16.278Z</time>
      </trkpt>
      <trkpt lat="47.94944" lon="6.93431">
        <ele>1038</ele>
        <time>2026-05-09T13:40:17.277Z</time>
      </trkpt>
      <trkpt lat="47.94944" lon="6.93435">
        <ele>1037</ele>
        <time>2026-05-09T13:40:18.278Z</time>
      </trkpt>
      <trkpt lat="47.94944" lon="6.93439">
        <ele>1036</ele>
        <time>2026-05-09T13:40:19.277Z</time>
      </trkpt>
      <trkpt lat="47.94945" lon="6.93442">
        <ele>1035</ele>
        <time>2026-05-09T13:40:20.278Z</time>
      </trkpt>
      <trkpt lat="47.94945" lon="6.93444">
        <ele>1035</ele>
        <time>2026-05-09T13:40:21.277Z</time>
      </trkpt>
      <trkpt lat="47.94946" lon="6.93447">
        <ele>1034</ele>
        <time>2026-05-09T13:40:22.277Z</time>
      </trkpt>
      <trkpt lat="47.94946" lon="6.9345">
        <ele>1033</ele>
        <time>2026-05-09T13:40:23.278Z</time>
      </trkpt>
      <trkpt lat="47.94947" lon="6.93453">
        <ele>1032</ele>
        <time>2026-05-09T13:40:24.277Z</time>
      </trkpt>
      <trkpt lat="47.94947" lon="6.93456">
        <ele>1031</ele>
        <time>2026-05-09T13:40:25.278Z</time>
      </trkpt>
      <trkpt lat="47.94947" lon="6.9346">
        <ele>1031</ele>
        <time>2026-05-09T13:40:26.277Z</time>
      </trkpt>
      <trkpt lat="47.94947" lon="6.93463">
        <ele>1030</ele>
        <time>2026-05-09T13:40:27.278Z</time>
      </trkpt>
      <trkpt lat="47.94947" lon="6.93465">
        <ele>1029</ele>
        <time>2026-05-09T13:40:28.277Z</time>
      </trkpt>
      <trkpt lat="47.94947" lon="6.93467">
        <ele>1029</ele>
        <time>2026-05-09T13:40:29.278Z</time>
      </trkpt>
      <trkpt lat="47.94947" lon="6.9347">
        <ele>1028</ele>
        <time>2026-05-09T13:40:30.278Z</time>
      </trkpt>
      <trkpt lat="47.94946" lon="6.93472">
        <ele>1027</ele>
        <time>2026-05-09T13:40:31.278Z</time>
      </trkpt>
      <trkpt lat="47.94945" lon="6.93474">
        <ele>1027</ele>
        <time>2026-05-09T13:40:32.277Z</time>
      </trkpt>
      <trkpt lat="47.94945" lon="6.93477">
        <ele>1026</ele>
        <time>2026-05-09T13:40:33.278Z</time>
      </trkpt>
      <trkpt lat="47.94946" lon="6.9348">
        <ele>1025</ele>
        <time>2026-05-09T13:40:34.278Z</time>
      </trkpt>
      <trkpt lat="47.94946" lon="6.93482">
        <ele>1025</ele>
        <time>2026-05-09T13:40:35.277Z</time>
      </trkpt>
      <trkpt lat="47.94946" lon="6.93484">
        <ele>1024</ele>
        <time>2026-05-09T13:40:36.278Z</time>
      </trkpt>
      <trkpt lat="47.94946" lon="6.93486">
        <ele>1024</ele>
        <time>2026-05-09T13:40:37.277Z</time>
      </trkpt>
      <trkpt lat="47.94947" lon="6.93488">
        <ele>1023</ele>
        <time>2026-05-09T13:40:38.277Z</time>
      </trkpt>
      <trkpt lat="47.94947" lon="6.93489">
        <ele>1023</ele>
        <time>2026-05-09T13:40:39.278Z</time>
      </trkpt>
      <trkpt lat="47.94948" lon="6.93492">
        <ele>1022</ele>
        <time>2026-05-09T13:40:40.277Z</time>
      </trkpt>
      <trkpt lat="47.94949" lon="6.93494">
        <ele>1022</ele>
        <time>2026-05-09T13:40:41.277Z</time>
      </trkpt>
      <trkpt lat="47.94948" lon="6.93496">
        <ele>1022</ele>
        <time>2026-05-09T13:40:42.277Z</time>
      </trkpt>
      <trkpt lat="47.94947" lon="6.93498">
        <ele>1021</ele>
        <time>2026-05-09T13:40:43.278Z</time>
      </trkpt>
      <trkpt lat="47.94946" lon="6.93498">
        <ele>1021</ele>
        <time>2026-05-09T13:40:44.277Z</time>
      </trkpt>
      <trkpt lat="47.94946" lon="6.93498">
        <ele>1020</ele>
        <time>2026-05-09T13:40:45.278Z</time>
      </trkpt>
      <trkpt lat="47.94946" lon="6.93498">
        <ele>1020</ele>
        <time>2026-05-09T13:40:46.277Z</time>
      </trkpt>
      <trkpt lat="47.94946" lon="6.93499">
        <ele>1019</ele>
        <time>2026-05-09T13:40:47.277Z</time>
      </trkpt>
      <trkpt lat="47.94945" lon="6.935">
        <ele>1019</ele>
        <time>2026-05-09T13:40:48.278Z</time>
      </trkpt>
      <trkpt lat="47.94945" lon="6.93501">
        <ele>1018</ele>
        <time>2026-05-09T13:40:49.277Z</time>
      </trkpt>
      <trkpt lat="47.94946" lon="6.93502">
        <ele>1017</ele>
        <time>2026-05-09T13:40:50.277Z</time>
      </trkpt>
      <trkpt lat="47.94948" lon="6.93504">
        <ele>1017</ele>
        <time>2026-05-09T13:40:51.277Z</time>
      </trkpt>
      <trkpt lat="47.94948" lon="6.93505">
        <ele>1017</ele>
        <time>2026-05-09T13:40:52.278Z</time>
      </trkpt>
      <trkpt lat="47.94948" lon="6.93507">
        <ele>1016</ele>
        <time>2026-05-09T13:40:53.278Z</time>
      </trkpt>
      <trkpt lat="47.94948" lon="6.93509">
        <ele>1016</ele>
        <time>2026-05-09T13:40:54.278Z</time>
      </trkpt>
      <trkpt lat="47.94948" lon="6.93511">
        <ele>1015</ele>
        <time>2026-05-09T13:40:55.278Z</time>
      </trkpt>
      <trkpt lat="47.94948" lon="6.93513">
        <ele>1015</ele>
        <time>2026-05-09T13:40:56.277Z</time>
      </trkpt>
      <trkpt lat="47.94948" lon="6.93515">
        <ele>1014</ele>
        <time>2026-05-09T13:40:57.278Z</time>
      </trkpt>
      <trkpt lat="47.94948" lon="6.93517">
        <ele>1014</ele>
        <time>2026-05-09T13:40:58.277Z</time>
      </trkpt>
      <trkpt lat="47.94948" lon="6.93519">
        <ele>1014</ele>
        <time>2026-05-09T13:40:59.278Z</time>
      </trkpt>
      <trkpt lat="47.94949" lon="6.93521">
        <ele>1013</ele>
        <time>2026-05-09T13:41:00.278Z</time>
      </trkpt>
      <trkpt lat="47.94949" lon="6.93524">
        <ele>1013</ele>
        <time>2026-05-09T13:41:01.277Z</time>
      </trkpt>
      <trkpt lat="47.9495" lon="6.93525">
        <ele>1013</ele>
        <time>2026-05-09T13:41:02.278Z</time>
      </trkpt>
      <trkpt lat="47.9495" lon="6.93527">
        <ele>1013</ele>
        <time>2026-05-09T13:41:03.277Z</time>
      </trkpt>
      <trkpt lat="47.9495" lon="6.93528">
        <ele>1013</ele>
        <time>2026-05-09T13:41:04.278Z</time>
      </trkpt>
      <trkpt lat="47.9495" lon="6.93529">
        <ele>1013</ele>
        <time>2026-05-09T13:41:05.277Z</time>
      </trkpt>
      <trkpt lat="47.94949" lon="6.93532">
        <ele>1013</ele>
        <time>2026-05-09T13:41:06.277Z</time>
      </trkpt>
      <trkpt lat="47.94948" lon="6.93535">
        <ele>1012</ele>
        <time>2026-05-09T13:41:07.278Z</time>
      </trkpt>
      <trkpt lat="47.94947" lon="6.93538">
        <ele>1012</ele>
        <time>2026-05-09T13:41:08.278Z</time>
      </trkpt>
      <trkpt lat="47.94945" lon="6.93541">
        <ele>1011</ele>
        <time>2026-05-09T13:41:09.278Z</time>
      </trkpt>
      <trkpt lat="47.94943" lon="6.93544">
        <ele>1011</ele>
        <time>2026-05-09T13:41:10.277Z</time>
      </trkpt>
      <trkpt lat="47.94942" lon="6.93547">
        <ele>1011</ele>
        <time>2026-05-09T13:41:11.278Z</time>
      </trkpt>
      <trkpt lat="47.9494" lon="6.9355">
        <ele>1011</ele>
        <time>2026-05-09T13:41:12.277Z</time>
      </trkpt>
      <trkpt lat="47.9494" lon="6.93554">
        <ele>1011</ele>
        <time>2026-05-09T13:41:13.278Z</time>
      </trkpt>
      <trkpt lat="47.94939" lon="6.93557">
        <ele>1011</ele>
        <time>2026-05-09T13:41:14.277Z</time>
      </trkpt>
      <trkpt lat="47.94938" lon="6.93559">
        <ele>1011</ele>
        <time>2026-05-09T13:41:15.278Z</time>
      </trkpt>
      <trkpt lat="47.94937" lon="6.93562">
        <ele>1011</ele>
        <time>2026-05-09T13:41:16.278Z</time>
      </trkpt>
      <trkpt lat="47.94935" lon="6.93565">
        <ele>1010</ele>
        <time>2026-05-09T13:41:17.277Z</time>
      </trkpt>
      <trkpt lat="47.94934" lon="6.93568">
        <ele>1010</ele>
        <time>2026-05-09T13:41:18.278Z</time>
      </trkpt>
      <trkpt lat="47.94934" lon="6.93569">
        <ele>1010</ele>
        <time>2026-05-09T13:41:19.277Z</time>
      </trkpt>
      <trkpt lat="47.94933" lon="6.93571">
        <ele>1009</ele>
        <time>2026-05-09T13:41:20.278Z</time>
      </trkpt>
      <trkpt lat="47.94932" lon="6.93573">
        <ele>1009</ele>
        <time>2026-05-09T13:41:21.277Z</time>
      </trkpt>
      <trkpt lat="47.94931" lon="6.93575">
        <ele>1008</ele>
        <time>2026-05-09T13:41:22.277Z</time>
      </trkpt>
      <trkpt lat="47.9493" lon="6.93578">
        <ele>1008</ele>
        <time>2026-05-09T13:41:23.278Z</time>
      </trkpt>
      <trkpt lat="47.94928" lon="6.93579">
        <ele>1007</ele>
        <time>2026-05-09T13:41:24.277Z</time>
      </trkpt>
      <trkpt lat="47.94927" lon="6.93581">
        <ele>1007</ele>
        <time>2026-05-09T13:41:25.278Z</time>
      </trkpt>
      <trkpt lat="47.94925" lon="6.93584">
        <ele>1006</ele>
        <time>2026-05-09T13:41:26.277Z</time>
      </trkpt>
      <trkpt lat="47.94924" lon="6.93586">
        <ele>1006</ele>
        <time>2026-05-09T13:41:27.278Z</time>
      </trkpt>
      <trkpt lat="47.94922" lon="6.93589">
        <ele>1006</ele>
        <time>2026-05-09T13:41:28.277Z</time>
      </trkpt>
      <trkpt lat="47.94921" lon="6.93592">
        <ele>1006</ele>
        <time>2026-05-09T13:41:29.277Z</time>
      </trkpt>
      <trkpt lat="47.94919" lon="6.93595">
        <ele>1006</ele>
        <time>2026-05-09T13:41:30.278Z</time>
      </trkpt>
      <trkpt lat="47.94917" lon="6.93597">
        <ele>1005</ele>
        <time>2026-05-09T13:41:31.277Z</time>
      </trkpt>
      <trkpt lat="47.94916" lon="6.93599">
        <ele>1005</ele>
        <time>2026-05-09T13:41:32.278Z</time>
      </trkpt>
      <trkpt lat="47.94916" lon="6.936">
        <ele>1005</ele>
        <time>2026-05-09T13:41:33.277Z</time>
      </trkpt>
      <trkpt lat="47.94915" lon="6.93602">
        <ele>1005</ele>
        <time>2026-05-09T13:41:34.277Z</time>
      </trkpt>
      <trkpt lat="47.94914" lon="6.93603">
        <ele>1005</ele>
        <time>2026-05-09T13:41:35.278Z</time>
      </trkpt>
      <trkpt lat="47.94913" lon="6.93605">
        <ele>1004</ele>
        <time>2026-05-09T13:41:36.277Z</time>
      </trkpt>
      <trkpt lat="47.94911" lon="6.93606">
        <ele>1004</ele>
        <time>2026-05-09T13:41:37.278Z</time>
      </trkpt>
      <trkpt lat="47.9491" lon="6.93608">
        <ele>1004</ele>
        <time>2026-05-09T13:41:38.277Z</time>
      </trkpt>
      <trkpt lat="47.94909" lon="6.93609">
        <ele>1003</ele>
        <time>2026-05-09T13:41:39.278Z</time>
      </trkpt>
      <trkpt lat="47.94908" lon="6.9361">
        <ele>1003</ele>
        <time>2026-05-09T13:41:40.277Z</time>
      </trkpt>
      <trkpt lat="47.94907" lon="6.93611">
        <ele>1002</ele>
        <time>2026-05-09T13:41:41.278Z</time>
      </trkpt>
      <trkpt lat="47.94906" lon="6.93611">
        <ele>1002</ele>
        <time>2026-05-09T13:41:42.278Z</time>
      </trkpt>
      <trkpt lat="47.94905" lon="6.93612">
        <ele>1001</ele>
        <time>2026-05-09T13:41:43.278Z</time>
      </trkpt>
      <trkpt lat="47.94904" lon="6.93613">
        <ele>1001</ele>
        <time>2026-05-09T13:41:44.278Z</time>
      </trkpt>
      <trkpt lat="47.94903" lon="6.93614">
        <ele>1000</ele>
        <time>2026-05-09T13:41:45.277Z</time>
      </trkpt>
      <trkpt lat="47.94902" lon="6.93616">
        <ele>1000</ele>
        <time>2026-05-09T13:41:46.278Z</time>
      </trkpt>
      <trkpt lat="47.949" lon="6.93617">
        <ele>999</ele>
        <time>2026-05-09T13:41:47.277Z</time>
      </trkpt>
      <trkpt lat="47.949" lon="6.93619">
        <ele>999</ele>
        <time>2026-05-09T13:41:48.278Z</time>
      </trkpt>
      <trkpt lat="47.94899" lon="6.9362">
        <ele>999</ele>
        <time>2026-05-09T13:41:49.277Z</time>
      </trkpt>
      <trkpt lat="47.94898" lon="6.93623">
        <ele>998</ele>
        <time>2026-05-09T13:41:50.277Z</time>
      </trkpt>
      <trkpt lat="47.94897" lon="6.93625">
        <ele>998</ele>
        <time>2026-05-09T13:41:51.278Z</time>
      </trkpt>
      <trkpt lat="47.94896" lon="6.93628">
        <ele>998</ele>
        <time>2026-05-09T13:41:52.277Z</time>
      </trkpt>
      <trkpt lat="47.94895" lon="6.93631">
        <ele>998</ele>
        <time>2026-05-09T13:41:53.278Z</time>
      </trkpt>
      <trkpt lat="47.94895" lon="6.93634">
        <ele>998</ele>
        <time>2026-05-09T13:41:54.277Z</time>
      </trkpt>
      <trkpt lat="47.94894" lon="6.93636">
        <ele>998</ele>
        <time>2026-05-09T13:41:55.278Z</time>
      </trkpt>
      <trkpt lat="47.94893" lon="6.93637">
        <ele>997</ele>
        <time>2026-05-09T13:41:56.277Z</time>
      </trkpt>
      <trkpt lat="47.94891" lon="6.93638">
        <ele>997</ele>
        <time>2026-05-09T13:41:57.278Z</time>
      </trkpt>
      <trkpt lat="47.9489" lon="6.93639">
        <ele>997</ele>
        <time>2026-05-09T13:41:58.277Z</time>
      </trkpt>
      <trkpt lat="47.94889" lon="6.9364">
        <ele>996</ele>
        <time>2026-05-09T13:41:59.278Z</time>
      </trkpt>
      <trkpt lat="47.94888" lon="6.93642">
        <ele>996</ele>
        <time>2026-05-09T13:42:00.278Z</time>
      </trkpt>
      <trkpt lat="47.94887" lon="6.93644">
        <ele>995</ele>
        <time>2026-05-09T13:42:01.277Z</time>
      </trkpt>
      <trkpt lat="47.94887" lon="6.93645">
        <ele>995</ele>
        <time>2026-05-09T13:42:02.277Z</time>
      </trkpt>
      <trkpt lat="47.94886" lon="6.93647">
        <ele>994</ele>
        <time>2026-05-09T13:42:03.277Z</time>
      </trkpt>
      <trkpt lat="47.94885" lon="6.93649">
        <ele>994</ele>
        <time>2026-05-09T13:42:04.278Z</time>
      </trkpt>
      <trkpt lat="47.94884" lon="6.9365">
        <ele>994</ele>
        <time>2026-05-09T13:42:05.278Z</time>
      </trkpt>
      <trkpt lat="47.94883" lon="6.93652">
        <ele>994</ele>
        <time>2026-05-09T13:42:06.277Z</time>
      </trkpt>
      <trkpt lat="47.94883" lon="6.93654">
        <ele>994</ele>
        <time>2026-05-09T13:42:07.277Z</time>
      </trkpt>
      <trkpt lat="47.94882" lon="6.93655">
        <ele>994</ele>
        <time>2026-05-09T13:42:08.278Z</time>
      </trkpt>
      <trkpt lat="47.94882" lon="6.93657">
        <ele>995</ele>
        <time>2026-05-09T13:42:09.277Z</time>
      </trkpt>
      <trkpt lat="47.94882" lon="6.93659">
        <ele>995</ele>
        <time>2026-05-09T13:42:10.278Z</time>
      </trkpt>
      <trkpt lat="47.94881" lon="6.93661">
        <ele>995</ele>
        <time>2026-05-09T13:42:11.278Z</time>
      </trkpt>
      <trkpt lat="47.9488" lon="6.93663">
        <ele>995</ele>
        <time>2026-05-09T13:42:12.277Z</time>
      </trkpt>
      <trkpt lat="47.94879" lon="6.93664">
        <ele>995</ele>
        <time>2026-05-09T13:42:13.278Z</time>
      </trkpt>
      <trkpt lat="47.94876" lon="6.93666">
        <ele>994</ele>
        <time>2026-05-09T13:42:14.277Z</time>
      </trkpt>
      <trkpt lat="47.94874" lon="6.93667">
        <ele>994</ele>
        <time>2026-05-09T13:42:15.278Z</time>
      </trkpt>
      <trkpt lat="47.94874" lon="6.93669">
        <ele>993</ele>
        <time>2026-05-09T13:42:16.278Z</time>
      </trkpt>
      <trkpt lat="47.94874" lon="6.93671">
        <ele>993</ele>
        <time>2026-05-09T13:42:17.277Z</time>
      </trkpt>
      <trkpt lat="47.94873" lon="6.93674">
        <ele>993</ele>
        <time>2026-05-09T13:42:18.278Z</time>
      </trkpt>
      <trkpt lat="47.94872" lon="6.93676">
        <ele>992</ele>
        <time>2026-05-09T13:42:19.277Z</time>
      </trkpt>
      <trkpt lat="47.9487" lon="6.93678">
        <ele>992</ele>
        <time>2026-05-09T13:42:20.278Z</time>
      </trkpt>
      <trkpt lat="47.94869" lon="6.93679">
        <ele>992</ele>
        <time>2026-05-09T13:42:21.278Z</time>
      </trkpt>
      <trkpt lat="47.94867" lon="6.93681">
        <ele>991</ele>
        <time>2026-05-09T13:42:22.277Z</time>
      </trkpt>
      <trkpt lat="47.94866" lon="6.93683">
        <ele>991</ele>
        <time>2026-05-09T13:42:23.278Z</time>
      </trkpt>
      <trkpt lat="47.94865" lon="6.93685">
        <ele>991</ele>
        <time>2026-05-09T13:42:24.277Z</time>
      </trkpt>
      <trkpt lat="47.94864" lon="6.93687">
        <ele>990</ele>
        <time>2026-05-09T13:42:25.277Z</time>
      </trkpt>
      <trkpt lat="47.94863" lon="6.93689">
        <ele>990</ele>
        <time>2026-05-09T13:42:26.278Z</time>
      </trkpt>
      <trkpt lat="47.94862" lon="6.93691">
        <ele>990</ele>
        <time>2026-05-09T13:42:27.277Z</time>
      </trkpt>
      <trkpt lat="47.94861" lon="6.93693">
        <ele>989</ele>
        <time>2026-05-09T13:42:28.278Z</time>
      </trkpt>
      <trkpt lat="47.94861" lon="6.93694">
        <ele>988</ele>
        <time>2026-05-09T13:42:29.278Z</time>
      </trkpt>
      <trkpt lat="47.94859" lon="6.93697">
        <ele>987</ele>
        <time>2026-05-09T13:42:30.277Z</time>
      </trkpt>
      <trkpt lat="47.94857" lon="6.93699">
        <ele>987</ele>
        <time>2026-05-09T13:42:31.278Z</time>
      </trkpt>
      <trkpt lat="47.94856" lon="6.93703">
        <ele>986</ele>
        <time>2026-05-09T13:42:32.277Z</time>
      </trkpt>
      <trkpt lat="47.94855" lon="6.93706">
        <ele>986</ele>
        <time>2026-05-09T13:42:33.278Z</time>
      </trkpt>
      <trkpt lat="47.94853" lon="6.93709">
        <ele>985</ele>
        <time>2026-05-09T13:42:34.278Z</time>
      </trkpt>
      <trkpt lat="47.94855" lon="6.93709">
        <ele>985</ele>
        <time>2026-05-09T13:42:35.277Z</time>
      </trkpt>
      <trkpt lat="47.94855" lon="6.93709">
        <ele>985</ele>
        <time>2026-05-09T13:42:36.278Z</time>
      </trkpt>
      <trkpt lat="47.94853" lon="6.93711">
        <ele>984</ele>
        <time>2026-05-09T13:42:37.277Z</time>
      </trkpt>
      <trkpt lat="47.94849" lon="6.93715">
        <ele>984</ele>
        <time>2026-05-09T13:42:38.277Z</time>
      </trkpt>
      <trkpt lat="47.94848" lon="6.93716">
        <ele>984</ele>
        <time>2026-05-09T13:42:39.278Z</time>
      </trkpt>
      <trkpt lat="47.94848" lon="6.93719">
        <ele>983</ele>
        <time>2026-05-09T13:42:40.277Z</time>
      </trkpt>
      <trkpt lat="47.94848" lon="6.93721">
        <ele>983</ele>
        <time>2026-05-09T13:42:41.277Z</time>
      </trkpt>
      <trkpt lat="47.94848" lon="6.93721">
        <ele>982</ele>
        <time>2026-05-09T13:42:42.277Z</time>
      </trkpt>
      <trkpt lat="47.94849" lon="6.93723">
        <ele>982</ele>
        <time>2026-05-09T13:42:43.277Z</time>
      </trkpt>
      <trkpt lat="47.9485" lon="6.93724">
        <ele>981</ele>
        <time>2026-05-09T13:42:44.277Z</time>
      </trkpt>
      <trkpt lat="47.9485" lon="6.93724">
        <ele>981</ele>
        <time>2026-05-09T13:42:45.278Z</time>
      </trkpt>
      <trkpt lat="47.9485" lon="6.93726">
        <ele>980</ele>
        <time>2026-05-09T13:42:46.278Z</time>
      </trkpt>
      <trkpt lat="47.94848" lon="6.93728">
        <ele>980</ele>
        <time>2026-05-09T13:42:47.278Z</time>
      </trkpt>
      <trkpt lat="47.94846" lon="6.9373">
        <ele>980</ele>
        <time>2026-05-09T13:42:48.277Z</time>
      </trkpt>
      <trkpt lat="47.94845" lon="6.93733">
        <ele>980</ele>
        <time>2026-05-09T13:42:49.277Z</time>
      </trkpt>
      <trkpt lat="47.94841" lon="6.93737">
        <ele>979</ele>
        <time>2026-05-09T13:42:50.278Z</time>
      </trkpt>
      <trkpt lat="47.94838" lon="6.93739">
        <ele>979</ele>
        <time>2026-05-09T13:42:51.277Z</time>
      </trkpt>
      <trkpt lat="47.94837" lon="6.93739">
        <ele>978</ele>
        <time>2026-05-09T13:42:52.277Z</time>
      </trkpt>
      <trkpt lat="47.94837" lon="6.93739">
        <ele>978</ele>
        <time>2026-05-09T13:42:53.278Z</time>
      </trkpt>
      <trkpt lat="47.94837" lon="6.93739">
        <ele>978</ele>
        <time>2026-05-09T13:42:54.277Z</time>
      </trkpt>
      <trkpt lat="47.94835" lon="6.93749">
        <ele>978</ele>
        <time>2026-05-09T13:43:00.678Z</time>
      </trkpt>
      <trkpt lat="47.94834" lon="6.93751">
        <ele>978</ele>
        <time>2026-05-09T13:43:01.678Z</time>
      </trkpt>
      <trkpt lat="47.94832" lon="6.93753">
        <ele>978</ele>
        <time>2026-05-09T13:43:02.678Z</time>
      </trkpt>
      <trkpt lat="47.94831" lon="6.93755">
        <ele>978</ele>
        <time>2026-05-09T13:43:03.678Z</time>
      </trkpt>
      <trkpt lat="47.9483" lon="6.93757">
        <ele>978</ele>
        <time>2026-05-09T13:43:04.678Z</time>
      </trkpt>
      <trkpt lat="47.94829" lon="6.93759">
        <ele>978</ele>
        <time>2026-05-09T13:43:05.678Z</time>
      </trkpt>
      <trkpt lat="47.94828" lon="6.93761">
        <ele>977</ele>
        <time>2026-05-09T13:43:06.678Z</time>
      </trkpt>
      <trkpt lat="47.94827" lon="6.93763">
        <ele>977</ele>
        <time>2026-05-09T13:43:07.678Z</time>
      </trkpt>
      <trkpt lat="47.94826" lon="6.93765">
        <ele>976</ele>
        <time>2026-05-09T13:43:08.679Z</time>
      </trkpt>
      <trkpt lat="47.94825" lon="6.93766">
        <ele>975</ele>
        <time>2026-05-09T13:43:09.678Z</time>
      </trkpt>
      <trkpt lat="47.94824" lon="6.93767">
        <ele>975</ele>
        <time>2026-05-09T13:43:10.679Z</time>
      </trkpt>
      <trkpt lat="47.94824" lon="6.93768">
        <ele>975</ele>
        <time>2026-05-09T13:43:11.678Z</time>
      </trkpt>
      <trkpt lat="47.94823" lon="6.93769">
        <ele>975</ele>
        <time>2026-05-09T13:43:12.678Z</time>
      </trkpt>
      <trkpt lat="47.94822" lon="6.9377">
        <ele>974</ele>
        <time>2026-05-09T13:43:13.678Z</time>
      </trkpt>
      <trkpt lat="47.9482" lon="6.93771">
        <ele>974</ele>
        <time>2026-05-09T13:43:14.678Z</time>
      </trkpt>
      <trkpt lat="47.94819" lon="6.93772">
        <ele>974</ele>
        <time>2026-05-09T13:43:15.678Z</time>
      </trkpt>
      <trkpt lat="47.94817" lon="6.93773">
        <ele>973</ele>
        <time>2026-05-09T13:43:16.678Z</time>
      </trkpt>
      <trkpt lat="47.94816" lon="6.93773">
        <ele>973</ele>
        <time>2026-05-09T13:43:17.679Z</time>
      </trkpt>
      <trkpt lat="47.94815" lon="6.93774">
        <ele>972</ele>
        <time>2026-05-09T13:43:18.678Z</time>
      </trkpt>
      <trkpt lat="47.94814" lon="6.93775">
        <ele>971</ele>
        <time>2026-05-09T13:43:19.678Z</time>
      </trkpt>
      <trkpt lat="47.94813" lon="6.93776">
        <ele>969</ele>
        <time>2026-05-09T13:43:20.678Z</time>
      </trkpt>
      <trkpt lat="47.94812" lon="6.93779">
        <ele>968</ele>
        <time>2026-05-09T13:43:21.678Z</time>
      </trkpt>
      <trkpt lat="47.94811" lon="6.93781">
        <ele>967</ele>
        <time>2026-05-09T13:43:22.678Z</time>
      </trkpt>
      <trkpt lat="47.9481" lon="6.93783">
        <ele>966</ele>
        <time>2026-05-09T13:43:23.678Z</time>
      </trkpt>
      <trkpt lat="47.94809" lon="6.93785">
        <ele>966</ele>
        <time>2026-05-09T13:43:24.679Z</time>
      </trkpt>
      <trkpt lat="47.94809" lon="6.93786">
        <ele>965</ele>
        <time>2026-05-09T13:43:25.678Z</time>
      </trkpt>
      <trkpt lat="47.94809" lon="6.93788">
        <ele>965</ele>
        <time>2026-05-09T13:43:26.678Z</time>
      </trkpt>
      <trkpt lat="47.94808" lon="6.9379">
        <ele>964</ele>
        <time>2026-05-09T13:43:27.679Z</time>
      </trkpt>
      <trkpt lat="47.94808" lon="6.93792">
        <ele>964</ele>
        <time>2026-05-09T13:43:28.678Z</time>
      </trkpt>
      <trkpt lat="47.94807" lon="6.93794">
        <ele>963</ele>
        <time>2026-05-09T13:43:29.678Z</time>
      </trkpt>
      <trkpt lat="47.94807" lon="6.93795">
        <ele>963</ele>
        <time>2026-05-09T13:43:30.679Z</time>
      </trkpt>
      <trkpt lat="47.94805" lon="6.93797">
        <ele>962</ele>
        <time>2026-05-09T13:43:31.679Z</time>
      </trkpt>
      <trkpt lat="47.94805" lon="6.93799">
        <ele>962</ele>
        <time>2026-05-09T13:43:32.678Z</time>
      </trkpt>
      <trkpt lat="47.94804" lon="6.938">
        <ele>961</ele>
        <time>2026-05-09T13:43:33.678Z</time>
      </trkpt>
      <trkpt lat="47.94803" lon="6.93803">
        <ele>961</ele>
        <time>2026-05-09T13:43:34.679Z</time>
      </trkpt>
      <trkpt lat="47.94802" lon="6.93804">
        <ele>960</ele>
        <time>2026-05-09T13:43:35.678Z</time>
      </trkpt>
      <trkpt lat="47.94801" lon="6.93806">
        <ele>960</ele>
        <time>2026-05-09T13:43:36.679Z</time>
      </trkpt>
      <trkpt lat="47.94801" lon="6.93808">
        <ele>960</ele>
        <time>2026-05-09T13:43:37.678Z</time>
      </trkpt>
      <trkpt lat="47.948" lon="6.9381">
        <ele>959</ele>
        <time>2026-05-09T13:43:38.678Z</time>
      </trkpt>
      <trkpt lat="47.94799" lon="6.93811">
        <ele>958</ele>
        <time>2026-05-09T13:43:39.678Z</time>
      </trkpt>
      <trkpt lat="47.94798" lon="6.93813">
        <ele>958</ele>
        <time>2026-05-09T13:43:40.679Z</time>
      </trkpt>
      <trkpt lat="47.94797" lon="6.93815">
        <ele>957</ele>
        <time>2026-05-09T13:43:41.678Z</time>
      </trkpt>
      <trkpt lat="47.94796" lon="6.93816">
        <ele>956</ele>
        <time>2026-05-09T13:43:42.679Z</time>
      </trkpt>
      <trkpt lat="47.94795" lon="6.93818">
        <ele>955</ele>
        <time>2026-05-09T13:43:43.678Z</time>
      </trkpt>
      <trkpt lat="47.94793" lon="6.93819">
        <ele>955</ele>
        <time>2026-05-09T13:43:44.678Z</time>
      </trkpt>
      <trkpt lat="47.94793" lon="6.9382">
        <ele>954</ele>
        <time>2026-05-09T13:43:45.679Z</time>
      </trkpt>
      <trkpt lat="47.94792" lon="6.93823">
        <ele>953</ele>
        <time>2026-05-09T13:43:46.678Z</time>
      </trkpt>
      <trkpt lat="47.94791" lon="6.93825">
        <ele>953</ele>
        <time>2026-05-09T13:43:47.679Z</time>
      </trkpt>
      <trkpt lat="47.94791" lon="6.93827">
        <ele>953</ele>
        <time>2026-05-09T13:43:48.679Z</time>
      </trkpt>
      <trkpt lat="47.9479" lon="6.93829">
        <ele>953</ele>
        <time>2026-05-09T13:43:49.678Z</time>
      </trkpt>
      <trkpt lat="47.9479" lon="6.9383">
        <ele>953</ele>
        <time>2026-05-09T13:43:50.678Z</time>
      </trkpt>
      <trkpt lat="47.9479" lon="6.93832">
        <ele>953</ele>
        <time>2026-05-09T13:43:51.678Z</time>
      </trkpt>
      <trkpt lat="47.9479" lon="6.93833">
        <ele>953</ele>
        <time>2026-05-09T13:43:52.678Z</time>
      </trkpt>
      <trkpt lat="47.9479" lon="6.93835">
        <ele>953</ele>
        <time>2026-05-09T13:43:53.678Z</time>
      </trkpt>
      <trkpt lat="47.9479" lon="6.93837">
        <ele>953</ele>
        <time>2026-05-09T13:43:54.678Z</time>
      </trkpt>
      <trkpt lat="47.9479" lon="6.93839">
        <ele>954</ele>
        <time>2026-05-09T13:43:55.678Z</time>
      </trkpt>
      <trkpt lat="47.94789" lon="6.93842">
        <ele>954</ele>
        <time>2026-05-09T13:43:56.678Z</time>
      </trkpt>
      <trkpt lat="47.94789" lon="6.93844">
        <ele>954</ele>
        <time>2026-05-09T13:43:57.678Z</time>
      </trkpt>
      <trkpt lat="47.94788" lon="6.93846">
        <ele>954</ele>
        <time>2026-05-09T13:43:58.678Z</time>
      </trkpt>
      <trkpt lat="47.94787" lon="6.93849">
        <ele>954</ele>
        <time>2026-05-09T13:43:59.678Z</time>
      </trkpt>
      <trkpt lat="47.94786" lon="6.93852">
        <ele>953</ele>
        <time>2026-05-09T13:44:00.679Z</time>
      </trkpt>
      <trkpt lat="47.94785" lon="6.93854">
        <ele>953</ele>
        <time>2026-05-09T13:44:01.678Z</time>
      </trkpt>
      <trkpt lat="47.94784" lon="6.93856">
        <ele>953</ele>
        <time>2026-05-09T13:44:02.678Z</time>
      </trkpt>
      <trkpt lat="47.94784" lon="6.93859">
        <ele>953</ele>
        <time>2026-05-09T13:44:03.678Z</time>
      </trkpt>
      <trkpt lat="47.94784" lon="6.93862">
        <ele>952</ele>
        <time>2026-05-09T13:44:04.678Z</time>
      </trkpt>
      <trkpt lat="47.94783" lon="6.93865">
        <ele>952</ele>
        <time>2026-05-09T13:44:05.678Z</time>
      </trkpt>
      <trkpt lat="47.94782" lon="6.93867">
        <ele>952</ele>
        <time>2026-05-09T13:44:06.678Z</time>
      </trkpt>
      <trkpt lat="47.94782" lon="6.9387">
        <ele>952</ele>
        <time>2026-05-09T13:44:07.678Z</time>
      </trkpt>
      <trkpt lat="47.94782" lon="6.93873">
        <ele>952</ele>
        <time>2026-05-09T13:44:08.678Z</time>
      </trkpt>
      <trkpt lat="47.94782" lon="6.93875">
        <ele>952</ele>
        <time>2026-05-09T13:44:09.679Z</time>
      </trkpt>
      <trkpt lat="47.94782" lon="6.93878">
        <ele>953</ele>
        <time>2026-05-09T13:44:10.679Z</time>
      </trkpt>
      <trkpt lat="47.94783" lon="6.93881">
        <ele>953</ele>
        <time>2026-05-09T13:44:11.678Z</time>
      </trkpt>
      <trkpt lat="47.94782" lon="6.93884">
        <ele>953</ele>
        <time>2026-05-09T13:44:12.679Z</time>
      </trkpt>
      <trkpt lat="47.94781" lon="6.93886">
        <ele>953</ele>
        <time>2026-05-09T13:44:13.678Z</time>
      </trkpt>
      <trkpt lat="47.94781" lon="6.93888">
        <ele>952</ele>
        <time>2026-05-09T13:44:14.678Z</time>
      </trkpt>
      <trkpt lat="47.9478" lon="6.93891">
        <ele>952</ele>
        <time>2026-05-09T13:44:15.679Z</time>
      </trkpt>
      <trkpt lat="47.9478" lon="6.93894">
        <ele>952</ele>
        <time>2026-05-09T13:44:16.678Z</time>
      </trkpt>
      <trkpt lat="47.9478" lon="6.93897">
        <ele>952</ele>
        <time>2026-05-09T13:44:17.678Z</time>
      </trkpt>
      <trkpt lat="47.9478" lon="6.93898">
        <ele>951</ele>
        <time>2026-05-09T13:44:18.678Z</time>
      </trkpt>
      <trkpt lat="47.9478" lon="6.939">
        <ele>951</ele>
        <time>2026-05-09T13:44:19.679Z</time>
      </trkpt>
      <trkpt lat="47.9478" lon="6.93902">
        <ele>951</ele>
        <time>2026-05-09T13:44:20.678Z</time>
      </trkpt>
      <trkpt lat="47.9478" lon="6.93906">
        <ele>950</ele>
        <time>2026-05-09T13:44:21.679Z</time>
      </trkpt>
      <trkpt lat="47.9478" lon="6.93909">
        <ele>950</ele>
        <time>2026-05-09T13:44:22.678Z</time>
      </trkpt>
      <trkpt lat="47.9478" lon="6.93912">
        <ele>950</ele>
        <time>2026-05-09T13:44:23.678Z</time>
      </trkpt>
      <trkpt lat="47.9478" lon="6.93915">
        <ele>950</ele>
        <time>2026-05-09T13:44:24.679Z</time>
      </trkpt>
      <trkpt lat="47.94781" lon="6.93917">
        <ele>951</ele>
        <time>2026-05-09T13:44:25.678Z</time>
      </trkpt>
      <trkpt lat="47.94781" lon="6.9392">
        <ele>951</ele>
        <time>2026-05-09T13:44:26.678Z</time>
      </trkpt>
      <trkpt lat="47.94781" lon="6.93923">
        <ele>951</ele>
        <time>2026-05-09T13:44:27.679Z</time>
      </trkpt>
      <trkpt lat="47.94781" lon="6.93926">
        <ele>951</ele>
        <time>2026-05-09T13:44:28.678Z</time>
      </trkpt>
      <trkpt lat="47.9478" lon="6.93929">
        <ele>950</ele>
        <time>2026-05-09T13:44:29.679Z</time>
      </trkpt>
      <trkpt lat="47.9478" lon="6.93932">
        <ele>950</ele>
        <time>2026-05-09T13:44:30.678Z</time>
      </trkpt>
      <trkpt lat="47.9478" lon="6.93935">
        <ele>950</ele>
        <time>2026-05-09T13:44:31.679Z</time>
      </trkpt>
      <trkpt lat="47.9478" lon="6.93938">
        <ele>950</ele>
        <time>2026-05-09T13:44:32.679Z</time>
      </trkpt>
      <trkpt lat="47.94781" lon="6.9394">
        <ele>950</ele>
        <time>2026-05-09T13:44:33.678Z</time>
      </trkpt>
      <trkpt lat="47.94781" lon="6.93944">
        <ele>950</ele>
        <time>2026-05-09T13:44:34.679Z</time>
      </trkpt>
      <trkpt lat="47.94781" lon="6.93947">
        <ele>949</ele>
        <time>2026-05-09T13:44:35.678Z</time>
      </trkpt>
      <trkpt lat="47.94782" lon="6.9395">
        <ele>949</ele>
        <time>2026-05-09T13:44:36.679Z</time>
      </trkpt>
      <trkpt lat="47.94783" lon="6.93953">
        <ele>949</ele>
        <time>2026-05-09T13:44:37.678Z</time>
      </trkpt>
      <trkpt lat="47.94784" lon="6.93955">
        <ele>948</ele>
        <time>2026-05-09T13:44:38.678Z</time>
      </trkpt>
      <trkpt lat="47.94785" lon="6.93958">
        <ele>948</ele>
        <time>2026-05-09T13:44:39.678Z</time>
      </trkpt>
      <trkpt lat="47.94786" lon="6.93961">
        <ele>947</ele>
        <time>2026-05-09T13:44:40.679Z</time>
      </trkpt>
      <trkpt lat="47.94787" lon="6.93965">
        <ele>947</ele>
        <time>2026-05-09T13:44:41.678Z</time>
      </trkpt>
      <trkpt lat="47.94787" lon="6.93969">
        <ele>947</ele>
        <time>2026-05-09T13:44:42.679Z</time>
      </trkpt>
      <trkpt lat="47.94788" lon="6.93971">
        <ele>946</ele>
        <time>2026-05-09T13:44:43.678Z</time>
      </trkpt>
      <trkpt lat="47.94788" lon="6.93975">
        <ele>946</ele>
        <time>2026-05-09T13:44:44.679Z</time>
      </trkpt>
      <trkpt lat="47.94787" lon="6.93979">
        <ele>946</ele>
        <time>2026-05-09T13:44:45.679Z</time>
      </trkpt>
      <trkpt lat="47.94787" lon="6.93982">
        <ele>946</ele>
        <time>2026-05-09T13:44:46.679Z</time>
      </trkpt>
      <trkpt lat="47.94787" lon="6.93986">
        <ele>946</ele>
        <time>2026-05-09T13:44:47.678Z</time>
      </trkpt>
      <trkpt lat="47.94787" lon="6.93988">
        <ele>946</ele>
        <time>2026-05-09T13:44:48.678Z</time>
      </trkpt>
      <trkpt lat="47.94787" lon="6.9399">
        <ele>946</ele>
        <time>2026-05-09T13:44:49.678Z</time>
      </trkpt>
      <trkpt lat="47.94787" lon="6.93993">
        <ele>945</ele>
        <time>2026-05-09T13:44:50.678Z</time>
      </trkpt>
      <trkpt lat="47.94786" lon="6.93995">
        <ele>945</ele>
        <time>2026-05-09T13:44:51.678Z</time>
      </trkpt>
      <trkpt lat="47.94785" lon="6.93998">
        <ele>944</ele>
        <time>2026-05-09T13:44:52.679Z</time>
      </trkpt>
      <trkpt lat="47.94785" lon="6.94001">
        <ele>943</ele>
        <time>2026-05-09T13:44:53.679Z</time>
      </trkpt>
      <trkpt lat="47.94785" lon="6.94003">
        <ele>942</ele>
        <time>2026-05-09T13:44:54.678Z</time>
      </trkpt>
      <trkpt lat="47.94785" lon="6.94006">
        <ele>942</ele>
        <time>2026-05-09T13:44:55.679Z</time>
      </trkpt>
      <trkpt lat="47.94786" lon="6.94009">
        <ele>941</ele>
        <time>2026-05-09T13:44:56.679Z</time>
      </trkpt>
      <trkpt lat="47.94786" lon="6.94011">
        <ele>940</ele>
        <time>2026-05-09T13:44:57.679Z</time>
      </trkpt>
      <trkpt lat="47.94786" lon="6.94012">
        <ele>939</ele>
        <time>2026-05-09T13:44:58.678Z</time>
      </trkpt>
      <trkpt lat="47.94786" lon="6.94014">
        <ele>938</ele>
        <time>2026-05-09T13:44:59.679Z</time>
      </trkpt>
      <trkpt lat="47.94786" lon="6.94016">
        <ele>937</ele>
        <time>2026-05-09T13:45:00.678Z</time>
      </trkpt>
      <trkpt lat="47.94785" lon="6.94018">
        <ele>936</ele>
        <time>2026-05-09T13:45:01.679Z</time>
      </trkpt>
      <trkpt lat="47.94785" lon="6.94019">
        <ele>935</ele>
        <time>2026-05-09T13:45:02.678Z</time>
      </trkpt>
      <trkpt lat="47.94784" lon="6.94021">
        <ele>934</ele>
        <time>2026-05-09T13:45:03.678Z</time>
      </trkpt>
      <trkpt lat="47.94784" lon="6.94023">
        <ele>933</ele>
        <time>2026-05-09T13:45:04.679Z</time>
      </trkpt>
      <trkpt lat="47.94783" lon="6.94025">
        <ele>932</ele>
        <time>2026-05-09T13:45:05.678Z</time>
      </trkpt>
      <trkpt lat="47.94783" lon="6.94027">
        <ele>931</ele>
        <time>2026-05-09T13:45:06.678Z</time>
      </trkpt>
      <trkpt lat="47.94783" lon="6.94029">
        <ele>930</ele>
        <time>2026-05-09T13:45:07.678Z</time>
      </trkpt>
      <trkpt lat="47.94783" lon="6.94032">
        <ele>929</ele>
        <time>2026-05-09T13:45:08.678Z</time>
      </trkpt>
      <trkpt lat="47.94784" lon="6.94034">
        <ele>929</ele>
        <time>2026-05-09T13:45:09.679Z</time>
      </trkpt>
      <trkpt lat="47.94785" lon="6.94035">
        <ele>928</ele>
        <time>2026-05-09T13:45:10.678Z</time>
      </trkpt>
      <trkpt lat="47.94785" lon="6.94037">
        <ele>928</ele>
        <time>2026-05-09T13:45:11.679Z</time>
      </trkpt>
      <trkpt lat="47.94786" lon="6.94037">
        <ele>927</ele>
        <time>2026-05-09T13:45:12.678Z</time>
      </trkpt>
      <trkpt lat="47.94786" lon="6.94038">
        <ele>927</ele>
        <time>2026-05-09T13:45:13.678Z</time>
      </trkpt>
      <trkpt lat="47.94787" lon="6.94038">
        <ele>927</ele>
        <time>2026-05-09T13:45:14.678Z</time>
      </trkpt>
      <trkpt lat="47.94787" lon="6.94039">
        <ele>926</ele>
        <time>2026-05-09T13:45:15.678Z</time>
      </trkpt>
      <trkpt lat="47.94787" lon="6.94039">
        <ele>926</ele>
        <time>2026-05-09T13:45:16.678Z</time>
      </trkpt>
      <trkpt lat="47.94786" lon="6.94039">
        <ele>925</ele>
        <time>2026-05-09T13:45:17.678Z</time>
      </trkpt>
      <trkpt lat="47.94785" lon="6.94038">
        <ele>924</ele>
        <time>2026-05-09T13:45:18.678Z</time>
      </trkpt>
      <trkpt lat="47.94784" lon="6.94038">
        <ele>923</ele>
        <time>2026-05-09T13:45:19.678Z</time>
      </trkpt>
      <trkpt lat="47.94784" lon="6.94038">
        <ele>922</ele>
        <time>2026-05-09T13:45:20.678Z</time>
      </trkpt>
      <trkpt lat="47.94784" lon="6.94038">
        <ele>921</ele>
        <time>2026-05-09T13:45:21.678Z</time>
      </trkpt>
      <trkpt lat="47.94784" lon="6.94038">
        <ele>921</ele>
        <time>2026-05-09T13:45:22.678Z</time>
      </trkpt>
      <trkpt lat="47.94783" lon="6.94039">
        <ele>920</ele>
        <time>2026-05-09T13:45:23.678Z</time>
      </trkpt>
      <trkpt lat="47.94783" lon="6.9404">
        <ele>917</ele>
        <time>2026-05-09T13:45:29.069Z</time>
      </trkpt>
      <trkpt lat="47.94782" lon="6.94041">
        <ele>916</ele>
        <time>2026-05-09T13:45:30.068Z</time>
      </trkpt>
      <trkpt lat="47.94782" lon="6.94042">
        <ele>916</ele>
        <time>2026-05-09T13:45:31.069Z</time>
      </trkpt>
      <trkpt lat="47.94782" lon="6.94042">
        <ele>916</ele>
        <time>2026-05-09T13:45:32.068Z</time>
      </trkpt>
      <trkpt lat="47.94782" lon="6.94043">
        <ele>916</ele>
        <time>2026-05-09T13:45:33.068Z</time>
      </trkpt>
      <trkpt lat="47.94782" lon="6.94043">
        <ele>915</ele>
        <time>2026-05-09T13:45:34.068Z</time>
      </trkpt>
      <trkpt lat="47.94782" lon="6.94043">
        <ele>915</ele>
        <time>2026-05-09T13:45:35.068Z</time>
      </trkpt>
      <trkpt lat="47.94782" lon="6.94042">
        <ele>915</ele>
        <time>2026-05-09T13:45:36.069Z</time>
      </trkpt>
      <trkpt lat="47.94782" lon="6.94042">
        <ele>916</ele>
        <time>2026-05-09T13:45:37.069Z</time>
      </trkpt>
      <trkpt lat="47.94782" lon="6.94042">
        <ele>915</ele>
        <time>2026-05-09T13:45:38.069Z</time>
      </trkpt>
      <trkpt lat="47.94782" lon="6.94042">
        <ele>915</ele>
        <time>2026-05-09T13:45:39.069Z</time>
      </trkpt>
      <trkpt lat="47.94782" lon="6.94042">
        <ele>915</ele>
        <time>2026-05-09T13:45:40.069Z</time>
      </trkpt>
      <trkpt lat="47.94782" lon="6.94042">
        <ele>915</ele>
        <time>2026-05-09T13:45:41.068Z</time>
      </trkpt>
      <trkpt lat="47.94782" lon="6.94041">
        <ele>915</ele>
        <time>2026-05-09T13:45:42.068Z</time>
      </trkpt>
      <trkpt lat="47.94782" lon="6.94041">
        <ele>915</ele>
        <time>2026-05-09T13:45:43.069Z</time>
      </trkpt>
      <trkpt lat="47.94782" lon="6.94042">
        <ele>915</ele>
        <time>2026-05-09T13:45:44.068Z</time>
      </trkpt>
      <trkpt lat="47.94782" lon="6.94043">
        <ele>915</ele>
        <time>2026-05-09T13:45:45.069Z</time>
      </trkpt>
      <trkpt lat="47.94781" lon="6.94043">
        <ele>915</ele>
        <time>2026-05-09T13:45:46.068Z</time>
      </trkpt>
      <trkpt lat="47.94781" lon="6.94043">
        <ele>915</ele>
        <time>2026-05-09T13:45:47.069Z</time>
      </trkpt>
      <trkpt lat="47.94781" lon="6.94043">
        <ele>915</ele>
        <time>2026-05-09T13:45:48.068Z</time>
      </trkpt>
      <trkpt lat="47.94781" lon="6.94043">
        <ele>915</ele>
        <time>2026-05-09T13:45:49.069Z</time>
      </trkpt>
      <trkpt lat="47.9478" lon="6.94043">
        <ele>915</ele>
        <time>2026-05-09T13:45:50.068Z</time>
      </trkpt>
      <trkpt lat="47.9478" lon="6.94043">
        <ele>915</ele>
        <time>2026-05-09T13:45:51.068Z</time>
      </trkpt>
      <trkpt lat="47.9478" lon="6.94043">
        <ele>915</ele>
        <time>2026-05-09T13:45:52.069Z</time>
      </trkpt>
      <trkpt lat="47.9478" lon="6.94043">
        <ele>914</ele>
        <time>2026-05-09T13:45:53.068Z</time>
      </trkpt>
      <trkpt lat="47.9478" lon="6.94043">
        <ele>914</ele>
        <time>2026-05-09T13:45:54.068Z</time>
      </trkpt>
      <trkpt lat="47.9478" lon="6.94043">
        <ele>914</ele>
        <time>2026-05-09T13:45:55.068Z</time>
      </trkpt>
      <trkpt lat="47.9478" lon="6.94043">
        <ele>914</ele>
        <time>2026-05-09T13:45:56.068Z</time>
      </trkpt>
      <trkpt lat="47.9478" lon="6.94043">
        <ele>913</ele>
        <time>2026-05-09T13:45:57.068Z</time>
      </trkpt>
      <trkpt lat="47.9478" lon="6.94043">
        <ele>913</ele>
        <time>2026-05-09T13:45:58.069Z</time>
      </trkpt>
      <trkpt lat="47.9478" lon="6.94043">
        <ele>913</ele>
        <time>2026-05-09T13:45:59.068Z</time>
      </trkpt>
      <trkpt lat="47.9478" lon="6.94043">
        <ele>913</ele>
        <time>2026-05-09T13:46:00.068Z</time>
      </trkpt>
      <trkpt lat="47.9478" lon="6.94043">
        <ele>913</ele>
        <time>2026-05-09T13:46:01.068Z</time>
      </trkpt>
      <trkpt lat="47.9478" lon="6.94043">
        <ele>913</ele>
        <time>2026-05-09T13:46:02.068Z</time>
      </trkpt>
      <trkpt lat="47.9478" lon="6.94043">
        <ele>914</ele>
        <time>2026-05-09T13:46:03.069Z</time>
      </trkpt>
      <trkpt lat="47.94781" lon="6.94043">
        <ele>914</ele>
        <time>2026-05-09T13:46:04.069Z</time>
      </trkpt>
      <trkpt lat="47.94783" lon="6.94043">
        <ele>914</ele>
        <time>2026-05-09T13:46:05.068Z</time>
      </trkpt>
      <trkpt lat="47.94783" lon="6.94042">
        <ele>914</ele>
        <time>2026-05-09T13:46:06.069Z</time>
      </trkpt>
      <trkpt lat="47.94783" lon="6.94042">
        <ele>914</ele>
        <time>2026-05-09T13:46:07.068Z</time>
      </trkpt>
      <trkpt lat="47.94783" lon="6.94042">
        <ele>915</ele>
        <time>2026-05-09T13:46:08.069Z</time>
      </trkpt>
      <trkpt lat="47.9478" lon="6.94043">
        <ele>912</ele>
        <time>2026-05-09T13:46:32.522Z</time>
      </trkpt>
      <trkpt lat="47.9478" lon="6.94043">
        <ele>912</ele>
        <time>2026-05-09T13:46:33.522Z</time>
      </trkpt>
      <trkpt lat="47.9478" lon="6.94043">
        <ele>911</ele>
        <time>2026-05-09T13:46:34.522Z</time>
      </trkpt>
      <trkpt lat="47.9478" lon="6.94043">
        <ele>911</ele>
        <time>2026-05-09T13:46:35.522Z</time>
      </trkpt>
      <trkpt lat="47.9478" lon="6.94043">
        <ele>911</ele>
        <time>2026-05-09T13:46:36.522Z</time>
      </trkpt>
      <trkpt lat="47.9478" lon="6.94043">
        <ele>910</ele>
        <time>2026-05-09T13:46:37.523Z</time>
      </trkpt>
      <trkpt lat="47.9478" lon="6.94044">
        <ele>910</ele>
        <time>2026-05-09T13:46:38.522Z</time>
      </trkpt>
      <trkpt lat="47.94779" lon="6.94044">
        <ele>910</ele>
        <time>2026-05-09T13:46:39.522Z</time>
      </trkpt>
      <trkpt lat="47.94779" lon="6.94044">
        <ele>910</ele>
        <time>2026-05-09T13:46:40.522Z</time>
      </trkpt>
      <trkpt lat="47.94779" lon="6.94044">
        <ele>910</ele>
        <time>2026-05-09T13:46:41.522Z</time>
      </trkpt>
      <trkpt lat="47.94779" lon="6.94044">
        <ele>910</ele>
        <time>2026-05-09T13:46:42.522Z</time>
      </trkpt>
      <trkpt lat="47.94779" lon="6.94044">
        <ele>910</ele>
        <time>2026-05-09T13:46:43.522Z</time>
      </trkpt>
      <trkpt lat="47.94779" lon="6.94044">
        <ele>910</ele>
        <time>2026-05-09T13:46:44.522Z</time>
      </trkpt>
      <trkpt lat="47.94779" lon="6.94044">
        <ele>911</ele>
        <time>2026-05-09T13:46:45.522Z</time>
      </trkpt>
      <trkpt lat="47.94779" lon="6.94044">
        <ele>912</ele>
        <time>2026-05-09T13:46:46.523Z</time>
      </trkpt>
      <trkpt lat="47.9478" lon="6.94044">
        <ele>913</ele>
        <time>2026-05-09T13:46:47.522Z</time>
      </trkpt>
      <trkpt lat="47.9478" lon="6.94044">
        <ele>914</ele>
        <time>2026-05-09T13:46:48.522Z</time>
      </trkpt>
      <trkpt lat="47.94781" lon="6.94044">
        <ele>915</ele>
        <time>2026-05-09T13:46:49.522Z</time>
      </trkpt>
      <trkpt lat="47.94782" lon="6.94045">
        <ele>916</ele>
        <time>2026-05-09T13:46:50.523Z</time>
      </trkpt>
      <trkpt lat="47.94783" lon="6.94045">
        <ele>916</ele>
        <time>2026-05-09T13:46:51.522Z</time>
      </trkpt>
      <trkpt lat="47.94784" lon="6.94046">
        <ele>917</ele>
        <time>2026-05-09T13:46:52.523Z</time>
      </trkpt>
      <trkpt lat="47.94785" lon="6.94047">
        <ele>917</ele>
        <time>2026-05-09T13:46:53.523Z</time>
      </trkpt>
      <trkpt lat="47.94785" lon="6.94048">
        <ele>918</ele>
        <time>2026-05-09T13:46:54.522Z</time>
      </trkpt>
      <trkpt lat="47.94786" lon="6.94049">
        <ele>918</ele>
        <time>2026-05-09T13:46:55.522Z</time>
      </trkpt>
      <trkpt lat="47.94787" lon="6.94049">
        <ele>918</ele>
        <time>2026-05-09T13:46:56.522Z</time>
      </trkpt>
      <trkpt lat="47.94788" lon="6.9405">
        <ele>918</ele>
        <time>2026-05-09T13:46:57.523Z</time>
      </trkpt>
      <trkpt lat="47.94789" lon="6.9405">
        <ele>918</ele>
        <time>2026-05-09T13:46:58.523Z</time>
      </trkpt>
      <trkpt lat="47.9479" lon="6.94051">
        <ele>917</ele>
        <time>2026-05-09T13:46:59.522Z</time>
      </trkpt>
      <trkpt lat="47.94792" lon="6.94052">
        <ele>916</ele>
        <time>2026-05-09T13:47:00.523Z</time>
      </trkpt>
      <trkpt lat="47.94793" lon="6.94053">
        <ele>916</ele>
        <time>2026-05-09T13:47:01.523Z</time>
      </trkpt>
      <trkpt lat="47.94794" lon="6.94055">
        <ele>915</ele>
        <time>2026-05-09T13:47:02.522Z</time>
      </trkpt>
      <trkpt lat="47.94793" lon="6.94058">
        <ele>915</ele>
        <time>2026-05-09T13:47:03.523Z</time>
      </trkpt>
      <trkpt lat="47.94794" lon="6.94059">
        <ele>915</ele>
        <time>2026-05-09T13:47:04.523Z</time>
      </trkpt>
      <trkpt lat="47.94796" lon="6.9406">
        <ele>914</ele>
        <time>2026-05-09T13:47:05.523Z</time>
      </trkpt>
      <trkpt lat="47.94797" lon="6.9406">
        <ele>914</ele>
        <time>2026-05-09T13:47:06.523Z</time>
      </trkpt>
      <trkpt lat="47.94799" lon="6.94061">
        <ele>913</ele>
        <time>2026-05-09T13:47:07.522Z</time>
      </trkpt>
      <trkpt lat="47.948" lon="6.94063">
        <ele>912</ele>
        <time>2026-05-09T13:47:08.523Z</time>
      </trkpt>
      <trkpt lat="47.94801" lon="6.94065">
        <ele>912</ele>
        <time>2026-05-09T13:47:09.522Z</time>
      </trkpt>
      <trkpt lat="47.94802" lon="6.94067">
        <ele>911</ele>
        <time>2026-05-09T13:47:10.523Z</time>
      </trkpt>
      <trkpt lat="47.94803" lon="6.94068">
        <ele>911</ele>
        <time>2026-05-09T13:47:11.522Z</time>
      </trkpt>
      <trkpt lat="47.94804" lon="6.94069">
        <ele>910</ele>
        <time>2026-05-09T13:47:12.522Z</time>
      </trkpt>
      <trkpt lat="47.94805" lon="6.94071">
        <ele>910</ele>
        <time>2026-05-09T13:47:13.523Z</time>
      </trkpt>
      <trkpt lat="47.94806" lon="6.94072">
        <ele>910</ele>
        <time>2026-05-09T13:47:14.523Z</time>
      </trkpt>
      <trkpt lat="47.94807" lon="6.94074">
        <ele>910</ele>
        <time>2026-05-09T13:47:15.522Z</time>
      </trkpt>
      <trkpt lat="47.94808" lon="6.94075">
        <ele>909</ele>
        <time>2026-05-09T13:47:16.522Z</time>
      </trkpt>
      <trkpt lat="47.94809" lon="6.94077">
        <ele>909</ele>
        <time>2026-05-09T13:47:17.522Z</time>
      </trkpt>
      <trkpt lat="47.9481" lon="6.94078">
        <ele>908</ele>
        <time>2026-05-09T13:47:18.523Z</time>
      </trkpt>
      <trkpt lat="47.9481" lon="6.94079">
        <ele>908</ele>
        <time>2026-05-09T13:47:19.523Z</time>
      </trkpt>
      <trkpt lat="47.9481" lon="6.94081">
        <ele>908</ele>
        <time>2026-05-09T13:47:20.522Z</time>
      </trkpt>
      <trkpt lat="47.94811" lon="6.94083">
        <ele>908</ele>
        <time>2026-05-09T13:47:21.523Z</time>
      </trkpt>
      <trkpt lat="47.94813" lon="6.94084">
        <ele>907</ele>
        <time>2026-05-09T13:47:22.522Z</time>
      </trkpt>
      <trkpt lat="47.94814" lon="6.94086">
        <ele>907</ele>
        <time>2026-05-09T13:47:23.523Z</time>
      </trkpt>
      <trkpt lat="47.94815" lon="6.94088">
        <ele>906</ele>
        <time>2026-05-09T13:47:24.523Z</time>
      </trkpt>
      <trkpt lat="47.94816" lon="6.9409">
        <ele>906</ele>
        <time>2026-05-09T13:47:25.523Z</time>
      </trkpt>
      <trkpt lat="47.94817" lon="6.94093">
        <ele>906</ele>
        <time>2026-05-09T13:47:26.522Z</time>
      </trkpt>
      <trkpt lat="47.94818" lon="6.94095">
        <ele>905</ele>
        <time>2026-05-09T13:47:27.523Z</time>
      </trkpt>
      <trkpt lat="47.94819" lon="6.94098">
        <ele>905</ele>
        <time>2026-05-09T13:47:28.523Z</time>
      </trkpt>
      <trkpt lat="47.9482" lon="6.941">
        <ele>905</ele>
        <time>2026-05-09T13:47:29.522Z</time>
      </trkpt>
      <trkpt lat="47.94821" lon="6.94101">
        <ele>905</ele>
        <time>2026-05-09T13:47:30.522Z</time>
      </trkpt>
      <trkpt lat="47.94821" lon="6.94103">
        <ele>905</ele>
        <time>2026-05-09T13:47:31.522Z</time>
      </trkpt>
      <trkpt lat="47.94821" lon="6.94105">
        <ele>905</ele>
        <time>2026-05-09T13:47:32.522Z</time>
      </trkpt>
      <trkpt lat="47.94821" lon="6.94106">
        <ele>904</ele>
        <time>2026-05-09T13:47:33.522Z</time>
      </trkpt>
      <trkpt lat="47.9482" lon="6.94107">
        <ele>904</ele>
        <time>2026-05-09T13:47:34.523Z</time>
      </trkpt>
      <trkpt lat="47.94819" lon="6.94107">
        <ele>903</ele>
        <time>2026-05-09T13:47:35.522Z</time>
      </trkpt>
      <trkpt lat="47.94817" lon="6.94108">
        <ele>903</ele>
        <time>2026-05-09T13:47:36.522Z</time>
      </trkpt>
      <trkpt lat="47.94816" lon="6.94108">
        <ele>902</ele>
        <time>2026-05-09T13:47:37.522Z</time>
      </trkpt>
      <trkpt lat="47.94816" lon="6.94109">
        <ele>902</ele>
        <time>2026-05-09T13:47:38.523Z</time>
      </trkpt>
      <trkpt lat="47.94815" lon="6.94109">
        <ele>901</ele>
        <time>2026-05-09T13:47:39.523Z</time>
      </trkpt>
      <trkpt lat="47.94815" lon="6.94109">
        <ele>901</ele>
        <time>2026-05-09T13:47:40.522Z</time>
      </trkpt>
      <trkpt lat="47.94814" lon="6.94109">
        <ele>900</ele>
        <time>2026-05-09T13:47:41.523Z</time>
      </trkpt>
      <trkpt lat="47.94813" lon="6.9411">
        <ele>900</ele>
        <time>2026-05-09T13:47:42.523Z</time>
      </trkpt>
      <trkpt lat="47.94812" lon="6.94111">
        <ele>900</ele>
        <time>2026-05-09T13:47:43.522Z</time>
      </trkpt>
      <trkpt lat="47.94811" lon="6.94111">
        <ele>899</ele>
        <time>2026-05-09T13:47:44.522Z</time>
      </trkpt>
      <trkpt lat="47.9481" lon="6.94113">
        <ele>899</ele>
        <time>2026-05-09T13:47:45.523Z</time>
      </trkpt>
      <trkpt lat="47.94809" lon="6.94114">
        <ele>899</ele>
        <time>2026-05-09T13:47:46.522Z</time>
      </trkpt>
      <trkpt lat="47.94809" lon="6.94116">
        <ele>898</ele>
        <time>2026-05-09T13:47:47.522Z</time>
      </trkpt>
      <trkpt lat="47.94808" lon="6.94117">
        <ele>898</ele>
        <time>2026-05-09T13:47:48.522Z</time>
      </trkpt>
      <trkpt lat="47.94807" lon="6.94117">
        <ele>898</ele>
        <time>2026-05-09T13:47:49.522Z</time>
      </trkpt>
      <trkpt lat="47.94807" lon="6.94117">
        <ele>897</ele>
        <time>2026-05-09T13:47:50.522Z</time>
      </trkpt>
      <trkpt lat="47.94806" lon="6.94119">
        <ele>896</ele>
        <time>2026-05-09T13:47:51.522Z</time>
      </trkpt>
      <trkpt lat="47.94806" lon="6.9412">
        <ele>896</ele>
        <time>2026-05-09T13:47:52.522Z</time>
      </trkpt>
      <trkpt lat="47.94804" lon="6.94122">
        <ele>896</ele>
        <time>2026-05-09T13:47:53.522Z</time>
      </trkpt>
      <trkpt lat="47.94803" lon="6.94123">
        <ele>895</ele>
        <time>2026-05-09T13:47:54.523Z</time>
      </trkpt>
      <trkpt lat="47.94801" lon="6.94124">
        <ele>895</ele>
        <time>2026-05-09T13:47:55.522Z</time>
      </trkpt>
      <trkpt lat="47.94799" lon="6.94125">
        <ele>894</ele>
        <time>2026-05-09T13:47:56.522Z</time>
      </trkpt>
      <trkpt lat="47.94798" lon="6.94126">
        <ele>894</ele>
        <time>2026-05-09T13:47:57.523Z</time>
      </trkpt>
      <trkpt lat="47.94796" lon="6.94127">
        <ele>893</ele>
        <time>2026-05-09T13:47:58.522Z</time>
      </trkpt>
      <trkpt lat="47.94795" lon="6.94129">
        <ele>893</ele>
        <time>2026-05-09T13:47:59.523Z</time>
      </trkpt>
      <trkpt lat="47.94794" lon="6.94129">
        <ele>892</ele>
        <time>2026-05-09T13:48:00.522Z</time>
      </trkpt>
      <trkpt lat="47.94792" lon="6.9413">
        <ele>892</ele>
        <time>2026-05-09T13:48:01.523Z</time>
      </trkpt>
      <trkpt lat="47.94791" lon="6.94131">
        <ele>891</ele>
        <time>2026-05-09T13:48:02.522Z</time>
      </trkpt>
      <trkpt lat="47.94789" lon="6.94132">
        <ele>891</ele>
        <time>2026-05-09T13:48:03.523Z</time>
      </trkpt>
      <trkpt lat="47.94788" lon="6.94133">
        <ele>890</ele>
        <time>2026-05-09T13:48:04.522Z</time>
      </trkpt>
      <trkpt lat="47.94787" lon="6.94133">
        <ele>890</ele>
        <time>2026-05-09T13:48:05.522Z</time>
      </trkpt>
      <trkpt lat="47.94786" lon="6.94134">
        <ele>890</ele>
        <time>2026-05-09T13:48:06.522Z</time>
      </trkpt>
      <trkpt lat="47.94785" lon="6.94135">
        <ele>889</ele>
        <time>2026-05-09T13:48:07.522Z</time>
      </trkpt>
      <trkpt lat="47.94784" lon="6.94137">
        <ele>889</ele>
        <time>2026-05-09T13:48:08.523Z</time>
      </trkpt>
      <trkpt lat="47.94784" lon="6.94137">
        <ele>888</ele>
        <time>2026-05-09T13:48:09.522Z</time>
      </trkpt>
      <trkpt lat="47.94784" lon="6.94139">
        <ele>888</ele>
        <time>2026-05-09T13:48:10.522Z</time>
      </trkpt>
      <trkpt lat="47.94783" lon="6.9414">
        <ele>888</ele>
        <time>2026-05-09T13:48:11.522Z</time>
      </trkpt>
      <trkpt lat="47.94784" lon="6.9414">
        <ele>887</ele>
        <time>2026-05-09T13:48:12.522Z</time>
      </trkpt>
      <trkpt lat="47.94784" lon="6.94139">
        <ele>887</ele>
        <time>2026-05-09T13:48:13.522Z</time>
      </trkpt>
      <trkpt lat="47.94784" lon="6.94139">
        <ele>886</ele>
        <time>2026-05-09T13:48:14.522Z</time>
      </trkpt>
      <trkpt lat="47.94785" lon="6.94139">
        <ele>885</ele>
        <time>2026-05-09T13:48:15.522Z</time>
      </trkpt>
      <trkpt lat="47.94785" lon="6.94138">
        <ele>885</ele>
        <time>2026-05-09T13:48:16.522Z</time>
      </trkpt>
      <trkpt lat="47.94786" lon="6.94139">
        <ele>884</ele>
        <time>2026-05-09T13:48:17.523Z</time>
      </trkpt>
      <trkpt lat="47.94786" lon="6.94138">
        <ele>883</ele>
        <time>2026-05-09T13:48:18.522Z</time>
      </trkpt>
      <trkpt lat="47.94786" lon="6.94139">
        <ele>883</ele>
        <time>2026-05-09T13:48:27.776Z</time>
      </trkpt>
      <trkpt lat="47.94786" lon="6.94139">
        <ele>883</ele>
        <time>2026-05-09T13:48:28.777Z</time>
      </trkpt>
      <trkpt lat="47.94786" lon="6.9414">
        <ele>884</ele>
        <time>2026-05-09T13:48:29.776Z</time>
      </trkpt>
      <trkpt lat="47.94786" lon="6.94144">
        <ele>886</ele>
        <time>2026-05-09T13:48:36.234Z</time>
      </trkpt>
      <trkpt lat="47.94786" lon="6.94146">
        <ele>886</ele>
        <time>2026-05-09T13:48:37.234Z</time>
      </trkpt>
      <trkpt lat="47.94786" lon="6.94147">
        <ele>887</ele>
        <time>2026-05-09T13:48:38.235Z</time>
      </trkpt>
      <trkpt lat="47.94786" lon="6.94149">
        <ele>887</ele>
        <time>2026-05-09T13:48:39.234Z</time>
      </trkpt>
      <trkpt lat="47.94785" lon="6.94152">
        <ele>887</ele>
        <time>2026-05-09T13:48:40.235Z</time>
      </trkpt>
      <trkpt lat="47.94785" lon="6.94154">
        <ele>887</ele>
        <time>2026-05-09T13:48:41.235Z</time>
      </trkpt>
      <trkpt lat="47.94784" lon="6.94156">
        <ele>887</ele>
        <time>2026-05-09T13:48:42.235Z</time>
      </trkpt>
      <trkpt lat="47.94784" lon="6.94158">
        <ele>887</ele>
        <time>2026-05-09T13:48:43.234Z</time>
      </trkpt>
      <trkpt lat="47.94784" lon="6.9416">
        <ele>886</ele>
        <time>2026-05-09T13:48:44.235Z</time>
      </trkpt>
      <trkpt lat="47.94784" lon="6.94163">
        <ele>887</ele>
        <time>2026-05-09T13:48:45.234Z</time>
      </trkpt>
      <trkpt lat="47.94784" lon="6.94165">
        <ele>887</ele>
        <time>2026-05-09T13:48:46.235Z</time>
      </trkpt>
      <trkpt lat="47.94785" lon="6.94167">
        <ele>887</ele>
        <time>2026-05-09T13:48:47.235Z</time>
      </trkpt>
      <trkpt lat="47.94786" lon="6.9417">
        <ele>887</ele>
        <time>2026-05-09T13:48:48.235Z</time>
      </trkpt>
      <trkpt lat="47.94786" lon="6.94173">
        <ele>887</ele>
        <time>2026-05-09T13:48:49.234Z</time>
      </trkpt>
      <trkpt lat="47.94786" lon="6.94175">
        <ele>887</ele>
        <time>2026-05-09T13:48:50.235Z</time>
      </trkpt>
      <trkpt lat="47.94786" lon="6.94178">
        <ele>887</ele>
        <time>2026-05-09T13:48:51.235Z</time>
      </trkpt>
      <trkpt lat="47.94787" lon="6.94181">
        <ele>887</ele>
        <time>2026-05-09T13:48:52.234Z</time>
      </trkpt>
      <trkpt lat="47.94787" lon="6.94184">
        <ele>887</ele>
        <time>2026-05-09T13:48:53.235Z</time>
      </trkpt>
      <trkpt lat="47.94788" lon="6.94186">
        <ele>887</ele>
        <time>2026-05-09T13:48:54.235Z</time>
      </trkpt>
      <trkpt lat="47.94788" lon="6.94189">
        <ele>886</ele>
        <time>2026-05-09T13:48:55.234Z</time>
      </trkpt>
      <trkpt lat="47.94788" lon="6.94192">
        <ele>886</ele>
        <time>2026-05-09T13:48:56.234Z</time>
      </trkpt>
      <trkpt lat="47.94789" lon="6.94194">
        <ele>885</ele>
        <time>2026-05-09T13:48:57.235Z</time>
      </trkpt>
      <trkpt lat="47.94789" lon="6.94197">
        <ele>884</ele>
        <time>2026-05-09T13:48:58.234Z</time>
      </trkpt>
      <trkpt lat="47.9479" lon="6.94199">
        <ele>883</ele>
        <time>2026-05-09T13:48:59.235Z</time>
      </trkpt>
      <trkpt lat="47.94791" lon="6.94202">
        <ele>883</ele>
        <time>2026-05-09T13:49:00.234Z</time>
      </trkpt>
      <trkpt lat="47.94791" lon="6.94205">
        <ele>882</ele>
        <time>2026-05-09T13:49:01.234Z</time>
      </trkpt>
      <trkpt lat="47.94792" lon="6.94207">
        <ele>881</ele>
        <time>2026-05-09T13:49:02.235Z</time>
      </trkpt>
      <trkpt lat="47.94792" lon="6.94208">
        <ele>880</ele>
        <time>2026-05-09T13:49:03.234Z</time>
      </trkpt>
      <trkpt lat="47.94792" lon="6.9421">
        <ele>880</ele>
        <time>2026-05-09T13:49:04.235Z</time>
      </trkpt>
      <trkpt lat="47.94793" lon="6.94212">
        <ele>879</ele>
        <time>2026-05-09T13:49:05.234Z</time>
      </trkpt>
      <trkpt lat="47.94793" lon="6.94214">
        <ele>879</ele>
        <time>2026-05-09T13:49:06.235Z</time>
      </trkpt>
      <trkpt lat="47.94793" lon="6.94215">
        <ele>878</ele>
        <time>2026-05-09T13:49:07.234Z</time>
      </trkpt>
      <trkpt lat="47.94793" lon="6.94217">
        <ele>878</ele>
        <time>2026-05-09T13:49:08.235Z</time>
      </trkpt>
      <trkpt lat="47.94794" lon="6.94218">
        <ele>877</ele>
        <time>2026-05-09T13:49:09.234Z</time>
      </trkpt>
      <trkpt lat="47.94794" lon="6.9422">
        <ele>877</ele>
        <time>2026-05-09T13:49:10.235Z</time>
      </trkpt>
      <trkpt lat="47.94794" lon="6.94221">
        <ele>877</ele>
        <time>2026-05-09T13:49:11.234Z</time>
      </trkpt>
      <trkpt lat="47.94795" lon="6.94223">
        <ele>877</ele>
        <time>2026-05-09T13:49:12.235Z</time>
      </trkpt>
      <trkpt lat="47.94795" lon="6.94224">
        <ele>877</ele>
        <time>2026-05-09T13:49:13.235Z</time>
      </trkpt>
      <trkpt lat="47.94795" lon="6.94226">
        <ele>877</ele>
        <time>2026-05-09T13:49:14.235Z</time>
      </trkpt>
      <trkpt lat="47.94796" lon="6.94228">
        <ele>877</ele>
        <time>2026-05-09T13:49:15.235Z</time>
      </trkpt>
      <trkpt lat="47.94796" lon="6.9423">
        <ele>877</ele>
        <time>2026-05-09T13:49:16.234Z</time>
      </trkpt>
      <trkpt lat="47.94796" lon="6.94233">
        <ele>877</ele>
        <time>2026-05-09T13:49:17.235Z</time>
      </trkpt>
      <trkpt lat="47.94796" lon="6.94235">
        <ele>877</ele>
        <time>2026-05-09T13:49:18.234Z</time>
      </trkpt>
      <trkpt lat="47.94796" lon="6.94237">
        <ele>877</ele>
        <time>2026-05-09T13:49:19.235Z</time>
      </trkpt>
      <trkpt lat="47.94797" lon="6.9424">
        <ele>877</ele>
        <time>2026-05-09T13:49:20.235Z</time>
      </trkpt>
      <trkpt lat="47.94796" lon="6.94242">
        <ele>877</ele>
        <time>2026-05-09T13:49:21.234Z</time>
      </trkpt>
      <trkpt lat="47.94794" lon="6.94243">
        <ele>877</ele>
        <time>2026-05-09T13:49:22.235Z</time>
      </trkpt>
      <trkpt lat="47.94793" lon="6.94245">
        <ele>877</ele>
        <time>2026-05-09T13:49:23.234Z</time>
      </trkpt>
      <trkpt lat="47.94793" lon="6.94247">
        <ele>876</ele>
        <time>2026-05-09T13:49:24.234Z</time>
      </trkpt>
      <trkpt lat="47.94793" lon="6.94249">
        <ele>876</ele>
        <time>2026-05-09T13:49:25.234Z</time>
      </trkpt>
      <trkpt lat="47.94792" lon="6.94251">
        <ele>875</ele>
        <time>2026-05-09T13:49:26.234Z</time>
      </trkpt>
      <trkpt lat="47.94792" lon="6.94253">
        <ele>874</ele>
        <time>2026-05-09T13:49:27.235Z</time>
      </trkpt>
      <trkpt lat="47.94791" lon="6.94254">
        <ele>873</ele>
        <time>2026-05-09T13:49:28.234Z</time>
      </trkpt>
      <trkpt lat="47.9479" lon="6.94255">
        <ele>872</ele>
        <time>2026-05-09T13:49:29.234Z</time>
      </trkpt>
      <trkpt lat="47.94788" lon="6.94256">
        <ele>871</ele>
        <time>2026-05-09T13:49:30.234Z</time>
      </trkpt>
      <trkpt lat="47.94787" lon="6.94257">
        <ele>870</ele>
        <time>2026-05-09T13:49:31.234Z</time>
      </trkpt>
      <trkpt lat="47.94785" lon="6.94257">
        <ele>869</ele>
        <time>2026-05-09T13:49:32.235Z</time>
      </trkpt>
      <trkpt lat="47.94784" lon="6.94258">
        <ele>867</ele>
        <time>2026-05-09T13:49:33.234Z</time>
      </trkpt>
      <trkpt lat="47.94783" lon="6.94259">
        <ele>866</ele>
        <time>2026-05-09T13:49:34.235Z</time>
      </trkpt>
      <trkpt lat="47.94782" lon="6.9426">
        <ele>866</ele>
        <time>2026-05-09T13:49:35.234Z</time>
      </trkpt>
      <trkpt lat="47.9478" lon="6.94261">
        <ele>865</ele>
        <time>2026-05-09T13:49:36.235Z</time>
      </trkpt>
      <trkpt lat="47.94779" lon="6.94263">
        <ele>864</ele>
        <time>2026-05-09T13:49:37.235Z</time>
      </trkpt>
      <trkpt lat="47.94777" lon="6.94265">
        <ele>863</ele>
        <time>2026-05-09T13:49:38.234Z</time>
      </trkpt>
      <trkpt lat="47.94776" lon="6.94266">
        <ele>862</ele>
        <time>2026-05-09T13:49:39.235Z</time>
      </trkpt>
      <trkpt lat="47.94775" lon="6.94268">
        <ele>862</ele>
        <time>2026-05-09T13:49:40.234Z</time>
      </trkpt>
      <trkpt lat="47.94773" lon="6.94268">
        <ele>861</ele>
        <time>2026-05-09T13:49:41.235Z</time>
      </trkpt>
      <trkpt lat="47.94772" lon="6.94269">
        <ele>861</ele>
        <time>2026-05-09T13:49:42.234Z</time>
      </trkpt>
      <trkpt lat="47.94771" lon="6.9427">
        <ele>860</ele>
        <time>2026-05-09T13:49:43.235Z</time>
      </trkpt>
      <trkpt lat="47.94769" lon="6.94272">
        <ele>859</ele>
        <time>2026-05-09T13:49:44.235Z</time>
      </trkpt>
      <trkpt lat="47.94768" lon="6.94274">
        <ele>858</ele>
        <time>2026-05-09T13:49:45.234Z</time>
      </trkpt>
      <trkpt lat="47.94767" lon="6.94277">
        <ele>857</ele>
        <time>2026-05-09T13:49:46.235Z</time>
      </trkpt>
      <trkpt lat="47.94767" lon="6.94279">
        <ele>856</ele>
        <time>2026-05-09T13:49:47.235Z</time>
      </trkpt>
      <trkpt lat="47.94767" lon="6.94282">
        <ele>856</ele>
        <time>2026-05-09T13:49:48.235Z</time>
      </trkpt>
      <trkpt lat="47.94767" lon="6.94284">
        <ele>856</ele>
        <time>2026-05-09T13:49:49.235Z</time>
      </trkpt>
      <trkpt lat="47.94768" lon="6.94287">
        <ele>855</ele>
        <time>2026-05-09T13:49:50.234Z</time>
      </trkpt>
      <trkpt lat="47.94769" lon="6.94289">
        <ele>855</ele>
        <time>2026-05-09T13:49:51.235Z</time>
      </trkpt>
      <trkpt lat="47.94769" lon="6.94291">
        <ele>855</ele>
        <time>2026-05-09T13:49:52.234Z</time>
      </trkpt>
      <trkpt lat="47.9477" lon="6.94294">
        <ele>855</ele>
        <time>2026-05-09T13:49:53.234Z</time>
      </trkpt>
      <trkpt lat="47.9477" lon="6.94297">
        <ele>855</ele>
        <time>2026-05-09T13:49:54.234Z</time>
      </trkpt>
      <trkpt lat="47.94771" lon="6.94299">
        <ele>854</ele>
        <time>2026-05-09T13:49:55.234Z</time>
      </trkpt>
      <trkpt lat="47.94771" lon="6.94301">
        <ele>855</ele>
        <time>2026-05-09T13:49:56.235Z</time>
      </trkpt>
      <trkpt lat="47.9477" lon="6.94303">
        <ele>854</ele>
        <time>2026-05-09T13:49:57.234Z</time>
      </trkpt>
      <trkpt lat="47.94769" lon="6.94305">
        <ele>854</ele>
        <time>2026-05-09T13:49:58.234Z</time>
      </trkpt>
      <trkpt lat="47.94767" lon="6.94306">
        <ele>854</ele>
        <time>2026-05-09T13:49:59.234Z</time>
      </trkpt>
      <trkpt lat="47.94766" lon="6.94306">
        <ele>854</ele>
        <time>2026-05-09T13:50:00.235Z</time>
      </trkpt>
      <trkpt lat="47.94764" lon="6.94307">
        <ele>853</ele>
        <time>2026-05-09T13:50:01.234Z</time>
      </trkpt>
      <trkpt lat="47.94762" lon="6.94308">
        <ele>852</ele>
        <time>2026-05-09T13:50:02.235Z</time>
      </trkpt>
      <trkpt lat="47.94761" lon="6.94309">
        <ele>852</ele>
        <time>2026-05-09T13:50:03.234Z</time>
      </trkpt>
      <trkpt lat="47.94759" lon="6.9431">
        <ele>851</ele>
        <time>2026-05-09T13:50:04.235Z</time>
      </trkpt>
      <trkpt lat="47.94758" lon="6.94311">
        <ele>851</ele>
        <time>2026-05-09T13:50:05.234Z</time>
      </trkpt>
      <trkpt lat="47.94756" lon="6.94312">
        <ele>850</ele>
        <time>2026-05-09T13:50:06.235Z</time>
      </trkpt>
      <trkpt lat="47.94755" lon="6.94313">
        <ele>850</ele>
        <time>2026-05-09T13:50:07.234Z</time>
      </trkpt>
      <trkpt lat="47.94753" lon="6.94314">
        <ele>849</ele>
        <time>2026-05-09T13:50:08.234Z</time>
      </trkpt>
      <trkpt lat="47.94752" lon="6.94314">
        <ele>849</ele>
        <time>2026-05-09T13:50:09.234Z</time>
      </trkpt>
      <trkpt lat="47.9475" lon="6.94315">
        <ele>848</ele>
        <time>2026-05-09T13:50:10.235Z</time>
      </trkpt>
      <trkpt lat="47.94749" lon="6.94315">
        <ele>847</ele>
        <time>2026-05-09T13:50:11.235Z</time>
      </trkpt>
      <trkpt lat="47.94749" lon="6.94317">
        <ele>846</ele>
        <time>2026-05-09T13:50:12.234Z</time>
      </trkpt>
      <trkpt lat="47.94749" lon="6.94318">
        <ele>846</ele>
        <time>2026-05-09T13:50:13.234Z</time>
      </trkpt>
      <trkpt lat="47.94749" lon="6.9432">
        <ele>845</ele>
        <time>2026-05-09T13:50:14.234Z</time>
      </trkpt>
      <trkpt lat="47.94749" lon="6.94323">
        <ele>845</ele>
        <time>2026-05-09T13:50:15.235Z</time>
      </trkpt>
      <trkpt lat="47.9475" lon="6.94325">
        <ele>844</ele>
        <time>2026-05-09T13:50:16.235Z</time>
      </trkpt>
      <trkpt lat="47.9475" lon="6.94328">
        <ele>843</ele>
        <time>2026-05-09T13:50:17.235Z</time>
      </trkpt>
      <trkpt lat="47.94751" lon="6.9433">
        <ele>843</ele>
        <time>2026-05-09T13:50:18.235Z</time>
      </trkpt>
      <trkpt lat="47.94751" lon="6.94333">
        <ele>842</ele>
        <time>2026-05-09T13:50:19.235Z</time>
      </trkpt>
      <trkpt lat="47.94752" lon="6.94335">
        <ele>842</ele>
        <time>2026-05-09T13:50:20.235Z</time>
      </trkpt>
      <trkpt lat="47.94753" lon="6.94338">
        <ele>841</ele>
        <time>2026-05-09T13:50:21.234Z</time>
      </trkpt>
      <trkpt lat="47.94753" lon="6.9434">
        <ele>840</ele>
        <time>2026-05-09T13:50:22.235Z</time>
      </trkpt>
      <trkpt lat="47.94754" lon="6.94342">
        <ele>840</ele>
        <time>2026-05-09T13:50:23.235Z</time>
      </trkpt>
      <trkpt lat="47.94755" lon="6.94345">
        <ele>840</ele>
        <time>2026-05-09T13:50:24.234Z</time>
      </trkpt>
      <trkpt lat="47.94756" lon="6.94347">
        <ele>839</ele>
        <time>2026-05-09T13:50:25.234Z</time>
      </trkpt>
      <trkpt lat="47.94757" lon="6.9435">
        <ele>839</ele>
        <time>2026-05-09T13:50:26.234Z</time>
      </trkpt>
      <trkpt lat="47.94758" lon="6.94353">
        <ele>840</ele>
        <time>2026-05-09T13:50:27.235Z</time>
      </trkpt>
      <trkpt lat="47.94758" lon="6.94357">
        <ele>840</ele>
        <time>2026-05-09T13:50:28.235Z</time>
      </trkpt>
      <trkpt lat="47.94758" lon="6.94362">
        <ele>840</ele>
        <time>2026-05-09T13:50:29.235Z</time>
      </trkpt>
      <trkpt lat="47.94758" lon="6.94365">
        <ele>840</ele>
        <time>2026-05-09T13:50:30.234Z</time>
      </trkpt>
      <trkpt lat="47.94759" lon="6.94369">
        <ele>840</ele>
        <time>2026-05-09T13:50:31.235Z</time>
      </trkpt>
      <trkpt lat="47.94759" lon="6.94373">
        <ele>841</ele>
        <time>2026-05-09T13:50:32.235Z</time>
      </trkpt>
      <trkpt lat="47.94759" lon="6.94376">
        <ele>840</ele>
        <time>2026-05-09T13:50:33.235Z</time>
      </trkpt>
      <trkpt lat="47.94758" lon="6.9438">
        <ele>840</ele>
        <time>2026-05-09T13:50:34.235Z</time>
      </trkpt>
      <trkpt lat="47.94757" lon="6.94383">
        <ele>840</ele>
        <time>2026-05-09T13:50:35.235Z</time>
      </trkpt>
      <trkpt lat="47.94757" lon="6.94386">
        <ele>840</ele>
        <time>2026-05-09T13:50:36.235Z</time>
      </trkpt>
      <trkpt lat="47.94757" lon="6.94389">
        <ele>839</ele>
        <time>2026-05-09T13:50:37.235Z</time>
      </trkpt>
      <trkpt lat="47.94757" lon="6.94392">
        <ele>839</ele>
        <time>2026-05-09T13:50:38.235Z</time>
      </trkpt>
      <trkpt lat="47.94757" lon="6.94396">
        <ele>838</ele>
        <time>2026-05-09T13:50:39.234Z</time>
      </trkpt>
      <trkpt lat="47.94756" lon="6.944">
        <ele>838</ele>
        <time>2026-05-09T13:50:40.234Z</time>
      </trkpt>
      <trkpt lat="47.94757" lon="6.94403">
        <ele>838</ele>
        <time>2026-05-09T13:50:41.234Z</time>
      </trkpt>
      <trkpt lat="47.94757" lon="6.94407">
        <ele>838</ele>
        <time>2026-05-09T13:50:42.235Z</time>
      </trkpt>
      <trkpt lat="47.94757" lon="6.9441">
        <ele>837</ele>
        <time>2026-05-09T13:50:43.234Z</time>
      </trkpt>
      <trkpt lat="47.94757" lon="6.94412">
        <ele>837</ele>
        <time>2026-05-09T13:50:44.234Z</time>
      </trkpt>
      <trkpt lat="47.94758" lon="6.94414">
        <ele>837</ele>
        <time>2026-05-09T13:50:45.234Z</time>
      </trkpt>
      <trkpt lat="47.94757" lon="6.94417">
        <ele>836</ele>
        <time>2026-05-09T13:50:46.234Z</time>
      </trkpt>
      <trkpt lat="47.94758" lon="6.9442">
        <ele>836</ele>
        <time>2026-05-09T13:50:47.234Z</time>
      </trkpt>
      <trkpt lat="47.94757" lon="6.94423">
        <ele>836</ele>
        <time>2026-05-09T13:50:48.234Z</time>
      </trkpt>
      <trkpt lat="47.94758" lon="6.94426">
        <ele>835</ele>
        <time>2026-05-09T13:50:49.234Z</time>
      </trkpt>
      <trkpt lat="47.94758" lon="6.94428">
        <ele>835</ele>
        <time>2026-05-09T13:50:50.235Z</time>
      </trkpt>
      <trkpt lat="47.94759" lon="6.94431">
        <ele>834</ele>
        <time>2026-05-09T13:50:51.235Z</time>
      </trkpt>
      <trkpt lat="47.94761" lon="6.94434">
        <ele>833</ele>
        <time>2026-05-09T13:50:52.235Z</time>
      </trkpt>
      <trkpt lat="47.94762" lon="6.94437">
        <ele>832</ele>
        <time>2026-05-09T13:50:53.234Z</time>
      </trkpt>
      <trkpt lat="47.94763" lon="6.9444">
        <ele>832</ele>
        <time>2026-05-09T13:50:54.234Z</time>
      </trkpt>
      <trkpt lat="47.94763" lon="6.94443">
        <ele>831</ele>
        <time>2026-05-09T13:50:55.235Z</time>
      </trkpt>
      <trkpt lat="47.94764" lon="6.94445">
        <ele>830</ele>
        <time>2026-05-09T13:50:56.234Z</time>
      </trkpt>
      <trkpt lat="47.94764" lon="6.94447">
        <ele>829</ele>
        <time>2026-05-09T13:50:57.234Z</time>
      </trkpt>
      <trkpt lat="47.94764" lon="6.94448">
        <ele>829</ele>
        <time>2026-05-09T13:50:58.235Z</time>
      </trkpt>
      <trkpt lat="47.94765" lon="6.9445">
        <ele>829</ele>
        <time>2026-05-09T13:50:59.234Z</time>
      </trkpt>
      <trkpt lat="47.94765" lon="6.94452">
        <ele>828</ele>
        <time>2026-05-09T13:51:00.234Z</time>
      </trkpt>
      <trkpt lat="47.94765" lon="6.94455">
        <ele>828</ele>
        <time>2026-05-09T13:51:01.235Z</time>
      </trkpt>
      <trkpt lat="47.94765" lon="6.94457">
        <ele>828</ele>
        <time>2026-05-09T13:51:02.234Z</time>
      </trkpt>
      <trkpt lat="47.94764" lon="6.9446">
        <ele>828</ele>
        <time>2026-05-09T13:51:03.234Z</time>
      </trkpt>
      <trkpt lat="47.94764" lon="6.94463">
        <ele>827</ele>
        <time>2026-05-09T13:51:04.234Z</time>
      </trkpt>
      <trkpt lat="47.94764" lon="6.94467">
        <ele>827</ele>
        <time>2026-05-09T13:51:05.234Z</time>
      </trkpt>
      <trkpt lat="47.94764" lon="6.9447">
        <ele>827</ele>
        <time>2026-05-09T13:51:06.235Z</time>
      </trkpt>
      <trkpt lat="47.94764" lon="6.94473">
        <ele>827</ele>
        <time>2026-05-09T13:51:07.235Z</time>
      </trkpt>
      <trkpt lat="47.94764" lon="6.94476">
        <ele>827</ele>
        <time>2026-05-09T13:51:08.235Z</time>
      </trkpt>
      <trkpt lat="47.94764" lon="6.94477">
        <ele>827</ele>
        <time>2026-05-09T13:51:09.234Z</time>
      </trkpt>
      <trkpt lat="47.94764" lon="6.94478">
        <ele>827</ele>
        <time>2026-05-09T13:51:10.234Z</time>
      </trkpt>
      <trkpt lat="47.94764" lon="6.94478">
        <ele>826</ele>
        <time>2026-05-09T13:51:11.235Z</time>
      </trkpt>
      <trkpt lat="47.94763" lon="6.94479">
        <ele>826</ele>
        <time>2026-05-09T13:51:12.235Z</time>
      </trkpt>
      <trkpt lat="47.94763" lon="6.9448">
        <ele>825</ele>
        <time>2026-05-09T13:51:13.235Z</time>
      </trkpt>
      <trkpt lat="47.94762" lon="6.94483">
        <ele>824</ele>
        <time>2026-05-09T13:51:14.234Z</time>
      </trkpt>
      <trkpt lat="47.94761" lon="6.94484">
        <ele>823</ele>
        <time>2026-05-09T13:51:15.234Z</time>
      </trkpt>
      <trkpt lat="47.94761" lon="6.94485">
        <ele>822</ele>
        <time>2026-05-09T13:51:16.234Z</time>
      </trkpt>
      <trkpt lat="47.9476" lon="6.94487">
        <ele>821</ele>
        <time>2026-05-09T13:51:17.235Z</time>
      </trkpt>
      <trkpt lat="47.94759" lon="6.94488">
        <ele>820</ele>
        <time>2026-05-09T13:51:18.235Z</time>
      </trkpt>
      <trkpt lat="47.94758" lon="6.94489">
        <ele>819</ele>
        <time>2026-05-09T13:51:19.234Z</time>
      </trkpt>
      <trkpt lat="47.94756" lon="6.94489">
        <ele>818</ele>
        <time>2026-05-09T13:51:20.235Z</time>
      </trkpt>
      <trkpt lat="47.94755" lon="6.94489">
        <ele>818</ele>
        <time>2026-05-09T13:51:21.235Z</time>
      </trkpt>
      <trkpt lat="47.94754" lon="6.94489">
        <ele>817</ele>
        <time>2026-05-09T13:51:22.234Z</time>
      </trkpt>
      <trkpt lat="47.94753" lon="6.94487">
        <ele>816</ele>
        <time>2026-05-09T13:51:23.234Z</time>
      </trkpt>
      <trkpt lat="47.94751" lon="6.94486">
        <ele>816</ele>
        <time>2026-05-09T13:51:24.234Z</time>
      </trkpt>
      <trkpt lat="47.9475" lon="6.94484">
        <ele>815</ele>
        <time>2026-05-09T13:51:25.234Z</time>
      </trkpt>
      <trkpt lat="47.9475" lon="6.94483">
        <ele>815</ele>
        <time>2026-05-09T13:51:26.235Z</time>
      </trkpt>
      <trkpt lat="47.94748" lon="6.94482">
        <ele>814</ele>
        <time>2026-05-09T13:51:27.234Z</time>
      </trkpt>
      <trkpt lat="47.94748" lon="6.94481">
        <ele>813</ele>
        <time>2026-05-09T13:51:28.235Z</time>
      </trkpt>
      <trkpt lat="47.94747" lon="6.9448">
        <ele>813</ele>
        <time>2026-05-09T13:51:29.234Z</time>
      </trkpt>
      <trkpt lat="47.94746" lon="6.94479">
        <ele>812</ele>
        <time>2026-05-09T13:51:30.234Z</time>
      </trkpt>
      <trkpt lat="47.94744" lon="6.94478">
        <ele>811</ele>
        <time>2026-05-09T13:51:31.235Z</time>
      </trkpt>
      <trkpt lat="47.94743" lon="6.94477">
        <ele>811</ele>
        <time>2026-05-09T13:51:32.235Z</time>
      </trkpt>
      <trkpt lat="47.94743" lon="6.94475">
        <ele>810</ele>
        <time>2026-05-09T13:51:33.234Z</time>
      </trkpt>
      <trkpt lat="47.94742" lon="6.94472">
        <ele>810</ele>
        <time>2026-05-09T13:51:34.235Z</time>
      </trkpt>
      <trkpt lat="47.94741" lon="6.9447">
        <ele>810</ele>
        <time>2026-05-09T13:51:35.235Z</time>
      </trkpt>
      <trkpt lat="47.9474" lon="6.94468">
        <ele>810</ele>
        <time>2026-05-09T13:51:36.235Z</time>
      </trkpt>
      <trkpt lat="47.94739" lon="6.94466">
        <ele>810</ele>
        <time>2026-05-09T13:51:37.234Z</time>
      </trkpt>
      <trkpt lat="47.94737" lon="6.94465">
        <ele>810</ele>
        <time>2026-05-09T13:51:38.235Z</time>
      </trkpt>
      <trkpt lat="47.94736" lon="6.94463">
        <ele>811</ele>
        <time>2026-05-09T13:51:39.234Z</time>
      </trkpt>
      <trkpt lat="47.94735" lon="6.94462">
        <ele>811</ele>
        <time>2026-05-09T13:51:40.234Z</time>
      </trkpt>
      <trkpt lat="47.94734" lon="6.9446">
        <ele>811</ele>
        <time>2026-05-09T13:51:41.235Z</time>
      </trkpt>
      <trkpt lat="47.94733" lon="6.94459">
        <ele>810</ele>
        <time>2026-05-09T13:51:42.235Z</time>
      </trkpt>
      <trkpt lat="47.94732" lon="6.94457">
        <ele>810</ele>
        <time>2026-05-09T13:51:43.235Z</time>
      </trkpt>
      <trkpt lat="47.94731" lon="6.94456">
        <ele>809</ele>
        <time>2026-05-09T13:51:44.234Z</time>
      </trkpt>
      <trkpt lat="47.94731" lon="6.94454">
        <ele>809</ele>
        <time>2026-05-09T13:51:45.235Z</time>
      </trkpt>
      <trkpt lat="47.9473" lon="6.94453">
        <ele>809</ele>
        <time>2026-05-09T13:51:46.234Z</time>
      </trkpt>
      <trkpt lat="47.94729" lon="6.94452">
        <ele>809</ele>
        <time>2026-05-09T13:51:47.235Z</time>
      </trkpt>
      <trkpt lat="47.94728" lon="6.94451">
        <ele>809</ele>
        <time>2026-05-09T13:51:48.234Z</time>
      </trkpt>
      <trkpt lat="47.94726" lon="6.9445">
        <ele>809</ele>
        <time>2026-05-09T13:51:49.235Z</time>
      </trkpt>
      <trkpt lat="47.94724" lon="6.94448">
        <ele>809</ele>
        <time>2026-05-09T13:51:50.234Z</time>
      </trkpt>
      <trkpt lat="47.94721" lon="6.94446">
        <ele>810</ele>
        <time>2026-05-09T13:51:51.234Z</time>
      </trkpt>
      <trkpt lat="47.94719" lon="6.94442">
        <ele>810</ele>
        <time>2026-05-09T13:51:52.235Z</time>
      </trkpt>
      <trkpt lat="47.94718" lon="6.94438">
        <ele>810</ele>
        <time>2026-05-09T13:51:53.234Z</time>
      </trkpt>
      <trkpt lat="47.94716" lon="6.94436">
        <ele>810</ele>
        <time>2026-05-09T13:51:54.235Z</time>
      </trkpt>
      <trkpt lat="47.94714" lon="6.94434">
        <ele>811</ele>
        <time>2026-05-09T13:51:55.234Z</time>
      </trkpt>
      <trkpt lat="47.94712" lon="6.94433">
        <ele>811</ele>
        <time>2026-05-09T13:51:56.234Z</time>
      </trkpt>
      <trkpt lat="47.94709" lon="6.94431">
        <ele>811</ele>
        <time>2026-05-09T13:51:57.234Z</time>
      </trkpt>
      <trkpt lat="47.94707" lon="6.94432">
        <ele>811</ele>
        <time>2026-05-09T13:51:58.234Z</time>
      </trkpt>
      <trkpt lat="47.94707" lon="6.94432">
        <ele>811</ele>
        <time>2026-05-09T13:51:59.235Z</time>
      </trkpt>
      <trkpt lat="47.94705" lon="6.94431">
        <ele>811</ele>
        <time>2026-05-09T13:52:00.235Z</time>
      </trkpt>
      <trkpt lat="47.94704" lon="6.9443">
        <ele>811</ele>
        <time>2026-05-09T13:52:01.234Z</time>
      </trkpt>
      <trkpt lat="47.94703" lon="6.94427">
        <ele>811</ele>
        <time>2026-05-09T13:52:02.235Z</time>
      </trkpt>
      <trkpt lat="47.94702" lon="6.94424">
        <ele>811</ele>
        <time>2026-05-09T13:52:03.234Z</time>
      </trkpt>
      <trkpt lat="47.94702" lon="6.94425">
        <ele>811</ele>
        <time>2026-05-09T13:52:04.234Z</time>
      </trkpt>
      <trkpt lat="47.94701" lon="6.94427">
        <ele>811</ele>
        <time>2026-05-09T13:52:05.235Z</time>
      </trkpt>
      <trkpt lat="47.94702" lon="6.94426">
        <ele>811</ele>
        <time>2026-05-09T13:52:06.234Z</time>
      </trkpt>
      <trkpt lat="47.94701" lon="6.94426">
        <ele>811</ele>
        <time>2026-05-09T13:52:07.235Z</time>
      </trkpt>
      <trkpt lat="47.947" lon="6.94426">
        <ele>811</ele>
        <time>2026-05-09T13:52:08.234Z</time>
      </trkpt>
      <trkpt lat="47.947" lon="6.94426">
        <ele>811</ele>
        <time>2026-05-09T13:52:09.234Z</time>
      </trkpt>
      <trkpt lat="47.94701" lon="6.94433">
        <ele>812</ele>
        <time>2026-05-09T13:52:15.709Z</time>
      </trkpt>
      <trkpt lat="47.94702" lon="6.94435">
        <ele>813</ele>
        <time>2026-05-09T13:52:16.708Z</time>
      </trkpt>
      <trkpt lat="47.94703" lon="6.94436">
        <ele>813</ele>
        <time>2026-05-09T13:52:17.709Z</time>
      </trkpt>
      <trkpt lat="47.94703" lon="6.94437">
        <ele>813</ele>
        <time>2026-05-09T13:52:18.708Z</time>
      </trkpt>
      <trkpt lat="47.94703" lon="6.94438">
        <ele>813</ele>
        <time>2026-05-09T13:52:19.709Z</time>
      </trkpt>
      <trkpt lat="47.94703" lon="6.9444">
        <ele>813</ele>
        <time>2026-05-09T13:52:20.708Z</time>
      </trkpt>
      <trkpt lat="47.94703" lon="6.94443">
        <ele>813</ele>
        <time>2026-05-09T13:52:21.708Z</time>
      </trkpt>
      <trkpt lat="47.94703" lon="6.94445">
        <ele>813</ele>
        <time>2026-05-09T13:52:22.708Z</time>
      </trkpt>
      <trkpt lat="47.94703" lon="6.94447">
        <ele>813</ele>
        <time>2026-05-09T13:52:23.708Z</time>
      </trkpt>
      <trkpt lat="47.94703" lon="6.94448">
        <ele>813</ele>
        <time>2026-05-09T13:52:24.708Z</time>
      </trkpt>
      <trkpt lat="47.94703" lon="6.9445">
        <ele>813</ele>
        <time>2026-05-09T13:52:25.708Z</time>
      </trkpt>
      <trkpt lat="47.94704" lon="6.94451">
        <ele>813</ele>
        <time>2026-05-09T13:52:26.708Z</time>
      </trkpt>
      <trkpt lat="47.94704" lon="6.94453">
        <ele>812</ele>
        <time>2026-05-09T13:52:27.709Z</time>
      </trkpt>
      <trkpt lat="47.94704" lon="6.94454">
        <ele>812</ele>
        <time>2026-05-09T13:52:28.708Z</time>
      </trkpt>
      <trkpt lat="47.94705" lon="6.94456">
        <ele>812</ele>
        <time>2026-05-09T13:52:29.708Z</time>
      </trkpt>
      <trkpt lat="47.94705" lon="6.94459">
        <ele>811</ele>
        <time>2026-05-09T13:52:30.708Z</time>
      </trkpt>
      <trkpt lat="47.94706" lon="6.94461">
        <ele>811</ele>
        <time>2026-05-09T13:52:31.709Z</time>
      </trkpt>
      <trkpt lat="47.94706" lon="6.94463">
        <ele>811</ele>
        <time>2026-05-09T13:52:32.708Z</time>
      </trkpt>
      <trkpt lat="47.94706" lon="6.94465">
        <ele>810</ele>
        <time>2026-05-09T13:52:33.709Z</time>
      </trkpt>
      <trkpt lat="47.94706" lon="6.94468">
        <ele>810</ele>
        <time>2026-05-09T13:52:34.708Z</time>
      </trkpt>
      <trkpt lat="47.94706" lon="6.9447">
        <ele>810</ele>
        <time>2026-05-09T13:52:35.709Z</time>
      </trkpt>
      <trkpt lat="47.94706" lon="6.94472">
        <ele>809</ele>
        <time>2026-05-09T13:52:36.708Z</time>
      </trkpt>
      <trkpt lat="47.94706" lon="6.94473">
        <ele>809</ele>
        <time>2026-05-09T13:52:37.709Z</time>
      </trkpt>
      <trkpt lat="47.94707" lon="6.94474">
        <ele>808</ele>
        <time>2026-05-09T13:52:38.708Z</time>
      </trkpt>
      <trkpt lat="47.94708" lon="6.94475">
        <ele>808</ele>
        <time>2026-05-09T13:52:39.708Z</time>
      </trkpt>
      <trkpt lat="47.94708" lon="6.94477">
        <ele>808</ele>
        <time>2026-05-09T13:52:40.708Z</time>
      </trkpt>
      <trkpt lat="47.94708" lon="6.94478">
        <ele>807</ele>
        <time>2026-05-09T13:52:41.708Z</time>
      </trkpt>
      <trkpt lat="47.94708" lon="6.94479">
        <ele>807</ele>
        <time>2026-05-09T13:52:42.709Z</time>
      </trkpt>
      <trkpt lat="47.94708" lon="6.94481">
        <ele>807</ele>
        <time>2026-05-09T13:52:43.709Z</time>
      </trkpt>
      <trkpt lat="47.94708" lon="6.94482">
        <ele>807</ele>
        <time>2026-05-09T13:52:44.709Z</time>
      </trkpt>
      <trkpt lat="47.94708" lon="6.94484">
        <ele>807</ele>
        <time>2026-05-09T13:52:45.708Z</time>
      </trkpt>
      <trkpt lat="47.94708" lon="6.94485">
        <ele>807</ele>
        <time>2026-05-09T13:52:46.708Z</time>
      </trkpt>
      <trkpt lat="47.94708" lon="6.94487">
        <ele>807</ele>
        <time>2026-05-09T13:52:47.708Z</time>
      </trkpt>
      <trkpt lat="47.94708" lon="6.94489">
        <ele>806</ele>
        <time>2026-05-09T13:52:48.709Z</time>
      </trkpt>
      <trkpt lat="47.94708" lon="6.94493">
        <ele>806</ele>
        <time>2026-05-09T13:52:49.709Z</time>
      </trkpt>
      <trkpt lat="47.94708" lon="6.94495">
        <ele>806</ele>
        <time>2026-05-09T13:52:50.708Z</time>
      </trkpt>
      <trkpt lat="47.94708" lon="6.94497">
        <ele>806</ele>
        <time>2026-05-09T13:52:51.708Z</time>
      </trkpt>
      <trkpt lat="47.94708" lon="6.94502">
        <ele>807</ele>
        <time>2026-05-09T13:52:52.708Z</time>
      </trkpt>
      <trkpt lat="47.94708" lon="6.94505">
        <ele>807</ele>
        <time>2026-05-09T13:52:53.709Z</time>
      </trkpt>
      <trkpt lat="47.94707" lon="6.94509">
        <ele>807</ele>
        <time>2026-05-09T13:52:54.709Z</time>
      </trkpt>
      <trkpt lat="47.94707" lon="6.94511">
        <ele>807</ele>
        <time>2026-05-09T13:52:55.709Z</time>
      </trkpt>
      <trkpt lat="47.94707" lon="6.94514">
        <ele>806</ele>
        <time>2026-05-09T13:52:56.708Z</time>
      </trkpt>
      <trkpt lat="47.94706" lon="6.94517">
        <ele>806</ele>
        <time>2026-05-09T13:52:57.709Z</time>
      </trkpt>
      <trkpt lat="47.94706" lon="6.94521">
        <ele>805</ele>
        <time>2026-05-09T13:52:58.708Z</time>
      </trkpt>
      <trkpt lat="47.94706" lon="6.94525">
        <ele>805</ele>
        <time>2026-05-09T13:52:59.709Z</time>
      </trkpt>
      <trkpt lat="47.94706" lon="6.94528">
        <ele>804</ele>
        <time>2026-05-09T13:53:00.708Z</time>
      </trkpt>
      <trkpt lat="47.94707" lon="6.94531">
        <ele>804</ele>
        <time>2026-05-09T13:53:01.709Z</time>
      </trkpt>
      <trkpt lat="47.94707" lon="6.94534">
        <ele>803</ele>
        <time>2026-05-09T13:53:02.708Z</time>
      </trkpt>
      <trkpt lat="47.94708" lon="6.94538">
        <ele>803</ele>
        <time>2026-05-09T13:53:03.708Z</time>
      </trkpt>
      <trkpt lat="47.94707" lon="6.94543">
        <ele>802</ele>
        <time>2026-05-09T13:53:04.709Z</time>
      </trkpt>
      <trkpt lat="47.94707" lon="6.94547">
        <ele>802</ele>
        <time>2026-05-09T13:53:05.708Z</time>
      </trkpt>
      <trkpt lat="47.94707" lon="6.94552">
        <ele>802</ele>
        <time>2026-05-09T13:53:06.708Z</time>
      </trkpt>
      <trkpt lat="47.94707" lon="6.94555">
        <ele>801</ele>
        <time>2026-05-09T13:53:07.708Z</time>
      </trkpt>
      <trkpt lat="47.94708" lon="6.94558">
        <ele>801</ele>
        <time>2026-05-09T13:53:08.709Z</time>
      </trkpt>
      <trkpt lat="47.94708" lon="6.94561">
        <ele>800</ele>
        <time>2026-05-09T13:53:09.708Z</time>
      </trkpt>
      <trkpt lat="47.94707" lon="6.94564">
        <ele>799</ele>
        <time>2026-05-09T13:53:10.709Z</time>
      </trkpt>
      <trkpt lat="47.94707" lon="6.94567">
        <ele>798</ele>
        <time>2026-05-09T13:53:11.708Z</time>
      </trkpt>
      <trkpt lat="47.94708" lon="6.9457">
        <ele>797</ele>
        <time>2026-05-09T13:53:12.709Z</time>
      </trkpt>
      <trkpt lat="47.94708" lon="6.94573">
        <ele>796</ele>
        <time>2026-05-09T13:53:13.708Z</time>
      </trkpt>
      <trkpt lat="47.94708" lon="6.94576">
        <ele>795</ele>
        <time>2026-05-09T13:53:14.709Z</time>
      </trkpt>
      <trkpt lat="47.9471" lon="6.94578">
        <ele>794</ele>
        <time>2026-05-09T13:53:15.709Z</time>
      </trkpt>
      <trkpt lat="47.94711" lon="6.9458">
        <ele>793</ele>
        <time>2026-05-09T13:53:16.708Z</time>
      </trkpt>
      <trkpt lat="47.94712" lon="6.94582">
        <ele>792</ele>
        <time>2026-05-09T13:53:17.708Z</time>
      </trkpt>
      <trkpt lat="47.94713" lon="6.94584">
        <ele>791</ele>
        <time>2026-05-09T13:53:18.709Z</time>
      </trkpt>
      <trkpt lat="47.94715" lon="6.94585">
        <ele>790</ele>
        <time>2026-05-09T13:53:19.708Z</time>
      </trkpt>
      <trkpt lat="47.94716" lon="6.94587">
        <ele>789</ele>
        <time>2026-05-09T13:53:20.708Z</time>
      </trkpt>
      <trkpt lat="47.94717" lon="6.94588">
        <ele>789</ele>
        <time>2026-05-09T13:53:21.709Z</time>
      </trkpt>
      <trkpt lat="47.94717" lon="6.94589">
        <ele>788</ele>
        <time>2026-05-09T13:53:22.708Z</time>
      </trkpt>
      <trkpt lat="47.94718" lon="6.9459">
        <ele>787</ele>
        <time>2026-05-09T13:53:23.709Z</time>
      </trkpt>
      <trkpt lat="47.94719" lon="6.94592">
        <ele>787</ele>
        <time>2026-05-09T13:53:24.708Z</time>
      </trkpt>
      <trkpt lat="47.94721" lon="6.94593">
        <ele>787</ele>
        <time>2026-05-09T13:53:25.708Z</time>
      </trkpt>
      <trkpt lat="47.94723" lon="6.94593">
        <ele>786</ele>
        <time>2026-05-09T13:53:26.709Z</time>
      </trkpt>
      <trkpt lat="47.94724" lon="6.94594">
        <ele>786</ele>
        <time>2026-05-09T13:53:27.708Z</time>
      </trkpt>
      <trkpt lat="47.94725" lon="6.94595">
        <ele>786</ele>
        <time>2026-05-09T13:53:28.709Z</time>
      </trkpt>
      <trkpt lat="47.94726" lon="6.94596">
        <ele>785</ele>
        <time>2026-05-09T13:53:29.708Z</time>
      </trkpt>
      <trkpt lat="47.94728" lon="6.94597">
        <ele>785</ele>
        <time>2026-05-09T13:53:30.708Z</time>
      </trkpt>
      <trkpt lat="47.94729" lon="6.94598">
        <ele>785</ele>
        <time>2026-05-09T13:53:31.709Z</time>
      </trkpt>
      <trkpt lat="47.94731" lon="6.94599">
        <ele>785</ele>
        <time>2026-05-09T13:53:32.708Z</time>
      </trkpt>
      <trkpt lat="47.94734" lon="6.94599">
        <ele>784</ele>
        <time>2026-05-09T13:53:33.708Z</time>
      </trkpt>
      <trkpt lat="47.94736" lon="6.946">
        <ele>784</ele>
        <time>2026-05-09T13:53:34.708Z</time>
      </trkpt>
      <trkpt lat="47.94738" lon="6.94601">
        <ele>784</ele>
        <time>2026-05-09T13:53:35.708Z</time>
      </trkpt>
      <trkpt lat="47.9474" lon="6.94601">
        <ele>783</ele>
        <time>2026-05-09T13:53:36.708Z</time>
      </trkpt>
      <trkpt lat="47.94742" lon="6.94601">
        <ele>783</ele>
        <time>2026-05-09T13:53:37.708Z</time>
      </trkpt>
      <trkpt lat="47.94745" lon="6.94601">
        <ele>782</ele>
        <time>2026-05-09T13:53:38.709Z</time>
      </trkpt>
      <trkpt lat="47.94747" lon="6.946">
        <ele>782</ele>
        <time>2026-05-09T13:53:39.708Z</time>
      </trkpt>
      <trkpt lat="47.94749" lon="6.946">
        <ele>781</ele>
        <time>2026-05-09T13:53:40.708Z</time>
      </trkpt>
      <trkpt lat="47.9475" lon="6.94601">
        <ele>781</ele>
        <time>2026-05-09T13:53:41.708Z</time>
      </trkpt>
      <trkpt lat="47.94751" lon="6.94601">
        <ele>780</ele>
        <time>2026-05-09T13:53:42.708Z</time>
      </trkpt>
      <trkpt lat="47.94753" lon="6.94602">
        <ele>780</ele>
        <time>2026-05-09T13:53:43.708Z</time>
      </trkpt>
      <trkpt lat="47.94754" lon="6.94601">
        <ele>779</ele>
        <time>2026-05-09T13:53:44.708Z</time>
      </trkpt>
      <trkpt lat="47.94756" lon="6.94601">
        <ele>779</ele>
        <time>2026-05-09T13:53:45.708Z</time>
      </trkpt>
      <trkpt lat="47.94758" lon="6.946">
        <ele>779</ele>
        <time>2026-05-09T13:53:46.708Z</time>
      </trkpt>
      <trkpt lat="47.94759" lon="6.946">
        <ele>779</ele>
        <time>2026-05-09T13:53:47.708Z</time>
      </trkpt>
      <trkpt lat="47.9476" lon="6.946">
        <ele>779</ele>
        <time>2026-05-09T13:53:48.709Z</time>
      </trkpt>
      <trkpt lat="47.94761" lon="6.946">
        <ele>779</ele>
        <time>2026-05-09T13:53:49.708Z</time>
      </trkpt>
      <trkpt lat="47.94762" lon="6.946">
        <ele>779</ele>
        <time>2026-05-09T13:53:50.708Z</time>
      </trkpt>
      <trkpt lat="47.94763" lon="6.946">
        <ele>778</ele>
        <time>2026-05-09T13:53:51.708Z</time>
      </trkpt>
      <trkpt lat="47.94764" lon="6.946">
        <ele>778</ele>
        <time>2026-05-09T13:53:52.708Z</time>
      </trkpt>
      <trkpt lat="47.94765" lon="6.946">
        <ele>778</ele>
        <time>2026-05-09T13:53:53.708Z</time>
      </trkpt>
      <trkpt lat="47.94766" lon="6.94599">
        <ele>778</ele>
        <time>2026-05-09T13:53:54.708Z</time>
      </trkpt>
      <trkpt lat="47.94767" lon="6.94599">
        <ele>778</ele>
        <time>2026-05-09T13:53:55.709Z</time>
      </trkpt>
      <trkpt lat="47.94768" lon="6.94599">
        <ele>777</ele>
        <time>2026-05-09T13:53:56.708Z</time>
      </trkpt>
      <trkpt lat="47.94769" lon="6.94599">
        <ele>777</ele>
        <time>2026-05-09T13:53:57.708Z</time>
      </trkpt>
      <trkpt lat="47.9477" lon="6.94599">
        <ele>777</ele>
        <time>2026-05-09T13:53:58.708Z</time>
      </trkpt>
      <trkpt lat="47.94771" lon="6.94599">
        <ele>777</ele>
        <time>2026-05-09T13:53:59.708Z</time>
      </trkpt>
      <trkpt lat="47.94772" lon="6.94599">
        <ele>776</ele>
        <time>2026-05-09T13:54:00.708Z</time>
      </trkpt>
      <trkpt lat="47.94774" lon="6.94598">
        <ele>776</ele>
        <time>2026-05-09T13:54:01.708Z</time>
      </trkpt>
      <trkpt lat="47.94775" lon="6.94598">
        <ele>776</ele>
        <time>2026-05-09T13:54:02.708Z</time>
      </trkpt>
      <trkpt lat="47.94776" lon="6.94597">
        <ele>775</ele>
        <time>2026-05-09T13:54:03.708Z</time>
      </trkpt>
      <trkpt lat="47.94777" lon="6.94597">
        <ele>775</ele>
        <time>2026-05-09T13:54:04.708Z</time>
      </trkpt>
      <trkpt lat="47.94779" lon="6.94597">
        <ele>774</ele>
        <time>2026-05-09T13:54:05.708Z</time>
      </trkpt>
      <trkpt lat="47.94781" lon="6.94596">
        <ele>774</ele>
        <time>2026-05-09T13:54:06.709Z</time>
      </trkpt>
      <trkpt lat="47.94782" lon="6.94596">
        <ele>773</ele>
        <time>2026-05-09T13:54:07.709Z</time>
      </trkpt>
      <trkpt lat="47.94784" lon="6.94595">
        <ele>773</ele>
        <time>2026-05-09T13:54:08.708Z</time>
      </trkpt>
      <trkpt lat="47.94785" lon="6.94594">
        <ele>772</ele>
        <time>2026-05-09T13:54:09.708Z</time>
      </trkpt>
      <trkpt lat="47.94787" lon="6.94593">
        <ele>772</ele>
        <time>2026-05-09T13:54:10.708Z</time>
      </trkpt>
      <trkpt lat="47.94789" lon="6.94591">
        <ele>772</ele>
        <time>2026-05-09T13:54:11.708Z</time>
      </trkpt>
      <trkpt lat="47.9479" lon="6.9459">
        <ele>772</ele>
        <time>2026-05-09T13:54:12.708Z</time>
      </trkpt>
      <trkpt lat="47.94793" lon="6.94589">
        <ele>772</ele>
        <time>2026-05-09T13:54:13.708Z</time>
      </trkpt>
      <trkpt lat="47.94795" lon="6.94588">
        <ele>772</ele>
        <time>2026-05-09T13:54:14.708Z</time>
      </trkpt>
      <trkpt lat="47.94797" lon="6.94587">
        <ele>772</ele>
        <time>2026-05-09T13:54:15.709Z</time>
      </trkpt>
      <trkpt lat="47.948" lon="6.94586">
        <ele>772</ele>
        <time>2026-05-09T13:54:16.708Z</time>
      </trkpt>
      <trkpt lat="47.94803" lon="6.94584">
        <ele>772</ele>
        <time>2026-05-09T13:54:17.709Z</time>
      </trkpt>
      <trkpt lat="47.94806" lon="6.94582">
        <ele>772</ele>
        <time>2026-05-09T13:54:18.708Z</time>
      </trkpt>
      <trkpt lat="47.94809" lon="6.9458">
        <ele>772</ele>
        <time>2026-05-09T13:54:19.708Z</time>
      </trkpt>
      <trkpt lat="47.94811" lon="6.94579">
        <ele>772</ele>
        <time>2026-05-09T13:54:20.709Z</time>
      </trkpt>
      <trkpt lat="47.94813" lon="6.94578">
        <ele>772</ele>
        <time>2026-05-09T13:54:21.708Z</time>
      </trkpt>
      <trkpt lat="47.94816" lon="6.94578">
        <ele>772</ele>
        <time>2026-05-09T13:54:22.708Z</time>
      </trkpt>
      <trkpt lat="47.94817" lon="6.94577">
        <ele>772</ele>
        <time>2026-05-09T13:54:23.708Z</time>
      </trkpt>
      <trkpt lat="47.9482" lon="6.94575">
        <ele>772</ele>
        <time>2026-05-09T13:54:24.708Z</time>
      </trkpt>
      <trkpt lat="47.94823" lon="6.94574">
        <ele>772</ele>
        <time>2026-05-09T13:54:25.708Z</time>
      </trkpt>
      <trkpt lat="47.94826" lon="6.94572">
        <ele>771</ele>
        <time>2026-05-09T13:54:26.709Z</time>
      </trkpt>
      <trkpt lat="47.94829" lon="6.94571">
        <ele>771</ele>
        <time>2026-05-09T13:54:27.708Z</time>
      </trkpt>
      <trkpt lat="47.94831" lon="6.94571">
        <ele>771</ele>
        <time>2026-05-09T13:54:28.708Z</time>
      </trkpt>
      <trkpt lat="47.94835" lon="6.9457">
        <ele>771</ele>
        <time>2026-05-09T13:54:29.709Z</time>
      </trkpt>
      <trkpt lat="47.94838" lon="6.94573">
        <ele>771</ele>
        <time>2026-05-09T13:54:30.708Z</time>
      </trkpt>
      <trkpt lat="47.94842" lon="6.94577">
        <ele>770</ele>
        <time>2026-05-09T13:54:31.708Z</time>
      </trkpt>
      <trkpt lat="47.94844" lon="6.94582">
        <ele>770</ele>
        <time>2026-05-09T13:54:32.709Z</time>
      </trkpt>
      <trkpt lat="47.94847" lon="6.94587">
        <ele>769</ele>
        <time>2026-05-09T13:54:33.709Z</time>
      </trkpt>
      <trkpt lat="47.94848" lon="6.94593">
        <ele>769</ele>
        <time>2026-05-09T13:54:34.708Z</time>
      </trkpt>
      <trkpt lat="47.94849" lon="6.94599">
        <ele>768</ele>
        <time>2026-05-09T13:54:35.709Z</time>
      </trkpt>
      <trkpt lat="47.94849" lon="6.94604">
        <ele>768</ele>
        <time>2026-05-09T13:54:36.708Z</time>
      </trkpt>
      <trkpt lat="47.94848" lon="6.94606">
        <ele>768</ele>
        <time>2026-05-09T13:54:37.709Z</time>
      </trkpt>
      <trkpt lat="47.94847" lon="6.94609">
        <ele>768</ele>
        <time>2026-05-09T13:54:38.708Z</time>
      </trkpt>
      <trkpt lat="47.94847" lon="6.9461">
        <ele>767</ele>
        <time>2026-05-09T13:54:39.708Z</time>
      </trkpt>
      <trkpt lat="47.94847" lon="6.94611">
        <ele>767</ele>
        <time>2026-05-09T13:54:40.709Z</time>
      </trkpt>
      <trkpt lat="47.94847" lon="6.94611">
        <ele>767</ele>
        <time>2026-05-09T13:54:41.709Z</time>
      </trkpt>
      <trkpt lat="47.94846" lon="6.94611">
        <ele>766</ele>
        <time>2026-05-09T13:54:42.708Z</time>
      </trkpt>
      <trkpt lat="47.94846" lon="6.94612">
        <ele>766</ele>
        <time>2026-05-09T13:54:43.708Z</time>
      </trkpt>
      <trkpt lat="47.94845" lon="6.94615">
        <ele>766</ele>
        <time>2026-05-09T13:54:44.708Z</time>
      </trkpt>
      <trkpt lat="47.94844" lon="6.94616">
        <ele>766</ele>
        <time>2026-05-09T13:54:45.708Z</time>
      </trkpt>
      <trkpt lat="47.94844" lon="6.94618">
        <ele>765</ele>
        <time>2026-05-09T13:54:46.708Z</time>
      </trkpt>
      <trkpt lat="47.94844" lon="6.94619">
        <ele>765</ele>
        <time>2026-05-09T13:54:47.708Z</time>
      </trkpt>
      <trkpt lat="47.94845" lon="6.94622">
        <ele>765</ele>
        <time>2026-05-09T13:54:48.708Z</time>
      </trkpt>
      <trkpt lat="47.94844" lon="6.94626">
        <ele>765</ele>
        <time>2026-05-09T13:54:49.708Z</time>
      </trkpt>
      <trkpt lat="47.94844" lon="6.94629">
        <ele>765</ele>
        <time>2026-05-09T13:54:50.709Z</time>
      </trkpt>
      <trkpt lat="47.94845" lon="6.94632">
        <ele>764</ele>
        <time>2026-05-09T13:54:51.708Z</time>
      </trkpt>
      <trkpt lat="47.94845" lon="6.94635">
        <ele>764</ele>
        <time>2026-05-09T13:54:52.708Z</time>
      </trkpt>
      <trkpt lat="47.94846" lon="6.94637">
        <ele>764</ele>
        <time>2026-05-09T13:54:53.708Z</time>
      </trkpt>
      <trkpt lat="47.94846" lon="6.94639">
        <ele>764</ele>
        <time>2026-05-09T13:54:54.708Z</time>
      </trkpt>
      <trkpt lat="47.94847" lon="6.94642">
        <ele>763</ele>
        <time>2026-05-09T13:54:55.709Z</time>
      </trkpt>
      <trkpt lat="47.94848" lon="6.94645">
        <ele>763</ele>
        <time>2026-05-09T13:54:56.708Z</time>
      </trkpt>
      <trkpt lat="47.94849" lon="6.94647">
        <ele>762</ele>
        <time>2026-05-09T13:54:57.708Z</time>
      </trkpt>
      <trkpt lat="47.9485" lon="6.9465">
        <ele>762</ele>
        <time>2026-05-09T13:54:58.708Z</time>
      </trkpt>
      <trkpt lat="47.9485" lon="6.94653">
        <ele>761</ele>
        <time>2026-05-09T13:54:59.708Z</time>
      </trkpt>
      <trkpt lat="47.9485" lon="6.94656">
        <ele>760</ele>
        <time>2026-05-09T13:55:00.709Z</time>
      </trkpt>
      <trkpt lat="47.9485" lon="6.94659">
        <ele>760</ele>
        <time>2026-05-09T13:55:01.708Z</time>
      </trkpt>
      <trkpt lat="47.9485" lon="6.94662">
        <ele>759</ele>
        <time>2026-05-09T13:55:02.708Z</time>
      </trkpt>
      <trkpt lat="47.94851" lon="6.94665">
        <ele>759</ele>
        <time>2026-05-09T13:55:03.708Z</time>
      </trkpt>
      <trkpt lat="47.9485" lon="6.94667">
        <ele>758</ele>
        <time>2026-05-09T13:55:04.709Z</time>
      </trkpt>
      <trkpt lat="47.94849" lon="6.9467">
        <ele>758</ele>
        <time>2026-05-09T13:55:05.708Z</time>
      </trkpt>
      <trkpt lat="47.94847" lon="6.94674">
        <ele>757</ele>
        <time>2026-05-09T13:55:06.709Z</time>
      </trkpt>
      <trkpt lat="47.94846" lon="6.94677">
        <ele>756</ele>
        <time>2026-05-09T13:55:07.709Z</time>
      </trkpt>
      <trkpt lat="47.94845" lon="6.94679">
        <ele>755</ele>
        <time>2026-05-09T13:55:08.709Z</time>
      </trkpt>
      <trkpt lat="47.94843" lon="6.94681">
        <ele>754</ele>
        <time>2026-05-09T13:55:09.708Z</time>
      </trkpt>
      <trkpt lat="47.94842" lon="6.94683">
        <ele>754</ele>
        <time>2026-05-09T13:55:10.709Z</time>
      </trkpt>
      <trkpt lat="47.94842" lon="6.94684">
        <ele>753</ele>
        <time>2026-05-09T13:55:11.708Z</time>
      </trkpt>
      <trkpt lat="47.94842" lon="6.94685">
        <ele>752</ele>
        <time>2026-05-09T13:55:12.708Z</time>
      </trkpt>
      <trkpt lat="47.94842" lon="6.94686">
        <ele>751</ele>
        <time>2026-05-09T13:55:13.708Z</time>
      </trkpt>
      <trkpt lat="47.94841" lon="6.94687">
        <ele>750</ele>
        <time>2026-05-09T13:55:14.708Z</time>
      </trkpt>
      <trkpt lat="47.94841" lon="6.94689">
        <ele>749</ele>
        <time>2026-05-09T13:55:15.708Z</time>
      </trkpt>
      <trkpt lat="47.9484" lon="6.94691">
        <ele>749</ele>
        <time>2026-05-09T13:55:16.709Z</time>
      </trkpt>
      <trkpt lat="47.9484" lon="6.94692">
        <ele>748</ele>
        <time>2026-05-09T13:55:17.709Z</time>
      </trkpt>
      <trkpt lat="47.94839" lon="6.94693">
        <ele>747</ele>
        <time>2026-05-09T13:55:18.709Z</time>
      </trkpt>
      <trkpt lat="47.94839" lon="6.94694">
        <ele>746</ele>
        <time>2026-05-09T13:55:19.708Z</time>
      </trkpt>
      <trkpt lat="47.94838" lon="6.94696">
        <ele>745</ele>
        <time>2026-05-09T13:55:20.709Z</time>
      </trkpt>
      <trkpt lat="47.94837" lon="6.94699">
        <ele>744</ele>
        <time>2026-05-09T13:55:21.709Z</time>
      </trkpt>
      <trkpt lat="47.94837" lon="6.94701">
        <ele>743</ele>
        <time>2026-05-09T13:55:22.708Z</time>
      </trkpt>
      <trkpt lat="47.94835" lon="6.94704">
        <ele>742</ele>
        <time>2026-05-09T13:55:23.708Z</time>
      </trkpt>
      <trkpt lat="47.94835" lon="6.94707">
        <ele>741</ele>
        <time>2026-05-09T13:55:24.708Z</time>
      </trkpt>
      <trkpt lat="47.94833" lon="6.94709">
        <ele>741</ele>
        <time>2026-05-09T13:55:25.708Z</time>
      </trkpt>
      <trkpt lat="47.94832" lon="6.94711">
        <ele>740</ele>
        <time>2026-05-09T13:55:26.709Z</time>
      </trkpt>
      <trkpt lat="47.94831" lon="6.94714">
        <ele>739</ele>
        <time>2026-05-09T13:55:27.708Z</time>
      </trkpt>
      <trkpt lat="47.94829" lon="6.94716">
        <ele>739</ele>
        <time>2026-05-09T13:55:28.708Z</time>
      </trkpt>
      <trkpt lat="47.94828" lon="6.94719">
        <ele>738</ele>
        <time>2026-05-09T13:55:29.708Z</time>
      </trkpt>
      <trkpt lat="47.94828" lon="6.94721">
        <ele>738</ele>
        <time>2026-05-09T13:55:30.708Z</time>
      </trkpt>
      <trkpt lat="47.94827" lon="6.94722">
        <ele>737</ele>
        <time>2026-05-09T13:55:31.708Z</time>
      </trkpt>
      <trkpt lat="47.94827" lon="6.94723">
        <ele>736</ele>
        <time>2026-05-09T13:55:32.708Z</time>
      </trkpt>
      <trkpt lat="47.94827" lon="6.94725">
        <ele>736</ele>
        <time>2026-05-09T13:55:33.708Z</time>
      </trkpt>
      <trkpt lat="47.94826" lon="6.94727">
        <ele>735</ele>
        <time>2026-05-09T13:55:34.708Z</time>
      </trkpt>
      <trkpt lat="47.94825" lon="6.94729">
        <ele>735</ele>
        <time>2026-05-09T13:55:35.708Z</time>
      </trkpt>
      <trkpt lat="47.94825" lon="6.94731">
        <ele>734</ele>
        <time>2026-05-09T13:55:36.708Z</time>
      </trkpt>
      <trkpt lat="47.94824" lon="6.94732">
        <ele>734</ele>
        <time>2026-05-09T13:55:37.708Z</time>
      </trkpt>
      <trkpt lat="47.94824" lon="6.94733">
        <ele>734</ele>
        <time>2026-05-09T13:55:38.709Z</time>
      </trkpt>
      <trkpt lat="47.94823" lon="6.94735">
        <ele>733</ele>
        <time>2026-05-09T13:55:39.708Z</time>
      </trkpt>
      <trkpt lat="47.94822" lon="6.94737">
        <ele>733</ele>
        <time>2026-05-09T13:55:40.709Z</time>
      </trkpt>
      <trkpt lat="47.94822" lon="6.94739">
        <ele>733</ele>
        <time>2026-05-09T13:55:41.709Z</time>
      </trkpt>
      <trkpt lat="47.94821" lon="6.94741">
        <ele>733</ele>
        <time>2026-05-09T13:55:42.709Z</time>
      </trkpt>
      <trkpt lat="47.9482" lon="6.94744">
        <ele>733</ele>
        <time>2026-05-09T13:55:43.708Z</time>
      </trkpt>
      <trkpt lat="47.94819" lon="6.94747">
        <ele>733</ele>
        <time>2026-05-09T13:55:44.708Z</time>
      </trkpt>
      <trkpt lat="47.94818" lon="6.94749">
        <ele>732</ele>
        <time>2026-05-09T13:55:45.709Z</time>
      </trkpt>
      <trkpt lat="47.94816" lon="6.94751">
        <ele>732</ele>
        <time>2026-05-09T13:55:46.709Z</time>
      </trkpt>
      <trkpt lat="47.94815" lon="6.94753">
        <ele>731</ele>
        <time>2026-05-09T13:55:47.708Z</time>
      </trkpt>
      <trkpt lat="47.94813" lon="6.94756">
        <ele>731</ele>
        <time>2026-05-09T13:55:48.709Z</time>
      </trkpt>
      <trkpt lat="47.94812" lon="6.94758">
        <ele>730</ele>
        <time>2026-05-09T13:55:49.709Z</time>
      </trkpt>
      <trkpt lat="47.94811" lon="6.9476">
        <ele>730</ele>
        <time>2026-05-09T13:55:50.708Z</time>
      </trkpt>
      <trkpt lat="47.94809" lon="6.94762">
        <ele>729</ele>
        <time>2026-05-09T13:55:51.708Z</time>
      </trkpt>
      <trkpt lat="47.94808" lon="6.94763">
        <ele>729</ele>
        <time>2026-05-09T13:55:52.709Z</time>
      </trkpt>
      <trkpt lat="47.94806" lon="6.94766">
        <ele>728</ele>
        <time>2026-05-09T13:55:53.708Z</time>
      </trkpt>
      <trkpt lat="47.94805" lon="6.94768">
        <ele>728</ele>
        <time>2026-05-09T13:55:54.708Z</time>
      </trkpt>
      <trkpt lat="47.94804" lon="6.9477">
        <ele>728</ele>
        <time>2026-05-09T13:55:55.708Z</time>
      </trkpt>
      <trkpt lat="47.94802" lon="6.94772">
        <ele>727</ele>
        <time>2026-05-09T13:55:56.709Z</time>
      </trkpt>
      <trkpt lat="47.94801" lon="6.94774">
        <ele>726</ele>
        <time>2026-05-09T13:55:57.708Z</time>
      </trkpt>
      <trkpt lat="47.94799" lon="6.94777">
        <ele>726</ele>
        <time>2026-05-09T13:55:58.708Z</time>
      </trkpt>
      <trkpt lat="47.94797" lon="6.9478">
        <ele>725</ele>
        <time>2026-05-09T13:55:59.708Z</time>
      </trkpt>
      <trkpt lat="47.94796" lon="6.94782">
        <ele>725</ele>
        <time>2026-05-09T13:56:00.708Z</time>
      </trkpt>
      <trkpt lat="47.94796" lon="6.94784">
        <ele>724</ele>
        <time>2026-05-09T13:56:01.708Z</time>
      </trkpt>
      <trkpt lat="47.94795" lon="6.94785">
        <ele>723</ele>
        <time>2026-05-09T13:56:02.709Z</time>
      </trkpt>
      <trkpt lat="47.94793" lon="6.94785">
        <ele>722</ele>
        <time>2026-05-09T13:56:03.709Z</time>
      </trkpt>
      <trkpt lat="47.94792" lon="6.94787">
        <ele>720</ele>
        <time>2026-05-09T13:56:04.708Z</time>
      </trkpt>
      <trkpt lat="47.94791" lon="6.9479">
        <ele>719</ele>
        <time>2026-05-09T13:56:05.708Z</time>
      </trkpt>
      <trkpt lat="47.9479" lon="6.94792">
        <ele>718</ele>
        <time>2026-05-09T13:56:06.708Z</time>
      </trkpt>
      <trkpt lat="47.94789" lon="6.94793">
        <ele>717</ele>
        <time>2026-05-09T13:56:07.708Z</time>
      </trkpt>
      <trkpt lat="47.94787" lon="6.94796">
        <ele>716</ele>
        <time>2026-05-09T13:56:08.709Z</time>
      </trkpt>
      <trkpt lat="47.94786" lon="6.94798">
        <ele>716</ele>
        <time>2026-05-09T13:56:09.709Z</time>
      </trkpt>
      <trkpt lat="47.94785" lon="6.948">
        <ele>715</ele>
        <time>2026-05-09T13:56:10.709Z</time>
      </trkpt>
      <trkpt lat="47.94784" lon="6.94802">
        <ele>715</ele>
        <time>2026-05-09T13:56:11.709Z</time>
      </trkpt>
      <trkpt lat="47.94784" lon="6.94803">
        <ele>715</ele>
        <time>2026-05-09T13:56:12.708Z</time>
      </trkpt>
      <trkpt lat="47.94783" lon="6.94805">
        <ele>715</ele>
        <time>2026-05-09T13:56:13.709Z</time>
      </trkpt>
      <trkpt lat="47.94782" lon="6.94806">
        <ele>715</ele>
        <time>2026-05-09T13:56:14.709Z</time>
      </trkpt>
      <trkpt lat="47.94781" lon="6.94808">
        <ele>714</ele>
        <time>2026-05-09T13:56:15.709Z</time>
      </trkpt>
      <trkpt lat="47.9478" lon="6.94811">
        <ele>714</ele>
        <time>2026-05-09T13:56:16.708Z</time>
      </trkpt>
      <trkpt lat="47.9478" lon="6.94812">
        <ele>714</ele>
        <time>2026-05-09T13:56:17.708Z</time>
      </trkpt>
      <trkpt lat="47.94779" lon="6.94814">
        <ele>714</ele>
        <time>2026-05-09T13:56:18.708Z</time>
      </trkpt>
      <trkpt lat="47.94778" lon="6.94816">
        <ele>713</ele>
        <time>2026-05-09T13:56:19.708Z</time>
      </trkpt>
      <trkpt lat="47.94776" lon="6.94818">
        <ele>713</ele>
        <time>2026-05-09T13:56:20.709Z</time>
      </trkpt>
      <trkpt lat="47.94776" lon="6.9482">
        <ele>712</ele>
        <time>2026-05-09T13:56:21.708Z</time>
      </trkpt>
      <trkpt lat="47.94775" lon="6.94822">
        <ele>712</ele>
        <time>2026-05-09T13:56:22.708Z</time>
      </trkpt>
      <trkpt lat="47.94774" lon="6.94824">
        <ele>711</ele>
        <time>2026-05-09T13:56:23.708Z</time>
      </trkpt>
      <trkpt lat="47.94773" lon="6.94827">
        <ele>711</ele>
        <time>2026-05-09T13:56:24.709Z</time>
      </trkpt>
      <trkpt lat="47.94772" lon="6.94829">
        <ele>711</ele>
        <time>2026-05-09T13:56:25.708Z</time>
      </trkpt>
      <trkpt lat="47.94771" lon="6.94831">
        <ele>711</ele>
        <time>2026-05-09T13:56:26.708Z</time>
      </trkpt>
      <trkpt lat="47.9477" lon="6.94833">
        <ele>710</ele>
        <time>2026-05-09T13:56:27.708Z</time>
      </trkpt>
      <trkpt lat="47.94769" lon="6.94835">
        <ele>710</ele>
        <time>2026-05-09T13:56:28.708Z</time>
      </trkpt>
      <trkpt lat="47.94768" lon="6.94837">
        <ele>710</ele>
        <time>2026-05-09T13:56:29.708Z</time>
      </trkpt>
      <trkpt lat="47.94766" lon="6.94839">
        <ele>710</ele>
        <time>2026-05-09T13:56:30.709Z</time>
      </trkpt>
      <trkpt lat="47.94765" lon="6.94841">
        <ele>709</ele>
        <time>2026-05-09T13:56:31.709Z</time>
      </trkpt>
      <trkpt lat="47.94763" lon="6.94844">
        <ele>708</ele>
        <time>2026-05-09T13:56:32.708Z</time>
      </trkpt>
      <trkpt lat="47.94762" lon="6.94846">
        <ele>707</ele>
        <time>2026-05-09T13:56:33.708Z</time>
      </trkpt>
      <trkpt lat="47.9476" lon="6.94849">
        <ele>706</ele>
        <time>2026-05-09T13:56:34.708Z</time>
      </trkpt>
      <trkpt lat="47.94759" lon="6.94852">
        <ele>706</ele>
        <time>2026-05-09T13:56:35.709Z</time>
      </trkpt>
      <trkpt lat="47.94758" lon="6.94855">
        <ele>705</ele>
        <time>2026-05-09T13:56:36.708Z</time>
      </trkpt>
      <trkpt lat="47.94757" lon="6.94857">
        <ele>704</ele>
        <time>2026-05-09T13:56:37.709Z</time>
      </trkpt>
      <trkpt lat="47.94755" lon="6.9486">
        <ele>703</ele>
        <time>2026-05-09T13:56:38.709Z</time>
      </trkpt>
      <trkpt lat="47.94753" lon="6.94863">
        <ele>702</ele>
        <time>2026-05-09T13:56:39.708Z</time>
      </trkpt>
      <trkpt lat="47.94752" lon="6.94866">
        <ele>701</ele>
        <time>2026-05-09T13:56:40.708Z</time>
      </trkpt>
      <trkpt lat="47.9475" lon="6.94868">
        <ele>701</ele>
        <time>2026-05-09T13:56:41.708Z</time>
      </trkpt>
      <trkpt lat="47.94748" lon="6.9487">
        <ele>700</ele>
        <time>2026-05-09T13:56:42.708Z</time>
      </trkpt>
      <trkpt lat="47.94746" lon="6.94871">
        <ele>699</ele>
        <time>2026-05-09T13:56:43.708Z</time>
      </trkpt>
      <trkpt lat="47.94745" lon="6.94871">
        <ele>699</ele>
        <time>2026-05-09T13:56:44.708Z</time>
      </trkpt>
      <trkpt lat="47.94744" lon="6.94871">
        <ele>698</ele>
        <time>2026-05-09T13:56:45.708Z</time>
      </trkpt>
      <trkpt lat="47.94743" lon="6.94872">
        <ele>698</ele>
        <time>2026-05-09T13:56:46.709Z</time>
      </trkpt>
      <trkpt lat="47.94742" lon="6.94873">
        <ele>697</ele>
        <time>2026-05-09T13:56:47.708Z</time>
      </trkpt>
      <trkpt lat="47.9474" lon="6.94874">
        <ele>697</ele>
        <time>2026-05-09T13:56:48.709Z</time>
      </trkpt>
      <trkpt lat="47.94739" lon="6.94874">
        <ele>696</ele>
        <time>2026-05-09T13:56:49.708Z</time>
      </trkpt>
      <trkpt lat="47.94737" lon="6.94874">
        <ele>695</ele>
        <time>2026-05-09T13:56:50.708Z</time>
      </trkpt>
      <trkpt lat="47.94736" lon="6.94875">
        <ele>695</ele>
        <time>2026-05-09T13:56:51.709Z</time>
      </trkpt>
      <trkpt lat="47.94734" lon="6.94876">
        <ele>694</ele>
        <time>2026-05-09T13:56:52.708Z</time>
      </trkpt>
      <trkpt lat="47.94733" lon="6.94877">
        <ele>694</ele>
        <time>2026-05-09T13:56:53.708Z</time>
      </trkpt>
      <trkpt lat="47.94732" lon="6.94878">
        <ele>693</ele>
        <time>2026-05-09T13:56:54.709Z</time>
      </trkpt>
      <trkpt lat="47.9473" lon="6.9488">
        <ele>693</ele>
        <time>2026-05-09T13:56:55.708Z</time>
      </trkpt>
      <trkpt lat="47.94729" lon="6.94882">
        <ele>693</ele>
        <time>2026-05-09T13:56:56.709Z</time>
      </trkpt>
      <trkpt lat="47.94727" lon="6.94883">
        <ele>692</ele>
        <time>2026-05-09T13:56:57.708Z</time>
      </trkpt>
      <trkpt lat="47.94726" lon="6.94884">
        <ele>691</ele>
        <time>2026-05-09T13:56:58.709Z</time>
      </trkpt>
      <trkpt lat="47.94724" lon="6.94886">
        <ele>690</ele>
        <time>2026-05-09T13:56:59.708Z</time>
      </trkpt>
      <trkpt lat="47.94722" lon="6.94888">
        <ele>690</ele>
        <time>2026-05-09T13:57:00.708Z</time>
      </trkpt>
      <trkpt lat="47.94721" lon="6.9489">
        <ele>689</ele>
        <time>2026-05-09T13:57:01.709Z</time>
      </trkpt>
      <trkpt lat="47.94719" lon="6.94892">
        <ele>688</ele>
        <time>2026-05-09T13:57:02.709Z</time>
      </trkpt>
      <trkpt lat="47.94717" lon="6.94895">
        <ele>688</ele>
        <time>2026-05-09T13:57:03.708Z</time>
      </trkpt>
      <trkpt lat="47.94716" lon="6.94896">
        <ele>687</ele>
        <time>2026-05-09T13:57:04.709Z</time>
      </trkpt>
      <trkpt lat="47.94714" lon="6.94898">
        <ele>687</ele>
        <time>2026-05-09T13:57:05.709Z</time>
      </trkpt>
      <trkpt lat="47.94712" lon="6.949">
        <ele>687</ele>
        <time>2026-05-09T13:57:06.708Z</time>
      </trkpt>
      <trkpt lat="47.9471" lon="6.94902">
        <ele>687</ele>
        <time>2026-05-09T13:57:07.708Z</time>
      </trkpt>
      <trkpt lat="47.94709" lon="6.94904">
        <ele>687</ele>
        <time>2026-05-09T13:57:08.708Z</time>
      </trkpt>
      <trkpt lat="47.94707" lon="6.94906">
        <ele>686</ele>
        <time>2026-05-09T13:57:09.708Z</time>
      </trkpt>
      <trkpt lat="47.94706" lon="6.94907">
        <ele>685</ele>
        <time>2026-05-09T13:57:10.708Z</time>
      </trkpt>
      <trkpt lat="47.94705" lon="6.94907">
        <ele>685</ele>
        <time>2026-05-09T13:57:11.709Z</time>
      </trkpt>
      <trkpt lat="47.94704" lon="6.94908">
        <ele>684</ele>
        <time>2026-05-09T13:57:12.709Z</time>
      </trkpt>
      <trkpt lat="47.94703" lon="6.94909">
        <ele>683</ele>
        <time>2026-05-09T13:57:13.708Z</time>
      </trkpt>
      <trkpt lat="47.94701" lon="6.94909">
        <ele>683</ele>
        <time>2026-05-09T13:57:14.708Z</time>
      </trkpt>
      <trkpt lat="47.947" lon="6.9491">
        <ele>683</ele>
        <time>2026-05-09T13:57:15.709Z</time>
      </trkpt>
      <trkpt lat="47.94699" lon="6.94911">
        <ele>683</ele>
        <time>2026-05-09T13:57:16.708Z</time>
      </trkpt>
      <trkpt lat="47.94698" lon="6.94912">
        <ele>683</ele>
        <time>2026-05-09T13:57:17.708Z</time>
      </trkpt>
      <trkpt lat="47.94696" lon="6.94913">
        <ele>683</ele>
        <time>2026-05-09T13:57:18.708Z</time>
      </trkpt>
      <trkpt lat="47.94694" lon="6.94915">
        <ele>682</ele>
        <time>2026-05-09T13:57:19.709Z</time>
      </trkpt>
      <trkpt lat="47.94692" lon="6.94918">
        <ele>682</ele>
        <time>2026-05-09T13:57:20.708Z</time>
      </trkpt>
      <trkpt lat="47.9469" lon="6.9492">
        <ele>682</ele>
        <time>2026-05-09T13:57:21.708Z</time>
      </trkpt>
      <trkpt lat="47.94688" lon="6.94923">
        <ele>682</ele>
        <time>2026-05-09T13:57:22.708Z</time>
      </trkpt>
      <trkpt lat="47.94687" lon="6.94924">
        <ele>681</ele>
        <time>2026-05-09T13:57:23.709Z</time>
      </trkpt>
      <trkpt lat="47.94686" lon="6.94924">
        <ele>681</ele>
        <time>2026-05-09T13:57:24.709Z</time>
      </trkpt>
      <trkpt lat="47.94686" lon="6.94925">
        <ele>680</ele>
        <time>2026-05-09T13:57:25.708Z</time>
      </trkpt>
      <trkpt lat="47.94685" lon="6.94927">
        <ele>680</ele>
        <time>2026-05-09T13:57:26.709Z</time>
      </trkpt>
      <trkpt lat="47.94683" lon="6.94928">
        <ele>679</ele>
        <time>2026-05-09T13:57:27.708Z</time>
      </trkpt>
      <trkpt lat="47.94681" lon="6.94929">
        <ele>679</ele>
        <time>2026-05-09T13:57:28.708Z</time>
      </trkpt>
      <trkpt lat="47.94681" lon="6.94929">
        <ele>679</ele>
        <time>2026-05-09T13:57:29.708Z</time>
      </trkpt>
      <trkpt lat="47.9468" lon="6.9493">
        <ele>679</ele>
        <time>2026-05-09T13:57:30.708Z</time>
      </trkpt>
      <trkpt lat="47.94678" lon="6.94931">
        <ele>678</ele>
        <time>2026-05-09T13:57:31.708Z</time>
      </trkpt>
      <trkpt lat="47.94678" lon="6.94933">
        <ele>678</ele>
        <time>2026-05-09T13:57:32.708Z</time>
      </trkpt>
      <trkpt lat="47.94677" lon="6.94935">
        <ele>678</ele>
        <time>2026-05-09T13:57:33.708Z</time>
      </trkpt>
      <trkpt lat="47.94676" lon="6.94938">
        <ele>678</ele>
        <time>2026-05-09T13:57:34.708Z</time>
      </trkpt>
      <trkpt lat="47.94675" lon="6.9494">
        <ele>678</ele>
        <time>2026-05-09T13:57:35.709Z</time>
      </trkpt>
      <trkpt lat="47.94675" lon="6.94942">
        <ele>678</ele>
        <time>2026-05-09T13:57:36.708Z</time>
      </trkpt>
      <trkpt lat="47.94674" lon="6.94945">
        <ele>678</ele>
        <time>2026-05-09T13:57:37.708Z</time>
      </trkpt>
      <trkpt lat="47.94673" lon="6.94947">
        <ele>677</ele>
        <time>2026-05-09T13:57:38.709Z</time>
      </trkpt>
      <trkpt lat="47.94671" lon="6.94949">
        <ele>677</ele>
        <time>2026-05-09T13:57:39.708Z</time>
      </trkpt>
      <trkpt lat="47.94669" lon="6.94953">
        <ele>676</ele>
        <time>2026-05-09T13:57:40.708Z</time>
      </trkpt>
      <trkpt lat="47.94666" lon="6.94952">
        <ele>676</ele>
        <time>2026-05-09T13:57:41.708Z</time>
      </trkpt>
      <trkpt lat="47.94665" lon="6.94954">
        <ele>675</ele>
        <time>2026-05-09T13:57:42.709Z</time>
      </trkpt>
      <trkpt lat="47.94664" lon="6.94955">
        <ele>675</ele>
        <time>2026-05-09T13:57:43.708Z</time>
      </trkpt>
      <trkpt lat="47.94663" lon="6.94956">
        <ele>674</ele>
        <time>2026-05-09T13:57:44.708Z</time>
      </trkpt>
      <trkpt lat="47.94662" lon="6.9496">
        <ele>674</ele>
        <time>2026-05-09T13:57:45.708Z</time>
      </trkpt>
      <trkpt lat="47.94661" lon="6.94962">
        <ele>673</ele>
        <time>2026-05-09T13:57:46.709Z</time>
      </trkpt>
      <trkpt lat="47.94657" lon="6.94966">
        <ele>672</ele>
        <time>2026-05-09T13:57:47.708Z</time>
      </trkpt>
      <trkpt lat="47.94655" lon="6.94968">
        <ele>672</ele>
        <time>2026-05-09T13:57:48.708Z</time>
      </trkpt>
      <trkpt lat="47.94653" lon="6.94972">
        <ele>672</ele>
        <time>2026-05-09T13:57:49.709Z</time>
      </trkpt>
      <trkpt lat="47.94652" lon="6.94975">
        <ele>671</ele>
        <time>2026-05-09T13:57:50.708Z</time>
      </trkpt>
      <trkpt lat="47.94653" lon="6.94975">
        <ele>671</ele>
        <time>2026-05-09T13:57:51.709Z</time>
      </trkpt>
      <trkpt lat="47.94653" lon="6.94976">
        <ele>671</ele>
        <time>2026-05-09T13:57:52.709Z</time>
      </trkpt>
      <trkpt lat="47.94653" lon="6.94979">
        <ele>671</ele>
        <time>2026-05-09T13:57:53.709Z</time>
      </trkpt>
      <trkpt lat="47.94651" lon="6.9498">
        <ele>672</ele>
        <time>2026-05-09T13:57:54.708Z</time>
      </trkpt>
      <trkpt lat="47.9465" lon="6.94981">
        <ele>672</ele>
        <time>2026-05-09T13:57:55.708Z</time>
      </trkpt>
      <trkpt lat="47.94649" lon="6.94983">
        <ele>672</ele>
        <time>2026-05-09T13:57:56.709Z</time>
      </trkpt>
      <trkpt lat="47.94648" lon="6.94987">
        <ele>672</ele>
        <time>2026-05-09T13:57:57.709Z</time>
      </trkpt>
      <trkpt lat="47.94647" lon="6.9499">
        <ele>672</ele>
        <time>2026-05-09T13:57:58.708Z</time>
      </trkpt>
      <trkpt lat="47.94644" lon="6.94995">
        <ele>672</ele>
        <time>2026-05-09T13:57:59.708Z</time>
      </trkpt>
      <trkpt lat="47.94641" lon="6.94998">
        <ele>672</ele>
        <time>2026-05-09T13:58:00.709Z</time>
      </trkpt>
      <trkpt lat="47.9464" lon="6.95">
        <ele>671</ele>
        <time>2026-05-09T13:58:01.708Z</time>
      </trkpt>
      <trkpt lat="47.94641" lon="6.94999">
        <ele>671</ele>
        <time>2026-05-09T13:58:02.708Z</time>
      </trkpt>
      <trkpt lat="47.94643" lon="6.94997">
        <ele>671</ele>
        <time>2026-05-09T13:58:03.708Z</time>
      </trkpt>
      <trkpt lat="47.94642" lon="6.94999">
        <ele>671</ele>
        <time>2026-05-09T13:58:04.709Z</time>
      </trkpt>
      <trkpt lat="47.94641" lon="6.95">
        <ele>670</ele>
        <time>2026-05-09T13:58:05.709Z</time>
      </trkpt>
      <trkpt lat="47.94639" lon="6.95">
        <ele>670</ele>
        <time>2026-05-09T13:58:06.708Z</time>
      </trkpt>
      <trkpt lat="47.94638" lon="6.95001">
        <ele>668</ele>
        <time>2026-05-09T13:58:07.709Z</time>
      </trkpt>
      <trkpt lat="47.94636" lon="6.95002">
        <ele>667</ele>
        <time>2026-05-09T13:58:08.708Z</time>
      </trkpt>
      <trkpt lat="47.94634" lon="6.95003">
        <ele>667</ele>
        <time>2026-05-09T13:58:09.708Z</time>
      </trkpt>
      <trkpt lat="47.94632" lon="6.95005">
        <ele>666</ele>
        <time>2026-05-09T13:58:10.709Z</time>
      </trkpt>
      <trkpt lat="47.94631" lon="6.95006">
        <ele>665</ele>
        <time>2026-05-09T13:58:11.709Z</time>
      </trkpt>
      <trkpt lat="47.9463" lon="6.95006">
        <ele>665</ele>
        <time>2026-05-09T13:58:12.709Z</time>
      </trkpt>
      <trkpt lat="47.94629" lon="6.95008">
        <ele>664</ele>
        <time>2026-05-09T13:58:13.708Z</time>
      </trkpt>
      <trkpt lat="47.94628" lon="6.9501">
        <ele>664</ele>
        <time>2026-05-09T13:58:14.708Z</time>
      </trkpt>
      <trkpt lat="47.94626" lon="6.95011">
        <ele>663</ele>
        <time>2026-05-09T13:58:15.708Z</time>
      </trkpt>
      <trkpt lat="47.94625" lon="6.95013">
        <ele>663</ele>
        <time>2026-05-09T13:58:16.708Z</time>
      </trkpt>
      <trkpt lat="47.94624" lon="6.95015">
        <ele>662</ele>
        <time>2026-05-09T13:58:17.708Z</time>
      </trkpt>
      <trkpt lat="47.94624" lon="6.95016">
        <ele>662</ele>
        <time>2026-05-09T13:58:18.708Z</time>
      </trkpt>
      <trkpt lat="47.94623" lon="6.95018">
        <ele>661</ele>
        <time>2026-05-09T13:58:19.709Z</time>
      </trkpt>
      <trkpt lat="47.94622" lon="6.95021">
        <ele>661</ele>
        <time>2026-05-09T13:58:20.708Z</time>
      </trkpt>
      <trkpt lat="47.94622" lon="6.95023">
        <ele>661</ele>
        <time>2026-05-09T13:58:21.708Z</time>
      </trkpt>
      <trkpt lat="47.94621" lon="6.95025">
        <ele>662</ele>
        <time>2026-05-09T13:58:22.708Z</time>
      </trkpt>
      <trkpt lat="47.94621" lon="6.95027">
        <ele>662</ele>
        <time>2026-05-09T13:58:23.708Z</time>
      </trkpt>
      <trkpt lat="47.94621" lon="6.95028">
        <ele>661</ele>
        <time>2026-05-09T13:58:24.709Z</time>
      </trkpt>
      <trkpt lat="47.9462" lon="6.9503">
        <ele>661</ele>
        <time>2026-05-09T13:58:25.708Z</time>
      </trkpt>
      <trkpt lat="47.9462" lon="6.95032">
        <ele>661</ele>
        <time>2026-05-09T13:58:26.708Z</time>
      </trkpt>
      <trkpt lat="47.94619" lon="6.95034">
        <ele>660</ele>
        <time>2026-05-09T13:58:27.709Z</time>
      </trkpt>
      <trkpt lat="47.94619" lon="6.95037">
        <ele>660</ele>
        <time>2026-05-09T13:58:28.709Z</time>
      </trkpt>
      <trkpt lat="47.94619" lon="6.95039">
        <ele>660</ele>
        <time>2026-05-09T13:58:29.709Z</time>
      </trkpt>
      <trkpt lat="47.94618" lon="6.95042">
        <ele>659</ele>
        <time>2026-05-09T13:58:30.708Z</time>
      </trkpt>
      <trkpt lat="47.94617" lon="6.95045">
        <ele>659</ele>
        <time>2026-05-09T13:58:31.709Z</time>
      </trkpt>
      <trkpt lat="47.94616" lon="6.95048">
        <ele>659</ele>
        <time>2026-05-09T13:58:32.708Z</time>
      </trkpt>
      <trkpt lat="47.94615" lon="6.95051">
        <ele>659</ele>
        <time>2026-05-09T13:58:33.708Z</time>
      </trkpt>
      <trkpt lat="47.94615" lon="6.95054">
        <ele>659</ele>
        <time>2026-05-09T13:58:34.709Z</time>
      </trkpt>
      <trkpt lat="47.94614" lon="6.95056">
        <ele>659</ele>
        <time>2026-05-09T13:58:35.708Z</time>
      </trkpt>
      <trkpt lat="47.94614" lon="6.95057">
        <ele>660</ele>
        <time>2026-05-09T13:58:36.708Z</time>
      </trkpt>
      <trkpt lat="47.94613" lon="6.95058">
        <ele>660</ele>
        <time>2026-05-09T13:58:37.708Z</time>
      </trkpt>
      <trkpt lat="47.94613" lon="6.95059">
        <ele>660</ele>
        <time>2026-05-09T13:58:38.708Z</time>
      </trkpt>
      <trkpt lat="47.94613" lon="6.95061">
        <ele>660</ele>
        <time>2026-05-09T13:58:39.708Z</time>
      </trkpt>
      <trkpt lat="47.94612" lon="6.95064">
        <ele>660</ele>
        <time>2026-05-09T13:58:40.709Z</time>
      </trkpt>
      <trkpt lat="47.94613" lon="6.95066">
        <ele>660</ele>
        <time>2026-05-09T13:58:41.709Z</time>
      </trkpt>
      <trkpt lat="47.94613" lon="6.95069">
        <ele>660</ele>
        <time>2026-05-09T13:58:42.708Z</time>
      </trkpt>
      <trkpt lat="47.94613" lon="6.95071">
        <ele>660</ele>
        <time>2026-05-09T13:58:43.709Z</time>
      </trkpt>
      <trkpt lat="47.94612" lon="6.95073">
        <ele>659</ele>
        <time>2026-05-09T13:58:44.709Z</time>
      </trkpt>
      <trkpt lat="47.94612" lon="6.95073">
        <ele>659</ele>
        <time>2026-05-09T13:58:45.708Z</time>
      </trkpt>
      <trkpt lat="47.94612" lon="6.95073">
        <ele>659</ele>
        <time>2026-05-09T13:58:46.709Z</time>
      </trkpt>
      <trkpt lat="47.94612" lon="6.95073">
        <ele>658</ele>
        <time>2026-05-09T13:58:47.708Z</time>
      </trkpt>
      <trkpt lat="47.9461" lon="6.95078">
        <ele>655</ele>
        <time>2026-05-09T13:58:54.029Z</time>
      </trkpt>
      <trkpt lat="47.9461" lon="6.95078">
        <ele>654</ele>
        <time>2026-05-09T13:58:55.029Z</time>
      </trkpt>
      <trkpt lat="47.9461" lon="6.95078">
        <ele>654</ele>
        <time>2026-05-09T13:58:56.030Z</time>
      </trkpt>
      <trkpt lat="47.94606" lon="6.95079">
        <ele>653</ele>
        <time>2026-05-09T13:59:02.359Z</time>
      </trkpt>
      <trkpt lat="47.94607" lon="6.95079">
        <ele>650</ele>
        <time>2026-05-09T13:59:10.715Z</time>
      </trkpt>
      <trkpt lat="47.94607" lon="6.95079">
        <ele>649</ele>
        <time>2026-05-09T13:59:11.715Z</time>
      </trkpt>
      <trkpt lat="47.94607" lon="6.95079">
        <ele>648</ele>
        <time>2026-05-09T13:59:12.715Z</time>
      </trkpt>
      <trkpt lat="47.94607" lon="6.95079">
        <ele>648</ele>
        <time>2026-05-09T13:59:13.715Z</time>
      </trkpt>
      <trkpt lat="47.94607" lon="6.95079">
        <ele>647</ele>
        <time>2026-05-09T13:59:14.714Z</time>
      </trkpt>
      <trkpt lat="47.94607" lon="6.95079">
        <ele>646</ele>
        <time>2026-05-09T13:59:15.714Z</time>
      </trkpt>
      <trkpt lat="47.94607" lon="6.95079">
        <ele>645</ele>
        <time>2026-05-09T13:59:16.715Z</time>
      </trkpt>
      <trkpt lat="47.94607" lon="6.95079">
        <ele>645</ele>
        <time>2026-05-09T13:59:17.714Z</time>
      </trkpt>
      <trkpt lat="47.94607" lon="6.95079">
        <ele>644</ele>
        <time>2026-05-09T13:59:18.714Z</time>
      </trkpt>
      <trkpt lat="47.94607" lon="6.95079">
        <ele>644</ele>
        <time>2026-05-09T13:59:19.715Z</time>
      </trkpt>
      <trkpt lat="47.94607" lon="6.95079">
        <ele>644</ele>
        <time>2026-05-09T13:59:20.715Z</time>
      </trkpt>
      <trkpt lat="47.94607" lon="6.95079">
        <ele>644</ele>
        <time>2026-05-09T13:59:21.715Z</time>
      </trkpt>
      <trkpt lat="47.94607" lon="6.95079">
        <ele>644</ele>
        <time>2026-05-09T13:59:22.715Z</time>
      </trkpt>
      <trkpt lat="47.94607" lon="6.95079">
        <ele>644</ele>
        <time>2026-05-09T13:59:23.715Z</time>
      </trkpt>
      <trkpt lat="47.94607" lon="6.95079">
        <ele>645</ele>
        <time>2026-05-09T13:59:24.715Z</time>
      </trkpt>
      <trkpt lat="47.94608" lon="6.95079">
        <ele>645</ele>
        <time>2026-05-09T13:59:25.714Z</time>
      </trkpt>
      <trkpt lat="47.94608" lon="6.95079">
        <ele>646</ele>
        <time>2026-05-09T13:59:26.714Z</time>
      </trkpt>
      <trkpt lat="47.94608" lon="6.95079">
        <ele>646</ele>
        <time>2026-05-09T13:59:27.714Z</time>
      </trkpt>
      <trkpt lat="47.94608" lon="6.9508">
        <ele>647</ele>
        <time>2026-05-09T13:59:28.714Z</time>
      </trkpt>
      <trkpt lat="47.94608" lon="6.9508">
        <ele>647</ele>
        <time>2026-05-09T13:59:29.714Z</time>
      </trkpt>
      <trkpt lat="47.94608" lon="6.9508">
        <ele>647</ele>
        <time>2026-05-09T13:59:30.714Z</time>
      </trkpt>
      <trkpt lat="47.94608" lon="6.9508">
        <ele>647</ele>
        <time>2026-05-09T13:59:31.714Z</time>
      </trkpt>
      <trkpt lat="47.94608" lon="6.9508">
        <ele>647</ele>
        <time>2026-05-09T13:59:32.714Z</time>
      </trkpt>
      <trkpt lat="47.94609" lon="6.9508">
        <ele>647</ele>
        <time>2026-05-09T13:59:33.714Z</time>
      </trkpt>
      <trkpt lat="47.94609" lon="6.9508">
        <ele>647</ele>
        <time>2026-05-09T13:59:34.714Z</time>
      </trkpt>
      <trkpt lat="47.94609" lon="6.95081">
        <ele>647</ele>
        <time>2026-05-09T13:59:35.715Z</time>
      </trkpt>
      <trkpt lat="47.94609" lon="6.95083">
        <ele>648</ele>
        <time>2026-05-09T13:59:36.714Z</time>
      </trkpt>
      <trkpt lat="47.94608" lon="6.95085">
        <ele>648</ele>
        <time>2026-05-09T13:59:37.715Z</time>
      </trkpt>
      <trkpt lat="47.94608" lon="6.95086">
        <ele>649</ele>
        <time>2026-05-09T13:59:38.714Z</time>
      </trkpt>
      <trkpt lat="47.94607" lon="6.95088">
        <ele>649</ele>
        <time>2026-05-09T13:59:39.714Z</time>
      </trkpt>
      <trkpt lat="47.94606" lon="6.95089">
        <ele>650</ele>
        <time>2026-05-09T13:59:40.714Z</time>
      </trkpt>
      <trkpt lat="47.94605" lon="6.95091">
        <ele>650</ele>
        <time>2026-05-09T13:59:41.714Z</time>
      </trkpt>
      <trkpt lat="47.94604" lon="6.95093">
        <ele>650</ele>
        <time>2026-05-09T13:59:42.715Z</time>
      </trkpt>
      <trkpt lat="47.94604" lon="6.95094">
        <ele>651</ele>
        <time>2026-05-09T13:59:43.714Z</time>
      </trkpt>
      <trkpt lat="47.94604" lon="6.95096">
        <ele>651</ele>
        <time>2026-05-09T13:59:44.714Z</time>
      </trkpt>
      <trkpt lat="47.94604" lon="6.95098">
        <ele>651</ele>
        <time>2026-05-09T13:59:45.714Z</time>
      </trkpt>
      <trkpt lat="47.94603" lon="6.95099">
        <ele>650</ele>
        <time>2026-05-09T13:59:46.714Z</time>
      </trkpt>
      <trkpt lat="47.94602" lon="6.95101">
        <ele>650</ele>
        <time>2026-05-09T13:59:47.714Z</time>
      </trkpt>
      <trkpt lat="47.94601" lon="6.95102">
        <ele>649</ele>
        <time>2026-05-09T13:59:48.714Z</time>
      </trkpt>
      <trkpt lat="47.94601" lon="6.95103">
        <ele>649</ele>
        <time>2026-05-09T13:59:49.714Z</time>
      </trkpt>
      <trkpt lat="47.946" lon="6.95104">
        <ele>648</ele>
        <time>2026-05-09T13:59:50.714Z</time>
      </trkpt>
      <trkpt lat="47.94598" lon="6.95105">
        <ele>647</ele>
        <time>2026-05-09T13:59:51.714Z</time>
      </trkpt>
      <trkpt lat="47.94597" lon="6.95107">
        <ele>647</ele>
        <time>2026-05-09T13:59:52.715Z</time>
      </trkpt>
      <trkpt lat="47.94596" lon="6.95109">
        <ele>646</ele>
        <time>2026-05-09T13:59:53.715Z</time>
      </trkpt>
      <trkpt lat="47.94594" lon="6.95112">
        <ele>645</ele>
        <time>2026-05-09T13:59:54.715Z</time>
      </trkpt>
      <trkpt lat="47.94593" lon="6.95113">
        <ele>645</ele>
        <time>2026-05-09T13:59:55.714Z</time>
      </trkpt>
      <trkpt lat="47.94591" lon="6.95116">
        <ele>644</ele>
        <time>2026-05-09T13:59:56.714Z</time>
      </trkpt>
      <trkpt lat="47.9459" lon="6.95118">
        <ele>643</ele>
        <time>2026-05-09T13:59:57.714Z</time>
      </trkpt>
      <trkpt lat="47.94589" lon="6.9512">
        <ele>643</ele>
        <time>2026-05-09T13:59:58.715Z</time>
      </trkpt>
      <trkpt lat="47.94588" lon="6.95122">
        <ele>642</ele>
        <time>2026-05-09T13:59:59.714Z</time>
      </trkpt>
      <trkpt lat="47.94587" lon="6.95124">
        <ele>642</ele>
        <time>2026-05-09T14:00:00.714Z</time>
      </trkpt>
      <trkpt lat="47.94586" lon="6.95125">
        <ele>641</ele>
        <time>2026-05-09T14:00:01.714Z</time>
      </trkpt>
      <trkpt lat="47.94585" lon="6.95126">
        <ele>640</ele>
        <time>2026-05-09T14:00:02.715Z</time>
      </trkpt>
      <trkpt lat="47.94583" lon="6.95128">
        <ele>640</ele>
        <time>2026-05-09T14:00:03.714Z</time>
      </trkpt>
      <trkpt lat="47.94581" lon="6.9513">
        <ele>639</ele>
        <time>2026-05-09T14:00:04.714Z</time>
      </trkpt>
      <trkpt lat="47.94579" lon="6.95132">
        <ele>638</ele>
        <time>2026-05-09T14:00:05.714Z</time>
      </trkpt>
      <trkpt lat="47.94577" lon="6.95133">
        <ele>637</ele>
        <time>2026-05-09T14:00:06.714Z</time>
      </trkpt>
      <trkpt lat="47.94575" lon="6.95134">
        <ele>637</ele>
        <time>2026-05-09T14:00:07.715Z</time>
      </trkpt>
      <trkpt lat="47.94573" lon="6.95134">
        <ele>636</ele>
        <time>2026-05-09T14:00:08.714Z</time>
      </trkpt>
      <trkpt lat="47.94571" lon="6.95135">
        <ele>635</ele>
        <time>2026-05-09T14:00:09.714Z</time>
      </trkpt>
      <trkpt lat="47.94569" lon="6.95135">
        <ele>635</ele>
        <time>2026-05-09T14:00:10.715Z</time>
      </trkpt>
      <trkpt lat="47.94567" lon="6.95136">
        <ele>634</ele>
        <time>2026-05-09T14:00:11.714Z</time>
      </trkpt>
      <trkpt lat="47.94565" lon="6.95136">
        <ele>633</ele>
        <time>2026-05-09T14:00:12.715Z</time>
      </trkpt>
      <trkpt lat="47.94563" lon="6.95137">
        <ele>632</ele>
        <time>2026-05-09T14:00:13.715Z</time>
      </trkpt>
      <trkpt lat="47.94561" lon="6.95136">
        <ele>631</ele>
        <time>2026-05-09T14:00:14.714Z</time>
      </trkpt>
      <trkpt lat="47.9456" lon="6.95135">
        <ele>630</ele>
        <time>2026-05-09T14:00:15.714Z</time>
      </trkpt>
      <trkpt lat="47.94559" lon="6.95135">
        <ele>629</ele>
        <time>2026-05-09T14:00:16.715Z</time>
      </trkpt>
      <trkpt lat="47.94557" lon="6.95135">
        <ele>628</ele>
        <time>2026-05-09T14:00:17.714Z</time>
      </trkpt>
      <trkpt lat="47.94555" lon="6.95136">
        <ele>628</ele>
        <time>2026-05-09T14:00:18.714Z</time>
      </trkpt>
      <trkpt lat="47.94554" lon="6.95138">
        <ele>627</ele>
        <time>2026-05-09T14:00:19.714Z</time>
      </trkpt>
      <trkpt lat="47.94553" lon="6.9514">
        <ele>627</ele>
        <time>2026-05-09T14:00:20.714Z</time>
      </trkpt>
      <trkpt lat="47.94553" lon="6.95141">
        <ele>627</ele>
        <time>2026-05-09T14:00:21.714Z</time>
      </trkpt>
      <trkpt lat="47.94552" lon="6.95142">
        <ele>627</ele>
        <time>2026-05-09T14:00:22.714Z</time>
      </trkpt>
      <trkpt lat="47.94551" lon="6.95144">
        <ele>627</ele>
        <time>2026-05-09T14:00:23.714Z</time>
      </trkpt>
      <trkpt lat="47.9455" lon="6.95143">
        <ele>627</ele>
        <time>2026-05-09T14:00:24.715Z</time>
      </trkpt>
      <trkpt lat="47.94548" lon="6.95143">
        <ele>627</ele>
        <time>2026-05-09T14:00:25.714Z</time>
      </trkpt>
      <trkpt lat="47.94547" lon="6.95143">
        <ele>627</ele>
        <time>2026-05-09T14:00:26.714Z</time>
      </trkpt>
      <trkpt lat="47.94546" lon="6.95142">
        <ele>627</ele>
        <time>2026-05-09T14:00:27.714Z</time>
      </trkpt>
      <trkpt lat="47.94544" lon="6.95142">
        <ele>627</ele>
        <time>2026-05-09T14:00:28.714Z</time>
      </trkpt>
      <trkpt lat="47.94543" lon="6.95141">
        <ele>628</ele>
        <time>2026-05-09T14:00:29.714Z</time>
      </trkpt>
      <trkpt lat="47.94542" lon="6.95141">
        <ele>628</ele>
        <time>2026-05-09T14:00:30.715Z</time>
      </trkpt>
      <trkpt lat="47.94541" lon="6.95141">
        <ele>628</ele>
        <time>2026-05-09T14:00:31.714Z</time>
      </trkpt>
      <trkpt lat="47.94541" lon="6.9514">
        <ele>628</ele>
        <time>2026-05-09T14:00:32.715Z</time>
      </trkpt>
      <trkpt lat="47.9454" lon="6.9514">
        <ele>628</ele>
        <time>2026-05-09T14:00:33.715Z</time>
      </trkpt>
      <trkpt lat="47.94539" lon="6.95139">
        <ele>628</ele>
        <time>2026-05-09T14:00:34.714Z</time>
      </trkpt>
      <trkpt lat="47.94538" lon="6.95138">
        <ele>628</ele>
        <time>2026-05-09T14:00:35.714Z</time>
      </trkpt>
      <trkpt lat="47.94537" lon="6.95137">
        <ele>628</ele>
        <time>2026-05-09T14:00:36.715Z</time>
      </trkpt>
      <trkpt lat="47.94536" lon="6.95136">
        <ele>628</ele>
        <time>2026-05-09T14:00:37.715Z</time>
      </trkpt>
      <trkpt lat="47.94534" lon="6.95136">
        <ele>628</ele>
        <time>2026-05-09T14:00:38.715Z</time>
      </trkpt>
      <trkpt lat="47.94533" lon="6.95135">
        <ele>628</ele>
        <time>2026-05-09T14:00:39.715Z</time>
      </trkpt>
      <trkpt lat="47.94532" lon="6.95133">
        <ele>628</ele>
        <time>2026-05-09T14:00:40.715Z</time>
      </trkpt>
      <trkpt lat="47.94531" lon="6.95132">
        <ele>628</ele>
        <time>2026-05-09T14:00:41.714Z</time>
      </trkpt>
      <trkpt lat="47.9453" lon="6.95131">
        <ele>628</ele>
        <time>2026-05-09T14:00:42.714Z</time>
      </trkpt>
      <trkpt lat="47.94528" lon="6.95131">
        <ele>628</ele>
        <time>2026-05-09T14:00:43.715Z</time>
      </trkpt>
      <trkpt lat="47.94528" lon="6.95131">
        <ele>628</ele>
        <time>2026-05-09T14:00:44.715Z</time>
      </trkpt>
      <trkpt lat="47.94527" lon="6.95131">
        <ele>628</ele>
        <time>2026-05-09T14:00:45.715Z</time>
      </trkpt>
      <trkpt lat="47.94526" lon="6.95132">
        <ele>627</ele>
        <time>2026-05-09T14:00:46.714Z</time>
      </trkpt>
      <trkpt lat="47.94526" lon="6.95133">
        <ele>627</ele>
        <time>2026-05-09T14:00:47.715Z</time>
      </trkpt>
      <trkpt lat="47.94525" lon="6.95133">
        <ele>627</ele>
        <time>2026-05-09T14:00:48.714Z</time>
      </trkpt>
      <trkpt lat="47.94524" lon="6.95134">
        <ele>627</ele>
        <time>2026-05-09T14:00:49.714Z</time>
      </trkpt>
      <trkpt lat="47.94523" lon="6.95135">
        <ele>626</ele>
        <time>2026-05-09T14:00:50.714Z</time>
      </trkpt>
      <trkpt lat="47.94523" lon="6.95134">
        <ele>626</ele>
        <time>2026-05-09T14:00:51.714Z</time>
      </trkpt>
      <trkpt lat="47.94523" lon="6.95133">
        <ele>625</ele>
        <time>2026-05-09T14:00:52.714Z</time>
      </trkpt>
      <trkpt lat="47.94523" lon="6.95133">
        <ele>625</ele>
        <time>2026-05-09T14:00:53.714Z</time>
      </trkpt>
      <trkpt lat="47.94521" lon="6.95132">
        <ele>622</ele>
        <time>2026-05-09T14:01:01.054Z</time>
      </trkpt>
      <trkpt lat="47.9452" lon="6.95133">
        <ele>622</ele>
        <time>2026-05-09T14:01:02.053Z</time>
      </trkpt>
      <trkpt lat="47.94519" lon="6.95134">
        <ele>622</ele>
        <time>2026-05-09T14:01:03.054Z</time>
      </trkpt>
      <trkpt lat="47.94518" lon="6.95135">
        <ele>622</ele>
        <time>2026-05-09T14:01:04.053Z</time>
      </trkpt>
      <trkpt lat="47.94517" lon="6.95136">
        <ele>622</ele>
        <time>2026-05-09T14:01:05.054Z</time>
      </trkpt>
      <trkpt lat="47.94515" lon="6.95137">
        <ele>622</ele>
        <time>2026-05-09T14:01:06.053Z</time>
      </trkpt>
      <trkpt lat="47.94514" lon="6.95138">
        <ele>621</ele>
        <time>2026-05-09T14:01:07.054Z</time>
      </trkpt>
      <trkpt lat="47.94512" lon="6.95139">
        <ele>621</ele>
        <time>2026-05-09T14:01:08.053Z</time>
      </trkpt>
      <trkpt lat="47.94511" lon="6.9514">
        <ele>620</ele>
        <time>2026-05-09T14:01:09.054Z</time>
      </trkpt>
      <trkpt lat="47.94509" lon="6.95142">
        <ele>620</ele>
        <time>2026-05-09T14:01:10.053Z</time>
      </trkpt>
      <trkpt lat="47.94507" lon="6.95143">
        <ele>620</ele>
        <time>2026-05-09T14:01:11.054Z</time>
      </trkpt>
      <trkpt lat="47.94506" lon="6.95144">
        <ele>619</ele>
        <time>2026-05-09T14:01:12.053Z</time>
      </trkpt>
      <trkpt lat="47.94504" lon="6.95146">
        <ele>619</ele>
        <time>2026-05-09T14:01:13.054Z</time>
      </trkpt>
      <trkpt lat="47.94503" lon="6.95147">
        <ele>619</ele>
        <time>2026-05-09T14:01:14.053Z</time>
      </trkpt>
      <trkpt lat="47.94501" lon="6.95149">
        <ele>619</ele>
        <time>2026-05-09T14:01:15.053Z</time>
      </trkpt>
      <trkpt lat="47.945" lon="6.95151">
        <ele>619</ele>
        <time>2026-05-09T14:01:16.053Z</time>
      </trkpt>
      <trkpt lat="47.94499" lon="6.95153">
        <ele>618</ele>
        <time>2026-05-09T14:01:17.053Z</time>
      </trkpt>
      <trkpt lat="47.94498" lon="6.95154">
        <ele>618</ele>
        <time>2026-05-09T14:01:18.053Z</time>
      </trkpt>
      <trkpt lat="47.94497" lon="6.95155">
        <ele>617</ele>
        <time>2026-05-09T14:01:19.053Z</time>
      </trkpt>
      <trkpt lat="47.94495" lon="6.95157">
        <ele>617</ele>
        <time>2026-05-09T14:01:20.053Z</time>
      </trkpt>
      <trkpt lat="47.94494" lon="6.95158">
        <ele>617</ele>
        <time>2026-05-09T14:01:21.053Z</time>
      </trkpt>
      <trkpt lat="47.94493" lon="6.95159">
        <ele>617</ele>
        <time>2026-05-09T14:01:22.054Z</time>
      </trkpt>
      <trkpt lat="47.94492" lon="6.95159">
        <ele>616</ele>
        <time>2026-05-09T14:01:23.053Z</time>
      </trkpt>
      <trkpt lat="47.94492" lon="6.9516">
        <ele>616</ele>
        <time>2026-05-09T14:01:24.054Z</time>
      </trkpt>
      <trkpt lat="47.9449" lon="6.95161">
        <ele>615</ele>
        <time>2026-05-09T14:01:25.053Z</time>
      </trkpt>
      <trkpt lat="47.94489" lon="6.95162">
        <ele>614</ele>
        <time>2026-05-09T14:01:26.054Z</time>
      </trkpt>
      <trkpt lat="47.94488" lon="6.95163">
        <ele>614</ele>
        <time>2026-05-09T14:01:27.053Z</time>
      </trkpt>
      <trkpt lat="47.94487" lon="6.95164">
        <ele>613</ele>
        <time>2026-05-09T14:01:28.053Z</time>
      </trkpt>
      <trkpt lat="47.94486" lon="6.95165">
        <ele>613</ele>
        <time>2026-05-09T14:01:29.054Z</time>
      </trkpt>
      <trkpt lat="47.94485" lon="6.95167">
        <ele>612</ele>
        <time>2026-05-09T14:01:30.054Z</time>
      </trkpt>
      <trkpt lat="47.94484" lon="6.95169">
        <ele>612</ele>
        <time>2026-05-09T14:01:31.054Z</time>
      </trkpt>
      <trkpt lat="47.94484" lon="6.9517">
        <ele>611</ele>
        <time>2026-05-09T14:01:32.053Z</time>
      </trkpt>
      <trkpt lat="47.94483" lon="6.95171">
        <ele>611</ele>
        <time>2026-05-09T14:01:33.054Z</time>
      </trkpt>
      <trkpt lat="47.94482" lon="6.95173">
        <ele>611</ele>
        <time>2026-05-09T14:01:34.053Z</time>
      </trkpt>
      <trkpt lat="47.94481" lon="6.95174">
        <ele>610</ele>
        <time>2026-05-09T14:01:35.054Z</time>
      </trkpt>
      <trkpt lat="47.94479" lon="6.95176">
        <ele>610</ele>
        <time>2026-05-09T14:01:36.053Z</time>
      </trkpt>
      <trkpt lat="47.94477" lon="6.95178">
        <ele>609</ele>
        <time>2026-05-09T14:01:37.054Z</time>
      </trkpt>
      <trkpt lat="47.94476" lon="6.95178">
        <ele>609</ele>
        <time>2026-05-09T14:01:38.054Z</time>
      </trkpt>
      <trkpt lat="47.94474" lon="6.9518">
        <ele>608</ele>
        <time>2026-05-09T14:01:39.054Z</time>
      </trkpt>
      <trkpt lat="47.94474" lon="6.95181">
        <ele>608</ele>
        <time>2026-05-09T14:01:40.054Z</time>
      </trkpt>
      <trkpt lat="47.94472" lon="6.95182">
        <ele>607</ele>
        <time>2026-05-09T14:01:41.054Z</time>
      </trkpt>
      <trkpt lat="47.94471" lon="6.95183">
        <ele>607</ele>
        <time>2026-05-09T14:01:42.054Z</time>
      </trkpt>
      <trkpt lat="47.9447" lon="6.95183">
        <ele>607</ele>
        <time>2026-05-09T14:01:43.054Z</time>
      </trkpt>
      <trkpt lat="47.94469" lon="6.95184">
        <ele>606</ele>
        <time>2026-05-09T14:01:44.053Z</time>
      </trkpt>
      <trkpt lat="47.94467" lon="6.95185">
        <ele>606</ele>
        <time>2026-05-09T14:01:45.053Z</time>
      </trkpt>
      <trkpt lat="47.94466" lon="6.95186">
        <ele>605</ele>
        <time>2026-05-09T14:01:46.054Z</time>
      </trkpt>
      <trkpt lat="47.94465" lon="6.95187">
        <ele>605</ele>
        <time>2026-05-09T14:01:47.054Z</time>
      </trkpt>
      <trkpt lat="47.94463" lon="6.95188">
        <ele>604</ele>
        <time>2026-05-09T14:01:48.053Z</time>
      </trkpt>
      <trkpt lat="47.94462" lon="6.95189">
        <ele>604</ele>
        <time>2026-05-09T14:01:49.054Z</time>
      </trkpt>
      <trkpt lat="47.9446" lon="6.95191">
        <ele>604</ele>
        <time>2026-05-09T14:01:50.054Z</time>
      </trkpt>
      <trkpt lat="47.94459" lon="6.95192">
        <ele>603</ele>
        <time>2026-05-09T14:01:51.053Z</time>
      </trkpt>
      <trkpt lat="47.94457" lon="6.95193">
        <ele>603</ele>
        <time>2026-05-09T14:01:52.053Z</time>
      </trkpt>
      <trkpt lat="47.94456" lon="6.95194">
        <ele>602</ele>
        <time>2026-05-09T14:01:53.053Z</time>
      </trkpt>
      <trkpt lat="47.94455" lon="6.95194">
        <ele>602</ele>
        <time>2026-05-09T14:01:54.054Z</time>
      </trkpt>
      <trkpt lat="47.94453" lon="6.95195">
        <ele>601</ele>
        <time>2026-05-09T14:01:55.054Z</time>
      </trkpt>
      <trkpt lat="47.94452" lon="6.95196">
        <ele>600</ele>
        <time>2026-05-09T14:01:56.053Z</time>
      </trkpt>
      <trkpt lat="47.94451" lon="6.95198">
        <ele>600</ele>
        <time>2026-05-09T14:01:57.053Z</time>
      </trkpt>
      <trkpt lat="47.9445" lon="6.952">
        <ele>599</ele>
        <time>2026-05-09T14:01:58.054Z</time>
      </trkpt>
      <trkpt lat="47.94448" lon="6.95203">
        <ele>599</ele>
        <time>2026-05-09T14:01:59.053Z</time>
      </trkpt>
      <trkpt lat="47.94448" lon="6.95204">
        <ele>598</ele>
        <time>2026-05-09T14:02:00.054Z</time>
      </trkpt>
      <trkpt lat="47.94447" lon="6.95206">
        <ele>598</ele>
        <time>2026-05-09T14:02:01.054Z</time>
      </trkpt>
      <trkpt lat="47.94446" lon="6.95208">
        <ele>597</ele>
        <time>2026-05-09T14:02:02.053Z</time>
      </trkpt>
      <trkpt lat="47.94445" lon="6.95209">
        <ele>597</ele>
        <time>2026-05-09T14:02:03.053Z</time>
      </trkpt>
      <trkpt lat="47.94444" lon="6.9521">
        <ele>596</ele>
        <time>2026-05-09T14:02:04.053Z</time>
      </trkpt>
      <trkpt lat="47.94444" lon="6.95212">
        <ele>596</ele>
        <time>2026-05-09T14:02:05.053Z</time>
      </trkpt>
      <trkpt lat="47.94443" lon="6.95213">
        <ele>595</ele>
        <time>2026-05-09T14:02:06.053Z</time>
      </trkpt>
      <trkpt lat="47.94442" lon="6.95216">
        <ele>595</ele>
        <time>2026-05-09T14:02:07.054Z</time>
      </trkpt>
      <trkpt lat="47.94441" lon="6.95217">
        <ele>594</ele>
        <time>2026-05-09T14:02:08.053Z</time>
      </trkpt>
      <trkpt lat="47.9444" lon="6.95217">
        <ele>594</ele>
        <time>2026-05-09T14:02:09.053Z</time>
      </trkpt>
      <trkpt lat="47.9444" lon="6.95218">
        <ele>593</ele>
        <time>2026-05-09T14:02:10.054Z</time>
      </trkpt>
      <trkpt lat="47.9444" lon="6.95218">
        <ele>593</ele>
        <time>2026-05-09T14:02:11.053Z</time>
      </trkpt>
      <trkpt lat="47.94442" lon="6.95226">
        <ele>593</ele>
        <time>2026-05-09T14:02:17.511Z</time>
      </trkpt>
      <trkpt lat="47.94441" lon="6.95228">
        <ele>593</ele>
        <time>2026-05-09T14:02:18.511Z</time>
      </trkpt>
      <trkpt lat="47.9444" lon="6.9523">
        <ele>592</ele>
        <time>2026-05-09T14:02:19.511Z</time>
      </trkpt>
      <trkpt lat="47.94439" lon="6.95231">
        <ele>592</ele>
        <time>2026-05-09T14:02:20.511Z</time>
      </trkpt>
      <trkpt lat="47.94437" lon="6.95233">
        <ele>592</ele>
        <time>2026-05-09T14:02:21.510Z</time>
      </trkpt>
      <trkpt lat="47.94436" lon="6.95234">
        <ele>591</ele>
        <time>2026-05-09T14:02:22.510Z</time>
      </trkpt>
      <trkpt lat="47.94436" lon="6.95234">
        <ele>591</ele>
        <time>2026-05-09T14:02:23.511Z</time>
      </trkpt>
      <trkpt lat="47.94436" lon="6.95234">
        <ele>590</ele>
        <time>2026-05-09T14:02:24.510Z</time>
      </trkpt>
      <trkpt lat="47.94436" lon="6.95234">
        <ele>589</ele>
        <time>2026-05-09T14:02:25.510Z</time>
      </trkpt>
      <trkpt lat="47.94437" lon="6.95234">
        <ele>589</ele>
        <time>2026-05-09T14:02:26.510Z</time>
      </trkpt>
      <trkpt lat="47.94439" lon="6.95234">
        <ele>589</ele>
        <time>2026-05-09T14:02:27.510Z</time>
      </trkpt>
      <trkpt lat="47.9444" lon="6.95235">
        <ele>588</ele>
        <time>2026-05-09T14:02:28.510Z</time>
      </trkpt>
      <trkpt lat="47.94441" lon="6.95236">
        <ele>588</ele>
        <time>2026-05-09T14:02:29.510Z</time>
      </trkpt>
      <trkpt lat="47.94441" lon="6.95236">
        <ele>587</ele>
        <time>2026-05-09T14:02:30.511Z</time>
      </trkpt>
      <trkpt lat="47.94442" lon="6.95237">
        <ele>587</ele>
        <time>2026-05-09T14:02:31.510Z</time>
      </trkpt>
      <trkpt lat="47.94443" lon="6.95238">
        <ele>587</ele>
        <time>2026-05-09T14:02:32.510Z</time>
      </trkpt>
      <trkpt lat="47.94445" lon="6.95238">
        <ele>587</ele>
        <time>2026-05-09T14:02:33.510Z</time>
      </trkpt>
      <trkpt lat="47.94446" lon="6.95239">
        <ele>587</ele>
        <time>2026-05-09T14:02:34.511Z</time>
      </trkpt>
      <trkpt lat="47.94446" lon="6.9524">
        <ele>587</ele>
        <time>2026-05-09T14:02:35.510Z</time>
      </trkpt>
      <trkpt lat="47.94447" lon="6.95241">
        <ele>587</ele>
        <time>2026-05-09T14:02:36.510Z</time>
      </trkpt>
      <trkpt lat="47.94447" lon="6.95241">
        <ele>588</ele>
        <time>2026-05-09T14:02:37.510Z</time>
      </trkpt>
      <trkpt lat="47.94447" lon="6.95242">
        <ele>588</ele>
        <time>2026-05-09T14:02:38.510Z</time>
      </trkpt>
      <trkpt lat="47.94447" lon="6.95242">
        <ele>588</ele>
        <time>2026-05-09T14:02:39.510Z</time>
      </trkpt>
      <trkpt lat="47.94447" lon="6.95242">
        <ele>588</ele>
        <time>2026-05-09T14:02:40.511Z</time>
      </trkpt>
      <trkpt lat="47.94447" lon="6.95243">
        <ele>588</ele>
        <time>2026-05-09T14:02:41.511Z</time>
      </trkpt>
      <trkpt lat="47.94447" lon="6.95243">
        <ele>588</ele>
        <time>2026-05-09T14:02:42.510Z</time>
      </trkpt>
      <trkpt lat="47.94441" lon="6.95245">
        <ele>586</ele>
        <time>2026-05-09T14:02:48.903Z</time>
      </trkpt>
      <trkpt lat="47.94441" lon="6.95244">
        <ele>586</ele>
        <time>2026-05-09T14:02:49.903Z</time>
      </trkpt>
      <trkpt lat="47.9444" lon="6.95243">
        <ele>586</ele>
        <time>2026-05-09T14:02:50.903Z</time>
      </trkpt>
      <trkpt lat="47.94439" lon="6.95243">
        <ele>585</ele>
        <time>2026-05-09T14:02:51.904Z</time>
      </trkpt>
      <trkpt lat="47.94439" lon="6.95243">
        <ele>585</ele>
        <time>2026-05-09T14:02:52.904Z</time>
      </trkpt>
      <trkpt lat="47.94437" lon="6.95243">
        <ele>585</ele>
        <time>2026-05-09T14:02:53.904Z</time>
      </trkpt>
      <trkpt lat="47.94436" lon="6.95243">
        <ele>585</ele>
        <time>2026-05-09T14:02:54.903Z</time>
      </trkpt>
      <trkpt lat="47.94436" lon="6.95243">
        <ele>585</ele>
        <time>2026-05-09T14:02:55.903Z</time>
      </trkpt>
      <trkpt lat="47.94435" lon="6.95242">
        <ele>585</ele>
        <time>2026-05-09T14:02:56.903Z</time>
      </trkpt>
      <trkpt lat="47.94434" lon="6.95241">
        <ele>585</ele>
        <time>2026-05-09T14:02:57.904Z</time>
      </trkpt>
      <trkpt lat="47.94434" lon="6.95241">
        <ele>585</ele>
        <time>2026-05-09T14:02:58.904Z</time>
      </trkpt>
      <trkpt lat="47.94433" lon="6.9524">
        <ele>585</ele>
        <time>2026-05-09T14:02:59.903Z</time>
      </trkpt>
      <trkpt lat="47.94433" lon="6.95239">
        <ele>585</ele>
        <time>2026-05-09T14:03:00.903Z</time>
      </trkpt>
      <trkpt lat="47.94432" lon="6.95239">
        <ele>585</ele>
        <time>2026-05-09T14:03:01.904Z</time>
      </trkpt>
      <trkpt lat="47.94431" lon="6.95238">
        <ele>585</ele>
        <time>2026-05-09T14:03:02.903Z</time>
      </trkpt>
      <trkpt lat="47.9443" lon="6.95238">
        <ele>584</ele>
        <time>2026-05-09T14:03:03.903Z</time>
      </trkpt>
      <trkpt lat="47.9443" lon="6.95238">
        <ele>584</ele>
        <time>2026-05-09T14:03:04.903Z</time>
      </trkpt>
      <trkpt lat="47.9443" lon="6.95238">
        <ele>583</ele>
        <time>2026-05-09T14:03:05.903Z</time>
      </trkpt>
      <trkpt lat="47.9443" lon="6.95237">
        <ele>583</ele>
        <time>2026-05-09T14:03:06.904Z</time>
      </trkpt>
      <trkpt lat="47.94435" lon="6.95235">
        <ele>581</ele>
        <time>2026-05-09T14:03:27.027Z</time>
      </trkpt>
      <trkpt lat="47.94436" lon="6.95236">
        <ele>581</ele>
        <time>2026-05-09T14:03:28.026Z</time>
      </trkpt>
      <trkpt lat="47.94437" lon="6.95237">
        <ele>581</ele>
        <time>2026-05-09T14:03:29.026Z</time>
      </trkpt>
      <trkpt lat="47.94438" lon="6.95238">
        <ele>581</ele>
        <time>2026-05-09T14:03:30.026Z</time>
      </trkpt>
      <trkpt lat="47.94438" lon="6.95239">
        <ele>582</ele>
        <time>2026-05-09T14:03:31.026Z</time>
      </trkpt>
      <trkpt lat="47.94439" lon="6.9524">
        <ele>582</ele>
        <time>2026-05-09T14:03:32.026Z</time>
      </trkpt>
      <trkpt lat="47.9444" lon="6.9524">
        <ele>582</ele>
        <time>2026-05-09T14:03:33.027Z</time>
      </trkpt>
      <trkpt lat="47.94441" lon="6.95241">
        <ele>582</ele>
        <time>2026-05-09T14:03:34.027Z</time>
      </trkpt>
      <trkpt lat="47.94442" lon="6.95242">
        <ele>582</ele>
        <time>2026-05-09T14:03:35.026Z</time>
      </trkpt>
      <trkpt lat="47.94443" lon="6.95242">
        <ele>583</ele>
        <time>2026-05-09T14:03:36.026Z</time>
      </trkpt>
      <trkpt lat="47.94444" lon="6.95242">
        <ele>583</ele>
        <time>2026-05-09T14:03:37.026Z</time>
      </trkpt>
      <trkpt lat="47.94444" lon="6.95242">
        <ele>583</ele>
        <time>2026-05-09T14:03:38.026Z</time>
      </trkpt>
      <trkpt lat="47.94446" lon="6.95243">
        <ele>584</ele>
        <time>2026-05-09T14:03:39.027Z</time>
      </trkpt>
      <trkpt lat="47.94447" lon="6.95243">
        <ele>584</ele>
        <time>2026-05-09T14:03:40.026Z</time>
      </trkpt>
      <trkpt lat="47.94448" lon="6.95243">
        <ele>585</ele>
        <time>2026-05-09T14:03:41.026Z</time>
      </trkpt>
      <trkpt lat="47.9445" lon="6.95244">
        <ele>585</ele>
        <time>2026-05-09T14:03:42.026Z</time>
      </trkpt>
      <trkpt lat="47.94451" lon="6.95244">
        <ele>585</ele>
        <time>2026-05-09T14:03:43.026Z</time>
      </trkpt>
      <trkpt lat="47.94453" lon="6.95244">
        <ele>586</ele>
        <time>2026-05-09T14:03:44.027Z</time>
      </trkpt>
      <trkpt lat="47.94454" lon="6.95244">
        <ele>586</ele>
        <time>2026-05-09T14:03:45.027Z</time>
      </trkpt>
      <trkpt lat="47.94455" lon="6.95244">
        <ele>586</ele>
        <time>2026-05-09T14:03:46.027Z</time>
      </trkpt>
      <trkpt lat="47.94456" lon="6.95244">
        <ele>587</ele>
        <time>2026-05-09T14:03:47.027Z</time>
      </trkpt>
      <trkpt lat="47.94458" lon="6.95245">
        <ele>587</ele>
        <time>2026-05-09T14:03:48.027Z</time>
      </trkpt>
      <trkpt lat="47.94459" lon="6.95245">
        <ele>587</ele>
        <time>2026-05-09T14:03:49.027Z</time>
      </trkpt>
      <trkpt lat="47.94461" lon="6.95245">
        <ele>588</ele>
        <time>2026-05-09T14:03:50.026Z</time>
      </trkpt>
      <trkpt lat="47.94463" lon="6.95245">
        <ele>588</ele>
        <time>2026-05-09T14:03:51.026Z</time>
      </trkpt>
      <trkpt lat="47.94464" lon="6.95246">
        <ele>588</ele>
        <time>2026-05-09T14:03:52.026Z</time>
      </trkpt>
      <trkpt lat="47.94466" lon="6.95247">
        <ele>589</ele>
        <time>2026-05-09T14:03:53.026Z</time>
      </trkpt>
      <trkpt lat="47.94468" lon="6.95247">
        <ele>589</ele>
        <time>2026-05-09T14:03:54.026Z</time>
      </trkpt>
      <trkpt lat="47.94469" lon="6.95248">
        <ele>589</ele>
        <time>2026-05-09T14:03:55.026Z</time>
      </trkpt>
      <trkpt lat="47.9447" lon="6.95248">
        <ele>589</ele>
        <time>2026-05-09T14:03:56.026Z</time>
      </trkpt>
      <trkpt lat="47.94471" lon="6.95249">
        <ele>589</ele>
        <time>2026-05-09T14:03:57.026Z</time>
      </trkpt>
      <trkpt lat="47.94473" lon="6.9525">
        <ele>590</ele>
        <time>2026-05-09T14:03:58.026Z</time>
      </trkpt>
      <trkpt lat="47.94474" lon="6.9525">
        <ele>590</ele>
        <time>2026-05-09T14:03:59.026Z</time>
      </trkpt>
      <trkpt lat="47.94478" lon="6.95249">
        <ele>590</ele>
        <time>2026-05-09T14:04:00.026Z</time>
      </trkpt>
      <trkpt lat="47.94478" lon="6.9525">
        <ele>590</ele>
        <time>2026-05-09T14:04:01.026Z</time>
      </trkpt>
      <trkpt lat="47.94481" lon="6.95249">
        <ele>590</ele>
        <time>2026-05-09T14:04:02.026Z</time>
      </trkpt>
      <trkpt lat="47.94484" lon="6.95249">
        <ele>590</ele>
        <time>2026-05-09T14:04:03.026Z</time>
      </trkpt>
      <trkpt lat="47.94486" lon="6.9525">
        <ele>589</ele>
        <time>2026-05-09T14:04:04.026Z</time>
      </trkpt>
      <trkpt lat="47.94488" lon="6.9525">
        <ele>589</ele>
        <time>2026-05-09T14:04:05.027Z</time>
      </trkpt>
      <trkpt lat="47.9449" lon="6.95249">
        <ele>589</ele>
        <time>2026-05-09T14:04:06.026Z</time>
      </trkpt>
      <trkpt lat="47.94491" lon="6.95248">
        <ele>589</ele>
        <time>2026-05-09T14:04:07.026Z</time>
      </trkpt>
      <trkpt lat="47.94493" lon="6.95248">
        <ele>589</ele>
        <time>2026-05-09T14:04:08.026Z</time>
      </trkpt>
      <trkpt lat="47.94493" lon="6.95248">
        <ele>588</ele>
        <time>2026-05-09T14:04:09.026Z</time>
      </trkpt>
      <trkpt lat="47.94494" lon="6.95248">
        <ele>588</ele>
        <time>2026-05-09T14:04:10.027Z</time>
      </trkpt>
      <trkpt lat="47.94494" lon="6.95248">
        <ele>588</ele>
        <time>2026-05-09T14:04:11.026Z</time>
      </trkpt>
      <trkpt lat="47.94494" lon="6.95249">
        <ele>588</ele>
        <time>2026-05-09T14:04:12.026Z</time>
      </trkpt>
      <trkpt lat="47.94494" lon="6.9525">
        <ele>588</ele>
        <time>2026-05-09T14:04:13.026Z</time>
      </trkpt>
      <trkpt lat="47.94494" lon="6.9525">
        <ele>588</ele>
        <time>2026-05-09T14:04:14.026Z</time>
      </trkpt>
      <trkpt lat="47.94495" lon="6.95251">
        <ele>588</ele>
        <time>2026-05-09T14:04:15.026Z</time>
      </trkpt>
      <trkpt lat="47.94496" lon="6.95251">
        <ele>588</ele>
        <time>2026-05-09T14:04:16.026Z</time>
      </trkpt>
      <trkpt lat="47.94497" lon="6.95252">
        <ele>588</ele>
        <time>2026-05-09T14:04:17.026Z</time>
      </trkpt>
      <trkpt lat="47.94498" lon="6.95252">
        <ele>588</ele>
        <time>2026-05-09T14:04:18.026Z</time>
      </trkpt>
      <trkpt lat="47.945" lon="6.95253">
        <ele>588</ele>
        <time>2026-05-09T14:04:19.026Z</time>
      </trkpt>
      <trkpt lat="47.94501" lon="6.95254">
        <ele>588</ele>
        <time>2026-05-09T14:04:20.026Z</time>
      </trkpt>
      <trkpt lat="47.94502" lon="6.95254">
        <ele>588</ele>
        <time>2026-05-09T14:04:21.027Z</time>
      </trkpt>
      <trkpt lat="47.94503" lon="6.95255">
        <ele>588</ele>
        <time>2026-05-09T14:04:22.027Z</time>
      </trkpt>
      <trkpt lat="47.94504" lon="6.95255">
        <ele>589</ele>
        <time>2026-05-09T14:04:23.026Z</time>
      </trkpt>
      <trkpt lat="47.94506" lon="6.95255">
        <ele>589</ele>
        <time>2026-05-09T14:04:24.026Z</time>
      </trkpt>
      <trkpt lat="47.94507" lon="6.95255">
        <ele>589</ele>
        <time>2026-05-09T14:04:25.026Z</time>
      </trkpt>
      <trkpt lat="47.94509" lon="6.95255">
        <ele>589</ele>
        <time>2026-05-09T14:04:26.027Z</time>
      </trkpt>
      <trkpt lat="47.94511" lon="6.95256">
        <ele>589</ele>
        <time>2026-05-09T14:04:27.026Z</time>
      </trkpt>
      <trkpt lat="47.94513" lon="6.95256">
        <ele>589</ele>
        <time>2026-05-09T14:04:28.026Z</time>
      </trkpt>
      <trkpt lat="47.94515" lon="6.95257">
        <ele>589</ele>
        <time>2026-05-09T14:04:29.026Z</time>
      </trkpt>
      <trkpt lat="47.94517" lon="6.95258">
        <ele>589</ele>
        <time>2026-05-09T14:04:30.026Z</time>
      </trkpt>
      <trkpt lat="47.94519" lon="6.95258">
        <ele>590</ele>
        <time>2026-05-09T14:04:31.026Z</time>
      </trkpt>
      <trkpt lat="47.94521" lon="6.95258">
        <ele>590</ele>
        <time>2026-05-09T14:04:32.027Z</time>
      </trkpt>
      <trkpt lat="47.94522" lon="6.95258">
        <ele>590</ele>
        <time>2026-05-09T14:04:33.026Z</time>
      </trkpt>
      <trkpt lat="47.94524" lon="6.95259">
        <ele>590</ele>
        <time>2026-05-09T14:04:34.026Z</time>
      </trkpt>
      <trkpt lat="47.94525" lon="6.95259">
        <ele>590</ele>
        <time>2026-05-09T14:04:35.027Z</time>
      </trkpt>
      <trkpt lat="47.94527" lon="6.95259">
        <ele>590</ele>
        <time>2026-05-09T14:04:36.027Z</time>
      </trkpt>
      <trkpt lat="47.94529" lon="6.9526">
        <ele>589</ele>
        <time>2026-05-09T14:04:37.026Z</time>
      </trkpt>
      <trkpt lat="47.94529" lon="6.95261">
        <ele>589</ele>
        <time>2026-05-09T14:04:38.026Z</time>
      </trkpt>
      <trkpt lat="47.9453" lon="6.95263">
        <ele>589</ele>
        <time>2026-05-09T14:04:39.027Z</time>
      </trkpt>
      <trkpt lat="47.9453" lon="6.95264">
        <ele>589</ele>
        <time>2026-05-09T14:04:40.027Z</time>
      </trkpt>
      <trkpt lat="47.94531" lon="6.95264">
        <ele>589</ele>
        <time>2026-05-09T14:04:41.027Z</time>
      </trkpt>
      <trkpt lat="47.94532" lon="6.95265">
        <ele>589</ele>
        <time>2026-05-09T14:04:42.027Z</time>
      </trkpt>
      <trkpt lat="47.94534" lon="6.95266">
        <ele>588</ele>
        <time>2026-05-09T14:04:43.026Z</time>
      </trkpt>
      <trkpt lat="47.94535" lon="6.95267">
        <ele>588</ele>
        <time>2026-05-09T14:04:44.026Z</time>
      </trkpt>
      <trkpt lat="47.94536" lon="6.95268">
        <ele>588</ele>
        <time>2026-05-09T14:04:45.027Z</time>
      </trkpt>
      <trkpt lat="47.94537" lon="6.95269">
        <ele>588</ele>
        <time>2026-05-09T14:04:46.027Z</time>
      </trkpt>
      <trkpt lat="47.94538" lon="6.9527">
        <ele>588</ele>
        <time>2026-05-09T14:04:47.027Z</time>
      </trkpt>
      <trkpt lat="47.94538" lon="6.9527">
        <ele>587</ele>
        <time>2026-05-09T14:04:48.027Z</time>
      </trkpt>
      <trkpt lat="47.94538" lon="6.95271">
        <ele>587</ele>
        <time>2026-05-09T14:04:49.027Z</time>
      </trkpt>
      <trkpt lat="47.94538" lon="6.95271">
        <ele>587</ele>
        <time>2026-05-09T14:04:50.027Z</time>
      </trkpt>
      <trkpt lat="47.94539" lon="6.95271">
        <ele>587</ele>
        <time>2026-05-09T14:04:51.027Z</time>
      </trkpt>
      <trkpt lat="47.94541" lon="6.95271">
        <ele>586</ele>
        <time>2026-05-09T14:04:57.331Z</time>
      </trkpt>
      <trkpt lat="47.94541" lon="6.95271">
        <ele>586</ele>
        <time>2026-05-09T14:04:58.331Z</time>
      </trkpt>
      <trkpt lat="47.94541" lon="6.95272">
        <ele>586</ele>
        <time>2026-05-09T14:04:59.331Z</time>
      </trkpt>
      <trkpt lat="47.94542" lon="6.95273">
        <ele>587</ele>
        <time>2026-05-09T14:05:00.331Z</time>
      </trkpt>
      <trkpt lat="47.94542" lon="6.95274">
        <ele>587</ele>
        <time>2026-05-09T14:05:01.331Z</time>
      </trkpt>
      <trkpt lat="47.94542" lon="6.95274">
        <ele>587</ele>
        <time>2026-05-09T14:05:02.331Z</time>
      </trkpt>
      <trkpt lat="47.94542" lon="6.95275">
        <ele>587</ele>
        <time>2026-05-09T14:05:03.331Z</time>
      </trkpt>
      <trkpt lat="47.94543" lon="6.95275">
        <ele>587</ele>
        <time>2026-05-09T14:05:04.331Z</time>
      </trkpt>
      <trkpt lat="47.94544" lon="6.95275">
        <ele>587</ele>
        <time>2026-05-09T14:05:05.332Z</time>
      </trkpt>
      <trkpt lat="47.94544" lon="6.95276">
        <ele>587</ele>
        <time>2026-05-09T14:05:06.332Z</time>
      </trkpt>
      <trkpt lat="47.94545" lon="6.95277">
        <ele>587</ele>
        <time>2026-05-09T14:05:07.332Z</time>
      </trkpt>
      <trkpt lat="47.94545" lon="6.95278">
        <ele>587</ele>
        <time>2026-05-09T14:05:08.332Z</time>
      </trkpt>
      <trkpt lat="47.94547" lon="6.95279">
        <ele>587</ele>
        <time>2026-05-09T14:05:09.332Z</time>
      </trkpt>
      <trkpt lat="47.94547" lon="6.9528">
        <ele>587</ele>
        <time>2026-05-09T14:05:10.332Z</time>
      </trkpt>
      <trkpt lat="47.94548" lon="6.95281">
        <ele>587</ele>
        <time>2026-05-09T14:05:11.332Z</time>
      </trkpt>
      <trkpt lat="47.9455" lon="6.95281">
        <ele>587</ele>
        <time>2026-05-09T14:05:12.331Z</time>
      </trkpt>
      <trkpt lat="47.94552" lon="6.95281">
        <ele>586</ele>
        <time>2026-05-09T14:05:13.331Z</time>
      </trkpt>
      <trkpt lat="47.94553" lon="6.95282">
        <ele>586</ele>
        <time>2026-05-09T14:05:14.331Z</time>
      </trkpt>
      <trkpt lat="47.94554" lon="6.95282">
        <ele>586</ele>
        <time>2026-05-09T14:05:15.331Z</time>
      </trkpt>
      <trkpt lat="47.94556" lon="6.95282">
        <ele>586</ele>
        <time>2026-05-09T14:05:16.332Z</time>
      </trkpt>
      <trkpt lat="47.94558" lon="6.95281">
        <ele>586</ele>
        <time>2026-05-09T14:05:17.331Z</time>
      </trkpt>
      <trkpt lat="47.9456" lon="6.95281">
        <ele>586</ele>
        <time>2026-05-09T14:05:18.331Z</time>
      </trkpt>
      <trkpt lat="47.94562" lon="6.9528">
        <ele>587</ele>
        <time>2026-05-09T14:05:19.331Z</time>
      </trkpt>
      <trkpt lat="47.94565" lon="6.9528">
        <ele>587</ele>
        <time>2026-05-09T14:05:20.331Z</time>
      </trkpt>
      <trkpt lat="47.94567" lon="6.95279">
        <ele>587</ele>
        <time>2026-05-09T14:05:21.331Z</time>
      </trkpt>
      <trkpt lat="47.94569" lon="6.95278">
        <ele>587</ele>
        <time>2026-05-09T14:05:22.332Z</time>
      </trkpt>
      <trkpt lat="47.94571" lon="6.95278">
        <ele>587</ele>
        <time>2026-05-09T14:05:23.332Z</time>
      </trkpt>
      <trkpt lat="47.94573" lon="6.95278">
        <ele>587</ele>
        <time>2026-05-09T14:05:24.332Z</time>
      </trkpt>
      <trkpt lat="47.94575" lon="6.95277">
        <ele>588</ele>
        <time>2026-05-09T14:05:25.332Z</time>
      </trkpt>
      <trkpt lat="47.94576" lon="6.95277">
        <ele>588</ele>
        <time>2026-05-09T14:05:26.332Z</time>
      </trkpt>
      <trkpt lat="47.94577" lon="6.95276">
        <ele>588</ele>
        <time>2026-05-09T14:05:27.331Z</time>
      </trkpt>
      <trkpt lat="47.94592" lon="6.95276">
        <ele>591</ele>
        <time>2026-05-09T14:05:39.085Z</time>
      </trkpt>
      <trkpt lat="47.94594" lon="6.95276">
        <ele>590</ele>
        <time>2026-05-09T14:05:40.085Z</time>
      </trkpt>
      <trkpt lat="47.94596" lon="6.95275">
        <ele>590</ele>
        <time>2026-05-09T14:05:41.084Z</time>
      </trkpt>
      <trkpt lat="47.94599" lon="6.95275">
        <ele>590</ele>
        <time>2026-05-09T14:05:42.084Z</time>
      </trkpt>
      <trkpt lat="47.94601" lon="6.95274">
        <ele>589</ele>
        <time>2026-05-09T14:05:43.085Z</time>
      </trkpt>
      <trkpt lat="47.94604" lon="6.95273">
        <ele>589</ele>
        <time>2026-05-09T14:05:44.084Z</time>
      </trkpt>
      <trkpt lat="47.94606" lon="6.95272">
        <ele>588</ele>
        <time>2026-05-09T14:05:45.085Z</time>
      </trkpt>
      <trkpt lat="47.94609" lon="6.95271">
        <ele>587</ele>
        <time>2026-05-09T14:05:46.085Z</time>
      </trkpt>
      <trkpt lat="47.94612" lon="6.95271">
        <ele>586</ele>
        <time>2026-05-09T14:05:47.085Z</time>
      </trkpt>
      <trkpt lat="47.94615" lon="6.9527">
        <ele>585</ele>
        <time>2026-05-09T14:05:48.085Z</time>
      </trkpt>
      <trkpt lat="47.94617" lon="6.9527">
        <ele>584</ele>
        <time>2026-05-09T14:05:49.085Z</time>
      </trkpt>
      <trkpt lat="47.94621" lon="6.95269">
        <ele>583</ele>
        <time>2026-05-09T14:05:50.084Z</time>
      </trkpt>
      <trkpt lat="47.94624" lon="6.95267">
        <ele>582</ele>
        <time>2026-05-09T14:05:51.085Z</time>
      </trkpt>
      <trkpt lat="47.94627" lon="6.95267">
        <ele>582</ele>
        <time>2026-05-09T14:05:52.084Z</time>
      </trkpt>
      <trkpt lat="47.94629" lon="6.95266">
        <ele>581</ele>
        <time>2026-05-09T14:05:53.084Z</time>
      </trkpt>
      <trkpt lat="47.94632" lon="6.95265">
        <ele>580</ele>
        <time>2026-05-09T14:05:54.084Z</time>
      </trkpt>
      <trkpt lat="47.94634" lon="6.95265">
        <ele>580</ele>
        <time>2026-05-09T14:05:55.084Z</time>
      </trkpt>
      <trkpt lat="47.94636" lon="6.95264">
        <ele>579</ele>
        <time>2026-05-09T14:05:56.084Z</time>
      </trkpt>
      <trkpt lat="47.94639" lon="6.95264">
        <ele>578</ele>
        <time>2026-05-09T14:05:57.084Z</time>
      </trkpt>
      <trkpt lat="47.94641" lon="6.95263">
        <ele>578</ele>
        <time>2026-05-09T14:05:58.084Z</time>
      </trkpt>
      <trkpt lat="47.94644" lon="6.95262">
        <ele>578</ele>
        <time>2026-05-09T14:05:59.085Z</time>
      </trkpt>
      <trkpt lat="47.94646" lon="6.95262">
        <ele>578</ele>
        <time>2026-05-09T14:06:00.085Z</time>
      </trkpt>
      <trkpt lat="47.94648" lon="6.95261">
        <ele>578</ele>
        <time>2026-05-09T14:06:01.085Z</time>
      </trkpt>
      <trkpt lat="47.94651" lon="6.95261">
        <ele>578</ele>
        <time>2026-05-09T14:06:02.085Z</time>
      </trkpt>
      <trkpt lat="47.94654" lon="6.95261">
        <ele>578</ele>
        <time>2026-05-09T14:06:03.084Z</time>
      </trkpt>
      <trkpt lat="47.94657" lon="6.9526">
        <ele>577</ele>
        <time>2026-05-09T14:06:04.084Z</time>
      </trkpt>
      <trkpt lat="47.94659" lon="6.95261">
        <ele>577</ele>
        <time>2026-05-09T14:06:05.084Z</time>
      </trkpt>
      <trkpt lat="47.94661" lon="6.9526">
        <ele>577</ele>
        <time>2026-05-09T14:06:06.084Z</time>
      </trkpt>
      <trkpt lat="47.94664" lon="6.9526">
        <ele>577</ele>
        <time>2026-05-09T14:06:07.085Z</time>
      </trkpt>
      <trkpt lat="47.94668" lon="6.9526">
        <ele>577</ele>
        <time>2026-05-09T14:06:08.085Z</time>
      </trkpt>
      <trkpt lat="47.94671" lon="6.9526">
        <ele>577</ele>
        <time>2026-05-09T14:06:09.085Z</time>
      </trkpt>
      <trkpt lat="47.94673" lon="6.95261">
        <ele>577</ele>
        <time>2026-05-09T14:06:10.084Z</time>
      </trkpt>
      <trkpt lat="47.94675" lon="6.9526">
        <ele>576</ele>
        <time>2026-05-09T14:06:11.084Z</time>
      </trkpt>
      <trkpt lat="47.94676" lon="6.95259">
        <ele>576</ele>
        <time>2026-05-09T14:06:12.084Z</time>
      </trkpt>
      <trkpt lat="47.94677" lon="6.95257">
        <ele>576</ele>
        <time>2026-05-09T14:06:13.084Z</time>
      </trkpt>
      <trkpt lat="47.94678" lon="6.95257">
        <ele>575</ele>
        <time>2026-05-09T14:06:14.084Z</time>
      </trkpt>
      <trkpt lat="47.94679" lon="6.95258">
        <ele>575</ele>
        <time>2026-05-09T14:06:15.084Z</time>
      </trkpt>
      <trkpt lat="47.94681" lon="6.95258">
        <ele>576</ele>
        <time>2026-05-09T14:06:16.085Z</time>
      </trkpt>
      <trkpt lat="47.94683" lon="6.95257">
        <ele>576</ele>
        <time>2026-05-09T14:06:17.085Z</time>
      </trkpt>
      <trkpt lat="47.94685" lon="6.95256">
        <ele>576</ele>
        <time>2026-05-09T14:06:18.084Z</time>
      </trkpt>
      <trkpt lat="47.94687" lon="6.95255">
        <ele>576</ele>
        <time>2026-05-09T14:06:19.085Z</time>
      </trkpt>
      <trkpt lat="47.94689" lon="6.95253">
        <ele>576</ele>
        <time>2026-05-09T14:06:20.085Z</time>
      </trkpt>
      <trkpt lat="47.9469" lon="6.95252">
        <ele>576</ele>
        <time>2026-05-09T14:06:21.085Z</time>
      </trkpt>
      <trkpt lat="47.94691" lon="6.95251">
        <ele>576</ele>
        <time>2026-05-09T14:06:22.085Z</time>
      </trkpt>
      <trkpt lat="47.94692" lon="6.9525">
        <ele>576</ele>
        <time>2026-05-09T14:06:23.085Z</time>
      </trkpt>
      <trkpt lat="47.94695" lon="6.95249">
        <ele>575</ele>
        <time>2026-05-09T14:06:24.085Z</time>
      </trkpt>
      <trkpt lat="47.94697" lon="6.95247">
        <ele>575</ele>
        <time>2026-05-09T14:06:25.084Z</time>
      </trkpt>
      <trkpt lat="47.947" lon="6.95244">
        <ele>575</ele>
        <time>2026-05-09T14:06:26.085Z</time>
      </trkpt>
      <trkpt lat="47.94702" lon="6.95242">
        <ele>575</ele>
        <time>2026-05-09T14:06:27.084Z</time>
      </trkpt>
      <trkpt lat="47.94705" lon="6.9524">
        <ele>575</ele>
        <time>2026-05-09T14:06:28.085Z</time>
      </trkpt>
      <trkpt lat="47.94708" lon="6.95241">
        <ele>575</ele>
        <time>2026-05-09T14:06:29.085Z</time>
      </trkpt>
      <trkpt lat="47.94711" lon="6.9524">
        <ele>575</ele>
        <time>2026-05-09T14:06:30.085Z</time>
      </trkpt>
      <trkpt lat="47.94713" lon="6.95238">
        <ele>575</ele>
        <time>2026-05-09T14:06:31.085Z</time>
      </trkpt>
      <trkpt lat="47.94714" lon="6.95235">
        <ele>576</ele>
        <time>2026-05-09T14:06:32.084Z</time>
      </trkpt>
      <trkpt lat="47.94717" lon="6.95232">
        <ele>576</ele>
        <time>2026-05-09T14:06:33.084Z</time>
      </trkpt>
      <trkpt lat="47.94719" lon="6.9523">
        <ele>576</ele>
        <time>2026-05-09T14:06:34.084Z</time>
      </trkpt>
      <trkpt lat="47.94721" lon="6.95227">
        <ele>576</ele>
        <time>2026-05-09T14:06:35.084Z</time>
      </trkpt>
      <trkpt lat="47.94724" lon="6.95227">
        <ele>577</ele>
        <time>2026-05-09T14:06:36.084Z</time>
      </trkpt>
      <trkpt lat="47.94728" lon="6.95227">
        <ele>577</ele>
        <time>2026-05-09T14:06:37.085Z</time>
      </trkpt>
      <trkpt lat="47.94732" lon="6.95224">
        <ele>577</ele>
        <time>2026-05-09T14:06:38.085Z</time>
      </trkpt>
      <trkpt lat="47.94735" lon="6.95223">
        <ele>578</ele>
        <time>2026-05-09T14:06:39.084Z</time>
      </trkpt>
      <trkpt lat="47.94736" lon="6.95222">
        <ele>578</ele>
        <time>2026-05-09T14:06:40.084Z</time>
      </trkpt>
      <trkpt lat="47.94737" lon="6.95222">
        <ele>578</ele>
        <time>2026-05-09T14:06:41.084Z</time>
      </trkpt>
      <trkpt lat="47.94736" lon="6.9522">
        <ele>578</ele>
        <time>2026-05-09T14:06:42.085Z</time>
      </trkpt>
      <trkpt lat="47.94732" lon="6.95219">
        <ele>578</ele>
        <time>2026-05-09T14:06:43.085Z</time>
      </trkpt>
      <trkpt lat="47.94732" lon="6.95216">
        <ele>579</ele>
        <time>2026-05-09T14:06:44.085Z</time>
      </trkpt>
      <trkpt lat="47.94732" lon="6.95214">
        <ele>579</ele>
        <time>2026-05-09T14:06:45.085Z</time>
      </trkpt>
      <trkpt lat="47.94732" lon="6.95214">
        <ele>579</ele>
        <time>2026-05-09T14:06:46.085Z</time>
      </trkpt>
      <trkpt lat="47.94734" lon="6.95215">
        <ele>579</ele>
        <time>2026-05-09T14:06:47.084Z</time>
      </trkpt>
      <trkpt lat="47.94736" lon="6.95218">
        <ele>578</ele>
        <time>2026-05-09T14:06:48.084Z</time>
      </trkpt>
      <trkpt lat="47.94739" lon="6.95218">
        <ele>578</ele>
        <time>2026-05-09T14:06:49.084Z</time>
      </trkpt>
      <trkpt lat="47.94742" lon="6.95219">
        <ele>578</ele>
        <time>2026-05-09T14:06:50.084Z</time>
      </trkpt>
      <trkpt lat="47.94743" lon="6.95218">
        <ele>577</ele>
        <time>2026-05-09T14:06:51.084Z</time>
      </trkpt>
      <trkpt lat="47.94745" lon="6.95218">
        <ele>577</ele>
        <time>2026-05-09T14:06:52.084Z</time>
      </trkpt>
      <trkpt lat="47.94746" lon="6.95219">
        <ele>576</ele>
        <time>2026-05-09T14:06:53.084Z</time>
      </trkpt>
      <trkpt lat="47.94748" lon="6.95221">
        <ele>576</ele>
        <time>2026-05-09T14:06:54.085Z</time>
      </trkpt>
      <trkpt lat="47.94748" lon="6.95224">
        <ele>576</ele>
        <time>2026-05-09T14:06:55.084Z</time>
      </trkpt>
      <trkpt lat="47.94748" lon="6.95228">
        <ele>575</ele>
        <time>2026-05-09T14:06:56.085Z</time>
      </trkpt>
      <trkpt lat="47.94748" lon="6.95231">
        <ele>575</ele>
        <time>2026-05-09T14:06:57.085Z</time>
      </trkpt>
      <trkpt lat="47.94748" lon="6.95233">
        <ele>574</ele>
        <time>2026-05-09T14:06:58.085Z</time>
      </trkpt>
      <trkpt lat="47.94748" lon="6.95235">
        <ele>574</ele>
        <time>2026-05-09T14:06:59.085Z</time>
      </trkpt>
      <trkpt lat="47.94749" lon="6.95236">
        <ele>573</ele>
        <time>2026-05-09T14:07:00.085Z</time>
      </trkpt>
      <trkpt lat="47.9475" lon="6.95236">
        <ele>572</ele>
        <time>2026-05-09T14:07:01.085Z</time>
      </trkpt>
      <trkpt lat="47.94751" lon="6.95236">
        <ele>572</ele>
        <time>2026-05-09T14:07:02.084Z</time>
      </trkpt>
      <trkpt lat="47.94753" lon="6.95235">
        <ele>571</ele>
        <time>2026-05-09T14:07:03.085Z</time>
      </trkpt>
      <trkpt lat="47.94755" lon="6.95234">
        <ele>571</ele>
        <time>2026-05-09T14:07:04.085Z</time>
      </trkpt>
      <trkpt lat="47.94756" lon="6.95232">
        <ele>570</ele>
        <time>2026-05-09T14:07:05.084Z</time>
      </trkpt>
      <trkpt lat="47.94757" lon="6.95231">
        <ele>570</ele>
        <time>2026-05-09T14:07:06.084Z</time>
      </trkpt>
      <trkpt lat="47.94758" lon="6.9523">
        <ele>569</ele>
        <time>2026-05-09T14:07:07.084Z</time>
      </trkpt>
      <trkpt lat="47.9476" lon="6.95229">
        <ele>569</ele>
        <time>2026-05-09T14:07:08.084Z</time>
      </trkpt>
      <trkpt lat="47.94762" lon="6.95229">
        <ele>568</ele>
        <time>2026-05-09T14:07:09.084Z</time>
      </trkpt>
      <trkpt lat="47.94764" lon="6.95229">
        <ele>568</ele>
        <time>2026-05-09T14:07:10.085Z</time>
      </trkpt>
      <trkpt lat="47.94765" lon="6.95229">
        <ele>568</ele>
        <time>2026-05-09T14:07:11.085Z</time>
      </trkpt>
      <trkpt lat="47.94766" lon="6.95228">
        <ele>568</ele>
        <time>2026-05-09T14:07:12.084Z</time>
      </trkpt>
      <trkpt lat="47.94768" lon="6.95228">
        <ele>567</ele>
        <time>2026-05-09T14:07:13.085Z</time>
      </trkpt>
      <trkpt lat="47.94768" lon="6.95227">
        <ele>567</ele>
        <time>2026-05-09T14:07:14.085Z</time>
      </trkpt>
      <trkpt lat="47.9477" lon="6.95226">
        <ele>566</ele>
        <time>2026-05-09T14:07:15.085Z</time>
      </trkpt>
      <trkpt lat="47.94772" lon="6.95224">
        <ele>566</ele>
        <time>2026-05-09T14:07:16.085Z</time>
      </trkpt>
      <trkpt lat="47.94773" lon="6.95223">
        <ele>565</ele>
        <time>2026-05-09T14:07:17.085Z</time>
      </trkpt>
      <trkpt lat="47.94774" lon="6.95222">
        <ele>565</ele>
        <time>2026-05-09T14:07:18.085Z</time>
      </trkpt>
      <trkpt lat="47.94776" lon="6.9522">
        <ele>564</ele>
        <time>2026-05-09T14:07:19.084Z</time>
      </trkpt>
      <trkpt lat="47.94777" lon="6.95219">
        <ele>564</ele>
        <time>2026-05-09T14:07:20.084Z</time>
      </trkpt>
      <trkpt lat="47.94778" lon="6.95219">
        <ele>564</ele>
        <time>2026-05-09T14:07:21.085Z</time>
      </trkpt>
      <trkpt lat="47.9478" lon="6.95218">
        <ele>563</ele>
        <time>2026-05-09T14:07:22.085Z</time>
      </trkpt>
      <trkpt lat="47.9478" lon="6.95218">
        <ele>563</ele>
        <time>2026-05-09T14:07:23.085Z</time>
      </trkpt>
      <trkpt lat="47.94781" lon="6.95218">
        <ele>563</ele>
        <time>2026-05-09T14:07:24.085Z</time>
      </trkpt>
      <trkpt lat="47.94781" lon="6.95218">
        <ele>562</ele>
        <time>2026-05-09T14:07:25.085Z</time>
      </trkpt>
      <trkpt lat="47.94781" lon="6.95217">
        <ele>562</ele>
        <time>2026-05-09T14:07:26.085Z</time>
      </trkpt>
      <trkpt lat="47.94782" lon="6.95217">
        <ele>562</ele>
        <time>2026-05-09T14:07:27.085Z</time>
      </trkpt>
      <trkpt lat="47.94783" lon="6.95216">
        <ele>561</ele>
        <time>2026-05-09T14:07:28.084Z</time>
      </trkpt>
      <trkpt lat="47.94784" lon="6.95215">
        <ele>561</ele>
        <time>2026-05-09T14:07:29.084Z</time>
      </trkpt>
      <trkpt lat="47.94786" lon="6.95214">
        <ele>561</ele>
        <time>2026-05-09T14:07:30.084Z</time>
      </trkpt>
      <trkpt lat="47.94787" lon="6.95214">
        <ele>561</ele>
        <time>2026-05-09T14:07:31.085Z</time>
      </trkpt>
      <trkpt lat="47.94789" lon="6.95213">
        <ele>561</ele>
        <time>2026-05-09T14:07:32.085Z</time>
      </trkpt>
      <trkpt lat="47.9479" lon="6.95211">
        <ele>561</ele>
        <time>2026-05-09T14:07:33.085Z</time>
      </trkpt>
      <trkpt lat="47.94792" lon="6.95211">
        <ele>561</ele>
        <time>2026-05-09T14:07:34.085Z</time>
      </trkpt>
      <trkpt lat="47.94793" lon="6.9521">
        <ele>560</ele>
        <time>2026-05-09T14:07:35.084Z</time>
      </trkpt>
      <trkpt lat="47.94794" lon="6.95209">
        <ele>560</ele>
        <time>2026-05-09T14:07:36.084Z</time>
      </trkpt>
      <trkpt lat="47.94795" lon="6.95209">
        <ele>559</ele>
        <time>2026-05-09T14:07:37.084Z</time>
      </trkpt>
      <trkpt lat="47.94795" lon="6.95209">
        <ele>559</ele>
        <time>2026-05-09T14:07:38.084Z</time>
      </trkpt>
      <trkpt lat="47.94796" lon="6.95209">
        <ele>558</ele>
        <time>2026-05-09T14:07:39.085Z</time>
      </trkpt>
      <trkpt lat="47.94797" lon="6.95209">
        <ele>558</ele>
        <time>2026-05-09T14:07:40.084Z</time>
      </trkpt>
      <trkpt lat="47.94797" lon="6.95209">
        <ele>557</ele>
        <time>2026-05-09T14:07:41.085Z</time>
      </trkpt>
      <trkpt lat="47.94798" lon="6.95209">
        <ele>557</ele>
        <time>2026-05-09T14:07:42.084Z</time>
      </trkpt>
      <trkpt lat="47.94798" lon="6.95209">
        <ele>557</ele>
        <time>2026-05-09T14:07:43.085Z</time>
      </trkpt>
      <trkpt lat="47.94802" lon="6.95206">
        <ele>556</ele>
        <time>2026-05-09T14:07:51.208Z</time>
      </trkpt>
      <trkpt lat="47.94803" lon="6.95205">
        <ele>556</ele>
        <time>2026-05-09T14:07:52.208Z</time>
      </trkpt>
      <trkpt lat="47.94804" lon="6.95206">
        <ele>556</ele>
        <time>2026-05-09T14:07:53.207Z</time>
      </trkpt>
      <trkpt lat="47.94804" lon="6.95206">
        <ele>555</ele>
        <time>2026-05-09T14:07:54.207Z</time>
      </trkpt>
      <trkpt lat="47.94805" lon="6.95206">
        <ele>554</ele>
        <time>2026-05-09T14:07:55.207Z</time>
      </trkpt>
      <trkpt lat="47.94805" lon="6.95206">
        <ele>554</ele>
        <time>2026-05-09T14:07:56.207Z</time>
      </trkpt>
      <trkpt lat="47.948" lon="6.95208">
        <ele>547</ele>
        <time>2026-05-09T14:08:08.479Z</time>
      </trkpt>
      <trkpt lat="47.94799" lon="6.95209">
        <ele>547</ele>
        <time>2026-05-09T14:08:09.479Z</time>
      </trkpt>
      <trkpt lat="47.94798" lon="6.9521">
        <ele>547</ele>
        <time>2026-05-09T14:08:10.479Z</time>
      </trkpt>
      <trkpt lat="47.94797" lon="6.95211">
        <ele>547</ele>
        <time>2026-05-09T14:08:11.479Z</time>
      </trkpt>
      <trkpt lat="47.94796" lon="6.95211">
        <ele>546</ele>
        <time>2026-05-09T14:08:12.479Z</time>
      </trkpt>
      <trkpt lat="47.94794" lon="6.95212">
        <ele>546</ele>
        <time>2026-05-09T14:08:13.480Z</time>
      </trkpt>
      <trkpt lat="47.94793" lon="6.95212">
        <ele>546</ele>
        <time>2026-05-09T14:08:14.480Z</time>
      </trkpt>
      <trkpt lat="47.94792" lon="6.95212">
        <ele>546</ele>
        <time>2026-05-09T14:08:15.479Z</time>
      </trkpt>
      <trkpt lat="47.94791" lon="6.95213">
        <ele>546</ele>
        <time>2026-05-09T14:08:16.479Z</time>
      </trkpt>
      <trkpt lat="47.9479" lon="6.95213">
        <ele>546</ele>
        <time>2026-05-09T14:08:17.479Z</time>
      </trkpt>
      <trkpt lat="47.94789" lon="6.95214">
        <ele>546</ele>
        <time>2026-05-09T14:08:18.479Z</time>
      </trkpt>
      <trkpt lat="47.94788" lon="6.95215">
        <ele>546</ele>
        <time>2026-05-09T14:08:19.479Z</time>
      </trkpt>
      <trkpt lat="47.94787" lon="6.95216">
        <ele>546</ele>
        <time>2026-05-09T14:08:20.479Z</time>
      </trkpt>
      <trkpt lat="47.94786" lon="6.95216">
        <ele>546</ele>
        <time>2026-05-09T14:08:21.479Z</time>
      </trkpt>
      <trkpt lat="47.94784" lon="6.95217">
        <ele>546</ele>
        <time>2026-05-09T14:08:22.479Z</time>
      </trkpt>
      <trkpt lat="47.94783" lon="6.95219">
        <ele>546</ele>
        <time>2026-05-09T14:08:23.479Z</time>
      </trkpt>
      <trkpt lat="47.94781" lon="6.9522">
        <ele>546</ele>
        <time>2026-05-09T14:08:24.479Z</time>
      </trkpt>
      <trkpt lat="47.9478" lon="6.95221">
        <ele>546</ele>
        <time>2026-05-09T14:08:25.479Z</time>
      </trkpt>
      <trkpt lat="47.94779" lon="6.95222">
        <ele>546</ele>
        <time>2026-05-09T14:08:26.479Z</time>
      </trkpt>
      <trkpt lat="47.94778" lon="6.95222">
        <ele>547</ele>
        <time>2026-05-09T14:08:27.479Z</time>
      </trkpt>
      <trkpt lat="47.94777" lon="6.95223">
        <ele>548</ele>
        <time>2026-05-09T14:08:28.479Z</time>
      </trkpt>
      <trkpt lat="47.94776" lon="6.95224">
        <ele>548</ele>
        <time>2026-05-09T14:08:29.480Z</time>
      </trkpt>
      <trkpt lat="47.94775" lon="6.95225">
        <ele>548</ele>
        <time>2026-05-09T14:08:30.480Z</time>
      </trkpt>
      <trkpt lat="47.94774" lon="6.95225">
        <ele>549</ele>
        <time>2026-05-09T14:08:31.479Z</time>
      </trkpt>
      <trkpt lat="47.94773" lon="6.95226">
        <ele>549</ele>
        <time>2026-05-09T14:08:32.479Z</time>
      </trkpt>
      <trkpt lat="47.94772" lon="6.95227">
        <ele>549</ele>
        <time>2026-05-09T14:08:33.479Z</time>
      </trkpt>
      <trkpt lat="47.9477" lon="6.95228">
        <ele>549</ele>
        <time>2026-05-09T14:08:34.480Z</time>
      </trkpt>
      <trkpt lat="47.94769" lon="6.95228">
        <ele>549</ele>
        <time>2026-05-09T14:08:35.479Z</time>
      </trkpt>
      <trkpt lat="47.94768" lon="6.95229">
        <ele>550</ele>
        <time>2026-05-09T14:08:36.479Z</time>
      </trkpt>
      <trkpt lat="47.94767" lon="6.95229">
        <ele>550</ele>
        <time>2026-05-09T14:08:37.480Z</time>
      </trkpt>
      <trkpt lat="47.94766" lon="6.9523">
        <ele>550</ele>
        <time>2026-05-09T14:08:38.480Z</time>
      </trkpt>
      <trkpt lat="47.94765" lon="6.95231">
        <ele>551</ele>
        <time>2026-05-09T14:08:39.480Z</time>
      </trkpt>
      <trkpt lat="47.94763" lon="6.95231">
        <ele>551</ele>
        <time>2026-05-09T14:08:40.480Z</time>
      </trkpt>
      <trkpt lat="47.94762" lon="6.95232">
        <ele>551</ele>
        <time>2026-05-09T14:08:41.479Z</time>
      </trkpt>
      <trkpt lat="47.94761" lon="6.95232">
        <ele>551</ele>
        <time>2026-05-09T14:08:42.480Z</time>
      </trkpt>
      <trkpt lat="47.94759" lon="6.95233">
        <ele>551</ele>
        <time>2026-05-09T14:08:43.479Z</time>
      </trkpt>
      <trkpt lat="47.94759" lon="6.95234">
        <ele>551</ele>
        <time>2026-05-09T14:08:44.480Z</time>
      </trkpt>
      <trkpt lat="47.94758" lon="6.95234">
        <ele>551</ele>
        <time>2026-05-09T14:08:45.479Z</time>
      </trkpt>
      <trkpt lat="47.94757" lon="6.95235">
        <ele>551</ele>
        <time>2026-05-09T14:08:46.480Z</time>
      </trkpt>
      <trkpt lat="47.94755" lon="6.95235">
        <ele>550</ele>
        <time>2026-05-09T14:08:47.479Z</time>
      </trkpt>
      <trkpt lat="47.94754" lon="6.95236">
        <ele>550</ele>
        <time>2026-05-09T14:08:48.480Z</time>
      </trkpt>
      <trkpt lat="47.94753" lon="6.95237">
        <ele>550</ele>
        <time>2026-05-09T14:08:49.479Z</time>
      </trkpt>
      <trkpt lat="47.94752" lon="6.95238">
        <ele>550</ele>
        <time>2026-05-09T14:08:50.479Z</time>
      </trkpt>
      <trkpt lat="47.94751" lon="6.95238">
        <ele>550</ele>
        <time>2026-05-09T14:08:51.479Z</time>
      </trkpt>
      <trkpt lat="47.94751" lon="6.95239">
        <ele>549</ele>
        <time>2026-05-09T14:08:52.480Z</time>
      </trkpt>
      <trkpt lat="47.9475" lon="6.9524">
        <ele>549</ele>
        <time>2026-05-09T14:08:53.480Z</time>
      </trkpt>
      <trkpt lat="47.94749" lon="6.95241">
        <ele>549</ele>
        <time>2026-05-09T14:08:54.480Z</time>
      </trkpt>
      <trkpt lat="47.94748" lon="6.95242">
        <ele>549</ele>
        <time>2026-05-09T14:08:55.480Z</time>
      </trkpt>
      <trkpt lat="47.94747" lon="6.95242">
        <ele>549</ele>
        <time>2026-05-09T14:08:56.479Z</time>
      </trkpt>
      <trkpt lat="47.94746" lon="6.95244">
        <ele>550</ele>
        <time>2026-05-09T14:08:57.480Z</time>
      </trkpt>
      <trkpt lat="47.94745" lon="6.95245">
        <ele>550</ele>
        <time>2026-05-09T14:08:58.479Z</time>
      </trkpt>
      <trkpt lat="47.94744" lon="6.95246">
        <ele>551</ele>
        <time>2026-05-09T14:08:59.480Z</time>
      </trkpt>
      <trkpt lat="47.94743" lon="6.95247">
        <ele>552</ele>
        <time>2026-05-09T14:09:00.479Z</time>
      </trkpt>
      <trkpt lat="47.94742" lon="6.95248">
        <ele>552</ele>
        <time>2026-05-09T14:09:01.480Z</time>
      </trkpt>
      <trkpt lat="47.9474" lon="6.95249">
        <ele>553</ele>
        <time>2026-05-09T14:09:02.479Z</time>
      </trkpt>
      <trkpt lat="47.94739" lon="6.95251">
        <ele>554</ele>
        <time>2026-05-09T14:09:03.480Z</time>
      </trkpt>
      <trkpt lat="47.94737" lon="6.95252">
        <ele>554</ele>
        <time>2026-05-09T14:09:04.479Z</time>
      </trkpt>
      <trkpt lat="47.94736" lon="6.95254">
        <ele>555</ele>
        <time>2026-05-09T14:09:05.479Z</time>
      </trkpt>
      <trkpt lat="47.94735" lon="6.95255">
        <ele>555</ele>
        <time>2026-05-09T14:09:06.479Z</time>
      </trkpt>
      <trkpt lat="47.94734" lon="6.95256">
        <ele>555</ele>
        <time>2026-05-09T14:09:07.480Z</time>
      </trkpt>
      <trkpt lat="47.94732" lon="6.95258">
        <ele>555</ele>
        <time>2026-05-09T14:09:08.479Z</time>
      </trkpt>
      <trkpt lat="47.94731" lon="6.9526">
        <ele>555</ele>
        <time>2026-05-09T14:09:09.480Z</time>
      </trkpt>
      <trkpt lat="47.94729" lon="6.95261">
        <ele>556</ele>
        <time>2026-05-09T14:09:10.479Z</time>
      </trkpt>
      <trkpt lat="47.94728" lon="6.95263">
        <ele>556</ele>
        <time>2026-05-09T14:09:11.479Z</time>
      </trkpt>
      <trkpt lat="47.94726" lon="6.95264">
        <ele>556</ele>
        <time>2026-05-09T14:09:12.480Z</time>
      </trkpt>
      <trkpt lat="47.94725" lon="6.95265">
        <ele>556</ele>
        <time>2026-05-09T14:09:13.479Z</time>
      </trkpt>
      <trkpt lat="47.94724" lon="6.95267">
        <ele>556</ele>
        <time>2026-05-09T14:09:14.480Z</time>
      </trkpt>
      <trkpt lat="47.94723" lon="6.95267">
        <ele>556</ele>
        <time>2026-05-09T14:09:15.480Z</time>
      </trkpt>
      <trkpt lat="47.94722" lon="6.95268">
        <ele>556</ele>
        <time>2026-05-09T14:09:16.480Z</time>
      </trkpt>
      <trkpt lat="47.9472" lon="6.95269">
        <ele>556</ele>
        <time>2026-05-09T14:09:17.479Z</time>
      </trkpt>
      <trkpt lat="47.94719" lon="6.9527">
        <ele>556</ele>
        <time>2026-05-09T14:09:18.480Z</time>
      </trkpt>
      <trkpt lat="47.94717" lon="6.95272">
        <ele>556</ele>
        <time>2026-05-09T14:09:19.479Z</time>
      </trkpt>
      <trkpt lat="47.94716" lon="6.95273">
        <ele>556</ele>
        <time>2026-05-09T14:09:20.480Z</time>
      </trkpt>
      <trkpt lat="47.94714" lon="6.95274">
        <ele>556</ele>
        <time>2026-05-09T14:09:21.480Z</time>
      </trkpt>
      <trkpt lat="47.94713" lon="6.95276">
        <ele>557</ele>
        <time>2026-05-09T14:09:22.480Z</time>
      </trkpt>
      <trkpt lat="47.94712" lon="6.95278">
        <ele>557</ele>
        <time>2026-05-09T14:09:23.479Z</time>
      </trkpt>
      <trkpt lat="47.94711" lon="6.95279">
        <ele>557</ele>
        <time>2026-05-09T14:09:24.480Z</time>
      </trkpt>
      <trkpt lat="47.94709" lon="6.95281">
        <ele>557</ele>
        <time>2026-05-09T14:09:25.479Z</time>
      </trkpt>
      <trkpt lat="47.94708" lon="6.95283">
        <ele>557</ele>
        <time>2026-05-09T14:09:26.480Z</time>
      </trkpt>
      <trkpt lat="47.94707" lon="6.95285">
        <ele>558</ele>
        <time>2026-05-09T14:09:27.480Z</time>
      </trkpt>
      <trkpt lat="47.94706" lon="6.95286">
        <ele>558</ele>
        <time>2026-05-09T14:09:28.480Z</time>
      </trkpt>
      <trkpt lat="47.94705" lon="6.95288">
        <ele>558</ele>
        <time>2026-05-09T14:09:29.479Z</time>
      </trkpt>
      <trkpt lat="47.94704" lon="6.9529">
        <ele>559</ele>
        <time>2026-05-09T14:09:30.479Z</time>
      </trkpt>
      <trkpt lat="47.94703" lon="6.95292">
        <ele>559</ele>
        <time>2026-05-09T14:09:31.480Z</time>
      </trkpt>
      <trkpt lat="47.94701" lon="6.95293">
        <ele>560</ele>
        <time>2026-05-09T14:09:32.479Z</time>
      </trkpt>
      <trkpt lat="47.947" lon="6.95295">
        <ele>560</ele>
        <time>2026-05-09T14:09:33.480Z</time>
      </trkpt>
      <trkpt lat="47.94699" lon="6.95296">
        <ele>560</ele>
        <time>2026-05-09T14:09:34.479Z</time>
      </trkpt>
      <trkpt lat="47.94698" lon="6.95298">
        <ele>561</ele>
        <time>2026-05-09T14:09:35.480Z</time>
      </trkpt>
      <trkpt lat="47.94698" lon="6.95299">
        <ele>561</ele>
        <time>2026-05-09T14:09:36.479Z</time>
      </trkpt>
      <trkpt lat="47.94697" lon="6.95301">
        <ele>561</ele>
        <time>2026-05-09T14:09:37.480Z</time>
      </trkpt>
      <trkpt lat="47.94696" lon="6.95302">
        <ele>562</ele>
        <time>2026-05-09T14:09:38.479Z</time>
      </trkpt>
      <trkpt lat="47.94694" lon="6.95303">
        <ele>562</ele>
        <time>2026-05-09T14:09:39.479Z</time>
      </trkpt>
      <trkpt lat="47.94693" lon="6.95304">
        <ele>561</ele>
        <time>2026-05-09T14:09:40.479Z</time>
      </trkpt>
      <trkpt lat="47.94692" lon="6.95305">
        <ele>560</ele>
        <time>2026-05-09T14:09:41.480Z</time>
      </trkpt>
      <trkpt lat="47.94691" lon="6.95306">
        <ele>560</ele>
        <time>2026-05-09T14:09:42.480Z</time>
      </trkpt>
      <trkpt lat="47.94689" lon="6.95307">
        <ele>559</ele>
        <time>2026-05-09T14:09:43.480Z</time>
      </trkpt>
      <trkpt lat="47.94687" lon="6.95309">
        <ele>558</ele>
        <time>2026-05-09T14:09:44.480Z</time>
      </trkpt>
      <trkpt lat="47.94686" lon="6.9531">
        <ele>558</ele>
        <time>2026-05-09T14:09:45.479Z</time>
      </trkpt>
      <trkpt lat="47.94685" lon="6.95312">
        <ele>557</ele>
        <time>2026-05-09T14:09:46.480Z</time>
      </trkpt>
      <trkpt lat="47.94684" lon="6.95313">
        <ele>556</ele>
        <time>2026-05-09T14:09:47.479Z</time>
      </trkpt>
      <trkpt lat="47.94683" lon="6.95314">
        <ele>556</ele>
        <time>2026-05-09T14:09:48.480Z</time>
      </trkpt>
      <trkpt lat="47.94681" lon="6.95315">
        <ele>556</ele>
        <time>2026-05-09T14:09:49.479Z</time>
      </trkpt>
      <trkpt lat="47.94679" lon="6.95315">
        <ele>555</ele>
        <time>2026-05-09T14:09:50.480Z</time>
      </trkpt>
      <trkpt lat="47.94678" lon="6.95317">
        <ele>555</ele>
        <time>2026-05-09T14:09:51.479Z</time>
      </trkpt>
      <trkpt lat="47.94677" lon="6.95318">
        <ele>554</ele>
        <time>2026-05-09T14:09:52.480Z</time>
      </trkpt>
      <trkpt lat="47.94675" lon="6.95319">
        <ele>554</ele>
        <time>2026-05-09T14:09:53.479Z</time>
      </trkpt>
      <trkpt lat="47.94674" lon="6.95319">
        <ele>554</ele>
        <time>2026-05-09T14:09:54.480Z</time>
      </trkpt>
      <trkpt lat="47.94673" lon="6.9532">
        <ele>553</ele>
        <time>2026-05-09T14:09:55.479Z</time>
      </trkpt>
      <trkpt lat="47.94671" lon="6.95321">
        <ele>553</ele>
        <time>2026-05-09T14:09:56.480Z</time>
      </trkpt>
      <trkpt lat="47.9467" lon="6.95321">
        <ele>553</ele>
        <time>2026-05-09T14:09:57.479Z</time>
      </trkpt>
      <trkpt lat="47.94668" lon="6.95321">
        <ele>553</ele>
        <time>2026-05-09T14:09:58.480Z</time>
      </trkpt>
      <trkpt lat="47.94666" lon="6.95322">
        <ele>553</ele>
        <time>2026-05-09T14:09:59.480Z</time>
      </trkpt>
      <trkpt lat="47.94665" lon="6.95323">
        <ele>553</ele>
        <time>2026-05-09T14:10:00.480Z</time>
      </trkpt>
      <trkpt lat="47.94663" lon="6.95323">
        <ele>553</ele>
        <time>2026-05-09T14:10:01.480Z</time>
      </trkpt>
      <trkpt lat="47.94662" lon="6.95324">
        <ele>552</ele>
        <time>2026-05-09T14:10:02.480Z</time>
      </trkpt>
      <trkpt lat="47.9466" lon="6.95324">
        <ele>552</ele>
        <time>2026-05-09T14:10:03.480Z</time>
      </trkpt>
      <trkpt lat="47.94659" lon="6.95324">
        <ele>552</ele>
        <time>2026-05-09T14:10:04.480Z</time>
      </trkpt>
      <trkpt lat="47.94658" lon="6.95325">
        <ele>552</ele>
        <time>2026-05-09T14:10:05.480Z</time>
      </trkpt>
      <trkpt lat="47.94656" lon="6.95326">
        <ele>551</ele>
        <time>2026-05-09T14:10:06.479Z</time>
      </trkpt>
      <trkpt lat="47.94655" lon="6.95326">
        <ele>551</ele>
        <time>2026-05-09T14:10:07.480Z</time>
      </trkpt>
      <trkpt lat="47.94653" lon="6.95326">
        <ele>550</ele>
        <time>2026-05-09T14:10:08.479Z</time>
      </trkpt>
      <trkpt lat="47.94652" lon="6.95326">
        <ele>550</ele>
        <time>2026-05-09T14:10:09.480Z</time>
      </trkpt>
      <trkpt lat="47.9465" lon="6.95326">
        <ele>549</ele>
        <time>2026-05-09T14:10:10.479Z</time>
      </trkpt>
      <trkpt lat="47.94649" lon="6.95326">
        <ele>549</ele>
        <time>2026-05-09T14:10:11.480Z</time>
      </trkpt>
      <trkpt lat="47.94648" lon="6.95326">
        <ele>549</ele>
        <time>2026-05-09T14:10:12.479Z</time>
      </trkpt>
      <trkpt lat="47.94646" lon="6.95326">
        <ele>549</ele>
        <time>2026-05-09T14:10:13.479Z</time>
      </trkpt>
      <trkpt lat="47.94645" lon="6.95327">
        <ele>549</ele>
        <time>2026-05-09T14:10:14.479Z</time>
      </trkpt>
      <trkpt lat="47.94643" lon="6.95328">
        <ele>549</ele>
        <time>2026-05-09T14:10:15.480Z</time>
      </trkpt>
      <trkpt lat="47.94641" lon="6.95328">
        <ele>549</ele>
        <time>2026-05-09T14:10:16.479Z</time>
      </trkpt>
      <trkpt lat="47.9464" lon="6.95328">
        <ele>549</ele>
        <time>2026-05-09T14:10:17.480Z</time>
      </trkpt>
      <trkpt lat="47.94638" lon="6.95328">
        <ele>548</ele>
        <time>2026-05-09T14:10:18.480Z</time>
      </trkpt>
      <trkpt lat="47.94636" lon="6.95329">
        <ele>548</ele>
        <time>2026-05-09T14:10:19.480Z</time>
      </trkpt>
      <trkpt lat="47.94635" lon="6.95329">
        <ele>548</ele>
        <time>2026-05-09T14:10:20.480Z</time>
      </trkpt>
      <trkpt lat="47.94633" lon="6.95329">
        <ele>548</ele>
        <time>2026-05-09T14:10:21.479Z</time>
      </trkpt>
      <trkpt lat="47.94631" lon="6.9533">
        <ele>548</ele>
        <time>2026-05-09T14:10:22.480Z</time>
      </trkpt>
      <trkpt lat="47.9463" lon="6.9533">
        <ele>548</ele>
        <time>2026-05-09T14:10:23.479Z</time>
      </trkpt>
      <trkpt lat="47.94628" lon="6.95331">
        <ele>548</ele>
        <time>2026-05-09T14:10:24.480Z</time>
      </trkpt>
      <trkpt lat="47.94627" lon="6.9533">
        <ele>548</ele>
        <time>2026-05-09T14:10:25.479Z</time>
      </trkpt>
      <trkpt lat="47.94625" lon="6.9533">
        <ele>548</ele>
        <time>2026-05-09T14:10:26.480Z</time>
      </trkpt>
      <trkpt lat="47.94624" lon="6.9533">
        <ele>547</ele>
        <time>2026-05-09T14:10:27.479Z</time>
      </trkpt>
      <trkpt lat="47.94623" lon="6.9533">
        <ele>547</ele>
        <time>2026-05-09T14:10:28.480Z</time>
      </trkpt>
      <trkpt lat="47.94621" lon="6.9533">
        <ele>547</ele>
        <time>2026-05-09T14:10:29.479Z</time>
      </trkpt>
      <trkpt lat="47.9462" lon="6.9533">
        <ele>547</ele>
        <time>2026-05-09T14:10:30.480Z</time>
      </trkpt>
      <trkpt lat="47.94619" lon="6.95331">
        <ele>548</ele>
        <time>2026-05-09T14:10:31.479Z</time>
      </trkpt>
      <trkpt lat="47.94618" lon="6.9533">
        <ele>548</ele>
        <time>2026-05-09T14:10:32.480Z</time>
      </trkpt>
      <trkpt lat="47.94616" lon="6.9533">
        <ele>548</ele>
        <time>2026-05-09T14:10:33.480Z</time>
      </trkpt>
      <trkpt lat="47.94615" lon="6.95331">
        <ele>548</ele>
        <time>2026-05-09T14:10:34.480Z</time>
      </trkpt>
      <trkpt lat="47.94614" lon="6.95331">
        <ele>548</ele>
        <time>2026-05-09T14:10:35.479Z</time>
      </trkpt>
      <trkpt lat="47.94612" lon="6.9533">
        <ele>547</ele>
        <time>2026-05-09T14:10:36.479Z</time>
      </trkpt>
      <trkpt lat="47.94611" lon="6.95329">
        <ele>547</ele>
        <time>2026-05-09T14:10:37.480Z</time>
      </trkpt>
      <trkpt lat="47.9461" lon="6.95328">
        <ele>547</ele>
        <time>2026-05-09T14:10:38.480Z</time>
      </trkpt>
      <trkpt lat="47.94609" lon="6.95328">
        <ele>547</ele>
        <time>2026-05-09T14:10:39.480Z</time>
      </trkpt>
      <trkpt lat="47.94608" lon="6.95327">
        <ele>547</ele>
        <time>2026-05-09T14:10:40.479Z</time>
      </trkpt>
      <trkpt lat="47.94606" lon="6.95327">
        <ele>548</ele>
        <time>2026-05-09T14:10:41.480Z</time>
      </trkpt>
      <trkpt lat="47.94604" lon="6.95329">
        <ele>548</ele>
        <time>2026-05-09T14:10:42.480Z</time>
      </trkpt>
      <trkpt lat="47.94602" lon="6.95331">
        <ele>548</ele>
        <time>2026-05-09T14:10:43.479Z</time>
      </trkpt>
      <trkpt lat="47.94601" lon="6.95331">
        <ele>549</ele>
        <time>2026-05-09T14:10:44.480Z</time>
      </trkpt>
      <trkpt lat="47.94599" lon="6.95331">
        <ele>549</ele>
        <time>2026-05-09T14:10:45.479Z</time>
      </trkpt>
      <trkpt lat="47.94597" lon="6.95331">
        <ele>549</ele>
        <time>2026-05-09T14:10:46.479Z</time>
      </trkpt>
      <trkpt lat="47.94596" lon="6.95331">
        <ele>550</ele>
        <time>2026-05-09T14:10:47.479Z</time>
      </trkpt>
      <trkpt lat="47.94595" lon="6.95331">
        <ele>550</ele>
        <time>2026-05-09T14:10:48.480Z</time>
      </trkpt>
      <trkpt lat="47.94593" lon="6.95331">
        <ele>550</ele>
        <time>2026-05-09T14:10:49.479Z</time>
      </trkpt>
      <trkpt lat="47.94592" lon="6.95331">
        <ele>551</ele>
        <time>2026-05-09T14:10:50.480Z</time>
      </trkpt>
      <trkpt lat="47.94591" lon="6.95331">
        <ele>551</ele>
        <time>2026-05-09T14:10:51.480Z</time>
      </trkpt>
      <trkpt lat="47.9459" lon="6.95331">
        <ele>551</ele>
        <time>2026-05-09T14:10:52.480Z</time>
      </trkpt>
      <trkpt lat="47.94588" lon="6.95332">
        <ele>551</ele>
        <time>2026-05-09T14:10:53.480Z</time>
      </trkpt>
      <trkpt lat="47.94587" lon="6.95332">
        <ele>551</ele>
        <time>2026-05-09T14:10:54.479Z</time>
      </trkpt>
      <trkpt lat="47.94586" lon="6.95331">
        <ele>551</ele>
        <time>2026-05-09T14:10:55.480Z</time>
      </trkpt>
      <trkpt lat="47.94585" lon="6.95331">
        <ele>551</ele>
        <time>2026-05-09T14:10:56.479Z</time>
      </trkpt>
      <trkpt lat="47.94583" lon="6.95332">
        <ele>551</ele>
        <time>2026-05-09T14:10:57.480Z</time>
      </trkpt>
      <trkpt lat="47.94582" lon="6.95332">
        <ele>551</ele>
        <time>2026-05-09T14:10:58.479Z</time>
      </trkpt>
      <trkpt lat="47.9458" lon="6.95332">
        <ele>551</ele>
        <time>2026-05-09T14:10:59.480Z</time>
      </trkpt>
      <trkpt lat="47.94579" lon="6.95332">
        <ele>550</ele>
        <time>2026-05-09T14:11:00.479Z</time>
      </trkpt>
      <trkpt lat="47.94578" lon="6.95332">
        <ele>550</ele>
        <time>2026-05-09T14:11:01.480Z</time>
      </trkpt>
      <trkpt lat="47.94576" lon="6.95332">
        <ele>550</ele>
        <time>2026-05-09T14:11:02.479Z</time>
      </trkpt>
      <trkpt lat="47.94575" lon="6.95332">
        <ele>549</ele>
        <time>2026-05-09T14:11:03.480Z</time>
      </trkpt>
      <trkpt lat="47.94573" lon="6.95333">
        <ele>549</ele>
        <time>2026-05-09T14:11:04.479Z</time>
      </trkpt>
      <trkpt lat="47.94572" lon="6.95333">
        <ele>548</ele>
        <time>2026-05-09T14:11:05.480Z</time>
      </trkpt>
      <trkpt lat="47.9457" lon="6.95334">
        <ele>548</ele>
        <time>2026-05-09T14:11:06.479Z</time>
      </trkpt>
      <trkpt lat="47.94569" lon="6.95334">
        <ele>547</ele>
        <time>2026-05-09T14:11:07.480Z</time>
      </trkpt>
      <trkpt lat="47.94568" lon="6.95335">
        <ele>547</ele>
        <time>2026-05-09T14:11:08.479Z</time>
      </trkpt>
      <trkpt lat="47.94567" lon="6.95336">
        <ele>547</ele>
        <time>2026-05-09T14:11:09.480Z</time>
      </trkpt>
      <trkpt lat="47.94566" lon="6.95337">
        <ele>547</ele>
        <time>2026-05-09T14:11:10.479Z</time>
      </trkpt>
      <trkpt lat="47.94564" lon="6.95337">
        <ele>547</ele>
        <time>2026-05-09T14:11:11.480Z</time>
      </trkpt>
      <trkpt lat="47.94563" lon="6.95338">
        <ele>548</ele>
        <time>2026-05-09T14:11:12.480Z</time>
      </trkpt>
      <trkpt lat="47.94562" lon="6.95339">
        <ele>548</ele>
        <time>2026-05-09T14:11:13.480Z</time>
      </trkpt>
      <trkpt lat="47.9456" lon="6.9534">
        <ele>548</ele>
        <time>2026-05-09T14:11:14.480Z</time>
      </trkpt>
      <trkpt lat="47.94559" lon="6.95341">
        <ele>548</ele>
        <time>2026-05-09T14:11:15.479Z</time>
      </trkpt>
      <trkpt lat="47.94557" lon="6.95342">
        <ele>549</ele>
        <time>2026-05-09T14:11:16.480Z</time>
      </trkpt>
      <trkpt lat="47.94556" lon="6.95343">
        <ele>549</ele>
        <time>2026-05-09T14:11:17.479Z</time>
      </trkpt>
      <trkpt lat="47.94555" lon="6.95343">
        <ele>549</ele>
        <time>2026-05-09T14:11:18.480Z</time>
      </trkpt>
      <trkpt lat="47.94553" lon="6.95344">
        <ele>549</ele>
        <time>2026-05-09T14:11:19.480Z</time>
      </trkpt>
      <trkpt lat="47.94552" lon="6.95344">
        <ele>549</ele>
        <time>2026-05-09T14:11:20.479Z</time>
      </trkpt>
      <trkpt lat="47.94552" lon="6.95344">
        <ele>550</ele>
        <time>2026-05-09T14:11:21.479Z</time>
      </trkpt>
      <trkpt lat="47.94551" lon="6.95345">
        <ele>550</ele>
        <time>2026-05-09T14:11:22.480Z</time>
      </trkpt>
      <trkpt lat="47.94549" lon="6.95346">
        <ele>550</ele>
        <time>2026-05-09T14:11:23.479Z</time>
      </trkpt>
      <trkpt lat="47.94548" lon="6.95347">
        <ele>550</ele>
        <time>2026-05-09T14:11:24.480Z</time>
      </trkpt>
      <trkpt lat="47.94547" lon="6.95347">
        <ele>550</ele>
        <time>2026-05-09T14:11:25.479Z</time>
      </trkpt>
      <trkpt lat="47.94546" lon="6.95348">
        <ele>551</ele>
        <time>2026-05-09T14:11:26.480Z</time>
      </trkpt>
      <trkpt lat="47.94544" lon="6.95349">
        <ele>551</ele>
        <time>2026-05-09T14:11:27.479Z</time>
      </trkpt>
      <trkpt lat="47.94543" lon="6.95349">
        <ele>551</ele>
        <time>2026-05-09T14:11:28.480Z</time>
      </trkpt>
      <trkpt lat="47.94541" lon="6.9535">
        <ele>551</ele>
        <time>2026-05-09T14:11:29.480Z</time>
      </trkpt>
      <trkpt lat="47.94539" lon="6.95352">
        <ele>551</ele>
        <time>2026-05-09T14:11:30.480Z</time>
      </trkpt>
      <trkpt lat="47.94537" lon="6.95353">
        <ele>551</ele>
        <time>2026-05-09T14:11:31.480Z</time>
      </trkpt>
      <trkpt lat="47.94535" lon="6.95354">
        <ele>551</ele>
        <time>2026-05-09T14:11:32.479Z</time>
      </trkpt>
      <trkpt lat="47.94534" lon="6.95354">
        <ele>551</ele>
        <time>2026-05-09T14:11:33.479Z</time>
      </trkpt>
      <trkpt lat="47.94533" lon="6.95355">
        <ele>551</ele>
        <time>2026-05-09T14:11:34.479Z</time>
      </trkpt>
      <trkpt lat="47.94531" lon="6.95355">
        <ele>551</ele>
        <time>2026-05-09T14:11:35.480Z</time>
      </trkpt>
      <trkpt lat="47.9453" lon="6.95356">
        <ele>552</ele>
        <time>2026-05-09T14:11:36.479Z</time>
      </trkpt>
      <trkpt lat="47.94528" lon="6.95357">
        <ele>552</ele>
        <time>2026-05-09T14:11:37.480Z</time>
      </trkpt>
      <trkpt lat="47.94527" lon="6.95358">
        <ele>553</ele>
        <time>2026-05-09T14:11:38.479Z</time>
      </trkpt>
      <trkpt lat="47.94526" lon="6.95358">
        <ele>553</ele>
        <time>2026-05-09T14:11:39.480Z</time>
      </trkpt>
      <trkpt lat="47.94525" lon="6.95358">
        <ele>553</ele>
        <time>2026-05-09T14:11:40.479Z</time>
      </trkpt>
      <trkpt lat="47.94524" lon="6.95358">
        <ele>553</ele>
        <time>2026-05-09T14:11:41.480Z</time>
      </trkpt>
      <trkpt lat="47.94523" lon="6.95358">
        <ele>554</ele>
        <time>2026-05-09T14:11:42.479Z</time>
      </trkpt>
      <trkpt lat="47.94523" lon="6.95358">
        <ele>554</ele>
        <time>2026-05-09T14:11:43.480Z</time>
      </trkpt>
      <trkpt lat="47.94522" lon="6.95357">
        <ele>554</ele>
        <time>2026-05-09T14:11:44.479Z</time>
      </trkpt>
      <trkpt lat="47.94522" lon="6.95357">
        <ele>554</ele>
        <time>2026-05-09T14:11:45.480Z</time>
      </trkpt>
      <trkpt lat="47.9452" lon="6.95357">
        <ele>554</ele>
        <time>2026-05-09T14:11:46.479Z</time>
      </trkpt>
      <trkpt lat="47.94519" lon="6.95357">
        <ele>554</ele>
        <time>2026-05-09T14:11:47.480Z</time>
      </trkpt>
      <trkpt lat="47.94517" lon="6.95357">
        <ele>554</ele>
        <time>2026-05-09T14:11:48.480Z</time>
      </trkpt>
      <trkpt lat="47.94516" lon="6.95358">
        <ele>554</ele>
        <time>2026-05-09T14:11:49.480Z</time>
      </trkpt>
      <trkpt lat="47.94514" lon="6.95359">
        <ele>553</ele>
        <time>2026-05-09T14:11:50.480Z</time>
      </trkpt>
      <trkpt lat="47.94512" lon="6.9536">
        <ele>553</ele>
        <time>2026-05-09T14:11:51.479Z</time>
      </trkpt>
      <trkpt lat="47.94511" lon="6.95361">
        <ele>552</ele>
        <time>2026-05-09T14:11:52.480Z</time>
      </trkpt>
      <trkpt lat="47.94509" lon="6.95362">
        <ele>552</ele>
        <time>2026-05-09T14:11:53.479Z</time>
      </trkpt>
      <trkpt lat="47.94508" lon="6.95363">
        <ele>552</ele>
        <time>2026-05-09T14:11:54.479Z</time>
      </trkpt>
      <trkpt lat="47.94506" lon="6.95365">
        <ele>551</ele>
        <time>2026-05-09T14:11:55.479Z</time>
      </trkpt>
      <trkpt lat="47.94504" lon="6.95366">
        <ele>551</ele>
        <time>2026-05-09T14:11:56.480Z</time>
      </trkpt>
      <trkpt lat="47.94502" lon="6.95368">
        <ele>551</ele>
        <time>2026-05-09T14:11:57.479Z</time>
      </trkpt>
      <trkpt lat="47.945" lon="6.95369">
        <ele>551</ele>
        <time>2026-05-09T14:11:58.480Z</time>
      </trkpt>
      <trkpt lat="47.94498" lon="6.95371">
        <ele>550</ele>
        <time>2026-05-09T14:11:59.479Z</time>
      </trkpt>
      <trkpt lat="47.94497" lon="6.95371">
        <ele>550</ele>
        <time>2026-05-09T14:12:00.480Z</time>
      </trkpt>
      <trkpt lat="47.94496" lon="6.95372">
        <ele>550</ele>
        <time>2026-05-09T14:12:01.479Z</time>
      </trkpt>
      <trkpt lat="47.94495" lon="6.95374">
        <ele>550</ele>
        <time>2026-05-09T14:12:02.479Z</time>
      </trkpt>
      <trkpt lat="47.94494" lon="6.95375">
        <ele>551</ele>
        <time>2026-05-09T14:12:03.479Z</time>
      </trkpt>
      <trkpt lat="47.94492" lon="6.95377">
        <ele>551</ele>
        <time>2026-05-09T14:12:04.480Z</time>
      </trkpt>
      <trkpt lat="47.9449" lon="6.95378">
        <ele>551</ele>
        <time>2026-05-09T14:12:05.480Z</time>
      </trkpt>
      <trkpt lat="47.94488" lon="6.95378">
        <ele>551</ele>
        <time>2026-05-09T14:12:06.480Z</time>
      </trkpt>
      <trkpt lat="47.94486" lon="6.9538">
        <ele>550</ele>
        <time>2026-05-09T14:12:07.480Z</time>
      </trkpt>
      <trkpt lat="47.94485" lon="6.9538">
        <ele>550</ele>
        <time>2026-05-09T14:12:08.479Z</time>
      </trkpt>
      <trkpt lat="47.94483" lon="6.95381">
        <ele>549</ele>
        <time>2026-05-09T14:12:09.480Z</time>
      </trkpt>
      <trkpt lat="47.94482" lon="6.95383">
        <ele>549</ele>
        <time>2026-05-09T14:12:10.479Z</time>
      </trkpt>
      <trkpt lat="47.94481" lon="6.95382">
        <ele>549</ele>
        <time>2026-05-09T14:12:11.480Z</time>
      </trkpt>
      <trkpt lat="47.9448" lon="6.95381">
        <ele>549</ele>
        <time>2026-05-09T14:12:12.479Z</time>
      </trkpt>
      <trkpt lat="47.94478" lon="6.95382">
        <ele>548</ele>
        <time>2026-05-09T14:12:13.480Z</time>
      </trkpt>
      <trkpt lat="47.94477" lon="6.95382">
        <ele>548</ele>
        <time>2026-05-09T14:12:14.479Z</time>
      </trkpt>
      <trkpt lat="47.94476" lon="6.95383">
        <ele>548</ele>
        <time>2026-05-09T14:12:15.480Z</time>
      </trkpt>
      <trkpt lat="47.94474" lon="6.95382">
        <ele>548</ele>
        <time>2026-05-09T14:12:16.479Z</time>
      </trkpt>
      <trkpt lat="47.94473" lon="6.95383">
        <ele>548</ele>
        <time>2026-05-09T14:12:17.480Z</time>
      </trkpt>
      <trkpt lat="47.94471" lon="6.95384">
        <ele>548</ele>
        <time>2026-05-09T14:12:18.479Z</time>
      </trkpt>
      <trkpt lat="47.9447" lon="6.95385">
        <ele>547</ele>
        <time>2026-05-09T14:12:19.480Z</time>
      </trkpt>
      <trkpt lat="47.94468" lon="6.95386">
        <ele>547</ele>
        <time>2026-05-09T14:12:20.479Z</time>
      </trkpt>
      <trkpt lat="47.94467" lon="6.95386">
        <ele>547</ele>
        <time>2026-05-09T14:12:21.480Z</time>
      </trkpt>
      <trkpt lat="47.94466" lon="6.95386">
        <ele>546</ele>
        <time>2026-05-09T14:12:22.479Z</time>
      </trkpt>
      <trkpt lat="47.94465" lon="6.95386">
        <ele>546</ele>
        <time>2026-05-09T14:12:23.480Z</time>
      </trkpt>
      <trkpt lat="47.94463" lon="6.95387">
        <ele>545</ele>
        <time>2026-05-09T14:12:24.479Z</time>
      </trkpt>
      <trkpt lat="47.94462" lon="6.95387">
        <ele>545</ele>
        <time>2026-05-09T14:12:25.480Z</time>
      </trkpt>
      <trkpt lat="47.94462" lon="6.95387">
        <ele>545</ele>
        <time>2026-05-09T14:12:26.480Z</time>
      </trkpt>
      <trkpt lat="47.94461" lon="6.95387">
        <ele>544</ele>
        <time>2026-05-09T14:12:27.479Z</time>
      </trkpt>
      <trkpt lat="47.9446" lon="6.95387">
        <ele>544</ele>
        <time>2026-05-09T14:12:28.479Z</time>
      </trkpt>
      <trkpt lat="47.94459" lon="6.95387">
        <ele>544</ele>
        <time>2026-05-09T14:12:29.480Z</time>
      </trkpt>
      <trkpt lat="47.94457" lon="6.95388">
        <ele>543</ele>
        <time>2026-05-09T14:12:30.480Z</time>
      </trkpt>
      <trkpt lat="47.94457" lon="6.95388">
        <ele>543</ele>
        <time>2026-05-09T14:12:31.479Z</time>
      </trkpt>
      <trkpt lat="47.94456" lon="6.95387">
        <ele>542</ele>
        <time>2026-05-09T14:12:32.479Z</time>
      </trkpt>
      <trkpt lat="47.94456" lon="6.95387">
        <ele>542</ele>
        <time>2026-05-09T14:12:33.479Z</time>
      </trkpt>
      <trkpt lat="47.94456" lon="6.95387">
        <ele>542</ele>
        <time>2026-05-09T14:12:34.480Z</time>
      </trkpt>
      <trkpt lat="47.94455" lon="6.95387">
        <ele>535</ele>
        <time>2026-05-09T14:12:50.061Z</time>
      </trkpt>
      <trkpt lat="47.94455" lon="6.95387">
        <ele>535</ele>
        <time>2026-05-09T14:12:51.060Z</time>
      </trkpt>
      <trkpt lat="47.94454" lon="6.95385">
        <ele>535</ele>
        <time>2026-05-09T14:12:52.061Z</time>
      </trkpt>
      <trkpt lat="47.94454" lon="6.95385">
        <ele>535</ele>
        <time>2026-05-09T14:12:53.060Z</time>
      </trkpt>
      <trkpt lat="47.94454" lon="6.95385">
        <ele>535</ele>
        <time>2026-05-09T14:12:54.061Z</time>
      </trkpt>
      <trkpt lat="47.94454" lon="6.95385">
        <ele>535</ele>
        <time>2026-05-09T14:12:55.060Z</time>
      </trkpt>
      <trkpt lat="47.94454" lon="6.95387">
        <ele>537</ele>
        <time>2026-05-09T14:13:02.521Z</time>
      </trkpt>
      <trkpt lat="47.94454" lon="6.95386">
        <ele>537</ele>
        <time>2026-05-09T14:13:03.520Z</time>
      </trkpt>
      <trkpt lat="47.94454" lon="6.95386">
        <ele>537</ele>
        <time>2026-05-09T14:13:04.520Z</time>
      </trkpt>
      <trkpt lat="47.94454" lon="6.95386">
        <ele>538</ele>
        <time>2026-05-09T14:13:05.520Z</time>
      </trkpt>
      <trkpt lat="47.94454" lon="6.95385">
        <ele>538</ele>
        <time>2026-05-09T14:13:06.520Z</time>
      </trkpt>
      <trkpt lat="47.94454" lon="6.95385">
        <ele>538</ele>
        <time>2026-05-09T14:13:07.520Z</time>
      </trkpt>
      <trkpt lat="47.94454" lon="6.95385">
        <ele>538</ele>
        <time>2026-05-09T14:13:08.521Z</time>
      </trkpt>
      <trkpt lat="47.94454" lon="6.95386">
        <ele>538</ele>
        <time>2026-05-09T14:13:09.520Z</time>
      </trkpt>
      <trkpt lat="47.94454" lon="6.95386">
        <ele>538</ele>
        <time>2026-05-09T14:13:10.520Z</time>
      </trkpt>
      <trkpt lat="47.94453" lon="6.95387">
        <ele>538</ele>
        <time>2026-05-09T14:13:11.521Z</time>
      </trkpt>
      <trkpt lat="47.94452" lon="6.95389">
        <ele>538</ele>
        <time>2026-05-09T14:13:12.521Z</time>
      </trkpt>
      <trkpt lat="47.9445" lon="6.9539">
        <ele>539</ele>
        <time>2026-05-09T14:13:13.521Z</time>
      </trkpt>
      <trkpt lat="47.94448" lon="6.9539">
        <ele>539</ele>
        <time>2026-05-09T14:13:14.520Z</time>
      </trkpt>
      <trkpt lat="47.94447" lon="6.95391">
        <ele>539</ele>
        <time>2026-05-09T14:13:15.521Z</time>
      </trkpt>
      <trkpt lat="47.94445" lon="6.95391">
        <ele>539</ele>
        <time>2026-05-09T14:13:16.521Z</time>
      </trkpt>
      <trkpt lat="47.94444" lon="6.95391">
        <ele>539</ele>
        <time>2026-05-09T14:13:17.521Z</time>
      </trkpt>
      <trkpt lat="47.94443" lon="6.95391">
        <ele>539</ele>
        <time>2026-05-09T14:13:18.520Z</time>
      </trkpt>
      <trkpt lat="47.94442" lon="6.95392">
        <ele>539</ele>
        <time>2026-05-09T14:13:19.520Z</time>
      </trkpt>
      <trkpt lat="47.9444" lon="6.95392">
        <ele>539</ele>
        <time>2026-05-09T14:13:20.521Z</time>
      </trkpt>
      <trkpt lat="47.94439" lon="6.95392">
        <ele>539</ele>
        <time>2026-05-09T14:13:21.520Z</time>
      </trkpt>
      <trkpt lat="47.94438" lon="6.95392">
        <ele>540</ele>
        <time>2026-05-09T14:13:22.520Z</time>
      </trkpt>
      <trkpt lat="47.94437" lon="6.95391">
        <ele>540</ele>
        <time>2026-05-09T14:13:23.521Z</time>
      </trkpt>
      <trkpt lat="47.94437" lon="6.95391">
        <ele>540</ele>
        <time>2026-05-09T14:13:24.521Z</time>
      </trkpt>
      <trkpt lat="47.94437" lon="6.95391">
        <ele>540</ele>
        <time>2026-05-09T14:13:25.521Z</time>
      </trkpt>
      <trkpt lat="47.94436" lon="6.9539">
        <ele>540</ele>
        <time>2026-05-09T14:13:26.520Z</time>
      </trkpt>
      <trkpt lat="47.94436" lon="6.9539">
        <ele>541</ele>
        <time>2026-05-09T14:13:27.521Z</time>
      </trkpt>
      <trkpt lat="47.94435" lon="6.95391">
        <ele>541</ele>
        <time>2026-05-09T14:13:28.520Z</time>
      </trkpt>
      <trkpt lat="47.94435" lon="6.95392">
        <ele>541</ele>
        <time>2026-05-09T14:13:29.520Z</time>
      </trkpt>
      <trkpt lat="47.94434" lon="6.95392">
        <ele>542</ele>
        <time>2026-05-09T14:13:30.521Z</time>
      </trkpt>
      <trkpt lat="47.94432" lon="6.95392">
        <ele>542</ele>
        <time>2026-05-09T14:13:31.520Z</time>
      </trkpt>
      <trkpt lat="47.9443" lon="6.95392">
        <ele>542</ele>
        <time>2026-05-09T14:13:32.520Z</time>
      </trkpt>
      <trkpt lat="47.94429" lon="6.95392">
        <ele>542</ele>
        <time>2026-05-09T14:13:33.521Z</time>
      </trkpt>
      <trkpt lat="47.94427" lon="6.95392">
        <ele>542</ele>
        <time>2026-05-09T14:13:34.521Z</time>
      </trkpt>
      <trkpt lat="47.94425" lon="6.95392">
        <ele>541</ele>
        <time>2026-05-09T14:13:35.521Z</time>
      </trkpt>
      <trkpt lat="47.94422" lon="6.95393">
        <ele>541</ele>
        <time>2026-05-09T14:13:36.520Z</time>
      </trkpt>
      <trkpt lat="47.9442" lon="6.95394">
        <ele>541</ele>
        <time>2026-05-09T14:13:37.520Z</time>
      </trkpt>
      <trkpt lat="47.94417" lon="6.95394">
        <ele>541</ele>
        <time>2026-05-09T14:13:38.520Z</time>
      </trkpt>
      <trkpt lat="47.94415" lon="6.95394">
        <ele>541</ele>
        <time>2026-05-09T14:13:39.521Z</time>
      </trkpt>
      <trkpt lat="47.94413" lon="6.95394">
        <ele>541</ele>
        <time>2026-05-09T14:13:40.520Z</time>
      </trkpt>
      <trkpt lat="47.94411" lon="6.95393">
        <ele>541</ele>
        <time>2026-05-09T14:13:41.520Z</time>
      </trkpt>
      <trkpt lat="47.94409" lon="6.95392">
        <ele>541</ele>
        <time>2026-05-09T14:13:42.521Z</time>
      </trkpt>
      <trkpt lat="47.94407" lon="6.95392">
        <ele>541</ele>
        <time>2026-05-09T14:13:43.520Z</time>
      </trkpt>
      <trkpt lat="47.94405" lon="6.95391">
        <ele>541</ele>
        <time>2026-05-09T14:13:44.521Z</time>
      </trkpt>
      <trkpt lat="47.94404" lon="6.95391">
        <ele>540</ele>
        <time>2026-05-09T14:13:45.520Z</time>
      </trkpt>
      <trkpt lat="47.94402" lon="6.95391">
        <ele>540</ele>
        <time>2026-05-09T14:13:46.520Z</time>
      </trkpt>
      <trkpt lat="47.94401" lon="6.9539">
        <ele>540</ele>
        <time>2026-05-09T14:13:47.520Z</time>
      </trkpt>
      <trkpt lat="47.944" lon="6.95389">
        <ele>539</ele>
        <time>2026-05-09T14:13:48.521Z</time>
      </trkpt>
      <trkpt lat="47.94398" lon="6.95388">
        <ele>539</ele>
        <time>2026-05-09T14:13:49.521Z</time>
      </trkpt>
      <trkpt lat="47.94397" lon="6.95387">
        <ele>539</ele>
        <time>2026-05-09T14:13:50.520Z</time>
      </trkpt>
      <trkpt lat="47.94396" lon="6.95386">
        <ele>538</ele>
        <time>2026-05-09T14:13:51.521Z</time>
      </trkpt>
      <trkpt lat="47.94395" lon="6.95384">
        <ele>538</ele>
        <time>2026-05-09T14:13:52.521Z</time>
      </trkpt>
      <trkpt lat="47.94394" lon="6.95383">
        <ele>537</ele>
        <time>2026-05-09T14:13:53.520Z</time>
      </trkpt>
      <trkpt lat="47.94393" lon="6.95382">
        <ele>537</ele>
        <time>2026-05-09T14:13:54.520Z</time>
      </trkpt>
      <trkpt lat="47.94392" lon="6.95381">
        <ele>536</ele>
        <time>2026-05-09T14:13:55.521Z</time>
      </trkpt>
      <trkpt lat="47.94391" lon="6.9538">
        <ele>536</ele>
        <time>2026-05-09T14:13:56.520Z</time>
      </trkpt>
      <trkpt lat="47.9439" lon="6.95379">
        <ele>536</ele>
        <time>2026-05-09T14:13:57.521Z</time>
      </trkpt>
      <trkpt lat="47.94388" lon="6.95377">
        <ele>536</ele>
        <time>2026-05-09T14:13:58.521Z</time>
      </trkpt>
      <trkpt lat="47.94387" lon="6.95375">
        <ele>536</ele>
        <time>2026-05-09T14:13:59.521Z</time>
      </trkpt>
      <trkpt lat="47.94386" lon="6.95373">
        <ele>537</ele>
        <time>2026-05-09T14:14:00.520Z</time>
      </trkpt>
      <trkpt lat="47.94384" lon="6.95372">
        <ele>537</ele>
        <time>2026-05-09T14:14:01.520Z</time>
      </trkpt>
      <trkpt lat="47.94383" lon="6.9537">
        <ele>538</ele>
        <time>2026-05-09T14:14:02.521Z</time>
      </trkpt>
      <trkpt lat="47.94381" lon="6.95368">
        <ele>538</ele>
        <time>2026-05-09T14:14:03.520Z</time>
      </trkpt>
      <trkpt lat="47.9438" lon="6.95366">
        <ele>538</ele>
        <time>2026-05-09T14:14:04.520Z</time>
      </trkpt>
      <trkpt lat="47.94379" lon="6.95366">
        <ele>539</ele>
        <time>2026-05-09T14:14:05.521Z</time>
      </trkpt>
      <trkpt lat="47.94378" lon="6.95365">
        <ele>539</ele>
        <time>2026-05-09T14:14:06.520Z</time>
      </trkpt>
      <trkpt lat="47.94376" lon="6.95365">
        <ele>539</ele>
        <time>2026-05-09T14:14:07.520Z</time>
      </trkpt>
      <trkpt lat="47.94375" lon="6.95363">
        <ele>538</ele>
        <time>2026-05-09T14:14:08.521Z</time>
      </trkpt>
      <trkpt lat="47.94374" lon="6.95363">
        <ele>538</ele>
        <time>2026-05-09T14:14:09.521Z</time>
      </trkpt>
      <trkpt lat="47.94373" lon="6.95361">
        <ele>538</ele>
        <time>2026-05-09T14:14:10.520Z</time>
      </trkpt>
      <trkpt lat="47.94372" lon="6.95361">
        <ele>538</ele>
        <time>2026-05-09T14:14:11.521Z</time>
      </trkpt>
      <trkpt lat="47.94371" lon="6.9536">
        <ele>538</ele>
        <time>2026-05-09T14:14:12.520Z</time>
      </trkpt>
      <trkpt lat="47.9437" lon="6.95359">
        <ele>538</ele>
        <time>2026-05-09T14:14:13.521Z</time>
      </trkpt>
      <trkpt lat="47.94369" lon="6.95358">
        <ele>538</ele>
        <time>2026-05-09T14:14:14.520Z</time>
      </trkpt>
      <trkpt lat="47.94368" lon="6.95357">
        <ele>538</ele>
        <time>2026-05-09T14:14:15.520Z</time>
      </trkpt>
      <trkpt lat="47.94367" lon="6.95355">
        <ele>538</ele>
        <time>2026-05-09T14:14:16.521Z</time>
      </trkpt>
      <trkpt lat="47.94366" lon="6.95353">
        <ele>538</ele>
        <time>2026-05-09T14:14:17.521Z</time>
      </trkpt>
      <trkpt lat="47.94365" lon="6.95352">
        <ele>538</ele>
        <time>2026-05-09T14:14:18.521Z</time>
      </trkpt>
      <trkpt lat="47.94363" lon="6.95351">
        <ele>538</ele>
        <time>2026-05-09T14:14:19.520Z</time>
      </trkpt>
      <trkpt lat="47.94361" lon="6.9535">
        <ele>538</ele>
        <time>2026-05-09T14:14:20.521Z</time>
      </trkpt>
      <trkpt lat="47.94359" lon="6.95349">
        <ele>539</ele>
        <time>2026-05-09T14:14:21.520Z</time>
      </trkpt>
      <trkpt lat="47.94358" lon="6.95346">
        <ele>539</ele>
        <time>2026-05-09T14:14:22.520Z</time>
      </trkpt>
      <trkpt lat="47.94356" lon="6.95344">
        <ele>539</ele>
        <time>2026-05-09T14:14:23.520Z</time>
      </trkpt>
      <trkpt lat="47.94354" lon="6.95341">
        <ele>539</ele>
        <time>2026-05-09T14:14:24.521Z</time>
      </trkpt>
      <trkpt lat="47.94353" lon="6.95339">
        <ele>539</ele>
        <time>2026-05-09T14:14:25.521Z</time>
      </trkpt>
      <trkpt lat="47.94353" lon="6.95337">
        <ele>539</ele>
        <time>2026-05-09T14:14:26.520Z</time>
      </trkpt>
      <trkpt lat="47.94352" lon="6.95335">
        <ele>539</ele>
        <time>2026-05-09T14:14:27.521Z</time>
      </trkpt>
      <trkpt lat="47.94351" lon="6.95333">
        <ele>539</ele>
        <time>2026-05-09T14:14:28.521Z</time>
      </trkpt>
      <trkpt lat="47.9435" lon="6.95331">
        <ele>539</ele>
        <time>2026-05-09T14:14:29.520Z</time>
      </trkpt>
      <trkpt lat="47.94348" lon="6.95329">
        <ele>539</ele>
        <time>2026-05-09T14:14:30.521Z</time>
      </trkpt>
      <trkpt lat="47.94347" lon="6.95327">
        <ele>539</ele>
        <time>2026-05-09T14:14:31.520Z</time>
      </trkpt>
      <trkpt lat="47.94345" lon="6.95325">
        <ele>539</ele>
        <time>2026-05-09T14:14:32.520Z</time>
      </trkpt>
      <trkpt lat="47.94344" lon="6.95323">
        <ele>539</ele>
        <time>2026-05-09T14:14:33.521Z</time>
      </trkpt>
      <trkpt lat="47.94341" lon="6.9532">
        <ele>539</ele>
        <time>2026-05-09T14:14:34.521Z</time>
      </trkpt>
      <trkpt lat="47.94339" lon="6.95316">
        <ele>539</ele>
        <time>2026-05-09T14:14:35.520Z</time>
      </trkpt>
      <trkpt lat="47.94336" lon="6.95312">
        <ele>538</ele>
        <time>2026-05-09T14:14:36.521Z</time>
      </trkpt>
      <trkpt lat="47.94334" lon="6.95309">
        <ele>538</ele>
        <time>2026-05-09T14:14:37.521Z</time>
      </trkpt>
      <trkpt lat="47.94331" lon="6.95307">
        <ele>538</ele>
        <time>2026-05-09T14:14:38.521Z</time>
      </trkpt>
      <trkpt lat="47.94328" lon="6.95305">
        <ele>538</ele>
        <time>2026-05-09T14:14:39.521Z</time>
      </trkpt>
      <trkpt lat="47.94327" lon="6.95303">
        <ele>538</ele>
        <time>2026-05-09T14:14:40.520Z</time>
      </trkpt>
      <trkpt lat="47.94325" lon="6.953">
        <ele>538</ele>
        <time>2026-05-09T14:14:41.520Z</time>
      </trkpt>
      <trkpt lat="47.94325" lon="6.95299">
        <ele>538</ele>
        <time>2026-05-09T14:14:42.521Z</time>
      </trkpt>
      <trkpt lat="47.94325" lon="6.95297">
        <ele>538</ele>
        <time>2026-05-09T14:14:43.521Z</time>
      </trkpt>
      <trkpt lat="47.94324" lon="6.95296">
        <ele>538</ele>
        <time>2026-05-09T14:14:44.520Z</time>
      </trkpt>
      <trkpt lat="47.94325" lon="6.95293">
        <ele>539</ele>
        <time>2026-05-09T14:14:45.521Z</time>
      </trkpt>
      <trkpt lat="47.94324" lon="6.9529">
        <ele>539</ele>
        <time>2026-05-09T14:14:46.521Z</time>
      </trkpt>
      <trkpt lat="47.94323" lon="6.95288">
        <ele>539</ele>
        <time>2026-05-09T14:14:47.520Z</time>
      </trkpt>
      <trkpt lat="47.94322" lon="6.95286">
        <ele>539</ele>
        <time>2026-05-09T14:14:48.520Z</time>
      </trkpt>
      <trkpt lat="47.94321" lon="6.95285">
        <ele>539</ele>
        <time>2026-05-09T14:14:49.520Z</time>
      </trkpt>
      <trkpt lat="47.9432" lon="6.95283">
        <ele>539</ele>
        <time>2026-05-09T14:14:50.520Z</time>
      </trkpt>
      <trkpt lat="47.9432" lon="6.95279">
        <ele>540</ele>
        <time>2026-05-09T14:14:51.520Z</time>
      </trkpt>
      <trkpt lat="47.94319" lon="6.95278">
        <ele>540</ele>
        <time>2026-05-09T14:14:52.521Z</time>
      </trkpt>
      <trkpt lat="47.94318" lon="6.95276">
        <ele>540</ele>
        <time>2026-05-09T14:14:53.521Z</time>
      </trkpt>
      <trkpt lat="47.94317" lon="6.95274">
        <ele>540</ele>
        <time>2026-05-09T14:14:54.521Z</time>
      </trkpt>
      <trkpt lat="47.94316" lon="6.95273">
        <ele>540</ele>
        <time>2026-05-09T14:14:55.520Z</time>
      </trkpt>
      <trkpt lat="47.94314" lon="6.95272">
        <ele>540</ele>
        <time>2026-05-09T14:14:56.521Z</time>
      </trkpt>
      <trkpt lat="47.94313" lon="6.95271">
        <ele>541</ele>
        <time>2026-05-09T14:14:57.520Z</time>
      </trkpt>
      <trkpt lat="47.94311" lon="6.95273">
        <ele>541</ele>
        <time>2026-05-09T14:14:58.520Z</time>
      </trkpt>
      <trkpt lat="47.9431" lon="6.95273">
        <ele>541</ele>
        <time>2026-05-09T14:14:59.521Z</time>
      </trkpt>
      <trkpt lat="47.94308" lon="6.95274">
        <ele>541</ele>
        <time>2026-05-09T14:15:00.520Z</time>
      </trkpt>
      <trkpt lat="47.94308" lon="6.95271">
        <ele>542</ele>
        <time>2026-05-09T14:15:01.520Z</time>
      </trkpt>
      <trkpt lat="47.94308" lon="6.95268">
        <ele>542</ele>
        <time>2026-05-09T14:15:02.520Z</time>
      </trkpt>
      <trkpt lat="47.94307" lon="6.95267">
        <ele>542</ele>
        <time>2026-05-09T14:15:03.520Z</time>
      </trkpt>
      <trkpt lat="47.94305" lon="6.95267">
        <ele>542</ele>
        <time>2026-05-09T14:15:04.521Z</time>
      </trkpt>
      <trkpt lat="47.94303" lon="6.95268">
        <ele>543</ele>
        <time>2026-05-09T14:15:05.520Z</time>
      </trkpt>
      <trkpt lat="47.94301" lon="6.95268">
        <ele>543</ele>
        <time>2026-05-09T14:15:06.520Z</time>
      </trkpt>
      <trkpt lat="47.94302" lon="6.95266">
        <ele>543</ele>
        <time>2026-05-09T14:15:07.520Z</time>
      </trkpt>
      <trkpt lat="47.94304" lon="6.95264">
        <ele>543</ele>
        <time>2026-05-09T14:15:08.521Z</time>
      </trkpt>
      <trkpt lat="47.94303" lon="6.95258">
        <ele>543</ele>
        <time>2026-05-09T14:15:09.521Z</time>
      </trkpt>
      <trkpt lat="47.94302" lon="6.95253">
        <ele>544</ele>
        <time>2026-05-09T14:15:10.521Z</time>
      </trkpt>
      <trkpt lat="47.94302" lon="6.95246">
        <ele>544</ele>
        <time>2026-05-09T14:15:11.521Z</time>
      </trkpt>
      <trkpt lat="47.9431" lon="6.95242">
        <ele>544</ele>
        <time>2026-05-09T14:15:12.520Z</time>
      </trkpt>
      <trkpt lat="47.94312" lon="6.9524">
        <ele>543</ele>
        <time>2026-05-09T14:15:13.520Z</time>
      </trkpt>
      <trkpt lat="47.94315" lon="6.95239">
        <ele>543</ele>
        <time>2026-05-09T14:15:14.521Z</time>
      </trkpt>
      <trkpt lat="47.94316" lon="6.95237">
        <ele>543</ele>
        <time>2026-05-09T14:15:15.521Z</time>
      </trkpt>
      <trkpt lat="47.94316" lon="6.95235">
        <ele>543</ele>
        <time>2026-05-09T14:15:16.520Z</time>
      </trkpt>
      <trkpt lat="47.94316" lon="6.95234">
        <ele>542</ele>
        <time>2026-05-09T14:15:17.521Z</time>
      </trkpt>
      <trkpt lat="47.94316" lon="6.95233">
        <ele>542</ele>
        <time>2026-05-09T14:15:18.520Z</time>
      </trkpt>
      <trkpt lat="47.94316" lon="6.95232">
        <ele>542</ele>
        <time>2026-05-09T14:15:19.520Z</time>
      </trkpt>
      <trkpt lat="47.94317" lon="6.95231">
        <ele>541</ele>
        <time>2026-05-09T14:15:20.520Z</time>
      </trkpt>
      <trkpt lat="47.94318" lon="6.9523">
        <ele>540</ele>
        <time>2026-05-09T14:15:21.520Z</time>
      </trkpt>
      <trkpt lat="47.94318" lon="6.95228">
        <ele>540</ele>
        <time>2026-05-09T14:15:22.520Z</time>
      </trkpt>
      <trkpt lat="47.94319" lon="6.95227">
        <ele>539</ele>
        <time>2026-05-09T14:15:23.520Z</time>
      </trkpt>
      <trkpt lat="47.94319" lon="6.95225">
        <ele>539</ele>
        <time>2026-05-09T14:15:24.521Z</time>
      </trkpt>
      <trkpt lat="47.9432" lon="6.95224">
        <ele>538</ele>
        <time>2026-05-09T14:15:25.520Z</time>
      </trkpt>
      <trkpt lat="47.9432" lon="6.95222">
        <ele>537</ele>
        <time>2026-05-09T14:15:26.521Z</time>
      </trkpt>
      <trkpt lat="47.94321" lon="6.9522">
        <ele>537</ele>
        <time>2026-05-09T14:15:27.521Z</time>
      </trkpt>
      <trkpt lat="47.94321" lon="6.95219">
        <ele>537</ele>
        <time>2026-05-09T14:15:28.521Z</time>
      </trkpt>
      <trkpt lat="47.94322" lon="6.95217">
        <ele>536</ele>
        <time>2026-05-09T14:15:29.520Z</time>
      </trkpt>
      <trkpt lat="47.94322" lon="6.95215">
        <ele>536</ele>
        <time>2026-05-09T14:15:30.520Z</time>
      </trkpt>
      <trkpt lat="47.94323" lon="6.95213">
        <ele>536</ele>
        <time>2026-05-09T14:15:31.521Z</time>
      </trkpt>
      <trkpt lat="47.94324" lon="6.95211">
        <ele>536</ele>
        <time>2026-05-09T14:15:32.520Z</time>
      </trkpt>
      <trkpt lat="47.94325" lon="6.95209">
        <ele>535</ele>
        <time>2026-05-09T14:15:33.520Z</time>
      </trkpt>
      <trkpt lat="47.94324" lon="6.95208">
        <ele>535</ele>
        <time>2026-05-09T14:15:34.521Z</time>
      </trkpt>
      <trkpt lat="47.94324" lon="6.95206">
        <ele>535</ele>
        <time>2026-05-09T14:15:35.520Z</time>
      </trkpt>
      <trkpt lat="47.94324" lon="6.95203">
        <ele>535</ele>
        <time>2026-05-09T14:15:36.520Z</time>
      </trkpt>
      <trkpt lat="47.94324" lon="6.952">
        <ele>535</ele>
        <time>2026-05-09T14:15:37.521Z</time>
      </trkpt>
      <trkpt lat="47.94324" lon="6.95197">
        <ele>535</ele>
        <time>2026-05-09T14:15:38.520Z</time>
      </trkpt>
      <trkpt lat="47.94324" lon="6.95195">
        <ele>534</ele>
        <time>2026-05-09T14:15:39.520Z</time>
      </trkpt>
      <trkpt lat="47.94325" lon="6.95192">
        <ele>534</ele>
        <time>2026-05-09T14:15:40.520Z</time>
      </trkpt>
      <trkpt lat="47.94325" lon="6.95191">
        <ele>534</ele>
        <time>2026-05-09T14:15:41.520Z</time>
      </trkpt>
      <trkpt lat="47.94326" lon="6.95188">
        <ele>533</ele>
        <time>2026-05-09T14:15:42.521Z</time>
      </trkpt>
      <trkpt lat="47.94327" lon="6.95186">
        <ele>533</ele>
        <time>2026-05-09T14:15:43.520Z</time>
      </trkpt>
      <trkpt lat="47.94328" lon="6.95183">
        <ele>532</ele>
        <time>2026-05-09T14:15:44.520Z</time>
      </trkpt>
      <trkpt lat="47.94329" lon="6.9518">
        <ele>532</ele>
        <time>2026-05-09T14:15:45.521Z</time>
      </trkpt>
      <trkpt lat="47.94329" lon="6.95177">
        <ele>531</ele>
        <time>2026-05-09T14:15:46.521Z</time>
      </trkpt>
      <trkpt lat="47.94329" lon="6.95175">
        <ele>531</ele>
        <time>2026-05-09T14:15:47.520Z</time>
      </trkpt>
      <trkpt lat="47.9433" lon="6.95173">
        <ele>530</ele>
        <time>2026-05-09T14:15:48.521Z</time>
      </trkpt>
      <trkpt lat="47.94329" lon="6.9517">
        <ele>530</ele>
        <time>2026-05-09T14:15:49.521Z</time>
      </trkpt>
      <trkpt lat="47.9433" lon="6.95168">
        <ele>529</ele>
        <time>2026-05-09T14:15:50.521Z</time>
      </trkpt>
      <trkpt lat="47.9433" lon="6.95166">
        <ele>529</ele>
        <time>2026-05-09T14:15:51.521Z</time>
      </trkpt>
      <trkpt lat="47.9433" lon="6.95163">
        <ele>528</ele>
        <time>2026-05-09T14:15:52.521Z</time>
      </trkpt>
      <trkpt lat="47.94331" lon="6.95161">
        <ele>528</ele>
        <time>2026-05-09T14:15:53.521Z</time>
      </trkpt>
      <trkpt lat="47.94332" lon="6.95158">
        <ele>527</ele>
        <time>2026-05-09T14:15:54.521Z</time>
      </trkpt>
      <trkpt lat="47.94332" lon="6.95156">
        <ele>527</ele>
        <time>2026-05-09T14:15:55.520Z</time>
      </trkpt>
      <trkpt lat="47.94333" lon="6.95154">
        <ele>526</ele>
        <time>2026-05-09T14:15:56.521Z</time>
      </trkpt>
      <trkpt lat="47.94334" lon="6.95152">
        <ele>526</ele>
        <time>2026-05-09T14:15:57.520Z</time>
      </trkpt>
      <trkpt lat="47.94335" lon="6.95149">
        <ele>526</ele>
        <time>2026-05-09T14:15:58.520Z</time>
      </trkpt>
      <trkpt lat="47.94336" lon="6.95147">
        <ele>525</ele>
        <time>2026-05-09T14:15:59.521Z</time>
      </trkpt>
      <trkpt lat="47.94336" lon="6.95145">
        <ele>525</ele>
        <time>2026-05-09T14:16:00.521Z</time>
      </trkpt>
      <trkpt lat="47.94337" lon="6.95144">
        <ele>525</ele>
        <time>2026-05-09T14:16:01.520Z</time>
      </trkpt>
      <trkpt lat="47.94337" lon="6.95142">
        <ele>525</ele>
        <time>2026-05-09T14:16:02.521Z</time>
      </trkpt>
      <trkpt lat="47.94337" lon="6.9514">
        <ele>525</ele>
        <time>2026-05-09T14:16:03.521Z</time>
      </trkpt>
      <trkpt lat="47.94338" lon="6.95137">
        <ele>525</ele>
        <time>2026-05-09T14:16:04.520Z</time>
      </trkpt>
      <trkpt lat="47.94339" lon="6.95135">
        <ele>526</ele>
        <time>2026-05-09T14:16:05.521Z</time>
      </trkpt>
      <trkpt lat="47.94339" lon="6.95133">
        <ele>526</ele>
        <time>2026-05-09T14:16:06.521Z</time>
      </trkpt>
      <trkpt lat="47.9434" lon="6.95131">
        <ele>526</ele>
        <time>2026-05-09T14:16:07.520Z</time>
      </trkpt>
      <trkpt lat="47.9434" lon="6.95129">
        <ele>526</ele>
        <time>2026-05-09T14:16:08.521Z</time>
      </trkpt>
      <trkpt lat="47.9434" lon="6.95127">
        <ele>526</ele>
        <time>2026-05-09T14:16:09.520Z</time>
      </trkpt>
      <trkpt lat="47.9434" lon="6.95125">
        <ele>526</ele>
        <time>2026-05-09T14:16:10.520Z</time>
      </trkpt>
      <trkpt lat="47.9434" lon="6.95122">
        <ele>526</ele>
        <time>2026-05-09T14:16:11.520Z</time>
      </trkpt>
      <trkpt lat="47.94341" lon="6.9512">
        <ele>525</ele>
        <time>2026-05-09T14:16:12.520Z</time>
      </trkpt>
      <trkpt lat="47.94342" lon="6.95119">
        <ele>525</ele>
        <time>2026-05-09T14:16:13.521Z</time>
      </trkpt>
      <trkpt lat="47.94342" lon="6.95117">
        <ele>525</ele>
        <time>2026-05-09T14:16:14.520Z</time>
      </trkpt>
      <trkpt lat="47.94342" lon="6.95115">
        <ele>525</ele>
        <time>2026-05-09T14:16:15.520Z</time>
      </trkpt>
      <trkpt lat="47.94342" lon="6.95113">
        <ele>525</ele>
        <time>2026-05-09T14:16:16.520Z</time>
      </trkpt>
      <trkpt lat="47.94342" lon="6.95111">
        <ele>525</ele>
        <time>2026-05-09T14:16:17.520Z</time>
      </trkpt>
      <trkpt lat="47.94343" lon="6.95109">
        <ele>525</ele>
        <time>2026-05-09T14:16:18.520Z</time>
      </trkpt>
      <trkpt lat="47.94343" lon="6.95107">
        <ele>525</ele>
        <time>2026-05-09T14:16:19.520Z</time>
      </trkpt>
      <trkpt lat="47.94344" lon="6.95105">
        <ele>525</ele>
        <time>2026-05-09T14:16:20.521Z</time>
      </trkpt>
      <trkpt lat="47.94343" lon="6.95105">
        <ele>525</ele>
        <time>2026-05-09T14:16:21.520Z</time>
      </trkpt>
      <trkpt lat="47.94343" lon="6.95104">
        <ele>524</ele>
        <time>2026-05-09T14:16:22.520Z</time>
      </trkpt>
      <trkpt lat="47.94343" lon="6.95103">
        <ele>524</ele>
        <time>2026-05-09T14:16:23.521Z</time>
      </trkpt>
      <trkpt lat="47.94343" lon="6.95101">
        <ele>524</ele>
        <time>2026-05-09T14:16:24.520Z</time>
      </trkpt>
      <trkpt lat="47.94343" lon="6.95099">
        <ele>525</ele>
        <time>2026-05-09T14:16:25.520Z</time>
      </trkpt>
      <trkpt lat="47.94343" lon="6.95096">
        <ele>525</ele>
        <time>2026-05-09T14:16:26.520Z</time>
      </trkpt>
      <trkpt lat="47.94343" lon="6.95095">
        <ele>525</ele>
        <time>2026-05-09T14:16:27.520Z</time>
      </trkpt>
      <trkpt lat="47.94343" lon="6.95092">
        <ele>525</ele>
        <time>2026-05-09T14:16:28.521Z</time>
      </trkpt>
      <trkpt lat="47.94342" lon="6.95089">
        <ele>526</ele>
        <time>2026-05-09T14:16:29.521Z</time>
      </trkpt>
      <trkpt lat="47.94342" lon="6.95087">
        <ele>526</ele>
        <time>2026-05-09T14:16:30.521Z</time>
      </trkpt>
      <trkpt lat="47.94341" lon="6.95085">
        <ele>526</ele>
        <time>2026-05-09T14:16:31.520Z</time>
      </trkpt>
      <trkpt lat="47.94341" lon="6.95083">
        <ele>526</ele>
        <time>2026-05-09T14:16:32.520Z</time>
      </trkpt>
      <trkpt lat="47.94341" lon="6.9508">
        <ele>526</ele>
        <time>2026-05-09T14:16:33.521Z</time>
      </trkpt>
      <trkpt lat="47.94341" lon="6.95078">
        <ele>526</ele>
        <time>2026-05-09T14:16:34.520Z</time>
      </trkpt>
      <trkpt lat="47.94341" lon="6.95076">
        <ele>526</ele>
        <time>2026-05-09T14:16:35.520Z</time>
      </trkpt>
      <trkpt lat="47.94342" lon="6.95075">
        <ele>526</ele>
        <time>2026-05-09T14:16:36.521Z</time>
      </trkpt>
      <trkpt lat="47.94342" lon="6.95073">
        <ele>526</ele>
        <time>2026-05-09T14:16:37.521Z</time>
      </trkpt>
      <trkpt lat="47.94342" lon="6.95071">
        <ele>526</ele>
        <time>2026-05-09T14:16:38.521Z</time>
      </trkpt>
      <trkpt lat="47.94341" lon="6.95068">
        <ele>526</ele>
        <time>2026-05-09T14:16:39.520Z</time>
      </trkpt>
      <trkpt lat="47.94341" lon="6.95066">
        <ele>526</ele>
        <time>2026-05-09T14:16:40.520Z</time>
      </trkpt>
      <trkpt lat="47.9434" lon="6.95064">
        <ele>526</ele>
        <time>2026-05-09T14:16:41.520Z</time>
      </trkpt>
      <trkpt lat="47.9434" lon="6.95061">
        <ele>526</ele>
        <time>2026-05-09T14:16:42.521Z</time>
      </trkpt>
      <trkpt lat="47.9434" lon="6.95058">
        <ele>526</ele>
        <time>2026-05-09T14:16:43.521Z</time>
      </trkpt>
      <trkpt lat="47.9434" lon="6.95055">
        <ele>526</ele>
        <time>2026-05-09T14:16:44.520Z</time>
      </trkpt>
      <trkpt lat="47.94339" lon="6.95053">
        <ele>526</ele>
        <time>2026-05-09T14:16:45.521Z</time>
      </trkpt>
      <trkpt lat="47.94339" lon="6.95051">
        <ele>526</ele>
        <time>2026-05-09T14:16:46.521Z</time>
      </trkpt>
      <trkpt lat="47.94339" lon="6.95049">
        <ele>526</ele>
        <time>2026-05-09T14:16:47.520Z</time>
      </trkpt>
      <trkpt lat="47.94339" lon="6.95048">
        <ele>525</ele>
        <time>2026-05-09T14:16:48.521Z</time>
      </trkpt>
      <trkpt lat="47.94338" lon="6.95046">
        <ele>525</ele>
        <time>2026-05-09T14:16:49.521Z</time>
      </trkpt>
      <trkpt lat="47.94338" lon="6.95044">
        <ele>525</ele>
        <time>2026-05-09T14:16:50.520Z</time>
      </trkpt>
      <trkpt lat="47.94337" lon="6.95042">
        <ele>525</ele>
        <time>2026-05-09T14:16:51.520Z</time>
      </trkpt>
      <trkpt lat="47.94337" lon="6.9504">
        <ele>525</ele>
        <time>2026-05-09T14:16:52.521Z</time>
      </trkpt>
      <trkpt lat="47.94336" lon="6.95038">
        <ele>525</ele>
        <time>2026-05-09T14:16:53.521Z</time>
      </trkpt>
      <trkpt lat="47.94336" lon="6.95036">
        <ele>525</ele>
        <time>2026-05-09T14:16:54.520Z</time>
      </trkpt>
      <trkpt lat="47.94335" lon="6.95033">
        <ele>525</ele>
        <time>2026-05-09T14:16:55.521Z</time>
      </trkpt>
      <trkpt lat="47.94335" lon="6.95031">
        <ele>525</ele>
        <time>2026-05-09T14:16:56.521Z</time>
      </trkpt>
      <trkpt lat="47.94334" lon="6.95029">
        <ele>525</ele>
        <time>2026-05-09T14:16:57.520Z</time>
      </trkpt>
      <trkpt lat="47.94334" lon="6.95028">
        <ele>525</ele>
        <time>2026-05-09T14:16:58.521Z</time>
      </trkpt>
      <trkpt lat="47.94333" lon="6.95026">
        <ele>526</ele>
        <time>2026-05-09T14:16:59.521Z</time>
      </trkpt>
      <trkpt lat="47.94332" lon="6.95023">
        <ele>526</ele>
        <time>2026-05-09T14:17:00.520Z</time>
      </trkpt>
      <trkpt lat="47.94332" lon="6.95021">
        <ele>527</ele>
        <time>2026-05-09T14:17:01.521Z</time>
      </trkpt>
      <trkpt lat="47.94332" lon="6.95019">
        <ele>527</ele>
        <time>2026-05-09T14:17:02.521Z</time>
      </trkpt>
      <trkpt lat="47.94331" lon="6.95017">
        <ele>527</ele>
        <time>2026-05-09T14:17:03.521Z</time>
      </trkpt>
      <trkpt lat="47.9433" lon="6.95015">
        <ele>527</ele>
        <time>2026-05-09T14:17:04.520Z</time>
      </trkpt>
      <trkpt lat="47.94329" lon="6.95013">
        <ele>528</ele>
        <time>2026-05-09T14:17:05.520Z</time>
      </trkpt>
      <trkpt lat="47.94328" lon="6.95011">
        <ele>528</ele>
        <time>2026-05-09T14:17:06.521Z</time>
      </trkpt>
      <trkpt lat="47.94327" lon="6.9501">
        <ele>528</ele>
        <time>2026-05-09T14:17:07.521Z</time>
      </trkpt>
      <trkpt lat="47.94326" lon="6.95008">
        <ele>529</ele>
        <time>2026-05-09T14:17:08.520Z</time>
      </trkpt>
      <trkpt lat="47.94325" lon="6.95006">
        <ele>529</ele>
        <time>2026-05-09T14:17:09.521Z</time>
      </trkpt>
      <trkpt lat="47.94324" lon="6.95005">
        <ele>529</ele>
        <time>2026-05-09T14:17:10.521Z</time>
      </trkpt>
      <trkpt lat="47.94324" lon="6.95004">
        <ele>530</ele>
        <time>2026-05-09T14:17:11.520Z</time>
      </trkpt>
      <trkpt lat="47.94322" lon="6.95004">
        <ele>530</ele>
        <time>2026-05-09T14:17:12.520Z</time>
      </trkpt>
      <trkpt lat="47.94321" lon="6.95002">
        <ele>530</ele>
        <time>2026-05-09T14:17:13.521Z</time>
      </trkpt>
      <trkpt lat="47.94319" lon="6.95">
        <ele>531</ele>
        <time>2026-05-09T14:17:14.520Z</time>
      </trkpt>
      <trkpt lat="47.94319" lon="6.94999">
        <ele>531</ele>
        <time>2026-05-09T14:17:15.520Z</time>
      </trkpt>
      <trkpt lat="47.94318" lon="6.94997">
        <ele>530</ele>
        <time>2026-05-09T14:17:16.521Z</time>
      </trkpt>
      <trkpt lat="47.94317" lon="6.94997">
        <ele>530</ele>
        <time>2026-05-09T14:17:17.521Z</time>
      </trkpt>
      <trkpt lat="47.94315" lon="6.94995">
        <ele>530</ele>
        <time>2026-05-09T14:17:18.520Z</time>
      </trkpt>
      <trkpt lat="47.94314" lon="6.94994">
        <ele>529</ele>
        <time>2026-05-09T14:17:19.520Z</time>
      </trkpt>
      <trkpt lat="47.94313" lon="6.94993">
        <ele>529</ele>
        <time>2026-05-09T14:17:20.520Z</time>
      </trkpt>
      <trkpt lat="47.94312" lon="6.94992">
        <ele>528</ele>
        <time>2026-05-09T14:17:21.520Z</time>
      </trkpt>
      <trkpt lat="47.94311" lon="6.9499">
        <ele>528</ele>
        <time>2026-05-09T14:17:22.521Z</time>
      </trkpt>
      <trkpt lat="47.94309" lon="6.94989">
        <ele>528</ele>
        <time>2026-05-09T14:17:23.521Z</time>
      </trkpt>
      <trkpt lat="47.94308" lon="6.94988">
        <ele>528</ele>
        <time>2026-05-09T14:17:24.520Z</time>
      </trkpt>
      <trkpt lat="47.94306" lon="6.94987">
        <ele>528</ele>
        <time>2026-05-09T14:17:25.521Z</time>
      </trkpt>
      <trkpt lat="47.94305" lon="6.94986">
        <ele>528</ele>
        <time>2026-05-09T14:17:26.521Z</time>
      </trkpt>
      <trkpt lat="47.94303" lon="6.94984">
        <ele>528</ele>
        <time>2026-05-09T14:17:27.520Z</time>
      </trkpt>
      <trkpt lat="47.94301" lon="6.94983">
        <ele>528</ele>
        <time>2026-05-09T14:17:28.520Z</time>
      </trkpt>
      <trkpt lat="47.943" lon="6.94982">
        <ele>528</ele>
        <time>2026-05-09T14:17:29.520Z</time>
      </trkpt>
      <trkpt lat="47.94299" lon="6.94981">
        <ele>528</ele>
        <time>2026-05-09T14:17:30.521Z</time>
      </trkpt>
      <trkpt lat="47.94298" lon="6.9498">
        <ele>528</ele>
        <time>2026-05-09T14:17:31.521Z</time>
      </trkpt>
      <trkpt lat="47.94297" lon="6.94979">
        <ele>528</ele>
        <time>2026-05-09T14:17:32.520Z</time>
      </trkpt>
      <trkpt lat="47.94296" lon="6.94978">
        <ele>528</ele>
        <time>2026-05-09T14:17:33.521Z</time>
      </trkpt>
      <trkpt lat="47.94295" lon="6.94977">
        <ele>529</ele>
        <time>2026-05-09T14:17:34.521Z</time>
      </trkpt>
      <trkpt lat="47.94294" lon="6.94976">
        <ele>529</ele>
        <time>2026-05-09T14:17:35.521Z</time>
      </trkpt>
      <trkpt lat="47.94292" lon="6.94975">
        <ele>529</ele>
        <time>2026-05-09T14:17:36.521Z</time>
      </trkpt>
      <trkpt lat="47.94291" lon="6.94974">
        <ele>529</ele>
        <time>2026-05-09T14:17:37.521Z</time>
      </trkpt>
      <trkpt lat="47.94291" lon="6.94972">
        <ele>530</ele>
        <time>2026-05-09T14:17:38.521Z</time>
      </trkpt>
      <trkpt lat="47.9429" lon="6.94971">
        <ele>530</ele>
        <time>2026-05-09T14:17:39.520Z</time>
      </trkpt>
      <trkpt lat="47.94289" lon="6.94969">
        <ele>530</ele>
        <time>2026-05-09T14:17:40.520Z</time>
      </trkpt>
      <trkpt lat="47.94288" lon="6.94968">
        <ele>531</ele>
        <time>2026-05-09T14:17:41.520Z</time>
      </trkpt>
      <trkpt lat="47.94287" lon="6.94967">
        <ele>531</ele>
        <time>2026-05-09T14:17:42.520Z</time>
      </trkpt>
      <trkpt lat="47.94286" lon="6.94965">
        <ele>531</ele>
        <time>2026-05-09T14:17:43.520Z</time>
      </trkpt>
      <trkpt lat="47.94284" lon="6.94964">
        <ele>532</ele>
        <time>2026-05-09T14:17:44.520Z</time>
      </trkpt>
      <trkpt lat="47.94283" lon="6.94962">
        <ele>532</ele>
        <time>2026-05-09T14:17:45.521Z</time>
      </trkpt>
      <trkpt lat="47.94282" lon="6.94961">
        <ele>533</ele>
        <time>2026-05-09T14:17:46.521Z</time>
      </trkpt>
      <trkpt lat="47.94281" lon="6.94959">
        <ele>533</ele>
        <time>2026-05-09T14:17:47.520Z</time>
      </trkpt>
      <trkpt lat="47.94279" lon="6.94957">
        <ele>533</ele>
        <time>2026-05-09T14:17:48.520Z</time>
      </trkpt>
      <trkpt lat="47.94278" lon="6.94955">
        <ele>533</ele>
        <time>2026-05-09T14:17:49.521Z</time>
      </trkpt>
      <trkpt lat="47.94277" lon="6.94953">
        <ele>532</ele>
        <time>2026-05-09T14:17:50.520Z</time>
      </trkpt>
      <trkpt lat="47.94276" lon="6.94952">
        <ele>532</ele>
        <time>2026-05-09T14:17:51.521Z</time>
      </trkpt>
      <trkpt lat="47.94275" lon="6.9495">
        <ele>532</ele>
        <time>2026-05-09T14:17:52.521Z</time>
      </trkpt>
      <trkpt lat="47.94274" lon="6.94949">
        <ele>532</ele>
        <time>2026-05-09T14:17:53.520Z</time>
      </trkpt>
      <trkpt lat="47.94273" lon="6.94948">
        <ele>532</ele>
        <time>2026-05-09T14:17:54.520Z</time>
      </trkpt>
      <trkpt lat="47.94272" lon="6.94947">
        <ele>533</ele>
        <time>2026-05-09T14:17:55.520Z</time>
      </trkpt>
      <trkpt lat="47.94271" lon="6.94946">
        <ele>533</ele>
        <time>2026-05-09T14:17:56.520Z</time>
      </trkpt>
      <trkpt lat="47.9427" lon="6.94945">
        <ele>533</ele>
        <time>2026-05-09T14:17:57.520Z</time>
      </trkpt>
      <trkpt lat="47.94269" lon="6.94944">
        <ele>533</ele>
        <time>2026-05-09T14:17:58.521Z</time>
      </trkpt>
      <trkpt lat="47.94268" lon="6.94943">
        <ele>533</ele>
        <time>2026-05-09T14:17:59.520Z</time>
      </trkpt>
      <trkpt lat="47.94267" lon="6.94943">
        <ele>533</ele>
        <time>2026-05-09T14:18:00.520Z</time>
      </trkpt>
      <trkpt lat="47.94266" lon="6.94942">
        <ele>534</ele>
        <time>2026-05-09T14:18:01.521Z</time>
      </trkpt>
      <trkpt lat="47.94265" lon="6.94941">
        <ele>534</ele>
        <time>2026-05-09T14:18:02.520Z</time>
      </trkpt>
      <trkpt lat="47.94263" lon="6.9494">
        <ele>534</ele>
        <time>2026-05-09T14:18:03.520Z</time>
      </trkpt>
      <trkpt lat="47.94262" lon="6.9494">
        <ele>535</ele>
        <time>2026-05-09T14:18:04.520Z</time>
      </trkpt>
      <trkpt lat="47.94261" lon="6.94939">
        <ele>535</ele>
        <time>2026-05-09T14:18:05.520Z</time>
      </trkpt>
      <trkpt lat="47.94259" lon="6.94939">
        <ele>535</ele>
        <time>2026-05-09T14:18:06.521Z</time>
      </trkpt>
      <trkpt lat="47.94258" lon="6.94938">
        <ele>536</ele>
        <time>2026-05-09T14:18:07.521Z</time>
      </trkpt>
      <trkpt lat="47.94257" lon="6.94938">
        <ele>536</ele>
        <time>2026-05-09T14:18:08.520Z</time>
      </trkpt>
      <trkpt lat="47.94255" lon="6.94939">
        <ele>536</ele>
        <time>2026-05-09T14:18:09.521Z</time>
      </trkpt>
      <trkpt lat="47.94255" lon="6.94939">
        <ele>536</ele>
        <time>2026-05-09T14:18:10.521Z</time>
      </trkpt>
      <trkpt lat="47.94254" lon="6.9494">
        <ele>537</ele>
        <time>2026-05-09T14:18:11.520Z</time>
      </trkpt>
      <trkpt lat="47.94253" lon="6.9494">
        <ele>537</ele>
        <time>2026-05-09T14:18:12.521Z</time>
      </trkpt>
      <trkpt lat="47.94253" lon="6.9494">
        <ele>537</ele>
        <time>2026-05-09T14:18:13.520Z</time>
      </trkpt>
      <trkpt lat="47.94252" lon="6.94941">
        <ele>537</ele>
        <time>2026-05-09T14:18:14.521Z</time>
      </trkpt>
      <trkpt lat="47.94251" lon="6.94941">
        <ele>538</ele>
        <time>2026-05-09T14:18:15.521Z</time>
      </trkpt>
      <trkpt lat="47.94249" lon="6.94941">
        <ele>538</ele>
        <time>2026-05-09T14:18:16.521Z</time>
      </trkpt>
      <trkpt lat="47.94248" lon="6.94941">
        <ele>538</ele>
        <time>2026-05-09T14:18:17.521Z</time>
      </trkpt>
      <trkpt lat="47.94247" lon="6.9494">
        <ele>539</ele>
        <time>2026-05-09T14:18:18.520Z</time>
      </trkpt>
      <trkpt lat="47.94246" lon="6.94939">
        <ele>539</ele>
        <time>2026-05-09T14:18:19.521Z</time>
      </trkpt>
      <trkpt lat="47.94244" lon="6.94938">
        <ele>539</ele>
        <time>2026-05-09T14:18:20.521Z</time>
      </trkpt>
      <trkpt lat="47.94243" lon="6.94936">
        <ele>539</ele>
        <time>2026-05-09T14:18:21.520Z</time>
      </trkpt>
      <trkpt lat="47.94241" lon="6.94935">
        <ele>538</ele>
        <time>2026-05-09T14:18:22.521Z</time>
      </trkpt>
      <trkpt lat="47.94241" lon="6.94933">
        <ele>538</ele>
        <time>2026-05-09T14:18:23.520Z</time>
      </trkpt>
      <trkpt lat="47.94241" lon="6.94932">
        <ele>538</ele>
        <time>2026-05-09T14:18:24.521Z</time>
      </trkpt>
      <trkpt lat="47.94241" lon="6.9493">
        <ele>538</ele>
        <time>2026-05-09T14:18:25.521Z</time>
      </trkpt>
      <trkpt lat="47.9424" lon="6.94929">
        <ele>538</ele>
        <time>2026-05-09T14:18:26.520Z</time>
      </trkpt>
      <trkpt lat="47.94239" lon="6.94927">
        <ele>538</ele>
        <time>2026-05-09T14:18:27.520Z</time>
      </trkpt>
      <trkpt lat="47.94238" lon="6.94927">
        <ele>538</ele>
        <time>2026-05-09T14:18:28.521Z</time>
      </trkpt>
      <trkpt lat="47.94237" lon="6.94926">
        <ele>538</ele>
        <time>2026-05-09T14:18:29.520Z</time>
      </trkpt>
      <trkpt lat="47.94236" lon="6.94926">
        <ele>538</ele>
        <time>2026-05-09T14:18:30.521Z</time>
      </trkpt>
      <trkpt lat="47.94235" lon="6.94926">
        <ele>538</ele>
        <time>2026-05-09T14:18:31.521Z</time>
      </trkpt>
      <trkpt lat="47.94234" lon="6.94926">
        <ele>539</ele>
        <time>2026-05-09T14:18:32.521Z</time>
      </trkpt>
      <trkpt lat="47.94233" lon="6.94925">
        <ele>539</ele>
        <time>2026-05-09T14:18:33.521Z</time>
      </trkpt>
      <trkpt lat="47.94232" lon="6.94924">
        <ele>539</ele>
        <time>2026-05-09T14:18:34.521Z</time>
      </trkpt>
      <trkpt lat="47.94231" lon="6.94924">
        <ele>539</ele>
        <time>2026-05-09T14:18:35.520Z</time>
      </trkpt>
      <trkpt lat="47.9423" lon="6.94923">
        <ele>540</ele>
        <time>2026-05-09T14:18:36.521Z</time>
      </trkpt>
      <trkpt lat="47.9423" lon="6.94923">
        <ele>540</ele>
        <time>2026-05-09T14:18:37.520Z</time>
      </trkpt>
      <trkpt lat="47.94229" lon="6.94923">
        <ele>540</ele>
        <time>2026-05-09T14:18:38.520Z</time>
      </trkpt>
      <trkpt lat="47.94228" lon="6.94923">
        <ele>540</ele>
        <time>2026-05-09T14:18:39.521Z</time>
      </trkpt>
      <trkpt lat="47.94227" lon="6.94923">
        <ele>539</ele>
        <time>2026-05-09T14:18:40.520Z</time>
      </trkpt>
      <trkpt lat="47.94226" lon="6.94923">
        <ele>539</ele>
        <time>2026-05-09T14:18:41.520Z</time>
      </trkpt>
      <trkpt lat="47.94226" lon="6.94923">
        <ele>539</ele>
        <time>2026-05-09T14:18:42.521Z</time>
      </trkpt>
      <trkpt lat="47.94225" lon="6.94923">
        <ele>539</ele>
        <time>2026-05-09T14:18:43.521Z</time>
      </trkpt>
      <trkpt lat="47.94223" lon="6.94921">
        <ele>538</ele>
        <time>2026-05-09T14:18:48.883Z</time>
      </trkpt>
      <trkpt lat="47.94223" lon="6.94921">
        <ele>538</ele>
        <time>2026-05-09T14:18:49.883Z</time>
      </trkpt>
      <trkpt lat="47.94223" lon="6.94921">
        <ele>539</ele>
        <time>2026-05-09T14:18:50.883Z</time>
      </trkpt>
      <trkpt lat="47.94222" lon="6.94921">
        <ele>539</ele>
        <time>2026-05-09T14:18:51.882Z</time>
      </trkpt>
      <trkpt lat="47.94221" lon="6.9492">
        <ele>540</ele>
        <time>2026-05-09T14:18:52.882Z</time>
      </trkpt>
      <trkpt lat="47.9422" lon="6.9492">
        <ele>540</ele>
        <time>2026-05-09T14:18:53.883Z</time>
      </trkpt>
      <trkpt lat="47.9422" lon="6.9492">
        <ele>541</ele>
        <time>2026-05-09T14:18:54.882Z</time>
      </trkpt>
      <trkpt lat="47.9422" lon="6.9492">
        <ele>541</ele>
        <time>2026-05-09T14:18:55.882Z</time>
      </trkpt>
      <trkpt lat="47.94219" lon="6.94919">
        <ele>541</ele>
        <time>2026-05-09T14:18:56.883Z</time>
      </trkpt>
      <trkpt lat="47.94217" lon="6.94918">
        <ele>542</ele>
        <time>2026-05-09T14:18:57.883Z</time>
      </trkpt>
      <trkpt lat="47.94215" lon="6.94917">
        <ele>542</ele>
        <time>2026-05-09T14:18:58.882Z</time>
      </trkpt>
      <trkpt lat="47.94215" lon="6.94916">
        <ele>542</ele>
        <time>2026-05-09T14:18:59.882Z</time>
      </trkpt>
      <trkpt lat="47.94214" lon="6.94916">
        <ele>542</ele>
        <time>2026-05-09T14:19:00.883Z</time>
      </trkpt>
      <trkpt lat="47.94214" lon="6.94916">
        <ele>542</ele>
        <time>2026-05-09T14:19:01.882Z</time>
      </trkpt>
      <trkpt lat="47.94214" lon="6.94915">
        <ele>541</ele>
        <time>2026-05-09T14:19:02.883Z</time>
      </trkpt>
      <trkpt lat="47.94214" lon="6.94915">
        <ele>541</ele>
        <time>2026-05-09T14:19:03.882Z</time>
      </trkpt>
      <trkpt lat="47.94213" lon="6.94914">
        <ele>541</ele>
        <time>2026-05-09T14:19:04.882Z</time>
      </trkpt>
      <trkpt lat="47.94213" lon="6.94913">
        <ele>541</ele>
        <time>2026-05-09T14:19:05.882Z</time>
      </trkpt>
      <trkpt lat="47.94213" lon="6.94913">
        <ele>541</ele>
        <time>2026-05-09T14:19:06.882Z</time>
      </trkpt>
      <trkpt lat="47.94212" lon="6.94912">
        <ele>542</ele>
        <time>2026-05-09T14:19:13.295Z</time>
      </trkpt>
      <trkpt lat="47.94211" lon="6.94912">
        <ele>542</ele>
        <time>2026-05-09T14:19:14.296Z</time>
      </trkpt>
      <trkpt lat="47.94211" lon="6.94912">
        <ele>542</ele>
        <time>2026-05-09T14:19:15.295Z</time>
      </trkpt>
      <trkpt lat="47.94211" lon="6.94912">
        <ele>542</ele>
        <time>2026-05-09T14:19:16.296Z</time>
      </trkpt>
      <trkpt lat="47.94211" lon="6.94912">
        <ele>542</ele>
        <time>2026-05-09T14:19:17.296Z</time>
      </trkpt>
      <trkpt lat="47.9421" lon="6.94912">
        <ele>542</ele>
        <time>2026-05-09T14:19:18.295Z</time>
      </trkpt>
      <trkpt lat="47.94209" lon="6.94911">
        <ele>543</ele>
        <time>2026-05-09T14:19:19.296Z</time>
      </trkpt>
      <trkpt lat="47.94208" lon="6.94911">
        <ele>543</ele>
        <time>2026-05-09T14:19:20.295Z</time>
      </trkpt>
      <trkpt lat="47.94207" lon="6.94911">
        <ele>543</ele>
        <time>2026-05-09T14:19:21.296Z</time>
      </trkpt>
      <trkpt lat="47.94206" lon="6.94911">
        <ele>544</ele>
        <time>2026-05-09T14:19:22.296Z</time>
      </trkpt>
      <trkpt lat="47.94204" lon="6.94912">
        <ele>545</ele>
        <time>2026-05-09T14:19:23.295Z</time>
      </trkpt>
      <trkpt lat="47.94203" lon="6.94912">
        <ele>545</ele>
        <time>2026-05-09T14:19:24.296Z</time>
      </trkpt>
      <trkpt lat="47.94202" lon="6.94911">
        <ele>546</ele>
        <time>2026-05-09T14:19:25.295Z</time>
      </trkpt>
      <trkpt lat="47.94201" lon="6.94911">
        <ele>546</ele>
        <time>2026-05-09T14:19:26.296Z</time>
      </trkpt>
      <trkpt lat="47.942" lon="6.94911">
        <ele>547</ele>
        <time>2026-05-09T14:19:27.295Z</time>
      </trkpt>
      <trkpt lat="47.94199" lon="6.94912">
        <ele>547</ele>
        <time>2026-05-09T14:19:28.296Z</time>
      </trkpt>
      <trkpt lat="47.94199" lon="6.94912">
        <ele>548</ele>
        <time>2026-05-09T14:19:29.296Z</time>
      </trkpt>
      <trkpt lat="47.94197" lon="6.94912">
        <ele>549</ele>
        <time>2026-05-09T14:19:30.295Z</time>
      </trkpt>
      <trkpt lat="47.94196" lon="6.94913">
        <ele>550</ele>
        <time>2026-05-09T14:19:31.295Z</time>
      </trkpt>
      <trkpt lat="47.94194" lon="6.94912">
        <ele>551</ele>
        <time>2026-05-09T14:19:32.296Z</time>
      </trkpt>
      <trkpt lat="47.94193" lon="6.94912">
        <ele>551</ele>
        <time>2026-05-09T14:19:33.296Z</time>
      </trkpt>
      <trkpt lat="47.94192" lon="6.94912">
        <ele>552</ele>
        <time>2026-05-09T14:19:34.296Z</time>
      </trkpt>
      <trkpt lat="47.94191" lon="6.94913">
        <ele>553</ele>
        <time>2026-05-09T14:19:35.296Z</time>
      </trkpt>
      <trkpt lat="47.94189" lon="6.94913">
        <ele>554</ele>
        <time>2026-05-09T14:19:36.296Z</time>
      </trkpt>
      <trkpt lat="47.94188" lon="6.94913">
        <ele>554</ele>
        <time>2026-05-09T14:19:37.296Z</time>
      </trkpt>
      <trkpt lat="47.94186" lon="6.94914">
        <ele>555</ele>
        <time>2026-05-09T14:19:38.295Z</time>
      </trkpt>
      <trkpt lat="47.94185" lon="6.94914">
        <ele>556</ele>
        <time>2026-05-09T14:19:39.295Z</time>
      </trkpt>
      <trkpt lat="47.94183" lon="6.94915">
        <ele>557</ele>
        <time>2026-05-09T14:19:40.296Z</time>
      </trkpt>
      <trkpt lat="47.94182" lon="6.94916">
        <ele>558</ele>
        <time>2026-05-09T14:19:41.295Z</time>
      </trkpt>
      <trkpt lat="47.9418" lon="6.94916">
        <ele>558</ele>
        <time>2026-05-09T14:19:42.295Z</time>
      </trkpt>
      <trkpt lat="47.94177" lon="6.94917">
        <ele>559</ele>
        <time>2026-05-09T14:19:43.296Z</time>
      </trkpt>
      <trkpt lat="47.94176" lon="6.94917">
        <ele>559</ele>
        <time>2026-05-09T14:19:44.295Z</time>
      </trkpt>
      <trkpt lat="47.94175" lon="6.94918">
        <ele>560</ele>
        <time>2026-05-09T14:19:45.295Z</time>
      </trkpt>
      <trkpt lat="47.94174" lon="6.94917">
        <ele>561</ele>
        <time>2026-05-09T14:19:46.296Z</time>
      </trkpt>
      <trkpt lat="47.94173" lon="6.94918">
        <ele>562</ele>
        <time>2026-05-09T14:19:47.295Z</time>
      </trkpt>
      <trkpt lat="47.94172" lon="6.94919">
        <ele>562</ele>
        <time>2026-05-09T14:19:48.295Z</time>
      </trkpt>
      <trkpt lat="47.94171" lon="6.94921">
        <ele>562</ele>
        <time>2026-05-09T14:19:49.295Z</time>
      </trkpt>
      <trkpt lat="47.94169" lon="6.94922">
        <ele>563</ele>
        <time>2026-05-09T14:19:50.296Z</time>
      </trkpt>
      <trkpt lat="47.94169" lon="6.94923">
        <ele>563</ele>
        <time>2026-05-09T14:19:51.296Z</time>
      </trkpt>
      <trkpt lat="47.94167" lon="6.94924">
        <ele>563</ele>
        <time>2026-05-09T14:19:52.296Z</time>
      </trkpt>
      <trkpt lat="47.94167" lon="6.94924">
        <ele>563</ele>
        <time>2026-05-09T14:19:53.295Z</time>
      </trkpt>
      <trkpt lat="47.94166" lon="6.94925">
        <ele>563</ele>
        <time>2026-05-09T14:19:54.296Z</time>
      </trkpt>
      <trkpt lat="47.94166" lon="6.94926">
        <ele>563</ele>
        <time>2026-05-09T14:19:55.295Z</time>
      </trkpt>
      <trkpt lat="47.94165" lon="6.94927">
        <ele>563</ele>
        <time>2026-05-09T14:19:56.296Z</time>
      </trkpt>
      <trkpt lat="47.94164" lon="6.94927">
        <ele>563</ele>
        <time>2026-05-09T14:19:57.296Z</time>
      </trkpt>
      <trkpt lat="47.94163" lon="6.94928">
        <ele>563</ele>
        <time>2026-05-09T14:19:58.296Z</time>
      </trkpt>
      <trkpt lat="47.94163" lon="6.94929">
        <ele>563</ele>
        <time>2026-05-09T14:19:59.295Z</time>
      </trkpt>
      <trkpt lat="47.94162" lon="6.9493">
        <ele>563</ele>
        <time>2026-05-09T14:20:00.295Z</time>
      </trkpt>
      <trkpt lat="47.94161" lon="6.9493">
        <ele>563</ele>
        <time>2026-05-09T14:20:01.296Z</time>
      </trkpt>
      <trkpt lat="47.94161" lon="6.94931">
        <ele>562</ele>
        <time>2026-05-09T14:20:02.295Z</time>
      </trkpt>
      <trkpt lat="47.9416" lon="6.94932">
        <ele>562</ele>
        <time>2026-05-09T14:20:03.296Z</time>
      </trkpt>
      <trkpt lat="47.9416" lon="6.94933">
        <ele>562</ele>
        <time>2026-05-09T14:20:04.295Z</time>
      </trkpt>
      <trkpt lat="47.94159" lon="6.94933">
        <ele>561</ele>
        <time>2026-05-09T14:20:05.295Z</time>
      </trkpt>
      <trkpt lat="47.94159" lon="6.94934">
        <ele>562</ele>
        <time>2026-05-09T14:20:06.295Z</time>
      </trkpt>
      <trkpt lat="47.94158" lon="6.94936">
        <ele>562</ele>
        <time>2026-05-09T14:20:07.296Z</time>
      </trkpt>
      <trkpt lat="47.94158" lon="6.94937">
        <ele>563</ele>
        <time>2026-05-09T14:20:08.295Z</time>
      </trkpt>
      <trkpt lat="47.94157" lon="6.94939">
        <ele>564</ele>
        <time>2026-05-09T14:20:09.296Z</time>
      </trkpt>
      <trkpt lat="47.94157" lon="6.9494">
        <ele>564</ele>
        <time>2026-05-09T14:20:10.296Z</time>
      </trkpt>
      <trkpt lat="47.94156" lon="6.94942">
        <ele>565</ele>
        <time>2026-05-09T14:20:11.296Z</time>
      </trkpt>
      <trkpt lat="47.94157" lon="6.94943">
        <ele>566</ele>
        <time>2026-05-09T14:20:12.296Z</time>
      </trkpt>
      <trkpt lat="47.94157" lon="6.94945">
        <ele>567</ele>
        <time>2026-05-09T14:20:13.295Z</time>
      </trkpt>
      <trkpt lat="47.94157" lon="6.94947">
        <ele>568</ele>
        <time>2026-05-09T14:20:14.295Z</time>
      </trkpt>
      <trkpt lat="47.94157" lon="6.94948">
        <ele>568</ele>
        <time>2026-05-09T14:20:15.296Z</time>
      </trkpt>
      <trkpt lat="47.94157" lon="6.9495">
        <ele>569</ele>
        <time>2026-05-09T14:20:16.295Z</time>
      </trkpt>
      <trkpt lat="47.94156" lon="6.94952">
        <ele>569</ele>
        <time>2026-05-09T14:20:17.296Z</time>
      </trkpt>
      <trkpt lat="47.94156" lon="6.94954">
        <ele>570</ele>
        <time>2026-05-09T14:20:18.296Z</time>
      </trkpt>
      <trkpt lat="47.94155" lon="6.94955">
        <ele>570</ele>
        <time>2026-05-09T14:20:19.295Z</time>
      </trkpt>
      <trkpt lat="47.94154" lon="6.94957">
        <ele>571</ele>
        <time>2026-05-09T14:20:20.295Z</time>
      </trkpt>
      <trkpt lat="47.94153" lon="6.94959">
        <ele>571</ele>
        <time>2026-05-09T14:20:21.295Z</time>
      </trkpt>
      <trkpt lat="47.94153" lon="6.9496">
        <ele>572</ele>
        <time>2026-05-09T14:20:22.295Z</time>
      </trkpt>
      <trkpt lat="47.94153" lon="6.94962">
        <ele>572</ele>
        <time>2026-05-09T14:20:23.296Z</time>
      </trkpt>
      <trkpt lat="47.94153" lon="6.94964">
        <ele>573</ele>
        <time>2026-05-09T14:20:24.295Z</time>
      </trkpt>
      <trkpt lat="47.94153" lon="6.94965">
        <ele>573</ele>
        <time>2026-05-09T14:20:25.295Z</time>
      </trkpt>
      <trkpt lat="47.94152" lon="6.94967">
        <ele>573</ele>
        <time>2026-05-09T14:20:26.296Z</time>
      </trkpt>
      <trkpt lat="47.94152" lon="6.94968">
        <ele>573</ele>
        <time>2026-05-09T14:20:27.296Z</time>
      </trkpt>
      <trkpt lat="47.94152" lon="6.9497">
        <ele>573</ele>
        <time>2026-05-09T14:20:28.296Z</time>
      </trkpt>
      <trkpt lat="47.94151" lon="6.94971">
        <ele>573</ele>
        <time>2026-05-09T14:20:29.296Z</time>
      </trkpt>
      <trkpt lat="47.94151" lon="6.94972">
        <ele>573</ele>
        <time>2026-05-09T14:20:30.296Z</time>
      </trkpt>
      <trkpt lat="47.9415" lon="6.94974">
        <ele>573</ele>
        <time>2026-05-09T14:20:31.295Z</time>
      </trkpt>
      <trkpt lat="47.9415" lon="6.94976">
        <ele>573</ele>
        <time>2026-05-09T14:20:32.295Z</time>
      </trkpt>
      <trkpt lat="47.9415" lon="6.94977">
        <ele>574</ele>
        <time>2026-05-09T14:20:33.295Z</time>
      </trkpt>
      <trkpt lat="47.9415" lon="6.9498">
        <ele>574</ele>
        <time>2026-05-09T14:20:34.295Z</time>
      </trkpt>
      <trkpt lat="47.9415" lon="6.94983">
        <ele>574</ele>
        <time>2026-05-09T14:20:35.296Z</time>
      </trkpt>
      <trkpt lat="47.94151" lon="6.94985">
        <ele>575</ele>
        <time>2026-05-09T14:20:36.296Z</time>
      </trkpt>
      <trkpt lat="47.94151" lon="6.94986">
        <ele>575</ele>
        <time>2026-05-09T14:20:37.296Z</time>
      </trkpt>
      <trkpt lat="47.94152" lon="6.94989">
        <ele>575</ele>
        <time>2026-05-09T14:20:38.296Z</time>
      </trkpt>
      <trkpt lat="47.9415" lon="6.94993">
        <ele>575</ele>
        <time>2026-05-09T14:20:39.295Z</time>
      </trkpt>
      <trkpt lat="47.9415" lon="6.94996">
        <ele>575</ele>
        <time>2026-05-09T14:20:40.296Z</time>
      </trkpt>
      <trkpt lat="47.94151" lon="6.94999">
        <ele>575</ele>
        <time>2026-05-09T14:20:41.296Z</time>
      </trkpt>
      <trkpt lat="47.94152" lon="6.95001">
        <ele>576</ele>
        <time>2026-05-09T14:20:42.296Z</time>
      </trkpt>
      <trkpt lat="47.94152" lon="6.95004">
        <ele>576</ele>
        <time>2026-05-09T14:20:43.296Z</time>
      </trkpt>
      <trkpt lat="47.94153" lon="6.95009">
        <ele>577</ele>
        <time>2026-05-09T14:20:44.295Z</time>
      </trkpt>
      <trkpt lat="47.94153" lon="6.95015">
        <ele>577</ele>
        <time>2026-05-09T14:20:45.295Z</time>
      </trkpt>
      <trkpt lat="47.94154" lon="6.95018">
        <ele>578</ele>
        <time>2026-05-09T14:20:46.296Z</time>
      </trkpt>
      <trkpt lat="47.94153" lon="6.95019">
        <ele>578</ele>
        <time>2026-05-09T14:20:47.296Z</time>
      </trkpt>
      <trkpt lat="47.94152" lon="6.95019">
        <ele>578</ele>
        <time>2026-05-09T14:20:48.296Z</time>
      </trkpt>
      <trkpt lat="47.94152" lon="6.95018">
        <ele>578</ele>
        <time>2026-05-09T14:20:49.295Z</time>
      </trkpt>
      <trkpt lat="47.94151" lon="6.95018">
        <ele>578</ele>
        <time>2026-05-09T14:20:50.295Z</time>
      </trkpt>
      <trkpt lat="47.94151" lon="6.95019">
        <ele>579</ele>
        <time>2026-05-09T14:20:51.295Z</time>
      </trkpt>
      <trkpt lat="47.9415" lon="6.95019">
        <ele>579</ele>
        <time>2026-05-09T14:20:52.296Z</time>
      </trkpt>
      <trkpt lat="47.94148" lon="6.95017">
        <ele>578</ele>
        <time>2026-05-09T14:20:53.295Z</time>
      </trkpt>
      <trkpt lat="47.94146" lon="6.95018">
        <ele>578</ele>
        <time>2026-05-09T14:20:54.295Z</time>
      </trkpt>
      <trkpt lat="47.94144" lon="6.95015">
        <ele>578</ele>
        <time>2026-05-09T14:20:55.295Z</time>
      </trkpt>
      <trkpt lat="47.94144" lon="6.95015">
        <ele>578</ele>
        <time>2026-05-09T14:20:56.295Z</time>
      </trkpt>
      <trkpt lat="47.94143" lon="6.95016">
        <ele>577</ele>
        <time>2026-05-09T14:20:57.295Z</time>
      </trkpt>
      <trkpt lat="47.94142" lon="6.95017">
        <ele>577</ele>
        <time>2026-05-09T14:20:58.296Z</time>
      </trkpt>
      <trkpt lat="47.94142" lon="6.95018">
        <ele>577</ele>
        <time>2026-05-09T14:20:59.296Z</time>
      </trkpt>
      <trkpt lat="47.94141" lon="6.9502">
        <ele>576</ele>
        <time>2026-05-09T14:21:00.295Z</time>
      </trkpt>
      <trkpt lat="47.9414" lon="6.95021">
        <ele>576</ele>
        <time>2026-05-09T14:21:01.295Z</time>
      </trkpt>
      <trkpt lat="47.94139" lon="6.95022">
        <ele>576</ele>
        <time>2026-05-09T14:21:02.296Z</time>
      </trkpt>
      <trkpt lat="47.94138" lon="6.95023">
        <ele>575</ele>
        <time>2026-05-09T14:21:03.295Z</time>
      </trkpt>
      <trkpt lat="47.94138" lon="6.95024">
        <ele>575</ele>
        <time>2026-05-09T14:21:04.296Z</time>
      </trkpt>
      <trkpt lat="47.94137" lon="6.95025">
        <ele>575</ele>
        <time>2026-05-09T14:21:05.296Z</time>
      </trkpt>
      <trkpt lat="47.94137" lon="6.95026">
        <ele>576</ele>
        <time>2026-05-09T14:21:06.296Z</time>
      </trkpt>
      <trkpt lat="47.94136" lon="6.95026">
        <ele>576</ele>
        <time>2026-05-09T14:21:07.295Z</time>
      </trkpt>
      <trkpt lat="47.94135" lon="6.95027">
        <ele>576</ele>
        <time>2026-05-09T14:21:08.296Z</time>
      </trkpt>
      <trkpt lat="47.94134" lon="6.95028">
        <ele>576</ele>
        <time>2026-05-09T14:21:09.295Z</time>
      </trkpt>
      <trkpt lat="47.94132" lon="6.95029">
        <ele>576</ele>
        <time>2026-05-09T14:21:10.296Z</time>
      </trkpt>
      <trkpt lat="47.94131" lon="6.95031">
        <ele>576</ele>
        <time>2026-05-09T14:21:11.295Z</time>
      </trkpt>
      <trkpt lat="47.9413" lon="6.95032">
        <ele>576</ele>
        <time>2026-05-09T14:21:12.295Z</time>
      </trkpt>
      <trkpt lat="47.94129" lon="6.95033">
        <ele>576</ele>
        <time>2026-05-09T14:21:13.296Z</time>
      </trkpt>
      <trkpt lat="47.94129" lon="6.95035">
        <ele>577</ele>
        <time>2026-05-09T14:21:14.295Z</time>
      </trkpt>
      <trkpt lat="47.94128" lon="6.95036">
        <ele>578</ele>
        <time>2026-05-09T14:21:15.295Z</time>
      </trkpt>
      <trkpt lat="47.94127" lon="6.95038">
        <ele>578</ele>
        <time>2026-05-09T14:21:16.296Z</time>
      </trkpt>
      <trkpt lat="47.94126" lon="6.95039">
        <ele>579</ele>
        <time>2026-05-09T14:21:17.296Z</time>
      </trkpt>
      <trkpt lat="47.94125" lon="6.95041">
        <ele>579</ele>
        <time>2026-05-09T14:21:18.296Z</time>
      </trkpt>
      <trkpt lat="47.94123" lon="6.95041">
        <ele>579</ele>
        <time>2026-05-09T14:21:19.295Z</time>
      </trkpt>
      <trkpt lat="47.94122" lon="6.95043">
        <ele>580</ele>
        <time>2026-05-09T14:21:20.296Z</time>
      </trkpt>
      <trkpt lat="47.94121" lon="6.95044">
        <ele>580</ele>
        <time>2026-05-09T14:21:21.295Z</time>
      </trkpt>
      <trkpt lat="47.94121" lon="6.95046">
        <ele>580</ele>
        <time>2026-05-09T14:21:22.296Z</time>
      </trkpt>
      <trkpt lat="47.9412" lon="6.95047">
        <ele>580</ele>
        <time>2026-05-09T14:21:23.296Z</time>
      </trkpt>
      <trkpt lat="47.94121" lon="6.95048">
        <ele>580</ele>
        <time>2026-05-09T14:21:24.296Z</time>
      </trkpt>
      <trkpt lat="47.9412" lon="6.95048">
        <ele>579</ele>
        <time>2026-05-09T14:21:25.295Z</time>
      </trkpt>
      <trkpt lat="47.9412" lon="6.95048">
        <ele>579</ele>
        <time>2026-05-09T14:21:26.296Z</time>
      </trkpt>
      <trkpt lat="47.9412" lon="6.95049">
        <ele>579</ele>
        <time>2026-05-09T14:21:27.296Z</time>
      </trkpt>
      <trkpt lat="47.9412" lon="6.95048">
        <ele>578</ele>
        <time>2026-05-09T14:21:28.296Z</time>
      </trkpt>
      <trkpt lat="47.9412" lon="6.95048">
        <ele>578</ele>
        <time>2026-05-09T14:21:29.296Z</time>
      </trkpt>
      <trkpt lat="47.94119" lon="6.95048">
        <ele>577</ele>
        <time>2026-05-09T14:21:30.296Z</time>
      </trkpt>
      <trkpt lat="47.94119" lon="6.95048">
        <ele>575</ele>
        <time>2026-05-09T14:21:36.679Z</time>
      </trkpt>
      <trkpt lat="47.94119" lon="6.95047">
        <ele>574</ele>
        <time>2026-05-09T14:21:37.680Z</time>
      </trkpt>
      <trkpt lat="47.94119" lon="6.95047">
        <ele>574</ele>
        <time>2026-05-09T14:21:38.680Z</time>
      </trkpt>
      <trkpt lat="47.94119" lon="6.95047">
        <ele>574</ele>
        <time>2026-05-09T14:21:39.679Z</time>
      </trkpt>
      <trkpt lat="47.94119" lon="6.95046">
        <ele>574</ele>
        <time>2026-05-09T14:21:46.188Z</time>
      </trkpt>
      <trkpt lat="47.94119" lon="6.95047">
        <ele>574</ele>
        <time>2026-05-09T14:21:47.189Z</time>
      </trkpt>
      <trkpt lat="47.94119" lon="6.95047">
        <ele>574</ele>
        <time>2026-05-09T14:21:48.188Z</time>
      </trkpt>
      <trkpt lat="47.94119" lon="6.95047">
        <ele>574</ele>
        <time>2026-05-09T14:21:49.189Z</time>
      </trkpt>
      <trkpt lat="47.94119" lon="6.95046">
        <ele>574</ele>
        <time>2026-05-09T14:21:50.188Z</time>
      </trkpt>
      <trkpt lat="47.94118" lon="6.95047">
        <ele>574</ele>
        <time>2026-05-09T14:21:51.189Z</time>
      </trkpt>
      <trkpt lat="47.94118" lon="6.95047">
        <ele>574</ele>
        <time>2026-05-09T14:21:52.188Z</time>
      </trkpt>
      <trkpt lat="47.94118" lon="6.95047">
        <ele>574</ele>
        <time>2026-05-09T14:21:53.189Z</time>
      </trkpt>
      <trkpt lat="47.94118" lon="6.95047">
        <ele>573</ele>
        <time>2026-05-09T14:21:54.188Z</time>
      </trkpt>
      <trkpt lat="47.94119" lon="6.95048">
        <ele>573</ele>
        <time>2026-05-09T14:21:55.189Z</time>
      </trkpt>
      <trkpt lat="47.94118" lon="6.95049">
        <ele>572</ele>
        <time>2026-05-09T14:21:56.188Z</time>
      </trkpt>
      <trkpt lat="47.94118" lon="6.95049">
        <ele>572</ele>
        <time>2026-05-09T14:21:57.189Z</time>
      </trkpt>
      <trkpt lat="47.94119" lon="6.95051">
        <ele>572</ele>
        <time>2026-05-09T14:21:58.188Z</time>
      </trkpt>
      <trkpt lat="47.94118" lon="6.95053">
        <ele>572</ele>
        <time>2026-05-09T14:21:59.189Z</time>
      </trkpt>
      <trkpt lat="47.94118" lon="6.95055">
        <ele>572</ele>
        <time>2026-05-09T14:22:00.188Z</time>
      </trkpt>
      <trkpt lat="47.94117" lon="6.95056">
        <ele>572</ele>
        <time>2026-05-09T14:22:01.188Z</time>
      </trkpt>
      <trkpt lat="47.94117" lon="6.95057">
        <ele>572</ele>
        <time>2026-05-09T14:22:02.189Z</time>
      </trkpt>
      <trkpt lat="47.94116" lon="6.95058">
        <ele>573</ele>
        <time>2026-05-09T14:22:03.188Z</time>
      </trkpt>
      <trkpt lat="47.94115" lon="6.95059">
        <ele>573</ele>
        <time>2026-05-09T14:22:04.189Z</time>
      </trkpt>
      <trkpt lat="47.94115" lon="6.9506">
        <ele>573</ele>
        <time>2026-05-09T14:22:05.189Z</time>
      </trkpt>
      <trkpt lat="47.94115" lon="6.95061">
        <ele>573</ele>
        <time>2026-05-09T14:22:06.189Z</time>
      </trkpt>
      <trkpt lat="47.94114" lon="6.9506">
        <ele>574</ele>
        <time>2026-05-09T14:22:07.188Z</time>
      </trkpt>
      <trkpt lat="47.94114" lon="6.9506">
        <ele>575</ele>
        <time>2026-05-09T14:22:08.188Z</time>
      </trkpt>
      <trkpt lat="47.94114" lon="6.95061">
        <ele>575</ele>
        <time>2026-05-09T14:22:09.189Z</time>
      </trkpt>
      <trkpt lat="47.94114" lon="6.95062">
        <ele>575</ele>
        <time>2026-05-09T14:22:10.188Z</time>
      </trkpt>
      <trkpt lat="47.94114" lon="6.95062">
        <ele>575</ele>
        <time>2026-05-09T14:22:11.189Z</time>
      </trkpt>
      <trkpt lat="47.94113" lon="6.95064">
        <ele>576</ele>
        <time>2026-05-09T14:22:12.189Z</time>
      </trkpt>
      <trkpt lat="47.94112" lon="6.95066">
        <ele>576</ele>
        <time>2026-05-09T14:22:13.188Z</time>
      </trkpt>
      <trkpt lat="47.94112" lon="6.95068">
        <ele>576</ele>
        <time>2026-05-09T14:22:14.189Z</time>
      </trkpt>
      <trkpt lat="47.94111" lon="6.95069">
        <ele>576</ele>
        <time>2026-05-09T14:22:15.188Z</time>
      </trkpt>
      <trkpt lat="47.94111" lon="6.9507">
        <ele>576</ele>
        <time>2026-05-09T14:22:16.189Z</time>
      </trkpt>
      <trkpt lat="47.94111" lon="6.95072">
        <ele>577</ele>
        <time>2026-05-09T14:22:17.189Z</time>
      </trkpt>
      <trkpt lat="47.9411" lon="6.95073">
        <ele>577</ele>
        <time>2026-05-09T14:22:18.188Z</time>
      </trkpt>
      <trkpt lat="47.9411" lon="6.95074">
        <ele>577</ele>
        <time>2026-05-09T14:22:19.189Z</time>
      </trkpt>
      <trkpt lat="47.9411" lon="6.95075">
        <ele>578</ele>
        <time>2026-05-09T14:22:20.188Z</time>
      </trkpt>
      <trkpt lat="47.94109" lon="6.95076">
        <ele>578</ele>
        <time>2026-05-09T14:22:21.189Z</time>
      </trkpt>
      <trkpt lat="47.94109" lon="6.95078">
        <ele>579</ele>
        <time>2026-05-09T14:22:22.189Z</time>
      </trkpt>
      <trkpt lat="47.94108" lon="6.95079">
        <ele>580</ele>
        <time>2026-05-09T14:22:23.189Z</time>
      </trkpt>
      <trkpt lat="47.94107" lon="6.9508">
        <ele>580</ele>
        <time>2026-05-09T14:22:24.188Z</time>
      </trkpt>
      <trkpt lat="47.94106" lon="6.95082">
        <ele>581</ele>
        <time>2026-05-09T14:22:25.189Z</time>
      </trkpt>
      <trkpt lat="47.94105" lon="6.95083">
        <ele>581</ele>
        <time>2026-05-09T14:22:26.188Z</time>
      </trkpt>
      <trkpt lat="47.94104" lon="6.95083">
        <ele>582</ele>
        <time>2026-05-09T14:22:27.189Z</time>
      </trkpt>
      <trkpt lat="47.94103" lon="6.95084">
        <ele>582</ele>
        <time>2026-05-09T14:22:28.189Z</time>
      </trkpt>
      <trkpt lat="47.94103" lon="6.95084">
        <ele>583</ele>
        <time>2026-05-09T14:22:29.188Z</time>
      </trkpt>
      <trkpt lat="47.94102" lon="6.95085">
        <ele>583</ele>
        <time>2026-05-09T14:22:30.189Z</time>
      </trkpt>
      <trkpt lat="47.94101" lon="6.95085">
        <ele>583</ele>
        <time>2026-05-09T14:22:31.188Z</time>
      </trkpt>
      <trkpt lat="47.941" lon="6.95086">
        <ele>584</ele>
        <time>2026-05-09T14:22:32.189Z</time>
      </trkpt>
      <trkpt lat="47.941" lon="6.95086">
        <ele>585</ele>
        <time>2026-05-09T14:22:33.189Z</time>
      </trkpt>
      <trkpt lat="47.94099" lon="6.95087">
        <ele>585</ele>
        <time>2026-05-09T14:22:34.189Z</time>
      </trkpt>
      <trkpt lat="47.94098" lon="6.95088">
        <ele>586</ele>
        <time>2026-05-09T14:22:35.189Z</time>
      </trkpt>
      <trkpt lat="47.94097" lon="6.95089">
        <ele>587</ele>
        <time>2026-05-09T14:22:36.188Z</time>
      </trkpt>
      <trkpt lat="47.94097" lon="6.9509">
        <ele>589</ele>
        <time>2026-05-09T14:22:37.188Z</time>
      </trkpt>
      <trkpt lat="47.94096" lon="6.95091">
        <ele>590</ele>
        <time>2026-05-09T14:22:38.189Z</time>
      </trkpt>
      <trkpt lat="47.94095" lon="6.95092">
        <ele>591</ele>
        <time>2026-05-09T14:22:39.189Z</time>
      </trkpt>
      <trkpt lat="47.94094" lon="6.95092">
        <ele>591</ele>
        <time>2026-05-09T14:22:40.189Z</time>
      </trkpt>
      <trkpt lat="47.94094" lon="6.95093">
        <ele>592</ele>
        <time>2026-05-09T14:22:41.189Z</time>
      </trkpt>
      <trkpt lat="47.94093" lon="6.95093">
        <ele>592</ele>
        <time>2026-05-09T14:22:42.189Z</time>
      </trkpt>
      <trkpt lat="47.94092" lon="6.95093">
        <ele>593</ele>
        <time>2026-05-09T14:22:43.189Z</time>
      </trkpt>
      <trkpt lat="47.94091" lon="6.95094">
        <ele>593</ele>
        <time>2026-05-09T14:22:44.188Z</time>
      </trkpt>
      <trkpt lat="47.94091" lon="6.95095">
        <ele>594</ele>
        <time>2026-05-09T14:22:45.189Z</time>
      </trkpt>
      <trkpt lat="47.9409" lon="6.95096">
        <ele>594</ele>
        <time>2026-05-09T14:22:46.188Z</time>
      </trkpt>
      <trkpt lat="47.94089" lon="6.95097">
        <ele>595</ele>
        <time>2026-05-09T14:22:47.189Z</time>
      </trkpt>
      <trkpt lat="47.94088" lon="6.95098">
        <ele>596</ele>
        <time>2026-05-09T14:22:48.189Z</time>
      </trkpt>
      <trkpt lat="47.94087" lon="6.95099">
        <ele>596</ele>
        <time>2026-05-09T14:22:49.188Z</time>
      </trkpt>
      <trkpt lat="47.94087" lon="6.95101">
        <ele>597</ele>
        <time>2026-05-09T14:22:50.189Z</time>
      </trkpt>
      <trkpt lat="47.94086" lon="6.95103">
        <ele>598</ele>
        <time>2026-05-09T14:22:51.188Z</time>
      </trkpt>
      <trkpt lat="47.94086" lon="6.95104">
        <ele>598</ele>
        <time>2026-05-09T14:22:52.188Z</time>
      </trkpt>
      <trkpt lat="47.94085" lon="6.95106">
        <ele>599</ele>
        <time>2026-05-09T14:22:53.189Z</time>
      </trkpt>
      <trkpt lat="47.94084" lon="6.95107">
        <ele>599</ele>
        <time>2026-05-09T14:22:54.188Z</time>
      </trkpt>
      <trkpt lat="47.94085" lon="6.95108">
        <ele>600</ele>
        <time>2026-05-09T14:22:55.189Z</time>
      </trkpt>
      <trkpt lat="47.94084" lon="6.95109">
        <ele>601</ele>
        <time>2026-05-09T14:22:56.189Z</time>
      </trkpt>
      <trkpt lat="47.94084" lon="6.95109">
        <ele>602</ele>
        <time>2026-05-09T14:22:57.189Z</time>
      </trkpt>
      <trkpt lat="47.94084" lon="6.9511">
        <ele>603</ele>
        <time>2026-05-09T14:22:58.188Z</time>
      </trkpt>
      <trkpt lat="47.94083" lon="6.95111">
        <ele>604</ele>
        <time>2026-05-09T14:22:59.189Z</time>
      </trkpt>
      <trkpt lat="47.94083" lon="6.95112">
        <ele>605</ele>
        <time>2026-05-09T14:23:00.189Z</time>
      </trkpt>
      <trkpt lat="47.94082" lon="6.95113">
        <ele>606</ele>
        <time>2026-05-09T14:23:01.188Z</time>
      </trkpt>
      <trkpt lat="47.94081" lon="6.95115">
        <ele>607</ele>
        <time>2026-05-09T14:23:02.189Z</time>
      </trkpt>
      <trkpt lat="47.94081" lon="6.95116">
        <ele>608</ele>
        <time>2026-05-09T14:23:03.188Z</time>
      </trkpt>
      <trkpt lat="47.9408" lon="6.95117">
        <ele>608</ele>
        <time>2026-05-09T14:23:04.189Z</time>
      </trkpt>
      <trkpt lat="47.94079" lon="6.95118">
        <ele>609</ele>
        <time>2026-05-09T14:23:05.188Z</time>
      </trkpt>
      <trkpt lat="47.94078" lon="6.95119">
        <ele>609</ele>
        <time>2026-05-09T14:23:06.188Z</time>
      </trkpt>
      <trkpt lat="47.94078" lon="6.95119">
        <ele>609</ele>
        <time>2026-05-09T14:23:07.188Z</time>
      </trkpt>
      <trkpt lat="47.94078" lon="6.95119">
        <ele>610</ele>
        <time>2026-05-09T14:23:08.188Z</time>
      </trkpt>
      <trkpt lat="47.94078" lon="6.95121">
        <ele>610</ele>
        <time>2026-05-09T14:23:09.189Z</time>
      </trkpt>
      <trkpt lat="47.94077" lon="6.95123">
        <ele>610</ele>
        <time>2026-05-09T14:23:10.188Z</time>
      </trkpt>
      <trkpt lat="47.94076" lon="6.95124">
        <ele>610</ele>
        <time>2026-05-09T14:23:11.189Z</time>
      </trkpt>
      <trkpt lat="47.94076" lon="6.95125">
        <ele>610</ele>
        <time>2026-05-09T14:23:12.188Z</time>
      </trkpt>
      <trkpt lat="47.94075" lon="6.95126">
        <ele>610</ele>
        <time>2026-05-09T14:23:13.189Z</time>
      </trkpt>
      <trkpt lat="47.94075" lon="6.95127">
        <ele>610</ele>
        <time>2026-05-09T14:23:14.189Z</time>
      </trkpt>
      <trkpt lat="47.94074" lon="6.95128">
        <ele>610</ele>
        <time>2026-05-09T14:23:15.188Z</time>
      </trkpt>
      <trkpt lat="47.94073" lon="6.9513">
        <ele>610</ele>
        <time>2026-05-09T14:23:16.189Z</time>
      </trkpt>
      <trkpt lat="47.94072" lon="6.95131">
        <ele>610</ele>
        <time>2026-05-09T14:23:17.188Z</time>
      </trkpt>
      <trkpt lat="47.94071" lon="6.95131">
        <ele>610</ele>
        <time>2026-05-09T14:23:18.188Z</time>
      </trkpt>
      <trkpt lat="47.9407" lon="6.95131">
        <ele>610</ele>
        <time>2026-05-09T14:23:19.189Z</time>
      </trkpt>
      <trkpt lat="47.9407" lon="6.9513">
        <ele>610</ele>
        <time>2026-05-09T14:23:20.188Z</time>
      </trkpt>
      <trkpt lat="47.94069" lon="6.95131">
        <ele>609</ele>
        <time>2026-05-09T14:23:21.189Z</time>
      </trkpt>
      <trkpt lat="47.94069" lon="6.95131">
        <ele>609</ele>
        <time>2026-05-09T14:23:22.189Z</time>
      </trkpt>
      <trkpt lat="47.94069" lon="6.95133">
        <ele>609</ele>
        <time>2026-05-09T14:23:23.189Z</time>
      </trkpt>
      <trkpt lat="47.94068" lon="6.95134">
        <ele>609</ele>
        <time>2026-05-09T14:23:24.189Z</time>
      </trkpt>
      <trkpt lat="47.94068" lon="6.95136">
        <ele>609</ele>
        <time>2026-05-09T14:23:25.188Z</time>
      </trkpt>
      <trkpt lat="47.94068" lon="6.95137">
        <ele>609</ele>
        <time>2026-05-09T14:23:26.188Z</time>
      </trkpt>
      <trkpt lat="47.94068" lon="6.95137">
        <ele>609</ele>
        <time>2026-05-09T14:23:27.189Z</time>
      </trkpt>
      <trkpt lat="47.94067" lon="6.95138">
        <ele>610</ele>
        <time>2026-05-09T14:23:28.188Z</time>
      </trkpt>
      <trkpt lat="47.94067" lon="6.95139">
        <ele>610</ele>
        <time>2026-05-09T14:23:29.189Z</time>
      </trkpt>
      <trkpt lat="47.94066" lon="6.95139">
        <ele>609</ele>
        <time>2026-05-09T14:23:30.188Z</time>
      </trkpt>
      <trkpt lat="47.94065" lon="6.95139">
        <ele>609</ele>
        <time>2026-05-09T14:23:31.189Z</time>
      </trkpt>
      <trkpt lat="47.94065" lon="6.9514">
        <ele>609</ele>
        <time>2026-05-09T14:23:32.189Z</time>
      </trkpt>
      <trkpt lat="47.94064" lon="6.95141">
        <ele>609</ele>
        <time>2026-05-09T14:23:33.188Z</time>
      </trkpt>
      <trkpt lat="47.94064" lon="6.95142">
        <ele>609</ele>
        <time>2026-05-09T14:23:34.189Z</time>
      </trkpt>
      <trkpt lat="47.94063" lon="6.95144">
        <ele>609</ele>
        <time>2026-05-09T14:23:35.188Z</time>
      </trkpt>
      <trkpt lat="47.94063" lon="6.95144">
        <ele>610</ele>
        <time>2026-05-09T14:23:36.189Z</time>
      </trkpt>
      <trkpt lat="47.94063" lon="6.95145">
        <ele>610</ele>
        <time>2026-05-09T14:23:37.188Z</time>
      </trkpt>
      <trkpt lat="47.94063" lon="6.95146">
        <ele>610</ele>
        <time>2026-05-09T14:23:38.188Z</time>
      </trkpt>
      <trkpt lat="47.94062" lon="6.95147">
        <ele>610</ele>
        <time>2026-05-09T14:23:39.189Z</time>
      </trkpt>
      <trkpt lat="47.94062" lon="6.95148">
        <ele>610</ele>
        <time>2026-05-09T14:23:40.188Z</time>
      </trkpt>
      <trkpt lat="47.94062" lon="6.95149">
        <ele>610</ele>
        <time>2026-05-09T14:23:41.189Z</time>
      </trkpt>
      <trkpt lat="47.94062" lon="6.9515">
        <ele>611</ele>
        <time>2026-05-09T14:23:42.188Z</time>
      </trkpt>
      <trkpt lat="47.94061" lon="6.95151">
        <ele>611</ele>
        <time>2026-05-09T14:23:43.189Z</time>
      </trkpt>
      <trkpt lat="47.9406" lon="6.95152">
        <ele>611</ele>
        <time>2026-05-09T14:23:44.188Z</time>
      </trkpt>
      <trkpt lat="47.9406" lon="6.95154">
        <ele>611</ele>
        <time>2026-05-09T14:23:45.189Z</time>
      </trkpt>
      <trkpt lat="47.94059" lon="6.95154">
        <ele>611</ele>
        <time>2026-05-09T14:23:46.188Z</time>
      </trkpt>
      <trkpt lat="47.94059" lon="6.95155">
        <ele>611</ele>
        <time>2026-05-09T14:23:47.188Z</time>
      </trkpt>
      <trkpt lat="47.9406" lon="6.95156">
        <ele>611</ele>
        <time>2026-05-09T14:23:48.189Z</time>
      </trkpt>
      <trkpt lat="47.9406" lon="6.95157">
        <ele>611</ele>
        <time>2026-05-09T14:23:49.188Z</time>
      </trkpt>
      <trkpt lat="47.9406" lon="6.95157">
        <ele>611</ele>
        <time>2026-05-09T14:23:50.188Z</time>
      </trkpt>
      <trkpt lat="47.9406" lon="6.95158">
        <ele>610</ele>
        <time>2026-05-09T14:23:51.189Z</time>
      </trkpt>
      <trkpt lat="47.9406" lon="6.9516">
        <ele>609</ele>
        <time>2026-05-09T14:23:52.188Z</time>
      </trkpt>
      <trkpt lat="47.9406" lon="6.95161">
        <ele>608</ele>
        <time>2026-05-09T14:23:53.189Z</time>
      </trkpt>
      <trkpt lat="47.94059" lon="6.95162">
        <ele>608</ele>
        <time>2026-05-09T14:23:54.188Z</time>
      </trkpt>
      <trkpt lat="47.94059" lon="6.95164">
        <ele>607</ele>
        <time>2026-05-09T14:23:55.189Z</time>
      </trkpt>
      <trkpt lat="47.94059" lon="6.95165">
        <ele>607</ele>
        <time>2026-05-09T14:23:56.188Z</time>
      </trkpt>
      <trkpt lat="47.94058" lon="6.95166">
        <ele>607</ele>
        <time>2026-05-09T14:23:57.189Z</time>
      </trkpt>
      <trkpt lat="47.94058" lon="6.95167">
        <ele>607</ele>
        <time>2026-05-09T14:23:58.189Z</time>
      </trkpt>
      <trkpt lat="47.94057" lon="6.95168">
        <ele>607</ele>
        <time>2026-05-09T14:23:59.188Z</time>
      </trkpt>
      <trkpt lat="47.94056" lon="6.95169">
        <ele>606</ele>
        <time>2026-05-09T14:24:00.189Z</time>
      </trkpt>
      <trkpt lat="47.94056" lon="6.9517">
        <ele>606</ele>
        <time>2026-05-09T14:24:01.188Z</time>
      </trkpt>
      <trkpt lat="47.94056" lon="6.95171">
        <ele>606</ele>
        <time>2026-05-09T14:24:02.188Z</time>
      </trkpt>
      <trkpt lat="47.94055" lon="6.95172">
        <ele>606</ele>
        <time>2026-05-09T14:24:03.189Z</time>
      </trkpt>
      <trkpt lat="47.94054" lon="6.95172">
        <ele>606</ele>
        <time>2026-05-09T14:24:04.188Z</time>
      </trkpt>
      <trkpt lat="47.94054" lon="6.95173">
        <ele>606</ele>
        <time>2026-05-09T14:24:05.188Z</time>
      </trkpt>
      <trkpt lat="47.94053" lon="6.95175">
        <ele>606</ele>
        <time>2026-05-09T14:24:06.188Z</time>
      </trkpt>
      <trkpt lat="47.94054" lon="6.95179">
        <ele>606</ele>
        <time>2026-05-09T14:24:07.189Z</time>
      </trkpt>
      <trkpt lat="47.94054" lon="6.95182">
        <ele>606</ele>
        <time>2026-05-09T14:24:08.188Z</time>
      </trkpt>
      <trkpt lat="47.94054" lon="6.95185">
        <ele>607</ele>
        <time>2026-05-09T14:24:09.189Z</time>
      </trkpt>
      <trkpt lat="47.94054" lon="6.95187">
        <ele>607</ele>
        <time>2026-05-09T14:24:10.189Z</time>
      </trkpt>
      <trkpt lat="47.94054" lon="6.9519">
        <ele>608</ele>
        <time>2026-05-09T14:24:11.188Z</time>
      </trkpt>
      <trkpt lat="47.94053" lon="6.95192">
        <ele>608</ele>
        <time>2026-05-09T14:24:12.188Z</time>
      </trkpt>
      <trkpt lat="47.94052" lon="6.95194">
        <ele>609</ele>
        <time>2026-05-09T14:24:13.189Z</time>
      </trkpt>
      <trkpt lat="47.94053" lon="6.95196">
        <ele>610</ele>
        <time>2026-05-09T14:24:14.189Z</time>
      </trkpt>
      <trkpt lat="47.94051" lon="6.95198">
        <ele>610</ele>
        <time>2026-05-09T14:24:15.188Z</time>
      </trkpt>
      <trkpt lat="47.9405" lon="6.95199">
        <ele>611</ele>
        <time>2026-05-09T14:24:16.189Z</time>
      </trkpt>
      <trkpt lat="47.94049" lon="6.95201">
        <ele>611</ele>
        <time>2026-05-09T14:24:17.188Z</time>
      </trkpt>
      <trkpt lat="47.94049" lon="6.95201">
        <ele>611</ele>
        <time>2026-05-09T14:24:18.189Z</time>
      </trkpt>
      <trkpt lat="47.94048" lon="6.95202">
        <ele>611</ele>
        <time>2026-05-09T14:24:19.188Z</time>
      </trkpt>
      <trkpt lat="47.94047" lon="6.95203">
        <ele>612</ele>
        <time>2026-05-09T14:24:20.189Z</time>
      </trkpt>
      <trkpt lat="47.94046" lon="6.95204">
        <ele>612</ele>
        <time>2026-05-09T14:24:21.189Z</time>
      </trkpt>
      <trkpt lat="47.94046" lon="6.95205">
        <ele>612</ele>
        <time>2026-05-09T14:24:22.188Z</time>
      </trkpt>
      <trkpt lat="47.94045" lon="6.95206">
        <ele>613</ele>
        <time>2026-05-09T14:24:23.189Z</time>
      </trkpt>
      <trkpt lat="47.94044" lon="6.95206">
        <ele>613</ele>
        <time>2026-05-09T14:24:24.189Z</time>
      </trkpt>
      <trkpt lat="47.94043" lon="6.95206">
        <ele>614</ele>
        <time>2026-05-09T14:24:25.188Z</time>
      </trkpt>
      <trkpt lat="47.94042" lon="6.95206">
        <ele>614</ele>
        <time>2026-05-09T14:24:26.188Z</time>
      </trkpt>
      <trkpt lat="47.94042" lon="6.95204">
        <ele>614</ele>
        <time>2026-05-09T14:24:27.189Z</time>
      </trkpt>
      <trkpt lat="47.94041" lon="6.95203">
        <ele>615</ele>
        <time>2026-05-09T14:24:28.188Z</time>
      </trkpt>
      <trkpt lat="47.9404" lon="6.95202">
        <ele>615</ele>
        <time>2026-05-09T14:24:29.188Z</time>
      </trkpt>
      <trkpt lat="47.94039" lon="6.95202">
        <ele>615</ele>
        <time>2026-05-09T14:24:30.188Z</time>
      </trkpt>
      <trkpt lat="47.94038" lon="6.95201">
        <ele>615</ele>
        <time>2026-05-09T14:24:31.188Z</time>
      </trkpt>
      <trkpt lat="47.94037" lon="6.95202">
        <ele>616</ele>
        <time>2026-05-09T14:24:32.188Z</time>
      </trkpt>
      <trkpt lat="47.94037" lon="6.95202">
        <ele>616</ele>
        <time>2026-05-09T14:24:33.189Z</time>
      </trkpt>
      <trkpt lat="47.94036" lon="6.95202">
        <ele>617</ele>
        <time>2026-05-09T14:24:34.189Z</time>
      </trkpt>
      <trkpt lat="47.94035" lon="6.95202">
        <ele>617</ele>
        <time>2026-05-09T14:24:35.189Z</time>
      </trkpt>
      <trkpt lat="47.94035" lon="6.95202">
        <ele>617</ele>
        <time>2026-05-09T14:24:36.188Z</time>
      </trkpt>
      <trkpt lat="47.94035" lon="6.95203">
        <ele>618</ele>
        <time>2026-05-09T14:24:37.189Z</time>
      </trkpt>
      <trkpt lat="47.94035" lon="6.95203">
        <ele>618</ele>
        <time>2026-05-09T14:24:38.188Z</time>
      </trkpt>
      <trkpt lat="47.94035" lon="6.95204">
        <ele>618</ele>
        <time>2026-05-09T14:24:39.188Z</time>
      </trkpt>
      <trkpt lat="47.94034" lon="6.95204">
        <ele>619</ele>
        <time>2026-05-09T14:24:40.189Z</time>
      </trkpt>
      <trkpt lat="47.94033" lon="6.95204">
        <ele>619</ele>
        <time>2026-05-09T14:24:41.189Z</time>
      </trkpt>
      <trkpt lat="47.94033" lon="6.95204">
        <ele>620</ele>
        <time>2026-05-09T14:24:42.188Z</time>
      </trkpt>
      <trkpt lat="47.94032" lon="6.95204">
        <ele>620</ele>
        <time>2026-05-09T14:24:43.188Z</time>
      </trkpt>
      <trkpt lat="47.94032" lon="6.95204">
        <ele>621</ele>
        <time>2026-05-09T14:24:44.188Z</time>
      </trkpt>
      <trkpt lat="47.94031" lon="6.95204">
        <ele>621</ele>
        <time>2026-05-09T14:24:45.189Z</time>
      </trkpt>
      <trkpt lat="47.94031" lon="6.95203">
        <ele>622</ele>
        <time>2026-05-09T14:24:46.188Z</time>
      </trkpt>
      <trkpt lat="47.9403" lon="6.95203">
        <ele>622</ele>
        <time>2026-05-09T14:24:47.189Z</time>
      </trkpt>
      <trkpt lat="47.94029" lon="6.95202">
        <ele>622</ele>
        <time>2026-05-09T14:24:48.189Z</time>
      </trkpt>
      <trkpt lat="47.94028" lon="6.95203">
        <ele>621</ele>
        <time>2026-05-09T14:24:49.188Z</time>
      </trkpt>
      <trkpt lat="47.94028" lon="6.95202">
        <ele>621</ele>
        <time>2026-05-09T14:24:50.188Z</time>
      </trkpt>
      <trkpt lat="47.94027" lon="6.95203">
        <ele>621</ele>
        <time>2026-05-09T14:24:51.189Z</time>
      </trkpt>
      <trkpt lat="47.94027" lon="6.95203">
        <ele>621</ele>
        <time>2026-05-09T14:24:52.189Z</time>
      </trkpt>
      <trkpt lat="47.94025" lon="6.95204">
        <ele>621</ele>
        <time>2026-05-09T14:24:53.189Z</time>
      </trkpt>
      <trkpt lat="47.94025" lon="6.95203">
        <ele>620</ele>
        <time>2026-05-09T14:24:54.188Z</time>
      </trkpt>
      <trkpt lat="47.94025" lon="6.95203">
        <ele>620</ele>
        <time>2026-05-09T14:24:55.189Z</time>
      </trkpt>
      <trkpt lat="47.94024" lon="6.95203">
        <ele>620</ele>
        <time>2026-05-09T14:24:56.189Z</time>
      </trkpt>
      <trkpt lat="47.94023" lon="6.95203">
        <ele>620</ele>
        <time>2026-05-09T14:24:57.189Z</time>
      </trkpt>
      <trkpt lat="47.94023" lon="6.95202">
        <ele>619</ele>
        <time>2026-05-09T14:24:58.188Z</time>
      </trkpt>
      <trkpt lat="47.94022" lon="6.95202">
        <ele>619</ele>
        <time>2026-05-09T14:24:59.189Z</time>
      </trkpt>
      <trkpt lat="47.94022" lon="6.95202">
        <ele>619</ele>
        <time>2026-05-09T14:25:00.188Z</time>
      </trkpt>
      <trkpt lat="47.94021" lon="6.95201">
        <ele>619</ele>
        <time>2026-05-09T14:25:01.188Z</time>
      </trkpt>
      <trkpt lat="47.9402" lon="6.95201">
        <ele>619</ele>
        <time>2026-05-09T14:25:02.188Z</time>
      </trkpt>
      <trkpt lat="47.94019" lon="6.95201">
        <ele>619</ele>
        <time>2026-05-09T14:25:03.189Z</time>
      </trkpt>
      <trkpt lat="47.94019" lon="6.95202">
        <ele>619</ele>
        <time>2026-05-09T14:25:04.189Z</time>
      </trkpt>
      <trkpt lat="47.94017" lon="6.95202">
        <ele>619</ele>
        <time>2026-05-09T14:25:05.189Z</time>
      </trkpt>
      <trkpt lat="47.94016" lon="6.95203">
        <ele>619</ele>
        <time>2026-05-09T14:25:06.188Z</time>
      </trkpt>
      <trkpt lat="47.94016" lon="6.95202">
        <ele>619</ele>
        <time>2026-05-09T14:25:07.189Z</time>
      </trkpt>
      <trkpt lat="47.94014" lon="6.95202">
        <ele>619</ele>
        <time>2026-05-09T14:25:08.189Z</time>
      </trkpt>
      <trkpt lat="47.94014" lon="6.95202">
        <ele>619</ele>
        <time>2026-05-09T14:25:09.189Z</time>
      </trkpt>
      <trkpt lat="47.94013" lon="6.95202">
        <ele>619</ele>
        <time>2026-05-09T14:25:10.188Z</time>
      </trkpt>
      <trkpt lat="47.94012" lon="6.95202">
        <ele>619</ele>
        <time>2026-05-09T14:25:11.188Z</time>
      </trkpt>
      <trkpt lat="47.94011" lon="6.95201">
        <ele>619</ele>
        <time>2026-05-09T14:25:12.188Z</time>
      </trkpt>
      <trkpt lat="47.9401" lon="6.95201">
        <ele>619</ele>
        <time>2026-05-09T14:25:13.188Z</time>
      </trkpt>
      <trkpt lat="47.9401" lon="6.95201">
        <ele>619</ele>
        <time>2026-05-09T14:25:14.188Z</time>
      </trkpt>
      <trkpt lat="47.94009" lon="6.95201">
        <ele>619</ele>
        <time>2026-05-09T14:25:15.189Z</time>
      </trkpt>
      <trkpt lat="47.94008" lon="6.95201">
        <ele>619</ele>
        <time>2026-05-09T14:25:16.189Z</time>
      </trkpt>
      <trkpt lat="47.94008" lon="6.95201">
        <ele>619</ele>
        <time>2026-05-09T14:25:17.188Z</time>
      </trkpt>
      <trkpt lat="47.94008" lon="6.95201">
        <ele>619</ele>
        <time>2026-05-09T14:25:18.189Z</time>
      </trkpt>
      <trkpt lat="47.94007" lon="6.952">
        <ele>619</ele>
        <time>2026-05-09T14:25:19.188Z</time>
      </trkpt>
      <trkpt lat="47.94006" lon="6.952">
        <ele>619</ele>
        <time>2026-05-09T14:25:20.188Z</time>
      </trkpt>
      <trkpt lat="47.94005" lon="6.952">
        <ele>619</ele>
        <time>2026-05-09T14:25:21.189Z</time>
      </trkpt>
      <trkpt lat="47.94005" lon="6.95199">
        <ele>619</ele>
        <time>2026-05-09T14:25:22.189Z</time>
      </trkpt>
      <trkpt lat="47.94004" lon="6.95199">
        <ele>619</ele>
        <time>2026-05-09T14:25:23.189Z</time>
      </trkpt>
      <trkpt lat="47.94004" lon="6.95199">
        <ele>619</ele>
        <time>2026-05-09T14:25:24.189Z</time>
      </trkpt>
      <trkpt lat="47.94004" lon="6.95198">
        <ele>619</ele>
        <time>2026-05-09T14:25:25.189Z</time>
      </trkpt>
      <trkpt lat="47.94003" lon="6.95197">
        <ele>619</ele>
        <time>2026-05-09T14:25:26.188Z</time>
      </trkpt>
      <trkpt lat="47.94002" lon="6.95196">
        <ele>619</ele>
        <time>2026-05-09T14:25:27.189Z</time>
      </trkpt>
      <trkpt lat="47.94001" lon="6.95196">
        <ele>619</ele>
        <time>2026-05-09T14:25:28.189Z</time>
      </trkpt>
      <trkpt lat="47.94" lon="6.95194">
        <ele>619</ele>
        <time>2026-05-09T14:25:29.189Z</time>
      </trkpt>
      <trkpt lat="47.93999" lon="6.95194">
        <ele>620</ele>
        <time>2026-05-09T14:25:30.189Z</time>
      </trkpt>
      <trkpt lat="47.93999" lon="6.95194">
        <ele>620</ele>
        <time>2026-05-09T14:25:31.188Z</time>
      </trkpt>
      <trkpt lat="47.93998" lon="6.95193">
        <ele>620</ele>
        <time>2026-05-09T14:25:32.188Z</time>
      </trkpt>
      <trkpt lat="47.93997" lon="6.95192">
        <ele>621</ele>
        <time>2026-05-09T14:25:33.188Z</time>
      </trkpt>
      <trkpt lat="47.93996" lon="6.95191">
        <ele>621</ele>
        <time>2026-05-09T14:25:34.188Z</time>
      </trkpt>
      <trkpt lat="47.93995" lon="6.9519">
        <ele>621</ele>
        <time>2026-05-09T14:25:35.188Z</time>
      </trkpt>
      <trkpt lat="47.93994" lon="6.9519">
        <ele>621</ele>
        <time>2026-05-09T14:25:36.188Z</time>
      </trkpt>
      <trkpt lat="47.93992" lon="6.95189">
        <ele>621</ele>
        <time>2026-05-09T14:25:37.189Z</time>
      </trkpt>
      <trkpt lat="47.9399" lon="6.95188">
        <ele>621</ele>
        <time>2026-05-09T14:25:38.189Z</time>
      </trkpt>
      <trkpt lat="47.9399" lon="6.95188">
        <ele>621</ele>
        <time>2026-05-09T14:25:39.189Z</time>
      </trkpt>
      <trkpt lat="47.93989" lon="6.95187">
        <ele>621</ele>
        <time>2026-05-09T14:25:40.188Z</time>
      </trkpt>
      <trkpt lat="47.93989" lon="6.95186">
        <ele>621</ele>
        <time>2026-05-09T14:25:41.188Z</time>
      </trkpt>
      <trkpt lat="47.93988" lon="6.95185">
        <ele>622</ele>
        <time>2026-05-09T14:25:42.188Z</time>
      </trkpt>
      <trkpt lat="47.93988" lon="6.95185">
        <ele>622</ele>
        <time>2026-05-09T14:25:43.188Z</time>
      </trkpt>
      <trkpt lat="47.93988" lon="6.95184">
        <ele>622</ele>
        <time>2026-05-09T14:25:44.188Z</time>
      </trkpt>
      <trkpt lat="47.93987" lon="6.95183">
        <ele>623</ele>
        <time>2026-05-09T14:25:45.188Z</time>
      </trkpt>
      <trkpt lat="47.93987" lon="6.95183">
        <ele>623</ele>
        <time>2026-05-09T14:25:46.188Z</time>
      </trkpt>
      <trkpt lat="47.93987" lon="6.95182">
        <ele>624</ele>
        <time>2026-05-09T14:25:47.189Z</time>
      </trkpt>
      <trkpt lat="47.93987" lon="6.95181">
        <ele>624</ele>
        <time>2026-05-09T14:25:48.189Z</time>
      </trkpt>
      <trkpt lat="47.93985" lon="6.95181">
        <ele>625</ele>
        <time>2026-05-09T14:25:49.189Z</time>
      </trkpt>
      <trkpt lat="47.93984" lon="6.9518">
        <ele>625</ele>
        <time>2026-05-09T14:25:50.189Z</time>
      </trkpt>
      <trkpt lat="47.93983" lon="6.95179">
        <ele>626</ele>
        <time>2026-05-09T14:25:51.188Z</time>
      </trkpt>
      <trkpt lat="47.93983" lon="6.95178">
        <ele>626</ele>
        <time>2026-05-09T14:25:52.188Z</time>
      </trkpt>
      <trkpt lat="47.93982" lon="6.95177">
        <ele>627</ele>
        <time>2026-05-09T14:25:53.189Z</time>
      </trkpt>
      <trkpt lat="47.93981" lon="6.95176">
        <ele>627</ele>
        <time>2026-05-09T14:25:54.189Z</time>
      </trkpt>
      <trkpt lat="47.93981" lon="6.95175">
        <ele>628</ele>
        <time>2026-05-09T14:25:55.189Z</time>
      </trkpt>
      <trkpt lat="47.93981" lon="6.95174">
        <ele>628</ele>
        <time>2026-05-09T14:25:56.188Z</time>
      </trkpt>
      <trkpt lat="47.93981" lon="6.95174">
        <ele>628</ele>
        <time>2026-05-09T14:25:57.188Z</time>
      </trkpt>
      <trkpt lat="47.9398" lon="6.95173">
        <ele>628</ele>
        <time>2026-05-09T14:25:58.188Z</time>
      </trkpt>
      <trkpt lat="47.9398" lon="6.95173">
        <ele>628</ele>
        <time>2026-05-09T14:25:59.189Z</time>
      </trkpt>
      <trkpt lat="47.9398" lon="6.95172">
        <ele>629</ele>
        <time>2026-05-09T14:26:00.188Z</time>
      </trkpt>
      <trkpt lat="47.93979" lon="6.95171">
        <ele>629</ele>
        <time>2026-05-09T14:26:01.188Z</time>
      </trkpt>
      <trkpt lat="47.93979" lon="6.95171">
        <ele>629</ele>
        <time>2026-05-09T14:26:02.189Z</time>
      </trkpt>
      <trkpt lat="47.93979" lon="6.9517">
        <ele>630</ele>
        <time>2026-05-09T14:26:03.189Z</time>
      </trkpt>
      <trkpt lat="47.93978" lon="6.95168">
        <ele>631</ele>
        <time>2026-05-09T14:26:04.189Z</time>
      </trkpt>
      <trkpt lat="47.93977" lon="6.95166">
        <ele>631</ele>
        <time>2026-05-09T14:26:05.189Z</time>
      </trkpt>
      <trkpt lat="47.93976" lon="6.95165">
        <ele>632</ele>
        <time>2026-05-09T14:26:06.188Z</time>
      </trkpt>
      <trkpt lat="47.93976" lon="6.95164">
        <ele>632</ele>
        <time>2026-05-09T14:26:07.188Z</time>
      </trkpt>
      <trkpt lat="47.93976" lon="6.95163">
        <ele>633</ele>
        <time>2026-05-09T14:26:08.188Z</time>
      </trkpt>
      <trkpt lat="47.93975" lon="6.95163">
        <ele>633</ele>
        <time>2026-05-09T14:26:09.188Z</time>
      </trkpt>
      <trkpt lat="47.93975" lon="6.95162">
        <ele>633</ele>
        <time>2026-05-09T14:26:10.188Z</time>
      </trkpt>
      <trkpt lat="47.93974" lon="6.95162">
        <ele>633</ele>
        <time>2026-05-09T14:26:11.189Z</time>
      </trkpt>
      <trkpt lat="47.93973" lon="6.95161">
        <ele>633</ele>
        <time>2026-05-09T14:26:12.188Z</time>
      </trkpt>
      <trkpt lat="47.93972" lon="6.9516">
        <ele>633</ele>
        <time>2026-05-09T14:26:13.189Z</time>
      </trkpt>
      <trkpt lat="47.93972" lon="6.95159">
        <ele>633</ele>
        <time>2026-05-09T14:26:14.188Z</time>
      </trkpt>
      <trkpt lat="47.93971" lon="6.95158">
        <ele>633</ele>
        <time>2026-05-09T14:26:15.189Z</time>
      </trkpt>
      <trkpt lat="47.9397" lon="6.95157">
        <ele>633</ele>
        <time>2026-05-09T14:26:16.188Z</time>
      </trkpt>
      <trkpt lat="47.9397" lon="6.95155">
        <ele>633</ele>
        <time>2026-05-09T14:26:17.188Z</time>
      </trkpt>
      <trkpt lat="47.93969" lon="6.95154">
        <ele>632</ele>
        <time>2026-05-09T14:26:18.188Z</time>
      </trkpt>
      <trkpt lat="47.93968" lon="6.95153">
        <ele>632</ele>
        <time>2026-05-09T14:26:19.188Z</time>
      </trkpt>
      <trkpt lat="47.93967" lon="6.95152">
        <ele>632</ele>
        <time>2026-05-09T14:26:20.188Z</time>
      </trkpt>
      <trkpt lat="47.93967" lon="6.95151">
        <ele>631</ele>
        <time>2026-05-09T14:26:21.189Z</time>
      </trkpt>
      <trkpt lat="47.93966" lon="6.95151">
        <ele>631</ele>
        <time>2026-05-09T14:26:22.188Z</time>
      </trkpt>
      <trkpt lat="47.93966" lon="6.9515">
        <ele>630</ele>
        <time>2026-05-09T14:26:23.188Z</time>
      </trkpt>
      <trkpt lat="47.93966" lon="6.9515">
        <ele>630</ele>
        <time>2026-05-09T14:26:24.189Z</time>
      </trkpt>
      <trkpt lat="47.93966" lon="6.95149">
        <ele>629</ele>
        <time>2026-05-09T14:26:25.189Z</time>
      </trkpt>
      <trkpt lat="47.93967" lon="6.95149">
        <ele>629</ele>
        <time>2026-05-09T14:26:26.189Z</time>
      </trkpt>
      <trkpt lat="47.93967" lon="6.95148">
        <ele>629</ele>
        <time>2026-05-09T14:26:27.188Z</time>
      </trkpt>
      <trkpt lat="47.93967" lon="6.95148">
        <ele>629</ele>
        <time>2026-05-09T14:26:28.188Z</time>
      </trkpt>
      <trkpt lat="47.93966" lon="6.95147">
        <ele>629</ele>
        <time>2026-05-09T14:26:29.189Z</time>
      </trkpt>
      <trkpt lat="47.93966" lon="6.95146">
        <ele>629</ele>
        <time>2026-05-09T14:26:30.188Z</time>
      </trkpt>
      <trkpt lat="47.93966" lon="6.95145">
        <ele>629</ele>
        <time>2026-05-09T14:26:31.189Z</time>
      </trkpt>
      <trkpt lat="47.93966" lon="6.95145">
        <ele>629</ele>
        <time>2026-05-09T14:26:32.188Z</time>
      </trkpt>
      <trkpt lat="47.93966" lon="6.95144">
        <ele>628</ele>
        <time>2026-05-09T14:26:33.189Z</time>
      </trkpt>
      <trkpt lat="47.93966" lon="6.95142">
        <ele>628</ele>
        <time>2026-05-09T14:26:34.188Z</time>
      </trkpt>
      <trkpt lat="47.93965" lon="6.95141">
        <ele>628</ele>
        <time>2026-05-09T14:26:35.188Z</time>
      </trkpt>
      <trkpt lat="47.93964" lon="6.95139">
        <ele>628</ele>
        <time>2026-05-09T14:26:36.189Z</time>
      </trkpt>
      <trkpt lat="47.93964" lon="6.95138">
        <ele>628</ele>
        <time>2026-05-09T14:26:37.189Z</time>
      </trkpt>
      <trkpt lat="47.93964" lon="6.95138">
        <ele>628</ele>
        <time>2026-05-09T14:26:38.189Z</time>
      </trkpt>
      <trkpt lat="47.93963" lon="6.95137">
        <ele>628</ele>
        <time>2026-05-09T14:26:39.189Z</time>
      </trkpt>
      <trkpt lat="47.93963" lon="6.95137">
        <ele>628</ele>
        <time>2026-05-09T14:26:40.189Z</time>
      </trkpt>
      <trkpt lat="47.93962" lon="6.95135">
        <ele>629</ele>
        <time>2026-05-09T14:26:41.189Z</time>
      </trkpt>
      <trkpt lat="47.93962" lon="6.95135">
        <ele>629</ele>
        <time>2026-05-09T14:26:42.189Z</time>
      </trkpt>
      <trkpt lat="47.93961" lon="6.95135">
        <ele>630</ele>
        <time>2026-05-09T14:26:43.188Z</time>
      </trkpt>
      <trkpt lat="47.93961" lon="6.95134">
        <ele>631</ele>
        <time>2026-05-09T14:26:44.188Z</time>
      </trkpt>
      <trkpt lat="47.93961" lon="6.95134">
        <ele>632</ele>
        <time>2026-05-09T14:26:45.188Z</time>
      </trkpt>
      <trkpt lat="47.93961" lon="6.95134">
        <ele>633</ele>
        <time>2026-05-09T14:26:46.189Z</time>
      </trkpt>
      <trkpt lat="47.93961" lon="6.95132">
        <ele>633</ele>
        <time>2026-05-09T14:26:47.189Z</time>
      </trkpt>
      <trkpt lat="47.93961" lon="6.9513">
        <ele>634</ele>
        <time>2026-05-09T14:26:48.189Z</time>
      </trkpt>
      <trkpt lat="47.93961" lon="6.95128">
        <ele>634</ele>
        <time>2026-05-09T14:26:49.189Z</time>
      </trkpt>
      <trkpt lat="47.93961" lon="6.95127">
        <ele>635</ele>
        <time>2026-05-09T14:26:50.188Z</time>
      </trkpt>
      <trkpt lat="47.9396" lon="6.95125">
        <ele>635</ele>
        <time>2026-05-09T14:26:51.188Z</time>
      </trkpt>
      <trkpt lat="47.9396" lon="6.95123">
        <ele>636</ele>
        <time>2026-05-09T14:26:52.189Z</time>
      </trkpt>
      <trkpt lat="47.93961" lon="6.95122">
        <ele>636</ele>
        <time>2026-05-09T14:26:53.189Z</time>
      </trkpt>
      <trkpt lat="47.9396" lon="6.9512">
        <ele>637</ele>
        <time>2026-05-09T14:26:54.188Z</time>
      </trkpt>
      <trkpt lat="47.9396" lon="6.95119">
        <ele>637</ele>
        <time>2026-05-09T14:26:55.189Z</time>
      </trkpt>
      <trkpt lat="47.93959" lon="6.95118">
        <ele>638</ele>
        <time>2026-05-09T14:26:56.188Z</time>
      </trkpt>
      <trkpt lat="47.93959" lon="6.95117">
        <ele>638</ele>
        <time>2026-05-09T14:26:57.189Z</time>
      </trkpt>
      <trkpt lat="47.93959" lon="6.95116">
        <ele>638</ele>
        <time>2026-05-09T14:26:58.189Z</time>
      </trkpt>
      <trkpt lat="47.93959" lon="6.95116">
        <ele>638</ele>
        <time>2026-05-09T14:26:59.188Z</time>
      </trkpt>
      <trkpt lat="47.93959" lon="6.95115">
        <ele>639</ele>
        <time>2026-05-09T14:27:00.189Z</time>
      </trkpt>
      <trkpt lat="47.93958" lon="6.95114">
        <ele>639</ele>
        <time>2026-05-09T14:27:01.188Z</time>
      </trkpt>
      <trkpt lat="47.93958" lon="6.95112">
        <ele>640</ele>
        <time>2026-05-09T14:27:02.189Z</time>
      </trkpt>
      <trkpt lat="47.93958" lon="6.95111">
        <ele>641</ele>
        <time>2026-05-09T14:27:03.188Z</time>
      </trkpt>
      <trkpt lat="47.93958" lon="6.9511">
        <ele>642</ele>
        <time>2026-05-09T14:27:04.188Z</time>
      </trkpt>
      <trkpt lat="47.93958" lon="6.95109">
        <ele>643</ele>
        <time>2026-05-09T14:27:05.188Z</time>
      </trkpt>
      <trkpt lat="47.93958" lon="6.95108">
        <ele>644</ele>
        <time>2026-05-09T14:27:06.189Z</time>
      </trkpt>
      <trkpt lat="47.93958" lon="6.95107">
        <ele>644</ele>
        <time>2026-05-09T14:27:07.188Z</time>
      </trkpt>
      <trkpt lat="47.93957" lon="6.95106">
        <ele>645</ele>
        <time>2026-05-09T14:27:08.189Z</time>
      </trkpt>
      <trkpt lat="47.93957" lon="6.95105">
        <ele>646</ele>
        <time>2026-05-09T14:27:09.188Z</time>
      </trkpt>
      <trkpt lat="47.93956" lon="6.95104">
        <ele>646</ele>
        <time>2026-05-09T14:27:10.188Z</time>
      </trkpt>
      <trkpt lat="47.93956" lon="6.95104">
        <ele>647</ele>
        <time>2026-05-09T14:27:11.189Z</time>
      </trkpt>
      <trkpt lat="47.93956" lon="6.95103">
        <ele>647</ele>
        <time>2026-05-09T14:27:12.188Z</time>
      </trkpt>
      <trkpt lat="47.93955" lon="6.95102">
        <ele>648</ele>
        <time>2026-05-09T14:27:13.188Z</time>
      </trkpt>
      <trkpt lat="47.93955" lon="6.95101">
        <ele>648</ele>
        <time>2026-05-09T14:27:14.189Z</time>
      </trkpt>
      <trkpt lat="47.93954" lon="6.95099">
        <ele>649</ele>
        <time>2026-05-09T14:27:15.189Z</time>
      </trkpt>
      <trkpt lat="47.93953" lon="6.95097">
        <ele>649</ele>
        <time>2026-05-09T14:27:16.189Z</time>
      </trkpt>
      <trkpt lat="47.93953" lon="6.95097">
        <ele>649</ele>
        <time>2026-05-09T14:27:17.188Z</time>
      </trkpt>
      <trkpt lat="47.93953" lon="6.95096">
        <ele>650</ele>
        <time>2026-05-09T14:27:18.188Z</time>
      </trkpt>
      <trkpt lat="47.93952" lon="6.95096">
        <ele>650</ele>
        <time>2026-05-09T14:27:19.188Z</time>
      </trkpt>
      <trkpt lat="47.93952" lon="6.95096">
        <ele>650</ele>
        <time>2026-05-09T14:27:20.188Z</time>
      </trkpt>
      <trkpt lat="47.93951" lon="6.95094">
        <ele>650</ele>
        <time>2026-05-09T14:27:21.188Z</time>
      </trkpt>
      <trkpt lat="47.9395" lon="6.95094">
        <ele>651</ele>
        <time>2026-05-09T14:27:22.188Z</time>
      </trkpt>
      <trkpt lat="47.93949" lon="6.95093">
        <ele>651</ele>
        <time>2026-05-09T14:27:23.188Z</time>
      </trkpt>
      <trkpt lat="47.93947" lon="6.95092">
        <ele>651</ele>
        <time>2026-05-09T14:27:24.188Z</time>
      </trkpt>
      <trkpt lat="47.93946" lon="6.95091">
        <ele>652</ele>
        <time>2026-05-09T14:27:25.188Z</time>
      </trkpt>
      <trkpt lat="47.93946" lon="6.95091">
        <ele>652</ele>
        <time>2026-05-09T14:27:26.188Z</time>
      </trkpt>
      <trkpt lat="47.93946" lon="6.95091">
        <ele>652</ele>
        <time>2026-05-09T14:27:27.188Z</time>
      </trkpt>
      <trkpt lat="47.93944" lon="6.95091">
        <ele>653</ele>
        <time>2026-05-09T14:27:28.188Z</time>
      </trkpt>
      <trkpt lat="47.93943" lon="6.9509">
        <ele>653</ele>
        <time>2026-05-09T14:27:29.189Z</time>
      </trkpt>
      <trkpt lat="47.93943" lon="6.9509">
        <ele>653</ele>
        <time>2026-05-09T14:27:30.188Z</time>
      </trkpt>
      <trkpt lat="47.93942" lon="6.95089">
        <ele>653</ele>
        <time>2026-05-09T14:27:31.188Z</time>
      </trkpt>
      <trkpt lat="47.93941" lon="6.95089">
        <ele>653</ele>
        <time>2026-05-09T14:27:32.188Z</time>
      </trkpt>
      <trkpt lat="47.9394" lon="6.95088">
        <ele>653</ele>
        <time>2026-05-09T14:27:33.188Z</time>
      </trkpt>
      <trkpt lat="47.93939" lon="6.95088">
        <ele>653</ele>
        <time>2026-05-09T14:27:34.189Z</time>
      </trkpt>
      <trkpt lat="47.93938" lon="6.95087">
        <ele>653</ele>
        <time>2026-05-09T14:27:35.189Z</time>
      </trkpt>
      <trkpt lat="47.93937" lon="6.95086">
        <ele>653</ele>
        <time>2026-05-09T14:27:36.189Z</time>
      </trkpt>
      <trkpt lat="47.93936" lon="6.95085">
        <ele>654</ele>
        <time>2026-05-09T14:27:37.188Z</time>
      </trkpt>
      <trkpt lat="47.93935" lon="6.95084">
        <ele>654</ele>
        <time>2026-05-09T14:27:38.188Z</time>
      </trkpt>
      <trkpt lat="47.93934" lon="6.95082">
        <ele>654</ele>
        <time>2026-05-09T14:27:39.188Z</time>
      </trkpt>
      <trkpt lat="47.93933" lon="6.95082">
        <ele>654</ele>
        <time>2026-05-09T14:27:40.188Z</time>
      </trkpt>
      <trkpt lat="47.93933" lon="6.95081">
        <ele>654</ele>
        <time>2026-05-09T14:27:41.189Z</time>
      </trkpt>
      <trkpt lat="47.93932" lon="6.9508">
        <ele>654</ele>
        <time>2026-05-09T14:27:42.189Z</time>
      </trkpt>
      <trkpt lat="47.93932" lon="6.9508">
        <ele>654</ele>
        <time>2026-05-09T14:27:43.189Z</time>
      </trkpt>
      <trkpt lat="47.93931" lon="6.95079">
        <ele>654</ele>
        <time>2026-05-09T14:27:44.189Z</time>
      </trkpt>
      <trkpt lat="47.9393" lon="6.95079">
        <ele>654</ele>
        <time>2026-05-09T14:27:45.189Z</time>
      </trkpt>
      <trkpt lat="47.9393" lon="6.95078">
        <ele>655</ele>
        <time>2026-05-09T14:27:46.188Z</time>
      </trkpt>
      <trkpt lat="47.93929" lon="6.95076">
        <ele>655</ele>
        <time>2026-05-09T14:27:47.188Z</time>
      </trkpt>
      <trkpt lat="47.93929" lon="6.95074">
        <ele>655</ele>
        <time>2026-05-09T14:27:48.188Z</time>
      </trkpt>
      <trkpt lat="47.93929" lon="6.95073">
        <ele>654</ele>
        <time>2026-05-09T14:27:49.188Z</time>
      </trkpt>
      <trkpt lat="47.93929" lon="6.95072">
        <ele>654</ele>
        <time>2026-05-09T14:27:50.188Z</time>
      </trkpt>
      <trkpt lat="47.93928" lon="6.95071">
        <ele>654</ele>
        <time>2026-05-09T14:27:51.188Z</time>
      </trkpt>
      <trkpt lat="47.93927" lon="6.9507">
        <ele>653</ele>
        <time>2026-05-09T14:27:52.188Z</time>
      </trkpt>
      <trkpt lat="47.93926" lon="6.95069">
        <ele>653</ele>
        <time>2026-05-09T14:27:53.188Z</time>
      </trkpt>
      <trkpt lat="47.93925" lon="6.95069">
        <ele>652</ele>
        <time>2026-05-09T14:27:54.188Z</time>
      </trkpt>
      <trkpt lat="47.93924" lon="6.95068">
        <ele>652</ele>
        <time>2026-05-09T14:27:55.188Z</time>
      </trkpt>
      <trkpt lat="47.93923" lon="6.95067">
        <ele>651</ele>
        <time>2026-05-09T14:27:56.188Z</time>
      </trkpt>
      <trkpt lat="47.93922" lon="6.95066">
        <ele>651</ele>
        <time>2026-05-09T14:27:57.189Z</time>
      </trkpt>
      <trkpt lat="47.93922" lon="6.95066">
        <ele>651</ele>
        <time>2026-05-09T14:27:58.189Z</time>
      </trkpt>
      <trkpt lat="47.93921" lon="6.95066">
        <ele>650</ele>
        <time>2026-05-09T14:27:59.189Z</time>
      </trkpt>
      <trkpt lat="47.93921" lon="6.95065">
        <ele>650</ele>
        <time>2026-05-09T14:28:00.189Z</time>
      </trkpt>
      <trkpt lat="47.9392" lon="6.95064">
        <ele>650</ele>
        <time>2026-05-09T14:28:01.189Z</time>
      </trkpt>
      <trkpt lat="47.9392" lon="6.95064">
        <ele>650</ele>
        <time>2026-05-09T14:28:02.189Z</time>
      </trkpt>
      <trkpt lat="47.9392" lon="6.95064">
        <ele>650</ele>
        <time>2026-05-09T14:28:03.189Z</time>
      </trkpt>
      <trkpt lat="47.9392" lon="6.95063">
        <ele>650</ele>
        <time>2026-05-09T14:28:04.188Z</time>
      </trkpt>
      <trkpt lat="47.93919" lon="6.95062">
        <ele>650</ele>
        <time>2026-05-09T14:28:05.188Z</time>
      </trkpt>
      <trkpt lat="47.93918" lon="6.95061">
        <ele>650</ele>
        <time>2026-05-09T14:28:06.189Z</time>
      </trkpt>
      <trkpt lat="47.93917" lon="6.9506">
        <ele>650</ele>
        <time>2026-05-09T14:28:07.188Z</time>
      </trkpt>
      <trkpt lat="47.93917" lon="6.95059">
        <ele>650</ele>
        <time>2026-05-09T14:28:08.188Z</time>
      </trkpt>
      <trkpt lat="47.93917" lon="6.95059">
        <ele>650</ele>
        <time>2026-05-09T14:28:09.188Z</time>
      </trkpt>
      <trkpt lat="47.93916" lon="6.95058">
        <ele>651</ele>
        <time>2026-05-09T14:28:10.188Z</time>
      </trkpt>
      <trkpt lat="47.93916" lon="6.95058">
        <ele>651</ele>
        <time>2026-05-09T14:28:11.189Z</time>
      </trkpt>
      <trkpt lat="47.93915" lon="6.95057">
        <ele>652</ele>
        <time>2026-05-09T14:28:12.189Z</time>
      </trkpt>
      <trkpt lat="47.93916" lon="6.95057">
        <ele>652</ele>
        <time>2026-05-09T14:28:13.188Z</time>
      </trkpt>
      <trkpt lat="47.93915" lon="6.95056">
        <ele>653</ele>
        <time>2026-05-09T14:28:14.188Z</time>
      </trkpt>
      <trkpt lat="47.93915" lon="6.95056">
        <ele>653</ele>
        <time>2026-05-09T14:28:15.188Z</time>
      </trkpt>
      <trkpt lat="47.93916" lon="6.95056">
        <ele>654</ele>
        <time>2026-05-09T14:28:16.188Z</time>
      </trkpt>
      <trkpt lat="47.93916" lon="6.95055">
        <ele>655</ele>
        <time>2026-05-09T14:28:17.189Z</time>
      </trkpt>
      <trkpt lat="47.93916" lon="6.95054">
        <ele>655</ele>
        <time>2026-05-09T14:28:18.189Z</time>
      </trkpt>
      <trkpt lat="47.93916" lon="6.95054">
        <ele>655</ele>
        <time>2026-05-09T14:28:19.189Z</time>
      </trkpt>
      <trkpt lat="47.93916" lon="6.95054">
        <ele>655</ele>
        <time>2026-05-09T14:28:20.189Z</time>
      </trkpt>
      <trkpt lat="47.93916" lon="6.95054">
        <ele>655</ele>
        <time>2026-05-09T14:28:21.188Z</time>
      </trkpt>
      <trkpt lat="47.93916" lon="6.95053">
        <ele>656</ele>
        <time>2026-05-09T14:28:22.188Z</time>
      </trkpt>
      <trkpt lat="47.93916" lon="6.95053">
        <ele>656</ele>
        <time>2026-05-09T14:28:23.188Z</time>
      </trkpt>
      <trkpt lat="47.93916" lon="6.95052">
        <ele>656</ele>
        <time>2026-05-09T14:28:24.188Z</time>
      </trkpt>
      <trkpt lat="47.93915" lon="6.95051">
        <ele>657</ele>
        <time>2026-05-09T14:28:25.189Z</time>
      </trkpt>
      <trkpt lat="47.93915" lon="6.9505">
        <ele>657</ele>
        <time>2026-05-09T14:28:26.189Z</time>
      </trkpt>
      <trkpt lat="47.93914" lon="6.95049">
        <ele>658</ele>
        <time>2026-05-09T14:28:27.189Z</time>
      </trkpt>
      <trkpt lat="47.93913" lon="6.95048">
        <ele>659</ele>
        <time>2026-05-09T14:28:28.189Z</time>
      </trkpt>
      <trkpt lat="47.93913" lon="6.95047">
        <ele>659</ele>
        <time>2026-05-09T14:28:29.188Z</time>
      </trkpt>
      <trkpt lat="47.93913" lon="6.95046">
        <ele>660</ele>
        <time>2026-05-09T14:28:30.188Z</time>
      </trkpt>
      <trkpt lat="47.93913" lon="6.95045">
        <ele>660</ele>
        <time>2026-05-09T14:28:31.188Z</time>
      </trkpt>
      <trkpt lat="47.93912" lon="6.95044">
        <ele>660</ele>
        <time>2026-05-09T14:28:32.189Z</time>
      </trkpt>
      <trkpt lat="47.93911" lon="6.95044">
        <ele>661</ele>
        <time>2026-05-09T14:28:33.188Z</time>
      </trkpt>
      <trkpt lat="47.93911" lon="6.95043">
        <ele>660</ele>
        <time>2026-05-09T14:28:34.188Z</time>
      </trkpt>
      <trkpt lat="47.9391" lon="6.95042">
        <ele>661</ele>
        <time>2026-05-09T14:28:35.188Z</time>
      </trkpt>
      <trkpt lat="47.9391" lon="6.95041">
        <ele>661</ele>
        <time>2026-05-09T14:28:36.188Z</time>
      </trkpt>
      <trkpt lat="47.93909" lon="6.95039">
        <ele>661</ele>
        <time>2026-05-09T14:28:37.188Z</time>
      </trkpt>
      <trkpt lat="47.93908" lon="6.95039">
        <ele>661</ele>
        <time>2026-05-09T14:28:38.188Z</time>
      </trkpt>
      <trkpt lat="47.93908" lon="6.95039">
        <ele>661</ele>
        <time>2026-05-09T14:28:39.188Z</time>
      </trkpt>
      <trkpt lat="47.93908" lon="6.95038">
        <ele>661</ele>
        <time>2026-05-09T14:28:40.188Z</time>
      </trkpt>
      <trkpt lat="47.93907" lon="6.95038">
        <ele>661</ele>
        <time>2026-05-09T14:28:41.189Z</time>
      </trkpt>
      <trkpt lat="47.93907" lon="6.95038">
        <ele>661</ele>
        <time>2026-05-09T14:28:42.189Z</time>
      </trkpt>
      <trkpt lat="47.93903" lon="6.95031">
        <ele>662</ele>
        <time>2026-05-09T14:28:49.575Z</time>
      </trkpt>
      <trkpt lat="47.93903" lon="6.9503">
        <ele>662</ele>
        <time>2026-05-09T14:28:50.576Z</time>
      </trkpt>
      <trkpt lat="47.93903" lon="6.95029">
        <ele>662</ele>
        <time>2026-05-09T14:28:51.576Z</time>
      </trkpt>
      <trkpt lat="47.93903" lon="6.95028">
        <ele>662</ele>
        <time>2026-05-09T14:28:52.576Z</time>
      </trkpt>
      <trkpt lat="47.93903" lon="6.95028">
        <ele>662</ele>
        <time>2026-05-09T14:28:53.576Z</time>
      </trkpt>
      <trkpt lat="47.93902" lon="6.95027">
        <ele>662</ele>
        <time>2026-05-09T14:28:54.575Z</time>
      </trkpt>
      <trkpt lat="47.93902" lon="6.95026">
        <ele>663</ele>
        <time>2026-05-09T14:28:55.575Z</time>
      </trkpt>
      <trkpt lat="47.93902" lon="6.95026">
        <ele>663</ele>
        <time>2026-05-09T14:28:56.575Z</time>
      </trkpt>
      <trkpt lat="47.93902" lon="6.95025">
        <ele>663</ele>
        <time>2026-05-09T14:28:57.576Z</time>
      </trkpt>
      <trkpt lat="47.93901" lon="6.95025">
        <ele>663</ele>
        <time>2026-05-09T14:28:58.576Z</time>
      </trkpt>
      <trkpt lat="47.93901" lon="6.95025">
        <ele>663</ele>
        <time>2026-05-09T14:28:59.575Z</time>
      </trkpt>
      <trkpt lat="47.93901" lon="6.95024">
        <ele>663</ele>
        <time>2026-05-09T14:29:00.575Z</time>
      </trkpt>
      <trkpt lat="47.93901" lon="6.95023">
        <ele>663</ele>
        <time>2026-05-09T14:29:01.575Z</time>
      </trkpt>
      <trkpt lat="47.93899" lon="6.95022">
        <ele>663</ele>
        <time>2026-05-09T14:29:02.575Z</time>
      </trkpt>
      <trkpt lat="47.93899" lon="6.95021">
        <ele>662</ele>
        <time>2026-05-09T14:29:03.576Z</time>
      </trkpt>
      <trkpt lat="47.93899" lon="6.95021">
        <ele>662</ele>
        <time>2026-05-09T14:29:04.575Z</time>
      </trkpt>
      <trkpt lat="47.93899" lon="6.95021">
        <ele>662</ele>
        <time>2026-05-09T14:29:05.576Z</time>
      </trkpt>
      <trkpt lat="47.93897" lon="6.95019">
        <ele>661</ele>
        <time>2026-05-09T14:29:11.116Z</time>
      </trkpt>
      <trkpt lat="47.93897" lon="6.95019">
        <ele>662</ele>
        <time>2026-05-09T14:29:12.115Z</time>
      </trkpt>
      <trkpt lat="47.93896" lon="6.95019">
        <ele>662</ele>
        <time>2026-05-09T14:29:13.116Z</time>
      </trkpt>
      <trkpt lat="47.93896" lon="6.95019">
        <ele>662</ele>
        <time>2026-05-09T14:29:14.115Z</time>
      </trkpt>
      <trkpt lat="47.93892" lon="6.95017">
        <ele>667</ele>
        <time>2026-05-09T14:29:46.308Z</time>
      </trkpt>
      <trkpt lat="47.93891" lon="6.95016">
        <ele>668</ele>
        <time>2026-05-09T14:29:47.307Z</time>
      </trkpt>
      <trkpt lat="47.9389" lon="6.95015">
        <ele>668</ele>
        <time>2026-05-09T14:29:48.308Z</time>
      </trkpt>
      <trkpt lat="47.9389" lon="6.95014">
        <ele>668</ele>
        <time>2026-05-09T14:29:49.307Z</time>
      </trkpt>
      <trkpt lat="47.93889" lon="6.95014">
        <ele>668</ele>
        <time>2026-05-09T14:29:50.307Z</time>
      </trkpt>
      <trkpt lat="47.9389" lon="6.95013">
        <ele>669</ele>
        <time>2026-05-09T14:29:51.307Z</time>
      </trkpt>
      <trkpt lat="47.93889" lon="6.95013">
        <ele>669</ele>
        <time>2026-05-09T14:29:52.308Z</time>
      </trkpt>
      <trkpt lat="47.93889" lon="6.95012">
        <ele>669</ele>
        <time>2026-05-09T14:29:53.307Z</time>
      </trkpt>
      <trkpt lat="47.93888" lon="6.95012">
        <ele>669</ele>
        <time>2026-05-09T14:29:54.307Z</time>
      </trkpt>
      <trkpt lat="47.93888" lon="6.95011">
        <ele>670</ele>
        <time>2026-05-09T14:29:55.307Z</time>
      </trkpt>
      <trkpt lat="47.93887" lon="6.95011">
        <ele>670</ele>
        <time>2026-05-09T14:29:56.307Z</time>
      </trkpt>
      <trkpt lat="47.93886" lon="6.9501">
        <ele>670</ele>
        <time>2026-05-09T14:29:57.307Z</time>
      </trkpt>
      <trkpt lat="47.93885" lon="6.9501">
        <ele>670</ele>
        <time>2026-05-09T14:29:58.308Z</time>
      </trkpt>
      <trkpt lat="47.93885" lon="6.95009">
        <ele>670</ele>
        <time>2026-05-09T14:29:59.308Z</time>
      </trkpt>
      <trkpt lat="47.93885" lon="6.95008">
        <ele>670</ele>
        <time>2026-05-09T14:30:00.308Z</time>
      </trkpt>
      <trkpt lat="47.93884" lon="6.95006">
        <ele>669</ele>
        <time>2026-05-09T14:30:01.307Z</time>
      </trkpt>
      <trkpt lat="47.93883" lon="6.95005">
        <ele>669</ele>
        <time>2026-05-09T14:30:02.307Z</time>
      </trkpt>
      <trkpt lat="47.93882" lon="6.95004">
        <ele>670</ele>
        <time>2026-05-09T14:30:03.307Z</time>
      </trkpt>
      <trkpt lat="47.93881" lon="6.95003">
        <ele>670</ele>
        <time>2026-05-09T14:30:04.307Z</time>
      </trkpt>
      <trkpt lat="47.9388" lon="6.95002">
        <ele>670</ele>
        <time>2026-05-09T14:30:05.307Z</time>
      </trkpt>
      <trkpt lat="47.9388" lon="6.95001">
        <ele>670</ele>
        <time>2026-05-09T14:30:06.308Z</time>
      </trkpt>
      <trkpt lat="47.93879" lon="6.94999">
        <ele>671</ele>
        <time>2026-05-09T14:30:07.308Z</time>
      </trkpt>
      <trkpt lat="47.93878" lon="6.94998">
        <ele>671</ele>
        <time>2026-05-09T14:30:08.307Z</time>
      </trkpt>
      <trkpt lat="47.93878" lon="6.94997">
        <ele>671</ele>
        <time>2026-05-09T14:30:09.307Z</time>
      </trkpt>
      <trkpt lat="47.93877" lon="6.94997">
        <ele>671</ele>
        <time>2026-05-09T14:30:10.307Z</time>
      </trkpt>
      <trkpt lat="47.93877" lon="6.94996">
        <ele>671</ele>
        <time>2026-05-09T14:30:11.308Z</time>
      </trkpt>
      <trkpt lat="47.93877" lon="6.94995">
        <ele>671</ele>
        <time>2026-05-09T14:30:12.308Z</time>
      </trkpt>
      <trkpt lat="47.93876" lon="6.94994">
        <ele>671</ele>
        <time>2026-05-09T14:30:13.308Z</time>
      </trkpt>
      <trkpt lat="47.93876" lon="6.94994">
        <ele>672</ele>
        <time>2026-05-09T14:30:14.308Z</time>
      </trkpt>
      <trkpt lat="47.93876" lon="6.94994">
        <ele>672</ele>
        <time>2026-05-09T14:30:15.307Z</time>
      </trkpt>
      <trkpt lat="47.93875" lon="6.94993">
        <ele>672</ele>
        <time>2026-05-09T14:30:16.307Z</time>
      </trkpt>
      <trkpt lat="47.93874" lon="6.94992">
        <ele>672</ele>
        <time>2026-05-09T14:30:17.308Z</time>
      </trkpt>
      <trkpt lat="47.93873" lon="6.94991">
        <ele>672</ele>
        <time>2026-05-09T14:30:18.308Z</time>
      </trkpt>
      <trkpt lat="47.93872" lon="6.9499">
        <ele>672</ele>
        <time>2026-05-09T14:30:19.308Z</time>
      </trkpt>
      <trkpt lat="47.93871" lon="6.94989">
        <ele>672</ele>
        <time>2026-05-09T14:30:20.308Z</time>
      </trkpt>
      <trkpt lat="47.93871" lon="6.94988">
        <ele>672</ele>
        <time>2026-05-09T14:30:21.307Z</time>
      </trkpt>
      <trkpt lat="47.9387" lon="6.94987">
        <ele>671</ele>
        <time>2026-05-09T14:30:22.308Z</time>
      </trkpt>
      <trkpt lat="47.9387" lon="6.94987">
        <ele>671</ele>
        <time>2026-05-09T14:30:23.307Z</time>
      </trkpt>
      <trkpt lat="47.93869" lon="6.94987">
        <ele>671</ele>
        <time>2026-05-09T14:30:24.307Z</time>
      </trkpt>
      <trkpt lat="47.93869" lon="6.94986">
        <ele>671</ele>
        <time>2026-05-09T14:30:25.307Z</time>
      </trkpt>
      <trkpt lat="47.93869" lon="6.94986">
        <ele>671</ele>
        <time>2026-05-09T14:30:26.307Z</time>
      </trkpt>
      <trkpt lat="47.93868" lon="6.94986">
        <ele>672</ele>
        <time>2026-05-09T14:30:27.307Z</time>
      </trkpt>
      <trkpt lat="47.93868" lon="6.94985">
        <ele>672</ele>
        <time>2026-05-09T14:30:28.307Z</time>
      </trkpt>
      <trkpt lat="47.93867" lon="6.94985">
        <ele>672</ele>
        <time>2026-05-09T14:30:29.307Z</time>
      </trkpt>
      <trkpt lat="47.93867" lon="6.94984">
        <ele>672</ele>
        <time>2026-05-09T14:30:30.307Z</time>
      </trkpt>
      <trkpt lat="47.93867" lon="6.94984">
        <ele>672</ele>
        <time>2026-05-09T14:30:31.308Z</time>
      </trkpt>
      <trkpt lat="47.93867" lon="6.94983">
        <ele>672</ele>
        <time>2026-05-09T14:30:32.308Z</time>
      </trkpt>
      <trkpt lat="47.93867" lon="6.94982">
        <ele>672</ele>
        <time>2026-05-09T14:30:33.308Z</time>
      </trkpt>
      <trkpt lat="47.93867" lon="6.94981">
        <ele>672</ele>
        <time>2026-05-09T14:30:34.308Z</time>
      </trkpt>
      <trkpt lat="47.93867" lon="6.9498">
        <ele>672</ele>
        <time>2026-05-09T14:30:35.308Z</time>
      </trkpt>
      <trkpt lat="47.93868" lon="6.9498">
        <ele>672</ele>
        <time>2026-05-09T14:30:36.307Z</time>
      </trkpt>
      <trkpt lat="47.93868" lon="6.94979">
        <ele>672</ele>
        <time>2026-05-09T14:30:37.308Z</time>
      </trkpt>
      <trkpt lat="47.93868" lon="6.94979">
        <ele>673</ele>
        <time>2026-05-09T14:30:38.307Z</time>
      </trkpt>
      <trkpt lat="47.93867" lon="6.94975">
        <ele>677</ele>
        <time>2026-05-09T14:30:46.498Z</time>
      </trkpt>
      <trkpt lat="47.93866" lon="6.94974">
        <ele>677</ele>
        <time>2026-05-09T14:30:47.499Z</time>
      </trkpt>
      <trkpt lat="47.93866" lon="6.94972">
        <ele>677</ele>
        <time>2026-05-09T14:30:48.499Z</time>
      </trkpt>
      <trkpt lat="47.93866" lon="6.94971">
        <ele>678</ele>
        <time>2026-05-09T14:30:49.498Z</time>
      </trkpt>
      <trkpt lat="47.93865" lon="6.9497">
        <ele>679</ele>
        <time>2026-05-09T14:30:50.499Z</time>
      </trkpt>
      <trkpt lat="47.93865" lon="6.94969">
        <ele>679</ele>
        <time>2026-05-09T14:30:51.498Z</time>
      </trkpt>
      <trkpt lat="47.93865" lon="6.94968">
        <ele>680</ele>
        <time>2026-05-09T14:30:52.499Z</time>
      </trkpt>
      <trkpt lat="47.93864" lon="6.94967">
        <ele>681</ele>
        <time>2026-05-09T14:30:53.498Z</time>
      </trkpt>
      <trkpt lat="47.93862" lon="6.94966">
        <ele>681</ele>
        <time>2026-05-09T14:30:54.499Z</time>
      </trkpt>
      <trkpt lat="47.93861" lon="6.94964">
        <ele>681</ele>
        <time>2026-05-09T14:30:55.499Z</time>
      </trkpt>
      <trkpt lat="47.93861" lon="6.94964">
        <ele>682</ele>
        <time>2026-05-09T14:30:56.498Z</time>
      </trkpt>
      <trkpt lat="47.93861" lon="6.94964">
        <ele>682</ele>
        <time>2026-05-09T14:30:57.499Z</time>
      </trkpt>
      <trkpt lat="47.9386" lon="6.94963">
        <ele>682</ele>
        <time>2026-05-09T14:30:58.498Z</time>
      </trkpt>
      <trkpt lat="47.9386" lon="6.94963">
        <ele>683</ele>
        <time>2026-05-09T14:30:59.499Z</time>
      </trkpt>
      <trkpt lat="47.9386" lon="6.94962">
        <ele>683</ele>
        <time>2026-05-09T14:31:00.498Z</time>
      </trkpt>
      <trkpt lat="47.9386" lon="6.94962">
        <ele>683</ele>
        <time>2026-05-09T14:31:01.499Z</time>
      </trkpt>
      <trkpt lat="47.9386" lon="6.94961">
        <ele>684</ele>
        <time>2026-05-09T14:31:02.499Z</time>
      </trkpt>
      <trkpt lat="47.93859" lon="6.9496">
        <ele>684</ele>
        <time>2026-05-09T14:31:03.498Z</time>
      </trkpt>
      <trkpt lat="47.93859" lon="6.94959">
        <ele>685</ele>
        <time>2026-05-09T14:31:04.499Z</time>
      </trkpt>
      <trkpt lat="47.93859" lon="6.94958">
        <ele>686</ele>
        <time>2026-05-09T14:31:05.499Z</time>
      </trkpt>
      <trkpt lat="47.93859" lon="6.94957">
        <ele>687</ele>
        <time>2026-05-09T14:31:06.498Z</time>
      </trkpt>
      <trkpt lat="47.93858" lon="6.94955">
        <ele>688</ele>
        <time>2026-05-09T14:31:07.498Z</time>
      </trkpt>
      <trkpt lat="47.93857" lon="6.94954">
        <ele>688</ele>
        <time>2026-05-09T14:31:08.498Z</time>
      </trkpt>
      <trkpt lat="47.93857" lon="6.94953">
        <ele>688</ele>
        <time>2026-05-09T14:31:09.498Z</time>
      </trkpt>
      <trkpt lat="47.93855" lon="6.94951">
        <ele>689</ele>
        <time>2026-05-09T14:31:10.499Z</time>
      </trkpt>
      <trkpt lat="47.93854" lon="6.94949">
        <ele>689</ele>
        <time>2026-05-09T14:31:11.499Z</time>
      </trkpt>
      <trkpt lat="47.93853" lon="6.94948">
        <ele>689</ele>
        <time>2026-05-09T14:31:12.498Z</time>
      </trkpt>
      <trkpt lat="47.93852" lon="6.94946">
        <ele>689</ele>
        <time>2026-05-09T14:31:13.498Z</time>
      </trkpt>
      <trkpt lat="47.93852" lon="6.94945">
        <ele>690</ele>
        <time>2026-05-09T14:31:14.499Z</time>
      </trkpt>
      <trkpt lat="47.93851" lon="6.94944">
        <ele>690</ele>
        <time>2026-05-09T14:31:15.499Z</time>
      </trkpt>
      <trkpt lat="47.9385" lon="6.94943">
        <ele>690</ele>
        <time>2026-05-09T14:31:16.498Z</time>
      </trkpt>
      <trkpt lat="47.93849" lon="6.94942">
        <ele>691</ele>
        <time>2026-05-09T14:31:17.498Z</time>
      </trkpt>
      <trkpt lat="47.93848" lon="6.9494">
        <ele>691</ele>
        <time>2026-05-09T14:31:18.499Z</time>
      </trkpt>
      <trkpt lat="47.93847" lon="6.94938">
        <ele>691</ele>
        <time>2026-05-09T14:31:19.499Z</time>
      </trkpt>
      <trkpt lat="47.93845" lon="6.94937">
        <ele>691</ele>
        <time>2026-05-09T14:31:20.499Z</time>
      </trkpt>
      <trkpt lat="47.93844" lon="6.94936">
        <ele>692</ele>
        <time>2026-05-09T14:31:21.499Z</time>
      </trkpt>
      <trkpt lat="47.93844" lon="6.94935">
        <ele>692</ele>
        <time>2026-05-09T14:31:22.498Z</time>
      </trkpt>
      <trkpt lat="47.93843" lon="6.94934">
        <ele>693</ele>
        <time>2026-05-09T14:31:23.498Z</time>
      </trkpt>
      <trkpt lat="47.93842" lon="6.94933">
        <ele>694</ele>
        <time>2026-05-09T14:31:24.499Z</time>
      </trkpt>
      <trkpt lat="47.93841" lon="6.94932">
        <ele>694</ele>
        <time>2026-05-09T14:31:25.498Z</time>
      </trkpt>
      <trkpt lat="47.93839" lon="6.94931">
        <ele>695</ele>
        <time>2026-05-09T14:31:26.498Z</time>
      </trkpt>
      <trkpt lat="47.93838" lon="6.94931">
        <ele>695</ele>
        <time>2026-05-09T14:31:27.498Z</time>
      </trkpt>
      <trkpt lat="47.93837" lon="6.9493">
        <ele>695</ele>
        <time>2026-05-09T14:31:28.498Z</time>
      </trkpt>
      <trkpt lat="47.93837" lon="6.9493">
        <ele>696</ele>
        <time>2026-05-09T14:31:29.499Z</time>
      </trkpt>
      <trkpt lat="47.93837" lon="6.94929">
        <ele>696</ele>
        <time>2026-05-09T14:31:30.498Z</time>
      </trkpt>
      <trkpt lat="47.93836" lon="6.94928">
        <ele>696</ele>
        <time>2026-05-09T14:31:31.499Z</time>
      </trkpt>
      <trkpt lat="47.93836" lon="6.94927">
        <ele>697</ele>
        <time>2026-05-09T14:31:32.498Z</time>
      </trkpt>
      <trkpt lat="47.93835" lon="6.94926">
        <ele>697</ele>
        <time>2026-05-09T14:31:33.499Z</time>
      </trkpt>
      <trkpt lat="47.93835" lon="6.94925">
        <ele>697</ele>
        <time>2026-05-09T14:31:34.499Z</time>
      </trkpt>
      <trkpt lat="47.93835" lon="6.94925">
        <ele>697</ele>
        <time>2026-05-09T14:31:35.498Z</time>
      </trkpt>
      <trkpt lat="47.93834" lon="6.94925">
        <ele>697</ele>
        <time>2026-05-09T14:31:36.498Z</time>
      </trkpt>
      <trkpt lat="47.93834" lon="6.94924">
        <ele>698</ele>
        <time>2026-05-09T14:31:37.498Z</time>
      </trkpt>
      <trkpt lat="47.93833" lon="6.94923">
        <ele>698</ele>
        <time>2026-05-09T14:31:38.498Z</time>
      </trkpt>
      <trkpt lat="47.93832" lon="6.94921">
        <ele>698</ele>
        <time>2026-05-09T14:31:39.499Z</time>
      </trkpt>
      <trkpt lat="47.93832" lon="6.9492">
        <ele>698</ele>
        <time>2026-05-09T14:31:40.498Z</time>
      </trkpt>
      <trkpt lat="47.93832" lon="6.94919">
        <ele>698</ele>
        <time>2026-05-09T14:31:41.498Z</time>
      </trkpt>
      <trkpt lat="47.93831" lon="6.94917">
        <ele>698</ele>
        <time>2026-05-09T14:31:42.499Z</time>
      </trkpt>
      <trkpt lat="47.9383" lon="6.94916">
        <ele>698</ele>
        <time>2026-05-09T14:31:43.498Z</time>
      </trkpt>
      <trkpt lat="47.93829" lon="6.94915">
        <ele>698</ele>
        <time>2026-05-09T14:31:44.499Z</time>
      </trkpt>
      <trkpt lat="47.93829" lon="6.94914">
        <ele>698</ele>
        <time>2026-05-09T14:31:45.498Z</time>
      </trkpt>
      <trkpt lat="47.93829" lon="6.94913">
        <ele>698</ele>
        <time>2026-05-09T14:31:46.499Z</time>
      </trkpt>
      <trkpt lat="47.93828" lon="6.9491">
        <ele>699</ele>
        <time>2026-05-09T14:31:47.498Z</time>
      </trkpt>
      <trkpt lat="47.93827" lon="6.94908">
        <ele>699</ele>
        <time>2026-05-09T14:31:48.499Z</time>
      </trkpt>
      <trkpt lat="47.93826" lon="6.94907">
        <ele>699</ele>
        <time>2026-05-09T14:31:49.498Z</time>
      </trkpt>
      <trkpt lat="47.93823" lon="6.94903">
        <ele>700</ele>
        <time>2026-05-09T14:31:50.499Z</time>
      </trkpt>
      <trkpt lat="47.93822" lon="6.94901">
        <ele>700</ele>
        <time>2026-05-09T14:31:51.498Z</time>
      </trkpt>
      <trkpt lat="47.93821" lon="6.94899">
        <ele>700</ele>
        <time>2026-05-09T14:31:52.499Z</time>
      </trkpt>
      <trkpt lat="47.93821" lon="6.94899">
        <ele>700</ele>
        <time>2026-05-09T14:31:53.498Z</time>
      </trkpt>
      <trkpt lat="47.93821" lon="6.94898">
        <ele>700</ele>
        <time>2026-05-09T14:31:54.499Z</time>
      </trkpt>
      <trkpt lat="47.93821" lon="6.94898">
        <ele>700</ele>
        <time>2026-05-09T14:31:55.499Z</time>
      </trkpt>
      <trkpt lat="47.9382" lon="6.94897">
        <ele>700</ele>
        <time>2026-05-09T14:31:56.498Z</time>
      </trkpt>
      <trkpt lat="47.93819" lon="6.94896">
        <ele>700</ele>
        <time>2026-05-09T14:31:57.499Z</time>
      </trkpt>
      <trkpt lat="47.93818" lon="6.94895">
        <ele>700</ele>
        <time>2026-05-09T14:31:58.498Z</time>
      </trkpt>
      <trkpt lat="47.93818" lon="6.94894">
        <ele>700</ele>
        <time>2026-05-09T14:31:59.498Z</time>
      </trkpt>
      <trkpt lat="47.93819" lon="6.94894">
        <ele>700</ele>
        <time>2026-05-09T14:32:00.498Z</time>
      </trkpt>
      <trkpt lat="47.93819" lon="6.94893">
        <ele>700</ele>
        <time>2026-05-09T14:32:01.498Z</time>
      </trkpt>
      <trkpt lat="47.93819" lon="6.94892">
        <ele>699</ele>
        <time>2026-05-09T14:32:02.499Z</time>
      </trkpt>
      <trkpt lat="47.9382" lon="6.94892">
        <ele>699</ele>
        <time>2026-05-09T14:32:03.498Z</time>
      </trkpt>
      <trkpt lat="47.9382" lon="6.94891">
        <ele>699</ele>
        <time>2026-05-09T14:32:04.499Z</time>
      </trkpt>
      <trkpt lat="47.93821" lon="6.94891">
        <ele>699</ele>
        <time>2026-05-09T14:32:05.498Z</time>
      </trkpt>
      <trkpt lat="47.93821" lon="6.9489">
        <ele>699</ele>
        <time>2026-05-09T14:32:06.498Z</time>
      </trkpt>
      <trkpt lat="47.9382" lon="6.9489">
        <ele>699</ele>
        <time>2026-05-09T14:32:07.499Z</time>
      </trkpt>
      <trkpt lat="47.9382" lon="6.94889">
        <ele>699</ele>
        <time>2026-05-09T14:32:08.498Z</time>
      </trkpt>
      <trkpt lat="47.93819" lon="6.94888">
        <ele>699</ele>
        <time>2026-05-09T14:32:09.499Z</time>
      </trkpt>
      <trkpt lat="47.93818" lon="6.94886">
        <ele>699</ele>
        <time>2026-05-09T14:32:10.498Z</time>
      </trkpt>
      <trkpt lat="47.93818" lon="6.94884">
        <ele>700</ele>
        <time>2026-05-09T14:32:11.498Z</time>
      </trkpt>
      <trkpt lat="47.93818" lon="6.94883">
        <ele>700</ele>
        <time>2026-05-09T14:32:12.498Z</time>
      </trkpt>
      <trkpt lat="47.93817" lon="6.94882">
        <ele>699</ele>
        <time>2026-05-09T14:32:13.499Z</time>
      </trkpt>
      <trkpt lat="47.93817" lon="6.94881">
        <ele>699</ele>
        <time>2026-05-09T14:32:14.498Z</time>
      </trkpt>
      <trkpt lat="47.93817" lon="6.94879">
        <ele>699</ele>
        <time>2026-05-09T14:32:15.498Z</time>
      </trkpt>
      <trkpt lat="47.93816" lon="6.94879">
        <ele>699</ele>
        <time>2026-05-09T14:32:16.498Z</time>
      </trkpt>
      <trkpt lat="47.93816" lon="6.94878">
        <ele>699</ele>
        <time>2026-05-09T14:32:17.498Z</time>
      </trkpt>
      <trkpt lat="47.93815" lon="6.94877">
        <ele>699</ele>
        <time>2026-05-09T14:32:18.499Z</time>
      </trkpt>
      <trkpt lat="47.93815" lon="6.94876">
        <ele>699</ele>
        <time>2026-05-09T14:32:19.499Z</time>
      </trkpt>
      <trkpt lat="47.93814" lon="6.94875">
        <ele>699</ele>
        <time>2026-05-09T14:32:20.499Z</time>
      </trkpt>
      <trkpt lat="47.93813" lon="6.94874">
        <ele>699</ele>
        <time>2026-05-09T14:32:21.498Z</time>
      </trkpt>
      <trkpt lat="47.93812" lon="6.94873">
        <ele>699</ele>
        <time>2026-05-09T14:32:22.498Z</time>
      </trkpt>
      <trkpt lat="47.93811" lon="6.94873">
        <ele>698</ele>
        <time>2026-05-09T14:32:23.498Z</time>
      </trkpt>
      <trkpt lat="47.93811" lon="6.94872">
        <ele>698</ele>
        <time>2026-05-09T14:32:24.498Z</time>
      </trkpt>
      <trkpt lat="47.93811" lon="6.94872">
        <ele>698</ele>
        <time>2026-05-09T14:32:25.498Z</time>
      </trkpt>
      <trkpt lat="47.9381" lon="6.94871">
        <ele>697</ele>
        <time>2026-05-09T14:32:26.498Z</time>
      </trkpt>
      <trkpt lat="47.93809" lon="6.94869">
        <ele>697</ele>
        <time>2026-05-09T14:32:27.498Z</time>
      </trkpt>
      <trkpt lat="47.93808" lon="6.94868">
        <ele>697</ele>
        <time>2026-05-09T14:32:28.499Z</time>
      </trkpt>
      <trkpt lat="47.93808" lon="6.94867">
        <ele>697</ele>
        <time>2026-05-09T14:32:29.498Z</time>
      </trkpt>
      <trkpt lat="47.93807" lon="6.94867">
        <ele>697</ele>
        <time>2026-05-09T14:32:30.499Z</time>
      </trkpt>
      <trkpt lat="47.93806" lon="6.94865">
        <ele>698</ele>
        <time>2026-05-09T14:32:31.499Z</time>
      </trkpt>
      <trkpt lat="47.93805" lon="6.94864">
        <ele>698</ele>
        <time>2026-05-09T14:32:32.499Z</time>
      </trkpt>
      <trkpt lat="47.93805" lon="6.94863">
        <ele>699</ele>
        <time>2026-05-09T14:32:33.499Z</time>
      </trkpt>
      <trkpt lat="47.93804" lon="6.94862">
        <ele>699</ele>
        <time>2026-05-09T14:32:34.498Z</time>
      </trkpt>
      <trkpt lat="47.93804" lon="6.94862">
        <ele>699</ele>
        <time>2026-05-09T14:32:35.498Z</time>
      </trkpt>
      <trkpt lat="47.93803" lon="6.94861">
        <ele>699</ele>
        <time>2026-05-09T14:32:36.499Z</time>
      </trkpt>
      <trkpt lat="47.93804" lon="6.94861">
        <ele>699</ele>
        <time>2026-05-09T14:32:37.499Z</time>
      </trkpt>
      <trkpt lat="47.93803" lon="6.94861">
        <ele>699</ele>
        <time>2026-05-09T14:32:38.498Z</time>
      </trkpt>
      <trkpt lat="47.93802" lon="6.94858">
        <ele>697</ele>
        <time>2026-05-09T14:32:46.639Z</time>
      </trkpt>
      <trkpt lat="47.93801" lon="6.94854">
        <ele>695</ele>
        <time>2026-05-09T14:32:52.026Z</time>
      </trkpt>
      <trkpt lat="47.93801" lon="6.94854">
        <ele>695</ele>
        <time>2026-05-09T14:32:53.026Z</time>
      </trkpt>
      <trkpt lat="47.93801" lon="6.94853">
        <ele>695</ele>
        <time>2026-05-09T14:32:54.026Z</time>
      </trkpt>
      <trkpt lat="47.93802" lon="6.94853">
        <ele>695</ele>
        <time>2026-05-09T14:32:55.026Z</time>
      </trkpt>
      <trkpt lat="47.93802" lon="6.94852">
        <ele>694</ele>
        <time>2026-05-09T14:32:56.025Z</time>
      </trkpt>
      <trkpt lat="47.93801" lon="6.94851">
        <ele>694</ele>
        <time>2026-05-09T14:32:57.025Z</time>
      </trkpt>
      <trkpt lat="47.938" lon="6.9485">
        <ele>694</ele>
        <time>2026-05-09T14:32:58.025Z</time>
      </trkpt>
      <trkpt lat="47.93799" lon="6.94849">
        <ele>694</ele>
        <time>2026-05-09T14:32:59.025Z</time>
      </trkpt>
      <trkpt lat="47.93799" lon="6.94848">
        <ele>694</ele>
        <time>2026-05-09T14:33:00.026Z</time>
      </trkpt>
      <trkpt lat="47.93798" lon="6.94848">
        <ele>694</ele>
        <time>2026-05-09T14:33:01.026Z</time>
      </trkpt>
      <trkpt lat="47.93797" lon="6.94848">
        <ele>694</ele>
        <time>2026-05-09T14:33:02.026Z</time>
      </trkpt>
      <trkpt lat="47.93796" lon="6.94847">
        <ele>695</ele>
        <time>2026-05-09T14:33:03.026Z</time>
      </trkpt>
      <trkpt lat="47.93796" lon="6.94847">
        <ele>695</ele>
        <time>2026-05-09T14:33:04.026Z</time>
      </trkpt>
      <trkpt lat="47.93795" lon="6.94846">
        <ele>695</ele>
        <time>2026-05-09T14:33:05.025Z</time>
      </trkpt>
      <trkpt lat="47.93794" lon="6.94844">
        <ele>696</ele>
        <time>2026-05-09T14:33:06.026Z</time>
      </trkpt>
      <trkpt lat="47.93794" lon="6.94843">
        <ele>696</ele>
        <time>2026-05-09T14:33:07.025Z</time>
      </trkpt>
      <trkpt lat="47.93794" lon="6.94841">
        <ele>696</ele>
        <time>2026-05-09T14:33:08.026Z</time>
      </trkpt>
      <trkpt lat="47.93793" lon="6.9484">
        <ele>697</ele>
        <time>2026-05-09T14:33:09.025Z</time>
      </trkpt>
      <trkpt lat="47.93792" lon="6.94838">
        <ele>697</ele>
        <time>2026-05-09T14:33:10.026Z</time>
      </trkpt>
      <trkpt lat="47.93791" lon="6.94837">
        <ele>697</ele>
        <time>2026-05-09T14:33:11.025Z</time>
      </trkpt>
      <trkpt lat="47.93791" lon="6.94835">
        <ele>697</ele>
        <time>2026-05-09T14:33:12.026Z</time>
      </trkpt>
      <trkpt lat="47.9379" lon="6.94833">
        <ele>697</ele>
        <time>2026-05-09T14:33:13.026Z</time>
      </trkpt>
      <trkpt lat="47.9379" lon="6.94833">
        <ele>698</ele>
        <time>2026-05-09T14:33:14.025Z</time>
      </trkpt>
      <trkpt lat="47.93789" lon="6.94832">
        <ele>698</ele>
        <time>2026-05-09T14:33:15.026Z</time>
      </trkpt>
      <trkpt lat="47.93789" lon="6.94832">
        <ele>698</ele>
        <time>2026-05-09T14:33:16.026Z</time>
      </trkpt>
      <trkpt lat="47.93789" lon="6.94832">
        <ele>698</ele>
        <time>2026-05-09T14:33:17.026Z</time>
      </trkpt>
      <trkpt lat="47.93788" lon="6.94831">
        <ele>699</ele>
        <time>2026-05-09T14:33:18.025Z</time>
      </trkpt>
      <trkpt lat="47.93788" lon="6.9483">
        <ele>699</ele>
        <time>2026-05-09T14:33:19.026Z</time>
      </trkpt>
      <trkpt lat="47.93787" lon="6.9483">
        <ele>699</ele>
        <time>2026-05-09T14:33:20.025Z</time>
      </trkpt>
      <trkpt lat="47.93785" lon="6.94829">
        <ele>700</ele>
        <time>2026-05-09T14:33:21.026Z</time>
      </trkpt>
      <trkpt lat="47.93784" lon="6.94827">
        <ele>700</ele>
        <time>2026-05-09T14:33:22.026Z</time>
      </trkpt>
      <trkpt lat="47.93783" lon="6.94826">
        <ele>701</ele>
        <time>2026-05-09T14:33:23.025Z</time>
      </trkpt>
      <trkpt lat="47.93782" lon="6.94825">
        <ele>701</ele>
        <time>2026-05-09T14:33:24.026Z</time>
      </trkpt>
      <trkpt lat="47.93781" lon="6.94823">
        <ele>702</ele>
        <time>2026-05-09T14:33:25.025Z</time>
      </trkpt>
      <trkpt lat="47.9378" lon="6.94822">
        <ele>703</ele>
        <time>2026-05-09T14:33:26.025Z</time>
      </trkpt>
      <trkpt lat="47.93779" lon="6.9482">
        <ele>704</ele>
        <time>2026-05-09T14:33:27.025Z</time>
      </trkpt>
      <trkpt lat="47.93778" lon="6.94819">
        <ele>705</ele>
        <time>2026-05-09T14:33:28.025Z</time>
      </trkpt>
      <trkpt lat="47.93778" lon="6.94817">
        <ele>705</ele>
        <time>2026-05-09T14:33:29.025Z</time>
      </trkpt>
      <trkpt lat="47.93777" lon="6.94816">
        <ele>706</ele>
        <time>2026-05-09T14:33:30.026Z</time>
      </trkpt>
      <trkpt lat="47.93776" lon="6.94814">
        <ele>707</ele>
        <time>2026-05-09T14:33:31.025Z</time>
      </trkpt>
      <trkpt lat="47.93774" lon="6.94813">
        <ele>707</ele>
        <time>2026-05-09T14:33:32.026Z</time>
      </trkpt>
      <trkpt lat="47.93772" lon="6.94811">
        <ele>708</ele>
        <time>2026-05-09T14:33:33.025Z</time>
      </trkpt>
      <trkpt lat="47.93771" lon="6.9481">
        <ele>708</ele>
        <time>2026-05-09T14:33:34.025Z</time>
      </trkpt>
      <trkpt lat="47.93769" lon="6.94807">
        <ele>708</ele>
        <time>2026-05-09T14:33:35.025Z</time>
      </trkpt>
      <trkpt lat="47.93768" lon="6.94805">
        <ele>708</ele>
        <time>2026-05-09T14:33:36.025Z</time>
      </trkpt>
      <trkpt lat="47.93767" lon="6.94803">
        <ele>709</ele>
        <time>2026-05-09T14:33:37.026Z</time>
      </trkpt>
      <trkpt lat="47.93767" lon="6.94803">
        <ele>709</ele>
        <time>2026-05-09T14:33:38.025Z</time>
      </trkpt>
      <trkpt lat="47.93767" lon="6.94802">
        <ele>709</ele>
        <time>2026-05-09T14:33:39.025Z</time>
      </trkpt>
      <trkpt lat="47.93766" lon="6.94802">
        <ele>710</ele>
        <time>2026-05-09T14:33:40.025Z</time>
      </trkpt>
      <trkpt lat="47.93766" lon="6.94801">
        <ele>710</ele>
        <time>2026-05-09T14:33:41.025Z</time>
      </trkpt>
      <trkpt lat="47.93766" lon="6.94801">
        <ele>711</ele>
        <time>2026-05-09T14:33:42.025Z</time>
      </trkpt>
      <trkpt lat="47.93766" lon="6.94801">
        <ele>711</ele>
        <time>2026-05-09T14:33:43.025Z</time>
      </trkpt>
      <trkpt lat="47.93765" lon="6.948">
        <ele>712</ele>
        <time>2026-05-09T14:33:44.025Z</time>
      </trkpt>
      <trkpt lat="47.93765" lon="6.948">
        <ele>712</ele>
        <time>2026-05-09T14:33:45.025Z</time>
      </trkpt>
      <trkpt lat="47.93764" lon="6.948">
        <ele>713</ele>
        <time>2026-05-09T14:33:46.026Z</time>
      </trkpt>
      <trkpt lat="47.93764" lon="6.948">
        <ele>714</ele>
        <time>2026-05-09T14:33:47.025Z</time>
      </trkpt>
      <trkpt lat="47.93764" lon="6.948">
        <ele>715</ele>
        <time>2026-05-09T14:33:48.026Z</time>
      </trkpt>
      <trkpt lat="47.93764" lon="6.94799">
        <ele>720</ele>
        <time>2026-05-09T14:34:00.304Z</time>
      </trkpt>
      <trkpt lat="47.93764" lon="6.94799">
        <ele>720</ele>
        <time>2026-05-09T14:34:01.304Z</time>
      </trkpt>
      <trkpt lat="47.93764" lon="6.94799">
        <ele>721</ele>
        <time>2026-05-09T14:34:02.305Z</time>
      </trkpt>
      <trkpt lat="47.93763" lon="6.94798">
        <ele>706</ele>
        <time>2026-05-09T14:34:30.442Z</time>
      </trkpt>
      <trkpt lat="47.93762" lon="6.94799">
        <ele>705</ele>
        <time>2026-05-09T14:34:31.442Z</time>
      </trkpt>
      <trkpt lat="47.93761" lon="6.94799">
        <ele>705</ele>
        <time>2026-05-09T14:34:32.442Z</time>
      </trkpt>
      <trkpt lat="47.93761" lon="6.94799">
        <ele>705</ele>
        <time>2026-05-09T14:34:33.442Z</time>
      </trkpt>
      <trkpt lat="47.93761" lon="6.94799">
        <ele>705</ele>
        <time>2026-05-09T14:34:34.442Z</time>
      </trkpt>
      <trkpt lat="47.9376" lon="6.94799">
        <ele>705</ele>
        <time>2026-05-09T14:34:35.442Z</time>
      </trkpt>
      <trkpt lat="47.9376" lon="6.94799">
        <ele>706</ele>
        <time>2026-05-09T14:34:36.442Z</time>
      </trkpt>
      <trkpt lat="47.93761" lon="6.94798">
        <ele>706</ele>
        <time>2026-05-09T14:34:37.442Z</time>
      </trkpt>
      <trkpt lat="47.93761" lon="6.94798">
        <ele>707</ele>
        <time>2026-05-09T14:34:38.442Z</time>
      </trkpt>
      <trkpt lat="47.9376" lon="6.94798">
        <ele>707</ele>
        <time>2026-05-09T14:34:39.443Z</time>
      </trkpt>
      <trkpt lat="47.93759" lon="6.94797">
        <ele>707</ele>
        <time>2026-05-09T14:34:40.443Z</time>
      </trkpt>
      <trkpt lat="47.93758" lon="6.94797">
        <ele>708</ele>
        <time>2026-05-09T14:34:41.442Z</time>
      </trkpt>
      <trkpt lat="47.93757" lon="6.94797">
        <ele>708</ele>
        <time>2026-05-09T14:34:42.442Z</time>
      </trkpt>
      <trkpt lat="47.93755" lon="6.94797">
        <ele>709</ele>
        <time>2026-05-09T14:34:43.442Z</time>
      </trkpt>
      <trkpt lat="47.93754" lon="6.94797">
        <ele>709</ele>
        <time>2026-05-09T14:34:44.442Z</time>
      </trkpt>
      <trkpt lat="47.93752" lon="6.94796">
        <ele>710</ele>
        <time>2026-05-09T14:34:45.442Z</time>
      </trkpt>
      <trkpt lat="47.93751" lon="6.94796">
        <ele>710</ele>
        <time>2026-05-09T14:34:46.443Z</time>
      </trkpt>
      <trkpt lat="47.9375" lon="6.94796">
        <ele>711</ele>
        <time>2026-05-09T14:34:47.443Z</time>
      </trkpt>
      <trkpt lat="47.93749" lon="6.94796">
        <ele>711</ele>
        <time>2026-05-09T14:34:48.443Z</time>
      </trkpt>
      <trkpt lat="47.93748" lon="6.94796">
        <ele>712</ele>
        <time>2026-05-09T14:34:49.443Z</time>
      </trkpt>
      <trkpt lat="47.93748" lon="6.94796">
        <ele>712</ele>
        <time>2026-05-09T14:34:50.443Z</time>
      </trkpt>
      <trkpt lat="47.93748" lon="6.94796">
        <ele>712</ele>
        <time>2026-05-09T14:34:51.442Z</time>
      </trkpt>
      <trkpt lat="47.93748" lon="6.94796">
        <ele>713</ele>
        <time>2026-05-09T14:34:52.443Z</time>
      </trkpt>
      <trkpt lat="47.93748" lon="6.94796">
        <ele>713</ele>
        <time>2026-05-09T14:34:53.442Z</time>
      </trkpt>
      <trkpt lat="47.93748" lon="6.94796">
        <ele>714</ele>
        <time>2026-05-09T14:34:54.442Z</time>
      </trkpt>
      <trkpt lat="47.93747" lon="6.94796">
        <ele>714</ele>
        <time>2026-05-09T14:34:55.442Z</time>
      </trkpt>
      <trkpt lat="47.93747" lon="6.94796">
        <ele>715</ele>
        <time>2026-05-09T14:34:56.442Z</time>
      </trkpt>
      <trkpt lat="47.93746" lon="6.94796">
        <ele>716</ele>
        <time>2026-05-09T14:34:57.442Z</time>
      </trkpt>
      <trkpt lat="47.93745" lon="6.94797">
        <ele>716</ele>
        <time>2026-05-09T14:34:58.442Z</time>
      </trkpt>
      <trkpt lat="47.93744" lon="6.94798">
        <ele>716</ele>
        <time>2026-05-09T14:34:59.442Z</time>
      </trkpt>
      <trkpt lat="47.93743" lon="6.94799">
        <ele>716</ele>
        <time>2026-05-09T14:35:00.442Z</time>
      </trkpt>
      <trkpt lat="47.93743" lon="6.94799">
        <ele>716</ele>
        <time>2026-05-09T14:35:01.442Z</time>
      </trkpt>
      <trkpt lat="47.93743" lon="6.94799">
        <ele>717</ele>
        <time>2026-05-09T14:35:02.442Z</time>
      </trkpt>
      <trkpt lat="47.93742" lon="6.94799">
        <ele>717</ele>
        <time>2026-05-09T14:35:03.442Z</time>
      </trkpt>
      <trkpt lat="47.93741" lon="6.94799">
        <ele>717</ele>
        <time>2026-05-09T14:35:04.443Z</time>
      </trkpt>
      <trkpt lat="47.93741" lon="6.948">
        <ele>718</ele>
        <time>2026-05-09T14:35:05.443Z</time>
      </trkpt>
      <trkpt lat="47.9374" lon="6.948">
        <ele>718</ele>
        <time>2026-05-09T14:35:06.443Z</time>
      </trkpt>
      <trkpt lat="47.9374" lon="6.948">
        <ele>718</ele>
        <time>2026-05-09T14:35:07.443Z</time>
      </trkpt>
      <trkpt lat="47.93739" lon="6.948">
        <ele>719</ele>
        <time>2026-05-09T14:35:08.442Z</time>
      </trkpt>
      <trkpt lat="47.93738" lon="6.948">
        <ele>720</ele>
        <time>2026-05-09T14:35:09.443Z</time>
      </trkpt>
      <trkpt lat="47.93738" lon="6.94801">
        <ele>720</ele>
        <time>2026-05-09T14:35:10.442Z</time>
      </trkpt>
      <trkpt lat="47.93737" lon="6.94804">
        <ele>721</ele>
        <time>2026-05-09T14:35:11.443Z</time>
      </trkpt>
      <trkpt lat="47.93736" lon="6.94806">
        <ele>722</ele>
        <time>2026-05-09T14:35:12.442Z</time>
      </trkpt>
      <trkpt lat="47.93736" lon="6.94808">
        <ele>723</ele>
        <time>2026-05-09T14:35:13.443Z</time>
      </trkpt>
      <trkpt lat="47.93735" lon="6.9481">
        <ele>724</ele>
        <time>2026-05-09T14:35:14.442Z</time>
      </trkpt>
      <trkpt lat="47.93735" lon="6.9481">
        <ele>725</ele>
        <time>2026-05-09T14:35:15.443Z</time>
      </trkpt>
      <trkpt lat="47.93734" lon="6.9481">
        <ele>726</ele>
        <time>2026-05-09T14:35:16.442Z</time>
      </trkpt>
      <trkpt lat="47.93733" lon="6.94811">
        <ele>727</ele>
        <time>2026-05-09T14:35:17.443Z</time>
      </trkpt>
      <trkpt lat="47.93733" lon="6.94811">
        <ele>728</ele>
        <time>2026-05-09T14:35:18.442Z</time>
      </trkpt>
      <trkpt lat="47.93732" lon="6.94811">
        <ele>728</ele>
        <time>2026-05-09T14:35:19.442Z</time>
      </trkpt>
      <trkpt lat="47.93731" lon="6.94811">
        <ele>729</ele>
        <time>2026-05-09T14:35:20.443Z</time>
      </trkpt>
      <trkpt lat="47.93731" lon="6.94812">
        <ele>729</ele>
        <time>2026-05-09T14:35:21.443Z</time>
      </trkpt>
      <trkpt lat="47.9373" lon="6.94813">
        <ele>730</ele>
        <time>2026-05-09T14:35:22.443Z</time>
      </trkpt>
      <trkpt lat="47.9373" lon="6.94814">
        <ele>730</ele>
        <time>2026-05-09T14:35:23.443Z</time>
      </trkpt>
      <trkpt lat="47.93729" lon="6.94814">
        <ele>730</ele>
        <time>2026-05-09T14:35:24.443Z</time>
      </trkpt>
      <trkpt lat="47.93729" lon="6.94813">
        <ele>731</ele>
        <time>2026-05-09T14:35:25.442Z</time>
      </trkpt>
      <trkpt lat="47.93728" lon="6.94813">
        <ele>731</ele>
        <time>2026-05-09T14:35:26.443Z</time>
      </trkpt>
      <trkpt lat="47.93728" lon="6.94813">
        <ele>732</ele>
        <time>2026-05-09T14:35:27.442Z</time>
      </trkpt>
      <trkpt lat="47.93729" lon="6.94814">
        <ele>733</ele>
        <time>2026-05-09T14:35:28.443Z</time>
      </trkpt>
      <trkpt lat="47.93728" lon="6.94815">
        <ele>734</ele>
        <time>2026-05-09T14:35:29.442Z</time>
      </trkpt>
      <trkpt lat="47.93727" lon="6.94814">
        <ele>734</ele>
        <time>2026-05-09T14:35:30.443Z</time>
      </trkpt>
      <trkpt lat="47.93725" lon="6.94815">
        <ele>735</ele>
        <time>2026-05-09T14:35:31.443Z</time>
      </trkpt>
      <trkpt lat="47.93725" lon="6.94816">
        <ele>735</ele>
        <time>2026-05-09T14:35:32.442Z</time>
      </trkpt>
      <trkpt lat="47.93724" lon="6.94816">
        <ele>735</ele>
        <time>2026-05-09T14:35:33.442Z</time>
      </trkpt>
      <trkpt lat="47.93724" lon="6.94817">
        <ele>736</ele>
        <time>2026-05-09T14:35:34.443Z</time>
      </trkpt>
      <trkpt lat="47.93723" lon="6.94818">
        <ele>736</ele>
        <time>2026-05-09T14:35:35.442Z</time>
      </trkpt>
      <trkpt lat="47.93723" lon="6.94818">
        <ele>737</ele>
        <time>2026-05-09T14:35:36.443Z</time>
      </trkpt>
      <trkpt lat="47.93722" lon="6.94819">
        <ele>737</ele>
        <time>2026-05-09T14:35:37.442Z</time>
      </trkpt>
      <trkpt lat="47.93721" lon="6.94818">
        <ele>738</ele>
        <time>2026-05-09T14:35:38.443Z</time>
      </trkpt>
      <trkpt lat="47.9372" lon="6.94818">
        <ele>738</ele>
        <time>2026-05-09T14:35:39.443Z</time>
      </trkpt>
      <trkpt lat="47.93719" lon="6.94818">
        <ele>738</ele>
        <time>2026-05-09T14:35:40.442Z</time>
      </trkpt>
      <trkpt lat="47.93717" lon="6.94818">
        <ele>738</ele>
        <time>2026-05-09T14:35:41.442Z</time>
      </trkpt>
      <trkpt lat="47.93716" lon="6.94818">
        <ele>738</ele>
        <time>2026-05-09T14:35:42.443Z</time>
      </trkpt>
      <trkpt lat="47.93715" lon="6.94819">
        <ele>738</ele>
        <time>2026-05-09T14:35:43.443Z</time>
      </trkpt>
      <trkpt lat="47.93714" lon="6.94819">
        <ele>738</ele>
        <time>2026-05-09T14:35:44.442Z</time>
      </trkpt>
      <trkpt lat="47.93714" lon="6.9482">
        <ele>738</ele>
        <time>2026-05-09T14:35:45.443Z</time>
      </trkpt>
      <trkpt lat="47.93713" lon="6.9482">
        <ele>737</ele>
        <time>2026-05-09T14:35:46.442Z</time>
      </trkpt>
      <trkpt lat="47.93713" lon="6.94819">
        <ele>737</ele>
        <time>2026-05-09T14:35:47.442Z</time>
      </trkpt>
      <trkpt lat="47.93712" lon="6.94819">
        <ele>737</ele>
        <time>2026-05-09T14:35:48.442Z</time>
      </trkpt>
      <trkpt lat="47.93712" lon="6.94819">
        <ele>737</ele>
        <time>2026-05-09T14:35:49.443Z</time>
      </trkpt>
      <trkpt lat="47.93711" lon="6.94819">
        <ele>736</ele>
        <time>2026-05-09T14:35:50.442Z</time>
      </trkpt>
      <trkpt lat="47.9371" lon="6.94819">
        <ele>736</ele>
        <time>2026-05-09T14:35:51.442Z</time>
      </trkpt>
      <trkpt lat="47.9371" lon="6.9482">
        <ele>736</ele>
        <time>2026-05-09T14:35:52.442Z</time>
      </trkpt>
      <trkpt lat="47.93709" lon="6.94821">
        <ele>736</ele>
        <time>2026-05-09T14:35:53.443Z</time>
      </trkpt>
      <trkpt lat="47.93709" lon="6.94821">
        <ele>736</ele>
        <time>2026-05-09T14:35:54.443Z</time>
      </trkpt>
      <trkpt lat="47.93708" lon="6.94822">
        <ele>736</ele>
        <time>2026-05-09T14:35:55.443Z</time>
      </trkpt>
      <trkpt lat="47.93707" lon="6.94823">
        <ele>736</ele>
        <time>2026-05-09T14:35:56.442Z</time>
      </trkpt>
      <trkpt lat="47.93707" lon="6.94824">
        <ele>736</ele>
        <time>2026-05-09T14:35:57.442Z</time>
      </trkpt>
      <trkpt lat="47.93706" lon="6.94824">
        <ele>736</ele>
        <time>2026-05-09T14:35:58.443Z</time>
      </trkpt>
      <trkpt lat="47.93706" lon="6.94825">
        <ele>735</ele>
        <time>2026-05-09T14:35:59.442Z</time>
      </trkpt>
      <trkpt lat="47.93706" lon="6.94826">
        <ele>735</ele>
        <time>2026-05-09T14:36:00.443Z</time>
      </trkpt>
      <trkpt lat="47.93707" lon="6.94826">
        <ele>735</ele>
        <time>2026-05-09T14:36:01.442Z</time>
      </trkpt>
      <trkpt lat="47.93707" lon="6.94826">
        <ele>735</ele>
        <time>2026-05-09T14:36:02.443Z</time>
      </trkpt>
      <trkpt lat="47.93707" lon="6.94827">
        <ele>735</ele>
        <time>2026-05-09T14:36:03.442Z</time>
      </trkpt>
      <trkpt lat="47.93705" lon="6.94827">
        <ele>736</ele>
        <time>2026-05-09T14:36:04.443Z</time>
      </trkpt>
      <trkpt lat="47.93705" lon="6.94827">
        <ele>736</ele>
        <time>2026-05-09T14:36:05.442Z</time>
      </trkpt>
      <trkpt lat="47.93704" lon="6.94827">
        <ele>736</ele>
        <time>2026-05-09T14:36:06.443Z</time>
      </trkpt>
      <trkpt lat="47.93703" lon="6.94827">
        <ele>735</ele>
        <time>2026-05-09T14:36:07.442Z</time>
      </trkpt>
      <trkpt lat="47.93703" lon="6.94828">
        <ele>735</ele>
        <time>2026-05-09T14:36:08.443Z</time>
      </trkpt>
      <trkpt lat="47.93702" lon="6.94828">
        <ele>734</ele>
        <time>2026-05-09T14:36:09.442Z</time>
      </trkpt>
      <trkpt lat="47.93702" lon="6.94829">
        <ele>734</ele>
        <time>2026-05-09T14:36:10.443Z</time>
      </trkpt>
      <trkpt lat="47.93701" lon="6.9483">
        <ele>734</ele>
        <time>2026-05-09T14:36:11.443Z</time>
      </trkpt>
      <trkpt lat="47.93701" lon="6.94831">
        <ele>734</ele>
        <time>2026-05-09T14:36:12.443Z</time>
      </trkpt>
      <trkpt lat="47.937" lon="6.94832">
        <ele>735</ele>
        <time>2026-05-09T14:36:13.443Z</time>
      </trkpt>
      <trkpt lat="47.937" lon="6.94833">
        <ele>735</ele>
        <time>2026-05-09T14:36:14.442Z</time>
      </trkpt>
      <trkpt lat="47.93699" lon="6.94833">
        <ele>736</ele>
        <time>2026-05-09T14:36:15.442Z</time>
      </trkpt>
      <trkpt lat="47.93699" lon="6.94834">
        <ele>737</ele>
        <time>2026-05-09T14:36:16.442Z</time>
      </trkpt>
      <trkpt lat="47.93698" lon="6.94836">
        <ele>738</ele>
        <time>2026-05-09T14:36:17.443Z</time>
      </trkpt>
      <trkpt lat="47.93698" lon="6.94837">
        <ele>738</ele>
        <time>2026-05-09T14:36:18.443Z</time>
      </trkpt>
      <trkpt lat="47.93697" lon="6.94838">
        <ele>738</ele>
        <time>2026-05-09T14:36:19.442Z</time>
      </trkpt>
      <trkpt lat="47.93696" lon="6.94839">
        <ele>739</ele>
        <time>2026-05-09T14:36:20.443Z</time>
      </trkpt>
      <trkpt lat="47.93695" lon="6.9484">
        <ele>739</ele>
        <time>2026-05-09T14:36:21.442Z</time>
      </trkpt>
      <trkpt lat="47.93695" lon="6.9484">
        <ele>739</ele>
        <time>2026-05-09T14:36:22.443Z</time>
      </trkpt>
      <trkpt lat="47.93694" lon="6.94841">
        <ele>739</ele>
        <time>2026-05-09T14:36:23.442Z</time>
      </trkpt>
      <trkpt lat="47.93693" lon="6.94841">
        <ele>739</ele>
        <time>2026-05-09T14:36:24.443Z</time>
      </trkpt>
      <trkpt lat="47.93693" lon="6.94843">
        <ele>739</ele>
        <time>2026-05-09T14:36:25.442Z</time>
      </trkpt>
      <trkpt lat="47.93693" lon="6.94843">
        <ele>739</ele>
        <time>2026-05-09T14:36:26.443Z</time>
      </trkpt>
      <trkpt lat="47.93693" lon="6.94844">
        <ele>739</ele>
        <time>2026-05-09T14:36:27.442Z</time>
      </trkpt>
      <trkpt lat="47.93692" lon="6.94846">
        <ele>740</ele>
        <time>2026-05-09T14:36:28.443Z</time>
      </trkpt>
      <trkpt lat="47.93691" lon="6.94847">
        <ele>740</ele>
        <time>2026-05-09T14:36:29.443Z</time>
      </trkpt>
      <trkpt lat="47.93691" lon="6.94847">
        <ele>741</ele>
        <time>2026-05-09T14:36:30.442Z</time>
      </trkpt>
      <trkpt lat="47.9369" lon="6.94848">
        <ele>741</ele>
        <time>2026-05-09T14:36:31.443Z</time>
      </trkpt>
      <trkpt lat="47.9369" lon="6.94849">
        <ele>742</ele>
        <time>2026-05-09T14:36:32.442Z</time>
      </trkpt>
      <trkpt lat="47.93689" lon="6.9485">
        <ele>742</ele>
        <time>2026-05-09T14:36:33.442Z</time>
      </trkpt>
      <trkpt lat="47.93689" lon="6.9485">
        <ele>742</ele>
        <time>2026-05-09T14:36:34.443Z</time>
      </trkpt>
      <trkpt lat="47.93688" lon="6.94851">
        <ele>742</ele>
        <time>2026-05-09T14:36:35.442Z</time>
      </trkpt>
      <trkpt lat="47.93687" lon="6.94851">
        <ele>742</ele>
        <time>2026-05-09T14:36:36.443Z</time>
      </trkpt>
      <trkpt lat="47.93687" lon="6.94853">
        <ele>742</ele>
        <time>2026-05-09T14:36:37.442Z</time>
      </trkpt>
      <trkpt lat="47.93687" lon="6.94853">
        <ele>741</ele>
        <time>2026-05-09T14:36:38.443Z</time>
      </trkpt>
      <trkpt lat="47.93686" lon="6.94854">
        <ele>741</ele>
        <time>2026-05-09T14:36:39.442Z</time>
      </trkpt>
      <trkpt lat="47.93685" lon="6.94856">
        <ele>740</ele>
        <time>2026-05-09T14:36:40.443Z</time>
      </trkpt>
      <trkpt lat="47.93684" lon="6.94859">
        <ele>740</ele>
        <time>2026-05-09T14:36:41.442Z</time>
      </trkpt>
      <trkpt lat="47.93683" lon="6.9486">
        <ele>739</ele>
        <time>2026-05-09T14:36:42.443Z</time>
      </trkpt>
      <trkpt lat="47.93682" lon="6.94861">
        <ele>739</ele>
        <time>2026-05-09T14:36:43.442Z</time>
      </trkpt>
      <trkpt lat="47.93682" lon="6.94862">
        <ele>739</ele>
        <time>2026-05-09T14:36:44.443Z</time>
      </trkpt>
      <trkpt lat="47.93682" lon="6.94863">
        <ele>739</ele>
        <time>2026-05-09T14:36:45.442Z</time>
      </trkpt>
      <trkpt lat="47.93681" lon="6.94864">
        <ele>740</ele>
        <time>2026-05-09T14:36:46.443Z</time>
      </trkpt>
      <trkpt lat="47.9368" lon="6.94866">
        <ele>740</ele>
        <time>2026-05-09T14:36:47.442Z</time>
      </trkpt>
      <trkpt lat="47.9368" lon="6.94868">
        <ele>740</ele>
        <time>2026-05-09T14:36:48.442Z</time>
      </trkpt>
      <trkpt lat="47.93679" lon="6.94869">
        <ele>741</ele>
        <time>2026-05-09T14:36:49.443Z</time>
      </trkpt>
      <trkpt lat="47.93678" lon="6.94869">
        <ele>741</ele>
        <time>2026-05-09T14:36:50.442Z</time>
      </trkpt>
      <trkpt lat="47.93677" lon="6.9487">
        <ele>741</ele>
        <time>2026-05-09T14:36:51.442Z</time>
      </trkpt>
      <trkpt lat="47.93676" lon="6.94871">
        <ele>741</ele>
        <time>2026-05-09T14:36:52.443Z</time>
      </trkpt>
      <trkpt lat="47.93676" lon="6.94872">
        <ele>741</ele>
        <time>2026-05-09T14:36:53.442Z</time>
      </trkpt>
      <trkpt lat="47.93675" lon="6.94873">
        <ele>741</ele>
        <time>2026-05-09T14:36:54.443Z</time>
      </trkpt>
      <trkpt lat="47.93675" lon="6.94875">
        <ele>741</ele>
        <time>2026-05-09T14:36:55.442Z</time>
      </trkpt>
      <trkpt lat="47.93674" lon="6.94875">
        <ele>741</ele>
        <time>2026-05-09T14:36:56.443Z</time>
      </trkpt>
      <trkpt lat="47.93673" lon="6.94877">
        <ele>741</ele>
        <time>2026-05-09T14:36:57.442Z</time>
      </trkpt>
      <trkpt lat="47.93672" lon="6.94879">
        <ele>741</ele>
        <time>2026-05-09T14:36:58.443Z</time>
      </trkpt>
      <trkpt lat="47.9367" lon="6.94881">
        <ele>741</ele>
        <time>2026-05-09T14:36:59.442Z</time>
      </trkpt>
      <trkpt lat="47.93669" lon="6.94882">
        <ele>740</ele>
        <time>2026-05-09T14:37:00.443Z</time>
      </trkpt>
      <trkpt lat="47.93669" lon="6.94882">
        <ele>740</ele>
        <time>2026-05-09T14:37:01.443Z</time>
      </trkpt>
      <trkpt lat="47.93669" lon="6.94883">
        <ele>739</ele>
        <time>2026-05-09T14:37:02.442Z</time>
      </trkpt>
      <trkpt lat="47.93668" lon="6.94884">
        <ele>739</ele>
        <time>2026-05-09T14:37:03.443Z</time>
      </trkpt>
      <trkpt lat="47.93668" lon="6.94885">
        <ele>739</ele>
        <time>2026-05-09T14:37:04.442Z</time>
      </trkpt>
      <trkpt lat="47.93668" lon="6.94886">
        <ele>739</ele>
        <time>2026-05-09T14:37:05.443Z</time>
      </trkpt>
      <trkpt lat="47.93667" lon="6.94887">
        <ele>739</ele>
        <time>2026-05-09T14:37:06.442Z</time>
      </trkpt>
      <trkpt lat="47.93666" lon="6.94888">
        <ele>740</ele>
        <time>2026-05-09T14:37:07.443Z</time>
      </trkpt>
      <trkpt lat="47.93666" lon="6.94889">
        <ele>740</ele>
        <time>2026-05-09T14:37:08.442Z</time>
      </trkpt>
      <trkpt lat="47.93665" lon="6.9489">
        <ele>741</ele>
        <time>2026-05-09T14:37:09.443Z</time>
      </trkpt>
      <trkpt lat="47.93664" lon="6.94891">
        <ele>741</ele>
        <time>2026-05-09T14:37:10.442Z</time>
      </trkpt>
      <trkpt lat="47.93663" lon="6.94891">
        <ele>741</ele>
        <time>2026-05-09T14:37:11.443Z</time>
      </trkpt>
      <trkpt lat="47.93663" lon="6.94892">
        <ele>742</ele>
        <time>2026-05-09T14:37:12.442Z</time>
      </trkpt>
      <trkpt lat="47.93662" lon="6.94894">
        <ele>742</ele>
        <time>2026-05-09T14:37:13.443Z</time>
      </trkpt>
      <trkpt lat="47.93662" lon="6.94895">
        <ele>743</ele>
        <time>2026-05-09T14:37:14.442Z</time>
      </trkpt>
      <trkpt lat="47.93662" lon="6.94896">
        <ele>744</ele>
        <time>2026-05-09T14:37:15.443Z</time>
      </trkpt>
      <trkpt lat="47.93662" lon="6.94898">
        <ele>745</ele>
        <time>2026-05-09T14:37:16.443Z</time>
      </trkpt>
      <trkpt lat="47.93663" lon="6.949">
        <ele>746</ele>
        <time>2026-05-09T14:37:17.443Z</time>
      </trkpt>
      <trkpt lat="47.93663" lon="6.949">
        <ele>747</ele>
        <time>2026-05-09T14:37:18.443Z</time>
      </trkpt>
      <trkpt lat="47.93662" lon="6.94902">
        <ele>747</ele>
        <time>2026-05-09T14:37:19.442Z</time>
      </trkpt>
      <trkpt lat="47.93662" lon="6.94903">
        <ele>748</ele>
        <time>2026-05-09T14:37:20.442Z</time>
      </trkpt>
      <trkpt lat="47.93661" lon="6.94903">
        <ele>748</ele>
        <time>2026-05-09T14:37:21.442Z</time>
      </trkpt>
      <trkpt lat="47.93661" lon="6.94905">
        <ele>748</ele>
        <time>2026-05-09T14:37:22.442Z</time>
      </trkpt>
      <trkpt lat="47.93661" lon="6.94905">
        <ele>748</ele>
        <time>2026-05-09T14:37:23.443Z</time>
      </trkpt>
      <trkpt lat="47.9366" lon="6.94905">
        <ele>748</ele>
        <time>2026-05-09T14:37:24.442Z</time>
      </trkpt>
      <trkpt lat="47.9366" lon="6.94907">
        <ele>748</ele>
        <time>2026-05-09T14:37:25.443Z</time>
      </trkpt>
      <trkpt lat="47.93659" lon="6.94908">
        <ele>749</ele>
        <time>2026-05-09T14:37:26.442Z</time>
      </trkpt>
      <trkpt lat="47.93659" lon="6.94908">
        <ele>749</ele>
        <time>2026-05-09T14:37:27.443Z</time>
      </trkpt>
      <trkpt lat="47.93658" lon="6.94909">
        <ele>750</ele>
        <time>2026-05-09T14:37:28.443Z</time>
      </trkpt>
      <trkpt lat="47.93657" lon="6.94909">
        <ele>750</ele>
        <time>2026-05-09T14:37:29.443Z</time>
      </trkpt>
      <trkpt lat="47.93656" lon="6.9491">
        <ele>750</ele>
        <time>2026-05-09T14:37:30.443Z</time>
      </trkpt>
      <trkpt lat="47.93655" lon="6.9491">
        <ele>750</ele>
        <time>2026-05-09T14:37:31.442Z</time>
      </trkpt>
      <trkpt lat="47.93654" lon="6.94911">
        <ele>750</ele>
        <time>2026-05-09T14:37:32.442Z</time>
      </trkpt>
      <trkpt lat="47.93653" lon="6.94912">
        <ele>750</ele>
        <time>2026-05-09T14:37:33.442Z</time>
      </trkpt>
      <trkpt lat="47.93652" lon="6.94913">
        <ele>750</ele>
        <time>2026-05-09T14:37:34.443Z</time>
      </trkpt>
      <trkpt lat="47.93651" lon="6.94913">
        <ele>749</ele>
        <time>2026-05-09T14:37:35.442Z</time>
      </trkpt>
      <trkpt lat="47.9365" lon="6.94913">
        <ele>748</ele>
        <time>2026-05-09T14:37:36.443Z</time>
      </trkpt>
      <trkpt lat="47.93649" lon="6.94915">
        <ele>748</ele>
        <time>2026-05-09T14:37:37.442Z</time>
      </trkpt>
      <trkpt lat="47.93649" lon="6.94916">
        <ele>748</ele>
        <time>2026-05-09T14:37:38.443Z</time>
      </trkpt>
      <trkpt lat="47.93648" lon="6.94917">
        <ele>748</ele>
        <time>2026-05-09T14:37:39.442Z</time>
      </trkpt>
      <trkpt lat="47.93648" lon="6.94918">
        <ele>748</ele>
        <time>2026-05-09T14:37:40.443Z</time>
      </trkpt>
      <trkpt lat="47.93648" lon="6.94919">
        <ele>748</ele>
        <time>2026-05-09T14:37:41.442Z</time>
      </trkpt>
      <trkpt lat="47.93647" lon="6.9492">
        <ele>748</ele>
        <time>2026-05-09T14:37:42.442Z</time>
      </trkpt>
      <trkpt lat="47.93646" lon="6.94921">
        <ele>748</ele>
        <time>2026-05-09T14:37:43.442Z</time>
      </trkpt>
      <trkpt lat="47.93645" lon="6.94922">
        <ele>748</ele>
        <time>2026-05-09T14:37:44.443Z</time>
      </trkpt>
      <trkpt lat="47.93644" lon="6.94924">
        <ele>748</ele>
        <time>2026-05-09T14:37:45.443Z</time>
      </trkpt>
      <trkpt lat="47.93644" lon="6.94925">
        <ele>749</ele>
        <time>2026-05-09T14:37:46.442Z</time>
      </trkpt>
      <trkpt lat="47.93643" lon="6.94927">
        <ele>749</ele>
        <time>2026-05-09T14:37:47.443Z</time>
      </trkpt>
      <trkpt lat="47.93642" lon="6.94929">
        <ele>750</ele>
        <time>2026-05-09T14:37:48.442Z</time>
      </trkpt>
      <trkpt lat="47.93642" lon="6.94931">
        <ele>750</ele>
        <time>2026-05-09T14:37:49.443Z</time>
      </trkpt>
      <trkpt lat="47.93641" lon="6.94932">
        <ele>751</ele>
        <time>2026-05-09T14:37:50.442Z</time>
      </trkpt>
      <trkpt lat="47.93641" lon="6.94932">
        <ele>751</ele>
        <time>2026-05-09T14:37:51.443Z</time>
      </trkpt>
      <trkpt lat="47.93639" lon="6.94933">
        <ele>751</ele>
        <time>2026-05-09T14:37:52.442Z</time>
      </trkpt>
      <trkpt lat="47.93638" lon="6.94934">
        <ele>751</ele>
        <time>2026-05-09T14:37:53.443Z</time>
      </trkpt>
      <trkpt lat="47.93637" lon="6.94935">
        <ele>751</ele>
        <time>2026-05-09T14:37:54.442Z</time>
      </trkpt>
      <trkpt lat="47.93636" lon="6.94936">
        <ele>752</ele>
        <time>2026-05-09T14:37:55.442Z</time>
      </trkpt>
      <trkpt lat="47.93636" lon="6.94937">
        <ele>752</ele>
        <time>2026-05-09T14:37:56.442Z</time>
      </trkpt>
      <trkpt lat="47.93635" lon="6.94939">
        <ele>752</ele>
        <time>2026-05-09T14:37:57.443Z</time>
      </trkpt>
      <trkpt lat="47.93634" lon="6.94941">
        <ele>752</ele>
        <time>2026-05-09T14:37:58.442Z</time>
      </trkpt>
      <trkpt lat="47.93633" lon="6.94944">
        <ele>753</ele>
        <time>2026-05-09T14:37:59.443Z</time>
      </trkpt>
      <trkpt lat="47.93632" lon="6.94945">
        <ele>753</ele>
        <time>2026-05-09T14:38:00.443Z</time>
      </trkpt>
      <trkpt lat="47.93631" lon="6.94946">
        <ele>753</ele>
        <time>2026-05-09T14:38:01.442Z</time>
      </trkpt>
      <trkpt lat="47.9363" lon="6.94946">
        <ele>753</ele>
        <time>2026-05-09T14:38:02.443Z</time>
      </trkpt>
      <trkpt lat="47.9363" lon="6.94947">
        <ele>754</ele>
        <time>2026-05-09T14:38:03.442Z</time>
      </trkpt>
      <trkpt lat="47.9363" lon="6.94947">
        <ele>754</ele>
        <time>2026-05-09T14:38:04.443Z</time>
      </trkpt>
      <trkpt lat="47.93629" lon="6.94947">
        <ele>754</ele>
        <time>2026-05-09T14:38:05.442Z</time>
      </trkpt>
      <trkpt lat="47.93628" lon="6.94948">
        <ele>753</ele>
        <time>2026-05-09T14:38:06.443Z</time>
      </trkpt>
      <trkpt lat="47.93626" lon="6.94949">
        <ele>753</ele>
        <time>2026-05-09T14:38:07.442Z</time>
      </trkpt>
      <trkpt lat="47.93625" lon="6.94949">
        <ele>753</ele>
        <time>2026-05-09T14:38:08.443Z</time>
      </trkpt>
      <trkpt lat="47.93623" lon="6.94949">
        <ele>753</ele>
        <time>2026-05-09T14:38:09.442Z</time>
      </trkpt>
      <trkpt lat="47.93622" lon="6.9495">
        <ele>753</ele>
        <time>2026-05-09T14:38:10.443Z</time>
      </trkpt>
      <trkpt lat="47.93622" lon="6.94951">
        <ele>753</ele>
        <time>2026-05-09T14:38:11.442Z</time>
      </trkpt>
      <trkpt lat="47.93621" lon="6.94952">
        <ele>753</ele>
        <time>2026-05-09T14:38:12.443Z</time>
      </trkpt>
      <trkpt lat="47.9362" lon="6.94954">
        <ele>753</ele>
        <time>2026-05-09T14:38:13.442Z</time>
      </trkpt>
      <trkpt lat="47.93618" lon="6.94955">
        <ele>753</ele>
        <time>2026-05-09T14:38:14.443Z</time>
      </trkpt>
      <trkpt lat="47.93617" lon="6.94956">
        <ele>753</ele>
        <time>2026-05-09T14:38:15.442Z</time>
      </trkpt>
      <trkpt lat="47.93616" lon="6.94957">
        <ele>753</ele>
        <time>2026-05-09T14:38:16.443Z</time>
      </trkpt>
      <trkpt lat="47.93615" lon="6.94958">
        <ele>753</ele>
        <time>2026-05-09T14:38:17.443Z</time>
      </trkpt>
      <trkpt lat="47.93615" lon="6.94959">
        <ele>752</ele>
        <time>2026-05-09T14:38:18.442Z</time>
      </trkpt>
      <trkpt lat="47.93614" lon="6.94959">
        <ele>752</ele>
        <time>2026-05-09T14:38:19.442Z</time>
      </trkpt>
      <trkpt lat="47.93613" lon="6.9496">
        <ele>752</ele>
        <time>2026-05-09T14:38:20.442Z</time>
      </trkpt>
      <trkpt lat="47.93612" lon="6.9496">
        <ele>752</ele>
        <time>2026-05-09T14:38:21.443Z</time>
      </trkpt>
      <trkpt lat="47.93611" lon="6.9496">
        <ele>752</ele>
        <time>2026-05-09T14:38:22.442Z</time>
      </trkpt>
      <trkpt lat="47.9361" lon="6.94961">
        <ele>752</ele>
        <time>2026-05-09T14:38:23.443Z</time>
      </trkpt>
      <trkpt lat="47.93608" lon="6.94962">
        <ele>752</ele>
        <time>2026-05-09T14:38:24.442Z</time>
      </trkpt>
      <trkpt lat="47.93607" lon="6.94962">
        <ele>751</ele>
        <time>2026-05-09T14:38:25.443Z</time>
      </trkpt>
      <trkpt lat="47.93606" lon="6.94964">
        <ele>751</ele>
        <time>2026-05-09T14:38:26.442Z</time>
      </trkpt>
      <trkpt lat="47.93605" lon="6.94965">
        <ele>751</ele>
        <time>2026-05-09T14:38:27.443Z</time>
      </trkpt>
      <trkpt lat="47.93603" lon="6.94966">
        <ele>750</ele>
        <time>2026-05-09T14:38:28.442Z</time>
      </trkpt>
      <trkpt lat="47.93602" lon="6.94967">
        <ele>750</ele>
        <time>2026-05-09T14:38:29.442Z</time>
      </trkpt>
      <trkpt lat="47.936" lon="6.94969">
        <ele>750</ele>
        <time>2026-05-09T14:38:30.442Z</time>
      </trkpt>
      <trkpt lat="47.93599" lon="6.94971">
        <ele>750</ele>
        <time>2026-05-09T14:38:31.443Z</time>
      </trkpt>
      <trkpt lat="47.93597" lon="6.94972">
        <ele>749</ele>
        <time>2026-05-09T14:38:32.443Z</time>
      </trkpt>
      <trkpt lat="47.93596" lon="6.94973">
        <ele>749</ele>
        <time>2026-05-09T14:38:33.443Z</time>
      </trkpt>
      <trkpt lat="47.93595" lon="6.94973">
        <ele>749</ele>
        <time>2026-05-09T14:38:34.443Z</time>
      </trkpt>
      <trkpt lat="47.93593" lon="6.94974">
        <ele>750</ele>
        <time>2026-05-09T14:38:35.443Z</time>
      </trkpt>
      <trkpt lat="47.93592" lon="6.94975">
        <ele>750</ele>
        <time>2026-05-09T14:38:36.443Z</time>
      </trkpt>
      <trkpt lat="47.93588" lon="6.94973">
        <ele>750</ele>
        <time>2026-05-09T14:38:37.442Z</time>
      </trkpt>
      <trkpt lat="47.93587" lon="6.94973">
        <ele>750</ele>
        <time>2026-05-09T14:38:38.443Z</time>
      </trkpt>
      <trkpt lat="47.93585" lon="6.94974">
        <ele>750</ele>
        <time>2026-05-09T14:38:39.442Z</time>
      </trkpt>
      <trkpt lat="47.93584" lon="6.94974">
        <ele>750</ele>
        <time>2026-05-09T14:38:40.443Z</time>
      </trkpt>
      <trkpt lat="47.93582" lon="6.94975">
        <ele>750</ele>
        <time>2026-05-09T14:38:41.442Z</time>
      </trkpt>
      <trkpt lat="47.93582" lon="6.94974">
        <ele>750</ele>
        <time>2026-05-09T14:38:42.443Z</time>
      </trkpt>
      <trkpt lat="47.9358" lon="6.94971">
        <ele>750</ele>
        <time>2026-05-09T14:38:43.442Z</time>
      </trkpt>
      <trkpt lat="47.9358" lon="6.9497">
        <ele>750</ele>
        <time>2026-05-09T14:38:44.442Z</time>
      </trkpt>
      <trkpt lat="47.9358" lon="6.94968">
        <ele>750</ele>
        <time>2026-05-09T14:38:45.443Z</time>
      </trkpt>
      <trkpt lat="47.9358" lon="6.94968">
        <ele>750</ele>
        <time>2026-05-09T14:38:46.442Z</time>
      </trkpt>
      <trkpt lat="47.9358" lon="6.94968">
        <ele>749</ele>
        <time>2026-05-09T14:38:47.443Z</time>
      </trkpt>
      <trkpt lat="47.9358" lon="6.94967">
        <ele>749</ele>
        <time>2026-05-09T14:38:48.443Z</time>
      </trkpt>
      <trkpt lat="47.93581" lon="6.94972">
        <ele>741</ele>
        <time>2026-05-09T14:39:10.064Z</time>
      </trkpt>
      <trkpt lat="47.93581" lon="6.94973">
        <ele>741</ele>
        <time>2026-05-09T14:39:11.065Z</time>
      </trkpt>
      <trkpt lat="47.93581" lon="6.94974">
        <ele>741</ele>
        <time>2026-05-09T14:39:12.064Z</time>
      </trkpt>
      <trkpt lat="47.9358" lon="6.94975">
        <ele>740</ele>
        <time>2026-05-09T14:39:13.064Z</time>
      </trkpt>
      <trkpt lat="47.9358" lon="6.94977">
        <ele>740</ele>
        <time>2026-05-09T14:39:14.064Z</time>
      </trkpt>
      <trkpt lat="47.9358" lon="6.94978">
        <ele>739</ele>
        <time>2026-05-09T14:39:15.065Z</time>
      </trkpt>
      <trkpt lat="47.9358" lon="6.94978">
        <ele>739</ele>
        <time>2026-05-09T14:39:16.065Z</time>
      </trkpt>
      <trkpt lat="47.9358" lon="6.94979">
        <ele>738</ele>
        <time>2026-05-09T14:39:17.064Z</time>
      </trkpt>
      <trkpt lat="47.93579" lon="6.9498">
        <ele>738</ele>
        <time>2026-05-09T14:39:18.064Z</time>
      </trkpt>
      <trkpt lat="47.93578" lon="6.94981">
        <ele>738</ele>
        <time>2026-05-09T14:39:19.064Z</time>
      </trkpt>
      <trkpt lat="47.93578" lon="6.94983">
        <ele>738</ele>
        <time>2026-05-09T14:39:20.064Z</time>
      </trkpt>
      <trkpt lat="47.93577" lon="6.94984">
        <ele>738</ele>
        <time>2026-05-09T14:39:21.064Z</time>
      </trkpt>
      <trkpt lat="47.93576" lon="6.94986">
        <ele>738</ele>
        <time>2026-05-09T14:39:22.064Z</time>
      </trkpt>
      <trkpt lat="47.93576" lon="6.94987">
        <ele>737</ele>
        <time>2026-05-09T14:39:23.065Z</time>
      </trkpt>
      <trkpt lat="47.93576" lon="6.94988">
        <ele>737</ele>
        <time>2026-05-09T14:39:24.065Z</time>
      </trkpt>
      <trkpt lat="47.93575" lon="6.94989">
        <ele>737</ele>
        <time>2026-05-09T14:39:25.065Z</time>
      </trkpt>
      <trkpt lat="47.93574" lon="6.9499">
        <ele>737</ele>
        <time>2026-05-09T14:39:26.064Z</time>
      </trkpt>
      <trkpt lat="47.93574" lon="6.9499">
        <ele>737</ele>
        <time>2026-05-09T14:39:27.064Z</time>
      </trkpt>
      <trkpt lat="47.93573" lon="6.94991">
        <ele>737</ele>
        <time>2026-05-09T14:39:28.065Z</time>
      </trkpt>
      <trkpt lat="47.93572" lon="6.94991">
        <ele>737</ele>
        <time>2026-05-09T14:39:29.065Z</time>
      </trkpt>
      <trkpt lat="47.93571" lon="6.94991">
        <ele>736</ele>
        <time>2026-05-09T14:39:30.064Z</time>
      </trkpt>
      <trkpt lat="47.9357" lon="6.94992">
        <ele>736</ele>
        <time>2026-05-09T14:39:31.064Z</time>
      </trkpt>
      <trkpt lat="47.93569" lon="6.94993">
        <ele>736</ele>
        <time>2026-05-09T14:39:32.064Z</time>
      </trkpt>
      <trkpt lat="47.93569" lon="6.94994">
        <ele>736</ele>
        <time>2026-05-09T14:39:33.064Z</time>
      </trkpt>
      <trkpt lat="47.93568" lon="6.94995">
        <ele>736</ele>
        <time>2026-05-09T14:39:34.065Z</time>
      </trkpt>
      <trkpt lat="47.93567" lon="6.94996">
        <ele>737</ele>
        <time>2026-05-09T14:39:35.064Z</time>
      </trkpt>
      <trkpt lat="47.93566" lon="6.94998">
        <ele>737</ele>
        <time>2026-05-09T14:39:36.064Z</time>
      </trkpt>
      <trkpt lat="47.93566" lon="6.94999">
        <ele>738</ele>
        <time>2026-05-09T14:39:37.065Z</time>
      </trkpt>
      <trkpt lat="47.93565" lon="6.95">
        <ele>738</ele>
        <time>2026-05-09T14:39:38.065Z</time>
      </trkpt>
      <trkpt lat="47.93564" lon="6.95001">
        <ele>738</ele>
        <time>2026-05-09T14:39:39.065Z</time>
      </trkpt>
      <trkpt lat="47.93563" lon="6.95002">
        <ele>738</ele>
        <time>2026-05-09T14:39:40.064Z</time>
      </trkpt>
      <trkpt lat="47.93563" lon="6.95003">
        <ele>738</ele>
        <time>2026-05-09T14:39:41.064Z</time>
      </trkpt>
      <trkpt lat="47.93562" lon="6.95004">
        <ele>738</ele>
        <time>2026-05-09T14:39:42.064Z</time>
      </trkpt>
      <trkpt lat="47.93562" lon="6.95005">
        <ele>739</ele>
        <time>2026-05-09T14:39:43.065Z</time>
      </trkpt>
      <trkpt lat="47.93561" lon="6.95006">
        <ele>739</ele>
        <time>2026-05-09T14:39:44.064Z</time>
      </trkpt>
      <trkpt lat="47.9356" lon="6.95006">
        <ele>739</ele>
        <time>2026-05-09T14:39:45.064Z</time>
      </trkpt>
      <trkpt lat="47.93559" lon="6.95008">
        <ele>739</ele>
        <time>2026-05-09T14:39:46.065Z</time>
      </trkpt>
      <trkpt lat="47.93557" lon="6.95009">
        <ele>739</ele>
        <time>2026-05-09T14:39:47.065Z</time>
      </trkpt>
      <trkpt lat="47.93556" lon="6.9501">
        <ele>739</ele>
        <time>2026-05-09T14:39:48.065Z</time>
      </trkpt>
      <trkpt lat="47.93555" lon="6.95011">
        <ele>739</ele>
        <time>2026-05-09T14:39:49.065Z</time>
      </trkpt>
      <trkpt lat="47.93554" lon="6.95012">
        <ele>739</ele>
        <time>2026-05-09T14:39:50.065Z</time>
      </trkpt>
      <trkpt lat="47.93553" lon="6.95013">
        <ele>739</ele>
        <time>2026-05-09T14:39:51.064Z</time>
      </trkpt>
      <trkpt lat="47.93551" lon="6.95014">
        <ele>739</ele>
        <time>2026-05-09T14:39:52.065Z</time>
      </trkpt>
      <trkpt lat="47.9355" lon="6.95015">
        <ele>739</ele>
        <time>2026-05-09T14:39:53.065Z</time>
      </trkpt>
      <trkpt lat="47.9355" lon="6.95017">
        <ele>739</ele>
        <time>2026-05-09T14:39:54.064Z</time>
      </trkpt>
      <trkpt lat="47.93549" lon="6.95019">
        <ele>739</ele>
        <time>2026-05-09T14:39:55.065Z</time>
      </trkpt>
      <trkpt lat="47.93548" lon="6.9502">
        <ele>738</ele>
        <time>2026-05-09T14:39:56.064Z</time>
      </trkpt>
      <trkpt lat="47.93547" lon="6.95021">
        <ele>738</ele>
        <time>2026-05-09T14:39:57.064Z</time>
      </trkpt>
      <trkpt lat="47.93546" lon="6.95022">
        <ele>737</ele>
        <time>2026-05-09T14:39:58.064Z</time>
      </trkpt>
      <trkpt lat="47.93545" lon="6.95024">
        <ele>736</ele>
        <time>2026-05-09T14:39:59.064Z</time>
      </trkpt>
      <trkpt lat="47.93545" lon="6.95025">
        <ele>736</ele>
        <time>2026-05-09T14:40:00.065Z</time>
      </trkpt>
      <trkpt lat="47.93544" lon="6.95026">
        <ele>736</ele>
        <time>2026-05-09T14:40:01.064Z</time>
      </trkpt>
      <trkpt lat="47.93543" lon="6.95028">
        <ele>736</ele>
        <time>2026-05-09T14:40:02.064Z</time>
      </trkpt>
      <trkpt lat="47.93542" lon="6.95031">
        <ele>735</ele>
        <time>2026-05-09T14:40:03.065Z</time>
      </trkpt>
      <trkpt lat="47.93541" lon="6.95033">
        <ele>735</ele>
        <time>2026-05-09T14:40:04.065Z</time>
      </trkpt>
      <trkpt lat="47.9354" lon="6.95034">
        <ele>735</ele>
        <time>2026-05-09T14:40:05.064Z</time>
      </trkpt>
      <trkpt lat="47.93538" lon="6.95035">
        <ele>735</ele>
        <time>2026-05-09T14:40:06.065Z</time>
      </trkpt>
      <trkpt lat="47.93538" lon="6.95036">
        <ele>735</ele>
        <time>2026-05-09T14:40:07.065Z</time>
      </trkpt>
      <trkpt lat="47.93537" lon="6.95037">
        <ele>735</ele>
        <time>2026-05-09T14:40:08.064Z</time>
      </trkpt>
      <trkpt lat="47.93536" lon="6.95039">
        <ele>735</ele>
        <time>2026-05-09T14:40:09.064Z</time>
      </trkpt>
      <trkpt lat="47.93534" lon="6.9504">
        <ele>735</ele>
        <time>2026-05-09T14:40:10.065Z</time>
      </trkpt>
      <trkpt lat="47.93533" lon="6.95041">
        <ele>736</ele>
        <time>2026-05-09T14:40:11.065Z</time>
      </trkpt>
      <trkpt lat="47.93532" lon="6.95042">
        <ele>736</ele>
        <time>2026-05-09T14:40:12.064Z</time>
      </trkpt>
      <trkpt lat="47.93532" lon="6.95042">
        <ele>737</ele>
        <time>2026-05-09T14:40:13.065Z</time>
      </trkpt>
      <trkpt lat="47.93531" lon="6.95043">
        <ele>737</ele>
        <time>2026-05-09T14:40:14.064Z</time>
      </trkpt>
      <trkpt lat="47.9353" lon="6.95044">
        <ele>737</ele>
        <time>2026-05-09T14:40:15.065Z</time>
      </trkpt>
      <trkpt lat="47.93529" lon="6.95044">
        <ele>737</ele>
        <time>2026-05-09T14:40:16.064Z</time>
      </trkpt>
      <trkpt lat="47.93528" lon="6.95045">
        <ele>737</ele>
        <time>2026-05-09T14:40:17.065Z</time>
      </trkpt>
      <trkpt lat="47.93527" lon="6.95045">
        <ele>737</ele>
        <time>2026-05-09T14:40:18.064Z</time>
      </trkpt>
      <trkpt lat="47.93526" lon="6.95046">
        <ele>738</ele>
        <time>2026-05-09T14:40:19.065Z</time>
      </trkpt>
      <trkpt lat="47.93524" lon="6.95047">
        <ele>738</ele>
        <time>2026-05-09T14:40:20.064Z</time>
      </trkpt>
      <trkpt lat="47.93523" lon="6.95049">
        <ele>738</ele>
        <time>2026-05-09T14:40:21.065Z</time>
      </trkpt>
      <trkpt lat="47.93521" lon="6.9505">
        <ele>738</ele>
        <time>2026-05-09T14:40:22.064Z</time>
      </trkpt>
      <trkpt lat="47.93519" lon="6.95051">
        <ele>739</ele>
        <time>2026-05-09T14:40:23.065Z</time>
      </trkpt>
      <trkpt lat="47.93519" lon="6.95053">
        <ele>739</ele>
        <time>2026-05-09T14:40:24.064Z</time>
      </trkpt>
      <trkpt lat="47.93518" lon="6.95054">
        <ele>739</ele>
        <time>2026-05-09T14:40:25.065Z</time>
      </trkpt>
      <trkpt lat="47.93517" lon="6.95055">
        <ele>739</ele>
        <time>2026-05-09T14:40:26.064Z</time>
      </trkpt>
      <trkpt lat="47.93515" lon="6.95056">
        <ele>740</ele>
        <time>2026-05-09T14:40:27.065Z</time>
      </trkpt>
      <trkpt lat="47.93514" lon="6.95057">
        <ele>740</ele>
        <time>2026-05-09T14:40:28.065Z</time>
      </trkpt>
      <trkpt lat="47.93513" lon="6.95057">
        <ele>740</ele>
        <time>2026-05-09T14:40:29.064Z</time>
      </trkpt>
      <trkpt lat="47.93512" lon="6.95058">
        <ele>740</ele>
        <time>2026-05-09T14:40:30.065Z</time>
      </trkpt>
      <trkpt lat="47.93511" lon="6.95058">
        <ele>740</ele>
        <time>2026-05-09T14:40:31.064Z</time>
      </trkpt>
      <trkpt lat="47.9351" lon="6.95058">
        <ele>740</ele>
        <time>2026-05-09T14:40:32.064Z</time>
      </trkpt>
      <trkpt lat="47.93509" lon="6.95059">
        <ele>741</ele>
        <time>2026-05-09T14:40:33.064Z</time>
      </trkpt>
      <trkpt lat="47.93508" lon="6.9506">
        <ele>741</ele>
        <time>2026-05-09T14:40:34.065Z</time>
      </trkpt>
      <trkpt lat="47.93507" lon="6.95061">
        <ele>741</ele>
        <time>2026-05-09T14:40:35.064Z</time>
      </trkpt>
      <trkpt lat="47.93506" lon="6.95061">
        <ele>741</ele>
        <time>2026-05-09T14:40:36.065Z</time>
      </trkpt>
      <trkpt lat="47.93505" lon="6.95061">
        <ele>741</ele>
        <time>2026-05-09T14:40:37.064Z</time>
      </trkpt>
      <trkpt lat="47.93504" lon="6.95062">
        <ele>741</ele>
        <time>2026-05-09T14:40:38.064Z</time>
      </trkpt>
      <trkpt lat="47.93503" lon="6.95062">
        <ele>740</ele>
        <time>2026-05-09T14:40:39.064Z</time>
      </trkpt>
      <trkpt lat="47.93501" lon="6.95062">
        <ele>741</ele>
        <time>2026-05-09T14:40:40.065Z</time>
      </trkpt>
      <trkpt lat="47.935" lon="6.95063">
        <ele>741</ele>
        <time>2026-05-09T14:40:41.064Z</time>
      </trkpt>
      <trkpt lat="47.93498" lon="6.95064">
        <ele>741</ele>
        <time>2026-05-09T14:40:42.065Z</time>
      </trkpt>
      <trkpt lat="47.93496" lon="6.95066">
        <ele>741</ele>
        <time>2026-05-09T14:40:43.065Z</time>
      </trkpt>
      <trkpt lat="47.93495" lon="6.95066">
        <ele>741</ele>
        <time>2026-05-09T14:40:44.065Z</time>
      </trkpt>
      <trkpt lat="47.93493" lon="6.95067">
        <ele>741</ele>
        <time>2026-05-09T14:40:45.065Z</time>
      </trkpt>
      <trkpt lat="47.93492" lon="6.95067">
        <ele>741</ele>
        <time>2026-05-09T14:40:46.064Z</time>
      </trkpt>
      <trkpt lat="47.9349" lon="6.95068">
        <ele>741</ele>
        <time>2026-05-09T14:40:47.065Z</time>
      </trkpt>
      <trkpt lat="47.93489" lon="6.95068">
        <ele>741</ele>
        <time>2026-05-09T14:40:48.064Z</time>
      </trkpt>
      <trkpt lat="47.93488" lon="6.95068">
        <ele>742</ele>
        <time>2026-05-09T14:40:49.065Z</time>
      </trkpt>
      <trkpt lat="47.93487" lon="6.95068">
        <ele>742</ele>
        <time>2026-05-09T14:40:50.064Z</time>
      </trkpt>
      <trkpt lat="47.93486" lon="6.95069">
        <ele>743</ele>
        <time>2026-05-09T14:40:51.065Z</time>
      </trkpt>
      <trkpt lat="47.93485" lon="6.95069">
        <ele>743</ele>
        <time>2026-05-09T14:40:52.064Z</time>
      </trkpt>
      <trkpt lat="47.93484" lon="6.95069">
        <ele>743</ele>
        <time>2026-05-09T14:40:53.065Z</time>
      </trkpt>
      <trkpt lat="47.93483" lon="6.95069">
        <ele>743</ele>
        <time>2026-05-09T14:40:54.065Z</time>
      </trkpt>
      <trkpt lat="47.93482" lon="6.95069">
        <ele>743</ele>
        <time>2026-05-09T14:40:55.064Z</time>
      </trkpt>
      <trkpt lat="47.93481" lon="6.95069">
        <ele>743</ele>
        <time>2026-05-09T14:40:56.065Z</time>
      </trkpt>
      <trkpt lat="47.9348" lon="6.95069">
        <ele>742</ele>
        <time>2026-05-09T14:40:57.065Z</time>
      </trkpt>
      <trkpt lat="47.93479" lon="6.95069">
        <ele>742</ele>
        <time>2026-05-09T14:40:58.064Z</time>
      </trkpt>
      <trkpt lat="47.93477" lon="6.9507">
        <ele>742</ele>
        <time>2026-05-09T14:40:59.065Z</time>
      </trkpt>
      <trkpt lat="47.93475" lon="6.9507">
        <ele>742</ele>
        <time>2026-05-09T14:41:00.064Z</time>
      </trkpt>
      <trkpt lat="47.93474" lon="6.9507">
        <ele>743</ele>
        <time>2026-05-09T14:41:01.065Z</time>
      </trkpt>
      <trkpt lat="47.93472" lon="6.9507">
        <ele>743</ele>
        <time>2026-05-09T14:41:02.064Z</time>
      </trkpt>
      <trkpt lat="47.93471" lon="6.9507">
        <ele>743</ele>
        <time>2026-05-09T14:41:03.065Z</time>
      </trkpt>
      <trkpt lat="47.93469" lon="6.9507">
        <ele>743</ele>
        <time>2026-05-09T14:41:04.064Z</time>
      </trkpt>
      <trkpt lat="47.93468" lon="6.9507">
        <ele>743</ele>
        <time>2026-05-09T14:41:05.064Z</time>
      </trkpt>
      <trkpt lat="47.93467" lon="6.9507">
        <ele>743</ele>
        <time>2026-05-09T14:41:06.064Z</time>
      </trkpt>
      <trkpt lat="47.93466" lon="6.9507">
        <ele>743</ele>
        <time>2026-05-09T14:41:07.064Z</time>
      </trkpt>
      <trkpt lat="47.93465" lon="6.9507">
        <ele>743</ele>
        <time>2026-05-09T14:41:08.064Z</time>
      </trkpt>
      <trkpt lat="47.93464" lon="6.95071">
        <ele>743</ele>
        <time>2026-05-09T14:41:09.065Z</time>
      </trkpt>
      <trkpt lat="47.93463" lon="6.95071">
        <ele>743</ele>
        <time>2026-05-09T14:41:10.064Z</time>
      </trkpt>
      <trkpt lat="47.93462" lon="6.95071">
        <ele>743</ele>
        <time>2026-05-09T14:41:11.065Z</time>
      </trkpt>
      <trkpt lat="47.93461" lon="6.95071">
        <ele>743</ele>
        <time>2026-05-09T14:41:12.064Z</time>
      </trkpt>
      <trkpt lat="47.9346" lon="6.95072">
        <ele>743</ele>
        <time>2026-05-09T14:41:13.065Z</time>
      </trkpt>
      <trkpt lat="47.93459" lon="6.95072">
        <ele>743</ele>
        <time>2026-05-09T14:41:14.065Z</time>
      </trkpt>
      <trkpt lat="47.93458" lon="6.95072">
        <ele>743</ele>
        <time>2026-05-09T14:41:15.064Z</time>
      </trkpt>
      <trkpt lat="47.93456" lon="6.95072">
        <ele>743</ele>
        <time>2026-05-09T14:41:16.065Z</time>
      </trkpt>
      <trkpt lat="47.93455" lon="6.95072">
        <ele>743</ele>
        <time>2026-05-09T14:41:17.064Z</time>
      </trkpt>
      <trkpt lat="47.93454" lon="6.95072">
        <ele>743</ele>
        <time>2026-05-09T14:41:18.065Z</time>
      </trkpt>
      <trkpt lat="47.93453" lon="6.95073">
        <ele>744</ele>
        <time>2026-05-09T14:41:19.064Z</time>
      </trkpt>
      <trkpt lat="47.93452" lon="6.95073">
        <ele>744</ele>
        <time>2026-05-09T14:41:20.065Z</time>
      </trkpt>
      <trkpt lat="47.93452" lon="6.95073">
        <ele>744</ele>
        <time>2026-05-09T14:41:21.064Z</time>
      </trkpt>
      <trkpt lat="47.93451" lon="6.95073">
        <ele>744</ele>
        <time>2026-05-09T14:41:22.065Z</time>
      </trkpt>
      <trkpt lat="47.93451" lon="6.95074">
        <ele>744</ele>
        <time>2026-05-09T14:41:23.064Z</time>
      </trkpt>
      <trkpt lat="47.93451" lon="6.95074">
        <ele>744</ele>
        <time>2026-05-09T14:41:24.065Z</time>
      </trkpt>
      <trkpt lat="47.9345" lon="6.95074">
        <ele>744</ele>
        <time>2026-05-09T14:41:25.064Z</time>
      </trkpt>
      <trkpt lat="47.9345" lon="6.95074">
        <ele>744</ele>
        <time>2026-05-09T14:41:26.065Z</time>
      </trkpt>
      <trkpt lat="47.93449" lon="6.95075">
        <ele>744</ele>
        <time>2026-05-09T14:41:27.064Z</time>
      </trkpt>
      <trkpt lat="47.93448" lon="6.95075">
        <ele>744</ele>
        <time>2026-05-09T14:41:28.065Z</time>
      </trkpt>
      <trkpt lat="47.93447" lon="6.95076">
        <ele>744</ele>
        <time>2026-05-09T14:41:29.065Z</time>
      </trkpt>
      <trkpt lat="47.93447" lon="6.95076">
        <ele>744</ele>
        <time>2026-05-09T14:41:30.064Z</time>
      </trkpt>
      <trkpt lat="47.93446" lon="6.95076">
        <ele>744</ele>
        <time>2026-05-09T14:41:31.064Z</time>
      </trkpt>
      <trkpt lat="47.93446" lon="6.95075">
        <ele>744</ele>
        <time>2026-05-09T14:41:32.064Z</time>
      </trkpt>
      <trkpt lat="47.93441" lon="6.95077">
        <ele>742</ele>
        <time>2026-05-09T14:41:44.269Z</time>
      </trkpt>
      <trkpt lat="47.9344" lon="6.95077">
        <ele>742</ele>
        <time>2026-05-09T14:41:45.268Z</time>
      </trkpt>
      <trkpt lat="47.93438" lon="6.95077">
        <ele>742</ele>
        <time>2026-05-09T14:41:46.269Z</time>
      </trkpt>
      <trkpt lat="47.93437" lon="6.95078">
        <ele>743</ele>
        <time>2026-05-09T14:41:47.269Z</time>
      </trkpt>
      <trkpt lat="47.93435" lon="6.95078">
        <ele>743</ele>
        <time>2026-05-09T14:41:48.269Z</time>
      </trkpt>
      <trkpt lat="47.93434" lon="6.95079">
        <ele>743</ele>
        <time>2026-05-09T14:41:49.269Z</time>
      </trkpt>
      <trkpt lat="47.93433" lon="6.95079">
        <ele>743</ele>
        <time>2026-05-09T14:41:50.268Z</time>
      </trkpt>
      <trkpt lat="47.93431" lon="6.95078">
        <ele>743</ele>
        <time>2026-05-09T14:41:51.269Z</time>
      </trkpt>
      <trkpt lat="47.9343" lon="6.95078">
        <ele>744</ele>
        <time>2026-05-09T14:41:52.268Z</time>
      </trkpt>
      <trkpt lat="47.93429" lon="6.95078">
        <ele>744</ele>
        <time>2026-05-09T14:41:53.269Z</time>
      </trkpt>
      <trkpt lat="47.93427" lon="6.95077">
        <ele>745</ele>
        <time>2026-05-09T14:41:54.268Z</time>
      </trkpt>
      <trkpt lat="47.93426" lon="6.95077">
        <ele>746</ele>
        <time>2026-05-09T14:41:55.269Z</time>
      </trkpt>
      <trkpt lat="47.93425" lon="6.95076">
        <ele>746</ele>
        <time>2026-05-09T14:41:56.268Z</time>
      </trkpt>
      <trkpt lat="47.93424" lon="6.95076">
        <ele>747</ele>
        <time>2026-05-09T14:41:57.269Z</time>
      </trkpt>
      <trkpt lat="47.93423" lon="6.95075">
        <ele>747</ele>
        <time>2026-05-09T14:41:58.268Z</time>
      </trkpt>
      <trkpt lat="47.93422" lon="6.95074">
        <ele>748</ele>
        <time>2026-05-09T14:41:59.268Z</time>
      </trkpt>
      <trkpt lat="47.93422" lon="6.95073">
        <ele>748</ele>
        <time>2026-05-09T14:42:00.268Z</time>
      </trkpt>
      <trkpt lat="47.93421" lon="6.95072">
        <ele>748</ele>
        <time>2026-05-09T14:42:01.269Z</time>
      </trkpt>
      <trkpt lat="47.9342" lon="6.95071">
        <ele>748</ele>
        <time>2026-05-09T14:42:02.268Z</time>
      </trkpt>
      <trkpt lat="47.93419" lon="6.95071">
        <ele>748</ele>
        <time>2026-05-09T14:42:03.269Z</time>
      </trkpt>
      <trkpt lat="47.93418" lon="6.9507">
        <ele>747</ele>
        <time>2026-05-09T14:42:04.269Z</time>
      </trkpt>
      <trkpt lat="47.93417" lon="6.95069">
        <ele>747</ele>
        <time>2026-05-09T14:42:05.269Z</time>
      </trkpt>
      <trkpt lat="47.93416" lon="6.95068">
        <ele>747</ele>
        <time>2026-05-09T14:42:06.269Z</time>
      </trkpt>
      <trkpt lat="47.93415" lon="6.95067">
        <ele>746</ele>
        <time>2026-05-09T14:42:07.268Z</time>
      </trkpt>
      <trkpt lat="47.93414" lon="6.95066">
        <ele>746</ele>
        <time>2026-05-09T14:42:08.269Z</time>
      </trkpt>
      <trkpt lat="47.93413" lon="6.95065">
        <ele>746</ele>
        <time>2026-05-09T14:42:09.268Z</time>
      </trkpt>
      <trkpt lat="47.93412" lon="6.95064">
        <ele>746</ele>
        <time>2026-05-09T14:42:10.269Z</time>
      </trkpt>
      <trkpt lat="47.93411" lon="6.95063">
        <ele>746</ele>
        <time>2026-05-09T14:42:11.268Z</time>
      </trkpt>
      <trkpt lat="47.9341" lon="6.95063">
        <ele>746</ele>
        <time>2026-05-09T14:42:12.268Z</time>
      </trkpt>
      <trkpt lat="47.93409" lon="6.95062">
        <ele>746</ele>
        <time>2026-05-09T14:42:13.268Z</time>
      </trkpt>
      <trkpt lat="47.93408" lon="6.95062">
        <ele>746</ele>
        <time>2026-05-09T14:42:14.269Z</time>
      </trkpt>
      <trkpt lat="47.93406" lon="6.95063">
        <ele>746</ele>
        <time>2026-05-09T14:42:15.268Z</time>
      </trkpt>
      <trkpt lat="47.93405" lon="6.95063">
        <ele>745</ele>
        <time>2026-05-09T14:42:16.269Z</time>
      </trkpt>
      <trkpt lat="47.93404" lon="6.95063">
        <ele>745</ele>
        <time>2026-05-09T14:42:17.268Z</time>
      </trkpt>
      <trkpt lat="47.93403" lon="6.95063">
        <ele>745</ele>
        <time>2026-05-09T14:42:18.269Z</time>
      </trkpt>
      <trkpt lat="47.93401" lon="6.95064">
        <ele>744</ele>
        <time>2026-05-09T14:42:19.269Z</time>
      </trkpt>
      <trkpt lat="47.934" lon="6.95064">
        <ele>744</ele>
        <time>2026-05-09T14:42:20.269Z</time>
      </trkpt>
      <trkpt lat="47.934" lon="6.95064">
        <ele>743</ele>
        <time>2026-05-09T14:42:21.269Z</time>
      </trkpt>
      <trkpt lat="47.93401" lon="6.95063">
        <ele>743</ele>
        <time>2026-05-09T14:42:22.268Z</time>
      </trkpt>
      <trkpt lat="47.93402" lon="6.95062">
        <ele>743</ele>
        <time>2026-05-09T14:42:23.269Z</time>
      </trkpt>
      <trkpt lat="47.93403" lon="6.95061">
        <ele>743</ele>
        <time>2026-05-09T14:42:24.268Z</time>
      </trkpt>
      <trkpt lat="47.93404" lon="6.95061">
        <ele>743</ele>
        <time>2026-05-09T14:42:25.269Z</time>
      </trkpt>
      <trkpt lat="47.93406" lon="6.9506">
        <ele>743</ele>
        <time>2026-05-09T14:42:26.268Z</time>
      </trkpt>
      <trkpt lat="47.93408" lon="6.9506">
        <ele>743</ele>
        <time>2026-05-09T14:42:27.269Z</time>
      </trkpt>
      <trkpt lat="47.93409" lon="6.95061">
        <ele>744</ele>
        <time>2026-05-09T14:42:28.268Z</time>
      </trkpt>
      <trkpt lat="47.93411" lon="6.95061">
        <ele>744</ele>
        <time>2026-05-09T14:42:29.269Z</time>
      </trkpt>
      <trkpt lat="47.93412" lon="6.95062">
        <ele>744</ele>
        <time>2026-05-09T14:42:30.268Z</time>
      </trkpt>
      <trkpt lat="47.93414" lon="6.95063">
        <ele>745</ele>
        <time>2026-05-09T14:42:31.269Z</time>
      </trkpt>
      <trkpt lat="47.93415" lon="6.95064">
        <ele>745</ele>
        <time>2026-05-09T14:42:32.269Z</time>
      </trkpt>
      <trkpt lat="47.93417" lon="6.95065">
        <ele>745</ele>
        <time>2026-05-09T14:42:33.269Z</time>
      </trkpt>
      <trkpt lat="47.93418" lon="6.95066">
        <ele>745</ele>
        <time>2026-05-09T14:42:34.268Z</time>
      </trkpt>
      <trkpt lat="47.93419" lon="6.95067">
        <ele>745</ele>
        <time>2026-05-09T14:42:35.269Z</time>
      </trkpt>
      <trkpt lat="47.9342" lon="6.95068">
        <ele>745</ele>
        <time>2026-05-09T14:42:36.269Z</time>
      </trkpt>
      <trkpt lat="47.93421" lon="6.95069">
        <ele>745</ele>
        <time>2026-05-09T14:42:37.269Z</time>
      </trkpt>
      <trkpt lat="47.93422" lon="6.9507">
        <ele>745</ele>
        <time>2026-05-09T14:42:38.269Z</time>
      </trkpt>
      <trkpt lat="47.93422" lon="6.95071">
        <ele>745</ele>
        <time>2026-05-09T14:42:39.268Z</time>
      </trkpt>
      <trkpt lat="47.93423" lon="6.95073">
        <ele>745</ele>
        <time>2026-05-09T14:42:40.269Z</time>
      </trkpt>
      <trkpt lat="47.93424" lon="6.95075">
        <ele>744</ele>
        <time>2026-05-09T14:42:41.269Z</time>
      </trkpt>
      <trkpt lat="47.93424" lon="6.95077">
        <ele>744</ele>
        <time>2026-05-09T14:42:42.268Z</time>
      </trkpt>
      <trkpt lat="47.93424" lon="6.95079">
        <ele>743</ele>
        <time>2026-05-09T14:42:43.269Z</time>
      </trkpt>
      <trkpt lat="47.93424" lon="6.95081">
        <ele>742</ele>
        <time>2026-05-09T14:42:44.268Z</time>
      </trkpt>
      <trkpt lat="47.93424" lon="6.95083">
        <ele>742</ele>
        <time>2026-05-09T14:42:45.268Z</time>
      </trkpt>
      <trkpt lat="47.93423" lon="6.95085">
        <ele>742</ele>
        <time>2026-05-09T14:42:46.268Z</time>
      </trkpt>
      <trkpt lat="47.93422" lon="6.95087">
        <ele>743</ele>
        <time>2026-05-09T14:42:47.269Z</time>
      </trkpt>
      <trkpt lat="47.93422" lon="6.95089">
        <ele>743</ele>
        <time>2026-05-09T14:42:48.269Z</time>
      </trkpt>
      <trkpt lat="47.93422" lon="6.95091">
        <ele>744</ele>
        <time>2026-05-09T14:42:49.268Z</time>
      </trkpt>
      <trkpt lat="47.93421" lon="6.95093">
        <ele>744</ele>
        <time>2026-05-09T14:42:50.269Z</time>
      </trkpt>
      <trkpt lat="47.93421" lon="6.95095">
        <ele>744</ele>
        <time>2026-05-09T14:42:51.268Z</time>
      </trkpt>
      <trkpt lat="47.9342" lon="6.95097">
        <ele>745</ele>
        <time>2026-05-09T14:42:52.269Z</time>
      </trkpt>
      <trkpt lat="47.9342" lon="6.95099">
        <ele>745</ele>
        <time>2026-05-09T14:42:53.268Z</time>
      </trkpt>
      <trkpt lat="47.93419" lon="6.951">
        <ele>745</ele>
        <time>2026-05-09T14:42:54.269Z</time>
      </trkpt>
      <trkpt lat="47.93418" lon="6.95102">
        <ele>745</ele>
        <time>2026-05-09T14:42:55.268Z</time>
      </trkpt>
      <trkpt lat="47.93417" lon="6.95103">
        <ele>745</ele>
        <time>2026-05-09T14:42:56.269Z</time>
      </trkpt>
      <trkpt lat="47.93416" lon="6.95105">
        <ele>745</ele>
        <time>2026-05-09T14:42:57.268Z</time>
      </trkpt>
      <trkpt lat="47.93415" lon="6.95107">
        <ele>745</ele>
        <time>2026-05-09T14:42:58.269Z</time>
      </trkpt>
      <trkpt lat="47.93414" lon="6.95109">
        <ele>745</ele>
        <time>2026-05-09T14:42:59.268Z</time>
      </trkpt>
      <trkpt lat="47.93413" lon="6.9511">
        <ele>745</ele>
        <time>2026-05-09T14:43:00.269Z</time>
      </trkpt>
      <trkpt lat="47.93412" lon="6.95111">
        <ele>745</ele>
        <time>2026-05-09T14:43:01.269Z</time>
      </trkpt>
      <trkpt lat="47.93411" lon="6.95112">
        <ele>744</ele>
        <time>2026-05-09T14:43:02.269Z</time>
      </trkpt>
      <trkpt lat="47.9341" lon="6.95113">
        <ele>744</ele>
        <time>2026-05-09T14:43:03.269Z</time>
      </trkpt>
      <trkpt lat="47.9341" lon="6.95113">
        <ele>743</ele>
        <time>2026-05-09T14:43:04.268Z</time>
      </trkpt>
      <trkpt lat="47.93409" lon="6.95114">
        <ele>743</ele>
        <time>2026-05-09T14:43:05.269Z</time>
      </trkpt>
      <trkpt lat="47.93407" lon="6.95115">
        <ele>742</ele>
        <time>2026-05-09T14:43:06.268Z</time>
      </trkpt>
      <trkpt lat="47.93406" lon="6.95116">
        <ele>742</ele>
        <time>2026-05-09T14:43:07.269Z</time>
      </trkpt>
      <trkpt lat="47.93405" lon="6.95117">
        <ele>742</ele>
        <time>2026-05-09T14:43:08.268Z</time>
      </trkpt>
      <trkpt lat="47.93404" lon="6.95118">
        <ele>742</ele>
        <time>2026-05-09T14:43:09.269Z</time>
      </trkpt>
      <trkpt lat="47.93403" lon="6.95119">
        <ele>741</ele>
        <time>2026-05-09T14:43:10.268Z</time>
      </trkpt>
      <trkpt lat="47.93402" lon="6.9512">
        <ele>741</ele>
        <time>2026-05-09T14:43:11.269Z</time>
      </trkpt>
      <trkpt lat="47.93401" lon="6.95122">
        <ele>741</ele>
        <time>2026-05-09T14:43:12.268Z</time>
      </trkpt>
      <trkpt lat="47.934" lon="6.95123">
        <ele>740</ele>
        <time>2026-05-09T14:43:13.269Z</time>
      </trkpt>
      <trkpt lat="47.93399" lon="6.95124">
        <ele>740</ele>
        <time>2026-05-09T14:43:14.269Z</time>
      </trkpt>
      <trkpt lat="47.93398" lon="6.95125">
        <ele>740</ele>
        <time>2026-05-09T14:43:15.268Z</time>
      </trkpt>
      <trkpt lat="47.93397" lon="6.95126">
        <ele>740</ele>
        <time>2026-05-09T14:43:16.268Z</time>
      </trkpt>
      <trkpt lat="47.93396" lon="6.95127">
        <ele>739</ele>
        <time>2026-05-09T14:43:17.269Z</time>
      </trkpt>
      <trkpt lat="47.93394" lon="6.95128">
        <ele>739</ele>
        <time>2026-05-09T14:43:18.269Z</time>
      </trkpt>
      <trkpt lat="47.93393" lon="6.95129">
        <ele>739</ele>
        <time>2026-05-09T14:43:19.268Z</time>
      </trkpt>
      <trkpt lat="47.93392" lon="6.9513">
        <ele>739</ele>
        <time>2026-05-09T14:43:20.268Z</time>
      </trkpt>
      <trkpt lat="47.9339" lon="6.95131">
        <ele>739</ele>
        <time>2026-05-09T14:43:21.268Z</time>
      </trkpt>
      <trkpt lat="47.93389" lon="6.95132">
        <ele>738</ele>
        <time>2026-05-09T14:43:22.269Z</time>
      </trkpt>
      <trkpt lat="47.93387" lon="6.95133">
        <ele>738</ele>
        <time>2026-05-09T14:43:23.268Z</time>
      </trkpt>
      <trkpt lat="47.93386" lon="6.95134">
        <ele>738</ele>
        <time>2026-05-09T14:43:24.269Z</time>
      </trkpt>
      <trkpt lat="47.93384" lon="6.95135">
        <ele>738</ele>
        <time>2026-05-09T14:43:25.268Z</time>
      </trkpt>
      <trkpt lat="47.93383" lon="6.95135">
        <ele>738</ele>
        <time>2026-05-09T14:43:26.269Z</time>
      </trkpt>
      <trkpt lat="47.93381" lon="6.95136">
        <ele>737</ele>
        <time>2026-05-09T14:43:27.268Z</time>
      </trkpt>
      <trkpt lat="47.9338" lon="6.95137">
        <ele>737</ele>
        <time>2026-05-09T14:43:28.269Z</time>
      </trkpt>
      <trkpt lat="47.93378" lon="6.95137">
        <ele>737</ele>
        <time>2026-05-09T14:43:29.268Z</time>
      </trkpt>
      <trkpt lat="47.93377" lon="6.95138">
        <ele>737</ele>
        <time>2026-05-09T14:43:30.269Z</time>
      </trkpt>
      <trkpt lat="47.93375" lon="6.95138">
        <ele>737</ele>
        <time>2026-05-09T14:43:31.268Z</time>
      </trkpt>
      <trkpt lat="47.93374" lon="6.95138">
        <ele>737</ele>
        <time>2026-05-09T14:43:32.269Z</time>
      </trkpt>
      <trkpt lat="47.93372" lon="6.95139">
        <ele>736</ele>
        <time>2026-05-09T14:43:33.269Z</time>
      </trkpt>
      <trkpt lat="47.93371" lon="6.95139">
        <ele>736</ele>
        <time>2026-05-09T14:43:34.269Z</time>
      </trkpt>
      <trkpt lat="47.93369" lon="6.95139">
        <ele>736</ele>
        <time>2026-05-09T14:43:35.269Z</time>
      </trkpt>
      <trkpt lat="47.93368" lon="6.95139">
        <ele>736</ele>
        <time>2026-05-09T14:43:36.268Z</time>
      </trkpt>
      <trkpt lat="47.93366" lon="6.95139">
        <ele>736</ele>
        <time>2026-05-09T14:43:37.269Z</time>
      </trkpt>
      <trkpt lat="47.93365" lon="6.95139">
        <ele>735</ele>
        <time>2026-05-09T14:43:38.268Z</time>
      </trkpt>
      <trkpt lat="47.93363" lon="6.95139">
        <ele>735</ele>
        <time>2026-05-09T14:43:39.269Z</time>
      </trkpt>
      <trkpt lat="47.93361" lon="6.95138">
        <ele>735</ele>
        <time>2026-05-09T14:43:40.268Z</time>
      </trkpt>
      <trkpt lat="47.9336" lon="6.95138">
        <ele>735</ele>
        <time>2026-05-09T14:43:41.269Z</time>
      </trkpt>
      <trkpt lat="47.93358" lon="6.95138">
        <ele>735</ele>
        <time>2026-05-09T14:43:42.268Z</time>
      </trkpt>
      <trkpt lat="47.93357" lon="6.95137">
        <ele>735</ele>
        <time>2026-05-09T14:43:43.269Z</time>
      </trkpt>
      <trkpt lat="47.93356" lon="6.95137">
        <ele>734</ele>
        <time>2026-05-09T14:43:44.268Z</time>
      </trkpt>
      <trkpt lat="47.93354" lon="6.95136">
        <ele>734</ele>
        <time>2026-05-09T14:43:45.269Z</time>
      </trkpt>
      <trkpt lat="47.93353" lon="6.95135">
        <ele>734</ele>
        <time>2026-05-09T14:43:46.268Z</time>
      </trkpt>
      <trkpt lat="47.93351" lon="6.95134">
        <ele>735</ele>
        <time>2026-05-09T14:43:47.269Z</time>
      </trkpt>
      <trkpt lat="47.9335" lon="6.95134">
        <ele>735</ele>
        <time>2026-05-09T14:43:48.268Z</time>
      </trkpt>
      <trkpt lat="47.93349" lon="6.95133">
        <ele>734</ele>
        <time>2026-05-09T14:43:49.269Z</time>
      </trkpt>
      <trkpt lat="47.93347" lon="6.95133">
        <ele>734</ele>
        <time>2026-05-09T14:43:50.269Z</time>
      </trkpt>
      <trkpt lat="47.93346" lon="6.95132">
        <ele>734</ele>
        <time>2026-05-09T14:43:51.269Z</time>
      </trkpt>
      <trkpt lat="47.93344" lon="6.95131">
        <ele>734</ele>
        <time>2026-05-09T14:43:52.269Z</time>
      </trkpt>
      <trkpt lat="47.93342" lon="6.95131">
        <ele>734</ele>
        <time>2026-05-09T14:43:53.268Z</time>
      </trkpt>
      <trkpt lat="47.93341" lon="6.9513">
        <ele>734</ele>
        <time>2026-05-09T14:43:54.268Z</time>
      </trkpt>
      <trkpt lat="47.93339" lon="6.9513">
        <ele>735</ele>
        <time>2026-05-09T14:43:55.269Z</time>
      </trkpt>
      <trkpt lat="47.93338" lon="6.95129">
        <ele>735</ele>
        <time>2026-05-09T14:43:56.268Z</time>
      </trkpt>
      <trkpt lat="47.93336" lon="6.95129">
        <ele>735</ele>
        <time>2026-05-09T14:43:57.269Z</time>
      </trkpt>
      <trkpt lat="47.93335" lon="6.95129">
        <ele>735</ele>
        <time>2026-05-09T14:43:58.268Z</time>
      </trkpt>
      <trkpt lat="47.93333" lon="6.95129">
        <ele>735</ele>
        <time>2026-05-09T14:43:59.269Z</time>
      </trkpt>
      <trkpt lat="47.93332" lon="6.95129">
        <ele>735</ele>
        <time>2026-05-09T14:44:00.268Z</time>
      </trkpt>
      <trkpt lat="47.9333" lon="6.95128">
        <ele>735</ele>
        <time>2026-05-09T14:44:01.269Z</time>
      </trkpt>
      <trkpt lat="47.93329" lon="6.95128">
        <ele>735</ele>
        <time>2026-05-09T14:44:02.268Z</time>
      </trkpt>
      <trkpt lat="47.93327" lon="6.95127">
        <ele>735</ele>
        <time>2026-05-09T14:44:03.269Z</time>
      </trkpt>
      <trkpt lat="47.93326" lon="6.95127">
        <ele>735</ele>
        <time>2026-05-09T14:44:04.268Z</time>
      </trkpt>
      <trkpt lat="47.93324" lon="6.95127">
        <ele>735</ele>
        <time>2026-05-09T14:44:05.269Z</time>
      </trkpt>
      <trkpt lat="47.93323" lon="6.95127">
        <ele>735</ele>
        <time>2026-05-09T14:44:06.269Z</time>
      </trkpt>
      <trkpt lat="47.93322" lon="6.95127">
        <ele>736</ele>
        <time>2026-05-09T14:44:07.268Z</time>
      </trkpt>
      <trkpt lat="47.9332" lon="6.95127">
        <ele>736</ele>
        <time>2026-05-09T14:44:08.269Z</time>
      </trkpt>
      <trkpt lat="47.93319" lon="6.95127">
        <ele>736</ele>
        <time>2026-05-09T14:44:09.268Z</time>
      </trkpt>
      <trkpt lat="47.93317" lon="6.95127">
        <ele>736</ele>
        <time>2026-05-09T14:44:10.269Z</time>
      </trkpt>
      <trkpt lat="47.93315" lon="6.95127">
        <ele>736</ele>
        <time>2026-05-09T14:44:11.268Z</time>
      </trkpt>
      <trkpt lat="47.93314" lon="6.95128">
        <ele>736</ele>
        <time>2026-05-09T14:44:12.269Z</time>
      </trkpt>
      <trkpt lat="47.93313" lon="6.95128">
        <ele>736</ele>
        <time>2026-05-09T14:44:13.268Z</time>
      </trkpt>
      <trkpt lat="47.93311" lon="6.95128">
        <ele>737</ele>
        <time>2026-05-09T14:44:14.269Z</time>
      </trkpt>
      <trkpt lat="47.93309" lon="6.95129">
        <ele>737</ele>
        <time>2026-05-09T14:44:15.268Z</time>
      </trkpt>
      <trkpt lat="47.93308" lon="6.95129">
        <ele>737</ele>
        <time>2026-05-09T14:44:16.269Z</time>
      </trkpt>
      <trkpt lat="47.93307" lon="6.9513">
        <ele>737</ele>
        <time>2026-05-09T14:44:17.268Z</time>
      </trkpt>
      <trkpt lat="47.93305" lon="6.9513">
        <ele>737</ele>
        <time>2026-05-09T14:44:18.269Z</time>
      </trkpt>
      <trkpt lat="47.93304" lon="6.95131">
        <ele>737</ele>
        <time>2026-05-09T14:44:19.268Z</time>
      </trkpt>
      <trkpt lat="47.93303" lon="6.95132">
        <ele>737</ele>
        <time>2026-05-09T14:44:20.269Z</time>
      </trkpt>
      <trkpt lat="47.93301" lon="6.95132">
        <ele>737</ele>
        <time>2026-05-09T14:44:21.269Z</time>
      </trkpt>
      <trkpt lat="47.933" lon="6.95133">
        <ele>737</ele>
        <time>2026-05-09T14:44:22.269Z</time>
      </trkpt>
      <trkpt lat="47.93298" lon="6.95134">
        <ele>737</ele>
        <time>2026-05-09T14:44:23.269Z</time>
      </trkpt>
      <trkpt lat="47.93297" lon="6.95134">
        <ele>737</ele>
        <time>2026-05-09T14:44:24.268Z</time>
      </trkpt>
      <trkpt lat="47.93296" lon="6.95134">
        <ele>737</ele>
        <time>2026-05-09T14:44:25.269Z</time>
      </trkpt>
      <trkpt lat="47.93295" lon="6.95135">
        <ele>736</ele>
        <time>2026-05-09T14:44:26.268Z</time>
      </trkpt>
      <trkpt lat="47.93293" lon="6.95135">
        <ele>736</ele>
        <time>2026-05-09T14:44:27.268Z</time>
      </trkpt>
      <trkpt lat="47.93292" lon="6.95136">
        <ele>736</ele>
        <time>2026-05-09T14:44:28.269Z</time>
      </trkpt>
      <trkpt lat="47.9329" lon="6.95136">
        <ele>736</ele>
        <time>2026-05-09T14:44:29.269Z</time>
      </trkpt>
      <trkpt lat="47.93289" lon="6.95137">
        <ele>736</ele>
        <time>2026-05-09T14:44:30.268Z</time>
      </trkpt>
      <trkpt lat="47.93287" lon="6.95137">
        <ele>736</ele>
        <time>2026-05-09T14:44:31.269Z</time>
      </trkpt>
      <trkpt lat="47.93286" lon="6.95138">
        <ele>736</ele>
        <time>2026-05-09T14:44:32.268Z</time>
      </trkpt>
      <trkpt lat="47.93284" lon="6.95138">
        <ele>735</ele>
        <time>2026-05-09T14:44:33.269Z</time>
      </trkpt>
      <trkpt lat="47.93283" lon="6.95139">
        <ele>736</ele>
        <time>2026-05-09T14:44:34.268Z</time>
      </trkpt>
      <trkpt lat="47.93282" lon="6.95139">
        <ele>736</ele>
        <time>2026-05-09T14:44:35.269Z</time>
      </trkpt>
      <trkpt lat="47.93281" lon="6.9514">
        <ele>735</ele>
        <time>2026-05-09T14:44:36.268Z</time>
      </trkpt>
      <trkpt lat="47.9328" lon="6.9514">
        <ele>735</ele>
        <time>2026-05-09T14:44:37.269Z</time>
      </trkpt>
      <trkpt lat="47.93279" lon="6.95141">
        <ele>735</ele>
        <time>2026-05-09T14:44:38.269Z</time>
      </trkpt>
      <trkpt lat="47.93278" lon="6.95141">
        <ele>735</ele>
        <time>2026-05-09T14:44:39.269Z</time>
      </trkpt>
      <trkpt lat="47.93276" lon="6.95142">
        <ele>734</ele>
        <time>2026-05-09T14:44:40.269Z</time>
      </trkpt>
      <trkpt lat="47.93275" lon="6.95142">
        <ele>734</ele>
        <time>2026-05-09T14:44:41.268Z</time>
      </trkpt>
      <trkpt lat="47.93274" lon="6.95142">
        <ele>734</ele>
        <time>2026-05-09T14:44:42.269Z</time>
      </trkpt>
      <trkpt lat="47.93273" lon="6.95142">
        <ele>734</ele>
        <time>2026-05-09T14:44:43.268Z</time>
      </trkpt>
      <trkpt lat="47.93271" lon="6.95143">
        <ele>734</ele>
        <time>2026-05-09T14:44:44.269Z</time>
      </trkpt>
      <trkpt lat="47.9327" lon="6.95143">
        <ele>733</ele>
        <time>2026-05-09T14:44:45.268Z</time>
      </trkpt>
      <trkpt lat="47.93268" lon="6.95144">
        <ele>733</ele>
        <time>2026-05-09T14:44:46.269Z</time>
      </trkpt>
      <trkpt lat="47.93267" lon="6.95144">
        <ele>732</ele>
        <time>2026-05-09T14:44:47.268Z</time>
      </trkpt>
      <trkpt lat="47.93266" lon="6.95144">
        <ele>732</ele>
        <time>2026-05-09T14:44:48.269Z</time>
      </trkpt>
      <trkpt lat="47.93265" lon="6.95144">
        <ele>732</ele>
        <time>2026-05-09T14:44:49.268Z</time>
      </trkpt>
      <trkpt lat="47.93264" lon="6.95145">
        <ele>731</ele>
        <time>2026-05-09T14:44:50.269Z</time>
      </trkpt>
      <trkpt lat="47.93263" lon="6.95145">
        <ele>731</ele>
        <time>2026-05-09T14:44:51.268Z</time>
      </trkpt>
      <trkpt lat="47.93262" lon="6.95145">
        <ele>731</ele>
        <time>2026-05-09T14:44:52.269Z</time>
      </trkpt>
      <trkpt lat="47.9326" lon="6.95146">
        <ele>731</ele>
        <time>2026-05-09T14:44:53.269Z</time>
      </trkpt>
      <trkpt lat="47.93259" lon="6.95146">
        <ele>731</ele>
        <time>2026-05-09T14:44:54.269Z</time>
      </trkpt>
      <trkpt lat="47.93258" lon="6.95147">
        <ele>730</ele>
        <time>2026-05-09T14:44:55.269Z</time>
      </trkpt>
      <trkpt lat="47.93257" lon="6.95148">
        <ele>730</ele>
        <time>2026-05-09T14:44:56.268Z</time>
      </trkpt>
      <trkpt lat="47.93256" lon="6.95148">
        <ele>730</ele>
        <time>2026-05-09T14:44:57.269Z</time>
      </trkpt>
      <trkpt lat="47.93255" lon="6.95148">
        <ele>730</ele>
        <time>2026-05-09T14:44:58.268Z</time>
      </trkpt>
      <trkpt lat="47.93253" lon="6.95148">
        <ele>729</ele>
        <time>2026-05-09T14:44:59.269Z</time>
      </trkpt>
      <trkpt lat="47.93252" lon="6.95149">
        <ele>729</ele>
        <time>2026-05-09T14:45:00.268Z</time>
      </trkpt>
      <trkpt lat="47.93251" lon="6.95149">
        <ele>729</ele>
        <time>2026-05-09T14:45:01.268Z</time>
      </trkpt>
      <trkpt lat="47.9325" lon="6.95149">
        <ele>728</ele>
        <time>2026-05-09T14:45:02.268Z</time>
      </trkpt>
      <trkpt lat="47.93249" lon="6.95149">
        <ele>728</ele>
        <time>2026-05-09T14:45:03.269Z</time>
      </trkpt>
      <trkpt lat="47.93247" lon="6.9515">
        <ele>728</ele>
        <time>2026-05-09T14:45:04.268Z</time>
      </trkpt>
      <trkpt lat="47.93246" lon="6.9515">
        <ele>728</ele>
        <time>2026-05-09T14:45:05.268Z</time>
      </trkpt>
      <trkpt lat="47.93244" lon="6.95151">
        <ele>728</ele>
        <time>2026-05-09T14:45:06.268Z</time>
      </trkpt>
      <trkpt lat="47.93243" lon="6.95151">
        <ele>728</ele>
        <time>2026-05-09T14:45:07.269Z</time>
      </trkpt>
      <trkpt lat="47.93241" lon="6.95151">
        <ele>728</ele>
        <time>2026-05-09T14:45:08.268Z</time>
      </trkpt>
      <trkpt lat="47.9324" lon="6.95151">
        <ele>728</ele>
        <time>2026-05-09T14:45:09.269Z</time>
      </trkpt>
      <trkpt lat="47.93239" lon="6.9515">
        <ele>728</ele>
        <time>2026-05-09T14:45:10.269Z</time>
      </trkpt>
      <trkpt lat="47.93237" lon="6.9515">
        <ele>728</ele>
        <time>2026-05-09T14:45:11.269Z</time>
      </trkpt>
      <trkpt lat="47.93236" lon="6.9515">
        <ele>728</ele>
        <time>2026-05-09T14:45:12.269Z</time>
      </trkpt>
      <trkpt lat="47.93235" lon="6.95151">
        <ele>728</ele>
        <time>2026-05-09T14:45:13.268Z</time>
      </trkpt>
      <trkpt lat="47.93233" lon="6.95151">
        <ele>728</ele>
        <time>2026-05-09T14:45:14.269Z</time>
      </trkpt>
      <trkpt lat="47.93232" lon="6.95151">
        <ele>728</ele>
        <time>2026-05-09T14:45:15.268Z</time>
      </trkpt>
      <trkpt lat="47.93231" lon="6.95151">
        <ele>728</ele>
        <time>2026-05-09T14:45:16.269Z</time>
      </trkpt>
      <trkpt lat="47.93229" lon="6.9515">
        <ele>728</ele>
        <time>2026-05-09T14:45:17.268Z</time>
      </trkpt>
      <trkpt lat="47.93228" lon="6.9515">
        <ele>728</ele>
        <time>2026-05-09T14:45:18.269Z</time>
      </trkpt>
      <trkpt lat="47.93227" lon="6.9515">
        <ele>728</ele>
        <time>2026-05-09T14:45:19.268Z</time>
      </trkpt>
      <trkpt lat="47.93225" lon="6.95149">
        <ele>728</ele>
        <time>2026-05-09T14:45:20.269Z</time>
      </trkpt>
      <trkpt lat="47.93224" lon="6.95149">
        <ele>728</ele>
        <time>2026-05-09T14:45:21.268Z</time>
      </trkpt>
      <trkpt lat="47.93222" lon="6.95149">
        <ele>728</ele>
        <time>2026-05-09T14:45:22.269Z</time>
      </trkpt>
      <trkpt lat="47.9322" lon="6.95149">
        <ele>728</ele>
        <time>2026-05-09T14:45:23.268Z</time>
      </trkpt>
      <trkpt lat="47.93219" lon="6.95148">
        <ele>728</ele>
        <time>2026-05-09T14:45:24.269Z</time>
      </trkpt>
      <trkpt lat="47.93217" lon="6.95148">
        <ele>728</ele>
        <time>2026-05-09T14:45:25.268Z</time>
      </trkpt>
      <trkpt lat="47.93215" lon="6.95148">
        <ele>728</ele>
        <time>2026-05-09T14:45:26.269Z</time>
      </trkpt>
      <trkpt lat="47.93213" lon="6.95148">
        <ele>729</ele>
        <time>2026-05-09T14:45:27.269Z</time>
      </trkpt>
      <trkpt lat="47.93212" lon="6.95148">
        <ele>729</ele>
        <time>2026-05-09T14:45:28.269Z</time>
      </trkpt>
      <trkpt lat="47.9321" lon="6.95147">
        <ele>729</ele>
        <time>2026-05-09T14:45:29.269Z</time>
      </trkpt>
      <trkpt lat="47.93209" lon="6.95147">
        <ele>729</ele>
        <time>2026-05-09T14:45:30.268Z</time>
      </trkpt>
      <trkpt lat="47.93208" lon="6.95147">
        <ele>729</ele>
        <time>2026-05-09T14:45:31.269Z</time>
      </trkpt>
      <trkpt lat="47.93207" lon="6.95147">
        <ele>729</ele>
        <time>2026-05-09T14:45:32.268Z</time>
      </trkpt>
      <trkpt lat="47.93206" lon="6.95147">
        <ele>729</ele>
        <time>2026-05-09T14:45:33.269Z</time>
      </trkpt>
      <trkpt lat="47.93204" lon="6.95146">
        <ele>729</ele>
        <time>2026-05-09T14:45:34.268Z</time>
      </trkpt>
      <trkpt lat="47.93203" lon="6.95145">
        <ele>730</ele>
        <time>2026-05-09T14:45:35.268Z</time>
      </trkpt>
      <trkpt lat="47.93202" lon="6.95145">
        <ele>730</ele>
        <time>2026-05-09T14:45:36.268Z</time>
      </trkpt>
      <trkpt lat="47.932" lon="6.95144">
        <ele>730</ele>
        <time>2026-05-09T14:45:37.269Z</time>
      </trkpt>
      <trkpt lat="47.93199" lon="6.95144">
        <ele>730</ele>
        <time>2026-05-09T14:45:38.268Z</time>
      </trkpt>
      <trkpt lat="47.93197" lon="6.95144">
        <ele>730</ele>
        <time>2026-05-09T14:45:39.269Z</time>
      </trkpt>
      <trkpt lat="47.93196" lon="6.95143">
        <ele>729</ele>
        <time>2026-05-09T14:45:40.268Z</time>
      </trkpt>
      <trkpt lat="47.93194" lon="6.95143">
        <ele>729</ele>
        <time>2026-05-09T14:45:41.269Z</time>
      </trkpt>
      <trkpt lat="47.93193" lon="6.95143">
        <ele>729</ele>
        <time>2026-05-09T14:45:42.269Z</time>
      </trkpt>
      <trkpt lat="47.93192" lon="6.95143">
        <ele>729</ele>
        <time>2026-05-09T14:45:43.269Z</time>
      </trkpt>
      <trkpt lat="47.93191" lon="6.95142">
        <ele>729</ele>
        <time>2026-05-09T14:45:44.268Z</time>
      </trkpt>
      <trkpt lat="47.9319" lon="6.95142">
        <ele>728</ele>
        <time>2026-05-09T14:45:45.269Z</time>
      </trkpt>
      <trkpt lat="47.93188" lon="6.95142">
        <ele>728</ele>
        <time>2026-05-09T14:45:46.268Z</time>
      </trkpt>
      <trkpt lat="47.93187" lon="6.95142">
        <ele>728</ele>
        <time>2026-05-09T14:45:47.269Z</time>
      </trkpt>
      <trkpt lat="47.93185" lon="6.95142">
        <ele>727</ele>
        <time>2026-05-09T14:45:48.269Z</time>
      </trkpt>
      <trkpt lat="47.93184" lon="6.95142">
        <ele>727</ele>
        <time>2026-05-09T14:45:49.269Z</time>
      </trkpt>
      <trkpt lat="47.93182" lon="6.95142">
        <ele>727</ele>
        <time>2026-05-09T14:45:50.269Z</time>
      </trkpt>
      <trkpt lat="47.93181" lon="6.95143">
        <ele>727</ele>
        <time>2026-05-09T14:45:51.269Z</time>
      </trkpt>
      <trkpt lat="47.9318" lon="6.95143">
        <ele>727</ele>
        <time>2026-05-09T14:45:52.269Z</time>
      </trkpt>
      <trkpt lat="47.93179" lon="6.95144">
        <ele>727</ele>
        <time>2026-05-09T14:45:53.268Z</time>
      </trkpt>
      <trkpt lat="47.93178" lon="6.95144">
        <ele>727</ele>
        <time>2026-05-09T14:45:54.269Z</time>
      </trkpt>
      <trkpt lat="47.93176" lon="6.95145">
        <ele>726</ele>
        <time>2026-05-09T14:45:55.268Z</time>
      </trkpt>
      <trkpt lat="47.93175" lon="6.95145">
        <ele>726</ele>
        <time>2026-05-09T14:45:56.269Z</time>
      </trkpt>
      <trkpt lat="47.93174" lon="6.95145">
        <ele>726</ele>
        <time>2026-05-09T14:45:57.268Z</time>
      </trkpt>
      <trkpt lat="47.93173" lon="6.95145">
        <ele>725</ele>
        <time>2026-05-09T14:45:58.269Z</time>
      </trkpt>
      <trkpt lat="47.93172" lon="6.95146">
        <ele>725</ele>
        <time>2026-05-09T14:45:59.268Z</time>
      </trkpt>
      <trkpt lat="47.93171" lon="6.95146">
        <ele>724</ele>
        <time>2026-05-09T14:46:00.269Z</time>
      </trkpt>
      <trkpt lat="47.93169" lon="6.95146">
        <ele>724</ele>
        <time>2026-05-09T14:46:01.268Z</time>
      </trkpt>
      <trkpt lat="47.93167" lon="6.95146">
        <ele>724</ele>
        <time>2026-05-09T14:46:02.269Z</time>
      </trkpt>
      <trkpt lat="47.93166" lon="6.95147">
        <ele>723</ele>
        <time>2026-05-09T14:46:03.268Z</time>
      </trkpt>
      <trkpt lat="47.93165" lon="6.95146">
        <ele>723</ele>
        <time>2026-05-09T14:46:04.269Z</time>
      </trkpt>
      <trkpt lat="47.93163" lon="6.95146">
        <ele>723</ele>
        <time>2026-05-09T14:46:05.268Z</time>
      </trkpt>
      <trkpt lat="47.93162" lon="6.95146">
        <ele>723</ele>
        <time>2026-05-09T14:46:06.269Z</time>
      </trkpt>
      <trkpt lat="47.9316" lon="6.95146">
        <ele>722</ele>
        <time>2026-05-09T14:46:07.269Z</time>
      </trkpt>
      <trkpt lat="47.93159" lon="6.95146">
        <ele>722</ele>
        <time>2026-05-09T14:46:08.268Z</time>
      </trkpt>
      <trkpt lat="47.93157" lon="6.95148">
        <ele>722</ele>
        <time>2026-05-09T14:46:09.268Z</time>
      </trkpt>
      <trkpt lat="47.93155" lon="6.95149">
        <ele>721</ele>
        <time>2026-05-09T14:46:10.269Z</time>
      </trkpt>
      <trkpt lat="47.93154" lon="6.9515">
        <ele>720</ele>
        <time>2026-05-09T14:46:11.269Z</time>
      </trkpt>
      <trkpt lat="47.93152" lon="6.95149">
        <ele>720</ele>
        <time>2026-05-09T14:46:12.269Z</time>
      </trkpt>
      <trkpt lat="47.9315" lon="6.95149">
        <ele>719</ele>
        <time>2026-05-09T14:46:13.268Z</time>
      </trkpt>
      <trkpt lat="47.93149" lon="6.95149">
        <ele>719</ele>
        <time>2026-05-09T14:46:14.269Z</time>
      </trkpt>
      <trkpt lat="47.93148" lon="6.95148">
        <ele>718</ele>
        <time>2026-05-09T14:46:15.269Z</time>
      </trkpt>
      <trkpt lat="47.93146" lon="6.95149">
        <ele>718</ele>
        <time>2026-05-09T14:46:16.269Z</time>
      </trkpt>
      <trkpt lat="47.93145" lon="6.95148">
        <ele>718</ele>
        <time>2026-05-09T14:46:17.269Z</time>
      </trkpt>
      <trkpt lat="47.93144" lon="6.95148">
        <ele>718</ele>
        <time>2026-05-09T14:46:18.268Z</time>
      </trkpt>
      <trkpt lat="47.93142" lon="6.95149">
        <ele>717</ele>
        <time>2026-05-09T14:46:19.269Z</time>
      </trkpt>
      <trkpt lat="47.93141" lon="6.95149">
        <ele>717</ele>
        <time>2026-05-09T14:46:20.268Z</time>
      </trkpt>
      <trkpt lat="47.9314" lon="6.95149">
        <ele>717</ele>
        <time>2026-05-09T14:46:21.269Z</time>
      </trkpt>
      <trkpt lat="47.93138" lon="6.95148">
        <ele>716</ele>
        <time>2026-05-09T14:46:22.268Z</time>
      </trkpt>
      <trkpt lat="47.93137" lon="6.95147">
        <ele>716</ele>
        <time>2026-05-09T14:46:23.269Z</time>
      </trkpt>
      <trkpt lat="47.93137" lon="6.95147">
        <ele>716</ele>
        <time>2026-05-09T14:46:24.268Z</time>
      </trkpt>
      <trkpt lat="47.93135" lon="6.95147">
        <ele>715</ele>
        <time>2026-05-09T14:46:25.268Z</time>
      </trkpt>
      <trkpt lat="47.93134" lon="6.95147">
        <ele>715</ele>
        <time>2026-05-09T14:46:26.268Z</time>
      </trkpt>
      <trkpt lat="47.93132" lon="6.95147">
        <ele>715</ele>
        <time>2026-05-09T14:46:27.269Z</time>
      </trkpt>
      <trkpt lat="47.93131" lon="6.95148">
        <ele>714</ele>
        <time>2026-05-09T14:46:28.268Z</time>
      </trkpt>
      <trkpt lat="47.9313" lon="6.95147">
        <ele>714</ele>
        <time>2026-05-09T14:46:29.269Z</time>
      </trkpt>
      <trkpt lat="47.93128" lon="6.95147">
        <ele>714</ele>
        <time>2026-05-09T14:46:30.269Z</time>
      </trkpt>
      <trkpt lat="47.93127" lon="6.95148">
        <ele>714</ele>
        <time>2026-05-09T14:46:31.269Z</time>
      </trkpt>
      <trkpt lat="47.93125" lon="6.95147">
        <ele>714</ele>
        <time>2026-05-09T14:46:32.268Z</time>
      </trkpt>
      <trkpt lat="47.93124" lon="6.95147">
        <ele>714</ele>
        <time>2026-05-09T14:46:33.268Z</time>
      </trkpt>
      <trkpt lat="47.93123" lon="6.95147">
        <ele>714</ele>
        <time>2026-05-09T14:46:34.269Z</time>
      </trkpt>
      <trkpt lat="47.93122" lon="6.95147">
        <ele>714</ele>
        <time>2026-05-09T14:46:35.268Z</time>
      </trkpt>
      <trkpt lat="47.9312" lon="6.95147">
        <ele>714</ele>
        <time>2026-05-09T14:46:36.268Z</time>
      </trkpt>
      <trkpt lat="47.93119" lon="6.95146">
        <ele>714</ele>
        <time>2026-05-09T14:46:37.268Z</time>
      </trkpt>
      <trkpt lat="47.93118" lon="6.95146">
        <ele>713</ele>
        <time>2026-05-09T14:46:38.269Z</time>
      </trkpt>
      <trkpt lat="47.93117" lon="6.95145">
        <ele>713</ele>
        <time>2026-05-09T14:46:39.268Z</time>
      </trkpt>
      <trkpt lat="47.93116" lon="6.95144">
        <ele>713</ele>
        <time>2026-05-09T14:46:40.269Z</time>
      </trkpt>
      <trkpt lat="47.93114" lon="6.95143">
        <ele>712</ele>
        <time>2026-05-09T14:46:41.268Z</time>
      </trkpt>
      <trkpt lat="47.93113" lon="6.95142">
        <ele>712</ele>
        <time>2026-05-09T14:46:42.268Z</time>
      </trkpt>
      <trkpt lat="47.93112" lon="6.95141">
        <ele>712</ele>
        <time>2026-05-09T14:46:43.268Z</time>
      </trkpt>
      <trkpt lat="47.93111" lon="6.95141">
        <ele>711</ele>
        <time>2026-05-09T14:46:44.269Z</time>
      </trkpt>
      <trkpt lat="47.93109" lon="6.9514">
        <ele>711</ele>
        <time>2026-05-09T14:46:45.268Z</time>
      </trkpt>
      <trkpt lat="47.93108" lon="6.9514">
        <ele>711</ele>
        <time>2026-05-09T14:46:46.269Z</time>
      </trkpt>
      <trkpt lat="47.93106" lon="6.9514">
        <ele>711</ele>
        <time>2026-05-09T14:46:47.269Z</time>
      </trkpt>
      <trkpt lat="47.93105" lon="6.9514">
        <ele>710</ele>
        <time>2026-05-09T14:46:48.269Z</time>
      </trkpt>
      <trkpt lat="47.93104" lon="6.9514">
        <ele>710</ele>
        <time>2026-05-09T14:46:49.269Z</time>
      </trkpt>
      <trkpt lat="47.93102" lon="6.95139">
        <ele>710</ele>
        <time>2026-05-09T14:46:50.268Z</time>
      </trkpt>
      <trkpt lat="47.93101" lon="6.95138">
        <ele>710</ele>
        <time>2026-05-09T14:46:51.268Z</time>
      </trkpt>
      <trkpt lat="47.93101" lon="6.95137">
        <ele>710</ele>
        <time>2026-05-09T14:46:52.268Z</time>
      </trkpt>
      <trkpt lat="47.931" lon="6.95136">
        <ele>710</ele>
        <time>2026-05-09T14:46:53.269Z</time>
      </trkpt>
      <trkpt lat="47.93099" lon="6.95135">
        <ele>710</ele>
        <time>2026-05-09T14:46:54.268Z</time>
      </trkpt>
      <trkpt lat="47.93098" lon="6.95133">
        <ele>710</ele>
        <time>2026-05-09T14:46:55.269Z</time>
      </trkpt>
      <trkpt lat="47.93097" lon="6.95133">
        <ele>710</ele>
        <time>2026-05-09T14:46:56.269Z</time>
      </trkpt>
      <trkpt lat="47.93096" lon="6.95132">
        <ele>709</ele>
        <time>2026-05-09T14:46:57.269Z</time>
      </trkpt>
      <trkpt lat="47.93094" lon="6.95132">
        <ele>709</ele>
        <time>2026-05-09T14:46:58.268Z</time>
      </trkpt>
      <trkpt lat="47.93093" lon="6.95131">
        <ele>709</ele>
        <time>2026-05-09T14:46:59.269Z</time>
      </trkpt>
      <trkpt lat="47.93092" lon="6.9513">
        <ele>709</ele>
        <time>2026-05-09T14:47:00.268Z</time>
      </trkpt>
      <trkpt lat="47.9309" lon="6.9513">
        <ele>708</ele>
        <time>2026-05-09T14:47:01.268Z</time>
      </trkpt>
      <trkpt lat="47.93089" lon="6.95129">
        <ele>708</ele>
        <time>2026-05-09T14:47:02.268Z</time>
      </trkpt>
      <trkpt lat="47.93087" lon="6.95128">
        <ele>708</ele>
        <time>2026-05-09T14:47:03.269Z</time>
      </trkpt>
      <trkpt lat="47.93086" lon="6.95127">
        <ele>708</ele>
        <time>2026-05-09T14:47:04.269Z</time>
      </trkpt>
      <trkpt lat="47.93085" lon="6.95127">
        <ele>707</ele>
        <time>2026-05-09T14:47:05.269Z</time>
      </trkpt>
      <trkpt lat="47.93084" lon="6.95125">
        <ele>707</ele>
        <time>2026-05-09T14:47:06.269Z</time>
      </trkpt>
      <trkpt lat="47.93083" lon="6.95125">
        <ele>707</ele>
        <time>2026-05-09T14:47:07.268Z</time>
      </trkpt>
      <trkpt lat="47.93082" lon="6.95123">
        <ele>707</ele>
        <time>2026-05-09T14:47:08.269Z</time>
      </trkpt>
      <trkpt lat="47.93081" lon="6.95122">
        <ele>707</ele>
        <time>2026-05-09T14:47:09.268Z</time>
      </trkpt>
      <trkpt lat="47.9308" lon="6.9512">
        <ele>706</ele>
        <time>2026-05-09T14:47:10.269Z</time>
      </trkpt>
      <trkpt lat="47.93079" lon="6.95119">
        <ele>706</ele>
        <time>2026-05-09T14:47:11.268Z</time>
      </trkpt>
      <trkpt lat="47.93077" lon="6.95118">
        <ele>706</ele>
        <time>2026-05-09T14:47:12.269Z</time>
      </trkpt>
      <trkpt lat="47.93076" lon="6.95117">
        <ele>705</ele>
        <time>2026-05-09T14:47:13.268Z</time>
      </trkpt>
      <trkpt lat="47.93075" lon="6.95116">
        <ele>705</ele>
        <time>2026-05-09T14:47:14.269Z</time>
      </trkpt>
      <trkpt lat="47.93074" lon="6.95114">
        <ele>705</ele>
        <time>2026-05-09T14:47:15.268Z</time>
      </trkpt>
      <trkpt lat="47.93073" lon="6.95113">
        <ele>705</ele>
        <time>2026-05-09T14:47:16.268Z</time>
      </trkpt>
      <trkpt lat="47.93072" lon="6.95112">
        <ele>705</ele>
        <time>2026-05-09T14:47:17.268Z</time>
      </trkpt>
      <trkpt lat="47.93071" lon="6.95111">
        <ele>705</ele>
        <time>2026-05-09T14:47:18.269Z</time>
      </trkpt>
      <trkpt lat="47.93069" lon="6.9511">
        <ele>705</ele>
        <time>2026-05-09T14:47:19.269Z</time>
      </trkpt>
      <trkpt lat="47.93068" lon="6.95109">
        <ele>705</ele>
        <time>2026-05-09T14:47:20.269Z</time>
      </trkpt>
      <trkpt lat="47.93067" lon="6.95107">
        <ele>704</ele>
        <time>2026-05-09T14:47:21.268Z</time>
      </trkpt>
      <trkpt lat="47.93066" lon="6.95105">
        <ele>704</ele>
        <time>2026-05-09T14:47:22.269Z</time>
      </trkpt>
      <trkpt lat="47.93065" lon="6.95105">
        <ele>704</ele>
        <time>2026-05-09T14:47:23.268Z</time>
      </trkpt>
      <trkpt lat="47.93063" lon="6.95103">
        <ele>703</ele>
        <time>2026-05-09T14:47:24.269Z</time>
      </trkpt>
      <trkpt lat="47.93062" lon="6.95102">
        <ele>703</ele>
        <time>2026-05-09T14:47:25.268Z</time>
      </trkpt>
      <trkpt lat="47.93061" lon="6.95101">
        <ele>703</ele>
        <time>2026-05-09T14:47:26.269Z</time>
      </trkpt>
      <trkpt lat="47.9306" lon="6.951">
        <ele>703</ele>
        <time>2026-05-09T14:47:27.268Z</time>
      </trkpt>
      <trkpt lat="47.93059" lon="6.95098">
        <ele>703</ele>
        <time>2026-05-09T14:47:28.269Z</time>
      </trkpt>
      <trkpt lat="47.93058" lon="6.95097">
        <ele>703</ele>
        <time>2026-05-09T14:47:29.268Z</time>
      </trkpt>
      <trkpt lat="47.93057" lon="6.95095">
        <ele>703</ele>
        <time>2026-05-09T14:47:30.269Z</time>
      </trkpt>
      <trkpt lat="47.93056" lon="6.95094">
        <ele>702</ele>
        <time>2026-05-09T14:47:31.268Z</time>
      </trkpt>
      <trkpt lat="47.93055" lon="6.95093">
        <ele>702</ele>
        <time>2026-05-09T14:47:32.269Z</time>
      </trkpt>
      <trkpt lat="47.93054" lon="6.95091">
        <ele>702</ele>
        <time>2026-05-09T14:47:33.268Z</time>
      </trkpt>
      <trkpt lat="47.93053" lon="6.9509">
        <ele>702</ele>
        <time>2026-05-09T14:47:34.269Z</time>
      </trkpt>
      <trkpt lat="47.93052" lon="6.95089">
        <ele>702</ele>
        <time>2026-05-09T14:47:35.269Z</time>
      </trkpt>
      <trkpt lat="47.93051" lon="6.95088">
        <ele>702</ele>
        <time>2026-05-09T14:47:36.269Z</time>
      </trkpt>
      <trkpt lat="47.9305" lon="6.95087">
        <ele>702</ele>
        <time>2026-05-09T14:47:37.268Z</time>
      </trkpt>
      <trkpt lat="47.93049" lon="6.95086">
        <ele>702</ele>
        <time>2026-05-09T14:47:38.269Z</time>
      </trkpt>
      <trkpt lat="47.93047" lon="6.95085">
        <ele>702</ele>
        <time>2026-05-09T14:47:39.268Z</time>
      </trkpt>
      <trkpt lat="47.93046" lon="6.95085">
        <ele>701</ele>
        <time>2026-05-09T14:47:40.269Z</time>
      </trkpt>
      <trkpt lat="47.93045" lon="6.95083">
        <ele>701</ele>
        <time>2026-05-09T14:47:41.268Z</time>
      </trkpt>
      <trkpt lat="47.93044" lon="6.95083">
        <ele>701</ele>
        <time>2026-05-09T14:47:42.269Z</time>
      </trkpt>
      <trkpt lat="47.93043" lon="6.95082">
        <ele>701</ele>
        <time>2026-05-09T14:47:43.268Z</time>
      </trkpt>
      <trkpt lat="47.93042" lon="6.95082">
        <ele>701</ele>
        <time>2026-05-09T14:47:44.269Z</time>
      </trkpt>
      <trkpt lat="47.93041" lon="6.95082">
        <ele>701</ele>
        <time>2026-05-09T14:47:45.269Z</time>
      </trkpt>
      <trkpt lat="47.9304" lon="6.95082">
        <ele>701</ele>
        <time>2026-05-09T14:47:46.269Z</time>
      </trkpt>
      <trkpt lat="47.9304" lon="6.95082">
        <ele>701</ele>
        <time>2026-05-09T14:47:47.269Z</time>
      </trkpt>
      <trkpt lat="47.93041" lon="6.95083">
        <ele>700</ele>
        <time>2026-05-09T14:47:48.268Z</time>
      </trkpt>
      <trkpt lat="47.93041" lon="6.95084">
        <ele>700</ele>
        <time>2026-05-09T14:47:49.269Z</time>
      </trkpt>
      <trkpt lat="47.93041" lon="6.95086">
        <ele>700</ele>
        <time>2026-05-09T14:47:50.269Z</time>
      </trkpt>
      <trkpt lat="47.93041" lon="6.95087">
        <ele>700</ele>
        <time>2026-05-09T14:47:51.268Z</time>
      </trkpt>
      <trkpt lat="47.93041" lon="6.95089">
        <ele>700</ele>
        <time>2026-05-09T14:47:52.269Z</time>
      </trkpt>
      <trkpt lat="47.93042" lon="6.95091">
        <ele>700</ele>
        <time>2026-05-09T14:47:53.269Z</time>
      </trkpt>
      <trkpt lat="47.93042" lon="6.95094">
        <ele>700</ele>
        <time>2026-05-09T14:47:54.269Z</time>
      </trkpt>
      <trkpt lat="47.93043" lon="6.95096">
        <ele>700</ele>
        <time>2026-05-09T14:47:55.269Z</time>
      </trkpt>
      <trkpt lat="47.93043" lon="6.95098">
        <ele>700</ele>
        <time>2026-05-09T14:47:56.268Z</time>
      </trkpt>
      <trkpt lat="47.93044" lon="6.95099">
        <ele>699</ele>
        <time>2026-05-09T14:47:57.269Z</time>
      </trkpt>
      <trkpt lat="47.93045" lon="6.95101">
        <ele>699</ele>
        <time>2026-05-09T14:47:58.268Z</time>
      </trkpt>
      <trkpt lat="47.93045" lon="6.95103">
        <ele>699</ele>
        <time>2026-05-09T14:47:59.268Z</time>
      </trkpt>
      <trkpt lat="47.93046" lon="6.95105">
        <ele>699</ele>
        <time>2026-05-09T14:48:00.268Z</time>
      </trkpt>
      <trkpt lat="47.93046" lon="6.95107">
        <ele>700</ele>
        <time>2026-05-09T14:48:01.268Z</time>
      </trkpt>
      <trkpt lat="47.93046" lon="6.95108">
        <ele>700</ele>
        <time>2026-05-09T14:48:02.269Z</time>
      </trkpt>
      <trkpt lat="47.93046" lon="6.95109">
        <ele>699</ele>
        <time>2026-05-09T14:48:03.268Z</time>
      </trkpt>
      <trkpt lat="47.93046" lon="6.9511">
        <ele>699</ele>
        <time>2026-05-09T14:48:04.268Z</time>
      </trkpt>
      <trkpt lat="47.93047" lon="6.95111">
        <ele>699</ele>
        <time>2026-05-09T14:48:05.269Z</time>
      </trkpt>
      <trkpt lat="47.93047" lon="6.95112">
        <ele>699</ele>
        <time>2026-05-09T14:48:06.268Z</time>
      </trkpt>
      <trkpt lat="47.93048" lon="6.95114">
        <ele>699</ele>
        <time>2026-05-09T14:48:07.269Z</time>
      </trkpt>
      <trkpt lat="47.93048" lon="6.95117">
        <ele>699</ele>
        <time>2026-05-09T14:48:08.269Z</time>
      </trkpt>
      <trkpt lat="47.93049" lon="6.9512">
        <ele>699</ele>
        <time>2026-05-09T14:48:09.268Z</time>
      </trkpt>
      <trkpt lat="47.93049" lon="6.95122">
        <ele>699</ele>
        <time>2026-05-09T14:48:10.269Z</time>
      </trkpt>
      <trkpt lat="47.9305" lon="6.95126">
        <ele>699</ele>
        <time>2026-05-09T14:48:11.269Z</time>
      </trkpt>
      <trkpt lat="47.93051" lon="6.95129">
        <ele>699</ele>
        <time>2026-05-09T14:48:12.268Z</time>
      </trkpt>
      <trkpt lat="47.93051" lon="6.95132">
        <ele>699</ele>
        <time>2026-05-09T14:48:13.268Z</time>
      </trkpt>
      <trkpt lat="47.93051" lon="6.95134">
        <ele>699</ele>
        <time>2026-05-09T14:48:14.268Z</time>
      </trkpt>
      <trkpt lat="47.93052" lon="6.95137">
        <ele>698</ele>
        <time>2026-05-09T14:48:15.268Z</time>
      </trkpt>
      <trkpt lat="47.93052" lon="6.95139">
        <ele>698</ele>
        <time>2026-05-09T14:48:16.269Z</time>
      </trkpt>
      <trkpt lat="47.93052" lon="6.9514">
        <ele>698</ele>
        <time>2026-05-09T14:48:17.268Z</time>
      </trkpt>
      <trkpt lat="47.93053" lon="6.95141">
        <ele>698</ele>
        <time>2026-05-09T14:48:18.268Z</time>
      </trkpt>
      <trkpt lat="47.93054" lon="6.95144">
        <ele>697</ele>
        <time>2026-05-09T14:48:19.268Z</time>
      </trkpt>
      <trkpt lat="47.93054" lon="6.95145">
        <ele>697</ele>
        <time>2026-05-09T14:48:20.269Z</time>
      </trkpt>
      <trkpt lat="47.93055" lon="6.95146">
        <ele>697</ele>
        <time>2026-05-09T14:48:21.269Z</time>
      </trkpt>
      <trkpt lat="47.93055" lon="6.95148">
        <ele>697</ele>
        <time>2026-05-09T14:48:22.269Z</time>
      </trkpt>
      <trkpt lat="47.93055" lon="6.95149">
        <ele>696</ele>
        <time>2026-05-09T14:48:23.269Z</time>
      </trkpt>
      <trkpt lat="47.93056" lon="6.95151">
        <ele>696</ele>
        <time>2026-05-09T14:48:24.269Z</time>
      </trkpt>
      <trkpt lat="47.93056" lon="6.95153">
        <ele>696</ele>
        <time>2026-05-09T14:48:25.268Z</time>
      </trkpt>
      <trkpt lat="47.93057" lon="6.95155">
        <ele>696</ele>
        <time>2026-05-09T14:48:26.268Z</time>
      </trkpt>
      <trkpt lat="47.93058" lon="6.95157">
        <ele>696</ele>
        <time>2026-05-09T14:48:27.268Z</time>
      </trkpt>
      <trkpt lat="47.93058" lon="6.95158">
        <ele>696</ele>
        <time>2026-05-09T14:48:28.269Z</time>
      </trkpt>
      <trkpt lat="47.93059" lon="6.9516">
        <ele>696</ele>
        <time>2026-05-09T14:48:29.268Z</time>
      </trkpt>
      <trkpt lat="47.9306" lon="6.95162">
        <ele>696</ele>
        <time>2026-05-09T14:48:30.269Z</time>
      </trkpt>
      <trkpt lat="47.93061" lon="6.95163">
        <ele>697</ele>
        <time>2026-05-09T14:48:31.269Z</time>
      </trkpt>
      <trkpt lat="47.93062" lon="6.95164">
        <ele>697</ele>
        <time>2026-05-09T14:48:32.268Z</time>
      </trkpt>
      <trkpt lat="47.93063" lon="6.95166">
        <ele>697</ele>
        <time>2026-05-09T14:48:33.268Z</time>
      </trkpt>
      <trkpt lat="47.93063" lon="6.95167">
        <ele>697</ele>
        <time>2026-05-09T14:48:34.269Z</time>
      </trkpt>
      <trkpt lat="47.93064" lon="6.95168">
        <ele>697</ele>
        <time>2026-05-09T14:48:35.269Z</time>
      </trkpt>
      <trkpt lat="47.93066" lon="6.9517">
        <ele>697</ele>
        <time>2026-05-09T14:48:36.269Z</time>
      </trkpt>
      <trkpt lat="47.93067" lon="6.95171">
        <ele>697</ele>
        <time>2026-05-09T14:48:37.269Z</time>
      </trkpt>
      <trkpt lat="47.93068" lon="6.95173">
        <ele>697</ele>
        <time>2026-05-09T14:48:38.269Z</time>
      </trkpt>
      <trkpt lat="47.93069" lon="6.95174">
        <ele>697</ele>
        <time>2026-05-09T14:48:39.269Z</time>
      </trkpt>
      <trkpt lat="47.93071" lon="6.95175">
        <ele>697</ele>
        <time>2026-05-09T14:48:40.269Z</time>
      </trkpt>
      <trkpt lat="47.93072" lon="6.95176">
        <ele>697</ele>
        <time>2026-05-09T14:48:41.269Z</time>
      </trkpt>
      <trkpt lat="47.93074" lon="6.95178">
        <ele>697</ele>
        <time>2026-05-09T14:48:42.269Z</time>
      </trkpt>
      <trkpt lat="47.93075" lon="6.95179">
        <ele>698</ele>
        <time>2026-05-09T14:48:43.269Z</time>
      </trkpt>
      <trkpt lat="47.93077" lon="6.9518">
        <ele>698</ele>
        <time>2026-05-09T14:48:44.268Z</time>
      </trkpt>
      <trkpt lat="47.93078" lon="6.95182">
        <ele>698</ele>
        <time>2026-05-09T14:48:45.269Z</time>
      </trkpt>
      <trkpt lat="47.93079" lon="6.95183">
        <ele>698</ele>
        <time>2026-05-09T14:48:46.268Z</time>
      </trkpt>
      <trkpt lat="47.9308" lon="6.95185">
        <ele>698</ele>
        <time>2026-05-09T14:48:47.269Z</time>
      </trkpt>
      <trkpt lat="47.93081" lon="6.95186">
        <ele>698</ele>
        <time>2026-05-09T14:48:48.268Z</time>
      </trkpt>
      <trkpt lat="47.93081" lon="6.95187">
        <ele>698</ele>
        <time>2026-05-09T14:48:49.268Z</time>
      </trkpt>
      <trkpt lat="47.93081" lon="6.95188">
        <ele>698</ele>
        <time>2026-05-09T14:48:50.269Z</time>
      </trkpt>
      <trkpt lat="47.93082" lon="6.95189">
        <ele>698</ele>
        <time>2026-05-09T14:48:51.269Z</time>
      </trkpt>
      <trkpt lat="47.93083" lon="6.95191">
        <ele>698</ele>
        <time>2026-05-09T14:48:52.269Z</time>
      </trkpt>
      <trkpt lat="47.93084" lon="6.95192">
        <ele>698</ele>
        <time>2026-05-09T14:48:53.268Z</time>
      </trkpt>
      <trkpt lat="47.93084" lon="6.95193">
        <ele>698</ele>
        <time>2026-05-09T14:48:54.268Z</time>
      </trkpt>
      <trkpt lat="47.93085" lon="6.95194">
        <ele>697</ele>
        <time>2026-05-09T14:48:55.269Z</time>
      </trkpt>
      <trkpt lat="47.93085" lon="6.95195">
        <ele>697</ele>
        <time>2026-05-09T14:48:56.269Z</time>
      </trkpt>
      <trkpt lat="47.93084" lon="6.95196">
        <ele>696</ele>
        <time>2026-05-09T14:48:57.268Z</time>
      </trkpt>
      <trkpt lat="47.93083" lon="6.95197">
        <ele>695</ele>
        <time>2026-05-09T14:48:58.269Z</time>
      </trkpt>
      <trkpt lat="47.93082" lon="6.95199">
        <ele>694</ele>
        <time>2026-05-09T14:48:59.269Z</time>
      </trkpt>
      <trkpt lat="47.93082" lon="6.95201">
        <ele>694</ele>
        <time>2026-05-09T14:49:00.268Z</time>
      </trkpt>
      <trkpt lat="47.93081" lon="6.95202">
        <ele>694</ele>
        <time>2026-05-09T14:49:01.269Z</time>
      </trkpt>
      <trkpt lat="47.9308" lon="6.95203">
        <ele>693</ele>
        <time>2026-05-09T14:49:02.268Z</time>
      </trkpt>
      <trkpt lat="47.93078" lon="6.95204">
        <ele>693</ele>
        <time>2026-05-09T14:49:03.269Z</time>
      </trkpt>
      <trkpt lat="47.93077" lon="6.95205">
        <ele>693</ele>
        <time>2026-05-09T14:49:04.268Z</time>
      </trkpt>
      <trkpt lat="47.93076" lon="6.95206">
        <ele>693</ele>
        <time>2026-05-09T14:49:05.269Z</time>
      </trkpt>
      <trkpt lat="47.93074" lon="6.95207">
        <ele>692</ele>
        <time>2026-05-09T14:49:06.268Z</time>
      </trkpt>
      <trkpt lat="47.93074" lon="6.95207">
        <ele>692</ele>
        <time>2026-05-09T14:49:07.269Z</time>
      </trkpt>
      <trkpt lat="47.93073" lon="6.95208">
        <ele>692</ele>
        <time>2026-05-09T14:49:08.268Z</time>
      </trkpt>
      <trkpt lat="47.93072" lon="6.95209">
        <ele>691</ele>
        <time>2026-05-09T14:49:09.269Z</time>
      </trkpt>
      <trkpt lat="47.93071" lon="6.95209">
        <ele>690</ele>
        <time>2026-05-09T14:49:10.268Z</time>
      </trkpt>
      <trkpt lat="47.9307" lon="6.9521">
        <ele>690</ele>
        <time>2026-05-09T14:49:11.269Z</time>
      </trkpt>
      <trkpt lat="47.93069" lon="6.9521">
        <ele>689</ele>
        <time>2026-05-09T14:49:12.269Z</time>
      </trkpt>
      <trkpt lat="47.93067" lon="6.9521">
        <ele>689</ele>
        <time>2026-05-09T14:49:13.269Z</time>
      </trkpt>
      <trkpt lat="47.93066" lon="6.9521">
        <ele>689</ele>
        <time>2026-05-09T14:49:14.269Z</time>
      </trkpt>
      <trkpt lat="47.93064" lon="6.9521">
        <ele>688</ele>
        <time>2026-05-09T14:49:15.268Z</time>
      </trkpt>
      <trkpt lat="47.93063" lon="6.95211">
        <ele>688</ele>
        <time>2026-05-09T14:49:16.268Z</time>
      </trkpt>
      <trkpt lat="47.93062" lon="6.95212">
        <ele>687</ele>
        <time>2026-05-09T14:49:17.268Z</time>
      </trkpt>
      <trkpt lat="47.93061" lon="6.95214">
        <ele>687</ele>
        <time>2026-05-09T14:49:18.269Z</time>
      </trkpt>
      <trkpt lat="47.93059" lon="6.95215">
        <ele>687</ele>
        <time>2026-05-09T14:49:19.268Z</time>
      </trkpt>
      <trkpt lat="47.93058" lon="6.95216">
        <ele>686</ele>
        <time>2026-05-09T14:49:20.269Z</time>
      </trkpt>
      <trkpt lat="47.93057" lon="6.95216">
        <ele>686</ele>
        <time>2026-05-09T14:49:21.269Z</time>
      </trkpt>
      <trkpt lat="47.93056" lon="6.95217">
        <ele>686</ele>
        <time>2026-05-09T14:49:22.268Z</time>
      </trkpt>
      <trkpt lat="47.93054" lon="6.95217">
        <ele>686</ele>
        <time>2026-05-09T14:49:23.269Z</time>
      </trkpt>
      <trkpt lat="47.93053" lon="6.95218">
        <ele>686</ele>
        <time>2026-05-09T14:49:24.268Z</time>
      </trkpt>
      <trkpt lat="47.93052" lon="6.95219">
        <ele>686</ele>
        <time>2026-05-09T14:49:25.269Z</time>
      </trkpt>
      <trkpt lat="47.93049" lon="6.95218">
        <ele>686</ele>
        <time>2026-05-09T14:49:26.269Z</time>
      </trkpt>
      <trkpt lat="47.93047" lon="6.95217">
        <ele>685</ele>
        <time>2026-05-09T14:49:27.268Z</time>
      </trkpt>
      <trkpt lat="47.93045" lon="6.95217">
        <ele>685</ele>
        <time>2026-05-09T14:49:28.268Z</time>
      </trkpt>
      <trkpt lat="47.93043" lon="6.95217">
        <ele>684</ele>
        <time>2026-05-09T14:49:29.269Z</time>
      </trkpt>
      <trkpt lat="47.93042" lon="6.95218">
        <ele>684</ele>
        <time>2026-05-09T14:49:30.269Z</time>
      </trkpt>
      <trkpt lat="47.93041" lon="6.95219">
        <ele>683</ele>
        <time>2026-05-09T14:49:31.268Z</time>
      </trkpt>
      <trkpt lat="47.9304" lon="6.9522">
        <ele>683</ele>
        <time>2026-05-09T14:49:32.269Z</time>
      </trkpt>
      <trkpt lat="47.9304" lon="6.95221">
        <ele>683</ele>
        <time>2026-05-09T14:49:33.269Z</time>
      </trkpt>
      <trkpt lat="47.93039" lon="6.95221">
        <ele>682</ele>
        <time>2026-05-09T14:49:34.269Z</time>
      </trkpt>
      <trkpt lat="47.93039" lon="6.95222">
        <ele>682</ele>
        <time>2026-05-09T14:49:35.268Z</time>
      </trkpt>
      <trkpt lat="47.93039" lon="6.95223">
        <ele>681</ele>
        <time>2026-05-09T14:49:36.269Z</time>
      </trkpt>
      <trkpt lat="47.9304" lon="6.95224">
        <ele>681</ele>
        <time>2026-05-09T14:49:37.268Z</time>
      </trkpt>
      <trkpt lat="47.9304" lon="6.95226">
        <ele>681</ele>
        <time>2026-05-09T14:49:38.269Z</time>
      </trkpt>
      <trkpt lat="47.93041" lon="6.95227">
        <ele>681</ele>
        <time>2026-05-09T14:49:39.268Z</time>
      </trkpt>
      <trkpt lat="47.93042" lon="6.95229">
        <ele>680</ele>
        <time>2026-05-09T14:49:40.269Z</time>
      </trkpt>
      <trkpt lat="47.93043" lon="6.9523">
        <ele>680</ele>
        <time>2026-05-09T14:49:41.268Z</time>
      </trkpt>
      <trkpt lat="47.93044" lon="6.95232">
        <ele>680</ele>
        <time>2026-05-09T14:49:42.269Z</time>
      </trkpt>
      <trkpt lat="47.93045" lon="6.95234">
        <ele>679</ele>
        <time>2026-05-09T14:49:43.268Z</time>
      </trkpt>
      <trkpt lat="47.93046" lon="6.95236">
        <ele>679</ele>
        <time>2026-05-09T14:49:44.268Z</time>
      </trkpt>
      <trkpt lat="47.93047" lon="6.95238">
        <ele>679</ele>
        <time>2026-05-09T14:49:45.268Z</time>
      </trkpt>
      <trkpt lat="47.93047" lon="6.9524">
        <ele>678</ele>
        <time>2026-05-09T14:49:46.268Z</time>
      </trkpt>
      <trkpt lat="47.93046" lon="6.95243">
        <ele>678</ele>
        <time>2026-05-09T14:49:47.269Z</time>
      </trkpt>
      <trkpt lat="47.93046" lon="6.95246">
        <ele>678</ele>
        <time>2026-05-09T14:49:48.268Z</time>
      </trkpt>
      <trkpt lat="47.93045" lon="6.95248">
        <ele>677</ele>
        <time>2026-05-09T14:49:49.269Z</time>
      </trkpt>
      <trkpt lat="47.93044" lon="6.95248">
        <ele>677</ele>
        <time>2026-05-09T14:49:50.269Z</time>
      </trkpt>
      <trkpt lat="47.93043" lon="6.9525">
        <ele>676</ele>
        <time>2026-05-09T14:49:51.268Z</time>
      </trkpt>
      <trkpt lat="47.93042" lon="6.95251">
        <ele>676</ele>
        <time>2026-05-09T14:49:52.269Z</time>
      </trkpt>
      <trkpt lat="47.9304" lon="6.95252">
        <ele>675</ele>
        <time>2026-05-09T14:49:53.268Z</time>
      </trkpt>
      <trkpt lat="47.93039" lon="6.95255">
        <ele>674</ele>
        <time>2026-05-09T14:49:54.269Z</time>
      </trkpt>
      <trkpt lat="47.93038" lon="6.95257">
        <ele>673</ele>
        <time>2026-05-09T14:49:55.268Z</time>
      </trkpt>
      <trkpt lat="47.93036" lon="6.95258">
        <ele>672</ele>
        <time>2026-05-09T14:49:56.269Z</time>
      </trkpt>
      <trkpt lat="47.93035" lon="6.9526">
        <ele>672</ele>
        <time>2026-05-09T14:49:57.269Z</time>
      </trkpt>
      <trkpt lat="47.93034" lon="6.95262">
        <ele>671</ele>
        <time>2026-05-09T14:49:58.268Z</time>
      </trkpt>
      <trkpt lat="47.93033" lon="6.95263">
        <ele>671</ele>
        <time>2026-05-09T14:49:59.269Z</time>
      </trkpt>
      <trkpt lat="47.93031" lon="6.95264">
        <ele>670</ele>
        <time>2026-05-09T14:50:00.268Z</time>
      </trkpt>
      <trkpt lat="47.9303" lon="6.95266">
        <ele>670</ele>
        <time>2026-05-09T14:50:01.268Z</time>
      </trkpt>
      <trkpt lat="47.93028" lon="6.95268">
        <ele>670</ele>
        <time>2026-05-09T14:50:02.269Z</time>
      </trkpt>
      <trkpt lat="47.93027" lon="6.9527">
        <ele>669</ele>
        <time>2026-05-09T14:50:03.268Z</time>
      </trkpt>
      <trkpt lat="47.93026" lon="6.95272">
        <ele>669</ele>
        <time>2026-05-09T14:50:04.268Z</time>
      </trkpt>
      <trkpt lat="47.93026" lon="6.95275">
        <ele>668</ele>
        <time>2026-05-09T14:50:05.269Z</time>
      </trkpt>
      <trkpt lat="47.93025" lon="6.95278">
        <ele>668</ele>
        <time>2026-05-09T14:50:06.269Z</time>
      </trkpt>
      <trkpt lat="47.93024" lon="6.9528">
        <ele>668</ele>
        <time>2026-05-09T14:50:07.268Z</time>
      </trkpt>
      <trkpt lat="47.93022" lon="6.95281">
        <ele>668</ele>
        <time>2026-05-09T14:50:08.269Z</time>
      </trkpt>
      <trkpt lat="47.93021" lon="6.95282">
        <ele>667</ele>
        <time>2026-05-09T14:50:09.268Z</time>
      </trkpt>
      <trkpt lat="47.93019" lon="6.95282">
        <ele>667</ele>
        <time>2026-05-09T14:50:10.269Z</time>
      </trkpt>
      <trkpt lat="47.93017" lon="6.95282">
        <ele>666</ele>
        <time>2026-05-09T14:50:11.268Z</time>
      </trkpt>
      <trkpt lat="47.93016" lon="6.95282">
        <ele>666</ele>
        <time>2026-05-09T14:50:12.269Z</time>
      </trkpt>
      <trkpt lat="47.93014" lon="6.95283">
        <ele>665</ele>
        <time>2026-05-09T14:50:13.268Z</time>
      </trkpt>
      <trkpt lat="47.93013" lon="6.95284">
        <ele>665</ele>
        <time>2026-05-09T14:50:14.268Z</time>
      </trkpt>
      <trkpt lat="47.93012" lon="6.95285">
        <ele>664</ele>
        <time>2026-05-09T14:50:15.268Z</time>
      </trkpt>
      <trkpt lat="47.9301" lon="6.95286">
        <ele>663</ele>
        <time>2026-05-09T14:50:16.269Z</time>
      </trkpt>
      <trkpt lat="47.93008" lon="6.95286">
        <ele>662</ele>
        <time>2026-05-09T14:50:17.269Z</time>
      </trkpt>
      <trkpt lat="47.93006" lon="6.95287">
        <ele>662</ele>
        <time>2026-05-09T14:50:18.269Z</time>
      </trkpt>
      <trkpt lat="47.93005" lon="6.95287">
        <ele>661</ele>
        <time>2026-05-09T14:50:19.268Z</time>
      </trkpt>
      <trkpt lat="47.93003" lon="6.95287">
        <ele>660</ele>
        <time>2026-05-09T14:50:20.268Z</time>
      </trkpt>
      <trkpt lat="47.93002" lon="6.95288">
        <ele>660</ele>
        <time>2026-05-09T14:50:21.269Z</time>
      </trkpt>
      <trkpt lat="47.93002" lon="6.95288">
        <ele>659</ele>
        <time>2026-05-09T14:50:22.269Z</time>
      </trkpt>
      <trkpt lat="47.93001" lon="6.95288">
        <ele>659</ele>
        <time>2026-05-09T14:50:23.268Z</time>
      </trkpt>
      <trkpt lat="47.92999" lon="6.95288">
        <ele>658</ele>
        <time>2026-05-09T14:50:24.268Z</time>
      </trkpt>
      <trkpt lat="47.92998" lon="6.95288">
        <ele>658</ele>
        <time>2026-05-09T14:50:25.269Z</time>
      </trkpt>
      <trkpt lat="47.92997" lon="6.95289">
        <ele>658</ele>
        <time>2026-05-09T14:50:26.269Z</time>
      </trkpt>
      <trkpt lat="47.92996" lon="6.95289">
        <ele>657</ele>
        <time>2026-05-09T14:50:27.269Z</time>
      </trkpt>
      <trkpt lat="47.92994" lon="6.9529">
        <ele>657</ele>
        <time>2026-05-09T14:50:28.268Z</time>
      </trkpt>
      <trkpt lat="47.92992" lon="6.95291">
        <ele>657</ele>
        <time>2026-05-09T14:50:29.268Z</time>
      </trkpt>
      <trkpt lat="47.9299" lon="6.95292">
        <ele>656</ele>
        <time>2026-05-09T14:50:30.269Z</time>
      </trkpt>
      <trkpt lat="47.92989" lon="6.95292">
        <ele>656</ele>
        <time>2026-05-09T14:50:31.269Z</time>
      </trkpt>
      <trkpt lat="47.92988" lon="6.95295">
        <ele>655</ele>
        <time>2026-05-09T14:50:32.268Z</time>
      </trkpt>
      <trkpt lat="47.92986" lon="6.95297">
        <ele>655</ele>
        <time>2026-05-09T14:50:33.268Z</time>
      </trkpt>
      <trkpt lat="47.92984" lon="6.953">
        <ele>654</ele>
        <time>2026-05-09T14:50:34.269Z</time>
      </trkpt>
      <trkpt lat="47.92981" lon="6.95306">
        <ele>654</ele>
        <time>2026-05-09T14:50:35.269Z</time>
      </trkpt>
      <trkpt lat="47.92977" lon="6.95309">
        <ele>653</ele>
        <time>2026-05-09T14:50:36.268Z</time>
      </trkpt>
      <trkpt lat="47.92976" lon="6.95312">
        <ele>653</ele>
        <time>2026-05-09T14:50:37.268Z</time>
      </trkpt>
      <trkpt lat="47.92975" lon="6.95311">
        <ele>652</ele>
        <time>2026-05-09T14:50:38.268Z</time>
      </trkpt>
      <trkpt lat="47.92976" lon="6.95309">
        <ele>652</ele>
        <time>2026-05-09T14:50:39.269Z</time>
      </trkpt>
      <trkpt lat="47.92975" lon="6.9531">
        <ele>652</ele>
        <time>2026-05-09T14:50:40.269Z</time>
      </trkpt>
      <trkpt lat="47.92977" lon="6.95309">
        <ele>651</ele>
        <time>2026-05-09T14:50:41.269Z</time>
      </trkpt>
      <trkpt lat="47.92976" lon="6.9531">
        <ele>651</ele>
        <time>2026-05-09T14:50:42.268Z</time>
      </trkpt>
      <trkpt lat="47.92975" lon="6.95311">
        <ele>651</ele>
        <time>2026-05-09T14:50:43.269Z</time>
      </trkpt>
      <trkpt lat="47.92975" lon="6.9531">
        <ele>650</ele>
        <time>2026-05-09T14:50:44.268Z</time>
      </trkpt>
      <trkpt lat="47.92975" lon="6.9531">
        <ele>650</ele>
        <time>2026-05-09T14:50:45.269Z</time>
      </trkpt>
      <trkpt lat="47.92976" lon="6.95309">
        <ele>649</ele>
        <time>2026-05-09T14:51:04.742Z</time>
      </trkpt>
      <trkpt lat="47.92975" lon="6.95309">
        <ele>649</ele>
        <time>2026-05-09T14:51:05.742Z</time>
      </trkpt>
      <trkpt lat="47.92975" lon="6.9531">
        <ele>649</ele>
        <time>2026-05-09T14:51:06.742Z</time>
      </trkpt>
      <trkpt lat="47.92974" lon="6.9531">
        <ele>649</ele>
        <time>2026-05-09T14:51:07.743Z</time>
      </trkpt>
      <trkpt lat="47.92973" lon="6.95311">
        <ele>649</ele>
        <time>2026-05-09T14:51:08.743Z</time>
      </trkpt>
      <trkpt lat="47.92972" lon="6.95311">
        <ele>649</ele>
        <time>2026-05-09T14:51:09.742Z</time>
      </trkpt>
      <trkpt lat="47.92971" lon="6.95311">
        <ele>649</ele>
        <time>2026-05-09T14:51:10.742Z</time>
      </trkpt>
      <trkpt lat="47.9297" lon="6.95312">
        <ele>649</ele>
        <time>2026-05-09T14:51:11.742Z</time>
      </trkpt>
      <trkpt lat="47.92969" lon="6.95312">
        <ele>649</ele>
        <time>2026-05-09T14:51:12.743Z</time>
      </trkpt>
      <trkpt lat="47.92969" lon="6.95312">
        <ele>649</ele>
        <time>2026-05-09T14:51:13.742Z</time>
      </trkpt>
      <trkpt lat="47.92968" lon="6.95313">
        <ele>649</ele>
        <time>2026-05-09T14:51:14.743Z</time>
      </trkpt>
      <trkpt lat="47.92967" lon="6.95313">
        <ele>648</ele>
        <time>2026-05-09T14:51:15.742Z</time>
      </trkpt>
      <trkpt lat="47.92966" lon="6.95313">
        <ele>648</ele>
        <time>2026-05-09T14:51:16.742Z</time>
      </trkpt>
      <trkpt lat="47.92964" lon="6.95314">
        <ele>648</ele>
        <time>2026-05-09T14:51:17.743Z</time>
      </trkpt>
      <trkpt lat="47.92963" lon="6.95315">
        <ele>648</ele>
        <time>2026-05-09T14:51:18.743Z</time>
      </trkpt>
      <trkpt lat="47.92961" lon="6.95316">
        <ele>647</ele>
        <time>2026-05-09T14:51:19.742Z</time>
      </trkpt>
      <trkpt lat="47.9296" lon="6.95316">
        <ele>647</ele>
        <time>2026-05-09T14:51:20.742Z</time>
      </trkpt>
      <trkpt lat="47.92959" lon="6.95317">
        <ele>647</ele>
        <time>2026-05-09T14:51:21.742Z</time>
      </trkpt>
      <trkpt lat="47.92958" lon="6.95317">
        <ele>646</ele>
        <time>2026-05-09T14:51:22.742Z</time>
      </trkpt>
      <trkpt lat="47.92957" lon="6.95318">
        <ele>646</ele>
        <time>2026-05-09T14:51:23.742Z</time>
      </trkpt>
      <trkpt lat="47.92956" lon="6.95318">
        <ele>646</ele>
        <time>2026-05-09T14:51:24.743Z</time>
      </trkpt>
      <trkpt lat="47.92954" lon="6.95318">
        <ele>646</ele>
        <time>2026-05-09T14:51:25.742Z</time>
      </trkpt>
      <trkpt lat="47.92953" lon="6.95318">
        <ele>645</ele>
        <time>2026-05-09T14:51:26.742Z</time>
      </trkpt>
      <trkpt lat="47.92952" lon="6.95317">
        <ele>645</ele>
        <time>2026-05-09T14:51:27.742Z</time>
      </trkpt>
      <trkpt lat="47.92951" lon="6.95317">
        <ele>645</ele>
        <time>2026-05-09T14:51:28.742Z</time>
      </trkpt>
      <trkpt lat="47.9295" lon="6.95317">
        <ele>645</ele>
        <time>2026-05-09T14:51:29.742Z</time>
      </trkpt>
      <trkpt lat="47.92949" lon="6.95317">
        <ele>645</ele>
        <time>2026-05-09T14:51:30.742Z</time>
      </trkpt>
      <trkpt lat="47.92947" lon="6.95317">
        <ele>645</ele>
        <time>2026-05-09T14:51:31.742Z</time>
      </trkpt>
      <trkpt lat="47.92947" lon="6.95317">
        <ele>645</ele>
        <time>2026-05-09T14:51:32.742Z</time>
      </trkpt>
      <trkpt lat="47.92946" lon="6.95318">
        <ele>645</ele>
        <time>2026-05-09T14:51:33.743Z</time>
      </trkpt>
      <trkpt lat="47.92945" lon="6.95319">
        <ele>645</ele>
        <time>2026-05-09T14:51:34.742Z</time>
      </trkpt>
      <trkpt lat="47.92945" lon="6.9532">
        <ele>645</ele>
        <time>2026-05-09T14:51:35.743Z</time>
      </trkpt>
      <trkpt lat="47.92944" lon="6.95321">
        <ele>645</ele>
        <time>2026-05-09T14:51:36.742Z</time>
      </trkpt>
      <trkpt lat="47.92944" lon="6.95323">
        <ele>645</ele>
        <time>2026-05-09T14:51:37.742Z</time>
      </trkpt>
      <trkpt lat="47.92944" lon="6.95324">
        <ele>645</ele>
        <time>2026-05-09T14:51:38.742Z</time>
      </trkpt>
      <trkpt lat="47.92944" lon="6.95327">
        <ele>645</ele>
        <time>2026-05-09T14:51:39.743Z</time>
      </trkpt>
      <trkpt lat="47.92944" lon="6.95329">
        <ele>645</ele>
        <time>2026-05-09T14:51:40.743Z</time>
      </trkpt>
      <trkpt lat="47.92945" lon="6.9533">
        <ele>645</ele>
        <time>2026-05-09T14:51:41.743Z</time>
      </trkpt>
      <trkpt lat="47.92945" lon="6.95331">
        <ele>645</ele>
        <time>2026-05-09T14:51:42.742Z</time>
      </trkpt>
      <trkpt lat="47.92946" lon="6.95332">
        <ele>645</ele>
        <time>2026-05-09T14:51:43.742Z</time>
      </trkpt>
      <trkpt lat="47.92946" lon="6.95332">
        <ele>645</ele>
        <time>2026-05-09T14:51:44.742Z</time>
      </trkpt>
      <trkpt lat="47.92947" lon="6.95332">
        <ele>645</ele>
        <time>2026-05-09T14:51:45.742Z</time>
      </trkpt>
      <trkpt lat="47.92948" lon="6.95332">
        <ele>645</ele>
        <time>2026-05-09T14:51:46.743Z</time>
      </trkpt>
      <trkpt lat="47.92948" lon="6.95332">
        <ele>646</ele>
        <time>2026-05-09T14:51:47.742Z</time>
      </trkpt>
      <trkpt lat="47.92949" lon="6.95333">
        <ele>646</ele>
        <time>2026-05-09T14:51:48.742Z</time>
      </trkpt>
      <trkpt lat="47.9295" lon="6.95333">
        <ele>646</ele>
        <time>2026-05-09T14:51:49.742Z</time>
      </trkpt>
      <trkpt lat="47.92951" lon="6.95333">
        <ele>646</ele>
        <time>2026-05-09T14:51:50.742Z</time>
      </trkpt>
      <trkpt lat="47.92952" lon="6.95333">
        <ele>646</ele>
        <time>2026-05-09T14:51:51.742Z</time>
      </trkpt>
      <trkpt lat="47.92954" lon="6.95334">
        <ele>646</ele>
        <time>2026-05-09T14:51:52.742Z</time>
      </trkpt>
      <trkpt lat="47.92955" lon="6.95335">
        <ele>645</ele>
        <time>2026-05-09T14:51:53.742Z</time>
      </trkpt>
      <trkpt lat="47.92956" lon="6.95335">
        <ele>645</ele>
        <time>2026-05-09T14:51:54.742Z</time>
      </trkpt>
      <trkpt lat="47.92956" lon="6.95335">
        <ele>645</ele>
        <time>2026-05-09T14:51:55.742Z</time>
      </trkpt>
      <trkpt lat="47.92957" lon="6.95336">
        <ele>645</ele>
        <time>2026-05-09T14:51:56.742Z</time>
      </trkpt>
      <trkpt lat="47.92958" lon="6.95337">
        <ele>645</ele>
        <time>2026-05-09T14:51:57.742Z</time>
      </trkpt>
      <trkpt lat="47.92958" lon="6.95339">
        <ele>645</ele>
        <time>2026-05-09T14:51:58.742Z</time>
      </trkpt>
      <trkpt lat="47.9296" lon="6.9534">
        <ele>645</ele>
        <time>2026-05-09T14:51:59.743Z</time>
      </trkpt>
      <trkpt lat="47.92962" lon="6.95341">
        <ele>645</ele>
        <time>2026-05-09T14:52:00.743Z</time>
      </trkpt>
      <trkpt lat="47.92963" lon="6.95343">
        <ele>645</ele>
        <time>2026-05-09T14:52:01.742Z</time>
      </trkpt>
      <trkpt lat="47.92965" lon="6.95344">
        <ele>645</ele>
        <time>2026-05-09T14:52:02.742Z</time>
      </trkpt>
      <trkpt lat="47.92966" lon="6.95345">
        <ele>645</ele>
        <time>2026-05-09T14:52:03.743Z</time>
      </trkpt>
      <trkpt lat="47.92968" lon="6.95346">
        <ele>645</ele>
        <time>2026-05-09T14:52:04.743Z</time>
      </trkpt>
      <trkpt lat="47.92969" lon="6.95347">
        <ele>645</ele>
        <time>2026-05-09T14:52:05.743Z</time>
      </trkpt>
      <trkpt lat="47.92971" lon="6.9535">
        <ele>644</ele>
        <time>2026-05-09T14:52:06.742Z</time>
      </trkpt>
      <trkpt lat="47.92972" lon="6.95351">
        <ele>644</ele>
        <time>2026-05-09T14:52:07.743Z</time>
      </trkpt>
      <trkpt lat="47.92973" lon="6.95353">
        <ele>644</ele>
        <time>2026-05-09T14:52:08.742Z</time>
      </trkpt>
      <trkpt lat="47.92975" lon="6.95355">
        <ele>644</ele>
        <time>2026-05-09T14:52:09.742Z</time>
      </trkpt>
      <trkpt lat="47.92976" lon="6.95356">
        <ele>644</ele>
        <time>2026-05-09T14:52:10.742Z</time>
      </trkpt>
      <trkpt lat="47.92978" lon="6.95357">
        <ele>643</ele>
        <time>2026-05-09T14:52:11.742Z</time>
      </trkpt>
      <trkpt lat="47.92979" lon="6.95358">
        <ele>643</ele>
        <time>2026-05-09T14:52:12.743Z</time>
      </trkpt>
      <trkpt lat="47.92981" lon="6.95361">
        <ele>643</ele>
        <time>2026-05-09T14:52:13.742Z</time>
      </trkpt>
      <trkpt lat="47.92982" lon="6.95363">
        <ele>642</ele>
        <time>2026-05-09T14:52:14.743Z</time>
      </trkpt>
      <trkpt lat="47.92984" lon="6.95364">
        <ele>642</ele>
        <time>2026-05-09T14:52:15.742Z</time>
      </trkpt>
      <trkpt lat="47.92985" lon="6.95366">
        <ele>642</ele>
        <time>2026-05-09T14:52:16.743Z</time>
      </trkpt>
      <trkpt lat="47.92986" lon="6.95368">
        <ele>642</ele>
        <time>2026-05-09T14:52:17.742Z</time>
      </trkpt>
      <trkpt lat="47.92987" lon="6.9537">
        <ele>642</ele>
        <time>2026-05-09T14:52:18.742Z</time>
      </trkpt>
      <trkpt lat="47.92987" lon="6.95373">
        <ele>642</ele>
        <time>2026-05-09T14:52:19.742Z</time>
      </trkpt>
      <trkpt lat="47.92987" lon="6.95374">
        <ele>642</ele>
        <time>2026-05-09T14:52:20.743Z</time>
      </trkpt>
      <trkpt lat="47.92988" lon="6.95376">
        <ele>642</ele>
        <time>2026-05-09T14:52:21.742Z</time>
      </trkpt>
      <trkpt lat="47.92989" lon="6.95377">
        <ele>642</ele>
        <time>2026-05-09T14:52:22.743Z</time>
      </trkpt>
      <trkpt lat="47.92991" lon="6.95378">
        <ele>643</ele>
        <time>2026-05-09T14:52:23.743Z</time>
      </trkpt>
      <trkpt lat="47.92991" lon="6.95379">
        <ele>643</ele>
        <time>2026-05-09T14:52:24.742Z</time>
      </trkpt>
      <trkpt lat="47.92992" lon="6.9538">
        <ele>643</ele>
        <time>2026-05-09T14:52:25.742Z</time>
      </trkpt>
      <trkpt lat="47.92993" lon="6.9538">
        <ele>643</ele>
        <time>2026-05-09T14:52:26.743Z</time>
      </trkpt>
      <trkpt lat="47.92993" lon="6.9538">
        <ele>643</ele>
        <time>2026-05-09T14:52:27.743Z</time>
      </trkpt>
      <trkpt lat="47.92994" lon="6.95381">
        <ele>643</ele>
        <time>2026-05-09T14:52:28.742Z</time>
      </trkpt>
      <trkpt lat="47.92995" lon="6.95382">
        <ele>643</ele>
        <time>2026-05-09T14:52:29.743Z</time>
      </trkpt>
      <trkpt lat="47.92996" lon="6.95383">
        <ele>643</ele>
        <time>2026-05-09T14:52:30.742Z</time>
      </trkpt>
      <trkpt lat="47.92996" lon="6.95384">
        <ele>643</ele>
        <time>2026-05-09T14:52:31.742Z</time>
      </trkpt>
      <trkpt lat="47.92997" lon="6.95386">
        <ele>643</ele>
        <time>2026-05-09T14:52:32.743Z</time>
      </trkpt>
      <trkpt lat="47.92998" lon="6.95388">
        <ele>643</ele>
        <time>2026-05-09T14:52:33.742Z</time>
      </trkpt>
      <trkpt lat="47.92999" lon="6.95389">
        <ele>643</ele>
        <time>2026-05-09T14:52:34.742Z</time>
      </trkpt>
      <trkpt lat="47.93" lon="6.9539">
        <ele>642</ele>
        <time>2026-05-09T14:52:35.742Z</time>
      </trkpt>
      <trkpt lat="47.93001" lon="6.95392">
        <ele>642</ele>
        <time>2026-05-09T14:52:36.742Z</time>
      </trkpt>
      <trkpt lat="47.93002" lon="6.95393">
        <ele>642</ele>
        <time>2026-05-09T14:52:37.743Z</time>
      </trkpt>
      <trkpt lat="47.93003" lon="6.95394">
        <ele>642</ele>
        <time>2026-05-09T14:52:38.742Z</time>
      </trkpt>
      <trkpt lat="47.93004" lon="6.95396">
        <ele>641</ele>
        <time>2026-05-09T14:52:39.742Z</time>
      </trkpt>
      <trkpt lat="47.93005" lon="6.95397">
        <ele>641</ele>
        <time>2026-05-09T14:52:40.742Z</time>
      </trkpt>
      <trkpt lat="47.93007" lon="6.95397">
        <ele>640</ele>
        <time>2026-05-09T14:52:41.742Z</time>
      </trkpt>
      <trkpt lat="47.93009" lon="6.95399">
        <ele>640</ele>
        <time>2026-05-09T14:52:42.742Z</time>
      </trkpt>
      <trkpt lat="47.93011" lon="6.954">
        <ele>639</ele>
        <time>2026-05-09T14:52:43.742Z</time>
      </trkpt>
      <trkpt lat="47.93013" lon="6.95401">
        <ele>639</ele>
        <time>2026-05-09T14:52:44.743Z</time>
      </trkpt>
      <trkpt lat="47.93014" lon="6.95402">
        <ele>638</ele>
        <time>2026-05-09T14:52:45.742Z</time>
      </trkpt>
      <trkpt lat="47.93016" lon="6.95402">
        <ele>638</ele>
        <time>2026-05-09T14:52:46.743Z</time>
      </trkpt>
      <trkpt lat="47.93019" lon="6.95403">
        <ele>638</ele>
        <time>2026-05-09T14:52:47.742Z</time>
      </trkpt>
      <trkpt lat="47.93021" lon="6.95405">
        <ele>637</ele>
        <time>2026-05-09T14:52:48.743Z</time>
      </trkpt>
      <trkpt lat="47.93022" lon="6.95405">
        <ele>636</ele>
        <time>2026-05-09T14:52:49.743Z</time>
      </trkpt>
      <trkpt lat="47.93023" lon="6.95407">
        <ele>635</ele>
        <time>2026-05-09T14:52:50.743Z</time>
      </trkpt>
      <trkpt lat="47.93024" lon="6.95408">
        <ele>634</ele>
        <time>2026-05-09T14:52:51.742Z</time>
      </trkpt>
      <trkpt lat="47.93025" lon="6.95409">
        <ele>633</ele>
        <time>2026-05-09T14:52:52.742Z</time>
      </trkpt>
      <trkpt lat="47.93025" lon="6.95409">
        <ele>632</ele>
        <time>2026-05-09T14:52:53.742Z</time>
      </trkpt>
      <trkpt lat="47.93025" lon="6.95409">
        <ele>631</ele>
        <time>2026-05-09T14:52:54.742Z</time>
      </trkpt>
      <trkpt lat="47.93025" lon="6.95409">
        <ele>630</ele>
        <time>2026-05-09T14:52:55.742Z</time>
      </trkpt>
      <trkpt lat="47.93023" lon="6.95409">
        <ele>630</ele>
        <time>2026-05-09T14:52:56.742Z</time>
      </trkpt>
      <trkpt lat="47.93021" lon="6.95409">
        <ele>629</ele>
        <time>2026-05-09T14:52:57.742Z</time>
      </trkpt>
      <trkpt lat="47.93021" lon="6.95408">
        <ele>629</ele>
        <time>2026-05-09T14:52:58.742Z</time>
      </trkpt>
      <trkpt lat="47.93021" lon="6.95408">
        <ele>629</ele>
        <time>2026-05-09T14:52:59.742Z</time>
      </trkpt>
      <trkpt lat="47.93021" lon="6.95407">
        <ele>628</ele>
        <time>2026-05-09T14:53:00.742Z</time>
      </trkpt>
      <trkpt lat="47.93021" lon="6.95407">
        <ele>628</ele>
        <time>2026-05-09T14:53:01.742Z</time>
      </trkpt>
      <trkpt lat="47.9302" lon="6.95406">
        <ele>628</ele>
        <time>2026-05-09T14:53:02.743Z</time>
      </trkpt>
      <trkpt lat="47.93019" lon="6.95405">
        <ele>628</ele>
        <time>2026-05-09T14:53:03.743Z</time>
      </trkpt>
      <trkpt lat="47.93018" lon="6.95404">
        <ele>628</ele>
        <time>2026-05-09T14:53:04.743Z</time>
      </trkpt>
      <trkpt lat="47.93017" lon="6.95403">
        <ele>628</ele>
        <time>2026-05-09T14:53:05.742Z</time>
      </trkpt>
      <trkpt lat="47.93016" lon="6.95403">
        <ele>627</ele>
        <time>2026-05-09T14:53:06.743Z</time>
      </trkpt>
      <trkpt lat="47.93014" lon="6.95402">
        <ele>627</ele>
        <time>2026-05-09T14:53:07.742Z</time>
      </trkpt>
      <trkpt lat="47.93013" lon="6.954">
        <ele>627</ele>
        <time>2026-05-09T14:53:08.742Z</time>
      </trkpt>
      <trkpt lat="47.93012" lon="6.95399">
        <ele>627</ele>
        <time>2026-05-09T14:53:09.742Z</time>
      </trkpt>
      <trkpt lat="47.93011" lon="6.95398">
        <ele>628</ele>
        <time>2026-05-09T14:53:10.743Z</time>
      </trkpt>
      <trkpt lat="47.93009" lon="6.95397">
        <ele>628</ele>
        <time>2026-05-09T14:53:11.742Z</time>
      </trkpt>
      <trkpt lat="47.93008" lon="6.95396">
        <ele>629</ele>
        <time>2026-05-09T14:53:12.742Z</time>
      </trkpt>
      <trkpt lat="47.93007" lon="6.95395">
        <ele>629</ele>
        <time>2026-05-09T14:53:13.742Z</time>
      </trkpt>
      <trkpt lat="47.93006" lon="6.95394">
        <ele>630</ele>
        <time>2026-05-09T14:53:14.742Z</time>
      </trkpt>
      <trkpt lat="47.93005" lon="6.95393">
        <ele>631</ele>
        <time>2026-05-09T14:53:15.742Z</time>
      </trkpt>
      <trkpt lat="47.93004" lon="6.95392">
        <ele>631</ele>
        <time>2026-05-09T14:53:16.742Z</time>
      </trkpt>
      <trkpt lat="47.93003" lon="6.95391">
        <ele>632</ele>
        <time>2026-05-09T14:53:17.742Z</time>
      </trkpt>
      <trkpt lat="47.93003" lon="6.95391">
        <ele>632</ele>
        <time>2026-05-09T14:53:18.742Z</time>
      </trkpt>
      <trkpt lat="47.93002" lon="6.9539">
        <ele>633</ele>
        <time>2026-05-09T14:53:19.742Z</time>
      </trkpt>
      <trkpt lat="47.93002" lon="6.9539">
        <ele>633</ele>
        <time>2026-05-09T14:53:20.743Z</time>
      </trkpt>
      <trkpt lat="47.93001" lon="6.95389">
        <ele>634</ele>
        <time>2026-05-09T14:53:21.742Z</time>
      </trkpt>
      <trkpt lat="47.92999" lon="6.95389">
        <ele>634</ele>
        <time>2026-05-09T14:53:22.742Z</time>
      </trkpt>
      <trkpt lat="47.92997" lon="6.9539">
        <ele>635</ele>
        <time>2026-05-09T14:53:23.742Z</time>
      </trkpt>
      <trkpt lat="47.92996" lon="6.95389">
        <ele>635</ele>
        <time>2026-05-09T14:53:24.742Z</time>
      </trkpt>
      <trkpt lat="47.92995" lon="6.95388">
        <ele>636</ele>
        <time>2026-05-09T14:53:25.743Z</time>
      </trkpt>
      <trkpt lat="47.92995" lon="6.95387">
        <ele>636</ele>
        <time>2026-05-09T14:53:26.742Z</time>
      </trkpt>
      <trkpt lat="47.92995" lon="6.95387">
        <ele>636</ele>
        <time>2026-05-09T14:53:27.743Z</time>
      </trkpt>
      <trkpt lat="47.92993" lon="6.95387">
        <ele>637</ele>
        <time>2026-05-09T14:53:28.742Z</time>
      </trkpt>
      <trkpt lat="47.92993" lon="6.95386">
        <ele>637</ele>
        <time>2026-05-09T14:53:29.743Z</time>
      </trkpt>
      <trkpt lat="47.92991" lon="6.95385">
        <ele>637</ele>
        <time>2026-05-09T14:53:30.742Z</time>
      </trkpt>
      <trkpt lat="47.9299" lon="6.95384">
        <ele>638</ele>
        <time>2026-05-09T14:53:31.742Z</time>
      </trkpt>
      <trkpt lat="47.92989" lon="6.95383">
        <ele>638</ele>
        <time>2026-05-09T14:53:32.743Z</time>
      </trkpt>
      <trkpt lat="47.92989" lon="6.95383">
        <ele>638</ele>
        <time>2026-05-09T14:53:33.742Z</time>
      </trkpt>
      <trkpt lat="47.92988" lon="6.95382">
        <ele>638</ele>
        <time>2026-05-09T14:53:34.742Z</time>
      </trkpt>
      <trkpt lat="47.92987" lon="6.95381">
        <ele>639</ele>
        <time>2026-05-09T14:53:35.742Z</time>
      </trkpt>
      <trkpt lat="47.92985" lon="6.95381">
        <ele>639</ele>
        <time>2026-05-09T14:53:36.742Z</time>
      </trkpt>
      <trkpt lat="47.92983" lon="6.9538">
        <ele>639</ele>
        <time>2026-05-09T14:53:37.742Z</time>
      </trkpt>
      <trkpt lat="47.92981" lon="6.95377">
        <ele>639</ele>
        <time>2026-05-09T14:53:38.742Z</time>
      </trkpt>
      <trkpt lat="47.92979" lon="6.95375">
        <ele>639</ele>
        <time>2026-05-09T14:53:39.743Z</time>
      </trkpt>
      <trkpt lat="47.92977" lon="6.95373">
        <ele>639</ele>
        <time>2026-05-09T14:53:40.742Z</time>
      </trkpt>
      <trkpt lat="47.92975" lon="6.95371">
        <ele>639</ele>
        <time>2026-05-09T14:53:41.743Z</time>
      </trkpt>
      <trkpt lat="47.92974" lon="6.95369">
        <ele>639</ele>
        <time>2026-05-09T14:53:42.743Z</time>
      </trkpt>
      <trkpt lat="47.92973" lon="6.95367">
        <ele>639</ele>
        <time>2026-05-09T14:53:43.743Z</time>
      </trkpt>
      <trkpt lat="47.92973" lon="6.95366">
        <ele>639</ele>
        <time>2026-05-09T14:53:44.743Z</time>
      </trkpt>
      <trkpt lat="47.92972" lon="6.95365">
        <ele>639</ele>
        <time>2026-05-09T14:53:45.742Z</time>
      </trkpt>
      <trkpt lat="47.92972" lon="6.95365">
        <ele>640</ele>
        <time>2026-05-09T14:53:46.743Z</time>
      </trkpt>
      <trkpt lat="47.92971" lon="6.95365">
        <ele>640</ele>
        <time>2026-05-09T14:53:47.742Z</time>
      </trkpt>
      <trkpt lat="47.9297" lon="6.95364">
        <ele>640</ele>
        <time>2026-05-09T14:53:48.743Z</time>
      </trkpt>
      <trkpt lat="47.92969" lon="6.95363">
        <ele>640</ele>
        <time>2026-05-09T14:53:49.743Z</time>
      </trkpt>
      <trkpt lat="47.92969" lon="6.95362">
        <ele>640</ele>
        <time>2026-05-09T14:53:50.743Z</time>
      </trkpt>
      <trkpt lat="47.92968" lon="6.95361">
        <ele>640</ele>
        <time>2026-05-09T14:53:51.742Z</time>
      </trkpt>
      <trkpt lat="47.92968" lon="6.9536">
        <ele>640</ele>
        <time>2026-05-09T14:53:52.743Z</time>
      </trkpt>
      <trkpt lat="47.92968" lon="6.9536">
        <ele>640</ele>
        <time>2026-05-09T14:53:53.742Z</time>
      </trkpt>
      <trkpt lat="47.92968" lon="6.95359">
        <ele>641</ele>
        <time>2026-05-09T14:53:54.742Z</time>
      </trkpt>
      <trkpt lat="47.92967" lon="6.95358">
        <ele>641</ele>
        <time>2026-05-09T14:53:55.742Z</time>
      </trkpt>
      <trkpt lat="47.92967" lon="6.95357">
        <ele>641</ele>
        <time>2026-05-09T14:53:56.742Z</time>
      </trkpt>
      <trkpt lat="47.92967" lon="6.95356">
        <ele>641</ele>
        <time>2026-05-09T14:53:57.742Z</time>
      </trkpt>
      <trkpt lat="47.92967" lon="6.95356">
        <ele>640</ele>
        <time>2026-05-09T14:53:58.742Z</time>
      </trkpt>
      <trkpt lat="47.92967" lon="6.95355">
        <ele>640</ele>
        <time>2026-05-09T14:53:59.742Z</time>
      </trkpt>
      <trkpt lat="47.92966" lon="6.95353">
        <ele>640</ele>
        <time>2026-05-09T14:54:00.742Z</time>
      </trkpt>
      <trkpt lat="47.92966" lon="6.95353">
        <ele>639</ele>
        <time>2026-05-09T14:54:01.743Z</time>
      </trkpt>
      <trkpt lat="47.92965" lon="6.95352">
        <ele>639</ele>
        <time>2026-05-09T14:54:02.743Z</time>
      </trkpt>
      <trkpt lat="47.92964" lon="6.95351">
        <ele>639</ele>
        <time>2026-05-09T14:54:03.742Z</time>
      </trkpt>
      <trkpt lat="47.92963" lon="6.9535">
        <ele>639</ele>
        <time>2026-05-09T14:54:04.743Z</time>
      </trkpt>
      <trkpt lat="47.92963" lon="6.95349">
        <ele>639</ele>
        <time>2026-05-09T14:54:05.743Z</time>
      </trkpt>
      <trkpt lat="47.92962" lon="6.9535">
        <ele>639</ele>
        <time>2026-05-09T14:54:06.742Z</time>
      </trkpt>
      <trkpt lat="47.92962" lon="6.95349">
        <ele>639</ele>
        <time>2026-05-09T14:54:07.742Z</time>
      </trkpt>
      <trkpt lat="47.92961" lon="6.95348">
        <ele>639</ele>
        <time>2026-05-09T14:54:08.742Z</time>
      </trkpt>
      <trkpt lat="47.92959" lon="6.95348">
        <ele>640</ele>
        <time>2026-05-09T14:54:09.743Z</time>
      </trkpt>
      <trkpt lat="47.92958" lon="6.95347">
        <ele>640</ele>
        <time>2026-05-09T14:54:10.742Z</time>
      </trkpt>
      <trkpt lat="47.92956" lon="6.95345">
        <ele>640</ele>
        <time>2026-05-09T14:54:11.743Z</time>
      </trkpt>
      <trkpt lat="47.92955" lon="6.95345">
        <ele>641</ele>
        <time>2026-05-09T14:54:12.743Z</time>
      </trkpt>
      <trkpt lat="47.92955" lon="6.95345">
        <ele>641</ele>
        <time>2026-05-09T14:54:13.742Z</time>
      </trkpt>
      <trkpt lat="47.92954" lon="6.95344">
        <ele>641</ele>
        <time>2026-05-09T14:54:14.742Z</time>
      </trkpt>
      <trkpt lat="47.92953" lon="6.95343">
        <ele>641</ele>
        <time>2026-05-09T14:54:15.742Z</time>
      </trkpt>
      <trkpt lat="47.92952" lon="6.95342">
        <ele>641</ele>
        <time>2026-05-09T14:54:16.743Z</time>
      </trkpt>
      <trkpt lat="47.92951" lon="6.95341">
        <ele>641</ele>
        <time>2026-05-09T14:54:17.742Z</time>
      </trkpt>
      <trkpt lat="47.9295" lon="6.9534">
        <ele>641</ele>
        <time>2026-05-09T14:54:18.742Z</time>
      </trkpt>
      <trkpt lat="47.92949" lon="6.95339">
        <ele>641</ele>
        <time>2026-05-09T14:54:19.742Z</time>
      </trkpt>
      <trkpt lat="47.92948" lon="6.95339">
        <ele>641</ele>
        <time>2026-05-09T14:54:20.742Z</time>
      </trkpt>
      <trkpt lat="47.92947" lon="6.95338">
        <ele>641</ele>
        <time>2026-05-09T14:54:21.742Z</time>
      </trkpt>
      <trkpt lat="47.92945" lon="6.95338">
        <ele>641</ele>
        <time>2026-05-09T14:54:22.743Z</time>
      </trkpt>
      <trkpt lat="47.92944" lon="6.95339">
        <ele>641</ele>
        <time>2026-05-09T14:54:23.743Z</time>
      </trkpt>
      <trkpt lat="47.92943" lon="6.95339">
        <ele>641</ele>
        <time>2026-05-09T14:54:24.742Z</time>
      </trkpt>
      <trkpt lat="47.92942" lon="6.95339">
        <ele>641</ele>
        <time>2026-05-09T14:54:25.743Z</time>
      </trkpt>
      <trkpt lat="47.9294" lon="6.95338">
        <ele>642</ele>
        <time>2026-05-09T14:54:26.742Z</time>
      </trkpt>
      <trkpt lat="47.9294" lon="6.95337">
        <ele>642</ele>
        <time>2026-05-09T14:54:27.742Z</time>
      </trkpt>
      <trkpt lat="47.92939" lon="6.95336">
        <ele>642</ele>
        <time>2026-05-09T14:54:28.742Z</time>
      </trkpt>
      <trkpt lat="47.92939" lon="6.95334">
        <ele>642</ele>
        <time>2026-05-09T14:54:29.742Z</time>
      </trkpt>
      <trkpt lat="47.92939" lon="6.95333">
        <ele>641</ele>
        <time>2026-05-09T14:54:30.743Z</time>
      </trkpt>
      <trkpt lat="47.92938" lon="6.95332">
        <ele>641</ele>
        <time>2026-05-09T14:54:31.742Z</time>
      </trkpt>
      <trkpt lat="47.92938" lon="6.95331">
        <ele>641</ele>
        <time>2026-05-09T14:54:32.742Z</time>
      </trkpt>
      <trkpt lat="47.92938" lon="6.9533">
        <ele>641</ele>
        <time>2026-05-09T14:54:33.743Z</time>
      </trkpt>
      <trkpt lat="47.92937" lon="6.95328">
        <ele>641</ele>
        <time>2026-05-09T14:54:34.743Z</time>
      </trkpt>
      <trkpt lat="47.92937" lon="6.95327">
        <ele>641</ele>
        <time>2026-05-09T14:54:35.743Z</time>
      </trkpt>
      <trkpt lat="47.92937" lon="6.95326">
        <ele>642</ele>
        <time>2026-05-09T14:54:36.743Z</time>
      </trkpt>
      <trkpt lat="47.92936" lon="6.95324">
        <ele>642</ele>
        <time>2026-05-09T14:54:37.742Z</time>
      </trkpt>
      <trkpt lat="47.92935" lon="6.95322">
        <ele>642</ele>
        <time>2026-05-09T14:54:38.742Z</time>
      </trkpt>
      <trkpt lat="47.92936" lon="6.9532">
        <ele>642</ele>
        <time>2026-05-09T14:54:39.743Z</time>
      </trkpt>
      <trkpt lat="47.92937" lon="6.95316">
        <ele>643</ele>
        <time>2026-05-09T14:54:40.743Z</time>
      </trkpt>
      <trkpt lat="47.92938" lon="6.95314">
        <ele>643</ele>
        <time>2026-05-09T14:54:41.742Z</time>
      </trkpt>
      <trkpt lat="47.9294" lon="6.95313">
        <ele>643</ele>
        <time>2026-05-09T14:54:42.742Z</time>
      </trkpt>
      <trkpt lat="47.92941" lon="6.95313">
        <ele>644</ele>
        <time>2026-05-09T14:54:43.742Z</time>
      </trkpt>
      <trkpt lat="47.92942" lon="6.95312">
        <ele>644</ele>
        <time>2026-05-09T14:54:44.743Z</time>
      </trkpt>
      <trkpt lat="47.92943" lon="6.95312">
        <ele>644</ele>
        <time>2026-05-09T14:54:45.742Z</time>
      </trkpt>
      <trkpt lat="47.92944" lon="6.95311">
        <ele>645</ele>
        <time>2026-05-09T14:54:46.742Z</time>
      </trkpt>
      <trkpt lat="47.92945" lon="6.95311">
        <ele>645</ele>
        <time>2026-05-09T14:54:47.742Z</time>
      </trkpt>
      <trkpt lat="47.92946" lon="6.95311">
        <ele>645</ele>
        <time>2026-05-09T14:54:48.742Z</time>
      </trkpt>
      <trkpt lat="47.92948" lon="6.9531">
        <ele>645</ele>
        <time>2026-05-09T14:54:49.742Z</time>
      </trkpt>
      <trkpt lat="47.92948" lon="6.9531">
        <ele>645</ele>
        <time>2026-05-09T14:54:50.742Z</time>
      </trkpt>
      <trkpt lat="47.92949" lon="6.95311">
        <ele>645</ele>
        <time>2026-05-09T14:54:51.742Z</time>
      </trkpt>
      <trkpt lat="47.9295" lon="6.95312">
        <ele>645</ele>
        <time>2026-05-09T14:54:52.742Z</time>
      </trkpt>
      <trkpt lat="47.92951" lon="6.95312">
        <ele>645</ele>
        <time>2026-05-09T14:54:53.742Z</time>
      </trkpt>
      <trkpt lat="47.92953" lon="6.95312">
        <ele>645</ele>
        <time>2026-05-09T14:54:54.742Z</time>
      </trkpt>
      <trkpt lat="47.92953" lon="6.95312">
        <ele>645</ele>
        <time>2026-05-09T14:54:55.742Z</time>
      </trkpt>
      <trkpt lat="47.92954" lon="6.95311">
        <ele>645</ele>
        <time>2026-05-09T14:54:56.742Z</time>
      </trkpt>
      <trkpt lat="47.92955" lon="6.95311">
        <ele>645</ele>
        <time>2026-05-09T14:54:57.742Z</time>
      </trkpt>
      <trkpt lat="47.92956" lon="6.95311">
        <ele>645</ele>
        <time>2026-05-09T14:54:58.743Z</time>
      </trkpt>
      <trkpt lat="47.92957" lon="6.9531">
        <ele>645</ele>
        <time>2026-05-09T14:54:59.742Z</time>
      </trkpt>
      <trkpt lat="47.92958" lon="6.9531">
        <ele>646</ele>
        <time>2026-05-09T14:55:00.742Z</time>
      </trkpt>
      <trkpt lat="47.92959" lon="6.95309">
        <ele>646</ele>
        <time>2026-05-09T14:55:01.742Z</time>
      </trkpt>
      <trkpt lat="47.9296" lon="6.95309">
        <ele>646</ele>
        <time>2026-05-09T14:55:02.742Z</time>
      </trkpt>
      <trkpt lat="47.92961" lon="6.95309">
        <ele>646</ele>
        <time>2026-05-09T14:55:03.743Z</time>
      </trkpt>
      <trkpt lat="47.92962" lon="6.95309">
        <ele>646</ele>
        <time>2026-05-09T14:55:04.742Z</time>
      </trkpt>
      <trkpt lat="47.92963" lon="6.95308">
        <ele>646</ele>
        <time>2026-05-09T14:55:05.742Z</time>
      </trkpt>
      <trkpt lat="47.92963" lon="6.95308">
        <ele>647</ele>
        <time>2026-05-09T14:55:06.742Z</time>
      </trkpt>
      <trkpt lat="47.92963" lon="6.95308">
        <ele>647</ele>
        <time>2026-05-09T14:55:07.743Z</time>
      </trkpt>
      <trkpt lat="47.92964" lon="6.95307">
        <ele>647</ele>
        <time>2026-05-09T14:55:08.742Z</time>
      </trkpt>
      <trkpt lat="47.92964" lon="6.95307">
        <ele>647</ele>
        <time>2026-05-09T14:55:09.742Z</time>
      </trkpt>
      <trkpt lat="47.92964" lon="6.95307">
        <ele>647</ele>
        <time>2026-05-09T14:55:10.742Z</time>
      </trkpt>
      <trkpt lat="47.92965" lon="6.95307">
        <ele>647</ele>
        <time>2026-05-09T14:55:11.742Z</time>
      </trkpt>
      <trkpt lat="47.9297" lon="6.95306">
        <ele>640</ele>
        <time>2026-05-09T14:55:27.841Z</time>
      </trkpt>
      <trkpt lat="47.9297" lon="6.95306">
        <ele>640</ele>
        <time>2026-05-09T14:55:28.841Z</time>
      </trkpt>
      <trkpt lat="47.92971" lon="6.95305">
        <ele>640</ele>
        <time>2026-05-09T14:55:29.841Z</time>
      </trkpt>
      <trkpt lat="47.92972" lon="6.95305">
        <ele>641</ele>
        <time>2026-05-09T14:55:30.842Z</time>
      </trkpt>
      <trkpt lat="47.92972" lon="6.95305">
        <ele>641</ele>
        <time>2026-05-09T14:55:31.841Z</time>
      </trkpt>
      <trkpt lat="47.92972" lon="6.95305">
        <ele>642</ele>
        <time>2026-05-09T14:55:32.841Z</time>
      </trkpt>
      <trkpt lat="47.92972" lon="6.95305">
        <ele>643</ele>
        <time>2026-05-09T14:55:33.842Z</time>
      </trkpt>
      <trkpt lat="47.92972" lon="6.95305">
        <ele>643</ele>
        <time>2026-05-09T14:55:34.842Z</time>
      </trkpt>
      <trkpt lat="47.92973" lon="6.95305">
        <ele>644</ele>
        <time>2026-05-09T14:55:35.841Z</time>
      </trkpt>
      <trkpt lat="47.92973" lon="6.95304">
        <ele>644</ele>
        <time>2026-05-09T14:55:36.842Z</time>
      </trkpt>
      <trkpt lat="47.92973" lon="6.95304">
        <ele>644</ele>
        <time>2026-05-09T14:55:37.841Z</time>
      </trkpt>
      <trkpt lat="47.92974" lon="6.95304">
        <ele>645</ele>
        <time>2026-05-09T14:55:38.842Z</time>
      </trkpt>
      <trkpt lat="47.92974" lon="6.95305">
        <ele>645</ele>
        <time>2026-05-09T14:55:39.842Z</time>
      </trkpt>
      <trkpt lat="47.92973" lon="6.95306">
        <ele>645</ele>
        <time>2026-05-09T14:55:40.842Z</time>
      </trkpt>
      <trkpt lat="47.92973" lon="6.95307">
        <ele>645</ele>
        <time>2026-05-09T14:55:41.841Z</time>
      </trkpt>
      <trkpt lat="47.92972" lon="6.95308">
        <ele>646</ele>
        <time>2026-05-09T14:55:42.841Z</time>
      </trkpt>
      <trkpt lat="47.92971" lon="6.95309">
        <ele>646</ele>
        <time>2026-05-09T14:55:43.842Z</time>
      </trkpt>
      <trkpt lat="47.9297" lon="6.9531">
        <ele>646</ele>
        <time>2026-05-09T14:55:44.842Z</time>
      </trkpt>
      <trkpt lat="47.92969" lon="6.95312">
        <ele>647</ele>
        <time>2026-05-09T14:55:45.841Z</time>
      </trkpt>
      <trkpt lat="47.92968" lon="6.95313">
        <ele>647</ele>
        <time>2026-05-09T14:55:46.842Z</time>
      </trkpt>
      <trkpt lat="47.92967" lon="6.95313">
        <ele>647</ele>
        <time>2026-05-09T14:55:47.841Z</time>
      </trkpt>
      <trkpt lat="47.92966" lon="6.95314">
        <ele>647</ele>
        <time>2026-05-09T14:55:48.841Z</time>
      </trkpt>
      <trkpt lat="47.92965" lon="6.95316">
        <ele>647</ele>
        <time>2026-05-09T14:55:49.841Z</time>
      </trkpt>
      <trkpt lat="47.92964" lon="6.95316">
        <ele>647</ele>
        <time>2026-05-09T14:55:50.841Z</time>
      </trkpt>
      <trkpt lat="47.92963" lon="6.95317">
        <ele>647</ele>
        <time>2026-05-09T14:55:51.842Z</time>
      </trkpt>
      <trkpt lat="47.92961" lon="6.95317">
        <ele>647</ele>
        <time>2026-05-09T14:55:52.841Z</time>
      </trkpt>
      <trkpt lat="47.9296" lon="6.95317">
        <ele>647</ele>
        <time>2026-05-09T14:55:53.842Z</time>
      </trkpt>
      <trkpt lat="47.92959" lon="6.95318">
        <ele>646</ele>
        <time>2026-05-09T14:55:54.841Z</time>
      </trkpt>
      <trkpt lat="47.92958" lon="6.95318">
        <ele>646</ele>
        <time>2026-05-09T14:55:55.842Z</time>
      </trkpt>
      <trkpt lat="47.92957" lon="6.95319">
        <ele>646</ele>
        <time>2026-05-09T14:55:56.842Z</time>
      </trkpt>
      <trkpt lat="47.92956" lon="6.9532">
        <ele>646</ele>
        <time>2026-05-09T14:55:57.841Z</time>
      </trkpt>
      <trkpt lat="47.92955" lon="6.9532">
        <ele>646</ele>
        <time>2026-05-09T14:55:58.841Z</time>
      </trkpt>
      <trkpt lat="47.92953" lon="6.9532">
        <ele>645</ele>
        <time>2026-05-09T14:55:59.841Z</time>
      </trkpt>
      <trkpt lat="47.92952" lon="6.95321">
        <ele>645</ele>
        <time>2026-05-09T14:56:00.841Z</time>
      </trkpt>
      <trkpt lat="47.92951" lon="6.95321">
        <ele>645</ele>
        <time>2026-05-09T14:56:01.841Z</time>
      </trkpt>
      <trkpt lat="47.9295" lon="6.95321">
        <ele>645</ele>
        <time>2026-05-09T14:56:02.841Z</time>
      </trkpt>
      <trkpt lat="47.92949" lon="6.9532">
        <ele>646</ele>
        <time>2026-05-09T14:56:03.842Z</time>
      </trkpt>
      <trkpt lat="47.92947" lon="6.9532">
        <ele>646</ele>
        <time>2026-05-09T14:56:04.842Z</time>
      </trkpt>
      <trkpt lat="47.92946" lon="6.95319">
        <ele>646</ele>
        <time>2026-05-09T14:56:05.841Z</time>
      </trkpt>
      <trkpt lat="47.92945" lon="6.95319">
        <ele>646</ele>
        <time>2026-05-09T14:56:06.841Z</time>
      </trkpt>
      <trkpt lat="47.92944" lon="6.95319">
        <ele>646</ele>
        <time>2026-05-09T14:56:07.841Z</time>
      </trkpt>
      <trkpt lat="47.92943" lon="6.9532">
        <ele>646</ele>
        <time>2026-05-09T14:56:08.842Z</time>
      </trkpt>
      <trkpt lat="47.92943" lon="6.9532">
        <ele>646</ele>
        <time>2026-05-09T14:56:09.842Z</time>
      </trkpt>
      <trkpt lat="47.92942" lon="6.95321">
        <ele>646</ele>
        <time>2026-05-09T14:56:10.842Z</time>
      </trkpt>
      <trkpt lat="47.92942" lon="6.95324">
        <ele>646</ele>
        <time>2026-05-09T14:56:11.842Z</time>
      </trkpt>
      <trkpt lat="47.92941" lon="6.95324">
        <ele>646</ele>
        <time>2026-05-09T14:56:12.842Z</time>
      </trkpt>
      <trkpt lat="47.92941" lon="6.95324">
        <ele>646</ele>
        <time>2026-05-09T14:56:13.841Z</time>
      </trkpt>
      <trkpt lat="47.9294" lon="6.95325">
        <ele>646</ele>
        <time>2026-05-09T14:56:14.842Z</time>
      </trkpt>
      <trkpt lat="47.92939" lon="6.95324">
        <ele>645</ele>
        <time>2026-05-09T14:56:15.841Z</time>
      </trkpt>
      <trkpt lat="47.92939" lon="6.95324">
        <ele>645</ele>
        <time>2026-05-09T14:56:16.842Z</time>
      </trkpt>
      <trkpt lat="47.92938" lon="6.95323">
        <ele>645</ele>
        <time>2026-05-09T14:56:17.841Z</time>
      </trkpt>
      <trkpt lat="47.92937" lon="6.95324">
        <ele>645</ele>
        <time>2026-05-09T14:56:18.842Z</time>
      </trkpt>
      <trkpt lat="47.92937" lon="6.95324">
        <ele>645</ele>
        <time>2026-05-09T14:56:19.841Z</time>
      </trkpt>
      <trkpt lat="47.92936" lon="6.95323">
        <ele>644</ele>
        <time>2026-05-09T14:56:20.841Z</time>
      </trkpt>
      <trkpt lat="47.92936" lon="6.95323">
        <ele>644</ele>
        <time>2026-05-09T14:56:21.842Z</time>
      </trkpt>
      <trkpt lat="47.92935" lon="6.95323">
        <ele>644</ele>
        <time>2026-05-09T14:56:22.842Z</time>
      </trkpt>
      <trkpt lat="47.92935" lon="6.95322">
        <ele>644</ele>
        <time>2026-05-09T14:56:23.842Z</time>
      </trkpt>
      <trkpt lat="47.92934" lon="6.95322">
        <ele>644</ele>
        <time>2026-05-09T14:56:24.842Z</time>
      </trkpt>
      <trkpt lat="47.92935" lon="6.95322">
        <ele>643</ele>
        <time>2026-05-09T14:56:25.841Z</time>
      </trkpt>
      <trkpt lat="47.92935" lon="6.95323">
        <ele>643</ele>
        <time>2026-05-09T14:56:26.841Z</time>
      </trkpt>
      <trkpt lat="47.92935" lon="6.95323">
        <ele>643</ele>
        <time>2026-05-09T14:56:27.842Z</time>
      </trkpt>
      <trkpt lat="47.92937" lon="6.95323">
        <ele>640</ele>
        <time>2026-05-09T14:56:34.106Z</time>
      </trkpt>
      <trkpt lat="47.92938" lon="6.95323">
        <ele>640</ele>
        <time>2026-05-09T14:56:35.107Z</time>
      </trkpt>
      <trkpt lat="47.92938" lon="6.95324">
        <ele>640</ele>
        <time>2026-05-09T14:56:36.106Z</time>
      </trkpt>
      <trkpt lat="47.92938" lon="6.95325">
        <ele>640</ele>
        <time>2026-05-09T14:56:37.107Z</time>
      </trkpt>
      <trkpt lat="47.92939" lon="6.95325">
        <ele>640</ele>
        <time>2026-05-09T14:56:38.106Z</time>
      </trkpt>
      <trkpt lat="47.92939" lon="6.95325">
        <ele>637</ele>
        <time>2026-05-09T14:56:50.369Z</time>
      </trkpt>
      <trkpt lat="47.92939" lon="6.95325">
        <ele>637</ele>
        <time>2026-05-09T14:56:51.368Z</time>
      </trkpt>
      <trkpt lat="47.92938" lon="6.95325">
        <ele>634</ele>
        <time>2026-05-09T14:57:00.546Z</time>
      </trkpt>
      <trkpt lat="47.92938" lon="6.95325">
        <ele>634</ele>
        <time>2026-05-09T14:57:01.545Z</time>
      </trkpt>
      <trkpt lat="47.92938" lon="6.95325">
        <ele>634</ele>
        <time>2026-05-09T14:57:02.546Z</time>
      </trkpt>
      <trkpt lat="47.92938" lon="6.95324">
        <ele>634</ele>
        <time>2026-05-09T14:57:03.545Z</time>
      </trkpt>
      <trkpt lat="47.92938" lon="6.95324">
        <ele>634</ele>
        <time>2026-05-09T14:57:04.546Z</time>
      </trkpt>
      <trkpt lat="47.9294" lon="6.95329">
        <ele>637</ele>
        <time>2026-05-09T14:57:12.732Z</time>
      </trkpt>
      <trkpt lat="47.9294" lon="6.9533">
        <ele>637</ele>
        <time>2026-05-09T14:57:13.732Z</time>
      </trkpt>
      <trkpt lat="47.9294" lon="6.9533">
        <ele>638</ele>
        <time>2026-05-09T14:57:14.732Z</time>
      </trkpt>
      <trkpt lat="47.92941" lon="6.95331">
        <ele>638</ele>
        <time>2026-05-09T14:57:15.732Z</time>
      </trkpt>
      <trkpt lat="47.92942" lon="6.95331">
        <ele>639</ele>
        <time>2026-05-09T14:57:16.733Z</time>
      </trkpt>
      <trkpt lat="47.92942" lon="6.95332">
        <ele>640</ele>
        <time>2026-05-09T14:57:17.732Z</time>
      </trkpt>
      <trkpt lat="47.92943" lon="6.95332">
        <ele>640</ele>
        <time>2026-05-09T14:57:18.732Z</time>
      </trkpt>
      <trkpt lat="47.92944" lon="6.95332">
        <ele>641</ele>
        <time>2026-05-09T14:57:19.732Z</time>
      </trkpt>
      <trkpt lat="47.92945" lon="6.95332">
        <ele>641</ele>
        <time>2026-05-09T14:57:20.732Z</time>
      </trkpt>
      <trkpt lat="47.92946" lon="6.95332">
        <ele>642</ele>
        <time>2026-05-09T14:57:21.732Z</time>
      </trkpt>
      <trkpt lat="47.92947" lon="6.95332">
        <ele>642</ele>
        <time>2026-05-09T14:57:22.732Z</time>
      </trkpt>
      <trkpt lat="47.92948" lon="6.95333">
        <ele>642</ele>
        <time>2026-05-09T14:57:23.733Z</time>
      </trkpt>
      <trkpt lat="47.92949" lon="6.95333">
        <ele>641</ele>
        <time>2026-05-09T14:57:24.732Z</time>
      </trkpt>
      <trkpt lat="47.9295" lon="6.95333">
        <ele>641</ele>
        <time>2026-05-09T14:57:25.733Z</time>
      </trkpt>
      <trkpt lat="47.92951" lon="6.95334">
        <ele>641</ele>
        <time>2026-05-09T14:57:26.732Z</time>
      </trkpt>
      <trkpt lat="47.92952" lon="6.95335">
        <ele>641</ele>
        <time>2026-05-09T14:57:27.732Z</time>
      </trkpt>
      <trkpt lat="47.92954" lon="6.95337">
        <ele>641</ele>
        <time>2026-05-09T14:57:28.733Z</time>
      </trkpt>
      <trkpt lat="47.92955" lon="6.95338">
        <ele>641</ele>
        <time>2026-05-09T14:57:29.732Z</time>
      </trkpt>
      <trkpt lat="47.92956" lon="6.9534">
        <ele>641</ele>
        <time>2026-05-09T14:57:30.732Z</time>
      </trkpt>
      <trkpt lat="47.92958" lon="6.95342">
        <ele>641</ele>
        <time>2026-05-09T14:57:31.733Z</time>
      </trkpt>
      <trkpt lat="47.9296" lon="6.95343">
        <ele>641</ele>
        <time>2026-05-09T14:57:32.733Z</time>
      </trkpt>
      <trkpt lat="47.92962" lon="6.95344">
        <ele>640</ele>
        <time>2026-05-09T14:57:33.732Z</time>
      </trkpt>
      <trkpt lat="47.92964" lon="6.95346">
        <ele>640</ele>
        <time>2026-05-09T14:57:34.732Z</time>
      </trkpt>
      <trkpt lat="47.92965" lon="6.95348">
        <ele>640</ele>
        <time>2026-05-09T14:57:35.732Z</time>
      </trkpt>
      <trkpt lat="47.92967" lon="6.9535">
        <ele>640</ele>
        <time>2026-05-09T14:57:36.733Z</time>
      </trkpt>
      <trkpt lat="47.92968" lon="6.95352">
        <ele>639</ele>
        <time>2026-05-09T14:57:37.732Z</time>
      </trkpt>
      <trkpt lat="47.9297" lon="6.95353">
        <ele>639</ele>
        <time>2026-05-09T14:57:38.732Z</time>
      </trkpt>
      <trkpt lat="47.92972" lon="6.95356">
        <ele>639</ele>
        <time>2026-05-09T14:57:39.732Z</time>
      </trkpt>
      <trkpt lat="47.92973" lon="6.95358">
        <ele>639</ele>
        <time>2026-05-09T14:57:40.732Z</time>
      </trkpt>
      <trkpt lat="47.92975" lon="6.95361">
        <ele>639</ele>
        <time>2026-05-09T14:57:41.732Z</time>
      </trkpt>
      <trkpt lat="47.92977" lon="6.95364">
        <ele>638</ele>
        <time>2026-05-09T14:57:42.732Z</time>
      </trkpt>
      <trkpt lat="47.92979" lon="6.95366">
        <ele>638</ele>
        <time>2026-05-09T14:57:43.732Z</time>
      </trkpt>
      <trkpt lat="47.92981" lon="6.95367">
        <ele>638</ele>
        <time>2026-05-09T14:57:44.732Z</time>
      </trkpt>
      <trkpt lat="47.92982" lon="6.95369">
        <ele>638</ele>
        <time>2026-05-09T14:57:45.732Z</time>
      </trkpt>
      <trkpt lat="47.92983" lon="6.9537">
        <ele>638</ele>
        <time>2026-05-09T14:57:46.732Z</time>
      </trkpt>
      <trkpt lat="47.92984" lon="6.95371">
        <ele>638</ele>
        <time>2026-05-09T14:57:47.732Z</time>
      </trkpt>
      <trkpt lat="47.92985" lon="6.95372">
        <ele>638</ele>
        <time>2026-05-09T14:57:48.733Z</time>
      </trkpt>
      <trkpt lat="47.92986" lon="6.95373">
        <ele>638</ele>
        <time>2026-05-09T14:57:49.733Z</time>
      </trkpt>
      <trkpt lat="47.92987" lon="6.95373">
        <ele>638</ele>
        <time>2026-05-09T14:57:50.733Z</time>
      </trkpt>
      <trkpt lat="47.92988" lon="6.95375">
        <ele>638</ele>
        <time>2026-05-09T14:57:51.732Z</time>
      </trkpt>
      <trkpt lat="47.92989" lon="6.95376">
        <ele>638</ele>
        <time>2026-05-09T14:57:52.733Z</time>
      </trkpt>
      <trkpt lat="47.92989" lon="6.95378">
        <ele>638</ele>
        <time>2026-05-09T14:57:53.732Z</time>
      </trkpt>
      <trkpt lat="47.92991" lon="6.9538">
        <ele>638</ele>
        <time>2026-05-09T14:57:54.732Z</time>
      </trkpt>
      <trkpt lat="47.92992" lon="6.95382">
        <ele>638</ele>
        <time>2026-05-09T14:57:55.732Z</time>
      </trkpt>
      <trkpt lat="47.92993" lon="6.95385">
        <ele>638</ele>
        <time>2026-05-09T14:57:56.732Z</time>
      </trkpt>
      <trkpt lat="47.92996" lon="6.95387">
        <ele>639</ele>
        <time>2026-05-09T14:57:57.733Z</time>
      </trkpt>
      <trkpt lat="47.92999" lon="6.95389">
        <ele>639</ele>
        <time>2026-05-09T14:57:58.732Z</time>
      </trkpt>
      <trkpt lat="47.93002" lon="6.9539">
        <ele>639</ele>
        <time>2026-05-09T14:57:59.732Z</time>
      </trkpt>
      <trkpt lat="47.93004" lon="6.95392">
        <ele>638</ele>
        <time>2026-05-09T14:58:00.732Z</time>
      </trkpt>
      <trkpt lat="47.93006" lon="6.95393">
        <ele>638</ele>
        <time>2026-05-09T14:58:01.733Z</time>
      </trkpt>
      <trkpt lat="47.93008" lon="6.95394">
        <ele>638</ele>
        <time>2026-05-09T14:58:02.732Z</time>
      </trkpt>
      <trkpt lat="47.93009" lon="6.95396">
        <ele>637</ele>
        <time>2026-05-09T14:58:03.732Z</time>
      </trkpt>
      <trkpt lat="47.9301" lon="6.95396">
        <ele>636</ele>
        <time>2026-05-09T14:58:04.732Z</time>
      </trkpt>
      <trkpt lat="47.9301" lon="6.95397">
        <ele>636</ele>
        <time>2026-05-09T14:58:05.733Z</time>
      </trkpt>
      <trkpt lat="47.93011" lon="6.95397">
        <ele>635</ele>
        <time>2026-05-09T14:58:06.732Z</time>
      </trkpt>
      <trkpt lat="47.93012" lon="6.95398">
        <ele>634</ele>
        <time>2026-05-09T14:58:07.732Z</time>
      </trkpt>
      <trkpt lat="47.93013" lon="6.95399">
        <ele>634</ele>
        <time>2026-05-09T14:58:08.732Z</time>
      </trkpt>
      <trkpt lat="47.93014" lon="6.95401">
        <ele>633</ele>
        <time>2026-05-09T14:58:09.732Z</time>
      </trkpt>
      <trkpt lat="47.93014" lon="6.95402">
        <ele>633</ele>
        <time>2026-05-09T14:58:10.733Z</time>
      </trkpt>
      <trkpt lat="47.93014" lon="6.95404">
        <ele>633</ele>
        <time>2026-05-09T14:58:11.732Z</time>
      </trkpt>
      <trkpt lat="47.93015" lon="6.95405">
        <ele>632</ele>
        <time>2026-05-09T14:58:12.732Z</time>
      </trkpt>
      <trkpt lat="47.93017" lon="6.95407">
        <ele>632</ele>
        <time>2026-05-09T14:58:13.732Z</time>
      </trkpt>
      <trkpt lat="47.93019" lon="6.95409">
        <ele>632</ele>
        <time>2026-05-09T14:58:14.732Z</time>
      </trkpt>
      <trkpt lat="47.93019" lon="6.95411">
        <ele>632</ele>
        <time>2026-05-09T14:58:15.732Z</time>
      </trkpt>
      <trkpt lat="47.93023" lon="6.95415">
        <ele>631</ele>
        <time>2026-05-09T14:58:16.732Z</time>
      </trkpt>
      <trkpt lat="47.93028" lon="6.95417">
        <ele>631</ele>
        <time>2026-05-09T14:58:17.732Z</time>
      </trkpt>
      <trkpt lat="47.93034" lon="6.95417">
        <ele>631</ele>
        <time>2026-05-09T14:58:18.732Z</time>
      </trkpt>
      <trkpt lat="47.93038" lon="6.9542">
        <ele>631</ele>
        <time>2026-05-09T14:58:19.732Z</time>
      </trkpt>
      <trkpt lat="47.93041" lon="6.95422">
        <ele>630</ele>
        <time>2026-05-09T14:58:20.732Z</time>
      </trkpt>
      <trkpt lat="47.93045" lon="6.95422">
        <ele>630</ele>
        <time>2026-05-09T14:58:21.732Z</time>
      </trkpt>
      <trkpt lat="47.93047" lon="6.95423">
        <ele>629</ele>
        <time>2026-05-09T14:58:22.732Z</time>
      </trkpt>
      <trkpt lat="47.93049" lon="6.95424">
        <ele>629</ele>
        <time>2026-05-09T14:58:23.732Z</time>
      </trkpt>
      <trkpt lat="47.93051" lon="6.95426">
        <ele>628</ele>
        <time>2026-05-09T14:58:24.732Z</time>
      </trkpt>
      <trkpt lat="47.93052" lon="6.95427">
        <ele>627</ele>
        <time>2026-05-09T14:58:25.732Z</time>
      </trkpt>
      <trkpt lat="47.93054" lon="6.95428">
        <ele>627</ele>
        <time>2026-05-09T14:58:26.732Z</time>
      </trkpt>
      <trkpt lat="47.93054" lon="6.95429">
        <ele>626</ele>
        <time>2026-05-09T14:58:27.732Z</time>
      </trkpt>
      <trkpt lat="47.93055" lon="6.9543">
        <ele>625</ele>
        <time>2026-05-09T14:58:28.732Z</time>
      </trkpt>
      <trkpt lat="47.93056" lon="6.95432">
        <ele>625</ele>
        <time>2026-05-09T14:58:29.732Z</time>
      </trkpt>
      <trkpt lat="47.93057" lon="6.95434">
        <ele>624</ele>
        <time>2026-05-09T14:58:30.732Z</time>
      </trkpt>
      <trkpt lat="47.93057" lon="6.95435">
        <ele>624</ele>
        <time>2026-05-09T14:58:31.733Z</time>
      </trkpt>
      <trkpt lat="47.93058" lon="6.95436">
        <ele>623</ele>
        <time>2026-05-09T14:58:32.733Z</time>
      </trkpt>
      <trkpt lat="47.93059" lon="6.95437">
        <ele>623</ele>
        <time>2026-05-09T14:58:33.732Z</time>
      </trkpt>
      <trkpt lat="47.93059" lon="6.95438">
        <ele>623</ele>
        <time>2026-05-09T14:58:34.733Z</time>
      </trkpt>
      <trkpt lat="47.9306" lon="6.95438">
        <ele>622</ele>
        <time>2026-05-09T14:58:35.732Z</time>
      </trkpt>
      <trkpt lat="47.9306" lon="6.95439">
        <ele>622</ele>
        <time>2026-05-09T14:58:36.732Z</time>
      </trkpt>
      <trkpt lat="47.93061" lon="6.95439">
        <ele>621</ele>
        <time>2026-05-09T14:58:37.732Z</time>
      </trkpt>
      <trkpt lat="47.93062" lon="6.9544">
        <ele>621</ele>
        <time>2026-05-09T14:58:38.733Z</time>
      </trkpt>
      <trkpt lat="47.93062" lon="6.95441">
        <ele>620</ele>
        <time>2026-05-09T14:58:39.732Z</time>
      </trkpt>
      <trkpt lat="47.93063" lon="6.95442">
        <ele>619</ele>
        <time>2026-05-09T14:58:40.733Z</time>
      </trkpt>
      <trkpt lat="47.93063" lon="6.95443">
        <ele>619</ele>
        <time>2026-05-09T14:58:41.733Z</time>
      </trkpt>
      <trkpt lat="47.93063" lon="6.95445">
        <ele>618</ele>
        <time>2026-05-09T14:58:42.733Z</time>
      </trkpt>
      <trkpt lat="47.93063" lon="6.95447">
        <ele>618</ele>
        <time>2026-05-09T14:58:43.733Z</time>
      </trkpt>
      <trkpt lat="47.93063" lon="6.95448">
        <ele>618</ele>
        <time>2026-05-09T14:58:44.733Z</time>
      </trkpt>
      <trkpt lat="47.93064" lon="6.95449">
        <ele>618</ele>
        <time>2026-05-09T14:58:45.732Z</time>
      </trkpt>
      <trkpt lat="47.93065" lon="6.9545">
        <ele>618</ele>
        <time>2026-05-09T14:58:46.733Z</time>
      </trkpt>
      <trkpt lat="47.93066" lon="6.95452">
        <ele>618</ele>
        <time>2026-05-09T14:58:47.732Z</time>
      </trkpt>
      <trkpt lat="47.93067" lon="6.95453">
        <ele>619</ele>
        <time>2026-05-09T14:58:48.732Z</time>
      </trkpt>
      <trkpt lat="47.93067" lon="6.95455">
        <ele>619</ele>
        <time>2026-05-09T14:58:49.732Z</time>
      </trkpt>
      <trkpt lat="47.93069" lon="6.95456">
        <ele>619</ele>
        <time>2026-05-09T14:58:50.732Z</time>
      </trkpt>
      <trkpt lat="47.9307" lon="6.95458">
        <ele>619</ele>
        <time>2026-05-09T14:58:51.732Z</time>
      </trkpt>
      <trkpt lat="47.93071" lon="6.9546">
        <ele>619</ele>
        <time>2026-05-09T14:58:52.732Z</time>
      </trkpt>
      <trkpt lat="47.93072" lon="6.95462">
        <ele>619</ele>
        <time>2026-05-09T14:58:53.732Z</time>
      </trkpt>
      <trkpt lat="47.93072" lon="6.95463">
        <ele>619</ele>
        <time>2026-05-09T14:58:54.732Z</time>
      </trkpt>
      <trkpt lat="47.93071" lon="6.95464">
        <ele>619</ele>
        <time>2026-05-09T14:58:55.732Z</time>
      </trkpt>
      <trkpt lat="47.93071" lon="6.95464">
        <ele>619</ele>
        <time>2026-05-09T14:58:56.732Z</time>
      </trkpt>
      <trkpt lat="47.93072" lon="6.95465">
        <ele>618</ele>
        <time>2026-05-09T14:58:57.732Z</time>
      </trkpt>
      <trkpt lat="47.93073" lon="6.95466">
        <ele>618</ele>
        <time>2026-05-09T14:58:58.732Z</time>
      </trkpt>
      <trkpt lat="47.93074" lon="6.95467">
        <ele>617</ele>
        <time>2026-05-09T14:58:59.732Z</time>
      </trkpt>
      <trkpt lat="47.93075" lon="6.95469">
        <ele>617</ele>
        <time>2026-05-09T14:59:00.732Z</time>
      </trkpt>
      <trkpt lat="47.93076" lon="6.9547">
        <ele>617</ele>
        <time>2026-05-09T14:59:01.732Z</time>
      </trkpt>
      <trkpt lat="47.93077" lon="6.95471">
        <ele>617</ele>
        <time>2026-05-09T14:59:02.732Z</time>
      </trkpt>
      <trkpt lat="47.93077" lon="6.95471">
        <ele>617</ele>
        <time>2026-05-09T14:59:03.732Z</time>
      </trkpt>
      <trkpt lat="47.93078" lon="6.95471">
        <ele>616</ele>
        <time>2026-05-09T14:59:04.733Z</time>
      </trkpt>
      <trkpt lat="47.93078" lon="6.95472">
        <ele>616</ele>
        <time>2026-05-09T14:59:05.732Z</time>
      </trkpt>
      <trkpt lat="47.93079" lon="6.95472">
        <ele>616</ele>
        <time>2026-05-09T14:59:06.733Z</time>
      </trkpt>
      <trkpt lat="47.93079" lon="6.95473">
        <ele>615</ele>
        <time>2026-05-09T14:59:07.732Z</time>
      </trkpt>
      <trkpt lat="47.9308" lon="6.95473">
        <ele>615</ele>
        <time>2026-05-09T14:59:08.732Z</time>
      </trkpt>
      <trkpt lat="47.93082" lon="6.95474">
        <ele>615</ele>
        <time>2026-05-09T14:59:09.732Z</time>
      </trkpt>
      <trkpt lat="47.93083" lon="6.95475">
        <ele>614</ele>
        <time>2026-05-09T14:59:10.732Z</time>
      </trkpt>
      <trkpt lat="47.93083" lon="6.95476">
        <ele>614</ele>
        <time>2026-05-09T14:59:11.732Z</time>
      </trkpt>
      <trkpt lat="47.93085" lon="6.95476">
        <ele>614</ele>
        <time>2026-05-09T14:59:12.732Z</time>
      </trkpt>
      <trkpt lat="47.93086" lon="6.95477">
        <ele>613</ele>
        <time>2026-05-09T14:59:13.732Z</time>
      </trkpt>
      <trkpt lat="47.93087" lon="6.95478">
        <ele>613</ele>
        <time>2026-05-09T14:59:14.732Z</time>
      </trkpt>
      <trkpt lat="47.93088" lon="6.95478">
        <ele>613</ele>
        <time>2026-05-09T14:59:15.732Z</time>
      </trkpt>
      <trkpt lat="47.93089" lon="6.95478">
        <ele>612</ele>
        <time>2026-05-09T14:59:16.732Z</time>
      </trkpt>
      <trkpt lat="47.9309" lon="6.95478">
        <ele>612</ele>
        <time>2026-05-09T14:59:17.732Z</time>
      </trkpt>
      <trkpt lat="47.93091" lon="6.95478">
        <ele>612</ele>
        <time>2026-05-09T14:59:18.732Z</time>
      </trkpt>
      <trkpt lat="47.93092" lon="6.95479">
        <ele>612</ele>
        <time>2026-05-09T14:59:19.732Z</time>
      </trkpt>
      <trkpt lat="47.93093" lon="6.95479">
        <ele>611</ele>
        <time>2026-05-09T14:59:20.732Z</time>
      </trkpt>
      <trkpt lat="47.93094" lon="6.9548">
        <ele>611</ele>
        <time>2026-05-09T14:59:21.732Z</time>
      </trkpt>
      <trkpt lat="47.93096" lon="6.9548">
        <ele>611</ele>
        <time>2026-05-09T14:59:22.732Z</time>
      </trkpt>
      <trkpt lat="47.93097" lon="6.95481">
        <ele>610</ele>
        <time>2026-05-09T14:59:23.733Z</time>
      </trkpt>
      <trkpt lat="47.93098" lon="6.95482">
        <ele>610</ele>
        <time>2026-05-09T14:59:24.732Z</time>
      </trkpt>
      <trkpt lat="47.93099" lon="6.95483">
        <ele>610</ele>
        <time>2026-05-09T14:59:25.732Z</time>
      </trkpt>
      <trkpt lat="47.931" lon="6.95484">
        <ele>610</ele>
        <time>2026-05-09T14:59:26.732Z</time>
      </trkpt>
      <trkpt lat="47.93101" lon="6.95485">
        <ele>610</ele>
        <time>2026-05-09T14:59:27.732Z</time>
      </trkpt>
      <trkpt lat="47.93102" lon="6.95485">
        <ele>610</ele>
        <time>2026-05-09T14:59:28.732Z</time>
      </trkpt>
      <trkpt lat="47.93103" lon="6.95486">
        <ele>610</ele>
        <time>2026-05-09T14:59:29.732Z</time>
      </trkpt>
      <trkpt lat="47.93103" lon="6.95487">
        <ele>610</ele>
        <time>2026-05-09T14:59:30.732Z</time>
      </trkpt>
      <trkpt lat="47.93103" lon="6.95487">
        <ele>610</ele>
        <time>2026-05-09T14:59:31.732Z</time>
      </trkpt>
      <trkpt lat="47.93103" lon="6.95487">
        <ele>609</ele>
        <time>2026-05-09T14:59:32.732Z</time>
      </trkpt>
      <trkpt lat="47.93103" lon="6.95488">
        <ele>609</ele>
        <time>2026-05-09T14:59:33.732Z</time>
      </trkpt>
      <trkpt lat="47.93109" lon="6.95491">
        <ele>607</ele>
        <time>2026-05-09T14:59:39.067Z</time>
      </trkpt>
      <trkpt lat="47.93111" lon="6.95492">
        <ele>606</ele>
        <time>2026-05-09T14:59:40.067Z</time>
      </trkpt>
      <trkpt lat="47.93112" lon="6.95493">
        <ele>606</ele>
        <time>2026-05-09T14:59:41.068Z</time>
      </trkpt>
      <trkpt lat="47.93114" lon="6.95493">
        <ele>605</ele>
        <time>2026-05-09T14:59:42.067Z</time>
      </trkpt>
      <trkpt lat="47.93115" lon="6.95494">
        <ele>604</ele>
        <time>2026-05-09T14:59:43.067Z</time>
      </trkpt>
      <trkpt lat="47.93116" lon="6.95495">
        <ele>604</ele>
        <time>2026-05-09T14:59:44.068Z</time>
      </trkpt>
      <trkpt lat="47.93117" lon="6.95497">
        <ele>603</ele>
        <time>2026-05-09T14:59:45.068Z</time>
      </trkpt>
      <trkpt lat="47.93119" lon="6.95499">
        <ele>602</ele>
        <time>2026-05-09T14:59:46.067Z</time>
      </trkpt>
      <trkpt lat="47.93119" lon="6.955">
        <ele>602</ele>
        <time>2026-05-09T14:59:47.068Z</time>
      </trkpt>
      <trkpt lat="47.93119" lon="6.95503">
        <ele>601</ele>
        <time>2026-05-09T14:59:48.067Z</time>
      </trkpt>
      <trkpt lat="47.93119" lon="6.95505">
        <ele>600</ele>
        <time>2026-05-09T14:59:49.068Z</time>
      </trkpt>
      <trkpt lat="47.93118" lon="6.95508">
        <ele>599</ele>
        <time>2026-05-09T14:59:50.068Z</time>
      </trkpt>
      <trkpt lat="47.93118" lon="6.95511">
        <ele>598</ele>
        <time>2026-05-09T14:59:51.068Z</time>
      </trkpt>
      <trkpt lat="47.93117" lon="6.95514">
        <ele>598</ele>
        <time>2026-05-09T14:59:52.068Z</time>
      </trkpt>
      <trkpt lat="47.93116" lon="6.95516">
        <ele>597</ele>
        <time>2026-05-09T14:59:53.068Z</time>
      </trkpt>
      <trkpt lat="47.93115" lon="6.95517">
        <ele>597</ele>
        <time>2026-05-09T14:59:54.068Z</time>
      </trkpt>
      <trkpt lat="47.93115" lon="6.95519">
        <ele>597</ele>
        <time>2026-05-09T14:59:55.067Z</time>
      </trkpt>
      <trkpt lat="47.93114" lon="6.95521">
        <ele>596</ele>
        <time>2026-05-09T14:59:56.067Z</time>
      </trkpt>
      <trkpt lat="47.93113" lon="6.95522">
        <ele>596</ele>
        <time>2026-05-09T14:59:57.067Z</time>
      </trkpt>
      <trkpt lat="47.93112" lon="6.95523">
        <ele>596</ele>
        <time>2026-05-09T14:59:58.067Z</time>
      </trkpt>
      <trkpt lat="47.93111" lon="6.95525">
        <ele>596</ele>
        <time>2026-05-09T14:59:59.068Z</time>
      </trkpt>
      <trkpt lat="47.93111" lon="6.95526">
        <ele>596</ele>
        <time>2026-05-09T15:00:00.068Z</time>
      </trkpt>
      <trkpt lat="47.9311" lon="6.95528">
        <ele>596</ele>
        <time>2026-05-09T15:00:01.068Z</time>
      </trkpt>
      <trkpt lat="47.93109" lon="6.95531">
        <ele>595</ele>
        <time>2026-05-09T15:00:02.067Z</time>
      </trkpt>
      <trkpt lat="47.93108" lon="6.95531">
        <ele>595</ele>
        <time>2026-05-09T15:00:03.068Z</time>
      </trkpt>
      <trkpt lat="47.93107" lon="6.95532">
        <ele>595</ele>
        <time>2026-05-09T15:00:04.067Z</time>
      </trkpt>
      <trkpt lat="47.93106" lon="6.95533">
        <ele>595</ele>
        <time>2026-05-09T15:00:05.067Z</time>
      </trkpt>
      <trkpt lat="47.93104" lon="6.95534">
        <ele>594</ele>
        <time>2026-05-09T15:00:06.068Z</time>
      </trkpt>
      <trkpt lat="47.93103" lon="6.95535">
        <ele>593</ele>
        <time>2026-05-09T15:00:07.068Z</time>
      </trkpt>
      <trkpt lat="47.93102" lon="6.95537">
        <ele>592</ele>
        <time>2026-05-09T15:00:08.068Z</time>
      </trkpt>
      <trkpt lat="47.93101" lon="6.95537">
        <ele>592</ele>
        <time>2026-05-09T15:00:09.068Z</time>
      </trkpt>
      <trkpt lat="47.931" lon="6.95539">
        <ele>591</ele>
        <time>2026-05-09T15:00:10.067Z</time>
      </trkpt>
      <trkpt lat="47.93099" lon="6.95542">
        <ele>591</ele>
        <time>2026-05-09T15:00:11.067Z</time>
      </trkpt>
      <trkpt lat="47.93098" lon="6.95545">
        <ele>590</ele>
        <time>2026-05-09T15:00:12.067Z</time>
      </trkpt>
      <trkpt lat="47.93097" lon="6.95547">
        <ele>590</ele>
        <time>2026-05-09T15:00:13.068Z</time>
      </trkpt>
      <trkpt lat="47.93096" lon="6.95549">
        <ele>590</ele>
        <time>2026-05-09T15:00:14.068Z</time>
      </trkpt>
      <trkpt lat="47.93094" lon="6.9555">
        <ele>589</ele>
        <time>2026-05-09T15:00:15.068Z</time>
      </trkpt>
      <trkpt lat="47.93093" lon="6.95552">
        <ele>589</ele>
        <time>2026-05-09T15:00:16.068Z</time>
      </trkpt>
      <trkpt lat="47.93092" lon="6.95553">
        <ele>588</ele>
        <time>2026-05-09T15:00:17.067Z</time>
      </trkpt>
      <trkpt lat="47.9309" lon="6.95555">
        <ele>588</ele>
        <time>2026-05-09T15:00:18.067Z</time>
      </trkpt>
      <trkpt lat="47.93089" lon="6.95556">
        <ele>588</ele>
        <time>2026-05-09T15:00:19.067Z</time>
      </trkpt>
      <trkpt lat="47.93088" lon="6.95559">
        <ele>587</ele>
        <time>2026-05-09T15:00:20.068Z</time>
      </trkpt>
      <trkpt lat="47.93087" lon="6.95561">
        <ele>587</ele>
        <time>2026-05-09T15:00:21.068Z</time>
      </trkpt>
      <trkpt lat="47.93086" lon="6.95562">
        <ele>586</ele>
        <time>2026-05-09T15:00:22.068Z</time>
      </trkpt>
      <trkpt lat="47.93085" lon="6.95564">
        <ele>586</ele>
        <time>2026-05-09T15:00:23.068Z</time>
      </trkpt>
      <trkpt lat="47.93083" lon="6.95565">
        <ele>586</ele>
        <time>2026-05-09T15:00:24.068Z</time>
      </trkpt>
      <trkpt lat="47.93083" lon="6.95566">
        <ele>585</ele>
        <time>2026-05-09T15:00:25.068Z</time>
      </trkpt>
      <trkpt lat="47.93082" lon="6.95569">
        <ele>585</ele>
        <time>2026-05-09T15:00:26.067Z</time>
      </trkpt>
      <trkpt lat="47.9308" lon="6.95571">
        <ele>585</ele>
        <time>2026-05-09T15:00:27.068Z</time>
      </trkpt>
      <trkpt lat="47.93079" lon="6.95572">
        <ele>584</ele>
        <time>2026-05-09T15:00:28.068Z</time>
      </trkpt>
      <trkpt lat="47.93077" lon="6.95573">
        <ele>584</ele>
        <time>2026-05-09T15:00:29.068Z</time>
      </trkpt>
      <trkpt lat="47.93076" lon="6.95574">
        <ele>583</ele>
        <time>2026-05-09T15:00:30.067Z</time>
      </trkpt>
      <trkpt lat="47.93074" lon="6.95575">
        <ele>582</ele>
        <time>2026-05-09T15:00:31.067Z</time>
      </trkpt>
      <trkpt lat="47.93074" lon="6.95575">
        <ele>581</ele>
        <time>2026-05-09T15:00:32.067Z</time>
      </trkpt>
      <trkpt lat="47.93073" lon="6.95576">
        <ele>580</ele>
        <time>2026-05-09T15:00:33.067Z</time>
      </trkpt>
      <trkpt lat="47.93072" lon="6.95578">
        <ele>580</ele>
        <time>2026-05-09T15:00:34.067Z</time>
      </trkpt>
      <trkpt lat="47.93071" lon="6.9558">
        <ele>579</ele>
        <time>2026-05-09T15:00:35.067Z</time>
      </trkpt>
      <trkpt lat="47.9307" lon="6.95581">
        <ele>579</ele>
        <time>2026-05-09T15:00:36.067Z</time>
      </trkpt>
      <trkpt lat="47.93069" lon="6.95583">
        <ele>579</ele>
        <time>2026-05-09T15:00:37.068Z</time>
      </trkpt>
      <trkpt lat="47.93067" lon="6.95584">
        <ele>578</ele>
        <time>2026-05-09T15:00:38.068Z</time>
      </trkpt>
      <trkpt lat="47.93066" lon="6.95586">
        <ele>577</ele>
        <time>2026-05-09T15:00:39.068Z</time>
      </trkpt>
      <trkpt lat="47.93064" lon="6.95587">
        <ele>577</ele>
        <time>2026-05-09T15:00:40.068Z</time>
      </trkpt>
      <trkpt lat="47.93063" lon="6.95589">
        <ele>577</ele>
        <time>2026-05-09T15:00:41.068Z</time>
      </trkpt>
      <trkpt lat="47.93062" lon="6.95592">
        <ele>576</ele>
        <time>2026-05-09T15:00:42.068Z</time>
      </trkpt>
      <trkpt lat="47.93061" lon="6.95594">
        <ele>576</ele>
        <time>2026-05-09T15:00:43.068Z</time>
      </trkpt>
      <trkpt lat="47.9306" lon="6.95597">
        <ele>576</ele>
        <time>2026-05-09T15:00:44.067Z</time>
      </trkpt>
      <trkpt lat="47.93059" lon="6.956">
        <ele>576</ele>
        <time>2026-05-09T15:00:45.067Z</time>
      </trkpt>
      <trkpt lat="47.93057" lon="6.95602">
        <ele>575</ele>
        <time>2026-05-09T15:00:46.067Z</time>
      </trkpt>
      <trkpt lat="47.93056" lon="6.95603">
        <ele>575</ele>
        <time>2026-05-09T15:00:47.067Z</time>
      </trkpt>
      <trkpt lat="47.93055" lon="6.95605">
        <ele>574</ele>
        <time>2026-05-09T15:00:48.067Z</time>
      </trkpt>
      <trkpt lat="47.93054" lon="6.95607">
        <ele>574</ele>
        <time>2026-05-09T15:00:49.068Z</time>
      </trkpt>
      <trkpt lat="47.93053" lon="6.95609">
        <ele>574</ele>
        <time>2026-05-09T15:00:50.068Z</time>
      </trkpt>
      <trkpt lat="47.93052" lon="6.95611">
        <ele>573</ele>
        <time>2026-05-09T15:00:51.068Z</time>
      </trkpt>
      <trkpt lat="47.9305" lon="6.95612">
        <ele>573</ele>
        <time>2026-05-09T15:00:52.068Z</time>
      </trkpt>
      <trkpt lat="47.93049" lon="6.95613">
        <ele>573</ele>
        <time>2026-05-09T15:00:53.067Z</time>
      </trkpt>
      <trkpt lat="47.93048" lon="6.95614">
        <ele>572</ele>
        <time>2026-05-09T15:00:54.067Z</time>
      </trkpt>
      <trkpt lat="47.93047" lon="6.95616">
        <ele>572</ele>
        <time>2026-05-09T15:00:55.067Z</time>
      </trkpt>
      <trkpt lat="47.93046" lon="6.95619">
        <ele>571</ele>
        <time>2026-05-09T15:00:56.067Z</time>
      </trkpt>
      <trkpt lat="47.93045" lon="6.95621">
        <ele>571</ele>
        <time>2026-05-09T15:00:57.067Z</time>
      </trkpt>
      <trkpt lat="47.93044" lon="6.95624">
        <ele>571</ele>
        <time>2026-05-09T15:00:58.067Z</time>
      </trkpt>
      <trkpt lat="47.93043" lon="6.95626">
        <ele>570</ele>
        <time>2026-05-09T15:00:59.068Z</time>
      </trkpt>
      <trkpt lat="47.93042" lon="6.95629">
        <ele>570</ele>
        <time>2026-05-09T15:01:00.067Z</time>
      </trkpt>
      <trkpt lat="47.93041" lon="6.95631">
        <ele>569</ele>
        <time>2026-05-09T15:01:01.067Z</time>
      </trkpt>
      <trkpt lat="47.9304" lon="6.95634">
        <ele>569</ele>
        <time>2026-05-09T15:01:02.067Z</time>
      </trkpt>
      <trkpt lat="47.93039" lon="6.95636">
        <ele>568</ele>
        <time>2026-05-09T15:01:03.067Z</time>
      </trkpt>
      <trkpt lat="47.93037" lon="6.95639">
        <ele>568</ele>
        <time>2026-05-09T15:01:04.067Z</time>
      </trkpt>
      <trkpt lat="47.93036" lon="6.9564">
        <ele>567</ele>
        <time>2026-05-09T15:01:05.067Z</time>
      </trkpt>
      <trkpt lat="47.93035" lon="6.95642">
        <ele>567</ele>
        <time>2026-05-09T15:01:06.067Z</time>
      </trkpt>
      <trkpt lat="47.93034" lon="6.95644">
        <ele>567</ele>
        <time>2026-05-09T15:01:07.067Z</time>
      </trkpt>
      <trkpt lat="47.93033" lon="6.95645">
        <ele>567</ele>
        <time>2026-05-09T15:01:08.068Z</time>
      </trkpt>
      <trkpt lat="47.93032" lon="6.95647">
        <ele>566</ele>
        <time>2026-05-09T15:01:09.068Z</time>
      </trkpt>
      <trkpt lat="47.93032" lon="6.95649">
        <ele>566</ele>
        <time>2026-05-09T15:01:10.068Z</time>
      </trkpt>
      <trkpt lat="47.93031" lon="6.95651">
        <ele>565</ele>
        <time>2026-05-09T15:01:11.067Z</time>
      </trkpt>
      <trkpt lat="47.9303" lon="6.95652">
        <ele>565</ele>
        <time>2026-05-09T15:01:12.068Z</time>
      </trkpt>
      <trkpt lat="47.93029" lon="6.95653">
        <ele>564</ele>
        <time>2026-05-09T15:01:13.068Z</time>
      </trkpt>
      <trkpt lat="47.93028" lon="6.95653">
        <ele>564</ele>
        <time>2026-05-09T15:01:14.068Z</time>
      </trkpt>
      <trkpt lat="47.93027" lon="6.95654">
        <ele>563</ele>
        <time>2026-05-09T15:01:15.068Z</time>
      </trkpt>
      <trkpt lat="47.93026" lon="6.95655">
        <ele>563</ele>
        <time>2026-05-09T15:01:16.068Z</time>
      </trkpt>
      <trkpt lat="47.93025" lon="6.95656">
        <ele>562</ele>
        <time>2026-05-09T15:01:17.068Z</time>
      </trkpt>
      <trkpt lat="47.93024" lon="6.95658">
        <ele>561</ele>
        <time>2026-05-09T15:01:18.067Z</time>
      </trkpt>
      <trkpt lat="47.93022" lon="6.95659">
        <ele>561</ele>
        <time>2026-05-09T15:01:19.068Z</time>
      </trkpt>
      <trkpt lat="47.93021" lon="6.9566">
        <ele>561</ele>
        <time>2026-05-09T15:01:20.067Z</time>
      </trkpt>
      <trkpt lat="47.93019" lon="6.9566">
        <ele>560</ele>
        <time>2026-05-09T15:01:21.067Z</time>
      </trkpt>
      <trkpt lat="47.93018" lon="6.95661">
        <ele>560</ele>
        <time>2026-05-09T15:01:22.067Z</time>
      </trkpt>
      <trkpt lat="47.93016" lon="6.95662">
        <ele>559</ele>
        <time>2026-05-09T15:01:23.067Z</time>
      </trkpt>
      <trkpt lat="47.93015" lon="6.95662">
        <ele>558</ele>
        <time>2026-05-09T15:01:24.068Z</time>
      </trkpt>
      <trkpt lat="47.93014" lon="6.95663">
        <ele>558</ele>
        <time>2026-05-09T15:01:25.068Z</time>
      </trkpt>
      <trkpt lat="47.93013" lon="6.95664">
        <ele>557</ele>
        <time>2026-05-09T15:01:26.067Z</time>
      </trkpt>
      <trkpt lat="47.93012" lon="6.95664">
        <ele>557</ele>
        <time>2026-05-09T15:01:27.067Z</time>
      </trkpt>
      <trkpt lat="47.93011" lon="6.95665">
        <ele>556</ele>
        <time>2026-05-09T15:01:28.068Z</time>
      </trkpt>
      <trkpt lat="47.9301" lon="6.95665">
        <ele>556</ele>
        <time>2026-05-09T15:01:29.067Z</time>
      </trkpt>
      <trkpt lat="47.93008" lon="6.95665">
        <ele>556</ele>
        <time>2026-05-09T15:01:30.068Z</time>
      </trkpt>
      <trkpt lat="47.93007" lon="6.95665">
        <ele>556</ele>
        <time>2026-05-09T15:01:31.067Z</time>
      </trkpt>
      <trkpt lat="47.93006" lon="6.95665">
        <ele>555</ele>
        <time>2026-05-09T15:01:32.067Z</time>
      </trkpt>
      <trkpt lat="47.93004" lon="6.95666">
        <ele>555</ele>
        <time>2026-05-09T15:01:33.067Z</time>
      </trkpt>
      <trkpt lat="47.93003" lon="6.95666">
        <ele>555</ele>
        <time>2026-05-09T15:01:34.068Z</time>
      </trkpt>
      <trkpt lat="47.93002" lon="6.95666">
        <ele>555</ele>
        <time>2026-05-09T15:01:35.068Z</time>
      </trkpt>
      <trkpt lat="47.93" lon="6.95667">
        <ele>555</ele>
        <time>2026-05-09T15:01:36.068Z</time>
      </trkpt>
      <trkpt lat="47.92999" lon="6.95667">
        <ele>555</ele>
        <time>2026-05-09T15:01:37.068Z</time>
      </trkpt>
      <trkpt lat="47.92997" lon="6.95667">
        <ele>555</ele>
        <time>2026-05-09T15:01:38.067Z</time>
      </trkpt>
      <trkpt lat="47.92995" lon="6.95667">
        <ele>555</ele>
        <time>2026-05-09T15:01:39.068Z</time>
      </trkpt>
      <trkpt lat="47.92994" lon="6.95666">
        <ele>555</ele>
        <time>2026-05-09T15:01:40.068Z</time>
      </trkpt>
      <trkpt lat="47.92993" lon="6.95666">
        <ele>554</ele>
        <time>2026-05-09T15:01:41.068Z</time>
      </trkpt>
      <trkpt lat="47.92992" lon="6.95669">
        <ele>554</ele>
        <time>2026-05-09T15:01:42.068Z</time>
      </trkpt>
      <trkpt lat="47.92991" lon="6.95672">
        <ele>553</ele>
        <time>2026-05-09T15:01:43.067Z</time>
      </trkpt>
      <trkpt lat="47.9299" lon="6.95674">
        <ele>553</ele>
        <time>2026-05-09T15:01:44.067Z</time>
      </trkpt>
      <trkpt lat="47.9299" lon="6.95676">
        <ele>553</ele>
        <time>2026-05-09T15:01:45.068Z</time>
      </trkpt>
      <trkpt lat="47.92991" lon="6.95678">
        <ele>552</ele>
        <time>2026-05-09T15:01:46.068Z</time>
      </trkpt>
      <trkpt lat="47.92991" lon="6.95678">
        <ele>552</ele>
        <time>2026-05-09T15:01:47.067Z</time>
      </trkpt>
      <trkpt lat="47.9299" lon="6.95679">
        <ele>552</ele>
        <time>2026-05-09T15:01:48.068Z</time>
      </trkpt>
      <trkpt lat="47.92991" lon="6.9568">
        <ele>552</ele>
        <time>2026-05-09T15:01:49.067Z</time>
      </trkpt>
      <trkpt lat="47.9299" lon="6.95681">
        <ele>551</ele>
        <time>2026-05-09T15:01:50.067Z</time>
      </trkpt>
      <trkpt lat="47.92991" lon="6.95683">
        <ele>551</ele>
        <time>2026-05-09T15:01:51.067Z</time>
      </trkpt>
      <trkpt lat="47.92991" lon="6.95684">
        <ele>551</ele>
        <time>2026-05-09T15:01:52.068Z</time>
      </trkpt>
      <trkpt lat="47.92991" lon="6.95686">
        <ele>551</ele>
        <time>2026-05-09T15:01:53.068Z</time>
      </trkpt>
      <trkpt lat="47.92991" lon="6.95688">
        <ele>550</ele>
        <time>2026-05-09T15:01:54.068Z</time>
      </trkpt>
      <trkpt lat="47.92991" lon="6.9569">
        <ele>550</ele>
        <time>2026-05-09T15:01:55.068Z</time>
      </trkpt>
      <trkpt lat="47.9299" lon="6.95693">
        <ele>549</ele>
        <time>2026-05-09T15:01:56.068Z</time>
      </trkpt>
      <trkpt lat="47.9299" lon="6.95695">
        <ele>549</ele>
        <time>2026-05-09T15:01:57.068Z</time>
      </trkpt>
      <trkpt lat="47.9299" lon="6.95696">
        <ele>548</ele>
        <time>2026-05-09T15:01:58.068Z</time>
      </trkpt>
      <trkpt lat="47.92991" lon="6.95698">
        <ele>548</ele>
        <time>2026-05-09T15:01:59.068Z</time>
      </trkpt>
      <trkpt lat="47.92991" lon="6.957">
        <ele>547</ele>
        <time>2026-05-09T15:02:00.068Z</time>
      </trkpt>
      <trkpt lat="47.92991" lon="6.95703">
        <ele>547</ele>
        <time>2026-05-09T15:02:01.068Z</time>
      </trkpt>
      <trkpt lat="47.92991" lon="6.95706">
        <ele>547</ele>
        <time>2026-05-09T15:02:02.068Z</time>
      </trkpt>
      <trkpt lat="47.92991" lon="6.95708">
        <ele>546</ele>
        <time>2026-05-09T15:02:03.067Z</time>
      </trkpt>
      <trkpt lat="47.92991" lon="6.9571">
        <ele>545</ele>
        <time>2026-05-09T15:02:04.067Z</time>
      </trkpt>
      <trkpt lat="47.92991" lon="6.95712">
        <ele>545</ele>
        <time>2026-05-09T15:02:05.067Z</time>
      </trkpt>
      <trkpt lat="47.92991" lon="6.95715">
        <ele>545</ele>
        <time>2026-05-09T15:02:06.067Z</time>
      </trkpt>
      <trkpt lat="47.92992" lon="6.95718">
        <ele>544</ele>
        <time>2026-05-09T15:02:07.067Z</time>
      </trkpt>
      <trkpt lat="47.92991" lon="6.9572">
        <ele>543</ele>
        <time>2026-05-09T15:02:08.067Z</time>
      </trkpt>
      <trkpt lat="47.92991" lon="6.95721">
        <ele>543</ele>
        <time>2026-05-09T15:02:09.068Z</time>
      </trkpt>
      <trkpt lat="47.92992" lon="6.95723">
        <ele>542</ele>
        <time>2026-05-09T15:02:10.068Z</time>
      </trkpt>
      <trkpt lat="47.92991" lon="6.95725">
        <ele>541</ele>
        <time>2026-05-09T15:02:11.068Z</time>
      </trkpt>
      <trkpt lat="47.92992" lon="6.95727">
        <ele>540</ele>
        <time>2026-05-09T15:02:12.067Z</time>
      </trkpt>
      <trkpt lat="47.92991" lon="6.9573">
        <ele>540</ele>
        <time>2026-05-09T15:02:13.067Z</time>
      </trkpt>
      <trkpt lat="47.9299" lon="6.95732">
        <ele>539</ele>
        <time>2026-05-09T15:02:14.067Z</time>
      </trkpt>
      <trkpt lat="47.92989" lon="6.95734">
        <ele>539</ele>
        <time>2026-05-09T15:02:15.067Z</time>
      </trkpt>
      <trkpt lat="47.92989" lon="6.95736">
        <ele>539</ele>
        <time>2026-05-09T15:02:16.067Z</time>
      </trkpt>
      <trkpt lat="47.92988" lon="6.95737">
        <ele>538</ele>
        <time>2026-05-09T15:02:17.067Z</time>
      </trkpt>
      <trkpt lat="47.92987" lon="6.95738">
        <ele>538</ele>
        <time>2026-05-09T15:02:18.068Z</time>
      </trkpt>
      <trkpt lat="47.92987" lon="6.95739">
        <ele>537</ele>
        <time>2026-05-09T15:02:19.068Z</time>
      </trkpt>
      <trkpt lat="47.92986" lon="6.9574">
        <ele>536</ele>
        <time>2026-05-09T15:02:20.068Z</time>
      </trkpt>
      <trkpt lat="47.92986" lon="6.9574">
        <ele>535</ele>
        <time>2026-05-09T15:02:21.068Z</time>
      </trkpt>
      <trkpt lat="47.92985" lon="6.9574">
        <ele>535</ele>
        <time>2026-05-09T15:02:22.067Z</time>
      </trkpt>
      <trkpt lat="47.92983" lon="6.95739">
        <ele>534</ele>
        <time>2026-05-09T15:02:23.068Z</time>
      </trkpt>
      <trkpt lat="47.92983" lon="6.95739">
        <ele>534</ele>
        <time>2026-05-09T15:02:24.068Z</time>
      </trkpt>
      <trkpt lat="47.92983" lon="6.95739">
        <ele>534</ele>
        <time>2026-05-09T15:02:25.068Z</time>
      </trkpt>
      <trkpt lat="47.92979" lon="6.95735">
        <ele>528</ele>
        <time>2026-05-09T15:02:41.387Z</time>
      </trkpt>
      <trkpt lat="47.92978" lon="6.95736">
        <ele>528</ele>
        <time>2026-05-09T15:02:42.388Z</time>
      </trkpt>
      <trkpt lat="47.92977" lon="6.95737">
        <ele>528</ele>
        <time>2026-05-09T15:02:43.387Z</time>
      </trkpt>
      <trkpt lat="47.92977" lon="6.95737">
        <ele>527</ele>
        <time>2026-05-09T15:02:44.388Z</time>
      </trkpt>
      <trkpt lat="47.92976" lon="6.95738">
        <ele>527</ele>
        <time>2026-05-09T15:02:45.387Z</time>
      </trkpt>
      <trkpt lat="47.92976" lon="6.95739">
        <ele>527</ele>
        <time>2026-05-09T15:02:46.388Z</time>
      </trkpt>
      <trkpt lat="47.92975" lon="6.9574">
        <ele>527</ele>
        <time>2026-05-09T15:02:47.388Z</time>
      </trkpt>
      <trkpt lat="47.92975" lon="6.95741">
        <ele>527</ele>
        <time>2026-05-09T15:02:48.388Z</time>
      </trkpt>
      <trkpt lat="47.92975" lon="6.95742">
        <ele>527</ele>
        <time>2026-05-09T15:02:49.388Z</time>
      </trkpt>
      <trkpt lat="47.92974" lon="6.95743">
        <ele>527</ele>
        <time>2026-05-09T15:02:50.387Z</time>
      </trkpt>
      <trkpt lat="47.92974" lon="6.95743">
        <ele>527</ele>
        <time>2026-05-09T15:02:51.388Z</time>
      </trkpt>
      <trkpt lat="47.92973" lon="6.95744">
        <ele>526</ele>
        <time>2026-05-09T15:02:52.387Z</time>
      </trkpt>
      <trkpt lat="47.92973" lon="6.95746">
        <ele>526</ele>
        <time>2026-05-09T15:02:53.388Z</time>
      </trkpt>
      <trkpt lat="47.92973" lon="6.95747">
        <ele>525</ele>
        <time>2026-05-09T15:02:54.387Z</time>
      </trkpt>
      <trkpt lat="47.92972" lon="6.95749">
        <ele>525</ele>
        <time>2026-05-09T15:02:55.388Z</time>
      </trkpt>
      <trkpt lat="47.92971" lon="6.95751">
        <ele>525</ele>
        <time>2026-05-09T15:02:56.388Z</time>
      </trkpt>
      <trkpt lat="47.92971" lon="6.95753">
        <ele>525</ele>
        <time>2026-05-09T15:02:57.387Z</time>
      </trkpt>
      <trkpt lat="47.92971" lon="6.95754">
        <ele>525</ele>
        <time>2026-05-09T15:02:58.387Z</time>
      </trkpt>
      <trkpt lat="47.92971" lon="6.95755">
        <ele>525</ele>
        <time>2026-05-09T15:02:59.387Z</time>
      </trkpt>
      <trkpt lat="47.92972" lon="6.95757">
        <ele>525</ele>
        <time>2026-05-09T15:03:00.388Z</time>
      </trkpt>
      <trkpt lat="47.92972" lon="6.95759">
        <ele>525</ele>
        <time>2026-05-09T15:03:01.388Z</time>
      </trkpt>
      <trkpt lat="47.92972" lon="6.9576">
        <ele>525</ele>
        <time>2026-05-09T15:03:02.388Z</time>
      </trkpt>
      <trkpt lat="47.92973" lon="6.95762">
        <ele>526</ele>
        <time>2026-05-09T15:03:03.388Z</time>
      </trkpt>
      <trkpt lat="47.92973" lon="6.95764">
        <ele>526</ele>
        <time>2026-05-09T15:03:04.387Z</time>
      </trkpt>
      <trkpt lat="47.92973" lon="6.95767">
        <ele>526</ele>
        <time>2026-05-09T15:03:05.388Z</time>
      </trkpt>
      <trkpt lat="47.92973" lon="6.95768">
        <ele>525</ele>
        <time>2026-05-09T15:03:06.388Z</time>
      </trkpt>
      <trkpt lat="47.92972" lon="6.9577">
        <ele>525</ele>
        <time>2026-05-09T15:03:07.387Z</time>
      </trkpt>
      <trkpt lat="47.92971" lon="6.95772">
        <ele>525</ele>
        <time>2026-05-09T15:03:08.388Z</time>
      </trkpt>
      <trkpt lat="47.92971" lon="6.95775">
        <ele>525</ele>
        <time>2026-05-09T15:03:09.387Z</time>
      </trkpt>
      <trkpt lat="47.9297" lon="6.95777">
        <ele>525</ele>
        <time>2026-05-09T15:03:10.388Z</time>
      </trkpt>
      <trkpt lat="47.9297" lon="6.95778">
        <ele>525</ele>
        <time>2026-05-09T15:03:11.388Z</time>
      </trkpt>
      <trkpt lat="47.92969" lon="6.95778">
        <ele>524</ele>
        <time>2026-05-09T15:03:12.388Z</time>
      </trkpt>
      <trkpt lat="47.92967" lon="6.95779">
        <ele>523</ele>
        <time>2026-05-09T15:03:13.387Z</time>
      </trkpt>
      <trkpt lat="47.92966" lon="6.95779">
        <ele>523</ele>
        <time>2026-05-09T15:03:14.387Z</time>
      </trkpt>
      <trkpt lat="47.92965" lon="6.95781">
        <ele>522</ele>
        <time>2026-05-09T15:03:15.388Z</time>
      </trkpt>
      <trkpt lat="47.92965" lon="6.95782">
        <ele>522</ele>
        <time>2026-05-09T15:03:16.387Z</time>
      </trkpt>
      <trkpt lat="47.92964" lon="6.95784">
        <ele>522</ele>
        <time>2026-05-09T15:03:17.388Z</time>
      </trkpt>
      <trkpt lat="47.92963" lon="6.95785">
        <ele>521</ele>
        <time>2026-05-09T15:03:18.387Z</time>
      </trkpt>
      <trkpt lat="47.92963" lon="6.95787">
        <ele>521</ele>
        <time>2026-05-09T15:03:19.388Z</time>
      </trkpt>
      <trkpt lat="47.92962" lon="6.95788">
        <ele>521</ele>
        <time>2026-05-09T15:03:20.387Z</time>
      </trkpt>
      <trkpt lat="47.92961" lon="6.9579">
        <ele>521</ele>
        <time>2026-05-09T15:03:21.388Z</time>
      </trkpt>
      <trkpt lat="47.9296" lon="6.95791">
        <ele>521</ele>
        <time>2026-05-09T15:03:22.387Z</time>
      </trkpt>
      <trkpt lat="47.92959" lon="6.95791">
        <ele>520</ele>
        <time>2026-05-09T15:03:23.388Z</time>
      </trkpt>
      <trkpt lat="47.92957" lon="6.95792">
        <ele>520</ele>
        <time>2026-05-09T15:03:24.387Z</time>
      </trkpt>
      <trkpt lat="47.92956" lon="6.95793">
        <ele>520</ele>
        <time>2026-05-09T15:03:25.388Z</time>
      </trkpt>
      <trkpt lat="47.92956" lon="6.95794">
        <ele>519</ele>
        <time>2026-05-09T15:03:26.387Z</time>
      </trkpt>
      <trkpt lat="47.92955" lon="6.95795">
        <ele>519</ele>
        <time>2026-05-09T15:03:27.388Z</time>
      </trkpt>
      <trkpt lat="47.92955" lon="6.95795">
        <ele>518</ele>
        <time>2026-05-09T15:03:28.387Z</time>
      </trkpt>
      <trkpt lat="47.92954" lon="6.95795">
        <ele>518</ele>
        <time>2026-05-09T15:03:29.387Z</time>
      </trkpt>
      <trkpt lat="47.92953" lon="6.95796">
        <ele>518</ele>
        <time>2026-05-09T15:03:30.387Z</time>
      </trkpt>
      <trkpt lat="47.92953" lon="6.95797">
        <ele>518</ele>
        <time>2026-05-09T15:03:31.387Z</time>
      </trkpt>
      <trkpt lat="47.92952" lon="6.95797">
        <ele>517</ele>
        <time>2026-05-09T15:03:32.388Z</time>
      </trkpt>
      <trkpt lat="47.92951" lon="6.95798">
        <ele>517</ele>
        <time>2026-05-09T15:03:33.387Z</time>
      </trkpt>
      <trkpt lat="47.9295" lon="6.95798">
        <ele>517</ele>
        <time>2026-05-09T15:03:34.388Z</time>
      </trkpt>
      <trkpt lat="47.92949" lon="6.95799">
        <ele>517</ele>
        <time>2026-05-09T15:03:35.388Z</time>
      </trkpt>
      <trkpt lat="47.92948" lon="6.958">
        <ele>516</ele>
        <time>2026-05-09T15:03:36.388Z</time>
      </trkpt>
      <trkpt lat="47.92946" lon="6.958">
        <ele>516</ele>
        <time>2026-05-09T15:03:37.387Z</time>
      </trkpt>
      <trkpt lat="47.92945" lon="6.958">
        <ele>516</ele>
        <time>2026-05-09T15:03:38.388Z</time>
      </trkpt>
      <trkpt lat="47.92944" lon="6.95801">
        <ele>516</ele>
        <time>2026-05-09T15:03:39.388Z</time>
      </trkpt>
      <trkpt lat="47.92943" lon="6.95802">
        <ele>515</ele>
        <time>2026-05-09T15:03:40.387Z</time>
      </trkpt>
      <trkpt lat="47.92941" lon="6.95803">
        <ele>515</ele>
        <time>2026-05-09T15:03:41.388Z</time>
      </trkpt>
      <trkpt lat="47.9294" lon="6.95804">
        <ele>515</ele>
        <time>2026-05-09T15:03:42.387Z</time>
      </trkpt>
      <trkpt lat="47.92939" lon="6.95805">
        <ele>515</ele>
        <time>2026-05-09T15:03:43.388Z</time>
      </trkpt>
      <trkpt lat="47.92938" lon="6.95806">
        <ele>515</ele>
        <time>2026-05-09T15:03:44.387Z</time>
      </trkpt>
      <trkpt lat="47.92937" lon="6.95808">
        <ele>514</ele>
        <time>2026-05-09T15:03:45.388Z</time>
      </trkpt>
      <trkpt lat="47.92936" lon="6.9581">
        <ele>514</ele>
        <time>2026-05-09T15:03:46.388Z</time>
      </trkpt>
      <trkpt lat="47.92935" lon="6.95811">
        <ele>515</ele>
        <time>2026-05-09T15:03:47.387Z</time>
      </trkpt>
      <trkpt lat="47.92934" lon="6.95813">
        <ele>515</ele>
        <time>2026-05-09T15:03:48.387Z</time>
      </trkpt>
      <trkpt lat="47.92933" lon="6.95815">
        <ele>515</ele>
        <time>2026-05-09T15:03:49.387Z</time>
      </trkpt>
      <trkpt lat="47.92932" lon="6.95817">
        <ele>516</ele>
        <time>2026-05-09T15:03:50.388Z</time>
      </trkpt>
      <trkpt lat="47.92931" lon="6.95819">
        <ele>516</ele>
        <time>2026-05-09T15:03:51.387Z</time>
      </trkpt>
      <trkpt lat="47.92931" lon="6.95819">
        <ele>516</ele>
        <time>2026-05-09T15:03:52.388Z</time>
      </trkpt>
      <trkpt lat="47.9293" lon="6.9582">
        <ele>516</ele>
        <time>2026-05-09T15:03:53.388Z</time>
      </trkpt>
      <trkpt lat="47.92929" lon="6.95821">
        <ele>516</ele>
        <time>2026-05-09T15:03:54.387Z</time>
      </trkpt>
      <trkpt lat="47.92926" lon="6.95823">
        <ele>516</ele>
        <time>2026-05-09T15:03:55.388Z</time>
      </trkpt>
      <trkpt lat="47.92924" lon="6.95824">
        <ele>516</ele>
        <time>2026-05-09T15:03:56.387Z</time>
      </trkpt>
      <trkpt lat="47.92923" lon="6.95823">
        <ele>515</ele>
        <time>2026-05-09T15:03:57.387Z</time>
      </trkpt>
      <trkpt lat="47.92921" lon="6.95823">
        <ele>515</ele>
        <time>2026-05-09T15:03:58.388Z</time>
      </trkpt>
      <trkpt lat="47.92921" lon="6.95823">
        <ele>514</ele>
        <time>2026-05-09T15:03:59.387Z</time>
      </trkpt>
      <trkpt lat="47.9292" lon="6.95823">
        <ele>514</ele>
        <time>2026-05-09T15:04:00.388Z</time>
      </trkpt>
      <trkpt lat="47.92919" lon="6.95825">
        <ele>514</ele>
        <time>2026-05-09T15:04:01.387Z</time>
      </trkpt>
      <trkpt lat="47.92918" lon="6.95827">
        <ele>514</ele>
        <time>2026-05-09T15:04:02.388Z</time>
      </trkpt>
      <trkpt lat="47.92917" lon="6.95828">
        <ele>515</ele>
        <time>2026-05-09T15:04:03.388Z</time>
      </trkpt>
      <trkpt lat="47.92916" lon="6.9583">
        <ele>515</ele>
        <time>2026-05-09T15:04:04.388Z</time>
      </trkpt>
      <trkpt lat="47.92915" lon="6.95831">
        <ele>515</ele>
        <time>2026-05-09T15:04:05.388Z</time>
      </trkpt>
      <trkpt lat="47.92914" lon="6.95832">
        <ele>514</ele>
        <time>2026-05-09T15:04:06.387Z</time>
      </trkpt>
      <trkpt lat="47.92913" lon="6.95833">
        <ele>514</ele>
        <time>2026-05-09T15:04:07.388Z</time>
      </trkpt>
      <trkpt lat="47.92912" lon="6.95834">
        <ele>514</ele>
        <time>2026-05-09T15:04:08.387Z</time>
      </trkpt>
      <trkpt lat="47.92911" lon="6.95835">
        <ele>513</ele>
        <time>2026-05-09T15:04:09.388Z</time>
      </trkpt>
      <trkpt lat="47.9291" lon="6.95836">
        <ele>513</ele>
        <time>2026-05-09T15:04:10.388Z</time>
      </trkpt>
      <trkpt lat="47.92909" lon="6.95836">
        <ele>512</ele>
        <time>2026-05-09T15:04:11.387Z</time>
      </trkpt>
      <trkpt lat="47.92908" lon="6.95837">
        <ele>512</ele>
        <time>2026-05-09T15:04:12.388Z</time>
      </trkpt>
      <trkpt lat="47.92906" lon="6.95838">
        <ele>511</ele>
        <time>2026-05-09T15:04:13.387Z</time>
      </trkpt>
      <trkpt lat="47.92905" lon="6.95839">
        <ele>510</ele>
        <time>2026-05-09T15:04:14.388Z</time>
      </trkpt>
      <trkpt lat="47.92904" lon="6.9584">
        <ele>510</ele>
        <time>2026-05-09T15:04:15.388Z</time>
      </trkpt>
      <trkpt lat="47.92903" lon="6.95841">
        <ele>509</ele>
        <time>2026-05-09T15:04:16.388Z</time>
      </trkpt>
      <trkpt lat="47.92902" lon="6.95842">
        <ele>509</ele>
        <time>2026-05-09T15:04:17.387Z</time>
      </trkpt>
      <trkpt lat="47.929" lon="6.95843">
        <ele>509</ele>
        <time>2026-05-09T15:04:18.388Z</time>
      </trkpt>
      <trkpt lat="47.92899" lon="6.95843">
        <ele>509</ele>
        <time>2026-05-09T15:04:19.387Z</time>
      </trkpt>
      <trkpt lat="47.92897" lon="6.95844">
        <ele>509</ele>
        <time>2026-05-09T15:04:20.387Z</time>
      </trkpt>
      <trkpt lat="47.92896" lon="6.95844">
        <ele>509</ele>
        <time>2026-05-09T15:04:21.388Z</time>
      </trkpt>
      <trkpt lat="47.92895" lon="6.95845">
        <ele>509</ele>
        <time>2026-05-09T15:04:22.387Z</time>
      </trkpt>
      <trkpt lat="47.92894" lon="6.95845">
        <ele>508</ele>
        <time>2026-05-09T15:04:23.387Z</time>
      </trkpt>
      <trkpt lat="47.92893" lon="6.95846">
        <ele>508</ele>
        <time>2026-05-09T15:04:24.387Z</time>
      </trkpt>
      <trkpt lat="47.92891" lon="6.95847">
        <ele>508</ele>
        <time>2026-05-09T15:04:25.388Z</time>
      </trkpt>
      <trkpt lat="47.92891" lon="6.95848">
        <ele>508</ele>
        <time>2026-05-09T15:04:26.388Z</time>
      </trkpt>
      <trkpt lat="47.9289" lon="6.95849">
        <ele>508</ele>
        <time>2026-05-09T15:04:27.387Z</time>
      </trkpt>
      <trkpt lat="47.92889" lon="6.9585">
        <ele>508</ele>
        <time>2026-05-09T15:04:28.388Z</time>
      </trkpt>
      <trkpt lat="47.92888" lon="6.95851">
        <ele>508</ele>
        <time>2026-05-09T15:04:29.387Z</time>
      </trkpt>
      <trkpt lat="47.92887" lon="6.95852">
        <ele>507</ele>
        <time>2026-05-09T15:04:30.388Z</time>
      </trkpt>
      <trkpt lat="47.92886" lon="6.95852">
        <ele>507</ele>
        <time>2026-05-09T15:04:31.388Z</time>
      </trkpt>
      <trkpt lat="47.92885" lon="6.95854">
        <ele>507</ele>
        <time>2026-05-09T15:04:32.387Z</time>
      </trkpt>
      <trkpt lat="47.92885" lon="6.95855">
        <ele>507</ele>
        <time>2026-05-09T15:04:33.387Z</time>
      </trkpt>
      <trkpt lat="47.92884" lon="6.95856">
        <ele>507</ele>
        <time>2026-05-09T15:04:34.387Z</time>
      </trkpt>
      <trkpt lat="47.92883" lon="6.95858">
        <ele>507</ele>
        <time>2026-05-09T15:04:35.388Z</time>
      </trkpt>
      <trkpt lat="47.92882" lon="6.95859">
        <ele>507</ele>
        <time>2026-05-09T15:04:36.387Z</time>
      </trkpt>
      <trkpt lat="47.92881" lon="6.95861">
        <ele>507</ele>
        <time>2026-05-09T15:04:37.388Z</time>
      </trkpt>
      <trkpt lat="47.92881" lon="6.95862">
        <ele>506</ele>
        <time>2026-05-09T15:04:38.388Z</time>
      </trkpt>
      <trkpt lat="47.9288" lon="6.95864">
        <ele>506</ele>
        <time>2026-05-09T15:04:39.387Z</time>
      </trkpt>
      <trkpt lat="47.92879" lon="6.95865">
        <ele>506</ele>
        <time>2026-05-09T15:04:40.388Z</time>
      </trkpt>
      <trkpt lat="47.92879" lon="6.95866">
        <ele>506</ele>
        <time>2026-05-09T15:04:41.387Z</time>
      </trkpt>
      <trkpt lat="47.92878" lon="6.95868">
        <ele>506</ele>
        <time>2026-05-09T15:04:42.388Z</time>
      </trkpt>
      <trkpt lat="47.92877" lon="6.9587">
        <ele>506</ele>
        <time>2026-05-09T15:04:43.387Z</time>
      </trkpt>
      <trkpt lat="47.92877" lon="6.95871">
        <ele>506</ele>
        <time>2026-05-09T15:04:44.388Z</time>
      </trkpt>
      <trkpt lat="47.92876" lon="6.95871">
        <ele>505</ele>
        <time>2026-05-09T15:04:45.387Z</time>
      </trkpt>
      <trkpt lat="47.92876" lon="6.95872">
        <ele>505</ele>
        <time>2026-05-09T15:04:46.388Z</time>
      </trkpt>
      <trkpt lat="47.92875" lon="6.95873">
        <ele>505</ele>
        <time>2026-05-09T15:04:47.388Z</time>
      </trkpt>
      <trkpt lat="47.92875" lon="6.95873">
        <ele>504</ele>
        <time>2026-05-09T15:04:48.387Z</time>
      </trkpt>
      <trkpt lat="47.92874" lon="6.95874">
        <ele>504</ele>
        <time>2026-05-09T15:04:49.388Z</time>
      </trkpt>
      <trkpt lat="47.92874" lon="6.95874">
        <ele>504</ele>
        <time>2026-05-09T15:04:50.387Z</time>
      </trkpt>
      <trkpt lat="47.92873" lon="6.95874">
        <ele>504</ele>
        <time>2026-05-09T15:04:51.388Z</time>
      </trkpt>
      <trkpt lat="47.92873" lon="6.95874">
        <ele>504</ele>
        <time>2026-05-09T15:04:52.387Z</time>
      </trkpt>
      <trkpt lat="47.92848" lon="6.95904">
        <ele>501</ele>
        <time>2026-05-09T15:05:37.692Z</time>
      </trkpt>
      <trkpt lat="47.92847" lon="6.95905">
        <ele>500</ele>
        <time>2026-05-09T15:05:38.692Z</time>
      </trkpt>
      <trkpt lat="47.92845" lon="6.95905">
        <ele>500</ele>
        <time>2026-05-09T15:05:39.692Z</time>
      </trkpt>
      <trkpt lat="47.92844" lon="6.95906">
        <ele>500</ele>
        <time>2026-05-09T15:05:40.692Z</time>
      </trkpt>
      <trkpt lat="47.92842" lon="6.95907">
        <ele>500</ele>
        <time>2026-05-09T15:05:41.692Z</time>
      </trkpt>
      <trkpt lat="47.92842" lon="6.95908">
        <ele>500</ele>
        <time>2026-05-09T15:05:42.692Z</time>
      </trkpt>
      <trkpt lat="47.9284" lon="6.95909">
        <ele>500</ele>
        <time>2026-05-09T15:05:43.692Z</time>
      </trkpt>
      <trkpt lat="47.92839" lon="6.95909">
        <ele>500</ele>
        <time>2026-05-09T15:05:44.692Z</time>
      </trkpt>
      <trkpt lat="47.92839" lon="6.95909">
        <ele>500</ele>
        <time>2026-05-09T15:05:45.692Z</time>
      </trkpt>
      <trkpt lat="47.92838" lon="6.95909">
        <ele>500</ele>
        <time>2026-05-09T15:05:46.692Z</time>
      </trkpt>
      <trkpt lat="47.92835" lon="6.9591">
        <ele>499</ele>
        <time>2026-05-09T15:05:47.692Z</time>
      </trkpt>
      <trkpt lat="47.92834" lon="6.95911">
        <ele>499</ele>
        <time>2026-05-09T15:05:48.692Z</time>
      </trkpt>
      <trkpt lat="47.92834" lon="6.95911">
        <ele>499</ele>
        <time>2026-05-09T15:05:49.692Z</time>
      </trkpt>
      <trkpt lat="47.92833" lon="6.95911">
        <ele>498</ele>
        <time>2026-05-09T15:05:50.692Z</time>
      </trkpt>
      <trkpt lat="47.9283" lon="6.95913">
        <ele>497</ele>
        <time>2026-05-09T15:05:51.692Z</time>
      </trkpt>
      <trkpt lat="47.92829" lon="6.95914">
        <ele>497</ele>
        <time>2026-05-09T15:05:52.693Z</time>
      </trkpt>
      <trkpt lat="47.92828" lon="6.95915">
        <ele>497</ele>
        <time>2026-05-09T15:05:53.692Z</time>
      </trkpt>
      <trkpt lat="47.92828" lon="6.95915">
        <ele>497</ele>
        <time>2026-05-09T15:05:54.692Z</time>
      </trkpt>
      <trkpt lat="47.92825" lon="6.95917">
        <ele>496</ele>
        <time>2026-05-09T15:05:55.692Z</time>
      </trkpt>
      <trkpt lat="47.92824" lon="6.95919">
        <ele>496</ele>
        <time>2026-05-09T15:05:56.692Z</time>
      </trkpt>
      <trkpt lat="47.92823" lon="6.9592">
        <ele>496</ele>
        <time>2026-05-09T15:05:57.692Z</time>
      </trkpt>
      <trkpt lat="47.92823" lon="6.9592">
        <ele>496</ele>
        <time>2026-05-09T15:05:58.692Z</time>
      </trkpt>
      <trkpt lat="47.92822" lon="6.95922">
        <ele>496</ele>
        <time>2026-05-09T15:05:59.693Z</time>
      </trkpt>
      <trkpt lat="47.92821" lon="6.95922">
        <ele>496</ele>
        <time>2026-05-09T15:06:00.692Z</time>
      </trkpt>
      <trkpt lat="47.92821" lon="6.95922">
        <ele>496</ele>
        <time>2026-05-09T15:06:01.692Z</time>
      </trkpt>
      <trkpt lat="47.9282" lon="6.95924">
        <ele>495</ele>
        <time>2026-05-09T15:06:02.693Z</time>
      </trkpt>
      <trkpt lat="47.92819" lon="6.95925">
        <ele>495</ele>
        <time>2026-05-09T15:06:03.693Z</time>
      </trkpt>
      <trkpt lat="47.92819" lon="6.95926">
        <ele>495</ele>
        <time>2026-05-09T15:06:04.693Z</time>
      </trkpt>
      <trkpt lat="47.92819" lon="6.95928">
        <ele>495</ele>
        <time>2026-05-09T15:06:05.692Z</time>
      </trkpt>
      <trkpt lat="47.92819" lon="6.95928">
        <ele>495</ele>
        <time>2026-05-09T15:06:06.692Z</time>
      </trkpt>
      <trkpt lat="47.92817" lon="6.9593">
        <ele>495</ele>
        <time>2026-05-09T15:06:07.692Z</time>
      </trkpt>
      <trkpt lat="47.92817" lon="6.95931">
        <ele>496</ele>
        <time>2026-05-09T15:06:08.692Z</time>
      </trkpt>
      <trkpt lat="47.92817" lon="6.95932">
        <ele>496</ele>
        <time>2026-05-09T15:06:09.692Z</time>
      </trkpt>
      <trkpt lat="47.92817" lon="6.95932">
        <ele>496</ele>
        <time>2026-05-09T15:06:10.692Z</time>
      </trkpt>
      <trkpt lat="47.92817" lon="6.95933">
        <ele>496</ele>
        <time>2026-05-09T15:06:11.692Z</time>
      </trkpt>
      <trkpt lat="47.92816" lon="6.95934">
        <ele>496</ele>
        <time>2026-05-09T15:06:12.692Z</time>
      </trkpt>
      <trkpt lat="47.92816" lon="6.95935">
        <ele>495</ele>
        <time>2026-05-09T15:06:13.692Z</time>
      </trkpt>
      <trkpt lat="47.92815" lon="6.95937">
        <ele>495</ele>
        <time>2026-05-09T15:06:14.692Z</time>
      </trkpt>
      <trkpt lat="47.92815" lon="6.95938">
        <ele>494</ele>
        <time>2026-05-09T15:06:15.692Z</time>
      </trkpt>
      <trkpt lat="47.92814" lon="6.9594">
        <ele>494</ele>
        <time>2026-05-09T15:06:16.692Z</time>
      </trkpt>
      <trkpt lat="47.92813" lon="6.95942">
        <ele>493</ele>
        <time>2026-05-09T15:06:17.692Z</time>
      </trkpt>
      <trkpt lat="47.92813" lon="6.95944">
        <ele>492</ele>
        <time>2026-05-09T15:06:18.692Z</time>
      </trkpt>
      <trkpt lat="47.92813" lon="6.95944">
        <ele>492</ele>
        <time>2026-05-09T15:06:19.692Z</time>
      </trkpt>
      <trkpt lat="47.92812" lon="6.95951">
        <ele>491</ele>
        <time>2026-05-09T15:06:20.692Z</time>
      </trkpt>
      <trkpt lat="47.92812" lon="6.95953">
        <ele>491</ele>
        <time>2026-05-09T15:06:21.693Z</time>
      </trkpt>
      <trkpt lat="47.92811" lon="6.95956">
        <ele>490</ele>
        <time>2026-05-09T15:06:22.692Z</time>
      </trkpt>
      <trkpt lat="47.9281" lon="6.95959">
        <ele>490</ele>
        <time>2026-05-09T15:06:23.692Z</time>
      </trkpt>
      <trkpt lat="47.92809" lon="6.95961">
        <ele>490</ele>
        <time>2026-05-09T15:06:24.693Z</time>
      </trkpt>
      <trkpt lat="47.92808" lon="6.95964">
        <ele>489</ele>
        <time>2026-05-09T15:06:25.692Z</time>
      </trkpt>
      <trkpt lat="47.92808" lon="6.95964">
        <ele>489</ele>
        <time>2026-05-09T15:06:26.692Z</time>
      </trkpt>
      <trkpt lat="47.92807" lon="6.95968">
        <ele>489</ele>
        <time>2026-05-09T15:06:27.693Z</time>
      </trkpt>
      <trkpt lat="47.92806" lon="6.9597">
        <ele>489</ele>
        <time>2026-05-09T15:06:28.693Z</time>
      </trkpt>
      <trkpt lat="47.92805" lon="6.9597">
        <ele>490</ele>
        <time>2026-05-09T15:06:29.692Z</time>
      </trkpt>
      <trkpt lat="47.92804" lon="6.95971">
        <ele>490</ele>
        <time>2026-05-09T15:06:30.693Z</time>
      </trkpt>
      <trkpt lat="47.92804" lon="6.95971">
        <ele>490</ele>
        <time>2026-05-09T15:06:31.693Z</time>
      </trkpt>
      <trkpt lat="47.92801" lon="6.95972">
        <ele>491</ele>
        <time>2026-05-09T15:06:32.692Z</time>
      </trkpt>
      <trkpt lat="47.928" lon="6.95972">
        <ele>492</ele>
        <time>2026-05-09T15:06:33.692Z</time>
      </trkpt>
      <trkpt lat="47.928" lon="6.95973">
        <ele>492</ele>
        <time>2026-05-09T15:06:34.693Z</time>
      </trkpt>
      <trkpt lat="47.92799" lon="6.95974">
        <ele>493</ele>
        <time>2026-05-09T15:06:35.692Z</time>
      </trkpt>
      <trkpt lat="47.92797" lon="6.95976">
        <ele>494</ele>
        <time>2026-05-09T15:06:36.693Z</time>
      </trkpt>
      <trkpt lat="47.92796" lon="6.95978">
        <ele>494</ele>
        <time>2026-05-09T15:06:37.692Z</time>
      </trkpt>
      <trkpt lat="47.92796" lon="6.9598">
        <ele>495</ele>
        <time>2026-05-09T15:06:38.692Z</time>
      </trkpt>
      <trkpt lat="47.92795" lon="6.95983">
        <ele>496</ele>
        <time>2026-05-09T15:06:39.692Z</time>
      </trkpt>
      <trkpt lat="47.92794" lon="6.95984">
        <ele>496</ele>
        <time>2026-05-09T15:06:40.692Z</time>
      </trkpt>
      <trkpt lat="47.92793" lon="6.95985">
        <ele>497</ele>
        <time>2026-05-09T15:06:41.693Z</time>
      </trkpt>
      <trkpt lat="47.92792" lon="6.95986">
        <ele>497</ele>
        <time>2026-05-09T15:06:42.692Z</time>
      </trkpt>
      <trkpt lat="47.92792" lon="6.95987">
        <ele>497</ele>
        <time>2026-05-09T15:06:43.693Z</time>
      </trkpt>
      <trkpt lat="47.92791" lon="6.95988">
        <ele>497</ele>
        <time>2026-05-09T15:06:44.692Z</time>
      </trkpt>
      <trkpt lat="47.9279" lon="6.95988">
        <ele>497</ele>
        <time>2026-05-09T15:06:45.692Z</time>
      </trkpt>
      <trkpt lat="47.92789" lon="6.95989">
        <ele>497</ele>
        <time>2026-05-09T15:06:46.692Z</time>
      </trkpt>
      <trkpt lat="47.92788" lon="6.9599">
        <ele>497</ele>
        <time>2026-05-09T15:06:47.692Z</time>
      </trkpt>
      <trkpt lat="47.92787" lon="6.95991">
        <ele>497</ele>
        <time>2026-05-09T15:06:48.693Z</time>
      </trkpt>
      <trkpt lat="47.92786" lon="6.95993">
        <ele>497</ele>
        <time>2026-05-09T15:06:49.693Z</time>
      </trkpt>
      <trkpt lat="47.92785" lon="6.95994">
        <ele>497</ele>
        <time>2026-05-09T15:06:50.692Z</time>
      </trkpt>
      <trkpt lat="47.92783" lon="6.95996">
        <ele>497</ele>
        <time>2026-05-09T15:06:51.692Z</time>
      </trkpt>
      <trkpt lat="47.92783" lon="6.95996">
        <ele>497</ele>
        <time>2026-05-09T15:06:52.692Z</time>
      </trkpt>
      <trkpt lat="47.92782" lon="6.95999">
        <ele>497</ele>
        <time>2026-05-09T15:06:53.692Z</time>
      </trkpt>
      <trkpt lat="47.92781" lon="6.96001">
        <ele>497</ele>
        <time>2026-05-09T15:06:54.692Z</time>
      </trkpt>
      <trkpt lat="47.9278" lon="6.96002">
        <ele>496</ele>
        <time>2026-05-09T15:06:55.692Z</time>
      </trkpt>
      <trkpt lat="47.92779" lon="6.96003">
        <ele>496</ele>
        <time>2026-05-09T15:06:56.692Z</time>
      </trkpt>
      <trkpt lat="47.92778" lon="6.96004">
        <ele>496</ele>
        <time>2026-05-09T15:06:57.692Z</time>
      </trkpt>
      <trkpt lat="47.92777" lon="6.96005">
        <ele>496</ele>
        <time>2026-05-09T15:06:58.692Z</time>
      </trkpt>
      <trkpt lat="47.92776" lon="6.96006">
        <ele>497</ele>
        <time>2026-05-09T15:06:59.692Z</time>
      </trkpt>
      <trkpt lat="47.92775" lon="6.96007">
        <ele>496</ele>
        <time>2026-05-09T15:07:00.692Z</time>
      </trkpt>
      <trkpt lat="47.92775" lon="6.96008">
        <ele>496</ele>
        <time>2026-05-09T15:07:01.692Z</time>
      </trkpt>
      <trkpt lat="47.92774" lon="6.96009">
        <ele>495</ele>
        <time>2026-05-09T15:07:02.693Z</time>
      </trkpt>
      <trkpt lat="47.92773" lon="6.96011">
        <ele>495</ele>
        <time>2026-05-09T15:07:03.692Z</time>
      </trkpt>
      <trkpt lat="47.92773" lon="6.96012">
        <ele>494</ele>
        <time>2026-05-09T15:07:04.693Z</time>
      </trkpt>
      <trkpt lat="47.92772" lon="6.96013">
        <ele>494</ele>
        <time>2026-05-09T15:07:05.692Z</time>
      </trkpt>
      <trkpt lat="47.92771" lon="6.96014">
        <ele>493</ele>
        <time>2026-05-09T15:07:06.693Z</time>
      </trkpt>
      <trkpt lat="47.9277" lon="6.96015">
        <ele>493</ele>
        <time>2026-05-09T15:07:07.692Z</time>
      </trkpt>
      <trkpt lat="47.92769" lon="6.96016">
        <ele>493</ele>
        <time>2026-05-09T15:07:08.693Z</time>
      </trkpt>
      <trkpt lat="47.92768" lon="6.96017">
        <ele>492</ele>
        <time>2026-05-09T15:07:09.693Z</time>
      </trkpt>
      <trkpt lat="47.92767" lon="6.96018">
        <ele>492</ele>
        <time>2026-05-09T15:07:10.692Z</time>
      </trkpt>
      <trkpt lat="47.92766" lon="6.96019">
        <ele>492</ele>
        <time>2026-05-09T15:07:11.693Z</time>
      </trkpt>
      <trkpt lat="47.92764" lon="6.9602">
        <ele>492</ele>
        <time>2026-05-09T15:07:12.693Z</time>
      </trkpt>
      <trkpt lat="47.92763" lon="6.96022">
        <ele>491</ele>
        <time>2026-05-09T15:07:13.692Z</time>
      </trkpt>
      <trkpt lat="47.92762" lon="6.96022">
        <ele>491</ele>
        <time>2026-05-09T15:07:14.692Z</time>
      </trkpt>
      <trkpt lat="47.92761" lon="6.96023">
        <ele>491</ele>
        <time>2026-05-09T15:07:15.692Z</time>
      </trkpt>
      <trkpt lat="47.92759" lon="6.96024">
        <ele>491</ele>
        <time>2026-05-09T15:07:16.692Z</time>
      </trkpt>
      <trkpt lat="47.92759" lon="6.96024">
        <ele>491</ele>
        <time>2026-05-09T15:07:17.692Z</time>
      </trkpt>
      <trkpt lat="47.92757" lon="6.96027">
        <ele>491</ele>
        <time>2026-05-09T15:07:18.692Z</time>
      </trkpt>
      <trkpt lat="47.92756" lon="6.96028">
        <ele>491</ele>
        <time>2026-05-09T15:07:19.692Z</time>
      </trkpt>
      <trkpt lat="47.92755" lon="6.96029">
        <ele>492</ele>
        <time>2026-05-09T15:07:20.692Z</time>
      </trkpt>
      <trkpt lat="47.92754" lon="6.9603">
        <ele>492</ele>
        <time>2026-05-09T15:07:21.692Z</time>
      </trkpt>
      <trkpt lat="47.92754" lon="6.9603">
        <ele>492</ele>
        <time>2026-05-09T15:07:22.692Z</time>
      </trkpt>
      <trkpt lat="47.92753" lon="6.96031">
        <ele>492</ele>
        <time>2026-05-09T15:07:23.692Z</time>
      </trkpt>
      <trkpt lat="47.92753" lon="6.96031">
        <ele>492</ele>
        <time>2026-05-09T15:07:24.692Z</time>
      </trkpt>
      <trkpt lat="47.92753" lon="6.96031">
        <ele>492</ele>
        <time>2026-05-09T15:07:25.692Z</time>
      </trkpt>
      <trkpt lat="47.92755" lon="6.96033">
        <ele>496</ele>
        <time>2026-05-09T15:08:00.108Z</time>
      </trkpt>
      <trkpt lat="47.92755" lon="6.96033">
        <ele>496</ele>
        <time>2026-05-09T15:08:01.108Z</time>
      </trkpt>
      <trkpt lat="47.92755" lon="6.96033">
        <ele>496</ele>
        <time>2026-05-09T15:08:02.108Z</time>
      </trkpt>
      <trkpt lat="47.92755" lon="6.96033">
        <ele>496</ele>
        <time>2026-05-09T15:08:03.108Z</time>
      </trkpt>
      <trkpt lat="47.92755" lon="6.96033">
        <ele>496</ele>
        <time>2026-05-09T15:08:04.107Z</time>
      </trkpt>
      <trkpt lat="47.92755" lon="6.96033">
        <ele>495</ele>
        <time>2026-05-09T15:08:05.107Z</time>
      </trkpt>
      <trkpt lat="47.92755" lon="6.96033">
        <ele>495</ele>
        <time>2026-05-09T15:08:06.107Z</time>
      </trkpt>
      <trkpt lat="47.92755" lon="6.96033">
        <ele>495</ele>
        <time>2026-05-09T15:08:07.107Z</time>
      </trkpt>
      <trkpt lat="47.92755" lon="6.96033">
        <ele>495</ele>
        <time>2026-05-09T15:08:08.108Z</time>
      </trkpt>
      <trkpt lat="47.92755" lon="6.96033">
        <ele>495</ele>
        <time>2026-05-09T15:08:09.107Z</time>
      </trkpt>
      <trkpt lat="47.92755" lon="6.96032">
        <ele>496</ele>
        <time>2026-05-09T15:08:10.108Z</time>
      </trkpt>
      <trkpt lat="47.92756" lon="6.96032">
        <ele>496</ele>
        <time>2026-05-09T15:08:11.107Z</time>
      </trkpt>
      <trkpt lat="47.92756" lon="6.96032">
        <ele>497</ele>
        <time>2026-05-09T15:08:12.108Z</time>
      </trkpt>
      <trkpt lat="47.92756" lon="6.96032">
        <ele>497</ele>
        <time>2026-05-09T15:08:13.107Z</time>
      </trkpt>
      <trkpt lat="47.92756" lon="6.96032">
        <ele>498</ele>
        <time>2026-05-09T15:08:14.108Z</time>
      </trkpt>
      <trkpt lat="47.92756" lon="6.96032">
        <ele>498</ele>
        <time>2026-05-09T15:08:15.107Z</time>
      </trkpt>
      <trkpt lat="47.92756" lon="6.96032">
        <ele>498</ele>
        <time>2026-05-09T15:08:16.108Z</time>
      </trkpt>
      <trkpt lat="47.92756" lon="6.96032">
        <ele>498</ele>
        <time>2026-05-09T15:08:17.108Z</time>
      </trkpt>
      <trkpt lat="47.92756" lon="6.96032">
        <ele>498</ele>
        <time>2026-05-09T15:08:18.108Z</time>
      </trkpt>
      <trkpt lat="47.92756" lon="6.96032">
        <ele>498</ele>
        <time>2026-05-09T15:08:19.107Z</time>
      </trkpt>
      <trkpt lat="47.92756" lon="6.96032">
        <ele>498</ele>
        <time>2026-05-09T15:08:20.107Z</time>
      </trkpt>
      <trkpt lat="47.92756" lon="6.96031">
        <ele>497</ele>
        <time>2026-05-09T15:08:21.108Z</time>
      </trkpt>
      <trkpt lat="47.92756" lon="6.96031">
        <ele>497</ele>
        <time>2026-05-09T15:08:22.107Z</time>
      </trkpt>
      <trkpt lat="47.92756" lon="6.96031">
        <ele>497</ele>
        <time>2026-05-09T15:08:23.108Z</time>
      </trkpt>
      <trkpt lat="47.92756" lon="6.96031">
        <ele>497</ele>
        <time>2026-05-09T15:08:24.107Z</time>
      </trkpt>
      <trkpt lat="47.92756" lon="6.9603">
        <ele>497</ele>
        <time>2026-05-09T15:08:25.108Z</time>
      </trkpt>
      <trkpt lat="47.92756" lon="6.9603">
        <ele>497</ele>
        <time>2026-05-09T15:08:26.108Z</time>
      </trkpt>
      <trkpt lat="47.92756" lon="6.9603">
        <ele>497</ele>
        <time>2026-05-09T15:08:27.108Z</time>
      </trkpt>
      <trkpt lat="47.92756" lon="6.9603">
        <ele>497</ele>
        <time>2026-05-09T15:08:28.107Z</time>
      </trkpt>
      <trkpt lat="47.92756" lon="6.9603">
        <ele>497</ele>
        <time>2026-05-09T15:08:29.108Z</time>
      </trkpt>
      <trkpt lat="47.92756" lon="6.9603">
        <ele>497</ele>
        <time>2026-05-09T15:08:30.108Z</time>
      </trkpt>
      <trkpt lat="47.92756" lon="6.9603">
        <ele>497</ele>
        <time>2026-05-09T15:08:31.107Z</time>
      </trkpt>
      <trkpt lat="47.92756" lon="6.9603">
        <ele>497</ele>
        <time>2026-05-09T15:08:32.108Z</time>
      </trkpt>
      <trkpt lat="47.92756" lon="6.9603">
        <ele>497</ele>
        <time>2026-05-09T15:08:33.107Z</time>
      </trkpt>
      <trkpt lat="47.92756" lon="6.9603">
        <ele>497</ele>
        <time>2026-05-09T15:08:34.108Z</time>
      </trkpt>
      <trkpt lat="47.92756" lon="6.9603">
        <ele>497</ele>
        <time>2026-05-09T15:08:35.108Z</time>
      </trkpt>
      <trkpt lat="47.92756" lon="6.9603">
        <ele>497</ele>
        <time>2026-05-09T15:08:36.107Z</time>
      </trkpt>
      <trkpt lat="47.92756" lon="6.96031">
        <ele>497</ele>
        <time>2026-05-09T15:08:37.107Z</time>
      </trkpt>
      <trkpt lat="47.92757" lon="6.96031">
        <ele>497</ele>
        <time>2026-05-09T15:08:38.107Z</time>
      </trkpt>
      <trkpt lat="47.92756" lon="6.96031">
        <ele>498</ele>
        <time>2026-05-09T15:08:39.107Z</time>
      </trkpt>
      <trkpt lat="47.92756" lon="6.96031">
        <ele>498</ele>
        <time>2026-05-09T15:08:40.107Z</time>
      </trkpt>
      <trkpt lat="47.92756" lon="6.9603">
        <ele>498</ele>
        <time>2026-05-09T15:08:41.108Z</time>
      </trkpt>
      <trkpt lat="47.92756" lon="6.9603">
        <ele>498</ele>
        <time>2026-05-09T15:08:42.107Z</time>
      </trkpt>
      <trkpt lat="47.92756" lon="6.9603">
        <ele>498</ele>
        <time>2026-05-09T15:08:43.108Z</time>
      </trkpt>
      <trkpt lat="47.92756" lon="6.9603">
        <ele>498</ele>
        <time>2026-05-09T15:08:44.108Z</time>
      </trkpt>
      <trkpt lat="47.92757" lon="6.9603">
        <ele>497</ele>
        <time>2026-05-09T15:08:50.502Z</time>
      </trkpt>
      <trkpt lat="47.92757" lon="6.9603">
        <ele>497</ele>
        <time>2026-05-09T15:08:51.502Z</time>
      </trkpt>
      <trkpt lat="47.92757" lon="6.96029">
        <ele>497</ele>
        <time>2026-05-09T15:08:52.502Z</time>
      </trkpt>
      <trkpt lat="47.92757" lon="6.96029">
        <ele>497</ele>
        <time>2026-05-09T15:08:53.502Z</time>
      </trkpt>
      <trkpt lat="47.92757" lon="6.96029">
        <ele>497</ele>
        <time>2026-05-09T15:08:54.502Z</time>
      </trkpt>
      <trkpt lat="47.92757" lon="6.96029">
        <ele>496</ele>
        <time>2026-05-09T15:08:55.502Z</time>
      </trkpt>
      <trkpt lat="47.92757" lon="6.96029">
        <ele>495</ele>
        <time>2026-05-09T15:08:56.502Z</time>
      </trkpt>
      <trkpt lat="47.92757" lon="6.96029">
        <ele>495</ele>
        <time>2026-05-09T15:08:57.501Z</time>
      </trkpt>
      <trkpt lat="47.92757" lon="6.96029">
        <ele>494</ele>
        <time>2026-05-09T15:08:58.501Z</time>
      </trkpt>
      <trkpt lat="47.92757" lon="6.96029">
        <ele>493</ele>
        <time>2026-05-09T15:08:59.501Z</time>
      </trkpt>
      <trkpt lat="47.92757" lon="6.96029">
        <ele>492</ele>
        <time>2026-05-09T15:09:00.502Z</time>
      </trkpt>
      <trkpt lat="47.92757" lon="6.96029">
        <ele>492</ele>
        <time>2026-05-09T15:09:01.502Z</time>
      </trkpt>
      <trkpt lat="47.92757" lon="6.96029">
        <ele>492</ele>
        <time>2026-05-09T15:09:02.501Z</time>
      </trkpt>
      <trkpt lat="47.92757" lon="6.96029">
        <ele>491</ele>
        <time>2026-05-09T15:09:03.501Z</time>
      </trkpt>
      <trkpt lat="47.92757" lon="6.96029">
        <ele>491</ele>
        <time>2026-05-09T15:09:04.501Z</time>
      </trkpt>
      <trkpt lat="47.92757" lon="6.96029">
        <ele>491</ele>
        <time>2026-05-09T15:09:05.502Z</time>
      </trkpt>
      <trkpt lat="47.92757" lon="6.96029">
        <ele>490</ele>
        <time>2026-05-09T15:09:06.501Z</time>
      </trkpt>
      <trkpt lat="47.92757" lon="6.96029">
        <ele>490</ele>
        <time>2026-05-09T15:09:07.502Z</time>
      </trkpt>
      <trkpt lat="47.92757" lon="6.96029">
        <ele>489</ele>
        <time>2026-05-09T15:09:08.501Z</time>
      </trkpt>
      <trkpt lat="47.92757" lon="6.96029">
        <ele>489</ele>
        <time>2026-05-09T15:09:09.502Z</time>
      </trkpt>
      <trkpt lat="47.92757" lon="6.96029">
        <ele>489</ele>
        <time>2026-05-09T15:09:10.501Z</time>
      </trkpt>
      <trkpt lat="47.92757" lon="6.96029">
        <ele>489</ele>
        <time>2026-05-09T15:09:11.501Z</time>
      </trkpt>
      <trkpt lat="47.92757" lon="6.9603">
        <ele>489</ele>
        <time>2026-05-09T15:09:12.501Z</time>
      </trkpt>
      <trkpt lat="47.92757" lon="6.9603">
        <ele>490</ele>
        <time>2026-05-09T15:09:13.502Z</time>
      </trkpt>
      <trkpt lat="47.92758" lon="6.9603">
        <ele>490</ele>
        <time>2026-05-09T15:09:14.501Z</time>
      </trkpt>
      <trkpt lat="47.92758" lon="6.96029">
        <ele>491</ele>
        <time>2026-05-09T15:09:15.501Z</time>
      </trkpt>
      <trkpt lat="47.92758" lon="6.96029">
        <ele>492</ele>
        <time>2026-05-09T15:09:16.502Z</time>
      </trkpt>
      <trkpt lat="47.92758" lon="6.96029">
        <ele>493</ele>
        <time>2026-05-09T15:09:17.502Z</time>
      </trkpt>
      <trkpt lat="47.92758" lon="6.9603">
        <ele>493</ele>
        <time>2026-05-09T15:09:18.501Z</time>
      </trkpt>
      <trkpt lat="47.92758" lon="6.9603">
        <ele>494</ele>
        <time>2026-05-09T15:09:19.502Z</time>
      </trkpt>
      <trkpt lat="47.92758" lon="6.9603">
        <ele>494</ele>
        <time>2026-05-09T15:09:20.502Z</time>
      </trkpt>
      <trkpt lat="47.92757" lon="6.9603">
        <ele>494</ele>
        <time>2026-05-09T15:09:21.502Z</time>
      </trkpt>
      <trkpt lat="47.92757" lon="6.9603">
        <ele>495</ele>
        <time>2026-05-09T15:09:22.502Z</time>
      </trkpt>
      <trkpt lat="47.92757" lon="6.9603">
        <ele>495</ele>
        <time>2026-05-09T15:09:23.501Z</time>
      </trkpt>
      <trkpt lat="47.92757" lon="6.9603">
        <ele>496</ele>
        <time>2026-05-09T15:09:24.501Z</time>
      </trkpt>
      <trkpt lat="47.92757" lon="6.9603">
        <ele>497</ele>
        <time>2026-05-09T15:09:25.502Z</time>
      </trkpt>
      <trkpt lat="47.92757" lon="6.9603">
        <ele>498</ele>
        <time>2026-05-09T15:09:26.502Z</time>
      </trkpt>
      <trkpt lat="47.92757" lon="6.9603">
        <ele>498</ele>
        <time>2026-05-09T15:09:27.502Z</time>
      </trkpt>
      <trkpt lat="47.92757" lon="6.9603">
        <ele>499</ele>
        <time>2026-05-09T15:09:28.502Z</time>
      </trkpt>
      <trkpt lat="47.92758" lon="6.9603">
        <ele>500</ele>
        <time>2026-05-09T15:09:29.501Z</time>
      </trkpt>
      <trkpt lat="47.92758" lon="6.9603">
        <ele>501</ele>
        <time>2026-05-09T15:09:30.501Z</time>
      </trkpt>
      <trkpt lat="47.92758" lon="6.9603">
        <ele>502</ele>
        <time>2026-05-09T15:09:31.501Z</time>
      </trkpt>
      <trkpt lat="47.92758" lon="6.9603">
        <ele>502</ele>
        <time>2026-05-09T15:09:32.501Z</time>
      </trkpt>
      <trkpt lat="47.92758" lon="6.9603">
        <ele>503</ele>
        <time>2026-05-09T15:09:33.501Z</time>
      </trkpt>
      <trkpt lat="47.92758" lon="6.9603">
        <ele>503</ele>
        <time>2026-05-09T15:09:34.502Z</time>
      </trkpt>
      <trkpt lat="47.92758" lon="6.9603">
        <ele>503</ele>
        <time>2026-05-09T15:09:35.502Z</time>
      </trkpt>
      <trkpt lat="47.92758" lon="6.9603">
        <ele>503</ele>
        <time>2026-05-09T15:09:36.502Z</time>
      </trkpt>
      <trkpt lat="47.92758" lon="6.9603">
        <ele>503</ele>
        <time>2026-05-09T15:09:37.501Z</time>
      </trkpt>
      <trkpt lat="47.92759" lon="6.9603">
        <ele>503</ele>
        <time>2026-05-09T15:09:38.502Z</time>
      </trkpt>
      <trkpt lat="47.92759" lon="6.9603">
        <ele>503</ele>
        <time>2026-05-09T15:09:39.501Z</time>
      </trkpt>
      <trkpt lat="47.92759" lon="6.96031">
        <ele>502</ele>
        <time>2026-05-09T15:09:40.501Z</time>
      </trkpt>
      <trkpt lat="47.92759" lon="6.96031">
        <ele>502</ele>
        <time>2026-05-09T15:09:41.502Z</time>
      </trkpt>
      <trkpt lat="47.92757" lon="6.96033">
        <ele>493</ele>
        <time>2026-05-09T15:10:13.783Z</time>
      </trkpt>
      <trkpt lat="47.92757" lon="6.96033">
        <ele>492</ele>
        <time>2026-05-09T15:10:14.782Z</time>
      </trkpt>
      <trkpt lat="47.92757" lon="6.96033">
        <ele>492</ele>
        <time>2026-05-09T15:10:15.782Z</time>
      </trkpt>
      <trkpt lat="47.92757" lon="6.96033">
        <ele>491</ele>
        <time>2026-05-09T15:10:16.782Z</time>
      </trkpt>
      <trkpt lat="47.92757" lon="6.96033">
        <ele>491</ele>
        <time>2026-05-09T15:10:17.782Z</time>
      </trkpt>
      <trkpt lat="47.92757" lon="6.96033">
        <ele>490</ele>
        <time>2026-05-09T15:10:18.782Z</time>
      </trkpt>
      <trkpt lat="47.92757" lon="6.96034">
        <ele>490</ele>
        <time>2026-05-09T15:10:19.782Z</time>
      </trkpt>
      <trkpt lat="47.92757" lon="6.96034">
        <ele>490</ele>
        <time>2026-05-09T15:10:20.782Z</time>
      </trkpt>
      <trkpt lat="47.92757" lon="6.96034">
        <ele>489</ele>
        <time>2026-05-09T15:10:21.782Z</time>
      </trkpt>
      <trkpt lat="47.92756" lon="6.96034">
        <ele>489</ele>
        <time>2026-05-09T15:10:22.783Z</time>
      </trkpt>
      <trkpt lat="47.92756" lon="6.96035">
        <ele>489</ele>
        <time>2026-05-09T15:10:23.782Z</time>
      </trkpt>
      <trkpt lat="47.92755" lon="6.96036">
        <ele>489</ele>
        <time>2026-05-09T15:10:24.782Z</time>
      </trkpt>
      <trkpt lat="47.92754" lon="6.96038">
        <ele>489</ele>
        <time>2026-05-09T15:10:25.782Z</time>
      </trkpt>
      <trkpt lat="47.92753" lon="6.96039">
        <ele>489</ele>
        <time>2026-05-09T15:10:26.782Z</time>
      </trkpt>
      <trkpt lat="47.92751" lon="6.96041">
        <ele>489</ele>
        <time>2026-05-09T15:10:27.782Z</time>
      </trkpt>
      <trkpt lat="47.9275" lon="6.96042">
        <ele>489</ele>
        <time>2026-05-09T15:10:28.782Z</time>
      </trkpt>
      <trkpt lat="47.92749" lon="6.96044">
        <ele>489</ele>
        <time>2026-05-09T15:10:29.782Z</time>
      </trkpt>
      <trkpt lat="47.92749" lon="6.96045">
        <ele>489</ele>
        <time>2026-05-09T15:10:30.782Z</time>
      </trkpt>
      <trkpt lat="47.92748" lon="6.96046">
        <ele>489</ele>
        <time>2026-05-09T15:10:31.783Z</time>
      </trkpt>
      <trkpt lat="47.92748" lon="6.96047">
        <ele>489</ele>
        <time>2026-05-09T15:10:32.782Z</time>
      </trkpt>
      <trkpt lat="47.92747" lon="6.96049">
        <ele>488</ele>
        <time>2026-05-09T15:10:33.783Z</time>
      </trkpt>
      <trkpt lat="47.92746" lon="6.96051">
        <ele>488</ele>
        <time>2026-05-09T15:10:34.782Z</time>
      </trkpt>
      <trkpt lat="47.92746" lon="6.96052">
        <ele>488</ele>
        <time>2026-05-09T15:10:35.782Z</time>
      </trkpt>
      <trkpt lat="47.92745" lon="6.96053">
        <ele>489</ele>
        <time>2026-05-09T15:10:36.783Z</time>
      </trkpt>
      <trkpt lat="47.92744" lon="6.96054">
        <ele>489</ele>
        <time>2026-05-09T15:10:37.782Z</time>
      </trkpt>
      <trkpt lat="47.92743" lon="6.96055">
        <ele>489</ele>
        <time>2026-05-09T15:10:38.782Z</time>
      </trkpt>
      <trkpt lat="47.92742" lon="6.96056">
        <ele>490</ele>
        <time>2026-05-09T15:10:39.782Z</time>
      </trkpt>
      <trkpt lat="47.92742" lon="6.96057">
        <ele>490</ele>
        <time>2026-05-09T15:10:40.782Z</time>
      </trkpt>
      <trkpt lat="47.92741" lon="6.96058">
        <ele>491</ele>
        <time>2026-05-09T15:10:41.782Z</time>
      </trkpt>
      <trkpt lat="47.92741" lon="6.96059">
        <ele>491</ele>
        <time>2026-05-09T15:10:42.783Z</time>
      </trkpt>
      <trkpt lat="47.9274" lon="6.96061">
        <ele>491</ele>
        <time>2026-05-09T15:10:43.782Z</time>
      </trkpt>
      <trkpt lat="47.92739" lon="6.96062">
        <ele>491</ele>
        <time>2026-05-09T15:10:44.782Z</time>
      </trkpt>
      <trkpt lat="47.92738" lon="6.96063">
        <ele>492</ele>
        <time>2026-05-09T15:10:45.783Z</time>
      </trkpt>
      <trkpt lat="47.92737" lon="6.96064">
        <ele>492</ele>
        <time>2026-05-09T15:10:46.782Z</time>
      </trkpt>
      <trkpt lat="47.92736" lon="6.96065">
        <ele>491</ele>
        <time>2026-05-09T15:10:47.782Z</time>
      </trkpt>
      <trkpt lat="47.92735" lon="6.96067">
        <ele>491</ele>
        <time>2026-05-09T15:10:48.782Z</time>
      </trkpt>
      <trkpt lat="47.92733" lon="6.96069">
        <ele>491</ele>
        <time>2026-05-09T15:10:49.783Z</time>
      </trkpt>
      <trkpt lat="47.92732" lon="6.96071">
        <ele>491</ele>
        <time>2026-05-09T15:10:50.782Z</time>
      </trkpt>
      <trkpt lat="47.9273" lon="6.96073">
        <ele>491</ele>
        <time>2026-05-09T15:10:51.782Z</time>
      </trkpt>
      <trkpt lat="47.9273" lon="6.96075">
        <ele>491</ele>
        <time>2026-05-09T15:10:52.782Z</time>
      </trkpt>
      <trkpt lat="47.92729" lon="6.96077">
        <ele>491</ele>
        <time>2026-05-09T15:10:53.783Z</time>
      </trkpt>
      <trkpt lat="47.92728" lon="6.96079">
        <ele>491</ele>
        <time>2026-05-09T15:10:54.782Z</time>
      </trkpt>
      <trkpt lat="47.92727" lon="6.96081">
        <ele>491</ele>
        <time>2026-05-09T15:10:55.782Z</time>
      </trkpt>
      <trkpt lat="47.92726" lon="6.96083">
        <ele>491</ele>
        <time>2026-05-09T15:10:56.782Z</time>
      </trkpt>
      <trkpt lat="47.92726" lon="6.96085">
        <ele>491</ele>
        <time>2026-05-09T15:10:57.782Z</time>
      </trkpt>
      <trkpt lat="47.92725" lon="6.96086">
        <ele>491</ele>
        <time>2026-05-09T15:10:58.782Z</time>
      </trkpt>
      <trkpt lat="47.92724" lon="6.96087">
        <ele>491</ele>
        <time>2026-05-09T15:10:59.782Z</time>
      </trkpt>
      <trkpt lat="47.92723" lon="6.96088">
        <ele>492</ele>
        <time>2026-05-09T15:11:00.782Z</time>
      </trkpt>
      <trkpt lat="47.92722" lon="6.9609">
        <ele>492</ele>
        <time>2026-05-09T15:11:01.782Z</time>
      </trkpt>
      <trkpt lat="47.92721" lon="6.96091">
        <ele>492</ele>
        <time>2026-05-09T15:11:02.782Z</time>
      </trkpt>
      <trkpt lat="47.9272" lon="6.96092">
        <ele>492</ele>
        <time>2026-05-09T15:11:03.782Z</time>
      </trkpt>
      <trkpt lat="47.92718" lon="6.96094">
        <ele>492</ele>
        <time>2026-05-09T15:11:04.783Z</time>
      </trkpt>
      <trkpt lat="47.92717" lon="6.96096">
        <ele>492</ele>
        <time>2026-05-09T15:11:05.782Z</time>
      </trkpt>
      <trkpt lat="47.92715" lon="6.96098">
        <ele>493</ele>
        <time>2026-05-09T15:11:06.782Z</time>
      </trkpt>
      <trkpt lat="47.92714" lon="6.961">
        <ele>493</ele>
        <time>2026-05-09T15:11:07.782Z</time>
      </trkpt>
      <trkpt lat="47.92713" lon="6.96101">
        <ele>492</ele>
        <time>2026-05-09T15:11:08.782Z</time>
      </trkpt>
      <trkpt lat="47.92712" lon="6.96102">
        <ele>492</ele>
        <time>2026-05-09T15:11:09.782Z</time>
      </trkpt>
      <trkpt lat="47.92711" lon="6.96104">
        <ele>492</ele>
        <time>2026-05-09T15:11:10.783Z</time>
      </trkpt>
      <trkpt lat="47.9271" lon="6.96105">
        <ele>492</ele>
        <time>2026-05-09T15:11:11.782Z</time>
      </trkpt>
      <trkpt lat="47.92709" lon="6.96107">
        <ele>492</ele>
        <time>2026-05-09T15:11:12.782Z</time>
      </trkpt>
      <trkpt lat="47.92708" lon="6.96109">
        <ele>492</ele>
        <time>2026-05-09T15:11:13.782Z</time>
      </trkpt>
      <trkpt lat="47.92707" lon="6.9611">
        <ele>492</ele>
        <time>2026-05-09T15:11:14.782Z</time>
      </trkpt>
      <trkpt lat="47.92706" lon="6.96112">
        <ele>492</ele>
        <time>2026-05-09T15:11:15.782Z</time>
      </trkpt>
      <trkpt lat="47.92705" lon="6.96114">
        <ele>492</ele>
        <time>2026-05-09T15:11:16.782Z</time>
      </trkpt>
      <trkpt lat="47.92704" lon="6.96116">
        <ele>492</ele>
        <time>2026-05-09T15:11:17.783Z</time>
      </trkpt>
      <trkpt lat="47.92703" lon="6.96118">
        <ele>491</ele>
        <time>2026-05-09T15:11:18.782Z</time>
      </trkpt>
      <trkpt lat="47.92702" lon="6.9612">
        <ele>491</ele>
        <time>2026-05-09T15:11:19.783Z</time>
      </trkpt>
      <trkpt lat="47.92702" lon="6.96121">
        <ele>491</ele>
        <time>2026-05-09T15:11:20.782Z</time>
      </trkpt>
      <trkpt lat="47.92701" lon="6.96123">
        <ele>490</ele>
        <time>2026-05-09T15:11:21.782Z</time>
      </trkpt>
      <trkpt lat="47.927" lon="6.96124">
        <ele>490</ele>
        <time>2026-05-09T15:11:22.782Z</time>
      </trkpt>
      <trkpt lat="47.92699" lon="6.96125">
        <ele>490</ele>
        <time>2026-05-09T15:11:23.782Z</time>
      </trkpt>
      <trkpt lat="47.92698" lon="6.96127">
        <ele>490</ele>
        <time>2026-05-09T15:11:24.782Z</time>
      </trkpt>
      <trkpt lat="47.92697" lon="6.96129">
        <ele>490</ele>
        <time>2026-05-09T15:11:25.782Z</time>
      </trkpt>
      <trkpt lat="47.92696" lon="6.96131">
        <ele>490</ele>
        <time>2026-05-09T15:11:26.783Z</time>
      </trkpt>
      <trkpt lat="47.92695" lon="6.96133">
        <ele>491</ele>
        <time>2026-05-09T15:11:27.783Z</time>
      </trkpt>
      <trkpt lat="47.92694" lon="6.96135">
        <ele>491</ele>
        <time>2026-05-09T15:11:28.782Z</time>
      </trkpt>
      <trkpt lat="47.92693" lon="6.96136">
        <ele>491</ele>
        <time>2026-05-09T15:11:29.782Z</time>
      </trkpt>
      <trkpt lat="47.92692" lon="6.96138">
        <ele>491</ele>
        <time>2026-05-09T15:11:30.782Z</time>
      </trkpt>
      <trkpt lat="47.92692" lon="6.96139">
        <ele>491</ele>
        <time>2026-05-09T15:11:31.782Z</time>
      </trkpt>
      <trkpt lat="47.9269" lon="6.96139">
        <ele>492</ele>
        <time>2026-05-09T15:11:32.782Z</time>
      </trkpt>
      <trkpt lat="47.92689" lon="6.9614">
        <ele>492</ele>
        <time>2026-05-09T15:11:33.782Z</time>
      </trkpt>
      <trkpt lat="47.92688" lon="6.96142">
        <ele>492</ele>
        <time>2026-05-09T15:11:34.782Z</time>
      </trkpt>
      <trkpt lat="47.92687" lon="6.96143">
        <ele>492</ele>
        <time>2026-05-09T15:11:35.782Z</time>
      </trkpt>
      <trkpt lat="47.92686" lon="6.96145">
        <ele>492</ele>
        <time>2026-05-09T15:11:36.782Z</time>
      </trkpt>
      <trkpt lat="47.92686" lon="6.96146">
        <ele>492</ele>
        <time>2026-05-09T15:11:37.782Z</time>
      </trkpt>
      <trkpt lat="47.92685" lon="6.96148">
        <ele>492</ele>
        <time>2026-05-09T15:11:38.782Z</time>
      </trkpt>
      <trkpt lat="47.92684" lon="6.9615">
        <ele>492</ele>
        <time>2026-05-09T15:11:39.782Z</time>
      </trkpt>
      <trkpt lat="47.92682" lon="6.96151">
        <ele>492</ele>
        <time>2026-05-09T15:11:40.782Z</time>
      </trkpt>
      <trkpt lat="47.92681" lon="6.96152">
        <ele>492</ele>
        <time>2026-05-09T15:11:41.782Z</time>
      </trkpt>
      <trkpt lat="47.9268" lon="6.96155">
        <ele>492</ele>
        <time>2026-05-09T15:11:42.782Z</time>
      </trkpt>
      <trkpt lat="47.92679" lon="6.96157">
        <ele>492</ele>
        <time>2026-05-09T15:11:43.782Z</time>
      </trkpt>
      <trkpt lat="47.92678" lon="6.96159">
        <ele>492</ele>
        <time>2026-05-09T15:11:44.782Z</time>
      </trkpt>
      <trkpt lat="47.92677" lon="6.96161">
        <ele>492</ele>
        <time>2026-05-09T15:11:45.782Z</time>
      </trkpt>
      <trkpt lat="47.92676" lon="6.96163">
        <ele>492</ele>
        <time>2026-05-09T15:11:46.783Z</time>
      </trkpt>
      <trkpt lat="47.92675" lon="6.96165">
        <ele>492</ele>
        <time>2026-05-09T15:11:47.783Z</time>
      </trkpt>
      <trkpt lat="47.92674" lon="6.96167">
        <ele>492</ele>
        <time>2026-05-09T15:11:48.783Z</time>
      </trkpt>
      <trkpt lat="47.92673" lon="6.96169">
        <ele>492</ele>
        <time>2026-05-09T15:11:49.782Z</time>
      </trkpt>
      <trkpt lat="47.92672" lon="6.96171">
        <ele>491</ele>
        <time>2026-05-09T15:11:50.782Z</time>
      </trkpt>
      <trkpt lat="47.92671" lon="6.96172">
        <ele>491</ele>
        <time>2026-05-09T15:11:51.782Z</time>
      </trkpt>
      <trkpt lat="47.9267" lon="6.96174">
        <ele>491</ele>
        <time>2026-05-09T15:11:52.782Z</time>
      </trkpt>
      <trkpt lat="47.92668" lon="6.96176">
        <ele>490</ele>
        <time>2026-05-09T15:11:53.782Z</time>
      </trkpt>
      <trkpt lat="47.92667" lon="6.96177">
        <ele>490</ele>
        <time>2026-05-09T15:11:54.782Z</time>
      </trkpt>
      <trkpt lat="47.92666" lon="6.96179">
        <ele>490</ele>
        <time>2026-05-09T15:11:55.782Z</time>
      </trkpt>
      <trkpt lat="47.92665" lon="6.96181">
        <ele>490</ele>
        <time>2026-05-09T15:11:56.782Z</time>
      </trkpt>
      <trkpt lat="47.92663" lon="6.96183">
        <ele>490</ele>
        <time>2026-05-09T15:11:57.783Z</time>
      </trkpt>
      <trkpt lat="47.92662" lon="6.96185">
        <ele>491</ele>
        <time>2026-05-09T15:11:58.782Z</time>
      </trkpt>
      <trkpt lat="47.92661" lon="6.96186">
        <ele>490</ele>
        <time>2026-05-09T15:11:59.783Z</time>
      </trkpt>
      <trkpt lat="47.9266" lon="6.96188">
        <ele>490</ele>
        <time>2026-05-09T15:12:00.782Z</time>
      </trkpt>
      <trkpt lat="47.92659" lon="6.9619">
        <ele>490</ele>
        <time>2026-05-09T15:12:01.782Z</time>
      </trkpt>
      <trkpt lat="47.92658" lon="6.96192">
        <ele>490</ele>
        <time>2026-05-09T15:12:02.782Z</time>
      </trkpt>
      <trkpt lat="47.92657" lon="6.96194">
        <ele>490</ele>
        <time>2026-05-09T15:12:03.782Z</time>
      </trkpt>
      <trkpt lat="47.92656" lon="6.96195">
        <ele>490</ele>
        <time>2026-05-09T15:12:04.783Z</time>
      </trkpt>
      <trkpt lat="47.92655" lon="6.96196">
        <ele>490</ele>
        <time>2026-05-09T15:12:05.782Z</time>
      </trkpt>
      <trkpt lat="47.92655" lon="6.96198">
        <ele>490</ele>
        <time>2026-05-09T15:12:06.783Z</time>
      </trkpt>
      <trkpt lat="47.92654" lon="6.96199">
        <ele>490</ele>
        <time>2026-05-09T15:12:07.782Z</time>
      </trkpt>
      <trkpt lat="47.92653" lon="6.962">
        <ele>489</ele>
        <time>2026-05-09T15:12:08.783Z</time>
      </trkpt>
      <trkpt lat="47.92652" lon="6.96203">
        <ele>489</ele>
        <time>2026-05-09T15:12:09.783Z</time>
      </trkpt>
      <trkpt lat="47.92651" lon="6.96204">
        <ele>489</ele>
        <time>2026-05-09T15:12:10.782Z</time>
      </trkpt>
      <trkpt lat="47.92651" lon="6.96206">
        <ele>489</ele>
        <time>2026-05-09T15:12:11.782Z</time>
      </trkpt>
      <trkpt lat="47.9265" lon="6.96208">
        <ele>489</ele>
        <time>2026-05-09T15:12:12.782Z</time>
      </trkpt>
      <trkpt lat="47.9265" lon="6.96209">
        <ele>489</ele>
        <time>2026-05-09T15:12:13.783Z</time>
      </trkpt>
      <trkpt lat="47.92649" lon="6.96211">
        <ele>489</ele>
        <time>2026-05-09T15:12:14.782Z</time>
      </trkpt>
      <trkpt lat="47.92649" lon="6.96214">
        <ele>489</ele>
        <time>2026-05-09T15:12:15.783Z</time>
      </trkpt>
      <trkpt lat="47.92649" lon="6.96216">
        <ele>488</ele>
        <time>2026-05-09T15:12:16.782Z</time>
      </trkpt>
      <trkpt lat="47.92649" lon="6.96218">
        <ele>488</ele>
        <time>2026-05-09T15:12:17.782Z</time>
      </trkpt>
      <trkpt lat="47.9265" lon="6.96221">
        <ele>488</ele>
        <time>2026-05-09T15:12:18.782Z</time>
      </trkpt>
      <trkpt lat="47.9265" lon="6.96223">
        <ele>488</ele>
        <time>2026-05-09T15:12:19.782Z</time>
      </trkpt>
      <trkpt lat="47.92651" lon="6.96225">
        <ele>488</ele>
        <time>2026-05-09T15:12:20.782Z</time>
      </trkpt>
      <trkpt lat="47.92651" lon="6.96228">
        <ele>488</ele>
        <time>2026-05-09T15:12:21.783Z</time>
      </trkpt>
      <trkpt lat="47.92652" lon="6.9623">
        <ele>487</ele>
        <time>2026-05-09T15:12:22.782Z</time>
      </trkpt>
      <trkpt lat="47.92652" lon="6.96232">
        <ele>487</ele>
        <time>2026-05-09T15:12:23.782Z</time>
      </trkpt>
      <trkpt lat="47.92652" lon="6.96235">
        <ele>487</ele>
        <time>2026-05-09T15:12:24.783Z</time>
      </trkpt>
      <trkpt lat="47.92652" lon="6.96238">
        <ele>486</ele>
        <time>2026-05-09T15:12:25.782Z</time>
      </trkpt>
      <trkpt lat="47.92652" lon="6.9624">
        <ele>486</ele>
        <time>2026-05-09T15:12:26.782Z</time>
      </trkpt>
      <trkpt lat="47.92652" lon="6.96242">
        <ele>485</ele>
        <time>2026-05-09T15:12:27.783Z</time>
      </trkpt>
      <trkpt lat="47.92652" lon="6.96243">
        <ele>485</ele>
        <time>2026-05-09T15:12:28.783Z</time>
      </trkpt>
      <trkpt lat="47.92651" lon="6.96244">
        <ele>485</ele>
        <time>2026-05-09T15:12:29.782Z</time>
      </trkpt>
      <trkpt lat="47.92651" lon="6.96245">
        <ele>485</ele>
        <time>2026-05-09T15:12:30.782Z</time>
      </trkpt>
      <trkpt lat="47.92651" lon="6.96245">
        <ele>485</ele>
        <time>2026-05-09T15:12:31.782Z</time>
      </trkpt>
      <trkpt lat="47.92651" lon="6.96245">
        <ele>485</ele>
        <time>2026-05-09T15:12:32.782Z</time>
      </trkpt>
      <trkpt lat="47.92649" lon="6.96246">
        <ele>488</ele>
        <time>2026-05-09T15:12:43.998Z</time>
      </trkpt>
      <trkpt lat="47.92649" lon="6.96246">
        <ele>488</ele>
        <time>2026-05-09T15:12:44.998Z</time>
      </trkpt>
      <trkpt lat="47.92648" lon="6.96247">
        <ele>489</ele>
        <time>2026-05-09T15:12:45.998Z</time>
      </trkpt>
      <trkpt lat="47.92647" lon="6.96247">
        <ele>489</ele>
        <time>2026-05-09T15:12:46.997Z</time>
      </trkpt>
      <trkpt lat="47.92646" lon="6.96247">
        <ele>489</ele>
        <time>2026-05-09T15:12:47.997Z</time>
      </trkpt>
      <trkpt lat="47.92645" lon="6.96247">
        <ele>489</ele>
        <time>2026-05-09T15:12:48.997Z</time>
      </trkpt>
      <trkpt lat="47.92645" lon="6.96247">
        <ele>489</ele>
        <time>2026-05-09T15:12:49.997Z</time>
      </trkpt>
      <trkpt lat="47.92644" lon="6.96247">
        <ele>488</ele>
        <time>2026-05-09T15:12:50.998Z</time>
      </trkpt>
      <trkpt lat="47.92644" lon="6.96248">
        <ele>488</ele>
        <time>2026-05-09T15:12:51.998Z</time>
      </trkpt>
      <trkpt lat="47.92642" lon="6.96248">
        <ele>488</ele>
        <time>2026-05-09T15:12:52.997Z</time>
      </trkpt>
      <trkpt lat="47.92641" lon="6.96248">
        <ele>488</ele>
        <time>2026-05-09T15:12:53.998Z</time>
      </trkpt>
      <trkpt lat="47.9264" lon="6.96247">
        <ele>488</ele>
        <time>2026-05-09T15:12:54.998Z</time>
      </trkpt>
      <trkpt lat="47.92639" lon="6.96247">
        <ele>489</ele>
        <time>2026-05-09T15:12:55.997Z</time>
      </trkpt>
      <trkpt lat="47.92638" lon="6.96246">
        <ele>489</ele>
        <time>2026-05-09T15:12:56.998Z</time>
      </trkpt>
      <trkpt lat="47.92636" lon="6.96245">
        <ele>489</ele>
        <time>2026-05-09T15:12:57.998Z</time>
      </trkpt>
      <trkpt lat="47.92635" lon="6.96244">
        <ele>489</ele>
        <time>2026-05-09T15:12:58.998Z</time>
      </trkpt>
      <trkpt lat="47.92633" lon="6.96243">
        <ele>489</ele>
        <time>2026-05-09T15:12:59.997Z</time>
      </trkpt>
      <trkpt lat="47.92632" lon="6.96242">
        <ele>489</ele>
        <time>2026-05-09T15:13:00.998Z</time>
      </trkpt>
      <trkpt lat="47.9263" lon="6.96241">
        <ele>489</ele>
        <time>2026-05-09T15:13:01.997Z</time>
      </trkpt>
      <trkpt lat="47.92629" lon="6.9624">
        <ele>489</ele>
        <time>2026-05-09T15:13:02.998Z</time>
      </trkpt>
      <trkpt lat="47.92627" lon="6.96239">
        <ele>489</ele>
        <time>2026-05-09T15:13:03.997Z</time>
      </trkpt>
      <trkpt lat="47.92626" lon="6.96239">
        <ele>489</ele>
        <time>2026-05-09T15:13:04.998Z</time>
      </trkpt>
      <trkpt lat="47.92625" lon="6.96238">
        <ele>489</ele>
        <time>2026-05-09T15:13:05.998Z</time>
      </trkpt>
      <trkpt lat="47.92623" lon="6.96237">
        <ele>489</ele>
        <time>2026-05-09T15:13:06.997Z</time>
      </trkpt>
      <trkpt lat="47.92622" lon="6.96236">
        <ele>489</ele>
        <time>2026-05-09T15:13:07.997Z</time>
      </trkpt>
      <trkpt lat="47.9262" lon="6.96235">
        <ele>488</ele>
        <time>2026-05-09T15:13:08.998Z</time>
      </trkpt>
      <trkpt lat="47.92619" lon="6.96234">
        <ele>488</ele>
        <time>2026-05-09T15:13:09.998Z</time>
      </trkpt>
      <trkpt lat="47.92618" lon="6.96233">
        <ele>488</ele>
        <time>2026-05-09T15:13:10.997Z</time>
      </trkpt>
      <trkpt lat="47.92617" lon="6.96232">
        <ele>488</ele>
        <time>2026-05-09T15:13:11.997Z</time>
      </trkpt>
      <trkpt lat="47.92615" lon="6.9623">
        <ele>487</ele>
        <time>2026-05-09T15:13:12.997Z</time>
      </trkpt>
      <trkpt lat="47.92614" lon="6.9623">
        <ele>487</ele>
        <time>2026-05-09T15:13:13.998Z</time>
      </trkpt>
      <trkpt lat="47.92613" lon="6.96229">
        <ele>487</ele>
        <time>2026-05-09T15:13:14.998Z</time>
      </trkpt>
      <trkpt lat="47.92611" lon="6.96228">
        <ele>487</ele>
        <time>2026-05-09T15:13:15.997Z</time>
      </trkpt>
      <trkpt lat="47.9261" lon="6.96227">
        <ele>488</ele>
        <time>2026-05-09T15:13:16.998Z</time>
      </trkpt>
      <trkpt lat="47.92608" lon="6.96226">
        <ele>488</ele>
        <time>2026-05-09T15:13:17.997Z</time>
      </trkpt>
      <trkpt lat="47.92607" lon="6.96225">
        <ele>488</ele>
        <time>2026-05-09T15:13:18.998Z</time>
      </trkpt>
      <trkpt lat="47.92606" lon="6.96224">
        <ele>488</ele>
        <time>2026-05-09T15:13:19.997Z</time>
      </trkpt>
      <trkpt lat="47.92605" lon="6.96223">
        <ele>488</ele>
        <time>2026-05-09T15:13:20.997Z</time>
      </trkpt>
      <trkpt lat="47.92604" lon="6.96222">
        <ele>488</ele>
        <time>2026-05-09T15:13:21.997Z</time>
      </trkpt>
      <trkpt lat="47.92602" lon="6.96221">
        <ele>488</ele>
        <time>2026-05-09T15:13:22.997Z</time>
      </trkpt>
      <trkpt lat="47.92601" lon="6.96219">
        <ele>488</ele>
        <time>2026-05-09T15:13:23.998Z</time>
      </trkpt>
      <trkpt lat="47.926" lon="6.96218">
        <ele>488</ele>
        <time>2026-05-09T15:13:24.998Z</time>
      </trkpt>
      <trkpt lat="47.92599" lon="6.96216">
        <ele>487</ele>
        <time>2026-05-09T15:13:25.997Z</time>
      </trkpt>
      <trkpt lat="47.92598" lon="6.96215">
        <ele>487</ele>
        <time>2026-05-09T15:13:26.997Z</time>
      </trkpt>
      <trkpt lat="47.92597" lon="6.96213">
        <ele>487</ele>
        <time>2026-05-09T15:13:27.997Z</time>
      </trkpt>
      <trkpt lat="47.92595" lon="6.96211">
        <ele>486</ele>
        <time>2026-05-09T15:13:28.997Z</time>
      </trkpt>
      <trkpt lat="47.92594" lon="6.9621">
        <ele>486</ele>
        <time>2026-05-09T15:13:29.998Z</time>
      </trkpt>
      <trkpt lat="47.92593" lon="6.96209">
        <ele>486</ele>
        <time>2026-05-09T15:13:30.997Z</time>
      </trkpt>
      <trkpt lat="47.92592" lon="6.96207">
        <ele>486</ele>
        <time>2026-05-09T15:13:31.998Z</time>
      </trkpt>
      <trkpt lat="47.92591" lon="6.96206">
        <ele>486</ele>
        <time>2026-05-09T15:13:32.998Z</time>
      </trkpt>
      <trkpt lat="47.9259" lon="6.96205">
        <ele>486</ele>
        <time>2026-05-09T15:13:33.997Z</time>
      </trkpt>
      <trkpt lat="47.92589" lon="6.96204">
        <ele>486</ele>
        <time>2026-05-09T15:13:34.997Z</time>
      </trkpt>
      <trkpt lat="47.92587" lon="6.96203">
        <ele>486</ele>
        <time>2026-05-09T15:13:35.998Z</time>
      </trkpt>
      <trkpt lat="47.92585" lon="6.96202">
        <ele>486</ele>
        <time>2026-05-09T15:13:36.997Z</time>
      </trkpt>
      <trkpt lat="47.92584" lon="6.96202">
        <ele>487</ele>
        <time>2026-05-09T15:13:37.998Z</time>
      </trkpt>
      <trkpt lat="47.92582" lon="6.96201">
        <ele>487</ele>
        <time>2026-05-09T15:13:38.997Z</time>
      </trkpt>
      <trkpt lat="47.92581" lon="6.962">
        <ele>487</ele>
        <time>2026-05-09T15:13:39.997Z</time>
      </trkpt>
      <trkpt lat="47.92579" lon="6.962">
        <ele>487</ele>
        <time>2026-05-09T15:13:40.998Z</time>
      </trkpt>
      <trkpt lat="47.92577" lon="6.96199">
        <ele>488</ele>
        <time>2026-05-09T15:13:41.997Z</time>
      </trkpt>
      <trkpt lat="47.92576" lon="6.96199">
        <ele>488</ele>
        <time>2026-05-09T15:13:42.997Z</time>
      </trkpt>
      <trkpt lat="47.92574" lon="6.96198">
        <ele>488</ele>
        <time>2026-05-09T15:13:43.998Z</time>
      </trkpt>
      <trkpt lat="47.92572" lon="6.96197">
        <ele>488</ele>
        <time>2026-05-09T15:13:44.998Z</time>
      </trkpt>
      <trkpt lat="47.92571" lon="6.96197">
        <ele>489</ele>
        <time>2026-05-09T15:13:45.997Z</time>
      </trkpt>
      <trkpt lat="47.9257" lon="6.96196">
        <ele>489</ele>
        <time>2026-05-09T15:13:46.997Z</time>
      </trkpt>
      <trkpt lat="47.92568" lon="6.96195">
        <ele>488</ele>
        <time>2026-05-09T15:13:47.997Z</time>
      </trkpt>
      <trkpt lat="47.92567" lon="6.96195">
        <ele>488</ele>
        <time>2026-05-09T15:13:48.998Z</time>
      </trkpt>
      <trkpt lat="47.92566" lon="6.96195">
        <ele>488</ele>
        <time>2026-05-09T15:13:49.998Z</time>
      </trkpt>
      <trkpt lat="47.92564" lon="6.96194">
        <ele>488</ele>
        <time>2026-05-09T15:13:50.997Z</time>
      </trkpt>
      <trkpt lat="47.92563" lon="6.96194">
        <ele>488</ele>
        <time>2026-05-09T15:13:51.998Z</time>
      </trkpt>
      <trkpt lat="47.92561" lon="6.96194">
        <ele>488</ele>
        <time>2026-05-09T15:13:52.998Z</time>
      </trkpt>
      <trkpt lat="47.92559" lon="6.96194">
        <ele>488</ele>
        <time>2026-05-09T15:13:53.998Z</time>
      </trkpt>
      <trkpt lat="47.92558" lon="6.96193">
        <ele>488</ele>
        <time>2026-05-09T15:13:54.997Z</time>
      </trkpt>
      <trkpt lat="47.92556" lon="6.96193">
        <ele>488</ele>
        <time>2026-05-09T15:13:55.997Z</time>
      </trkpt>
      <trkpt lat="47.92555" lon="6.96193">
        <ele>487</ele>
        <time>2026-05-09T15:13:56.997Z</time>
      </trkpt>
      <trkpt lat="47.92553" lon="6.96192">
        <ele>487</ele>
        <time>2026-05-09T15:13:57.998Z</time>
      </trkpt>
      <trkpt lat="47.92552" lon="6.96192">
        <ele>487</ele>
        <time>2026-05-09T15:13:58.997Z</time>
      </trkpt>
      <trkpt lat="47.9255" lon="6.96191">
        <ele>487</ele>
        <time>2026-05-09T15:13:59.997Z</time>
      </trkpt>
      <trkpt lat="47.92549" lon="6.96191">
        <ele>487</ele>
        <time>2026-05-09T15:14:00.997Z</time>
      </trkpt>
      <trkpt lat="47.92548" lon="6.9619">
        <ele>488</ele>
        <time>2026-05-09T15:14:01.997Z</time>
      </trkpt>
      <trkpt lat="47.92547" lon="6.96189">
        <ele>488</ele>
        <time>2026-05-09T15:14:02.998Z</time>
      </trkpt>
      <trkpt lat="47.92547" lon="6.96188">
        <ele>488</ele>
        <time>2026-05-09T15:14:03.998Z</time>
      </trkpt>
      <trkpt lat="47.92547" lon="6.96186">
        <ele>489</ele>
        <time>2026-05-09T15:14:04.997Z</time>
      </trkpt>
      <trkpt lat="47.92547" lon="6.96184">
        <ele>489</ele>
        <time>2026-05-09T15:14:05.997Z</time>
      </trkpt>
      <trkpt lat="47.92547" lon="6.96183">
        <ele>489</ele>
        <time>2026-05-09T15:14:06.997Z</time>
      </trkpt>
      <trkpt lat="47.92547" lon="6.96182">
        <ele>489</ele>
        <time>2026-05-09T15:14:07.998Z</time>
      </trkpt>
      <trkpt lat="47.92547" lon="6.96181">
        <ele>489</ele>
        <time>2026-05-09T15:14:08.997Z</time>
      </trkpt>
      <trkpt lat="47.92548" lon="6.96181">
        <ele>489</ele>
        <time>2026-05-09T15:14:09.998Z</time>
      </trkpt>
      <trkpt lat="47.92548" lon="6.96181">
        <ele>489</ele>
        <time>2026-05-09T15:14:10.998Z</time>
      </trkpt>
      <trkpt lat="47.92548" lon="6.96181">
        <ele>489</ele>
        <time>2026-05-09T15:14:21.323Z</time>
      </trkpt>
      <trkpt lat="47.92548" lon="6.96181">
        <ele>489</ele>
        <time>2026-05-09T15:14:22.323Z</time>
      </trkpt>
      <trkpt lat="47.92548" lon="6.96181">
        <ele>488</ele>
        <time>2026-05-09T15:14:23.324Z</time>
      </trkpt>
      <trkpt lat="47.92548" lon="6.96181">
        <ele>488</ele>
        <time>2026-05-09T15:14:24.324Z</time>
      </trkpt>
      <trkpt lat="47.92548" lon="6.96181">
        <ele>488</ele>
        <time>2026-05-09T15:14:25.324Z</time>
      </trkpt>
      <trkpt lat="47.92548" lon="6.9618">
        <ele>488</ele>
        <time>2026-05-09T15:14:26.324Z</time>
      </trkpt>
      <trkpt lat="47.92548" lon="6.9618">
        <ele>488</ele>
        <time>2026-05-09T15:14:27.323Z</time>
      </trkpt>
      <trkpt lat="47.92547" lon="6.96173">
        <ele>486</ele>
        <time>2026-05-09T15:14:35.488Z</time>
      </trkpt>
      <trkpt lat="47.92547" lon="6.96171">
        <ele>487</ele>
        <time>2026-05-09T15:14:36.488Z</time>
      </trkpt>
      <trkpt lat="47.92547" lon="6.96169">
        <ele>487</ele>
        <time>2026-05-09T15:14:37.488Z</time>
      </trkpt>
      <trkpt lat="47.92547" lon="6.96167">
        <ele>488</ele>
        <time>2026-05-09T15:14:38.488Z</time>
      </trkpt>
      <trkpt lat="47.92547" lon="6.96165">
        <ele>488</ele>
        <time>2026-05-09T15:14:39.489Z</time>
      </trkpt>
      <trkpt lat="47.92547" lon="6.96163">
        <ele>489</ele>
        <time>2026-05-09T15:14:40.489Z</time>
      </trkpt>
      <trkpt lat="47.92547" lon="6.96161">
        <ele>489</ele>
        <time>2026-05-09T15:14:41.489Z</time>
      </trkpt>
      <trkpt lat="47.92547" lon="6.96159">
        <ele>489</ele>
        <time>2026-05-09T15:14:42.489Z</time>
      </trkpt>
      <trkpt lat="47.92547" lon="6.96157">
        <ele>489</ele>
        <time>2026-05-09T15:14:43.489Z</time>
      </trkpt>
      <trkpt lat="47.92547" lon="6.96154">
        <ele>489</ele>
        <time>2026-05-09T15:14:44.488Z</time>
      </trkpt>
      <trkpt lat="47.92547" lon="6.96152">
        <ele>489</ele>
        <time>2026-05-09T15:14:45.488Z</time>
      </trkpt>
      <trkpt lat="47.92547" lon="6.9615">
        <ele>489</ele>
        <time>2026-05-09T15:14:46.489Z</time>
      </trkpt>
      <trkpt lat="47.92547" lon="6.96147">
        <ele>489</ele>
        <time>2026-05-09T15:14:47.488Z</time>
      </trkpt>
      <trkpt lat="47.92546" lon="6.96146">
        <ele>489</ele>
        <time>2026-05-09T15:14:48.489Z</time>
      </trkpt>
      <trkpt lat="47.92546" lon="6.96144">
        <ele>489</ele>
        <time>2026-05-09T15:14:49.488Z</time>
      </trkpt>
      <trkpt lat="47.92546" lon="6.96142">
        <ele>489</ele>
        <time>2026-05-09T15:14:50.488Z</time>
      </trkpt>
      <trkpt lat="47.92545" lon="6.9614">
        <ele>489</ele>
        <time>2026-05-09T15:14:51.489Z</time>
      </trkpt>
      <trkpt lat="47.92545" lon="6.96137">
        <ele>489</ele>
        <time>2026-05-09T15:14:52.489Z</time>
      </trkpt>
      <trkpt lat="47.92545" lon="6.96135">
        <ele>489</ele>
        <time>2026-05-09T15:14:53.488Z</time>
      </trkpt>
      <trkpt lat="47.92545" lon="6.96133">
        <ele>489</ele>
        <time>2026-05-09T15:14:54.488Z</time>
      </trkpt>
      <trkpt lat="47.92545" lon="6.96131">
        <ele>489</ele>
        <time>2026-05-09T15:14:55.489Z</time>
      </trkpt>
      <trkpt lat="47.92545" lon="6.9613">
        <ele>488</ele>
        <time>2026-05-09T15:14:56.488Z</time>
      </trkpt>
      <trkpt lat="47.92544" lon="6.96128">
        <ele>488</ele>
        <time>2026-05-09T15:14:57.489Z</time>
      </trkpt>
      <trkpt lat="47.92543" lon="6.96126">
        <ele>488</ele>
        <time>2026-05-09T15:14:58.488Z</time>
      </trkpt>
      <trkpt lat="47.92542" lon="6.96125">
        <ele>488</ele>
        <time>2026-05-09T15:14:59.488Z</time>
      </trkpt>
      <trkpt lat="47.92541" lon="6.96124">
        <ele>489</ele>
        <time>2026-05-09T15:15:00.489Z</time>
      </trkpt>
      <trkpt lat="47.9254" lon="6.96122">
        <ele>489</ele>
        <time>2026-05-09T15:15:01.489Z</time>
      </trkpt>
      <trkpt lat="47.92539" lon="6.96121">
        <ele>489</ele>
        <time>2026-05-09T15:15:02.489Z</time>
      </trkpt>
      <trkpt lat="47.92537" lon="6.9612">
        <ele>489</ele>
        <time>2026-05-09T15:15:03.489Z</time>
      </trkpt>
      <trkpt lat="47.92535" lon="6.96119">
        <ele>489</ele>
        <time>2026-05-09T15:15:04.489Z</time>
      </trkpt>
      <trkpt lat="47.92534" lon="6.96119">
        <ele>489</ele>
        <time>2026-05-09T15:15:05.489Z</time>
      </trkpt>
      <trkpt lat="47.92532" lon="6.96118">
        <ele>489</ele>
        <time>2026-05-09T15:15:06.489Z</time>
      </trkpt>
      <trkpt lat="47.92531" lon="6.96118">
        <ele>488</ele>
        <time>2026-05-09T15:15:07.488Z</time>
      </trkpt>
      <trkpt lat="47.9253" lon="6.96117">
        <ele>488</ele>
        <time>2026-05-09T15:15:08.489Z</time>
      </trkpt>
      <trkpt lat="47.92528" lon="6.96117">
        <ele>488</ele>
        <time>2026-05-09T15:15:09.489Z</time>
      </trkpt>
      <trkpt lat="47.92527" lon="6.96117">
        <ele>488</ele>
        <time>2026-05-09T15:15:10.488Z</time>
      </trkpt>
      <trkpt lat="47.92525" lon="6.96117">
        <ele>488</ele>
        <time>2026-05-09T15:15:11.488Z</time>
      </trkpt>
      <trkpt lat="47.92524" lon="6.96117">
        <ele>488</ele>
        <time>2026-05-09T15:15:12.488Z</time>
      </trkpt>
      <trkpt lat="47.92523" lon="6.96116">
        <ele>488</ele>
        <time>2026-05-09T15:15:13.488Z</time>
      </trkpt>
      <trkpt lat="47.92522" lon="6.96116">
        <ele>488</ele>
        <time>2026-05-09T15:15:14.488Z</time>
      </trkpt>
      <trkpt lat="47.9252" lon="6.96116">
        <ele>488</ele>
        <time>2026-05-09T15:15:15.488Z</time>
      </trkpt>
      <trkpt lat="47.92518" lon="6.96115">
        <ele>488</ele>
        <time>2026-05-09T15:15:16.488Z</time>
      </trkpt>
      <trkpt lat="47.92517" lon="6.96114">
        <ele>489</ele>
        <time>2026-05-09T15:15:17.488Z</time>
      </trkpt>
      <trkpt lat="47.92516" lon="6.96113">
        <ele>489</ele>
        <time>2026-05-09T15:15:18.489Z</time>
      </trkpt>
      <trkpt lat="47.92515" lon="6.96111">
        <ele>489</ele>
        <time>2026-05-09T15:15:19.489Z</time>
      </trkpt>
      <trkpt lat="47.92514" lon="6.96109">
        <ele>489</ele>
        <time>2026-05-09T15:15:20.489Z</time>
      </trkpt>
      <trkpt lat="47.92514" lon="6.96107">
        <ele>489</ele>
        <time>2026-05-09T15:15:21.489Z</time>
      </trkpt>
      <trkpt lat="47.92514" lon="6.96103">
        <ele>489</ele>
        <time>2026-05-09T15:15:22.489Z</time>
      </trkpt>
      <trkpt lat="47.92514" lon="6.96101">
        <ele>488</ele>
        <time>2026-05-09T15:15:23.489Z</time>
      </trkpt>
      <trkpt lat="47.92514" lon="6.96099">
        <ele>488</ele>
        <time>2026-05-09T15:15:24.489Z</time>
      </trkpt>
      <trkpt lat="47.92514" lon="6.96096">
        <ele>488</ele>
        <time>2026-05-09T15:15:25.489Z</time>
      </trkpt>
      <trkpt lat="47.92514" lon="6.96094">
        <ele>488</ele>
        <time>2026-05-09T15:15:26.489Z</time>
      </trkpt>
      <trkpt lat="47.92514" lon="6.96092">
        <ele>487</ele>
        <time>2026-05-09T15:15:27.488Z</time>
      </trkpt>
      <trkpt lat="47.92514" lon="6.96091">
        <ele>487</ele>
        <time>2026-05-09T15:15:28.488Z</time>
      </trkpt>
      <trkpt lat="47.92514" lon="6.96089">
        <ele>487</ele>
        <time>2026-05-09T15:15:29.488Z</time>
      </trkpt>
      <trkpt lat="47.92514" lon="6.96087">
        <ele>486</ele>
        <time>2026-05-09T15:15:30.488Z</time>
      </trkpt>
      <trkpt lat="47.92513" lon="6.96085">
        <ele>486</ele>
        <time>2026-05-09T15:15:31.488Z</time>
      </trkpt>
      <trkpt lat="47.92513" lon="6.96084">
        <ele>486</ele>
        <time>2026-05-09T15:15:32.488Z</time>
      </trkpt>
      <trkpt lat="47.92512" lon="6.96082">
        <ele>486</ele>
        <time>2026-05-09T15:15:33.488Z</time>
      </trkpt>
      <trkpt lat="47.92512" lon="6.9608">
        <ele>487</ele>
        <time>2026-05-09T15:15:34.489Z</time>
      </trkpt>
      <trkpt lat="47.92512" lon="6.96078">
        <ele>487</ele>
        <time>2026-05-09T15:15:35.489Z</time>
      </trkpt>
      <trkpt lat="47.92512" lon="6.96076">
        <ele>487</ele>
        <time>2026-05-09T15:15:36.489Z</time>
      </trkpt>
      <trkpt lat="47.92511" lon="6.96074">
        <ele>487</ele>
        <time>2026-05-09T15:15:37.489Z</time>
      </trkpt>
      <trkpt lat="47.92511" lon="6.96072">
        <ele>487</ele>
        <time>2026-05-09T15:15:38.488Z</time>
      </trkpt>
      <trkpt lat="47.92511" lon="6.9607">
        <ele>487</ele>
        <time>2026-05-09T15:15:39.488Z</time>
      </trkpt>
      <trkpt lat="47.92511" lon="6.96067">
        <ele>487</ele>
        <time>2026-05-09T15:15:40.488Z</time>
      </trkpt>
      <trkpt lat="47.9251" lon="6.96065">
        <ele>487</ele>
        <time>2026-05-09T15:15:41.488Z</time>
      </trkpt>
      <trkpt lat="47.9251" lon="6.96063">
        <ele>487</ele>
        <time>2026-05-09T15:15:42.489Z</time>
      </trkpt>
      <trkpt lat="47.9251" lon="6.96061">
        <ele>487</ele>
        <time>2026-05-09T15:15:43.489Z</time>
      </trkpt>
      <trkpt lat="47.92509" lon="6.96058">
        <ele>487</ele>
        <time>2026-05-09T15:15:44.489Z</time>
      </trkpt>
      <trkpt lat="47.92509" lon="6.96056">
        <ele>487</ele>
        <time>2026-05-09T15:15:45.489Z</time>
      </trkpt>
      <trkpt lat="47.92509" lon="6.96054">
        <ele>487</ele>
        <time>2026-05-09T15:15:46.488Z</time>
      </trkpt>
      <trkpt lat="47.92508" lon="6.96052">
        <ele>487</ele>
        <time>2026-05-09T15:15:47.489Z</time>
      </trkpt>
      <trkpt lat="47.92508" lon="6.9605">
        <ele>487</ele>
        <time>2026-05-09T15:15:48.489Z</time>
      </trkpt>
      <trkpt lat="47.92507" lon="6.96048">
        <ele>488</ele>
        <time>2026-05-09T15:15:49.489Z</time>
      </trkpt>
      <trkpt lat="47.92507" lon="6.96047">
        <ele>488</ele>
        <time>2026-05-09T15:15:50.489Z</time>
      </trkpt>
      <trkpt lat="47.92506" lon="6.96046">
        <ele>488</ele>
        <time>2026-05-09T15:15:51.488Z</time>
      </trkpt>
      <trkpt lat="47.92506" lon="6.96044">
        <ele>489</ele>
        <time>2026-05-09T15:15:52.488Z</time>
      </trkpt>
      <trkpt lat="47.92505" lon="6.96043">
        <ele>489</ele>
        <time>2026-05-09T15:15:53.488Z</time>
      </trkpt>
      <trkpt lat="47.92505" lon="6.96041">
        <ele>489</ele>
        <time>2026-05-09T15:15:54.489Z</time>
      </trkpt>
      <trkpt lat="47.92505" lon="6.9604">
        <ele>489</ele>
        <time>2026-05-09T15:15:55.488Z</time>
      </trkpt>
      <trkpt lat="47.92504" lon="6.96039">
        <ele>489</ele>
        <time>2026-05-09T15:15:56.489Z</time>
      </trkpt>
      <trkpt lat="47.92503" lon="6.96037">
        <ele>489</ele>
        <time>2026-05-09T15:15:57.489Z</time>
      </trkpt>
      <trkpt lat="47.92503" lon="6.96035">
        <ele>489</ele>
        <time>2026-05-09T15:15:58.489Z</time>
      </trkpt>
      <trkpt lat="47.92503" lon="6.96033">
        <ele>488</ele>
        <time>2026-05-09T15:15:59.489Z</time>
      </trkpt>
      <trkpt lat="47.92503" lon="6.96032">
        <ele>488</ele>
        <time>2026-05-09T15:16:00.489Z</time>
      </trkpt>
      <trkpt lat="47.92502" lon="6.9603">
        <ele>488</ele>
        <time>2026-05-09T15:16:01.489Z</time>
      </trkpt>
      <trkpt lat="47.92501" lon="6.96029">
        <ele>488</ele>
        <time>2026-05-09T15:16:02.489Z</time>
      </trkpt>
      <trkpt lat="47.92501" lon="6.96028">
        <ele>488</ele>
        <time>2026-05-09T15:16:03.488Z</time>
      </trkpt>
      <trkpt lat="47.925" lon="6.96026">
        <ele>488</ele>
        <time>2026-05-09T15:16:04.488Z</time>
      </trkpt>
      <trkpt lat="47.92499" lon="6.96024">
        <ele>488</ele>
        <time>2026-05-09T15:16:05.488Z</time>
      </trkpt>
      <trkpt lat="47.92499" lon="6.96022">
        <ele>488</ele>
        <time>2026-05-09T15:16:06.489Z</time>
      </trkpt>
      <trkpt lat="47.92499" lon="6.96021">
        <ele>488</ele>
        <time>2026-05-09T15:16:07.489Z</time>
      </trkpt>
      <trkpt lat="47.92498" lon="6.96019">
        <ele>488</ele>
        <time>2026-05-09T15:16:08.489Z</time>
      </trkpt>
      <trkpt lat="47.92497" lon="6.96018">
        <ele>488</ele>
        <time>2026-05-09T15:16:09.489Z</time>
      </trkpt>
      <trkpt lat="47.92496" lon="6.96016">
        <ele>488</ele>
        <time>2026-05-09T15:16:10.488Z</time>
      </trkpt>
      <trkpt lat="47.92496" lon="6.96015">
        <ele>488</ele>
        <time>2026-05-09T15:16:11.488Z</time>
      </trkpt>
      <trkpt lat="47.92495" lon="6.96013">
        <ele>488</ele>
        <time>2026-05-09T15:16:12.489Z</time>
      </trkpt>
      <trkpt lat="47.92494" lon="6.96011">
        <ele>488</ele>
        <time>2026-05-09T15:16:13.488Z</time>
      </trkpt>
      <trkpt lat="47.92494" lon="6.9601">
        <ele>488</ele>
        <time>2026-05-09T15:16:14.489Z</time>
      </trkpt>
      <trkpt lat="47.92494" lon="6.96009">
        <ele>489</ele>
        <time>2026-05-09T15:16:15.488Z</time>
      </trkpt>
      <trkpt lat="47.92493" lon="6.96007">
        <ele>489</ele>
        <time>2026-05-09T15:16:16.488Z</time>
      </trkpt>
      <trkpt lat="47.92492" lon="6.96005">
        <ele>489</ele>
        <time>2026-05-09T15:16:17.489Z</time>
      </trkpt>
      <trkpt lat="47.92491" lon="6.96004">
        <ele>489</ele>
        <time>2026-05-09T15:16:18.489Z</time>
      </trkpt>
      <trkpt lat="47.92491" lon="6.96002">
        <ele>490</ele>
        <time>2026-05-09T15:16:19.489Z</time>
      </trkpt>
      <trkpt lat="47.9249" lon="6.96001">
        <ele>490</ele>
        <time>2026-05-09T15:16:20.489Z</time>
      </trkpt>
      <trkpt lat="47.92489" lon="6.95999">
        <ele>490</ele>
        <time>2026-05-09T15:16:21.489Z</time>
      </trkpt>
      <trkpt lat="47.92488" lon="6.95998">
        <ele>490</ele>
        <time>2026-05-09T15:16:22.488Z</time>
      </trkpt>
      <trkpt lat="47.92487" lon="6.95997">
        <ele>491</ele>
        <time>2026-05-09T15:16:23.489Z</time>
      </trkpt>
      <trkpt lat="47.92485" lon="6.95997">
        <ele>491</ele>
        <time>2026-05-09T15:16:24.488Z</time>
      </trkpt>
      <trkpt lat="47.92484" lon="6.95997">
        <ele>491</ele>
        <time>2026-05-09T15:16:25.488Z</time>
      </trkpt>
      <trkpt lat="47.92483" lon="6.95996">
        <ele>492</ele>
        <time>2026-05-09T15:16:26.488Z</time>
      </trkpt>
      <trkpt lat="47.92482" lon="6.95994">
        <ele>492</ele>
        <time>2026-05-09T15:16:27.489Z</time>
      </trkpt>
      <trkpt lat="47.9248" lon="6.95992">
        <ele>492</ele>
        <time>2026-05-09T15:16:28.488Z</time>
      </trkpt>
      <trkpt lat="47.92479" lon="6.95991">
        <ele>492</ele>
        <time>2026-05-09T15:16:29.488Z</time>
      </trkpt>
      <trkpt lat="47.92478" lon="6.95989">
        <ele>493</ele>
        <time>2026-05-09T15:16:30.489Z</time>
      </trkpt>
      <trkpt lat="47.92477" lon="6.95988">
        <ele>493</ele>
        <time>2026-05-09T15:16:31.489Z</time>
      </trkpt>
      <trkpt lat="47.92475" lon="6.95986">
        <ele>493</ele>
        <time>2026-05-09T15:16:32.489Z</time>
      </trkpt>
      <trkpt lat="47.92474" lon="6.95985">
        <ele>493</ele>
        <time>2026-05-09T15:16:33.489Z</time>
      </trkpt>
      <trkpt lat="47.92473" lon="6.95984">
        <ele>493</ele>
        <time>2026-05-09T15:16:34.489Z</time>
      </trkpt>
      <trkpt lat="47.92472" lon="6.95984">
        <ele>494</ele>
        <time>2026-05-09T15:16:35.489Z</time>
      </trkpt>
      <trkpt lat="47.92471" lon="6.95984">
        <ele>494</ele>
        <time>2026-05-09T15:16:36.489Z</time>
      </trkpt>
      <trkpt lat="47.92469" lon="6.95984">
        <ele>495</ele>
        <time>2026-05-09T15:16:37.489Z</time>
      </trkpt>
      <trkpt lat="47.92468" lon="6.95983">
        <ele>496</ele>
        <time>2026-05-09T15:16:38.489Z</time>
      </trkpt>
      <trkpt lat="47.92467" lon="6.95983">
        <ele>497</ele>
        <time>2026-05-09T15:16:39.488Z</time>
      </trkpt>
      <trkpt lat="47.92464" lon="6.95985">
        <ele>498</ele>
        <time>2026-05-09T15:16:40.488Z</time>
      </trkpt>
      <trkpt lat="47.92463" lon="6.95986">
        <ele>498</ele>
        <time>2026-05-09T15:16:41.488Z</time>
      </trkpt>
      <trkpt lat="47.92461" lon="6.95987">
        <ele>499</ele>
        <time>2026-05-09T15:16:42.489Z</time>
      </trkpt>
      <trkpt lat="47.9246" lon="6.95987">
        <ele>499</ele>
        <time>2026-05-09T15:16:43.489Z</time>
      </trkpt>
      <trkpt lat="47.92458" lon="6.95986">
        <ele>499</ele>
        <time>2026-05-09T15:16:44.489Z</time>
      </trkpt>
      <trkpt lat="47.92457" lon="6.95985">
        <ele>500</ele>
        <time>2026-05-09T15:16:45.489Z</time>
      </trkpt>
      <trkpt lat="47.92455" lon="6.95984">
        <ele>500</ele>
        <time>2026-05-09T15:16:46.489Z</time>
      </trkpt>
      <trkpt lat="47.92454" lon="6.95983">
        <ele>500</ele>
        <time>2026-05-09T15:16:47.488Z</time>
      </trkpt>
      <trkpt lat="47.92452" lon="6.95983">
        <ele>501</ele>
        <time>2026-05-09T15:16:48.488Z</time>
      </trkpt>
      <trkpt lat="47.92451" lon="6.95983">
        <ele>501</ele>
        <time>2026-05-09T15:16:49.488Z</time>
      </trkpt>
      <trkpt lat="47.9245" lon="6.95983">
        <ele>500</ele>
        <time>2026-05-09T15:16:50.488Z</time>
      </trkpt>
      <trkpt lat="47.92449" lon="6.95983">
        <ele>500</ele>
        <time>2026-05-09T15:16:51.488Z</time>
      </trkpt>
      <trkpt lat="47.92447" lon="6.95983">
        <ele>500</ele>
        <time>2026-05-09T15:16:52.488Z</time>
      </trkpt>
      <trkpt lat="47.92446" lon="6.95984">
        <ele>500</ele>
        <time>2026-05-09T15:16:53.488Z</time>
      </trkpt>
      <trkpt lat="47.92445" lon="6.95985">
        <ele>500</ele>
        <time>2026-05-09T15:16:54.488Z</time>
      </trkpt>
      <trkpt lat="47.92443" lon="6.95986">
        <ele>500</ele>
        <time>2026-05-09T15:16:55.489Z</time>
      </trkpt>
      <trkpt lat="47.92442" lon="6.95986">
        <ele>500</ele>
        <time>2026-05-09T15:16:56.489Z</time>
      </trkpt>
      <trkpt lat="47.9244" lon="6.95986">
        <ele>500</ele>
        <time>2026-05-09T15:16:57.488Z</time>
      </trkpt>
      <trkpt lat="47.92439" lon="6.95986">
        <ele>500</ele>
        <time>2026-05-09T15:16:58.489Z</time>
      </trkpt>
      <trkpt lat="47.92438" lon="6.95986">
        <ele>499</ele>
        <time>2026-05-09T15:16:59.489Z</time>
      </trkpt>
      <trkpt lat="47.92436" lon="6.95986">
        <ele>499</ele>
        <time>2026-05-09T15:17:00.489Z</time>
      </trkpt>
      <trkpt lat="47.92435" lon="6.95986">
        <ele>499</ele>
        <time>2026-05-09T15:17:01.489Z</time>
      </trkpt>
      <trkpt lat="47.92433" lon="6.95986">
        <ele>499</ele>
        <time>2026-05-09T15:17:02.489Z</time>
      </trkpt>
      <trkpt lat="47.92432" lon="6.95987">
        <ele>499</ele>
        <time>2026-05-09T15:17:03.489Z</time>
      </trkpt>
      <trkpt lat="47.92431" lon="6.95987">
        <ele>499</ele>
        <time>2026-05-09T15:17:04.488Z</time>
      </trkpt>
      <trkpt lat="47.9243" lon="6.95987">
        <ele>499</ele>
        <time>2026-05-09T15:17:05.488Z</time>
      </trkpt>
      <trkpt lat="47.92429" lon="6.95987">
        <ele>499</ele>
        <time>2026-05-09T15:17:06.488Z</time>
      </trkpt>
      <trkpt lat="47.92428" lon="6.95988">
        <ele>499</ele>
        <time>2026-05-09T15:17:07.488Z</time>
      </trkpt>
      <trkpt lat="47.92427" lon="6.95988">
        <ele>499</ele>
        <time>2026-05-09T15:17:08.488Z</time>
      </trkpt>
      <trkpt lat="47.92426" lon="6.95988">
        <ele>499</ele>
        <time>2026-05-09T15:17:09.488Z</time>
      </trkpt>
      <trkpt lat="47.92425" lon="6.95988">
        <ele>499</ele>
        <time>2026-05-09T15:17:10.488Z</time>
      </trkpt>
      <trkpt lat="47.92423" lon="6.95988">
        <ele>499</ele>
        <time>2026-05-09T15:17:11.489Z</time>
      </trkpt>
      <trkpt lat="47.92422" lon="6.95988">
        <ele>499</ele>
        <time>2026-05-09T15:17:12.489Z</time>
      </trkpt>
      <trkpt lat="47.92421" lon="6.95988">
        <ele>499</ele>
        <time>2026-05-09T15:17:13.489Z</time>
      </trkpt>
      <trkpt lat="47.9242" lon="6.95989">
        <ele>499</ele>
        <time>2026-05-09T15:17:14.488Z</time>
      </trkpt>
      <trkpt lat="47.92419" lon="6.95989">
        <ele>499</ele>
        <time>2026-05-09T15:17:15.489Z</time>
      </trkpt>
      <trkpt lat="47.92418" lon="6.95989">
        <ele>499</ele>
        <time>2026-05-09T15:17:16.489Z</time>
      </trkpt>
      <trkpt lat="47.92416" lon="6.95989">
        <ele>499</ele>
        <time>2026-05-09T15:17:17.489Z</time>
      </trkpt>
      <trkpt lat="47.92415" lon="6.95989">
        <ele>499</ele>
        <time>2026-05-09T15:17:18.489Z</time>
      </trkpt>
      <trkpt lat="47.92414" lon="6.95988">
        <ele>498</ele>
        <time>2026-05-09T15:17:19.489Z</time>
      </trkpt>
      <trkpt lat="47.92412" lon="6.95989">
        <ele>498</ele>
        <time>2026-05-09T15:17:20.489Z</time>
      </trkpt>
      <trkpt lat="47.92411" lon="6.95988">
        <ele>498</ele>
        <time>2026-05-09T15:17:21.488Z</time>
      </trkpt>
      <trkpt lat="47.92409" lon="6.95988">
        <ele>498</ele>
        <time>2026-05-09T15:17:22.488Z</time>
      </trkpt>
      <trkpt lat="47.92408" lon="6.95989">
        <ele>498</ele>
        <time>2026-05-09T15:17:23.488Z</time>
      </trkpt>
      <trkpt lat="47.92406" lon="6.95989">
        <ele>498</ele>
        <time>2026-05-09T15:17:24.488Z</time>
      </trkpt>
      <trkpt lat="47.92404" lon="6.9599">
        <ele>497</ele>
        <time>2026-05-09T15:17:25.488Z</time>
      </trkpt>
      <trkpt lat="47.92403" lon="6.95989">
        <ele>497</ele>
        <time>2026-05-09T15:17:26.489Z</time>
      </trkpt>
      <trkpt lat="47.92401" lon="6.95989">
        <ele>496</ele>
        <time>2026-05-09T15:17:27.489Z</time>
      </trkpt>
      <trkpt lat="47.924" lon="6.95989">
        <ele>496</ele>
        <time>2026-05-09T15:17:28.488Z</time>
      </trkpt>
      <trkpt lat="47.92399" lon="6.95988">
        <ele>496</ele>
        <time>2026-05-09T15:17:29.488Z</time>
      </trkpt>
      <trkpt lat="47.92397" lon="6.95988">
        <ele>495</ele>
        <time>2026-05-09T15:17:30.488Z</time>
      </trkpt>
      <trkpt lat="47.92396" lon="6.95987">
        <ele>495</ele>
        <time>2026-05-09T15:17:31.488Z</time>
      </trkpt>
      <trkpt lat="47.92394" lon="6.95987">
        <ele>494</ele>
        <time>2026-05-09T15:17:32.488Z</time>
      </trkpt>
      <trkpt lat="47.92393" lon="6.95987">
        <ele>493</ele>
        <time>2026-05-09T15:17:33.488Z</time>
      </trkpt>
      <trkpt lat="47.92391" lon="6.95987">
        <ele>493</ele>
        <time>2026-05-09T15:17:34.488Z</time>
      </trkpt>
      <trkpt lat="47.9239" lon="6.95986">
        <ele>492</ele>
        <time>2026-05-09T15:17:35.488Z</time>
      </trkpt>
      <trkpt lat="47.92388" lon="6.95986">
        <ele>492</ele>
        <time>2026-05-09T15:17:36.489Z</time>
      </trkpt>
      <trkpt lat="47.92387" lon="6.95986">
        <ele>492</ele>
        <time>2026-05-09T15:17:37.489Z</time>
      </trkpt>
      <trkpt lat="47.92385" lon="6.95986">
        <ele>491</ele>
        <time>2026-05-09T15:17:38.489Z</time>
      </trkpt>
      <trkpt lat="47.92384" lon="6.95986">
        <ele>492</ele>
        <time>2026-05-09T15:17:39.489Z</time>
      </trkpt>
      <trkpt lat="47.92382" lon="6.95985">
        <ele>492</ele>
        <time>2026-05-09T15:17:40.489Z</time>
      </trkpt>
      <trkpt lat="47.92381" lon="6.95984">
        <ele>492</ele>
        <time>2026-05-09T15:17:41.489Z</time>
      </trkpt>
      <trkpt lat="47.92379" lon="6.95984">
        <ele>492</ele>
        <time>2026-05-09T15:17:42.489Z</time>
      </trkpt>
      <trkpt lat="47.92377" lon="6.95984">
        <ele>492</ele>
        <time>2026-05-09T15:17:43.489Z</time>
      </trkpt>
      <trkpt lat="47.92376" lon="6.95983">
        <ele>492</ele>
        <time>2026-05-09T15:17:44.489Z</time>
      </trkpt>
      <trkpt lat="47.92374" lon="6.95983">
        <ele>492</ele>
        <time>2026-05-09T15:17:45.488Z</time>
      </trkpt>
      <trkpt lat="47.92373" lon="6.95983">
        <ele>492</ele>
        <time>2026-05-09T15:17:46.488Z</time>
      </trkpt>
      <trkpt lat="47.92371" lon="6.95984">
        <ele>492</ele>
        <time>2026-05-09T15:17:47.488Z</time>
      </trkpt>
      <trkpt lat="47.9237" lon="6.95984">
        <ele>492</ele>
        <time>2026-05-09T15:17:48.488Z</time>
      </trkpt>
      <trkpt lat="47.92369" lon="6.95983">
        <ele>492</ele>
        <time>2026-05-09T15:17:49.488Z</time>
      </trkpt>
      <trkpt lat="47.92367" lon="6.95983">
        <ele>491</ele>
        <time>2026-05-09T15:17:50.489Z</time>
      </trkpt>
      <trkpt lat="47.92366" lon="6.95982">
        <ele>491</ele>
        <time>2026-05-09T15:17:51.489Z</time>
      </trkpt>
      <trkpt lat="47.92365" lon="6.95981">
        <ele>490</ele>
        <time>2026-05-09T15:17:52.489Z</time>
      </trkpt>
      <trkpt lat="47.92364" lon="6.95981">
        <ele>490</ele>
        <time>2026-05-09T15:17:53.489Z</time>
      </trkpt>
      <trkpt lat="47.92362" lon="6.95981">
        <ele>490</ele>
        <time>2026-05-09T15:17:54.488Z</time>
      </trkpt>
      <trkpt lat="47.92361" lon="6.95981">
        <ele>489</ele>
        <time>2026-05-09T15:17:55.488Z</time>
      </trkpt>
      <trkpt lat="47.92359" lon="6.95982">
        <ele>489</ele>
        <time>2026-05-09T15:17:56.488Z</time>
      </trkpt>
      <trkpt lat="47.92357" lon="6.95982">
        <ele>489</ele>
        <time>2026-05-09T15:17:57.488Z</time>
      </trkpt>
      <trkpt lat="47.92356" lon="6.95983">
        <ele>489</ele>
        <time>2026-05-09T15:17:58.488Z</time>
      </trkpt>
      <trkpt lat="47.92354" lon="6.95983">
        <ele>488</ele>
        <time>2026-05-09T15:17:59.488Z</time>
      </trkpt>
      <trkpt lat="47.92353" lon="6.95983">
        <ele>488</ele>
        <time>2026-05-09T15:18:00.488Z</time>
      </trkpt>
      <trkpt lat="47.92352" lon="6.95983">
        <ele>488</ele>
        <time>2026-05-09T15:18:01.488Z</time>
      </trkpt>
      <trkpt lat="47.9235" lon="6.95983">
        <ele>488</ele>
        <time>2026-05-09T15:18:02.489Z</time>
      </trkpt>
      <trkpt lat="47.92349" lon="6.95983">
        <ele>488</ele>
        <time>2026-05-09T15:18:03.489Z</time>
      </trkpt>
      <trkpt lat="47.92348" lon="6.95984">
        <ele>488</ele>
        <time>2026-05-09T15:18:04.489Z</time>
      </trkpt>
      <trkpt lat="47.92346" lon="6.95985">
        <ele>488</ele>
        <time>2026-05-09T15:18:05.489Z</time>
      </trkpt>
      <trkpt lat="47.92345" lon="6.95986">
        <ele>488</ele>
        <time>2026-05-09T15:18:06.488Z</time>
      </trkpt>
      <trkpt lat="47.92343" lon="6.95987">
        <ele>488</ele>
        <time>2026-05-09T15:18:07.488Z</time>
      </trkpt>
      <trkpt lat="47.92342" lon="6.95988">
        <ele>489</ele>
        <time>2026-05-09T15:18:08.488Z</time>
      </trkpt>
      <trkpt lat="47.9234" lon="6.95988">
        <ele>489</ele>
        <time>2026-05-09T15:18:09.488Z</time>
      </trkpt>
      <trkpt lat="47.92339" lon="6.95989">
        <ele>489</ele>
        <time>2026-05-09T15:18:10.489Z</time>
      </trkpt>
      <trkpt lat="47.92337" lon="6.9599">
        <ele>489</ele>
        <time>2026-05-09T15:18:11.489Z</time>
      </trkpt>
      <trkpt lat="47.92336" lon="6.95991">
        <ele>489</ele>
        <time>2026-05-09T15:18:12.489Z</time>
      </trkpt>
      <trkpt lat="47.92335" lon="6.95991">
        <ele>490</ele>
        <time>2026-05-09T15:18:13.488Z</time>
      </trkpt>
      <trkpt lat="47.92334" lon="6.95991">
        <ele>490</ele>
        <time>2026-05-09T15:18:14.489Z</time>
      </trkpt>
      <trkpt lat="47.92333" lon="6.95991">
        <ele>489</ele>
        <time>2026-05-09T15:18:15.489Z</time>
      </trkpt>
      <trkpt lat="47.92332" lon="6.95991">
        <ele>489</ele>
        <time>2026-05-09T15:18:16.488Z</time>
      </trkpt>
      <trkpt lat="47.92331" lon="6.95992">
        <ele>490</ele>
        <time>2026-05-09T15:18:17.488Z</time>
      </trkpt>
      <trkpt lat="47.9233" lon="6.95993">
        <ele>490</ele>
        <time>2026-05-09T15:18:18.488Z</time>
      </trkpt>
      <trkpt lat="47.92329" lon="6.95995">
        <ele>490</ele>
        <time>2026-05-09T15:18:19.488Z</time>
      </trkpt>
      <trkpt lat="47.92328" lon="6.95996">
        <ele>490</ele>
        <time>2026-05-09T15:18:20.488Z</time>
      </trkpt>
      <trkpt lat="47.92327" lon="6.95998">
        <ele>490</ele>
        <time>2026-05-09T15:18:21.488Z</time>
      </trkpt>
      <trkpt lat="47.92326" lon="6.95999">
        <ele>491</ele>
        <time>2026-05-09T15:18:22.488Z</time>
      </trkpt>
      <trkpt lat="47.92324" lon="6.96">
        <ele>491</ele>
        <time>2026-05-09T15:18:23.488Z</time>
      </trkpt>
      <trkpt lat="47.92323" lon="6.96001">
        <ele>491</ele>
        <time>2026-05-09T15:18:24.488Z</time>
      </trkpt>
      <trkpt lat="47.92321" lon="6.96002">
        <ele>490</ele>
        <time>2026-05-09T15:18:25.488Z</time>
      </trkpt>
      <trkpt lat="47.92319" lon="6.96003">
        <ele>490</ele>
        <time>2026-05-09T15:18:26.489Z</time>
      </trkpt>
      <trkpt lat="47.92318" lon="6.96003">
        <ele>490</ele>
        <time>2026-05-09T15:18:27.489Z</time>
      </trkpt>
      <trkpt lat="47.92316" lon="6.96004">
        <ele>490</ele>
        <time>2026-05-09T15:18:28.488Z</time>
      </trkpt>
      <trkpt lat="47.92315" lon="6.96005">
        <ele>490</ele>
        <time>2026-05-09T15:18:29.489Z</time>
      </trkpt>
      <trkpt lat="47.92313" lon="6.96005">
        <ele>490</ele>
        <time>2026-05-09T15:18:30.488Z</time>
      </trkpt>
      <trkpt lat="47.92312" lon="6.96006">
        <ele>491</ele>
        <time>2026-05-09T15:18:31.489Z</time>
      </trkpt>
      <trkpt lat="47.9231" lon="6.96006">
        <ele>490</ele>
        <time>2026-05-09T15:18:32.488Z</time>
      </trkpt>
      <trkpt lat="47.92308" lon="6.96006">
        <ele>490</ele>
        <time>2026-05-09T15:18:33.489Z</time>
      </trkpt>
      <trkpt lat="47.92306" lon="6.96006">
        <ele>490</ele>
        <time>2026-05-09T15:18:34.488Z</time>
      </trkpt>
      <trkpt lat="47.92305" lon="6.96006">
        <ele>490</ele>
        <time>2026-05-09T15:18:35.489Z</time>
      </trkpt>
      <trkpt lat="47.92303" lon="6.96006">
        <ele>490</ele>
        <time>2026-05-09T15:18:36.488Z</time>
      </trkpt>
      <trkpt lat="47.92302" lon="6.96006">
        <ele>489</ele>
        <time>2026-05-09T15:18:37.489Z</time>
      </trkpt>
      <trkpt lat="47.923" lon="6.96006">
        <ele>489</ele>
        <time>2026-05-09T15:18:38.488Z</time>
      </trkpt>
      <trkpt lat="47.92299" lon="6.96006">
        <ele>489</ele>
        <time>2026-05-09T15:18:39.489Z</time>
      </trkpt>
      <trkpt lat="47.92298" lon="6.96006">
        <ele>488</ele>
        <time>2026-05-09T15:18:40.488Z</time>
      </trkpt>
      <trkpt lat="47.92296" lon="6.96006">
        <ele>488</ele>
        <time>2026-05-09T15:18:41.489Z</time>
      </trkpt>
      <trkpt lat="47.92295" lon="6.96007">
        <ele>487</ele>
        <time>2026-05-09T15:18:42.489Z</time>
      </trkpt>
      <trkpt lat="47.92293" lon="6.96008">
        <ele>488</ele>
        <time>2026-05-09T15:18:43.489Z</time>
      </trkpt>
      <trkpt lat="47.92292" lon="6.96009">
        <ele>488</ele>
        <time>2026-05-09T15:18:44.488Z</time>
      </trkpt>
      <trkpt lat="47.92291" lon="6.96009">
        <ele>488</ele>
        <time>2026-05-09T15:18:45.488Z</time>
      </trkpt>
      <trkpt lat="47.92289" lon="6.9601">
        <ele>488</ele>
        <time>2026-05-09T15:18:46.489Z</time>
      </trkpt>
      <trkpt lat="47.92288" lon="6.9601">
        <ele>488</ele>
        <time>2026-05-09T15:18:47.488Z</time>
      </trkpt>
      <trkpt lat="47.92286" lon="6.9601">
        <ele>488</ele>
        <time>2026-05-09T15:18:48.489Z</time>
      </trkpt>
      <trkpt lat="47.92285" lon="6.96011">
        <ele>488</ele>
        <time>2026-05-09T15:18:49.488Z</time>
      </trkpt>
      <trkpt lat="47.92283" lon="6.96011">
        <ele>487</ele>
        <time>2026-05-09T15:18:50.489Z</time>
      </trkpt>
      <trkpt lat="47.92282" lon="6.96011">
        <ele>487</ele>
        <time>2026-05-09T15:18:51.489Z</time>
      </trkpt>
      <trkpt lat="47.9228" lon="6.96012">
        <ele>487</ele>
        <time>2026-05-09T15:18:52.489Z</time>
      </trkpt>
      <trkpt lat="47.92279" lon="6.96012">
        <ele>486</ele>
        <time>2026-05-09T15:18:53.489Z</time>
      </trkpt>
      <trkpt lat="47.92278" lon="6.96012">
        <ele>486</ele>
        <time>2026-05-09T15:18:54.488Z</time>
      </trkpt>
      <trkpt lat="47.92277" lon="6.96013">
        <ele>486</ele>
        <time>2026-05-09T15:18:55.489Z</time>
      </trkpt>
      <trkpt lat="47.92276" lon="6.96014">
        <ele>486</ele>
        <time>2026-05-09T15:18:56.488Z</time>
      </trkpt>
      <trkpt lat="47.92274" lon="6.96015">
        <ele>486</ele>
        <time>2026-05-09T15:18:57.488Z</time>
      </trkpt>
      <trkpt lat="47.92273" lon="6.96016">
        <ele>486</ele>
        <time>2026-05-09T15:18:58.488Z</time>
      </trkpt>
      <trkpt lat="47.92271" lon="6.96016">
        <ele>486</ele>
        <time>2026-05-09T15:18:59.489Z</time>
      </trkpt>
      <trkpt lat="47.9227" lon="6.96018">
        <ele>486</ele>
        <time>2026-05-09T15:19:00.488Z</time>
      </trkpt>
      <trkpt lat="47.92268" lon="6.9602">
        <ele>487</ele>
        <time>2026-05-09T15:19:01.489Z</time>
      </trkpt>
      <trkpt lat="47.92266" lon="6.9602">
        <ele>487</ele>
        <time>2026-05-09T15:19:02.488Z</time>
      </trkpt>
      <trkpt lat="47.92265" lon="6.96022">
        <ele>487</ele>
        <time>2026-05-09T15:19:03.489Z</time>
      </trkpt>
      <trkpt lat="47.92264" lon="6.96023">
        <ele>488</ele>
        <time>2026-05-09T15:19:04.488Z</time>
      </trkpt>
      <trkpt lat="47.92263" lon="6.96024">
        <ele>487</ele>
        <time>2026-05-09T15:19:05.489Z</time>
      </trkpt>
      <trkpt lat="47.92261" lon="6.96024">
        <ele>487</ele>
        <time>2026-05-09T15:19:06.488Z</time>
      </trkpt>
      <trkpt lat="47.92259" lon="6.96025">
        <ele>486</ele>
        <time>2026-05-09T15:19:07.489Z</time>
      </trkpt>
      <trkpt lat="47.92258" lon="6.96026">
        <ele>486</ele>
        <time>2026-05-09T15:19:08.489Z</time>
      </trkpt>
      <trkpt lat="47.92256" lon="6.96026">
        <ele>486</ele>
        <time>2026-05-09T15:19:09.489Z</time>
      </trkpt>
      <trkpt lat="47.92254" lon="6.96027">
        <ele>486</ele>
        <time>2026-05-09T15:19:10.489Z</time>
      </trkpt>
      <trkpt lat="47.92253" lon="6.96027">
        <ele>485</ele>
        <time>2026-05-09T15:19:11.488Z</time>
      </trkpt>
      <trkpt lat="47.92251" lon="6.96027">
        <ele>485</ele>
        <time>2026-05-09T15:19:12.489Z</time>
      </trkpt>
      <trkpt lat="47.9225" lon="6.96026">
        <ele>485</ele>
        <time>2026-05-09T15:19:13.488Z</time>
      </trkpt>
      <trkpt lat="47.92249" lon="6.96026">
        <ele>485</ele>
        <time>2026-05-09T15:19:14.489Z</time>
      </trkpt>
      <trkpt lat="47.92247" lon="6.96026">
        <ele>485</ele>
        <time>2026-05-09T15:19:15.488Z</time>
      </trkpt>
      <trkpt lat="47.92246" lon="6.96026">
        <ele>485</ele>
        <time>2026-05-09T15:19:16.489Z</time>
      </trkpt>
      <trkpt lat="47.92244" lon="6.96026">
        <ele>484</ele>
        <time>2026-05-09T15:19:17.488Z</time>
      </trkpt>
      <trkpt lat="47.92243" lon="6.96027">
        <ele>485</ele>
        <time>2026-05-09T15:19:18.489Z</time>
      </trkpt>
      <trkpt lat="47.92241" lon="6.96027">
        <ele>485</ele>
        <time>2026-05-09T15:19:19.489Z</time>
      </trkpt>
      <trkpt lat="47.9224" lon="6.96027">
        <ele>485</ele>
        <time>2026-05-09T15:19:20.488Z</time>
      </trkpt>
      <trkpt lat="47.92238" lon="6.96027">
        <ele>485</ele>
        <time>2026-05-09T15:19:21.488Z</time>
      </trkpt>
      <trkpt lat="47.92237" lon="6.96027">
        <ele>485</ele>
        <time>2026-05-09T15:19:22.489Z</time>
      </trkpt>
      <trkpt lat="47.92235" lon="6.96027">
        <ele>485</ele>
        <time>2026-05-09T15:19:23.489Z</time>
      </trkpt>
      <trkpt lat="47.92233" lon="6.96027">
        <ele>485</ele>
        <time>2026-05-09T15:19:24.488Z</time>
      </trkpt>
      <trkpt lat="47.92232" lon="6.96027">
        <ele>484</ele>
        <time>2026-05-09T15:19:25.489Z</time>
      </trkpt>
      <trkpt lat="47.9223" lon="6.96027">
        <ele>484</ele>
        <time>2026-05-09T15:19:26.488Z</time>
      </trkpt>
      <trkpt lat="47.92229" lon="6.96026">
        <ele>484</ele>
        <time>2026-05-09T15:19:27.489Z</time>
      </trkpt>
      <trkpt lat="47.92228" lon="6.96026">
        <ele>484</ele>
        <time>2026-05-09T15:19:28.488Z</time>
      </trkpt>
      <trkpt lat="47.92227" lon="6.96026">
        <ele>484</ele>
        <time>2026-05-09T15:19:29.489Z</time>
      </trkpt>
      <trkpt lat="47.92225" lon="6.96026">
        <ele>484</ele>
        <time>2026-05-09T15:19:30.488Z</time>
      </trkpt>
      <trkpt lat="47.92224" lon="6.96026">
        <ele>484</ele>
        <time>2026-05-09T15:19:31.488Z</time>
      </trkpt>
      <trkpt lat="47.92223" lon="6.96026">
        <ele>484</ele>
        <time>2026-05-09T15:19:32.488Z</time>
      </trkpt>
      <trkpt lat="47.92222" lon="6.96026">
        <ele>485</ele>
        <time>2026-05-09T15:19:33.489Z</time>
      </trkpt>
      <trkpt lat="47.9222" lon="6.96026">
        <ele>485</ele>
        <time>2026-05-09T15:19:34.488Z</time>
      </trkpt>
      <trkpt lat="47.92219" lon="6.96027">
        <ele>485</ele>
        <time>2026-05-09T15:19:35.489Z</time>
      </trkpt>
      <trkpt lat="47.92217" lon="6.96027">
        <ele>485</ele>
        <time>2026-05-09T15:19:36.488Z</time>
      </trkpt>
      <trkpt lat="47.92216" lon="6.96028">
        <ele>485</ele>
        <time>2026-05-09T15:19:37.489Z</time>
      </trkpt>
      <trkpt lat="47.92214" lon="6.96027">
        <ele>485</ele>
        <time>2026-05-09T15:19:38.488Z</time>
      </trkpt>
      <trkpt lat="47.92213" lon="6.96027">
        <ele>485</ele>
        <time>2026-05-09T15:19:39.489Z</time>
      </trkpt>
      <trkpt lat="47.92212" lon="6.96027">
        <ele>485</ele>
        <time>2026-05-09T15:19:40.488Z</time>
      </trkpt>
      <trkpt lat="47.9221" lon="6.96027">
        <ele>485</ele>
        <time>2026-05-09T15:19:41.488Z</time>
      </trkpt>
      <trkpt lat="47.92209" lon="6.96028">
        <ele>484</ele>
        <time>2026-05-09T15:19:42.489Z</time>
      </trkpt>
      <trkpt lat="47.92207" lon="6.96028">
        <ele>484</ele>
        <time>2026-05-09T15:19:43.488Z</time>
      </trkpt>
      <trkpt lat="47.92206" lon="6.96029">
        <ele>484</ele>
        <time>2026-05-09T15:19:44.488Z</time>
      </trkpt>
      <trkpt lat="47.92204" lon="6.96029">
        <ele>484</ele>
        <time>2026-05-09T15:19:45.488Z</time>
      </trkpt>
      <trkpt lat="47.92203" lon="6.9603">
        <ele>484</ele>
        <time>2026-05-09T15:19:46.489Z</time>
      </trkpt>
      <trkpt lat="47.92202" lon="6.9603">
        <ele>485</ele>
        <time>2026-05-09T15:19:47.488Z</time>
      </trkpt>
      <trkpt lat="47.92202" lon="6.96032">
        <ele>485</ele>
        <time>2026-05-09T15:19:48.489Z</time>
      </trkpt>
      <trkpt lat="47.92201" lon="6.96033">
        <ele>486</ele>
        <time>2026-05-09T15:19:49.488Z</time>
      </trkpt>
      <trkpt lat="47.922" lon="6.96037">
        <ele>487</ele>
        <time>2026-05-09T15:19:50.489Z</time>
      </trkpt>
      <trkpt lat="47.92199" lon="6.96039">
        <ele>487</ele>
        <time>2026-05-09T15:19:51.488Z</time>
      </trkpt>
      <trkpt lat="47.92198" lon="6.9604">
        <ele>488</ele>
        <time>2026-05-09T15:19:52.488Z</time>
      </trkpt>
      <trkpt lat="47.92196" lon="6.96041">
        <ele>488</ele>
        <time>2026-05-09T15:19:53.488Z</time>
      </trkpt>
      <trkpt lat="47.92195" lon="6.96041">
        <ele>488</ele>
        <time>2026-05-09T15:19:54.488Z</time>
      </trkpt>
      <trkpt lat="47.92194" lon="6.96041">
        <ele>489</ele>
        <time>2026-05-09T15:19:55.488Z</time>
      </trkpt>
      <trkpt lat="47.92192" lon="6.9604">
        <ele>489</ele>
        <time>2026-05-09T15:19:56.489Z</time>
      </trkpt>
      <trkpt lat="47.92191" lon="6.96039">
        <ele>489</ele>
        <time>2026-05-09T15:19:57.489Z</time>
      </trkpt>
      <trkpt lat="47.9219" lon="6.96039">
        <ele>490</ele>
        <time>2026-05-09T15:19:58.488Z</time>
      </trkpt>
      <trkpt lat="47.92189" lon="6.96038">
        <ele>491</ele>
        <time>2026-05-09T15:19:59.489Z</time>
      </trkpt>
      <trkpt lat="47.92187" lon="6.96037">
        <ele>491</ele>
        <time>2026-05-09T15:20:00.488Z</time>
      </trkpt>
      <trkpt lat="47.92186" lon="6.96036">
        <ele>491</ele>
        <time>2026-05-09T15:20:01.489Z</time>
      </trkpt>
      <trkpt lat="47.92185" lon="6.96036">
        <ele>492</ele>
        <time>2026-05-09T15:20:02.488Z</time>
      </trkpt>
      <trkpt lat="47.92183" lon="6.96036">
        <ele>492</ele>
        <time>2026-05-09T15:20:03.489Z</time>
      </trkpt>
      <trkpt lat="47.92182" lon="6.96036">
        <ele>492</ele>
        <time>2026-05-09T15:20:04.488Z</time>
      </trkpt>
      <trkpt lat="47.92181" lon="6.96035">
        <ele>492</ele>
        <time>2026-05-09T15:20:05.488Z</time>
      </trkpt>
      <trkpt lat="47.92179" lon="6.96035">
        <ele>492</ele>
        <time>2026-05-09T15:20:06.488Z</time>
      </trkpt>
      <trkpt lat="47.92178" lon="6.96035">
        <ele>491</ele>
        <time>2026-05-09T15:20:07.489Z</time>
      </trkpt>
      <trkpt lat="47.92177" lon="6.96035">
        <ele>491</ele>
        <time>2026-05-09T15:20:08.488Z</time>
      </trkpt>
      <trkpt lat="47.92176" lon="6.96035">
        <ele>491</ele>
        <time>2026-05-09T15:20:09.488Z</time>
      </trkpt>
      <trkpt lat="47.92175" lon="6.96036">
        <ele>491</ele>
        <time>2026-05-09T15:20:10.488Z</time>
      </trkpt>
      <trkpt lat="47.92174" lon="6.96035">
        <ele>491</ele>
        <time>2026-05-09T15:20:11.489Z</time>
      </trkpt>
      <trkpt lat="47.92173" lon="6.96035">
        <ele>491</ele>
        <time>2026-05-09T15:20:12.488Z</time>
      </trkpt>
      <trkpt lat="47.92172" lon="6.96035">
        <ele>491</ele>
        <time>2026-05-09T15:20:13.488Z</time>
      </trkpt>
      <trkpt lat="47.92171" lon="6.96035">
        <ele>491</ele>
        <time>2026-05-09T15:20:14.489Z</time>
      </trkpt>
      <trkpt lat="47.92169" lon="6.96034">
        <ele>491</ele>
        <time>2026-05-09T15:20:15.488Z</time>
      </trkpt>
      <trkpt lat="47.92168" lon="6.96034">
        <ele>491</ele>
        <time>2026-05-09T15:20:16.489Z</time>
      </trkpt>
      <trkpt lat="47.92167" lon="6.96035">
        <ele>491</ele>
        <time>2026-05-09T15:20:17.489Z</time>
      </trkpt>
      <trkpt lat="47.92166" lon="6.96035">
        <ele>491</ele>
        <time>2026-05-09T15:20:18.489Z</time>
      </trkpt>
      <trkpt lat="47.92165" lon="6.96034">
        <ele>491</ele>
        <time>2026-05-09T15:20:19.488Z</time>
      </trkpt>
      <trkpt lat="47.92164" lon="6.96034">
        <ele>491</ele>
        <time>2026-05-09T15:20:20.489Z</time>
      </trkpt>
      <trkpt lat="47.92162" lon="6.96034">
        <ele>491</ele>
        <time>2026-05-09T15:20:21.488Z</time>
      </trkpt>
      <trkpt lat="47.9216" lon="6.96034">
        <ele>491</ele>
        <time>2026-05-09T15:20:22.489Z</time>
      </trkpt>
      <trkpt lat="47.92159" lon="6.96035">
        <ele>492</ele>
        <time>2026-05-09T15:20:23.488Z</time>
      </trkpt>
      <trkpt lat="47.92157" lon="6.96035">
        <ele>492</ele>
        <time>2026-05-09T15:20:24.489Z</time>
      </trkpt>
      <trkpt lat="47.92156" lon="6.96035">
        <ele>492</ele>
        <time>2026-05-09T15:20:25.488Z</time>
      </trkpt>
      <trkpt lat="47.92155" lon="6.96035">
        <ele>492</ele>
        <time>2026-05-09T15:20:26.489Z</time>
      </trkpt>
      <trkpt lat="47.92154" lon="6.96035">
        <ele>492</ele>
        <time>2026-05-09T15:20:27.488Z</time>
      </trkpt>
      <trkpt lat="47.92153" lon="6.96034">
        <ele>492</ele>
        <time>2026-05-09T15:20:28.488Z</time>
      </trkpt>
      <trkpt lat="47.92152" lon="6.96034">
        <ele>492</ele>
        <time>2026-05-09T15:20:29.488Z</time>
      </trkpt>
      <trkpt lat="47.92151" lon="6.96033">
        <ele>492</ele>
        <time>2026-05-09T15:20:30.489Z</time>
      </trkpt>
      <trkpt lat="47.9215" lon="6.96032">
        <ele>492</ele>
        <time>2026-05-09T15:20:31.489Z</time>
      </trkpt>
      <trkpt lat="47.92149" lon="6.96032">
        <ele>492</ele>
        <time>2026-05-09T15:20:32.488Z</time>
      </trkpt>
      <trkpt lat="47.92148" lon="6.96032">
        <ele>492</ele>
        <time>2026-05-09T15:20:33.489Z</time>
      </trkpt>
      <trkpt lat="47.92147" lon="6.96032">
        <ele>492</ele>
        <time>2026-05-09T15:20:34.488Z</time>
      </trkpt>
      <trkpt lat="47.92145" lon="6.96032">
        <ele>493</ele>
        <time>2026-05-09T15:20:35.489Z</time>
      </trkpt>
      <trkpt lat="47.92143" lon="6.96033">
        <ele>493</ele>
        <time>2026-05-09T15:20:36.488Z</time>
      </trkpt>
      <trkpt lat="47.92141" lon="6.96033">
        <ele>494</ele>
        <time>2026-05-09T15:20:37.489Z</time>
      </trkpt>
      <trkpt lat="47.92139" lon="6.96034">
        <ele>494</ele>
        <time>2026-05-09T15:20:38.488Z</time>
      </trkpt>
      <trkpt lat="47.92137" lon="6.96034">
        <ele>495</ele>
        <time>2026-05-09T15:20:39.488Z</time>
      </trkpt>
      <trkpt lat="47.92135" lon="6.96035">
        <ele>495</ele>
        <time>2026-05-09T15:20:40.488Z</time>
      </trkpt>
      <trkpt lat="47.92134" lon="6.96036">
        <ele>495</ele>
        <time>2026-05-09T15:20:41.489Z</time>
      </trkpt>
      <trkpt lat="47.92133" lon="6.96038">
        <ele>495</ele>
        <time>2026-05-09T15:20:42.488Z</time>
      </trkpt>
      <trkpt lat="47.9213" lon="6.96039">
        <ele>495</ele>
        <time>2026-05-09T15:20:43.489Z</time>
      </trkpt>
      <trkpt lat="47.92129" lon="6.9604">
        <ele>495</ele>
        <time>2026-05-09T15:20:44.488Z</time>
      </trkpt>
      <trkpt lat="47.92128" lon="6.9604">
        <ele>495</ele>
        <time>2026-05-09T15:20:45.489Z</time>
      </trkpt>
      <trkpt lat="47.92126" lon="6.96041">
        <ele>495</ele>
        <time>2026-05-09T15:20:46.489Z</time>
      </trkpt>
      <trkpt lat="47.92125" lon="6.96041">
        <ele>495</ele>
        <time>2026-05-09T15:20:47.489Z</time>
      </trkpt>
      <trkpt lat="47.92123" lon="6.96042">
        <ele>495</ele>
        <time>2026-05-09T15:20:48.489Z</time>
      </trkpt>
      <trkpt lat="47.92123" lon="6.96042">
        <ele>494</ele>
        <time>2026-05-09T15:20:49.488Z</time>
      </trkpt>
      <trkpt lat="47.92122" lon="6.96042">
        <ele>494</ele>
        <time>2026-05-09T15:20:50.489Z</time>
      </trkpt>
      <trkpt lat="47.9212" lon="6.96043">
        <ele>494</ele>
        <time>2026-05-09T15:20:51.488Z</time>
      </trkpt>
      <trkpt lat="47.92118" lon="6.96043">
        <ele>495</ele>
        <time>2026-05-09T15:20:52.488Z</time>
      </trkpt>
      <trkpt lat="47.92117" lon="6.96043">
        <ele>495</ele>
        <time>2026-05-09T15:20:53.489Z</time>
      </trkpt>
      <trkpt lat="47.92116" lon="6.96043">
        <ele>495</ele>
        <time>2026-05-09T15:20:54.488Z</time>
      </trkpt>
      <trkpt lat="47.92115" lon="6.96044">
        <ele>495</ele>
        <time>2026-05-09T15:20:55.489Z</time>
      </trkpt>
      <trkpt lat="47.92113" lon="6.96044">
        <ele>495</ele>
        <time>2026-05-09T15:20:56.489Z</time>
      </trkpt>
      <trkpt lat="47.92112" lon="6.96044">
        <ele>495</ele>
        <time>2026-05-09T15:20:57.488Z</time>
      </trkpt>
      <trkpt lat="47.92112" lon="6.96044">
        <ele>495</ele>
        <time>2026-05-09T15:20:58.489Z</time>
      </trkpt>
      <trkpt lat="47.92112" lon="6.96044">
        <ele>495</ele>
        <time>2026-05-09T15:20:59.488Z</time>
      </trkpt>
      <trkpt lat="47.92108" lon="6.96049">
        <ele>497</ele>
        <time>2026-05-09T15:21:07.743Z</time>
      </trkpt>
      <trkpt lat="47.92107" lon="6.96049">
        <ele>497</ele>
        <time>2026-05-09T15:21:08.742Z</time>
      </trkpt>
      <trkpt lat="47.92106" lon="6.9605">
        <ele>497</ele>
        <time>2026-05-09T15:21:09.742Z</time>
      </trkpt>
      <trkpt lat="47.92105" lon="6.9605">
        <ele>497</ele>
        <time>2026-05-09T15:21:10.743Z</time>
      </trkpt>
      <trkpt lat="47.92103" lon="6.96051">
        <ele>497</ele>
        <time>2026-05-09T15:21:11.743Z</time>
      </trkpt>
      <trkpt lat="47.92102" lon="6.96051">
        <ele>497</ele>
        <time>2026-05-09T15:21:12.743Z</time>
      </trkpt>
      <trkpt lat="47.92101" lon="6.96051">
        <ele>497</ele>
        <time>2026-05-09T15:21:13.742Z</time>
      </trkpt>
      <trkpt lat="47.921" lon="6.96052">
        <ele>497</ele>
        <time>2026-05-09T15:21:14.742Z</time>
      </trkpt>
      <trkpt lat="47.92099" lon="6.96052">
        <ele>497</ele>
        <time>2026-05-09T15:21:15.743Z</time>
      </trkpt>
      <trkpt lat="47.92097" lon="6.96053">
        <ele>498</ele>
        <time>2026-05-09T15:21:16.742Z</time>
      </trkpt>
      <trkpt lat="47.92095" lon="6.96053">
        <ele>498</ele>
        <time>2026-05-09T15:21:17.742Z</time>
      </trkpt>
      <trkpt lat="47.92093" lon="6.96053">
        <ele>498</ele>
        <time>2026-05-09T15:21:18.742Z</time>
      </trkpt>
      <trkpt lat="47.92092" lon="6.96053">
        <ele>498</ele>
        <time>2026-05-09T15:21:19.742Z</time>
      </trkpt>
      <trkpt lat="47.9209" lon="6.96053">
        <ele>498</ele>
        <time>2026-05-09T15:21:20.743Z</time>
      </trkpt>
      <trkpt lat="47.92089" lon="6.96053">
        <ele>499</ele>
        <time>2026-05-09T15:21:21.742Z</time>
      </trkpt>
      <trkpt lat="47.92087" lon="6.96053">
        <ele>499</ele>
        <time>2026-05-09T15:21:22.742Z</time>
      </trkpt>
      <trkpt lat="47.92087" lon="6.96053">
        <ele>499</ele>
        <time>2026-05-09T15:21:23.742Z</time>
      </trkpt>
      <trkpt lat="47.92086" lon="6.96053">
        <ele>499</ele>
        <time>2026-05-09T15:21:24.742Z</time>
      </trkpt>
      <trkpt lat="47.92085" lon="6.96053">
        <ele>499</ele>
        <time>2026-05-09T15:21:25.742Z</time>
      </trkpt>
      <trkpt lat="47.92084" lon="6.96053">
        <ele>499</ele>
        <time>2026-05-09T15:21:26.742Z</time>
      </trkpt>
      <trkpt lat="47.92082" lon="6.96053">
        <ele>499</ele>
        <time>2026-05-09T15:21:27.743Z</time>
      </trkpt>
      <trkpt lat="47.92081" lon="6.96053">
        <ele>499</ele>
        <time>2026-05-09T15:21:28.742Z</time>
      </trkpt>
      <trkpt lat="47.9208" lon="6.96052">
        <ele>499</ele>
        <time>2026-05-09T15:21:29.742Z</time>
      </trkpt>
      <trkpt lat="47.92079" lon="6.96052">
        <ele>499</ele>
        <time>2026-05-09T15:21:30.743Z</time>
      </trkpt>
      <trkpt lat="47.92078" lon="6.96052">
        <ele>499</ele>
        <time>2026-05-09T15:21:31.743Z</time>
      </trkpt>
      <trkpt lat="47.92077" lon="6.96051">
        <ele>500</ele>
        <time>2026-05-09T15:21:32.742Z</time>
      </trkpt>
      <trkpt lat="47.92077" lon="6.96051">
        <ele>500</ele>
        <time>2026-05-09T15:21:33.742Z</time>
      </trkpt>
      <trkpt lat="47.92076" lon="6.96051">
        <ele>500</ele>
        <time>2026-05-09T15:21:34.742Z</time>
      </trkpt>
      <trkpt lat="47.92076" lon="6.9605">
        <ele>501</ele>
        <time>2026-05-09T15:21:35.742Z</time>
      </trkpt>
      <trkpt lat="47.92076" lon="6.9605">
        <ele>501</ele>
        <time>2026-05-09T15:21:36.742Z</time>
      </trkpt>
      <trkpt lat="47.92076" lon="6.9605">
        <ele>502</ele>
        <time>2026-05-09T15:21:37.742Z</time>
      </trkpt>
      <trkpt lat="47.92075" lon="6.96049">
        <ele>502</ele>
        <time>2026-05-09T15:21:38.742Z</time>
      </trkpt>
      <trkpt lat="47.92074" lon="6.96049">
        <ele>502</ele>
        <time>2026-05-09T15:21:39.742Z</time>
      </trkpt>
      <trkpt lat="47.92074" lon="6.96049">
        <ele>503</ele>
        <time>2026-05-09T15:21:40.742Z</time>
      </trkpt>
      <trkpt lat="47.92074" lon="6.96048">
        <ele>503</ele>
        <time>2026-05-09T15:21:41.742Z</time>
      </trkpt>
      <trkpt lat="47.92073" lon="6.96047">
        <ele>503</ele>
        <time>2026-05-09T15:21:42.742Z</time>
      </trkpt>
      <trkpt lat="47.92073" lon="6.96047">
        <ele>504</ele>
        <time>2026-05-09T15:21:43.742Z</time>
      </trkpt>
      <trkpt lat="47.92072" lon="6.96046">
        <ele>504</ele>
        <time>2026-05-09T15:21:44.742Z</time>
      </trkpt>
      <trkpt lat="47.92071" lon="6.96044">
        <ele>505</ele>
        <time>2026-05-09T15:21:45.743Z</time>
      </trkpt>
      <trkpt lat="47.9207" lon="6.96043">
        <ele>505</ele>
        <time>2026-05-09T15:21:46.743Z</time>
      </trkpt>
      <trkpt lat="47.92069" lon="6.96042">
        <ele>506</ele>
        <time>2026-05-09T15:21:47.742Z</time>
      </trkpt>
      <trkpt lat="47.92069" lon="6.96042">
        <ele>506</ele>
        <time>2026-05-09T15:21:48.742Z</time>
      </trkpt>
      <trkpt lat="47.92069" lon="6.96041">
        <ele>507</ele>
        <time>2026-05-09T15:21:49.742Z</time>
      </trkpt>
      <trkpt lat="47.92069" lon="6.96041">
        <ele>507</ele>
        <time>2026-05-09T15:21:50.742Z</time>
      </trkpt>
      <trkpt lat="47.92069" lon="6.96041">
        <ele>507</ele>
        <time>2026-05-09T15:21:51.742Z</time>
      </trkpt>
      <trkpt lat="47.92069" lon="6.96041">
        <ele>507</ele>
        <time>2026-05-09T15:21:52.742Z</time>
      </trkpt>
      <trkpt lat="47.92069" lon="6.96034">
        <ele>506</ele>
        <time>2026-05-09T15:22:07.027Z</time>
      </trkpt>
      <trkpt lat="47.92069" lon="6.96032">
        <ele>507</ele>
        <time>2026-05-09T15:22:08.026Z</time>
      </trkpt>
      <trkpt lat="47.92069" lon="6.9603">
        <ele>507</ele>
        <time>2026-05-09T15:22:09.027Z</time>
      </trkpt>
      <trkpt lat="47.92068" lon="6.96029">
        <ele>508</ele>
        <time>2026-05-09T15:22:10.026Z</time>
      </trkpt>
      <trkpt lat="47.92068" lon="6.96028">
        <ele>509</ele>
        <time>2026-05-09T15:22:11.026Z</time>
      </trkpt>
      <trkpt lat="47.92067" lon="6.96027">
        <ele>509</ele>
        <time>2026-05-09T15:22:12.027Z</time>
      </trkpt>
      <trkpt lat="47.92067" lon="6.96025">
        <ele>510</ele>
        <time>2026-05-09T15:22:13.026Z</time>
      </trkpt>
      <trkpt lat="47.92068" lon="6.96024">
        <ele>511</ele>
        <time>2026-05-09T15:22:14.026Z</time>
      </trkpt>
      <trkpt lat="47.92068" lon="6.96022">
        <ele>512</ele>
        <time>2026-05-09T15:22:15.027Z</time>
      </trkpt>
      <trkpt lat="47.92068" lon="6.9602">
        <ele>512</ele>
        <time>2026-05-09T15:22:16.026Z</time>
      </trkpt>
      <trkpt lat="47.92067" lon="6.96018">
        <ele>513</ele>
        <time>2026-05-09T15:22:17.026Z</time>
      </trkpt>
      <trkpt lat="47.92067" lon="6.96015">
        <ele>514</ele>
        <time>2026-05-09T15:22:18.026Z</time>
      </trkpt>
      <trkpt lat="47.92066" lon="6.96011">
        <ele>514</ele>
        <time>2026-05-09T15:22:19.026Z</time>
      </trkpt>
      <trkpt lat="47.92066" lon="6.9601">
        <ele>514</ele>
        <time>2026-05-09T15:22:20.026Z</time>
      </trkpt>
      <trkpt lat="47.92066" lon="6.96008">
        <ele>515</ele>
        <time>2026-05-09T15:22:21.026Z</time>
      </trkpt>
      <trkpt lat="47.92066" lon="6.96007">
        <ele>515</ele>
        <time>2026-05-09T15:22:22.026Z</time>
      </trkpt>
      <trkpt lat="47.92066" lon="6.96006">
        <ele>515</ele>
        <time>2026-05-09T15:22:23.026Z</time>
      </trkpt>
      <trkpt lat="47.92066" lon="6.96004">
        <ele>515</ele>
        <time>2026-05-09T15:22:24.026Z</time>
      </trkpt>
      <trkpt lat="47.92065" lon="6.96001">
        <ele>515</ele>
        <time>2026-05-09T15:22:25.026Z</time>
      </trkpt>
      <trkpt lat="47.92064" lon="6.95999">
        <ele>515</ele>
        <time>2026-05-09T15:22:26.027Z</time>
      </trkpt>
      <trkpt lat="47.92064" lon="6.95998">
        <ele>515</ele>
        <time>2026-05-09T15:22:27.026Z</time>
      </trkpt>
      <trkpt lat="47.92063" lon="6.95998">
        <ele>515</ele>
        <time>2026-05-09T15:22:28.026Z</time>
      </trkpt>
      <trkpt lat="47.92063" lon="6.95997">
        <ele>515</ele>
        <time>2026-05-09T15:22:29.026Z</time>
      </trkpt>
      <trkpt lat="47.92063" lon="6.95997">
        <ele>515</ele>
        <time>2026-05-09T15:22:30.027Z</time>
      </trkpt>
      <trkpt lat="47.92063" lon="6.95995">
        <ele>514</ele>
        <time>2026-05-09T15:22:31.026Z</time>
      </trkpt>
      <trkpt lat="47.92063" lon="6.95995">
        <ele>514</ele>
        <time>2026-05-09T15:22:32.026Z</time>
      </trkpt>
      <trkpt lat="47.92063" lon="6.95995">
        <ele>513</ele>
        <time>2026-05-09T15:22:33.026Z</time>
      </trkpt>
      <trkpt lat="47.92063" lon="6.95996">
        <ele>512</ele>
        <time>2026-05-09T15:22:34.026Z</time>
      </trkpt>
      <trkpt lat="47.92059" lon="6.95993">
        <ele>504</ele>
        <time>2026-05-09T15:22:43.244Z</time>
      </trkpt>
      <trkpt lat="47.92059" lon="6.95991">
        <ele>504</ele>
        <time>2026-05-09T15:22:44.244Z</time>
      </trkpt>
      <trkpt lat="47.92058" lon="6.95989">
        <ele>503</ele>
        <time>2026-05-09T15:22:45.245Z</time>
      </trkpt>
      <trkpt lat="47.92058" lon="6.95987">
        <ele>503</ele>
        <time>2026-05-09T15:22:46.244Z</time>
      </trkpt>
      <trkpt lat="47.92057" lon="6.95985">
        <ele>503</ele>
        <time>2026-05-09T15:22:47.245Z</time>
      </trkpt>
      <trkpt lat="47.92057" lon="6.95984">
        <ele>504</ele>
        <time>2026-05-09T15:22:48.244Z</time>
      </trkpt>
      <trkpt lat="47.92056" lon="6.95982">
        <ele>504</ele>
        <time>2026-05-09T15:22:49.245Z</time>
      </trkpt>
      <trkpt lat="47.92055" lon="6.95981">
        <ele>504</ele>
        <time>2026-05-09T15:22:50.244Z</time>
      </trkpt>
      <trkpt lat="47.92055" lon="6.95979">
        <ele>504</ele>
        <time>2026-05-09T15:22:51.245Z</time>
      </trkpt>
      <trkpt lat="47.92054" lon="6.95978">
        <ele>505</ele>
        <time>2026-05-09T15:22:52.244Z</time>
      </trkpt>
      <trkpt lat="47.92054" lon="6.95976">
        <ele>505</ele>
        <time>2026-05-09T15:22:53.244Z</time>
      </trkpt>
      <trkpt lat="47.92053" lon="6.95974">
        <ele>505</ele>
        <time>2026-05-09T15:22:54.245Z</time>
      </trkpt>
      <trkpt lat="47.92053" lon="6.95973">
        <ele>505</ele>
        <time>2026-05-09T15:22:55.244Z</time>
      </trkpt>
      <trkpt lat="47.92053" lon="6.95971">
        <ele>505</ele>
        <time>2026-05-09T15:22:56.244Z</time>
      </trkpt>
      <trkpt lat="47.92053" lon="6.9597">
        <ele>505</ele>
        <time>2026-05-09T15:22:57.244Z</time>
      </trkpt>
      <trkpt lat="47.92053" lon="6.9597">
        <ele>506</ele>
        <time>2026-05-09T15:22:58.245Z</time>
      </trkpt>
      <trkpt lat="47.92053" lon="6.95969">
        <ele>506</ele>
        <time>2026-05-09T15:22:59.244Z</time>
      </trkpt>
      <trkpt lat="47.92053" lon="6.95968">
        <ele>507</ele>
        <time>2026-05-09T15:23:00.245Z</time>
      </trkpt>
      <trkpt lat="47.92052" lon="6.95967">
        <ele>507</ele>
        <time>2026-05-09T15:23:01.244Z</time>
      </trkpt>
      <trkpt lat="47.92052" lon="6.95966">
        <ele>508</ele>
        <time>2026-05-09T15:23:02.245Z</time>
      </trkpt>
      <trkpt lat="47.92052" lon="6.95966">
        <ele>509</ele>
        <time>2026-05-09T15:23:03.244Z</time>
      </trkpt>
      <trkpt lat="47.92051" lon="6.95966">
        <ele>510</ele>
        <time>2026-05-09T15:23:04.245Z</time>
      </trkpt>
      <trkpt lat="47.92051" lon="6.95965">
        <ele>510</ele>
        <time>2026-05-09T15:23:05.244Z</time>
      </trkpt>
      <trkpt lat="47.92051" lon="6.95965">
        <ele>511</ele>
        <time>2026-05-09T15:23:06.245Z</time>
      </trkpt>
      <trkpt lat="47.92051" lon="6.95964">
        <ele>511</ele>
        <time>2026-05-09T15:23:07.244Z</time>
      </trkpt>
      <trkpt lat="47.92051" lon="6.95962">
        <ele>511</ele>
        <time>2026-05-09T15:23:08.245Z</time>
      </trkpt>
      <trkpt lat="47.9205" lon="6.95961">
        <ele>511</ele>
        <time>2026-05-09T15:23:09.245Z</time>
      </trkpt>
      <trkpt lat="47.9205" lon="6.95959">
        <ele>511</ele>
        <time>2026-05-09T15:23:10.244Z</time>
      </trkpt>
      <trkpt lat="47.92049" lon="6.95956">
        <ele>512</ele>
        <time>2026-05-09T15:23:17.450Z</time>
      </trkpt>
      <trkpt lat="47.92049" lon="6.95955">
        <ele>512</ele>
        <time>2026-05-09T15:23:18.450Z</time>
      </trkpt>
      <trkpt lat="47.92049" lon="6.95954">
        <ele>512</ele>
        <time>2026-05-09T15:23:19.449Z</time>
      </trkpt>
      <trkpt lat="47.92049" lon="6.95954">
        <ele>512</ele>
        <time>2026-05-09T15:23:20.449Z</time>
      </trkpt>
      <trkpt lat="47.9205" lon="6.95953">
        <ele>513</ele>
        <time>2026-05-09T15:23:21.449Z</time>
      </trkpt>
      <trkpt lat="47.9205" lon="6.95952">
        <ele>513</ele>
        <time>2026-05-09T15:23:22.449Z</time>
      </trkpt>
      <trkpt lat="47.92051" lon="6.95951">
        <ele>513</ele>
        <time>2026-05-09T15:23:23.449Z</time>
      </trkpt>
      <trkpt lat="47.9205" lon="6.95952">
        <ele>514</ele>
        <time>2026-05-09T15:23:24.449Z</time>
      </trkpt>
      <trkpt lat="47.92051" lon="6.95951">
        <ele>515</ele>
        <time>2026-05-09T15:23:25.449Z</time>
      </trkpt>
      <trkpt lat="47.92049" lon="6.9595">
        <ele>515</ele>
        <time>2026-05-09T15:23:31.838Z</time>
      </trkpt>
      <trkpt lat="47.92046" lon="6.95955">
        <ele>512</ele>
        <time>2026-05-09T15:23:55.831Z</time>
      </trkpt>
      <trkpt lat="47.92045" lon="6.95956">
        <ele>512</ele>
        <time>2026-05-09T15:23:56.830Z</time>
      </trkpt>
      <trkpt lat="47.92044" lon="6.95957">
        <ele>512</ele>
        <time>2026-05-09T15:23:57.830Z</time>
      </trkpt>
      <trkpt lat="47.92044" lon="6.95956">
        <ele>512</ele>
        <time>2026-05-09T15:23:58.831Z</time>
      </trkpt>
      <trkpt lat="47.92044" lon="6.95954">
        <ele>512</ele>
        <time>2026-05-09T15:23:59.830Z</time>
      </trkpt>
      <trkpt lat="47.92043" lon="6.95952">
        <ele>512</ele>
        <time>2026-05-09T15:24:00.830Z</time>
      </trkpt>
      <trkpt lat="47.92043" lon="6.95951">
        <ele>512</ele>
        <time>2026-05-09T15:24:01.830Z</time>
      </trkpt>
      <trkpt lat="47.92042" lon="6.95951">
        <ele>512</ele>
        <time>2026-05-09T15:24:02.830Z</time>
      </trkpt>
      <trkpt lat="47.92042" lon="6.95949">
        <ele>513</ele>
        <time>2026-05-09T15:24:03.830Z</time>
      </trkpt>
      <trkpt lat="47.92042" lon="6.95948">
        <ele>513</ele>
        <time>2026-05-09T15:24:04.830Z</time>
      </trkpt>
      <trkpt lat="47.92042" lon="6.95947">
        <ele>513</ele>
        <time>2026-05-09T15:24:05.830Z</time>
      </trkpt>
      <trkpt lat="47.92042" lon="6.95947">
        <ele>514</ele>
        <time>2026-05-09T15:24:06.830Z</time>
      </trkpt>
      <trkpt lat="47.92042" lon="6.95947">
        <ele>514</ele>
        <time>2026-05-09T15:24:07.830Z</time>
      </trkpt>
      <trkpt lat="47.92043" lon="6.95946">
        <ele>514</ele>
        <time>2026-05-09T15:24:08.831Z</time>
      </trkpt>
      <trkpt lat="47.92043" lon="6.95946">
        <ele>515</ele>
        <time>2026-05-09T15:24:09.830Z</time>
      </trkpt>
      <trkpt lat="47.92042" lon="6.95945">
        <ele>516</ele>
        <time>2026-05-09T15:24:10.831Z</time>
      </trkpt>
      <trkpt lat="47.92041" lon="6.95943">
        <ele>516</ele>
        <time>2026-05-09T15:24:11.830Z</time>
      </trkpt>
      <trkpt lat="47.92041" lon="6.95941">
        <ele>516</ele>
        <time>2026-05-09T15:24:12.830Z</time>
      </trkpt>
      <trkpt lat="47.9204" lon="6.95939">
        <ele>516</ele>
        <time>2026-05-09T15:24:13.830Z</time>
      </trkpt>
      <trkpt lat="47.92039" lon="6.95937">
        <ele>516</ele>
        <time>2026-05-09T15:24:14.830Z</time>
      </trkpt>
      <trkpt lat="47.92038" lon="6.95936">
        <ele>516</ele>
        <time>2026-05-09T15:24:15.831Z</time>
      </trkpt>
      <trkpt lat="47.92038" lon="6.95934">
        <ele>516</ele>
        <time>2026-05-09T15:24:16.831Z</time>
      </trkpt>
      <trkpt lat="47.92038" lon="6.95933">
        <ele>517</ele>
        <time>2026-05-09T15:24:17.831Z</time>
      </trkpt>
      <trkpt lat="47.92038" lon="6.95931">
        <ele>518</ele>
        <time>2026-05-09T15:24:18.831Z</time>
      </trkpt>
      <trkpt lat="47.92038" lon="6.9593">
        <ele>518</ele>
        <time>2026-05-09T15:24:19.831Z</time>
      </trkpt>
      <trkpt lat="47.92037" lon="6.95929">
        <ele>518</ele>
        <time>2026-05-09T15:24:20.831Z</time>
      </trkpt>
      <trkpt lat="47.92037" lon="6.95927">
        <ele>518</ele>
        <time>2026-05-09T15:24:21.831Z</time>
      </trkpt>
      <trkpt lat="47.92036" lon="6.95926">
        <ele>519</ele>
        <time>2026-05-09T15:24:22.831Z</time>
      </trkpt>
      <trkpt lat="47.92035" lon="6.95926">
        <ele>519</ele>
        <time>2026-05-09T15:24:23.831Z</time>
      </trkpt>
      <trkpt lat="47.92034" lon="6.95926">
        <ele>519</ele>
        <time>2026-05-09T15:24:24.830Z</time>
      </trkpt>
      <trkpt lat="47.92032" lon="6.95925">
        <ele>519</ele>
        <time>2026-05-09T15:24:25.830Z</time>
      </trkpt>
      <trkpt lat="47.92031" lon="6.95924">
        <ele>520</ele>
        <time>2026-05-09T15:24:26.830Z</time>
      </trkpt>
      <trkpt lat="47.9203" lon="6.95923">
        <ele>520</ele>
        <time>2026-05-09T15:24:27.830Z</time>
      </trkpt>
      <trkpt lat="47.9203" lon="6.95923">
        <ele>520</ele>
        <time>2026-05-09T15:24:28.830Z</time>
      </trkpt>
      <trkpt lat="47.92029" lon="6.95922">
        <ele>521</ele>
        <time>2026-05-09T15:24:29.831Z</time>
      </trkpt>
      <trkpt lat="47.92028" lon="6.95921">
        <ele>521</ele>
        <time>2026-05-09T15:24:30.831Z</time>
      </trkpt>
      <trkpt lat="47.92028" lon="6.95921">
        <ele>521</ele>
        <time>2026-05-09T15:24:31.830Z</time>
      </trkpt>
      <trkpt lat="47.92028" lon="6.9592">
        <ele>521</ele>
        <time>2026-05-09T15:24:32.830Z</time>
      </trkpt>
      <trkpt lat="47.92027" lon="6.95919">
        <ele>522</ele>
        <time>2026-05-09T15:24:33.830Z</time>
      </trkpt>
      <trkpt lat="47.92027" lon="6.95918">
        <ele>522</ele>
        <time>2026-05-09T15:24:34.830Z</time>
      </trkpt>
      <trkpt lat="47.92027" lon="6.95918">
        <ele>522</ele>
        <time>2026-05-09T15:24:35.830Z</time>
      </trkpt>
      <trkpt lat="47.92026" lon="6.95917">
        <ele>522</ele>
        <time>2026-05-09T15:24:36.830Z</time>
      </trkpt>
      <trkpt lat="47.92026" lon="6.95916">
        <ele>522</ele>
        <time>2026-05-09T15:24:37.830Z</time>
      </trkpt>
      <trkpt lat="47.92026" lon="6.95915">
        <ele>523</ele>
        <time>2026-05-09T15:24:38.830Z</time>
      </trkpt>
      <trkpt lat="47.92026" lon="6.95914">
        <ele>523</ele>
        <time>2026-05-09T15:24:39.830Z</time>
      </trkpt>
      <trkpt lat="47.92026" lon="6.95913">
        <ele>523</ele>
        <time>2026-05-09T15:24:40.830Z</time>
      </trkpt>
      <trkpt lat="47.92025" lon="6.95912">
        <ele>523</ele>
        <time>2026-05-09T15:24:41.831Z</time>
      </trkpt>
      <trkpt lat="47.92025" lon="6.95911">
        <ele>523</ele>
        <time>2026-05-09T15:24:42.831Z</time>
      </trkpt>
      <trkpt lat="47.92025" lon="6.95909">
        <ele>523</ele>
        <time>2026-05-09T15:24:43.830Z</time>
      </trkpt>
      <trkpt lat="47.92025" lon="6.95908">
        <ele>523</ele>
        <time>2026-05-09T15:24:44.831Z</time>
      </trkpt>
      <trkpt lat="47.92025" lon="6.95907">
        <ele>523</ele>
        <time>2026-05-09T15:24:45.831Z</time>
      </trkpt>
      <trkpt lat="47.92025" lon="6.95905">
        <ele>524</ele>
        <time>2026-05-09T15:24:46.830Z</time>
      </trkpt>
      <trkpt lat="47.92025" lon="6.95903">
        <ele>524</ele>
        <time>2026-05-09T15:24:47.831Z</time>
      </trkpt>
      <trkpt lat="47.92025" lon="6.95901">
        <ele>524</ele>
        <time>2026-05-09T15:24:48.830Z</time>
      </trkpt>
      <trkpt lat="47.92024" lon="6.95898">
        <ele>525</ele>
        <time>2026-05-09T15:24:49.831Z</time>
      </trkpt>
      <trkpt lat="47.92024" lon="6.95896">
        <ele>525</ele>
        <time>2026-05-09T15:24:50.831Z</time>
      </trkpt>
      <trkpt lat="47.92024" lon="6.95893">
        <ele>526</ele>
        <time>2026-05-09T15:24:51.830Z</time>
      </trkpt>
      <trkpt lat="47.92024" lon="6.95892">
        <ele>526</ele>
        <time>2026-05-09T15:24:52.830Z</time>
      </trkpt>
      <trkpt lat="47.92024" lon="6.9589">
        <ele>526</ele>
        <time>2026-05-09T15:24:53.831Z</time>
      </trkpt>
      <trkpt lat="47.92024" lon="6.95888">
        <ele>527</ele>
        <time>2026-05-09T15:24:54.830Z</time>
      </trkpt>
      <trkpt lat="47.92024" lon="6.95886">
        <ele>527</ele>
        <time>2026-05-09T15:24:55.831Z</time>
      </trkpt>
      <trkpt lat="47.92024" lon="6.95885">
        <ele>527</ele>
        <time>2026-05-09T15:24:56.831Z</time>
      </trkpt>
      <trkpt lat="47.92023" lon="6.95884">
        <ele>528</ele>
        <time>2026-05-09T15:24:57.831Z</time>
      </trkpt>
      <trkpt lat="47.92024" lon="6.95883">
        <ele>528</ele>
        <time>2026-05-09T15:24:58.830Z</time>
      </trkpt>
      <trkpt lat="47.92024" lon="6.95881">
        <ele>529</ele>
        <time>2026-05-09T15:24:59.830Z</time>
      </trkpt>
      <trkpt lat="47.92024" lon="6.9588">
        <ele>529</ele>
        <time>2026-05-09T15:25:00.830Z</time>
      </trkpt>
      <trkpt lat="47.92024" lon="6.95879">
        <ele>530</ele>
        <time>2026-05-09T15:25:01.831Z</time>
      </trkpt>
      <trkpt lat="47.92025" lon="6.95877">
        <ele>530</ele>
        <time>2026-05-09T15:25:02.830Z</time>
      </trkpt>
      <trkpt lat="47.92025" lon="6.95876">
        <ele>531</ele>
        <time>2026-05-09T15:25:03.830Z</time>
      </trkpt>
      <trkpt lat="47.92025" lon="6.95875">
        <ele>531</ele>
        <time>2026-05-09T15:25:04.830Z</time>
      </trkpt>
      <trkpt lat="47.92025" lon="6.95874">
        <ele>531</ele>
        <time>2026-05-09T15:25:05.831Z</time>
      </trkpt>
      <trkpt lat="47.92025" lon="6.95873">
        <ele>532</ele>
        <time>2026-05-09T15:25:06.831Z</time>
      </trkpt>
      <trkpt lat="47.92026" lon="6.95877">
        <ele>533</ele>
        <time>2026-05-09T15:25:15.099Z</time>
      </trkpt>
      <trkpt lat="47.92023" lon="6.95876">
        <ele>530</ele>
        <time>2026-05-09T15:25:28.406Z</time>
      </trkpt>
      <trkpt lat="47.92022" lon="6.95876">
        <ele>530</ele>
        <time>2026-05-09T15:25:29.406Z</time>
      </trkpt>
      <trkpt lat="47.92022" lon="6.95875">
        <ele>530</ele>
        <time>2026-05-09T15:25:30.405Z</time>
      </trkpt>
      <trkpt lat="47.92021" lon="6.95874">
        <ele>529</ele>
        <time>2026-05-09T15:25:31.405Z</time>
      </trkpt>
      <trkpt lat="47.92021" lon="6.95873">
        <ele>529</ele>
        <time>2026-05-09T15:25:32.406Z</time>
      </trkpt>
      <trkpt lat="47.9202" lon="6.95872">
        <ele>530</ele>
        <time>2026-05-09T15:25:33.405Z</time>
      </trkpt>
      <trkpt lat="47.9202" lon="6.95871">
        <ele>530</ele>
        <time>2026-05-09T15:25:34.405Z</time>
      </trkpt>
      <trkpt lat="47.92019" lon="6.9587">
        <ele>530</ele>
        <time>2026-05-09T15:25:35.405Z</time>
      </trkpt>
      <trkpt lat="47.92017" lon="6.95869">
        <ele>531</ele>
        <time>2026-05-09T15:25:36.405Z</time>
      </trkpt>
      <trkpt lat="47.92016" lon="6.95868">
        <ele>531</ele>
        <time>2026-05-09T15:25:37.406Z</time>
      </trkpt>
      <trkpt lat="47.92015" lon="6.95867">
        <ele>532</ele>
        <time>2026-05-09T15:25:38.405Z</time>
      </trkpt>
      <trkpt lat="47.92015" lon="6.95866">
        <ele>532</ele>
        <time>2026-05-09T15:25:39.405Z</time>
      </trkpt>
      <trkpt lat="47.92014" lon="6.95864">
        <ele>532</ele>
        <time>2026-05-09T15:25:40.406Z</time>
      </trkpt>
      <trkpt lat="47.92014" lon="6.95862">
        <ele>533</ele>
        <time>2026-05-09T15:25:41.405Z</time>
      </trkpt>
      <trkpt lat="47.92014" lon="6.9586">
        <ele>533</ele>
        <time>2026-05-09T15:25:42.406Z</time>
      </trkpt>
      <trkpt lat="47.92013" lon="6.95859">
        <ele>533</ele>
        <time>2026-05-09T15:25:43.405Z</time>
      </trkpt>
      <trkpt lat="47.92013" lon="6.95857">
        <ele>533</ele>
        <time>2026-05-09T15:25:44.406Z</time>
      </trkpt>
      <trkpt lat="47.92012" lon="6.95855">
        <ele>534</ele>
        <time>2026-05-09T15:25:45.406Z</time>
      </trkpt>
      <trkpt lat="47.92013" lon="6.95853">
        <ele>534</ele>
        <time>2026-05-09T15:25:46.405Z</time>
      </trkpt>
      <trkpt lat="47.92013" lon="6.95852">
        <ele>534</ele>
        <time>2026-05-09T15:25:47.406Z</time>
      </trkpt>
      <trkpt lat="47.92013" lon="6.9585">
        <ele>534</ele>
        <time>2026-05-09T15:25:48.405Z</time>
      </trkpt>
      <trkpt lat="47.92013" lon="6.95848">
        <ele>534</ele>
        <time>2026-05-09T15:25:49.406Z</time>
      </trkpt>
      <trkpt lat="47.92014" lon="6.95847">
        <ele>535</ele>
        <time>2026-05-09T15:25:50.405Z</time>
      </trkpt>
      <trkpt lat="47.92014" lon="6.95846">
        <ele>535</ele>
        <time>2026-05-09T15:25:51.406Z</time>
      </trkpt>
      <trkpt lat="47.92014" lon="6.95844">
        <ele>535</ele>
        <time>2026-05-09T15:25:52.405Z</time>
      </trkpt>
      <trkpt lat="47.92014" lon="6.95842">
        <ele>535</ele>
        <time>2026-05-09T15:25:53.406Z</time>
      </trkpt>
      <trkpt lat="47.92014" lon="6.9584">
        <ele>535</ele>
        <time>2026-05-09T15:25:54.406Z</time>
      </trkpt>
      <trkpt lat="47.92014" lon="6.95839">
        <ele>535</ele>
        <time>2026-05-09T15:25:55.406Z</time>
      </trkpt>
      <trkpt lat="47.92014" lon="6.95838">
        <ele>536</ele>
        <time>2026-05-09T15:25:56.405Z</time>
      </trkpt>
      <trkpt lat="47.92015" lon="6.95837">
        <ele>536</ele>
        <time>2026-05-09T15:25:57.406Z</time>
      </trkpt>
      <trkpt lat="47.92015" lon="6.95836">
        <ele>536</ele>
        <time>2026-05-09T15:25:58.405Z</time>
      </trkpt>
      <trkpt lat="47.92014" lon="6.95833">
        <ele>536</ele>
        <time>2026-05-09T15:25:59.406Z</time>
      </trkpt>
      <trkpt lat="47.92014" lon="6.9583">
        <ele>537</ele>
        <time>2026-05-09T15:26:00.406Z</time>
      </trkpt>
      <trkpt lat="47.92013" lon="6.95828">
        <ele>537</ele>
        <time>2026-05-09T15:26:01.406Z</time>
      </trkpt>
      <trkpt lat="47.92013" lon="6.95826">
        <ele>537</ele>
        <time>2026-05-09T15:26:02.406Z</time>
      </trkpt>
      <trkpt lat="47.92012" lon="6.95824">
        <ele>537</ele>
        <time>2026-05-09T15:26:03.405Z</time>
      </trkpt>
      <trkpt lat="47.92012" lon="6.95823">
        <ele>537</ele>
        <time>2026-05-09T15:26:04.406Z</time>
      </trkpt>
      <trkpt lat="47.92012" lon="6.95822">
        <ele>538</ele>
        <time>2026-05-09T15:26:05.405Z</time>
      </trkpt>
      <trkpt lat="47.92011" lon="6.95821">
        <ele>538</ele>
        <time>2026-05-09T15:26:06.406Z</time>
      </trkpt>
      <trkpt lat="47.92011" lon="6.9582">
        <ele>538</ele>
        <time>2026-05-09T15:26:07.405Z</time>
      </trkpt>
      <trkpt lat="47.92011" lon="6.95819">
        <ele>538</ele>
        <time>2026-05-09T15:26:08.405Z</time>
      </trkpt>
      <trkpt lat="47.9201" lon="6.95818">
        <ele>538</ele>
        <time>2026-05-09T15:26:09.405Z</time>
      </trkpt>
      <trkpt lat="47.92009" lon="6.95817">
        <ele>538</ele>
        <time>2026-05-09T15:26:10.406Z</time>
      </trkpt>
      <trkpt lat="47.92008" lon="6.95816">
        <ele>538</ele>
        <time>2026-05-09T15:26:11.405Z</time>
      </trkpt>
      <trkpt lat="47.92007" lon="6.95814">
        <ele>538</ele>
        <time>2026-05-09T15:26:12.406Z</time>
      </trkpt>
      <trkpt lat="47.92007" lon="6.95813">
        <ele>538</ele>
        <time>2026-05-09T15:26:13.406Z</time>
      </trkpt>
      <trkpt lat="47.92006" lon="6.95811">
        <ele>538</ele>
        <time>2026-05-09T15:26:14.406Z</time>
      </trkpt>
      <trkpt lat="47.92006" lon="6.95809">
        <ele>538</ele>
        <time>2026-05-09T15:26:15.405Z</time>
      </trkpt>
      <trkpt lat="47.92005" lon="6.95807">
        <ele>538</ele>
        <time>2026-05-09T15:26:16.406Z</time>
      </trkpt>
      <trkpt lat="47.92006" lon="6.95806">
        <ele>538</ele>
        <time>2026-05-09T15:26:17.406Z</time>
      </trkpt>
      <trkpt lat="47.92005" lon="6.95804">
        <ele>538</ele>
        <time>2026-05-09T15:26:18.405Z</time>
      </trkpt>
      <trkpt lat="47.92004" lon="6.95803">
        <ele>538</ele>
        <time>2026-05-09T15:26:19.405Z</time>
      </trkpt>
      <trkpt lat="47.92004" lon="6.95802">
        <ele>538</ele>
        <time>2026-05-09T15:26:20.405Z</time>
      </trkpt>
      <trkpt lat="47.92005" lon="6.95801">
        <ele>538</ele>
        <time>2026-05-09T15:26:21.406Z</time>
      </trkpt>
      <trkpt lat="47.92005" lon="6.95798">
        <ele>538</ele>
        <time>2026-05-09T15:26:22.405Z</time>
      </trkpt>
      <trkpt lat="47.92005" lon="6.95797">
        <ele>539</ele>
        <time>2026-05-09T15:26:23.405Z</time>
      </trkpt>
      <trkpt lat="47.92005" lon="6.95795">
        <ele>539</ele>
        <time>2026-05-09T15:26:24.405Z</time>
      </trkpt>
      <trkpt lat="47.92004" lon="6.95794">
        <ele>539</ele>
        <time>2026-05-09T15:26:25.406Z</time>
      </trkpt>
      <trkpt lat="47.92004" lon="6.95793">
        <ele>540</ele>
        <time>2026-05-09T15:26:26.405Z</time>
      </trkpt>
      <trkpt lat="47.92003" lon="6.95792">
        <ele>541</ele>
        <time>2026-05-09T15:26:27.406Z</time>
      </trkpt>
      <trkpt lat="47.92002" lon="6.95791">
        <ele>541</ele>
        <time>2026-05-09T15:26:28.405Z</time>
      </trkpt>
      <trkpt lat="47.92001" lon="6.95789">
        <ele>542</ele>
        <time>2026-05-09T15:26:29.406Z</time>
      </trkpt>
      <trkpt lat="47.92001" lon="6.95788">
        <ele>542</ele>
        <time>2026-05-09T15:26:30.405Z</time>
      </trkpt>
      <trkpt lat="47.92001" lon="6.95787">
        <ele>543</ele>
        <time>2026-05-09T15:26:31.406Z</time>
      </trkpt>
      <trkpt lat="47.92001" lon="6.95786">
        <ele>543</ele>
        <time>2026-05-09T15:26:32.406Z</time>
      </trkpt>
      <trkpt lat="47.92001" lon="6.95785">
        <ele>544</ele>
        <time>2026-05-09T15:26:33.406Z</time>
      </trkpt>
      <trkpt lat="47.92" lon="6.95784">
        <ele>544</ele>
        <time>2026-05-09T15:26:34.406Z</time>
      </trkpt>
      <trkpt lat="47.92" lon="6.95783">
        <ele>545</ele>
        <time>2026-05-09T15:26:35.405Z</time>
      </trkpt>
      <trkpt lat="47.92" lon="6.95781">
        <ele>545</ele>
        <time>2026-05-09T15:26:36.406Z</time>
      </trkpt>
      <trkpt lat="47.91999" lon="6.95779">
        <ele>545</ele>
        <time>2026-05-09T15:26:37.405Z</time>
      </trkpt>
      <trkpt lat="47.91999" lon="6.95776">
        <ele>546</ele>
        <time>2026-05-09T15:26:38.406Z</time>
      </trkpt>
      <trkpt lat="47.92" lon="6.95773">
        <ele>546</ele>
        <time>2026-05-09T15:26:39.405Z</time>
      </trkpt>
      <trkpt lat="47.92" lon="6.95771">
        <ele>546</ele>
        <time>2026-05-09T15:26:40.406Z</time>
      </trkpt>
      <trkpt lat="47.92" lon="6.95769">
        <ele>547</ele>
        <time>2026-05-09T15:26:41.406Z</time>
      </trkpt>
      <trkpt lat="47.92" lon="6.95768">
        <ele>547</ele>
        <time>2026-05-09T15:26:42.405Z</time>
      </trkpt>
      <trkpt lat="47.92" lon="6.95767">
        <ele>547</ele>
        <time>2026-05-09T15:26:43.405Z</time>
      </trkpt>
      <trkpt lat="47.91999" lon="6.95766">
        <ele>548</ele>
        <time>2026-05-09T15:26:44.406Z</time>
      </trkpt>
      <trkpt lat="47.91998" lon="6.95763">
        <ele>548</ele>
        <time>2026-05-09T15:26:45.405Z</time>
      </trkpt>
      <trkpt lat="47.91997" lon="6.95761">
        <ele>548</ele>
        <time>2026-05-09T15:26:46.406Z</time>
      </trkpt>
      <trkpt lat="47.91997" lon="6.9576">
        <ele>549</ele>
        <time>2026-05-09T15:26:47.405Z</time>
      </trkpt>
      <trkpt lat="47.91997" lon="6.95759">
        <ele>549</ele>
        <time>2026-05-09T15:26:48.406Z</time>
      </trkpt>
      <trkpt lat="47.91996" lon="6.95757">
        <ele>550</ele>
        <time>2026-05-09T15:26:49.406Z</time>
      </trkpt>
      <trkpt lat="47.91996" lon="6.95756">
        <ele>550</ele>
        <time>2026-05-09T15:26:50.406Z</time>
      </trkpt>
      <trkpt lat="47.91995" lon="6.95755">
        <ele>551</ele>
        <time>2026-05-09T15:26:51.406Z</time>
      </trkpt>
      <trkpt lat="47.91995" lon="6.95754">
        <ele>551</ele>
        <time>2026-05-09T15:26:52.405Z</time>
      </trkpt>
      <trkpt lat="47.91995" lon="6.95754">
        <ele>552</ele>
        <time>2026-05-09T15:26:53.406Z</time>
      </trkpt>
      <trkpt lat="47.91995" lon="6.95754">
        <ele>552</ele>
        <time>2026-05-09T15:26:54.405Z</time>
      </trkpt>
      <trkpt lat="47.91993" lon="6.95755">
        <ele>551</ele>
        <time>2026-05-09T15:27:05.762Z</time>
      </trkpt>
      <trkpt lat="47.91992" lon="6.95753">
        <ele>551</ele>
        <time>2026-05-09T15:27:06.762Z</time>
      </trkpt>
      <trkpt lat="47.91992" lon="6.95751">
        <ele>551</ele>
        <time>2026-05-09T15:27:07.762Z</time>
      </trkpt>
      <trkpt lat="47.91991" lon="6.9575">
        <ele>551</ele>
        <time>2026-05-09T15:27:08.762Z</time>
      </trkpt>
      <trkpt lat="47.9199" lon="6.9575">
        <ele>551</ele>
        <time>2026-05-09T15:27:09.762Z</time>
      </trkpt>
      <trkpt lat="47.9199" lon="6.95749">
        <ele>551</ele>
        <time>2026-05-09T15:27:10.762Z</time>
      </trkpt>
      <trkpt lat="47.9199" lon="6.95749">
        <ele>551</ele>
        <time>2026-05-09T15:27:11.763Z</time>
      </trkpt>
      <trkpt lat="47.9199" lon="6.95748">
        <ele>551</ele>
        <time>2026-05-09T15:27:12.762Z</time>
      </trkpt>
      <trkpt lat="47.9199" lon="6.95747">
        <ele>551</ele>
        <time>2026-05-09T15:27:13.762Z</time>
      </trkpt>
      <trkpt lat="47.9199" lon="6.95746">
        <ele>552</ele>
        <time>2026-05-09T15:27:14.762Z</time>
      </trkpt>
      <trkpt lat="47.91989" lon="6.95745">
        <ele>552</ele>
        <time>2026-05-09T15:27:15.762Z</time>
      </trkpt>
      <trkpt lat="47.91989" lon="6.95743">
        <ele>553</ele>
        <time>2026-05-09T15:27:16.763Z</time>
      </trkpt>
      <trkpt lat="47.91988" lon="6.95742">
        <ele>553</ele>
        <time>2026-05-09T15:27:17.762Z</time>
      </trkpt>
      <trkpt lat="47.91988" lon="6.9574">
        <ele>553</ele>
        <time>2026-05-09T15:27:18.762Z</time>
      </trkpt>
      <trkpt lat="47.91988" lon="6.95739">
        <ele>554</ele>
        <time>2026-05-09T15:27:19.762Z</time>
      </trkpt>
      <trkpt lat="47.91989" lon="6.95738">
        <ele>554</ele>
        <time>2026-05-09T15:27:20.762Z</time>
      </trkpt>
      <trkpt lat="47.91989" lon="6.95736">
        <ele>554</ele>
        <time>2026-05-09T15:27:21.763Z</time>
      </trkpt>
      <trkpt lat="47.91989" lon="6.95735">
        <ele>555</ele>
        <time>2026-05-09T15:27:22.763Z</time>
      </trkpt>
      <trkpt lat="47.91988" lon="6.95733">
        <ele>555</ele>
        <time>2026-05-09T15:27:23.762Z</time>
      </trkpt>
      <trkpt lat="47.91988" lon="6.95732">
        <ele>556</ele>
        <time>2026-05-09T15:27:24.763Z</time>
      </trkpt>
      <trkpt lat="47.91988" lon="6.95731">
        <ele>556</ele>
        <time>2026-05-09T15:27:25.763Z</time>
      </trkpt>
      <trkpt lat="47.91987" lon="6.9573">
        <ele>556</ele>
        <time>2026-05-09T15:27:26.763Z</time>
      </trkpt>
      <trkpt lat="47.91987" lon="6.95729">
        <ele>557</ele>
        <time>2026-05-09T15:27:27.762Z</time>
      </trkpt>
      <trkpt lat="47.91987" lon="6.95728">
        <ele>557</ele>
        <time>2026-05-09T15:27:28.762Z</time>
      </trkpt>
      <trkpt lat="47.91986" lon="6.95727">
        <ele>557</ele>
        <time>2026-05-09T15:27:29.762Z</time>
      </trkpt>
      <trkpt lat="47.91986" lon="6.95726">
        <ele>558</ele>
        <time>2026-05-09T15:27:30.763Z</time>
      </trkpt>
      <trkpt lat="47.91985" lon="6.95725">
        <ele>558</ele>
        <time>2026-05-09T15:27:31.762Z</time>
      </trkpt>
      <trkpt lat="47.91984" lon="6.95724">
        <ele>558</ele>
        <time>2026-05-09T15:27:32.762Z</time>
      </trkpt>
      <trkpt lat="47.91984" lon="6.95723">
        <ele>558</ele>
        <time>2026-05-09T15:27:33.762Z</time>
      </trkpt>
      <trkpt lat="47.91985" lon="6.95722">
        <ele>558</ele>
        <time>2026-05-09T15:27:34.762Z</time>
      </trkpt>
      <trkpt lat="47.91985" lon="6.95722">
        <ele>558</ele>
        <time>2026-05-09T15:27:35.763Z</time>
      </trkpt>
      <trkpt lat="47.91985" lon="6.95721">
        <ele>558</ele>
        <time>2026-05-09T15:27:36.762Z</time>
      </trkpt>
      <trkpt lat="47.91988" lon="6.95714">
        <ele>559</ele>
        <time>2026-05-09T15:27:43.082Z</time>
      </trkpt>
      <trkpt lat="47.91988" lon="6.95714">
        <ele>559</ele>
        <time>2026-05-09T15:27:44.082Z</time>
      </trkpt>
      <trkpt lat="47.91988" lon="6.95713">
        <ele>559</ele>
        <time>2026-05-09T15:27:45.082Z</time>
      </trkpt>
      <trkpt lat="47.91988" lon="6.95712">
        <ele>559</ele>
        <time>2026-05-09T15:27:46.082Z</time>
      </trkpt>
      <trkpt lat="47.91988" lon="6.95712">
        <ele>560</ele>
        <time>2026-05-09T15:27:47.082Z</time>
      </trkpt>
      <trkpt lat="47.91988" lon="6.95711">
        <ele>560</ele>
        <time>2026-05-09T15:27:48.082Z</time>
      </trkpt>
      <trkpt lat="47.91988" lon="6.9571">
        <ele>560</ele>
        <time>2026-05-09T15:27:49.081Z</time>
      </trkpt>
      <trkpt lat="47.91989" lon="6.9571">
        <ele>560</ele>
        <time>2026-05-09T15:27:50.081Z</time>
      </trkpt>
      <trkpt lat="47.91989" lon="6.95708">
        <ele>560</ele>
        <time>2026-05-09T15:27:51.081Z</time>
      </trkpt>
      <trkpt lat="47.91989" lon="6.95707">
        <ele>560</ele>
        <time>2026-05-09T15:27:52.081Z</time>
      </trkpt>
      <trkpt lat="47.9199" lon="6.95706">
        <ele>560</ele>
        <time>2026-05-09T15:27:53.081Z</time>
      </trkpt>
      <trkpt lat="47.9199" lon="6.95705">
        <ele>560</ele>
        <time>2026-05-09T15:27:54.082Z</time>
      </trkpt>
      <trkpt lat="47.9199" lon="6.95704">
        <ele>560</ele>
        <time>2026-05-09T15:27:55.082Z</time>
      </trkpt>
      <trkpt lat="47.9199" lon="6.95702">
        <ele>561</ele>
        <time>2026-05-09T15:27:56.082Z</time>
      </trkpt>
      <trkpt lat="47.9199" lon="6.95701">
        <ele>561</ele>
        <time>2026-05-09T15:27:57.082Z</time>
      </trkpt>
      <trkpt lat="47.91989" lon="6.957">
        <ele>562</ele>
        <time>2026-05-09T15:27:58.082Z</time>
      </trkpt>
      <trkpt lat="47.91989" lon="6.95699">
        <ele>562</ele>
        <time>2026-05-09T15:27:59.082Z</time>
      </trkpt>
      <trkpt lat="47.91989" lon="6.95698">
        <ele>562</ele>
        <time>2026-05-09T15:28:00.082Z</time>
      </trkpt>
      <trkpt lat="47.9199" lon="6.95698">
        <ele>563</ele>
        <time>2026-05-09T15:28:01.082Z</time>
      </trkpt>
      <trkpt lat="47.9199" lon="6.95698">
        <ele>563</ele>
        <time>2026-05-09T15:28:02.082Z</time>
      </trkpt>
      <trkpt lat="47.9199" lon="6.95698">
        <ele>558</ele>
        <time>2026-05-09T15:28:28.392Z</time>
      </trkpt>
      <trkpt lat="47.91992" lon="6.95695">
        <ele>563</ele>
        <time>2026-05-09T15:28:40.538Z</time>
      </trkpt>
      <trkpt lat="47.91993" lon="6.95695">
        <ele>563</ele>
        <time>2026-05-09T15:28:41.538Z</time>
      </trkpt>
      <trkpt lat="47.91993" lon="6.95695">
        <ele>563</ele>
        <time>2026-05-09T15:28:42.538Z</time>
      </trkpt>
      <trkpt lat="47.91994" lon="6.95695">
        <ele>563</ele>
        <time>2026-05-09T15:28:43.537Z</time>
      </trkpt>
      <trkpt lat="47.91995" lon="6.95696">
        <ele>563</ele>
        <time>2026-05-09T15:28:44.538Z</time>
      </trkpt>
      <trkpt lat="47.91996" lon="6.95697">
        <ele>563</ele>
        <time>2026-05-09T15:28:45.537Z</time>
      </trkpt>
      <trkpt lat="47.91997" lon="6.95697">
        <ele>563</ele>
        <time>2026-05-09T15:28:46.537Z</time>
      </trkpt>
      <trkpt lat="47.91998" lon="6.95697">
        <ele>563</ele>
        <time>2026-05-09T15:28:47.537Z</time>
      </trkpt>
      <trkpt lat="47.91998" lon="6.95698">
        <ele>562</ele>
        <time>2026-05-09T15:28:48.538Z</time>
      </trkpt>
      <trkpt lat="47.91999" lon="6.95699">
        <ele>562</ele>
        <time>2026-05-09T15:28:49.538Z</time>
      </trkpt>
      <trkpt lat="47.91999" lon="6.957">
        <ele>562</ele>
        <time>2026-05-09T15:28:50.537Z</time>
      </trkpt>
      <trkpt lat="47.92" lon="6.957">
        <ele>561</ele>
        <time>2026-05-09T15:28:51.537Z</time>
      </trkpt>
      <trkpt lat="47.92001" lon="6.957">
        <ele>560</ele>
        <time>2026-05-09T15:28:52.537Z</time>
      </trkpt>
      <trkpt lat="47.92002" lon="6.95701">
        <ele>559</ele>
        <time>2026-05-09T15:28:53.537Z</time>
      </trkpt>
      <trkpt lat="47.92003" lon="6.95701">
        <ele>559</ele>
        <time>2026-05-09T15:28:54.537Z</time>
      </trkpt>
      <trkpt lat="47.92003" lon="6.95702">
        <ele>558</ele>
        <time>2026-05-09T15:28:55.537Z</time>
      </trkpt>
      <trkpt lat="47.92003" lon="6.95703">
        <ele>557</ele>
        <time>2026-05-09T15:28:56.537Z</time>
      </trkpt>
      <trkpt lat="47.92004" lon="6.95704">
        <ele>556</ele>
        <time>2026-05-09T15:28:57.538Z</time>
      </trkpt>
      <trkpt lat="47.92005" lon="6.95705">
        <ele>556</ele>
        <time>2026-05-09T15:28:58.538Z</time>
      </trkpt>
      <trkpt lat="47.92005" lon="6.95706">
        <ele>556</ele>
        <time>2026-05-09T15:28:59.538Z</time>
      </trkpt>
      <trkpt lat="47.92005" lon="6.95706">
        <ele>555</ele>
        <time>2026-05-09T15:29:00.538Z</time>
      </trkpt>
      <trkpt lat="47.92005" lon="6.95706">
        <ele>555</ele>
        <time>2026-05-09T15:29:01.537Z</time>
      </trkpt>
      <trkpt lat="47.92006" lon="6.95702">
        <ele>554</ele>
        <time>2026-05-09T15:29:10.861Z</time>
      </trkpt>
      <trkpt lat="47.92006" lon="6.95701">
        <ele>554</ele>
        <time>2026-05-09T15:29:11.861Z</time>
      </trkpt>
      <trkpt lat="47.92006" lon="6.957">
        <ele>555</ele>
        <time>2026-05-09T15:29:12.861Z</time>
      </trkpt>
      <trkpt lat="47.92006" lon="6.95699">
        <ele>555</ele>
        <time>2026-05-09T15:29:13.861Z</time>
      </trkpt>
      <trkpt lat="47.92006" lon="6.95698">
        <ele>555</ele>
        <time>2026-05-09T15:29:14.861Z</time>
      </trkpt>
      <trkpt lat="47.92005" lon="6.95697">
        <ele>556</ele>
        <time>2026-05-09T15:29:15.862Z</time>
      </trkpt>
      <trkpt lat="47.92005" lon="6.95695">
        <ele>556</ele>
        <time>2026-05-09T15:29:16.862Z</time>
      </trkpt>
      <trkpt lat="47.92005" lon="6.95694">
        <ele>556</ele>
        <time>2026-05-09T15:29:17.861Z</time>
      </trkpt>
      <trkpt lat="47.92005" lon="6.95693">
        <ele>557</ele>
        <time>2026-05-09T15:29:18.862Z</time>
      </trkpt>
      <trkpt lat="47.92004" lon="6.95692">
        <ele>557</ele>
        <time>2026-05-09T15:29:19.862Z</time>
      </trkpt>
      <trkpt lat="47.92003" lon="6.95691">
        <ele>557</ele>
        <time>2026-05-09T15:29:20.862Z</time>
      </trkpt>
      <trkpt lat="47.92002" lon="6.95691">
        <ele>558</ele>
        <time>2026-05-09T15:29:21.861Z</time>
      </trkpt>
      <trkpt lat="47.92001" lon="6.9569">
        <ele>558</ele>
        <time>2026-05-09T15:29:22.861Z</time>
      </trkpt>
      <trkpt lat="47.92" lon="6.95689">
        <ele>558</ele>
        <time>2026-05-09T15:29:23.861Z</time>
      </trkpt>
      <trkpt lat="47.92" lon="6.95688">
        <ele>559</ele>
        <time>2026-05-09T15:29:24.861Z</time>
      </trkpt>
      <trkpt lat="47.91999" lon="6.95687">
        <ele>560</ele>
        <time>2026-05-09T15:29:25.861Z</time>
      </trkpt>
      <trkpt lat="47.91999" lon="6.95686">
        <ele>560</ele>
        <time>2026-05-09T15:29:26.861Z</time>
      </trkpt>
      <trkpt lat="47.91997" lon="6.95685">
        <ele>561</ele>
        <time>2026-05-09T15:29:27.862Z</time>
      </trkpt>
      <trkpt lat="47.91996" lon="6.95685">
        <ele>561</ele>
        <time>2026-05-09T15:29:28.861Z</time>
      </trkpt>
      <trkpt lat="47.91995" lon="6.95684">
        <ele>562</ele>
        <time>2026-05-09T15:29:29.861Z</time>
      </trkpt>
      <trkpt lat="47.91994" lon="6.95684">
        <ele>562</ele>
        <time>2026-05-09T15:29:30.861Z</time>
      </trkpt>
      <trkpt lat="47.91993" lon="6.95683">
        <ele>563</ele>
        <time>2026-05-09T15:29:31.862Z</time>
      </trkpt>
      <trkpt lat="47.91992" lon="6.95682">
        <ele>563</ele>
        <time>2026-05-09T15:29:32.861Z</time>
      </trkpt>
      <trkpt lat="47.91992" lon="6.95681">
        <ele>563</ele>
        <time>2026-05-09T15:29:33.861Z</time>
      </trkpt>
      <trkpt lat="47.91991" lon="6.9568">
        <ele>564</ele>
        <time>2026-05-09T15:29:34.861Z</time>
      </trkpt>
      <trkpt lat="47.9199" lon="6.95677">
        <ele>564</ele>
        <time>2026-05-09T15:29:35.861Z</time>
      </trkpt>
      <trkpt lat="47.91991" lon="6.95676">
        <ele>564</ele>
        <time>2026-05-09T15:29:36.862Z</time>
      </trkpt>
      <trkpt lat="47.9199" lon="6.95675">
        <ele>564</ele>
        <time>2026-05-09T15:29:37.861Z</time>
      </trkpt>
      <trkpt lat="47.91989" lon="6.95675">
        <ele>564</ele>
        <time>2026-05-09T15:29:38.862Z</time>
      </trkpt>
      <trkpt lat="47.91989" lon="6.95674">
        <ele>565</ele>
        <time>2026-05-09T15:29:39.861Z</time>
      </trkpt>
      <trkpt lat="47.91989" lon="6.95673">
        <ele>565</ele>
        <time>2026-05-09T15:29:40.861Z</time>
      </trkpt>
      <trkpt lat="47.91989" lon="6.95673">
        <ele>565</ele>
        <time>2026-05-09T15:29:41.862Z</time>
      </trkpt>
      <trkpt lat="47.91988" lon="6.95673">
        <ele>565</ele>
        <time>2026-05-09T15:29:42.862Z</time>
      </trkpt>
      <trkpt lat="47.91988" lon="6.95672">
        <ele>565</ele>
        <time>2026-05-09T15:29:43.861Z</time>
      </trkpt>
      <trkpt lat="47.91988" lon="6.95672">
        <ele>565</ele>
        <time>2026-05-09T15:29:44.861Z</time>
      </trkpt>
      <trkpt lat="47.91988" lon="6.95671">
        <ele>566</ele>
        <time>2026-05-09T15:29:45.862Z</time>
      </trkpt>
      <trkpt lat="47.91988" lon="6.95671">
        <ele>566</ele>
        <time>2026-05-09T15:29:46.862Z</time>
      </trkpt>
      <trkpt lat="47.91988" lon="6.95671">
        <ele>566</ele>
        <time>2026-05-09T15:29:47.862Z</time>
      </trkpt>
      <trkpt lat="47.91988" lon="6.95672">
        <ele>567</ele>
        <time>2026-05-09T15:29:48.861Z</time>
      </trkpt>
      <trkpt lat="47.91988" lon="6.95673">
        <ele>567</ele>
        <time>2026-05-09T15:29:49.862Z</time>
      </trkpt>
      <trkpt lat="47.91987" lon="6.95673">
        <ele>568</ele>
        <time>2026-05-09T15:29:50.862Z</time>
      </trkpt>
      <trkpt lat="47.91987" lon="6.95672">
        <ele>568</ele>
        <time>2026-05-09T15:29:51.861Z</time>
      </trkpt>
      <trkpt lat="47.91985" lon="6.95672">
        <ele>576</ele>
        <time>2026-05-09T15:30:09.090Z</time>
      </trkpt>
      <trkpt lat="47.91985" lon="6.95672">
        <ele>576</ele>
        <time>2026-05-09T15:30:10.090Z</time>
      </trkpt>
      <trkpt lat="47.91985" lon="6.95672">
        <ele>576</ele>
        <time>2026-05-09T15:30:11.089Z</time>
      </trkpt>
      <trkpt lat="47.91986" lon="6.95672">
        <ele>576</ele>
        <time>2026-05-09T15:30:12.090Z</time>
      </trkpt>
      <trkpt lat="47.91986" lon="6.95672">
        <ele>575</ele>
        <time>2026-05-09T15:30:13.089Z</time>
      </trkpt>
      <trkpt lat="47.91987" lon="6.95672">
        <ele>575</ele>
        <time>2026-05-09T15:30:14.089Z</time>
      </trkpt>
      <trkpt lat="47.91987" lon="6.95672">
        <ele>574</ele>
        <time>2026-05-09T15:30:15.089Z</time>
      </trkpt>
      <trkpt lat="47.91987" lon="6.95672">
        <ele>574</ele>
        <time>2026-05-09T15:30:16.089Z</time>
      </trkpt>
      <trkpt lat="47.91988" lon="6.95673">
        <ele>574</ele>
        <time>2026-05-09T15:30:17.090Z</time>
      </trkpt>
      <trkpt lat="47.91988" lon="6.95673">
        <ele>573</ele>
        <time>2026-05-09T15:30:18.090Z</time>
      </trkpt>
      <trkpt lat="47.91988" lon="6.95673">
        <ele>573</ele>
        <time>2026-05-09T15:30:19.089Z</time>
      </trkpt>
      <trkpt lat="47.91988" lon="6.95673">
        <ele>573</ele>
        <time>2026-05-09T15:30:20.089Z</time>
      </trkpt>
      <trkpt lat="47.91988" lon="6.95672">
        <ele>573</ele>
        <time>2026-05-09T15:30:21.089Z</time>
      </trkpt>
      <trkpt lat="47.91989" lon="6.95672">
        <ele>573</ele>
        <time>2026-05-09T15:30:22.089Z</time>
      </trkpt>
      <trkpt lat="47.91989" lon="6.95671">
        <ele>573</ele>
        <time>2026-05-09T15:30:23.089Z</time>
      </trkpt>
      <trkpt lat="47.9199" lon="6.9567">
        <ele>573</ele>
        <time>2026-05-09T15:30:24.089Z</time>
      </trkpt>
      <trkpt lat="47.9199" lon="6.95669">
        <ele>573</ele>
        <time>2026-05-09T15:30:25.089Z</time>
      </trkpt>
      <trkpt lat="47.9199" lon="6.95668">
        <ele>573</ele>
        <time>2026-05-09T15:30:26.090Z</time>
      </trkpt>
      <trkpt lat="47.9199" lon="6.95667">
        <ele>573</ele>
        <time>2026-05-09T15:30:27.090Z</time>
      </trkpt>
      <trkpt lat="47.9199" lon="6.95666">
        <ele>573</ele>
        <time>2026-05-09T15:30:28.089Z</time>
      </trkpt>
      <trkpt lat="47.9199" lon="6.95665">
        <ele>573</ele>
        <time>2026-05-09T15:30:29.089Z</time>
      </trkpt>
      <trkpt lat="47.9199" lon="6.95663">
        <ele>573</ele>
        <time>2026-05-09T15:30:30.089Z</time>
      </trkpt>
      <trkpt lat="47.91989" lon="6.95662">
        <ele>573</ele>
        <time>2026-05-09T15:30:31.089Z</time>
      </trkpt>
      <trkpt lat="47.91989" lon="6.95661">
        <ele>573</ele>
        <time>2026-05-09T15:30:32.089Z</time>
      </trkpt>
      <trkpt lat="47.91989" lon="6.95661">
        <ele>572</ele>
        <time>2026-05-09T15:30:33.089Z</time>
      </trkpt>
      <trkpt lat="47.91989" lon="6.9566">
        <ele>572</ele>
        <time>2026-05-09T15:30:34.089Z</time>
      </trkpt>
      <trkpt lat="47.91989" lon="6.9566">
        <ele>571</ele>
        <time>2026-05-09T15:30:35.089Z</time>
      </trkpt>
      <trkpt lat="47.91989" lon="6.95659">
        <ele>571</ele>
        <time>2026-05-09T15:30:36.090Z</time>
      </trkpt>
      <trkpt lat="47.91989" lon="6.95659">
        <ele>571</ele>
        <time>2026-05-09T15:30:37.090Z</time>
      </trkpt>
      <trkpt lat="47.9199" lon="6.95659">
        <ele>570</ele>
        <time>2026-05-09T15:30:38.090Z</time>
      </trkpt>
      <trkpt lat="47.9199" lon="6.95658">
        <ele>570</ele>
        <time>2026-05-09T15:30:39.090Z</time>
      </trkpt>
      <trkpt lat="47.91989" lon="6.95658">
        <ele>570</ele>
        <time>2026-05-09T15:30:40.089Z</time>
      </trkpt>
      <trkpt lat="47.91989" lon="6.95658">
        <ele>569</ele>
        <time>2026-05-09T15:30:41.089Z</time>
      </trkpt>
      <trkpt lat="47.91989" lon="6.95658">
        <ele>569</ele>
        <time>2026-05-09T15:30:42.089Z</time>
      </trkpt>
      <trkpt lat="47.91989" lon="6.95657">
        <ele>568</ele>
        <time>2026-05-09T15:30:43.090Z</time>
      </trkpt>
      <trkpt lat="47.91988" lon="6.95656">
        <ele>568</ele>
        <time>2026-05-09T15:30:44.089Z</time>
      </trkpt>
      <trkpt lat="47.91988" lon="6.95655">
        <ele>567</ele>
        <time>2026-05-09T15:30:45.090Z</time>
      </trkpt>
      <trkpt lat="47.91988" lon="6.95654">
        <ele>567</ele>
        <time>2026-05-09T15:30:46.090Z</time>
      </trkpt>
      <trkpt lat="47.91988" lon="6.95652">
        <ele>567</ele>
        <time>2026-05-09T15:30:47.090Z</time>
      </trkpt>
      <trkpt lat="47.91988" lon="6.95651">
        <ele>567</ele>
        <time>2026-05-09T15:30:48.089Z</time>
      </trkpt>
      <trkpt lat="47.91988" lon="6.9565">
        <ele>567</ele>
        <time>2026-05-09T15:30:49.089Z</time>
      </trkpt>
      <trkpt lat="47.91988" lon="6.95648">
        <ele>567</ele>
        <time>2026-05-09T15:30:50.089Z</time>
      </trkpt>
      <trkpt lat="47.91988" lon="6.95646">
        <ele>567</ele>
        <time>2026-05-09T15:30:51.090Z</time>
      </trkpt>
      <trkpt lat="47.91989" lon="6.95644">
        <ele>567</ele>
        <time>2026-05-09T15:30:52.090Z</time>
      </trkpt>
      <trkpt lat="47.91989" lon="6.95642">
        <ele>567</ele>
        <time>2026-05-09T15:30:53.089Z</time>
      </trkpt>
      <trkpt lat="47.91989" lon="6.95641">
        <ele>567</ele>
        <time>2026-05-09T15:30:54.089Z</time>
      </trkpt>
      <trkpt lat="47.91989" lon="6.95639">
        <ele>567</ele>
        <time>2026-05-09T15:30:55.090Z</time>
      </trkpt>
      <trkpt lat="47.91989" lon="6.95637">
        <ele>567</ele>
        <time>2026-05-09T15:30:56.090Z</time>
      </trkpt>
      <trkpt lat="47.91989" lon="6.95636">
        <ele>567</ele>
        <time>2026-05-09T15:30:57.090Z</time>
      </trkpt>
      <trkpt lat="47.91989" lon="6.95635">
        <ele>567</ele>
        <time>2026-05-09T15:30:58.089Z</time>
      </trkpt>
      <trkpt lat="47.91988" lon="6.95634">
        <ele>568</ele>
        <time>2026-05-09T15:30:59.090Z</time>
      </trkpt>
      <trkpt lat="47.91988" lon="6.95633">
        <ele>568</ele>
        <time>2026-05-09T15:31:00.090Z</time>
      </trkpt>
      <trkpt lat="47.91988" lon="6.95632">
        <ele>568</ele>
        <time>2026-05-09T15:31:01.090Z</time>
      </trkpt>
      <trkpt lat="47.91987" lon="6.95631">
        <ele>568</ele>
        <time>2026-05-09T15:31:02.089Z</time>
      </trkpt>
      <trkpt lat="47.91987" lon="6.9563">
        <ele>569</ele>
        <time>2026-05-09T15:31:03.089Z</time>
      </trkpt>
      <trkpt lat="47.91987" lon="6.95629">
        <ele>569</ele>
        <time>2026-05-09T15:31:04.090Z</time>
      </trkpt>
      <trkpt lat="47.91988" lon="6.95627">
        <ele>570</ele>
        <time>2026-05-09T15:31:05.089Z</time>
      </trkpt>
      <trkpt lat="47.91988" lon="6.95626">
        <ele>570</ele>
        <time>2026-05-09T15:31:06.089Z</time>
      </trkpt>
      <trkpt lat="47.91988" lon="6.95625">
        <ele>571</ele>
        <time>2026-05-09T15:31:07.089Z</time>
      </trkpt>
      <trkpt lat="47.91987" lon="6.95624">
        <ele>571</ele>
        <time>2026-05-09T15:31:08.090Z</time>
      </trkpt>
      <trkpt lat="47.91987" lon="6.95623">
        <ele>571</ele>
        <time>2026-05-09T15:31:09.090Z</time>
      </trkpt>
      <trkpt lat="47.91987" lon="6.95622">
        <ele>572</ele>
        <time>2026-05-09T15:31:10.089Z</time>
      </trkpt>
      <trkpt lat="47.91987" lon="6.95622">
        <ele>572</ele>
        <time>2026-05-09T15:31:11.089Z</time>
      </trkpt>
      <trkpt lat="47.91987" lon="6.95621">
        <ele>573</ele>
        <time>2026-05-09T15:31:12.090Z</time>
      </trkpt>
      <trkpt lat="47.91987" lon="6.95621">
        <ele>574</ele>
        <time>2026-05-09T15:31:13.090Z</time>
      </trkpt>
      <trkpt lat="47.91987" lon="6.9562">
        <ele>574</ele>
        <time>2026-05-09T15:31:14.089Z</time>
      </trkpt>
      <trkpt lat="47.91987" lon="6.9562">
        <ele>574</ele>
        <time>2026-05-09T15:31:15.090Z</time>
      </trkpt>
      <trkpt lat="47.91987" lon="6.95619">
        <ele>574</ele>
        <time>2026-05-09T15:31:16.090Z</time>
      </trkpt>
      <trkpt lat="47.91987" lon="6.95619">
        <ele>575</ele>
        <time>2026-05-09T15:31:17.090Z</time>
      </trkpt>
      <trkpt lat="47.91987" lon="6.95618">
        <ele>575</ele>
        <time>2026-05-09T15:31:18.089Z</time>
      </trkpt>
      <trkpt lat="47.91987" lon="6.95618">
        <ele>575</ele>
        <time>2026-05-09T15:31:19.089Z</time>
      </trkpt>
      <trkpt lat="47.91987" lon="6.95618">
        <ele>575</ele>
        <time>2026-05-09T15:31:20.089Z</time>
      </trkpt>
      <trkpt lat="47.9199" lon="6.95614">
        <ele>575</ele>
        <time>2026-05-09T15:31:38.284Z</time>
      </trkpt>
      <trkpt lat="47.91991" lon="6.95613">
        <ele>575</ele>
        <time>2026-05-09T15:31:39.284Z</time>
      </trkpt>
      <trkpt lat="47.91992" lon="6.95614">
        <ele>574</ele>
        <time>2026-05-09T15:31:40.284Z</time>
      </trkpt>
      <trkpt lat="47.91993" lon="6.95614">
        <ele>574</ele>
        <time>2026-05-09T15:31:41.285Z</time>
      </trkpt>
      <trkpt lat="47.91994" lon="6.95614">
        <ele>573</ele>
        <time>2026-05-09T15:31:42.285Z</time>
      </trkpt>
      <trkpt lat="47.91994" lon="6.95614">
        <ele>573</ele>
        <time>2026-05-09T15:31:43.285Z</time>
      </trkpt>
      <trkpt lat="47.91994" lon="6.95615">
        <ele>573</ele>
        <time>2026-05-09T15:31:44.284Z</time>
      </trkpt>
      <trkpt lat="47.91994" lon="6.95611">
        <ele>576</ele>
        <time>2026-05-09T15:31:58.508Z</time>
      </trkpt>
      <trkpt lat="47.9199" lon="6.95605">
        <ele>580</ele>
        <time>2026-05-09T15:32:06.880Z</time>
      </trkpt>
      <trkpt lat="47.91989" lon="6.95603">
        <ele>580</ele>
        <time>2026-05-09T15:32:07.880Z</time>
      </trkpt>
      <trkpt lat="47.91988" lon="6.95601">
        <ele>580</ele>
        <time>2026-05-09T15:32:08.881Z</time>
      </trkpt>
      <trkpt lat="47.91987" lon="6.95599">
        <ele>580</ele>
        <time>2026-05-09T15:32:09.880Z</time>
      </trkpt>
      <trkpt lat="47.91986" lon="6.95598">
        <ele>580</ele>
        <time>2026-05-09T15:32:10.880Z</time>
      </trkpt>
      <trkpt lat="47.91986" lon="6.95596">
        <ele>580</ele>
        <time>2026-05-09T15:32:11.880Z</time>
      </trkpt>
      <trkpt lat="47.91985" lon="6.95594">
        <ele>580</ele>
        <time>2026-05-09T15:32:12.880Z</time>
      </trkpt>
      <trkpt lat="47.91985" lon="6.95592">
        <ele>580</ele>
        <time>2026-05-09T15:32:13.881Z</time>
      </trkpt>
      <trkpt lat="47.91984" lon="6.9559">
        <ele>579</ele>
        <time>2026-05-09T15:32:14.880Z</time>
      </trkpt>
      <trkpt lat="47.91984" lon="6.95589">
        <ele>579</ele>
        <time>2026-05-09T15:32:15.880Z</time>
      </trkpt>
      <trkpt lat="47.91983" lon="6.95587">
        <ele>578</ele>
        <time>2026-05-09T15:32:16.880Z</time>
      </trkpt>
      <trkpt lat="47.91982" lon="6.95586">
        <ele>578</ele>
        <time>2026-05-09T15:32:17.881Z</time>
      </trkpt>
      <trkpt lat="47.91981" lon="6.95584">
        <ele>578</ele>
        <time>2026-05-09T15:32:18.880Z</time>
      </trkpt>
      <trkpt lat="47.9198" lon="6.95584">
        <ele>578</ele>
        <time>2026-05-09T15:32:19.880Z</time>
      </trkpt>
      <trkpt lat="47.91979" lon="6.95582">
        <ele>577</ele>
        <time>2026-05-09T15:32:20.881Z</time>
      </trkpt>
      <trkpt lat="47.91978" lon="6.95582">
        <ele>577</ele>
        <time>2026-05-09T15:32:21.880Z</time>
      </trkpt>
      <trkpt lat="47.91978" lon="6.95581">
        <ele>577</ele>
        <time>2026-05-09T15:32:22.880Z</time>
      </trkpt>
      <trkpt lat="47.91977" lon="6.95579">
        <ele>577</ele>
        <time>2026-05-09T15:32:23.881Z</time>
      </trkpt>
      <trkpt lat="47.91977" lon="6.95577">
        <ele>578</ele>
        <time>2026-05-09T15:32:24.880Z</time>
      </trkpt>
      <trkpt lat="47.91976" lon="6.95575">
        <ele>578</ele>
        <time>2026-05-09T15:32:25.880Z</time>
      </trkpt>
      <trkpt lat="47.91977" lon="6.95572">
        <ele>579</ele>
        <time>2026-05-09T15:32:26.880Z</time>
      </trkpt>
      <trkpt lat="47.91976" lon="6.95569">
        <ele>579</ele>
        <time>2026-05-09T15:32:27.881Z</time>
      </trkpt>
      <trkpt lat="47.91976" lon="6.95567">
        <ele>579</ele>
        <time>2026-05-09T15:32:28.881Z</time>
      </trkpt>
      <trkpt lat="47.91976" lon="6.95564">
        <ele>579</ele>
        <time>2026-05-09T15:32:29.881Z</time>
      </trkpt>
      <trkpt lat="47.91976" lon="6.95562">
        <ele>579</ele>
        <time>2026-05-09T15:32:30.880Z</time>
      </trkpt>
      <trkpt lat="47.91976" lon="6.9556">
        <ele>579</ele>
        <time>2026-05-09T15:32:31.880Z</time>
      </trkpt>
      <trkpt lat="47.91976" lon="6.95558">
        <ele>580</ele>
        <time>2026-05-09T15:32:32.881Z</time>
      </trkpt>
      <trkpt lat="47.91977" lon="6.95556">
        <ele>580</ele>
        <time>2026-05-09T15:32:33.880Z</time>
      </trkpt>
      <trkpt lat="47.91977" lon="6.95554">
        <ele>580</ele>
        <time>2026-05-09T15:32:34.881Z</time>
      </trkpt>
      <trkpt lat="47.91977" lon="6.95551">
        <ele>581</ele>
        <time>2026-05-09T15:32:35.881Z</time>
      </trkpt>
      <trkpt lat="47.91977" lon="6.95549">
        <ele>581</ele>
        <time>2026-05-09T15:32:36.880Z</time>
      </trkpt>
      <trkpt lat="47.91977" lon="6.95547">
        <ele>581</ele>
        <time>2026-05-09T15:32:37.880Z</time>
      </trkpt>
      <trkpt lat="47.91977" lon="6.95545">
        <ele>582</ele>
        <time>2026-05-09T15:32:38.880Z</time>
      </trkpt>
      <trkpt lat="47.91978" lon="6.95542">
        <ele>582</ele>
        <time>2026-05-09T15:32:39.880Z</time>
      </trkpt>
      <trkpt lat="47.91977" lon="6.9554">
        <ele>582</ele>
        <time>2026-05-09T15:32:40.881Z</time>
      </trkpt>
      <trkpt lat="47.91977" lon="6.95538">
        <ele>582</ele>
        <time>2026-05-09T15:32:41.881Z</time>
      </trkpt>
      <trkpt lat="47.91977" lon="6.95536">
        <ele>581</ele>
        <time>2026-05-09T15:32:42.880Z</time>
      </trkpt>
      <trkpt lat="47.91977" lon="6.95534">
        <ele>581</ele>
        <time>2026-05-09T15:32:43.880Z</time>
      </trkpt>
      <trkpt lat="47.91977" lon="6.95532">
        <ele>581</ele>
        <time>2026-05-09T15:32:44.881Z</time>
      </trkpt>
      <trkpt lat="47.91976" lon="6.9553">
        <ele>581</ele>
        <time>2026-05-09T15:32:45.880Z</time>
      </trkpt>
      <trkpt lat="47.91976" lon="6.95528">
        <ele>581</ele>
        <time>2026-05-09T15:32:46.880Z</time>
      </trkpt>
      <trkpt lat="47.91975" lon="6.95526">
        <ele>581</ele>
        <time>2026-05-09T15:32:47.881Z</time>
      </trkpt>
      <trkpt lat="47.91975" lon="6.95525">
        <ele>582</ele>
        <time>2026-05-09T15:32:48.880Z</time>
      </trkpt>
      <trkpt lat="47.91975" lon="6.95523">
        <ele>582</ele>
        <time>2026-05-09T15:32:49.881Z</time>
      </trkpt>
      <trkpt lat="47.91975" lon="6.95522">
        <ele>582</ele>
        <time>2026-05-09T15:32:50.880Z</time>
      </trkpt>
      <trkpt lat="47.91974" lon="6.9552">
        <ele>582</ele>
        <time>2026-05-09T15:32:51.880Z</time>
      </trkpt>
      <trkpt lat="47.91974" lon="6.95518">
        <ele>581</ele>
        <time>2026-05-09T15:32:52.881Z</time>
      </trkpt>
      <trkpt lat="47.91973" lon="6.95516">
        <ele>581</ele>
        <time>2026-05-09T15:32:53.880Z</time>
      </trkpt>
      <trkpt lat="47.91972" lon="6.95515">
        <ele>580</ele>
        <time>2026-05-09T15:32:54.881Z</time>
      </trkpt>
      <trkpt lat="47.91971" lon="6.95513">
        <ele>580</ele>
        <time>2026-05-09T15:32:55.880Z</time>
      </trkpt>
      <trkpt lat="47.91969" lon="6.95513">
        <ele>580</ele>
        <time>2026-05-09T15:32:56.880Z</time>
      </trkpt>
      <trkpt lat="47.91969" lon="6.95513">
        <ele>580</ele>
        <time>2026-05-09T15:32:57.880Z</time>
      </trkpt>
      <trkpt lat="47.91968" lon="6.95513">
        <ele>580</ele>
        <time>2026-05-09T15:32:58.881Z</time>
      </trkpt>
      <trkpt lat="47.91967" lon="6.95513">
        <ele>579</ele>
        <time>2026-05-09T15:32:59.880Z</time>
      </trkpt>
      <trkpt lat="47.91966" lon="6.95514">
        <ele>580</ele>
        <time>2026-05-09T15:33:00.880Z</time>
      </trkpt>
      <trkpt lat="47.91965" lon="6.95515">
        <ele>580</ele>
        <time>2026-05-09T15:33:01.880Z</time>
      </trkpt>
      <trkpt lat="47.91964" lon="6.95515">
        <ele>580</ele>
        <time>2026-05-09T15:33:02.880Z</time>
      </trkpt>
      <trkpt lat="47.91964" lon="6.95515">
        <ele>580</ele>
        <time>2026-05-09T15:33:03.881Z</time>
      </trkpt>
      <trkpt lat="47.91964" lon="6.95515">
        <ele>581</ele>
        <time>2026-05-09T15:33:04.880Z</time>
      </trkpt>
      <trkpt lat="47.91964" lon="6.95518">
        <ele>582</ele>
        <time>2026-05-09T15:33:25.286Z</time>
      </trkpt>
      <trkpt lat="47.91964" lon="6.95518">
        <ele>582</ele>
        <time>2026-05-09T15:33:26.287Z</time>
      </trkpt>
      <trkpt lat="47.91964" lon="6.95518">
        <ele>581</ele>
        <time>2026-05-09T15:33:27.286Z</time>
      </trkpt>
      <trkpt lat="47.91964" lon="6.95518">
        <ele>581</ele>
        <time>2026-05-09T15:33:28.286Z</time>
      </trkpt>
      <trkpt lat="47.91964" lon="6.95518">
        <ele>580</ele>
        <time>2026-05-09T15:33:29.287Z</time>
      </trkpt>
      <trkpt lat="47.91964" lon="6.95518">
        <ele>578</ele>
        <time>2026-05-09T15:33:30.287Z</time>
      </trkpt>
      <trkpt lat="47.91964" lon="6.95518">
        <ele>578</ele>
        <time>2026-05-09T15:33:31.287Z</time>
      </trkpt>
      <trkpt lat="47.91964" lon="6.95518">
        <ele>577</ele>
        <time>2026-05-09T15:33:32.287Z</time>
      </trkpt>
      <trkpt lat="47.91964" lon="6.95519">
        <ele>578</ele>
        <time>2026-05-09T15:33:33.287Z</time>
      </trkpt>
      <trkpt lat="47.91964" lon="6.95519">
        <ele>578</ele>
        <time>2026-05-09T15:33:34.286Z</time>
      </trkpt>
      <trkpt lat="47.91964" lon="6.95519">
        <ele>578</ele>
        <time>2026-05-09T15:33:35.287Z</time>
      </trkpt>
      <trkpt lat="47.91964" lon="6.95519">
        <ele>578</ele>
        <time>2026-05-09T15:33:36.287Z</time>
      </trkpt>
      <trkpt lat="47.91964" lon="6.95519">
        <ele>578</ele>
        <time>2026-05-09T15:33:37.286Z</time>
      </trkpt>
      <trkpt lat="47.91964" lon="6.95519">
        <ele>578</ele>
        <time>2026-05-09T15:33:38.287Z</time>
      </trkpt>
      <trkpt lat="47.91964" lon="6.95519">
        <ele>578</ele>
        <time>2026-05-09T15:33:39.286Z</time>
      </trkpt>
      <trkpt lat="47.91965" lon="6.95519">
        <ele>579</ele>
        <time>2026-05-09T15:33:40.287Z</time>
      </trkpt>
      <trkpt lat="47.91965" lon="6.95519">
        <ele>579</ele>
        <time>2026-05-09T15:33:41.287Z</time>
      </trkpt>
      <trkpt lat="47.91965" lon="6.95519">
        <ele>580</ele>
        <time>2026-05-09T15:33:42.286Z</time>
      </trkpt>
      <trkpt lat="47.91965" lon="6.95519">
        <ele>580</ele>
        <time>2026-05-09T15:33:43.286Z</time>
      </trkpt>
      <trkpt lat="47.91965" lon="6.95519">
        <ele>581</ele>
        <time>2026-05-09T15:33:44.286Z</time>
      </trkpt>
      <trkpt lat="47.91965" lon="6.95519">
        <ele>581</ele>
        <time>2026-05-09T15:33:45.287Z</time>
      </trkpt>
      <trkpt lat="47.91965" lon="6.95519">
        <ele>581</ele>
        <time>2026-05-09T15:33:46.286Z</time>
      </trkpt>
      <trkpt lat="47.91965" lon="6.95519">
        <ele>581</ele>
        <time>2026-05-09T15:33:47.287Z</time>
      </trkpt>
      <trkpt lat="47.91965" lon="6.95519">
        <ele>581</ele>
        <time>2026-05-09T15:33:48.287Z</time>
      </trkpt>
      <trkpt lat="47.91965" lon="6.95519">
        <ele>581</ele>
        <time>2026-05-09T15:33:49.287Z</time>
      </trkpt>
      <trkpt lat="47.91964" lon="6.95519">
        <ele>581</ele>
        <time>2026-05-09T15:33:50.287Z</time>
      </trkpt>
      <trkpt lat="47.91964" lon="6.95517">
        <ele>581</ele>
        <time>2026-05-09T15:33:51.287Z</time>
      </trkpt>
      <trkpt lat="47.91964" lon="6.95516">
        <ele>581</ele>
        <time>2026-05-09T15:33:52.286Z</time>
      </trkpt>
      <trkpt lat="47.91963" lon="6.95514">
        <ele>580</ele>
        <time>2026-05-09T15:33:53.287Z</time>
      </trkpt>
      <trkpt lat="47.91964" lon="6.95513">
        <ele>580</ele>
        <time>2026-05-09T15:33:54.287Z</time>
      </trkpt>
      <trkpt lat="47.91963" lon="6.9551">
        <ele>579</ele>
        <time>2026-05-09T15:33:55.287Z</time>
      </trkpt>
      <trkpt lat="47.91963" lon="6.95508">
        <ele>578</ele>
        <time>2026-05-09T15:33:56.286Z</time>
      </trkpt>
      <trkpt lat="47.91962" lon="6.95506">
        <ele>578</ele>
        <time>2026-05-09T15:33:57.287Z</time>
      </trkpt>
      <trkpt lat="47.91962" lon="6.95504">
        <ele>577</ele>
        <time>2026-05-09T15:33:58.287Z</time>
      </trkpt>
      <trkpt lat="47.91961" lon="6.95503">
        <ele>577</ele>
        <time>2026-05-09T15:33:59.287Z</time>
      </trkpt>
      <trkpt lat="47.9196" lon="6.955">
        <ele>577</ele>
        <time>2026-05-09T15:34:00.286Z</time>
      </trkpt>
      <trkpt lat="47.91958" lon="6.95498">
        <ele>576</ele>
        <time>2026-05-09T15:34:01.287Z</time>
      </trkpt>
      <trkpt lat="47.91957" lon="6.95496">
        <ele>577</ele>
        <time>2026-05-09T15:34:02.286Z</time>
      </trkpt>
      <trkpt lat="47.91957" lon="6.95495">
        <ele>577</ele>
        <time>2026-05-09T15:34:03.286Z</time>
      </trkpt>
      <trkpt lat="47.91957" lon="6.95494">
        <ele>577</ele>
        <time>2026-05-09T15:34:04.286Z</time>
      </trkpt>
      <trkpt lat="47.91957" lon="6.95493">
        <ele>577</ele>
        <time>2026-05-09T15:34:05.287Z</time>
      </trkpt>
      <trkpt lat="47.91957" lon="6.95493">
        <ele>578</ele>
        <time>2026-05-09T15:34:06.286Z</time>
      </trkpt>
      <trkpt lat="47.91957" lon="6.95492">
        <ele>579</ele>
        <time>2026-05-09T15:34:07.287Z</time>
      </trkpt>
      <trkpt lat="47.91953" lon="6.95496">
        <ele>582</ele>
        <time>2026-05-09T15:34:17.421Z</time>
      </trkpt>
      <trkpt lat="47.91952" lon="6.95497">
        <ele>583</ele>
        <time>2026-05-09T15:34:18.422Z</time>
      </trkpt>
      <trkpt lat="47.91951" lon="6.95498">
        <ele>583</ele>
        <time>2026-05-09T15:34:19.421Z</time>
      </trkpt>
      <trkpt lat="47.9195" lon="6.95499">
        <ele>583</ele>
        <time>2026-05-09T15:34:20.422Z</time>
      </trkpt>
      <trkpt lat="47.91949" lon="6.95499">
        <ele>583</ele>
        <time>2026-05-09T15:34:21.421Z</time>
      </trkpt>
      <trkpt lat="47.91947" lon="6.95499">
        <ele>582</ele>
        <time>2026-05-09T15:34:22.422Z</time>
      </trkpt>
      <trkpt lat="47.91946" lon="6.955">
        <ele>581</ele>
        <time>2026-05-09T15:34:23.421Z</time>
      </trkpt>
      <trkpt lat="47.91945" lon="6.95501">
        <ele>581</ele>
        <time>2026-05-09T15:34:24.422Z</time>
      </trkpt>
      <trkpt lat="47.91945" lon="6.95502">
        <ele>580</ele>
        <time>2026-05-09T15:34:25.421Z</time>
      </trkpt>
      <trkpt lat="47.91944" lon="6.95503">
        <ele>581</ele>
        <time>2026-05-09T15:34:26.422Z</time>
      </trkpt>
      <trkpt lat="47.91944" lon="6.95504">
        <ele>581</ele>
        <time>2026-05-09T15:34:27.422Z</time>
      </trkpt>
      <trkpt lat="47.91944" lon="6.95504">
        <ele>581</ele>
        <time>2026-05-09T15:34:28.421Z</time>
      </trkpt>
      <trkpt lat="47.91944" lon="6.95504">
        <ele>581</ele>
        <time>2026-05-09T15:34:29.422Z</time>
      </trkpt>
      <trkpt lat="47.91945" lon="6.95502">
        <ele>586</ele>
        <time>2026-05-09T15:34:35.817Z</time>
      </trkpt>
      <trkpt lat="47.91945" lon="6.955">
        <ele>584</ele>
        <time>2026-05-09T15:34:47.978Z</time>
      </trkpt>
      <trkpt lat="47.91945" lon="6.95499">
        <ele>583</ele>
        <time>2026-05-09T15:34:48.978Z</time>
      </trkpt>
      <trkpt lat="47.91944" lon="6.95497">
        <ele>583</ele>
        <time>2026-05-09T15:34:49.977Z</time>
      </trkpt>
      <trkpt lat="47.91944" lon="6.95496">
        <ele>583</ele>
        <time>2026-05-09T15:34:50.977Z</time>
      </trkpt>
      <trkpt lat="47.91943" lon="6.95494">
        <ele>582</ele>
        <time>2026-05-09T15:34:51.978Z</time>
      </trkpt>
      <trkpt lat="47.91942" lon="6.95493">
        <ele>582</ele>
        <time>2026-05-09T15:34:52.977Z</time>
      </trkpt>
      <trkpt lat="47.91942" lon="6.95492">
        <ele>582</ele>
        <time>2026-05-09T15:34:53.978Z</time>
      </trkpt>
      <trkpt lat="47.91941" lon="6.95491">
        <ele>581</ele>
        <time>2026-05-09T15:34:54.977Z</time>
      </trkpt>
      <trkpt lat="47.91941" lon="6.9549">
        <ele>581</ele>
        <time>2026-05-09T15:34:55.978Z</time>
      </trkpt>
      <trkpt lat="47.91941" lon="6.9549">
        <ele>581</ele>
        <time>2026-05-09T15:34:56.977Z</time>
      </trkpt>
      <trkpt lat="47.91941" lon="6.95489">
        <ele>580</ele>
        <time>2026-05-09T15:34:57.978Z</time>
      </trkpt>
      <trkpt lat="47.91941" lon="6.95489">
        <ele>580</ele>
        <time>2026-05-09T15:34:58.978Z</time>
      </trkpt>
      <trkpt lat="47.91948" lon="6.9549">
        <ele>581</ele>
        <time>2026-05-09T15:35:05.186Z</time>
      </trkpt>
      <trkpt lat="47.91949" lon="6.95491">
        <ele>581</ele>
        <time>2026-05-09T15:35:06.186Z</time>
      </trkpt>
      <trkpt lat="47.9195" lon="6.95492">
        <ele>580</ele>
        <time>2026-05-09T15:35:07.187Z</time>
      </trkpt>
      <trkpt lat="47.91951" lon="6.95493">
        <ele>580</ele>
        <time>2026-05-09T15:35:08.186Z</time>
      </trkpt>
      <trkpt lat="47.91952" lon="6.95494">
        <ele>580</ele>
        <time>2026-05-09T15:35:09.187Z</time>
      </trkpt>
      <trkpt lat="47.91954" lon="6.95495">
        <ele>579</ele>
        <time>2026-05-09T15:35:10.186Z</time>
      </trkpt>
      <trkpt lat="47.91955" lon="6.95496">
        <ele>579</ele>
        <time>2026-05-09T15:35:11.187Z</time>
      </trkpt>
      <trkpt lat="47.91956" lon="6.95497">
        <ele>579</ele>
        <time>2026-05-09T15:35:12.186Z</time>
      </trkpt>
      <trkpt lat="47.91957" lon="6.95498">
        <ele>579</ele>
        <time>2026-05-09T15:35:13.187Z</time>
      </trkpt>
      <trkpt lat="47.91959" lon="6.95499">
        <ele>579</ele>
        <time>2026-05-09T15:35:14.187Z</time>
      </trkpt>
      <trkpt lat="47.9196" lon="6.955">
        <ele>579</ele>
        <time>2026-05-09T15:35:15.187Z</time>
      </trkpt>
      <trkpt lat="47.91961" lon="6.95501">
        <ele>579</ele>
        <time>2026-05-09T15:35:16.187Z</time>
      </trkpt>
      <trkpt lat="47.91962" lon="6.95502">
        <ele>579</ele>
        <time>2026-05-09T15:35:17.186Z</time>
      </trkpt>
      <trkpt lat="47.91964" lon="6.95503">
        <ele>578</ele>
        <time>2026-05-09T15:35:18.187Z</time>
      </trkpt>
      <trkpt lat="47.91965" lon="6.95504">
        <ele>578</ele>
        <time>2026-05-09T15:35:19.186Z</time>
      </trkpt>
      <trkpt lat="47.91966" lon="6.95504">
        <ele>577</ele>
        <time>2026-05-09T15:35:20.187Z</time>
      </trkpt>
      <trkpt lat="47.91968" lon="6.95504">
        <ele>577</ele>
        <time>2026-05-09T15:35:21.186Z</time>
      </trkpt>
      <trkpt lat="47.91969" lon="6.95505">
        <ele>577</ele>
        <time>2026-05-09T15:35:22.187Z</time>
      </trkpt>
      <trkpt lat="47.91941" lon="6.95585">
        <ele>582</ele>
        <time>2026-05-09T15:47:05.384Z</time>
      </trkpt>
      <trkpt lat="47.91941" lon="6.95585">
        <ele>583</ele>
        <time>2026-05-09T15:47:06.385Z</time>
      </trkpt>
      <trkpt lat="47.9194" lon="6.95584">
        <ele>583</ele>
        <time>2026-05-09T15:47:07.384Z</time>
      </trkpt>
      <trkpt lat="47.91939" lon="6.95583">
        <ele>583</ele>
        <time>2026-05-09T15:47:08.384Z</time>
      </trkpt>
      <trkpt lat="47.91938" lon="6.95582">
        <ele>583</ele>
        <time>2026-05-09T15:47:09.384Z</time>
      </trkpt>
      <trkpt lat="47.91938" lon="6.95581">
        <ele>582</ele>
        <time>2026-05-09T15:47:10.384Z</time>
      </trkpt>
      <trkpt lat="47.91937" lon="6.95581">
        <ele>582</ele>
        <time>2026-05-09T15:47:11.384Z</time>
      </trkpt>
      <trkpt lat="47.91936" lon="6.9558">
        <ele>582</ele>
        <time>2026-05-09T15:47:12.384Z</time>
      </trkpt>
      <trkpt lat="47.91935" lon="6.95579">
        <ele>582</ele>
        <time>2026-05-09T15:47:13.384Z</time>
      </trkpt>
      <trkpt lat="47.91935" lon="6.95579">
        <ele>582</ele>
        <time>2026-05-09T15:47:14.384Z</time>
      </trkpt>
      <trkpt lat="47.91935" lon="6.95578">
        <ele>581</ele>
        <time>2026-05-09T15:47:15.385Z</time>
      </trkpt>
      <trkpt lat="47.91934" lon="6.95578">
        <ele>581</ele>
        <time>2026-05-09T15:47:16.384Z</time>
      </trkpt>
      <trkpt lat="47.91934" lon="6.95578">
        <ele>581</ele>
        <time>2026-05-09T15:47:17.385Z</time>
      </trkpt>
      <trkpt lat="47.91933" lon="6.95578">
        <ele>581</ele>
        <time>2026-05-09T15:47:18.385Z</time>
      </trkpt>
      <trkpt lat="47.91934" lon="6.95578">
        <ele>580</ele>
        <time>2026-05-09T15:47:19.385Z</time>
      </trkpt>
      <trkpt lat="47.91934" lon="6.95578">
        <ele>580</ele>
        <time>2026-05-09T15:47:20.385Z</time>
      </trkpt>
      <trkpt lat="47.91934" lon="6.95578">
        <ele>580</ele>
        <time>2026-05-09T15:47:21.385Z</time>
      </trkpt>
      <trkpt lat="47.91934" lon="6.95577">
        <ele>579</ele>
        <time>2026-05-09T15:47:22.384Z</time>
      </trkpt>
      <trkpt lat="47.91933" lon="6.95577">
        <ele>579</ele>
        <time>2026-05-09T15:47:23.384Z</time>
      </trkpt>
      <trkpt lat="47.91933" lon="6.95576">
        <ele>578</ele>
        <time>2026-05-09T15:47:24.385Z</time>
      </trkpt>
      <trkpt lat="47.91933" lon="6.95576">
        <ele>578</ele>
        <time>2026-05-09T15:47:25.384Z</time>
      </trkpt>
      <trkpt lat="47.91933" lon="6.95576">
        <ele>578</ele>
        <time>2026-05-09T15:47:26.384Z</time>
      </trkpt>
      <trkpt lat="47.91933" lon="6.95576">
        <ele>577</ele>
        <time>2026-05-09T15:47:27.384Z</time>
      </trkpt>
      <trkpt lat="47.91934" lon="6.95576">
        <ele>576</ele>
        <time>2026-05-09T15:47:28.384Z</time>
      </trkpt>
      <trkpt lat="47.91934" lon="6.95576">
        <ele>576</ele>
        <time>2026-05-09T15:47:29.384Z</time>
      </trkpt>
      <trkpt lat="47.91934" lon="6.95576">
        <ele>575</ele>
        <time>2026-05-09T15:47:30.384Z</time>
      </trkpt>
      <trkpt lat="47.91934" lon="6.95576">
        <ele>574</ele>
        <time>2026-05-09T15:47:31.384Z</time>
      </trkpt>
      <trkpt lat="47.91934" lon="6.95576">
        <ele>573</ele>
        <time>2026-05-09T15:47:32.384Z</time>
      </trkpt>
      <trkpt lat="47.91934" lon="6.95576">
        <ele>572</ele>
        <time>2026-05-09T15:47:33.385Z</time>
      </trkpt>
      <trkpt lat="47.91934" lon="6.95576">
        <ele>572</ele>
        <time>2026-05-09T15:47:34.385Z</time>
      </trkpt>
      <trkpt lat="47.91935" lon="6.95576">
        <ele>571</ele>
        <time>2026-05-09T15:47:35.385Z</time>
      </trkpt>
      <trkpt lat="47.91935" lon="6.95576">
        <ele>571</ele>
        <time>2026-05-09T15:47:36.385Z</time>
      </trkpt>
      <trkpt lat="47.91935" lon="6.95576">
        <ele>571</ele>
        <time>2026-05-09T15:47:37.385Z</time>
      </trkpt>
      <trkpt lat="47.91934" lon="6.95576">
        <ele>571</ele>
        <time>2026-05-09T15:47:38.384Z</time>
      </trkpt>
      <trkpt lat="47.91934" lon="6.95576">
        <ele>571</ele>
        <time>2026-05-09T15:47:39.384Z</time>
      </trkpt>
      <trkpt lat="47.91934" lon="6.95576">
        <ele>570</ele>
        <time>2026-05-09T15:47:40.384Z</time>
      </trkpt>
      <trkpt lat="47.91935" lon="6.95576">
        <ele>570</ele>
        <time>2026-05-09T15:47:41.384Z</time>
      </trkpt>
      <trkpt lat="47.91935" lon="6.95576">
        <ele>570</ele>
        <time>2026-05-09T15:47:42.384Z</time>
      </trkpt>
      <trkpt lat="47.91935" lon="6.95576">
        <ele>570</ele>
        <time>2026-05-09T15:47:43.384Z</time>
      </trkpt>
      <trkpt lat="47.91935" lon="6.95576">
        <ele>570</ele>
        <time>2026-05-09T15:47:44.384Z</time>
      </trkpt>
      <trkpt lat="47.91935" lon="6.95576">
        <ele>570</ele>
        <time>2026-05-09T15:47:45.384Z</time>
      </trkpt>
      <trkpt lat="47.91935" lon="6.95576">
        <ele>569</ele>
        <time>2026-05-09T15:47:46.384Z</time>
      </trkpt>
      <trkpt lat="47.91935" lon="6.95576">
        <ele>569</ele>
        <time>2026-05-09T15:47:47.384Z</time>
      </trkpt>
      <trkpt lat="47.91934" lon="6.95574">
        <ele>569</ele>
        <time>2026-05-09T15:47:48.384Z</time>
      </trkpt>
      <trkpt lat="47.91934" lon="6.95574">
        <ele>569</ele>
        <time>2026-05-09T15:47:49.384Z</time>
      </trkpt>
      <trkpt lat="47.91934" lon="6.95574">
        <ele>569</ele>
        <time>2026-05-09T15:47:50.385Z</time>
      </trkpt>
      <trkpt lat="47.91929" lon="6.95569">
        <ele>573</ele>
        <time>2026-05-09T15:47:59.539Z</time>
      </trkpt>
      <trkpt lat="47.91929" lon="6.95569">
        <ele>574</ele>
        <time>2026-05-09T15:48:00.539Z</time>
      </trkpt>
      <trkpt lat="47.91929" lon="6.95569">
        <ele>574</ele>
        <time>2026-05-09T15:48:01.539Z</time>
      </trkpt>
      <trkpt lat="47.91929" lon="6.95569">
        <ele>574</ele>
        <time>2026-05-09T15:48:02.539Z</time>
      </trkpt>
      <trkpt lat="47.91928" lon="6.95568">
        <ele>579</ele>
        <time>2026-05-09T15:48:16.949Z</time>
      </trkpt>
      <trkpt lat="47.91929" lon="6.95568">
        <ele>580</ele>
        <time>2026-05-09T15:48:17.950Z</time>
      </trkpt>
      <trkpt lat="47.91929" lon="6.95569">
        <ele>580</ele>
        <time>2026-05-09T15:48:18.950Z</time>
      </trkpt>
      <trkpt lat="47.91929" lon="6.95569">
        <ele>580</ele>
        <time>2026-05-09T15:48:19.950Z</time>
      </trkpt>
      <trkpt lat="47.91928" lon="6.95569">
        <ele>581</ele>
        <time>2026-05-09T15:48:20.950Z</time>
      </trkpt>
      <trkpt lat="47.91928" lon="6.95569">
        <ele>582</ele>
        <time>2026-05-09T15:48:21.949Z</time>
      </trkpt>
      <trkpt lat="47.91928" lon="6.95569">
        <ele>582</ele>
        <time>2026-05-09T15:48:22.949Z</time>
      </trkpt>
      <trkpt lat="47.91928" lon="6.95569">
        <ele>583</ele>
        <time>2026-05-09T15:48:23.949Z</time>
      </trkpt>
      <trkpt lat="47.91927" lon="6.95569">
        <ele>583</ele>
        <time>2026-05-09T15:48:24.949Z</time>
      </trkpt>
      <trkpt lat="47.91927" lon="6.95569">
        <ele>584</ele>
        <time>2026-05-09T15:48:25.950Z</time>
      </trkpt>
      <trkpt lat="47.91927" lon="6.95568">
        <ele>585</ele>
        <time>2026-05-09T15:48:26.950Z</time>
      </trkpt>
      <trkpt lat="47.91927" lon="6.95568">
        <ele>585</ele>
        <time>2026-05-09T15:48:27.950Z</time>
      </trkpt>
      <trkpt lat="47.91927" lon="6.95568">
        <ele>586</ele>
        <time>2026-05-09T15:48:28.950Z</time>
      </trkpt>
      <trkpt lat="47.91927" lon="6.95568">
        <ele>586</ele>
        <time>2026-05-09T15:48:29.950Z</time>
      </trkpt>
      <trkpt lat="47.91927" lon="6.95567">
        <ele>587</ele>
        <time>2026-05-09T15:48:30.950Z</time>
      </trkpt>
      <trkpt lat="47.91927" lon="6.95567">
        <ele>587</ele>
        <time>2026-05-09T15:48:31.949Z</time>
      </trkpt>
      <trkpt lat="47.91927" lon="6.95568">
        <ele>588</ele>
        <time>2026-05-09T15:48:32.950Z</time>
      </trkpt>
      <trkpt lat="47.91927" lon="6.95568">
        <ele>588</ele>
        <time>2026-05-09T15:48:33.950Z</time>
      </trkpt>
      <trkpt lat="47.91927" lon="6.95568">
        <ele>589</ele>
        <time>2026-05-09T15:48:34.949Z</time>
      </trkpt>
      <trkpt lat="47.91928" lon="6.95568">
        <ele>589</ele>
        <time>2026-05-09T15:48:35.949Z</time>
      </trkpt>
      <trkpt lat="47.91928" lon="6.95567">
        <ele>589</ele>
        <time>2026-05-09T15:48:36.949Z</time>
      </trkpt>
      <trkpt lat="47.91928" lon="6.95567">
        <ele>589</ele>
        <time>2026-05-09T15:48:37.949Z</time>
      </trkpt>
      <trkpt lat="47.91928" lon="6.95567">
        <ele>590</ele>
        <time>2026-05-09T15:48:38.950Z</time>
      </trkpt>
      <trkpt lat="47.91928" lon="6.95567">
        <ele>590</ele>
        <time>2026-05-09T15:48:39.949Z</time>
      </trkpt>
      <trkpt lat="47.91928" lon="6.95567">
        <ele>590</ele>
        <time>2026-05-09T15:48:40.949Z</time>
      </trkpt>
      <trkpt lat="47.91928" lon="6.95567">
        <ele>590</ele>
        <time>2026-05-09T15:48:41.949Z</time>
      </trkpt>
      <trkpt lat="47.91927" lon="6.95567">
        <ele>591</ele>
        <time>2026-05-09T15:48:42.949Z</time>
      </trkpt>
      <trkpt lat="47.91927" lon="6.95568">
        <ele>591</ele>
        <time>2026-05-09T15:48:43.949Z</time>
      </trkpt>
      <trkpt lat="47.91927" lon="6.95567">
        <ele>592</ele>
        <time>2026-05-09T15:48:44.949Z</time>
      </trkpt>
      <trkpt lat="47.91926" lon="6.95568">
        <ele>592</ele>
        <time>2026-05-09T15:48:45.950Z</time>
      </trkpt>
      <trkpt lat="47.91925" lon="6.95567">
        <ele>593</ele>
        <time>2026-05-09T15:48:46.950Z</time>
      </trkpt>
      <trkpt lat="47.91925" lon="6.95567">
        <ele>593</ele>
        <time>2026-05-09T15:48:47.950Z</time>
      </trkpt>
      <trkpt lat="47.91925" lon="6.95566">
        <ele>593</ele>
        <time>2026-05-09T15:48:48.950Z</time>
      </trkpt>
      <trkpt lat="47.91925" lon="6.95566">
        <ele>593</ele>
        <time>2026-05-09T15:48:49.949Z</time>
      </trkpt>
      <trkpt lat="47.91926" lon="6.95565">
        <ele>593</ele>
        <time>2026-05-09T15:48:50.949Z</time>
      </trkpt>
      <trkpt lat="47.91926" lon="6.95565">
        <ele>593</ele>
        <time>2026-05-09T15:48:51.949Z</time>
      </trkpt>
      <trkpt lat="47.91926" lon="6.95565">
        <ele>593</ele>
        <time>2026-05-09T15:48:52.949Z</time>
      </trkpt>
      <trkpt lat="47.91926" lon="6.95564">
        <ele>593</ele>
        <time>2026-05-09T15:48:53.950Z</time>
      </trkpt>
      <trkpt lat="47.91925" lon="6.95564">
        <ele>592</ele>
        <time>2026-05-09T15:48:54.950Z</time>
      </trkpt>
      <trkpt lat="47.91924" lon="6.95563">
        <ele>592</ele>
        <time>2026-05-09T15:48:55.949Z</time>
      </trkpt>
      <trkpt lat="47.91923" lon="6.95564">
        <ele>592</ele>
        <time>2026-05-09T15:48:56.949Z</time>
      </trkpt>
      <trkpt lat="47.91923" lon="6.95564">
        <ele>592</ele>
        <time>2026-05-09T15:48:57.949Z</time>
      </trkpt>
      <trkpt lat="47.9192" lon="6.95558">
        <ele>589</ele>
        <time>2026-05-09T15:49:14.294Z</time>
      </trkpt>
      <trkpt lat="47.91919" lon="6.95558">
        <ele>589</ele>
        <time>2026-05-09T15:49:15.295Z</time>
      </trkpt>
      <trkpt lat="47.91918" lon="6.95557">
        <ele>589</ele>
        <time>2026-05-09T15:49:16.294Z</time>
      </trkpt>
      <trkpt lat="47.91918" lon="6.95557">
        <ele>589</ele>
        <time>2026-05-09T15:49:17.295Z</time>
      </trkpt>
      <trkpt lat="47.91917" lon="6.95557">
        <ele>589</ele>
        <time>2026-05-09T15:49:18.294Z</time>
      </trkpt>
      <trkpt lat="47.91916" lon="6.95556">
        <ele>589</ele>
        <time>2026-05-09T15:49:19.294Z</time>
      </trkpt>
      <trkpt lat="47.91916" lon="6.95556">
        <ele>589</ele>
        <time>2026-05-09T15:49:20.295Z</time>
      </trkpt>
      <trkpt lat="47.91916" lon="6.95555">
        <ele>588</ele>
        <time>2026-05-09T15:49:21.294Z</time>
      </trkpt>
      <trkpt lat="47.91915" lon="6.95555">
        <ele>589</ele>
        <time>2026-05-09T15:49:22.294Z</time>
      </trkpt>
      <trkpt lat="47.91914" lon="6.95554">
        <ele>589</ele>
        <time>2026-05-09T15:49:23.294Z</time>
      </trkpt>
      <trkpt lat="47.91913" lon="6.95553">
        <ele>589</ele>
        <time>2026-05-09T15:49:24.295Z</time>
      </trkpt>
      <trkpt lat="47.91913" lon="6.95552">
        <ele>589</ele>
        <time>2026-05-09T15:49:25.294Z</time>
      </trkpt>
      <trkpt lat="47.91912" lon="6.95551">
        <ele>589</ele>
        <time>2026-05-09T15:49:26.295Z</time>
      </trkpt>
      <trkpt lat="47.91911" lon="6.9555">
        <ele>589</ele>
        <time>2026-05-09T15:49:27.294Z</time>
      </trkpt>
      <trkpt lat="47.91911" lon="6.95549">
        <ele>589</ele>
        <time>2026-05-09T15:49:28.295Z</time>
      </trkpt>
      <trkpt lat="47.9191" lon="6.95547">
        <ele>589</ele>
        <time>2026-05-09T15:49:29.295Z</time>
      </trkpt>
      <trkpt lat="47.91909" lon="6.95546">
        <ele>589</ele>
        <time>2026-05-09T15:49:30.294Z</time>
      </trkpt>
      <trkpt lat="47.91909" lon="6.95545">
        <ele>589</ele>
        <time>2026-05-09T15:49:31.295Z</time>
      </trkpt>
      <trkpt lat="47.91908" lon="6.95544">
        <ele>589</ele>
        <time>2026-05-09T15:49:32.294Z</time>
      </trkpt>
      <trkpt lat="47.91907" lon="6.95543">
        <ele>589</ele>
        <time>2026-05-09T15:49:33.295Z</time>
      </trkpt>
      <trkpt lat="47.91906" lon="6.95542">
        <ele>589</ele>
        <time>2026-05-09T15:49:34.294Z</time>
      </trkpt>
      <trkpt lat="47.91906" lon="6.95541">
        <ele>589</ele>
        <time>2026-05-09T15:49:35.295Z</time>
      </trkpt>
      <trkpt lat="47.91906" lon="6.95541">
        <ele>589</ele>
        <time>2026-05-09T15:49:36.295Z</time>
      </trkpt>
      <trkpt lat="47.91905" lon="6.9554">
        <ele>590</ele>
        <time>2026-05-09T15:49:37.294Z</time>
      </trkpt>
      <trkpt lat="47.91905" lon="6.9554">
        <ele>590</ele>
        <time>2026-05-09T15:49:38.295Z</time>
      </trkpt>
      <trkpt lat="47.91906" lon="6.9554">
        <ele>591</ele>
        <time>2026-05-09T15:49:39.294Z</time>
      </trkpt>
      <trkpt lat="47.91902" lon="6.95535">
        <ele>593</ele>
        <time>2026-05-09T15:49:45.758Z</time>
      </trkpt>
      <trkpt lat="47.91902" lon="6.95535">
        <ele>593</ele>
        <time>2026-05-09T15:49:46.758Z</time>
      </trkpt>
      <trkpt lat="47.91902" lon="6.95534">
        <ele>593</ele>
        <time>2026-05-09T15:49:47.758Z</time>
      </trkpt>
      <trkpt lat="47.91902" lon="6.95534">
        <ele>594</ele>
        <time>2026-05-09T15:49:48.758Z</time>
      </trkpt>
      <trkpt lat="47.91902" lon="6.95534">
        <ele>594</ele>
        <time>2026-05-09T15:49:49.758Z</time>
      </trkpt>
      <trkpt lat="47.91901" lon="6.95533">
        <ele>594</ele>
        <time>2026-05-09T15:49:50.758Z</time>
      </trkpt>
      <trkpt lat="47.91901" lon="6.95532">
        <ele>595</ele>
        <time>2026-05-09T15:49:51.759Z</time>
      </trkpt>
      <trkpt lat="47.919" lon="6.95532">
        <ele>595</ele>
        <time>2026-05-09T15:49:52.758Z</time>
      </trkpt>
      <trkpt lat="47.919" lon="6.95531">
        <ele>595</ele>
        <time>2026-05-09T15:49:53.758Z</time>
      </trkpt>
      <trkpt lat="47.91899" lon="6.9553">
        <ele>595</ele>
        <time>2026-05-09T15:49:54.758Z</time>
      </trkpt>
      <trkpt lat="47.91899" lon="6.9553">
        <ele>596</ele>
        <time>2026-05-09T15:49:55.759Z</time>
      </trkpt>
      <trkpt lat="47.91898" lon="6.95529">
        <ele>596</ele>
        <time>2026-05-09T15:49:56.758Z</time>
      </trkpt>
      <trkpt lat="47.91898" lon="6.95528">
        <ele>596</ele>
        <time>2026-05-09T15:49:57.759Z</time>
      </trkpt>
      <trkpt lat="47.91898" lon="6.95527">
        <ele>596</ele>
        <time>2026-05-09T15:49:58.758Z</time>
      </trkpt>
      <trkpt lat="47.91898" lon="6.95526">
        <ele>596</ele>
        <time>2026-05-09T15:49:59.759Z</time>
      </trkpt>
      <trkpt lat="47.91897" lon="6.95525">
        <ele>596</ele>
        <time>2026-05-09T15:50:00.758Z</time>
      </trkpt>
      <trkpt lat="47.91896" lon="6.95525">
        <ele>596</ele>
        <time>2026-05-09T15:50:01.758Z</time>
      </trkpt>
      <trkpt lat="47.91895" lon="6.95524">
        <ele>596</ele>
        <time>2026-05-09T15:50:02.759Z</time>
      </trkpt>
      <trkpt lat="47.91893" lon="6.95524">
        <ele>596</ele>
        <time>2026-05-09T15:50:03.758Z</time>
      </trkpt>
      <trkpt lat="47.91892" lon="6.95523">
        <ele>596</ele>
        <time>2026-05-09T15:50:04.758Z</time>
      </trkpt>
      <trkpt lat="47.9189" lon="6.95523">
        <ele>596</ele>
        <time>2026-05-09T15:50:05.758Z</time>
      </trkpt>
      <trkpt lat="47.91889" lon="6.95521">
        <ele>596</ele>
        <time>2026-05-09T15:50:06.758Z</time>
      </trkpt>
      <trkpt lat="47.91889" lon="6.95521">
        <ele>595</ele>
        <time>2026-05-09T15:50:07.759Z</time>
      </trkpt>
      <trkpt lat="47.91888" lon="6.9552">
        <ele>595</ele>
        <time>2026-05-09T15:50:08.759Z</time>
      </trkpt>
      <trkpt lat="47.91888" lon="6.9552">
        <ele>595</ele>
        <time>2026-05-09T15:50:09.759Z</time>
      </trkpt>
      <trkpt lat="47.91888" lon="6.9552">
        <ele>595</ele>
        <time>2026-05-09T15:50:10.758Z</time>
      </trkpt>
      <trkpt lat="47.91886" lon="6.95516">
        <ele>594</ele>
        <time>2026-05-09T15:50:16.155Z</time>
      </trkpt>
      <trkpt lat="47.91886" lon="6.95516">
        <ele>593</ele>
        <time>2026-05-09T15:50:17.155Z</time>
      </trkpt>
      <trkpt lat="47.91886" lon="6.95516">
        <ele>593</ele>
        <time>2026-05-09T15:50:18.155Z</time>
      </trkpt>
      <trkpt lat="47.91886" lon="6.95515">
        <ele>593</ele>
        <time>2026-05-09T15:50:19.155Z</time>
      </trkpt>
      <trkpt lat="47.91886" lon="6.95514">
        <ele>592</ele>
        <time>2026-05-09T15:50:20.154Z</time>
      </trkpt>
      <trkpt lat="47.91882" lon="6.95511">
        <ele>592</ele>
        <time>2026-05-09T15:50:27.376Z</time>
      </trkpt>
      <trkpt lat="47.91882" lon="6.95511">
        <ele>591</ele>
        <time>2026-05-09T15:50:28.376Z</time>
      </trkpt>
      <trkpt lat="47.91881" lon="6.95511">
        <ele>591</ele>
        <time>2026-05-09T15:50:29.377Z</time>
      </trkpt>
      <trkpt lat="47.91881" lon="6.9551">
        <ele>591</ele>
        <time>2026-05-09T15:50:30.376Z</time>
      </trkpt>
      <trkpt lat="47.9188" lon="6.95509">
        <ele>591</ele>
        <time>2026-05-09T15:50:31.376Z</time>
      </trkpt>
      <trkpt lat="47.91878" lon="6.95507">
        <ele>591</ele>
        <time>2026-05-09T15:50:32.377Z</time>
      </trkpt>
      <trkpt lat="47.91876" lon="6.95506">
        <ele>591</ele>
        <time>2026-05-09T15:50:33.377Z</time>
      </trkpt>
      <trkpt lat="47.91875" lon="6.95505">
        <ele>591</ele>
        <time>2026-05-09T15:50:34.376Z</time>
      </trkpt>
      <trkpt lat="47.91875" lon="6.95505">
        <ele>591</ele>
        <time>2026-05-09T15:50:35.377Z</time>
      </trkpt>
      <trkpt lat="47.91872" lon="6.95504">
        <ele>592</ele>
        <time>2026-05-09T15:50:44.573Z</time>
      </trkpt>
      <trkpt lat="47.91871" lon="6.95504">
        <ele>593</ele>
        <time>2026-05-09T15:50:45.573Z</time>
      </trkpt>
      <trkpt lat="47.9187" lon="6.95503">
        <ele>593</ele>
        <time>2026-05-09T15:50:46.572Z</time>
      </trkpt>
      <trkpt lat="47.91869" lon="6.95502">
        <ele>593</ele>
        <time>2026-05-09T15:50:47.572Z</time>
      </trkpt>
      <trkpt lat="47.91869" lon="6.95501">
        <ele>594</ele>
        <time>2026-05-09T15:50:48.572Z</time>
      </trkpt>
      <trkpt lat="47.91868" lon="6.955">
        <ele>594</ele>
        <time>2026-05-09T15:50:49.572Z</time>
      </trkpt>
      <trkpt lat="47.91868" lon="6.955">
        <ele>594</ele>
        <time>2026-05-09T15:50:50.573Z</time>
      </trkpt>
      <trkpt lat="47.91867" lon="6.95499">
        <ele>594</ele>
        <time>2026-05-09T15:50:51.573Z</time>
      </trkpt>
      <trkpt lat="47.91867" lon="6.95498">
        <ele>594</ele>
        <time>2026-05-09T15:50:52.572Z</time>
      </trkpt>
      <trkpt lat="47.91867" lon="6.95497">
        <ele>595</ele>
        <time>2026-05-09T15:50:53.572Z</time>
      </trkpt>
      <trkpt lat="47.91866" lon="6.95497">
        <ele>595</ele>
        <time>2026-05-09T15:50:54.572Z</time>
      </trkpt>
      <trkpt lat="47.91866" lon="6.95497">
        <ele>595</ele>
        <time>2026-05-09T15:50:55.573Z</time>
      </trkpt>
      <trkpt lat="47.91866" lon="6.95497">
        <ele>595</ele>
        <time>2026-05-09T15:50:56.572Z</time>
      </trkpt>
      <trkpt lat="47.91865" lon="6.95495">
        <ele>595</ele>
        <time>2026-05-09T15:50:57.573Z</time>
      </trkpt>
      <trkpt lat="47.91865" lon="6.95495">
        <ele>595</ele>
        <time>2026-05-09T15:50:58.573Z</time>
      </trkpt>
      <trkpt lat="47.91864" lon="6.95493">
        <ele>596</ele>
        <time>2026-05-09T15:50:59.573Z</time>
      </trkpt>
      <trkpt lat="47.91863" lon="6.95491">
        <ele>596</ele>
        <time>2026-05-09T15:51:00.573Z</time>
      </trkpt>
      <trkpt lat="47.91863" lon="6.9549">
        <ele>596</ele>
        <time>2026-05-09T15:51:01.572Z</time>
      </trkpt>
      <trkpt lat="47.91862" lon="6.95489">
        <ele>597</ele>
        <time>2026-05-09T15:51:02.572Z</time>
      </trkpt>
      <trkpt lat="47.91861" lon="6.95488">
        <ele>597</ele>
        <time>2026-05-09T15:51:03.572Z</time>
      </trkpt>
      <trkpt lat="47.9186" lon="6.95487">
        <ele>598</ele>
        <time>2026-05-09T15:51:04.572Z</time>
      </trkpt>
      <trkpt lat="47.91859" lon="6.95487">
        <ele>598</ele>
        <time>2026-05-09T15:51:05.572Z</time>
      </trkpt>
      <trkpt lat="47.91858" lon="6.95486">
        <ele>599</ele>
        <time>2026-05-09T15:51:06.572Z</time>
      </trkpt>
      <trkpt lat="47.91858" lon="6.95486">
        <ele>600</ele>
        <time>2026-05-09T15:51:07.572Z</time>
      </trkpt>
      <trkpt lat="47.91857" lon="6.95486">
        <ele>600</ele>
        <time>2026-05-09T15:51:08.572Z</time>
      </trkpt>
      <trkpt lat="47.91856" lon="6.95485">
        <ele>601</ele>
        <time>2026-05-09T15:51:09.572Z</time>
      </trkpt>
      <trkpt lat="47.91855" lon="6.95485">
        <ele>601</ele>
        <time>2026-05-09T15:51:10.572Z</time>
      </trkpt>
      <trkpt lat="47.91854" lon="6.95483">
        <ele>602</ele>
        <time>2026-05-09T15:51:11.572Z</time>
      </trkpt>
      <trkpt lat="47.91854" lon="6.95481">
        <ele>602</ele>
        <time>2026-05-09T15:51:12.572Z</time>
      </trkpt>
      <trkpt lat="47.91853" lon="6.95479">
        <ele>603</ele>
        <time>2026-05-09T15:51:13.573Z</time>
      </trkpt>
      <trkpt lat="47.91852" lon="6.95477">
        <ele>603</ele>
        <time>2026-05-09T15:51:14.573Z</time>
      </trkpt>
      <trkpt lat="47.91851" lon="6.95476">
        <ele>604</ele>
        <time>2026-05-09T15:51:15.572Z</time>
      </trkpt>
      <trkpt lat="47.91851" lon="6.95475">
        <ele>604</ele>
        <time>2026-05-09T15:51:16.572Z</time>
      </trkpt>
      <trkpt lat="47.9185" lon="6.95475">
        <ele>605</ele>
        <time>2026-05-09T15:51:17.572Z</time>
      </trkpt>
      <trkpt lat="47.91851" lon="6.95473">
        <ele>608</ele>
        <time>2026-05-09T15:51:24.895Z</time>
      </trkpt>
      <trkpt lat="47.91851" lon="6.95473">
        <ele>609</ele>
        <time>2026-05-09T15:51:25.895Z</time>
      </trkpt>
      <trkpt lat="47.91851" lon="6.95474">
        <ele>609</ele>
        <time>2026-05-09T15:51:26.894Z</time>
      </trkpt>
      <trkpt lat="47.91852" lon="6.95475">
        <ele>609</ele>
        <time>2026-05-09T15:51:27.895Z</time>
      </trkpt>
      <trkpt lat="47.91852" lon="6.95475">
        <ele>609</ele>
        <time>2026-05-09T15:51:28.894Z</time>
      </trkpt>
      <trkpt lat="47.91853" lon="6.95475">
        <ele>609</ele>
        <time>2026-05-09T15:51:29.894Z</time>
      </trkpt>
      <trkpt lat="47.91853" lon="6.95475">
        <ele>608</ele>
        <time>2026-05-09T15:51:30.894Z</time>
      </trkpt>
      <trkpt lat="47.91854" lon="6.95475">
        <ele>608</ele>
        <time>2026-05-09T15:51:31.895Z</time>
      </trkpt>
      <trkpt lat="47.91854" lon="6.95476">
        <ele>608</ele>
        <time>2026-05-09T15:51:32.894Z</time>
      </trkpt>
      <trkpt lat="47.91854" lon="6.95476">
        <ele>609</ele>
        <time>2026-05-09T15:51:33.895Z</time>
      </trkpt>
      <trkpt lat="47.91849" lon="6.95466">
        <ele>612</ele>
        <time>2026-05-09T15:51:40.457Z</time>
      </trkpt>
      <trkpt lat="47.91848" lon="6.95464">
        <ele>613</ele>
        <time>2026-05-09T15:51:41.458Z</time>
      </trkpt>
      <trkpt lat="47.91847" lon="6.95463">
        <ele>614</ele>
        <time>2026-05-09T15:51:42.457Z</time>
      </trkpt>
      <trkpt lat="47.91846" lon="6.95462">
        <ele>614</ele>
        <time>2026-05-09T15:51:43.458Z</time>
      </trkpt>
      <trkpt lat="47.91846" lon="6.95462">
        <ele>615</ele>
        <time>2026-05-09T15:51:44.457Z</time>
      </trkpt>
      <trkpt lat="47.91845" lon="6.95461">
        <ele>616</ele>
        <time>2026-05-09T15:51:45.457Z</time>
      </trkpt>
      <trkpt lat="47.91845" lon="6.95461">
        <ele>616</ele>
        <time>2026-05-09T15:51:46.458Z</time>
      </trkpt>
      <trkpt lat="47.91844" lon="6.9546">
        <ele>617</ele>
        <time>2026-05-09T15:51:47.457Z</time>
      </trkpt>
      <trkpt lat="47.91844" lon="6.9546">
        <ele>618</ele>
        <time>2026-05-09T15:51:48.458Z</time>
      </trkpt>
      <trkpt lat="47.91844" lon="6.9546">
        <ele>618</ele>
        <time>2026-05-09T15:51:49.457Z</time>
      </trkpt>
      <trkpt lat="47.91843" lon="6.9546">
        <ele>619</ele>
        <time>2026-05-09T15:51:50.458Z</time>
      </trkpt>
      <trkpt lat="47.91842" lon="6.95459">
        <ele>619</ele>
        <time>2026-05-09T15:51:51.457Z</time>
      </trkpt>
      <trkpt lat="47.91841" lon="6.95458">
        <ele>619</ele>
        <time>2026-05-09T15:51:52.458Z</time>
      </trkpt>
      <trkpt lat="47.9184" lon="6.95457">
        <ele>619</ele>
        <time>2026-05-09T15:51:53.457Z</time>
      </trkpt>
      <trkpt lat="47.91839" lon="6.95456">
        <ele>619</ele>
        <time>2026-05-09T15:51:54.458Z</time>
      </trkpt>
      <trkpt lat="47.91839" lon="6.95455">
        <ele>619</ele>
        <time>2026-05-09T15:51:55.457Z</time>
      </trkpt>
      <trkpt lat="47.91837" lon="6.95453">
        <ele>619</ele>
        <time>2026-05-09T15:51:56.458Z</time>
      </trkpt>
      <trkpt lat="47.91836" lon="6.95451">
        <ele>619</ele>
        <time>2026-05-09T15:51:57.458Z</time>
      </trkpt>
      <trkpt lat="47.91836" lon="6.9545">
        <ele>618</ele>
        <time>2026-05-09T15:51:58.458Z</time>
      </trkpt>
      <trkpt lat="47.91835" lon="6.9545">
        <ele>618</ele>
        <time>2026-05-09T15:51:59.457Z</time>
      </trkpt>
      <trkpt lat="47.91835" lon="6.95448">
        <ele>618</ele>
        <time>2026-05-09T15:52:00.457Z</time>
      </trkpt>
      <trkpt lat="47.91834" lon="6.95446">
        <ele>618</ele>
        <time>2026-05-09T15:52:01.458Z</time>
      </trkpt>
      <trkpt lat="47.91833" lon="6.95445">
        <ele>618</ele>
        <time>2026-05-09T15:52:02.457Z</time>
      </trkpt>
      <trkpt lat="47.91832" lon="6.95445">
        <ele>618</ele>
        <time>2026-05-09T15:52:03.458Z</time>
      </trkpt>
      <trkpt lat="47.91831" lon="6.95444">
        <ele>618</ele>
        <time>2026-05-09T15:52:04.457Z</time>
      </trkpt>
      <trkpt lat="47.91829" lon="6.95443">
        <ele>618</ele>
        <time>2026-05-09T15:52:05.458Z</time>
      </trkpt>
      <trkpt lat="47.91828" lon="6.95442">
        <ele>618</ele>
        <time>2026-05-09T15:52:06.457Z</time>
      </trkpt>
      <trkpt lat="47.91828" lon="6.95441">
        <ele>619</ele>
        <time>2026-05-09T15:52:07.458Z</time>
      </trkpt>
      <trkpt lat="47.91827" lon="6.95439">
        <ele>619</ele>
        <time>2026-05-09T15:52:08.457Z</time>
      </trkpt>
      <trkpt lat="47.91826" lon="6.95438">
        <ele>619</ele>
        <time>2026-05-09T15:52:09.458Z</time>
      </trkpt>
      <trkpt lat="47.91826" lon="6.95437">
        <ele>619</ele>
        <time>2026-05-09T15:52:10.457Z</time>
      </trkpt>
      <trkpt lat="47.91825" lon="6.95436">
        <ele>619</ele>
        <time>2026-05-09T15:52:11.458Z</time>
      </trkpt>
      <trkpt lat="47.91824" lon="6.95436">
        <ele>619</ele>
        <time>2026-05-09T15:52:12.457Z</time>
      </trkpt>
      <trkpt lat="47.91823" lon="6.95435">
        <ele>619</ele>
        <time>2026-05-09T15:52:13.458Z</time>
      </trkpt>
      <trkpt lat="47.91822" lon="6.95435">
        <ele>619</ele>
        <time>2026-05-09T15:52:14.457Z</time>
      </trkpt>
      <trkpt lat="47.91822" lon="6.95434">
        <ele>619</ele>
        <time>2026-05-09T15:52:15.458Z</time>
      </trkpt>
      <trkpt lat="47.91822" lon="6.95434">
        <ele>619</ele>
        <time>2026-05-09T15:52:16.457Z</time>
      </trkpt>
      <trkpt lat="47.91821" lon="6.95432">
        <ele>619</ele>
        <time>2026-05-09T15:52:17.458Z</time>
      </trkpt>
      <trkpt lat="47.91821" lon="6.95429">
        <ele>619</ele>
        <time>2026-05-09T15:52:18.457Z</time>
      </trkpt>
      <trkpt lat="47.9182" lon="6.95427">
        <ele>619</ele>
        <time>2026-05-09T15:52:19.458Z</time>
      </trkpt>
      <trkpt lat="47.91819" lon="6.95426">
        <ele>619</ele>
        <time>2026-05-09T15:52:20.457Z</time>
      </trkpt>
      <trkpt lat="47.91819" lon="6.95425">
        <ele>619</ele>
        <time>2026-05-09T15:52:21.458Z</time>
      </trkpt>
      <trkpt lat="47.91818" lon="6.95424">
        <ele>619</ele>
        <time>2026-05-09T15:52:22.457Z</time>
      </trkpt>
      <trkpt lat="47.91817" lon="6.95423">
        <ele>619</ele>
        <time>2026-05-09T15:52:23.457Z</time>
      </trkpt>
      <trkpt lat="47.91817" lon="6.95422">
        <ele>619</ele>
        <time>2026-05-09T15:52:24.458Z</time>
      </trkpt>
      <trkpt lat="47.91816" lon="6.95421">
        <ele>619</ele>
        <time>2026-05-09T15:52:25.457Z</time>
      </trkpt>
      <trkpt lat="47.91815" lon="6.95421">
        <ele>619</ele>
        <time>2026-05-09T15:52:26.458Z</time>
      </trkpt>
      <trkpt lat="47.91814" lon="6.9542">
        <ele>619</ele>
        <time>2026-05-09T15:52:27.458Z</time>
      </trkpt>
      <trkpt lat="47.91813" lon="6.9542">
        <ele>619</ele>
        <time>2026-05-09T15:52:28.458Z</time>
      </trkpt>
      <trkpt lat="47.91813" lon="6.95419">
        <ele>618</ele>
        <time>2026-05-09T15:52:29.458Z</time>
      </trkpt>
      <trkpt lat="47.91812" lon="6.95418">
        <ele>618</ele>
        <time>2026-05-09T15:52:30.457Z</time>
      </trkpt>
      <trkpt lat="47.91811" lon="6.95417">
        <ele>617</ele>
        <time>2026-05-09T15:52:31.458Z</time>
      </trkpt>
      <trkpt lat="47.9181" lon="6.95415">
        <ele>617</ele>
        <time>2026-05-09T15:52:32.457Z</time>
      </trkpt>
      <trkpt lat="47.91808" lon="6.95414">
        <ele>616</ele>
        <time>2026-05-09T15:52:33.458Z</time>
      </trkpt>
      <trkpt lat="47.91807" lon="6.95413">
        <ele>616</ele>
        <time>2026-05-09T15:52:34.458Z</time>
      </trkpt>
      <trkpt lat="47.91806" lon="6.95412">
        <ele>615</ele>
        <time>2026-05-09T15:52:35.457Z</time>
      </trkpt>
      <trkpt lat="47.91804" lon="6.95412">
        <ele>615</ele>
        <time>2026-05-09T15:52:36.457Z</time>
      </trkpt>
      <trkpt lat="47.91804" lon="6.9541">
        <ele>614</ele>
        <time>2026-05-09T15:52:37.457Z</time>
      </trkpt>
      <trkpt lat="47.91804" lon="6.9541">
        <ele>613</ele>
        <time>2026-05-09T15:52:38.458Z</time>
      </trkpt>
      <trkpt lat="47.91802" lon="6.9541">
        <ele>612</ele>
        <time>2026-05-09T15:52:39.457Z</time>
      </trkpt>
      <trkpt lat="47.91801" lon="6.95409">
        <ele>612</ele>
        <time>2026-05-09T15:52:40.458Z</time>
      </trkpt>
      <trkpt lat="47.91799" lon="6.95409">
        <ele>611</ele>
        <time>2026-05-09T15:52:41.457Z</time>
      </trkpt>
      <trkpt lat="47.91798" lon="6.95407">
        <ele>610</ele>
        <time>2026-05-09T15:52:42.458Z</time>
      </trkpt>
      <trkpt lat="47.91796" lon="6.95407">
        <ele>610</ele>
        <time>2026-05-09T15:52:43.457Z</time>
      </trkpt>
      <trkpt lat="47.91795" lon="6.95407">
        <ele>609</ele>
        <time>2026-05-09T15:52:44.458Z</time>
      </trkpt>
      <trkpt lat="47.91794" lon="6.95406">
        <ele>609</ele>
        <time>2026-05-09T15:52:45.457Z</time>
      </trkpt>
      <trkpt lat="47.91793" lon="6.95405">
        <ele>609</ele>
        <time>2026-05-09T15:52:46.458Z</time>
      </trkpt>
      <trkpt lat="47.91792" lon="6.95405">
        <ele>608</ele>
        <time>2026-05-09T15:52:47.457Z</time>
      </trkpt>
      <trkpt lat="47.91791" lon="6.95404">
        <ele>608</ele>
        <time>2026-05-09T15:52:48.458Z</time>
      </trkpt>
      <trkpt lat="47.9179" lon="6.95403">
        <ele>607</ele>
        <time>2026-05-09T15:52:49.457Z</time>
      </trkpt>
      <trkpt lat="47.91789" lon="6.95402">
        <ele>607</ele>
        <time>2026-05-09T15:52:50.458Z</time>
      </trkpt>
      <trkpt lat="47.91789" lon="6.95401">
        <ele>607</ele>
        <time>2026-05-09T15:52:51.457Z</time>
      </trkpt>
      <trkpt lat="47.91789" lon="6.954">
        <ele>606</ele>
        <time>2026-05-09T15:52:52.458Z</time>
      </trkpt>
      <trkpt lat="47.91789" lon="6.954">
        <ele>606</ele>
        <time>2026-05-09T15:52:53.457Z</time>
      </trkpt>
      <trkpt lat="47.91788" lon="6.95399">
        <ele>605</ele>
        <time>2026-05-09T15:52:54.457Z</time>
      </trkpt>
      <trkpt lat="47.91787" lon="6.95398">
        <ele>605</ele>
        <time>2026-05-09T15:52:55.458Z</time>
      </trkpt>
      <trkpt lat="47.91786" lon="6.95397">
        <ele>604</ele>
        <time>2026-05-09T15:52:56.457Z</time>
      </trkpt>
      <trkpt lat="47.91784" lon="6.95397">
        <ele>604</ele>
        <time>2026-05-09T15:52:57.458Z</time>
      </trkpt>
      <trkpt lat="47.91783" lon="6.95395">
        <ele>604</ele>
        <time>2026-05-09T15:52:58.457Z</time>
      </trkpt>
      <trkpt lat="47.91781" lon="6.95393">
        <ele>604</ele>
        <time>2026-05-09T15:52:59.458Z</time>
      </trkpt>
      <trkpt lat="47.9178" lon="6.95391">
        <ele>604</ele>
        <time>2026-05-09T15:53:00.457Z</time>
      </trkpt>
      <trkpt lat="47.91779" lon="6.95391">
        <ele>604</ele>
        <time>2026-05-09T15:53:01.458Z</time>
      </trkpt>
      <trkpt lat="47.91778" lon="6.95392">
        <ele>604</ele>
        <time>2026-05-09T15:53:02.457Z</time>
      </trkpt>
      <trkpt lat="47.91777" lon="6.95392">
        <ele>604</ele>
        <time>2026-05-09T15:53:03.458Z</time>
      </trkpt>
      <trkpt lat="47.91776" lon="6.95391">
        <ele>605</ele>
        <time>2026-05-09T15:53:04.457Z</time>
      </trkpt>
      <trkpt lat="47.91775" lon="6.95391">
        <ele>605</ele>
        <time>2026-05-09T15:53:05.458Z</time>
      </trkpt>
      <trkpt lat="47.91774" lon="6.95389">
        <ele>605</ele>
        <time>2026-05-09T15:53:06.457Z</time>
      </trkpt>
      <trkpt lat="47.91774" lon="6.9539">
        <ele>605</ele>
        <time>2026-05-09T15:53:07.457Z</time>
      </trkpt>
      <trkpt lat="47.91773" lon="6.9539">
        <ele>605</ele>
        <time>2026-05-09T15:53:08.458Z</time>
      </trkpt>
      <trkpt lat="47.91773" lon="6.9539">
        <ele>605</ele>
        <time>2026-05-09T15:53:09.457Z</time>
      </trkpt>
      <trkpt lat="47.91772" lon="6.95389">
        <ele>605</ele>
        <time>2026-05-09T15:53:10.457Z</time>
      </trkpt>
      <trkpt lat="47.9177" lon="6.95388">
        <ele>606</ele>
        <time>2026-05-09T15:53:11.457Z</time>
      </trkpt>
      <trkpt lat="47.91769" lon="6.95385">
        <ele>606</ele>
        <time>2026-05-09T15:53:12.458Z</time>
      </trkpt>
      <trkpt lat="47.91768" lon="6.95383">
        <ele>607</ele>
        <time>2026-05-09T15:53:13.457Z</time>
      </trkpt>
      <trkpt lat="47.91767" lon="6.95382">
        <ele>607</ele>
        <time>2026-05-09T15:53:14.457Z</time>
      </trkpt>
      <trkpt lat="47.91766" lon="6.9538">
        <ele>607</ele>
        <time>2026-05-09T15:53:15.457Z</time>
      </trkpt>
      <trkpt lat="47.91765" lon="6.95379">
        <ele>608</ele>
        <time>2026-05-09T15:53:16.458Z</time>
      </trkpt>
      <trkpt lat="47.91764" lon="6.95378">
        <ele>608</ele>
        <time>2026-05-09T15:53:17.458Z</time>
      </trkpt>
      <trkpt lat="47.91763" lon="6.95377">
        <ele>608</ele>
        <time>2026-05-09T15:53:18.458Z</time>
      </trkpt>
      <trkpt lat="47.91762" lon="6.95376">
        <ele>608</ele>
        <time>2026-05-09T15:53:19.458Z</time>
      </trkpt>
      <trkpt lat="47.91762" lon="6.95375">
        <ele>609</ele>
        <time>2026-05-09T15:53:20.457Z</time>
      </trkpt>
      <trkpt lat="47.91761" lon="6.95375">
        <ele>609</ele>
        <time>2026-05-09T15:53:21.458Z</time>
      </trkpt>
      <trkpt lat="47.91759" lon="6.95372">
        <ele>610</ele>
        <time>2026-05-09T15:53:22.457Z</time>
      </trkpt>
      <trkpt lat="47.91758" lon="6.9537">
        <ele>610</ele>
        <time>2026-05-09T15:53:23.458Z</time>
      </trkpt>
      <trkpt lat="47.91756" lon="6.95368">
        <ele>611</ele>
        <time>2026-05-09T15:53:24.458Z</time>
      </trkpt>
      <trkpt lat="47.91755" lon="6.95367">
        <ele>612</ele>
        <time>2026-05-09T15:53:25.457Z</time>
      </trkpt>
      <trkpt lat="47.91754" lon="6.95366">
        <ele>612</ele>
        <time>2026-05-09T15:53:26.458Z</time>
      </trkpt>
      <trkpt lat="47.91753" lon="6.95365">
        <ele>612</ele>
        <time>2026-05-09T15:53:27.457Z</time>
      </trkpt>
      <trkpt lat="47.91752" lon="6.95363">
        <ele>612</ele>
        <time>2026-05-09T15:53:28.458Z</time>
      </trkpt>
      <trkpt lat="47.91752" lon="6.95363">
        <ele>613</ele>
        <time>2026-05-09T15:53:29.457Z</time>
      </trkpt>
      <trkpt lat="47.91751" lon="6.95362">
        <ele>613</ele>
        <time>2026-05-09T15:53:30.458Z</time>
      </trkpt>
      <trkpt lat="47.9175" lon="6.95362">
        <ele>613</ele>
        <time>2026-05-09T15:53:31.458Z</time>
      </trkpt>
      <trkpt lat="47.91749" lon="6.95362">
        <ele>613</ele>
        <time>2026-05-09T15:53:32.457Z</time>
      </trkpt>
      <trkpt lat="47.91749" lon="6.95362">
        <ele>613</ele>
        <time>2026-05-09T15:53:33.458Z</time>
      </trkpt>
      <trkpt lat="47.91748" lon="6.95362">
        <ele>613</ele>
        <time>2026-05-09T15:53:34.457Z</time>
      </trkpt>
      <trkpt lat="47.91748" lon="6.95362">
        <ele>613</ele>
        <time>2026-05-09T15:53:35.457Z</time>
      </trkpt>
      <trkpt lat="47.91747" lon="6.95361">
        <ele>613</ele>
        <time>2026-05-09T15:53:36.457Z</time>
      </trkpt>
      <trkpt lat="47.91746" lon="6.95361">
        <ele>613</ele>
        <time>2026-05-09T15:53:37.457Z</time>
      </trkpt>
      <trkpt lat="47.91745" lon="6.9536">
        <ele>613</ele>
        <time>2026-05-09T15:53:38.458Z</time>
      </trkpt>
      <trkpt lat="47.91744" lon="6.95359">
        <ele>613</ele>
        <time>2026-05-09T15:53:39.457Z</time>
      </trkpt>
      <trkpt lat="47.91742" lon="6.95358">
        <ele>614</ele>
        <time>2026-05-09T15:53:40.458Z</time>
      </trkpt>
      <trkpt lat="47.91741" lon="6.95357">
        <ele>614</ele>
        <time>2026-05-09T15:53:41.457Z</time>
      </trkpt>
      <trkpt lat="47.9174" lon="6.95356">
        <ele>614</ele>
        <time>2026-05-09T15:53:42.458Z</time>
      </trkpt>
      <trkpt lat="47.9174" lon="6.95355">
        <ele>615</ele>
        <time>2026-05-09T15:53:43.457Z</time>
      </trkpt>
      <trkpt lat="47.91738" lon="6.95354">
        <ele>615</ele>
        <time>2026-05-09T15:53:44.457Z</time>
      </trkpt>
      <trkpt lat="47.91737" lon="6.95352">
        <ele>616</ele>
        <time>2026-05-09T15:53:45.458Z</time>
      </trkpt>
      <trkpt lat="47.91736" lon="6.95351">
        <ele>616</ele>
        <time>2026-05-09T15:53:46.457Z</time>
      </trkpt>
      <trkpt lat="47.91736" lon="6.9535">
        <ele>616</ele>
        <time>2026-05-09T15:53:47.458Z</time>
      </trkpt>
      <trkpt lat="47.91735" lon="6.95349">
        <ele>617</ele>
        <time>2026-05-09T15:53:48.457Z</time>
      </trkpt>
      <trkpt lat="47.91735" lon="6.95349">
        <ele>617</ele>
        <time>2026-05-09T15:53:49.458Z</time>
      </trkpt>
      <trkpt lat="47.91734" lon="6.95348">
        <ele>618</ele>
        <time>2026-05-09T15:53:50.457Z</time>
      </trkpt>
      <trkpt lat="47.91735" lon="6.95349">
        <ele>619</ele>
        <time>2026-05-09T15:53:56.882Z</time>
      </trkpt>
      <trkpt lat="47.91735" lon="6.9535">
        <ele>619</ele>
        <time>2026-05-09T15:53:57.882Z</time>
      </trkpt>
      <trkpt lat="47.91736" lon="6.9535">
        <ele>620</ele>
        <time>2026-05-09T15:53:58.881Z</time>
      </trkpt>
      <trkpt lat="47.91737" lon="6.9535">
        <ele>620</ele>
        <time>2026-05-09T15:53:59.881Z</time>
      </trkpt>
      <trkpt lat="47.91738" lon="6.9535">
        <ele>620</ele>
        <time>2026-05-09T15:54:00.881Z</time>
      </trkpt>
      <trkpt lat="47.91738" lon="6.95351">
        <ele>620</ele>
        <time>2026-05-09T15:54:01.881Z</time>
      </trkpt>
      <trkpt lat="47.91739" lon="6.95352">
        <ele>621</ele>
        <time>2026-05-09T15:54:02.881Z</time>
      </trkpt>
      <trkpt lat="47.9174" lon="6.95353">
        <ele>621</ele>
        <time>2026-05-09T15:54:03.881Z</time>
      </trkpt>
      <trkpt lat="47.91741" lon="6.95354">
        <ele>621</ele>
        <time>2026-05-09T15:54:04.882Z</time>
      </trkpt>
      <trkpt lat="47.91741" lon="6.95355">
        <ele>621</ele>
        <time>2026-05-09T15:54:05.881Z</time>
      </trkpt>
      <trkpt lat="47.91742" lon="6.95356">
        <ele>621</ele>
        <time>2026-05-09T15:54:06.881Z</time>
      </trkpt>
      <trkpt lat="47.91743" lon="6.95356">
        <ele>622</ele>
        <time>2026-05-09T15:54:07.881Z</time>
      </trkpt>
      <trkpt lat="47.91743" lon="6.95358">
        <ele>622</ele>
        <time>2026-05-09T15:54:08.881Z</time>
      </trkpt>
      <trkpt lat="47.91744" lon="6.95358">
        <ele>622</ele>
        <time>2026-05-09T15:54:09.881Z</time>
      </trkpt>
      <trkpt lat="47.91745" lon="6.95359">
        <ele>622</ele>
        <time>2026-05-09T15:54:10.881Z</time>
      </trkpt>
      <trkpt lat="47.91746" lon="6.95359">
        <ele>622</ele>
        <time>2026-05-09T15:54:11.882Z</time>
      </trkpt>
      <trkpt lat="47.91748" lon="6.95359">
        <ele>622</ele>
        <time>2026-05-09T15:54:12.881Z</time>
      </trkpt>
      <trkpt lat="47.91748" lon="6.9536">
        <ele>622</ele>
        <time>2026-05-09T15:54:13.882Z</time>
      </trkpt>
      <trkpt lat="47.91748" lon="6.95361">
        <ele>622</ele>
        <time>2026-05-09T15:54:14.881Z</time>
      </trkpt>
      <trkpt lat="47.9175" lon="6.9536">
        <ele>622</ele>
        <time>2026-05-09T15:54:15.881Z</time>
      </trkpt>
      <trkpt lat="47.91751" lon="6.9536">
        <ele>622</ele>
        <time>2026-05-09T15:54:16.881Z</time>
      </trkpt>
      <trkpt lat="47.91753" lon="6.95361">
        <ele>622</ele>
        <time>2026-05-09T15:54:17.881Z</time>
      </trkpt>
      <trkpt lat="47.91754" lon="6.9536">
        <ele>622</ele>
        <time>2026-05-09T15:54:18.881Z</time>
      </trkpt>
      <trkpt lat="47.91754" lon="6.9536">
        <ele>622</ele>
        <time>2026-05-09T15:54:19.882Z</time>
      </trkpt>
      <trkpt lat="47.91755" lon="6.9536">
        <ele>622</ele>
        <time>2026-05-09T15:54:20.882Z</time>
      </trkpt>
      <trkpt lat="47.91757" lon="6.9536">
        <ele>622</ele>
        <time>2026-05-09T15:54:21.881Z</time>
      </trkpt>
      <trkpt lat="47.91758" lon="6.95361">
        <ele>621</ele>
        <time>2026-05-09T15:54:22.881Z</time>
      </trkpt>
      <trkpt lat="47.9176" lon="6.95361">
        <ele>621</ele>
        <time>2026-05-09T15:54:23.881Z</time>
      </trkpt>
      <trkpt lat="47.91761" lon="6.95361">
        <ele>621</ele>
        <time>2026-05-09T15:54:24.881Z</time>
      </trkpt>
      <trkpt lat="47.91762" lon="6.95361">
        <ele>620</ele>
        <time>2026-05-09T15:54:25.882Z</time>
      </trkpt>
      <trkpt lat="47.91764" lon="6.95361">
        <ele>620</ele>
        <time>2026-05-09T15:54:26.881Z</time>
      </trkpt>
      <trkpt lat="47.91766" lon="6.95361">
        <ele>620</ele>
        <time>2026-05-09T15:54:27.881Z</time>
      </trkpt>
      <trkpt lat="47.91768" lon="6.95361">
        <ele>619</ele>
        <time>2026-05-09T15:54:28.881Z</time>
      </trkpt>
      <trkpt lat="47.91769" lon="6.95361">
        <ele>619</ele>
        <time>2026-05-09T15:54:29.881Z</time>
      </trkpt>
      <trkpt lat="47.91771" lon="6.95363">
        <ele>619</ele>
        <time>2026-05-09T15:54:30.881Z</time>
      </trkpt>
      <trkpt lat="47.91772" lon="6.95364">
        <ele>619</ele>
        <time>2026-05-09T15:54:31.881Z</time>
      </trkpt>
      <trkpt lat="47.91774" lon="6.95366">
        <ele>619</ele>
        <time>2026-05-09T15:54:32.881Z</time>
      </trkpt>
      <trkpt lat="47.91776" lon="6.95367">
        <ele>619</ele>
        <time>2026-05-09T15:54:33.882Z</time>
      </trkpt>
      <trkpt lat="47.91776" lon="6.95368">
        <ele>619</ele>
        <time>2026-05-09T15:54:34.881Z</time>
      </trkpt>
      <trkpt lat="47.91777" lon="6.95368">
        <ele>619</ele>
        <time>2026-05-09T15:54:35.881Z</time>
      </trkpt>
      <trkpt lat="47.91778" lon="6.95368">
        <ele>619</ele>
        <time>2026-05-09T15:54:36.881Z</time>
      </trkpt>
      <trkpt lat="47.91779" lon="6.95369">
        <ele>619</ele>
        <time>2026-05-09T15:54:37.881Z</time>
      </trkpt>
      <trkpt lat="47.9178" lon="6.95369">
        <ele>619</ele>
        <time>2026-05-09T15:54:38.882Z</time>
      </trkpt>
      <trkpt lat="47.91781" lon="6.95369">
        <ele>619</ele>
        <time>2026-05-09T15:54:39.882Z</time>
      </trkpt>
      <trkpt lat="47.91782" lon="6.9537">
        <ele>619</ele>
        <time>2026-05-09T15:54:40.881Z</time>
      </trkpt>
      <trkpt lat="47.91784" lon="6.95371">
        <ele>619</ele>
        <time>2026-05-09T15:54:41.882Z</time>
      </trkpt>
      <trkpt lat="47.91785" lon="6.95372">
        <ele>619</ele>
        <time>2026-05-09T15:54:42.882Z</time>
      </trkpt>
      <trkpt lat="47.91787" lon="6.95374">
        <ele>619</ele>
        <time>2026-05-09T15:54:43.881Z</time>
      </trkpt>
      <trkpt lat="47.91788" lon="6.95375">
        <ele>619</ele>
        <time>2026-05-09T15:54:44.881Z</time>
      </trkpt>
      <trkpt lat="47.91789" lon="6.95377">
        <ele>619</ele>
        <time>2026-05-09T15:54:45.881Z</time>
      </trkpt>
      <trkpt lat="47.91789" lon="6.95378">
        <ele>619</ele>
        <time>2026-05-09T15:54:46.881Z</time>
      </trkpt>
      <trkpt lat="47.9179" lon="6.9538">
        <ele>618</ele>
        <time>2026-05-09T15:54:47.881Z</time>
      </trkpt>
      <trkpt lat="47.91791" lon="6.95381">
        <ele>618</ele>
        <time>2026-05-09T15:54:48.882Z</time>
      </trkpt>
      <trkpt lat="47.91793" lon="6.95382">
        <ele>618</ele>
        <time>2026-05-09T15:54:49.881Z</time>
      </trkpt>
      <trkpt lat="47.91795" lon="6.95384">
        <ele>618</ele>
        <time>2026-05-09T15:54:50.881Z</time>
      </trkpt>
      <trkpt lat="47.91797" lon="6.95386">
        <ele>618</ele>
        <time>2026-05-09T15:54:51.881Z</time>
      </trkpt>
      <trkpt lat="47.91799" lon="6.95387">
        <ele>618</ele>
        <time>2026-05-09T15:54:52.881Z</time>
      </trkpt>
      <trkpt lat="47.918" lon="6.95388">
        <ele>618</ele>
        <time>2026-05-09T15:54:53.881Z</time>
      </trkpt>
      <trkpt lat="47.91802" lon="6.9539">
        <ele>618</ele>
        <time>2026-05-09T15:54:54.881Z</time>
      </trkpt>
      <trkpt lat="47.91804" lon="6.95392">
        <ele>618</ele>
        <time>2026-05-09T15:54:55.882Z</time>
      </trkpt>
      <trkpt lat="47.91805" lon="6.95393">
        <ele>618</ele>
        <time>2026-05-09T15:54:56.881Z</time>
      </trkpt>
      <trkpt lat="47.91807" lon="6.95394">
        <ele>618</ele>
        <time>2026-05-09T15:54:57.881Z</time>
      </trkpt>
      <trkpt lat="47.91809" lon="6.95396">
        <ele>618</ele>
        <time>2026-05-09T15:54:58.881Z</time>
      </trkpt>
      <trkpt lat="47.91811" lon="6.95398">
        <ele>618</ele>
        <time>2026-05-09T15:54:59.881Z</time>
      </trkpt>
      <trkpt lat="47.91811" lon="6.95399">
        <ele>618</ele>
        <time>2026-05-09T15:55:00.882Z</time>
      </trkpt>
      <trkpt lat="47.91812" lon="6.95401">
        <ele>618</ele>
        <time>2026-05-09T15:55:01.881Z</time>
      </trkpt>
      <trkpt lat="47.91813" lon="6.95403">
        <ele>618</ele>
        <time>2026-05-09T15:55:02.881Z</time>
      </trkpt>
      <trkpt lat="47.91813" lon="6.95404">
        <ele>617</ele>
        <time>2026-05-09T15:55:03.881Z</time>
      </trkpt>
      <trkpt lat="47.91813" lon="6.95405">
        <ele>617</ele>
        <time>2026-05-09T15:55:04.881Z</time>
      </trkpt>
      <trkpt lat="47.91813" lon="6.95406">
        <ele>617</ele>
        <time>2026-05-09T15:55:05.881Z</time>
      </trkpt>
      <trkpt lat="47.91814" lon="6.95407">
        <ele>617</ele>
        <time>2026-05-09T15:55:06.881Z</time>
      </trkpt>
      <trkpt lat="47.91814" lon="6.95408">
        <ele>617</ele>
        <time>2026-05-09T15:55:07.881Z</time>
      </trkpt>
      <trkpt lat="47.91815" lon="6.95409">
        <ele>617</ele>
        <time>2026-05-09T15:55:08.881Z</time>
      </trkpt>
      <trkpt lat="47.91816" lon="6.95412">
        <ele>617</ele>
        <time>2026-05-09T15:55:09.881Z</time>
      </trkpt>
      <trkpt lat="47.91817" lon="6.95414">
        <ele>617</ele>
        <time>2026-05-09T15:55:10.881Z</time>
      </trkpt>
      <trkpt lat="47.91817" lon="6.95414">
        <ele>617</ele>
        <time>2026-05-09T15:55:11.881Z</time>
      </trkpt>
      <trkpt lat="47.91817" lon="6.95414">
        <ele>617</ele>
        <time>2026-05-09T15:55:12.881Z</time>
      </trkpt>
      <trkpt lat="47.91818" lon="6.95415">
        <ele>617</ele>
        <time>2026-05-09T15:55:13.882Z</time>
      </trkpt>
      <trkpt lat="47.91818" lon="6.95416">
        <ele>617</ele>
        <time>2026-05-09T15:55:14.881Z</time>
      </trkpt>
      <trkpt lat="47.91818" lon="6.95416">
        <ele>618</ele>
        <time>2026-05-09T15:55:15.881Z</time>
      </trkpt>
      <trkpt lat="47.91818" lon="6.95416">
        <ele>618</ele>
        <time>2026-05-09T15:55:16.882Z</time>
      </trkpt>
      <trkpt lat="47.91818" lon="6.95417">
        <ele>618</ele>
        <time>2026-05-09T15:55:17.882Z</time>
      </trkpt>
      <trkpt lat="47.91818" lon="6.95417">
        <ele>617</ele>
        <time>2026-05-09T15:55:18.881Z</time>
      </trkpt>
      <trkpt lat="47.91818" lon="6.95418">
        <ele>616</ele>
        <time>2026-05-09T15:55:19.881Z</time>
      </trkpt>
      <trkpt lat="47.91818" lon="6.95419">
        <ele>616</ele>
        <time>2026-05-09T15:55:20.881Z</time>
      </trkpt>
      <trkpt lat="47.91818" lon="6.95419">
        <ele>615</ele>
        <time>2026-05-09T15:55:21.882Z</time>
      </trkpt>
      <trkpt lat="47.91818" lon="6.9542">
        <ele>615</ele>
        <time>2026-05-09T15:55:22.881Z</time>
      </trkpt>
      <trkpt lat="47.91812" lon="6.95421">
        <ele>614</ele>
        <time>2026-05-09T15:55:29.272Z</time>
      </trkpt>
      <trkpt lat="47.91811" lon="6.95421">
        <ele>614</ele>
        <time>2026-05-09T15:55:30.271Z</time>
      </trkpt>
      <trkpt lat="47.91811" lon="6.9542">
        <ele>614</ele>
        <time>2026-05-09T15:55:31.272Z</time>
      </trkpt>
      <trkpt lat="47.9181" lon="6.9542">
        <ele>614</ele>
        <time>2026-05-09T15:55:32.271Z</time>
      </trkpt>
      <trkpt lat="47.9181" lon="6.9542">
        <ele>615</ele>
        <time>2026-05-09T15:55:33.272Z</time>
      </trkpt>
      <trkpt lat="47.91809" lon="6.9542">
        <ele>615</ele>
        <time>2026-05-09T15:55:34.271Z</time>
      </trkpt>
      <trkpt lat="47.91808" lon="6.95419">
        <ele>616</ele>
        <time>2026-05-09T15:55:35.272Z</time>
      </trkpt>
      <trkpt lat="47.91807" lon="6.95419">
        <ele>616</ele>
        <time>2026-05-09T15:55:36.272Z</time>
      </trkpt>
      <trkpt lat="47.91806" lon="6.95419">
        <ele>616</ele>
        <time>2026-05-09T15:55:37.272Z</time>
      </trkpt>
      <trkpt lat="47.91806" lon="6.95418">
        <ele>617</ele>
        <time>2026-05-09T15:55:38.271Z</time>
      </trkpt>
      <trkpt lat="47.91805" lon="6.95418">
        <ele>617</ele>
        <time>2026-05-09T15:55:39.271Z</time>
      </trkpt>
      <trkpt lat="47.91805" lon="6.95418">
        <ele>617</ele>
        <time>2026-05-09T15:55:40.271Z</time>
      </trkpt>
      <trkpt lat="47.91804" lon="6.95418">
        <ele>617</ele>
        <time>2026-05-09T15:55:41.272Z</time>
      </trkpt>
      <trkpt lat="47.91802" lon="6.95418">
        <ele>617</ele>
        <time>2026-05-09T15:55:42.271Z</time>
      </trkpt>
      <trkpt lat="47.91801" lon="6.95417">
        <ele>617</ele>
        <time>2026-05-09T15:55:43.272Z</time>
      </trkpt>
      <trkpt lat="47.918" lon="6.95417">
        <ele>617</ele>
        <time>2026-05-09T15:55:44.272Z</time>
      </trkpt>
      <trkpt lat="47.91799" lon="6.95417">
        <ele>618</ele>
        <time>2026-05-09T15:55:45.271Z</time>
      </trkpt>
      <trkpt lat="47.91797" lon="6.95418">
        <ele>618</ele>
        <time>2026-05-09T15:55:46.272Z</time>
      </trkpt>
      <trkpt lat="47.91796" lon="6.95418">
        <ele>619</ele>
        <time>2026-05-09T15:55:47.272Z</time>
      </trkpt>
      <trkpt lat="47.91795" lon="6.95418">
        <ele>619</ele>
        <time>2026-05-09T15:55:48.271Z</time>
      </trkpt>
      <trkpt lat="47.91794" lon="6.95417">
        <ele>620</ele>
        <time>2026-05-09T15:55:49.272Z</time>
      </trkpt>
      <trkpt lat="47.91793" lon="6.95418">
        <ele>621</ele>
        <time>2026-05-09T15:55:50.272Z</time>
      </trkpt>
      <trkpt lat="47.91791" lon="6.95418">
        <ele>621</ele>
        <time>2026-05-09T15:55:51.272Z</time>
      </trkpt>
      <trkpt lat="47.9179" lon="6.95418">
        <ele>622</ele>
        <time>2026-05-09T15:55:52.272Z</time>
      </trkpt>
      <trkpt lat="47.91789" lon="6.95418">
        <ele>623</ele>
        <time>2026-05-09T15:55:53.271Z</time>
      </trkpt>
      <trkpt lat="47.91788" lon="6.95418">
        <ele>623</ele>
        <time>2026-05-09T15:55:54.271Z</time>
      </trkpt>
      <trkpt lat="47.91788" lon="6.95417">
        <ele>624</ele>
        <time>2026-05-09T15:55:55.271Z</time>
      </trkpt>
      <trkpt lat="47.91786" lon="6.95419">
        <ele>625</ele>
        <time>2026-05-09T15:55:56.272Z</time>
      </trkpt>
      <trkpt lat="47.91785" lon="6.9542">
        <ele>626</ele>
        <time>2026-05-09T15:55:57.271Z</time>
      </trkpt>
      <trkpt lat="47.91784" lon="6.95419">
        <ele>626</ele>
        <time>2026-05-09T15:55:58.272Z</time>
      </trkpt>
      <trkpt lat="47.91783" lon="6.95419">
        <ele>626</ele>
        <time>2026-05-09T15:55:59.272Z</time>
      </trkpt>
      <trkpt lat="47.91782" lon="6.95418">
        <ele>627</ele>
        <time>2026-05-09T15:56:00.271Z</time>
      </trkpt>
      <trkpt lat="47.9178" lon="6.95417">
        <ele>627</ele>
        <time>2026-05-09T15:56:01.271Z</time>
      </trkpt>
      <trkpt lat="47.91778" lon="6.95417">
        <ele>627</ele>
        <time>2026-05-09T15:56:02.272Z</time>
      </trkpt>
      <trkpt lat="47.91776" lon="6.95416">
        <ele>628</ele>
        <time>2026-05-09T15:56:03.271Z</time>
      </trkpt>
      <trkpt lat="47.91775" lon="6.95417">
        <ele>628</ele>
        <time>2026-05-09T15:56:04.272Z</time>
      </trkpt>
      <trkpt lat="47.91774" lon="6.95416">
        <ele>628</ele>
        <time>2026-05-09T15:56:05.272Z</time>
      </trkpt>
      <trkpt lat="47.91773" lon="6.95414">
        <ele>628</ele>
        <time>2026-05-09T15:56:06.272Z</time>
      </trkpt>
      <trkpt lat="47.91771" lon="6.95413">
        <ele>628</ele>
        <time>2026-05-09T15:56:07.272Z</time>
      </trkpt>
      <trkpt lat="47.91771" lon="6.95412">
        <ele>628</ele>
        <time>2026-05-09T15:56:08.272Z</time>
      </trkpt>
      <trkpt lat="47.91769" lon="6.95411">
        <ele>627</ele>
        <time>2026-05-09T15:56:09.272Z</time>
      </trkpt>
      <trkpt lat="47.91768" lon="6.9541">
        <ele>627</ele>
        <time>2026-05-09T15:56:10.271Z</time>
      </trkpt>
      <trkpt lat="47.91767" lon="6.95409">
        <ele>627</ele>
        <time>2026-05-09T15:56:11.272Z</time>
      </trkpt>
      <trkpt lat="47.91766" lon="6.95409">
        <ele>628</ele>
        <time>2026-05-09T15:56:12.272Z</time>
      </trkpt>
      <trkpt lat="47.91766" lon="6.95409">
        <ele>628</ele>
        <time>2026-05-09T15:56:13.272Z</time>
      </trkpt>
      <trkpt lat="47.91765" lon="6.95409">
        <ele>628</ele>
        <time>2026-05-09T15:56:14.271Z</time>
      </trkpt>
      <trkpt lat="47.91764" lon="6.95408">
        <ele>628</ele>
        <time>2026-05-09T15:56:15.271Z</time>
      </trkpt>
      <trkpt lat="47.91763" lon="6.95408">
        <ele>628</ele>
        <time>2026-05-09T15:56:16.272Z</time>
      </trkpt>
      <trkpt lat="47.91762" lon="6.95408">
        <ele>629</ele>
        <time>2026-05-09T15:56:17.272Z</time>
      </trkpt>
      <trkpt lat="47.9176" lon="6.95409">
        <ele>629</ele>
        <time>2026-05-09T15:56:18.272Z</time>
      </trkpt>
      <trkpt lat="47.91759" lon="6.9541">
        <ele>629</ele>
        <time>2026-05-09T15:56:19.272Z</time>
      </trkpt>
      <trkpt lat="47.91758" lon="6.95411">
        <ele>630</ele>
        <time>2026-05-09T15:56:20.272Z</time>
      </trkpt>
      <trkpt lat="47.91756" lon="6.9541">
        <ele>630</ele>
        <time>2026-05-09T15:56:21.271Z</time>
      </trkpt>
      <trkpt lat="47.91756" lon="6.9541">
        <ele>630</ele>
        <time>2026-05-09T15:56:22.271Z</time>
      </trkpt>
      <trkpt lat="47.91757" lon="6.95411">
        <ele>630</ele>
        <time>2026-05-09T15:56:23.272Z</time>
      </trkpt>
      <trkpt lat="47.91757" lon="6.95412">
        <ele>630</ele>
        <time>2026-05-09T15:56:24.271Z</time>
      </trkpt>
      <trkpt lat="47.91756" lon="6.95412">
        <ele>630</ele>
        <time>2026-05-09T15:56:25.272Z</time>
      </trkpt>
      <trkpt lat="47.91757" lon="6.95412">
        <ele>630</ele>
        <time>2026-05-09T15:56:26.271Z</time>
      </trkpt>
      <trkpt lat="47.91756" lon="6.95412">
        <ele>630</ele>
        <time>2026-05-09T15:56:27.272Z</time>
      </trkpt>
      <trkpt lat="47.91756" lon="6.95412">
        <ele>630</ele>
        <time>2026-05-09T15:56:28.271Z</time>
      </trkpt>
      <trkpt lat="47.91756" lon="6.95412">
        <ele>630</ele>
        <time>2026-05-09T15:56:29.272Z</time>
      </trkpt>
      <trkpt lat="47.91755" lon="6.95414">
        <ele>630</ele>
        <time>2026-05-09T15:56:30.272Z</time>
      </trkpt>
      <trkpt lat="47.91755" lon="6.95416">
        <ele>631</ele>
        <time>2026-05-09T15:56:31.271Z</time>
      </trkpt>
      <trkpt lat="47.91754" lon="6.95417">
        <ele>631</ele>
        <time>2026-05-09T15:56:32.272Z</time>
      </trkpt>
      <trkpt lat="47.91753" lon="6.95418">
        <ele>631</ele>
        <time>2026-05-09T15:56:33.271Z</time>
      </trkpt>
      <trkpt lat="47.91752" lon="6.95418">
        <ele>632</ele>
        <time>2026-05-09T15:56:34.271Z</time>
      </trkpt>
      <trkpt lat="47.91752" lon="6.95418">
        <ele>633</ele>
        <time>2026-05-09T15:56:35.271Z</time>
      </trkpt>
      <trkpt lat="47.91751" lon="6.95418">
        <ele>633</ele>
        <time>2026-05-09T15:56:36.272Z</time>
      </trkpt>
      <trkpt lat="47.9175" lon="6.95418">
        <ele>634</ele>
        <time>2026-05-09T15:56:37.271Z</time>
      </trkpt>
      <trkpt lat="47.9175" lon="6.95419">
        <ele>635</ele>
        <time>2026-05-09T15:56:38.272Z</time>
      </trkpt>
      <trkpt lat="47.91749" lon="6.95419">
        <ele>635</ele>
        <time>2026-05-09T15:56:39.271Z</time>
      </trkpt>
      <trkpt lat="47.91748" lon="6.95419">
        <ele>635</ele>
        <time>2026-05-09T15:56:40.272Z</time>
      </trkpt>
      <trkpt lat="47.91747" lon="6.95419">
        <ele>636</ele>
        <time>2026-05-09T15:56:41.271Z</time>
      </trkpt>
      <trkpt lat="47.91746" lon="6.95419">
        <ele>636</ele>
        <time>2026-05-09T15:56:42.272Z</time>
      </trkpt>
      <trkpt lat="47.91745" lon="6.95419">
        <ele>637</ele>
        <time>2026-05-09T15:56:43.271Z</time>
      </trkpt>
      <trkpt lat="47.91745" lon="6.9542">
        <ele>637</ele>
        <time>2026-05-09T15:56:44.272Z</time>
      </trkpt>
      <trkpt lat="47.91745" lon="6.95421">
        <ele>638</ele>
        <time>2026-05-09T15:56:45.271Z</time>
      </trkpt>
      <trkpt lat="47.91745" lon="6.95422">
        <ele>638</ele>
        <time>2026-05-09T15:56:46.272Z</time>
      </trkpt>
      <trkpt lat="47.91745" lon="6.95422">
        <ele>639</ele>
        <time>2026-05-09T15:56:47.272Z</time>
      </trkpt>
      <trkpt lat="47.91745" lon="6.95422">
        <ele>639</ele>
        <time>2026-05-09T15:56:48.271Z</time>
      </trkpt>
      <trkpt lat="47.91747" lon="6.95421">
        <ele>641</ele>
        <time>2026-05-09T15:56:55.553Z</time>
      </trkpt>
      <trkpt lat="47.91748" lon="6.95421">
        <ele>641</ele>
        <time>2026-05-09T15:56:56.553Z</time>
      </trkpt>
      <trkpt lat="47.91749" lon="6.95422">
        <ele>642</ele>
        <time>2026-05-09T15:56:57.553Z</time>
      </trkpt>
      <trkpt lat="47.91749" lon="6.95422">
        <ele>642</ele>
        <time>2026-05-09T15:56:58.553Z</time>
      </trkpt>
      <trkpt lat="47.9175" lon="6.95423">
        <ele>642</ele>
        <time>2026-05-09T15:56:59.554Z</time>
      </trkpt>
      <trkpt lat="47.9175" lon="6.95423">
        <ele>642</ele>
        <time>2026-05-09T15:57:00.553Z</time>
      </trkpt>
      <trkpt lat="47.91751" lon="6.95423">
        <ele>642</ele>
        <time>2026-05-09T15:57:01.554Z</time>
      </trkpt>
      <trkpt lat="47.91751" lon="6.95423">
        <ele>642</ele>
        <time>2026-05-09T15:57:02.554Z</time>
      </trkpt>
      <trkpt lat="47.91752" lon="6.95424">
        <ele>642</ele>
        <time>2026-05-09T15:57:03.554Z</time>
      </trkpt>
      <trkpt lat="47.91752" lon="6.95424">
        <ele>643</ele>
        <time>2026-05-09T15:57:04.553Z</time>
      </trkpt>
      <trkpt lat="47.91753" lon="6.95425">
        <ele>643</ele>
        <time>2026-05-09T15:57:05.554Z</time>
      </trkpt>
      <trkpt lat="47.91753" lon="6.95426">
        <ele>643</ele>
        <time>2026-05-09T15:57:06.554Z</time>
      </trkpt>
      <trkpt lat="47.91754" lon="6.95427">
        <ele>643</ele>
        <time>2026-05-09T15:57:07.554Z</time>
      </trkpt>
      <trkpt lat="47.91755" lon="6.95428">
        <ele>643</ele>
        <time>2026-05-09T15:57:08.554Z</time>
      </trkpt>
      <trkpt lat="47.91755" lon="6.95429">
        <ele>643</ele>
        <time>2026-05-09T15:57:09.553Z</time>
      </trkpt>
      <trkpt lat="47.91754" lon="6.95429">
        <ele>643</ele>
        <time>2026-05-09T15:57:10.554Z</time>
      </trkpt>
      <trkpt lat="47.91754" lon="6.9543">
        <ele>643</ele>
        <time>2026-05-09T15:57:11.554Z</time>
      </trkpt>
      <trkpt lat="47.91754" lon="6.9543">
        <ele>643</ele>
        <time>2026-05-09T15:57:12.553Z</time>
      </trkpt>
      <trkpt lat="47.9175" lon="6.95433">
        <ele>644</ele>
        <time>2026-05-09T15:57:19.998Z</time>
      </trkpt>
      <trkpt lat="47.91749" lon="6.95435">
        <ele>644</ele>
        <time>2026-05-09T15:57:20.998Z</time>
      </trkpt>
      <trkpt lat="47.91748" lon="6.95435">
        <ele>644</ele>
        <time>2026-05-09T15:57:21.999Z</time>
      </trkpt>
      <trkpt lat="47.91747" lon="6.95436">
        <ele>644</ele>
        <time>2026-05-09T15:57:22.998Z</time>
      </trkpt>
      <trkpt lat="47.91746" lon="6.95436">
        <ele>644</ele>
        <time>2026-05-09T15:57:23.998Z</time>
      </trkpt>
      <trkpt lat="47.91746" lon="6.95436">
        <ele>644</ele>
        <time>2026-05-09T15:57:24.998Z</time>
      </trkpt>
      <trkpt lat="47.91745" lon="6.95436">
        <ele>644</ele>
        <time>2026-05-09T15:57:25.998Z</time>
      </trkpt>
      <trkpt lat="47.91745" lon="6.95437">
        <ele>644</ele>
        <time>2026-05-09T15:57:26.998Z</time>
      </trkpt>
      <trkpt lat="47.91744" lon="6.95437">
        <ele>644</ele>
        <time>2026-05-09T15:57:27.998Z</time>
      </trkpt>
      <trkpt lat="47.91743" lon="6.95438">
        <ele>644</ele>
        <time>2026-05-09T15:57:28.998Z</time>
      </trkpt>
      <trkpt lat="47.91742" lon="6.95439">
        <ele>645</ele>
        <time>2026-05-09T15:57:29.999Z</time>
      </trkpt>
      <trkpt lat="47.91741" lon="6.95439">
        <ele>645</ele>
        <time>2026-05-09T15:57:30.999Z</time>
      </trkpt>
      <trkpt lat="47.9174" lon="6.95439">
        <ele>645</ele>
        <time>2026-05-09T15:57:31.998Z</time>
      </trkpt>
      <trkpt lat="47.9174" lon="6.95439">
        <ele>646</ele>
        <time>2026-05-09T15:57:32.998Z</time>
      </trkpt>
      <trkpt lat="47.91739" lon="6.9544">
        <ele>646</ele>
        <time>2026-05-09T15:57:33.999Z</time>
      </trkpt>
      <trkpt lat="47.91739" lon="6.9544">
        <ele>646</ele>
        <time>2026-05-09T15:57:34.998Z</time>
      </trkpt>
      <trkpt lat="47.91739" lon="6.9544">
        <ele>646</ele>
        <time>2026-05-09T15:57:35.998Z</time>
      </trkpt>
      <trkpt lat="47.91738" lon="6.95439">
        <ele>646</ele>
        <time>2026-05-09T15:57:36.998Z</time>
      </trkpt>
      <trkpt lat="47.91738" lon="6.95439">
        <ele>647</ele>
        <time>2026-05-09T15:57:37.999Z</time>
      </trkpt>
      <trkpt lat="47.91737" lon="6.95439">
        <ele>647</ele>
        <time>2026-05-09T15:57:38.999Z</time>
      </trkpt>
      <trkpt lat="47.91737" lon="6.95439">
        <ele>647</ele>
        <time>2026-05-09T15:57:39.998Z</time>
      </trkpt>
      <trkpt lat="47.91736" lon="6.9544">
        <ele>647</ele>
        <time>2026-05-09T15:57:40.999Z</time>
      </trkpt>
      <trkpt lat="47.91735" lon="6.9544">
        <ele>648</ele>
        <time>2026-05-09T15:57:41.999Z</time>
      </trkpt>
      <trkpt lat="47.91734" lon="6.9544">
        <ele>649</ele>
        <time>2026-05-09T15:57:42.998Z</time>
      </trkpt>
      <trkpt lat="47.91732" lon="6.95441">
        <ele>649</ele>
        <time>2026-05-09T15:57:43.998Z</time>
      </trkpt>
      <trkpt lat="47.91731" lon="6.95441">
        <ele>649</ele>
        <time>2026-05-09T15:57:44.998Z</time>
      </trkpt>
      <trkpt lat="47.9173" lon="6.95442">
        <ele>650</ele>
        <time>2026-05-09T15:57:45.998Z</time>
      </trkpt>
      <trkpt lat="47.91729" lon="6.95442">
        <ele>650</ele>
        <time>2026-05-09T15:57:46.998Z</time>
      </trkpt>
      <trkpt lat="47.91729" lon="6.95442">
        <ele>650</ele>
        <time>2026-05-09T15:57:47.998Z</time>
      </trkpt>
      <trkpt lat="47.91729" lon="6.95442">
        <ele>650</ele>
        <time>2026-05-09T15:57:48.998Z</time>
      </trkpt>
      <trkpt lat="47.91729" lon="6.95443">
        <ele>650</ele>
        <time>2026-05-09T15:57:49.998Z</time>
      </trkpt>
      <trkpt lat="47.91728" lon="6.95443">
        <ele>650</ele>
        <time>2026-05-09T15:57:50.999Z</time>
      </trkpt>
      <trkpt lat="47.91725" lon="6.95441">
        <ele>653</ele>
        <time>2026-05-09T15:57:58.265Z</time>
      </trkpt>
      <trkpt lat="47.91725" lon="6.95441">
        <ele>653</ele>
        <time>2026-05-09T15:57:59.266Z</time>
      </trkpt>
      <trkpt lat="47.91725" lon="6.95441">
        <ele>654</ele>
        <time>2026-05-09T15:58:00.265Z</time>
      </trkpt>
      <trkpt lat="47.91724" lon="6.95441">
        <ele>655</ele>
        <time>2026-05-09T15:58:01.266Z</time>
      </trkpt>
      <trkpt lat="47.91724" lon="6.95442">
        <ele>655</ele>
        <time>2026-05-09T15:58:02.265Z</time>
      </trkpt>
      <trkpt lat="47.91723" lon="6.95443">
        <ele>655</ele>
        <time>2026-05-09T15:58:03.266Z</time>
      </trkpt>
      <trkpt lat="47.91723" lon="6.95444">
        <ele>655</ele>
        <time>2026-05-09T15:58:04.266Z</time>
      </trkpt>
      <trkpt lat="47.91722" lon="6.95445">
        <ele>656</ele>
        <time>2026-05-09T15:58:05.266Z</time>
      </trkpt>
      <trkpt lat="47.91721" lon="6.95445">
        <ele>656</ele>
        <time>2026-05-09T15:58:06.265Z</time>
      </trkpt>
      <trkpt lat="47.91721" lon="6.95445">
        <ele>656</ele>
        <time>2026-05-09T15:58:07.266Z</time>
      </trkpt>
      <trkpt lat="47.91721" lon="6.95445">
        <ele>656</ele>
        <time>2026-05-09T15:58:08.265Z</time>
      </trkpt>
      <trkpt lat="47.9172" lon="6.95446">
        <ele>657</ele>
        <time>2026-05-09T15:58:09.266Z</time>
      </trkpt>
      <trkpt lat="47.91721" lon="6.95449">
        <ele>656</ele>
        <time>2026-05-09T15:58:17.559Z</time>
      </trkpt>
      <trkpt lat="47.91726" lon="6.95455">
        <ele>657</ele>
        <time>2026-05-09T15:58:32.419Z</time>
      </trkpt>
      <trkpt lat="47.91726" lon="6.95455">
        <ele>657</ele>
        <time>2026-05-09T15:58:33.419Z</time>
      </trkpt>
      <trkpt lat="47.91726" lon="6.95457">
        <ele>657</ele>
        <time>2026-05-09T15:58:34.418Z</time>
      </trkpt>
      <trkpt lat="47.91727" lon="6.95458">
        <ele>657</ele>
        <time>2026-05-09T15:58:35.418Z</time>
      </trkpt>
      <trkpt lat="47.91727" lon="6.95459">
        <ele>657</ele>
        <time>2026-05-09T15:58:36.418Z</time>
      </trkpt>
      <trkpt lat="47.91727" lon="6.9546">
        <ele>657</ele>
        <time>2026-05-09T15:58:37.418Z</time>
      </trkpt>
      <trkpt lat="47.91727" lon="6.95461">
        <ele>657</ele>
        <time>2026-05-09T15:58:38.418Z</time>
      </trkpt>
      <trkpt lat="47.91726" lon="6.95463">
        <ele>658</ele>
        <time>2026-05-09T15:58:39.418Z</time>
      </trkpt>
      <trkpt lat="47.91726" lon="6.95463">
        <ele>658</ele>
        <time>2026-05-09T15:58:40.418Z</time>
      </trkpt>
      <trkpt lat="47.91726" lon="6.95464">
        <ele>658</ele>
        <time>2026-05-09T15:58:41.418Z</time>
      </trkpt>
      <trkpt lat="47.91725" lon="6.95464">
        <ele>658</ele>
        <time>2026-05-09T15:58:42.418Z</time>
      </trkpt>
      <trkpt lat="47.91725" lon="6.95464">
        <ele>658</ele>
        <time>2026-05-09T15:58:43.418Z</time>
      </trkpt>
      <trkpt lat="47.91724" lon="6.95464">
        <ele>658</ele>
        <time>2026-05-09T15:58:44.418Z</time>
      </trkpt>
      <trkpt lat="47.91724" lon="6.95464">
        <ele>658</ele>
        <time>2026-05-09T15:58:45.419Z</time>
      </trkpt>
      <trkpt lat="47.91723" lon="6.95464">
        <ele>658</ele>
        <time>2026-05-09T15:58:46.419Z</time>
      </trkpt>
      <trkpt lat="47.91723" lon="6.95464">
        <ele>657</ele>
        <time>2026-05-09T15:58:47.418Z</time>
      </trkpt>
      <trkpt lat="47.91723" lon="6.95467">
        <ele>655</ele>
        <time>2026-05-09T15:58:53.837Z</time>
      </trkpt>
      <trkpt lat="47.91724" lon="6.95468">
        <ele>654</ele>
        <time>2026-05-09T15:58:54.837Z</time>
      </trkpt>
      <trkpt lat="47.91725" lon="6.95468">
        <ele>654</ele>
        <time>2026-05-09T15:58:55.836Z</time>
      </trkpt>
      <trkpt lat="47.91725" lon="6.95468">
        <ele>653</ele>
        <time>2026-05-09T15:58:56.836Z</time>
      </trkpt>
      <trkpt lat="47.91726" lon="6.95469">
        <ele>653</ele>
        <time>2026-05-09T15:58:57.836Z</time>
      </trkpt>
      <trkpt lat="47.91726" lon="6.9547">
        <ele>653</ele>
        <time>2026-05-09T15:58:58.836Z</time>
      </trkpt>
      <trkpt lat="47.91726" lon="6.95471">
        <ele>652</ele>
        <time>2026-05-09T15:58:59.836Z</time>
      </trkpt>
      <trkpt lat="47.91727" lon="6.95473">
        <ele>652</ele>
        <time>2026-05-09T15:59:00.836Z</time>
      </trkpt>
      <trkpt lat="47.91727" lon="6.95474">
        <ele>652</ele>
        <time>2026-05-09T15:59:01.837Z</time>
      </trkpt>
      <trkpt lat="47.91727" lon="6.95475">
        <ele>652</ele>
        <time>2026-05-09T15:59:02.836Z</time>
      </trkpt>
      <trkpt lat="47.91727" lon="6.95475">
        <ele>652</ele>
        <time>2026-05-09T15:59:03.836Z</time>
      </trkpt>
      <trkpt lat="47.91727" lon="6.95475">
        <ele>652</ele>
        <time>2026-05-09T15:59:04.836Z</time>
      </trkpt>
      <trkpt lat="47.91727" lon="6.95476">
        <ele>652</ele>
        <time>2026-05-09T15:59:05.836Z</time>
      </trkpt>
      <trkpt lat="47.91728" lon="6.95476">
        <ele>652</ele>
        <time>2026-05-09T15:59:06.836Z</time>
      </trkpt>
      <trkpt lat="47.91729" lon="6.95477">
        <ele>653</ele>
        <time>2026-05-09T15:59:07.837Z</time>
      </trkpt>
      <trkpt lat="47.91729" lon="6.95479">
        <ele>653</ele>
        <time>2026-05-09T15:59:08.837Z</time>
      </trkpt>
      <trkpt lat="47.91729" lon="6.95479">
        <ele>653</ele>
        <time>2026-05-09T15:59:09.837Z</time>
      </trkpt>
      <trkpt lat="47.91729" lon="6.95479">
        <ele>653</ele>
        <time>2026-05-09T15:59:10.836Z</time>
      </trkpt>
      <trkpt lat="47.91728" lon="6.9548">
        <ele>654</ele>
        <time>2026-05-09T15:59:11.837Z</time>
      </trkpt>
      <trkpt lat="47.91727" lon="6.95481">
        <ele>654</ele>
        <time>2026-05-09T15:59:12.836Z</time>
      </trkpt>
      <trkpt lat="47.91726" lon="6.95482">
        <ele>654</ele>
        <time>2026-05-09T15:59:13.837Z</time>
      </trkpt>
      <trkpt lat="47.91725" lon="6.95481">
        <ele>654</ele>
        <time>2026-05-09T15:59:14.836Z</time>
      </trkpt>
      <trkpt lat="47.91725" lon="6.95482">
        <ele>655</ele>
        <time>2026-05-09T15:59:15.836Z</time>
      </trkpt>
      <trkpt lat="47.91724" lon="6.95482">
        <ele>655</ele>
        <time>2026-05-09T15:59:16.837Z</time>
      </trkpt>
      <trkpt lat="47.91724" lon="6.95483">
        <ele>655</ele>
        <time>2026-05-09T15:59:17.837Z</time>
      </trkpt>
      <trkpt lat="47.91723" lon="6.95484">
        <ele>655</ele>
        <time>2026-05-09T15:59:18.836Z</time>
      </trkpt>
      <trkpt lat="47.91723" lon="6.95484">
        <ele>656</ele>
        <time>2026-05-09T15:59:19.836Z</time>
      </trkpt>
      <trkpt lat="47.91723" lon="6.95484">
        <ele>656</ele>
        <time>2026-05-09T15:59:20.836Z</time>
      </trkpt>
      <trkpt lat="47.91722" lon="6.95484">
        <ele>656</ele>
        <time>2026-05-09T15:59:21.836Z</time>
      </trkpt>
      <trkpt lat="47.91722" lon="6.95484">
        <ele>656</ele>
        <time>2026-05-09T15:59:22.836Z</time>
      </trkpt>
      <trkpt lat="47.91721" lon="6.95485">
        <ele>656</ele>
        <time>2026-05-09T15:59:23.836Z</time>
      </trkpt>
      <trkpt lat="47.91721" lon="6.95486">
        <ele>656</ele>
        <time>2026-05-09T15:59:24.836Z</time>
      </trkpt>
      <trkpt lat="47.9172" lon="6.95486">
        <ele>657</ele>
        <time>2026-05-09T15:59:25.836Z</time>
      </trkpt>
      <trkpt lat="47.91719" lon="6.95487">
        <ele>657</ele>
        <time>2026-05-09T15:59:26.837Z</time>
      </trkpt>
      <trkpt lat="47.91718" lon="6.95488">
        <ele>657</ele>
        <time>2026-05-09T15:59:27.837Z</time>
      </trkpt>
      <trkpt lat="47.91718" lon="6.95488">
        <ele>657</ele>
        <time>2026-05-09T15:59:28.836Z</time>
      </trkpt>
      <trkpt lat="47.91718" lon="6.95488">
        <ele>658</ele>
        <time>2026-05-09T15:59:29.836Z</time>
      </trkpt>
      <trkpt lat="47.91717" lon="6.95489">
        <ele>658</ele>
        <time>2026-05-09T15:59:30.837Z</time>
      </trkpt>
      <trkpt lat="47.91717" lon="6.95489">
        <ele>658</ele>
        <time>2026-05-09T15:59:31.836Z</time>
      </trkpt>
      <trkpt lat="47.91716" lon="6.9549">
        <ele>658</ele>
        <time>2026-05-09T15:59:32.836Z</time>
      </trkpt>
      <trkpt lat="47.91716" lon="6.95491">
        <ele>658</ele>
        <time>2026-05-09T15:59:33.836Z</time>
      </trkpt>
      <trkpt lat="47.91716" lon="6.95491">
        <ele>658</ele>
        <time>2026-05-09T15:59:34.836Z</time>
      </trkpt>
      <trkpt lat="47.91716" lon="6.95492">
        <ele>658</ele>
        <time>2026-05-09T15:59:35.837Z</time>
      </trkpt>
      <trkpt lat="47.91717" lon="6.95493">
        <ele>659</ele>
        <time>2026-05-09T15:59:36.837Z</time>
      </trkpt>
      <trkpt lat="47.91717" lon="6.95494">
        <ele>659</ele>
        <time>2026-05-09T15:59:37.837Z</time>
      </trkpt>
      <trkpt lat="47.91718" lon="6.95494">
        <ele>659</ele>
        <time>2026-05-09T15:59:38.837Z</time>
      </trkpt>
      <trkpt lat="47.91719" lon="6.95495">
        <ele>660</ele>
        <time>2026-05-09T15:59:39.836Z</time>
      </trkpt>
      <trkpt lat="47.91719" lon="6.95496">
        <ele>660</ele>
        <time>2026-05-09T15:59:40.836Z</time>
      </trkpt>
      <trkpt lat="47.9172" lon="6.95496">
        <ele>660</ele>
        <time>2026-05-09T15:59:41.837Z</time>
      </trkpt>
      <trkpt lat="47.9172" lon="6.95498">
        <ele>660</ele>
        <time>2026-05-09T15:59:42.836Z</time>
      </trkpt>
      <trkpt lat="47.9172" lon="6.95499">
        <ele>660</ele>
        <time>2026-05-09T15:59:43.836Z</time>
      </trkpt>
      <trkpt lat="47.91721" lon="6.955">
        <ele>661</ele>
        <time>2026-05-09T15:59:44.837Z</time>
      </trkpt>
      <trkpt lat="47.91722" lon="6.95501">
        <ele>661</ele>
        <time>2026-05-09T15:59:45.836Z</time>
      </trkpt>
      <trkpt lat="47.91722" lon="6.95502">
        <ele>662</ele>
        <time>2026-05-09T15:59:46.836Z</time>
      </trkpt>
      <trkpt lat="47.91723" lon="6.95502">
        <ele>662</ele>
        <time>2026-05-09T15:59:47.836Z</time>
      </trkpt>
      <trkpt lat="47.91723" lon="6.95502">
        <ele>662</ele>
        <time>2026-05-09T15:59:48.836Z</time>
      </trkpt>
      <trkpt lat="47.91723" lon="6.95503">
        <ele>663</ele>
        <time>2026-05-09T15:59:49.836Z</time>
      </trkpt>
      <trkpt lat="47.91723" lon="6.95503">
        <ele>663</ele>
        <time>2026-05-09T15:59:50.836Z</time>
      </trkpt>
      <trkpt lat="47.91724" lon="6.95503">
        <ele>663</ele>
        <time>2026-05-09T15:59:51.836Z</time>
      </trkpt>
      <trkpt lat="47.91725" lon="6.95505">
        <ele>663</ele>
        <time>2026-05-09T15:59:52.836Z</time>
      </trkpt>
      <trkpt lat="47.91725" lon="6.95506">
        <ele>663</ele>
        <time>2026-05-09T15:59:53.837Z</time>
      </trkpt>
      <trkpt lat="47.91725" lon="6.95506">
        <ele>663</ele>
        <time>2026-05-09T15:59:54.836Z</time>
      </trkpt>
      <trkpt lat="47.91726" lon="6.95507">
        <ele>663</ele>
        <time>2026-05-09T15:59:55.836Z</time>
      </trkpt>
      <trkpt lat="47.91728" lon="6.95507">
        <ele>663</ele>
        <time>2026-05-09T15:59:56.837Z</time>
      </trkpt>
      <trkpt lat="47.91728" lon="6.95506">
        <ele>663</ele>
        <time>2026-05-09T15:59:57.836Z</time>
      </trkpt>
      <trkpt lat="47.91729" lon="6.95507">
        <ele>663</ele>
        <time>2026-05-09T15:59:58.836Z</time>
      </trkpt>
      <trkpt lat="47.9173" lon="6.95507">
        <ele>663</ele>
        <time>2026-05-09T15:59:59.837Z</time>
      </trkpt>
      <trkpt lat="47.9173" lon="6.95507">
        <ele>663</ele>
        <time>2026-05-09T16:00:00.837Z</time>
      </trkpt>
      <trkpt lat="47.91731" lon="6.95508">
        <ele>663</ele>
        <time>2026-05-09T16:00:01.836Z</time>
      </trkpt>
      <trkpt lat="47.91731" lon="6.95509">
        <ele>663</ele>
        <time>2026-05-09T16:00:02.836Z</time>
      </trkpt>
      <trkpt lat="47.91731" lon="6.9551">
        <ele>663</ele>
        <time>2026-05-09T16:00:03.836Z</time>
      </trkpt>
      <trkpt lat="47.91732" lon="6.95511">
        <ele>662</ele>
        <time>2026-05-09T16:00:04.836Z</time>
      </trkpt>
      <trkpt lat="47.91732" lon="6.95511">
        <ele>662</ele>
        <time>2026-05-09T16:00:05.836Z</time>
      </trkpt>
      <trkpt lat="47.91732" lon="6.95512">
        <ele>662</ele>
        <time>2026-05-09T16:00:06.837Z</time>
      </trkpt>
      <trkpt lat="47.91732" lon="6.95513">
        <ele>662</ele>
        <time>2026-05-09T16:00:07.837Z</time>
      </trkpt>
      <trkpt lat="47.91733" lon="6.95514">
        <ele>663</ele>
        <time>2026-05-09T16:00:08.837Z</time>
      </trkpt>
      <trkpt lat="47.91733" lon="6.95515">
        <ele>664</ele>
        <time>2026-05-09T16:00:09.837Z</time>
      </trkpt>
      <trkpt lat="47.91734" lon="6.95515">
        <ele>664</ele>
        <time>2026-05-09T16:00:10.836Z</time>
      </trkpt>
      <trkpt lat="47.91734" lon="6.95516">
        <ele>665</ele>
        <time>2026-05-09T16:00:11.836Z</time>
      </trkpt>
      <trkpt lat="47.91733" lon="6.95516">
        <ele>666</ele>
        <time>2026-05-09T16:00:12.837Z</time>
      </trkpt>
      <trkpt lat="47.91733" lon="6.95517">
        <ele>666</ele>
        <time>2026-05-09T16:00:13.836Z</time>
      </trkpt>
      <trkpt lat="47.91732" lon="6.95517">
        <ele>666</ele>
        <time>2026-05-09T16:00:14.837Z</time>
      </trkpt>
      <trkpt lat="47.91731" lon="6.95518">
        <ele>667</ele>
        <time>2026-05-09T16:00:15.837Z</time>
      </trkpt>
      <trkpt lat="47.9173" lon="6.95518">
        <ele>667</ele>
        <time>2026-05-09T16:00:16.836Z</time>
      </trkpt>
      <trkpt lat="47.91729" lon="6.95519">
        <ele>668</ele>
        <time>2026-05-09T16:00:17.836Z</time>
      </trkpt>
      <trkpt lat="47.91728" lon="6.9552">
        <ele>668</ele>
        <time>2026-05-09T16:00:18.837Z</time>
      </trkpt>
      <trkpt lat="47.91727" lon="6.95521">
        <ele>669</ele>
        <time>2026-05-09T16:00:19.837Z</time>
      </trkpt>
      <trkpt lat="47.91726" lon="6.95521">
        <ele>669</ele>
        <time>2026-05-09T16:00:20.836Z</time>
      </trkpt>
      <trkpt lat="47.91725" lon="6.95522">
        <ele>670</ele>
        <time>2026-05-09T16:00:21.836Z</time>
      </trkpt>
      <trkpt lat="47.91724" lon="6.95522">
        <ele>670</ele>
        <time>2026-05-09T16:00:22.836Z</time>
      </trkpt>
      <trkpt lat="47.91723" lon="6.95523">
        <ele>670</ele>
        <time>2026-05-09T16:00:23.837Z</time>
      </trkpt>
      <trkpt lat="47.91723" lon="6.95524">
        <ele>671</ele>
        <time>2026-05-09T16:00:24.837Z</time>
      </trkpt>
      <trkpt lat="47.91722" lon="6.95525">
        <ele>671</ele>
        <time>2026-05-09T16:00:25.836Z</time>
      </trkpt>
      <trkpt lat="47.91721" lon="6.95526">
        <ele>671</ele>
        <time>2026-05-09T16:00:26.836Z</time>
      </trkpt>
      <trkpt lat="47.9172" lon="6.95527">
        <ele>671</ele>
        <time>2026-05-09T16:00:27.837Z</time>
      </trkpt>
      <trkpt lat="47.91719" lon="6.95529">
        <ele>671</ele>
        <time>2026-05-09T16:00:28.836Z</time>
      </trkpt>
      <trkpt lat="47.91718" lon="6.95531">
        <ele>671</ele>
        <time>2026-05-09T16:00:29.836Z</time>
      </trkpt>
      <trkpt lat="47.91717" lon="6.95533">
        <ele>672</ele>
        <time>2026-05-09T16:00:30.836Z</time>
      </trkpt>
      <trkpt lat="47.91716" lon="6.95535">
        <ele>672</ele>
        <time>2026-05-09T16:00:31.836Z</time>
      </trkpt>
      <trkpt lat="47.91715" lon="6.95535">
        <ele>672</ele>
        <time>2026-05-09T16:00:32.836Z</time>
      </trkpt>
      <trkpt lat="47.91715" lon="6.95535">
        <ele>673</ele>
        <time>2026-05-09T16:00:33.836Z</time>
      </trkpt>
      <trkpt lat="47.91714" lon="6.95536">
        <ele>673</ele>
        <time>2026-05-09T16:00:34.836Z</time>
      </trkpt>
      <trkpt lat="47.91713" lon="6.95536">
        <ele>673</ele>
        <time>2026-05-09T16:00:35.836Z</time>
      </trkpt>
      <trkpt lat="47.91713" lon="6.95536">
        <ele>673</ele>
        <time>2026-05-09T16:00:36.836Z</time>
      </trkpt>
      <trkpt lat="47.91713" lon="6.95536">
        <ele>674</ele>
        <time>2026-05-09T16:00:37.836Z</time>
      </trkpt>
      <trkpt lat="47.91712" lon="6.95536">
        <ele>674</ele>
        <time>2026-05-09T16:00:38.836Z</time>
      </trkpt>
      <trkpt lat="47.91712" lon="6.95537">
        <ele>674</ele>
        <time>2026-05-09T16:00:39.836Z</time>
      </trkpt>
      <trkpt lat="47.9171" lon="6.95538">
        <ele>674</ele>
        <time>2026-05-09T16:00:40.836Z</time>
      </trkpt>
      <trkpt lat="47.9171" lon="6.95537">
        <ele>674</ele>
        <time>2026-05-09T16:00:41.836Z</time>
      </trkpt>
      <trkpt lat="47.91708" lon="6.95537">
        <ele>673</ele>
        <time>2026-05-09T16:00:42.836Z</time>
      </trkpt>
      <trkpt lat="47.91707" lon="6.95537">
        <ele>673</ele>
        <time>2026-05-09T16:00:43.836Z</time>
      </trkpt>
      <trkpt lat="47.91706" lon="6.95536">
        <ele>673</ele>
        <time>2026-05-09T16:00:44.836Z</time>
      </trkpt>
      <trkpt lat="47.91705" lon="6.95536">
        <ele>673</ele>
        <time>2026-05-09T16:00:45.836Z</time>
      </trkpt>
      <trkpt lat="47.91704" lon="6.95535">
        <ele>673</ele>
        <time>2026-05-09T16:00:46.836Z</time>
      </trkpt>
      <trkpt lat="47.91702" lon="6.95534">
        <ele>673</ele>
        <time>2026-05-09T16:00:47.836Z</time>
      </trkpt>
      <trkpt lat="47.91701" lon="6.95532">
        <ele>672</ele>
        <time>2026-05-09T16:00:48.836Z</time>
      </trkpt>
      <trkpt lat="47.91699" lon="6.95531">
        <ele>672</ele>
        <time>2026-05-09T16:00:49.836Z</time>
      </trkpt>
      <trkpt lat="47.91699" lon="6.95531">
        <ele>672</ele>
        <time>2026-05-09T16:00:50.836Z</time>
      </trkpt>
      <trkpt lat="47.91698" lon="6.9553">
        <ele>672</ele>
        <time>2026-05-09T16:00:51.836Z</time>
      </trkpt>
      <trkpt lat="47.91696" lon="6.9553">
        <ele>672</ele>
        <time>2026-05-09T16:00:52.836Z</time>
      </trkpt>
      <trkpt lat="47.91695" lon="6.95529">
        <ele>671</ele>
        <time>2026-05-09T16:00:53.836Z</time>
      </trkpt>
      <trkpt lat="47.91694" lon="6.95528">
        <ele>671</ele>
        <time>2026-05-09T16:00:54.836Z</time>
      </trkpt>
      <trkpt lat="47.91693" lon="6.95528">
        <ele>670</ele>
        <time>2026-05-09T16:00:55.836Z</time>
      </trkpt>
      <trkpt lat="47.91692" lon="6.95527">
        <ele>669</ele>
        <time>2026-05-09T16:00:56.836Z</time>
      </trkpt>
      <trkpt lat="47.91692" lon="6.95527">
        <ele>669</ele>
        <time>2026-05-09T16:00:57.836Z</time>
      </trkpt>
      <trkpt lat="47.91691" lon="6.95526">
        <ele>668</ele>
        <time>2026-05-09T16:00:58.837Z</time>
      </trkpt>
      <trkpt lat="47.91691" lon="6.95525">
        <ele>667</ele>
        <time>2026-05-09T16:00:59.837Z</time>
      </trkpt>
      <trkpt lat="47.9169" lon="6.95524">
        <ele>667</ele>
        <time>2026-05-09T16:01:00.836Z</time>
      </trkpt>
      <trkpt lat="47.91688" lon="6.95523">
        <ele>666</ele>
        <time>2026-05-09T16:01:01.836Z</time>
      </trkpt>
      <trkpt lat="47.91687" lon="6.95523">
        <ele>666</ele>
        <time>2026-05-09T16:01:02.836Z</time>
      </trkpt>
      <trkpt lat="47.91686" lon="6.95522">
        <ele>665</ele>
        <time>2026-05-09T16:01:03.837Z</time>
      </trkpt>
      <trkpt lat="47.91686" lon="6.95522">
        <ele>665</ele>
        <time>2026-05-09T16:01:04.836Z</time>
      </trkpt>
      <trkpt lat="47.91686" lon="6.95521">
        <ele>665</ele>
        <time>2026-05-09T16:01:05.837Z</time>
      </trkpt>
      <trkpt lat="47.91686" lon="6.95521">
        <ele>665</ele>
        <time>2026-05-09T16:01:06.836Z</time>
      </trkpt>
      <trkpt lat="47.91686" lon="6.95522">
        <ele>665</ele>
        <time>2026-05-09T16:01:07.837Z</time>
      </trkpt>
      <trkpt lat="47.91685" lon="6.95522">
        <ele>665</ele>
        <time>2026-05-09T16:01:08.836Z</time>
      </trkpt>
      <trkpt lat="47.91685" lon="6.95523">
        <ele>665</ele>
        <time>2026-05-09T16:01:09.836Z</time>
      </trkpt>
      <trkpt lat="47.91685" lon="6.95523">
        <ele>665</ele>
        <time>2026-05-09T16:01:10.836Z</time>
      </trkpt>
      <trkpt lat="47.91686" lon="6.95523">
        <ele>666</ele>
        <time>2026-05-09T16:01:11.836Z</time>
      </trkpt>
      <trkpt lat="47.91687" lon="6.95523">
        <ele>666</ele>
        <time>2026-05-09T16:01:12.836Z</time>
      </trkpt>
      <trkpt lat="47.91687" lon="6.95524">
        <ele>666</ele>
        <time>2026-05-09T16:01:13.836Z</time>
      </trkpt>
      <trkpt lat="47.91688" lon="6.95525">
        <ele>667</ele>
        <time>2026-05-09T16:01:14.836Z</time>
      </trkpt>
      <trkpt lat="47.91688" lon="6.95526">
        <ele>667</ele>
        <time>2026-05-09T16:01:15.836Z</time>
      </trkpt>
      <trkpt lat="47.91689" lon="6.95527">
        <ele>668</ele>
        <time>2026-05-09T16:01:16.836Z</time>
      </trkpt>
      <trkpt lat="47.91689" lon="6.95528">
        <ele>669</ele>
        <time>2026-05-09T16:01:17.836Z</time>
      </trkpt>
      <trkpt lat="47.91689" lon="6.9553">
        <ele>669</ele>
        <time>2026-05-09T16:01:18.836Z</time>
      </trkpt>
      <trkpt lat="47.91689" lon="6.9553">
        <ele>670</ele>
        <time>2026-05-09T16:01:19.836Z</time>
      </trkpt>
      <trkpt lat="47.9169" lon="6.95531">
        <ele>671</ele>
        <time>2026-05-09T16:01:20.836Z</time>
      </trkpt>
      <trkpt lat="47.9169" lon="6.95531">
        <ele>672</ele>
        <time>2026-05-09T16:01:21.836Z</time>
      </trkpt>
      <trkpt lat="47.91691" lon="6.95532">
        <ele>672</ele>
        <time>2026-05-09T16:01:22.836Z</time>
      </trkpt>
      <trkpt lat="47.91691" lon="6.95532">
        <ele>673</ele>
        <time>2026-05-09T16:01:23.836Z</time>
      </trkpt>
      <trkpt lat="47.91692" lon="6.95532">
        <ele>674</ele>
        <time>2026-05-09T16:01:24.836Z</time>
      </trkpt>
      <trkpt lat="47.91693" lon="6.95532">
        <ele>675</ele>
        <time>2026-05-09T16:01:25.836Z</time>
      </trkpt>
      <trkpt lat="47.91693" lon="6.95533">
        <ele>675</ele>
        <time>2026-05-09T16:01:26.836Z</time>
      </trkpt>
      <trkpt lat="47.91693" lon="6.95533">
        <ele>676</ele>
        <time>2026-05-09T16:01:27.836Z</time>
      </trkpt>
      <trkpt lat="47.91692" lon="6.95534">
        <ele>676</ele>
        <time>2026-05-09T16:01:28.836Z</time>
      </trkpt>
      <trkpt lat="47.91692" lon="6.95534">
        <ele>676</ele>
        <time>2026-05-09T16:01:29.836Z</time>
      </trkpt>
      <trkpt lat="47.91692" lon="6.95534">
        <ele>677</ele>
        <time>2026-05-09T16:01:30.836Z</time>
      </trkpt>
      <trkpt lat="47.91692" lon="6.95536">
        <ele>677</ele>
        <time>2026-05-09T16:01:31.836Z</time>
      </trkpt>
      <trkpt lat="47.91692" lon="6.95536">
        <ele>677</ele>
        <time>2026-05-09T16:01:32.836Z</time>
      </trkpt>
      <trkpt lat="47.91692" lon="6.95537">
        <ele>677</ele>
        <time>2026-05-09T16:01:33.837Z</time>
      </trkpt>
      <trkpt lat="47.91692" lon="6.95537">
        <ele>677</ele>
        <time>2026-05-09T16:01:34.836Z</time>
      </trkpt>
      <trkpt lat="47.91692" lon="6.95538">
        <ele>677</ele>
        <time>2026-05-09T16:01:35.836Z</time>
      </trkpt>
      <trkpt lat="47.91692" lon="6.95538">
        <ele>677</ele>
        <time>2026-05-09T16:01:36.837Z</time>
      </trkpt>
      <trkpt lat="47.91692" lon="6.95539">
        <ele>678</ele>
        <time>2026-05-09T16:01:37.837Z</time>
      </trkpt>
      <trkpt lat="47.91693" lon="6.95539">
        <ele>677</ele>
        <time>2026-05-09T16:01:38.836Z</time>
      </trkpt>
      <trkpt lat="47.91693" lon="6.9554">
        <ele>677</ele>
        <time>2026-05-09T16:01:39.837Z</time>
      </trkpt>
      <trkpt lat="47.91693" lon="6.9554">
        <ele>677</ele>
        <time>2026-05-09T16:01:40.836Z</time>
      </trkpt>
      <trkpt lat="47.91693" lon="6.95541">
        <ele>677</ele>
        <time>2026-05-09T16:01:41.836Z</time>
      </trkpt>
      <trkpt lat="47.91694" lon="6.95542">
        <ele>677</ele>
        <time>2026-05-09T16:01:42.837Z</time>
      </trkpt>
      <trkpt lat="47.91695" lon="6.95542">
        <ele>677</ele>
        <time>2026-05-09T16:01:43.836Z</time>
      </trkpt>
      <trkpt lat="47.91696" lon="6.95543">
        <ele>678</ele>
        <time>2026-05-09T16:01:44.836Z</time>
      </trkpt>
      <trkpt lat="47.91696" lon="6.95543">
        <ele>678</ele>
        <time>2026-05-09T16:01:45.837Z</time>
      </trkpt>
      <trkpt lat="47.91696" lon="6.95544">
        <ele>678</ele>
        <time>2026-05-09T16:01:46.837Z</time>
      </trkpt>
      <trkpt lat="47.91696" lon="6.95544">
        <ele>678</ele>
        <time>2026-05-09T16:01:47.837Z</time>
      </trkpt>
      <trkpt lat="47.91696" lon="6.95544">
        <ele>679</ele>
        <time>2026-05-09T16:01:48.836Z</time>
      </trkpt>
      <trkpt lat="47.91696" lon="6.95545">
        <ele>679</ele>
        <time>2026-05-09T16:01:49.836Z</time>
      </trkpt>
      <trkpt lat="47.91696" lon="6.95547">
        <ele>680</ele>
        <time>2026-05-09T16:01:50.837Z</time>
      </trkpt>
      <trkpt lat="47.91697" lon="6.95548">
        <ele>680</ele>
        <time>2026-05-09T16:01:51.836Z</time>
      </trkpt>
      <trkpt lat="47.91697" lon="6.95549">
        <ele>680</ele>
        <time>2026-05-09T16:01:52.837Z</time>
      </trkpt>
      <trkpt lat="47.91696" lon="6.95549">
        <ele>680</ele>
        <time>2026-05-09T16:01:53.837Z</time>
      </trkpt>
      <trkpt lat="47.91696" lon="6.9555">
        <ele>680</ele>
        <time>2026-05-09T16:01:54.836Z</time>
      </trkpt>
      <trkpt lat="47.91696" lon="6.95552">
        <ele>680</ele>
        <time>2026-05-09T16:01:55.836Z</time>
      </trkpt>
      <trkpt lat="47.91696" lon="6.95553">
        <ele>681</ele>
        <time>2026-05-09T16:01:56.837Z</time>
      </trkpt>
      <trkpt lat="47.91696" lon="6.95553">
        <ele>681</ele>
        <time>2026-05-09T16:01:57.836Z</time>
      </trkpt>
      <trkpt lat="47.91696" lon="6.95554">
        <ele>681</ele>
        <time>2026-05-09T16:01:58.836Z</time>
      </trkpt>
      <trkpt lat="47.91696" lon="6.95555">
        <ele>681</ele>
        <time>2026-05-09T16:01:59.836Z</time>
      </trkpt>
      <trkpt lat="47.91696" lon="6.95557">
        <ele>681</ele>
        <time>2026-05-09T16:02:00.836Z</time>
      </trkpt>
      <trkpt lat="47.91696" lon="6.95559">
        <ele>681</ele>
        <time>2026-05-09T16:02:01.837Z</time>
      </trkpt>
      <trkpt lat="47.91695" lon="6.95559">
        <ele>681</ele>
        <time>2026-05-09T16:02:02.836Z</time>
      </trkpt>
      <trkpt lat="47.91695" lon="6.9556">
        <ele>681</ele>
        <time>2026-05-09T16:02:03.836Z</time>
      </trkpt>
      <trkpt lat="47.91695" lon="6.9556">
        <ele>681</ele>
        <time>2026-05-09T16:02:04.836Z</time>
      </trkpt>
      <trkpt lat="47.91696" lon="6.9556">
        <ele>678</ele>
        <time>2026-05-09T16:02:18.201Z</time>
      </trkpt>
      <trkpt lat="47.91696" lon="6.9556">
        <ele>678</ele>
        <time>2026-05-09T16:02:19.200Z</time>
      </trkpt>
      <trkpt lat="47.91696" lon="6.9556">
        <ele>678</ele>
        <time>2026-05-09T16:02:20.201Z</time>
      </trkpt>
      <trkpt lat="47.91696" lon="6.9556">
        <ele>678</ele>
        <time>2026-05-09T16:02:21.200Z</time>
      </trkpt>
      <trkpt lat="47.91695" lon="6.95562">
        <ele>678</ele>
        <time>2026-05-09T16:02:22.201Z</time>
      </trkpt>
      <trkpt lat="47.91695" lon="6.95562">
        <ele>679</ele>
        <time>2026-05-09T16:02:23.201Z</time>
      </trkpt>
      <trkpt lat="47.91695" lon="6.95562">
        <ele>679</ele>
        <time>2026-05-09T16:02:24.200Z</time>
      </trkpt>
      <trkpt lat="47.91695" lon="6.95562">
        <ele>679</ele>
        <time>2026-05-09T16:02:25.201Z</time>
      </trkpt>
      <trkpt lat="47.91695" lon="6.95562">
        <ele>679</ele>
        <time>2026-05-09T16:02:26.200Z</time>
      </trkpt>
      <trkpt lat="47.91695" lon="6.95562">
        <ele>679</ele>
        <time>2026-05-09T16:02:27.201Z</time>
      </trkpt>
      <trkpt lat="47.91695" lon="6.95562">
        <ele>678</ele>
        <time>2026-05-09T16:02:28.200Z</time>
      </trkpt>
      <trkpt lat="47.91695" lon="6.95562">
        <ele>679</ele>
        <time>2026-05-09T16:02:29.201Z</time>
      </trkpt>
      <trkpt lat="47.91695" lon="6.95562">
        <ele>679</ele>
        <time>2026-05-09T16:02:30.200Z</time>
      </trkpt>
      <trkpt lat="47.91695" lon="6.95562">
        <ele>679</ele>
        <time>2026-05-09T16:02:31.201Z</time>
      </trkpt>
      <trkpt lat="47.91695" lon="6.95562">
        <ele>679</ele>
        <time>2026-05-09T16:02:32.200Z</time>
      </trkpt>
      <trkpt lat="47.91695" lon="6.95561">
        <ele>679</ele>
        <time>2026-05-09T16:02:33.201Z</time>
      </trkpt>
      <trkpt lat="47.91695" lon="6.95562">
        <ele>680</ele>
        <time>2026-05-09T16:02:34.201Z</time>
      </trkpt>
      <trkpt lat="47.91695" lon="6.95562">
        <ele>680</ele>
        <time>2026-05-09T16:02:35.200Z</time>
      </trkpt>
      <trkpt lat="47.91695" lon="6.95562">
        <ele>680</ele>
        <time>2026-05-09T16:02:36.201Z</time>
      </trkpt>
      <trkpt lat="47.91695" lon="6.95562">
        <ele>680</ele>
        <time>2026-05-09T16:02:37.200Z</time>
      </trkpt>
      <trkpt lat="47.91695" lon="6.95562">
        <ele>680</ele>
        <time>2026-05-09T16:02:38.201Z</time>
      </trkpt>
      <trkpt lat="47.91695" lon="6.95561">
        <ele>680</ele>
        <time>2026-05-09T16:02:39.201Z</time>
      </trkpt>
      <trkpt lat="47.91695" lon="6.95561">
        <ele>680</ele>
        <time>2026-05-09T16:02:40.201Z</time>
      </trkpt>
      <trkpt lat="47.91695" lon="6.95561">
        <ele>680</ele>
        <time>2026-05-09T16:02:41.200Z</time>
      </trkpt>
      <trkpt lat="47.91695" lon="6.95561">
        <ele>680</ele>
        <time>2026-05-09T16:02:42.200Z</time>
      </trkpt>
      <trkpt lat="47.91695" lon="6.95561">
        <ele>680</ele>
        <time>2026-05-09T16:02:43.200Z</time>
      </trkpt>
      <trkpt lat="47.91695" lon="6.95561">
        <ele>681</ele>
        <time>2026-05-09T16:02:44.201Z</time>
      </trkpt>
      <trkpt lat="47.91695" lon="6.95561">
        <ele>681</ele>
        <time>2026-05-09T16:02:45.200Z</time>
      </trkpt>
      <trkpt lat="47.91695" lon="6.95561">
        <ele>680</ele>
        <time>2026-05-09T16:02:46.201Z</time>
      </trkpt>
      <trkpt lat="47.91695" lon="6.95561">
        <ele>680</ele>
        <time>2026-05-09T16:02:47.200Z</time>
      </trkpt>
      <trkpt lat="47.91695" lon="6.95561">
        <ele>680</ele>
        <time>2026-05-09T16:02:48.201Z</time>
      </trkpt>
      <trkpt lat="47.91695" lon="6.95561">
        <ele>680</ele>
        <time>2026-05-09T16:02:49.200Z</time>
      </trkpt>
      <trkpt lat="47.91695" lon="6.95561">
        <ele>680</ele>
        <time>2026-05-09T16:02:50.200Z</time>
      </trkpt>
      <trkpt lat="47.91695" lon="6.95561">
        <ele>680</ele>
        <time>2026-05-09T16:02:51.200Z</time>
      </trkpt>
      <trkpt lat="47.91695" lon="6.95561">
        <ele>680</ele>
        <time>2026-05-09T16:02:52.201Z</time>
      </trkpt>
      <trkpt lat="47.91695" lon="6.95561">
        <ele>681</ele>
        <time>2026-05-09T16:02:53.201Z</time>
      </trkpt>
      <trkpt lat="47.91696" lon="6.95561">
        <ele>682</ele>
        <time>2026-05-09T16:02:54.201Z</time>
      </trkpt>
      <trkpt lat="47.91696" lon="6.95561">
        <ele>682</ele>
        <time>2026-05-09T16:02:55.201Z</time>
      </trkpt>
      <trkpt lat="47.91695" lon="6.95563">
        <ele>683</ele>
        <time>2026-05-09T16:02:56.200Z</time>
      </trkpt>
      <trkpt lat="47.91695" lon="6.95563">
        <ele>683</ele>
        <time>2026-05-09T16:02:57.201Z</time>
      </trkpt>
      <trkpt lat="47.91694" lon="6.95565">
        <ele>684</ele>
        <time>2026-05-09T16:02:58.200Z</time>
      </trkpt>
      <trkpt lat="47.91693" lon="6.95566">
        <ele>684</ele>
        <time>2026-05-09T16:02:59.201Z</time>
      </trkpt>
      <trkpt lat="47.91693" lon="6.95569">
        <ele>685</ele>
        <time>2026-05-09T16:03:00.200Z</time>
      </trkpt>
      <trkpt lat="47.91692" lon="6.9557">
        <ele>685</ele>
        <time>2026-05-09T16:03:01.200Z</time>
      </trkpt>
      <trkpt lat="47.91692" lon="6.9557">
        <ele>685</ele>
        <time>2026-05-09T16:03:02.201Z</time>
      </trkpt>
      <trkpt lat="47.91691" lon="6.95571">
        <ele>685</ele>
        <time>2026-05-09T16:03:03.201Z</time>
      </trkpt>
      <trkpt lat="47.9169" lon="6.95572">
        <ele>686</ele>
        <time>2026-05-09T16:03:04.201Z</time>
      </trkpt>
      <trkpt lat="47.91689" lon="6.95573">
        <ele>686</ele>
        <time>2026-05-09T16:03:05.201Z</time>
      </trkpt>
      <trkpt lat="47.91688" lon="6.95573">
        <ele>686</ele>
        <time>2026-05-09T16:03:06.200Z</time>
      </trkpt>
      <trkpt lat="47.91688" lon="6.95574">
        <ele>686</ele>
        <time>2026-05-09T16:03:07.201Z</time>
      </trkpt>
      <trkpt lat="47.91687" lon="6.95574">
        <ele>686</ele>
        <time>2026-05-09T16:03:08.200Z</time>
      </trkpt>
      <trkpt lat="47.91687" lon="6.95574">
        <ele>686</ele>
        <time>2026-05-09T16:03:09.201Z</time>
      </trkpt>
      <trkpt lat="47.91686" lon="6.95573">
        <ele>685</ele>
        <time>2026-05-09T16:03:10.200Z</time>
      </trkpt>
      <trkpt lat="47.91686" lon="6.95574">
        <ele>685</ele>
        <time>2026-05-09T16:03:11.200Z</time>
      </trkpt>
      <trkpt lat="47.91686" lon="6.95574">
        <ele>685</ele>
        <time>2026-05-09T16:03:12.201Z</time>
      </trkpt>
      <trkpt lat="47.91685" lon="6.95573">
        <ele>685</ele>
        <time>2026-05-09T16:03:13.201Z</time>
      </trkpt>
      <trkpt lat="47.91685" lon="6.95573">
        <ele>685</ele>
        <time>2026-05-09T16:03:14.201Z</time>
      </trkpt>
      <trkpt lat="47.91685" lon="6.95578">
        <ele>685</ele>
        <time>2026-05-09T16:03:21.524Z</time>
      </trkpt>
      <trkpt lat="47.91685" lon="6.95578">
        <ele>685</ele>
        <time>2026-05-09T16:03:22.524Z</time>
      </trkpt>
      <trkpt lat="47.91684" lon="6.95579">
        <ele>684</ele>
        <time>2026-05-09T16:03:23.523Z</time>
      </trkpt>
      <trkpt lat="47.91684" lon="6.9558">
        <ele>684</ele>
        <time>2026-05-09T16:03:24.524Z</time>
      </trkpt>
      <trkpt lat="47.91683" lon="6.9558">
        <ele>684</ele>
        <time>2026-05-09T16:03:25.524Z</time>
      </trkpt>
      <trkpt lat="47.91684" lon="6.95583">
        <ele>684</ele>
        <time>2026-05-09T16:03:26.523Z</time>
      </trkpt>
      <trkpt lat="47.91684" lon="6.95584">
        <ele>684</ele>
        <time>2026-05-09T16:03:27.523Z</time>
      </trkpt>
      <trkpt lat="47.91684" lon="6.95586">
        <ele>684</ele>
        <time>2026-05-09T16:03:28.524Z</time>
      </trkpt>
      <trkpt lat="47.91683" lon="6.95587">
        <ele>685</ele>
        <time>2026-05-09T16:03:29.523Z</time>
      </trkpt>
      <trkpt lat="47.91683" lon="6.95587">
        <ele>685</ele>
        <time>2026-05-09T16:03:30.524Z</time>
      </trkpt>
      <trkpt lat="47.91682" lon="6.95587">
        <ele>685</ele>
        <time>2026-05-09T16:03:31.524Z</time>
      </trkpt>
      <trkpt lat="47.91682" lon="6.95587">
        <ele>686</ele>
        <time>2026-05-09T16:03:32.523Z</time>
      </trkpt>
      <trkpt lat="47.91681" lon="6.9559">
        <ele>686</ele>
        <time>2026-05-09T16:03:39.013Z</time>
      </trkpt>
      <trkpt lat="47.9168" lon="6.9559">
        <ele>686</ele>
        <time>2026-05-09T16:03:40.013Z</time>
      </trkpt>
      <trkpt lat="47.9168" lon="6.9559">
        <ele>686</ele>
        <time>2026-05-09T16:03:41.014Z</time>
      </trkpt>
      <trkpt lat="47.91679" lon="6.95592">
        <ele>686</ele>
        <time>2026-05-09T16:03:42.014Z</time>
      </trkpt>
      <trkpt lat="47.91679" lon="6.95592">
        <ele>686</ele>
        <time>2026-05-09T16:03:43.013Z</time>
      </trkpt>
      <trkpt lat="47.91679" lon="6.95593">
        <ele>685</ele>
        <time>2026-05-09T16:03:44.014Z</time>
      </trkpt>
      <trkpt lat="47.91678" lon="6.95594">
        <ele>686</ele>
        <time>2026-05-09T16:03:45.014Z</time>
      </trkpt>
      <trkpt lat="47.91678" lon="6.95595">
        <ele>686</ele>
        <time>2026-05-09T16:03:46.013Z</time>
      </trkpt>
      <trkpt lat="47.91678" lon="6.95595">
        <ele>686</ele>
        <time>2026-05-09T16:03:47.013Z</time>
      </trkpt>
      <trkpt lat="47.91678" lon="6.95595">
        <ele>686</ele>
        <time>2026-05-09T16:03:48.014Z</time>
      </trkpt>
      <trkpt lat="47.91678" lon="6.95596">
        <ele>687</ele>
        <time>2026-05-09T16:03:49.013Z</time>
      </trkpt>
      <trkpt lat="47.91677" lon="6.95597">
        <ele>687</ele>
        <time>2026-05-09T16:03:50.013Z</time>
      </trkpt>
      <trkpt lat="47.91677" lon="6.95598">
        <ele>687</ele>
        <time>2026-05-09T16:03:51.014Z</time>
      </trkpt>
      <trkpt lat="47.91677" lon="6.95599">
        <ele>688</ele>
        <time>2026-05-09T16:03:52.013Z</time>
      </trkpt>
      <trkpt lat="47.91676" lon="6.95601">
        <ele>688</ele>
        <time>2026-05-09T16:03:53.013Z</time>
      </trkpt>
      <trkpt lat="47.91675" lon="6.95602">
        <ele>688</ele>
        <time>2026-05-09T16:03:54.014Z</time>
      </trkpt>
      <trkpt lat="47.91675" lon="6.95603">
        <ele>689</ele>
        <time>2026-05-09T16:03:55.014Z</time>
      </trkpt>
      <trkpt lat="47.91674" lon="6.95604">
        <ele>689</ele>
        <time>2026-05-09T16:03:56.013Z</time>
      </trkpt>
      <trkpt lat="47.91674" lon="6.95604">
        <ele>689</ele>
        <time>2026-05-09T16:03:57.013Z</time>
      </trkpt>
      <trkpt lat="47.91673" lon="6.95605">
        <ele>690</ele>
        <time>2026-05-09T16:03:58.013Z</time>
      </trkpt>
      <trkpt lat="47.91672" lon="6.95606">
        <ele>690</ele>
        <time>2026-05-09T16:03:59.013Z</time>
      </trkpt>
      <trkpt lat="47.91671" lon="6.95606">
        <ele>690</ele>
        <time>2026-05-09T16:04:00.013Z</time>
      </trkpt>
      <trkpt lat="47.9167" lon="6.95605">
        <ele>690</ele>
        <time>2026-05-09T16:04:01.014Z</time>
      </trkpt>
      <trkpt lat="47.91669" lon="6.95605">
        <ele>690</ele>
        <time>2026-05-09T16:04:02.013Z</time>
      </trkpt>
      <trkpt lat="47.91669" lon="6.95604">
        <ele>691</ele>
        <time>2026-05-09T16:04:03.013Z</time>
      </trkpt>
      <trkpt lat="47.91669" lon="6.95604">
        <ele>692</ele>
        <time>2026-05-09T16:04:04.013Z</time>
      </trkpt>
      <trkpt lat="47.91668" lon="6.95603">
        <ele>692</ele>
        <time>2026-05-09T16:04:05.014Z</time>
      </trkpt>
      <trkpt lat="47.91668" lon="6.95603">
        <ele>693</ele>
        <time>2026-05-09T16:04:06.013Z</time>
      </trkpt>
      <trkpt lat="47.91667" lon="6.95603">
        <ele>693</ele>
        <time>2026-05-09T16:04:07.013Z</time>
      </trkpt>
      <trkpt lat="47.91667" lon="6.95603">
        <ele>693</ele>
        <time>2026-05-09T16:04:08.013Z</time>
      </trkpt>
      <trkpt lat="47.91667" lon="6.95602">
        <ele>693</ele>
        <time>2026-05-09T16:04:09.013Z</time>
      </trkpt>
      <trkpt lat="47.91667" lon="6.95601">
        <ele>693</ele>
        <time>2026-05-09T16:04:10.013Z</time>
      </trkpt>
      <trkpt lat="47.91667" lon="6.95601">
        <ele>693</ele>
        <time>2026-05-09T16:04:11.014Z</time>
      </trkpt>
      <trkpt lat="47.91667" lon="6.956">
        <ele>693</ele>
        <time>2026-05-09T16:04:12.013Z</time>
      </trkpt>
      <trkpt lat="47.91668" lon="6.956">
        <ele>693</ele>
        <time>2026-05-09T16:04:13.013Z</time>
      </trkpt>
      <trkpt lat="47.91668" lon="6.95599">
        <ele>694</ele>
        <time>2026-05-09T16:04:14.013Z</time>
      </trkpt>
      <trkpt lat="47.91668" lon="6.95599">
        <ele>694</ele>
        <time>2026-05-09T16:04:15.013Z</time>
      </trkpt>
      <trkpt lat="47.91668" lon="6.95598">
        <ele>694</ele>
        <time>2026-05-09T16:04:16.013Z</time>
      </trkpt>
      <trkpt lat="47.91665" lon="6.95601">
        <ele>696</ele>
        <time>2026-05-09T16:04:24.391Z</time>
      </trkpt>
      <trkpt lat="47.91665" lon="6.95601">
        <ele>697</ele>
        <time>2026-05-09T16:04:25.391Z</time>
      </trkpt>
      <trkpt lat="47.91664" lon="6.95601">
        <ele>697</ele>
        <time>2026-05-09T16:04:26.392Z</time>
      </trkpt>
      <trkpt lat="47.91664" lon="6.95596">
        <ele>698</ele>
        <time>2026-05-09T16:04:32.850Z</time>
      </trkpt>
      <trkpt lat="47.91664" lon="6.95595">
        <ele>698</ele>
        <time>2026-05-09T16:04:33.851Z</time>
      </trkpt>
      <trkpt lat="47.91664" lon="6.95594">
        <ele>698</ele>
        <time>2026-05-09T16:04:34.850Z</time>
      </trkpt>
      <trkpt lat="47.91663" lon="6.95595">
        <ele>698</ele>
        <time>2026-05-09T16:04:35.851Z</time>
      </trkpt>
      <trkpt lat="47.91663" lon="6.95595">
        <ele>698</ele>
        <time>2026-05-09T16:04:36.850Z</time>
      </trkpt>
      <trkpt lat="47.91662" lon="6.95596">
        <ele>699</ele>
        <time>2026-05-09T16:04:37.850Z</time>
      </trkpt>
      <trkpt lat="47.91661" lon="6.95595">
        <ele>699</ele>
        <time>2026-05-09T16:04:38.851Z</time>
      </trkpt>
      <trkpt lat="47.91661" lon="6.95595">
        <ele>700</ele>
        <time>2026-05-09T16:04:39.851Z</time>
      </trkpt>
      <trkpt lat="47.91661" lon="6.95595">
        <ele>700</ele>
        <time>2026-05-09T16:04:40.850Z</time>
      </trkpt>
      <trkpt lat="47.91659" lon="6.95595">
        <ele>699</ele>
        <time>2026-05-09T16:04:48.138Z</time>
      </trkpt>
      <trkpt lat="47.91659" lon="6.95596">
        <ele>698</ele>
        <time>2026-05-09T16:04:49.139Z</time>
      </trkpt>
      <trkpt lat="47.91658" lon="6.95597">
        <ele>698</ele>
        <time>2026-05-09T16:04:50.138Z</time>
      </trkpt>
      <trkpt lat="47.91658" lon="6.95598">
        <ele>698</ele>
        <time>2026-05-09T16:04:51.139Z</time>
      </trkpt>
      <trkpt lat="47.91658" lon="6.95599">
        <ele>697</ele>
        <time>2026-05-09T16:04:52.139Z</time>
      </trkpt>
      <trkpt lat="47.91657" lon="6.95601">
        <ele>697</ele>
        <time>2026-05-09T16:04:53.138Z</time>
      </trkpt>
      <trkpt lat="47.91657" lon="6.95603">
        <ele>698</ele>
        <time>2026-05-09T16:04:54.138Z</time>
      </trkpt>
      <trkpt lat="47.91656" lon="6.95604">
        <ele>698</ele>
        <time>2026-05-09T16:04:55.138Z</time>
      </trkpt>
      <trkpt lat="47.91655" lon="6.95604">
        <ele>698</ele>
        <time>2026-05-09T16:04:56.138Z</time>
      </trkpt>
      <trkpt lat="47.91655" lon="6.95605">
        <ele>699</ele>
        <time>2026-05-09T16:04:57.139Z</time>
      </trkpt>
      <trkpt lat="47.91655" lon="6.95605">
        <ele>699</ele>
        <time>2026-05-09T16:04:58.139Z</time>
      </trkpt>
      <trkpt lat="47.91654" lon="6.95605">
        <ele>699</ele>
        <time>2026-05-09T16:04:59.138Z</time>
      </trkpt>
      <trkpt lat="47.91653" lon="6.95607">
        <ele>700</ele>
        <time>2026-05-09T16:05:00.138Z</time>
      </trkpt>
      <trkpt lat="47.91652" lon="6.95608">
        <ele>700</ele>
        <time>2026-05-09T16:05:01.139Z</time>
      </trkpt>
      <trkpt lat="47.91651" lon="6.95609">
        <ele>700</ele>
        <time>2026-05-09T16:05:02.139Z</time>
      </trkpt>
      <trkpt lat="47.91651" lon="6.95609">
        <ele>701</ele>
        <time>2026-05-09T16:05:03.139Z</time>
      </trkpt>
      <trkpt lat="47.9165" lon="6.95611">
        <ele>701</ele>
        <time>2026-05-09T16:05:04.138Z</time>
      </trkpt>
      <trkpt lat="47.91649" lon="6.95613">
        <ele>701</ele>
        <time>2026-05-09T16:05:05.138Z</time>
      </trkpt>
      <trkpt lat="47.91648" lon="6.95615">
        <ele>701</ele>
        <time>2026-05-09T16:05:06.139Z</time>
      </trkpt>
      <trkpt lat="47.91647" lon="6.95616">
        <ele>701</ele>
        <time>2026-05-09T16:05:07.139Z</time>
      </trkpt>
      <trkpt lat="47.91646" lon="6.95617">
        <ele>701</ele>
        <time>2026-05-09T16:05:08.138Z</time>
      </trkpt>
      <trkpt lat="47.91646" lon="6.95618">
        <ele>701</ele>
        <time>2026-05-09T16:05:09.138Z</time>
      </trkpt>
      <trkpt lat="47.91645" lon="6.95619">
        <ele>701</ele>
        <time>2026-05-09T16:05:10.138Z</time>
      </trkpt>
      <trkpt lat="47.91644" lon="6.95621">
        <ele>701</ele>
        <time>2026-05-09T16:05:11.138Z</time>
      </trkpt>
      <trkpt lat="47.91644" lon="6.95621">
        <ele>701</ele>
        <time>2026-05-09T16:05:12.139Z</time>
      </trkpt>
      <trkpt lat="47.91643" lon="6.95622">
        <ele>701</ele>
        <time>2026-05-09T16:05:13.138Z</time>
      </trkpt>
      <trkpt lat="47.91642" lon="6.95622">
        <ele>702</ele>
        <time>2026-05-09T16:05:14.139Z</time>
      </trkpt>
      <trkpt lat="47.91642" lon="6.95622">
        <ele>702</ele>
        <time>2026-05-09T16:05:15.138Z</time>
      </trkpt>
      <trkpt lat="47.91642" lon="6.95622">
        <ele>702</ele>
        <time>2026-05-09T16:05:16.138Z</time>
      </trkpt>
      <trkpt lat="47.91642" lon="6.95621">
        <ele>703</ele>
        <time>2026-05-09T16:05:17.138Z</time>
      </trkpt>
      <trkpt lat="47.91642" lon="6.95621">
        <ele>703</ele>
        <time>2026-05-09T16:05:18.138Z</time>
      </trkpt>
      <trkpt lat="47.91642" lon="6.95619">
        <ele>703</ele>
        <time>2026-05-09T16:05:19.139Z</time>
      </trkpt>
      <trkpt lat="47.91642" lon="6.95618">
        <ele>703</ele>
        <time>2026-05-09T16:05:20.139Z</time>
      </trkpt>
      <trkpt lat="47.91642" lon="6.95618">
        <ele>703</ele>
        <time>2026-05-09T16:05:21.138Z</time>
      </trkpt>
      <trkpt lat="47.91642" lon="6.95617">
        <ele>703</ele>
        <time>2026-05-09T16:05:22.138Z</time>
      </trkpt>
      <trkpt lat="47.91642" lon="6.95616">
        <ele>703</ele>
        <time>2026-05-09T16:05:23.139Z</time>
      </trkpt>
      <trkpt lat="47.91642" lon="6.95616">
        <ele>703</ele>
        <time>2026-05-09T16:05:24.139Z</time>
      </trkpt>
      <trkpt lat="47.91642" lon="6.95615">
        <ele>703</ele>
        <time>2026-05-09T16:05:25.139Z</time>
      </trkpt>
      <trkpt lat="47.91643" lon="6.95614">
        <ele>703</ele>
        <time>2026-05-09T16:05:26.138Z</time>
      </trkpt>
      <trkpt lat="47.91643" lon="6.95614">
        <ele>703</ele>
        <time>2026-05-09T16:05:27.139Z</time>
      </trkpt>
      <trkpt lat="47.91643" lon="6.95613">
        <ele>703</ele>
        <time>2026-05-09T16:05:28.139Z</time>
      </trkpt>
      <trkpt lat="47.91643" lon="6.95613">
        <ele>703</ele>
        <time>2026-05-09T16:05:29.138Z</time>
      </trkpt>
      <trkpt lat="47.91643" lon="6.95611">
        <ele>703</ele>
        <time>2026-05-09T16:05:30.138Z</time>
      </trkpt>
      <trkpt lat="47.91643" lon="6.9561">
        <ele>704</ele>
        <time>2026-05-09T16:05:31.139Z</time>
      </trkpt>
      <trkpt lat="47.91642" lon="6.95609">
        <ele>704</ele>
        <time>2026-05-09T16:05:32.138Z</time>
      </trkpt>
      <trkpt lat="47.91642" lon="6.95607">
        <ele>704</ele>
        <time>2026-05-09T16:05:33.139Z</time>
      </trkpt>
      <trkpt lat="47.91642" lon="6.95605">
        <ele>704</ele>
        <time>2026-05-09T16:05:34.139Z</time>
      </trkpt>
      <trkpt lat="47.91642" lon="6.95603">
        <ele>704</ele>
        <time>2026-05-09T16:05:35.139Z</time>
      </trkpt>
      <trkpt lat="47.91641" lon="6.95601">
        <ele>704</ele>
        <time>2026-05-09T16:05:36.139Z</time>
      </trkpt>
      <trkpt lat="47.91641" lon="6.95598">
        <ele>704</ele>
        <time>2026-05-09T16:05:37.138Z</time>
      </trkpt>
      <trkpt lat="47.91641" lon="6.95596">
        <ele>705</ele>
        <time>2026-05-09T16:05:38.138Z</time>
      </trkpt>
      <trkpt lat="47.9164" lon="6.95594">
        <ele>705</ele>
        <time>2026-05-09T16:05:39.138Z</time>
      </trkpt>
      <trkpt lat="47.9164" lon="6.95594">
        <ele>705</ele>
        <time>2026-05-09T16:05:40.139Z</time>
      </trkpt>
      <trkpt lat="47.9164" lon="6.95594">
        <ele>706</ele>
        <time>2026-05-09T16:05:41.138Z</time>
      </trkpt>
      <trkpt lat="47.91639" lon="6.95594">
        <ele>706</ele>
        <time>2026-05-09T16:05:42.138Z</time>
      </trkpt>
      <trkpt lat="47.91639" lon="6.95594">
        <ele>707</ele>
        <time>2026-05-09T16:05:43.139Z</time>
      </trkpt>
      <trkpt lat="47.91638" lon="6.95595">
        <ele>707</ele>
        <time>2026-05-09T16:05:44.138Z</time>
      </trkpt>
      <trkpt lat="47.91638" lon="6.95595">
        <ele>707</ele>
        <time>2026-05-09T16:05:45.138Z</time>
      </trkpt>
      <trkpt lat="47.91637" lon="6.95596">
        <ele>708</ele>
        <time>2026-05-09T16:05:46.139Z</time>
      </trkpt>
      <trkpt lat="47.91636" lon="6.95596">
        <ele>708</ele>
        <time>2026-05-09T16:05:47.138Z</time>
      </trkpt>
      <trkpt lat="47.91635" lon="6.95595">
        <ele>708</ele>
        <time>2026-05-09T16:05:48.139Z</time>
      </trkpt>
      <trkpt lat="47.91635" lon="6.95595">
        <ele>708</ele>
        <time>2026-05-09T16:05:49.138Z</time>
      </trkpt>
      <trkpt lat="47.91634" lon="6.95594">
        <ele>708</ele>
        <time>2026-05-09T16:05:50.139Z</time>
      </trkpt>
      <trkpt lat="47.91634" lon="6.95593">
        <ele>708</ele>
        <time>2026-05-09T16:05:51.139Z</time>
      </trkpt>
      <trkpt lat="47.91634" lon="6.95592">
        <ele>708</ele>
        <time>2026-05-09T16:05:52.138Z</time>
      </trkpt>
      <trkpt lat="47.91633" lon="6.9559">
        <ele>709</ele>
        <time>2026-05-09T16:05:53.138Z</time>
      </trkpt>
      <trkpt lat="47.91633" lon="6.95589">
        <ele>708</ele>
        <time>2026-05-09T16:05:54.138Z</time>
      </trkpt>
      <trkpt lat="47.91633" lon="6.95587">
        <ele>708</ele>
        <time>2026-05-09T16:05:55.138Z</time>
      </trkpt>
      <trkpt lat="47.91633" lon="6.95586">
        <ele>708</ele>
        <time>2026-05-09T16:05:56.138Z</time>
      </trkpt>
      <trkpt lat="47.91633" lon="6.95585">
        <ele>709</ele>
        <time>2026-05-09T16:05:57.138Z</time>
      </trkpt>
      <trkpt lat="47.91633" lon="6.95584">
        <ele>709</ele>
        <time>2026-05-09T16:05:58.138Z</time>
      </trkpt>
      <trkpt lat="47.91633" lon="6.95584">
        <ele>709</ele>
        <time>2026-05-09T16:05:59.138Z</time>
      </trkpt>
      <trkpt lat="47.91633" lon="6.95583">
        <ele>709</ele>
        <time>2026-05-09T16:06:00.139Z</time>
      </trkpt>
      <trkpt lat="47.91633" lon="6.95583">
        <ele>709</ele>
        <time>2026-05-09T16:06:01.139Z</time>
      </trkpt>
      <trkpt lat="47.91632" lon="6.95582">
        <ele>709</ele>
        <time>2026-05-09T16:06:02.139Z</time>
      </trkpt>
      <trkpt lat="47.91632" lon="6.95582">
        <ele>709</ele>
        <time>2026-05-09T16:06:03.138Z</time>
      </trkpt>
      <trkpt lat="47.91632" lon="6.95582">
        <ele>709</ele>
        <time>2026-05-09T16:06:04.139Z</time>
      </trkpt>
      <trkpt lat="47.91631" lon="6.95582">
        <ele>709</ele>
        <time>2026-05-09T16:06:05.138Z</time>
      </trkpt>
      <trkpt lat="47.91631" lon="6.95582">
        <ele>709</ele>
        <time>2026-05-09T16:06:06.138Z</time>
      </trkpt>
      <trkpt lat="47.91631" lon="6.95582">
        <ele>710</ele>
        <time>2026-05-09T16:06:07.139Z</time>
      </trkpt>
      <trkpt lat="47.9163" lon="6.95582">
        <ele>710</ele>
        <time>2026-05-09T16:06:08.138Z</time>
      </trkpt>
      <trkpt lat="47.9163" lon="6.95582">
        <ele>710</ele>
        <time>2026-05-09T16:06:09.138Z</time>
      </trkpt>
      <trkpt lat="47.9163" lon="6.95581">
        <ele>710</ele>
        <time>2026-05-09T16:06:10.139Z</time>
      </trkpt>
      <trkpt lat="47.9163" lon="6.95581">
        <ele>711</ele>
        <time>2026-05-09T16:06:11.138Z</time>
      </trkpt>
      <trkpt lat="47.91629" lon="6.9558">
        <ele>711</ele>
        <time>2026-05-09T16:06:12.138Z</time>
      </trkpt>
      <trkpt lat="47.91629" lon="6.95579">
        <ele>712</ele>
        <time>2026-05-09T16:06:13.138Z</time>
      </trkpt>
      <trkpt lat="47.91629" lon="6.95578">
        <ele>712</ele>
        <time>2026-05-09T16:06:14.139Z</time>
      </trkpt>
      <trkpt lat="47.91629" lon="6.95578">
        <ele>713</ele>
        <time>2026-05-09T16:06:15.138Z</time>
      </trkpt>
      <trkpt lat="47.91628" lon="6.95578">
        <ele>713</ele>
        <time>2026-05-09T16:06:16.139Z</time>
      </trkpt>
      <trkpt lat="47.91628" lon="6.95577">
        <ele>713</ele>
        <time>2026-05-09T16:06:17.138Z</time>
      </trkpt>
      <trkpt lat="47.91627" lon="6.95576">
        <ele>713</ele>
        <time>2026-05-09T16:06:18.138Z</time>
      </trkpt>
      <trkpt lat="47.91627" lon="6.95575">
        <ele>713</ele>
        <time>2026-05-09T16:06:19.138Z</time>
      </trkpt>
      <trkpt lat="47.91627" lon="6.95575">
        <ele>714</ele>
        <time>2026-05-09T16:06:20.139Z</time>
      </trkpt>
      <trkpt lat="47.91627" lon="6.95574">
        <ele>714</ele>
        <time>2026-05-09T16:06:21.138Z</time>
      </trkpt>
      <trkpt lat="47.91627" lon="6.95574">
        <ele>714</ele>
        <time>2026-05-09T16:06:22.138Z</time>
      </trkpt>
      <trkpt lat="47.91627" lon="6.95574">
        <ele>714</ele>
        <time>2026-05-09T16:06:23.138Z</time>
      </trkpt>
      <trkpt lat="47.91626" lon="6.9557">
        <ele>716</ele>
        <time>2026-05-09T16:06:29.552Z</time>
      </trkpt>
      <trkpt lat="47.91626" lon="6.95569">
        <ele>717</ele>
        <time>2026-05-09T16:06:30.552Z</time>
      </trkpt>
      <trkpt lat="47.91626" lon="6.95569">
        <ele>717</ele>
        <time>2026-05-09T16:06:31.552Z</time>
      </trkpt>
      <trkpt lat="47.91626" lon="6.95568">
        <ele>718</ele>
        <time>2026-05-09T16:06:32.552Z</time>
      </trkpt>
      <trkpt lat="47.91625" lon="6.95566">
        <ele>718</ele>
        <time>2026-05-09T16:06:33.552Z</time>
      </trkpt>
      <trkpt lat="47.91625" lon="6.95565">
        <ele>719</ele>
        <time>2026-05-09T16:06:34.552Z</time>
      </trkpt>
      <trkpt lat="47.91625" lon="6.95565">
        <ele>719</ele>
        <time>2026-05-09T16:06:35.552Z</time>
      </trkpt>
      <trkpt lat="47.91624" lon="6.95564">
        <ele>720</ele>
        <time>2026-05-09T16:06:36.553Z</time>
      </trkpt>
      <trkpt lat="47.91624" lon="6.95563">
        <ele>720</ele>
        <time>2026-05-09T16:06:37.553Z</time>
      </trkpt>
      <trkpt lat="47.91624" lon="6.95563">
        <ele>720</ele>
        <time>2026-05-09T16:06:38.553Z</time>
      </trkpt>
      <trkpt lat="47.91621" lon="6.95558">
        <ele>721</ele>
        <time>2026-05-09T16:06:46.810Z</time>
      </trkpt>
      <trkpt lat="47.91621" lon="6.95558">
        <ele>721</ele>
        <time>2026-05-09T16:06:47.810Z</time>
      </trkpt>
      <trkpt lat="47.9162" lon="6.95557">
        <ele>721</ele>
        <time>2026-05-09T16:06:48.810Z</time>
      </trkpt>
      <trkpt lat="47.91619" lon="6.95556">
        <ele>721</ele>
        <time>2026-05-09T16:06:49.810Z</time>
      </trkpt>
      <trkpt lat="47.91618" lon="6.95555">
        <ele>721</ele>
        <time>2026-05-09T16:06:50.810Z</time>
      </trkpt>
      <trkpt lat="47.91618" lon="6.95554">
        <ele>721</ele>
        <time>2026-05-09T16:06:51.810Z</time>
      </trkpt>
      <trkpt lat="47.91617" lon="6.95553">
        <ele>721</ele>
        <time>2026-05-09T16:06:52.810Z</time>
      </trkpt>
      <trkpt lat="47.91617" lon="6.95552">
        <ele>721</ele>
        <time>2026-05-09T16:06:53.810Z</time>
      </trkpt>
      <trkpt lat="47.91617" lon="6.95552">
        <ele>720</ele>
        <time>2026-05-09T16:06:54.811Z</time>
      </trkpt>
      <trkpt lat="47.91617" lon="6.95552">
        <ele>720</ele>
        <time>2026-05-09T16:06:55.810Z</time>
      </trkpt>
      <trkpt lat="47.91617" lon="6.95551">
        <ele>720</ele>
        <time>2026-05-09T16:06:56.810Z</time>
      </trkpt>
      <trkpt lat="47.91614" lon="6.95548">
        <ele>717</ele>
        <time>2026-05-09T16:07:03.362Z</time>
      </trkpt>
      <trkpt lat="47.91613" lon="6.95547">
        <ele>717</ele>
        <time>2026-05-09T16:07:04.363Z</time>
      </trkpt>
      <trkpt lat="47.91613" lon="6.95546">
        <ele>718</ele>
        <time>2026-05-09T16:07:05.362Z</time>
      </trkpt>
      <trkpt lat="47.91612" lon="6.95546">
        <ele>718</ele>
        <time>2026-05-09T16:07:06.363Z</time>
      </trkpt>
      <trkpt lat="47.91612" lon="6.95546">
        <ele>719</ele>
        <time>2026-05-09T16:07:07.362Z</time>
      </trkpt>
      <trkpt lat="47.91611" lon="6.95545">
        <ele>719</ele>
        <time>2026-05-09T16:07:08.363Z</time>
      </trkpt>
      <trkpt lat="47.9161" lon="6.95545">
        <ele>720</ele>
        <time>2026-05-09T16:07:09.362Z</time>
      </trkpt>
      <trkpt lat="47.9161" lon="6.95544">
        <ele>721</ele>
        <time>2026-05-09T16:07:10.363Z</time>
      </trkpt>
      <trkpt lat="47.9161" lon="6.95544">
        <ele>722</ele>
        <time>2026-05-09T16:07:11.362Z</time>
      </trkpt>
      <trkpt lat="47.91609" lon="6.95544">
        <ele>723</ele>
        <time>2026-05-09T16:07:12.363Z</time>
      </trkpt>
      <trkpt lat="47.91608" lon="6.95543">
        <ele>727</ele>
        <time>2026-05-09T16:07:20.894Z</time>
      </trkpt>
      <trkpt lat="47.91607" lon="6.95542">
        <ele>727</ele>
        <time>2026-05-09T16:07:21.894Z</time>
      </trkpt>
      <trkpt lat="47.91606" lon="6.95542">
        <ele>728</ele>
        <time>2026-05-09T16:07:22.894Z</time>
      </trkpt>
      <trkpt lat="47.91606" lon="6.95542">
        <ele>728</ele>
        <time>2026-05-09T16:07:23.894Z</time>
      </trkpt>
      <trkpt lat="47.91605" lon="6.95541">
        <ele>728</ele>
        <time>2026-05-09T16:07:24.894Z</time>
      </trkpt>
      <trkpt lat="47.91605" lon="6.9554">
        <ele>729</ele>
        <time>2026-05-09T16:07:25.894Z</time>
      </trkpt>
      <trkpt lat="47.91605" lon="6.9554">
        <ele>729</ele>
        <time>2026-05-09T16:07:26.895Z</time>
      </trkpt>
      <trkpt lat="47.91605" lon="6.95539">
        <ele>729</ele>
        <time>2026-05-09T16:07:27.894Z</time>
      </trkpt>
      <trkpt lat="47.91604" lon="6.95538">
        <ele>730</ele>
        <time>2026-05-09T16:07:28.894Z</time>
      </trkpt>
      <trkpt lat="47.91603" lon="6.95536">
        <ele>731</ele>
        <time>2026-05-09T16:07:29.894Z</time>
      </trkpt>
      <trkpt lat="47.91603" lon="6.95536">
        <ele>731</ele>
        <time>2026-05-09T16:07:30.894Z</time>
      </trkpt>
      <trkpt lat="47.91602" lon="6.95536">
        <ele>732</ele>
        <time>2026-05-09T16:07:31.894Z</time>
      </trkpt>
      <trkpt lat="47.91601" lon="6.95535">
        <ele>732</ele>
        <time>2026-05-09T16:07:32.894Z</time>
      </trkpt>
      <trkpt lat="47.916" lon="6.95534">
        <ele>732</ele>
        <time>2026-05-09T16:07:33.894Z</time>
      </trkpt>
      <trkpt lat="47.91599" lon="6.95533">
        <ele>732</ele>
        <time>2026-05-09T16:07:34.894Z</time>
      </trkpt>
      <trkpt lat="47.91599" lon="6.95532">
        <ele>732</ele>
        <time>2026-05-09T16:07:35.894Z</time>
      </trkpt>
      <trkpt lat="47.91599" lon="6.95532">
        <ele>733</ele>
        <time>2026-05-09T16:07:36.895Z</time>
      </trkpt>
      <trkpt lat="47.91599" lon="6.95531">
        <ele>733</ele>
        <time>2026-05-09T16:07:37.894Z</time>
      </trkpt>
      <trkpt lat="47.91598" lon="6.9553">
        <ele>734</ele>
        <time>2026-05-09T16:07:38.895Z</time>
      </trkpt>
      <trkpt lat="47.91597" lon="6.9553">
        <ele>735</ele>
        <time>2026-05-09T16:07:39.894Z</time>
      </trkpt>
      <trkpt lat="47.91596" lon="6.9553">
        <ele>735</ele>
        <time>2026-05-09T16:07:40.894Z</time>
      </trkpt>
      <trkpt lat="47.91596" lon="6.9553">
        <ele>736</ele>
        <time>2026-05-09T16:07:41.895Z</time>
      </trkpt>
      <trkpt lat="47.91595" lon="6.9553">
        <ele>736</ele>
        <time>2026-05-09T16:07:42.894Z</time>
      </trkpt>
      <trkpt lat="47.91594" lon="6.9553">
        <ele>737</ele>
        <time>2026-05-09T16:07:43.894Z</time>
      </trkpt>
      <trkpt lat="47.91593" lon="6.9553">
        <ele>738</ele>
        <time>2026-05-09T16:07:44.894Z</time>
      </trkpt>
      <trkpt lat="47.91592" lon="6.95531">
        <ele>738</ele>
        <time>2026-05-09T16:07:45.894Z</time>
      </trkpt>
      <trkpt lat="47.91592" lon="6.95531">
        <ele>739</ele>
        <time>2026-05-09T16:07:46.895Z</time>
      </trkpt>
      <trkpt lat="47.91591" lon="6.95531">
        <ele>739</ele>
        <time>2026-05-09T16:07:47.894Z</time>
      </trkpt>
      <trkpt lat="47.9159" lon="6.95532">
        <ele>740</ele>
        <time>2026-05-09T16:07:48.894Z</time>
      </trkpt>
      <trkpt lat="47.91589" lon="6.95533">
        <ele>740</ele>
        <time>2026-05-09T16:07:49.894Z</time>
      </trkpt>
      <trkpt lat="47.91589" lon="6.95533">
        <ele>741</ele>
        <time>2026-05-09T16:07:50.894Z</time>
      </trkpt>
      <trkpt lat="47.91588" lon="6.95534">
        <ele>741</ele>
        <time>2026-05-09T16:07:51.895Z</time>
      </trkpt>
      <trkpt lat="47.91587" lon="6.95534">
        <ele>742</ele>
        <time>2026-05-09T16:07:52.894Z</time>
      </trkpt>
      <trkpt lat="47.91586" lon="6.95533">
        <ele>742</ele>
        <time>2026-05-09T16:07:53.894Z</time>
      </trkpt>
      <trkpt lat="47.91584" lon="6.95532">
        <ele>742</ele>
        <time>2026-05-09T16:07:54.894Z</time>
      </trkpt>
      <trkpt lat="47.91583" lon="6.95532">
        <ele>742</ele>
        <time>2026-05-09T16:07:55.894Z</time>
      </trkpt>
      <trkpt lat="47.91582" lon="6.95531">
        <ele>742</ele>
        <time>2026-05-09T16:07:56.894Z</time>
      </trkpt>
      <trkpt lat="47.91582" lon="6.95531">
        <ele>742</ele>
        <time>2026-05-09T16:07:57.895Z</time>
      </trkpt>
      <trkpt lat="47.91582" lon="6.95531">
        <ele>741</ele>
        <time>2026-05-09T16:07:58.894Z</time>
      </trkpt>
      <trkpt lat="47.91582" lon="6.9553">
        <ele>741</ele>
        <time>2026-05-09T16:07:59.894Z</time>
      </trkpt>
      <trkpt lat="47.91582" lon="6.95528">
        <ele>741</ele>
        <time>2026-05-09T16:08:00.895Z</time>
      </trkpt>
      <trkpt lat="47.91582" lon="6.95527">
        <ele>740</ele>
        <time>2026-05-09T16:08:01.894Z</time>
      </trkpt>
      <trkpt lat="47.91582" lon="6.95527">
        <ele>740</ele>
        <time>2026-05-09T16:08:02.895Z</time>
      </trkpt>
      <trkpt lat="47.91582" lon="6.95527">
        <ele>739</ele>
        <time>2026-05-09T16:08:03.894Z</time>
      </trkpt>
      <trkpt lat="47.91582" lon="6.95526">
        <ele>739</ele>
        <time>2026-05-09T16:08:04.895Z</time>
      </trkpt>
      <trkpt lat="47.91581" lon="6.95526">
        <ele>739</ele>
        <time>2026-05-09T16:08:05.894Z</time>
      </trkpt>
      <trkpt lat="47.9158" lon="6.95525">
        <ele>739</ele>
        <time>2026-05-09T16:08:06.894Z</time>
      </trkpt>
      <trkpt lat="47.9158" lon="6.95525">
        <ele>739</ele>
        <time>2026-05-09T16:08:07.895Z</time>
      </trkpt>
      <trkpt lat="47.9158" lon="6.95524">
        <ele>739</ele>
        <time>2026-05-09T16:08:08.894Z</time>
      </trkpt>
      <trkpt lat="47.9158" lon="6.95524">
        <ele>739</ele>
        <time>2026-05-09T16:08:09.894Z</time>
      </trkpt>
      <trkpt lat="47.9158" lon="6.95525">
        <ele>739</ele>
        <time>2026-05-09T16:08:10.894Z</time>
      </trkpt>
      <trkpt lat="47.91579" lon="6.95528">
        <ele>740</ele>
        <time>2026-05-09T16:08:16.395Z</time>
      </trkpt>
      <trkpt lat="47.91578" lon="6.95528">
        <ele>740</ele>
        <time>2026-05-09T16:08:17.395Z</time>
      </trkpt>
      <trkpt lat="47.91578" lon="6.95529">
        <ele>740</ele>
        <time>2026-05-09T16:08:18.394Z</time>
      </trkpt>
      <trkpt lat="47.91578" lon="6.95529">
        <ele>740</ele>
        <time>2026-05-09T16:08:19.394Z</time>
      </trkpt>
      <trkpt lat="47.91577" lon="6.9553">
        <ele>740</ele>
        <time>2026-05-09T16:08:20.394Z</time>
      </trkpt>
      <trkpt lat="47.91577" lon="6.9553">
        <ele>739</ele>
        <time>2026-05-09T16:08:21.395Z</time>
      </trkpt>
      <trkpt lat="47.91575" lon="6.95526">
        <ele>739</ele>
        <time>2026-05-09T16:08:32.679Z</time>
      </trkpt>
      <trkpt lat="47.91575" lon="6.95526">
        <ele>739</ele>
        <time>2026-05-09T16:08:33.680Z</time>
      </trkpt>
      <trkpt lat="47.91574" lon="6.95525">
        <ele>739</ele>
        <time>2026-05-09T16:08:34.679Z</time>
      </trkpt>
      <trkpt lat="47.91574" lon="6.95524">
        <ele>739</ele>
        <time>2026-05-09T16:08:35.680Z</time>
      </trkpt>
      <trkpt lat="47.91573" lon="6.95524">
        <ele>739</ele>
        <time>2026-05-09T16:08:36.680Z</time>
      </trkpt>
      <trkpt lat="47.91573" lon="6.95523">
        <ele>739</ele>
        <time>2026-05-09T16:08:37.680Z</time>
      </trkpt>
      <trkpt lat="47.91573" lon="6.95523">
        <ele>739</ele>
        <time>2026-05-09T16:08:38.680Z</time>
      </trkpt>
      <trkpt lat="47.91573" lon="6.95523">
        <ele>740</ele>
        <time>2026-05-09T16:08:39.679Z</time>
      </trkpt>
      <trkpt lat="47.91572" lon="6.95522">
        <ele>740</ele>
        <time>2026-05-09T16:08:40.679Z</time>
      </trkpt>
      <trkpt lat="47.91572" lon="6.95521">
        <ele>740</ele>
        <time>2026-05-09T16:08:41.680Z</time>
      </trkpt>
      <trkpt lat="47.91571" lon="6.9552">
        <ele>741</ele>
        <time>2026-05-09T16:08:42.680Z</time>
      </trkpt>
      <trkpt lat="47.91569" lon="6.95519">
        <ele>741</ele>
        <time>2026-05-09T16:08:43.680Z</time>
      </trkpt>
      <trkpt lat="47.91568" lon="6.95519">
        <ele>741</ele>
        <time>2026-05-09T16:08:44.680Z</time>
      </trkpt>
      <trkpt lat="47.91568" lon="6.95518">
        <ele>741</ele>
        <time>2026-05-09T16:08:45.680Z</time>
      </trkpt>
      <trkpt lat="47.91567" lon="6.95517">
        <ele>741</ele>
        <time>2026-05-09T16:08:46.680Z</time>
      </trkpt>
      <trkpt lat="47.91567" lon="6.95515">
        <ele>742</ele>
        <time>2026-05-09T16:08:47.679Z</time>
      </trkpt>
      <trkpt lat="47.91567" lon="6.95514">
        <ele>742</ele>
        <time>2026-05-09T16:08:48.680Z</time>
      </trkpt>
      <trkpt lat="47.91566" lon="6.95514">
        <ele>742</ele>
        <time>2026-05-09T16:08:49.680Z</time>
      </trkpt>
      <trkpt lat="47.91565" lon="6.95513">
        <ele>743</ele>
        <time>2026-05-09T16:08:50.680Z</time>
      </trkpt>
      <trkpt lat="47.91565" lon="6.95513">
        <ele>743</ele>
        <time>2026-05-09T16:08:51.679Z</time>
      </trkpt>
      <trkpt lat="47.91563" lon="6.95517">
        <ele>747</ele>
        <time>2026-05-09T16:08:58.982Z</time>
      </trkpt>
      <trkpt lat="47.91562" lon="6.95518">
        <ele>747</ele>
        <time>2026-05-09T16:08:59.982Z</time>
      </trkpt>
      <trkpt lat="47.91561" lon="6.95518">
        <ele>748</ele>
        <time>2026-05-09T16:09:00.982Z</time>
      </trkpt>
      <trkpt lat="47.9156" lon="6.95518">
        <ele>748</ele>
        <time>2026-05-09T16:09:01.982Z</time>
      </trkpt>
      <trkpt lat="47.9156" lon="6.95518">
        <ele>748</ele>
        <time>2026-05-09T16:09:02.982Z</time>
      </trkpt>
      <trkpt lat="47.9156" lon="6.95518">
        <ele>748</ele>
        <time>2026-05-09T16:09:03.982Z</time>
      </trkpt>
      <trkpt lat="47.91561" lon="6.95517">
        <ele>748</ele>
        <time>2026-05-09T16:09:04.982Z</time>
      </trkpt>
      <trkpt lat="47.91561" lon="6.95517">
        <ele>748</ele>
        <time>2026-05-09T16:09:05.982Z</time>
      </trkpt>
      <trkpt lat="47.9156" lon="6.95516">
        <ele>748</ele>
        <time>2026-05-09T16:09:06.982Z</time>
      </trkpt>
      <trkpt lat="47.9156" lon="6.95515">
        <ele>747</ele>
        <time>2026-05-09T16:09:07.983Z</time>
      </trkpt>
      <trkpt lat="47.91559" lon="6.95514">
        <ele>747</ele>
        <time>2026-05-09T16:09:08.982Z</time>
      </trkpt>
      <trkpt lat="47.91559" lon="6.95513">
        <ele>748</ele>
        <time>2026-05-09T16:09:09.983Z</time>
      </trkpt>
      <trkpt lat="47.91559" lon="6.95513">
        <ele>748</ele>
        <time>2026-05-09T16:09:10.983Z</time>
      </trkpt>
      <trkpt lat="47.91559" lon="6.95512">
        <ele>749</ele>
        <time>2026-05-09T16:09:11.982Z</time>
      </trkpt>
      <trkpt lat="47.91558" lon="6.95512">
        <ele>749</ele>
        <time>2026-05-09T16:09:12.983Z</time>
      </trkpt>
      <trkpt lat="47.91558" lon="6.95511">
        <ele>749</ele>
        <time>2026-05-09T16:09:13.982Z</time>
      </trkpt>
      <trkpt lat="47.91557" lon="6.95511">
        <ele>749</ele>
        <time>2026-05-09T16:09:14.983Z</time>
      </trkpt>
      <trkpt lat="47.91557" lon="6.95512">
        <ele>750</ele>
        <time>2026-05-09T16:09:15.982Z</time>
      </trkpt>
      <trkpt lat="47.91557" lon="6.95512">
        <ele>751</ele>
        <time>2026-05-09T16:09:16.983Z</time>
      </trkpt>
      <trkpt lat="47.91557" lon="6.95513">
        <ele>751</ele>
        <time>2026-05-09T16:09:17.983Z</time>
      </trkpt>
      <trkpt lat="47.91556" lon="6.95514">
        <ele>751</ele>
        <time>2026-05-09T16:09:18.983Z</time>
      </trkpt>
      <trkpt lat="47.91556" lon="6.95514">
        <ele>751</ele>
        <time>2026-05-09T16:09:19.983Z</time>
      </trkpt>
      <trkpt lat="47.91556" lon="6.95514">
        <ele>752</ele>
        <time>2026-05-09T16:09:20.982Z</time>
      </trkpt>
      <trkpt lat="47.91556" lon="6.95514">
        <ele>752</ele>
        <time>2026-05-09T16:09:21.983Z</time>
      </trkpt>
      <trkpt lat="47.91553" lon="6.9551">
        <ele>752</ele>
        <time>2026-05-09T16:09:31.242Z</time>
      </trkpt>
      <trkpt lat="47.91552" lon="6.95509">
        <ele>753</ele>
        <time>2026-05-09T16:09:32.242Z</time>
      </trkpt>
      <trkpt lat="47.91552" lon="6.95508">
        <ele>753</ele>
        <time>2026-05-09T16:09:33.242Z</time>
      </trkpt>
      <trkpt lat="47.91552" lon="6.95508">
        <ele>753</ele>
        <time>2026-05-09T16:09:34.243Z</time>
      </trkpt>
      <trkpt lat="47.91551" lon="6.95507">
        <ele>755</ele>
        <time>2026-05-09T16:09:42.472Z</time>
      </trkpt>
      <trkpt lat="47.9155" lon="6.95507">
        <ele>756</ele>
        <time>2026-05-09T16:09:43.471Z</time>
      </trkpt>
      <trkpt lat="47.9155" lon="6.95507">
        <ele>756</ele>
        <time>2026-05-09T16:09:44.472Z</time>
      </trkpt>
      <trkpt lat="47.9155" lon="6.95507">
        <ele>757</ele>
        <time>2026-05-09T16:09:45.471Z</time>
      </trkpt>
      <trkpt lat="47.9155" lon="6.95507">
        <ele>757</ele>
        <time>2026-05-09T16:09:46.472Z</time>
      </trkpt>
      <trkpt lat="47.91549" lon="6.95506">
        <ele>757</ele>
        <time>2026-05-09T16:09:47.472Z</time>
      </trkpt>
      <trkpt lat="47.91548" lon="6.95506">
        <ele>757</ele>
        <time>2026-05-09T16:09:48.472Z</time>
      </trkpt>
      <trkpt lat="47.91547" lon="6.95505">
        <ele>757</ele>
        <time>2026-05-09T16:09:49.471Z</time>
      </trkpt>
      <trkpt lat="47.91547" lon="6.95505">
        <ele>758</ele>
        <time>2026-05-09T16:09:50.472Z</time>
      </trkpt>
      <trkpt lat="47.91546" lon="6.95504">
        <ele>758</ele>
        <time>2026-05-09T16:09:51.471Z</time>
      </trkpt>
      <trkpt lat="47.91544" lon="6.95504">
        <ele>758</ele>
        <time>2026-05-09T16:09:52.472Z</time>
      </trkpt>
      <trkpt lat="47.91544" lon="6.95503">
        <ele>758</ele>
        <time>2026-05-09T16:09:53.471Z</time>
      </trkpt>
      <trkpt lat="47.91544" lon="6.95503">
        <ele>758</ele>
        <time>2026-05-09T16:09:54.472Z</time>
      </trkpt>
      <trkpt lat="47.91543" lon="6.95503">
        <ele>757</ele>
        <time>2026-05-09T16:09:55.471Z</time>
      </trkpt>
      <trkpt lat="47.91543" lon="6.95502">
        <ele>757</ele>
        <time>2026-05-09T16:09:56.472Z</time>
      </trkpt>
      <trkpt lat="47.91542" lon="6.95502">
        <ele>757</ele>
        <time>2026-05-09T16:09:57.472Z</time>
      </trkpt>
      <trkpt lat="47.91542" lon="6.95501">
        <ele>758</ele>
        <time>2026-05-09T16:09:58.471Z</time>
      </trkpt>
      <trkpt lat="47.91542" lon="6.95501">
        <ele>758</ele>
        <time>2026-05-09T16:09:59.472Z</time>
      </trkpt>
      <trkpt lat="47.91542" lon="6.955">
        <ele>758</ele>
        <time>2026-05-09T16:10:00.472Z</time>
      </trkpt>
      <trkpt lat="47.91542" lon="6.955">
        <ele>758</ele>
        <time>2026-05-09T16:10:01.471Z</time>
      </trkpt>
      <trkpt lat="47.91542" lon="6.95499">
        <ele>759</ele>
        <time>2026-05-09T16:10:02.471Z</time>
      </trkpt>
      <trkpt lat="47.91541" lon="6.95499">
        <ele>759</ele>
        <time>2026-05-09T16:10:03.471Z</time>
      </trkpt>
      <trkpt lat="47.91541" lon="6.95499">
        <ele>759</ele>
        <time>2026-05-09T16:10:04.472Z</time>
      </trkpt>
      <trkpt lat="47.9154" lon="6.95498">
        <ele>759</ele>
        <time>2026-05-09T16:10:05.471Z</time>
      </trkpt>
      <trkpt lat="47.91539" lon="6.95497">
        <ele>759</ele>
        <time>2026-05-09T16:10:06.472Z</time>
      </trkpt>
      <trkpt lat="47.91538" lon="6.95496">
        <ele>759</ele>
        <time>2026-05-09T16:10:07.471Z</time>
      </trkpt>
      <trkpt lat="47.91537" lon="6.95496">
        <ele>759</ele>
        <time>2026-05-09T16:10:08.472Z</time>
      </trkpt>
      <trkpt lat="47.91536" lon="6.95495">
        <ele>759</ele>
        <time>2026-05-09T16:10:09.471Z</time>
      </trkpt>
      <trkpt lat="47.91535" lon="6.95494">
        <ele>759</ele>
        <time>2026-05-09T16:10:10.472Z</time>
      </trkpt>
      <trkpt lat="47.91534" lon="6.95493">
        <ele>759</ele>
        <time>2026-05-09T16:10:11.472Z</time>
      </trkpt>
      <trkpt lat="47.91534" lon="6.95492">
        <ele>759</ele>
        <time>2026-05-09T16:10:12.471Z</time>
      </trkpt>
      <trkpt lat="47.91534" lon="6.95492">
        <ele>759</ele>
        <time>2026-05-09T16:10:13.472Z</time>
      </trkpt>
      <trkpt lat="47.91533" lon="6.95491">
        <ele>760</ele>
        <time>2026-05-09T16:10:14.471Z</time>
      </trkpt>
      <trkpt lat="47.91532" lon="6.9549">
        <ele>760</ele>
        <time>2026-05-09T16:10:15.472Z</time>
      </trkpt>
      <trkpt lat="47.91532" lon="6.9549">
        <ele>760</ele>
        <time>2026-05-09T16:10:16.472Z</time>
      </trkpt>
      <trkpt lat="47.91531" lon="6.95489">
        <ele>760</ele>
        <time>2026-05-09T16:10:17.472Z</time>
      </trkpt>
      <trkpt lat="47.9153" lon="6.95488">
        <ele>760</ele>
        <time>2026-05-09T16:10:18.471Z</time>
      </trkpt>
      <trkpt lat="47.91528" lon="6.95487">
        <ele>760</ele>
        <time>2026-05-09T16:10:19.472Z</time>
      </trkpt>
      <trkpt lat="47.91527" lon="6.95486">
        <ele>760</ele>
        <time>2026-05-09T16:10:20.472Z</time>
      </trkpt>
      <trkpt lat="47.91526" lon="6.95485">
        <ele>760</ele>
        <time>2026-05-09T16:10:21.472Z</time>
      </trkpt>
      <trkpt lat="47.91526" lon="6.95484">
        <ele>760</ele>
        <time>2026-05-09T16:10:22.471Z</time>
      </trkpt>
      <trkpt lat="47.91524" lon="6.95482">
        <ele>760</ele>
        <time>2026-05-09T16:10:23.471Z</time>
      </trkpt>
      <trkpt lat="47.91523" lon="6.95481">
        <ele>760</ele>
        <time>2026-05-09T16:10:24.472Z</time>
      </trkpt>
      <trkpt lat="47.91523" lon="6.95481">
        <ele>761</ele>
        <time>2026-05-09T16:10:25.472Z</time>
      </trkpt>
      <trkpt lat="47.91522" lon="6.9548">
        <ele>761</ele>
        <time>2026-05-09T16:10:26.471Z</time>
      </trkpt>
      <trkpt lat="47.9152" lon="6.9548">
        <ele>761</ele>
        <time>2026-05-09T16:10:27.472Z</time>
      </trkpt>
      <trkpt lat="47.91519" lon="6.9548">
        <ele>761</ele>
        <time>2026-05-09T16:10:28.472Z</time>
      </trkpt>
      <trkpt lat="47.91517" lon="6.95479">
        <ele>762</ele>
        <time>2026-05-09T16:10:29.471Z</time>
      </trkpt>
      <trkpt lat="47.91516" lon="6.95478">
        <ele>762</ele>
        <time>2026-05-09T16:10:30.472Z</time>
      </trkpt>
      <trkpt lat="47.91515" lon="6.95479">
        <ele>762</ele>
        <time>2026-05-09T16:10:31.472Z</time>
      </trkpt>
      <trkpt lat="47.91513" lon="6.95478">
        <ele>762</ele>
        <time>2026-05-09T16:10:32.471Z</time>
      </trkpt>
      <trkpt lat="47.91511" lon="6.95478">
        <ele>762</ele>
        <time>2026-05-09T16:10:33.471Z</time>
      </trkpt>
      <trkpt lat="47.9151" lon="6.95477">
        <ele>762</ele>
        <time>2026-05-09T16:10:34.472Z</time>
      </trkpt>
      <trkpt lat="47.91509" lon="6.95477">
        <ele>762</ele>
        <time>2026-05-09T16:10:35.472Z</time>
      </trkpt>
      <trkpt lat="47.91509" lon="6.95476">
        <ele>762</ele>
        <time>2026-05-09T16:10:36.472Z</time>
      </trkpt>
      <trkpt lat="47.91508" lon="6.95475">
        <ele>762</ele>
        <time>2026-05-09T16:10:37.472Z</time>
      </trkpt>
      <trkpt lat="47.91507" lon="6.95474">
        <ele>762</ele>
        <time>2026-05-09T16:10:38.472Z</time>
      </trkpt>
      <trkpt lat="47.91507" lon="6.95474">
        <ele>762</ele>
        <time>2026-05-09T16:10:39.471Z</time>
      </trkpt>
      <trkpt lat="47.91506" lon="6.95473">
        <ele>762</ele>
        <time>2026-05-09T16:10:40.472Z</time>
      </trkpt>
      <trkpt lat="47.91505" lon="6.95472">
        <ele>762</ele>
        <time>2026-05-09T16:10:41.471Z</time>
      </trkpt>
      <trkpt lat="47.91505" lon="6.95471">
        <ele>762</ele>
        <time>2026-05-09T16:10:42.471Z</time>
      </trkpt>
      <trkpt lat="47.91504" lon="6.95471">
        <ele>762</ele>
        <time>2026-05-09T16:10:43.471Z</time>
      </trkpt>
      <trkpt lat="47.91503" lon="6.9547">
        <ele>762</ele>
        <time>2026-05-09T16:10:44.471Z</time>
      </trkpt>
      <trkpt lat="47.91502" lon="6.95469">
        <ele>762</ele>
        <time>2026-05-09T16:10:45.471Z</time>
      </trkpt>
      <trkpt lat="47.91502" lon="6.95469">
        <ele>762</ele>
        <time>2026-05-09T16:10:46.472Z</time>
      </trkpt>
      <trkpt lat="47.91501" lon="6.95468">
        <ele>762</ele>
        <time>2026-05-09T16:10:47.472Z</time>
      </trkpt>
      <trkpt lat="47.915" lon="6.95467">
        <ele>763</ele>
        <time>2026-05-09T16:10:48.472Z</time>
      </trkpt>
      <trkpt lat="47.91499" lon="6.95466">
        <ele>763</ele>
        <time>2026-05-09T16:10:49.471Z</time>
      </trkpt>
      <trkpt lat="47.91499" lon="6.95465">
        <ele>763</ele>
        <time>2026-05-09T16:10:50.472Z</time>
      </trkpt>
      <trkpt lat="47.91498" lon="6.95464">
        <ele>764</ele>
        <time>2026-05-09T16:10:51.471Z</time>
      </trkpt>
      <trkpt lat="47.91498" lon="6.95464">
        <ele>764</ele>
        <time>2026-05-09T16:10:52.471Z</time>
      </trkpt>
      <trkpt lat="47.91497" lon="6.95463">
        <ele>764</ele>
        <time>2026-05-09T16:10:53.471Z</time>
      </trkpt>
      <trkpt lat="47.91496" lon="6.95462">
        <ele>764</ele>
        <time>2026-05-09T16:10:54.472Z</time>
      </trkpt>
      <trkpt lat="47.91495" lon="6.95461">
        <ele>764</ele>
        <time>2026-05-09T16:10:55.472Z</time>
      </trkpt>
      <trkpt lat="47.91493" lon="6.95459">
        <ele>764</ele>
        <time>2026-05-09T16:10:56.471Z</time>
      </trkpt>
      <trkpt lat="47.91492" lon="6.95458">
        <ele>764</ele>
        <time>2026-05-09T16:10:57.472Z</time>
      </trkpt>
      <trkpt lat="47.91491" lon="6.95457">
        <ele>764</ele>
        <time>2026-05-09T16:10:58.472Z</time>
      </trkpt>
      <trkpt lat="47.9149" lon="6.95455">
        <ele>764</ele>
        <time>2026-05-09T16:10:59.471Z</time>
      </trkpt>
      <trkpt lat="47.91489" lon="6.95455">
        <ele>764</ele>
        <time>2026-05-09T16:11:00.472Z</time>
      </trkpt>
      <trkpt lat="47.91488" lon="6.95454">
        <ele>764</ele>
        <time>2026-05-09T16:11:01.472Z</time>
      </trkpt>
      <trkpt lat="47.91488" lon="6.95452">
        <ele>764</ele>
        <time>2026-05-09T16:11:02.471Z</time>
      </trkpt>
      <trkpt lat="47.91487" lon="6.95451">
        <ele>765</ele>
        <time>2026-05-09T16:11:03.472Z</time>
      </trkpt>
      <trkpt lat="47.91486" lon="6.9545">
        <ele>765</ele>
        <time>2026-05-09T16:11:04.472Z</time>
      </trkpt>
      <trkpt lat="47.91484" lon="6.9545">
        <ele>765</ele>
        <time>2026-05-09T16:11:05.471Z</time>
      </trkpt>
      <trkpt lat="47.91483" lon="6.95449">
        <ele>765</ele>
        <time>2026-05-09T16:11:06.472Z</time>
      </trkpt>
      <trkpt lat="47.91483" lon="6.95449">
        <ele>765</ele>
        <time>2026-05-09T16:11:07.472Z</time>
      </trkpt>
      <trkpt lat="47.91483" lon="6.95448">
        <ele>765</ele>
        <time>2026-05-09T16:11:08.472Z</time>
      </trkpt>
      <trkpt lat="47.91482" lon="6.95447">
        <ele>765</ele>
        <time>2026-05-09T16:11:09.471Z</time>
      </trkpt>
      <trkpt lat="47.91481" lon="6.95446">
        <ele>766</ele>
        <time>2026-05-09T16:11:10.472Z</time>
      </trkpt>
      <trkpt lat="47.91481" lon="6.95445">
        <ele>766</ele>
        <time>2026-05-09T16:11:11.472Z</time>
      </trkpt>
      <trkpt lat="47.91481" lon="6.95444">
        <ele>766</ele>
        <time>2026-05-09T16:11:12.472Z</time>
      </trkpt>
      <trkpt lat="47.91481" lon="6.95443">
        <ele>766</ele>
        <time>2026-05-09T16:11:13.471Z</time>
      </trkpt>
      <trkpt lat="47.9148" lon="6.95442">
        <ele>766</ele>
        <time>2026-05-09T16:11:14.472Z</time>
      </trkpt>
      <trkpt lat="47.9148" lon="6.95441">
        <ele>766</ele>
        <time>2026-05-09T16:11:15.471Z</time>
      </trkpt>
      <trkpt lat="47.91479" lon="6.9544">
        <ele>767</ele>
        <time>2026-05-09T16:11:16.472Z</time>
      </trkpt>
      <trkpt lat="47.91478" lon="6.95439">
        <ele>767</ele>
        <time>2026-05-09T16:11:17.471Z</time>
      </trkpt>
      <trkpt lat="47.91477" lon="6.95437">
        <ele>767</ele>
        <time>2026-05-09T16:11:18.472Z</time>
      </trkpt>
      <trkpt lat="47.91476" lon="6.95436">
        <ele>766</ele>
        <time>2026-05-09T16:11:19.471Z</time>
      </trkpt>
      <trkpt lat="47.91475" lon="6.95435">
        <ele>766</ele>
        <time>2026-05-09T16:11:20.472Z</time>
      </trkpt>
      <trkpt lat="47.91475" lon="6.95434">
        <ele>766</ele>
        <time>2026-05-09T16:11:21.472Z</time>
      </trkpt>
      <trkpt lat="47.91474" lon="6.95433">
        <ele>766</ele>
        <time>2026-05-09T16:11:22.471Z</time>
      </trkpt>
      <trkpt lat="47.91473" lon="6.95432">
        <ele>766</ele>
        <time>2026-05-09T16:11:23.471Z</time>
      </trkpt>
      <trkpt lat="47.91472" lon="6.95431">
        <ele>766</ele>
        <time>2026-05-09T16:11:24.471Z</time>
      </trkpt>
      <trkpt lat="47.91471" lon="6.95431">
        <ele>766</ele>
        <time>2026-05-09T16:11:25.472Z</time>
      </trkpt>
      <trkpt lat="47.9147" lon="6.9543">
        <ele>767</ele>
        <time>2026-05-09T16:11:26.471Z</time>
      </trkpt>
      <trkpt lat="47.91469" lon="6.9543">
        <ele>767</ele>
        <time>2026-05-09T16:11:27.472Z</time>
      </trkpt>
      <trkpt lat="47.91468" lon="6.95429">
        <ele>767</ele>
        <time>2026-05-09T16:11:28.471Z</time>
      </trkpt>
      <trkpt lat="47.91468" lon="6.95428">
        <ele>767</ele>
        <time>2026-05-09T16:11:29.471Z</time>
      </trkpt>
      <trkpt lat="47.91468" lon="6.95428">
        <ele>768</ele>
        <time>2026-05-09T16:11:30.472Z</time>
      </trkpt>
      <trkpt lat="47.91468" lon="6.95427">
        <ele>768</ele>
        <time>2026-05-09T16:11:31.472Z</time>
      </trkpt>
      <trkpt lat="47.91468" lon="6.95427">
        <ele>768</ele>
        <time>2026-05-09T16:11:32.471Z</time>
      </trkpt>
      <trkpt lat="47.91467" lon="6.95426">
        <ele>769</ele>
        <time>2026-05-09T16:11:33.472Z</time>
      </trkpt>
      <trkpt lat="47.91467" lon="6.95425">
        <ele>769</ele>
        <time>2026-05-09T16:11:34.471Z</time>
      </trkpt>
      <trkpt lat="47.91466" lon="6.95425">
        <ele>770</ele>
        <time>2026-05-09T16:11:35.472Z</time>
      </trkpt>
      <trkpt lat="47.91465" lon="6.95424">
        <ele>770</ele>
        <time>2026-05-09T16:11:36.471Z</time>
      </trkpt>
      <trkpt lat="47.91465" lon="6.95423">
        <ele>770</ele>
        <time>2026-05-09T16:11:37.471Z</time>
      </trkpt>
      <trkpt lat="47.91464" lon="6.95422">
        <ele>770</ele>
        <time>2026-05-09T16:11:38.472Z</time>
      </trkpt>
      <trkpt lat="47.91463" lon="6.95421">
        <ele>771</ele>
        <time>2026-05-09T16:11:39.472Z</time>
      </trkpt>
      <trkpt lat="47.91463" lon="6.9542">
        <ele>771</ele>
        <time>2026-05-09T16:11:40.472Z</time>
      </trkpt>
      <trkpt lat="47.91462" lon="6.95419">
        <ele>771</ele>
        <time>2026-05-09T16:11:41.471Z</time>
      </trkpt>
      <trkpt lat="47.91462" lon="6.95419">
        <ele>771</ele>
        <time>2026-05-09T16:11:42.472Z</time>
      </trkpt>
      <trkpt lat="47.91461" lon="6.95417">
        <ele>771</ele>
        <time>2026-05-09T16:11:43.471Z</time>
      </trkpt>
      <trkpt lat="47.9146" lon="6.95416">
        <ele>771</ele>
        <time>2026-05-09T16:11:44.472Z</time>
      </trkpt>
      <trkpt lat="47.9146" lon="6.95416">
        <ele>771</ele>
        <time>2026-05-09T16:11:45.472Z</time>
      </trkpt>
      <trkpt lat="47.91459" lon="6.95414">
        <ele>771</ele>
        <time>2026-05-09T16:11:46.471Z</time>
      </trkpt>
      <trkpt lat="47.91459" lon="6.95413">
        <ele>771</ele>
        <time>2026-05-09T16:11:47.471Z</time>
      </trkpt>
      <trkpt lat="47.91458" lon="6.95412">
        <ele>772</ele>
        <time>2026-05-09T16:11:48.471Z</time>
      </trkpt>
      <trkpt lat="47.91457" lon="6.95411">
        <ele>772</ele>
        <time>2026-05-09T16:11:49.472Z</time>
      </trkpt>
      <trkpt lat="47.91456" lon="6.9541">
        <ele>773</ele>
        <time>2026-05-09T16:11:50.471Z</time>
      </trkpt>
      <trkpt lat="47.91456" lon="6.95408">
        <ele>773</ele>
        <time>2026-05-09T16:11:51.471Z</time>
      </trkpt>
      <trkpt lat="47.91455" lon="6.95407">
        <ele>773</ele>
        <time>2026-05-09T16:11:52.471Z</time>
      </trkpt>
      <trkpt lat="47.91455" lon="6.95406">
        <ele>774</ele>
        <time>2026-05-09T16:11:53.471Z</time>
      </trkpt>
      <trkpt lat="47.91454" lon="6.95405">
        <ele>774</ele>
        <time>2026-05-09T16:11:54.472Z</time>
      </trkpt>
      <trkpt lat="47.91453" lon="6.95404">
        <ele>774</ele>
        <time>2026-05-09T16:11:55.471Z</time>
      </trkpt>
      <trkpt lat="47.91452" lon="6.95402">
        <ele>774</ele>
        <time>2026-05-09T16:11:56.471Z</time>
      </trkpt>
      <trkpt lat="47.91451" lon="6.95401">
        <ele>774</ele>
        <time>2026-05-09T16:11:57.472Z</time>
      </trkpt>
      <trkpt lat="47.91451" lon="6.95399">
        <ele>775</ele>
        <time>2026-05-09T16:11:58.471Z</time>
      </trkpt>
      <trkpt lat="47.9145" lon="6.95398">
        <ele>774</ele>
        <time>2026-05-09T16:11:59.472Z</time>
      </trkpt>
      <trkpt lat="47.9145" lon="6.95397">
        <ele>774</ele>
        <time>2026-05-09T16:12:00.471Z</time>
      </trkpt>
      <trkpt lat="47.91449" lon="6.95395">
        <ele>774</ele>
        <time>2026-05-09T16:12:01.471Z</time>
      </trkpt>
      <trkpt lat="47.91449" lon="6.95394">
        <ele>774</ele>
        <time>2026-05-09T16:12:02.472Z</time>
      </trkpt>
      <trkpt lat="47.91448" lon="6.95393">
        <ele>774</ele>
        <time>2026-05-09T16:12:03.471Z</time>
      </trkpt>
      <trkpt lat="47.91448" lon="6.95392">
        <ele>775</ele>
        <time>2026-05-09T16:12:04.472Z</time>
      </trkpt>
      <trkpt lat="47.91447" lon="6.95392">
        <ele>775</ele>
        <time>2026-05-09T16:12:05.471Z</time>
      </trkpt>
      <trkpt lat="47.91446" lon="6.95391">
        <ele>776</ele>
        <time>2026-05-09T16:12:06.471Z</time>
      </trkpt>
      <trkpt lat="47.91445" lon="6.95389">
        <ele>776</ele>
        <time>2026-05-09T16:12:07.472Z</time>
      </trkpt>
      <trkpt lat="47.91445" lon="6.95388">
        <ele>776</ele>
        <time>2026-05-09T16:12:08.471Z</time>
      </trkpt>
      <trkpt lat="47.91445" lon="6.95386">
        <ele>777</ele>
        <time>2026-05-09T16:12:09.472Z</time>
      </trkpt>
      <trkpt lat="47.91444" lon="6.95385">
        <ele>777</ele>
        <time>2026-05-09T16:12:10.471Z</time>
      </trkpt>
      <trkpt lat="47.91444" lon="6.95384">
        <ele>777</ele>
        <time>2026-05-09T16:12:11.472Z</time>
      </trkpt>
      <trkpt lat="47.91443" lon="6.95383">
        <ele>777</ele>
        <time>2026-05-09T16:12:12.472Z</time>
      </trkpt>
      <trkpt lat="47.91442" lon="6.95381">
        <ele>777</ele>
        <time>2026-05-09T16:12:13.471Z</time>
      </trkpt>
      <trkpt lat="47.91442" lon="6.95379">
        <ele>777</ele>
        <time>2026-05-09T16:12:14.472Z</time>
      </trkpt>
      <trkpt lat="47.91442" lon="6.95377">
        <ele>777</ele>
        <time>2026-05-09T16:12:15.471Z</time>
      </trkpt>
      <trkpt lat="47.91443" lon="6.95377">
        <ele>777</ele>
        <time>2026-05-09T16:12:16.471Z</time>
      </trkpt>
      <trkpt lat="47.91443" lon="6.95376">
        <ele>776</ele>
        <time>2026-05-09T16:12:17.471Z</time>
      </trkpt>
      <trkpt lat="47.91443" lon="6.95375">
        <ele>776</ele>
        <time>2026-05-09T16:12:18.472Z</time>
      </trkpt>
      <trkpt lat="47.91442" lon="6.95375">
        <ele>776</ele>
        <time>2026-05-09T16:12:19.471Z</time>
      </trkpt>
      <trkpt lat="47.91442" lon="6.95373">
        <ele>776</ele>
        <time>2026-05-09T16:12:20.471Z</time>
      </trkpt>
      <trkpt lat="47.91441" lon="6.95372">
        <ele>777</ele>
        <time>2026-05-09T16:12:21.472Z</time>
      </trkpt>
      <trkpt lat="47.9144" lon="6.9537">
        <ele>777</ele>
        <time>2026-05-09T16:12:22.472Z</time>
      </trkpt>
      <trkpt lat="47.91439" lon="6.95368">
        <ele>777</ele>
        <time>2026-05-09T16:12:23.471Z</time>
      </trkpt>
      <trkpt lat="47.91438" lon="6.95367">
        <ele>777</ele>
        <time>2026-05-09T16:12:24.471Z</time>
      </trkpt>
      <trkpt lat="47.91437" lon="6.95366">
        <ele>777</ele>
        <time>2026-05-09T16:12:25.471Z</time>
      </trkpt>
      <trkpt lat="47.91436" lon="6.95365">
        <ele>777</ele>
        <time>2026-05-09T16:12:26.472Z</time>
      </trkpt>
      <trkpt lat="47.91436" lon="6.95364">
        <ele>777</ele>
        <time>2026-05-09T16:12:27.471Z</time>
      </trkpt>
      <trkpt lat="47.91436" lon="6.95363">
        <ele>776</ele>
        <time>2026-05-09T16:12:28.472Z</time>
      </trkpt>
      <trkpt lat="47.91435" lon="6.95361">
        <ele>776</ele>
        <time>2026-05-09T16:12:29.472Z</time>
      </trkpt>
      <trkpt lat="47.91435" lon="6.95359">
        <ele>776</ele>
        <time>2026-05-09T16:12:30.471Z</time>
      </trkpt>
      <trkpt lat="47.91434" lon="6.95358">
        <ele>775</ele>
        <time>2026-05-09T16:12:31.472Z</time>
      </trkpt>
      <trkpt lat="47.91434" lon="6.95357">
        <ele>775</ele>
        <time>2026-05-09T16:12:32.471Z</time>
      </trkpt>
      <trkpt lat="47.91434" lon="6.95356">
        <ele>775</ele>
        <time>2026-05-09T16:12:33.472Z</time>
      </trkpt>
      <trkpt lat="47.91434" lon="6.95355">
        <ele>775</ele>
        <time>2026-05-09T16:12:34.471Z</time>
      </trkpt>
      <trkpt lat="47.91433" lon="6.95354">
        <ele>775</ele>
        <time>2026-05-09T16:12:35.471Z</time>
      </trkpt>
      <trkpt lat="47.91433" lon="6.95353">
        <ele>775</ele>
        <time>2026-05-09T16:12:36.471Z</time>
      </trkpt>
      <trkpt lat="47.91433" lon="6.95352">
        <ele>775</ele>
        <time>2026-05-09T16:12:37.471Z</time>
      </trkpt>
      <trkpt lat="47.91432" lon="6.95351">
        <ele>776</ele>
        <time>2026-05-09T16:12:38.472Z</time>
      </trkpt>
      <trkpt lat="47.91432" lon="6.9535">
        <ele>776</ele>
        <time>2026-05-09T16:12:39.471Z</time>
      </trkpt>
      <trkpt lat="47.91432" lon="6.95349">
        <ele>776</ele>
        <time>2026-05-09T16:12:40.472Z</time>
      </trkpt>
      <trkpt lat="47.91431" lon="6.95348">
        <ele>776</ele>
        <time>2026-05-09T16:12:41.471Z</time>
      </trkpt>
      <trkpt lat="47.91431" lon="6.95347">
        <ele>776</ele>
        <time>2026-05-09T16:12:42.471Z</time>
      </trkpt>
      <trkpt lat="47.91431" lon="6.95345">
        <ele>776</ele>
        <time>2026-05-09T16:12:43.472Z</time>
      </trkpt>
      <trkpt lat="47.91431" lon="6.95345">
        <ele>776</ele>
        <time>2026-05-09T16:12:44.471Z</time>
      </trkpt>
      <trkpt lat="47.9143" lon="6.95343">
        <ele>776</ele>
        <time>2026-05-09T16:12:45.472Z</time>
      </trkpt>
      <trkpt lat="47.9143" lon="6.95342">
        <ele>776</ele>
        <time>2026-05-09T16:12:46.471Z</time>
      </trkpt>
      <trkpt lat="47.91429" lon="6.95341">
        <ele>777</ele>
        <time>2026-05-09T16:12:47.471Z</time>
      </trkpt>
      <trkpt lat="47.91429" lon="6.9534">
        <ele>777</ele>
        <time>2026-05-09T16:12:48.472Z</time>
      </trkpt>
      <trkpt lat="47.91429" lon="6.95339">
        <ele>777</ele>
        <time>2026-05-09T16:12:49.471Z</time>
      </trkpt>
      <trkpt lat="47.91428" lon="6.95338">
        <ele>777</ele>
        <time>2026-05-09T16:12:50.472Z</time>
      </trkpt>
      <trkpt lat="47.91428" lon="6.95337">
        <ele>777</ele>
        <time>2026-05-09T16:12:51.472Z</time>
      </trkpt>
      <trkpt lat="47.91427" lon="6.95336">
        <ele>777</ele>
        <time>2026-05-09T16:12:52.472Z</time>
      </trkpt>
      <trkpt lat="47.91426" lon="6.95334">
        <ele>777</ele>
        <time>2026-05-09T16:12:53.471Z</time>
      </trkpt>
      <trkpt lat="47.91426" lon="6.95333">
        <ele>777</ele>
        <time>2026-05-09T16:12:54.471Z</time>
      </trkpt>
      <trkpt lat="47.91426" lon="6.95331">
        <ele>777</ele>
        <time>2026-05-09T16:12:55.471Z</time>
      </trkpt>
      <trkpt lat="47.91426" lon="6.9533">
        <ele>777</ele>
        <time>2026-05-09T16:12:56.471Z</time>
      </trkpt>
      <trkpt lat="47.91425" lon="6.95328">
        <ele>777</ele>
        <time>2026-05-09T16:12:57.472Z</time>
      </trkpt>
      <trkpt lat="47.91425" lon="6.95327">
        <ele>777</ele>
        <time>2026-05-09T16:12:58.472Z</time>
      </trkpt>
      <trkpt lat="47.91424" lon="6.95326">
        <ele>777</ele>
        <time>2026-05-09T16:12:59.472Z</time>
      </trkpt>
      <trkpt lat="47.91424" lon="6.95325">
        <ele>777</ele>
        <time>2026-05-09T16:13:00.472Z</time>
      </trkpt>
      <trkpt lat="47.91424" lon="6.95324">
        <ele>777</ele>
        <time>2026-05-09T16:13:01.472Z</time>
      </trkpt>
      <trkpt lat="47.91423" lon="6.95322">
        <ele>777</ele>
        <time>2026-05-09T16:13:02.472Z</time>
      </trkpt>
      <trkpt lat="47.91423" lon="6.95321">
        <ele>778</ele>
        <time>2026-05-09T16:13:03.472Z</time>
      </trkpt>
      <trkpt lat="47.91422" lon="6.9532">
        <ele>778</ele>
        <time>2026-05-09T16:13:04.471Z</time>
      </trkpt>
      <trkpt lat="47.91422" lon="6.95319">
        <ele>779</ele>
        <time>2026-05-09T16:13:05.471Z</time>
      </trkpt>
      <trkpt lat="47.91421" lon="6.95318">
        <ele>780</ele>
        <time>2026-05-09T16:13:06.471Z</time>
      </trkpt>
      <trkpt lat="47.91421" lon="6.95317">
        <ele>780</ele>
        <time>2026-05-09T16:13:07.472Z</time>
      </trkpt>
      <trkpt lat="47.9142" lon="6.95316">
        <ele>781</ele>
        <time>2026-05-09T16:13:08.471Z</time>
      </trkpt>
      <trkpt lat="47.9142" lon="6.95315">
        <ele>781</ele>
        <time>2026-05-09T16:13:09.471Z</time>
      </trkpt>
      <trkpt lat="47.91419" lon="6.95313">
        <ele>781</ele>
        <time>2026-05-09T16:13:10.472Z</time>
      </trkpt>
      <trkpt lat="47.91419" lon="6.95312">
        <ele>781</ele>
        <time>2026-05-09T16:13:11.471Z</time>
      </trkpt>
      <trkpt lat="47.91419" lon="6.95312">
        <ele>781</ele>
        <time>2026-05-09T16:13:12.472Z</time>
      </trkpt>
      <trkpt lat="47.91418" lon="6.95311">
        <ele>781</ele>
        <time>2026-05-09T16:13:13.471Z</time>
      </trkpt>
      <trkpt lat="47.91418" lon="6.9531">
        <ele>781</ele>
        <time>2026-05-09T16:13:14.471Z</time>
      </trkpt>
      <trkpt lat="47.91417" lon="6.95309">
        <ele>781</ele>
        <time>2026-05-09T16:13:15.471Z</time>
      </trkpt>
      <trkpt lat="47.91416" lon="6.95308">
        <ele>781</ele>
        <time>2026-05-09T16:13:16.472Z</time>
      </trkpt>
      <trkpt lat="47.91416" lon="6.95307">
        <ele>782</ele>
        <time>2026-05-09T16:13:17.471Z</time>
      </trkpt>
      <trkpt lat="47.91414" lon="6.95305">
        <ele>782</ele>
        <time>2026-05-09T16:13:18.471Z</time>
      </trkpt>
      <trkpt lat="47.91414" lon="6.95304">
        <ele>782</ele>
        <time>2026-05-09T16:13:19.472Z</time>
      </trkpt>
      <trkpt lat="47.91413" lon="6.95303">
        <ele>782</ele>
        <time>2026-05-09T16:13:20.471Z</time>
      </trkpt>
      <trkpt lat="47.91413" lon="6.95303">
        <ele>783</ele>
        <time>2026-05-09T16:13:21.472Z</time>
      </trkpt>
      <trkpt lat="47.91413" lon="6.95302">
        <ele>783</ele>
        <time>2026-05-09T16:13:22.471Z</time>
      </trkpt>
      <trkpt lat="47.91413" lon="6.95302">
        <ele>783</ele>
        <time>2026-05-09T16:13:23.472Z</time>
      </trkpt>
      <trkpt lat="47.91413" lon="6.95295">
        <ele>786</ele>
        <time>2026-05-09T16:13:41.720Z</time>
      </trkpt>
      <trkpt lat="47.91413" lon="6.95293">
        <ele>786</ele>
        <time>2026-05-09T16:13:42.721Z</time>
      </trkpt>
      <trkpt lat="47.91413" lon="6.95292">
        <ele>786</ele>
        <time>2026-05-09T16:13:43.720Z</time>
      </trkpt>
      <trkpt lat="47.91413" lon="6.9529">
        <ele>787</ele>
        <time>2026-05-09T16:13:44.720Z</time>
      </trkpt>
      <trkpt lat="47.91413" lon="6.9529">
        <ele>787</ele>
        <time>2026-05-09T16:13:45.721Z</time>
      </trkpt>
      <trkpt lat="47.91413" lon="6.9529">
        <ele>787</ele>
        <time>2026-05-09T16:13:46.720Z</time>
      </trkpt>
      <trkpt lat="47.91414" lon="6.95291">
        <ele>787</ele>
        <time>2026-05-09T16:13:47.720Z</time>
      </trkpt>
      <trkpt lat="47.91414" lon="6.95293">
        <ele>787</ele>
        <time>2026-05-09T16:13:48.721Z</time>
      </trkpt>
      <trkpt lat="47.91414" lon="6.95295">
        <ele>787</ele>
        <time>2026-05-09T16:13:49.721Z</time>
      </trkpt>
      <trkpt lat="47.91414" lon="6.95296">
        <ele>787</ele>
        <time>2026-05-09T16:13:50.720Z</time>
      </trkpt>
      <trkpt lat="47.91414" lon="6.95298">
        <ele>786</ele>
        <time>2026-05-09T16:13:51.720Z</time>
      </trkpt>
      <trkpt lat="47.91415" lon="6.95299">
        <ele>786</ele>
        <time>2026-05-09T16:13:52.720Z</time>
      </trkpt>
      <trkpt lat="47.91415" lon="6.95301">
        <ele>786</ele>
        <time>2026-05-09T16:13:53.720Z</time>
      </trkpt>
      <trkpt lat="47.91415" lon="6.95303">
        <ele>786</ele>
        <time>2026-05-09T16:13:54.721Z</time>
      </trkpt>
      <trkpt lat="47.91416" lon="6.95304">
        <ele>786</ele>
        <time>2026-05-09T16:13:55.720Z</time>
      </trkpt>
      <trkpt lat="47.91415" lon="6.95305">
        <ele>786</ele>
        <time>2026-05-09T16:13:56.720Z</time>
      </trkpt>
      <trkpt lat="47.91416" lon="6.95306">
        <ele>787</ele>
        <time>2026-05-09T16:13:57.720Z</time>
      </trkpt>
      <trkpt lat="47.91416" lon="6.95307">
        <ele>787</ele>
        <time>2026-05-09T16:13:58.720Z</time>
      </trkpt>
      <trkpt lat="47.91417" lon="6.95308">
        <ele>787</ele>
        <time>2026-05-09T16:13:59.720Z</time>
      </trkpt>
      <trkpt lat="47.91417" lon="6.9531">
        <ele>787</ele>
        <time>2026-05-09T16:14:00.721Z</time>
      </trkpt>
      <trkpt lat="47.91417" lon="6.95311">
        <ele>787</ele>
        <time>2026-05-09T16:14:01.721Z</time>
      </trkpt>
      <trkpt lat="47.91418" lon="6.95312">
        <ele>787</ele>
        <time>2026-05-09T16:14:02.720Z</time>
      </trkpt>
      <trkpt lat="47.91418" lon="6.95313">
        <ele>787</ele>
        <time>2026-05-09T16:14:03.721Z</time>
      </trkpt>
      <trkpt lat="47.91418" lon="6.95314">
        <ele>787</ele>
        <time>2026-05-09T16:14:04.720Z</time>
      </trkpt>
      <trkpt lat="47.91418" lon="6.95314">
        <ele>787</ele>
        <time>2026-05-09T16:14:05.721Z</time>
      </trkpt>
      <trkpt lat="47.91418" lon="6.95314">
        <ele>787</ele>
        <time>2026-05-09T16:14:06.720Z</time>
      </trkpt>
      <trkpt lat="47.91418" lon="6.95314">
        <ele>786</ele>
        <time>2026-05-09T16:14:07.721Z</time>
      </trkpt>
      <trkpt lat="47.91418" lon="6.95314">
        <ele>786</ele>
        <time>2026-05-09T16:14:08.720Z</time>
      </trkpt>
      <trkpt lat="47.91416" lon="6.9532">
        <ele>788</ele>
        <time>2026-05-09T16:14:40.070Z</time>
      </trkpt>
      <trkpt lat="47.91415" lon="6.95321">
        <ele>788</ele>
        <time>2026-05-09T16:14:41.070Z</time>
      </trkpt>
      <trkpt lat="47.91415" lon="6.95323">
        <ele>788</ele>
        <time>2026-05-09T16:14:42.070Z</time>
      </trkpt>
      <trkpt lat="47.91415" lon="6.95325">
        <ele>788</ele>
        <time>2026-05-09T16:14:43.070Z</time>
      </trkpt>
      <trkpt lat="47.91415" lon="6.95327">
        <ele>788</ele>
        <time>2026-05-09T16:14:44.070Z</time>
      </trkpt>
      <trkpt lat="47.91415" lon="6.95328">
        <ele>788</ele>
        <time>2026-05-09T16:14:45.070Z</time>
      </trkpt>
      <trkpt lat="47.91415" lon="6.9533">
        <ele>787</ele>
        <time>2026-05-09T16:14:46.070Z</time>
      </trkpt>
      <trkpt lat="47.91414" lon="6.95332">
        <ele>787</ele>
        <time>2026-05-09T16:14:47.070Z</time>
      </trkpt>
      <trkpt lat="47.91414" lon="6.95334">
        <ele>787</ele>
        <time>2026-05-09T16:14:48.069Z</time>
      </trkpt>
      <trkpt lat="47.91414" lon="6.95336">
        <ele>787</ele>
        <time>2026-05-09T16:14:49.070Z</time>
      </trkpt>
      <trkpt lat="47.91414" lon="6.95339">
        <ele>787</ele>
        <time>2026-05-09T16:14:50.069Z</time>
      </trkpt>
      <trkpt lat="47.91414" lon="6.9534">
        <ele>787</ele>
        <time>2026-05-09T16:14:51.070Z</time>
      </trkpt>
      <trkpt lat="47.91413" lon="6.95342">
        <ele>787</ele>
        <time>2026-05-09T16:14:52.069Z</time>
      </trkpt>
      <trkpt lat="47.91413" lon="6.95343">
        <ele>787</ele>
        <time>2026-05-09T16:14:53.069Z</time>
      </trkpt>
      <trkpt lat="47.91413" lon="6.95346">
        <ele>787</ele>
        <time>2026-05-09T16:14:54.069Z</time>
      </trkpt>
      <trkpt lat="47.91413" lon="6.95347">
        <ele>787</ele>
        <time>2026-05-09T16:14:55.069Z</time>
      </trkpt>
      <trkpt lat="47.91413" lon="6.95349">
        <ele>787</ele>
        <time>2026-05-09T16:14:56.069Z</time>
      </trkpt>
      <trkpt lat="47.91413" lon="6.95351">
        <ele>787</ele>
        <time>2026-05-09T16:14:57.070Z</time>
      </trkpt>
      <trkpt lat="47.91413" lon="6.95353">
        <ele>787</ele>
        <time>2026-05-09T16:14:58.070Z</time>
      </trkpt>
      <trkpt lat="47.91413" lon="6.95355">
        <ele>787</ele>
        <time>2026-05-09T16:14:59.070Z</time>
      </trkpt>
      <trkpt lat="47.91412" lon="6.95357">
        <ele>787</ele>
        <time>2026-05-09T16:15:00.069Z</time>
      </trkpt>
      <trkpt lat="47.91412" lon="6.95359">
        <ele>787</ele>
        <time>2026-05-09T16:15:01.069Z</time>
      </trkpt>
      <trkpt lat="47.91412" lon="6.95361">
        <ele>787</ele>
        <time>2026-05-09T16:15:02.069Z</time>
      </trkpt>
      <trkpt lat="47.91412" lon="6.95363">
        <ele>787</ele>
        <time>2026-05-09T16:15:03.070Z</time>
      </trkpt>
      <trkpt lat="47.91411" lon="6.95364">
        <ele>787</ele>
        <time>2026-05-09T16:15:04.070Z</time>
      </trkpt>
      <trkpt lat="47.91411" lon="6.95366">
        <ele>786</ele>
        <time>2026-05-09T16:15:05.070Z</time>
      </trkpt>
      <trkpt lat="47.91411" lon="6.95367">
        <ele>786</ele>
        <time>2026-05-09T16:15:06.070Z</time>
      </trkpt>
      <trkpt lat="47.9141" lon="6.95369">
        <ele>786</ele>
        <time>2026-05-09T16:15:07.070Z</time>
      </trkpt>
      <trkpt lat="47.9141" lon="6.95371">
        <ele>786</ele>
        <time>2026-05-09T16:15:08.070Z</time>
      </trkpt>
      <trkpt lat="47.9141" lon="6.95373">
        <ele>786</ele>
        <time>2026-05-09T16:15:09.070Z</time>
      </trkpt>
      <trkpt lat="47.9141" lon="6.95374">
        <ele>786</ele>
        <time>2026-05-09T16:15:10.069Z</time>
      </trkpt>
      <trkpt lat="47.9141" lon="6.95375">
        <ele>786</ele>
        <time>2026-05-09T16:15:11.069Z</time>
      </trkpt>
      <trkpt lat="47.91409" lon="6.95378">
        <ele>786</ele>
        <time>2026-05-09T16:15:12.069Z</time>
      </trkpt>
      <trkpt lat="47.91409" lon="6.95379">
        <ele>786</ele>
        <time>2026-05-09T16:15:13.069Z</time>
      </trkpt>
      <trkpt lat="47.91409" lon="6.95381">
        <ele>786</ele>
        <time>2026-05-09T16:15:14.070Z</time>
      </trkpt>
      <trkpt lat="47.91409" lon="6.95382">
        <ele>786</ele>
        <time>2026-05-09T16:15:15.070Z</time>
      </trkpt>
      <trkpt lat="47.91409" lon="6.95384">
        <ele>787</ele>
        <time>2026-05-09T16:15:16.070Z</time>
      </trkpt>
      <trkpt lat="47.91409" lon="6.95385">
        <ele>786</ele>
        <time>2026-05-09T16:15:17.070Z</time>
      </trkpt>
      <trkpt lat="47.91408" lon="6.95387">
        <ele>786</ele>
        <time>2026-05-09T16:15:18.070Z</time>
      </trkpt>
      <trkpt lat="47.91408" lon="6.95389">
        <ele>786</ele>
        <time>2026-05-09T16:15:19.069Z</time>
      </trkpt>
      <trkpt lat="47.91408" lon="6.9539">
        <ele>786</ele>
        <time>2026-05-09T16:15:20.069Z</time>
      </trkpt>
      <trkpt lat="47.91408" lon="6.95391">
        <ele>786</ele>
        <time>2026-05-09T16:15:21.070Z</time>
      </trkpt>
      <trkpt lat="47.91407" lon="6.95394">
        <ele>786</ele>
        <time>2026-05-09T16:15:22.069Z</time>
      </trkpt>
      <trkpt lat="47.91407" lon="6.95395">
        <ele>785</ele>
        <time>2026-05-09T16:15:23.069Z</time>
      </trkpt>
      <trkpt lat="47.91407" lon="6.95396">
        <ele>785</ele>
        <time>2026-05-09T16:15:24.070Z</time>
      </trkpt>
      <trkpt lat="47.91407" lon="6.95398">
        <ele>785</ele>
        <time>2026-05-09T16:15:25.070Z</time>
      </trkpt>
      <trkpt lat="47.91407" lon="6.954">
        <ele>785</ele>
        <time>2026-05-09T16:15:26.070Z</time>
      </trkpt>
      <trkpt lat="47.91407" lon="6.95401">
        <ele>785</ele>
        <time>2026-05-09T16:15:27.070Z</time>
      </trkpt>
      <trkpt lat="47.91407" lon="6.95403">
        <ele>785</ele>
        <time>2026-05-09T16:15:28.069Z</time>
      </trkpt>
      <trkpt lat="47.91407" lon="6.95404">
        <ele>785</ele>
        <time>2026-05-09T16:15:29.069Z</time>
      </trkpt>
      <trkpt lat="47.91407" lon="6.95406">
        <ele>786</ele>
        <time>2026-05-09T16:15:30.069Z</time>
      </trkpt>
      <trkpt lat="47.91407" lon="6.95408">
        <ele>786</ele>
        <time>2026-05-09T16:15:31.069Z</time>
      </trkpt>
      <trkpt lat="47.91406" lon="6.9541">
        <ele>786</ele>
        <time>2026-05-09T16:15:32.069Z</time>
      </trkpt>
      <trkpt lat="47.91406" lon="6.95411">
        <ele>786</ele>
        <time>2026-05-09T16:15:33.069Z</time>
      </trkpt>
      <trkpt lat="47.91405" lon="6.95413">
        <ele>785</ele>
        <time>2026-05-09T16:15:34.070Z</time>
      </trkpt>
      <trkpt lat="47.91405" lon="6.95415">
        <ele>785</ele>
        <time>2026-05-09T16:15:35.070Z</time>
      </trkpt>
      <trkpt lat="47.91404" lon="6.95416">
        <ele>785</ele>
        <time>2026-05-09T16:15:36.069Z</time>
      </trkpt>
      <trkpt lat="47.91403" lon="6.95417">
        <ele>786</ele>
        <time>2026-05-09T16:15:37.069Z</time>
      </trkpt>
      <trkpt lat="47.91402" lon="6.95418">
        <ele>786</ele>
        <time>2026-05-09T16:15:38.069Z</time>
      </trkpt>
      <trkpt lat="47.91401" lon="6.95418">
        <ele>786</ele>
        <time>2026-05-09T16:15:39.070Z</time>
      </trkpt>
      <trkpt lat="47.914" lon="6.95418">
        <ele>786</ele>
        <time>2026-05-09T16:15:40.070Z</time>
      </trkpt>
      <trkpt lat="47.91399" lon="6.95418">
        <ele>786</ele>
        <time>2026-05-09T16:15:41.070Z</time>
      </trkpt>
      <trkpt lat="47.91398" lon="6.95418">
        <ele>786</ele>
        <time>2026-05-09T16:15:42.070Z</time>
      </trkpt>
      <trkpt lat="47.91397" lon="6.95417">
        <ele>786</ele>
        <time>2026-05-09T16:15:43.069Z</time>
      </trkpt>
      <trkpt lat="47.91396" lon="6.95416">
        <ele>787</ele>
        <time>2026-05-09T16:15:44.070Z</time>
      </trkpt>
      <trkpt lat="47.91395" lon="6.95415">
        <ele>787</ele>
        <time>2026-05-09T16:15:45.070Z</time>
      </trkpt>
      <trkpt lat="47.91395" lon="6.95413">
        <ele>787</ele>
        <time>2026-05-09T16:15:46.070Z</time>
      </trkpt>
      <trkpt lat="47.91394" lon="6.95412">
        <ele>787</ele>
        <time>2026-05-09T16:15:47.070Z</time>
      </trkpt>
      <trkpt lat="47.91393" lon="6.9541">
        <ele>787</ele>
        <time>2026-05-09T16:15:48.069Z</time>
      </trkpt>
      <trkpt lat="47.91393" lon="6.95408">
        <ele>787</ele>
        <time>2026-05-09T16:15:49.070Z</time>
      </trkpt>
      <trkpt lat="47.91393" lon="6.95406">
        <ele>787</ele>
        <time>2026-05-09T16:15:50.070Z</time>
      </trkpt>
      <trkpt lat="47.91393" lon="6.95404">
        <ele>787</ele>
        <time>2026-05-09T16:15:51.069Z</time>
      </trkpt>
      <trkpt lat="47.91393" lon="6.95403">
        <ele>787</ele>
        <time>2026-05-09T16:15:52.070Z</time>
      </trkpt>
      <trkpt lat="47.91392" lon="6.95401">
        <ele>787</ele>
        <time>2026-05-09T16:15:53.070Z</time>
      </trkpt>
      <trkpt lat="47.91392" lon="6.95399">
        <ele>787</ele>
        <time>2026-05-09T16:15:54.070Z</time>
      </trkpt>
      <trkpt lat="47.91392" lon="6.95397">
        <ele>787</ele>
        <time>2026-05-09T16:15:55.070Z</time>
      </trkpt>
      <trkpt lat="47.91392" lon="6.95395">
        <ele>787</ele>
        <time>2026-05-09T16:15:56.069Z</time>
      </trkpt>
      <trkpt lat="47.91392" lon="6.95394">
        <ele>787</ele>
        <time>2026-05-09T16:15:57.069Z</time>
      </trkpt>
      <trkpt lat="47.91391" lon="6.95392">
        <ele>787</ele>
        <time>2026-05-09T16:15:58.069Z</time>
      </trkpt>
      <trkpt lat="47.91391" lon="6.9539">
        <ele>787</ele>
        <time>2026-05-09T16:15:59.069Z</time>
      </trkpt>
      <trkpt lat="47.91391" lon="6.95388">
        <ele>787</ele>
        <time>2026-05-09T16:16:00.069Z</time>
      </trkpt>
      <trkpt lat="47.91391" lon="6.95387">
        <ele>787</ele>
        <time>2026-05-09T16:16:01.069Z</time>
      </trkpt>
      <trkpt lat="47.91391" lon="6.95385">
        <ele>787</ele>
        <time>2026-05-09T16:16:02.069Z</time>
      </trkpt>
      <trkpt lat="47.91391" lon="6.95383">
        <ele>787</ele>
        <time>2026-05-09T16:16:03.069Z</time>
      </trkpt>
      <trkpt lat="47.91391" lon="6.95381">
        <ele>787</ele>
        <time>2026-05-09T16:16:04.070Z</time>
      </trkpt>
      <trkpt lat="47.91391" lon="6.9538">
        <ele>787</ele>
        <time>2026-05-09T16:16:05.070Z</time>
      </trkpt>
      <trkpt lat="47.91391" lon="6.95378">
        <ele>787</ele>
        <time>2026-05-09T16:16:06.069Z</time>
      </trkpt>
      <trkpt lat="47.91391" lon="6.95376">
        <ele>787</ele>
        <time>2026-05-09T16:16:07.070Z</time>
      </trkpt>
      <trkpt lat="47.91391" lon="6.95375">
        <ele>788</ele>
        <time>2026-05-09T16:16:08.070Z</time>
      </trkpt>
      <trkpt lat="47.91391" lon="6.95373">
        <ele>788</ele>
        <time>2026-05-09T16:16:09.070Z</time>
      </trkpt>
      <trkpt lat="47.9139" lon="6.95371">
        <ele>788</ele>
        <time>2026-05-09T16:16:10.070Z</time>
      </trkpt>
      <trkpt lat="47.9139" lon="6.9537">
        <ele>787</ele>
        <time>2026-05-09T16:16:11.070Z</time>
      </trkpt>
      <trkpt lat="47.9139" lon="6.95368">
        <ele>787</ele>
        <time>2026-05-09T16:16:12.069Z</time>
      </trkpt>
      <trkpt lat="47.9139" lon="6.95367">
        <ele>787</ele>
        <time>2026-05-09T16:16:13.069Z</time>
      </trkpt>
      <trkpt lat="47.9139" lon="6.95365">
        <ele>787</ele>
        <time>2026-05-09T16:16:14.069Z</time>
      </trkpt>
      <trkpt lat="47.9139" lon="6.95363">
        <ele>786</ele>
        <time>2026-05-09T16:16:15.070Z</time>
      </trkpt>
      <trkpt lat="47.9139" lon="6.95361">
        <ele>786</ele>
        <time>2026-05-09T16:16:16.070Z</time>
      </trkpt>
      <trkpt lat="47.91389" lon="6.95359">
        <ele>786</ele>
        <time>2026-05-09T16:16:17.070Z</time>
      </trkpt>
      <trkpt lat="47.91389" lon="6.95357">
        <ele>786</ele>
        <time>2026-05-09T16:16:18.070Z</time>
      </trkpt>
      <trkpt lat="47.91389" lon="6.95356">
        <ele>787</ele>
        <time>2026-05-09T16:16:19.069Z</time>
      </trkpt>
      <trkpt lat="47.91389" lon="6.95354">
        <ele>787</ele>
        <time>2026-05-09T16:16:20.070Z</time>
      </trkpt>
      <trkpt lat="47.91389" lon="6.95352">
        <ele>787</ele>
        <time>2026-05-09T16:16:21.070Z</time>
      </trkpt>
      <trkpt lat="47.91389" lon="6.9535">
        <ele>787</ele>
        <time>2026-05-09T16:16:22.070Z</time>
      </trkpt>
      <trkpt lat="47.91389" lon="6.95349">
        <ele>788</ele>
        <time>2026-05-09T16:16:23.069Z</time>
      </trkpt>
      <trkpt lat="47.91388" lon="6.95347">
        <ele>788</ele>
        <time>2026-05-09T16:16:24.070Z</time>
      </trkpt>
      <trkpt lat="47.91388" lon="6.95346">
        <ele>787</ele>
        <time>2026-05-09T16:16:25.069Z</time>
      </trkpt>
      <trkpt lat="47.91388" lon="6.95343">
        <ele>788</ele>
        <time>2026-05-09T16:16:26.069Z</time>
      </trkpt>
      <trkpt lat="47.91388" lon="6.95342">
        <ele>788</ele>
        <time>2026-05-09T16:16:27.069Z</time>
      </trkpt>
      <trkpt lat="47.91388" lon="6.9534">
        <ele>788</ele>
        <time>2026-05-09T16:16:28.069Z</time>
      </trkpt>
      <trkpt lat="47.91388" lon="6.95338">
        <ele>789</ele>
        <time>2026-05-09T16:16:29.069Z</time>
      </trkpt>
      <trkpt lat="47.91388" lon="6.95336">
        <ele>789</ele>
        <time>2026-05-09T16:16:30.069Z</time>
      </trkpt>
      <trkpt lat="47.91387" lon="6.95334">
        <ele>790</ele>
        <time>2026-05-09T16:16:31.070Z</time>
      </trkpt>
      <trkpt lat="47.91387" lon="6.95332">
        <ele>790</ele>
        <time>2026-05-09T16:16:32.070Z</time>
      </trkpt>
      <trkpt lat="47.91387" lon="6.95331">
        <ele>791</ele>
        <time>2026-05-09T16:16:33.070Z</time>
      </trkpt>
      <trkpt lat="47.91386" lon="6.95329">
        <ele>791</ele>
        <time>2026-05-09T16:16:34.070Z</time>
      </trkpt>
      <trkpt lat="47.91386" lon="6.95327">
        <ele>792</ele>
        <time>2026-05-09T16:16:35.070Z</time>
      </trkpt>
      <trkpt lat="47.91386" lon="6.95325">
        <ele>792</ele>
        <time>2026-05-09T16:16:36.070Z</time>
      </trkpt>
      <trkpt lat="47.91386" lon="6.95324">
        <ele>791</ele>
        <time>2026-05-09T16:16:37.069Z</time>
      </trkpt>
      <trkpt lat="47.91386" lon="6.95322">
        <ele>791</ele>
        <time>2026-05-09T16:16:38.069Z</time>
      </trkpt>
      <trkpt lat="47.91386" lon="6.9532">
        <ele>792</ele>
        <time>2026-05-09T16:16:39.069Z</time>
      </trkpt>
      <trkpt lat="47.91385" lon="6.95318">
        <ele>792</ele>
        <time>2026-05-09T16:16:40.070Z</time>
      </trkpt>
      <trkpt lat="47.91385" lon="6.95316">
        <ele>792</ele>
        <time>2026-05-09T16:16:41.069Z</time>
      </trkpt>
      <trkpt lat="47.91385" lon="6.95314">
        <ele>792</ele>
        <time>2026-05-09T16:16:42.069Z</time>
      </trkpt>
      <trkpt lat="47.91385" lon="6.95312">
        <ele>792</ele>
        <time>2026-05-09T16:16:43.069Z</time>
      </trkpt>
      <trkpt lat="47.91384" lon="6.9531">
        <ele>792</ele>
        <time>2026-05-09T16:16:44.069Z</time>
      </trkpt>
      <trkpt lat="47.91384" lon="6.95309">
        <ele>792</ele>
        <time>2026-05-09T16:16:45.069Z</time>
      </trkpt>
      <trkpt lat="47.91384" lon="6.95306">
        <ele>793</ele>
        <time>2026-05-09T16:16:46.069Z</time>
      </trkpt>
      <trkpt lat="47.91384" lon="6.95304">
        <ele>793</ele>
        <time>2026-05-09T16:16:47.069Z</time>
      </trkpt>
      <trkpt lat="47.91383" lon="6.95303">
        <ele>793</ele>
        <time>2026-05-09T16:16:48.069Z</time>
      </trkpt>
      <trkpt lat="47.91383" lon="6.95301">
        <ele>792</ele>
        <time>2026-05-09T16:16:49.070Z</time>
      </trkpt>
      <trkpt lat="47.91383" lon="6.953">
        <ele>792</ele>
        <time>2026-05-09T16:16:50.070Z</time>
      </trkpt>
      <trkpt lat="47.91383" lon="6.95298">
        <ele>792</ele>
        <time>2026-05-09T16:16:51.070Z</time>
      </trkpt>
      <trkpt lat="47.91382" lon="6.95296">
        <ele>792</ele>
        <time>2026-05-09T16:16:52.070Z</time>
      </trkpt>
      <trkpt lat="47.91382" lon="6.95295">
        <ele>792</ele>
        <time>2026-05-09T16:16:53.070Z</time>
      </trkpt>
      <trkpt lat="47.91382" lon="6.95293">
        <ele>792</ele>
        <time>2026-05-09T16:16:54.070Z</time>
      </trkpt>
      <trkpt lat="47.91381" lon="6.95292">
        <ele>791</ele>
        <time>2026-05-09T16:16:55.070Z</time>
      </trkpt>
      <trkpt lat="47.91381" lon="6.9529">
        <ele>791</ele>
        <time>2026-05-09T16:16:56.070Z</time>
      </trkpt>
      <trkpt lat="47.9138" lon="6.95288">
        <ele>791</ele>
        <time>2026-05-09T16:16:57.070Z</time>
      </trkpt>
      <trkpt lat="47.9138" lon="6.95287">
        <ele>790</ele>
        <time>2026-05-09T16:16:58.069Z</time>
      </trkpt>
      <trkpt lat="47.9138" lon="6.95285">
        <ele>790</ele>
        <time>2026-05-09T16:16:59.070Z</time>
      </trkpt>
      <trkpt lat="47.91379" lon="6.95283">
        <ele>790</ele>
        <time>2026-05-09T16:17:00.069Z</time>
      </trkpt>
      <trkpt lat="47.91379" lon="6.95282">
        <ele>790</ele>
        <time>2026-05-09T16:17:01.070Z</time>
      </trkpt>
      <trkpt lat="47.91378" lon="6.9528">
        <ele>790</ele>
        <time>2026-05-09T16:17:02.070Z</time>
      </trkpt>
      <trkpt lat="47.91378" lon="6.95279">
        <ele>790</ele>
        <time>2026-05-09T16:17:03.070Z</time>
      </trkpt>
      <trkpt lat="47.91378" lon="6.95277">
        <ele>791</ele>
        <time>2026-05-09T16:17:04.070Z</time>
      </trkpt>
      <trkpt lat="47.91377" lon="6.95275">
        <ele>791</ele>
        <time>2026-05-09T16:17:05.069Z</time>
      </trkpt>
      <trkpt lat="47.91377" lon="6.95273">
        <ele>790</ele>
        <time>2026-05-09T16:17:06.070Z</time>
      </trkpt>
      <trkpt lat="47.91376" lon="6.95271">
        <ele>790</ele>
        <time>2026-05-09T16:17:07.070Z</time>
      </trkpt>
      <trkpt lat="47.91376" lon="6.9527">
        <ele>790</ele>
        <time>2026-05-09T16:17:08.070Z</time>
      </trkpt>
      <trkpt lat="47.91376" lon="6.95268">
        <ele>790</ele>
        <time>2026-05-09T16:17:09.070Z</time>
      </trkpt>
      <trkpt lat="47.91375" lon="6.95266">
        <ele>790</ele>
        <time>2026-05-09T16:17:10.070Z</time>
      </trkpt>
      <trkpt lat="47.91375" lon="6.95264">
        <ele>790</ele>
        <time>2026-05-09T16:17:11.070Z</time>
      </trkpt>
      <trkpt lat="47.91374" lon="6.95262">
        <ele>790</ele>
        <time>2026-05-09T16:17:12.069Z</time>
      </trkpt>
      <trkpt lat="47.91374" lon="6.9526">
        <ele>791</ele>
        <time>2026-05-09T16:17:13.069Z</time>
      </trkpt>
      <trkpt lat="47.91373" lon="6.95258">
        <ele>791</ele>
        <time>2026-05-09T16:17:14.069Z</time>
      </trkpt>
      <trkpt lat="47.91373" lon="6.95256">
        <ele>791</ele>
        <time>2026-05-09T16:17:15.069Z</time>
      </trkpt>
      <trkpt lat="47.91372" lon="6.95254">
        <ele>791</ele>
        <time>2026-05-09T16:17:16.069Z</time>
      </trkpt>
      <trkpt lat="47.91371" lon="6.95252">
        <ele>791</ele>
        <time>2026-05-09T16:17:17.069Z</time>
      </trkpt>
      <trkpt lat="47.91371" lon="6.9525">
        <ele>791</ele>
        <time>2026-05-09T16:17:18.070Z</time>
      </trkpt>
      <trkpt lat="47.9137" lon="6.95248">
        <ele>791</ele>
        <time>2026-05-09T16:17:19.070Z</time>
      </trkpt>
      <trkpt lat="47.9137" lon="6.95246">
        <ele>791</ele>
        <time>2026-05-09T16:17:20.070Z</time>
      </trkpt>
      <trkpt lat="47.91369" lon="6.95244">
        <ele>790</ele>
        <time>2026-05-09T16:17:21.069Z</time>
      </trkpt>
      <trkpt lat="47.91368" lon="6.95242">
        <ele>790</ele>
        <time>2026-05-09T16:17:22.069Z</time>
      </trkpt>
      <trkpt lat="47.91367" lon="6.95241">
        <ele>790</ele>
        <time>2026-05-09T16:17:23.070Z</time>
      </trkpt>
      <trkpt lat="47.91367" lon="6.95239">
        <ele>790</ele>
        <time>2026-05-09T16:17:24.070Z</time>
      </trkpt>
      <trkpt lat="47.91366" lon="6.95237">
        <ele>790</ele>
        <time>2026-05-09T16:17:25.070Z</time>
      </trkpt>
      <trkpt lat="47.91365" lon="6.95235">
        <ele>790</ele>
        <time>2026-05-09T16:17:26.070Z</time>
      </trkpt>
      <trkpt lat="47.91365" lon="6.95233">
        <ele>791</ele>
        <time>2026-05-09T16:17:27.070Z</time>
      </trkpt>
      <trkpt lat="47.91364" lon="6.95231">
        <ele>791</ele>
        <time>2026-05-09T16:17:28.070Z</time>
      </trkpt>
      <trkpt lat="47.91364" lon="6.9523">
        <ele>791</ele>
        <time>2026-05-09T16:17:29.070Z</time>
      </trkpt>
      <trkpt lat="47.91363" lon="6.95228">
        <ele>791</ele>
        <time>2026-05-09T16:17:30.069Z</time>
      </trkpt>
      <trkpt lat="47.91363" lon="6.95227">
        <ele>792</ele>
        <time>2026-05-09T16:17:31.069Z</time>
      </trkpt>
      <trkpt lat="47.91362" lon="6.95225">
        <ele>792</ele>
        <time>2026-05-09T16:17:32.069Z</time>
      </trkpt>
      <trkpt lat="47.91361" lon="6.95223">
        <ele>793</ele>
        <time>2026-05-09T16:17:33.069Z</time>
      </trkpt>
      <trkpt lat="47.91361" lon="6.95221">
        <ele>793</ele>
        <time>2026-05-09T16:17:34.069Z</time>
      </trkpt>
      <trkpt lat="47.9136" lon="6.9522">
        <ele>793</ele>
        <time>2026-05-09T16:17:35.069Z</time>
      </trkpt>
      <trkpt lat="47.91359" lon="6.95219">
        <ele>793</ele>
        <time>2026-05-09T16:17:36.070Z</time>
      </trkpt>
      <trkpt lat="47.91359" lon="6.95217">
        <ele>794</ele>
        <time>2026-05-09T16:17:37.070Z</time>
      </trkpt>
      <trkpt lat="47.91358" lon="6.95215">
        <ele>794</ele>
        <time>2026-05-09T16:17:38.070Z</time>
      </trkpt>
      <trkpt lat="47.91357" lon="6.95214">
        <ele>794</ele>
        <time>2026-05-09T16:17:39.070Z</time>
      </trkpt>
      <trkpt lat="47.91356" lon="6.95213">
        <ele>794</ele>
        <time>2026-05-09T16:17:40.070Z</time>
      </trkpt>
      <trkpt lat="47.91356" lon="6.95211">
        <ele>794</ele>
        <time>2026-05-09T16:17:41.070Z</time>
      </trkpt>
      <trkpt lat="47.91355" lon="6.9521">
        <ele>794</ele>
        <time>2026-05-09T16:17:42.070Z</time>
      </trkpt>
      <trkpt lat="47.91354" lon="6.95208">
        <ele>794</ele>
        <time>2026-05-09T16:17:43.070Z</time>
      </trkpt>
      <trkpt lat="47.91354" lon="6.95207">
        <ele>794</ele>
        <time>2026-05-09T16:17:44.070Z</time>
      </trkpt>
      <trkpt lat="47.91353" lon="6.95205">
        <ele>794</ele>
        <time>2026-05-09T16:17:45.070Z</time>
      </trkpt>
      <trkpt lat="47.91353" lon="6.95204">
        <ele>794</ele>
        <time>2026-05-09T16:17:46.070Z</time>
      </trkpt>
      <trkpt lat="47.91352" lon="6.95202">
        <ele>795</ele>
        <time>2026-05-09T16:17:47.069Z</time>
      </trkpt>
      <trkpt lat="47.91352" lon="6.952">
        <ele>795</ele>
        <time>2026-05-09T16:17:48.069Z</time>
      </trkpt>
      <trkpt lat="47.91352" lon="6.95199">
        <ele>795</ele>
        <time>2026-05-09T16:17:49.069Z</time>
      </trkpt>
      <trkpt lat="47.91352" lon="6.95198">
        <ele>795</ele>
        <time>2026-05-09T16:17:50.069Z</time>
      </trkpt>
      <trkpt lat="47.91352" lon="6.95197">
        <ele>795</ele>
        <time>2026-05-09T16:17:51.070Z</time>
      </trkpt>
      <trkpt lat="47.91352" lon="6.95197">
        <ele>795</ele>
        <time>2026-05-09T16:17:52.069Z</time>
      </trkpt>
      <trkpt lat="47.91348" lon="6.95194">
        <ele>796</ele>
        <time>2026-05-09T16:18:03.201Z</time>
      </trkpt>
      <trkpt lat="47.91348" lon="6.95193">
        <ele>796</ele>
        <time>2026-05-09T16:18:04.201Z</time>
      </trkpt>
      <trkpt lat="47.91348" lon="6.95193">
        <ele>796</ele>
        <time>2026-05-09T16:18:05.202Z</time>
      </trkpt>
      <trkpt lat="47.91348" lon="6.95193">
        <ele>797</ele>
        <time>2026-05-09T16:18:06.202Z</time>
      </trkpt>
      <trkpt lat="47.91348" lon="6.95194">
        <ele>790</ele>
        <time>2026-05-09T16:18:25.389Z</time>
      </trkpt>
      <trkpt lat="47.91348" lon="6.95193">
        <ele>790</ele>
        <time>2026-05-09T16:18:26.389Z</time>
      </trkpt>
      <trkpt lat="47.91348" lon="6.95194">
        <ele>789</ele>
        <time>2026-05-09T16:18:27.388Z</time>
      </trkpt>
      <trkpt lat="47.91347" lon="6.95194">
        <ele>789</ele>
        <time>2026-05-09T16:18:28.389Z</time>
      </trkpt>
      <trkpt lat="47.91347" lon="6.95194">
        <ele>788</ele>
        <time>2026-05-09T16:18:29.388Z</time>
      </trkpt>
      <trkpt lat="47.91347" lon="6.95194">
        <ele>788</ele>
        <time>2026-05-09T16:18:30.389Z</time>
      </trkpt>
      <trkpt lat="47.91347" lon="6.95194">
        <ele>787</ele>
        <time>2026-05-09T16:18:31.388Z</time>
      </trkpt>
      <trkpt lat="47.91347" lon="6.95194">
        <ele>787</ele>
        <time>2026-05-09T16:18:32.389Z</time>
      </trkpt>
      <trkpt lat="47.91347" lon="6.95194">
        <ele>786</ele>
        <time>2026-05-09T16:18:33.389Z</time>
      </trkpt>
      <trkpt lat="47.91347" lon="6.95194">
        <ele>786</ele>
        <time>2026-05-09T16:18:34.389Z</time>
      </trkpt>
      <trkpt lat="47.91347" lon="6.95194">
        <ele>786</ele>
        <time>2026-05-09T16:18:35.388Z</time>
      </trkpt>
      <trkpt lat="47.91347" lon="6.95194">
        <ele>785</ele>
        <time>2026-05-09T16:18:36.389Z</time>
      </trkpt>
      <trkpt lat="47.91347" lon="6.95194">
        <ele>785</ele>
        <time>2026-05-09T16:18:37.389Z</time>
      </trkpt>
      <trkpt lat="47.91347" lon="6.95195">
        <ele>784</ele>
        <time>2026-05-09T16:18:38.388Z</time>
      </trkpt>
      <trkpt lat="47.91347" lon="6.95195">
        <ele>784</ele>
        <time>2026-05-09T16:18:39.389Z</time>
      </trkpt>
      <trkpt lat="47.91347" lon="6.95195">
        <ele>783</ele>
        <time>2026-05-09T16:18:40.388Z</time>
      </trkpt>
      <trkpt lat="47.91347" lon="6.95195">
        <ele>782</ele>
        <time>2026-05-09T16:18:41.389Z</time>
      </trkpt>
      <trkpt lat="47.91347" lon="6.95195">
        <ele>781</ele>
        <time>2026-05-09T16:18:42.388Z</time>
      </trkpt>
      <trkpt lat="47.91346" lon="6.95195">
        <ele>781</ele>
        <time>2026-05-09T16:18:43.389Z</time>
      </trkpt>
      <trkpt lat="47.91346" lon="6.95195">
        <ele>781</ele>
        <time>2026-05-09T16:18:44.388Z</time>
      </trkpt>
      <trkpt lat="47.91346" lon="6.95195">
        <ele>781</ele>
        <time>2026-05-09T16:18:45.389Z</time>
      </trkpt>
      <trkpt lat="47.91346" lon="6.95195">
        <ele>781</ele>
        <time>2026-05-09T16:18:46.388Z</time>
      </trkpt>
      <trkpt lat="47.91347" lon="6.95194">
        <ele>781</ele>
        <time>2026-05-09T16:18:47.388Z</time>
      </trkpt>
      <trkpt lat="47.91347" lon="6.95194">
        <ele>782</ele>
        <time>2026-05-09T16:18:48.389Z</time>
      </trkpt>
      <trkpt lat="47.91348" lon="6.95194">
        <ele>783</ele>
        <time>2026-05-09T16:18:49.389Z</time>
      </trkpt>
      <trkpt lat="47.91348" lon="6.95194">
        <ele>783</ele>
        <time>2026-05-09T16:18:50.388Z</time>
      </trkpt>
      <trkpt lat="47.91348" lon="6.95194">
        <ele>784</ele>
        <time>2026-05-09T16:18:51.388Z</time>
      </trkpt>
      <trkpt lat="47.91348" lon="6.95194">
        <ele>784</ele>
        <time>2026-05-09T16:18:52.388Z</time>
      </trkpt>
      <trkpt lat="47.91348" lon="6.95194">
        <ele>784</ele>
        <time>2026-05-09T16:18:53.388Z</time>
      </trkpt>
      <trkpt lat="47.91349" lon="6.95194">
        <ele>784</ele>
        <time>2026-05-09T16:18:54.389Z</time>
      </trkpt>
      <trkpt lat="47.91349" lon="6.95194">
        <ele>784</ele>
        <time>2026-05-09T16:18:55.388Z</time>
      </trkpt>
      <trkpt lat="47.91349" lon="6.95194">
        <ele>785</ele>
        <time>2026-05-09T16:18:56.389Z</time>
      </trkpt>
      <trkpt lat="47.91349" lon="6.95194">
        <ele>785</ele>
        <time>2026-05-09T16:18:57.389Z</time>
      </trkpt>
      <trkpt lat="47.91348" lon="6.95194">
        <ele>786</ele>
        <time>2026-05-09T16:18:58.388Z</time>
      </trkpt>
      <trkpt lat="47.91348" lon="6.95194">
        <ele>786</ele>
        <time>2026-05-09T16:18:59.389Z</time>
      </trkpt>
      <trkpt lat="47.91348" lon="6.95194">
        <ele>786</ele>
        <time>2026-05-09T16:19:00.388Z</time>
      </trkpt>
      <trkpt lat="47.91348" lon="6.95194">
        <ele>787</ele>
        <time>2026-05-09T16:19:01.389Z</time>
      </trkpt>
      <trkpt lat="47.91348" lon="6.95194">
        <ele>787</ele>
        <time>2026-05-09T16:19:02.389Z</time>
      </trkpt>
      <trkpt lat="47.91348" lon="6.95194">
        <ele>788</ele>
        <time>2026-05-09T16:19:03.388Z</time>
      </trkpt>
      <trkpt lat="47.91347" lon="6.95194">
        <ele>788</ele>
        <time>2026-05-09T16:19:04.389Z</time>
      </trkpt>
      <trkpt lat="47.91347" lon="6.95194">
        <ele>788</ele>
        <time>2026-05-09T16:19:05.388Z</time>
      </trkpt>
      <trkpt lat="47.91346" lon="6.95193">
        <ele>788</ele>
        <time>2026-05-09T16:19:06.389Z</time>
      </trkpt>
      <trkpt lat="47.91345" lon="6.95192">
        <ele>788</ele>
        <time>2026-05-09T16:19:07.389Z</time>
      </trkpt>
      <trkpt lat="47.91344" lon="6.9519">
        <ele>789</ele>
        <time>2026-05-09T16:19:08.389Z</time>
      </trkpt>
      <trkpt lat="47.91344" lon="6.95189">
        <ele>789</ele>
        <time>2026-05-09T16:19:09.389Z</time>
      </trkpt>
      <trkpt lat="47.91343" lon="6.95187">
        <ele>789</ele>
        <time>2026-05-09T16:19:10.388Z</time>
      </trkpt>
      <trkpt lat="47.91342" lon="6.95186">
        <ele>789</ele>
        <time>2026-05-09T16:19:11.389Z</time>
      </trkpt>
      <trkpt lat="47.91342" lon="6.95184">
        <ele>790</ele>
        <time>2026-05-09T16:19:12.388Z</time>
      </trkpt>
      <trkpt lat="47.91341" lon="6.95183">
        <ele>791</ele>
        <time>2026-05-09T16:19:13.389Z</time>
      </trkpt>
      <trkpt lat="47.91341" lon="6.95182">
        <ele>791</ele>
        <time>2026-05-09T16:19:14.388Z</time>
      </trkpt>
      <trkpt lat="47.9134" lon="6.95181">
        <ele>792</ele>
        <time>2026-05-09T16:19:15.388Z</time>
      </trkpt>
      <trkpt lat="47.91339" lon="6.95179">
        <ele>792</ele>
        <time>2026-05-09T16:19:16.389Z</time>
      </trkpt>
      <trkpt lat="47.91338" lon="6.95178">
        <ele>793</ele>
        <time>2026-05-09T16:19:17.388Z</time>
      </trkpt>
      <trkpt lat="47.91337" lon="6.95177">
        <ele>794</ele>
        <time>2026-05-09T16:19:18.389Z</time>
      </trkpt>
      <trkpt lat="47.91337" lon="6.95176">
        <ele>794</ele>
        <time>2026-05-09T16:19:19.388Z</time>
      </trkpt>
      <trkpt lat="47.91336" lon="6.95175">
        <ele>795</ele>
        <time>2026-05-09T16:19:20.389Z</time>
      </trkpt>
      <trkpt lat="47.91336" lon="6.95174">
        <ele>795</ele>
        <time>2026-05-09T16:19:21.388Z</time>
      </trkpt>
      <trkpt lat="47.91335" lon="6.95173">
        <ele>795</ele>
        <time>2026-05-09T16:19:22.389Z</time>
      </trkpt>
      <trkpt lat="47.91335" lon="6.95171">
        <ele>795</ele>
        <time>2026-05-09T16:19:23.389Z</time>
      </trkpt>
      <trkpt lat="47.91334" lon="6.9517">
        <ele>795</ele>
        <time>2026-05-09T16:19:24.388Z</time>
      </trkpt>
      <trkpt lat="47.91334" lon="6.95169">
        <ele>795</ele>
        <time>2026-05-09T16:19:25.388Z</time>
      </trkpt>
      <trkpt lat="47.91333" lon="6.95168">
        <ele>796</ele>
        <time>2026-05-09T16:19:26.388Z</time>
      </trkpt>
      <trkpt lat="47.91333" lon="6.95167">
        <ele>796</ele>
        <time>2026-05-09T16:19:27.389Z</time>
      </trkpt>
      <trkpt lat="47.91332" lon="6.95165">
        <ele>796</ele>
        <time>2026-05-09T16:19:28.388Z</time>
      </trkpt>
      <trkpt lat="47.91332" lon="6.95164">
        <ele>796</ele>
        <time>2026-05-09T16:19:29.389Z</time>
      </trkpt>
      <trkpt lat="47.91331" lon="6.95163">
        <ele>796</ele>
        <time>2026-05-09T16:19:30.388Z</time>
      </trkpt>
      <trkpt lat="47.91331" lon="6.95161">
        <ele>796</ele>
        <time>2026-05-09T16:19:31.389Z</time>
      </trkpt>
      <trkpt lat="47.9133" lon="6.9516">
        <ele>796</ele>
        <time>2026-05-09T16:19:32.389Z</time>
      </trkpt>
      <trkpt lat="47.91329" lon="6.95159">
        <ele>796</ele>
        <time>2026-05-09T16:19:33.388Z</time>
      </trkpt>
      <trkpt lat="47.91328" lon="6.95157">
        <ele>796</ele>
        <time>2026-05-09T16:19:34.389Z</time>
      </trkpt>
      <trkpt lat="47.91328" lon="6.95156">
        <ele>796</ele>
        <time>2026-05-09T16:19:35.388Z</time>
      </trkpt>
      <trkpt lat="47.91327" lon="6.95154">
        <ele>796</ele>
        <time>2026-05-09T16:19:36.389Z</time>
      </trkpt>
      <trkpt lat="47.91327" lon="6.95152">
        <ele>796</ele>
        <time>2026-05-09T16:19:37.388Z</time>
      </trkpt>
      <trkpt lat="47.91326" lon="6.95151">
        <ele>796</ele>
        <time>2026-05-09T16:19:38.389Z</time>
      </trkpt>
      <trkpt lat="47.91325" lon="6.95149">
        <ele>796</ele>
        <time>2026-05-09T16:19:39.388Z</time>
      </trkpt>
      <trkpt lat="47.91324" lon="6.95147">
        <ele>796</ele>
        <time>2026-05-09T16:19:40.389Z</time>
      </trkpt>
      <trkpt lat="47.91323" lon="6.95146">
        <ele>797</ele>
        <time>2026-05-09T16:19:41.388Z</time>
      </trkpt>
      <trkpt lat="47.91323" lon="6.95144">
        <ele>797</ele>
        <time>2026-05-09T16:19:42.389Z</time>
      </trkpt>
      <trkpt lat="47.91322" lon="6.95143">
        <ele>797</ele>
        <time>2026-05-09T16:19:43.388Z</time>
      </trkpt>
      <trkpt lat="47.91321" lon="6.95142">
        <ele>797</ele>
        <time>2026-05-09T16:19:44.388Z</time>
      </trkpt>
      <trkpt lat="47.91321" lon="6.9514">
        <ele>797</ele>
        <time>2026-05-09T16:19:45.389Z</time>
      </trkpt>
      <trkpt lat="47.9132" lon="6.95139">
        <ele>797</ele>
        <time>2026-05-09T16:19:46.388Z</time>
      </trkpt>
      <trkpt lat="47.9132" lon="6.95137">
        <ele>797</ele>
        <time>2026-05-09T16:19:47.389Z</time>
      </trkpt>
      <trkpt lat="47.91319" lon="6.95136">
        <ele>797</ele>
        <time>2026-05-09T16:19:48.389Z</time>
      </trkpt>
      <trkpt lat="47.91319" lon="6.95134">
        <ele>798</ele>
        <time>2026-05-09T16:19:49.389Z</time>
      </trkpt>
      <trkpt lat="47.91318" lon="6.95132">
        <ele>798</ele>
        <time>2026-05-09T16:19:50.388Z</time>
      </trkpt>
      <trkpt lat="47.91318" lon="6.95131">
        <ele>799</ele>
        <time>2026-05-09T16:19:51.389Z</time>
      </trkpt>
      <trkpt lat="47.91317" lon="6.95129">
        <ele>799</ele>
        <time>2026-05-09T16:19:52.389Z</time>
      </trkpt>
      <trkpt lat="47.91316" lon="6.95127">
        <ele>799</ele>
        <time>2026-05-09T16:19:53.388Z</time>
      </trkpt>
      <trkpt lat="47.91316" lon="6.95125">
        <ele>799</ele>
        <time>2026-05-09T16:19:54.389Z</time>
      </trkpt>
      <trkpt lat="47.91315" lon="6.95124">
        <ele>798</ele>
        <time>2026-05-09T16:19:55.388Z</time>
      </trkpt>
      <trkpt lat="47.91314" lon="6.95122">
        <ele>798</ele>
        <time>2026-05-09T16:19:56.389Z</time>
      </trkpt>
      <trkpt lat="47.91314" lon="6.9512">
        <ele>798</ele>
        <time>2026-05-09T16:19:57.389Z</time>
      </trkpt>
      <trkpt lat="47.91313" lon="6.95118">
        <ele>797</ele>
        <time>2026-05-09T16:19:58.388Z</time>
      </trkpt>
      <trkpt lat="47.91313" lon="6.95117">
        <ele>797</ele>
        <time>2026-05-09T16:19:59.389Z</time>
      </trkpt>
      <trkpt lat="47.91312" lon="6.95115">
        <ele>797</ele>
        <time>2026-05-09T16:20:00.388Z</time>
      </trkpt>
      <trkpt lat="47.91312" lon="6.95114">
        <ele>797</ele>
        <time>2026-05-09T16:20:01.389Z</time>
      </trkpt>
      <trkpt lat="47.91311" lon="6.95112">
        <ele>797</ele>
        <time>2026-05-09T16:20:02.389Z</time>
      </trkpt>
      <trkpt lat="47.91311" lon="6.9511">
        <ele>797</ele>
        <time>2026-05-09T16:20:03.388Z</time>
      </trkpt>
      <trkpt lat="47.9131" lon="6.95109">
        <ele>797</ele>
        <time>2026-05-09T16:20:04.389Z</time>
      </trkpt>
      <trkpt lat="47.9131" lon="6.95107">
        <ele>797</ele>
        <time>2026-05-09T16:20:05.388Z</time>
      </trkpt>
      <trkpt lat="47.91309" lon="6.95106">
        <ele>796</ele>
        <time>2026-05-09T16:20:06.389Z</time>
      </trkpt>
      <trkpt lat="47.91309" lon="6.95105">
        <ele>796</ele>
        <time>2026-05-09T16:20:07.389Z</time>
      </trkpt>
      <trkpt lat="47.91308" lon="6.95103">
        <ele>796</ele>
        <time>2026-05-09T16:20:08.388Z</time>
      </trkpt>
      <trkpt lat="47.91308" lon="6.95101">
        <ele>796</ele>
        <time>2026-05-09T16:20:09.389Z</time>
      </trkpt>
      <trkpt lat="47.91308" lon="6.95099">
        <ele>796</ele>
        <time>2026-05-09T16:20:10.388Z</time>
      </trkpt>
      <trkpt lat="47.91308" lon="6.95098">
        <ele>796</ele>
        <time>2026-05-09T16:20:11.388Z</time>
      </trkpt>
      <trkpt lat="47.91307" lon="6.95096">
        <ele>796</ele>
        <time>2026-05-09T16:20:12.388Z</time>
      </trkpt>
      <trkpt lat="47.91307" lon="6.95095">
        <ele>796</ele>
        <time>2026-05-09T16:20:13.389Z</time>
      </trkpt>
      <trkpt lat="47.91306" lon="6.95093">
        <ele>796</ele>
        <time>2026-05-09T16:20:14.389Z</time>
      </trkpt>
      <trkpt lat="47.91306" lon="6.95092">
        <ele>796</ele>
        <time>2026-05-09T16:20:15.388Z</time>
      </trkpt>
      <trkpt lat="47.91305" lon="6.9509">
        <ele>796</ele>
        <time>2026-05-09T16:20:16.389Z</time>
      </trkpt>
      <trkpt lat="47.91305" lon="6.95089">
        <ele>796</ele>
        <time>2026-05-09T16:20:17.388Z</time>
      </trkpt>
      <trkpt lat="47.91305" lon="6.95087">
        <ele>796</ele>
        <time>2026-05-09T16:20:18.389Z</time>
      </trkpt>
      <trkpt lat="47.91304" lon="6.95085">
        <ele>797</ele>
        <time>2026-05-09T16:20:19.388Z</time>
      </trkpt>
      <trkpt lat="47.91304" lon="6.95083">
        <ele>797</ele>
        <time>2026-05-09T16:20:20.388Z</time>
      </trkpt>
      <trkpt lat="47.91304" lon="6.95082">
        <ele>797</ele>
        <time>2026-05-09T16:20:21.389Z</time>
      </trkpt>
      <trkpt lat="47.91303" lon="6.9508">
        <ele>797</ele>
        <time>2026-05-09T16:20:22.389Z</time>
      </trkpt>
      <trkpt lat="47.91303" lon="6.95079">
        <ele>797</ele>
        <time>2026-05-09T16:20:23.389Z</time>
      </trkpt>
      <trkpt lat="47.91302" lon="6.95077">
        <ele>798</ele>
        <time>2026-05-09T16:20:24.388Z</time>
      </trkpt>
      <trkpt lat="47.91302" lon="6.95076">
        <ele>798</ele>
        <time>2026-05-09T16:20:25.389Z</time>
      </trkpt>
      <trkpt lat="47.91301" lon="6.95074">
        <ele>798</ele>
        <time>2026-05-09T16:20:26.388Z</time>
      </trkpt>
      <trkpt lat="47.91301" lon="6.95073">
        <ele>798</ele>
        <time>2026-05-09T16:20:27.389Z</time>
      </trkpt>
      <trkpt lat="47.913" lon="6.95072">
        <ele>799</ele>
        <time>2026-05-09T16:20:28.388Z</time>
      </trkpt>
      <trkpt lat="47.913" lon="6.95071">
        <ele>799</ele>
        <time>2026-05-09T16:20:29.389Z</time>
      </trkpt>
      <trkpt lat="47.913" lon="6.95069">
        <ele>799</ele>
        <time>2026-05-09T16:20:30.389Z</time>
      </trkpt>
      <trkpt lat="47.91299" lon="6.95067">
        <ele>799</ele>
        <time>2026-05-09T16:20:31.388Z</time>
      </trkpt>
      <trkpt lat="47.91299" lon="6.95066">
        <ele>799</ele>
        <time>2026-05-09T16:20:32.389Z</time>
      </trkpt>
      <trkpt lat="47.91299" lon="6.95065">
        <ele>798</ele>
        <time>2026-05-09T16:20:33.388Z</time>
      </trkpt>
      <trkpt lat="47.91298" lon="6.95063">
        <ele>798</ele>
        <time>2026-05-09T16:20:34.389Z</time>
      </trkpt>
      <trkpt lat="47.91298" lon="6.95062">
        <ele>798</ele>
        <time>2026-05-09T16:20:35.388Z</time>
      </trkpt>
      <trkpt lat="47.91297" lon="6.9506">
        <ele>798</ele>
        <time>2026-05-09T16:20:36.389Z</time>
      </trkpt>
      <trkpt lat="47.91296" lon="6.95059">
        <ele>798</ele>
        <time>2026-05-09T16:20:37.389Z</time>
      </trkpt>
      <trkpt lat="47.91296" lon="6.95057">
        <ele>798</ele>
        <time>2026-05-09T16:20:38.388Z</time>
      </trkpt>
      <trkpt lat="47.91295" lon="6.95056">
        <ele>798</ele>
        <time>2026-05-09T16:20:39.388Z</time>
      </trkpt>
      <trkpt lat="47.91294" lon="6.95054">
        <ele>798</ele>
        <time>2026-05-09T16:20:40.388Z</time>
      </trkpt>
      <trkpt lat="47.91294" lon="6.95053">
        <ele>798</ele>
        <time>2026-05-09T16:20:41.389Z</time>
      </trkpt>
      <trkpt lat="47.91293" lon="6.95051">
        <ele>798</ele>
        <time>2026-05-09T16:20:42.388Z</time>
      </trkpt>
      <trkpt lat="47.91293" lon="6.95049">
        <ele>798</ele>
        <time>2026-05-09T16:20:43.389Z</time>
      </trkpt>
      <trkpt lat="47.91292" lon="6.95047">
        <ele>798</ele>
        <time>2026-05-09T16:20:44.388Z</time>
      </trkpt>
      <trkpt lat="47.91292" lon="6.95045">
        <ele>798</ele>
        <time>2026-05-09T16:20:45.388Z</time>
      </trkpt>
      <trkpt lat="47.91291" lon="6.95044">
        <ele>798</ele>
        <time>2026-05-09T16:20:46.388Z</time>
      </trkpt>
      <trkpt lat="47.9129" lon="6.95042">
        <ele>798</ele>
        <time>2026-05-09T16:20:47.389Z</time>
      </trkpt>
      <trkpt lat="47.9129" lon="6.95041">
        <ele>798</ele>
        <time>2026-05-09T16:20:48.389Z</time>
      </trkpt>
      <trkpt lat="47.91289" lon="6.9504">
        <ele>798</ele>
        <time>2026-05-09T16:20:49.388Z</time>
      </trkpt>
      <trkpt lat="47.91288" lon="6.95039">
        <ele>798</ele>
        <time>2026-05-09T16:20:50.388Z</time>
      </trkpt>
      <trkpt lat="47.91287" lon="6.95038">
        <ele>798</ele>
        <time>2026-05-09T16:20:51.388Z</time>
      </trkpt>
      <trkpt lat="47.91287" lon="6.95037">
        <ele>798</ele>
        <time>2026-05-09T16:20:52.388Z</time>
      </trkpt>
      <trkpt lat="47.91286" lon="6.95035">
        <ele>798</ele>
        <time>2026-05-09T16:20:53.389Z</time>
      </trkpt>
      <trkpt lat="47.91285" lon="6.95035">
        <ele>798</ele>
        <time>2026-05-09T16:20:54.389Z</time>
      </trkpt>
      <trkpt lat="47.91284" lon="6.95034">
        <ele>798</ele>
        <time>2026-05-09T16:20:55.389Z</time>
      </trkpt>
      <trkpt lat="47.91284" lon="6.95033">
        <ele>797</ele>
        <time>2026-05-09T16:20:56.389Z</time>
      </trkpt>
      <trkpt lat="47.91283" lon="6.95031">
        <ele>797</ele>
        <time>2026-05-09T16:20:57.389Z</time>
      </trkpt>
      <trkpt lat="47.91283" lon="6.95029">
        <ele>797</ele>
        <time>2026-05-09T16:20:58.389Z</time>
      </trkpt>
      <trkpt lat="47.91283" lon="6.95028">
        <ele>797</ele>
        <time>2026-05-09T16:20:59.389Z</time>
      </trkpt>
      <trkpt lat="47.91283" lon="6.95026">
        <ele>797</ele>
        <time>2026-05-09T16:21:00.389Z</time>
      </trkpt>
      <trkpt lat="47.91282" lon="6.95025">
        <ele>797</ele>
        <time>2026-05-09T16:21:01.388Z</time>
      </trkpt>
      <trkpt lat="47.91282" lon="6.95023">
        <ele>797</ele>
        <time>2026-05-09T16:21:02.388Z</time>
      </trkpt>
      <trkpt lat="47.91282" lon="6.95021">
        <ele>797</ele>
        <time>2026-05-09T16:21:03.388Z</time>
      </trkpt>
      <trkpt lat="47.91282" lon="6.9502">
        <ele>797</ele>
        <time>2026-05-09T16:21:04.388Z</time>
      </trkpt>
      <trkpt lat="47.91282" lon="6.95018">
        <ele>798</ele>
        <time>2026-05-09T16:21:05.389Z</time>
      </trkpt>
      <trkpt lat="47.91282" lon="6.95017">
        <ele>798</ele>
        <time>2026-05-09T16:21:06.389Z</time>
      </trkpt>
      <trkpt lat="47.91281" lon="6.95015">
        <ele>798</ele>
        <time>2026-05-09T16:21:07.389Z</time>
      </trkpt>
      <trkpt lat="47.9128" lon="6.95014">
        <ele>798</ele>
        <time>2026-05-09T16:21:08.389Z</time>
      </trkpt>
      <trkpt lat="47.9128" lon="6.95012">
        <ele>798</ele>
        <time>2026-05-09T16:21:09.388Z</time>
      </trkpt>
      <trkpt lat="47.91278" lon="6.9501">
        <ele>799</ele>
        <time>2026-05-09T16:21:10.388Z</time>
      </trkpt>
      <trkpt lat="47.91276" lon="6.95007">
        <ele>799</ele>
        <time>2026-05-09T16:21:11.389Z</time>
      </trkpt>
      <trkpt lat="47.91275" lon="6.95004">
        <ele>799</ele>
        <time>2026-05-09T16:21:12.389Z</time>
      </trkpt>
      <trkpt lat="47.91274" lon="6.95003">
        <ele>799</ele>
        <time>2026-05-09T16:21:13.389Z</time>
      </trkpt>
      <trkpt lat="47.91273" lon="6.95001">
        <ele>799</ele>
        <time>2026-05-09T16:21:14.389Z</time>
      </trkpt>
      <trkpt lat="47.91273" lon="6.95">
        <ele>799</ele>
        <time>2026-05-09T16:21:15.389Z</time>
      </trkpt>
      <trkpt lat="47.91272" lon="6.94998">
        <ele>799</ele>
        <time>2026-05-09T16:21:16.388Z</time>
      </trkpt>
      <trkpt lat="47.91271" lon="6.94995">
        <ele>799</ele>
        <time>2026-05-09T16:21:17.388Z</time>
      </trkpt>
      <trkpt lat="47.9127" lon="6.94994">
        <ele>799</ele>
        <time>2026-05-09T16:21:18.388Z</time>
      </trkpt>
      <trkpt lat="47.9127" lon="6.94992">
        <ele>799</ele>
        <time>2026-05-09T16:21:19.388Z</time>
      </trkpt>
      <trkpt lat="47.91269" lon="6.94991">
        <ele>799</ele>
        <time>2026-05-09T16:21:20.388Z</time>
      </trkpt>
      <trkpt lat="47.91268" lon="6.94989">
        <ele>799</ele>
        <time>2026-05-09T16:21:21.389Z</time>
      </trkpt>
      <trkpt lat="47.91268" lon="6.94988">
        <ele>800</ele>
        <time>2026-05-09T16:21:22.389Z</time>
      </trkpt>
      <trkpt lat="47.91268" lon="6.94986">
        <ele>800</ele>
        <time>2026-05-09T16:21:23.389Z</time>
      </trkpt>
      <trkpt lat="47.91267" lon="6.94985">
        <ele>800</ele>
        <time>2026-05-09T16:21:24.389Z</time>
      </trkpt>
      <trkpt lat="47.91266" lon="6.94983">
        <ele>800</ele>
        <time>2026-05-09T16:21:25.388Z</time>
      </trkpt>
      <trkpt lat="47.91265" lon="6.94981">
        <ele>799</ele>
        <time>2026-05-09T16:21:26.388Z</time>
      </trkpt>
      <trkpt lat="47.91265" lon="6.9498">
        <ele>799</ele>
        <time>2026-05-09T16:21:27.388Z</time>
      </trkpt>
      <trkpt lat="47.91265" lon="6.94979">
        <ele>798</ele>
        <time>2026-05-09T16:21:28.389Z</time>
      </trkpt>
      <trkpt lat="47.91265" lon="6.94978">
        <ele>797</ele>
        <time>2026-05-09T16:21:29.389Z</time>
      </trkpt>
      <trkpt lat="47.91265" lon="6.94976">
        <ele>797</ele>
        <time>2026-05-09T16:21:30.388Z</time>
      </trkpt>
      <trkpt lat="47.91265" lon="6.94975">
        <ele>796</ele>
        <time>2026-05-09T16:21:31.388Z</time>
      </trkpt>
      <trkpt lat="47.91264" lon="6.94974">
        <ele>795</ele>
        <time>2026-05-09T16:21:32.389Z</time>
      </trkpt>
      <trkpt lat="47.91263" lon="6.94973">
        <ele>795</ele>
        <time>2026-05-09T16:21:33.389Z</time>
      </trkpt>
      <trkpt lat="47.91262" lon="6.94971">
        <ele>794</ele>
        <time>2026-05-09T16:21:34.389Z</time>
      </trkpt>
      <trkpt lat="47.91261" lon="6.9497">
        <ele>794</ele>
        <time>2026-05-09T16:21:35.389Z</time>
      </trkpt>
      <trkpt lat="47.91261" lon="6.94968">
        <ele>794</ele>
        <time>2026-05-09T16:21:36.389Z</time>
      </trkpt>
      <trkpt lat="47.9126" lon="6.94967">
        <ele>795</ele>
        <time>2026-05-09T16:21:37.389Z</time>
      </trkpt>
      <trkpt lat="47.91259" lon="6.94965">
        <ele>795</ele>
        <time>2026-05-09T16:21:38.389Z</time>
      </trkpt>
      <trkpt lat="47.91259" lon="6.94964">
        <ele>795</ele>
        <time>2026-05-09T16:21:39.389Z</time>
      </trkpt>
      <trkpt lat="47.91258" lon="6.94962">
        <ele>795</ele>
        <time>2026-05-09T16:21:40.388Z</time>
      </trkpt>
      <trkpt lat="47.91257" lon="6.9496">
        <ele>794</ele>
        <time>2026-05-09T16:21:41.388Z</time>
      </trkpt>
      <trkpt lat="47.91256" lon="6.94959">
        <ele>794</ele>
        <time>2026-05-09T16:21:42.389Z</time>
      </trkpt>
      <trkpt lat="47.91255" lon="6.94958">
        <ele>794</ele>
        <time>2026-05-09T16:21:43.388Z</time>
      </trkpt>
      <trkpt lat="47.91255" lon="6.94956">
        <ele>794</ele>
        <time>2026-05-09T16:21:44.388Z</time>
      </trkpt>
      <trkpt lat="47.91254" lon="6.94955">
        <ele>794</ele>
        <time>2026-05-09T16:21:45.389Z</time>
      </trkpt>
      <trkpt lat="47.91253" lon="6.94953">
        <ele>794</ele>
        <time>2026-05-09T16:21:46.388Z</time>
      </trkpt>
      <trkpt lat="47.91253" lon="6.94952">
        <ele>794</ele>
        <time>2026-05-09T16:21:47.389Z</time>
      </trkpt>
      <trkpt lat="47.91252" lon="6.9495">
        <ele>794</ele>
        <time>2026-05-09T16:21:48.389Z</time>
      </trkpt>
      <trkpt lat="47.91252" lon="6.94948">
        <ele>795</ele>
        <time>2026-05-09T16:21:49.389Z</time>
      </trkpt>
      <trkpt lat="47.91251" lon="6.94947">
        <ele>795</ele>
        <time>2026-05-09T16:21:50.388Z</time>
      </trkpt>
      <trkpt lat="47.9125" lon="6.94945">
        <ele>796</ele>
        <time>2026-05-09T16:21:51.388Z</time>
      </trkpt>
      <trkpt lat="47.9125" lon="6.94944">
        <ele>796</ele>
        <time>2026-05-09T16:21:52.388Z</time>
      </trkpt>
      <trkpt lat="47.9125" lon="6.94942">
        <ele>796</ele>
        <time>2026-05-09T16:21:53.388Z</time>
      </trkpt>
      <trkpt lat="47.91249" lon="6.9494">
        <ele>796</ele>
        <time>2026-05-09T16:21:54.388Z</time>
      </trkpt>
      <trkpt lat="47.91248" lon="6.94939">
        <ele>796</ele>
        <time>2026-05-09T16:21:55.389Z</time>
      </trkpt>
      <trkpt lat="47.91247" lon="6.94937">
        <ele>797</ele>
        <time>2026-05-09T16:21:56.389Z</time>
      </trkpt>
      <trkpt lat="47.91247" lon="6.94935">
        <ele>797</ele>
        <time>2026-05-09T16:21:57.388Z</time>
      </trkpt>
      <trkpt lat="47.91246" lon="6.94934">
        <ele>798</ele>
        <time>2026-05-09T16:21:58.388Z</time>
      </trkpt>
      <trkpt lat="47.91245" lon="6.94932">
        <ele>798</ele>
        <time>2026-05-09T16:21:59.388Z</time>
      </trkpt>
      <trkpt lat="47.91245" lon="6.9493">
        <ele>798</ele>
        <time>2026-05-09T16:22:00.388Z</time>
      </trkpt>
      <trkpt lat="47.91244" lon="6.94928">
        <ele>798</ele>
        <time>2026-05-09T16:22:01.388Z</time>
      </trkpt>
      <trkpt lat="47.91243" lon="6.94927">
        <ele>798</ele>
        <time>2026-05-09T16:22:02.388Z</time>
      </trkpt>
      <trkpt lat="47.91242" lon="6.94925">
        <ele>799</ele>
        <time>2026-05-09T16:22:03.388Z</time>
      </trkpt>
      <trkpt lat="47.91241" lon="6.94923">
        <ele>799</ele>
        <time>2026-05-09T16:22:04.388Z</time>
      </trkpt>
      <trkpt lat="47.91241" lon="6.94922">
        <ele>799</ele>
        <time>2026-05-09T16:22:05.388Z</time>
      </trkpt>
      <trkpt lat="47.9124" lon="6.9492">
        <ele>800</ele>
        <time>2026-05-09T16:22:06.388Z</time>
      </trkpt>
      <trkpt lat="47.9124" lon="6.94919">
        <ele>800</ele>
        <time>2026-05-09T16:22:07.389Z</time>
      </trkpt>
      <trkpt lat="47.91239" lon="6.94917">
        <ele>800</ele>
        <time>2026-05-09T16:22:08.389Z</time>
      </trkpt>
      <trkpt lat="47.91239" lon="6.94915">
        <ele>801</ele>
        <time>2026-05-09T16:22:09.389Z</time>
      </trkpt>
      <trkpt lat="47.91238" lon="6.94913">
        <ele>801</ele>
        <time>2026-05-09T16:22:10.389Z</time>
      </trkpt>
      <trkpt lat="47.91238" lon="6.94912">
        <ele>801</ele>
        <time>2026-05-09T16:22:11.389Z</time>
      </trkpt>
      <trkpt lat="47.91238" lon="6.9491">
        <ele>801</ele>
        <time>2026-05-09T16:22:12.389Z</time>
      </trkpt>
      <trkpt lat="47.91237" lon="6.94909">
        <ele>801</ele>
        <time>2026-05-09T16:22:13.389Z</time>
      </trkpt>
      <trkpt lat="47.91237" lon="6.94907">
        <ele>801</ele>
        <time>2026-05-09T16:22:14.389Z</time>
      </trkpt>
      <trkpt lat="47.91237" lon="6.94906">
        <ele>801</ele>
        <time>2026-05-09T16:22:15.388Z</time>
      </trkpt>
      <trkpt lat="47.91236" lon="6.94904">
        <ele>801</ele>
        <time>2026-05-09T16:22:16.389Z</time>
      </trkpt>
      <trkpt lat="47.91236" lon="6.94902">
        <ele>801</ele>
        <time>2026-05-09T16:22:17.388Z</time>
      </trkpt>
      <trkpt lat="47.91236" lon="6.949">
        <ele>802</ele>
        <time>2026-05-09T16:22:18.389Z</time>
      </trkpt>
      <trkpt lat="47.91235" lon="6.94898">
        <ele>802</ele>
        <time>2026-05-09T16:22:19.388Z</time>
      </trkpt>
      <trkpt lat="47.91235" lon="6.94896">
        <ele>802</ele>
        <time>2026-05-09T16:22:20.388Z</time>
      </trkpt>
      <trkpt lat="47.91234" lon="6.94894">
        <ele>803</ele>
        <time>2026-05-09T16:22:21.389Z</time>
      </trkpt>
      <trkpt lat="47.91234" lon="6.94892">
        <ele>803</ele>
        <time>2026-05-09T16:22:22.388Z</time>
      </trkpt>
      <trkpt lat="47.91234" lon="6.94891">
        <ele>803</ele>
        <time>2026-05-09T16:22:23.388Z</time>
      </trkpt>
      <trkpt lat="47.91233" lon="6.94889">
        <ele>804</ele>
        <time>2026-05-09T16:22:24.388Z</time>
      </trkpt>
      <trkpt lat="47.91233" lon="6.94887">
        <ele>804</ele>
        <time>2026-05-09T16:22:25.388Z</time>
      </trkpt>
      <trkpt lat="47.91232" lon="6.94885">
        <ele>804</ele>
        <time>2026-05-09T16:22:26.389Z</time>
      </trkpt>
      <trkpt lat="47.91232" lon="6.94884">
        <ele>804</ele>
        <time>2026-05-09T16:22:27.388Z</time>
      </trkpt>
      <trkpt lat="47.91231" lon="6.94882">
        <ele>804</ele>
        <time>2026-05-09T16:22:28.389Z</time>
      </trkpt>
      <trkpt lat="47.91231" lon="6.9488">
        <ele>804</ele>
        <time>2026-05-09T16:22:29.389Z</time>
      </trkpt>
      <trkpt lat="47.9123" lon="6.94879">
        <ele>804</ele>
        <time>2026-05-09T16:22:30.389Z</time>
      </trkpt>
      <trkpt lat="47.9123" lon="6.94877">
        <ele>804</ele>
        <time>2026-05-09T16:22:31.388Z</time>
      </trkpt>
      <trkpt lat="47.91229" lon="6.94876">
        <ele>804</ele>
        <time>2026-05-09T16:22:32.389Z</time>
      </trkpt>
      <trkpt lat="47.91229" lon="6.94874">
        <ele>804</ele>
        <time>2026-05-09T16:22:33.389Z</time>
      </trkpt>
      <trkpt lat="47.91228" lon="6.94873">
        <ele>805</ele>
        <time>2026-05-09T16:22:34.388Z</time>
      </trkpt>
      <trkpt lat="47.91228" lon="6.94871">
        <ele>805</ele>
        <time>2026-05-09T16:22:35.388Z</time>
      </trkpt>
      <trkpt lat="47.91227" lon="6.9487">
        <ele>804</ele>
        <time>2026-05-09T16:22:36.389Z</time>
      </trkpt>
      <trkpt lat="47.91227" lon="6.94868">
        <ele>804</ele>
        <time>2026-05-09T16:22:37.389Z</time>
      </trkpt>
      <trkpt lat="47.91226" lon="6.94867">
        <ele>804</ele>
        <time>2026-05-09T16:22:38.388Z</time>
      </trkpt>
      <trkpt lat="47.91225" lon="6.94865">
        <ele>803</ele>
        <time>2026-05-09T16:22:39.388Z</time>
      </trkpt>
      <trkpt lat="47.91225" lon="6.94864">
        <ele>803</ele>
        <time>2026-05-09T16:22:40.389Z</time>
      </trkpt>
      <trkpt lat="47.91224" lon="6.94862">
        <ele>803</ele>
        <time>2026-05-09T16:22:41.388Z</time>
      </trkpt>
      <trkpt lat="47.91223" lon="6.94861">
        <ele>803</ele>
        <time>2026-05-09T16:22:42.389Z</time>
      </trkpt>
      <trkpt lat="47.91223" lon="6.94859">
        <ele>803</ele>
        <time>2026-05-09T16:22:43.388Z</time>
      </trkpt>
      <trkpt lat="47.91222" lon="6.94857">
        <ele>803</ele>
        <time>2026-05-09T16:22:44.389Z</time>
      </trkpt>
      <trkpt lat="47.91221" lon="6.94856">
        <ele>803</ele>
        <time>2026-05-09T16:22:45.388Z</time>
      </trkpt>
      <trkpt lat="47.9122" lon="6.94854">
        <ele>803</ele>
        <time>2026-05-09T16:22:46.388Z</time>
      </trkpt>
      <trkpt lat="47.91219" lon="6.94853">
        <ele>803</ele>
        <time>2026-05-09T16:22:47.389Z</time>
      </trkpt>
      <trkpt lat="47.91218" lon="6.94852">
        <ele>803</ele>
        <time>2026-05-09T16:22:48.389Z</time>
      </trkpt>
      <trkpt lat="47.91217" lon="6.9485">
        <ele>803</ele>
        <time>2026-05-09T16:22:49.389Z</time>
      </trkpt>
      <trkpt lat="47.91217" lon="6.94849">
        <ele>803</ele>
        <time>2026-05-09T16:22:50.388Z</time>
      </trkpt>
      <trkpt lat="47.91216" lon="6.94848">
        <ele>803</ele>
        <time>2026-05-09T16:22:51.388Z</time>
      </trkpt>
      <trkpt lat="47.91215" lon="6.94847">
        <ele>803</ele>
        <time>2026-05-09T16:22:52.388Z</time>
      </trkpt>
      <trkpt lat="47.91214" lon="6.94846">
        <ele>802</ele>
        <time>2026-05-09T16:22:53.389Z</time>
      </trkpt>
      <trkpt lat="47.91214" lon="6.94845">
        <ele>802</ele>
        <time>2026-05-09T16:22:54.389Z</time>
      </trkpt>
      <trkpt lat="47.91213" lon="6.94843">
        <ele>802</ele>
        <time>2026-05-09T16:22:55.388Z</time>
      </trkpt>
      <trkpt lat="47.91212" lon="6.94842">
        <ele>803</ele>
        <time>2026-05-09T16:22:56.389Z</time>
      </trkpt>
      <trkpt lat="47.91212" lon="6.94841">
        <ele>803</ele>
        <time>2026-05-09T16:22:57.388Z</time>
      </trkpt>
      <trkpt lat="47.91211" lon="6.94839">
        <ele>804</ele>
        <time>2026-05-09T16:22:58.388Z</time>
      </trkpt>
      <trkpt lat="47.9121" lon="6.94838">
        <ele>804</ele>
        <time>2026-05-09T16:22:59.389Z</time>
      </trkpt>
      <trkpt lat="47.91209" lon="6.94836">
        <ele>804</ele>
        <time>2026-05-09T16:23:00.389Z</time>
      </trkpt>
      <trkpt lat="47.91208" lon="6.94835">
        <ele>804</ele>
        <time>2026-05-09T16:23:01.388Z</time>
      </trkpt>
      <trkpt lat="47.91207" lon="6.94833">
        <ele>805</ele>
        <time>2026-05-09T16:23:02.388Z</time>
      </trkpt>
      <trkpt lat="47.91207" lon="6.94832">
        <ele>805</ele>
        <time>2026-05-09T16:23:03.389Z</time>
      </trkpt>
      <trkpt lat="47.91206" lon="6.9483">
        <ele>804</ele>
        <time>2026-05-09T16:23:04.389Z</time>
      </trkpt>
      <trkpt lat="47.91205" lon="6.94829">
        <ele>805</ele>
        <time>2026-05-09T16:23:05.388Z</time>
      </trkpt>
      <trkpt lat="47.91204" lon="6.94827">
        <ele>805</ele>
        <time>2026-05-09T16:23:06.388Z</time>
      </trkpt>
      <trkpt lat="47.91204" lon="6.94826">
        <ele>805</ele>
        <time>2026-05-09T16:23:07.388Z</time>
      </trkpt>
      <trkpt lat="47.91203" lon="6.94825">
        <ele>805</ele>
        <time>2026-05-09T16:23:08.388Z</time>
      </trkpt>
      <trkpt lat="47.91203" lon="6.94823">
        <ele>804</ele>
        <time>2026-05-09T16:23:09.388Z</time>
      </trkpt>
      <trkpt lat="47.91202" lon="6.94822">
        <ele>804</ele>
        <time>2026-05-09T16:23:10.389Z</time>
      </trkpt>
      <trkpt lat="47.91201" lon="6.9482">
        <ele>805</ele>
        <time>2026-05-09T16:23:11.388Z</time>
      </trkpt>
      <trkpt lat="47.91201" lon="6.94819">
        <ele>805</ele>
        <time>2026-05-09T16:23:12.389Z</time>
      </trkpt>
      <trkpt lat="47.912" lon="6.94818">
        <ele>805</ele>
        <time>2026-05-09T16:23:13.388Z</time>
      </trkpt>
      <trkpt lat="47.91199" lon="6.94816">
        <ele>804</ele>
        <time>2026-05-09T16:23:14.389Z</time>
      </trkpt>
      <trkpt lat="47.91199" lon="6.94815">
        <ele>804</ele>
        <time>2026-05-09T16:23:15.389Z</time>
      </trkpt>
      <trkpt lat="47.91198" lon="6.94814">
        <ele>804</ele>
        <time>2026-05-09T16:23:16.388Z</time>
      </trkpt>
      <trkpt lat="47.91197" lon="6.94812">
        <ele>804</ele>
        <time>2026-05-09T16:23:17.389Z</time>
      </trkpt>
      <trkpt lat="47.91196" lon="6.9481">
        <ele>804</ele>
        <time>2026-05-09T16:23:18.389Z</time>
      </trkpt>
      <trkpt lat="47.91195" lon="6.94809">
        <ele>804</ele>
        <time>2026-05-09T16:23:19.388Z</time>
      </trkpt>
      <trkpt lat="47.91195" lon="6.94807">
        <ele>804</ele>
        <time>2026-05-09T16:23:20.388Z</time>
      </trkpt>
      <trkpt lat="47.91194" lon="6.94806">
        <ele>805</ele>
        <time>2026-05-09T16:23:21.388Z</time>
      </trkpt>
      <trkpt lat="47.91192" lon="6.94805">
        <ele>806</ele>
        <time>2026-05-09T16:23:22.389Z</time>
      </trkpt>
      <trkpt lat="47.91192" lon="6.94804">
        <ele>806</ele>
        <time>2026-05-09T16:23:23.389Z</time>
      </trkpt>
      <trkpt lat="47.91191" lon="6.94803">
        <ele>806</ele>
        <time>2026-05-09T16:23:24.388Z</time>
      </trkpt>
      <trkpt lat="47.9119" lon="6.94801">
        <ele>807</ele>
        <time>2026-05-09T16:23:25.389Z</time>
      </trkpt>
      <trkpt lat="47.91189" lon="6.948">
        <ele>807</ele>
        <time>2026-05-09T16:23:26.388Z</time>
      </trkpt>
      <trkpt lat="47.91188" lon="6.94799">
        <ele>807</ele>
        <time>2026-05-09T16:23:27.389Z</time>
      </trkpt>
      <trkpt lat="47.91187" lon="6.94798">
        <ele>807</ele>
        <time>2026-05-09T16:23:28.389Z</time>
      </trkpt>
      <trkpt lat="47.91186" lon="6.94797">
        <ele>808</ele>
        <time>2026-05-09T16:23:29.388Z</time>
      </trkpt>
      <trkpt lat="47.91185" lon="6.94796">
        <ele>808</ele>
        <time>2026-05-09T16:23:30.388Z</time>
      </trkpt>
      <trkpt lat="47.91184" lon="6.94795">
        <ele>808</ele>
        <time>2026-05-09T16:23:31.388Z</time>
      </trkpt>
      <trkpt lat="47.91183" lon="6.94794">
        <ele>808</ele>
        <time>2026-05-09T16:23:32.389Z</time>
      </trkpt>
      <trkpt lat="47.91183" lon="6.94793">
        <ele>808</ele>
        <time>2026-05-09T16:23:33.389Z</time>
      </trkpt>
      <trkpt lat="47.91182" lon="6.94792">
        <ele>808</ele>
        <time>2026-05-09T16:23:34.388Z</time>
      </trkpt>
      <trkpt lat="47.91181" lon="6.94791">
        <ele>808</ele>
        <time>2026-05-09T16:23:35.389Z</time>
      </trkpt>
      <trkpt lat="47.9118" lon="6.9479">
        <ele>807</ele>
        <time>2026-05-09T16:23:36.388Z</time>
      </trkpt>
      <trkpt lat="47.91179" lon="6.94789">
        <ele>807</ele>
        <time>2026-05-09T16:23:37.389Z</time>
      </trkpt>
      <trkpt lat="47.91178" lon="6.94787">
        <ele>808</ele>
        <time>2026-05-09T16:23:38.388Z</time>
      </trkpt>
      <trkpt lat="47.91177" lon="6.94786">
        <ele>808</ele>
        <time>2026-05-09T16:23:39.389Z</time>
      </trkpt>
      <trkpt lat="47.91176" lon="6.94785">
        <ele>809</ele>
        <time>2026-05-09T16:23:40.388Z</time>
      </trkpt>
      <trkpt lat="47.91175" lon="6.94784">
        <ele>809</ele>
        <time>2026-05-09T16:23:41.389Z</time>
      </trkpt>
      <trkpt lat="47.91174" lon="6.94783">
        <ele>809</ele>
        <time>2026-05-09T16:23:42.389Z</time>
      </trkpt>
      <trkpt lat="47.91173" lon="6.94782">
        <ele>809</ele>
        <time>2026-05-09T16:23:43.389Z</time>
      </trkpt>
      <trkpt lat="47.91172" lon="6.9478">
        <ele>810</ele>
        <time>2026-05-09T16:23:44.389Z</time>
      </trkpt>
      <trkpt lat="47.91171" lon="6.94779">
        <ele>810</ele>
        <time>2026-05-09T16:23:45.389Z</time>
      </trkpt>
      <trkpt lat="47.9117" lon="6.94778">
        <ele>810</ele>
        <time>2026-05-09T16:23:46.388Z</time>
      </trkpt>
      <trkpt lat="47.91169" lon="6.94777">
        <ele>810</ele>
        <time>2026-05-09T16:23:47.389Z</time>
      </trkpt>
      <trkpt lat="47.91168" lon="6.94776">
        <ele>810</ele>
        <time>2026-05-09T16:23:48.389Z</time>
      </trkpt>
      <trkpt lat="47.91168" lon="6.94774">
        <ele>810</ele>
        <time>2026-05-09T16:23:49.389Z</time>
      </trkpt>
      <trkpt lat="47.91167" lon="6.94773">
        <ele>810</ele>
        <time>2026-05-09T16:23:50.389Z</time>
      </trkpt>
      <trkpt lat="47.91166" lon="6.94772">
        <ele>810</ele>
        <time>2026-05-09T16:23:51.389Z</time>
      </trkpt>
      <trkpt lat="47.91165" lon="6.94771">
        <ele>810</ele>
        <time>2026-05-09T16:23:52.389Z</time>
      </trkpt>
      <trkpt lat="47.91164" lon="6.9477">
        <ele>810</ele>
        <time>2026-05-09T16:23:53.388Z</time>
      </trkpt>
      <trkpt lat="47.91164" lon="6.94769">
        <ele>811</ele>
        <time>2026-05-09T16:23:54.389Z</time>
      </trkpt>
      <trkpt lat="47.91163" lon="6.94767">
        <ele>811</ele>
        <time>2026-05-09T16:23:55.388Z</time>
      </trkpt>
      <trkpt lat="47.91162" lon="6.94766">
        <ele>811</ele>
        <time>2026-05-09T16:23:56.389Z</time>
      </trkpt>
      <trkpt lat="47.91161" lon="6.94764">
        <ele>811</ele>
        <time>2026-05-09T16:23:57.388Z</time>
      </trkpt>
      <trkpt lat="47.9116" lon="6.94763">
        <ele>811</ele>
        <time>2026-05-09T16:23:58.388Z</time>
      </trkpt>
      <trkpt lat="47.91159" lon="6.94762">
        <ele>811</ele>
        <time>2026-05-09T16:23:59.388Z</time>
      </trkpt>
      <trkpt lat="47.91158" lon="6.9476">
        <ele>811</ele>
        <time>2026-05-09T16:24:00.389Z</time>
      </trkpt>
      <trkpt lat="47.91157" lon="6.94759">
        <ele>811</ele>
        <time>2026-05-09T16:24:01.388Z</time>
      </trkpt>
      <trkpt lat="47.91156" lon="6.94758">
        <ele>811</ele>
        <time>2026-05-09T16:24:02.389Z</time>
      </trkpt>
      <trkpt lat="47.91155" lon="6.94756">
        <ele>811</ele>
        <time>2026-05-09T16:24:03.388Z</time>
      </trkpt>
      <trkpt lat="47.91155" lon="6.94755">
        <ele>811</ele>
        <time>2026-05-09T16:24:04.389Z</time>
      </trkpt>
      <trkpt lat="47.91154" lon="6.94754">
        <ele>811</ele>
        <time>2026-05-09T16:24:05.388Z</time>
      </trkpt>
      <trkpt lat="47.91153" lon="6.94752">
        <ele>811</ele>
        <time>2026-05-09T16:24:06.389Z</time>
      </trkpt>
      <trkpt lat="47.91152" lon="6.94751">
        <ele>811</ele>
        <time>2026-05-09T16:24:07.389Z</time>
      </trkpt>
      <trkpt lat="47.91151" lon="6.9475">
        <ele>811</ele>
        <time>2026-05-09T16:24:08.389Z</time>
      </trkpt>
      <trkpt lat="47.91151" lon="6.94749">
        <ele>811</ele>
        <time>2026-05-09T16:24:09.388Z</time>
      </trkpt>
      <trkpt lat="47.9115" lon="6.94747">
        <ele>811</ele>
        <time>2026-05-09T16:24:10.389Z</time>
      </trkpt>
      <trkpt lat="47.91149" lon="6.94746">
        <ele>811</ele>
        <time>2026-05-09T16:24:11.388Z</time>
      </trkpt>
      <trkpt lat="47.91148" lon="6.94745">
        <ele>811</ele>
        <time>2026-05-09T16:24:12.389Z</time>
      </trkpt>
      <trkpt lat="47.91147" lon="6.94744">
        <ele>811</ele>
        <time>2026-05-09T16:24:13.388Z</time>
      </trkpt>
      <trkpt lat="47.91147" lon="6.94743">
        <ele>810</ele>
        <time>2026-05-09T16:24:14.388Z</time>
      </trkpt>
      <trkpt lat="47.91146" lon="6.94742">
        <ele>810</ele>
        <time>2026-05-09T16:24:15.388Z</time>
      </trkpt>
      <trkpt lat="47.91145" lon="6.9474">
        <ele>810</ele>
        <time>2026-05-09T16:24:16.389Z</time>
      </trkpt>
      <trkpt lat="47.91144" lon="6.94739">
        <ele>810</ele>
        <time>2026-05-09T16:24:17.389Z</time>
      </trkpt>
      <trkpt lat="47.91143" lon="6.94737">
        <ele>810</ele>
        <time>2026-05-09T16:24:18.389Z</time>
      </trkpt>
      <trkpt lat="47.91141" lon="6.94736">
        <ele>810</ele>
        <time>2026-05-09T16:24:19.388Z</time>
      </trkpt>
      <trkpt lat="47.9114" lon="6.94734">
        <ele>811</ele>
        <time>2026-05-09T16:24:20.389Z</time>
      </trkpt>
      <trkpt lat="47.91139" lon="6.94733">
        <ele>811</ele>
        <time>2026-05-09T16:24:21.388Z</time>
      </trkpt>
      <trkpt lat="47.91138" lon="6.94731">
        <ele>811</ele>
        <time>2026-05-09T16:24:22.389Z</time>
      </trkpt>
      <trkpt lat="47.91137" lon="6.9473">
        <ele>811</ele>
        <time>2026-05-09T16:24:23.388Z</time>
      </trkpt>
      <trkpt lat="47.91137" lon="6.94729">
        <ele>811</ele>
        <time>2026-05-09T16:24:24.389Z</time>
      </trkpt>
      <trkpt lat="47.91135" lon="6.94727">
        <ele>811</ele>
        <time>2026-05-09T16:24:25.388Z</time>
      </trkpt>
      <trkpt lat="47.91134" lon="6.94726">
        <ele>810</ele>
        <time>2026-05-09T16:24:26.389Z</time>
      </trkpt>
      <trkpt lat="47.91134" lon="6.94725">
        <ele>810</ele>
        <time>2026-05-09T16:24:27.388Z</time>
      </trkpt>
      <trkpt lat="47.91133" lon="6.94724">
        <ele>810</ele>
        <time>2026-05-09T16:24:28.388Z</time>
      </trkpt>
      <trkpt lat="47.91132" lon="6.94723">
        <ele>810</ele>
        <time>2026-05-09T16:24:29.389Z</time>
      </trkpt>
      <trkpt lat="47.91131" lon="6.94721">
        <ele>810</ele>
        <time>2026-05-09T16:24:30.388Z</time>
      </trkpt>
      <trkpt lat="47.9113" lon="6.9472">
        <ele>810</ele>
        <time>2026-05-09T16:24:31.389Z</time>
      </trkpt>
      <trkpt lat="47.91129" lon="6.94719">
        <ele>810</ele>
        <time>2026-05-09T16:24:32.389Z</time>
      </trkpt>
      <trkpt lat="47.91129" lon="6.94717">
        <ele>810</ele>
        <time>2026-05-09T16:24:33.389Z</time>
      </trkpt>
      <trkpt lat="47.91128" lon="6.94716">
        <ele>811</ele>
        <time>2026-05-09T16:24:34.389Z</time>
      </trkpt>
      <trkpt lat="47.91127" lon="6.94715">
        <ele>811</ele>
        <time>2026-05-09T16:24:35.388Z</time>
      </trkpt>
      <trkpt lat="47.91126" lon="6.94713">
        <ele>811</ele>
        <time>2026-05-09T16:24:36.389Z</time>
      </trkpt>
      <trkpt lat="47.91125" lon="6.94712">
        <ele>811</ele>
        <time>2026-05-09T16:24:37.388Z</time>
      </trkpt>
      <trkpt lat="47.91124" lon="6.94711">
        <ele>811</ele>
        <time>2026-05-09T16:24:38.389Z</time>
      </trkpt>
      <trkpt lat="47.91124" lon="6.9471">
        <ele>811</ele>
        <time>2026-05-09T16:24:39.388Z</time>
      </trkpt>
      <trkpt lat="47.91123" lon="6.94709">
        <ele>811</ele>
        <time>2026-05-09T16:24:40.389Z</time>
      </trkpt>
      <trkpt lat="47.91122" lon="6.94708">
        <ele>812</ele>
        <time>2026-05-09T16:24:41.388Z</time>
      </trkpt>
      <trkpt lat="47.91122" lon="6.94707">
        <ele>812</ele>
        <time>2026-05-09T16:24:42.389Z</time>
      </trkpt>
      <trkpt lat="47.91121" lon="6.94705">
        <ele>813</ele>
        <time>2026-05-09T16:24:43.388Z</time>
      </trkpt>
      <trkpt lat="47.9112" lon="6.94704">
        <ele>813</ele>
        <time>2026-05-09T16:24:44.389Z</time>
      </trkpt>
      <trkpt lat="47.91119" lon="6.94703">
        <ele>814</ele>
        <time>2026-05-09T16:24:45.388Z</time>
      </trkpt>
      <trkpt lat="47.91118" lon="6.94702">
        <ele>814</ele>
        <time>2026-05-09T16:24:46.389Z</time>
      </trkpt>
      <trkpt lat="47.91117" lon="6.94701">
        <ele>815</ele>
        <time>2026-05-09T16:24:47.389Z</time>
      </trkpt>
      <trkpt lat="47.91116" lon="6.94701">
        <ele>815</ele>
        <time>2026-05-09T16:24:48.389Z</time>
      </trkpt>
      <trkpt lat="47.91116" lon="6.94701">
        <ele>815</ele>
        <time>2026-05-09T16:24:49.388Z</time>
      </trkpt>
      <trkpt lat="47.91115" lon="6.947">
        <ele>816</ele>
        <time>2026-05-09T16:24:50.389Z</time>
      </trkpt>
      <trkpt lat="47.91115" lon="6.947">
        <ele>816</ele>
        <time>2026-05-09T16:24:51.388Z</time>
      </trkpt>
      <trkpt lat="47.91114" lon="6.947">
        <ele>816</ele>
        <time>2026-05-09T16:24:52.389Z</time>
      </trkpt>
      <trkpt lat="47.91114" lon="6.94701">
        <ele>816</ele>
        <time>2026-05-09T16:24:53.388Z</time>
      </trkpt>
      <trkpt lat="47.91114" lon="6.94702">
        <ele>816</ele>
        <time>2026-05-09T16:24:54.389Z</time>
      </trkpt>
      <trkpt lat="47.91113" lon="6.94703">
        <ele>816</ele>
        <time>2026-05-09T16:24:55.388Z</time>
      </trkpt>
      <trkpt lat="47.91113" lon="6.94704">
        <ele>815</ele>
        <time>2026-05-09T16:24:56.389Z</time>
      </trkpt>
      <trkpt lat="47.91113" lon="6.94705">
        <ele>815</ele>
        <time>2026-05-09T16:24:57.388Z</time>
      </trkpt>
      <trkpt lat="47.91113" lon="6.94706">
        <ele>815</ele>
        <time>2026-05-09T16:24:58.389Z</time>
      </trkpt>
      <trkpt lat="47.91113" lon="6.94708">
        <ele>815</ele>
        <time>2026-05-09T16:24:59.388Z</time>
      </trkpt>
      <trkpt lat="47.91113" lon="6.94709">
        <ele>815</ele>
        <time>2026-05-09T16:25:00.388Z</time>
      </trkpt>
      <trkpt lat="47.91114" lon="6.94711">
        <ele>815</ele>
        <time>2026-05-09T16:25:01.388Z</time>
      </trkpt>
      <trkpt lat="47.91114" lon="6.94713">
        <ele>816</ele>
        <time>2026-05-09T16:25:02.389Z</time>
      </trkpt>
      <trkpt lat="47.91114" lon="6.94715">
        <ele>816</ele>
        <time>2026-05-09T16:25:03.389Z</time>
      </trkpt>
      <trkpt lat="47.91114" lon="6.94717">
        <ele>816</ele>
        <time>2026-05-09T16:25:04.389Z</time>
      </trkpt>
      <trkpt lat="47.91115" lon="6.94719">
        <ele>817</ele>
        <time>2026-05-09T16:25:05.389Z</time>
      </trkpt>
      <trkpt lat="47.91115" lon="6.94721">
        <ele>817</ele>
        <time>2026-05-09T16:25:06.388Z</time>
      </trkpt>
      <trkpt lat="47.91114" lon="6.94722">
        <ele>817</ele>
        <time>2026-05-09T16:25:07.389Z</time>
      </trkpt>
      <trkpt lat="47.91114" lon="6.94724">
        <ele>817</ele>
        <time>2026-05-09T16:25:08.388Z</time>
      </trkpt>
      <trkpt lat="47.91114" lon="6.94726">
        <ele>817</ele>
        <time>2026-05-09T16:25:09.389Z</time>
      </trkpt>
      <trkpt lat="47.91113" lon="6.94728">
        <ele>817</ele>
        <time>2026-05-09T16:25:10.388Z</time>
      </trkpt>
      <trkpt lat="47.91113" lon="6.9473">
        <ele>816</ele>
        <time>2026-05-09T16:25:11.389Z</time>
      </trkpt>
      <trkpt lat="47.91114" lon="6.94732">
        <ele>816</ele>
        <time>2026-05-09T16:25:12.388Z</time>
      </trkpt>
      <trkpt lat="47.91114" lon="6.94734">
        <ele>816</ele>
        <time>2026-05-09T16:25:13.388Z</time>
      </trkpt>
      <trkpt lat="47.91114" lon="6.94736">
        <ele>816</ele>
        <time>2026-05-09T16:25:14.389Z</time>
      </trkpt>
      <trkpt lat="47.91114" lon="6.94739">
        <ele>817</ele>
        <time>2026-05-09T16:25:15.389Z</time>
      </trkpt>
      <trkpt lat="47.91113" lon="6.94741">
        <ele>817</ele>
        <time>2026-05-09T16:25:16.388Z</time>
      </trkpt>
      <trkpt lat="47.91113" lon="6.94743">
        <ele>817</ele>
        <time>2026-05-09T16:25:17.389Z</time>
      </trkpt>
      <trkpt lat="47.91113" lon="6.94745">
        <ele>817</ele>
        <time>2026-05-09T16:25:18.388Z</time>
      </trkpt>
      <trkpt lat="47.91113" lon="6.94746">
        <ele>817</ele>
        <time>2026-05-09T16:25:19.389Z</time>
      </trkpt>
      <trkpt lat="47.91112" lon="6.94748">
        <ele>816</ele>
        <time>2026-05-09T16:25:20.389Z</time>
      </trkpt>
      <trkpt lat="47.91112" lon="6.9475">
        <ele>816</ele>
        <time>2026-05-09T16:25:21.389Z</time>
      </trkpt>
      <trkpt lat="47.91111" lon="6.94751">
        <ele>816</ele>
        <time>2026-05-09T16:25:22.389Z</time>
      </trkpt>
      <trkpt lat="47.91111" lon="6.94753">
        <ele>816</ele>
        <time>2026-05-09T16:25:23.388Z</time>
      </trkpt>
      <trkpt lat="47.9111" lon="6.94755">
        <ele>815</ele>
        <time>2026-05-09T16:25:24.389Z</time>
      </trkpt>
      <trkpt lat="47.9111" lon="6.94757">
        <ele>815</ele>
        <time>2026-05-09T16:25:25.388Z</time>
      </trkpt>
      <trkpt lat="47.91109" lon="6.94759">
        <ele>815</ele>
        <time>2026-05-09T16:25:26.389Z</time>
      </trkpt>
      <trkpt lat="47.91109" lon="6.9476">
        <ele>815</ele>
        <time>2026-05-09T16:25:27.388Z</time>
      </trkpt>
      <trkpt lat="47.91109" lon="6.94762">
        <ele>815</ele>
        <time>2026-05-09T16:25:28.389Z</time>
      </trkpt>
      <trkpt lat="47.91108" lon="6.94764">
        <ele>815</ele>
        <time>2026-05-09T16:25:29.389Z</time>
      </trkpt>
      <trkpt lat="47.91108" lon="6.94766">
        <ele>815</ele>
        <time>2026-05-09T16:25:30.388Z</time>
      </trkpt>
      <trkpt lat="47.91108" lon="6.94768">
        <ele>815</ele>
        <time>2026-05-09T16:25:31.388Z</time>
      </trkpt>
      <trkpt lat="47.91107" lon="6.9477">
        <ele>815</ele>
        <time>2026-05-09T16:25:32.388Z</time>
      </trkpt>
      <trkpt lat="47.91107" lon="6.94772">
        <ele>815</ele>
        <time>2026-05-09T16:25:33.389Z</time>
      </trkpt>
      <trkpt lat="47.91107" lon="6.94774">
        <ele>815</ele>
        <time>2026-05-09T16:25:34.388Z</time>
      </trkpt>
      <trkpt lat="47.91106" lon="6.94776">
        <ele>816</ele>
        <time>2026-05-09T16:25:35.389Z</time>
      </trkpt>
      <trkpt lat="47.91106" lon="6.94778">
        <ele>815</ele>
        <time>2026-05-09T16:25:36.388Z</time>
      </trkpt>
      <trkpt lat="47.91106" lon="6.9478">
        <ele>816</ele>
        <time>2026-05-09T16:25:37.389Z</time>
      </trkpt>
      <trkpt lat="47.91105" lon="6.94782">
        <ele>815</ele>
        <time>2026-05-09T16:25:38.389Z</time>
      </trkpt>
      <trkpt lat="47.91105" lon="6.94784">
        <ele>815</ele>
        <time>2026-05-09T16:25:39.388Z</time>
      </trkpt>
      <trkpt lat="47.91104" lon="6.94786">
        <ele>815</ele>
        <time>2026-05-09T16:25:40.389Z</time>
      </trkpt>
      <trkpt lat="47.91104" lon="6.94788">
        <ele>815</ele>
        <time>2026-05-09T16:25:41.389Z</time>
      </trkpt>
      <trkpt lat="47.91104" lon="6.9479">
        <ele>815</ele>
        <time>2026-05-09T16:25:42.388Z</time>
      </trkpt>
      <trkpt lat="47.91103" lon="6.94792">
        <ele>815</ele>
        <time>2026-05-09T16:25:43.388Z</time>
      </trkpt>
      <trkpt lat="47.91103" lon="6.94794">
        <ele>815</ele>
        <time>2026-05-09T16:25:44.389Z</time>
      </trkpt>
      <trkpt lat="47.91103" lon="6.94796">
        <ele>815</ele>
        <time>2026-05-09T16:25:45.388Z</time>
      </trkpt>
      <trkpt lat="47.91103" lon="6.94798">
        <ele>815</ele>
        <time>2026-05-09T16:25:46.389Z</time>
      </trkpt>
      <trkpt lat="47.91102" lon="6.948">
        <ele>815</ele>
        <time>2026-05-09T16:25:47.389Z</time>
      </trkpt>
      <trkpt lat="47.91101" lon="6.94801">
        <ele>816</ele>
        <time>2026-05-09T16:25:48.389Z</time>
      </trkpt>
      <trkpt lat="47.91101" lon="6.94803">
        <ele>816</ele>
        <time>2026-05-09T16:25:49.389Z</time>
      </trkpt>
      <trkpt lat="47.911" lon="6.94804">
        <ele>816</ele>
        <time>2026-05-09T16:25:50.388Z</time>
      </trkpt>
      <trkpt lat="47.91099" lon="6.94806">
        <ele>816</ele>
        <time>2026-05-09T16:25:51.389Z</time>
      </trkpt>
      <trkpt lat="47.91098" lon="6.94808">
        <ele>816</ele>
        <time>2026-05-09T16:25:52.388Z</time>
      </trkpt>
      <trkpt lat="47.91097" lon="6.94809">
        <ele>816</ele>
        <time>2026-05-09T16:25:53.389Z</time>
      </trkpt>
      <trkpt lat="47.91096" lon="6.9481">
        <ele>817</ele>
        <time>2026-05-09T16:25:54.389Z</time>
      </trkpt>
      <trkpt lat="47.91096" lon="6.94811">
        <ele>817</ele>
        <time>2026-05-09T16:25:55.389Z</time>
      </trkpt>
      <trkpt lat="47.91095" lon="6.94813">
        <ele>817</ele>
        <time>2026-05-09T16:25:56.388Z</time>
      </trkpt>
      <trkpt lat="47.91094" lon="6.94814">
        <ele>817</ele>
        <time>2026-05-09T16:25:57.389Z</time>
      </trkpt>
      <trkpt lat="47.91093" lon="6.94815">
        <ele>817</ele>
        <time>2026-05-09T16:25:58.388Z</time>
      </trkpt>
      <trkpt lat="47.91092" lon="6.94816">
        <ele>818</ele>
        <time>2026-05-09T16:25:59.389Z</time>
      </trkpt>
      <trkpt lat="47.91091" lon="6.94817">
        <ele>818</ele>
        <time>2026-05-09T16:26:00.388Z</time>
      </trkpt>
      <trkpt lat="47.9109" lon="6.94819">
        <ele>819</ele>
        <time>2026-05-09T16:26:01.389Z</time>
      </trkpt>
      <trkpt lat="47.91089" lon="6.9482">
        <ele>819</ele>
        <time>2026-05-09T16:26:02.388Z</time>
      </trkpt>
      <trkpt lat="47.91088" lon="6.9482">
        <ele>820</ele>
        <time>2026-05-09T16:26:03.388Z</time>
      </trkpt>
      <trkpt lat="47.91087" lon="6.94821">
        <ele>820</ele>
        <time>2026-05-09T16:26:04.388Z</time>
      </trkpt>
      <trkpt lat="47.91086" lon="6.94822">
        <ele>820</ele>
        <time>2026-05-09T16:26:05.389Z</time>
      </trkpt>
      <trkpt lat="47.91085" lon="6.94823">
        <ele>820</ele>
        <time>2026-05-09T16:26:06.389Z</time>
      </trkpt>
      <trkpt lat="47.91083" lon="6.94824">
        <ele>821</ele>
        <time>2026-05-09T16:26:07.388Z</time>
      </trkpt>
      <trkpt lat="47.91082" lon="6.94824">
        <ele>820</ele>
        <time>2026-05-09T16:26:08.389Z</time>
      </trkpt>
      <trkpt lat="47.91081" lon="6.94824">
        <ele>820</ele>
        <time>2026-05-09T16:26:09.388Z</time>
      </trkpt>
      <trkpt lat="47.91079" lon="6.94824">
        <ele>820</ele>
        <time>2026-05-09T16:26:10.388Z</time>
      </trkpt>
      <trkpt lat="47.91078" lon="6.94825">
        <ele>820</ele>
        <time>2026-05-09T16:26:11.389Z</time>
      </trkpt>
      <trkpt lat="47.91076" lon="6.94825">
        <ele>820</ele>
        <time>2026-05-09T16:26:12.389Z</time>
      </trkpt>
      <trkpt lat="47.91074" lon="6.94825">
        <ele>820</ele>
        <time>2026-05-09T16:26:13.388Z</time>
      </trkpt>
      <trkpt lat="47.91073" lon="6.94825">
        <ele>821</ele>
        <time>2026-05-09T16:26:14.389Z</time>
      </trkpt>
      <trkpt lat="47.91072" lon="6.94825">
        <ele>821</ele>
        <time>2026-05-09T16:26:15.388Z</time>
      </trkpt>
      <trkpt lat="47.91071" lon="6.94824">
        <ele>821</ele>
        <time>2026-05-09T16:26:16.389Z</time>
      </trkpt>
      <trkpt lat="47.9107" lon="6.94824">
        <ele>821</ele>
        <time>2026-05-09T16:26:17.388Z</time>
      </trkpt>
      <trkpt lat="47.91068" lon="6.94823">
        <ele>821</ele>
        <time>2026-05-09T16:26:18.389Z</time>
      </trkpt>
      <trkpt lat="47.91067" lon="6.94823">
        <ele>821</ele>
        <time>2026-05-09T16:26:19.389Z</time>
      </trkpt>
      <trkpt lat="47.91066" lon="6.94823">
        <ele>821</ele>
        <time>2026-05-09T16:26:20.389Z</time>
      </trkpt>
      <trkpt lat="47.91064" lon="6.94822">
        <ele>821</ele>
        <time>2026-05-09T16:26:21.389Z</time>
      </trkpt>
      <trkpt lat="47.91063" lon="6.94822">
        <ele>821</ele>
        <time>2026-05-09T16:26:22.388Z</time>
      </trkpt>
      <trkpt lat="47.91061" lon="6.94822">
        <ele>821</ele>
        <time>2026-05-09T16:26:23.389Z</time>
      </trkpt>
      <trkpt lat="47.9106" lon="6.94822">
        <ele>821</ele>
        <time>2026-05-09T16:26:24.388Z</time>
      </trkpt>
      <trkpt lat="47.91058" lon="6.94822">
        <ele>821</ele>
        <time>2026-05-09T16:26:25.389Z</time>
      </trkpt>
      <trkpt lat="47.91057" lon="6.94822">
        <ele>821</ele>
        <time>2026-05-09T16:26:26.388Z</time>
      </trkpt>
      <trkpt lat="47.91055" lon="6.94822">
        <ele>821</ele>
        <time>2026-05-09T16:26:27.389Z</time>
      </trkpt>
      <trkpt lat="47.91054" lon="6.94822">
        <ele>821</ele>
        <time>2026-05-09T16:26:28.388Z</time>
      </trkpt>
      <trkpt lat="47.91053" lon="6.94822">
        <ele>821</ele>
        <time>2026-05-09T16:26:29.389Z</time>
      </trkpt>
      <trkpt lat="47.91052" lon="6.94822">
        <ele>821</ele>
        <time>2026-05-09T16:26:30.388Z</time>
      </trkpt>
      <trkpt lat="47.9105" lon="6.94822">
        <ele>821</ele>
        <time>2026-05-09T16:26:31.389Z</time>
      </trkpt>
      <trkpt lat="47.91049" lon="6.94822">
        <ele>821</ele>
        <time>2026-05-09T16:26:32.388Z</time>
      </trkpt>
      <trkpt lat="47.91048" lon="6.94822">
        <ele>821</ele>
        <time>2026-05-09T16:26:33.389Z</time>
      </trkpt>
      <trkpt lat="47.91047" lon="6.94822">
        <ele>821</ele>
        <time>2026-05-09T16:26:34.388Z</time>
      </trkpt>
      <trkpt lat="47.91046" lon="6.94822">
        <ele>821</ele>
        <time>2026-05-09T16:26:35.389Z</time>
      </trkpt>
      <trkpt lat="47.91045" lon="6.94821">
        <ele>821</ele>
        <time>2026-05-09T16:26:36.389Z</time>
      </trkpt>
      <trkpt lat="47.91044" lon="6.94821">
        <ele>822</ele>
        <time>2026-05-09T16:26:37.388Z</time>
      </trkpt>
      <trkpt lat="47.91043" lon="6.94821">
        <ele>822</ele>
        <time>2026-05-09T16:26:38.388Z</time>
      </trkpt>
      <trkpt lat="47.91042" lon="6.94821">
        <ele>822</ele>
        <time>2026-05-09T16:26:39.389Z</time>
      </trkpt>
      <trkpt lat="47.91042" lon="6.9482">
        <ele>822</ele>
        <time>2026-05-09T16:26:40.389Z</time>
      </trkpt>
      <trkpt lat="47.91041" lon="6.9482">
        <ele>822</ele>
        <time>2026-05-09T16:26:41.388Z</time>
      </trkpt>
      <trkpt lat="47.9104" lon="6.94821">
        <ele>822</ele>
        <time>2026-05-09T16:26:42.389Z</time>
      </trkpt>
      <trkpt lat="47.91039" lon="6.9482">
        <ele>822</ele>
        <time>2026-05-09T16:26:43.388Z</time>
      </trkpt>
      <trkpt lat="47.91038" lon="6.94821">
        <ele>823</ele>
        <time>2026-05-09T16:26:44.389Z</time>
      </trkpt>
      <trkpt lat="47.91037" lon="6.94821">
        <ele>823</ele>
        <time>2026-05-09T16:26:45.388Z</time>
      </trkpt>
      <trkpt lat="47.91036" lon="6.94821">
        <ele>823</ele>
        <time>2026-05-09T16:26:46.389Z</time>
      </trkpt>
      <trkpt lat="47.91035" lon="6.94821">
        <ele>823</ele>
        <time>2026-05-09T16:26:47.388Z</time>
      </trkpt>
      <trkpt lat="47.91035" lon="6.94821">
        <ele>823</ele>
        <time>2026-05-09T16:26:48.389Z</time>
      </trkpt>
      <trkpt lat="47.91034" lon="6.94821">
        <ele>824</ele>
        <time>2026-05-09T16:26:49.388Z</time>
      </trkpt>
      <trkpt lat="47.91034" lon="6.94822">
        <ele>824</ele>
        <time>2026-05-09T16:26:50.388Z</time>
      </trkpt>
      <trkpt lat="47.91033" lon="6.94822">
        <ele>824</ele>
        <time>2026-05-09T16:26:51.389Z</time>
      </trkpt>
      <trkpt lat="47.91032" lon="6.94822">
        <ele>825</ele>
        <time>2026-05-09T16:26:52.388Z</time>
      </trkpt>
      <trkpt lat="47.91031" lon="6.94823">
        <ele>825</ele>
        <time>2026-05-09T16:26:53.389Z</time>
      </trkpt>
      <trkpt lat="47.91029" lon="6.94826">
        <ele>825</ele>
        <time>2026-05-09T16:26:54.388Z</time>
      </trkpt>
      <trkpt lat="47.91026" lon="6.94828">
        <ele>826</ele>
        <time>2026-05-09T16:26:55.389Z</time>
      </trkpt>
      <trkpt lat="47.91023" lon="6.9483">
        <ele>826</ele>
        <time>2026-05-09T16:26:56.388Z</time>
      </trkpt>
      <trkpt lat="47.91022" lon="6.9483">
        <ele>827</ele>
        <time>2026-05-09T16:26:57.389Z</time>
      </trkpt>
      <trkpt lat="47.9102" lon="6.94831">
        <ele>827</ele>
        <time>2026-05-09T16:26:58.388Z</time>
      </trkpt>
      <trkpt lat="47.91018" lon="6.94831">
        <ele>827</ele>
        <time>2026-05-09T16:26:59.389Z</time>
      </trkpt>
      <trkpt lat="47.91017" lon="6.94832">
        <ele>828</ele>
        <time>2026-05-09T16:27:00.388Z</time>
      </trkpt>
      <trkpt lat="47.91016" lon="6.94831">
        <ele>828</ele>
        <time>2026-05-09T16:27:01.389Z</time>
      </trkpt>
      <trkpt lat="47.91015" lon="6.94831">
        <ele>828</ele>
        <time>2026-05-09T16:27:02.388Z</time>
      </trkpt>
      <trkpt lat="47.91014" lon="6.94831">
        <ele>828</ele>
        <time>2026-05-09T16:27:03.389Z</time>
      </trkpt>
      <trkpt lat="47.91013" lon="6.94831">
        <ele>829</ele>
        <time>2026-05-09T16:27:04.389Z</time>
      </trkpt>
      <trkpt lat="47.91012" lon="6.94831">
        <ele>829</ele>
        <time>2026-05-09T16:27:05.389Z</time>
      </trkpt>
      <trkpt lat="47.91011" lon="6.94832">
        <ele>829</ele>
        <time>2026-05-09T16:27:06.389Z</time>
      </trkpt>
      <trkpt lat="47.9101" lon="6.94833">
        <ele>829</ele>
        <time>2026-05-09T16:27:07.388Z</time>
      </trkpt>
      <trkpt lat="47.91009" lon="6.94834">
        <ele>829</ele>
        <time>2026-05-09T16:27:08.388Z</time>
      </trkpt>
      <trkpt lat="47.91008" lon="6.94835">
        <ele>829</ele>
        <time>2026-05-09T16:27:09.388Z</time>
      </trkpt>
      <trkpt lat="47.91007" lon="6.94835">
        <ele>829</ele>
        <time>2026-05-09T16:27:10.389Z</time>
      </trkpt>
      <trkpt lat="47.91006" lon="6.94836">
        <ele>829</ele>
        <time>2026-05-09T16:27:11.389Z</time>
      </trkpt>
      <trkpt lat="47.91006" lon="6.94836">
        <ele>829</ele>
        <time>2026-05-09T16:27:12.388Z</time>
      </trkpt>
      <trkpt lat="47.91005" lon="6.94837">
        <ele>829</ele>
        <time>2026-05-09T16:27:13.388Z</time>
      </trkpt>
      <trkpt lat="47.91004" lon="6.94837">
        <ele>829</ele>
        <time>2026-05-09T16:27:14.389Z</time>
      </trkpt>
      <trkpt lat="47.91003" lon="6.94838">
        <ele>829</ele>
        <time>2026-05-09T16:27:15.389Z</time>
      </trkpt>
      <trkpt lat="47.91003" lon="6.94838">
        <ele>829</ele>
        <time>2026-05-09T16:27:16.389Z</time>
      </trkpt>
      <trkpt lat="47.91002" lon="6.94839">
        <ele>829</ele>
        <time>2026-05-09T16:27:17.389Z</time>
      </trkpt>
      <trkpt lat="47.91001" lon="6.9484">
        <ele>829</ele>
        <time>2026-05-09T16:27:18.388Z</time>
      </trkpt>
      <trkpt lat="47.91" lon="6.9484">
        <ele>829</ele>
        <time>2026-05-09T16:27:19.389Z</time>
      </trkpt>
      <trkpt lat="47.90999" lon="6.9484">
        <ele>829</ele>
        <time>2026-05-09T16:27:20.388Z</time>
      </trkpt>
      <trkpt lat="47.90998" lon="6.94842">
        <ele>829</ele>
        <time>2026-05-09T16:27:21.389Z</time>
      </trkpt>
      <trkpt lat="47.90996" lon="6.94842">
        <ele>829</ele>
        <time>2026-05-09T16:27:22.388Z</time>
      </trkpt>
      <trkpt lat="47.90995" lon="6.94843">
        <ele>829</ele>
        <time>2026-05-09T16:27:23.389Z</time>
      </trkpt>
      <trkpt lat="47.90995" lon="6.94844">
        <ele>830</ele>
        <time>2026-05-09T16:27:24.388Z</time>
      </trkpt>
      <trkpt lat="47.90994" lon="6.94846">
        <ele>830</ele>
        <time>2026-05-09T16:27:25.388Z</time>
      </trkpt>
      <trkpt lat="47.90993" lon="6.94847">
        <ele>830</ele>
        <time>2026-05-09T16:27:26.388Z</time>
      </trkpt>
      <trkpt lat="47.90992" lon="6.94848">
        <ele>830</ele>
        <time>2026-05-09T16:27:27.389Z</time>
      </trkpt>
      <trkpt lat="47.90991" lon="6.94849">
        <ele>830</ele>
        <time>2026-05-09T16:27:28.388Z</time>
      </trkpt>
      <trkpt lat="47.9099" lon="6.9485">
        <ele>830</ele>
        <time>2026-05-09T16:27:29.389Z</time>
      </trkpt>
      <trkpt lat="47.90989" lon="6.9485">
        <ele>830</ele>
        <time>2026-05-09T16:27:30.389Z</time>
      </trkpt>
      <trkpt lat="47.90989" lon="6.94851">
        <ele>830</ele>
        <time>2026-05-09T16:27:31.389Z</time>
      </trkpt>
      <trkpt lat="47.90989" lon="6.94851">
        <ele>830</ele>
        <time>2026-05-09T16:27:32.388Z</time>
      </trkpt>
      <trkpt lat="47.90988" lon="6.9485">
        <ele>829</ele>
        <time>2026-05-09T16:27:33.389Z</time>
      </trkpt>
      <trkpt lat="47.90991" lon="6.94853">
        <ele>827</ele>
        <time>2026-05-09T16:27:39.828Z</time>
      </trkpt>
      <trkpt lat="47.90986" lon="6.94854">
        <ele>825</ele>
        <time>2026-05-09T16:27:46.181Z</time>
      </trkpt>
      <trkpt lat="47.90985" lon="6.94854">
        <ele>825</ele>
        <time>2026-05-09T16:27:47.181Z</time>
      </trkpt>
      <trkpt lat="47.90985" lon="6.94855">
        <ele>825</ele>
        <time>2026-05-09T16:27:48.181Z</time>
      </trkpt>
      <trkpt lat="47.90984" lon="6.94855">
        <ele>825</ele>
        <time>2026-05-09T16:27:49.181Z</time>
      </trkpt>
      <trkpt lat="47.90984" lon="6.94855">
        <ele>825</ele>
        <time>2026-05-09T16:27:50.181Z</time>
      </trkpt>
      <trkpt lat="47.90984" lon="6.94855">
        <ele>825</ele>
        <time>2026-05-09T16:27:51.181Z</time>
      </trkpt>
      <trkpt lat="47.90983" lon="6.94855">
        <ele>825</ele>
        <time>2026-05-09T16:27:52.180Z</time>
      </trkpt>
      <trkpt lat="47.90982" lon="6.94855">
        <ele>825</ele>
        <time>2026-05-09T16:27:53.180Z</time>
      </trkpt>
      <trkpt lat="47.90981" lon="6.94855">
        <ele>825</ele>
        <time>2026-05-09T16:27:54.180Z</time>
      </trkpt>
      <trkpt lat="47.9098" lon="6.94855">
        <ele>825</ele>
        <time>2026-05-09T16:27:55.181Z</time>
      </trkpt>
      <trkpt lat="47.90979" lon="6.94856">
        <ele>825</ele>
        <time>2026-05-09T16:27:56.180Z</time>
      </trkpt>
      <trkpt lat="47.90978" lon="6.94856">
        <ele>825</ele>
        <time>2026-05-09T16:27:57.181Z</time>
      </trkpt>
      <trkpt lat="47.90977" lon="6.94857">
        <ele>825</ele>
        <time>2026-05-09T16:27:58.180Z</time>
      </trkpt>
      <trkpt lat="47.90975" lon="6.94857">
        <ele>825</ele>
        <time>2026-05-09T16:27:59.181Z</time>
      </trkpt>
      <trkpt lat="47.90973" lon="6.94857">
        <ele>825</ele>
        <time>2026-05-09T16:28:00.180Z</time>
      </trkpt>
      <trkpt lat="47.90972" lon="6.94858">
        <ele>825</ele>
        <time>2026-05-09T16:28:01.181Z</time>
      </trkpt>
      <trkpt lat="47.9097" lon="6.94859">
        <ele>825</ele>
        <time>2026-05-09T16:28:02.180Z</time>
      </trkpt>
      <trkpt lat="47.90968" lon="6.94859">
        <ele>825</ele>
        <time>2026-05-09T16:28:03.181Z</time>
      </trkpt>
      <trkpt lat="47.90966" lon="6.9486">
        <ele>825</ele>
        <time>2026-05-09T16:28:04.180Z</time>
      </trkpt>
      <trkpt lat="47.90963" lon="6.94862">
        <ele>825</ele>
        <time>2026-05-09T16:28:05.181Z</time>
      </trkpt>
      <trkpt lat="47.90961" lon="6.94863">
        <ele>825</ele>
        <time>2026-05-09T16:28:06.180Z</time>
      </trkpt>
      <trkpt lat="47.90959" lon="6.94864">
        <ele>825</ele>
        <time>2026-05-09T16:28:07.181Z</time>
      </trkpt>
      <trkpt lat="47.90958" lon="6.94865">
        <ele>825</ele>
        <time>2026-05-09T16:28:08.180Z</time>
      </trkpt>
      <trkpt lat="47.90956" lon="6.94865">
        <ele>825</ele>
        <time>2026-05-09T16:28:09.181Z</time>
      </trkpt>
      <trkpt lat="47.90955" lon="6.94866">
        <ele>825</ele>
        <time>2026-05-09T16:28:10.181Z</time>
      </trkpt>
      <trkpt lat="47.90954" lon="6.94866">
        <ele>825</ele>
        <time>2026-05-09T16:28:11.181Z</time>
      </trkpt>
      <trkpt lat="47.90952" lon="6.94867">
        <ele>825</ele>
        <time>2026-05-09T16:28:12.181Z</time>
      </trkpt>
      <trkpt lat="47.90951" lon="6.94868">
        <ele>824</ele>
        <time>2026-05-09T16:28:13.180Z</time>
      </trkpt>
      <trkpt lat="47.90949" lon="6.94869">
        <ele>824</ele>
        <time>2026-05-09T16:28:14.181Z</time>
      </trkpt>
      <trkpt lat="47.90948" lon="6.9487">
        <ele>824</ele>
        <time>2026-05-09T16:28:15.180Z</time>
      </trkpt>
      <trkpt lat="47.90946" lon="6.9487">
        <ele>824</ele>
        <time>2026-05-09T16:28:16.181Z</time>
      </trkpt>
      <trkpt lat="47.90945" lon="6.9487">
        <ele>824</ele>
        <time>2026-05-09T16:28:17.180Z</time>
      </trkpt>
      <trkpt lat="47.90944" lon="6.9487">
        <ele>824</ele>
        <time>2026-05-09T16:28:18.181Z</time>
      </trkpt>
      <trkpt lat="47.90943" lon="6.94871">
        <ele>824</ele>
        <time>2026-05-09T16:28:19.180Z</time>
      </trkpt>
      <trkpt lat="47.90941" lon="6.94872">
        <ele>824</ele>
        <time>2026-05-09T16:28:20.181Z</time>
      </trkpt>
      <trkpt lat="47.9094" lon="6.94873">
        <ele>824</ele>
        <time>2026-05-09T16:28:21.180Z</time>
      </trkpt>
      <trkpt lat="47.90938" lon="6.94874">
        <ele>824</ele>
        <time>2026-05-09T16:28:22.181Z</time>
      </trkpt>
      <trkpt lat="47.90937" lon="6.94874">
        <ele>824</ele>
        <time>2026-05-09T16:28:23.180Z</time>
      </trkpt>
      <trkpt lat="47.90936" lon="6.94874">
        <ele>825</ele>
        <time>2026-05-09T16:28:24.181Z</time>
      </trkpt>
      <trkpt lat="47.90935" lon="6.94875">
        <ele>825</ele>
        <time>2026-05-09T16:28:25.180Z</time>
      </trkpt>
      <trkpt lat="47.90934" lon="6.94875">
        <ele>825</ele>
        <time>2026-05-09T16:28:26.181Z</time>
      </trkpt>
      <trkpt lat="47.90932" lon="6.94876">
        <ele>825</ele>
        <time>2026-05-09T16:28:27.180Z</time>
      </trkpt>
      <trkpt lat="47.90931" lon="6.94876">
        <ele>825</ele>
        <time>2026-05-09T16:28:28.181Z</time>
      </trkpt>
      <trkpt lat="47.90929" lon="6.94877">
        <ele>825</ele>
        <time>2026-05-09T16:28:29.180Z</time>
      </trkpt>
      <trkpt lat="47.90928" lon="6.94877">
        <ele>825</ele>
        <time>2026-05-09T16:28:30.181Z</time>
      </trkpt>
      <trkpt lat="47.90927" lon="6.94877">
        <ele>825</ele>
        <time>2026-05-09T16:28:31.180Z</time>
      </trkpt>
      <trkpt lat="47.90925" lon="6.94878">
        <ele>825</ele>
        <time>2026-05-09T16:28:32.181Z</time>
      </trkpt>
      <trkpt lat="47.90924" lon="6.94879">
        <ele>825</ele>
        <time>2026-05-09T16:28:33.180Z</time>
      </trkpt>
      <trkpt lat="47.90922" lon="6.9488">
        <ele>824</ele>
        <time>2026-05-09T16:28:34.180Z</time>
      </trkpt>
      <trkpt lat="47.9092" lon="6.94881">
        <ele>824</ele>
        <time>2026-05-09T16:28:35.181Z</time>
      </trkpt>
      <trkpt lat="47.90919" lon="6.94881">
        <ele>824</ele>
        <time>2026-05-09T16:28:36.181Z</time>
      </trkpt>
      <trkpt lat="47.90917" lon="6.94881">
        <ele>824</ele>
        <time>2026-05-09T16:28:37.181Z</time>
      </trkpt>
      <trkpt lat="47.90916" lon="6.94881">
        <ele>825</ele>
        <time>2026-05-09T16:28:38.180Z</time>
      </trkpt>
      <trkpt lat="47.90915" lon="6.94882">
        <ele>825</ele>
        <time>2026-05-09T16:28:39.181Z</time>
      </trkpt>
      <trkpt lat="47.90914" lon="6.94882">
        <ele>825</ele>
        <time>2026-05-09T16:28:40.180Z</time>
      </trkpt>
      <trkpt lat="47.90913" lon="6.94882">
        <ele>825</ele>
        <time>2026-05-09T16:28:41.180Z</time>
      </trkpt>
      <trkpt lat="47.90911" lon="6.94883">
        <ele>825</ele>
        <time>2026-05-09T16:28:42.180Z</time>
      </trkpt>
      <trkpt lat="47.9091" lon="6.94883">
        <ele>826</ele>
        <time>2026-05-09T16:28:43.180Z</time>
      </trkpt>
      <trkpt lat="47.90909" lon="6.94883">
        <ele>826</ele>
        <time>2026-05-09T16:28:44.181Z</time>
      </trkpt>
      <trkpt lat="47.90908" lon="6.94882">
        <ele>826</ele>
        <time>2026-05-09T16:28:45.180Z</time>
      </trkpt>
      <trkpt lat="47.90907" lon="6.94882">
        <ele>826</ele>
        <time>2026-05-09T16:28:46.181Z</time>
      </trkpt>
      <trkpt lat="47.90907" lon="6.94881">
        <ele>826</ele>
        <time>2026-05-09T16:28:47.180Z</time>
      </trkpt>
      <trkpt lat="47.90907" lon="6.94879">
        <ele>826</ele>
        <time>2026-05-09T16:28:48.181Z</time>
      </trkpt>
      <trkpt lat="47.90908" lon="6.94878">
        <ele>826</ele>
        <time>2026-05-09T16:28:49.180Z</time>
      </trkpt>
      <trkpt lat="47.90908" lon="6.94877">
        <ele>826</ele>
        <time>2026-05-09T16:28:50.181Z</time>
      </trkpt>
      <trkpt lat="47.90907" lon="6.94878">
        <ele>827</ele>
        <time>2026-05-09T16:28:51.181Z</time>
      </trkpt>
      <trkpt lat="47.90902" lon="6.94882">
        <ele>827</ele>
        <time>2026-05-09T16:28:57.580Z</time>
      </trkpt>
      <trkpt lat="47.909" lon="6.94882">
        <ele>827</ele>
        <time>2026-05-09T16:28:58.581Z</time>
      </trkpt>
      <trkpt lat="47.90899" lon="6.94882">
        <ele>827</ele>
        <time>2026-05-09T16:28:59.580Z</time>
      </trkpt>
      <trkpt lat="47.90897" lon="6.94882">
        <ele>827</ele>
        <time>2026-05-09T16:29:00.580Z</time>
      </trkpt>
      <trkpt lat="47.90896" lon="6.94883">
        <ele>827</ele>
        <time>2026-05-09T16:29:01.581Z</time>
      </trkpt>
      <trkpt lat="47.90894" lon="6.94883">
        <ele>827</ele>
        <time>2026-05-09T16:29:02.581Z</time>
      </trkpt>
      <trkpt lat="47.90893" lon="6.94883">
        <ele>827</ele>
        <time>2026-05-09T16:29:03.580Z</time>
      </trkpt>
      <trkpt lat="47.90892" lon="6.94883">
        <ele>828</ele>
        <time>2026-05-09T16:29:04.580Z</time>
      </trkpt>
      <trkpt lat="47.90891" lon="6.94883">
        <ele>828</ele>
        <time>2026-05-09T16:29:05.580Z</time>
      </trkpt>
      <trkpt lat="47.9089" lon="6.94883">
        <ele>829</ele>
        <time>2026-05-09T16:29:06.581Z</time>
      </trkpt>
      <trkpt lat="47.90889" lon="6.94881">
        <ele>829</ele>
        <time>2026-05-09T16:29:07.581Z</time>
      </trkpt>
      <trkpt lat="47.90887" lon="6.94881">
        <ele>829</ele>
        <time>2026-05-09T16:29:08.580Z</time>
      </trkpt>
      <trkpt lat="47.90886" lon="6.94882">
        <ele>829</ele>
        <time>2026-05-09T16:29:09.581Z</time>
      </trkpt>
      <trkpt lat="47.90885" lon="6.94882">
        <ele>829</ele>
        <time>2026-05-09T16:29:10.580Z</time>
      </trkpt>
      <trkpt lat="47.90883" lon="6.94882">
        <ele>829</ele>
        <time>2026-05-09T16:29:11.581Z</time>
      </trkpt>
      <trkpt lat="47.90882" lon="6.94882">
        <ele>829</ele>
        <time>2026-05-09T16:29:12.581Z</time>
      </trkpt>
      <trkpt lat="47.9088" lon="6.94883">
        <ele>829</ele>
        <time>2026-05-09T16:29:13.580Z</time>
      </trkpt>
      <trkpt lat="47.90878" lon="6.94883">
        <ele>829</ele>
        <time>2026-05-09T16:29:14.580Z</time>
      </trkpt>
      <trkpt lat="47.90877" lon="6.94883">
        <ele>829</ele>
        <time>2026-05-09T16:29:15.580Z</time>
      </trkpt>
      <trkpt lat="47.90875" lon="6.94883">
        <ele>829</ele>
        <time>2026-05-09T16:29:16.581Z</time>
      </trkpt>
      <trkpt lat="47.90875" lon="6.94883">
        <ele>829</ele>
        <time>2026-05-09T16:29:17.581Z</time>
      </trkpt>
      <trkpt lat="47.90874" lon="6.94883">
        <ele>829</ele>
        <time>2026-05-09T16:29:18.581Z</time>
      </trkpt>
      <trkpt lat="47.90872" lon="6.94884">
        <ele>829</ele>
        <time>2026-05-09T16:29:19.581Z</time>
      </trkpt>
      <trkpt lat="47.90871" lon="6.94885">
        <ele>829</ele>
        <time>2026-05-09T16:29:20.580Z</time>
      </trkpt>
      <trkpt lat="47.9087" lon="6.94885">
        <ele>829</ele>
        <time>2026-05-09T16:29:21.581Z</time>
      </trkpt>
      <trkpt lat="47.90868" lon="6.94886">
        <ele>829</ele>
        <time>2026-05-09T16:29:22.580Z</time>
      </trkpt>
      <trkpt lat="47.90867" lon="6.94887">
        <ele>829</ele>
        <time>2026-05-09T16:29:23.581Z</time>
      </trkpt>
      <trkpt lat="47.90865" lon="6.94888">
        <ele>830</ele>
        <time>2026-05-09T16:29:24.581Z</time>
      </trkpt>
      <trkpt lat="47.90864" lon="6.94889">
        <ele>830</ele>
        <time>2026-05-09T16:29:25.581Z</time>
      </trkpt>
      <trkpt lat="47.90863" lon="6.9489">
        <ele>831</ele>
        <time>2026-05-09T16:29:26.581Z</time>
      </trkpt>
      <trkpt lat="47.90862" lon="6.94891">
        <ele>831</ele>
        <time>2026-05-09T16:29:27.580Z</time>
      </trkpt>
      <trkpt lat="47.90861" lon="6.94891">
        <ele>832</ele>
        <time>2026-05-09T16:29:28.580Z</time>
      </trkpt>
      <trkpt lat="47.9086" lon="6.94892">
        <ele>832</ele>
        <time>2026-05-09T16:29:29.581Z</time>
      </trkpt>
      <trkpt lat="47.90859" lon="6.94892">
        <ele>832</ele>
        <time>2026-05-09T16:29:30.580Z</time>
      </trkpt>
      <trkpt lat="47.90858" lon="6.94893">
        <ele>833</ele>
        <time>2026-05-09T16:29:31.580Z</time>
      </trkpt>
      <trkpt lat="47.90858" lon="6.94893">
        <ele>833</ele>
        <time>2026-05-09T16:29:32.581Z</time>
      </trkpt>
      <trkpt lat="47.90856" lon="6.94894">
        <ele>833</ele>
        <time>2026-05-09T16:29:33.581Z</time>
      </trkpt>
      <trkpt lat="47.90855" lon="6.94894">
        <ele>833</ele>
        <time>2026-05-09T16:29:34.580Z</time>
      </trkpt>
      <trkpt lat="47.90853" lon="6.94895">
        <ele>833</ele>
        <time>2026-05-09T16:29:35.580Z</time>
      </trkpt>
      <trkpt lat="47.90852" lon="6.94896">
        <ele>833</ele>
        <time>2026-05-09T16:29:36.581Z</time>
      </trkpt>
      <trkpt lat="47.90851" lon="6.94896">
        <ele>833</ele>
        <time>2026-05-09T16:29:37.580Z</time>
      </trkpt>
      <trkpt lat="47.9085" lon="6.94896">
        <ele>833</ele>
        <time>2026-05-09T16:29:38.580Z</time>
      </trkpt>
      <trkpt lat="47.90849" lon="6.94896">
        <ele>833</ele>
        <time>2026-05-09T16:29:39.580Z</time>
      </trkpt>
      <trkpt lat="47.90847" lon="6.94897">
        <ele>833</ele>
        <time>2026-05-09T16:29:40.581Z</time>
      </trkpt>
      <trkpt lat="47.90846" lon="6.94897">
        <ele>834</ele>
        <time>2026-05-09T16:29:41.580Z</time>
      </trkpt>
      <trkpt lat="47.90845" lon="6.94897">
        <ele>834</ele>
        <time>2026-05-09T16:29:42.580Z</time>
      </trkpt>
      <trkpt lat="47.90844" lon="6.94897">
        <ele>834</ele>
        <time>2026-05-09T16:29:43.581Z</time>
      </trkpt>
      <trkpt lat="47.90843" lon="6.94896">
        <ele>835</ele>
        <time>2026-05-09T16:29:44.581Z</time>
      </trkpt>
      <trkpt lat="47.90843" lon="6.94896">
        <ele>835</ele>
        <time>2026-05-09T16:29:45.581Z</time>
      </trkpt>
      <trkpt lat="47.90843" lon="6.94896">
        <ele>835</ele>
        <time>2026-05-09T16:29:46.580Z</time>
      </trkpt>
      <trkpt lat="47.90843" lon="6.94895">
        <ele>835</ele>
        <time>2026-05-09T16:29:47.580Z</time>
      </trkpt>
      <trkpt lat="47.90844" lon="6.94895">
        <ele>835</ele>
        <time>2026-05-09T16:29:48.581Z</time>
      </trkpt>
      <trkpt lat="47.90846" lon="6.94895">
        <ele>835</ele>
        <time>2026-05-09T16:29:49.580Z</time>
      </trkpt>
      <trkpt lat="47.90847" lon="6.94895">
        <ele>835</ele>
        <time>2026-05-09T16:29:50.580Z</time>
      </trkpt>
      <trkpt lat="47.90849" lon="6.94894">
        <ele>835</ele>
        <time>2026-05-09T16:29:51.581Z</time>
      </trkpt>
      <trkpt lat="47.9085" lon="6.94893">
        <ele>835</ele>
        <time>2026-05-09T16:29:52.581Z</time>
      </trkpt>
      <trkpt lat="47.90852" lon="6.94893">
        <ele>836</ele>
        <time>2026-05-09T16:29:53.581Z</time>
      </trkpt>
      <trkpt lat="47.90853" lon="6.94892">
        <ele>836</ele>
        <time>2026-05-09T16:29:54.581Z</time>
      </trkpt>
      <trkpt lat="47.90854" lon="6.94891">
        <ele>837</ele>
        <time>2026-05-09T16:29:55.581Z</time>
      </trkpt>
      <trkpt lat="47.90855" lon="6.9489">
        <ele>837</ele>
        <time>2026-05-09T16:29:56.581Z</time>
      </trkpt>
      <trkpt lat="47.90855" lon="6.94888">
        <ele>838</ele>
        <time>2026-05-09T16:29:57.581Z</time>
      </trkpt>
      <trkpt lat="47.90857" lon="6.94887">
        <ele>838</ele>
        <time>2026-05-09T16:29:58.581Z</time>
      </trkpt>
      <trkpt lat="47.90858" lon="6.94886">
        <ele>838</ele>
        <time>2026-05-09T16:29:59.580Z</time>
      </trkpt>
      <trkpt lat="47.90859" lon="6.94884">
        <ele>839</ele>
        <time>2026-05-09T16:30:00.581Z</time>
      </trkpt>
      <trkpt lat="47.9086" lon="6.94883">
        <ele>839</ele>
        <time>2026-05-09T16:30:01.580Z</time>
      </trkpt>
      <trkpt lat="47.90862" lon="6.94882">
        <ele>840</ele>
        <time>2026-05-09T16:30:02.581Z</time>
      </trkpt>
      <trkpt lat="47.90863" lon="6.94882">
        <ele>841</ele>
        <time>2026-05-09T16:30:03.580Z</time>
      </trkpt>
      <trkpt lat="47.90865" lon="6.94881">
        <ele>841</ele>
        <time>2026-05-09T16:30:04.580Z</time>
      </trkpt>
      <trkpt lat="47.90866" lon="6.9488">
        <ele>842</ele>
        <time>2026-05-09T16:30:05.581Z</time>
      </trkpt>
      <trkpt lat="47.90867" lon="6.94879">
        <ele>842</ele>
        <time>2026-05-09T16:30:06.581Z</time>
      </trkpt>
      <trkpt lat="47.90869" lon="6.94878">
        <ele>842</ele>
        <time>2026-05-09T16:30:07.580Z</time>
      </trkpt>
      <trkpt lat="47.9087" lon="6.94877">
        <ele>842</ele>
        <time>2026-05-09T16:30:08.581Z</time>
      </trkpt>
      <trkpt lat="47.90872" lon="6.94876">
        <ele>842</ele>
        <time>2026-05-09T16:30:09.581Z</time>
      </trkpt>
      <trkpt lat="47.90874" lon="6.94875">
        <ele>841</ele>
        <time>2026-05-09T16:30:10.581Z</time>
      </trkpt>
      <trkpt lat="47.90875" lon="6.94875">
        <ele>841</ele>
        <time>2026-05-09T16:30:11.581Z</time>
      </trkpt>
      <trkpt lat="47.90878" lon="6.94876">
        <ele>840</ele>
        <time>2026-05-09T16:30:12.580Z</time>
      </trkpt>
      <trkpt lat="47.90879" lon="6.94876">
        <ele>839</ele>
        <time>2026-05-09T16:30:13.580Z</time>
      </trkpt>
      <trkpt lat="47.90881" lon="6.94876">
        <ele>838</ele>
        <time>2026-05-09T16:30:14.581Z</time>
      </trkpt>
      <trkpt lat="47.90882" lon="6.94875">
        <ele>838</ele>
        <time>2026-05-09T16:30:15.581Z</time>
      </trkpt>
      <trkpt lat="47.90883" lon="6.94874">
        <ele>837</ele>
        <time>2026-05-09T16:30:16.581Z</time>
      </trkpt>
      <trkpt lat="47.90885" lon="6.94873">
        <ele>837</ele>
        <time>2026-05-09T16:30:17.580Z</time>
      </trkpt>
      <trkpt lat="47.90887" lon="6.94873">
        <ele>836</ele>
        <time>2026-05-09T16:30:18.581Z</time>
      </trkpt>
      <trkpt lat="47.90888" lon="6.94873">
        <ele>835</ele>
        <time>2026-05-09T16:30:19.581Z</time>
      </trkpt>
      <trkpt lat="47.9089" lon="6.94872">
        <ele>834</ele>
        <time>2026-05-09T16:30:20.581Z</time>
      </trkpt>
      <trkpt lat="47.90892" lon="6.94872">
        <ele>834</ele>
        <time>2026-05-09T16:30:21.580Z</time>
      </trkpt>
      <trkpt lat="47.90893" lon="6.94872">
        <ele>833</ele>
        <time>2026-05-09T16:30:22.581Z</time>
      </trkpt>
      <trkpt lat="47.90895" lon="6.94871">
        <ele>833</ele>
        <time>2026-05-09T16:30:23.581Z</time>
      </trkpt>
      <trkpt lat="47.90896" lon="6.94871">
        <ele>833</ele>
        <time>2026-05-09T16:30:24.581Z</time>
      </trkpt>
      <trkpt lat="47.90898" lon="6.94871">
        <ele>833</ele>
        <time>2026-05-09T16:30:25.581Z</time>
      </trkpt>
      <trkpt lat="47.909" lon="6.94871">
        <ele>833</ele>
        <time>2026-05-09T16:30:26.580Z</time>
      </trkpt>
      <trkpt lat="47.90901" lon="6.94872">
        <ele>833</ele>
        <time>2026-05-09T16:30:27.580Z</time>
      </trkpt>
      <trkpt lat="47.90903" lon="6.94872">
        <ele>832</ele>
        <time>2026-05-09T16:30:28.580Z</time>
      </trkpt>
      <trkpt lat="47.90904" lon="6.94871">
        <ele>832</ele>
        <time>2026-05-09T16:30:29.581Z</time>
      </trkpt>
      <trkpt lat="47.90906" lon="6.94871">
        <ele>832</ele>
        <time>2026-05-09T16:30:30.580Z</time>
      </trkpt>
      <trkpt lat="47.90907" lon="6.9487">
        <ele>831</ele>
        <time>2026-05-09T16:30:31.581Z</time>
      </trkpt>
      <trkpt lat="47.90908" lon="6.94869">
        <ele>831</ele>
        <time>2026-05-09T16:30:32.580Z</time>
      </trkpt>
      <trkpt lat="47.90909" lon="6.94869">
        <ele>830</ele>
        <time>2026-05-09T16:30:33.581Z</time>
      </trkpt>
      <trkpt lat="47.9091" lon="6.94869">
        <ele>830</ele>
        <time>2026-05-09T16:30:34.580Z</time>
      </trkpt>
      <trkpt lat="47.90912" lon="6.94869">
        <ele>829</ele>
        <time>2026-05-09T16:30:35.580Z</time>
      </trkpt>
      <trkpt lat="47.90913" lon="6.94869">
        <ele>829</ele>
        <time>2026-05-09T16:30:36.580Z</time>
      </trkpt>
      <trkpt lat="47.90914" lon="6.94869">
        <ele>829</ele>
        <time>2026-05-09T16:30:37.581Z</time>
      </trkpt>
      <trkpt lat="47.90916" lon="6.94869">
        <ele>828</ele>
        <time>2026-05-09T16:30:38.580Z</time>
      </trkpt>
      <trkpt lat="47.90917" lon="6.94869">
        <ele>828</ele>
        <time>2026-05-09T16:30:39.580Z</time>
      </trkpt>
      <trkpt lat="47.90918" lon="6.94869">
        <ele>827</ele>
        <time>2026-05-09T16:30:40.580Z</time>
      </trkpt>
      <trkpt lat="47.9092" lon="6.94869">
        <ele>827</ele>
        <time>2026-05-09T16:30:41.580Z</time>
      </trkpt>
      <trkpt lat="47.90921" lon="6.94868">
        <ele>827</ele>
        <time>2026-05-09T16:30:42.581Z</time>
      </trkpt>
      <trkpt lat="47.90922" lon="6.94868">
        <ele>826</ele>
        <time>2026-05-09T16:30:43.581Z</time>
      </trkpt>
      <trkpt lat="47.90924" lon="6.94868">
        <ele>825</ele>
        <time>2026-05-09T16:30:44.581Z</time>
      </trkpt>
      <trkpt lat="47.90925" lon="6.94868">
        <ele>825</ele>
        <time>2026-05-09T16:30:45.580Z</time>
      </trkpt>
      <trkpt lat="47.90926" lon="6.94867">
        <ele>825</ele>
        <time>2026-05-09T16:30:46.580Z</time>
      </trkpt>
      <trkpt lat="47.90928" lon="6.94867">
        <ele>825</ele>
        <time>2026-05-09T16:30:47.580Z</time>
      </trkpt>
      <trkpt lat="47.90929" lon="6.94867">
        <ele>825</ele>
        <time>2026-05-09T16:30:48.580Z</time>
      </trkpt>
      <trkpt lat="47.90931" lon="6.94867">
        <ele>825</ele>
        <time>2026-05-09T16:30:49.581Z</time>
      </trkpt>
      <trkpt lat="47.90932" lon="6.94867">
        <ele>825</ele>
        <time>2026-05-09T16:30:50.581Z</time>
      </trkpt>
      <trkpt lat="47.90934" lon="6.94866">
        <ele>824</ele>
        <time>2026-05-09T16:30:51.580Z</time>
      </trkpt>
      <trkpt lat="47.90935" lon="6.94866">
        <ele>824</ele>
        <time>2026-05-09T16:30:52.580Z</time>
      </trkpt>
      <trkpt lat="47.90937" lon="6.94865">
        <ele>825</ele>
        <time>2026-05-09T16:30:53.581Z</time>
      </trkpt>
      <trkpt lat="47.90938" lon="6.94865">
        <ele>825</ele>
        <time>2026-05-09T16:30:54.580Z</time>
      </trkpt>
      <trkpt lat="47.9094" lon="6.94864">
        <ele>825</ele>
        <time>2026-05-09T16:30:55.580Z</time>
      </trkpt>
      <trkpt lat="47.90941" lon="6.94863">
        <ele>825</ele>
        <time>2026-05-09T16:30:56.580Z</time>
      </trkpt>
      <trkpt lat="47.90943" lon="6.94862">
        <ele>825</ele>
        <time>2026-05-09T16:30:57.581Z</time>
      </trkpt>
      <trkpt lat="47.90944" lon="6.94862">
        <ele>825</ele>
        <time>2026-05-09T16:30:58.581Z</time>
      </trkpt>
      <trkpt lat="47.90945" lon="6.94861">
        <ele>825</ele>
        <time>2026-05-09T16:30:59.581Z</time>
      </trkpt>
      <trkpt lat="47.90946" lon="6.9486">
        <ele>825</ele>
        <time>2026-05-09T16:31:00.580Z</time>
      </trkpt>
      <trkpt lat="47.90948" lon="6.9486">
        <ele>825</ele>
        <time>2026-05-09T16:31:01.580Z</time>
      </trkpt>
      <trkpt lat="47.90949" lon="6.94859">
        <ele>825</ele>
        <time>2026-05-09T16:31:02.580Z</time>
      </trkpt>
      <trkpt lat="47.9095" lon="6.94859">
        <ele>825</ele>
        <time>2026-05-09T16:31:03.580Z</time>
      </trkpt>
      <trkpt lat="47.90951" lon="6.94858">
        <ele>825</ele>
        <time>2026-05-09T16:31:04.580Z</time>
      </trkpt>
      <trkpt lat="47.90953" lon="6.94857">
        <ele>825</ele>
        <time>2026-05-09T16:31:05.581Z</time>
      </trkpt>
      <trkpt lat="47.90954" lon="6.94857">
        <ele>825</ele>
        <time>2026-05-09T16:31:06.581Z</time>
      </trkpt>
      <trkpt lat="47.90956" lon="6.94857">
        <ele>825</ele>
        <time>2026-05-09T16:31:07.581Z</time>
      </trkpt>
      <trkpt lat="47.90957" lon="6.94857">
        <ele>825</ele>
        <time>2026-05-09T16:31:08.581Z</time>
      </trkpt>
      <trkpt lat="47.90958" lon="6.94856">
        <ele>824</ele>
        <time>2026-05-09T16:31:09.581Z</time>
      </trkpt>
      <trkpt lat="47.9096" lon="6.94855">
        <ele>824</ele>
        <time>2026-05-09T16:31:10.581Z</time>
      </trkpt>
      <trkpt lat="47.90961" lon="6.94854">
        <ele>824</ele>
        <time>2026-05-09T16:31:11.580Z</time>
      </trkpt>
      <trkpt lat="47.90963" lon="6.94853">
        <ele>824</ele>
        <time>2026-05-09T16:31:12.580Z</time>
      </trkpt>
      <trkpt lat="47.90964" lon="6.94853">
        <ele>824</ele>
        <time>2026-05-09T16:31:13.580Z</time>
      </trkpt>
      <trkpt lat="47.90966" lon="6.94852">
        <ele>824</ele>
        <time>2026-05-09T16:31:14.581Z</time>
      </trkpt>
      <trkpt lat="47.90967" lon="6.94851">
        <ele>824</ele>
        <time>2026-05-09T16:31:15.581Z</time>
      </trkpt>
      <trkpt lat="47.90968" lon="6.9485">
        <ele>825</ele>
        <time>2026-05-09T16:31:16.580Z</time>
      </trkpt>
      <trkpt lat="47.90969" lon="6.9485">
        <ele>825</ele>
        <time>2026-05-09T16:31:17.580Z</time>
      </trkpt>
      <trkpt lat="47.9097" lon="6.94849">
        <ele>825</ele>
        <time>2026-05-09T16:31:18.580Z</time>
      </trkpt>
      <trkpt lat="47.90972" lon="6.94848">
        <ele>825</ele>
        <time>2026-05-09T16:31:19.580Z</time>
      </trkpt>
      <trkpt lat="47.90973" lon="6.94847">
        <ele>826</ele>
        <time>2026-05-09T16:31:20.580Z</time>
      </trkpt>
      <trkpt lat="47.90974" lon="6.94846">
        <ele>826</ele>
        <time>2026-05-09T16:31:21.581Z</time>
      </trkpt>
      <trkpt lat="47.90975" lon="6.94846">
        <ele>826</ele>
        <time>2026-05-09T16:31:22.581Z</time>
      </trkpt>
      <trkpt lat="47.90976" lon="6.94846">
        <ele>827</ele>
        <time>2026-05-09T16:31:23.581Z</time>
      </trkpt>
      <trkpt lat="47.90977" lon="6.94845">
        <ele>827</ele>
        <time>2026-05-09T16:31:24.580Z</time>
      </trkpt>
      <trkpt lat="47.90978" lon="6.94845">
        <ele>828</ele>
        <time>2026-05-09T16:31:25.580Z</time>
      </trkpt>
      <trkpt lat="47.9098" lon="6.94844">
        <ele>829</ele>
        <time>2026-05-09T16:31:26.580Z</time>
      </trkpt>
      <trkpt lat="47.90981" lon="6.94844">
        <ele>829</ele>
        <time>2026-05-09T16:31:27.581Z</time>
      </trkpt>
      <trkpt lat="47.90983" lon="6.94843">
        <ele>830</ele>
        <time>2026-05-09T16:31:28.581Z</time>
      </trkpt>
      <trkpt lat="47.90984" lon="6.94843">
        <ele>830</ele>
        <time>2026-05-09T16:31:29.581Z</time>
      </trkpt>
      <trkpt lat="47.90985" lon="6.94842">
        <ele>831</ele>
        <time>2026-05-09T16:31:30.581Z</time>
      </trkpt>
      <trkpt lat="47.90987" lon="6.94842">
        <ele>831</ele>
        <time>2026-05-09T16:31:31.580Z</time>
      </trkpt>
      <trkpt lat="47.90989" lon="6.94842">
        <ele>831</ele>
        <time>2026-05-09T16:31:32.581Z</time>
      </trkpt>
      <trkpt lat="47.9099" lon="6.94841">
        <ele>832</ele>
        <time>2026-05-09T16:31:33.581Z</time>
      </trkpt>
      <trkpt lat="47.90991" lon="6.94841">
        <ele>832</ele>
        <time>2026-05-09T16:31:34.581Z</time>
      </trkpt>
      <trkpt lat="47.90992" lon="6.9484">
        <ele>833</ele>
        <time>2026-05-09T16:31:35.581Z</time>
      </trkpt>
      <trkpt lat="47.90994" lon="6.94839">
        <ele>833</ele>
        <time>2026-05-09T16:31:36.580Z</time>
      </trkpt>
      <trkpt lat="47.90995" lon="6.94838">
        <ele>834</ele>
        <time>2026-05-09T16:31:37.580Z</time>
      </trkpt>
      <trkpt lat="47.90996" lon="6.94836">
        <ele>834</ele>
        <time>2026-05-09T16:31:38.580Z</time>
      </trkpt>
      <trkpt lat="47.90997" lon="6.94835">
        <ele>834</ele>
        <time>2026-05-09T16:31:39.580Z</time>
      </trkpt>
      <trkpt lat="47.90999" lon="6.94834">
        <ele>834</ele>
        <time>2026-05-09T16:31:40.580Z</time>
      </trkpt>
      <trkpt lat="47.91" lon="6.94834">
        <ele>834</ele>
        <time>2026-05-09T16:31:41.581Z</time>
      </trkpt>
      <trkpt lat="47.91001" lon="6.94833">
        <ele>834</ele>
        <time>2026-05-09T16:31:42.581Z</time>
      </trkpt>
      <trkpt lat="47.91003" lon="6.94832">
        <ele>835</ele>
        <time>2026-05-09T16:31:43.580Z</time>
      </trkpt>
      <trkpt lat="47.91004" lon="6.94832">
        <ele>835</ele>
        <time>2026-05-09T16:31:44.580Z</time>
      </trkpt>
      <trkpt lat="47.91006" lon="6.9483">
        <ele>835</ele>
        <time>2026-05-09T16:31:45.580Z</time>
      </trkpt>
      <trkpt lat="47.91007" lon="6.9483">
        <ele>836</ele>
        <time>2026-05-09T16:31:46.581Z</time>
      </trkpt>
      <trkpt lat="47.91009" lon="6.94829">
        <ele>836</ele>
        <time>2026-05-09T16:31:47.581Z</time>
      </trkpt>
      <trkpt lat="47.9101" lon="6.94827">
        <ele>836</ele>
        <time>2026-05-09T16:31:48.581Z</time>
      </trkpt>
      <trkpt lat="47.91011" lon="6.94827">
        <ele>836</ele>
        <time>2026-05-09T16:31:49.580Z</time>
      </trkpt>
      <trkpt lat="47.91012" lon="6.94827">
        <ele>836</ele>
        <time>2026-05-09T16:31:50.581Z</time>
      </trkpt>
      <trkpt lat="47.91013" lon="6.94827">
        <ele>836</ele>
        <time>2026-05-09T16:31:51.580Z</time>
      </trkpt>
      <trkpt lat="47.91014" lon="6.94826">
        <ele>836</ele>
        <time>2026-05-09T16:31:52.580Z</time>
      </trkpt>
      <trkpt lat="47.91016" lon="6.94826">
        <ele>836</ele>
        <time>2026-05-09T16:31:53.581Z</time>
      </trkpt>
      <trkpt lat="47.91017" lon="6.94825">
        <ele>836</ele>
        <time>2026-05-09T16:31:54.580Z</time>
      </trkpt>
      <trkpt lat="47.91018" lon="6.94825">
        <ele>836</ele>
        <time>2026-05-09T16:31:55.580Z</time>
      </trkpt>
      <trkpt lat="47.9102" lon="6.94824">
        <ele>836</ele>
        <time>2026-05-09T16:31:56.580Z</time>
      </trkpt>
      <trkpt lat="47.91021" lon="6.94823">
        <ele>836</ele>
        <time>2026-05-09T16:31:57.581Z</time>
      </trkpt>
      <trkpt lat="47.91022" lon="6.94824">
        <ele>835</ele>
        <time>2026-05-09T16:31:58.580Z</time>
      </trkpt>
      <trkpt lat="47.91024" lon="6.94824">
        <ele>835</ele>
        <time>2026-05-09T16:31:59.580Z</time>
      </trkpt>
      <trkpt lat="47.91025" lon="6.94823">
        <ele>835</ele>
        <time>2026-05-09T16:32:00.580Z</time>
      </trkpt>
      <trkpt lat="47.91026" lon="6.94823">
        <ele>835</ele>
        <time>2026-05-09T16:32:01.580Z</time>
      </trkpt>
      <trkpt lat="47.91028" lon="6.94823">
        <ele>835</ele>
        <time>2026-05-09T16:32:02.581Z</time>
      </trkpt>
      <trkpt lat="47.91029" lon="6.94822">
        <ele>835</ele>
        <time>2026-05-09T16:32:03.581Z</time>
      </trkpt>
      <trkpt lat="47.9103" lon="6.94822">
        <ele>835</ele>
        <time>2026-05-09T16:32:04.581Z</time>
      </trkpt>
      <trkpt lat="47.91032" lon="6.94821">
        <ele>835</ele>
        <time>2026-05-09T16:32:05.581Z</time>
      </trkpt>
      <trkpt lat="47.91034" lon="6.9482">
        <ele>835</ele>
        <time>2026-05-09T16:32:06.580Z</time>
      </trkpt>
      <trkpt lat="47.91035" lon="6.94819">
        <ele>835</ele>
        <time>2026-05-09T16:32:07.580Z</time>
      </trkpt>
      <trkpt lat="47.91037" lon="6.94818">
        <ele>834</ele>
        <time>2026-05-09T16:32:08.581Z</time>
      </trkpt>
      <trkpt lat="47.91039" lon="6.94818">
        <ele>834</ele>
        <time>2026-05-09T16:32:09.581Z</time>
      </trkpt>
      <trkpt lat="47.9104" lon="6.94817">
        <ele>833</ele>
        <time>2026-05-09T16:32:10.581Z</time>
      </trkpt>
      <trkpt lat="47.91042" lon="6.94817">
        <ele>832</ele>
        <time>2026-05-09T16:32:11.581Z</time>
      </trkpt>
      <trkpt lat="47.91043" lon="6.94817">
        <ele>832</ele>
        <time>2026-05-09T16:32:12.581Z</time>
      </trkpt>
      <trkpt lat="47.91044" lon="6.94817">
        <ele>831</ele>
        <time>2026-05-09T16:32:13.581Z</time>
      </trkpt>
      <trkpt lat="47.91045" lon="6.94817">
        <ele>830</ele>
        <time>2026-05-09T16:32:14.581Z</time>
      </trkpt>
      <trkpt lat="47.91047" lon="6.94816">
        <ele>829</ele>
        <time>2026-05-09T16:32:15.581Z</time>
      </trkpt>
      <trkpt lat="47.91048" lon="6.94815">
        <ele>828</ele>
        <time>2026-05-09T16:32:16.581Z</time>
      </trkpt>
      <trkpt lat="47.91049" lon="6.94815">
        <ele>828</ele>
        <time>2026-05-09T16:32:17.580Z</time>
      </trkpt>
      <trkpt lat="47.9105" lon="6.94815">
        <ele>827</ele>
        <time>2026-05-09T16:32:18.580Z</time>
      </trkpt>
      <trkpt lat="47.91051" lon="6.94815">
        <ele>826</ele>
        <time>2026-05-09T16:32:19.580Z</time>
      </trkpt>
      <trkpt lat="47.91053" lon="6.94813">
        <ele>825</ele>
        <time>2026-05-09T16:32:20.580Z</time>
      </trkpt>
      <trkpt lat="47.91054" lon="6.94813">
        <ele>824</ele>
        <time>2026-05-09T16:32:21.580Z</time>
      </trkpt>
      <trkpt lat="47.91056" lon="6.94813">
        <ele>824</ele>
        <time>2026-05-09T16:32:22.580Z</time>
      </trkpt>
      <trkpt lat="47.91058" lon="6.94813">
        <ele>823</ele>
        <time>2026-05-09T16:32:23.580Z</time>
      </trkpt>
      <trkpt lat="47.91059" lon="6.94813">
        <ele>822</ele>
        <time>2026-05-09T16:32:24.581Z</time>
      </trkpt>
      <trkpt lat="47.9106" lon="6.94814">
        <ele>822</ele>
        <time>2026-05-09T16:32:25.580Z</time>
      </trkpt>
      <trkpt lat="47.91061" lon="6.94815">
        <ele>821</ele>
        <time>2026-05-09T16:32:26.581Z</time>
      </trkpt>
      <trkpt lat="47.91061" lon="6.94816">
        <ele>821</ele>
        <time>2026-05-09T16:32:27.580Z</time>
      </trkpt>
      <trkpt lat="47.91062" lon="6.94816">
        <ele>820</ele>
        <time>2026-05-09T16:32:28.580Z</time>
      </trkpt>
      <trkpt lat="47.91062" lon="6.94816">
        <ele>820</ele>
        <time>2026-05-09T16:32:29.580Z</time>
      </trkpt>
      <trkpt lat="47.91063" lon="6.94816">
        <ele>819</ele>
        <time>2026-05-09T16:32:30.580Z</time>
      </trkpt>
      <trkpt lat="47.91064" lon="6.94816">
        <ele>819</ele>
        <time>2026-05-09T16:32:31.581Z</time>
      </trkpt>
      <trkpt lat="47.91065" lon="6.94816">
        <ele>819</ele>
        <time>2026-05-09T16:32:32.581Z</time>
      </trkpt>
      <trkpt lat="47.91067" lon="6.94816">
        <ele>819</ele>
        <time>2026-05-09T16:32:33.581Z</time>
      </trkpt>
      <trkpt lat="47.91069" lon="6.94816">
        <ele>819</ele>
        <time>2026-05-09T16:32:34.581Z</time>
      </trkpt>
      <trkpt lat="47.91071" lon="6.94816">
        <ele>819</ele>
        <time>2026-05-09T16:32:35.581Z</time>
      </trkpt>
      <trkpt lat="47.91074" lon="6.94815">
        <ele>819</ele>
        <time>2026-05-09T16:32:36.581Z</time>
      </trkpt>
      <trkpt lat="47.91076" lon="6.94816">
        <ele>819</ele>
        <time>2026-05-09T16:32:37.580Z</time>
      </trkpt>
      <trkpt lat="47.91078" lon="6.94815">
        <ele>819</ele>
        <time>2026-05-09T16:32:38.580Z</time>
      </trkpt>
      <trkpt lat="47.91079" lon="6.94815">
        <ele>819</ele>
        <time>2026-05-09T16:32:39.580Z</time>
      </trkpt>
      <trkpt lat="47.91081" lon="6.94815">
        <ele>819</ele>
        <time>2026-05-09T16:32:40.580Z</time>
      </trkpt>
      <trkpt lat="47.91082" lon="6.94814">
        <ele>820</ele>
        <time>2026-05-09T16:32:41.581Z</time>
      </trkpt>
      <trkpt lat="47.91084" lon="6.94813">
        <ele>820</ele>
        <time>2026-05-09T16:32:42.581Z</time>
      </trkpt>
      <trkpt lat="47.91085" lon="6.94812">
        <ele>821</ele>
        <time>2026-05-09T16:32:43.580Z</time>
      </trkpt>
      <trkpt lat="47.91086" lon="6.9481">
        <ele>821</ele>
        <time>2026-05-09T16:32:44.581Z</time>
      </trkpt>
      <trkpt lat="47.91087" lon="6.94808">
        <ele>822</ele>
        <time>2026-05-09T16:32:45.581Z</time>
      </trkpt>
      <trkpt lat="47.91088" lon="6.94807">
        <ele>822</ele>
        <time>2026-05-09T16:32:46.581Z</time>
      </trkpt>
      <trkpt lat="47.91089" lon="6.94805">
        <ele>822</ele>
        <time>2026-05-09T16:32:47.581Z</time>
      </trkpt>
      <trkpt lat="47.91089" lon="6.94804">
        <ele>823</ele>
        <time>2026-05-09T16:32:48.581Z</time>
      </trkpt>
      <trkpt lat="47.91089" lon="6.94803">
        <ele>823</ele>
        <time>2026-05-09T16:32:49.581Z</time>
      </trkpt>
      <trkpt lat="47.91088" lon="6.94802">
        <ele>823</ele>
        <time>2026-05-09T16:32:50.581Z</time>
      </trkpt>
      <trkpt lat="47.91088" lon="6.94802">
        <ele>823</ele>
        <time>2026-05-09T16:32:51.580Z</time>
      </trkpt>
      <trkpt lat="47.91087" lon="6.94801">
        <ele>822</ele>
        <time>2026-05-09T16:32:52.581Z</time>
      </trkpt>
      <trkpt lat="47.91086" lon="6.948">
        <ele>822</ele>
        <time>2026-05-09T16:32:53.581Z</time>
      </trkpt>
      <trkpt lat="47.91085" lon="6.94799">
        <ele>822</ele>
        <time>2026-05-09T16:32:54.580Z</time>
      </trkpt>
      <trkpt lat="47.91084" lon="6.94798">
        <ele>821</ele>
        <time>2026-05-09T16:32:55.581Z</time>
      </trkpt>
      <trkpt lat="47.91081" lon="6.94799">
        <ele>821</ele>
        <time>2026-05-09T16:32:56.581Z</time>
      </trkpt>
      <trkpt lat="47.9108" lon="6.94799">
        <ele>821</ele>
        <time>2026-05-09T16:32:57.581Z</time>
      </trkpt>
      <trkpt lat="47.91078" lon="6.94799">
        <ele>821</ele>
        <time>2026-05-09T16:32:58.581Z</time>
      </trkpt>
      <trkpt lat="47.91077" lon="6.94799">
        <ele>821</ele>
        <time>2026-05-09T16:32:59.580Z</time>
      </trkpt>
      <trkpt lat="47.91075" lon="6.94799">
        <ele>821</ele>
        <time>2026-05-09T16:33:00.580Z</time>
      </trkpt>
      <trkpt lat="47.91074" lon="6.94799">
        <ele>820</ele>
        <time>2026-05-09T16:33:01.580Z</time>
      </trkpt>
      <trkpt lat="47.91072" lon="6.94798">
        <ele>820</ele>
        <time>2026-05-09T16:33:02.580Z</time>
      </trkpt>
      <trkpt lat="47.91071" lon="6.94798">
        <ele>820</ele>
        <time>2026-05-09T16:33:03.580Z</time>
      </trkpt>
      <trkpt lat="47.9107" lon="6.94797">
        <ele>820</ele>
        <time>2026-05-09T16:33:04.580Z</time>
      </trkpt>
      <trkpt lat="47.91069" lon="6.94796">
        <ele>819</ele>
        <time>2026-05-09T16:33:05.580Z</time>
      </trkpt>
      <trkpt lat="47.91069" lon="6.94795">
        <ele>819</ele>
        <time>2026-05-09T16:33:06.580Z</time>
      </trkpt>
      <trkpt lat="47.91067" lon="6.94795">
        <ele>819</ele>
        <time>2026-05-09T16:33:07.581Z</time>
      </trkpt>
      <trkpt lat="47.91066" lon="6.94794">
        <ele>818</ele>
        <time>2026-05-09T16:33:08.581Z</time>
      </trkpt>
      <trkpt lat="47.91065" lon="6.94794">
        <ele>818</ele>
        <time>2026-05-09T16:33:09.581Z</time>
      </trkpt>
      <trkpt lat="47.91064" lon="6.94793">
        <ele>817</ele>
        <time>2026-05-09T16:33:10.581Z</time>
      </trkpt>
      <trkpt lat="47.91063" lon="6.94793">
        <ele>817</ele>
        <time>2026-05-09T16:33:11.581Z</time>
      </trkpt>
      <trkpt lat="47.91062" lon="6.94792">
        <ele>817</ele>
        <time>2026-05-09T16:33:12.581Z</time>
      </trkpt>
      <trkpt lat="47.91061" lon="6.94792">
        <ele>817</ele>
        <time>2026-05-09T16:33:13.581Z</time>
      </trkpt>
      <trkpt lat="47.91061" lon="6.94791">
        <ele>816</ele>
        <time>2026-05-09T16:33:14.581Z</time>
      </trkpt>
      <trkpt lat="47.9106" lon="6.94791">
        <ele>816</ele>
        <time>2026-05-09T16:33:15.581Z</time>
      </trkpt>
      <trkpt lat="47.91059" lon="6.94791">
        <ele>817</ele>
        <time>2026-05-09T16:33:16.580Z</time>
      </trkpt>
      <trkpt lat="47.91057" lon="6.94791">
        <ele>817</ele>
        <time>2026-05-09T16:33:17.580Z</time>
      </trkpt>
      <trkpt lat="47.91056" lon="6.94791">
        <ele>817</ele>
        <time>2026-05-09T16:33:18.581Z</time>
      </trkpt>
      <trkpt lat="47.91055" lon="6.94791">
        <ele>816</ele>
        <time>2026-05-09T16:33:19.581Z</time>
      </trkpt>
      <trkpt lat="47.91054" lon="6.9479">
        <ele>816</ele>
        <time>2026-05-09T16:33:20.581Z</time>
      </trkpt>
      <trkpt lat="47.91053" lon="6.94789">
        <ele>816</ele>
        <time>2026-05-09T16:33:21.580Z</time>
      </trkpt>
      <trkpt lat="47.91051" lon="6.94788">
        <ele>816</ele>
        <time>2026-05-09T16:33:22.580Z</time>
      </trkpt>
      <trkpt lat="47.91049" lon="6.94787">
        <ele>816</ele>
        <time>2026-05-09T16:33:23.580Z</time>
      </trkpt>
      <trkpt lat="47.91047" lon="6.94787">
        <ele>816</ele>
        <time>2026-05-09T16:33:24.580Z</time>
      </trkpt>
      <trkpt lat="47.91045" lon="6.94786">
        <ele>815</ele>
        <time>2026-05-09T16:33:25.581Z</time>
      </trkpt>
      <trkpt lat="47.91043" lon="6.94786">
        <ele>815</ele>
        <time>2026-05-09T16:33:26.580Z</time>
      </trkpt>
      <trkpt lat="47.91041" lon="6.94786">
        <ele>815</ele>
        <time>2026-05-09T16:33:27.580Z</time>
      </trkpt>
      <trkpt lat="47.91039" lon="6.94786">
        <ele>815</ele>
        <time>2026-05-09T16:33:28.581Z</time>
      </trkpt>
      <trkpt lat="47.91038" lon="6.94786">
        <ele>815</ele>
        <time>2026-05-09T16:33:29.581Z</time>
      </trkpt>
      <trkpt lat="47.91037" lon="6.94785">
        <ele>815</ele>
        <time>2026-05-09T16:33:30.581Z</time>
      </trkpt>
      <trkpt lat="47.91036" lon="6.94785">
        <ele>815</ele>
        <time>2026-05-09T16:33:31.581Z</time>
      </trkpt>
      <trkpt lat="47.91035" lon="6.94784">
        <ele>816</ele>
        <time>2026-05-09T16:33:32.581Z</time>
      </trkpt>
      <trkpt lat="47.91034" lon="6.94783">
        <ele>816</ele>
        <time>2026-05-09T16:33:33.581Z</time>
      </trkpt>
      <trkpt lat="47.91033" lon="6.94783">
        <ele>816</ele>
        <time>2026-05-09T16:33:34.580Z</time>
      </trkpt>
      <trkpt lat="47.91031" lon="6.94782">
        <ele>816</ele>
        <time>2026-05-09T16:33:35.580Z</time>
      </trkpt>
      <trkpt lat="47.9103" lon="6.94781">
        <ele>816</ele>
        <time>2026-05-09T16:33:36.581Z</time>
      </trkpt>
      <trkpt lat="47.91028" lon="6.9478">
        <ele>816</ele>
        <time>2026-05-09T16:33:37.580Z</time>
      </trkpt>
      <trkpt lat="47.91026" lon="6.94778">
        <ele>816</ele>
        <time>2026-05-09T16:33:38.580Z</time>
      </trkpt>
      <trkpt lat="47.91025" lon="6.94776">
        <ele>816</ele>
        <time>2026-05-09T16:33:39.580Z</time>
      </trkpt>
      <trkpt lat="47.91023" lon="6.94775">
        <ele>816</ele>
        <time>2026-05-09T16:33:40.581Z</time>
      </trkpt>
      <trkpt lat="47.91022" lon="6.94774">
        <ele>816</ele>
        <time>2026-05-09T16:33:41.581Z</time>
      </trkpt>
      <trkpt lat="47.91021" lon="6.94773">
        <ele>816</ele>
        <time>2026-05-09T16:33:42.580Z</time>
      </trkpt>
      <trkpt lat="47.9102" lon="6.94774">
        <ele>816</ele>
        <time>2026-05-09T16:33:43.581Z</time>
      </trkpt>
      <trkpt lat="47.9102" lon="6.94775">
        <ele>816</ele>
        <time>2026-05-09T16:33:44.581Z</time>
      </trkpt>
      <trkpt lat="47.91019" lon="6.94775">
        <ele>815</ele>
        <time>2026-05-09T16:33:45.581Z</time>
      </trkpt>
      <trkpt lat="47.91018" lon="6.94775">
        <ele>814</ele>
        <time>2026-05-09T16:33:46.580Z</time>
      </trkpt>
      <trkpt lat="47.91017" lon="6.94774">
        <ele>813</ele>
        <time>2026-05-09T16:33:47.581Z</time>
      </trkpt>
      <trkpt lat="47.91016" lon="6.94774">
        <ele>812</ele>
        <time>2026-05-09T16:33:48.581Z</time>
      </trkpt>
      <trkpt lat="47.91016" lon="6.94774">
        <ele>812</ele>
        <time>2026-05-09T16:33:49.581Z</time>
      </trkpt>
      <trkpt lat="47.91014" lon="6.94775">
        <ele>811</ele>
        <time>2026-05-09T16:33:50.581Z</time>
      </trkpt>
      <trkpt lat="47.91012" lon="6.94776">
        <ele>810</ele>
        <time>2026-05-09T16:33:51.580Z</time>
      </trkpt>
      <trkpt lat="47.91011" lon="6.94776">
        <ele>810</ele>
        <time>2026-05-09T16:33:52.580Z</time>
      </trkpt>
      <trkpt lat="47.91009" lon="6.94775">
        <ele>810</ele>
        <time>2026-05-09T16:33:53.580Z</time>
      </trkpt>
      <trkpt lat="47.91007" lon="6.94775">
        <ele>809</ele>
        <time>2026-05-09T16:33:54.580Z</time>
      </trkpt>
      <trkpt lat="47.91005" lon="6.94774">
        <ele>809</ele>
        <time>2026-05-09T16:33:55.580Z</time>
      </trkpt>
      <trkpt lat="47.91003" lon="6.94772">
        <ele>809</ele>
        <time>2026-05-09T16:33:56.580Z</time>
      </trkpt>
      <trkpt lat="47.91002" lon="6.94771">
        <ele>809</ele>
        <time>2026-05-09T16:33:57.580Z</time>
      </trkpt>
      <trkpt lat="47.91" lon="6.94771">
        <ele>808</ele>
        <time>2026-05-09T16:33:58.580Z</time>
      </trkpt>
      <trkpt lat="47.90999" lon="6.94771">
        <ele>808</ele>
        <time>2026-05-09T16:33:59.581Z</time>
      </trkpt>
      <trkpt lat="47.90998" lon="6.94771">
        <ele>808</ele>
        <time>2026-05-09T16:34:00.581Z</time>
      </trkpt>
      <trkpt lat="47.90997" lon="6.9477">
        <ele>807</ele>
        <time>2026-05-09T16:34:01.581Z</time>
      </trkpt>
      <trkpt lat="47.90995" lon="6.94769">
        <ele>807</ele>
        <time>2026-05-09T16:34:02.581Z</time>
      </trkpt>
      <trkpt lat="47.90994" lon="6.94769">
        <ele>807</ele>
        <time>2026-05-09T16:34:03.581Z</time>
      </trkpt>
      <trkpt lat="47.90992" lon="6.94768">
        <ele>807</ele>
        <time>2026-05-09T16:34:04.581Z</time>
      </trkpt>
      <trkpt lat="47.9099" lon="6.94766">
        <ele>807</ele>
        <time>2026-05-09T16:34:05.581Z</time>
      </trkpt>
      <trkpt lat="47.90988" lon="6.94765">
        <ele>806</ele>
        <time>2026-05-09T16:34:06.580Z</time>
      </trkpt>
      <trkpt lat="47.90986" lon="6.94764">
        <ele>806</ele>
        <time>2026-05-09T16:34:07.581Z</time>
      </trkpt>
      <trkpt lat="47.90985" lon="6.94763">
        <ele>805</ele>
        <time>2026-05-09T16:34:08.581Z</time>
      </trkpt>
      <trkpt lat="47.90983" lon="6.94761">
        <ele>805</ele>
        <time>2026-05-09T16:34:09.581Z</time>
      </trkpt>
      <trkpt lat="47.90982" lon="6.94761">
        <ele>804</ele>
        <time>2026-05-09T16:34:10.580Z</time>
      </trkpt>
      <trkpt lat="47.9098" lon="6.9476">
        <ele>804</ele>
        <time>2026-05-09T16:34:11.581Z</time>
      </trkpt>
      <trkpt lat="47.90978" lon="6.94759">
        <ele>804</ele>
        <time>2026-05-09T16:34:12.580Z</time>
      </trkpt>
      <trkpt lat="47.90977" lon="6.94758">
        <ele>803</ele>
        <time>2026-05-09T16:34:13.581Z</time>
      </trkpt>
      <trkpt lat="47.90975" lon="6.94757">
        <ele>803</ele>
        <time>2026-05-09T16:34:14.581Z</time>
      </trkpt>
      <trkpt lat="47.90973" lon="6.94756">
        <ele>802</ele>
        <time>2026-05-09T16:34:15.580Z</time>
      </trkpt>
      <trkpt lat="47.9097" lon="6.94754">
        <ele>802</ele>
        <time>2026-05-09T16:34:16.580Z</time>
      </trkpt>
      <trkpt lat="47.90968" lon="6.94752">
        <ele>801</ele>
        <time>2026-05-09T16:34:17.580Z</time>
      </trkpt>
      <trkpt lat="47.90966" lon="6.94751">
        <ele>801</ele>
        <time>2026-05-09T16:34:18.580Z</time>
      </trkpt>
      <trkpt lat="47.90964" lon="6.9475">
        <ele>800</ele>
        <time>2026-05-09T16:34:19.581Z</time>
      </trkpt>
      <trkpt lat="47.90962" lon="6.94749">
        <ele>799</ele>
        <time>2026-05-09T16:34:20.581Z</time>
      </trkpt>
      <trkpt lat="47.90961" lon="6.94747">
        <ele>799</ele>
        <time>2026-05-09T16:34:21.581Z</time>
      </trkpt>
      <trkpt lat="47.9096" lon="6.94746">
        <ele>798</ele>
        <time>2026-05-09T16:34:22.581Z</time>
      </trkpt>
      <trkpt lat="47.90958" lon="6.94745">
        <ele>798</ele>
        <time>2026-05-09T16:34:23.581Z</time>
      </trkpt>
      <trkpt lat="47.90957" lon="6.94744">
        <ele>797</ele>
        <time>2026-05-09T16:34:24.581Z</time>
      </trkpt>
      <trkpt lat="47.90955" lon="6.94744">
        <ele>796</ele>
        <time>2026-05-09T16:34:25.580Z</time>
      </trkpt>
      <trkpt lat="47.90953" lon="6.94743">
        <ele>796</ele>
        <time>2026-05-09T16:34:26.581Z</time>
      </trkpt>
      <trkpt lat="47.90951" lon="6.94742">
        <ele>795</ele>
        <time>2026-05-09T16:34:27.580Z</time>
      </trkpt>
      <trkpt lat="47.90948" lon="6.9474">
        <ele>795</ele>
        <time>2026-05-09T16:34:28.580Z</time>
      </trkpt>
      <trkpt lat="47.90946" lon="6.9474">
        <ele>794</ele>
        <time>2026-05-09T16:34:29.580Z</time>
      </trkpt>
      <trkpt lat="47.90944" lon="6.94739">
        <ele>794</ele>
        <time>2026-05-09T16:34:30.580Z</time>
      </trkpt>
      <trkpt lat="47.90943" lon="6.94739">
        <ele>793</ele>
        <time>2026-05-09T16:34:31.580Z</time>
      </trkpt>
      <trkpt lat="47.90941" lon="6.94739">
        <ele>793</ele>
        <time>2026-05-09T16:34:32.580Z</time>
      </trkpt>
      <trkpt lat="47.90939" lon="6.94739">
        <ele>793</ele>
        <time>2026-05-09T16:34:33.580Z</time>
      </trkpt>
      <trkpt lat="47.90937" lon="6.94739">
        <ele>793</ele>
        <time>2026-05-09T16:34:34.580Z</time>
      </trkpt>
      <trkpt lat="47.90935" lon="6.94738">
        <ele>794</ele>
        <time>2026-05-09T16:34:35.581Z</time>
      </trkpt>
      <trkpt lat="47.90934" lon="6.94738">
        <ele>794</ele>
        <time>2026-05-09T16:34:36.581Z</time>
      </trkpt>
      <trkpt lat="47.90932" lon="6.94738">
        <ele>794</ele>
        <time>2026-05-09T16:34:37.581Z</time>
      </trkpt>
      <trkpt lat="47.90929" lon="6.94738">
        <ele>794</ele>
        <time>2026-05-09T16:34:38.581Z</time>
      </trkpt>
      <trkpt lat="47.90928" lon="6.94737">
        <ele>793</ele>
        <time>2026-05-09T16:34:39.580Z</time>
      </trkpt>
      <trkpt lat="47.90926" lon="6.94737">
        <ele>793</ele>
        <time>2026-05-09T16:34:40.580Z</time>
      </trkpt>
      <trkpt lat="47.90925" lon="6.94737">
        <ele>792</ele>
        <time>2026-05-09T16:34:41.581Z</time>
      </trkpt>
      <trkpt lat="47.90924" lon="6.94737">
        <ele>792</ele>
        <time>2026-05-09T16:34:42.580Z</time>
      </trkpt>
      <trkpt lat="47.90923" lon="6.94736">
        <ele>791</ele>
        <time>2026-05-09T16:34:43.580Z</time>
      </trkpt>
      <trkpt lat="47.90921" lon="6.94736">
        <ele>791</ele>
        <time>2026-05-09T16:34:44.580Z</time>
      </trkpt>
      <trkpt lat="47.9092" lon="6.94735">
        <ele>791</ele>
        <time>2026-05-09T16:34:45.580Z</time>
      </trkpt>
      <trkpt lat="47.90918" lon="6.94734">
        <ele>790</ele>
        <time>2026-05-09T16:34:46.581Z</time>
      </trkpt>
      <trkpt lat="47.90917" lon="6.94733">
        <ele>790</ele>
        <time>2026-05-09T16:34:47.581Z</time>
      </trkpt>
      <trkpt lat="47.90916" lon="6.94732">
        <ele>789</ele>
        <time>2026-05-09T16:34:48.581Z</time>
      </trkpt>
      <trkpt lat="47.90915" lon="6.94732">
        <ele>789</ele>
        <time>2026-05-09T16:34:49.581Z</time>
      </trkpt>
      <trkpt lat="47.90914" lon="6.94731">
        <ele>788</ele>
        <time>2026-05-09T16:34:50.581Z</time>
      </trkpt>
      <trkpt lat="47.90913" lon="6.94731">
        <ele>787</ele>
        <time>2026-05-09T16:34:51.581Z</time>
      </trkpt>
      <trkpt lat="47.90911" lon="6.94731">
        <ele>787</ele>
        <time>2026-05-09T16:34:52.581Z</time>
      </trkpt>
      <trkpt lat="47.9091" lon="6.9473">
        <ele>786</ele>
        <time>2026-05-09T16:34:53.581Z</time>
      </trkpt>
      <trkpt lat="47.90909" lon="6.9473">
        <ele>786</ele>
        <time>2026-05-09T16:34:54.580Z</time>
      </trkpt>
      <trkpt lat="47.90907" lon="6.94729">
        <ele>785</ele>
        <time>2026-05-09T16:34:55.581Z</time>
      </trkpt>
      <trkpt lat="47.90906" lon="6.94728">
        <ele>784</ele>
        <time>2026-05-09T16:34:56.580Z</time>
      </trkpt>
      <trkpt lat="47.90904" lon="6.94728">
        <ele>783</ele>
        <time>2026-05-09T16:34:57.580Z</time>
      </trkpt>
      <trkpt lat="47.90903" lon="6.94728">
        <ele>783</ele>
        <time>2026-05-09T16:34:58.580Z</time>
      </trkpt>
      <trkpt lat="47.90902" lon="6.94728">
        <ele>782</ele>
        <time>2026-05-09T16:34:59.580Z</time>
      </trkpt>
      <trkpt lat="47.909" lon="6.94728">
        <ele>782</ele>
        <time>2026-05-09T16:35:00.580Z</time>
      </trkpt>
      <trkpt lat="47.90899" lon="6.94729">
        <ele>782</ele>
        <time>2026-05-09T16:35:01.580Z</time>
      </trkpt>
      <trkpt lat="47.90898" lon="6.94729">
        <ele>781</ele>
        <time>2026-05-09T16:35:02.581Z</time>
      </trkpt>
      <trkpt lat="47.90896" lon="6.94729">
        <ele>781</ele>
        <time>2026-05-09T16:35:03.581Z</time>
      </trkpt>
      <trkpt lat="47.90894" lon="6.94729">
        <ele>781</ele>
        <time>2026-05-09T16:35:04.581Z</time>
      </trkpt>
      <trkpt lat="47.90892" lon="6.94728">
        <ele>780</ele>
        <time>2026-05-09T16:35:05.581Z</time>
      </trkpt>
      <trkpt lat="47.90889" lon="6.94728">
        <ele>780</ele>
        <time>2026-05-09T16:35:06.581Z</time>
      </trkpt>
      <trkpt lat="47.90888" lon="6.94729">
        <ele>780</ele>
        <time>2026-05-09T16:35:07.581Z</time>
      </trkpt>
      <trkpt lat="47.90886" lon="6.94729">
        <ele>780</ele>
        <time>2026-05-09T16:35:08.581Z</time>
      </trkpt>
      <trkpt lat="47.90884" lon="6.94729">
        <ele>780</ele>
        <time>2026-05-09T16:35:09.580Z</time>
      </trkpt>
      <trkpt lat="47.90883" lon="6.94729">
        <ele>780</ele>
        <time>2026-05-09T16:35:10.580Z</time>
      </trkpt>
      <trkpt lat="47.90882" lon="6.94729">
        <ele>780</ele>
        <time>2026-05-09T16:35:11.581Z</time>
      </trkpt>
      <trkpt lat="47.90881" lon="6.94728">
        <ele>779</ele>
        <time>2026-05-09T16:35:12.581Z</time>
      </trkpt>
      <trkpt lat="47.9088" lon="6.94728">
        <ele>779</ele>
        <time>2026-05-09T16:35:13.580Z</time>
      </trkpt>
      <trkpt lat="47.90879" lon="6.94728">
        <ele>779</ele>
        <time>2026-05-09T16:35:14.580Z</time>
      </trkpt>
      <trkpt lat="47.90878" lon="6.94728">
        <ele>779</ele>
        <time>2026-05-09T16:35:15.580Z</time>
      </trkpt>
      <trkpt lat="47.90876" lon="6.94728">
        <ele>780</ele>
        <time>2026-05-09T16:35:16.580Z</time>
      </trkpt>
      <trkpt lat="47.90874" lon="6.94728">
        <ele>780</ele>
        <time>2026-05-09T16:35:17.580Z</time>
      </trkpt>
      <trkpt lat="47.90873" lon="6.94728">
        <ele>780</ele>
        <time>2026-05-09T16:35:18.580Z</time>
      </trkpt>
      <trkpt lat="47.90872" lon="6.94728">
        <ele>780</ele>
        <time>2026-05-09T16:35:19.580Z</time>
      </trkpt>
      <trkpt lat="47.90871" lon="6.94728">
        <ele>781</ele>
        <time>2026-05-09T16:35:20.581Z</time>
      </trkpt>
      <trkpt lat="47.9087" lon="6.94727">
        <ele>781</ele>
        <time>2026-05-09T16:35:21.581Z</time>
      </trkpt>
      <trkpt lat="47.90869" lon="6.94727">
        <ele>781</ele>
        <time>2026-05-09T16:35:22.581Z</time>
      </trkpt>
      <trkpt lat="47.90867" lon="6.94727">
        <ele>781</ele>
        <time>2026-05-09T16:35:23.581Z</time>
      </trkpt>
      <trkpt lat="47.90866" lon="6.94727">
        <ele>782</ele>
        <time>2026-05-09T16:35:24.581Z</time>
      </trkpt>
      <trkpt lat="47.90865" lon="6.94727">
        <ele>782</ele>
        <time>2026-05-09T16:35:25.581Z</time>
      </trkpt>
      <trkpt lat="47.90863" lon="6.94727">
        <ele>782</ele>
        <time>2026-05-09T16:35:26.581Z</time>
      </trkpt>
      <trkpt lat="47.90862" lon="6.94728">
        <ele>781</ele>
        <time>2026-05-09T16:35:27.581Z</time>
      </trkpt>
      <trkpt lat="47.9086" lon="6.94728">
        <ele>781</ele>
        <time>2026-05-09T16:35:28.580Z</time>
      </trkpt>
      <trkpt lat="47.90859" lon="6.94728">
        <ele>781</ele>
        <time>2026-05-09T16:35:29.580Z</time>
      </trkpt>
      <trkpt lat="47.90858" lon="6.94727">
        <ele>780</ele>
        <time>2026-05-09T16:35:30.580Z</time>
      </trkpt>
      <trkpt lat="47.90857" lon="6.94727">
        <ele>780</ele>
        <time>2026-05-09T16:35:31.581Z</time>
      </trkpt>
      <trkpt lat="47.90855" lon="6.94727">
        <ele>780</ele>
        <time>2026-05-09T16:35:32.581Z</time>
      </trkpt>
      <trkpt lat="47.90853" lon="6.94727">
        <ele>779</ele>
        <time>2026-05-09T16:35:33.581Z</time>
      </trkpt>
      <trkpt lat="47.90853" lon="6.94728">
        <ele>779</ele>
        <time>2026-05-09T16:35:34.581Z</time>
      </trkpt>
      <trkpt lat="47.90852" lon="6.94729">
        <ele>779</ele>
        <time>2026-05-09T16:35:35.581Z</time>
      </trkpt>
      <trkpt lat="47.90851" lon="6.9473">
        <ele>779</ele>
        <time>2026-05-09T16:35:36.580Z</time>
      </trkpt>
      <trkpt lat="47.90847" lon="6.94734">
        <ele>779</ele>
        <time>2026-05-09T16:35:37.580Z</time>
      </trkpt>
      <trkpt lat="47.90845" lon="6.94735">
        <ele>779</ele>
        <time>2026-05-09T16:35:38.580Z</time>
      </trkpt>
      <trkpt lat="47.90842" lon="6.94737">
        <ele>779</ele>
        <time>2026-05-09T16:35:39.581Z</time>
      </trkpt>
      <trkpt lat="47.90836" lon="6.94738">
        <ele>779</ele>
        <time>2026-05-09T16:35:40.580Z</time>
      </trkpt>
      <trkpt lat="47.90832" lon="6.94738">
        <ele>780</ele>
        <time>2026-05-09T16:35:41.581Z</time>
      </trkpt>
      <trkpt lat="47.90827" lon="6.94737">
        <ele>780</ele>
        <time>2026-05-09T16:35:42.581Z</time>
      </trkpt>
      <trkpt lat="47.90823" lon="6.94736">
        <ele>781</ele>
        <time>2026-05-09T16:35:43.581Z</time>
      </trkpt>
      <trkpt lat="47.90821" lon="6.94733">
        <ele>781</ele>
        <time>2026-05-09T16:35:44.581Z</time>
      </trkpt>
      <trkpt lat="47.90819" lon="6.94732">
        <ele>782</ele>
        <time>2026-05-09T16:35:45.580Z</time>
      </trkpt>
      <trkpt lat="47.90817" lon="6.94731">
        <ele>783</ele>
        <time>2026-05-09T16:35:46.581Z</time>
      </trkpt>
      <trkpt lat="47.90817" lon="6.94727">
        <ele>783</ele>
        <time>2026-05-09T16:35:47.580Z</time>
      </trkpt>
      <trkpt lat="47.90817" lon="6.94725">
        <ele>783</ele>
        <time>2026-05-09T16:35:48.581Z</time>
      </trkpt>
      <trkpt lat="47.90818" lon="6.94722">
        <ele>784</ele>
        <time>2026-05-09T16:35:49.580Z</time>
      </trkpt>
      <trkpt lat="47.90818" lon="6.9472">
        <ele>783</ele>
        <time>2026-05-09T16:35:50.581Z</time>
      </trkpt>
      <trkpt lat="47.90818" lon="6.9472">
        <ele>783</ele>
        <time>2026-05-09T16:35:51.580Z</time>
      </trkpt>
      <trkpt lat="47.90817" lon="6.94719">
        <ele>783</ele>
        <time>2026-05-09T16:35:52.581Z</time>
      </trkpt>
      <trkpt lat="47.90815" lon="6.94719">
        <ele>782</ele>
        <time>2026-05-09T16:35:53.580Z</time>
      </trkpt>
      <trkpt lat="47.90814" lon="6.94719">
        <ele>782</ele>
        <time>2026-05-09T16:35:54.581Z</time>
      </trkpt>
      <trkpt lat="47.90813" lon="6.94719">
        <ele>781</ele>
        <time>2026-05-09T16:35:55.580Z</time>
      </trkpt>
      <trkpt lat="47.90812" lon="6.94718">
        <ele>781</ele>
        <time>2026-05-09T16:35:56.581Z</time>
      </trkpt>
      <trkpt lat="47.9081" lon="6.94718">
        <ele>780</ele>
        <time>2026-05-09T16:35:57.580Z</time>
      </trkpt>
      <trkpt lat="47.90808" lon="6.94718">
        <ele>780</ele>
        <time>2026-05-09T16:35:58.581Z</time>
      </trkpt>
      <trkpt lat="47.90807" lon="6.94719">
        <ele>781</ele>
        <time>2026-05-09T16:35:59.581Z</time>
      </trkpt>
      <trkpt lat="47.90806" lon="6.9472">
        <ele>781</ele>
        <time>2026-05-09T16:36:00.581Z</time>
      </trkpt>
      <trkpt lat="47.90804" lon="6.9472">
        <ele>781</ele>
        <time>2026-05-09T16:36:01.581Z</time>
      </trkpt>
      <trkpt lat="47.90802" lon="6.9472">
        <ele>782</ele>
        <time>2026-05-09T16:36:02.580Z</time>
      </trkpt>
      <trkpt lat="47.90801" lon="6.94721">
        <ele>782</ele>
        <time>2026-05-09T16:36:03.581Z</time>
      </trkpt>
      <trkpt lat="47.908" lon="6.9472">
        <ele>783</ele>
        <time>2026-05-09T16:36:04.580Z</time>
      </trkpt>
      <trkpt lat="47.90798" lon="6.9472">
        <ele>783</ele>
        <time>2026-05-09T16:36:05.581Z</time>
      </trkpt>
      <trkpt lat="47.90797" lon="6.94719">
        <ele>783</ele>
        <time>2026-05-09T16:36:06.580Z</time>
      </trkpt>
      <trkpt lat="47.90795" lon="6.94719">
        <ele>783</ele>
        <time>2026-05-09T16:36:07.581Z</time>
      </trkpt>
      <trkpt lat="47.90794" lon="6.94718">
        <ele>783</ele>
        <time>2026-05-09T16:36:08.580Z</time>
      </trkpt>
      <trkpt lat="47.90793" lon="6.94717">
        <ele>783</ele>
        <time>2026-05-09T16:36:09.580Z</time>
      </trkpt>
      <trkpt lat="47.90792" lon="6.94716">
        <ele>783</ele>
        <time>2026-05-09T16:36:10.580Z</time>
      </trkpt>
      <trkpt lat="47.9079" lon="6.94716">
        <ele>783</ele>
        <time>2026-05-09T16:36:11.581Z</time>
      </trkpt>
      <trkpt lat="47.9079" lon="6.94716">
        <ele>782</ele>
        <time>2026-05-09T16:36:12.580Z</time>
      </trkpt>
      <trkpt lat="47.9079" lon="6.94716">
        <ele>782</ele>
        <time>2026-05-09T16:36:13.581Z</time>
      </trkpt>
      <trkpt lat="47.90789" lon="6.94716">
        <ele>781</ele>
        <time>2026-05-09T16:36:14.580Z</time>
      </trkpt>
      <trkpt lat="47.90788" lon="6.94717">
        <ele>780</ele>
        <time>2026-05-09T16:36:15.581Z</time>
      </trkpt>
      <trkpt lat="47.90786" lon="6.94717">
        <ele>779</ele>
        <time>2026-05-09T16:36:16.580Z</time>
      </trkpt>
      <trkpt lat="47.90785" lon="6.94717">
        <ele>778</ele>
        <time>2026-05-09T16:36:17.581Z</time>
      </trkpt>
      <trkpt lat="47.90783" lon="6.94718">
        <ele>778</ele>
        <time>2026-05-09T16:36:18.581Z</time>
      </trkpt>
      <trkpt lat="47.90782" lon="6.94717">
        <ele>777</ele>
        <time>2026-05-09T16:36:19.580Z</time>
      </trkpt>
      <trkpt lat="47.90781" lon="6.94717">
        <ele>777</ele>
        <time>2026-05-09T16:36:20.581Z</time>
      </trkpt>
      <trkpt lat="47.9078" lon="6.94717">
        <ele>776</ele>
        <time>2026-05-09T16:36:21.580Z</time>
      </trkpt>
      <trkpt lat="47.90779" lon="6.94717">
        <ele>776</ele>
        <time>2026-05-09T16:36:22.581Z</time>
      </trkpt>
      <trkpt lat="47.90778" lon="6.94717">
        <ele>776</ele>
        <time>2026-05-09T16:36:23.580Z</time>
      </trkpt>
      <trkpt lat="47.90776" lon="6.94718">
        <ele>776</ele>
        <time>2026-05-09T16:36:24.581Z</time>
      </trkpt>
      <trkpt lat="47.90775" lon="6.94718">
        <ele>777</ele>
        <time>2026-05-09T16:36:25.581Z</time>
      </trkpt>
      <trkpt lat="47.90773" lon="6.94719">
        <ele>777</ele>
        <time>2026-05-09T16:36:26.581Z</time>
      </trkpt>
      <trkpt lat="47.90772" lon="6.94719">
        <ele>777</ele>
        <time>2026-05-09T16:36:27.580Z</time>
      </trkpt>
      <trkpt lat="47.9077" lon="6.9472">
        <ele>777</ele>
        <time>2026-05-09T16:36:28.581Z</time>
      </trkpt>
      <trkpt lat="47.90769" lon="6.9472">
        <ele>777</ele>
        <time>2026-05-09T16:36:29.580Z</time>
      </trkpt>
      <trkpt lat="47.90768" lon="6.9472">
        <ele>776</ele>
        <time>2026-05-09T16:36:30.581Z</time>
      </trkpt>
      <trkpt lat="47.90766" lon="6.9472">
        <ele>776</ele>
        <time>2026-05-09T16:36:31.580Z</time>
      </trkpt>
      <trkpt lat="47.90764" lon="6.9472">
        <ele>776</ele>
        <time>2026-05-09T16:36:32.581Z</time>
      </trkpt>
      <trkpt lat="47.90763" lon="6.9472">
        <ele>776</ele>
        <time>2026-05-09T16:36:33.580Z</time>
      </trkpt>
      <trkpt lat="47.90761" lon="6.94721">
        <ele>776</ele>
        <time>2026-05-09T16:36:34.580Z</time>
      </trkpt>
      <trkpt lat="47.90759" lon="6.94722">
        <ele>777</ele>
        <time>2026-05-09T16:36:35.581Z</time>
      </trkpt>
      <trkpt lat="47.90757" lon="6.94723">
        <ele>777</ele>
        <time>2026-05-09T16:36:36.580Z</time>
      </trkpt>
      <trkpt lat="47.90755" lon="6.94723">
        <ele>777</ele>
        <time>2026-05-09T16:36:37.581Z</time>
      </trkpt>
      <trkpt lat="47.90752" lon="6.94722">
        <ele>777</ele>
        <time>2026-05-09T16:36:38.580Z</time>
      </trkpt>
      <trkpt lat="47.90751" lon="6.9472">
        <ele>777</ele>
        <time>2026-05-09T16:36:39.581Z</time>
      </trkpt>
      <trkpt lat="47.9075" lon="6.94718">
        <ele>777</ele>
        <time>2026-05-09T16:36:40.580Z</time>
      </trkpt>
      <trkpt lat="47.90749" lon="6.94717">
        <ele>776</ele>
        <time>2026-05-09T16:36:41.581Z</time>
      </trkpt>
      <trkpt lat="47.90747" lon="6.94717">
        <ele>776</ele>
        <time>2026-05-09T16:36:42.580Z</time>
      </trkpt>
      <trkpt lat="47.90746" lon="6.94717">
        <ele>776</ele>
        <time>2026-05-09T16:36:43.580Z</time>
      </trkpt>
      <trkpt lat="47.90744" lon="6.94717">
        <ele>776</ele>
        <time>2026-05-09T16:36:44.580Z</time>
      </trkpt>
      <trkpt lat="47.90743" lon="6.94716">
        <ele>776</ele>
        <time>2026-05-09T16:36:45.581Z</time>
      </trkpt>
      <trkpt lat="47.90741" lon="6.94715">
        <ele>776</ele>
        <time>2026-05-09T16:36:46.580Z</time>
      </trkpt>
      <trkpt lat="47.9074" lon="6.94715">
        <ele>775</ele>
        <time>2026-05-09T16:36:47.581Z</time>
      </trkpt>
      <trkpt lat="47.90738" lon="6.94715">
        <ele>775</ele>
        <time>2026-05-09T16:36:48.580Z</time>
      </trkpt>
      <trkpt lat="47.90737" lon="6.94714">
        <ele>775</ele>
        <time>2026-05-09T16:36:49.581Z</time>
      </trkpt>
      <trkpt lat="47.90736" lon="6.94714">
        <ele>775</ele>
        <time>2026-05-09T16:36:50.581Z</time>
      </trkpt>
      <trkpt lat="47.90735" lon="6.94713">
        <ele>775</ele>
        <time>2026-05-09T16:36:51.581Z</time>
      </trkpt>
      <trkpt lat="47.90734" lon="6.94713">
        <ele>775</ele>
        <time>2026-05-09T16:36:52.581Z</time>
      </trkpt>
      <trkpt lat="47.90732" lon="6.94713">
        <ele>774</ele>
        <time>2026-05-09T16:36:53.580Z</time>
      </trkpt>
      <trkpt lat="47.9073" lon="6.94714">
        <ele>774</ele>
        <time>2026-05-09T16:36:54.581Z</time>
      </trkpt>
      <trkpt lat="47.90728" lon="6.94714">
        <ele>774</ele>
        <time>2026-05-09T16:36:55.580Z</time>
      </trkpt>
      <trkpt lat="47.90726" lon="6.94713">
        <ele>774</ele>
        <time>2026-05-09T16:36:56.581Z</time>
      </trkpt>
      <trkpt lat="47.90725" lon="6.94713">
        <ele>774</ele>
        <time>2026-05-09T16:36:57.580Z</time>
      </trkpt>
      <trkpt lat="47.90724" lon="6.94712">
        <ele>774</ele>
        <time>2026-05-09T16:36:58.581Z</time>
      </trkpt>
      <trkpt lat="47.90723" lon="6.94711">
        <ele>774</ele>
        <time>2026-05-09T16:36:59.580Z</time>
      </trkpt>
      <trkpt lat="47.90721" lon="6.94711">
        <ele>774</ele>
        <time>2026-05-09T16:37:00.581Z</time>
      </trkpt>
      <trkpt lat="47.90719" lon="6.94711">
        <ele>774</ele>
        <time>2026-05-09T16:37:01.580Z</time>
      </trkpt>
      <trkpt lat="47.90717" lon="6.94712">
        <ele>774</ele>
        <time>2026-05-09T16:37:02.581Z</time>
      </trkpt>
      <trkpt lat="47.90715" lon="6.94712">
        <ele>773</ele>
        <time>2026-05-09T16:37:03.580Z</time>
      </trkpt>
      <trkpt lat="47.90713" lon="6.94712">
        <ele>773</ele>
        <time>2026-05-09T16:37:04.581Z</time>
      </trkpt>
      <trkpt lat="47.90711" lon="6.94712">
        <ele>772</ele>
        <time>2026-05-09T16:37:05.580Z</time>
      </trkpt>
      <trkpt lat="47.9071" lon="6.94711">
        <ele>772</ele>
        <time>2026-05-09T16:37:06.581Z</time>
      </trkpt>
      <trkpt lat="47.90708" lon="6.94712">
        <ele>772</ele>
        <time>2026-05-09T16:37:07.581Z</time>
      </trkpt>
      <trkpt lat="47.90707" lon="6.94711">
        <ele>772</ele>
        <time>2026-05-09T16:37:08.581Z</time>
      </trkpt>
      <trkpt lat="47.90706" lon="6.94711">
        <ele>772</ele>
        <time>2026-05-09T16:37:09.581Z</time>
      </trkpt>
      <trkpt lat="47.90704" lon="6.94711">
        <ele>772</ele>
        <time>2026-05-09T16:37:10.580Z</time>
      </trkpt>
      <trkpt lat="47.90702" lon="6.94711">
        <ele>772</ele>
        <time>2026-05-09T16:37:11.581Z</time>
      </trkpt>
      <trkpt lat="47.90701" lon="6.9471">
        <ele>772</ele>
        <time>2026-05-09T16:37:12.580Z</time>
      </trkpt>
      <trkpt lat="47.907" lon="6.9471">
        <ele>772</ele>
        <time>2026-05-09T16:37:13.581Z</time>
      </trkpt>
      <trkpt lat="47.90699" lon="6.9471">
        <ele>772</ele>
        <time>2026-05-09T16:37:14.580Z</time>
      </trkpt>
      <trkpt lat="47.90699" lon="6.9471">
        <ele>772</ele>
        <time>2026-05-09T16:37:15.581Z</time>
      </trkpt>
      <trkpt lat="47.90698" lon="6.9471">
        <ele>772</ele>
        <time>2026-05-09T16:37:16.580Z</time>
      </trkpt>
      <trkpt lat="47.90697" lon="6.94709">
        <ele>772</ele>
        <time>2026-05-09T16:37:17.580Z</time>
      </trkpt>
      <trkpt lat="47.90696" lon="6.94708">
        <ele>772</ele>
        <time>2026-05-09T16:37:18.580Z</time>
      </trkpt>
      <trkpt lat="47.90696" lon="6.94707">
        <ele>772</ele>
        <time>2026-05-09T16:37:19.581Z</time>
      </trkpt>
      <trkpt lat="47.90694" lon="6.94706">
        <ele>772</ele>
        <time>2026-05-09T16:37:20.580Z</time>
      </trkpt>
      <trkpt lat="47.90694" lon="6.94706">
        <ele>772</ele>
        <time>2026-05-09T16:37:21.581Z</time>
      </trkpt>
      <trkpt lat="47.90693" lon="6.94706">
        <ele>772</ele>
        <time>2026-05-09T16:37:22.580Z</time>
      </trkpt>
      <trkpt lat="47.90692" lon="6.94705">
        <ele>772</ele>
        <time>2026-05-09T16:37:23.581Z</time>
      </trkpt>
      <trkpt lat="47.90691" lon="6.94705">
        <ele>772</ele>
        <time>2026-05-09T16:37:24.581Z</time>
      </trkpt>
      <trkpt lat="47.9069" lon="6.94705">
        <ele>772</ele>
        <time>2026-05-09T16:37:25.581Z</time>
      </trkpt>
      <trkpt lat="47.90689" lon="6.94704">
        <ele>772</ele>
        <time>2026-05-09T16:37:26.581Z</time>
      </trkpt>
      <trkpt lat="47.90688" lon="6.94704">
        <ele>772</ele>
        <time>2026-05-09T16:37:27.580Z</time>
      </trkpt>
      <trkpt lat="47.90687" lon="6.94703">
        <ele>771</ele>
        <time>2026-05-09T16:37:28.581Z</time>
      </trkpt>
      <trkpt lat="47.90685" lon="6.94702">
        <ele>771</ele>
        <time>2026-05-09T16:37:29.580Z</time>
      </trkpt>
      <trkpt lat="47.90684" lon="6.94701">
        <ele>770</ele>
        <time>2026-05-09T16:37:30.581Z</time>
      </trkpt>
      <trkpt lat="47.90682" lon="6.94701">
        <ele>770</ele>
        <time>2026-05-09T16:37:31.580Z</time>
      </trkpt>
      <trkpt lat="47.9068" lon="6.947">
        <ele>769</ele>
        <time>2026-05-09T16:37:32.581Z</time>
      </trkpt>
      <trkpt lat="47.90678" lon="6.94699">
        <ele>769</ele>
        <time>2026-05-09T16:37:33.580Z</time>
      </trkpt>
      <trkpt lat="47.90676" lon="6.94697">
        <ele>768</ele>
        <time>2026-05-09T16:37:34.581Z</time>
      </trkpt>
      <trkpt lat="47.90673" lon="6.94696">
        <ele>768</ele>
        <time>2026-05-09T16:37:35.580Z</time>
      </trkpt>
      <trkpt lat="47.9067" lon="6.94696">
        <ele>767</ele>
        <time>2026-05-09T16:37:36.581Z</time>
      </trkpt>
      <trkpt lat="47.90668" lon="6.94695">
        <ele>766</ele>
        <time>2026-05-09T16:37:37.580Z</time>
      </trkpt>
      <trkpt lat="47.90667" lon="6.94694">
        <ele>766</ele>
        <time>2026-05-09T16:37:38.581Z</time>
      </trkpt>
      <trkpt lat="47.90665" lon="6.94694">
        <ele>765</ele>
        <time>2026-05-09T16:37:39.581Z</time>
      </trkpt>
      <trkpt lat="47.90664" lon="6.94694">
        <ele>765</ele>
        <time>2026-05-09T16:37:40.580Z</time>
      </trkpt>
      <trkpt lat="47.90662" lon="6.94694">
        <ele>765</ele>
        <time>2026-05-09T16:37:41.581Z</time>
      </trkpt>
      <trkpt lat="47.90661" lon="6.94693">
        <ele>765</ele>
        <time>2026-05-09T16:37:42.580Z</time>
      </trkpt>
      <trkpt lat="47.9066" lon="6.94693">
        <ele>764</ele>
        <time>2026-05-09T16:37:43.581Z</time>
      </trkpt>
      <trkpt lat="47.90659" lon="6.94692">
        <ele>764</ele>
        <time>2026-05-09T16:37:44.580Z</time>
      </trkpt>
      <trkpt lat="47.90657" lon="6.94692">
        <ele>763</ele>
        <time>2026-05-09T16:37:45.581Z</time>
      </trkpt>
      <trkpt lat="47.90656" lon="6.94692">
        <ele>762</ele>
        <time>2026-05-09T16:37:46.580Z</time>
      </trkpt>
      <trkpt lat="47.90655" lon="6.94691">
        <ele>762</ele>
        <time>2026-05-09T16:37:47.581Z</time>
      </trkpt>
      <trkpt lat="47.90654" lon="6.9469">
        <ele>761</ele>
        <time>2026-05-09T16:37:48.580Z</time>
      </trkpt>
      <trkpt lat="47.90653" lon="6.9469">
        <ele>761</ele>
        <time>2026-05-09T16:37:49.581Z</time>
      </trkpt>
      <trkpt lat="47.90652" lon="6.94689">
        <ele>760</ele>
        <time>2026-05-09T16:37:50.580Z</time>
      </trkpt>
      <trkpt lat="47.9065" lon="6.94688">
        <ele>760</ele>
        <time>2026-05-09T16:37:51.580Z</time>
      </trkpt>
      <trkpt lat="47.90648" lon="6.94686">
        <ele>759</ele>
        <time>2026-05-09T16:37:52.580Z</time>
      </trkpt>
      <trkpt lat="47.90647" lon="6.94685">
        <ele>759</ele>
        <time>2026-05-09T16:37:53.581Z</time>
      </trkpt>
      <trkpt lat="47.90647" lon="6.94684">
        <ele>758</ele>
        <time>2026-05-09T16:37:54.580Z</time>
      </trkpt>
      <trkpt lat="47.90646" lon="6.94682">
        <ele>758</ele>
        <time>2026-05-09T16:37:55.581Z</time>
      </trkpt>
      <trkpt lat="47.90645" lon="6.94681">
        <ele>757</ele>
        <time>2026-05-09T16:37:56.580Z</time>
      </trkpt>
      <trkpt lat="47.90645" lon="6.9468">
        <ele>756</ele>
        <time>2026-05-09T16:37:57.580Z</time>
      </trkpt>
      <trkpt lat="47.90644" lon="6.94679">
        <ele>756</ele>
        <time>2026-05-09T16:37:58.581Z</time>
      </trkpt>
      <trkpt lat="47.90643" lon="6.94678">
        <ele>756</ele>
        <time>2026-05-09T16:37:59.580Z</time>
      </trkpt>
      <trkpt lat="47.90642" lon="6.94678">
        <ele>756</ele>
        <time>2026-05-09T16:38:00.580Z</time>
      </trkpt>
      <trkpt lat="47.90641" lon="6.94678">
        <ele>756</ele>
        <time>2026-05-09T16:38:01.580Z</time>
      </trkpt>
      <trkpt lat="47.9064" lon="6.94677">
        <ele>756</ele>
        <time>2026-05-09T16:38:02.581Z</time>
      </trkpt>
      <trkpt lat="47.90639" lon="6.94676">
        <ele>756</ele>
        <time>2026-05-09T16:38:03.580Z</time>
      </trkpt>
      <trkpt lat="47.90639" lon="6.94675">
        <ele>756</ele>
        <time>2026-05-09T16:38:04.581Z</time>
      </trkpt>
      <trkpt lat="47.90639" lon="6.94675">
        <ele>756</ele>
        <time>2026-05-09T16:38:05.580Z</time>
      </trkpt>
      <trkpt lat="47.90639" lon="6.94675">
        <ele>756</ele>
        <time>2026-05-09T16:38:06.581Z</time>
      </trkpt>
      <trkpt lat="47.90642" lon="6.94668">
        <ele>755</ele>
        <time>2026-05-09T16:38:12.979Z</time>
      </trkpt>
      <trkpt lat="47.90642" lon="6.94668">
        <ele>756</ele>
        <time>2026-05-09T16:38:13.978Z</time>
      </trkpt>
      <trkpt lat="47.90642" lon="6.94667">
        <ele>756</ele>
        <time>2026-05-09T16:38:14.978Z</time>
      </trkpt>
      <trkpt lat="47.90641" lon="6.94668">
        <ele>756</ele>
        <time>2026-05-09T16:38:15.979Z</time>
      </trkpt>
      <trkpt lat="47.90641" lon="6.94668">
        <ele>757</ele>
        <time>2026-05-09T16:38:16.979Z</time>
      </trkpt>
      <trkpt lat="47.90641" lon="6.94668">
        <ele>757</ele>
        <time>2026-05-09T16:38:17.979Z</time>
      </trkpt>
      <trkpt lat="47.9064" lon="6.94668">
        <ele>757</ele>
        <time>2026-05-09T16:38:18.979Z</time>
      </trkpt>
      <trkpt lat="47.9064" lon="6.94668">
        <ele>758</ele>
        <time>2026-05-09T16:38:19.979Z</time>
      </trkpt>
      <trkpt lat="47.90639" lon="6.94669">
        <ele>758</ele>
        <time>2026-05-09T16:38:20.979Z</time>
      </trkpt>
      <trkpt lat="47.90639" lon="6.94669">
        <ele>759</ele>
        <time>2026-05-09T16:38:21.978Z</time>
      </trkpt>
      <trkpt lat="47.90638" lon="6.94669">
        <ele>760</ele>
        <time>2026-05-09T16:38:22.978Z</time>
      </trkpt>
      <trkpt lat="47.90637" lon="6.94669">
        <ele>760</ele>
        <time>2026-05-09T16:38:23.978Z</time>
      </trkpt>
      <trkpt lat="47.90636" lon="6.9467">
        <ele>760</ele>
        <time>2026-05-09T16:38:24.979Z</time>
      </trkpt>
      <trkpt lat="47.90635" lon="6.9467">
        <ele>760</ele>
        <time>2026-05-09T16:38:25.978Z</time>
      </trkpt>
      <trkpt lat="47.90634" lon="6.9467">
        <ele>760</ele>
        <time>2026-05-09T16:38:26.978Z</time>
      </trkpt>
      <trkpt lat="47.90633" lon="6.9467">
        <ele>760</ele>
        <time>2026-05-09T16:38:27.978Z</time>
      </trkpt>
      <trkpt lat="47.90632" lon="6.9467">
        <ele>760</ele>
        <time>2026-05-09T16:38:28.978Z</time>
      </trkpt>
      <trkpt lat="47.90631" lon="6.94671">
        <ele>759</ele>
        <time>2026-05-09T16:38:29.978Z</time>
      </trkpt>
      <trkpt lat="47.9063" lon="6.94671">
        <ele>759</ele>
        <time>2026-05-09T16:38:30.979Z</time>
      </trkpt>
      <trkpt lat="47.90629" lon="6.94671">
        <ele>758</ele>
        <time>2026-05-09T16:38:31.978Z</time>
      </trkpt>
      <trkpt lat="47.90627" lon="6.94673">
        <ele>757</ele>
        <time>2026-05-09T16:38:32.978Z</time>
      </trkpt>
      <trkpt lat="47.90625" lon="6.94674">
        <ele>757</ele>
        <time>2026-05-09T16:38:33.978Z</time>
      </trkpt>
      <trkpt lat="47.90623" lon="6.94675">
        <ele>756</ele>
        <time>2026-05-09T16:38:34.978Z</time>
      </trkpt>
      <trkpt lat="47.90621" lon="6.94676">
        <ele>756</ele>
        <time>2026-05-09T16:38:35.978Z</time>
      </trkpt>
      <trkpt lat="47.9062" lon="6.94677">
        <ele>756</ele>
        <time>2026-05-09T16:38:36.978Z</time>
      </trkpt>
      <trkpt lat="47.90619" lon="6.94678">
        <ele>755</ele>
        <time>2026-05-09T16:38:37.979Z</time>
      </trkpt>
      <trkpt lat="47.90618" lon="6.94679">
        <ele>755</ele>
        <time>2026-05-09T16:38:38.978Z</time>
      </trkpt>
      <trkpt lat="47.90617" lon="6.94679">
        <ele>755</ele>
        <time>2026-05-09T16:38:39.978Z</time>
      </trkpt>
      <trkpt lat="47.90616" lon="6.9468">
        <ele>754</ele>
        <time>2026-05-09T16:38:40.979Z</time>
      </trkpt>
      <trkpt lat="47.90615" lon="6.94681">
        <ele>754</ele>
        <time>2026-05-09T16:38:41.979Z</time>
      </trkpt>
      <trkpt lat="47.90614" lon="6.94681">
        <ele>754</ele>
        <time>2026-05-09T16:38:42.979Z</time>
      </trkpt>
      <trkpt lat="47.90612" lon="6.94682">
        <ele>753</ele>
        <time>2026-05-09T16:38:43.979Z</time>
      </trkpt>
      <trkpt lat="47.9061" lon="6.94683">
        <ele>753</ele>
        <time>2026-05-09T16:38:44.979Z</time>
      </trkpt>
      <trkpt lat="47.90609" lon="6.94684">
        <ele>753</ele>
        <time>2026-05-09T16:38:45.979Z</time>
      </trkpt>
      <trkpt lat="47.90607" lon="6.94685">
        <ele>752</ele>
        <time>2026-05-09T16:38:46.978Z</time>
      </trkpt>
      <trkpt lat="47.90606" lon="6.94686">
        <ele>751</ele>
        <time>2026-05-09T16:38:47.979Z</time>
      </trkpt>
      <trkpt lat="47.90605" lon="6.94686">
        <ele>751</ele>
        <time>2026-05-09T16:38:48.979Z</time>
      </trkpt>
      <trkpt lat="47.90604" lon="6.94687">
        <ele>750</ele>
        <time>2026-05-09T16:38:49.978Z</time>
      </trkpt>
      <trkpt lat="47.90603" lon="6.94688">
        <ele>750</ele>
        <time>2026-05-09T16:38:50.978Z</time>
      </trkpt>
      <trkpt lat="47.90602" lon="6.9469">
        <ele>749</ele>
        <time>2026-05-09T16:38:51.978Z</time>
      </trkpt>
      <trkpt lat="47.90601" lon="6.94691">
        <ele>749</ele>
        <time>2026-05-09T16:38:52.978Z</time>
      </trkpt>
      <trkpt lat="47.90601" lon="6.94692">
        <ele>748</ele>
        <time>2026-05-09T16:38:53.979Z</time>
      </trkpt>
      <trkpt lat="47.906" lon="6.94694">
        <ele>747</ele>
        <time>2026-05-09T16:38:54.978Z</time>
      </trkpt>
      <trkpt lat="47.906" lon="6.94693">
        <ele>746</ele>
        <time>2026-05-09T16:38:55.978Z</time>
      </trkpt>
      <trkpt lat="47.906" lon="6.94693">
        <ele>746</ele>
        <time>2026-05-09T16:38:56.978Z</time>
      </trkpt>
      <trkpt lat="47.90599" lon="6.9469">
        <ele>745</ele>
        <time>2026-05-09T16:38:57.979Z</time>
      </trkpt>
      <trkpt lat="47.906" lon="6.94687">
        <ele>744</ele>
        <time>2026-05-09T16:38:58.979Z</time>
      </trkpt>
      <trkpt lat="47.906" lon="6.94685">
        <ele>744</ele>
        <time>2026-05-09T16:38:59.979Z</time>
      </trkpt>
      <trkpt lat="47.90601" lon="6.94685">
        <ele>743</ele>
        <time>2026-05-09T16:39:00.978Z</time>
      </trkpt>
      <trkpt lat="47.90603" lon="6.94684">
        <ele>742</ele>
        <time>2026-05-09T16:39:01.979Z</time>
      </trkpt>
      <trkpt lat="47.90604" lon="6.94683">
        <ele>741</ele>
        <time>2026-05-09T16:39:02.979Z</time>
      </trkpt>
      <trkpt lat="47.90605" lon="6.94682">
        <ele>741</ele>
        <time>2026-05-09T16:39:03.979Z</time>
      </trkpt>
      <trkpt lat="47.90606" lon="6.94682">
        <ele>740</ele>
        <time>2026-05-09T16:39:04.978Z</time>
      </trkpt>
      <trkpt lat="47.90608" lon="6.94681">
        <ele>740</ele>
        <time>2026-05-09T16:39:05.979Z</time>
      </trkpt>
      <trkpt lat="47.90609" lon="6.94681">
        <ele>740</ele>
        <time>2026-05-09T16:39:06.978Z</time>
      </trkpt>
      <trkpt lat="47.9061" lon="6.9468">
        <ele>740</ele>
        <time>2026-05-09T16:39:07.979Z</time>
      </trkpt>
      <trkpt lat="47.90611" lon="6.9468">
        <ele>741</ele>
        <time>2026-05-09T16:39:08.978Z</time>
      </trkpt>
      <trkpt lat="47.90612" lon="6.94679">
        <ele>741</ele>
        <time>2026-05-09T16:39:09.979Z</time>
      </trkpt>
      <trkpt lat="47.90613" lon="6.94678">
        <ele>742</ele>
        <time>2026-05-09T16:39:10.979Z</time>
      </trkpt>
      <trkpt lat="47.90614" lon="6.94677">
        <ele>742</ele>
        <time>2026-05-09T16:39:11.979Z</time>
      </trkpt>
      <trkpt lat="47.90615" lon="6.94676">
        <ele>742</ele>
        <time>2026-05-09T16:39:12.979Z</time>
      </trkpt>
      <trkpt lat="47.90615" lon="6.94675">
        <ele>743</ele>
        <time>2026-05-09T16:39:13.978Z</time>
      </trkpt>
      <trkpt lat="47.90616" lon="6.94673">
        <ele>743</ele>
        <time>2026-05-09T16:39:14.978Z</time>
      </trkpt>
      <trkpt lat="47.90617" lon="6.94672">
        <ele>744</ele>
        <time>2026-05-09T16:39:15.979Z</time>
      </trkpt>
      <trkpt lat="47.90618" lon="6.94671">
        <ele>744</ele>
        <time>2026-05-09T16:39:16.978Z</time>
      </trkpt>
      <trkpt lat="47.9062" lon="6.94671">
        <ele>744</ele>
        <time>2026-05-09T16:39:17.978Z</time>
      </trkpt>
      <trkpt lat="47.9062" lon="6.94671">
        <ele>744</ele>
        <time>2026-05-09T16:39:18.978Z</time>
      </trkpt>
      <trkpt lat="47.90621" lon="6.9467">
        <ele>744</ele>
        <time>2026-05-09T16:39:19.978Z</time>
      </trkpt>
      <trkpt lat="47.90622" lon="6.94669">
        <ele>745</ele>
        <time>2026-05-09T16:39:20.979Z</time>
      </trkpt>
      <trkpt lat="47.90623" lon="6.94669">
        <ele>745</ele>
        <time>2026-05-09T16:39:21.979Z</time>
      </trkpt>
      <trkpt lat="47.90625" lon="6.94669">
        <ele>745</ele>
        <time>2026-05-09T16:39:22.979Z</time>
      </trkpt>
      <trkpt lat="47.90626" lon="6.94669">
        <ele>745</ele>
        <time>2026-05-09T16:39:23.979Z</time>
      </trkpt>
      <trkpt lat="47.90628" lon="6.94669">
        <ele>745</ele>
        <time>2026-05-09T16:39:24.979Z</time>
      </trkpt>
      <trkpt lat="47.90629" lon="6.94669">
        <ele>745</ele>
        <time>2026-05-09T16:39:25.978Z</time>
      </trkpt>
      <trkpt lat="47.90631" lon="6.94669">
        <ele>745</ele>
        <time>2026-05-09T16:39:26.979Z</time>
      </trkpt>
      <trkpt lat="47.90633" lon="6.94667">
        <ele>746</ele>
        <time>2026-05-09T16:39:27.979Z</time>
      </trkpt>
      <trkpt lat="47.90634" lon="6.94666">
        <ele>746</ele>
        <time>2026-05-09T16:39:28.979Z</time>
      </trkpt>
      <trkpt lat="47.90635" lon="6.94664">
        <ele>746</ele>
        <time>2026-05-09T16:39:29.979Z</time>
      </trkpt>
      <trkpt lat="47.90637" lon="6.94663">
        <ele>747</ele>
        <time>2026-05-09T16:39:30.978Z</time>
      </trkpt>
      <trkpt lat="47.90638" lon="6.94662">
        <ele>747</ele>
        <time>2026-05-09T16:39:31.978Z</time>
      </trkpt>
      <trkpt lat="47.9064" lon="6.94661">
        <ele>747</ele>
        <time>2026-05-09T16:39:32.978Z</time>
      </trkpt>
      <trkpt lat="47.90641" lon="6.9466">
        <ele>748</ele>
        <time>2026-05-09T16:39:33.978Z</time>
      </trkpt>
      <trkpt lat="47.90642" lon="6.9466">
        <ele>748</ele>
        <time>2026-05-09T16:39:34.978Z</time>
      </trkpt>
      <trkpt lat="47.90643" lon="6.9466">
        <ele>749</ele>
        <time>2026-05-09T16:39:35.978Z</time>
      </trkpt>
      <trkpt lat="47.90644" lon="6.94659">
        <ele>749</ele>
        <time>2026-05-09T16:39:36.978Z</time>
      </trkpt>
      <trkpt lat="47.90644" lon="6.94659">
        <ele>749</ele>
        <time>2026-05-09T16:39:37.979Z</time>
      </trkpt>
      <trkpt lat="47.90645" lon="6.94658">
        <ele>750</ele>
        <time>2026-05-09T16:39:38.979Z</time>
      </trkpt>
      <trkpt lat="47.90645" lon="6.94657">
        <ele>750</ele>
        <time>2026-05-09T16:39:39.979Z</time>
      </trkpt>
      <trkpt lat="47.90644" lon="6.94657">
        <ele>750</ele>
        <time>2026-05-09T16:39:40.978Z</time>
      </trkpt>
      <trkpt lat="47.90644" lon="6.94656">
        <ele>750</ele>
        <time>2026-05-09T16:39:41.978Z</time>
      </trkpt>
      <trkpt lat="47.90644" lon="6.94656">
        <ele>750</ele>
        <time>2026-05-09T16:39:42.978Z</time>
      </trkpt>
      <trkpt lat="47.90644" lon="6.94656">
        <ele>750</ele>
        <time>2026-05-09T16:39:43.979Z</time>
      </trkpt>
      <trkpt lat="47.90647" lon="6.94651">
        <ele>750</ele>
        <time>2026-05-09T16:39:53.086Z</time>
      </trkpt>
      <trkpt lat="47.90647" lon="6.94651">
        <ele>750</ele>
        <time>2026-05-09T16:39:54.086Z</time>
      </trkpt>
      <trkpt lat="47.90647" lon="6.94651">
        <ele>750</ele>
        <time>2026-05-09T16:39:55.086Z</time>
      </trkpt>
      <trkpt lat="47.90646" lon="6.94652">
        <ele>753</ele>
        <time>2026-05-09T16:40:01.428Z</time>
      </trkpt>
      <trkpt lat="47.90646" lon="6.94646">
        <ele>755</ele>
        <time>2026-05-09T16:40:08.674Z</time>
      </trkpt>
      <trkpt lat="47.90647" lon="6.94644">
        <ele>755</ele>
        <time>2026-05-09T16:40:09.674Z</time>
      </trkpt>
      <trkpt lat="47.90647" lon="6.94642">
        <ele>756</ele>
        <time>2026-05-09T16:40:10.675Z</time>
      </trkpt>
      <trkpt lat="47.90647" lon="6.9464">
        <ele>756</ele>
        <time>2026-05-09T16:40:11.674Z</time>
      </trkpt>
      <trkpt lat="47.90646" lon="6.94639">
        <ele>756</ele>
        <time>2026-05-09T16:40:12.675Z</time>
      </trkpt>
      <trkpt lat="47.90646" lon="6.94638">
        <ele>755</ele>
        <time>2026-05-09T16:40:13.674Z</time>
      </trkpt>
      <trkpt lat="47.90645" lon="6.94637">
        <ele>755</ele>
        <time>2026-05-09T16:40:14.675Z</time>
      </trkpt>
      <trkpt lat="47.90644" lon="6.94636">
        <ele>755</ele>
        <time>2026-05-09T16:40:15.675Z</time>
      </trkpt>
      <trkpt lat="47.90644" lon="6.94635">
        <ele>755</ele>
        <time>2026-05-09T16:40:16.674Z</time>
      </trkpt>
      <trkpt lat="47.90643" lon="6.94634">
        <ele>755</ele>
        <time>2026-05-09T16:40:17.675Z</time>
      </trkpt>
      <trkpt lat="47.90643" lon="6.94633">
        <ele>755</ele>
        <time>2026-05-09T16:40:18.674Z</time>
      </trkpt>
      <trkpt lat="47.90642" lon="6.94632">
        <ele>755</ele>
        <time>2026-05-09T16:40:19.674Z</time>
      </trkpt>
      <trkpt lat="47.90641" lon="6.94631">
        <ele>754</ele>
        <time>2026-05-09T16:40:20.674Z</time>
      </trkpt>
      <trkpt lat="47.90641" lon="6.94629">
        <ele>754</ele>
        <time>2026-05-09T16:40:21.674Z</time>
      </trkpt>
      <trkpt lat="47.9064" lon="6.94628">
        <ele>754</ele>
        <time>2026-05-09T16:40:22.674Z</time>
      </trkpt>
      <trkpt lat="47.90639" lon="6.94627">
        <ele>754</ele>
        <time>2026-05-09T16:40:23.674Z</time>
      </trkpt>
      <trkpt lat="47.90638" lon="6.94627">
        <ele>754</ele>
        <time>2026-05-09T16:40:24.675Z</time>
      </trkpt>
      <trkpt lat="47.90637" lon="6.94626">
        <ele>754</ele>
        <time>2026-05-09T16:40:25.675Z</time>
      </trkpt>
      <trkpt lat="47.90635" lon="6.94625">
        <ele>754</ele>
        <time>2026-05-09T16:40:26.675Z</time>
      </trkpt>
      <trkpt lat="47.90635" lon="6.94624">
        <ele>754</ele>
        <time>2026-05-09T16:40:27.674Z</time>
      </trkpt>
      <trkpt lat="47.90634" lon="6.94622">
        <ele>753</ele>
        <time>2026-05-09T16:40:28.674Z</time>
      </trkpt>
      <trkpt lat="47.90633" lon="6.94621">
        <ele>753</ele>
        <time>2026-05-09T16:40:29.675Z</time>
      </trkpt>
      <trkpt lat="47.90633" lon="6.94619">
        <ele>753</ele>
        <time>2026-05-09T16:40:30.675Z</time>
      </trkpt>
      <trkpt lat="47.90632" lon="6.94618">
        <ele>753</ele>
        <time>2026-05-09T16:40:31.674Z</time>
      </trkpt>
      <trkpt lat="47.90632" lon="6.94616">
        <ele>753</ele>
        <time>2026-05-09T16:40:32.675Z</time>
      </trkpt>
      <trkpt lat="47.90631" lon="6.94615">
        <ele>753</ele>
        <time>2026-05-09T16:40:33.675Z</time>
      </trkpt>
      <trkpt lat="47.9063" lon="6.94613">
        <ele>753</ele>
        <time>2026-05-09T16:40:34.675Z</time>
      </trkpt>
      <trkpt lat="47.9063" lon="6.94612">
        <ele>753</ele>
        <time>2026-05-09T16:40:35.675Z</time>
      </trkpt>
      <trkpt lat="47.90629" lon="6.94611">
        <ele>753</ele>
        <time>2026-05-09T16:40:36.674Z</time>
      </trkpt>
      <trkpt lat="47.90628" lon="6.94609">
        <ele>753</ele>
        <time>2026-05-09T16:40:37.674Z</time>
      </trkpt>
      <trkpt lat="47.90628" lon="6.94608">
        <ele>752</ele>
        <time>2026-05-09T16:40:38.675Z</time>
      </trkpt>
      <trkpt lat="47.90628" lon="6.94606">
        <ele>752</ele>
        <time>2026-05-09T16:40:39.674Z</time>
      </trkpt>
      <trkpt lat="47.90627" lon="6.94605">
        <ele>751</ele>
        <time>2026-05-09T16:40:40.675Z</time>
      </trkpt>
      <trkpt lat="47.90627" lon="6.94603">
        <ele>751</ele>
        <time>2026-05-09T16:40:41.674Z</time>
      </trkpt>
      <trkpt lat="47.90626" lon="6.94602">
        <ele>751</ele>
        <time>2026-05-09T16:40:42.674Z</time>
      </trkpt>
      <trkpt lat="47.90625" lon="6.94601">
        <ele>751</ele>
        <time>2026-05-09T16:40:43.675Z</time>
      </trkpt>
      <trkpt lat="47.90624" lon="6.946">
        <ele>751</ele>
        <time>2026-05-09T16:40:44.675Z</time>
      </trkpt>
      <trkpt lat="47.90624" lon="6.94598">
        <ele>751</ele>
        <time>2026-05-09T16:40:45.674Z</time>
      </trkpt>
      <trkpt lat="47.90623" lon="6.94597">
        <ele>750</ele>
        <time>2026-05-09T16:40:46.674Z</time>
      </trkpt>
      <trkpt lat="47.90622" lon="6.94595">
        <ele>750</ele>
        <time>2026-05-09T16:40:47.674Z</time>
      </trkpt>
      <trkpt lat="47.90621" lon="6.94594">
        <ele>750</ele>
        <time>2026-05-09T16:40:48.675Z</time>
      </trkpt>
      <trkpt lat="47.90621" lon="6.94592">
        <ele>750</ele>
        <time>2026-05-09T16:40:49.675Z</time>
      </trkpt>
      <trkpt lat="47.9062" lon="6.94591">
        <ele>749</ele>
        <time>2026-05-09T16:40:50.675Z</time>
      </trkpt>
      <trkpt lat="47.90619" lon="6.94589">
        <ele>749</ele>
        <time>2026-05-09T16:40:51.675Z</time>
      </trkpt>
      <trkpt lat="47.90619" lon="6.94588">
        <ele>749</ele>
        <time>2026-05-09T16:40:52.674Z</time>
      </trkpt>
      <trkpt lat="47.90618" lon="6.94587">
        <ele>748</ele>
        <time>2026-05-09T16:40:53.675Z</time>
      </trkpt>
      <trkpt lat="47.90618" lon="6.94586">
        <ele>748</ele>
        <time>2026-05-09T16:40:54.674Z</time>
      </trkpt>
      <trkpt lat="47.90617" lon="6.94584">
        <ele>748</ele>
        <time>2026-05-09T16:40:55.674Z</time>
      </trkpt>
      <trkpt lat="47.90616" lon="6.94583">
        <ele>748</ele>
        <time>2026-05-09T16:40:56.674Z</time>
      </trkpt>
      <trkpt lat="47.90616" lon="6.94581">
        <ele>748</ele>
        <time>2026-05-09T16:40:57.674Z</time>
      </trkpt>
      <trkpt lat="47.90615" lon="6.9458">
        <ele>748</ele>
        <time>2026-05-09T16:40:58.675Z</time>
      </trkpt>
      <trkpt lat="47.90614" lon="6.94579">
        <ele>748</ele>
        <time>2026-05-09T16:40:59.675Z</time>
      </trkpt>
      <trkpt lat="47.90614" lon="6.94578">
        <ele>748</ele>
        <time>2026-05-09T16:41:00.674Z</time>
      </trkpt>
      <trkpt lat="47.90613" lon="6.94576">
        <ele>748</ele>
        <time>2026-05-09T16:41:01.675Z</time>
      </trkpt>
      <trkpt lat="47.90613" lon="6.94575">
        <ele>748</ele>
        <time>2026-05-09T16:41:02.674Z</time>
      </trkpt>
      <trkpt lat="47.90612" lon="6.94573">
        <ele>748</ele>
        <time>2026-05-09T16:41:03.675Z</time>
      </trkpt>
      <trkpt lat="47.90612" lon="6.94571">
        <ele>748</ele>
        <time>2026-05-09T16:41:04.674Z</time>
      </trkpt>
      <trkpt lat="47.90612" lon="6.9457">
        <ele>748</ele>
        <time>2026-05-09T16:41:05.675Z</time>
      </trkpt>
      <trkpt lat="47.90611" lon="6.94568">
        <ele>748</ele>
        <time>2026-05-09T16:41:06.674Z</time>
      </trkpt>
      <trkpt lat="47.90611" lon="6.94566">
        <ele>748</ele>
        <time>2026-05-09T16:41:07.674Z</time>
      </trkpt>
      <trkpt lat="47.9061" lon="6.94564">
        <ele>747</ele>
        <time>2026-05-09T16:41:08.674Z</time>
      </trkpt>
      <trkpt lat="47.9061" lon="6.94562">
        <ele>747</ele>
        <time>2026-05-09T16:41:09.675Z</time>
      </trkpt>
      <trkpt lat="47.90609" lon="6.94561">
        <ele>748</ele>
        <time>2026-05-09T16:41:10.674Z</time>
      </trkpt>
      <trkpt lat="47.90609" lon="6.94559">
        <ele>748</ele>
        <time>2026-05-09T16:41:11.674Z</time>
      </trkpt>
      <trkpt lat="47.90608" lon="6.94557">
        <ele>748</ele>
        <time>2026-05-09T16:41:12.674Z</time>
      </trkpt>
      <trkpt lat="47.90608" lon="6.94556">
        <ele>748</ele>
        <time>2026-05-09T16:41:13.675Z</time>
      </trkpt>
      <trkpt lat="47.90607" lon="6.94554">
        <ele>748</ele>
        <time>2026-05-09T16:41:14.674Z</time>
      </trkpt>
      <trkpt lat="47.90607" lon="6.94552">
        <ele>748</ele>
        <time>2026-05-09T16:41:15.675Z</time>
      </trkpt>
      <trkpt lat="47.90606" lon="6.9455">
        <ele>748</ele>
        <time>2026-05-09T16:41:16.674Z</time>
      </trkpt>
      <trkpt lat="47.90606" lon="6.94549">
        <ele>748</ele>
        <time>2026-05-09T16:41:17.675Z</time>
      </trkpt>
      <trkpt lat="47.90606" lon="6.94547">
        <ele>748</ele>
        <time>2026-05-09T16:41:18.674Z</time>
      </trkpt>
      <trkpt lat="47.90606" lon="6.94546">
        <ele>748</ele>
        <time>2026-05-09T16:41:19.675Z</time>
      </trkpt>
      <trkpt lat="47.90606" lon="6.94544">
        <ele>748</ele>
        <time>2026-05-09T16:41:20.674Z</time>
      </trkpt>
      <trkpt lat="47.90606" lon="6.94542">
        <ele>748</ele>
        <time>2026-05-09T16:41:21.675Z</time>
      </trkpt>
      <trkpt lat="47.90605" lon="6.9454">
        <ele>748</ele>
        <time>2026-05-09T16:41:22.674Z</time>
      </trkpt>
      <trkpt lat="47.90605" lon="6.94538">
        <ele>748</ele>
        <time>2026-05-09T16:41:23.674Z</time>
      </trkpt>
      <trkpt lat="47.90605" lon="6.94536">
        <ele>748</ele>
        <time>2026-05-09T16:41:24.675Z</time>
      </trkpt>
      <trkpt lat="47.90605" lon="6.94534">
        <ele>748</ele>
        <time>2026-05-09T16:41:25.674Z</time>
      </trkpt>
      <trkpt lat="47.90605" lon="6.94533">
        <ele>748</ele>
        <time>2026-05-09T16:41:26.674Z</time>
      </trkpt>
      <trkpt lat="47.90605" lon="6.94531">
        <ele>748</ele>
        <time>2026-05-09T16:41:27.674Z</time>
      </trkpt>
      <trkpt lat="47.90605" lon="6.94529">
        <ele>748</ele>
        <time>2026-05-09T16:41:28.675Z</time>
      </trkpt>
      <trkpt lat="47.90605" lon="6.94527">
        <ele>748</ele>
        <time>2026-05-09T16:41:29.675Z</time>
      </trkpt>
      <trkpt lat="47.90604" lon="6.94525">
        <ele>748</ele>
        <time>2026-05-09T16:41:30.674Z</time>
      </trkpt>
      <trkpt lat="47.90604" lon="6.94524">
        <ele>748</ele>
        <time>2026-05-09T16:41:31.674Z</time>
      </trkpt>
      <trkpt lat="47.90604" lon="6.94523">
        <ele>748</ele>
        <time>2026-05-09T16:41:32.674Z</time>
      </trkpt>
      <trkpt lat="47.90604" lon="6.94523">
        <ele>749</ele>
        <time>2026-05-09T16:41:33.675Z</time>
      </trkpt>
      <trkpt lat="47.90605" lon="6.94523">
        <ele>749</ele>
        <time>2026-05-09T16:41:34.675Z</time>
      </trkpt>
      <trkpt lat="47.90605" lon="6.94524">
        <ele>750</ele>
        <time>2026-05-09T16:41:35.674Z</time>
      </trkpt>
      <trkpt lat="47.90605" lon="6.94526">
        <ele>751</ele>
        <time>2026-05-09T16:41:36.674Z</time>
      </trkpt>
      <trkpt lat="47.90606" lon="6.94528">
        <ele>751</ele>
        <time>2026-05-09T16:41:37.675Z</time>
      </trkpt>
      <trkpt lat="47.90606" lon="6.9453">
        <ele>752</ele>
        <time>2026-05-09T16:41:38.674Z</time>
      </trkpt>
      <trkpt lat="47.90606" lon="6.94532">
        <ele>752</ele>
        <time>2026-05-09T16:41:39.675Z</time>
      </trkpt>
      <trkpt lat="47.90607" lon="6.94535">
        <ele>752</ele>
        <time>2026-05-09T16:41:40.674Z</time>
      </trkpt>
      <trkpt lat="47.90608" lon="6.94537">
        <ele>753</ele>
        <time>2026-05-09T16:41:41.675Z</time>
      </trkpt>
      <trkpt lat="47.90608" lon="6.9454">
        <ele>753</ele>
        <time>2026-05-09T16:41:42.674Z</time>
      </trkpt>
      <trkpt lat="47.90609" lon="6.94542">
        <ele>753</ele>
        <time>2026-05-09T16:41:43.675Z</time>
      </trkpt>
      <trkpt lat="47.9061" lon="6.94544">
        <ele>753</ele>
        <time>2026-05-09T16:41:44.675Z</time>
      </trkpt>
      <trkpt lat="47.90611" lon="6.94546">
        <ele>753</ele>
        <time>2026-05-09T16:41:45.674Z</time>
      </trkpt>
      <trkpt lat="47.90612" lon="6.94547">
        <ele>753</ele>
        <time>2026-05-09T16:41:46.675Z</time>
      </trkpt>
      <trkpt lat="47.90613" lon="6.94549">
        <ele>753</ele>
        <time>2026-05-09T16:41:47.674Z</time>
      </trkpt>
      <trkpt lat="47.90613" lon="6.94552">
        <ele>754</ele>
        <time>2026-05-09T16:41:48.675Z</time>
      </trkpt>
      <trkpt lat="47.90614" lon="6.94554">
        <ele>754</ele>
        <time>2026-05-09T16:41:49.675Z</time>
      </trkpt>
      <trkpt lat="47.90614" lon="6.94556">
        <ele>754</ele>
        <time>2026-05-09T16:41:50.674Z</time>
      </trkpt>
      <trkpt lat="47.90615" lon="6.94558">
        <ele>754</ele>
        <time>2026-05-09T16:41:51.674Z</time>
      </trkpt>
      <trkpt lat="47.90616" lon="6.9456">
        <ele>754</ele>
        <time>2026-05-09T16:41:52.674Z</time>
      </trkpt>
      <trkpt lat="47.90617" lon="6.94562">
        <ele>753</ele>
        <time>2026-05-09T16:41:53.674Z</time>
      </trkpt>
      <trkpt lat="47.90618" lon="6.94564">
        <ele>753</ele>
        <time>2026-05-09T16:41:54.674Z</time>
      </trkpt>
      <trkpt lat="47.90618" lon="6.94566">
        <ele>754</ele>
        <time>2026-05-09T16:41:55.675Z</time>
      </trkpt>
      <trkpt lat="47.90619" lon="6.94568">
        <ele>754</ele>
        <time>2026-05-09T16:41:56.674Z</time>
      </trkpt>
      <trkpt lat="47.9062" lon="6.9457">
        <ele>754</ele>
        <time>2026-05-09T16:41:57.674Z</time>
      </trkpt>
      <trkpt lat="47.90621" lon="6.94571">
        <ele>754</ele>
        <time>2026-05-09T16:41:58.675Z</time>
      </trkpt>
      <trkpt lat="47.90622" lon="6.94573">
        <ele>754</ele>
        <time>2026-05-09T16:41:59.674Z</time>
      </trkpt>
      <trkpt lat="47.90622" lon="6.94575">
        <ele>754</ele>
        <time>2026-05-09T16:42:00.674Z</time>
      </trkpt>
      <trkpt lat="47.90623" lon="6.94577">
        <ele>754</ele>
        <time>2026-05-09T16:42:01.674Z</time>
      </trkpt>
      <trkpt lat="47.90623" lon="6.94579">
        <ele>754</ele>
        <time>2026-05-09T16:42:02.674Z</time>
      </trkpt>
      <trkpt lat="47.90624" lon="6.9458">
        <ele>754</ele>
        <time>2026-05-09T16:42:03.675Z</time>
      </trkpt>
      <trkpt lat="47.90625" lon="6.94582">
        <ele>754</ele>
        <time>2026-05-09T16:42:04.674Z</time>
      </trkpt>
      <trkpt lat="47.90626" lon="6.94583">
        <ele>754</ele>
        <time>2026-05-09T16:42:05.674Z</time>
      </trkpt>
      <trkpt lat="47.90627" lon="6.94585">
        <ele>754</ele>
        <time>2026-05-09T16:42:06.675Z</time>
      </trkpt>
      <trkpt lat="47.90628" lon="6.94587">
        <ele>754</ele>
        <time>2026-05-09T16:42:07.674Z</time>
      </trkpt>
      <trkpt lat="47.90629" lon="6.94588">
        <ele>754</ele>
        <time>2026-05-09T16:42:08.675Z</time>
      </trkpt>
      <trkpt lat="47.9063" lon="6.9459">
        <ele>753</ele>
        <time>2026-05-09T16:42:09.674Z</time>
      </trkpt>
      <trkpt lat="47.90632" lon="6.94591">
        <ele>753</ele>
        <time>2026-05-09T16:42:10.675Z</time>
      </trkpt>
      <trkpt lat="47.90633" lon="6.94593">
        <ele>753</ele>
        <time>2026-05-09T16:42:11.674Z</time>
      </trkpt>
      <trkpt lat="47.90634" lon="6.94595">
        <ele>753</ele>
        <time>2026-05-09T16:42:12.674Z</time>
      </trkpt>
      <trkpt lat="47.90635" lon="6.94596">
        <ele>753</ele>
        <time>2026-05-09T16:42:13.675Z</time>
      </trkpt>
      <trkpt lat="47.90636" lon="6.94598">
        <ele>753</ele>
        <time>2026-05-09T16:42:14.674Z</time>
      </trkpt>
      <trkpt lat="47.90637" lon="6.946">
        <ele>752</ele>
        <time>2026-05-09T16:42:15.675Z</time>
      </trkpt>
      <trkpt lat="47.90638" lon="6.94602">
        <ele>752</ele>
        <time>2026-05-09T16:42:16.675Z</time>
      </trkpt>
      <trkpt lat="47.90639" lon="6.94604">
        <ele>752</ele>
        <time>2026-05-09T16:42:17.675Z</time>
      </trkpt>
      <trkpt lat="47.90639" lon="6.94605">
        <ele>752</ele>
        <time>2026-05-09T16:42:18.674Z</time>
      </trkpt>
      <trkpt lat="47.9064" lon="6.94607">
        <ele>751</ele>
        <time>2026-05-09T16:42:19.674Z</time>
      </trkpt>
      <trkpt lat="47.90641" lon="6.94609">
        <ele>751</ele>
        <time>2026-05-09T16:42:20.674Z</time>
      </trkpt>
      <trkpt lat="47.90641" lon="6.94611">
        <ele>752</ele>
        <time>2026-05-09T16:42:21.674Z</time>
      </trkpt>
      <trkpt lat="47.90644" lon="6.94613">
        <ele>751</ele>
        <time>2026-05-09T16:42:22.674Z</time>
      </trkpt>
      <trkpt lat="47.90644" lon="6.94614">
        <ele>752</ele>
        <time>2026-05-09T16:42:23.674Z</time>
      </trkpt>
      <trkpt lat="47.90645" lon="6.94616">
        <ele>752</ele>
        <time>2026-05-09T16:42:24.675Z</time>
      </trkpt>
      <trkpt lat="47.90646" lon="6.94617">
        <ele>752</ele>
        <time>2026-05-09T16:42:25.674Z</time>
      </trkpt>
      <trkpt lat="47.90647" lon="6.94619">
        <ele>752</ele>
        <time>2026-05-09T16:42:26.675Z</time>
      </trkpt>
      <trkpt lat="47.90648" lon="6.94621">
        <ele>752</ele>
        <time>2026-05-09T16:42:27.675Z</time>
      </trkpt>
      <trkpt lat="47.90649" lon="6.94623">
        <ele>753</ele>
        <time>2026-05-09T16:42:28.674Z</time>
      </trkpt>
      <trkpt lat="47.90649" lon="6.94625">
        <ele>753</ele>
        <time>2026-05-09T16:42:29.675Z</time>
      </trkpt>
      <trkpt lat="47.9065" lon="6.94626">
        <ele>752</ele>
        <time>2026-05-09T16:42:30.674Z</time>
      </trkpt>
      <trkpt lat="47.90651" lon="6.94629">
        <ele>752</ele>
        <time>2026-05-09T16:42:31.675Z</time>
      </trkpt>
      <trkpt lat="47.90652" lon="6.94631">
        <ele>752</ele>
        <time>2026-05-09T16:42:32.675Z</time>
      </trkpt>
      <trkpt lat="47.90653" lon="6.94633">
        <ele>752</ele>
        <time>2026-05-09T16:42:33.675Z</time>
      </trkpt>
      <trkpt lat="47.90654" lon="6.94635">
        <ele>753</ele>
        <time>2026-05-09T16:42:34.674Z</time>
      </trkpt>
      <trkpt lat="47.90655" lon="6.94636">
        <ele>753</ele>
        <time>2026-05-09T16:42:35.674Z</time>
      </trkpt>
      <trkpt lat="47.90656" lon="6.94638">
        <ele>754</ele>
        <time>2026-05-09T16:42:36.674Z</time>
      </trkpt>
      <trkpt lat="47.90657" lon="6.9464">
        <ele>754</ele>
        <time>2026-05-09T16:42:37.674Z</time>
      </trkpt>
      <trkpt lat="47.90657" lon="6.94643">
        <ele>754</ele>
        <time>2026-05-09T16:42:38.675Z</time>
      </trkpt>
      <trkpt lat="47.90657" lon="6.94645">
        <ele>755</ele>
        <time>2026-05-09T16:42:39.675Z</time>
      </trkpt>
      <trkpt lat="47.90655" lon="6.94651">
        <ele>755</ele>
        <time>2026-05-09T16:42:40.674Z</time>
      </trkpt>
      <trkpt lat="47.90653" lon="6.94655">
        <ele>756</ele>
        <time>2026-05-09T16:42:41.675Z</time>
      </trkpt>
      <trkpt lat="47.90651" lon="6.94658">
        <ele>756</ele>
        <time>2026-05-09T16:42:42.674Z</time>
      </trkpt>
      <trkpt lat="47.90651" lon="6.9466">
        <ele>757</ele>
        <time>2026-05-09T16:42:43.675Z</time>
      </trkpt>
      <trkpt lat="47.9065" lon="6.94663">
        <ele>758</ele>
        <time>2026-05-09T16:42:44.674Z</time>
      </trkpt>
      <trkpt lat="47.90649" lon="6.94665">
        <ele>759</ele>
        <time>2026-05-09T16:42:45.674Z</time>
      </trkpt>
      <trkpt lat="47.90648" lon="6.94667">
        <ele>759</ele>
        <time>2026-05-09T16:42:46.675Z</time>
      </trkpt>
      <trkpt lat="47.90647" lon="6.94668">
        <ele>760</ele>
        <time>2026-05-09T16:42:47.674Z</time>
      </trkpt>
      <trkpt lat="47.90646" lon="6.94669">
        <ele>760</ele>
        <time>2026-05-09T16:42:48.674Z</time>
      </trkpt>
      <trkpt lat="47.90645" lon="6.9467">
        <ele>760</ele>
        <time>2026-05-09T16:42:49.674Z</time>
      </trkpt>
      <trkpt lat="47.90643" lon="6.94671">
        <ele>760</ele>
        <time>2026-05-09T16:42:50.674Z</time>
      </trkpt>
      <trkpt lat="47.90642" lon="6.94672">
        <ele>760</ele>
        <time>2026-05-09T16:42:51.674Z</time>
      </trkpt>
      <trkpt lat="47.90641" lon="6.94672">
        <ele>760</ele>
        <time>2026-05-09T16:42:52.674Z</time>
      </trkpt>
      <trkpt lat="47.9064" lon="6.94672">
        <ele>760</ele>
        <time>2026-05-09T16:42:53.675Z</time>
      </trkpt>
      <trkpt lat="47.90639" lon="6.94672">
        <ele>759</ele>
        <time>2026-05-09T16:42:54.674Z</time>
      </trkpt>
      <trkpt lat="47.90638" lon="6.94672">
        <ele>759</ele>
        <time>2026-05-09T16:42:55.675Z</time>
      </trkpt>
      <trkpt lat="47.90637" lon="6.94672">
        <ele>759</ele>
        <time>2026-05-09T16:42:56.674Z</time>
      </trkpt>
      <trkpt lat="47.90635" lon="6.94673">
        <ele>759</ele>
        <time>2026-05-09T16:42:57.675Z</time>
      </trkpt>
      <trkpt lat="47.90633" lon="6.94674">
        <ele>758</ele>
        <time>2026-05-09T16:42:58.675Z</time>
      </trkpt>
      <trkpt lat="47.90631" lon="6.94675">
        <ele>758</ele>
        <time>2026-05-09T16:42:59.674Z</time>
      </trkpt>
      <trkpt lat="47.90628" lon="6.94675">
        <ele>757</ele>
        <time>2026-05-09T16:43:00.675Z</time>
      </trkpt>
      <trkpt lat="47.90627" lon="6.94675">
        <ele>756</ele>
        <time>2026-05-09T16:43:01.674Z</time>
      </trkpt>
      <trkpt lat="47.90625" lon="6.94676">
        <ele>756</ele>
        <time>2026-05-09T16:43:02.675Z</time>
      </trkpt>
      <trkpt lat="47.90622" lon="6.94676">
        <ele>756</ele>
        <time>2026-05-09T16:43:03.674Z</time>
      </trkpt>
      <trkpt lat="47.9062" lon="6.94678">
        <ele>755</ele>
        <time>2026-05-09T16:43:04.675Z</time>
      </trkpt>
      <trkpt lat="47.90619" lon="6.94679">
        <ele>755</ele>
        <time>2026-05-09T16:43:05.675Z</time>
      </trkpt>
      <trkpt lat="47.90617" lon="6.9468">
        <ele>755</ele>
        <time>2026-05-09T16:43:06.674Z</time>
      </trkpt>
      <trkpt lat="47.90615" lon="6.94682">
        <ele>755</ele>
        <time>2026-05-09T16:43:07.675Z</time>
      </trkpt>
      <trkpt lat="47.90613" lon="6.94683">
        <ele>755</ele>
        <time>2026-05-09T16:43:08.674Z</time>
      </trkpt>
      <trkpt lat="47.90611" lon="6.94684">
        <ele>755</ele>
        <time>2026-05-09T16:43:09.674Z</time>
      </trkpt>
      <trkpt lat="47.9061" lon="6.94685">
        <ele>755</ele>
        <time>2026-05-09T16:43:10.675Z</time>
      </trkpt>
      <trkpt lat="47.90609" lon="6.94686">
        <ele>755</ele>
        <time>2026-05-09T16:43:11.674Z</time>
      </trkpt>
      <trkpt lat="47.90608" lon="6.94687">
        <ele>755</ele>
        <time>2026-05-09T16:43:12.675Z</time>
      </trkpt>
      <trkpt lat="47.90607" lon="6.94688">
        <ele>755</ele>
        <time>2026-05-09T16:43:13.674Z</time>
      </trkpt>
      <trkpt lat="47.90606" lon="6.94688">
        <ele>755</ele>
        <time>2026-05-09T16:43:14.675Z</time>
      </trkpt>
      <trkpt lat="47.90605" lon="6.94689">
        <ele>754</ele>
        <time>2026-05-09T16:43:15.674Z</time>
      </trkpt>
      <trkpt lat="47.90604" lon="6.9469">
        <ele>754</ele>
        <time>2026-05-09T16:43:16.674Z</time>
      </trkpt>
      <trkpt lat="47.90604" lon="6.94691">
        <ele>753</ele>
        <time>2026-05-09T16:43:17.675Z</time>
      </trkpt>
      <trkpt lat="47.90603" lon="6.94692">
        <ele>752</ele>
        <time>2026-05-09T16:43:18.675Z</time>
      </trkpt>
      <trkpt lat="47.90602" lon="6.94693">
        <ele>752</ele>
        <time>2026-05-09T16:43:19.675Z</time>
      </trkpt>
      <trkpt lat="47.906" lon="6.94695">
        <ele>751</ele>
        <time>2026-05-09T16:43:20.675Z</time>
      </trkpt>
      <trkpt lat="47.906" lon="6.94696">
        <ele>751</ele>
        <time>2026-05-09T16:43:21.675Z</time>
      </trkpt>
      <trkpt lat="47.90599" lon="6.94696">
        <ele>751</ele>
        <time>2026-05-09T16:43:22.675Z</time>
      </trkpt>
      <trkpt lat="47.90598" lon="6.94698">
        <ele>751</ele>
        <time>2026-05-09T16:43:23.674Z</time>
      </trkpt>
      <trkpt lat="47.90598" lon="6.94699">
        <ele>750</ele>
        <time>2026-05-09T16:43:24.675Z</time>
      </trkpt>
      <trkpt lat="47.90597" lon="6.947">
        <ele>750</ele>
        <time>2026-05-09T16:43:25.674Z</time>
      </trkpt>
      <trkpt lat="47.90596" lon="6.94701">
        <ele>750</ele>
        <time>2026-05-09T16:43:26.675Z</time>
      </trkpt>
      <trkpt lat="47.90596" lon="6.94703">
        <ele>749</ele>
        <time>2026-05-09T16:43:27.674Z</time>
      </trkpt>
      <trkpt lat="47.90594" lon="6.94704">
        <ele>749</ele>
        <time>2026-05-09T16:43:28.674Z</time>
      </trkpt>
      <trkpt lat="47.90593" lon="6.94705">
        <ele>748</ele>
        <time>2026-05-09T16:43:29.674Z</time>
      </trkpt>
      <trkpt lat="47.90592" lon="6.94707">
        <ele>748</ele>
        <time>2026-05-09T16:43:30.675Z</time>
      </trkpt>
      <trkpt lat="47.90592" lon="6.94708">
        <ele>748</ele>
        <time>2026-05-09T16:43:31.675Z</time>
      </trkpt>
      <trkpt lat="47.90591" lon="6.94709">
        <ele>747</ele>
        <time>2026-05-09T16:43:32.674Z</time>
      </trkpt>
      <trkpt lat="47.9059" lon="6.94711">
        <ele>747</ele>
        <time>2026-05-09T16:43:33.675Z</time>
      </trkpt>
      <trkpt lat="47.90589" lon="6.94712">
        <ele>746</ele>
        <time>2026-05-09T16:43:34.674Z</time>
      </trkpt>
      <trkpt lat="47.90588" lon="6.94713">
        <ele>746</ele>
        <time>2026-05-09T16:43:35.674Z</time>
      </trkpt>
      <trkpt lat="47.90587" lon="6.94715">
        <ele>746</ele>
        <time>2026-05-09T16:43:36.674Z</time>
      </trkpt>
      <trkpt lat="47.90587" lon="6.94716">
        <ele>746</ele>
        <time>2026-05-09T16:43:37.675Z</time>
      </trkpt>
      <trkpt lat="47.90586" lon="6.94718">
        <ele>746</ele>
        <time>2026-05-09T16:43:38.674Z</time>
      </trkpt>
      <trkpt lat="47.90585" lon="6.94719">
        <ele>746</ele>
        <time>2026-05-09T16:43:39.675Z</time>
      </trkpt>
      <trkpt lat="47.90584" lon="6.94721">
        <ele>746</ele>
        <time>2026-05-09T16:43:40.674Z</time>
      </trkpt>
      <trkpt lat="47.90583" lon="6.94722">
        <ele>745</ele>
        <time>2026-05-09T16:43:41.674Z</time>
      </trkpt>
      <trkpt lat="47.90582" lon="6.94723">
        <ele>745</ele>
        <time>2026-05-09T16:43:42.675Z</time>
      </trkpt>
      <trkpt lat="47.90581" lon="6.94725">
        <ele>745</ele>
        <time>2026-05-09T16:43:43.674Z</time>
      </trkpt>
      <trkpt lat="47.90579" lon="6.94727">
        <ele>744</ele>
        <time>2026-05-09T16:43:44.674Z</time>
      </trkpt>
      <trkpt lat="47.90578" lon="6.9473">
        <ele>744</ele>
        <time>2026-05-09T16:43:45.674Z</time>
      </trkpt>
      <trkpt lat="47.90578" lon="6.94732">
        <ele>744</ele>
        <time>2026-05-09T16:43:46.674Z</time>
      </trkpt>
      <trkpt lat="47.90578" lon="6.94734">
        <ele>743</ele>
        <time>2026-05-09T16:43:47.675Z</time>
      </trkpt>
      <trkpt lat="47.90577" lon="6.94734">
        <ele>743</ele>
        <time>2026-05-09T16:43:48.675Z</time>
      </trkpt>
      <trkpt lat="47.90577" lon="6.94734">
        <ele>743</ele>
        <time>2026-05-09T16:43:49.674Z</time>
      </trkpt>
      <trkpt lat="47.9057" lon="6.94744">
        <ele>739</ele>
        <time>2026-05-09T16:44:06.981Z</time>
      </trkpt>
      <trkpt lat="47.9057" lon="6.94745">
        <ele>739</ele>
        <time>2026-05-09T16:44:07.981Z</time>
      </trkpt>
      <trkpt lat="47.90569" lon="6.94746">
        <ele>738</ele>
        <time>2026-05-09T16:44:08.982Z</time>
      </trkpt>
      <trkpt lat="47.90568" lon="6.94748">
        <ele>737</ele>
        <time>2026-05-09T16:44:09.981Z</time>
      </trkpt>
      <trkpt lat="47.90567" lon="6.9475">
        <ele>736</ele>
        <time>2026-05-09T16:44:10.982Z</time>
      </trkpt>
      <trkpt lat="47.90566" lon="6.94752">
        <ele>735</ele>
        <time>2026-05-09T16:44:11.981Z</time>
      </trkpt>
      <trkpt lat="47.90564" lon="6.94754">
        <ele>734</ele>
        <time>2026-05-09T16:44:12.981Z</time>
      </trkpt>
      <trkpt lat="47.90563" lon="6.94755">
        <ele>733</ele>
        <time>2026-05-09T16:44:13.982Z</time>
      </trkpt>
      <trkpt lat="47.90562" lon="6.94757">
        <ele>733</ele>
        <time>2026-05-09T16:44:14.982Z</time>
      </trkpt>
      <trkpt lat="47.9056" lon="6.94758">
        <ele>733</ele>
        <time>2026-05-09T16:44:15.982Z</time>
      </trkpt>
      <trkpt lat="47.90558" lon="6.94759">
        <ele>733</ele>
        <time>2026-05-09T16:44:16.981Z</time>
      </trkpt>
      <trkpt lat="47.90556" lon="6.94759">
        <ele>733</ele>
        <time>2026-05-09T16:44:17.981Z</time>
      </trkpt>
      <trkpt lat="47.90555" lon="6.94761">
        <ele>733</ele>
        <time>2026-05-09T16:44:18.981Z</time>
      </trkpt>
      <trkpt lat="47.90553" lon="6.94762">
        <ele>733</ele>
        <time>2026-05-09T16:44:19.982Z</time>
      </trkpt>
      <trkpt lat="47.90551" lon="6.94764">
        <ele>733</ele>
        <time>2026-05-09T16:44:20.981Z</time>
      </trkpt>
      <trkpt lat="47.90549" lon="6.94765">
        <ele>733</ele>
        <time>2026-05-09T16:44:21.981Z</time>
      </trkpt>
      <trkpt lat="47.90547" lon="6.94766">
        <ele>733</ele>
        <time>2026-05-09T16:44:22.981Z</time>
      </trkpt>
      <trkpt lat="47.90546" lon="6.94767">
        <ele>733</ele>
        <time>2026-05-09T16:44:23.981Z</time>
      </trkpt>
      <trkpt lat="47.90545" lon="6.94768">
        <ele>733</ele>
        <time>2026-05-09T16:44:24.981Z</time>
      </trkpt>
      <trkpt lat="47.90544" lon="6.94768">
        <ele>732</ele>
        <time>2026-05-09T16:44:25.981Z</time>
      </trkpt>
      <trkpt lat="47.90542" lon="6.9477">
        <ele>732</ele>
        <time>2026-05-09T16:44:26.981Z</time>
      </trkpt>
      <trkpt lat="47.90541" lon="6.94771">
        <ele>732</ele>
        <time>2026-05-09T16:44:27.981Z</time>
      </trkpt>
      <trkpt lat="47.9054" lon="6.94771">
        <ele>732</ele>
        <time>2026-05-09T16:44:28.982Z</time>
      </trkpt>
      <trkpt lat="47.90539" lon="6.94771">
        <ele>732</ele>
        <time>2026-05-09T16:44:29.982Z</time>
      </trkpt>
      <trkpt lat="47.90537" lon="6.94772">
        <ele>732</ele>
        <time>2026-05-09T16:44:30.982Z</time>
      </trkpt>
      <trkpt lat="47.90535" lon="6.94773">
        <ele>733</ele>
        <time>2026-05-09T16:44:31.981Z</time>
      </trkpt>
      <trkpt lat="47.90532" lon="6.94775">
        <ele>733</ele>
        <time>2026-05-09T16:44:32.982Z</time>
      </trkpt>
      <trkpt lat="47.90531" lon="6.94776">
        <ele>734</ele>
        <time>2026-05-09T16:44:33.981Z</time>
      </trkpt>
      <trkpt lat="47.90529" lon="6.94777">
        <ele>734</ele>
        <time>2026-05-09T16:44:34.981Z</time>
      </trkpt>
      <trkpt lat="47.90527" lon="6.94778">
        <ele>734</ele>
        <time>2026-05-09T16:44:35.981Z</time>
      </trkpt>
      <trkpt lat="47.90525" lon="6.94779">
        <ele>735</ele>
        <time>2026-05-09T16:44:36.981Z</time>
      </trkpt>
      <trkpt lat="47.90524" lon="6.94779">
        <ele>735</ele>
        <time>2026-05-09T16:44:37.982Z</time>
      </trkpt>
      <trkpt lat="47.90523" lon="6.94779">
        <ele>735</ele>
        <time>2026-05-09T16:44:38.981Z</time>
      </trkpt>
      <trkpt lat="47.90521" lon="6.9478">
        <ele>735</ele>
        <time>2026-05-09T16:44:39.981Z</time>
      </trkpt>
      <trkpt lat="47.9052" lon="6.94781">
        <ele>735</ele>
        <time>2026-05-09T16:44:40.981Z</time>
      </trkpt>
      <trkpt lat="47.90519" lon="6.94782">
        <ele>734</ele>
        <time>2026-05-09T16:44:41.981Z</time>
      </trkpt>
      <trkpt lat="47.90518" lon="6.94782">
        <ele>734</ele>
        <time>2026-05-09T16:44:42.981Z</time>
      </trkpt>
      <trkpt lat="47.90516" lon="6.94783">
        <ele>733</ele>
        <time>2026-05-09T16:44:43.982Z</time>
      </trkpt>
      <trkpt lat="47.90515" lon="6.94784">
        <ele>733</ele>
        <time>2026-05-09T16:44:44.982Z</time>
      </trkpt>
      <trkpt lat="47.90514" lon="6.94785">
        <ele>732</ele>
        <time>2026-05-09T16:44:45.982Z</time>
      </trkpt>
      <trkpt lat="47.90513" lon="6.94786">
        <ele>732</ele>
        <time>2026-05-09T16:44:46.982Z</time>
      </trkpt>
      <trkpt lat="47.90511" lon="6.94787">
        <ele>732</ele>
        <time>2026-05-09T16:44:47.982Z</time>
      </trkpt>
      <trkpt lat="47.90509" lon="6.94788">
        <ele>732</ele>
        <time>2026-05-09T16:44:48.982Z</time>
      </trkpt>
      <trkpt lat="47.90508" lon="6.94788">
        <ele>732</ele>
        <time>2026-05-09T16:44:49.982Z</time>
      </trkpt>
      <trkpt lat="47.90506" lon="6.94789">
        <ele>732</ele>
        <time>2026-05-09T16:44:50.981Z</time>
      </trkpt>
      <trkpt lat="47.90504" lon="6.9479">
        <ele>732</ele>
        <time>2026-05-09T16:44:51.981Z</time>
      </trkpt>
      <trkpt lat="47.90502" lon="6.94791">
        <ele>732</ele>
        <time>2026-05-09T16:44:52.981Z</time>
      </trkpt>
      <trkpt lat="47.905" lon="6.94793">
        <ele>732</ele>
        <time>2026-05-09T16:44:53.981Z</time>
      </trkpt>
      <trkpt lat="47.90498" lon="6.94794">
        <ele>732</ele>
        <time>2026-05-09T16:44:54.981Z</time>
      </trkpt>
      <trkpt lat="47.90496" lon="6.94796">
        <ele>732</ele>
        <time>2026-05-09T16:44:55.981Z</time>
      </trkpt>
      <trkpt lat="47.90494" lon="6.94798">
        <ele>732</ele>
        <time>2026-05-09T16:44:56.981Z</time>
      </trkpt>
      <trkpt lat="47.90493" lon="6.94798">
        <ele>731</ele>
        <time>2026-05-09T16:44:57.982Z</time>
      </trkpt>
      <trkpt lat="47.90492" lon="6.94799">
        <ele>731</ele>
        <time>2026-05-09T16:44:58.982Z</time>
      </trkpt>
      <trkpt lat="47.90491" lon="6.948">
        <ele>731</ele>
        <time>2026-05-09T16:44:59.982Z</time>
      </trkpt>
      <trkpt lat="47.90489" lon="6.948">
        <ele>731</ele>
        <time>2026-05-09T16:45:00.981Z</time>
      </trkpt>
      <trkpt lat="47.90488" lon="6.94801">
        <ele>730</ele>
        <time>2026-05-09T16:45:01.982Z</time>
      </trkpt>
      <trkpt lat="47.90486" lon="6.94802">
        <ele>730</ele>
        <time>2026-05-09T16:45:02.981Z</time>
      </trkpt>
      <trkpt lat="47.90486" lon="6.94803">
        <ele>729</ele>
        <time>2026-05-09T16:45:03.981Z</time>
      </trkpt>
      <trkpt lat="47.90485" lon="6.94804">
        <ele>729</ele>
        <time>2026-05-09T16:45:04.981Z</time>
      </trkpt>
      <trkpt lat="47.90485" lon="6.94806">
        <ele>728</ele>
        <time>2026-05-09T16:45:05.981Z</time>
      </trkpt>
      <trkpt lat="47.90484" lon="6.94807">
        <ele>727</ele>
        <time>2026-05-09T16:45:06.982Z</time>
      </trkpt>
      <trkpt lat="47.90483" lon="6.94808">
        <ele>726</ele>
        <time>2026-05-09T16:45:07.982Z</time>
      </trkpt>
      <trkpt lat="47.90482" lon="6.94809">
        <ele>725</ele>
        <time>2026-05-09T16:45:08.982Z</time>
      </trkpt>
      <trkpt lat="47.90481" lon="6.9481">
        <ele>724</ele>
        <time>2026-05-09T16:45:09.982Z</time>
      </trkpt>
      <trkpt lat="47.9048" lon="6.94811">
        <ele>722</ele>
        <time>2026-05-09T16:45:10.981Z</time>
      </trkpt>
      <trkpt lat="47.90478" lon="6.94812">
        <ele>722</ele>
        <time>2026-05-09T16:45:11.981Z</time>
      </trkpt>
      <trkpt lat="47.90477" lon="6.94813">
        <ele>721</ele>
        <time>2026-05-09T16:45:12.981Z</time>
      </trkpt>
      <trkpt lat="47.90476" lon="6.94814">
        <ele>720</ele>
        <time>2026-05-09T16:45:13.981Z</time>
      </trkpt>
      <trkpt lat="47.90475" lon="6.94816">
        <ele>720</ele>
        <time>2026-05-09T16:45:14.981Z</time>
      </trkpt>
      <trkpt lat="47.90474" lon="6.94817">
        <ele>719</ele>
        <time>2026-05-09T16:45:15.981Z</time>
      </trkpt>
      <trkpt lat="47.90473" lon="6.94818">
        <ele>719</ele>
        <time>2026-05-09T16:45:16.981Z</time>
      </trkpt>
      <trkpt lat="47.90472" lon="6.94819">
        <ele>719</ele>
        <time>2026-05-09T16:45:17.982Z</time>
      </trkpt>
      <trkpt lat="47.90471" lon="6.9482">
        <ele>718</ele>
        <time>2026-05-09T16:45:18.982Z</time>
      </trkpt>
      <trkpt lat="47.90471" lon="6.94821">
        <ele>717</ele>
        <time>2026-05-09T16:45:19.981Z</time>
      </trkpt>
      <trkpt lat="47.90469" lon="6.94822">
        <ele>716</ele>
        <time>2026-05-09T16:45:20.982Z</time>
      </trkpt>
      <trkpt lat="47.90468" lon="6.94822">
        <ele>716</ele>
        <time>2026-05-09T16:45:21.982Z</time>
      </trkpt>
      <trkpt lat="47.90467" lon="6.94823">
        <ele>715</ele>
        <time>2026-05-09T16:45:22.982Z</time>
      </trkpt>
      <trkpt lat="47.90465" lon="6.94823">
        <ele>714</ele>
        <time>2026-05-09T16:45:23.982Z</time>
      </trkpt>
      <trkpt lat="47.90464" lon="6.94824">
        <ele>713</ele>
        <time>2026-05-09T16:45:24.982Z</time>
      </trkpt>
      <trkpt lat="47.90463" lon="6.94824">
        <ele>712</ele>
        <time>2026-05-09T16:45:25.982Z</time>
      </trkpt>
      <trkpt lat="47.90462" lon="6.94826">
        <ele>711</ele>
        <time>2026-05-09T16:45:26.982Z</time>
      </trkpt>
      <trkpt lat="47.90461" lon="6.94827">
        <ele>710</ele>
        <time>2026-05-09T16:45:27.982Z</time>
      </trkpt>
      <trkpt lat="47.9046" lon="6.94829">
        <ele>709</ele>
        <time>2026-05-09T16:45:28.982Z</time>
      </trkpt>
      <trkpt lat="47.9046" lon="6.9483">
        <ele>709</ele>
        <time>2026-05-09T16:45:29.982Z</time>
      </trkpt>
      <trkpt lat="47.90459" lon="6.94831">
        <ele>709</ele>
        <time>2026-05-09T16:45:30.982Z</time>
      </trkpt>
      <trkpt lat="47.90458" lon="6.94832">
        <ele>708</ele>
        <time>2026-05-09T16:45:31.981Z</time>
      </trkpt>
      <trkpt lat="47.90457" lon="6.94833">
        <ele>708</ele>
        <time>2026-05-09T16:45:32.981Z</time>
      </trkpt>
      <trkpt lat="47.90455" lon="6.94834">
        <ele>708</ele>
        <time>2026-05-09T16:45:33.981Z</time>
      </trkpt>
      <trkpt lat="47.90454" lon="6.94835">
        <ele>708</ele>
        <time>2026-05-09T16:45:34.982Z</time>
      </trkpt>
      <trkpt lat="47.90453" lon="6.94836">
        <ele>707</ele>
        <time>2026-05-09T16:45:35.982Z</time>
      </trkpt>
      <trkpt lat="47.90453" lon="6.94837">
        <ele>707</ele>
        <time>2026-05-09T16:45:36.982Z</time>
      </trkpt>
      <trkpt lat="47.90452" lon="6.94838">
        <ele>706</ele>
        <time>2026-05-09T16:45:37.981Z</time>
      </trkpt>
      <trkpt lat="47.90451" lon="6.94839">
        <ele>706</ele>
        <time>2026-05-09T16:45:38.981Z</time>
      </trkpt>
      <trkpt lat="47.9045" lon="6.9484">
        <ele>706</ele>
        <time>2026-05-09T16:45:39.982Z</time>
      </trkpt>
      <trkpt lat="47.90449" lon="6.94841">
        <ele>706</ele>
        <time>2026-05-09T16:45:40.982Z</time>
      </trkpt>
      <trkpt lat="47.90448" lon="6.94842">
        <ele>706</ele>
        <time>2026-05-09T16:45:41.982Z</time>
      </trkpt>
      <trkpt lat="47.90447" lon="6.94843">
        <ele>706</ele>
        <time>2026-05-09T16:45:42.981Z</time>
      </trkpt>
      <trkpt lat="47.90445" lon="6.94844">
        <ele>707</ele>
        <time>2026-05-09T16:45:43.982Z</time>
      </trkpt>
      <trkpt lat="47.90444" lon="6.94845">
        <ele>707</ele>
        <time>2026-05-09T16:45:44.981Z</time>
      </trkpt>
      <trkpt lat="47.90442" lon="6.94846">
        <ele>708</ele>
        <time>2026-05-09T16:45:45.981Z</time>
      </trkpt>
      <trkpt lat="47.9044" lon="6.94847">
        <ele>709</ele>
        <time>2026-05-09T16:45:46.982Z</time>
      </trkpt>
      <trkpt lat="47.90439" lon="6.94848">
        <ele>709</ele>
        <time>2026-05-09T16:45:47.981Z</time>
      </trkpt>
      <trkpt lat="47.90437" lon="6.9485">
        <ele>710</ele>
        <time>2026-05-09T16:45:48.981Z</time>
      </trkpt>
      <trkpt lat="47.90436" lon="6.94851">
        <ele>710</ele>
        <time>2026-05-09T16:45:49.981Z</time>
      </trkpt>
      <trkpt lat="47.90435" lon="6.94853">
        <ele>711</ele>
        <time>2026-05-09T16:45:50.982Z</time>
      </trkpt>
      <trkpt lat="47.90434" lon="6.94855">
        <ele>711</ele>
        <time>2026-05-09T16:45:51.982Z</time>
      </trkpt>
      <trkpt lat="47.90432" lon="6.94856">
        <ele>711</ele>
        <time>2026-05-09T16:45:52.981Z</time>
      </trkpt>
      <trkpt lat="47.90431" lon="6.94857">
        <ele>711</ele>
        <time>2026-05-09T16:45:53.981Z</time>
      </trkpt>
      <trkpt lat="47.9043" lon="6.94858">
        <ele>711</ele>
        <time>2026-05-09T16:45:54.982Z</time>
      </trkpt>
      <trkpt lat="47.90428" lon="6.9486">
        <ele>711</ele>
        <time>2026-05-09T16:45:55.981Z</time>
      </trkpt>
      <trkpt lat="47.90427" lon="6.94861">
        <ele>710</ele>
        <time>2026-05-09T16:45:56.982Z</time>
      </trkpt>
      <trkpt lat="47.90426" lon="6.94863">
        <ele>710</ele>
        <time>2026-05-09T16:45:57.982Z</time>
      </trkpt>
      <trkpt lat="47.90425" lon="6.94865">
        <ele>710</ele>
        <time>2026-05-09T16:45:58.982Z</time>
      </trkpt>
      <trkpt lat="47.90422" lon="6.94866">
        <ele>710</ele>
        <time>2026-05-09T16:45:59.982Z</time>
      </trkpt>
      <trkpt lat="47.9042" lon="6.94868">
        <ele>711</ele>
        <time>2026-05-09T16:46:00.981Z</time>
      </trkpt>
      <trkpt lat="47.90418" lon="6.94871">
        <ele>711</ele>
        <time>2026-05-09T16:46:01.982Z</time>
      </trkpt>
      <trkpt lat="47.90417" lon="6.94873">
        <ele>711</ele>
        <time>2026-05-09T16:46:02.981Z</time>
      </trkpt>
      <trkpt lat="47.90414" lon="6.94875">
        <ele>712</ele>
        <time>2026-05-09T16:46:03.982Z</time>
      </trkpt>
      <trkpt lat="47.90413" lon="6.94877">
        <ele>712</ele>
        <time>2026-05-09T16:46:04.981Z</time>
      </trkpt>
      <trkpt lat="47.90412" lon="6.9488">
        <ele>712</ele>
        <time>2026-05-09T16:46:05.982Z</time>
      </trkpt>
      <trkpt lat="47.90411" lon="6.94882">
        <ele>713</ele>
        <time>2026-05-09T16:46:06.981Z</time>
      </trkpt>
      <trkpt lat="47.9041" lon="6.94883">
        <ele>713</ele>
        <time>2026-05-09T16:46:07.981Z</time>
      </trkpt>
      <trkpt lat="47.90408" lon="6.94885">
        <ele>713</ele>
        <time>2026-05-09T16:46:08.981Z</time>
      </trkpt>
      <trkpt lat="47.90406" lon="6.94886">
        <ele>713</ele>
        <time>2026-05-09T16:46:09.982Z</time>
      </trkpt>
      <trkpt lat="47.90404" lon="6.94886">
        <ele>713</ele>
        <time>2026-05-09T16:46:10.981Z</time>
      </trkpt>
      <trkpt lat="47.90402" lon="6.94887">
        <ele>713</ele>
        <time>2026-05-09T16:46:11.982Z</time>
      </trkpt>
      <trkpt lat="47.904" lon="6.94887">
        <ele>713</ele>
        <time>2026-05-09T16:46:12.981Z</time>
      </trkpt>
      <trkpt lat="47.90398" lon="6.9489">
        <ele>713</ele>
        <time>2026-05-09T16:46:13.982Z</time>
      </trkpt>
      <trkpt lat="47.90396" lon="6.94892">
        <ele>713</ele>
        <time>2026-05-09T16:46:14.982Z</time>
      </trkpt>
      <trkpt lat="47.90394" lon="6.94894">
        <ele>713</ele>
        <time>2026-05-09T16:46:15.982Z</time>
      </trkpt>
      <trkpt lat="47.90393" lon="6.94895">
        <ele>713</ele>
        <time>2026-05-09T16:46:16.982Z</time>
      </trkpt>
      <trkpt lat="47.9039" lon="6.94896">
        <ele>713</ele>
        <time>2026-05-09T16:46:17.982Z</time>
      </trkpt>
      <trkpt lat="47.90389" lon="6.94899">
        <ele>713</ele>
        <time>2026-05-09T16:46:18.982Z</time>
      </trkpt>
      <trkpt lat="47.90387" lon="6.94901">
        <ele>713</ele>
        <time>2026-05-09T16:46:19.981Z</time>
      </trkpt>
      <trkpt lat="47.90386" lon="6.94902">
        <ele>713</ele>
        <time>2026-05-09T16:46:20.982Z</time>
      </trkpt>
      <trkpt lat="47.90385" lon="6.94902">
        <ele>713</ele>
        <time>2026-05-09T16:46:21.981Z</time>
      </trkpt>
      <trkpt lat="47.90385" lon="6.94903">
        <ele>712</ele>
        <time>2026-05-09T16:46:22.981Z</time>
      </trkpt>
      <trkpt lat="47.90384" lon="6.94902">
        <ele>712</ele>
        <time>2026-05-09T16:46:23.981Z</time>
      </trkpt>
      <trkpt lat="47.90385" lon="6.94906">
        <ele>712</ele>
        <time>2026-05-09T16:46:24.982Z</time>
      </trkpt>
      <trkpt lat="47.90385" lon="6.94909">
        <ele>711</ele>
        <time>2026-05-09T16:46:25.982Z</time>
      </trkpt>
      <trkpt lat="47.90384" lon="6.94911">
        <ele>711</ele>
        <time>2026-05-09T16:46:26.982Z</time>
      </trkpt>
      <trkpt lat="47.90383" lon="6.94913">
        <ele>710</ele>
        <time>2026-05-09T16:46:27.981Z</time>
      </trkpt>
      <trkpt lat="47.90381" lon="6.94915">
        <ele>709</ele>
        <time>2026-05-09T16:46:28.982Z</time>
      </trkpt>
      <trkpt lat="47.90381" lon="6.94918">
        <ele>709</ele>
        <time>2026-05-09T16:46:29.981Z</time>
      </trkpt>
      <trkpt lat="47.90375" lon="6.94921">
        <ele>708</ele>
        <time>2026-05-09T16:46:30.981Z</time>
      </trkpt>
      <trkpt lat="47.90373" lon="6.94923">
        <ele>708</ele>
        <time>2026-05-09T16:46:31.982Z</time>
      </trkpt>
      <trkpt lat="47.90372" lon="6.94924">
        <ele>707</ele>
        <time>2026-05-09T16:46:32.982Z</time>
      </trkpt>
      <trkpt lat="47.90371" lon="6.94927">
        <ele>707</ele>
        <time>2026-05-09T16:46:33.982Z</time>
      </trkpt>
      <trkpt lat="47.9037" lon="6.94929">
        <ele>707</ele>
        <time>2026-05-09T16:46:34.981Z</time>
      </trkpt>
      <trkpt lat="47.90369" lon="6.9493">
        <ele>706</ele>
        <time>2026-05-09T16:46:35.982Z</time>
      </trkpt>
      <trkpt lat="47.90368" lon="6.94931">
        <ele>706</ele>
        <time>2026-05-09T16:46:36.982Z</time>
      </trkpt>
      <trkpt lat="47.90368" lon="6.94931">
        <ele>706</ele>
        <time>2026-05-09T16:46:37.982Z</time>
      </trkpt>
      <trkpt lat="47.90367" lon="6.94932">
        <ele>705</ele>
        <time>2026-05-09T16:46:38.981Z</time>
      </trkpt>
      <trkpt lat="47.90366" lon="6.94933">
        <ele>705</ele>
        <time>2026-05-09T16:46:39.982Z</time>
      </trkpt>
      <trkpt lat="47.90365" lon="6.94934">
        <ele>705</ele>
        <time>2026-05-09T16:46:40.981Z</time>
      </trkpt>
      <trkpt lat="47.90364" lon="6.94936">
        <ele>704</ele>
        <time>2026-05-09T16:46:41.981Z</time>
      </trkpt>
      <trkpt lat="47.90363" lon="6.94937">
        <ele>704</ele>
        <time>2026-05-09T16:46:42.981Z</time>
      </trkpt>
      <trkpt lat="47.90362" lon="6.94939">
        <ele>704</ele>
        <time>2026-05-09T16:46:43.982Z</time>
      </trkpt>
      <trkpt lat="47.9036" lon="6.9494">
        <ele>705</ele>
        <time>2026-05-09T16:46:44.981Z</time>
      </trkpt>
      <trkpt lat="47.90359" lon="6.94941">
        <ele>705</ele>
        <time>2026-05-09T16:46:45.981Z</time>
      </trkpt>
      <trkpt lat="47.90358" lon="6.94941">
        <ele>706</ele>
        <time>2026-05-09T16:46:46.981Z</time>
      </trkpt>
      <trkpt lat="47.90356" lon="6.9494">
        <ele>706</ele>
        <time>2026-05-09T16:46:47.981Z</time>
      </trkpt>
      <trkpt lat="47.90355" lon="6.9494">
        <ele>706</ele>
        <time>2026-05-09T16:46:48.982Z</time>
      </trkpt>
      <trkpt lat="47.90354" lon="6.94941">
        <ele>706</ele>
        <time>2026-05-09T16:46:49.982Z</time>
      </trkpt>
      <trkpt lat="47.90353" lon="6.94943">
        <ele>705</ele>
        <time>2026-05-09T16:46:50.982Z</time>
      </trkpt>
      <trkpt lat="47.90352" lon="6.94945">
        <ele>705</ele>
        <time>2026-05-09T16:46:51.981Z</time>
      </trkpt>
      <trkpt lat="47.9035" lon="6.94946">
        <ele>705</ele>
        <time>2026-05-09T16:46:52.982Z</time>
      </trkpt>
      <trkpt lat="47.90348" lon="6.94948">
        <ele>705</ele>
        <time>2026-05-09T16:46:53.981Z</time>
      </trkpt>
      <trkpt lat="47.90347" lon="6.94948">
        <ele>705</ele>
        <time>2026-05-09T16:46:54.982Z</time>
      </trkpt>
      <trkpt lat="47.90346" lon="6.9495">
        <ele>704</ele>
        <time>2026-05-09T16:46:55.981Z</time>
      </trkpt>
      <trkpt lat="47.90345" lon="6.94951">
        <ele>704</ele>
        <time>2026-05-09T16:46:56.981Z</time>
      </trkpt>
      <trkpt lat="47.90344" lon="6.94953">
        <ele>704</ele>
        <time>2026-05-09T16:46:57.981Z</time>
      </trkpt>
      <trkpt lat="47.90343" lon="6.94955">
        <ele>703</ele>
        <time>2026-05-09T16:46:58.982Z</time>
      </trkpt>
      <trkpt lat="47.90342" lon="6.94957">
        <ele>703</ele>
        <time>2026-05-09T16:46:59.981Z</time>
      </trkpt>
      <trkpt lat="47.90341" lon="6.94959">
        <ele>702</ele>
        <time>2026-05-09T16:47:00.982Z</time>
      </trkpt>
      <trkpt lat="47.9034" lon="6.9496">
        <ele>701</ele>
        <time>2026-05-09T16:47:01.981Z</time>
      </trkpt>
      <trkpt lat="47.9034" lon="6.94962">
        <ele>701</ele>
        <time>2026-05-09T16:47:02.981Z</time>
      </trkpt>
      <trkpt lat="47.90338" lon="6.94963">
        <ele>700</ele>
        <time>2026-05-09T16:47:03.982Z</time>
      </trkpt>
      <trkpt lat="47.90338" lon="6.94964">
        <ele>699</ele>
        <time>2026-05-09T16:47:04.982Z</time>
      </trkpt>
      <trkpt lat="47.90337" lon="6.94965">
        <ele>698</ele>
        <time>2026-05-09T16:47:05.981Z</time>
      </trkpt>
      <trkpt lat="47.90336" lon="6.94966">
        <ele>698</ele>
        <time>2026-05-09T16:47:06.981Z</time>
      </trkpt>
      <trkpt lat="47.90335" lon="6.94967">
        <ele>698</ele>
        <time>2026-05-09T16:47:07.982Z</time>
      </trkpt>
      <trkpt lat="47.90334" lon="6.94969">
        <ele>697</ele>
        <time>2026-05-09T16:47:08.981Z</time>
      </trkpt>
      <trkpt lat="47.90333" lon="6.9497">
        <ele>697</ele>
        <time>2026-05-09T16:47:09.982Z</time>
      </trkpt>
      <trkpt lat="47.90331" lon="6.94971">
        <ele>697</ele>
        <time>2026-05-09T16:47:10.981Z</time>
      </trkpt>
      <trkpt lat="47.9033" lon="6.94973">
        <ele>697</ele>
        <time>2026-05-09T16:47:11.982Z</time>
      </trkpt>
      <trkpt lat="47.90329" lon="6.94974">
        <ele>697</ele>
        <time>2026-05-09T16:47:12.981Z</time>
      </trkpt>
      <trkpt lat="47.90328" lon="6.94976">
        <ele>697</ele>
        <time>2026-05-09T16:47:13.982Z</time>
      </trkpt>
      <trkpt lat="47.90327" lon="6.94977">
        <ele>697</ele>
        <time>2026-05-09T16:47:14.982Z</time>
      </trkpt>
      <trkpt lat="47.90327" lon="6.94979">
        <ele>697</ele>
        <time>2026-05-09T16:47:15.982Z</time>
      </trkpt>
      <trkpt lat="47.90326" lon="6.94981">
        <ele>696</ele>
        <time>2026-05-09T16:47:16.981Z</time>
      </trkpt>
      <trkpt lat="47.90325" lon="6.94983">
        <ele>696</ele>
        <time>2026-05-09T16:47:17.981Z</time>
      </trkpt>
      <trkpt lat="47.90324" lon="6.94985">
        <ele>695</ele>
        <time>2026-05-09T16:47:18.981Z</time>
      </trkpt>
      <trkpt lat="47.90323" lon="6.94987">
        <ele>694</ele>
        <time>2026-05-09T16:47:19.981Z</time>
      </trkpt>
      <trkpt lat="47.90322" lon="6.94988">
        <ele>693</ele>
        <time>2026-05-09T16:47:20.982Z</time>
      </trkpt>
      <trkpt lat="47.90321" lon="6.9499">
        <ele>693</ele>
        <time>2026-05-09T16:47:21.981Z</time>
      </trkpt>
      <trkpt lat="47.9032" lon="6.94992">
        <ele>693</ele>
        <time>2026-05-09T16:47:22.982Z</time>
      </trkpt>
      <trkpt lat="47.90318" lon="6.94993">
        <ele>692</ele>
        <time>2026-05-09T16:47:23.981Z</time>
      </trkpt>
      <trkpt lat="47.90317" lon="6.94994">
        <ele>692</ele>
        <time>2026-05-09T16:47:24.982Z</time>
      </trkpt>
      <trkpt lat="47.90315" lon="6.94995">
        <ele>692</ele>
        <time>2026-05-09T16:47:25.981Z</time>
      </trkpt>
      <trkpt lat="47.90313" lon="6.94998">
        <ele>692</ele>
        <time>2026-05-09T16:47:26.982Z</time>
      </trkpt>
      <trkpt lat="47.90312" lon="6.94999">
        <ele>692</ele>
        <time>2026-05-09T16:47:27.981Z</time>
      </trkpt>
      <trkpt lat="47.90311" lon="6.95001">
        <ele>692</ele>
        <time>2026-05-09T16:47:28.982Z</time>
      </trkpt>
      <trkpt lat="47.9031" lon="6.95002">
        <ele>692</ele>
        <time>2026-05-09T16:47:29.981Z</time>
      </trkpt>
      <trkpt lat="47.90309" lon="6.95004">
        <ele>692</ele>
        <time>2026-05-09T16:47:30.981Z</time>
      </trkpt>
      <trkpt lat="47.90308" lon="6.95004">
        <ele>692</ele>
        <time>2026-05-09T16:47:31.981Z</time>
      </trkpt>
      <trkpt lat="47.90307" lon="6.95005">
        <ele>692</ele>
        <time>2026-05-09T16:47:32.982Z</time>
      </trkpt>
      <trkpt lat="47.90307" lon="6.95006">
        <ele>691</ele>
        <time>2026-05-09T16:47:33.981Z</time>
      </trkpt>
      <trkpt lat="47.90306" lon="6.95008">
        <ele>691</ele>
        <time>2026-05-09T16:47:34.981Z</time>
      </trkpt>
      <trkpt lat="47.90305" lon="6.95009">
        <ele>690</ele>
        <time>2026-05-09T16:47:35.981Z</time>
      </trkpt>
      <trkpt lat="47.90304" lon="6.95011">
        <ele>690</ele>
        <time>2026-05-09T16:47:36.982Z</time>
      </trkpt>
      <trkpt lat="47.90303" lon="6.95012">
        <ele>689</ele>
        <time>2026-05-09T16:47:37.982Z</time>
      </trkpt>
      <trkpt lat="47.90302" lon="6.95013">
        <ele>689</ele>
        <time>2026-05-09T16:47:38.982Z</time>
      </trkpt>
      <trkpt lat="47.90301" lon="6.95015">
        <ele>689</ele>
        <time>2026-05-09T16:47:39.982Z</time>
      </trkpt>
      <trkpt lat="47.90299" lon="6.95016">
        <ele>688</ele>
        <time>2026-05-09T16:47:40.981Z</time>
      </trkpt>
      <trkpt lat="47.90298" lon="6.95017">
        <ele>688</ele>
        <time>2026-05-09T16:47:41.982Z</time>
      </trkpt>
      <trkpt lat="47.90297" lon="6.95019">
        <ele>688</ele>
        <time>2026-05-09T16:47:42.981Z</time>
      </trkpt>
      <trkpt lat="47.90296" lon="6.9502">
        <ele>688</ele>
        <time>2026-05-09T16:47:43.982Z</time>
      </trkpt>
      <trkpt lat="47.90295" lon="6.95022">
        <ele>687</ele>
        <time>2026-05-09T16:47:44.981Z</time>
      </trkpt>
      <trkpt lat="47.90294" lon="6.95023">
        <ele>687</ele>
        <time>2026-05-09T16:47:45.982Z</time>
      </trkpt>
      <trkpt lat="47.90293" lon="6.95025">
        <ele>687</ele>
        <time>2026-05-09T16:47:46.981Z</time>
      </trkpt>
      <trkpt lat="47.90291" lon="6.95027">
        <ele>687</ele>
        <time>2026-05-09T16:47:47.982Z</time>
      </trkpt>
      <trkpt lat="47.9029" lon="6.95029">
        <ele>687</ele>
        <time>2026-05-09T16:47:48.982Z</time>
      </trkpt>
      <trkpt lat="47.90289" lon="6.9503">
        <ele>686</ele>
        <time>2026-05-09T16:47:49.982Z</time>
      </trkpt>
      <trkpt lat="47.90288" lon="6.95031">
        <ele>686</ele>
        <time>2026-05-09T16:47:50.981Z</time>
      </trkpt>
      <trkpt lat="47.90287" lon="6.95032">
        <ele>686</ele>
        <time>2026-05-09T16:47:51.982Z</time>
      </trkpt>
      <trkpt lat="47.90286" lon="6.95033">
        <ele>686</ele>
        <time>2026-05-09T16:47:52.982Z</time>
      </trkpt>
      <trkpt lat="47.90285" lon="6.95034">
        <ele>686</ele>
        <time>2026-05-09T16:47:53.981Z</time>
      </trkpt>
      <trkpt lat="47.90285" lon="6.95035">
        <ele>686</ele>
        <time>2026-05-09T16:47:54.982Z</time>
      </trkpt>
      <trkpt lat="47.90284" lon="6.95037">
        <ele>686</ele>
        <time>2026-05-09T16:47:55.981Z</time>
      </trkpt>
      <trkpt lat="47.90283" lon="6.95038">
        <ele>685</ele>
        <time>2026-05-09T16:47:56.982Z</time>
      </trkpt>
      <trkpt lat="47.90282" lon="6.9504">
        <ele>685</ele>
        <time>2026-05-09T16:47:57.981Z</time>
      </trkpt>
      <trkpt lat="47.90281" lon="6.95041">
        <ele>685</ele>
        <time>2026-05-09T16:47:58.981Z</time>
      </trkpt>
      <trkpt lat="47.90281" lon="6.95043">
        <ele>685</ele>
        <time>2026-05-09T16:47:59.981Z</time>
      </trkpt>
      <trkpt lat="47.9028" lon="6.95045">
        <ele>685</ele>
        <time>2026-05-09T16:48:00.982Z</time>
      </trkpt>
      <trkpt lat="47.90278" lon="6.95049">
        <ele>685</ele>
        <time>2026-05-09T16:48:01.981Z</time>
      </trkpt>
      <trkpt lat="47.90276" lon="6.95051">
        <ele>685</ele>
        <time>2026-05-09T16:48:02.982Z</time>
      </trkpt>
      <trkpt lat="47.90275" lon="6.95054">
        <ele>685</ele>
        <time>2026-05-09T16:48:03.981Z</time>
      </trkpt>
      <trkpt lat="47.90273" lon="6.95056">
        <ele>685</ele>
        <time>2026-05-09T16:48:04.981Z</time>
      </trkpt>
      <trkpt lat="47.90272" lon="6.95057">
        <ele>685</ele>
        <time>2026-05-09T16:48:05.981Z</time>
      </trkpt>
      <trkpt lat="47.90271" lon="6.95059">
        <ele>684</ele>
        <time>2026-05-09T16:48:06.982Z</time>
      </trkpt>
      <trkpt lat="47.90269" lon="6.95061">
        <ele>684</ele>
        <time>2026-05-09T16:48:07.981Z</time>
      </trkpt>
      <trkpt lat="47.90268" lon="6.95062">
        <ele>684</ele>
        <time>2026-05-09T16:48:08.981Z</time>
      </trkpt>
      <trkpt lat="47.90267" lon="6.95063">
        <ele>684</ele>
        <time>2026-05-09T16:48:09.982Z</time>
      </trkpt>
      <trkpt lat="47.90266" lon="6.95065">
        <ele>684</ele>
        <time>2026-05-09T16:48:10.981Z</time>
      </trkpt>
      <trkpt lat="47.90264" lon="6.95066">
        <ele>683</ele>
        <time>2026-05-09T16:48:11.982Z</time>
      </trkpt>
      <trkpt lat="47.90263" lon="6.95067">
        <ele>683</ele>
        <time>2026-05-09T16:48:12.981Z</time>
      </trkpt>
      <trkpt lat="47.90262" lon="6.95069">
        <ele>683</ele>
        <time>2026-05-09T16:48:13.982Z</time>
      </trkpt>
      <trkpt lat="47.90261" lon="6.9507">
        <ele>683</ele>
        <time>2026-05-09T16:48:14.981Z</time>
      </trkpt>
      <trkpt lat="47.9026" lon="6.95072">
        <ele>682</ele>
        <time>2026-05-09T16:48:15.982Z</time>
      </trkpt>
      <trkpt lat="47.90259" lon="6.95073">
        <ele>682</ele>
        <time>2026-05-09T16:48:16.981Z</time>
      </trkpt>
      <trkpt lat="47.90258" lon="6.95075">
        <ele>682</ele>
        <time>2026-05-09T16:48:17.982Z</time>
      </trkpt>
      <trkpt lat="47.90258" lon="6.95076">
        <ele>682</ele>
        <time>2026-05-09T16:48:18.981Z</time>
      </trkpt>
      <trkpt lat="47.90256" lon="6.95077">
        <ele>682</ele>
        <time>2026-05-09T16:48:19.982Z</time>
      </trkpt>
      <trkpt lat="47.90255" lon="6.95078">
        <ele>681</ele>
        <time>2026-05-09T16:48:20.981Z</time>
      </trkpt>
      <trkpt lat="47.90254" lon="6.9508">
        <ele>681</ele>
        <time>2026-05-09T16:48:21.982Z</time>
      </trkpt>
      <trkpt lat="47.90253" lon="6.95081">
        <ele>681</ele>
        <time>2026-05-09T16:48:22.981Z</time>
      </trkpt>
      <trkpt lat="47.90252" lon="6.95083">
        <ele>681</ele>
        <time>2026-05-09T16:48:23.982Z</time>
      </trkpt>
      <trkpt lat="47.9025" lon="6.95084">
        <ele>681</ele>
        <time>2026-05-09T16:48:24.982Z</time>
      </trkpt>
      <trkpt lat="47.90249" lon="6.95086">
        <ele>681</ele>
        <time>2026-05-09T16:48:25.981Z</time>
      </trkpt>
      <trkpt lat="47.90248" lon="6.95088">
        <ele>681</ele>
        <time>2026-05-09T16:48:26.981Z</time>
      </trkpt>
      <trkpt lat="47.90248" lon="6.95089">
        <ele>680</ele>
        <time>2026-05-09T16:48:27.981Z</time>
      </trkpt>
      <trkpt lat="47.90247" lon="6.95091">
        <ele>680</ele>
        <time>2026-05-09T16:48:28.981Z</time>
      </trkpt>
      <trkpt lat="47.90246" lon="6.95092">
        <ele>680</ele>
        <time>2026-05-09T16:48:29.981Z</time>
      </trkpt>
      <trkpt lat="47.90245" lon="6.95094">
        <ele>679</ele>
        <time>2026-05-09T16:48:30.981Z</time>
      </trkpt>
      <trkpt lat="47.90244" lon="6.95096">
        <ele>679</ele>
        <time>2026-05-09T16:48:31.981Z</time>
      </trkpt>
      <trkpt lat="47.90243" lon="6.95098">
        <ele>678</ele>
        <time>2026-05-09T16:48:32.982Z</time>
      </trkpt>
      <trkpt lat="47.90242" lon="6.95099">
        <ele>677</ele>
        <time>2026-05-09T16:48:33.982Z</time>
      </trkpt>
      <trkpt lat="47.9024" lon="6.95101">
        <ele>677</ele>
        <time>2026-05-09T16:48:34.981Z</time>
      </trkpt>
      <trkpt lat="47.90239" lon="6.95102">
        <ele>677</ele>
        <time>2026-05-09T16:48:35.982Z</time>
      </trkpt>
      <trkpt lat="47.90238" lon="6.95103">
        <ele>676</ele>
        <time>2026-05-09T16:48:36.982Z</time>
      </trkpt>
      <trkpt lat="47.90237" lon="6.95105">
        <ele>676</ele>
        <time>2026-05-09T16:48:37.981Z</time>
      </trkpt>
      <trkpt lat="47.90235" lon="6.95107">
        <ele>676</ele>
        <time>2026-05-09T16:48:38.982Z</time>
      </trkpt>
      <trkpt lat="47.90234" lon="6.95109">
        <ele>675</ele>
        <time>2026-05-09T16:48:39.982Z</time>
      </trkpt>
      <trkpt lat="47.90233" lon="6.9511">
        <ele>675</ele>
        <time>2026-05-09T16:48:40.981Z</time>
      </trkpt>
      <trkpt lat="47.90232" lon="6.95112">
        <ele>675</ele>
        <time>2026-05-09T16:48:41.982Z</time>
      </trkpt>
      <trkpt lat="47.9023" lon="6.95114">
        <ele>674</ele>
        <time>2026-05-09T16:48:42.981Z</time>
      </trkpt>
      <trkpt lat="47.90228" lon="6.95115">
        <ele>675</ele>
        <time>2026-05-09T16:48:43.981Z</time>
      </trkpt>
      <trkpt lat="47.90227" lon="6.95117">
        <ele>675</ele>
        <time>2026-05-09T16:48:44.981Z</time>
      </trkpt>
      <trkpt lat="47.90226" lon="6.95118">
        <ele>675</ele>
        <time>2026-05-09T16:48:45.982Z</time>
      </trkpt>
      <trkpt lat="47.90225" lon="6.9512">
        <ele>675</ele>
        <time>2026-05-09T16:48:46.982Z</time>
      </trkpt>
      <trkpt lat="47.90224" lon="6.95122">
        <ele>675</ele>
        <time>2026-05-09T16:48:47.981Z</time>
      </trkpt>
      <trkpt lat="47.90223" lon="6.95124">
        <ele>675</ele>
        <time>2026-05-09T16:48:48.982Z</time>
      </trkpt>
      <trkpt lat="47.90222" lon="6.95125">
        <ele>675</ele>
        <time>2026-05-09T16:48:49.981Z</time>
      </trkpt>
      <trkpt lat="47.90221" lon="6.95126">
        <ele>675</ele>
        <time>2026-05-09T16:48:50.982Z</time>
      </trkpt>
      <trkpt lat="47.9022" lon="6.95128">
        <ele>675</ele>
        <time>2026-05-09T16:48:51.981Z</time>
      </trkpt>
      <trkpt lat="47.90218" lon="6.95129">
        <ele>675</ele>
        <time>2026-05-09T16:48:52.982Z</time>
      </trkpt>
      <trkpt lat="47.90217" lon="6.95131">
        <ele>676</ele>
        <time>2026-05-09T16:48:53.981Z</time>
      </trkpt>
      <trkpt lat="47.90216" lon="6.95133">
        <ele>676</ele>
        <time>2026-05-09T16:48:54.982Z</time>
      </trkpt>
      <trkpt lat="47.90215" lon="6.95134">
        <ele>676</ele>
        <time>2026-05-09T16:48:55.981Z</time>
      </trkpt>
      <trkpt lat="47.90215" lon="6.95136">
        <ele>676</ele>
        <time>2026-05-09T16:48:56.981Z</time>
      </trkpt>
      <trkpt lat="47.90214" lon="6.95137">
        <ele>676</ele>
        <time>2026-05-09T16:48:57.982Z</time>
      </trkpt>
      <trkpt lat="47.90213" lon="6.95138">
        <ele>676</ele>
        <time>2026-05-09T16:48:58.982Z</time>
      </trkpt>
      <trkpt lat="47.90211" lon="6.95141">
        <ele>676</ele>
        <time>2026-05-09T16:48:59.981Z</time>
      </trkpt>
      <trkpt lat="47.90211" lon="6.95143">
        <ele>675</ele>
        <time>2026-05-09T16:49:00.981Z</time>
      </trkpt>
      <trkpt lat="47.9021" lon="6.95146">
        <ele>675</ele>
        <time>2026-05-09T16:49:01.981Z</time>
      </trkpt>
      <trkpt lat="47.90209" lon="6.95148">
        <ele>675</ele>
        <time>2026-05-09T16:49:02.982Z</time>
      </trkpt>
      <trkpt lat="47.90207" lon="6.9515">
        <ele>675</ele>
        <time>2026-05-09T16:49:03.982Z</time>
      </trkpt>
      <trkpt lat="47.90205" lon="6.95152">
        <ele>675</ele>
        <time>2026-05-09T16:49:04.982Z</time>
      </trkpt>
      <trkpt lat="47.90205" lon="6.95154">
        <ele>675</ele>
        <time>2026-05-09T16:49:05.982Z</time>
      </trkpt>
      <trkpt lat="47.90204" lon="6.95156">
        <ele>674</ele>
        <time>2026-05-09T16:49:06.982Z</time>
      </trkpt>
      <trkpt lat="47.90203" lon="6.95158">
        <ele>674</ele>
        <time>2026-05-09T16:49:07.981Z</time>
      </trkpt>
      <trkpt lat="47.90202" lon="6.9516">
        <ele>674</ele>
        <time>2026-05-09T16:49:08.981Z</time>
      </trkpt>
      <trkpt lat="47.90201" lon="6.95161">
        <ele>673</ele>
        <time>2026-05-09T16:49:09.982Z</time>
      </trkpt>
      <trkpt lat="47.902" lon="6.95163">
        <ele>673</ele>
        <time>2026-05-09T16:49:10.981Z</time>
      </trkpt>
      <trkpt lat="47.90199" lon="6.95164">
        <ele>673</ele>
        <time>2026-05-09T16:49:11.982Z</time>
      </trkpt>
      <trkpt lat="47.90199" lon="6.95166">
        <ele>672</ele>
        <time>2026-05-09T16:49:12.981Z</time>
      </trkpt>
      <trkpt lat="47.90198" lon="6.95167">
        <ele>672</ele>
        <time>2026-05-09T16:49:13.981Z</time>
      </trkpt>
      <trkpt lat="47.90197" lon="6.95169">
        <ele>671</ele>
        <time>2026-05-09T16:49:14.982Z</time>
      </trkpt>
      <trkpt lat="47.90195" lon="6.9517">
        <ele>671</ele>
        <time>2026-05-09T16:49:15.982Z</time>
      </trkpt>
      <trkpt lat="47.90194" lon="6.95171">
        <ele>670</ele>
        <time>2026-05-09T16:49:16.981Z</time>
      </trkpt>
      <trkpt lat="47.90193" lon="6.95171">
        <ele>670</ele>
        <time>2026-05-09T16:49:17.981Z</time>
      </trkpt>
      <trkpt lat="47.90192" lon="6.95172">
        <ele>670</ele>
        <time>2026-05-09T16:49:18.982Z</time>
      </trkpt>
      <trkpt lat="47.90191" lon="6.95173">
        <ele>669</ele>
        <time>2026-05-09T16:49:19.981Z</time>
      </trkpt>
      <trkpt lat="47.90189" lon="6.95174">
        <ele>669</ele>
        <time>2026-05-09T16:49:20.982Z</time>
      </trkpt>
      <trkpt lat="47.90188" lon="6.95176">
        <ele>669</ele>
        <time>2026-05-09T16:49:21.981Z</time>
      </trkpt>
      <trkpt lat="47.90186" lon="6.95177">
        <ele>669</ele>
        <time>2026-05-09T16:49:22.981Z</time>
      </trkpt>
      <trkpt lat="47.90185" lon="6.95179">
        <ele>669</ele>
        <time>2026-05-09T16:49:23.981Z</time>
      </trkpt>
      <trkpt lat="47.90184" lon="6.95181">
        <ele>669</ele>
        <time>2026-05-09T16:49:24.982Z</time>
      </trkpt>
      <trkpt lat="47.90183" lon="6.95183">
        <ele>669</ele>
        <time>2026-05-09T16:49:25.981Z</time>
      </trkpt>
      <trkpt lat="47.90182" lon="6.95185">
        <ele>669</ele>
        <time>2026-05-09T16:49:26.982Z</time>
      </trkpt>
      <trkpt lat="47.90181" lon="6.95188">
        <ele>669</ele>
        <time>2026-05-09T16:49:27.981Z</time>
      </trkpt>
      <trkpt lat="47.9018" lon="6.95191">
        <ele>668</ele>
        <time>2026-05-09T16:49:28.981Z</time>
      </trkpt>
      <trkpt lat="47.90178" lon="6.95193">
        <ele>669</ele>
        <time>2026-05-09T16:49:29.982Z</time>
      </trkpt>
      <trkpt lat="47.90177" lon="6.95195">
        <ele>669</ele>
        <time>2026-05-09T16:49:30.981Z</time>
      </trkpt>
      <trkpt lat="47.90176" lon="6.95197">
        <ele>669</ele>
        <time>2026-05-09T16:49:31.981Z</time>
      </trkpt>
      <trkpt lat="47.90175" lon="6.95199">
        <ele>670</ele>
        <time>2026-05-09T16:49:32.981Z</time>
      </trkpt>
      <trkpt lat="47.90174" lon="6.95201">
        <ele>670</ele>
        <time>2026-05-09T16:49:33.981Z</time>
      </trkpt>
      <trkpt lat="47.90173" lon="6.95203">
        <ele>670</ele>
        <time>2026-05-09T16:49:34.982Z</time>
      </trkpt>
      <trkpt lat="47.90173" lon="6.95205">
        <ele>670</ele>
        <time>2026-05-09T16:49:35.981Z</time>
      </trkpt>
      <trkpt lat="47.90172" lon="6.95206">
        <ele>670</ele>
        <time>2026-05-09T16:49:36.982Z</time>
      </trkpt>
      <trkpt lat="47.90171" lon="6.95207">
        <ele>669</ele>
        <time>2026-05-09T16:49:37.981Z</time>
      </trkpt>
      <trkpt lat="47.9017" lon="6.95208">
        <ele>670</ele>
        <time>2026-05-09T16:49:38.981Z</time>
      </trkpt>
      <trkpt lat="47.90169" lon="6.95209">
        <ele>670</ele>
        <time>2026-05-09T16:49:39.982Z</time>
      </trkpt>
      <trkpt lat="47.90169" lon="6.9521">
        <ele>670</ele>
        <time>2026-05-09T16:49:40.981Z</time>
      </trkpt>
      <trkpt lat="47.90168" lon="6.95211">
        <ele>670</ele>
        <time>2026-05-09T16:49:41.981Z</time>
      </trkpt>
      <trkpt lat="47.90167" lon="6.95212">
        <ele>670</ele>
        <time>2026-05-09T16:49:42.982Z</time>
      </trkpt>
      <trkpt lat="47.90166" lon="6.95213">
        <ele>670</ele>
        <time>2026-05-09T16:49:43.981Z</time>
      </trkpt>
      <trkpt lat="47.90165" lon="6.95215">
        <ele>670</ele>
        <time>2026-05-09T16:49:44.981Z</time>
      </trkpt>
      <trkpt lat="47.90164" lon="6.95216">
        <ele>670</ele>
        <time>2026-05-09T16:49:45.981Z</time>
      </trkpt>
      <trkpt lat="47.90164" lon="6.95217">
        <ele>670</ele>
        <time>2026-05-09T16:49:46.981Z</time>
      </trkpt>
      <trkpt lat="47.90163" lon="6.95219">
        <ele>670</ele>
        <time>2026-05-09T16:49:47.982Z</time>
      </trkpt>
      <trkpt lat="47.90162" lon="6.9522">
        <ele>670</ele>
        <time>2026-05-09T16:49:48.981Z</time>
      </trkpt>
      <trkpt lat="47.90161" lon="6.95221">
        <ele>670</ele>
        <time>2026-05-09T16:49:49.981Z</time>
      </trkpt>
      <trkpt lat="47.9016" lon="6.95222">
        <ele>670</ele>
        <time>2026-05-09T16:49:50.981Z</time>
      </trkpt>
      <trkpt lat="47.90159" lon="6.95223">
        <ele>670</ele>
        <time>2026-05-09T16:49:51.981Z</time>
      </trkpt>
      <trkpt lat="47.90158" lon="6.95224">
        <ele>670</ele>
        <time>2026-05-09T16:49:52.981Z</time>
      </trkpt>
      <trkpt lat="47.90158" lon="6.95225">
        <ele>670</ele>
        <time>2026-05-09T16:49:53.981Z</time>
      </trkpt>
      <trkpt lat="47.90157" lon="6.95227">
        <ele>670</ele>
        <time>2026-05-09T16:49:54.981Z</time>
      </trkpt>
      <trkpt lat="47.90156" lon="6.95228">
        <ele>670</ele>
        <time>2026-05-09T16:49:55.981Z</time>
      </trkpt>
      <trkpt lat="47.90155" lon="6.95229">
        <ele>670</ele>
        <time>2026-05-09T16:49:56.981Z</time>
      </trkpt>
      <trkpt lat="47.90155" lon="6.95231">
        <ele>671</ele>
        <time>2026-05-09T16:49:57.981Z</time>
      </trkpt>
      <trkpt lat="47.90154" lon="6.95232">
        <ele>671</ele>
        <time>2026-05-09T16:49:58.982Z</time>
      </trkpt>
      <trkpt lat="47.90154" lon="6.95234">
        <ele>671</ele>
        <time>2026-05-09T16:49:59.981Z</time>
      </trkpt>
      <trkpt lat="47.90154" lon="6.95235">
        <ele>671</ele>
        <time>2026-05-09T16:50:00.981Z</time>
      </trkpt>
      <trkpt lat="47.90153" lon="6.95237">
        <ele>671</ele>
        <time>2026-05-09T16:50:01.981Z</time>
      </trkpt>
      <trkpt lat="47.90152" lon="6.95238">
        <ele>670</ele>
        <time>2026-05-09T16:50:02.981Z</time>
      </trkpt>
      <trkpt lat="47.90151" lon="6.9524">
        <ele>670</ele>
        <time>2026-05-09T16:50:03.982Z</time>
      </trkpt>
      <trkpt lat="47.90151" lon="6.95242">
        <ele>669</ele>
        <time>2026-05-09T16:50:04.981Z</time>
      </trkpt>
      <trkpt lat="47.9015" lon="6.95244">
        <ele>669</ele>
        <time>2026-05-09T16:50:05.981Z</time>
      </trkpt>
      <trkpt lat="47.90149" lon="6.95246">
        <ele>669</ele>
        <time>2026-05-09T16:50:06.982Z</time>
      </trkpt>
      <trkpt lat="47.90148" lon="6.95248">
        <ele>669</ele>
        <time>2026-05-09T16:50:07.981Z</time>
      </trkpt>
      <trkpt lat="47.90147" lon="6.9525">
        <ele>669</ele>
        <time>2026-05-09T16:50:08.981Z</time>
      </trkpt>
      <trkpt lat="47.90147" lon="6.95252">
        <ele>668</ele>
        <time>2026-05-09T16:50:09.982Z</time>
      </trkpt>
      <trkpt lat="47.90146" lon="6.95254">
        <ele>668</ele>
        <time>2026-05-09T16:50:10.981Z</time>
      </trkpt>
      <trkpt lat="47.90145" lon="6.95255">
        <ele>668</ele>
        <time>2026-05-09T16:50:11.981Z</time>
      </trkpt>
      <trkpt lat="47.90144" lon="6.95256">
        <ele>668</ele>
        <time>2026-05-09T16:50:12.981Z</time>
      </trkpt>
      <trkpt lat="47.90143" lon="6.95258">
        <ele>668</ele>
        <time>2026-05-09T16:50:13.981Z</time>
      </trkpt>
      <trkpt lat="47.90142" lon="6.95259">
        <ele>669</ele>
        <time>2026-05-09T16:50:14.982Z</time>
      </trkpt>
      <trkpt lat="47.90141" lon="6.9526">
        <ele>669</ele>
        <time>2026-05-09T16:50:15.981Z</time>
      </trkpt>
      <trkpt lat="47.90141" lon="6.95262">
        <ele>669</ele>
        <time>2026-05-09T16:50:16.981Z</time>
      </trkpt>
      <trkpt lat="47.9014" lon="6.95264">
        <ele>669</ele>
        <time>2026-05-09T16:50:17.981Z</time>
      </trkpt>
      <trkpt lat="47.90139" lon="6.95266">
        <ele>669</ele>
        <time>2026-05-09T16:50:18.981Z</time>
      </trkpt>
      <trkpt lat="47.90139" lon="6.95267">
        <ele>670</ele>
        <time>2026-05-09T16:50:19.981Z</time>
      </trkpt>
      <trkpt lat="47.90139" lon="6.95268">
        <ele>670</ele>
        <time>2026-05-09T16:50:20.982Z</time>
      </trkpt>
      <trkpt lat="47.90138" lon="6.9527">
        <ele>671</ele>
        <time>2026-05-09T16:50:21.981Z</time>
      </trkpt>
      <trkpt lat="47.90137" lon="6.95271">
        <ele>671</ele>
        <time>2026-05-09T16:50:22.982Z</time>
      </trkpt>
      <trkpt lat="47.90135" lon="6.95272">
        <ele>671</ele>
        <time>2026-05-09T16:50:23.981Z</time>
      </trkpt>
      <trkpt lat="47.90134" lon="6.95274">
        <ele>671</ele>
        <time>2026-05-09T16:50:24.981Z</time>
      </trkpt>
      <trkpt lat="47.90132" lon="6.95276">
        <ele>671</ele>
        <time>2026-05-09T16:50:25.981Z</time>
      </trkpt>
      <trkpt lat="47.90131" lon="6.95278">
        <ele>671</ele>
        <time>2026-05-09T16:50:26.981Z</time>
      </trkpt>
      <trkpt lat="47.9013" lon="6.9528">
        <ele>671</ele>
        <time>2026-05-09T16:50:27.981Z</time>
      </trkpt>
      <trkpt lat="47.90129" lon="6.95282">
        <ele>672</ele>
        <time>2026-05-09T16:50:28.981Z</time>
      </trkpt>
      <trkpt lat="47.90129" lon="6.95285">
        <ele>672</ele>
        <time>2026-05-09T16:50:29.982Z</time>
      </trkpt>
      <trkpt lat="47.90128" lon="6.95287">
        <ele>672</ele>
        <time>2026-05-09T16:50:30.981Z</time>
      </trkpt>
      <trkpt lat="47.90127" lon="6.95289">
        <ele>672</ele>
        <time>2026-05-09T16:50:31.982Z</time>
      </trkpt>
      <trkpt lat="47.90126" lon="6.95291">
        <ele>672</ele>
        <time>2026-05-09T16:50:32.981Z</time>
      </trkpt>
      <trkpt lat="47.90126" lon="6.95292">
        <ele>672</ele>
        <time>2026-05-09T16:50:33.982Z</time>
      </trkpt>
      <trkpt lat="47.90125" lon="6.95294">
        <ele>672</ele>
        <time>2026-05-09T16:50:34.982Z</time>
      </trkpt>
      <trkpt lat="47.90123" lon="6.95296">
        <ele>672</ele>
        <time>2026-05-09T16:50:35.981Z</time>
      </trkpt>
      <trkpt lat="47.90122" lon="6.95298">
        <ele>672</ele>
        <time>2026-05-09T16:50:36.982Z</time>
      </trkpt>
      <trkpt lat="47.90121" lon="6.95301">
        <ele>672</ele>
        <time>2026-05-09T16:50:37.981Z</time>
      </trkpt>
      <trkpt lat="47.90121" lon="6.95303">
        <ele>673</ele>
        <time>2026-05-09T16:50:38.981Z</time>
      </trkpt>
      <trkpt lat="47.9012" lon="6.95304">
        <ele>673</ele>
        <time>2026-05-09T16:50:39.981Z</time>
      </trkpt>
      <trkpt lat="47.9012" lon="6.95305">
        <ele>673</ele>
        <time>2026-05-09T16:50:40.981Z</time>
      </trkpt>
      <trkpt lat="47.90119" lon="6.95306">
        <ele>673</ele>
        <time>2026-05-09T16:50:41.981Z</time>
      </trkpt>
      <trkpt lat="47.90118" lon="6.95308">
        <ele>673</ele>
        <time>2026-05-09T16:50:42.981Z</time>
      </trkpt>
      <trkpt lat="47.90117" lon="6.9531">
        <ele>673</ele>
        <time>2026-05-09T16:50:43.982Z</time>
      </trkpt>
      <trkpt lat="47.90116" lon="6.95311">
        <ele>673</ele>
        <time>2026-05-09T16:50:44.981Z</time>
      </trkpt>
      <trkpt lat="47.90115" lon="6.95312">
        <ele>673</ele>
        <time>2026-05-09T16:50:45.981Z</time>
      </trkpt>
      <trkpt lat="47.90114" lon="6.95313">
        <ele>672</ele>
        <time>2026-05-09T16:50:46.981Z</time>
      </trkpt>
      <trkpt lat="47.90113" lon="6.95315">
        <ele>672</ele>
        <time>2026-05-09T16:50:47.981Z</time>
      </trkpt>
      <trkpt lat="47.90111" lon="6.95319">
        <ele>672</ele>
        <time>2026-05-09T16:50:48.981Z</time>
      </trkpt>
      <trkpt lat="47.90108" lon="6.95322">
        <ele>672</ele>
        <time>2026-05-09T16:50:49.981Z</time>
      </trkpt>
      <trkpt lat="47.90106" lon="6.95325">
        <ele>672</ele>
        <time>2026-05-09T16:50:50.981Z</time>
      </trkpt>
      <trkpt lat="47.90104" lon="6.95328">
        <ele>672</ele>
        <time>2026-05-09T16:50:51.981Z</time>
      </trkpt>
      <trkpt lat="47.90102" lon="6.95331">
        <ele>672</ele>
        <time>2026-05-09T16:50:52.982Z</time>
      </trkpt>
      <trkpt lat="47.90101" lon="6.95335">
        <ele>672</ele>
        <time>2026-05-09T16:50:53.981Z</time>
      </trkpt>
      <trkpt lat="47.901" lon="6.95338">
        <ele>672</ele>
        <time>2026-05-09T16:50:54.981Z</time>
      </trkpt>
      <trkpt lat="47.90099" lon="6.9534">
        <ele>672</ele>
        <time>2026-05-09T16:50:55.982Z</time>
      </trkpt>
      <trkpt lat="47.90099" lon="6.95341">
        <ele>671</ele>
        <time>2026-05-09T16:50:56.981Z</time>
      </trkpt>
      <trkpt lat="47.90097" lon="6.95344">
        <ele>671</ele>
        <time>2026-05-09T16:50:57.982Z</time>
      </trkpt>
      <trkpt lat="47.90097" lon="6.95347">
        <ele>670</ele>
        <time>2026-05-09T16:50:58.981Z</time>
      </trkpt>
      <trkpt lat="47.90096" lon="6.95349">
        <ele>670</ele>
        <time>2026-05-09T16:50:59.981Z</time>
      </trkpt>
      <trkpt lat="47.90097" lon="6.95351">
        <ele>670</ele>
        <time>2026-05-09T16:51:00.981Z</time>
      </trkpt>
      <trkpt lat="47.90096" lon="6.95352">
        <ele>670</ele>
        <time>2026-05-09T16:51:01.981Z</time>
      </trkpt>
      <trkpt lat="47.90095" lon="6.95353">
        <ele>669</ele>
        <time>2026-05-09T16:51:02.982Z</time>
      </trkpt>
      <trkpt lat="47.90095" lon="6.95354">
        <ele>669</ele>
        <time>2026-05-09T16:51:03.982Z</time>
      </trkpt>
      <trkpt lat="47.90096" lon="6.95355">
        <ele>669</ele>
        <time>2026-05-09T16:51:04.981Z</time>
      </trkpt>
      <trkpt lat="47.90096" lon="6.95357">
        <ele>668</ele>
        <time>2026-05-09T16:51:05.982Z</time>
      </trkpt>
      <trkpt lat="47.90096" lon="6.95359">
        <ele>667</ele>
        <time>2026-05-09T16:51:06.982Z</time>
      </trkpt>
      <trkpt lat="47.90095" lon="6.95361">
        <ele>667</ele>
        <time>2026-05-09T16:51:07.981Z</time>
      </trkpt>
      <trkpt lat="47.90094" lon="6.95364">
        <ele>667</ele>
        <time>2026-05-09T16:51:08.981Z</time>
      </trkpt>
      <trkpt lat="47.90094" lon="6.95366">
        <ele>666</ele>
        <time>2026-05-09T16:51:09.981Z</time>
      </trkpt>
      <trkpt lat="47.90095" lon="6.95367">
        <ele>666</ele>
        <time>2026-05-09T16:51:10.981Z</time>
      </trkpt>
      <trkpt lat="47.90093" lon="6.95369">
        <ele>666</ele>
        <time>2026-05-09T16:51:11.981Z</time>
      </trkpt>
      <trkpt lat="47.90092" lon="6.95371">
        <ele>667</ele>
        <time>2026-05-09T16:51:12.982Z</time>
      </trkpt>
      <trkpt lat="47.9009" lon="6.95373">
        <ele>667</ele>
        <time>2026-05-09T16:51:13.981Z</time>
      </trkpt>
      <trkpt lat="47.90089" lon="6.95375">
        <ele>667</ele>
        <time>2026-05-09T16:51:14.982Z</time>
      </trkpt>
      <trkpt lat="47.90086" lon="6.95376">
        <ele>667</ele>
        <time>2026-05-09T16:51:15.981Z</time>
      </trkpt>
      <trkpt lat="47.90084" lon="6.95379">
        <ele>666</ele>
        <time>2026-05-09T16:51:16.982Z</time>
      </trkpt>
      <trkpt lat="47.90081" lon="6.95381">
        <ele>666</ele>
        <time>2026-05-09T16:51:17.982Z</time>
      </trkpt>
      <trkpt lat="47.90079" lon="6.95382">
        <ele>666</ele>
        <time>2026-05-09T16:51:18.981Z</time>
      </trkpt>
      <trkpt lat="47.90076" lon="6.95385">
        <ele>666</ele>
        <time>2026-05-09T16:51:19.982Z</time>
      </trkpt>
      <trkpt lat="47.90073" lon="6.95387">
        <ele>666</ele>
        <time>2026-05-09T16:51:20.982Z</time>
      </trkpt>
      <trkpt lat="47.90071" lon="6.95389">
        <ele>666</ele>
        <time>2026-05-09T16:51:21.981Z</time>
      </trkpt>
      <trkpt lat="47.90068" lon="6.95391">
        <ele>666</ele>
        <time>2026-05-09T16:51:22.982Z</time>
      </trkpt>
      <trkpt lat="47.90068" lon="6.95392">
        <ele>665</ele>
        <time>2026-05-09T16:51:23.981Z</time>
      </trkpt>
      <trkpt lat="47.90068" lon="6.95392">
        <ele>664</ele>
        <time>2026-05-09T16:51:24.982Z</time>
      </trkpt>
      <trkpt lat="47.90068" lon="6.95392">
        <ele>664</ele>
        <time>2026-05-09T16:51:25.982Z</time>
      </trkpt>
      <trkpt lat="47.90067" lon="6.95393">
        <ele>663</ele>
        <time>2026-05-09T16:51:26.981Z</time>
      </trkpt>
      <trkpt lat="47.90065" lon="6.95393">
        <ele>662</ele>
        <time>2026-05-09T16:51:27.981Z</time>
      </trkpt>
      <trkpt lat="47.90065" lon="6.95394">
        <ele>662</ele>
        <time>2026-05-09T16:51:28.982Z</time>
      </trkpt>
      <trkpt lat="47.90064" lon="6.95395">
        <ele>661</ele>
        <time>2026-05-09T16:51:29.981Z</time>
      </trkpt>
      <trkpt lat="47.90063" lon="6.95396">
        <ele>660</ele>
        <time>2026-05-09T16:51:30.981Z</time>
      </trkpt>
      <trkpt lat="47.90062" lon="6.95397">
        <ele>659</ele>
        <time>2026-05-09T16:51:31.982Z</time>
      </trkpt>
      <trkpt lat="47.9006" lon="6.95397">
        <ele>658</ele>
        <time>2026-05-09T16:51:32.982Z</time>
      </trkpt>
      <trkpt lat="47.90059" lon="6.95397">
        <ele>657</ele>
        <time>2026-05-09T16:51:33.981Z</time>
      </trkpt>
      <trkpt lat="47.90058" lon="6.95396">
        <ele>656</ele>
        <time>2026-05-09T16:51:34.981Z</time>
      </trkpt>
      <trkpt lat="47.90057" lon="6.95393">
        <ele>655</ele>
        <time>2026-05-09T16:51:35.982Z</time>
      </trkpt>
      <trkpt lat="47.90057" lon="6.95391">
        <ele>654</ele>
        <time>2026-05-09T16:51:36.982Z</time>
      </trkpt>
      <trkpt lat="47.90057" lon="6.95389">
        <ele>653</ele>
        <time>2026-05-09T16:51:37.982Z</time>
      </trkpt>
      <trkpt lat="47.90057" lon="6.95386">
        <ele>652</ele>
        <time>2026-05-09T16:51:38.982Z</time>
      </trkpt>
      <trkpt lat="47.90057" lon="6.95384">
        <ele>652</ele>
        <time>2026-05-09T16:51:39.981Z</time>
      </trkpt>
      <trkpt lat="47.90057" lon="6.95382">
        <ele>651</ele>
        <time>2026-05-09T16:51:40.982Z</time>
      </trkpt>
      <trkpt lat="47.90058" lon="6.95379">
        <ele>650</ele>
        <time>2026-05-09T16:51:41.982Z</time>
      </trkpt>
      <trkpt lat="47.90057" lon="6.95377">
        <ele>649</ele>
        <time>2026-05-09T16:51:42.981Z</time>
      </trkpt>
      <trkpt lat="47.90057" lon="6.95375">
        <ele>649</ele>
        <time>2026-05-09T16:51:43.982Z</time>
      </trkpt>
      <trkpt lat="47.90057" lon="6.95372">
        <ele>648</ele>
        <time>2026-05-09T16:51:44.981Z</time>
      </trkpt>
      <trkpt lat="47.90056" lon="6.9537">
        <ele>648</ele>
        <time>2026-05-09T16:51:45.982Z</time>
      </trkpt>
      <trkpt lat="47.90056" lon="6.95368">
        <ele>648</ele>
        <time>2026-05-09T16:51:46.981Z</time>
      </trkpt>
      <trkpt lat="47.90056" lon="6.95365">
        <ele>647</ele>
        <time>2026-05-09T16:51:47.981Z</time>
      </trkpt>
      <trkpt lat="47.90056" lon="6.95363">
        <ele>646</ele>
        <time>2026-05-09T16:51:48.982Z</time>
      </trkpt>
      <trkpt lat="47.90056" lon="6.95361">
        <ele>646</ele>
        <time>2026-05-09T16:51:49.982Z</time>
      </trkpt>
      <trkpt lat="47.90056" lon="6.95358">
        <ele>645</ele>
        <time>2026-05-09T16:51:50.981Z</time>
      </trkpt>
      <trkpt lat="47.90055" lon="6.95356">
        <ele>645</ele>
        <time>2026-05-09T16:51:51.981Z</time>
      </trkpt>
      <trkpt lat="47.90055" lon="6.95353">
        <ele>645</ele>
        <time>2026-05-09T16:51:52.981Z</time>
      </trkpt>
      <trkpt lat="47.90055" lon="6.95351">
        <ele>644</ele>
        <time>2026-05-09T16:51:53.982Z</time>
      </trkpt>
      <trkpt lat="47.90055" lon="6.95348">
        <ele>644</ele>
        <time>2026-05-09T16:51:54.982Z</time>
      </trkpt>
      <trkpt lat="47.90055" lon="6.95346">
        <ele>644</ele>
        <time>2026-05-09T16:51:55.981Z</time>
      </trkpt>
      <trkpt lat="47.90055" lon="6.95344">
        <ele>643</ele>
        <time>2026-05-09T16:51:56.982Z</time>
      </trkpt>
      <trkpt lat="47.90055" lon="6.95342">
        <ele>643</ele>
        <time>2026-05-09T16:51:57.981Z</time>
      </trkpt>
      <trkpt lat="47.90055" lon="6.9534">
        <ele>643</ele>
        <time>2026-05-09T16:51:58.982Z</time>
      </trkpt>
      <trkpt lat="47.90055" lon="6.95338">
        <ele>643</ele>
        <time>2026-05-09T16:51:59.981Z</time>
      </trkpt>
      <trkpt lat="47.90055" lon="6.95336">
        <ele>642</ele>
        <time>2026-05-09T16:52:00.981Z</time>
      </trkpt>
      <trkpt lat="47.90055" lon="6.95334">
        <ele>642</ele>
        <time>2026-05-09T16:52:01.982Z</time>
      </trkpt>
      <trkpt lat="47.90055" lon="6.95332">
        <ele>642</ele>
        <time>2026-05-09T16:52:02.981Z</time>
      </trkpt>
      <trkpt lat="47.90055" lon="6.9533">
        <ele>641</ele>
        <time>2026-05-09T16:52:03.981Z</time>
      </trkpt>
      <trkpt lat="47.90056" lon="6.95328">
        <ele>642</ele>
        <time>2026-05-09T16:52:04.981Z</time>
      </trkpt>
      <trkpt lat="47.90056" lon="6.95325">
        <ele>642</ele>
        <time>2026-05-09T16:52:05.982Z</time>
      </trkpt>
      <trkpt lat="47.90057" lon="6.95323">
        <ele>642</ele>
        <time>2026-05-09T16:52:06.981Z</time>
      </trkpt>
      <trkpt lat="47.90057" lon="6.95321">
        <ele>642</ele>
        <time>2026-05-09T16:52:07.981Z</time>
      </trkpt>
      <trkpt lat="47.90058" lon="6.95319">
        <ele>642</ele>
        <time>2026-05-09T16:52:08.981Z</time>
      </trkpt>
      <trkpt lat="47.90059" lon="6.95317">
        <ele>643</ele>
        <time>2026-05-09T16:52:09.982Z</time>
      </trkpt>
      <trkpt lat="47.9006" lon="6.95315">
        <ele>643</ele>
        <time>2026-05-09T16:52:10.982Z</time>
      </trkpt>
      <trkpt lat="47.90061" lon="6.95314">
        <ele>643</ele>
        <time>2026-05-09T16:52:11.981Z</time>
      </trkpt>
      <trkpt lat="47.90061" lon="6.95312">
        <ele>643</ele>
        <time>2026-05-09T16:52:12.981Z</time>
      </trkpt>
      <trkpt lat="47.90062" lon="6.9531">
        <ele>644</ele>
        <time>2026-05-09T16:52:13.981Z</time>
      </trkpt>
      <trkpt lat="47.90063" lon="6.95309">
        <ele>644</ele>
        <time>2026-05-09T16:52:14.981Z</time>
      </trkpt>
      <trkpt lat="47.90064" lon="6.95307">
        <ele>644</ele>
        <time>2026-05-09T16:52:15.981Z</time>
      </trkpt>
      <trkpt lat="47.90064" lon="6.95306">
        <ele>644</ele>
        <time>2026-05-09T16:52:16.981Z</time>
      </trkpt>
      <trkpt lat="47.90065" lon="6.95304">
        <ele>644</ele>
        <time>2026-05-09T16:52:17.981Z</time>
      </trkpt>
      <trkpt lat="47.90066" lon="6.95302">
        <ele>643</ele>
        <time>2026-05-09T16:52:18.981Z</time>
      </trkpt>
      <trkpt lat="47.90067" lon="6.95301">
        <ele>643</ele>
        <time>2026-05-09T16:52:19.982Z</time>
      </trkpt>
      <trkpt lat="47.90068" lon="6.95299">
        <ele>643</ele>
        <time>2026-05-09T16:52:20.981Z</time>
      </trkpt>
      <trkpt lat="47.90069" lon="6.95297">
        <ele>643</ele>
        <time>2026-05-09T16:52:21.981Z</time>
      </trkpt>
      <trkpt lat="47.9007" lon="6.95295">
        <ele>643</ele>
        <time>2026-05-09T16:52:22.981Z</time>
      </trkpt>
      <trkpt lat="47.9007" lon="6.95294">
        <ele>644</ele>
        <time>2026-05-09T16:52:23.982Z</time>
      </trkpt>
      <trkpt lat="47.9007" lon="6.95291">
        <ele>644</ele>
        <time>2026-05-09T16:52:24.982Z</time>
      </trkpt>
      <trkpt lat="47.90071" lon="6.95288">
        <ele>644</ele>
        <time>2026-05-09T16:52:25.982Z</time>
      </trkpt>
      <trkpt lat="47.90071" lon="6.95286">
        <ele>645</ele>
        <time>2026-05-09T16:52:26.982Z</time>
      </trkpt>
      <trkpt lat="47.90072" lon="6.95284">
        <ele>645</ele>
        <time>2026-05-09T16:52:27.981Z</time>
      </trkpt>
      <trkpt lat="47.90073" lon="6.95281">
        <ele>646</ele>
        <time>2026-05-09T16:52:28.981Z</time>
      </trkpt>
      <trkpt lat="47.90073" lon="6.95278">
        <ele>646</ele>
        <time>2026-05-09T16:52:29.981Z</time>
      </trkpt>
      <trkpt lat="47.90073" lon="6.95276">
        <ele>646</ele>
        <time>2026-05-09T16:52:30.982Z</time>
      </trkpt>
      <trkpt lat="47.90073" lon="6.95274">
        <ele>647</ele>
        <time>2026-05-09T16:52:31.982Z</time>
      </trkpt>
      <trkpt lat="47.90074" lon="6.95272">
        <ele>647</ele>
        <time>2026-05-09T16:52:32.981Z</time>
      </trkpt>
      <trkpt lat="47.90075" lon="6.95271">
        <ele>647</ele>
        <time>2026-05-09T16:52:33.982Z</time>
      </trkpt>
      <trkpt lat="47.90076" lon="6.95269">
        <ele>647</ele>
        <time>2026-05-09T16:52:34.982Z</time>
      </trkpt>
      <trkpt lat="47.90076" lon="6.95268">
        <ele>648</ele>
        <time>2026-05-09T16:52:35.982Z</time>
      </trkpt>
      <trkpt lat="47.90077" lon="6.95267">
        <ele>648</ele>
        <time>2026-05-09T16:52:36.981Z</time>
      </trkpt>
      <trkpt lat="47.90078" lon="6.95266">
        <ele>648</ele>
        <time>2026-05-09T16:52:37.982Z</time>
      </trkpt>
      <trkpt lat="47.90078" lon="6.95265">
        <ele>649</ele>
        <time>2026-05-09T16:52:38.982Z</time>
      </trkpt>
      <trkpt lat="47.90079" lon="6.95264">
        <ele>649</ele>
        <time>2026-05-09T16:52:39.981Z</time>
      </trkpt>
      <trkpt lat="47.9008" lon="6.95263">
        <ele>649</ele>
        <time>2026-05-09T16:52:40.982Z</time>
      </trkpt>
      <trkpt lat="47.9008" lon="6.95262">
        <ele>649</ele>
        <time>2026-05-09T16:52:41.982Z</time>
      </trkpt>
      <trkpt lat="47.90081" lon="6.9526">
        <ele>649</ele>
        <time>2026-05-09T16:52:42.982Z</time>
      </trkpt>
      <trkpt lat="47.90082" lon="6.9526">
        <ele>650</ele>
        <time>2026-05-09T16:52:43.981Z</time>
      </trkpt>
      <trkpt lat="47.90083" lon="6.95258">
        <ele>650</ele>
        <time>2026-05-09T16:52:44.982Z</time>
      </trkpt>
      <trkpt lat="47.90084" lon="6.95257">
        <ele>650</ele>
        <time>2026-05-09T16:52:45.981Z</time>
      </trkpt>
      <trkpt lat="47.90085" lon="6.95255">
        <ele>650</ele>
        <time>2026-05-09T16:52:46.982Z</time>
      </trkpt>
      <trkpt lat="47.90085" lon="6.95253">
        <ele>651</ele>
        <time>2026-05-09T16:52:47.981Z</time>
      </trkpt>
      <trkpt lat="47.90086" lon="6.9525">
        <ele>651</ele>
        <time>2026-05-09T16:52:48.981Z</time>
      </trkpt>
      <trkpt lat="47.90087" lon="6.95248">
        <ele>651</ele>
        <time>2026-05-09T16:52:49.981Z</time>
      </trkpt>
      <trkpt lat="47.90087" lon="6.95245">
        <ele>652</ele>
        <time>2026-05-09T16:52:50.981Z</time>
      </trkpt>
      <trkpt lat="47.90088" lon="6.95244">
        <ele>652</ele>
        <time>2026-05-09T16:52:51.981Z</time>
      </trkpt>
      <trkpt lat="47.90088" lon="6.95242">
        <ele>653</ele>
        <time>2026-05-09T16:52:52.982Z</time>
      </trkpt>
      <trkpt lat="47.90089" lon="6.95241">
        <ele>653</ele>
        <time>2026-05-09T16:52:53.981Z</time>
      </trkpt>
      <trkpt lat="47.9009" lon="6.95239">
        <ele>653</ele>
        <time>2026-05-09T16:52:54.982Z</time>
      </trkpt>
      <trkpt lat="47.90091" lon="6.95238">
        <ele>654</ele>
        <time>2026-05-09T16:52:55.981Z</time>
      </trkpt>
      <trkpt lat="47.90091" lon="6.95237">
        <ele>653</ele>
        <time>2026-05-09T16:52:56.982Z</time>
      </trkpt>
      <trkpt lat="47.90092" lon="6.95235">
        <ele>652</ele>
        <time>2026-05-09T16:52:57.981Z</time>
      </trkpt>
      <trkpt lat="47.90092" lon="6.95234">
        <ele>652</ele>
        <time>2026-05-09T16:52:58.982Z</time>
      </trkpt>
      <trkpt lat="47.90093" lon="6.95232">
        <ele>651</ele>
        <time>2026-05-09T16:52:59.981Z</time>
      </trkpt>
      <trkpt lat="47.90093" lon="6.95229">
        <ele>651</ele>
        <time>2026-05-09T16:53:00.981Z</time>
      </trkpt>
      <trkpt lat="47.90093" lon="6.95226">
        <ele>650</ele>
        <time>2026-05-09T16:53:01.982Z</time>
      </trkpt>
      <trkpt lat="47.90094" lon="6.95223">
        <ele>651</ele>
        <time>2026-05-09T16:53:02.982Z</time>
      </trkpt>
      <trkpt lat="47.90095" lon="6.95221">
        <ele>651</ele>
        <time>2026-05-09T16:53:03.982Z</time>
      </trkpt>
      <trkpt lat="47.90095" lon="6.95219">
        <ele>651</ele>
        <time>2026-05-09T16:53:04.982Z</time>
      </trkpt>
      <trkpt lat="47.90096" lon="6.95217">
        <ele>650</ele>
        <time>2026-05-09T16:53:05.982Z</time>
      </trkpt>
      <trkpt lat="47.90097" lon="6.95215">
        <ele>651</ele>
        <time>2026-05-09T16:53:06.981Z</time>
      </trkpt>
      <trkpt lat="47.90098" lon="6.95213">
        <ele>651</ele>
        <time>2026-05-09T16:53:07.982Z</time>
      </trkpt>
      <trkpt lat="47.90099" lon="6.95211">
        <ele>650</ele>
        <time>2026-05-09T16:53:08.981Z</time>
      </trkpt>
      <trkpt lat="47.90099" lon="6.95209">
        <ele>650</ele>
        <time>2026-05-09T16:53:09.982Z</time>
      </trkpt>
      <trkpt lat="47.901" lon="6.95207">
        <ele>650</ele>
        <time>2026-05-09T16:53:10.982Z</time>
      </trkpt>
      <trkpt lat="47.90101" lon="6.95205">
        <ele>650</ele>
        <time>2026-05-09T16:53:11.981Z</time>
      </trkpt>
      <trkpt lat="47.90102" lon="6.95204">
        <ele>650</ele>
        <time>2026-05-09T16:53:12.981Z</time>
      </trkpt>
      <trkpt lat="47.90102" lon="6.95202">
        <ele>650</ele>
        <time>2026-05-09T16:53:13.982Z</time>
      </trkpt>
      <trkpt lat="47.90103" lon="6.95201">
        <ele>650</ele>
        <time>2026-05-09T16:53:14.981Z</time>
      </trkpt>
      <trkpt lat="47.90104" lon="6.95199">
        <ele>651</ele>
        <time>2026-05-09T16:53:15.981Z</time>
      </trkpt>
      <trkpt lat="47.90104" lon="6.95197">
        <ele>651</ele>
        <time>2026-05-09T16:53:16.981Z</time>
      </trkpt>
      <trkpt lat="47.90105" lon="6.95195">
        <ele>651</ele>
        <time>2026-05-09T16:53:17.981Z</time>
      </trkpt>
      <trkpt lat="47.90106" lon="6.95194">
        <ele>651</ele>
        <time>2026-05-09T16:53:18.982Z</time>
      </trkpt>
      <trkpt lat="47.90107" lon="6.95193">
        <ele>651</ele>
        <time>2026-05-09T16:53:19.981Z</time>
      </trkpt>
      <trkpt lat="47.90108" lon="6.95191">
        <ele>651</ele>
        <time>2026-05-09T16:53:20.981Z</time>
      </trkpt>
      <trkpt lat="47.90108" lon="6.95189">
        <ele>650</ele>
        <time>2026-05-09T16:53:21.982Z</time>
      </trkpt>
      <trkpt lat="47.90109" lon="6.95188">
        <ele>650</ele>
        <time>2026-05-09T16:53:22.982Z</time>
      </trkpt>
      <trkpt lat="47.9011" lon="6.95186">
        <ele>650</ele>
        <time>2026-05-09T16:53:23.981Z</time>
      </trkpt>
      <trkpt lat="47.90111" lon="6.95184">
        <ele>649</ele>
        <time>2026-05-09T16:53:24.981Z</time>
      </trkpt>
      <trkpt lat="47.90112" lon="6.95183">
        <ele>649</ele>
        <time>2026-05-09T16:53:25.981Z</time>
      </trkpt>
      <trkpt lat="47.90113" lon="6.95181">
        <ele>648</ele>
        <time>2026-05-09T16:53:26.981Z</time>
      </trkpt>
      <trkpt lat="47.90113" lon="6.95179">
        <ele>648</ele>
        <time>2026-05-09T16:53:27.982Z</time>
      </trkpt>
      <trkpt lat="47.90114" lon="6.95177">
        <ele>648</ele>
        <time>2026-05-09T16:53:28.981Z</time>
      </trkpt>
      <trkpt lat="47.90114" lon="6.95175">
        <ele>648</ele>
        <time>2026-05-09T16:53:29.981Z</time>
      </trkpt>
      <trkpt lat="47.90115" lon="6.95173">
        <ele>648</ele>
        <time>2026-05-09T16:53:30.982Z</time>
      </trkpt>
      <trkpt lat="47.90115" lon="6.95172">
        <ele>647</ele>
        <time>2026-05-09T16:53:31.981Z</time>
      </trkpt>
      <trkpt lat="47.90116" lon="6.9517">
        <ele>647</ele>
        <time>2026-05-09T16:53:32.982Z</time>
      </trkpt>
      <trkpt lat="47.90117" lon="6.95168">
        <ele>647</ele>
        <time>2026-05-09T16:53:33.982Z</time>
      </trkpt>
      <trkpt lat="47.90117" lon="6.95167">
        <ele>647</ele>
        <time>2026-05-09T16:53:34.981Z</time>
      </trkpt>
      <trkpt lat="47.90118" lon="6.95165">
        <ele>647</ele>
        <time>2026-05-09T16:53:35.981Z</time>
      </trkpt>
      <trkpt lat="47.90119" lon="6.95164">
        <ele>647</ele>
        <time>2026-05-09T16:53:36.982Z</time>
      </trkpt>
      <trkpt lat="47.9012" lon="6.95162">
        <ele>647</ele>
        <time>2026-05-09T16:53:37.981Z</time>
      </trkpt>
      <trkpt lat="47.90121" lon="6.9516">
        <ele>646</ele>
        <time>2026-05-09T16:53:38.982Z</time>
      </trkpt>
      <trkpt lat="47.90121" lon="6.95159">
        <ele>646</ele>
        <time>2026-05-09T16:53:39.982Z</time>
      </trkpt>
      <trkpt lat="47.90122" lon="6.95157">
        <ele>645</ele>
        <time>2026-05-09T16:53:40.981Z</time>
      </trkpt>
      <trkpt lat="47.90123" lon="6.95155">
        <ele>644</ele>
        <time>2026-05-09T16:53:41.982Z</time>
      </trkpt>
      <trkpt lat="47.90124" lon="6.95154">
        <ele>644</ele>
        <time>2026-05-09T16:53:42.981Z</time>
      </trkpt>
      <trkpt lat="47.90124" lon="6.95152">
        <ele>644</ele>
        <time>2026-05-09T16:53:43.981Z</time>
      </trkpt>
      <trkpt lat="47.90125" lon="6.95151">
        <ele>644</ele>
        <time>2026-05-09T16:53:44.982Z</time>
      </trkpt>
      <trkpt lat="47.90126" lon="6.95149">
        <ele>643</ele>
        <time>2026-05-09T16:53:45.981Z</time>
      </trkpt>
      <trkpt lat="47.90126" lon="6.95147">
        <ele>643</ele>
        <time>2026-05-09T16:53:46.982Z</time>
      </trkpt>
      <trkpt lat="47.90127" lon="6.95145">
        <ele>643</ele>
        <time>2026-05-09T16:53:47.981Z</time>
      </trkpt>
      <trkpt lat="47.90128" lon="6.95144">
        <ele>643</ele>
        <time>2026-05-09T16:53:48.981Z</time>
      </trkpt>
      <trkpt lat="47.90129" lon="6.95142">
        <ele>643</ele>
        <time>2026-05-09T16:53:49.981Z</time>
      </trkpt>
      <trkpt lat="47.9013" lon="6.9514">
        <ele>643</ele>
        <time>2026-05-09T16:53:50.981Z</time>
      </trkpt>
      <trkpt lat="47.9013" lon="6.95138">
        <ele>643</ele>
        <time>2026-05-09T16:53:51.982Z</time>
      </trkpt>
      <trkpt lat="47.90131" lon="6.95137">
        <ele>643</ele>
        <time>2026-05-09T16:53:52.981Z</time>
      </trkpt>
      <trkpt lat="47.90132" lon="6.95135">
        <ele>643</ele>
        <time>2026-05-09T16:53:53.982Z</time>
      </trkpt>
      <trkpt lat="47.90133" lon="6.95133">
        <ele>643</ele>
        <time>2026-05-09T16:53:54.981Z</time>
      </trkpt>
      <trkpt lat="47.90134" lon="6.95131">
        <ele>643</ele>
        <time>2026-05-09T16:53:55.981Z</time>
      </trkpt>
      <trkpt lat="47.90134" lon="6.9513">
        <ele>643</ele>
        <time>2026-05-09T16:53:56.982Z</time>
      </trkpt>
      <trkpt lat="47.90135" lon="6.95128">
        <ele>644</ele>
        <time>2026-05-09T16:53:57.981Z</time>
      </trkpt>
      <trkpt lat="47.90135" lon="6.95126">
        <ele>644</ele>
        <time>2026-05-09T16:53:58.982Z</time>
      </trkpt>
      <trkpt lat="47.90136" lon="6.95125">
        <ele>644</ele>
        <time>2026-05-09T16:53:59.981Z</time>
      </trkpt>
      <trkpt lat="47.90136" lon="6.95123">
        <ele>644</ele>
        <time>2026-05-09T16:54:00.981Z</time>
      </trkpt>
      <trkpt lat="47.90137" lon="6.95121">
        <ele>644</ele>
        <time>2026-05-09T16:54:01.982Z</time>
      </trkpt>
      <trkpt lat="47.90138" lon="6.95119">
        <ele>644</ele>
        <time>2026-05-09T16:54:02.982Z</time>
      </trkpt>
      <trkpt lat="47.90139" lon="6.95118">
        <ele>644</ele>
        <time>2026-05-09T16:54:03.981Z</time>
      </trkpt>
      <trkpt lat="47.9014" lon="6.95116">
        <ele>645</ele>
        <time>2026-05-09T16:54:04.981Z</time>
      </trkpt>
      <trkpt lat="47.90141" lon="6.95115">
        <ele>645</ele>
        <time>2026-05-09T16:54:05.981Z</time>
      </trkpt>
      <trkpt lat="47.90141" lon="6.95113">
        <ele>645</ele>
        <time>2026-05-09T16:54:06.982Z</time>
      </trkpt>
      <trkpt lat="47.90142" lon="6.95111">
        <ele>646</ele>
        <time>2026-05-09T16:54:07.981Z</time>
      </trkpt>
      <trkpt lat="47.90142" lon="6.95108">
        <ele>646</ele>
        <time>2026-05-09T16:54:08.981Z</time>
      </trkpt>
      <trkpt lat="47.90142" lon="6.95106">
        <ele>647</ele>
        <time>2026-05-09T16:54:09.982Z</time>
      </trkpt>
      <trkpt lat="47.90142" lon="6.95103">
        <ele>647</ele>
        <time>2026-05-09T16:54:10.981Z</time>
      </trkpt>
      <trkpt lat="47.90143" lon="6.95101">
        <ele>647</ele>
        <time>2026-05-09T16:54:11.981Z</time>
      </trkpt>
      <trkpt lat="47.90143" lon="6.95099">
        <ele>647</ele>
        <time>2026-05-09T16:54:12.981Z</time>
      </trkpt>
      <trkpt lat="47.90144" lon="6.95098">
        <ele>647</ele>
        <time>2026-05-09T16:54:13.982Z</time>
      </trkpt>
      <trkpt lat="47.90144" lon="6.95096">
        <ele>647</ele>
        <time>2026-05-09T16:54:14.981Z</time>
      </trkpt>
      <trkpt lat="47.90145" lon="6.95095">
        <ele>647</ele>
        <time>2026-05-09T16:54:15.981Z</time>
      </trkpt>
      <trkpt lat="47.90146" lon="6.95093">
        <ele>646</ele>
        <time>2026-05-09T16:54:16.982Z</time>
      </trkpt>
      <trkpt lat="47.90147" lon="6.95091">
        <ele>646</ele>
        <time>2026-05-09T16:54:17.982Z</time>
      </trkpt>
      <trkpt lat="47.90147" lon="6.95089">
        <ele>646</ele>
        <time>2026-05-09T16:54:18.982Z</time>
      </trkpt>
      <trkpt lat="47.90148" lon="6.95087">
        <ele>646</ele>
        <time>2026-05-09T16:54:19.981Z</time>
      </trkpt>
      <trkpt lat="47.90148" lon="6.95086">
        <ele>645</ele>
        <time>2026-05-09T16:54:20.982Z</time>
      </trkpt>
      <trkpt lat="47.90149" lon="6.95084">
        <ele>645</ele>
        <time>2026-05-09T16:54:21.981Z</time>
      </trkpt>
      <trkpt lat="47.9015" lon="6.95083">
        <ele>644</ele>
        <time>2026-05-09T16:54:22.981Z</time>
      </trkpt>
      <trkpt lat="47.9015" lon="6.95081">
        <ele>644</ele>
        <time>2026-05-09T16:54:23.981Z</time>
      </trkpt>
      <trkpt lat="47.90151" lon="6.9508">
        <ele>644</ele>
        <time>2026-05-09T16:54:24.982Z</time>
      </trkpt>
      <trkpt lat="47.9015" lon="6.95078">
        <ele>643</ele>
        <time>2026-05-09T16:54:25.981Z</time>
      </trkpt>
      <trkpt lat="47.9015" lon="6.95075">
        <ele>643</ele>
        <time>2026-05-09T16:54:26.982Z</time>
      </trkpt>
      <trkpt lat="47.90151" lon="6.95074">
        <ele>643</ele>
        <time>2026-05-09T16:54:27.981Z</time>
      </trkpt>
      <trkpt lat="47.90152" lon="6.95072">
        <ele>642</ele>
        <time>2026-05-09T16:54:28.982Z</time>
      </trkpt>
      <trkpt lat="47.90152" lon="6.9507">
        <ele>642</ele>
        <time>2026-05-09T16:54:29.982Z</time>
      </trkpt>
      <trkpt lat="47.90152" lon="6.95068">
        <ele>642</ele>
        <time>2026-05-09T16:54:30.981Z</time>
      </trkpt>
      <trkpt lat="47.90152" lon="6.95066">
        <ele>642</ele>
        <time>2026-05-09T16:54:31.981Z</time>
      </trkpt>
      <trkpt lat="47.90153" lon="6.95063">
        <ele>642</ele>
        <time>2026-05-09T16:54:32.982Z</time>
      </trkpt>
      <trkpt lat="47.90153" lon="6.95061">
        <ele>642</ele>
        <time>2026-05-09T16:54:33.981Z</time>
      </trkpt>
      <trkpt lat="47.90154" lon="6.95059">
        <ele>642</ele>
        <time>2026-05-09T16:54:34.982Z</time>
      </trkpt>
      <trkpt lat="47.90156" lon="6.95057">
        <ele>642</ele>
        <time>2026-05-09T16:54:35.981Z</time>
      </trkpt>
      <trkpt lat="47.90156" lon="6.95054">
        <ele>642</ele>
        <time>2026-05-09T16:54:36.982Z</time>
      </trkpt>
      <trkpt lat="47.90157" lon="6.95053">
        <ele>642</ele>
        <time>2026-05-09T16:54:37.982Z</time>
      </trkpt>
      <trkpt lat="47.90158" lon="6.9505">
        <ele>642</ele>
        <time>2026-05-09T16:54:38.982Z</time>
      </trkpt>
      <trkpt lat="47.90158" lon="6.95048">
        <ele>642</ele>
        <time>2026-05-09T16:54:39.981Z</time>
      </trkpt>
      <trkpt lat="47.90159" lon="6.95046">
        <ele>642</ele>
        <time>2026-05-09T16:54:40.982Z</time>
      </trkpt>
      <trkpt lat="47.90159" lon="6.95043">
        <ele>642</ele>
        <time>2026-05-09T16:54:41.981Z</time>
      </trkpt>
      <trkpt lat="47.90159" lon="6.95041">
        <ele>643</ele>
        <time>2026-05-09T16:54:42.982Z</time>
      </trkpt>
      <trkpt lat="47.9016" lon="6.95039">
        <ele>643</ele>
        <time>2026-05-09T16:54:43.982Z</time>
      </trkpt>
      <trkpt lat="47.9016" lon="6.95037">
        <ele>643</ele>
        <time>2026-05-09T16:54:44.982Z</time>
      </trkpt>
      <trkpt lat="47.90161" lon="6.95036">
        <ele>644</ele>
        <time>2026-05-09T16:54:45.981Z</time>
      </trkpt>
      <trkpt lat="47.90162" lon="6.95034">
        <ele>644</ele>
        <time>2026-05-09T16:54:46.981Z</time>
      </trkpt>
      <trkpt lat="47.90162" lon="6.95032">
        <ele>644</ele>
        <time>2026-05-09T16:54:47.982Z</time>
      </trkpt>
      <trkpt lat="47.90163" lon="6.9503">
        <ele>644</ele>
        <time>2026-05-09T16:54:48.981Z</time>
      </trkpt>
      <trkpt lat="47.90163" lon="6.95027">
        <ele>644</ele>
        <time>2026-05-09T16:54:49.982Z</time>
      </trkpt>
      <trkpt lat="47.90164" lon="6.95025">
        <ele>643</ele>
        <time>2026-05-09T16:54:50.981Z</time>
      </trkpt>
      <trkpt lat="47.90164" lon="6.95023">
        <ele>643</ele>
        <time>2026-05-09T16:54:51.981Z</time>
      </trkpt>
      <trkpt lat="47.90164" lon="6.95021">
        <ele>643</ele>
        <time>2026-05-09T16:54:52.981Z</time>
      </trkpt>
      <trkpt lat="47.90165" lon="6.95018">
        <ele>643</ele>
        <time>2026-05-09T16:54:53.982Z</time>
      </trkpt>
      <trkpt lat="47.90165" lon="6.95016">
        <ele>643</ele>
        <time>2026-05-09T16:54:54.982Z</time>
      </trkpt>
      <trkpt lat="47.90165" lon="6.95013">
        <ele>643</ele>
        <time>2026-05-09T16:54:55.981Z</time>
      </trkpt>
      <trkpt lat="47.90165" lon="6.95011">
        <ele>643</ele>
        <time>2026-05-09T16:54:56.981Z</time>
      </trkpt>
      <trkpt lat="47.90165" lon="6.95009">
        <ele>643</ele>
        <time>2026-05-09T16:54:57.982Z</time>
      </trkpt>
      <trkpt lat="47.90165" lon="6.95006">
        <ele>643</ele>
        <time>2026-05-09T16:54:58.981Z</time>
      </trkpt>
      <trkpt lat="47.90165" lon="6.95004">
        <ele>643</ele>
        <time>2026-05-09T16:54:59.981Z</time>
      </trkpt>
      <trkpt lat="47.90165" lon="6.95002">
        <ele>643</ele>
        <time>2026-05-09T16:55:00.981Z</time>
      </trkpt>
      <trkpt lat="47.90165" lon="6.95">
        <ele>643</ele>
        <time>2026-05-09T16:55:01.982Z</time>
      </trkpt>
      <trkpt lat="47.90164" lon="6.94998">
        <ele>643</ele>
        <time>2026-05-09T16:55:02.982Z</time>
      </trkpt>
      <trkpt lat="47.90164" lon="6.94996">
        <ele>643</ele>
        <time>2026-05-09T16:55:03.981Z</time>
      </trkpt>
      <trkpt lat="47.90164" lon="6.94994">
        <ele>643</ele>
        <time>2026-05-09T16:55:04.981Z</time>
      </trkpt>
      <trkpt lat="47.90163" lon="6.94992">
        <ele>643</ele>
        <time>2026-05-09T16:55:05.981Z</time>
      </trkpt>
      <trkpt lat="47.90163" lon="6.9499">
        <ele>643</ele>
        <time>2026-05-09T16:55:06.982Z</time>
      </trkpt>
      <trkpt lat="47.90163" lon="6.94988">
        <ele>643</ele>
        <time>2026-05-09T16:55:07.981Z</time>
      </trkpt>
      <trkpt lat="47.90162" lon="6.94986">
        <ele>644</ele>
        <time>2026-05-09T16:55:08.981Z</time>
      </trkpt>
      <trkpt lat="47.90162" lon="6.94983">
        <ele>644</ele>
        <time>2026-05-09T16:55:09.982Z</time>
      </trkpt>
      <trkpt lat="47.90162" lon="6.94981">
        <ele>644</ele>
        <time>2026-05-09T16:55:10.981Z</time>
      </trkpt>
      <trkpt lat="47.90161" lon="6.94979">
        <ele>644</ele>
        <time>2026-05-09T16:55:11.982Z</time>
      </trkpt>
      <trkpt lat="47.90161" lon="6.94977">
        <ele>643</ele>
        <time>2026-05-09T16:55:12.981Z</time>
      </trkpt>
      <trkpt lat="47.9016" lon="6.94975">
        <ele>643</ele>
        <time>2026-05-09T16:55:13.981Z</time>
      </trkpt>
      <trkpt lat="47.9016" lon="6.94972">
        <ele>643</ele>
        <time>2026-05-09T16:55:14.982Z</time>
      </trkpt>
      <trkpt lat="47.90159" lon="6.9497">
        <ele>643</ele>
        <time>2026-05-09T16:55:15.982Z</time>
      </trkpt>
      <trkpt lat="47.90159" lon="6.94968">
        <ele>643</ele>
        <time>2026-05-09T16:55:16.981Z</time>
      </trkpt>
      <trkpt lat="47.90159" lon="6.94966">
        <ele>643</ele>
        <time>2026-05-09T16:55:17.981Z</time>
      </trkpt>
      <trkpt lat="47.90158" lon="6.94964">
        <ele>642</ele>
        <time>2026-05-09T16:55:18.981Z</time>
      </trkpt>
      <trkpt lat="47.90158" lon="6.94962">
        <ele>642</ele>
        <time>2026-05-09T16:55:19.982Z</time>
      </trkpt>
      <trkpt lat="47.90158" lon="6.9496">
        <ele>642</ele>
        <time>2026-05-09T16:55:20.981Z</time>
      </trkpt>
      <trkpt lat="47.90157" lon="6.94958">
        <ele>642</ele>
        <time>2026-05-09T16:55:21.982Z</time>
      </trkpt>
      <trkpt lat="47.90157" lon="6.94956">
        <ele>642</ele>
        <time>2026-05-09T16:55:22.981Z</time>
      </trkpt>
      <trkpt lat="47.90157" lon="6.94954">
        <ele>642</ele>
        <time>2026-05-09T16:55:23.981Z</time>
      </trkpt>
      <trkpt lat="47.90157" lon="6.94952">
        <ele>641</ele>
        <time>2026-05-09T16:55:24.981Z</time>
      </trkpt>
      <trkpt lat="47.90157" lon="6.94951">
        <ele>641</ele>
        <time>2026-05-09T16:55:25.981Z</time>
      </trkpt>
      <trkpt lat="47.90156" lon="6.94949">
        <ele>641</ele>
        <time>2026-05-09T16:55:26.981Z</time>
      </trkpt>
      <trkpt lat="47.90156" lon="6.94947">
        <ele>641</ele>
        <time>2026-05-09T16:55:27.981Z</time>
      </trkpt>
      <trkpt lat="47.90156" lon="6.94945">
        <ele>640</ele>
        <time>2026-05-09T16:55:28.982Z</time>
      </trkpt>
      <trkpt lat="47.90156" lon="6.94943">
        <ele>640</ele>
        <time>2026-05-09T16:55:29.981Z</time>
      </trkpt>
      <trkpt lat="47.90156" lon="6.94941">
        <ele>640</ele>
        <time>2026-05-09T16:55:30.981Z</time>
      </trkpt>
      <trkpt lat="47.90155" lon="6.94939">
        <ele>640</ele>
        <time>2026-05-09T16:55:31.981Z</time>
      </trkpt>
      <trkpt lat="47.90155" lon="6.94937">
        <ele>640</ele>
        <time>2026-05-09T16:55:32.982Z</time>
      </trkpt>
      <trkpt lat="47.90155" lon="6.94935">
        <ele>640</ele>
        <time>2026-05-09T16:55:33.981Z</time>
      </trkpt>
      <trkpt lat="47.90154" lon="6.94934">
        <ele>640</ele>
        <time>2026-05-09T16:55:34.982Z</time>
      </trkpt>
      <trkpt lat="47.90154" lon="6.94932">
        <ele>640</ele>
        <time>2026-05-09T16:55:35.982Z</time>
      </trkpt>
      <trkpt lat="47.90154" lon="6.9493">
        <ele>640</ele>
        <time>2026-05-09T16:55:36.981Z</time>
      </trkpt>
      <trkpt lat="47.90154" lon="6.94928">
        <ele>640</ele>
        <time>2026-05-09T16:55:37.982Z</time>
      </trkpt>
      <trkpt lat="47.90154" lon="6.94926">
        <ele>640</ele>
        <time>2026-05-09T16:55:38.982Z</time>
      </trkpt>
      <trkpt lat="47.90154" lon="6.94924">
        <ele>640</ele>
        <time>2026-05-09T16:55:39.982Z</time>
      </trkpt>
      <trkpt lat="47.90154" lon="6.94922">
        <ele>641</ele>
        <time>2026-05-09T16:55:40.981Z</time>
      </trkpt>
      <trkpt lat="47.90154" lon="6.94919">
        <ele>641</ele>
        <time>2026-05-09T16:55:41.982Z</time>
      </trkpt>
      <trkpt lat="47.90154" lon="6.94918">
        <ele>641</ele>
        <time>2026-05-09T16:55:42.982Z</time>
      </trkpt>
      <trkpt lat="47.90154" lon="6.94916">
        <ele>641</ele>
        <time>2026-05-09T16:55:43.981Z</time>
      </trkpt>
      <trkpt lat="47.90154" lon="6.94914">
        <ele>641</ele>
        <time>2026-05-09T16:55:44.982Z</time>
      </trkpt>
      <trkpt lat="47.90154" lon="6.94912">
        <ele>642</ele>
        <time>2026-05-09T16:55:45.982Z</time>
      </trkpt>
      <trkpt lat="47.90153" lon="6.9491">
        <ele>642</ele>
        <time>2026-05-09T16:55:46.981Z</time>
      </trkpt>
      <trkpt lat="47.90153" lon="6.94907">
        <ele>642</ele>
        <time>2026-05-09T16:55:47.982Z</time>
      </trkpt>
      <trkpt lat="47.90153" lon="6.94905">
        <ele>642</ele>
        <time>2026-05-09T16:55:48.981Z</time>
      </trkpt>
      <trkpt lat="47.90153" lon="6.94903">
        <ele>643</ele>
        <time>2026-05-09T16:55:49.982Z</time>
      </trkpt>
      <trkpt lat="47.90153" lon="6.94901">
        <ele>643</ele>
        <time>2026-05-09T16:55:50.981Z</time>
      </trkpt>
      <trkpt lat="47.90153" lon="6.94899">
        <ele>643</ele>
        <time>2026-05-09T16:55:51.981Z</time>
      </trkpt>
      <trkpt lat="47.90153" lon="6.94897">
        <ele>644</ele>
        <time>2026-05-09T16:55:52.982Z</time>
      </trkpt>
      <trkpt lat="47.90154" lon="6.94895">
        <ele>644</ele>
        <time>2026-05-09T16:55:53.981Z</time>
      </trkpt>
      <trkpt lat="47.90154" lon="6.94893">
        <ele>644</ele>
        <time>2026-05-09T16:55:54.981Z</time>
      </trkpt>
      <trkpt lat="47.90154" lon="6.94891">
        <ele>644</ele>
        <time>2026-05-09T16:55:55.982Z</time>
      </trkpt>
      <trkpt lat="47.90154" lon="6.94889">
        <ele>644</ele>
        <time>2026-05-09T16:55:56.981Z</time>
      </trkpt>
      <trkpt lat="47.90154" lon="6.94887">
        <ele>644</ele>
        <time>2026-05-09T16:55:57.982Z</time>
      </trkpt>
      <trkpt lat="47.90155" lon="6.94885">
        <ele>644</ele>
        <time>2026-05-09T16:55:58.981Z</time>
      </trkpt>
      <trkpt lat="47.90155" lon="6.94883">
        <ele>644</ele>
        <time>2026-05-09T16:55:59.981Z</time>
      </trkpt>
      <trkpt lat="47.90155" lon="6.94881">
        <ele>644</ele>
        <time>2026-05-09T16:56:00.982Z</time>
      </trkpt>
      <trkpt lat="47.90155" lon="6.94879">
        <ele>644</ele>
        <time>2026-05-09T16:56:01.981Z</time>
      </trkpt>
      <trkpt lat="47.90155" lon="6.94876">
        <ele>644</ele>
        <time>2026-05-09T16:56:02.981Z</time>
      </trkpt>
      <trkpt lat="47.90155" lon="6.94874">
        <ele>644</ele>
        <time>2026-05-09T16:56:03.982Z</time>
      </trkpt>
      <trkpt lat="47.90155" lon="6.94872">
        <ele>644</ele>
        <time>2026-05-09T16:56:04.982Z</time>
      </trkpt>
      <trkpt lat="47.90155" lon="6.9487">
        <ele>644</ele>
        <time>2026-05-09T16:56:05.981Z</time>
      </trkpt>
      <trkpt lat="47.90155" lon="6.94869">
        <ele>644</ele>
        <time>2026-05-09T16:56:06.981Z</time>
      </trkpt>
      <trkpt lat="47.90156" lon="6.94867">
        <ele>644</ele>
        <time>2026-05-09T16:56:07.982Z</time>
      </trkpt>
      <trkpt lat="47.90156" lon="6.94865">
        <ele>644</ele>
        <time>2026-05-09T16:56:08.982Z</time>
      </trkpt>
      <trkpt lat="47.90156" lon="6.94863">
        <ele>644</ele>
        <time>2026-05-09T16:56:09.981Z</time>
      </trkpt>
      <trkpt lat="47.90156" lon="6.9486">
        <ele>644</ele>
        <time>2026-05-09T16:56:10.981Z</time>
      </trkpt>
      <trkpt lat="47.90156" lon="6.94859">
        <ele>645</ele>
        <time>2026-05-09T16:56:11.981Z</time>
      </trkpt>
      <trkpt lat="47.90157" lon="6.94857">
        <ele>645</ele>
        <time>2026-05-09T16:56:12.981Z</time>
      </trkpt>
      <trkpt lat="47.90157" lon="6.94855">
        <ele>645</ele>
        <time>2026-05-09T16:56:13.981Z</time>
      </trkpt>
      <trkpt lat="47.90157" lon="6.94853">
        <ele>646</ele>
        <time>2026-05-09T16:56:14.981Z</time>
      </trkpt>
      <trkpt lat="47.90156" lon="6.94851">
        <ele>646</ele>
        <time>2026-05-09T16:56:15.981Z</time>
      </trkpt>
      <trkpt lat="47.90156" lon="6.94848">
        <ele>646</ele>
        <time>2026-05-09T16:56:16.982Z</time>
      </trkpt>
      <trkpt lat="47.90156" lon="6.94846">
        <ele>646</ele>
        <time>2026-05-09T16:56:17.981Z</time>
      </trkpt>
      <trkpt lat="47.90157" lon="6.94843">
        <ele>646</ele>
        <time>2026-05-09T16:56:18.982Z</time>
      </trkpt>
      <trkpt lat="47.90157" lon="6.94842">
        <ele>646</ele>
        <time>2026-05-09T16:56:19.981Z</time>
      </trkpt>
      <trkpt lat="47.90158" lon="6.94839">
        <ele>647</ele>
        <time>2026-05-09T16:56:20.981Z</time>
      </trkpt>
      <trkpt lat="47.90158" lon="6.94838">
        <ele>647</ele>
        <time>2026-05-09T16:56:21.982Z</time>
      </trkpt>
      <trkpt lat="47.90158" lon="6.94835">
        <ele>647</ele>
        <time>2026-05-09T16:56:22.982Z</time>
      </trkpt>
      <trkpt lat="47.90158" lon="6.94833">
        <ele>647</ele>
        <time>2026-05-09T16:56:23.982Z</time>
      </trkpt>
      <trkpt lat="47.90158" lon="6.94831">
        <ele>647</ele>
        <time>2026-05-09T16:56:24.981Z</time>
      </trkpt>
      <trkpt lat="47.90158" lon="6.94829">
        <ele>648</ele>
        <time>2026-05-09T16:56:25.981Z</time>
      </trkpt>
      <trkpt lat="47.90159" lon="6.94827">
        <ele>648</ele>
        <time>2026-05-09T16:56:26.982Z</time>
      </trkpt>
      <trkpt lat="47.90159" lon="6.94825">
        <ele>648</ele>
        <time>2026-05-09T16:56:27.981Z</time>
      </trkpt>
      <trkpt lat="47.90159" lon="6.94823">
        <ele>648</ele>
        <time>2026-05-09T16:56:28.981Z</time>
      </trkpt>
      <trkpt lat="47.90159" lon="6.94822">
        <ele>648</ele>
        <time>2026-05-09T16:56:29.981Z</time>
      </trkpt>
      <trkpt lat="47.9016" lon="6.94819">
        <ele>648</ele>
        <time>2026-05-09T16:56:30.982Z</time>
      </trkpt>
      <trkpt lat="47.9016" lon="6.94818">
        <ele>648</ele>
        <time>2026-05-09T16:56:31.981Z</time>
      </trkpt>
      <trkpt lat="47.9016" lon="6.94816">
        <ele>648</ele>
        <time>2026-05-09T16:56:32.982Z</time>
      </trkpt>
      <trkpt lat="47.90161" lon="6.94814">
        <ele>648</ele>
        <time>2026-05-09T16:56:33.982Z</time>
      </trkpt>
      <trkpt lat="47.90161" lon="6.94812">
        <ele>648</ele>
        <time>2026-05-09T16:56:34.981Z</time>
      </trkpt>
      <trkpt lat="47.90161" lon="6.9481">
        <ele>648</ele>
        <time>2026-05-09T16:56:35.982Z</time>
      </trkpt>
      <trkpt lat="47.90162" lon="6.94808">
        <ele>648</ele>
        <time>2026-05-09T16:56:36.982Z</time>
      </trkpt>
      <trkpt lat="47.90162" lon="6.94806">
        <ele>648</ele>
        <time>2026-05-09T16:56:37.981Z</time>
      </trkpt>
      <trkpt lat="47.90162" lon="6.94804">
        <ele>648</ele>
        <time>2026-05-09T16:56:38.981Z</time>
      </trkpt>
      <trkpt lat="47.90163" lon="6.94802">
        <ele>648</ele>
        <time>2026-05-09T16:56:39.981Z</time>
      </trkpt>
      <trkpt lat="47.90163" lon="6.948">
        <ele>648</ele>
        <time>2026-05-09T16:56:40.981Z</time>
      </trkpt>
      <trkpt lat="47.90164" lon="6.94798">
        <ele>648</ele>
        <time>2026-05-09T16:56:41.982Z</time>
      </trkpt>
      <trkpt lat="47.90164" lon="6.94796">
        <ele>648</ele>
        <time>2026-05-09T16:56:42.982Z</time>
      </trkpt>
      <trkpt lat="47.90164" lon="6.94794">
        <ele>648</ele>
        <time>2026-05-09T16:56:43.981Z</time>
      </trkpt>
      <trkpt lat="47.90164" lon="6.94793">
        <ele>648</ele>
        <time>2026-05-09T16:56:44.981Z</time>
      </trkpt>
      <trkpt lat="47.90165" lon="6.9479">
        <ele>649</ele>
        <time>2026-05-09T16:56:45.982Z</time>
      </trkpt>
      <trkpt lat="47.90165" lon="6.94789">
        <ele>649</ele>
        <time>2026-05-09T16:56:46.982Z</time>
      </trkpt>
      <trkpt lat="47.90165" lon="6.94787">
        <ele>649</ele>
        <time>2026-05-09T16:56:47.981Z</time>
      </trkpt>
      <trkpt lat="47.90165" lon="6.94785">
        <ele>649</ele>
        <time>2026-05-09T16:56:48.982Z</time>
      </trkpt>
      <trkpt lat="47.90166" lon="6.94782">
        <ele>649</ele>
        <time>2026-05-09T16:56:49.982Z</time>
      </trkpt>
      <trkpt lat="47.90166" lon="6.9478">
        <ele>649</ele>
        <time>2026-05-09T16:56:50.982Z</time>
      </trkpt>
      <trkpt lat="47.90166" lon="6.94778">
        <ele>648</ele>
        <time>2026-05-09T16:56:51.981Z</time>
      </trkpt>
      <trkpt lat="47.90167" lon="6.94777">
        <ele>648</ele>
        <time>2026-05-09T16:56:52.982Z</time>
      </trkpt>
      <trkpt lat="47.90167" lon="6.94775">
        <ele>648</ele>
        <time>2026-05-09T16:56:53.981Z</time>
      </trkpt>
      <trkpt lat="47.90168" lon="6.94773">
        <ele>648</ele>
        <time>2026-05-09T16:56:54.981Z</time>
      </trkpt>
      <trkpt lat="47.90168" lon="6.94771">
        <ele>648</ele>
        <time>2026-05-09T16:56:55.981Z</time>
      </trkpt>
      <trkpt lat="47.90168" lon="6.94769">
        <ele>648</ele>
        <time>2026-05-09T16:56:56.982Z</time>
      </trkpt>
      <trkpt lat="47.90169" lon="6.94767">
        <ele>649</ele>
        <time>2026-05-09T16:56:57.982Z</time>
      </trkpt>
      <trkpt lat="47.90169" lon="6.94765">
        <ele>649</ele>
        <time>2026-05-09T16:56:58.981Z</time>
      </trkpt>
      <trkpt lat="47.90169" lon="6.94763">
        <ele>649</ele>
        <time>2026-05-09T16:56:59.981Z</time>
      </trkpt>
      <trkpt lat="47.9017" lon="6.94761">
        <ele>649</ele>
        <time>2026-05-09T16:57:00.981Z</time>
      </trkpt>
      <trkpt lat="47.9017" lon="6.94759">
        <ele>649</ele>
        <time>2026-05-09T16:57:01.981Z</time>
      </trkpt>
      <trkpt lat="47.9017" lon="6.94757">
        <ele>649</ele>
        <time>2026-05-09T16:57:02.981Z</time>
      </trkpt>
      <trkpt lat="47.90171" lon="6.94754">
        <ele>648</ele>
        <time>2026-05-09T16:57:03.982Z</time>
      </trkpt>
      <trkpt lat="47.90171" lon="6.94752">
        <ele>648</ele>
        <time>2026-05-09T16:57:04.982Z</time>
      </trkpt>
      <trkpt lat="47.90171" lon="6.9475">
        <ele>649</ele>
        <time>2026-05-09T16:57:05.982Z</time>
      </trkpt>
      <trkpt lat="47.90172" lon="6.94748">
        <ele>648</ele>
        <time>2026-05-09T16:57:06.981Z</time>
      </trkpt>
      <trkpt lat="47.90172" lon="6.94746">
        <ele>648</ele>
        <time>2026-05-09T16:57:07.981Z</time>
      </trkpt>
      <trkpt lat="47.90172" lon="6.94744">
        <ele>648</ele>
        <time>2026-05-09T16:57:08.981Z</time>
      </trkpt>
      <trkpt lat="47.90173" lon="6.94742">
        <ele>648</ele>
        <time>2026-05-09T16:57:09.981Z</time>
      </trkpt>
      <trkpt lat="47.90173" lon="6.9474">
        <ele>648</ele>
        <time>2026-05-09T16:57:10.981Z</time>
      </trkpt>
      <trkpt lat="47.90174" lon="6.94739">
        <ele>647</ele>
        <time>2026-05-09T16:57:11.982Z</time>
      </trkpt>
      <trkpt lat="47.90174" lon="6.94737">
        <ele>647</ele>
        <time>2026-05-09T16:57:12.982Z</time>
      </trkpt>
      <trkpt lat="47.90174" lon="6.94735">
        <ele>647</ele>
        <time>2026-05-09T16:57:13.981Z</time>
      </trkpt>
      <trkpt lat="47.90174" lon="6.94733">
        <ele>647</ele>
        <time>2026-05-09T16:57:14.981Z</time>
      </trkpt>
      <trkpt lat="47.90175" lon="6.94731">
        <ele>647</ele>
        <time>2026-05-09T16:57:15.981Z</time>
      </trkpt>
      <trkpt lat="47.90175" lon="6.94729">
        <ele>648</ele>
        <time>2026-05-09T16:57:16.981Z</time>
      </trkpt>
      <trkpt lat="47.90175" lon="6.94727">
        <ele>648</ele>
        <time>2026-05-09T16:57:17.981Z</time>
      </trkpt>
      <trkpt lat="47.90176" lon="6.94726">
        <ele>648</ele>
        <time>2026-05-09T16:57:18.982Z</time>
      </trkpt>
      <trkpt lat="47.90176" lon="6.94724">
        <ele>648</ele>
        <time>2026-05-09T16:57:19.981Z</time>
      </trkpt>
      <trkpt lat="47.90176" lon="6.94722">
        <ele>648</ele>
        <time>2026-05-09T16:57:20.981Z</time>
      </trkpt>
      <trkpt lat="47.90176" lon="6.9472">
        <ele>648</ele>
        <time>2026-05-09T16:57:21.982Z</time>
      </trkpt>
      <trkpt lat="47.90176" lon="6.94718">
        <ele>648</ele>
        <time>2026-05-09T16:57:22.982Z</time>
      </trkpt>
      <trkpt lat="47.90176" lon="6.94717">
        <ele>649</ele>
        <time>2026-05-09T16:57:23.982Z</time>
      </trkpt>
      <trkpt lat="47.90175" lon="6.94715">
        <ele>649</ele>
        <time>2026-05-09T16:57:24.981Z</time>
      </trkpt>
      <trkpt lat="47.90175" lon="6.94712">
        <ele>649</ele>
        <time>2026-05-09T16:57:25.981Z</time>
      </trkpt>
      <trkpt lat="47.90175" lon="6.94711">
        <ele>649</ele>
        <time>2026-05-09T16:57:26.981Z</time>
      </trkpt>
      <trkpt lat="47.90176" lon="6.94709">
        <ele>649</ele>
        <time>2026-05-09T16:57:27.981Z</time>
      </trkpt>
      <trkpt lat="47.90176" lon="6.94707">
        <ele>649</ele>
        <time>2026-05-09T16:57:28.981Z</time>
      </trkpt>
      <trkpt lat="47.90176" lon="6.94705">
        <ele>649</ele>
        <time>2026-05-09T16:57:29.981Z</time>
      </trkpt>
      <trkpt lat="47.90177" lon="6.94704">
        <ele>649</ele>
        <time>2026-05-09T16:57:30.981Z</time>
      </trkpt>
      <trkpt lat="47.90177" lon="6.94702">
        <ele>649</ele>
        <time>2026-05-09T16:57:31.981Z</time>
      </trkpt>
      <trkpt lat="47.90178" lon="6.947">
        <ele>648</ele>
        <time>2026-05-09T16:57:32.982Z</time>
      </trkpt>
      <trkpt lat="47.90179" lon="6.94699">
        <ele>648</ele>
        <time>2026-05-09T16:57:33.981Z</time>
      </trkpt>
      <trkpt lat="47.90179" lon="6.94697">
        <ele>648</ele>
        <time>2026-05-09T16:57:34.981Z</time>
      </trkpt>
      <trkpt lat="47.9018" lon="6.94695">
        <ele>649</ele>
        <time>2026-05-09T16:57:35.981Z</time>
      </trkpt>
      <trkpt lat="47.9018" lon="6.94693">
        <ele>649</ele>
        <time>2026-05-09T16:57:36.982Z</time>
      </trkpt>
      <trkpt lat="47.9018" lon="6.94691">
        <ele>649</ele>
        <time>2026-05-09T16:57:37.981Z</time>
      </trkpt>
      <trkpt lat="47.9018" lon="6.9469">
        <ele>649</ele>
        <time>2026-05-09T16:57:38.981Z</time>
      </trkpt>
      <trkpt lat="47.9018" lon="6.94688">
        <ele>649</ele>
        <time>2026-05-09T16:57:39.981Z</time>
      </trkpt>
      <trkpt lat="47.9018" lon="6.94686">
        <ele>649</ele>
        <time>2026-05-09T16:57:40.982Z</time>
      </trkpt>
      <trkpt lat="47.90181" lon="6.94684">
        <ele>650</ele>
        <time>2026-05-09T16:57:41.981Z</time>
      </trkpt>
      <trkpt lat="47.90181" lon="6.94682">
        <ele>650</ele>
        <time>2026-05-09T16:57:42.981Z</time>
      </trkpt>
      <trkpt lat="47.90181" lon="6.9468">
        <ele>651</ele>
        <time>2026-05-09T16:57:43.981Z</time>
      </trkpt>
      <trkpt lat="47.90182" lon="6.94678">
        <ele>652</ele>
        <time>2026-05-09T16:57:44.981Z</time>
      </trkpt>
      <trkpt lat="47.90182" lon="6.94677">
        <ele>653</ele>
        <time>2026-05-09T16:57:45.981Z</time>
      </trkpt>
      <trkpt lat="47.90182" lon="6.94674">
        <ele>653</ele>
        <time>2026-05-09T16:57:46.982Z</time>
      </trkpt>
      <trkpt lat="47.90182" lon="6.94672">
        <ele>654</ele>
        <time>2026-05-09T16:57:47.982Z</time>
      </trkpt>
      <trkpt lat="47.90182" lon="6.9467">
        <ele>655</ele>
        <time>2026-05-09T16:57:48.982Z</time>
      </trkpt>
      <trkpt lat="47.90182" lon="6.94668">
        <ele>655</ele>
        <time>2026-05-09T16:57:49.982Z</time>
      </trkpt>
      <trkpt lat="47.90182" lon="6.94666">
        <ele>655</ele>
        <time>2026-05-09T16:57:50.982Z</time>
      </trkpt>
      <trkpt lat="47.90182" lon="6.94664">
        <ele>655</ele>
        <time>2026-05-09T16:57:51.981Z</time>
      </trkpt>
      <trkpt lat="47.90182" lon="6.94662">
        <ele>655</ele>
        <time>2026-05-09T16:57:52.982Z</time>
      </trkpt>
      <trkpt lat="47.90182" lon="6.94661">
        <ele>655</ele>
        <time>2026-05-09T16:57:53.981Z</time>
      </trkpt>
      <trkpt lat="47.90182" lon="6.94659">
        <ele>655</ele>
        <time>2026-05-09T16:57:54.981Z</time>
      </trkpt>
      <trkpt lat="47.90182" lon="6.94657">
        <ele>655</ele>
        <time>2026-05-09T16:57:55.981Z</time>
      </trkpt>
      <trkpt lat="47.90182" lon="6.94654">
        <ele>655</ele>
        <time>2026-05-09T16:57:56.981Z</time>
      </trkpt>
      <trkpt lat="47.90182" lon="6.94652">
        <ele>655</ele>
        <time>2026-05-09T16:57:57.981Z</time>
      </trkpt>
      <trkpt lat="47.90181" lon="6.9465">
        <ele>655</ele>
        <time>2026-05-09T16:57:58.981Z</time>
      </trkpt>
      <trkpt lat="47.90181" lon="6.94648">
        <ele>655</ele>
        <time>2026-05-09T16:57:59.982Z</time>
      </trkpt>
      <trkpt lat="47.90181" lon="6.94645">
        <ele>655</ele>
        <time>2026-05-09T16:58:00.981Z</time>
      </trkpt>
      <trkpt lat="47.90182" lon="6.94643">
        <ele>655</ele>
        <time>2026-05-09T16:58:01.981Z</time>
      </trkpt>
      <trkpt lat="47.90182" lon="6.94641">
        <ele>655</ele>
        <time>2026-05-09T16:58:02.981Z</time>
      </trkpt>
      <trkpt lat="47.90182" lon="6.94639">
        <ele>655</ele>
        <time>2026-05-09T16:58:03.981Z</time>
      </trkpt>
      <trkpt lat="47.90182" lon="6.94637">
        <ele>656</ele>
        <time>2026-05-09T16:58:04.981Z</time>
      </trkpt>
      <trkpt lat="47.90182" lon="6.94635">
        <ele>657</ele>
        <time>2026-05-09T16:58:05.981Z</time>
      </trkpt>
      <trkpt lat="47.90183" lon="6.94633">
        <ele>657</ele>
        <time>2026-05-09T16:58:06.982Z</time>
      </trkpt>
      <trkpt lat="47.90183" lon="6.9463">
        <ele>657</ele>
        <time>2026-05-09T16:58:07.982Z</time>
      </trkpt>
      <trkpt lat="47.90184" lon="6.94629">
        <ele>657</ele>
        <time>2026-05-09T16:58:08.981Z</time>
      </trkpt>
      <trkpt lat="47.90184" lon="6.94627">
        <ele>657</ele>
        <time>2026-05-09T16:58:09.981Z</time>
      </trkpt>
      <trkpt lat="47.90184" lon="6.94624">
        <ele>657</ele>
        <time>2026-05-09T16:58:10.981Z</time>
      </trkpt>
      <trkpt lat="47.90185" lon="6.94622">
        <ele>657</ele>
        <time>2026-05-09T16:58:11.982Z</time>
      </trkpt>
      <trkpt lat="47.90185" lon="6.9462">
        <ele>657</ele>
        <time>2026-05-09T16:58:12.981Z</time>
      </trkpt>
      <trkpt lat="47.90186" lon="6.94618">
        <ele>657</ele>
        <time>2026-05-09T16:58:13.982Z</time>
      </trkpt>
      <trkpt lat="47.90186" lon="6.94616">
        <ele>657</ele>
        <time>2026-05-09T16:58:14.981Z</time>
      </trkpt>
      <trkpt lat="47.90187" lon="6.94614">
        <ele>657</ele>
        <time>2026-05-09T16:58:15.982Z</time>
      </trkpt>
      <trkpt lat="47.90187" lon="6.94612">
        <ele>657</ele>
        <time>2026-05-09T16:58:16.981Z</time>
      </trkpt>
      <trkpt lat="47.90188" lon="6.9461">
        <ele>658</ele>
        <time>2026-05-09T16:58:17.981Z</time>
      </trkpt>
      <trkpt lat="47.90188" lon="6.94608">
        <ele>658</ele>
        <time>2026-05-09T16:58:18.981Z</time>
      </trkpt>
      <trkpt lat="47.90188" lon="6.94606">
        <ele>658</ele>
        <time>2026-05-09T16:58:19.981Z</time>
      </trkpt>
      <trkpt lat="47.90188" lon="6.94604">
        <ele>659</ele>
        <time>2026-05-09T16:58:20.981Z</time>
      </trkpt>
      <trkpt lat="47.90189" lon="6.94602">
        <ele>659</ele>
        <time>2026-05-09T16:58:21.981Z</time>
      </trkpt>
      <trkpt lat="47.90189" lon="6.946">
        <ele>659</ele>
        <time>2026-05-09T16:58:22.981Z</time>
      </trkpt>
      <trkpt lat="47.90189" lon="6.94598">
        <ele>659</ele>
        <time>2026-05-09T16:58:23.981Z</time>
      </trkpt>
      <trkpt lat="47.9019" lon="6.94596">
        <ele>659</ele>
        <time>2026-05-09T16:58:24.981Z</time>
      </trkpt>
      <trkpt lat="47.9019" lon="6.94594">
        <ele>660</ele>
        <time>2026-05-09T16:58:25.981Z</time>
      </trkpt>
      <trkpt lat="47.9019" lon="6.94592">
        <ele>660</ele>
        <time>2026-05-09T16:58:26.981Z</time>
      </trkpt>
      <trkpt lat="47.9019" lon="6.9459">
        <ele>660</ele>
        <time>2026-05-09T16:58:27.981Z</time>
      </trkpt>
      <trkpt lat="47.90191" lon="6.94588">
        <ele>660</ele>
        <time>2026-05-09T16:58:28.981Z</time>
      </trkpt>
      <trkpt lat="47.90191" lon="6.94586">
        <ele>661</ele>
        <time>2026-05-09T16:58:29.981Z</time>
      </trkpt>
      <trkpt lat="47.90191" lon="6.94584">
        <ele>661</ele>
        <time>2026-05-09T16:58:30.982Z</time>
      </trkpt>
      <trkpt lat="47.90191" lon="6.94583">
        <ele>661</ele>
        <time>2026-05-09T16:58:31.982Z</time>
      </trkpt>
      <trkpt lat="47.90191" lon="6.94581">
        <ele>661</ele>
        <time>2026-05-09T16:58:32.982Z</time>
      </trkpt>
      <trkpt lat="47.90192" lon="6.94579">
        <ele>661</ele>
        <time>2026-05-09T16:58:33.981Z</time>
      </trkpt>
      <trkpt lat="47.90192" lon="6.94578">
        <ele>661</ele>
        <time>2026-05-09T16:58:34.981Z</time>
      </trkpt>
      <trkpt lat="47.90192" lon="6.94576">
        <ele>661</ele>
        <time>2026-05-09T16:58:35.981Z</time>
      </trkpt>
      <trkpt lat="47.90192" lon="6.94574">
        <ele>661</ele>
        <time>2026-05-09T16:58:36.982Z</time>
      </trkpt>
      <trkpt lat="47.90193" lon="6.94572">
        <ele>661</ele>
        <time>2026-05-09T16:58:37.981Z</time>
      </trkpt>
      <trkpt lat="47.90193" lon="6.9457">
        <ele>661</ele>
        <time>2026-05-09T16:58:38.981Z</time>
      </trkpt>
      <trkpt lat="47.90193" lon="6.94568">
        <ele>661</ele>
        <time>2026-05-09T16:58:39.981Z</time>
      </trkpt>
      <trkpt lat="47.90193" lon="6.94566">
        <ele>661</ele>
        <time>2026-05-09T16:58:40.982Z</time>
      </trkpt>
      <trkpt lat="47.90194" lon="6.94564">
        <ele>661</ele>
        <time>2026-05-09T16:58:41.981Z</time>
      </trkpt>
      <trkpt lat="47.90194" lon="6.94563">
        <ele>661</ele>
        <time>2026-05-09T16:58:42.981Z</time>
      </trkpt>
      <trkpt lat="47.90194" lon="6.94561">
        <ele>661</ele>
        <time>2026-05-09T16:58:43.981Z</time>
      </trkpt>
      <trkpt lat="47.90194" lon="6.94559">
        <ele>661</ele>
        <time>2026-05-09T16:58:44.981Z</time>
      </trkpt>
      <trkpt lat="47.90194" lon="6.94558">
        <ele>662</ele>
        <time>2026-05-09T16:58:45.982Z</time>
      </trkpt>
      <trkpt lat="47.90195" lon="6.94556">
        <ele>662</ele>
        <time>2026-05-09T16:58:46.981Z</time>
      </trkpt>
      <trkpt lat="47.90195" lon="6.94554">
        <ele>662</ele>
        <time>2026-05-09T16:58:47.982Z</time>
      </trkpt>
      <trkpt lat="47.90195" lon="6.94552">
        <ele>662</ele>
        <time>2026-05-09T16:58:48.981Z</time>
      </trkpt>
      <trkpt lat="47.90195" lon="6.9455">
        <ele>661</ele>
        <time>2026-05-09T16:58:49.982Z</time>
      </trkpt>
      <trkpt lat="47.90195" lon="6.94548">
        <ele>661</ele>
        <time>2026-05-09T16:58:50.982Z</time>
      </trkpt>
      <trkpt lat="47.90196" lon="6.94546">
        <ele>661</ele>
        <time>2026-05-09T16:58:51.981Z</time>
      </trkpt>
      <trkpt lat="47.90196" lon="6.94544">
        <ele>660</ele>
        <time>2026-05-09T16:58:52.982Z</time>
      </trkpt>
      <trkpt lat="47.90196" lon="6.94542">
        <ele>660</ele>
        <time>2026-05-09T16:58:53.981Z</time>
      </trkpt>
      <trkpt lat="47.90196" lon="6.9454">
        <ele>660</ele>
        <time>2026-05-09T16:58:54.982Z</time>
      </trkpt>
      <trkpt lat="47.90197" lon="6.94538">
        <ele>660</ele>
        <time>2026-05-09T16:58:55.982Z</time>
      </trkpt>
      <trkpt lat="47.90197" lon="6.94536">
        <ele>661</ele>
        <time>2026-05-09T16:58:56.981Z</time>
      </trkpt>
      <trkpt lat="47.90197" lon="6.94534">
        <ele>661</ele>
        <time>2026-05-09T16:58:57.982Z</time>
      </trkpt>
      <trkpt lat="47.90198" lon="6.94532">
        <ele>661</ele>
        <time>2026-05-09T16:58:58.981Z</time>
      </trkpt>
      <trkpt lat="47.90198" lon="6.9453">
        <ele>661</ele>
        <time>2026-05-09T16:58:59.981Z</time>
      </trkpt>
      <trkpt lat="47.90198" lon="6.94528">
        <ele>661</ele>
        <time>2026-05-09T16:59:00.982Z</time>
      </trkpt>
      <trkpt lat="47.90199" lon="6.94526">
        <ele>661</ele>
        <time>2026-05-09T16:59:01.981Z</time>
      </trkpt>
      <trkpt lat="47.90199" lon="6.94524">
        <ele>661</ele>
        <time>2026-05-09T16:59:02.982Z</time>
      </trkpt>
      <trkpt lat="47.90199" lon="6.94522">
        <ele>661</ele>
        <time>2026-05-09T16:59:03.981Z</time>
      </trkpt>
      <trkpt lat="47.902" lon="6.9452">
        <ele>661</ele>
        <time>2026-05-09T16:59:04.981Z</time>
      </trkpt>
      <trkpt lat="47.902" lon="6.94517">
        <ele>662</ele>
        <time>2026-05-09T16:59:05.982Z</time>
      </trkpt>
      <trkpt lat="47.902" lon="6.94515">
        <ele>662</ele>
        <time>2026-05-09T16:59:06.982Z</time>
      </trkpt>
      <trkpt lat="47.90201" lon="6.94513">
        <ele>662</ele>
        <time>2026-05-09T16:59:07.981Z</time>
      </trkpt>
      <trkpt lat="47.90201" lon="6.9451">
        <ele>662</ele>
        <time>2026-05-09T16:59:08.982Z</time>
      </trkpt>
      <trkpt lat="47.90201" lon="6.94508">
        <ele>662</ele>
        <time>2026-05-09T16:59:09.982Z</time>
      </trkpt>
      <trkpt lat="47.90201" lon="6.94506">
        <ele>663</ele>
        <time>2026-05-09T16:59:10.981Z</time>
      </trkpt>
      <trkpt lat="47.90202" lon="6.94505">
        <ele>663</ele>
        <time>2026-05-09T16:59:11.982Z</time>
      </trkpt>
      <trkpt lat="47.90202" lon="6.94503">
        <ele>663</ele>
        <time>2026-05-09T16:59:12.982Z</time>
      </trkpt>
      <trkpt lat="47.90202" lon="6.94501">
        <ele>663</ele>
        <time>2026-05-09T16:59:13.982Z</time>
      </trkpt>
      <trkpt lat="47.90203" lon="6.94499">
        <ele>663</ele>
        <time>2026-05-09T16:59:14.982Z</time>
      </trkpt>
      <trkpt lat="47.90203" lon="6.94497">
        <ele>663</ele>
        <time>2026-05-09T16:59:15.981Z</time>
      </trkpt>
      <trkpt lat="47.90203" lon="6.94495">
        <ele>663</ele>
        <time>2026-05-09T16:59:16.982Z</time>
      </trkpt>
      <trkpt lat="47.90203" lon="6.94493">
        <ele>663</ele>
        <time>2026-05-09T16:59:17.981Z</time>
      </trkpt>
      <trkpt lat="47.90203" lon="6.94491">
        <ele>662</ele>
        <time>2026-05-09T16:59:18.982Z</time>
      </trkpt>
      <trkpt lat="47.90203" lon="6.94489">
        <ele>662</ele>
        <time>2026-05-09T16:59:19.982Z</time>
      </trkpt>
      <trkpt lat="47.90203" lon="6.94487">
        <ele>662</ele>
        <time>2026-05-09T16:59:20.981Z</time>
      </trkpt>
      <trkpt lat="47.90204" lon="6.94486">
        <ele>662</ele>
        <time>2026-05-09T16:59:21.982Z</time>
      </trkpt>
      <trkpt lat="47.90204" lon="6.94484">
        <ele>662</ele>
        <time>2026-05-09T16:59:22.981Z</time>
      </trkpt>
      <trkpt lat="47.90204" lon="6.94482">
        <ele>663</ele>
        <time>2026-05-09T16:59:23.981Z</time>
      </trkpt>
      <trkpt lat="47.90204" lon="6.9448">
        <ele>664</ele>
        <time>2026-05-09T16:59:24.981Z</time>
      </trkpt>
      <trkpt lat="47.90204" lon="6.94478">
        <ele>665</ele>
        <time>2026-05-09T16:59:25.981Z</time>
      </trkpt>
      <trkpt lat="47.90204" lon="6.94475">
        <ele>665</ele>
        <time>2026-05-09T16:59:26.981Z</time>
      </trkpt>
      <trkpt lat="47.90204" lon="6.94474">
        <ele>665</ele>
        <time>2026-05-09T16:59:27.982Z</time>
      </trkpt>
      <trkpt lat="47.90204" lon="6.94473">
        <ele>665</ele>
        <time>2026-05-09T16:59:28.982Z</time>
      </trkpt>
      <trkpt lat="47.90204" lon="6.94471">
        <ele>665</ele>
        <time>2026-05-09T16:59:29.981Z</time>
      </trkpt>
      <trkpt lat="47.90204" lon="6.94469">
        <ele>665</ele>
        <time>2026-05-09T16:59:30.981Z</time>
      </trkpt>
      <trkpt lat="47.90204" lon="6.94467">
        <ele>666</ele>
        <time>2026-05-09T16:59:31.982Z</time>
      </trkpt>
      <trkpt lat="47.90204" lon="6.94465">
        <ele>666</ele>
        <time>2026-05-09T16:59:32.981Z</time>
      </trkpt>
      <trkpt lat="47.90204" lon="6.94463">
        <ele>666</ele>
        <time>2026-05-09T16:59:33.981Z</time>
      </trkpt>
      <trkpt lat="47.90204" lon="6.94461">
        <ele>666</ele>
        <time>2026-05-09T16:59:34.982Z</time>
      </trkpt>
      <trkpt lat="47.90204" lon="6.94458">
        <ele>665</ele>
        <time>2026-05-09T16:59:35.981Z</time>
      </trkpt>
      <trkpt lat="47.90204" lon="6.94457">
        <ele>665</ele>
        <time>2026-05-09T16:59:36.981Z</time>
      </trkpt>
      <trkpt lat="47.90204" lon="6.94455">
        <ele>665</ele>
        <time>2026-05-09T16:59:37.982Z</time>
      </trkpt>
      <trkpt lat="47.90204" lon="6.94453">
        <ele>665</ele>
        <time>2026-05-09T16:59:38.981Z</time>
      </trkpt>
      <trkpt lat="47.90204" lon="6.94452">
        <ele>665</ele>
        <time>2026-05-09T16:59:39.982Z</time>
      </trkpt>
      <trkpt lat="47.90204" lon="6.9445">
        <ele>665</ele>
        <time>2026-05-09T16:59:40.981Z</time>
      </trkpt>
      <trkpt lat="47.90204" lon="6.94448">
        <ele>665</ele>
        <time>2026-05-09T16:59:41.981Z</time>
      </trkpt>
      <trkpt lat="47.90204" lon="6.94447">
        <ele>665</ele>
        <time>2026-05-09T16:59:42.981Z</time>
      </trkpt>
      <trkpt lat="47.90204" lon="6.94445">
        <ele>665</ele>
        <time>2026-05-09T16:59:43.981Z</time>
      </trkpt>
      <trkpt lat="47.90204" lon="6.94443">
        <ele>665</ele>
        <time>2026-05-09T16:59:44.982Z</time>
      </trkpt>
      <trkpt lat="47.90204" lon="6.94441">
        <ele>665</ele>
        <time>2026-05-09T16:59:45.981Z</time>
      </trkpt>
      <trkpt lat="47.90204" lon="6.94439">
        <ele>665</ele>
        <time>2026-05-09T16:59:46.982Z</time>
      </trkpt>
      <trkpt lat="47.90204" lon="6.94437">
        <ele>665</ele>
        <time>2026-05-09T16:59:47.981Z</time>
      </trkpt>
      <trkpt lat="47.90204" lon="6.94435">
        <ele>665</ele>
        <time>2026-05-09T16:59:48.982Z</time>
      </trkpt>
      <trkpt lat="47.90204" lon="6.94433">
        <ele>666</ele>
        <time>2026-05-09T16:59:49.981Z</time>
      </trkpt>
      <trkpt lat="47.90203" lon="6.94431">
        <ele>666</ele>
        <time>2026-05-09T16:59:50.982Z</time>
      </trkpt>
      <trkpt lat="47.90203" lon="6.94429">
        <ele>667</ele>
        <time>2026-05-09T16:59:51.981Z</time>
      </trkpt>
      <trkpt lat="47.90204" lon="6.94428">
        <ele>667</ele>
        <time>2026-05-09T16:59:52.982Z</time>
      </trkpt>
      <trkpt lat="47.90204" lon="6.94425">
        <ele>667</ele>
        <time>2026-05-09T16:59:53.982Z</time>
      </trkpt>
      <trkpt lat="47.90204" lon="6.94424">
        <ele>667</ele>
        <time>2026-05-09T16:59:54.981Z</time>
      </trkpt>
      <trkpt lat="47.90204" lon="6.94422">
        <ele>668</ele>
        <time>2026-05-09T16:59:55.981Z</time>
      </trkpt>
      <trkpt lat="47.90204" lon="6.9442">
        <ele>668</ele>
        <time>2026-05-09T16:59:56.982Z</time>
      </trkpt>
      <trkpt lat="47.90204" lon="6.94418">
        <ele>668</ele>
        <time>2026-05-09T16:59:57.982Z</time>
      </trkpt>
      <trkpt lat="47.90204" lon="6.94416">
        <ele>668</ele>
        <time>2026-05-09T16:59:58.981Z</time>
      </trkpt>
      <trkpt lat="47.90204" lon="6.94414">
        <ele>668</ele>
        <time>2026-05-09T16:59:59.982Z</time>
      </trkpt>
      <trkpt lat="47.90204" lon="6.94412">
        <ele>668</ele>
        <time>2026-05-09T17:00:00.981Z</time>
      </trkpt>
      <trkpt lat="47.90204" lon="6.9441">
        <ele>669</ele>
        <time>2026-05-09T17:00:01.981Z</time>
      </trkpt>
      <trkpt lat="47.90204" lon="6.94408">
        <ele>669</ele>
        <time>2026-05-09T17:00:02.981Z</time>
      </trkpt>
      <trkpt lat="47.90204" lon="6.94406">
        <ele>669</ele>
        <time>2026-05-09T17:00:03.982Z</time>
      </trkpt>
      <trkpt lat="47.90204" lon="6.94404">
        <ele>668</ele>
        <time>2026-05-09T17:00:04.982Z</time>
      </trkpt>
      <trkpt lat="47.90204" lon="6.94402">
        <ele>668</ele>
        <time>2026-05-09T17:00:05.982Z</time>
      </trkpt>
      <trkpt lat="47.90204" lon="6.94401">
        <ele>667</ele>
        <time>2026-05-09T17:00:06.982Z</time>
      </trkpt>
      <trkpt lat="47.90204" lon="6.94399">
        <ele>667</ele>
        <time>2026-05-09T17:00:07.982Z</time>
      </trkpt>
      <trkpt lat="47.90204" lon="6.94396">
        <ele>667</ele>
        <time>2026-05-09T17:00:08.982Z</time>
      </trkpt>
      <trkpt lat="47.90205" lon="6.94394">
        <ele>667</ele>
        <time>2026-05-09T17:00:09.981Z</time>
      </trkpt>
      <trkpt lat="47.90205" lon="6.94392">
        <ele>667</ele>
        <time>2026-05-09T17:00:10.982Z</time>
      </trkpt>
      <trkpt lat="47.90205" lon="6.9439">
        <ele>668</ele>
        <time>2026-05-09T17:00:11.981Z</time>
      </trkpt>
      <trkpt lat="47.90205" lon="6.94388">
        <ele>669</ele>
        <time>2026-05-09T17:00:12.982Z</time>
      </trkpt>
      <trkpt lat="47.90205" lon="6.94386">
        <ele>669</ele>
        <time>2026-05-09T17:00:13.982Z</time>
      </trkpt>
      <trkpt lat="47.90205" lon="6.94384">
        <ele>669</ele>
        <time>2026-05-09T17:00:14.981Z</time>
      </trkpt>
      <trkpt lat="47.90206" lon="6.94382">
        <ele>669</ele>
        <time>2026-05-09T17:00:15.982Z</time>
      </trkpt>
      <trkpt lat="47.90206" lon="6.9438">
        <ele>670</ele>
        <time>2026-05-09T17:00:16.981Z</time>
      </trkpt>
      <trkpt lat="47.90206" lon="6.94378">
        <ele>670</ele>
        <time>2026-05-09T17:00:17.982Z</time>
      </trkpt>
      <trkpt lat="47.90206" lon="6.94377">
        <ele>670</ele>
        <time>2026-05-09T17:00:18.981Z</time>
      </trkpt>
      <trkpt lat="47.90206" lon="6.94375">
        <ele>670</ele>
        <time>2026-05-09T17:00:19.982Z</time>
      </trkpt>
      <trkpt lat="47.90207" lon="6.94373">
        <ele>670</ele>
        <time>2026-05-09T17:00:20.981Z</time>
      </trkpt>
      <trkpt lat="47.90207" lon="6.94371">
        <ele>669</ele>
        <time>2026-05-09T17:00:21.982Z</time>
      </trkpt>
      <trkpt lat="47.90207" lon="6.94369">
        <ele>669</ele>
        <time>2026-05-09T17:00:22.981Z</time>
      </trkpt>
      <trkpt lat="47.90207" lon="6.94367">
        <ele>669</ele>
        <time>2026-05-09T17:00:23.981Z</time>
      </trkpt>
      <trkpt lat="47.90207" lon="6.94365">
        <ele>669</ele>
        <time>2026-05-09T17:00:24.981Z</time>
      </trkpt>
      <trkpt lat="47.90207" lon="6.94362">
        <ele>669</ele>
        <time>2026-05-09T17:00:25.982Z</time>
      </trkpt>
      <trkpt lat="47.90207" lon="6.9436">
        <ele>669</ele>
        <time>2026-05-09T17:00:26.981Z</time>
      </trkpt>
      <trkpt lat="47.90207" lon="6.94359">
        <ele>669</ele>
        <time>2026-05-09T17:00:27.982Z</time>
      </trkpt>
      <trkpt lat="47.90207" lon="6.94357">
        <ele>669</ele>
        <time>2026-05-09T17:00:28.981Z</time>
      </trkpt>
      <trkpt lat="47.90208" lon="6.94355">
        <ele>669</ele>
        <time>2026-05-09T17:00:29.981Z</time>
      </trkpt>
      <trkpt lat="47.90208" lon="6.94353">
        <ele>669</ele>
        <time>2026-05-09T17:00:30.981Z</time>
      </trkpt>
      <trkpt lat="47.90208" lon="6.94351">
        <ele>669</ele>
        <time>2026-05-09T17:00:31.982Z</time>
      </trkpt>
      <trkpt lat="47.90208" lon="6.94349">
        <ele>669</ele>
        <time>2026-05-09T17:00:32.981Z</time>
      </trkpt>
      <trkpt lat="47.90208" lon="6.94348">
        <ele>669</ele>
        <time>2026-05-09T17:00:33.982Z</time>
      </trkpt>
      <trkpt lat="47.90208" lon="6.94346">
        <ele>668</ele>
        <time>2026-05-09T17:00:34.982Z</time>
      </trkpt>
      <trkpt lat="47.90208" lon="6.94344">
        <ele>668</ele>
        <time>2026-05-09T17:00:35.981Z</time>
      </trkpt>
      <trkpt lat="47.90209" lon="6.94342">
        <ele>668</ele>
        <time>2026-05-09T17:00:36.981Z</time>
      </trkpt>
      <trkpt lat="47.90209" lon="6.94341">
        <ele>669</ele>
        <time>2026-05-09T17:00:37.982Z</time>
      </trkpt>
      <trkpt lat="47.90209" lon="6.94339">
        <ele>669</ele>
        <time>2026-05-09T17:00:38.981Z</time>
      </trkpt>
      <trkpt lat="47.90209" lon="6.94337">
        <ele>670</ele>
        <time>2026-05-09T17:00:39.982Z</time>
      </trkpt>
      <trkpt lat="47.90209" lon="6.94335">
        <ele>670</ele>
        <time>2026-05-09T17:00:40.982Z</time>
      </trkpt>
      <trkpt lat="47.9021" lon="6.94333">
        <ele>670</ele>
        <time>2026-05-09T17:00:41.982Z</time>
      </trkpt>
      <trkpt lat="47.9021" lon="6.94331">
        <ele>671</ele>
        <time>2026-05-09T17:00:42.982Z</time>
      </trkpt>
      <trkpt lat="47.9021" lon="6.94329">
        <ele>671</ele>
        <time>2026-05-09T17:00:43.982Z</time>
      </trkpt>
      <trkpt lat="47.9021" lon="6.94327">
        <ele>671</ele>
        <time>2026-05-09T17:00:44.982Z</time>
      </trkpt>
      <trkpt lat="47.9021" lon="6.94325">
        <ele>671</ele>
        <time>2026-05-09T17:00:45.981Z</time>
      </trkpt>
      <trkpt lat="47.9021" lon="6.94323">
        <ele>671</ele>
        <time>2026-05-09T17:00:46.982Z</time>
      </trkpt>
      <trkpt lat="47.9021" lon="6.94322">
        <ele>671</ele>
        <time>2026-05-09T17:00:47.981Z</time>
      </trkpt>
      <trkpt lat="47.90211" lon="6.94319">
        <ele>671</ele>
        <time>2026-05-09T17:00:48.982Z</time>
      </trkpt>
      <trkpt lat="47.90211" lon="6.94317">
        <ele>671</ele>
        <time>2026-05-09T17:00:49.981Z</time>
      </trkpt>
      <trkpt lat="47.90211" lon="6.94315">
        <ele>671</ele>
        <time>2026-05-09T17:00:50.982Z</time>
      </trkpt>
      <trkpt lat="47.90211" lon="6.94314">
        <ele>670</ele>
        <time>2026-05-09T17:00:51.982Z</time>
      </trkpt>
      <trkpt lat="47.90212" lon="6.94311">
        <ele>670</ele>
        <time>2026-05-09T17:00:52.982Z</time>
      </trkpt>
      <trkpt lat="47.90213" lon="6.94309">
        <ele>670</ele>
        <time>2026-05-09T17:00:53.982Z</time>
      </trkpt>
      <trkpt lat="47.90213" lon="6.94308">
        <ele>669</ele>
        <time>2026-05-09T17:00:54.981Z</time>
      </trkpt>
      <trkpt lat="47.90214" lon="6.94306">
        <ele>669</ele>
        <time>2026-05-09T17:00:55.981Z</time>
      </trkpt>
      <trkpt lat="47.90214" lon="6.94304">
        <ele>670</ele>
        <time>2026-05-09T17:00:56.982Z</time>
      </trkpt>
      <trkpt lat="47.90215" lon="6.94301">
        <ele>670</ele>
        <time>2026-05-09T17:00:57.981Z</time>
      </trkpt>
      <trkpt lat="47.90215" lon="6.94299">
        <ele>671</ele>
        <time>2026-05-09T17:00:58.981Z</time>
      </trkpt>
      <trkpt lat="47.90216" lon="6.94297">
        <ele>671</ele>
        <time>2026-05-09T17:00:59.981Z</time>
      </trkpt>
      <trkpt lat="47.90217" lon="6.94295">
        <ele>671</ele>
        <time>2026-05-09T17:01:00.981Z</time>
      </trkpt>
      <trkpt lat="47.90217" lon="6.94294">
        <ele>671</ele>
        <time>2026-05-09T17:01:01.981Z</time>
      </trkpt>
      <trkpt lat="47.90218" lon="6.94292">
        <ele>671</ele>
        <time>2026-05-09T17:01:02.982Z</time>
      </trkpt>
      <trkpt lat="47.90219" lon="6.94291">
        <ele>671</ele>
        <time>2026-05-09T17:01:03.981Z</time>
      </trkpt>
      <trkpt lat="47.9022" lon="6.94289">
        <ele>671</ele>
        <time>2026-05-09T17:01:04.982Z</time>
      </trkpt>
      <trkpt lat="47.9022" lon="6.94287">
        <ele>671</ele>
        <time>2026-05-09T17:01:05.981Z</time>
      </trkpt>
      <trkpt lat="47.90221" lon="6.94286">
        <ele>671</ele>
        <time>2026-05-09T17:01:06.981Z</time>
      </trkpt>
      <trkpt lat="47.90222" lon="6.94284">
        <ele>671</ele>
        <time>2026-05-09T17:01:07.982Z</time>
      </trkpt>
      <trkpt lat="47.90222" lon="6.94282">
        <ele>671</ele>
        <time>2026-05-09T17:01:08.981Z</time>
      </trkpt>
      <trkpt lat="47.90223" lon="6.94281">
        <ele>671</ele>
        <time>2026-05-09T17:01:09.981Z</time>
      </trkpt>
      <trkpt lat="47.90223" lon="6.94279">
        <ele>671</ele>
        <time>2026-05-09T17:01:10.981Z</time>
      </trkpt>
      <trkpt lat="47.90224" lon="6.94277">
        <ele>671</ele>
        <time>2026-05-09T17:01:11.981Z</time>
      </trkpt>
      <trkpt lat="47.90224" lon="6.94275">
        <ele>671</ele>
        <time>2026-05-09T17:01:12.981Z</time>
      </trkpt>
      <trkpt lat="47.90225" lon="6.94273">
        <ele>671</ele>
        <time>2026-05-09T17:01:13.981Z</time>
      </trkpt>
      <trkpt lat="47.90226" lon="6.94272">
        <ele>670</ele>
        <time>2026-05-09T17:01:14.982Z</time>
      </trkpt>
      <trkpt lat="47.90226" lon="6.9427">
        <ele>670</ele>
        <time>2026-05-09T17:01:15.981Z</time>
      </trkpt>
      <trkpt lat="47.90227" lon="6.94268">
        <ele>669</ele>
        <time>2026-05-09T17:01:16.981Z</time>
      </trkpt>
      <trkpt lat="47.90228" lon="6.94266">
        <ele>669</ele>
        <time>2026-05-09T17:01:17.981Z</time>
      </trkpt>
      <trkpt lat="47.90228" lon="6.94264">
        <ele>669</ele>
        <time>2026-05-09T17:01:18.982Z</time>
      </trkpt>
      <trkpt lat="47.90228" lon="6.94262">
        <ele>669</ele>
        <time>2026-05-09T17:01:19.981Z</time>
      </trkpt>
      <trkpt lat="47.90229" lon="6.9426">
        <ele>669</ele>
        <time>2026-05-09T17:01:20.981Z</time>
      </trkpt>
      <trkpt lat="47.90229" lon="6.94258">
        <ele>669</ele>
        <time>2026-05-09T17:01:21.981Z</time>
      </trkpt>
      <trkpt lat="47.90229" lon="6.94256">
        <ele>669</ele>
        <time>2026-05-09T17:01:22.981Z</time>
      </trkpt>
      <trkpt lat="47.9023" lon="6.94254">
        <ele>669</ele>
        <time>2026-05-09T17:01:23.981Z</time>
      </trkpt>
      <trkpt lat="47.9023" lon="6.94252">
        <ele>669</ele>
        <time>2026-05-09T17:01:24.982Z</time>
      </trkpt>
      <trkpt lat="47.9023" lon="6.9425">
        <ele>670</ele>
        <time>2026-05-09T17:01:25.981Z</time>
      </trkpt>
      <trkpt lat="47.90231" lon="6.94248">
        <ele>670</ele>
        <time>2026-05-09T17:01:26.982Z</time>
      </trkpt>
      <trkpt lat="47.90231" lon="6.94246">
        <ele>669</ele>
        <time>2026-05-09T17:01:27.981Z</time>
      </trkpt>
      <trkpt lat="47.90231" lon="6.94244">
        <ele>669</ele>
        <time>2026-05-09T17:01:28.981Z</time>
      </trkpt>
      <trkpt lat="47.90231" lon="6.94243">
        <ele>669</ele>
        <time>2026-05-09T17:01:29.982Z</time>
      </trkpt>
      <trkpt lat="47.90231" lon="6.94241">
        <ele>669</ele>
        <time>2026-05-09T17:01:30.982Z</time>
      </trkpt>
      <trkpt lat="47.90231" lon="6.94239">
        <ele>669</ele>
        <time>2026-05-09T17:01:31.981Z</time>
      </trkpt>
      <trkpt lat="47.90232" lon="6.94237">
        <ele>670</ele>
        <time>2026-05-09T17:01:32.981Z</time>
      </trkpt>
      <trkpt lat="47.90232" lon="6.94235">
        <ele>670</ele>
        <time>2026-05-09T17:01:33.982Z</time>
      </trkpt>
      <trkpt lat="47.90232" lon="6.94233">
        <ele>671</ele>
        <time>2026-05-09T17:01:34.982Z</time>
      </trkpt>
      <trkpt lat="47.90232" lon="6.94231">
        <ele>671</ele>
        <time>2026-05-09T17:01:35.982Z</time>
      </trkpt>
      <trkpt lat="47.90232" lon="6.94229">
        <ele>671</ele>
        <time>2026-05-09T17:01:36.981Z</time>
      </trkpt>
      <trkpt lat="47.90232" lon="6.94227">
        <ele>671</ele>
        <time>2026-05-09T17:01:37.981Z</time>
      </trkpt>
      <trkpt lat="47.90232" lon="6.94225">
        <ele>671</ele>
        <time>2026-05-09T17:01:38.982Z</time>
      </trkpt>
      <trkpt lat="47.90232" lon="6.94223">
        <ele>671</ele>
        <time>2026-05-09T17:01:39.981Z</time>
      </trkpt>
      <trkpt lat="47.90231" lon="6.94221">
        <ele>671</ele>
        <time>2026-05-09T17:01:40.981Z</time>
      </trkpt>
      <trkpt lat="47.90231" lon="6.9422">
        <ele>672</ele>
        <time>2026-05-09T17:01:41.982Z</time>
      </trkpt>
      <trkpt lat="47.90231" lon="6.94218">
        <ele>672</ele>
        <time>2026-05-09T17:01:42.981Z</time>
      </trkpt>
      <trkpt lat="47.90231" lon="6.94216">
        <ele>672</ele>
        <time>2026-05-09T17:01:43.982Z</time>
      </trkpt>
      <trkpt lat="47.90231" lon="6.94214">
        <ele>672</ele>
        <time>2026-05-09T17:01:44.981Z</time>
      </trkpt>
      <trkpt lat="47.90231" lon="6.94212">
        <ele>672</ele>
        <time>2026-05-09T17:01:45.981Z</time>
      </trkpt>
      <trkpt lat="47.9023" lon="6.9421">
        <ele>672</ele>
        <time>2026-05-09T17:01:46.982Z</time>
      </trkpt>
      <trkpt lat="47.9023" lon="6.94208">
        <ele>672</ele>
        <time>2026-05-09T17:01:47.981Z</time>
      </trkpt>
      <trkpt lat="47.9023" lon="6.94206">
        <ele>672</ele>
        <time>2026-05-09T17:01:48.982Z</time>
      </trkpt>
      <trkpt lat="47.9023" lon="6.94205">
        <ele>672</ele>
        <time>2026-05-09T17:01:49.981Z</time>
      </trkpt>
      <trkpt lat="47.90229" lon="6.94203">
        <ele>672</ele>
        <time>2026-05-09T17:01:50.981Z</time>
      </trkpt>
      <trkpt lat="47.90229" lon="6.94201">
        <ele>672</ele>
        <time>2026-05-09T17:01:51.981Z</time>
      </trkpt>
      <trkpt lat="47.90229" lon="6.94199">
        <ele>672</ele>
        <time>2026-05-09T17:01:52.982Z</time>
      </trkpt>
      <trkpt lat="47.90228" lon="6.94198">
        <ele>672</ele>
        <time>2026-05-09T17:01:53.981Z</time>
      </trkpt>
      <trkpt lat="47.90227" lon="6.94196">
        <ele>672</ele>
        <time>2026-05-09T17:01:54.981Z</time>
      </trkpt>
      <trkpt lat="47.90227" lon="6.94194">
        <ele>672</ele>
        <time>2026-05-09T17:01:55.981Z</time>
      </trkpt>
      <trkpt lat="47.90227" lon="6.94192">
        <ele>672</ele>
        <time>2026-05-09T17:01:56.982Z</time>
      </trkpt>
      <trkpt lat="47.90226" lon="6.94191">
        <ele>672</ele>
        <time>2026-05-09T17:01:57.982Z</time>
      </trkpt>
      <trkpt lat="47.90225" lon="6.94189">
        <ele>673</ele>
        <time>2026-05-09T17:01:58.981Z</time>
      </trkpt>
      <trkpt lat="47.90225" lon="6.94188">
        <ele>673</ele>
        <time>2026-05-09T17:01:59.982Z</time>
      </trkpt>
      <trkpt lat="47.90224" lon="6.94186">
        <ele>673</ele>
        <time>2026-05-09T17:02:00.981Z</time>
      </trkpt>
      <trkpt lat="47.90224" lon="6.94184">
        <ele>673</ele>
        <time>2026-05-09T17:02:01.982Z</time>
      </trkpt>
      <trkpt lat="47.90223" lon="6.94182">
        <ele>673</ele>
        <time>2026-05-09T17:02:02.981Z</time>
      </trkpt>
      <trkpt lat="47.90222" lon="6.9418">
        <ele>673</ele>
        <time>2026-05-09T17:02:03.981Z</time>
      </trkpt>
      <trkpt lat="47.90222" lon="6.94179">
        <ele>673</ele>
        <time>2026-05-09T17:02:04.981Z</time>
      </trkpt>
      <trkpt lat="47.90221" lon="6.94177">
        <ele>673</ele>
        <time>2026-05-09T17:02:05.981Z</time>
      </trkpt>
      <trkpt lat="47.9022" lon="6.94175">
        <ele>673</ele>
        <time>2026-05-09T17:02:06.981Z</time>
      </trkpt>
      <trkpt lat="47.9022" lon="6.94174">
        <ele>673</ele>
        <time>2026-05-09T17:02:07.981Z</time>
      </trkpt>
      <trkpt lat="47.90219" lon="6.94173">
        <ele>673</ele>
        <time>2026-05-09T17:02:08.981Z</time>
      </trkpt>
      <trkpt lat="47.90218" lon="6.94171">
        <ele>674</ele>
        <time>2026-05-09T17:02:09.981Z</time>
      </trkpt>
      <trkpt lat="47.90217" lon="6.9417">
        <ele>674</ele>
        <time>2026-05-09T17:02:10.981Z</time>
      </trkpt>
      <trkpt lat="47.90216" lon="6.94168">
        <ele>674</ele>
        <time>2026-05-09T17:02:11.981Z</time>
      </trkpt>
      <trkpt lat="47.90216" lon="6.94167">
        <ele>674</ele>
        <time>2026-05-09T17:02:12.981Z</time>
      </trkpt>
      <trkpt lat="47.90215" lon="6.94165">
        <ele>675</ele>
        <time>2026-05-09T17:02:13.981Z</time>
      </trkpt>
      <trkpt lat="47.90215" lon="6.94164">
        <ele>675</ele>
        <time>2026-05-09T17:02:14.981Z</time>
      </trkpt>
      <trkpt lat="47.90214" lon="6.94163">
        <ele>676</ele>
        <time>2026-05-09T17:02:15.981Z</time>
      </trkpt>
      <trkpt lat="47.90213" lon="6.94161">
        <ele>676</ele>
        <time>2026-05-09T17:02:16.982Z</time>
      </trkpt>
      <trkpt lat="47.90213" lon="6.9416">
        <ele>676</ele>
        <time>2026-05-09T17:02:17.981Z</time>
      </trkpt>
      <trkpt lat="47.90212" lon="6.94158">
        <ele>676</ele>
        <time>2026-05-09T17:02:18.982Z</time>
      </trkpt>
      <trkpt lat="47.90211" lon="6.94156">
        <ele>676</ele>
        <time>2026-05-09T17:02:19.982Z</time>
      </trkpt>
      <trkpt lat="47.90211" lon="6.94155">
        <ele>676</ele>
        <time>2026-05-09T17:02:20.982Z</time>
      </trkpt>
      <trkpt lat="47.9021" lon="6.94154">
        <ele>676</ele>
        <time>2026-05-09T17:02:21.981Z</time>
      </trkpt>
      <trkpt lat="47.90209" lon="6.94153">
        <ele>676</ele>
        <time>2026-05-09T17:02:22.982Z</time>
      </trkpt>
      <trkpt lat="47.90208" lon="6.94152">
        <ele>677</ele>
        <time>2026-05-09T17:02:23.981Z</time>
      </trkpt>
      <trkpt lat="47.90207" lon="6.9415">
        <ele>677</ele>
        <time>2026-05-09T17:02:24.982Z</time>
      </trkpt>
      <trkpt lat="47.90207" lon="6.94148">
        <ele>677</ele>
        <time>2026-05-09T17:02:25.981Z</time>
      </trkpt>
      <trkpt lat="47.90206" lon="6.94147">
        <ele>677</ele>
        <time>2026-05-09T17:02:26.982Z</time>
      </trkpt>
      <trkpt lat="47.90205" lon="6.94145">
        <ele>677</ele>
        <time>2026-05-09T17:02:27.981Z</time>
      </trkpt>
      <trkpt lat="47.90205" lon="6.94143">
        <ele>677</ele>
        <time>2026-05-09T17:02:28.982Z</time>
      </trkpt>
      <trkpt lat="47.90205" lon="6.94141">
        <ele>678</ele>
        <time>2026-05-09T17:02:29.982Z</time>
      </trkpt>
      <trkpt lat="47.90204" lon="6.94139">
        <ele>678</ele>
        <time>2026-05-09T17:02:30.982Z</time>
      </trkpt>
      <trkpt lat="47.90204" lon="6.94137">
        <ele>679</ele>
        <time>2026-05-09T17:02:31.981Z</time>
      </trkpt>
      <trkpt lat="47.90204" lon="6.94135">
        <ele>679</ele>
        <time>2026-05-09T17:02:32.982Z</time>
      </trkpt>
      <trkpt lat="47.90203" lon="6.94134">
        <ele>679</ele>
        <time>2026-05-09T17:02:33.981Z</time>
      </trkpt>
      <trkpt lat="47.90203" lon="6.94132">
        <ele>679</ele>
        <time>2026-05-09T17:02:34.981Z</time>
      </trkpt>
      <trkpt lat="47.90202" lon="6.9413">
        <ele>679</ele>
        <time>2026-05-09T17:02:35.981Z</time>
      </trkpt>
      <trkpt lat="47.90202" lon="6.94129">
        <ele>680</ele>
        <time>2026-05-09T17:02:36.982Z</time>
      </trkpt>
      <trkpt lat="47.90202" lon="6.94127">
        <ele>680</ele>
        <time>2026-05-09T17:02:37.981Z</time>
      </trkpt>
      <trkpt lat="47.90202" lon="6.94125">
        <ele>680</ele>
        <time>2026-05-09T17:02:38.981Z</time>
      </trkpt>
      <trkpt lat="47.90202" lon="6.94123">
        <ele>680</ele>
        <time>2026-05-09T17:02:39.981Z</time>
      </trkpt>
      <trkpt lat="47.90202" lon="6.94121">
        <ele>680</ele>
        <time>2026-05-09T17:02:40.982Z</time>
      </trkpt>
      <trkpt lat="47.90202" lon="6.94119">
        <ele>680</ele>
        <time>2026-05-09T17:02:41.982Z</time>
      </trkpt>
      <trkpt lat="47.90201" lon="6.94117">
        <ele>681</ele>
        <time>2026-05-09T17:02:42.981Z</time>
      </trkpt>
      <trkpt lat="47.90201" lon="6.94115">
        <ele>681</ele>
        <time>2026-05-09T17:02:43.982Z</time>
      </trkpt>
      <trkpt lat="47.90201" lon="6.94113">
        <ele>681</ele>
        <time>2026-05-09T17:02:44.981Z</time>
      </trkpt>
      <trkpt lat="47.90201" lon="6.94111">
        <ele>681</ele>
        <time>2026-05-09T17:02:45.982Z</time>
      </trkpt>
      <trkpt lat="47.90201" lon="6.94109">
        <ele>681</ele>
        <time>2026-05-09T17:02:46.981Z</time>
      </trkpt>
      <trkpt lat="47.90201" lon="6.94108">
        <ele>681</ele>
        <time>2026-05-09T17:02:47.982Z</time>
      </trkpt>
      <trkpt lat="47.90201" lon="6.94106">
        <ele>682</ele>
        <time>2026-05-09T17:02:48.981Z</time>
      </trkpt>
      <trkpt lat="47.90201" lon="6.94104">
        <ele>682</ele>
        <time>2026-05-09T17:02:49.982Z</time>
      </trkpt>
      <trkpt lat="47.90201" lon="6.94102">
        <ele>682</ele>
        <time>2026-05-09T17:02:50.981Z</time>
      </trkpt>
      <trkpt lat="47.90201" lon="6.941">
        <ele>682</ele>
        <time>2026-05-09T17:02:51.982Z</time>
      </trkpt>
      <trkpt lat="47.90201" lon="6.94099">
        <ele>683</ele>
        <time>2026-05-09T17:02:52.982Z</time>
      </trkpt>
      <trkpt lat="47.90201" lon="6.94097">
        <ele>683</ele>
        <time>2026-05-09T17:02:53.981Z</time>
      </trkpt>
      <trkpt lat="47.90201" lon="6.94095">
        <ele>683</ele>
        <time>2026-05-09T17:02:54.981Z</time>
      </trkpt>
      <trkpt lat="47.90201" lon="6.94093">
        <ele>684</ele>
        <time>2026-05-09T17:02:55.982Z</time>
      </trkpt>
      <trkpt lat="47.90201" lon="6.94091">
        <ele>684</ele>
        <time>2026-05-09T17:02:56.981Z</time>
      </trkpt>
      <trkpt lat="47.902" lon="6.94089">
        <ele>685</ele>
        <time>2026-05-09T17:02:57.982Z</time>
      </trkpt>
      <trkpt lat="47.902" lon="6.94087">
        <ele>685</ele>
        <time>2026-05-09T17:02:58.981Z</time>
      </trkpt>
      <trkpt lat="47.90201" lon="6.94085">
        <ele>685</ele>
        <time>2026-05-09T17:02:59.982Z</time>
      </trkpt>
      <trkpt lat="47.902" lon="6.94083">
        <ele>685</ele>
        <time>2026-05-09T17:03:00.982Z</time>
      </trkpt>
      <trkpt lat="47.902" lon="6.94081">
        <ele>685</ele>
        <time>2026-05-09T17:03:01.982Z</time>
      </trkpt>
      <trkpt lat="47.902" lon="6.94079">
        <ele>685</ele>
        <time>2026-05-09T17:03:02.981Z</time>
      </trkpt>
      <trkpt lat="47.902" lon="6.94077">
        <ele>685</ele>
        <time>2026-05-09T17:03:03.982Z</time>
      </trkpt>
      <trkpt lat="47.902" lon="6.94074">
        <ele>685</ele>
        <time>2026-05-09T17:03:04.981Z</time>
      </trkpt>
      <trkpt lat="47.902" lon="6.94073">
        <ele>685</ele>
        <time>2026-05-09T17:03:05.981Z</time>
      </trkpt>
      <trkpt lat="47.90199" lon="6.94071">
        <ele>685</ele>
        <time>2026-05-09T17:03:06.982Z</time>
      </trkpt>
      <trkpt lat="47.90199" lon="6.9407">
        <ele>686</ele>
        <time>2026-05-09T17:03:07.982Z</time>
      </trkpt>
      <trkpt lat="47.90199" lon="6.94069">
        <ele>686</ele>
        <time>2026-05-09T17:03:08.982Z</time>
      </trkpt>
      <trkpt lat="47.90199" lon="6.94067">
        <ele>686</ele>
        <time>2026-05-09T17:03:09.981Z</time>
      </trkpt>
      <trkpt lat="47.90199" lon="6.94065">
        <ele>686</ele>
        <time>2026-05-09T17:03:10.981Z</time>
      </trkpt>
      <trkpt lat="47.90199" lon="6.94062">
        <ele>686</ele>
        <time>2026-05-09T17:03:11.982Z</time>
      </trkpt>
      <trkpt lat="47.90199" lon="6.94061">
        <ele>686</ele>
        <time>2026-05-09T17:03:12.982Z</time>
      </trkpt>
      <trkpt lat="47.90198" lon="6.94059">
        <ele>686</ele>
        <time>2026-05-09T17:03:13.982Z</time>
      </trkpt>
      <trkpt lat="47.90198" lon="6.94057">
        <ele>686</ele>
        <time>2026-05-09T17:03:14.981Z</time>
      </trkpt>
      <trkpt lat="47.90198" lon="6.94055">
        <ele>685</ele>
        <time>2026-05-09T17:03:15.982Z</time>
      </trkpt>
      <trkpt lat="47.90198" lon="6.94053">
        <ele>685</ele>
        <time>2026-05-09T17:03:16.981Z</time>
      </trkpt>
      <trkpt lat="47.90198" lon="6.94051">
        <ele>685</ele>
        <time>2026-05-09T17:03:17.981Z</time>
      </trkpt>
      <trkpt lat="47.90198" lon="6.94049">
        <ele>685</ele>
        <time>2026-05-09T17:03:18.982Z</time>
      </trkpt>
      <trkpt lat="47.90198" lon="6.94047">
        <ele>685</ele>
        <time>2026-05-09T17:03:19.982Z</time>
      </trkpt>
      <trkpt lat="47.90197" lon="6.94044">
        <ele>686</ele>
        <time>2026-05-09T17:03:20.981Z</time>
      </trkpt>
      <trkpt lat="47.90197" lon="6.94041">
        <ele>686</ele>
        <time>2026-05-09T17:03:21.982Z</time>
      </trkpt>
      <trkpt lat="47.90197" lon="6.94039">
        <ele>686</ele>
        <time>2026-05-09T17:03:22.981Z</time>
      </trkpt>
      <trkpt lat="47.90197" lon="6.94037">
        <ele>686</ele>
        <time>2026-05-09T17:03:23.982Z</time>
      </trkpt>
      <trkpt lat="47.90196" lon="6.94035">
        <ele>687</ele>
        <time>2026-05-09T17:03:24.981Z</time>
      </trkpt>
      <trkpt lat="47.90196" lon="6.94033">
        <ele>687</ele>
        <time>2026-05-09T17:03:25.981Z</time>
      </trkpt>
      <trkpt lat="47.90196" lon="6.94031">
        <ele>687</ele>
        <time>2026-05-09T17:03:26.982Z</time>
      </trkpt>
      <trkpt lat="47.90195" lon="6.94029">
        <ele>687</ele>
        <time>2026-05-09T17:03:27.982Z</time>
      </trkpt>
      <trkpt lat="47.90195" lon="6.94027">
        <ele>686</ele>
        <time>2026-05-09T17:03:28.982Z</time>
      </trkpt>
      <trkpt lat="47.90194" lon="6.94025">
        <ele>687</ele>
        <time>2026-05-09T17:03:29.982Z</time>
      </trkpt>
      <trkpt lat="47.90194" lon="6.94023">
        <ele>687</ele>
        <time>2026-05-09T17:03:30.981Z</time>
      </trkpt>
      <trkpt lat="47.90194" lon="6.94021">
        <ele>687</ele>
        <time>2026-05-09T17:03:31.981Z</time>
      </trkpt>
      <trkpt lat="47.90193" lon="6.94019">
        <ele>688</ele>
        <time>2026-05-09T17:03:32.981Z</time>
      </trkpt>
      <trkpt lat="47.90193" lon="6.94017">
        <ele>688</ele>
        <time>2026-05-09T17:03:33.982Z</time>
      </trkpt>
      <trkpt lat="47.90193" lon="6.94015">
        <ele>688</ele>
        <time>2026-05-09T17:03:34.981Z</time>
      </trkpt>
      <trkpt lat="47.90193" lon="6.94013">
        <ele>689</ele>
        <time>2026-05-09T17:03:35.982Z</time>
      </trkpt>
      <trkpt lat="47.90192" lon="6.9401">
        <ele>689</ele>
        <time>2026-05-09T17:03:36.981Z</time>
      </trkpt>
      <trkpt lat="47.90192" lon="6.94008">
        <ele>690</ele>
        <time>2026-05-09T17:03:37.982Z</time>
      </trkpt>
      <trkpt lat="47.90192" lon="6.94006">
        <ele>690</ele>
        <time>2026-05-09T17:03:38.981Z</time>
      </trkpt>
      <trkpt lat="47.90192" lon="6.94004">
        <ele>690</ele>
        <time>2026-05-09T17:03:39.981Z</time>
      </trkpt>
      <trkpt lat="47.90191" lon="6.94003">
        <ele>690</ele>
        <time>2026-05-09T17:03:40.982Z</time>
      </trkpt>
      <trkpt lat="47.90191" lon="6.94001">
        <ele>690</ele>
        <time>2026-05-09T17:03:41.981Z</time>
      </trkpt>
      <trkpt lat="47.90191" lon="6.93998">
        <ele>691</ele>
        <time>2026-05-09T17:03:42.981Z</time>
      </trkpt>
      <trkpt lat="47.9019" lon="6.93996">
        <ele>691</ele>
        <time>2026-05-09T17:03:43.982Z</time>
      </trkpt>
      <trkpt lat="47.9019" lon="6.93995">
        <ele>691</ele>
        <time>2026-05-09T17:03:44.982Z</time>
      </trkpt>
      <trkpt lat="47.9019" lon="6.93992">
        <ele>691</ele>
        <time>2026-05-09T17:03:45.981Z</time>
      </trkpt>
      <trkpt lat="47.9019" lon="6.93991">
        <ele>691</ele>
        <time>2026-05-09T17:03:46.981Z</time>
      </trkpt>
      <trkpt lat="47.90189" lon="6.93989">
        <ele>691</ele>
        <time>2026-05-09T17:03:47.982Z</time>
      </trkpt>
      <trkpt lat="47.90189" lon="6.93988">
        <ele>691</ele>
        <time>2026-05-09T17:03:48.982Z</time>
      </trkpt>
      <trkpt lat="47.90189" lon="6.93986">
        <ele>691</ele>
        <time>2026-05-09T17:03:49.981Z</time>
      </trkpt>
      <trkpt lat="47.90188" lon="6.93984">
        <ele>691</ele>
        <time>2026-05-09T17:03:50.982Z</time>
      </trkpt>
      <trkpt lat="47.90188" lon="6.93983">
        <ele>691</ele>
        <time>2026-05-09T17:03:51.981Z</time>
      </trkpt>
      <trkpt lat="47.90187" lon="6.93981">
        <ele>692</ele>
        <time>2026-05-09T17:03:52.981Z</time>
      </trkpt>
      <trkpt lat="47.90187" lon="6.93979">
        <ele>692</ele>
        <time>2026-05-09T17:03:53.982Z</time>
      </trkpt>
      <trkpt lat="47.90186" lon="6.93978">
        <ele>692</ele>
        <time>2026-05-09T17:03:54.981Z</time>
      </trkpt>
      <trkpt lat="47.90186" lon="6.93976">
        <ele>692</ele>
        <time>2026-05-09T17:03:55.982Z</time>
      </trkpt>
      <trkpt lat="47.90185" lon="6.93975">
        <ele>692</ele>
        <time>2026-05-09T17:03:56.982Z</time>
      </trkpt>
      <trkpt lat="47.90185" lon="6.93973">
        <ele>692</ele>
        <time>2026-05-09T17:03:57.982Z</time>
      </trkpt>
      <trkpt lat="47.90184" lon="6.93972">
        <ele>693</ele>
        <time>2026-05-09T17:03:58.982Z</time>
      </trkpt>
      <trkpt lat="47.90184" lon="6.93971">
        <ele>693</ele>
        <time>2026-05-09T17:03:59.982Z</time>
      </trkpt>
      <trkpt lat="47.90183" lon="6.9397">
        <ele>693</ele>
        <time>2026-05-09T17:04:00.981Z</time>
      </trkpt>
      <trkpt lat="47.90182" lon="6.93969">
        <ele>692</ele>
        <time>2026-05-09T17:04:01.981Z</time>
      </trkpt>
      <trkpt lat="47.90181" lon="6.93968">
        <ele>692</ele>
        <time>2026-05-09T17:04:02.981Z</time>
      </trkpt>
      <trkpt lat="47.90179" lon="6.93968">
        <ele>692</ele>
        <time>2026-05-09T17:04:03.982Z</time>
      </trkpt>
      <trkpt lat="47.90178" lon="6.93967">
        <ele>692</ele>
        <time>2026-05-09T17:04:04.981Z</time>
      </trkpt>
      <trkpt lat="47.90177" lon="6.93966">
        <ele>692</ele>
        <time>2026-05-09T17:04:05.982Z</time>
      </trkpt>
      <trkpt lat="47.90176" lon="6.93964">
        <ele>692</ele>
        <time>2026-05-09T17:04:06.981Z</time>
      </trkpt>
      <trkpt lat="47.90175" lon="6.93962">
        <ele>692</ele>
        <time>2026-05-09T17:04:07.981Z</time>
      </trkpt>
      <trkpt lat="47.90174" lon="6.93962">
        <ele>692</ele>
        <time>2026-05-09T17:04:08.982Z</time>
      </trkpt>
      <trkpt lat="47.90173" lon="6.93961">
        <ele>693</ele>
        <time>2026-05-09T17:04:09.981Z</time>
      </trkpt>
      <trkpt lat="47.90172" lon="6.93961">
        <ele>693</ele>
        <time>2026-05-09T17:04:10.981Z</time>
      </trkpt>
      <trkpt lat="47.90171" lon="6.9396">
        <ele>693</ele>
        <time>2026-05-09T17:04:11.981Z</time>
      </trkpt>
      <trkpt lat="47.9017" lon="6.93959">
        <ele>693</ele>
        <time>2026-05-09T17:04:12.981Z</time>
      </trkpt>
      <trkpt lat="47.90168" lon="6.93959">
        <ele>693</ele>
        <time>2026-05-09T17:04:13.981Z</time>
      </trkpt>
      <trkpt lat="47.90167" lon="6.93958">
        <ele>693</ele>
        <time>2026-05-09T17:04:14.981Z</time>
      </trkpt>
      <trkpt lat="47.90165" lon="6.93958">
        <ele>693</ele>
        <time>2026-05-09T17:04:15.982Z</time>
      </trkpt>
      <trkpt lat="47.90164" lon="6.93957">
        <ele>694</ele>
        <time>2026-05-09T17:04:16.982Z</time>
      </trkpt>
      <trkpt lat="47.90164" lon="6.93956">
        <ele>694</ele>
        <time>2026-05-09T17:04:17.981Z</time>
      </trkpt>
      <trkpt lat="47.90163" lon="6.93956">
        <ele>694</ele>
        <time>2026-05-09T17:04:18.981Z</time>
      </trkpt>
      <trkpt lat="47.90162" lon="6.93955">
        <ele>694</ele>
        <time>2026-05-09T17:04:19.981Z</time>
      </trkpt>
      <trkpt lat="47.90161" lon="6.93953">
        <ele>694</ele>
        <time>2026-05-09T17:04:20.982Z</time>
      </trkpt>
      <trkpt lat="47.90161" lon="6.93952">
        <ele>695</ele>
        <time>2026-05-09T17:04:21.981Z</time>
      </trkpt>
      <trkpt lat="47.9016" lon="6.93951">
        <ele>695</ele>
        <time>2026-05-09T17:04:22.981Z</time>
      </trkpt>
      <trkpt lat="47.90159" lon="6.9395">
        <ele>695</ele>
        <time>2026-05-09T17:04:23.981Z</time>
      </trkpt>
      <trkpt lat="47.90158" lon="6.93949">
        <ele>695</ele>
        <time>2026-05-09T17:04:24.982Z</time>
      </trkpt>
      <trkpt lat="47.90157" lon="6.93948">
        <ele>695</ele>
        <time>2026-05-09T17:04:25.981Z</time>
      </trkpt>
      <trkpt lat="47.90156" lon="6.93948">
        <ele>695</ele>
        <time>2026-05-09T17:04:26.982Z</time>
      </trkpt>
      <trkpt lat="47.90155" lon="6.93948">
        <ele>696</ele>
        <time>2026-05-09T17:04:27.982Z</time>
      </trkpt>
      <trkpt lat="47.90154" lon="6.93949">
        <ele>696</ele>
        <time>2026-05-09T17:04:28.981Z</time>
      </trkpt>
      <trkpt lat="47.90153" lon="6.93949">
        <ele>696</ele>
        <time>2026-05-09T17:04:29.981Z</time>
      </trkpt>
      <trkpt lat="47.90153" lon="6.9395">
        <ele>696</ele>
        <time>2026-05-09T17:04:30.981Z</time>
      </trkpt>
      <trkpt lat="47.90152" lon="6.93951">
        <ele>697</ele>
        <time>2026-05-09T17:04:31.981Z</time>
      </trkpt>
      <trkpt lat="47.90151" lon="6.93951">
        <ele>697</ele>
        <time>2026-05-09T17:04:32.981Z</time>
      </trkpt>
      <trkpt lat="47.9015" lon="6.93952">
        <ele>697</ele>
        <time>2026-05-09T17:04:33.981Z</time>
      </trkpt>
      <trkpt lat="47.90149" lon="6.93953">
        <ele>697</ele>
        <time>2026-05-09T17:04:34.982Z</time>
      </trkpt>
      <trkpt lat="47.90149" lon="6.93954">
        <ele>698</ele>
        <time>2026-05-09T17:04:35.982Z</time>
      </trkpt>
      <trkpt lat="47.90148" lon="6.93955">
        <ele>698</ele>
        <time>2026-05-09T17:04:36.982Z</time>
      </trkpt>
      <trkpt lat="47.90147" lon="6.93956">
        <ele>698</ele>
        <time>2026-05-09T17:04:37.982Z</time>
      </trkpt>
      <trkpt lat="47.90147" lon="6.93957">
        <ele>699</ele>
        <time>2026-05-09T17:04:38.982Z</time>
      </trkpt>
      <trkpt lat="47.90146" lon="6.93958">
        <ele>699</ele>
        <time>2026-05-09T17:04:39.981Z</time>
      </trkpt>
      <trkpt lat="47.90146" lon="6.93959">
        <ele>700</ele>
        <time>2026-05-09T17:04:40.981Z</time>
      </trkpt>
      <trkpt lat="47.90146" lon="6.9396">
        <ele>701</ele>
        <time>2026-05-09T17:04:41.981Z</time>
      </trkpt>
      <trkpt lat="47.90146" lon="6.93962">
        <ele>701</ele>
        <time>2026-05-09T17:04:42.982Z</time>
      </trkpt>
      <trkpt lat="47.90146" lon="6.93963">
        <ele>702</ele>
        <time>2026-05-09T17:04:43.982Z</time>
      </trkpt>
      <trkpt lat="47.90146" lon="6.93965">
        <ele>702</ele>
        <time>2026-05-09T17:04:44.982Z</time>
      </trkpt>
      <trkpt lat="47.90146" lon="6.93967">
        <ele>703</ele>
        <time>2026-05-09T17:04:45.981Z</time>
      </trkpt>
      <trkpt lat="47.90146" lon="6.93968">
        <ele>703</ele>
        <time>2026-05-09T17:04:46.982Z</time>
      </trkpt>
      <trkpt lat="47.90146" lon="6.9397">
        <ele>703</ele>
        <time>2026-05-09T17:04:47.981Z</time>
      </trkpt>
      <trkpt lat="47.90145" lon="6.93971">
        <ele>704</ele>
        <time>2026-05-09T17:04:48.982Z</time>
      </trkpt>
      <trkpt lat="47.90146" lon="6.93973">
        <ele>704</ele>
        <time>2026-05-09T17:04:49.981Z</time>
      </trkpt>
      <trkpt lat="47.90146" lon="6.93974">
        <ele>703</ele>
        <time>2026-05-09T17:04:50.981Z</time>
      </trkpt>
      <trkpt lat="47.90146" lon="6.93975">
        <ele>703</ele>
        <time>2026-05-09T17:04:51.982Z</time>
      </trkpt>
      <trkpt lat="47.90146" lon="6.93977">
        <ele>703</ele>
        <time>2026-05-09T17:04:52.981Z</time>
      </trkpt>
      <trkpt lat="47.90147" lon="6.93979">
        <ele>702</ele>
        <time>2026-05-09T17:04:53.981Z</time>
      </trkpt>
      <trkpt lat="47.90147" lon="6.93981">
        <ele>702</ele>
        <time>2026-05-09T17:04:54.981Z</time>
      </trkpt>
      <trkpt lat="47.90146" lon="6.93982">
        <ele>702</ele>
        <time>2026-05-09T17:04:55.982Z</time>
      </trkpt>
      <trkpt lat="47.90146" lon="6.93982">
        <ele>702</ele>
        <time>2026-05-09T17:04:56.981Z</time>
      </trkpt>
      <trkpt lat="47.90146" lon="6.93983">
        <ele>701</ele>
        <time>2026-05-09T17:04:57.982Z</time>
      </trkpt>
      <trkpt lat="47.90146" lon="6.93983">
        <ele>701</ele>
        <time>2026-05-09T17:04:58.981Z</time>
      </trkpt>
      <trkpt lat="47.90147" lon="6.93984">
        <ele>701</ele>
        <time>2026-05-09T17:04:59.981Z</time>
      </trkpt>
      <trkpt lat="47.90147" lon="6.93986">
        <ele>701</ele>
        <time>2026-05-09T17:05:00.982Z</time>
      </trkpt>
      <trkpt lat="47.90147" lon="6.93988">
        <ele>702</ele>
        <time>2026-05-09T17:05:01.982Z</time>
      </trkpt>
      <trkpt lat="47.90147" lon="6.93989">
        <ele>702</ele>
        <time>2026-05-09T17:05:02.981Z</time>
      </trkpt>
      <trkpt lat="47.90148" lon="6.93991">
        <ele>702</ele>
        <time>2026-05-09T17:05:03.981Z</time>
      </trkpt>
      <trkpt lat="47.90148" lon="6.93992">
        <ele>703</ele>
        <time>2026-05-09T17:05:04.982Z</time>
      </trkpt>
      <trkpt lat="47.90148" lon="6.93993">
        <ele>703</ele>
        <time>2026-05-09T17:05:05.981Z</time>
      </trkpt>
      <trkpt lat="47.90148" lon="6.93995">
        <ele>703</ele>
        <time>2026-05-09T17:05:06.981Z</time>
      </trkpt>
      <trkpt lat="47.90148" lon="6.93997">
        <ele>703</ele>
        <time>2026-05-09T17:05:07.982Z</time>
      </trkpt>
      <trkpt lat="47.90149" lon="6.93998">
        <ele>704</ele>
        <time>2026-05-09T17:05:08.982Z</time>
      </trkpt>
      <trkpt lat="47.90149" lon="6.94">
        <ele>704</ele>
        <time>2026-05-09T17:05:09.981Z</time>
      </trkpt>
      <trkpt lat="47.90148" lon="6.94002">
        <ele>705</ele>
        <time>2026-05-09T17:05:10.981Z</time>
      </trkpt>
      <trkpt lat="47.90148" lon="6.94003">
        <ele>705</ele>
        <time>2026-05-09T17:05:11.982Z</time>
      </trkpt>
      <trkpt lat="47.90149" lon="6.94005">
        <ele>705</ele>
        <time>2026-05-09T17:05:12.981Z</time>
      </trkpt>
      <trkpt lat="47.90149" lon="6.94006">
        <ele>705</ele>
        <time>2026-05-09T17:05:13.981Z</time>
      </trkpt>
      <trkpt lat="47.90149" lon="6.94008">
        <ele>705</ele>
        <time>2026-05-09T17:05:14.982Z</time>
      </trkpt>
      <trkpt lat="47.90149" lon="6.94011">
        <ele>706</ele>
        <time>2026-05-09T17:05:15.981Z</time>
      </trkpt>
      <trkpt lat="47.90149" lon="6.94012">
        <ele>705</ele>
        <time>2026-05-09T17:05:16.982Z</time>
      </trkpt>
      <trkpt lat="47.90149" lon="6.94014">
        <ele>705</ele>
        <time>2026-05-09T17:05:17.982Z</time>
      </trkpt>
      <trkpt lat="47.90149" lon="6.94016">
        <ele>705</ele>
        <time>2026-05-09T17:05:18.981Z</time>
      </trkpt>
      <trkpt lat="47.90149" lon="6.94017">
        <ele>705</ele>
        <time>2026-05-09T17:05:19.982Z</time>
      </trkpt>
      <trkpt lat="47.90148" lon="6.94019">
        <ele>705</ele>
        <time>2026-05-09T17:05:20.982Z</time>
      </trkpt>
      <trkpt lat="47.90148" lon="6.9402">
        <ele>705</ele>
        <time>2026-05-09T17:05:21.982Z</time>
      </trkpt>
      <trkpt lat="47.90148" lon="6.94022">
        <ele>705</ele>
        <time>2026-05-09T17:05:22.982Z</time>
      </trkpt>
      <trkpt lat="47.90147" lon="6.94023">
        <ele>705</ele>
        <time>2026-05-09T17:05:23.982Z</time>
      </trkpt>
      <trkpt lat="47.90147" lon="6.94025">
        <ele>705</ele>
        <time>2026-05-09T17:05:24.981Z</time>
      </trkpt>
      <trkpt lat="47.90147" lon="6.94026">
        <ele>705</ele>
        <time>2026-05-09T17:05:25.981Z</time>
      </trkpt>
      <trkpt lat="47.90146" lon="6.94028">
        <ele>705</ele>
        <time>2026-05-09T17:05:26.981Z</time>
      </trkpt>
      <trkpt lat="47.90146" lon="6.94029">
        <ele>706</ele>
        <time>2026-05-09T17:05:27.982Z</time>
      </trkpt>
      <trkpt lat="47.90146" lon="6.94031">
        <ele>706</ele>
        <time>2026-05-09T17:05:28.981Z</time>
      </trkpt>
      <trkpt lat="47.90145" lon="6.94033">
        <ele>707</ele>
        <time>2026-05-09T17:05:29.981Z</time>
      </trkpt>
      <trkpt lat="47.90145" lon="6.94034">
        <ele>708</ele>
        <time>2026-05-09T17:05:30.981Z</time>
      </trkpt>
      <trkpt lat="47.90145" lon="6.94036">
        <ele>708</ele>
        <time>2026-05-09T17:05:31.981Z</time>
      </trkpt>
      <trkpt lat="47.90144" lon="6.94038">
        <ele>709</ele>
        <time>2026-05-09T17:05:32.982Z</time>
      </trkpt>
      <trkpt lat="47.90144" lon="6.94039">
        <ele>710</ele>
        <time>2026-05-09T17:05:33.981Z</time>
      </trkpt>
      <trkpt lat="47.90145" lon="6.9404">
        <ele>711</ele>
        <time>2026-05-09T17:05:34.981Z</time>
      </trkpt>
      <trkpt lat="47.90145" lon="6.94042">
        <ele>712</ele>
        <time>2026-05-09T17:05:35.981Z</time>
      </trkpt>
      <trkpt lat="47.90145" lon="6.94043">
        <ele>712</ele>
        <time>2026-05-09T17:05:36.981Z</time>
      </trkpt>
      <trkpt lat="47.90145" lon="6.94044">
        <ele>713</ele>
        <time>2026-05-09T17:05:37.981Z</time>
      </trkpt>
      <trkpt lat="47.90144" lon="6.94047">
        <ele>713</ele>
        <time>2026-05-09T17:05:38.981Z</time>
      </trkpt>
      <trkpt lat="47.90144" lon="6.94048">
        <ele>713</ele>
        <time>2026-05-09T17:05:39.982Z</time>
      </trkpt>
      <trkpt lat="47.90143" lon="6.9405">
        <ele>713</ele>
        <time>2026-05-09T17:05:40.981Z</time>
      </trkpt>
      <trkpt lat="47.90143" lon="6.94051">
        <ele>713</ele>
        <time>2026-05-09T17:05:41.981Z</time>
      </trkpt>
      <trkpt lat="47.90142" lon="6.94053">
        <ele>713</ele>
        <time>2026-05-09T17:05:42.982Z</time>
      </trkpt>
      <trkpt lat="47.90142" lon="6.94054">
        <ele>713</ele>
        <time>2026-05-09T17:05:43.982Z</time>
      </trkpt>
      <trkpt lat="47.90141" lon="6.94055">
        <ele>713</ele>
        <time>2026-05-09T17:05:44.981Z</time>
      </trkpt>
      <trkpt lat="47.9014" lon="6.94056">
        <ele>713</ele>
        <time>2026-05-09T17:05:45.982Z</time>
      </trkpt>
      <trkpt lat="47.90139" lon="6.94057">
        <ele>713</ele>
        <time>2026-05-09T17:05:46.981Z</time>
      </trkpt>
      <trkpt lat="47.90139" lon="6.94058">
        <ele>713</ele>
        <time>2026-05-09T17:05:47.981Z</time>
      </trkpt>
      <trkpt lat="47.90138" lon="6.9406">
        <ele>713</ele>
        <time>2026-05-09T17:05:48.981Z</time>
      </trkpt>
      <trkpt lat="47.90137" lon="6.94061">
        <ele>713</ele>
        <time>2026-05-09T17:05:49.982Z</time>
      </trkpt>
      <trkpt lat="47.90136" lon="6.94063">
        <ele>713</ele>
        <time>2026-05-09T17:05:50.982Z</time>
      </trkpt>
      <trkpt lat="47.90135" lon="6.94063">
        <ele>713</ele>
        <time>2026-05-09T17:05:51.981Z</time>
      </trkpt>
      <trkpt lat="47.90134" lon="6.94063">
        <ele>713</ele>
        <time>2026-05-09T17:05:52.981Z</time>
      </trkpt>
      <trkpt lat="47.90133" lon="6.94062">
        <ele>714</ele>
        <time>2026-05-09T17:05:53.981Z</time>
      </trkpt>
      <trkpt lat="47.90132" lon="6.94062">
        <ele>714</ele>
        <time>2026-05-09T17:05:54.981Z</time>
      </trkpt>
      <trkpt lat="47.90131" lon="6.94061">
        <ele>714</ele>
        <time>2026-05-09T17:05:55.982Z</time>
      </trkpt>
      <trkpt lat="47.9013" lon="6.94059">
        <ele>714</ele>
        <time>2026-05-09T17:05:56.982Z</time>
      </trkpt>
      <trkpt lat="47.9013" lon="6.94058">
        <ele>714</ele>
        <time>2026-05-09T17:05:57.981Z</time>
      </trkpt>
      <trkpt lat="47.9013" lon="6.94057">
        <ele>714</ele>
        <time>2026-05-09T17:05:58.981Z</time>
      </trkpt>
      <trkpt lat="47.90129" lon="6.94056">
        <ele>714</ele>
        <time>2026-05-09T17:05:59.982Z</time>
      </trkpt>
      <trkpt lat="47.90128" lon="6.94055">
        <ele>714</ele>
        <time>2026-05-09T17:06:00.981Z</time>
      </trkpt>
      <trkpt lat="47.90127" lon="6.94054">
        <ele>714</ele>
        <time>2026-05-09T17:06:01.981Z</time>
      </trkpt>
      <trkpt lat="47.90127" lon="6.94052">
        <ele>714</ele>
        <time>2026-05-09T17:06:02.981Z</time>
      </trkpt>
      <trkpt lat="47.90126" lon="6.94051">
        <ele>714</ele>
        <time>2026-05-09T17:06:03.981Z</time>
      </trkpt>
      <trkpt lat="47.90126" lon="6.94049">
        <ele>714</ele>
        <time>2026-05-09T17:06:04.981Z</time>
      </trkpt>
      <trkpt lat="47.90125" lon="6.94048">
        <ele>714</ele>
        <time>2026-05-09T17:06:05.981Z</time>
      </trkpt>
      <trkpt lat="47.90125" lon="6.94047">
        <ele>714</ele>
        <time>2026-05-09T17:06:06.981Z</time>
      </trkpt>
      <trkpt lat="47.90124" lon="6.94045">
        <ele>714</ele>
        <time>2026-05-09T17:06:07.981Z</time>
      </trkpt>
      <trkpt lat="47.90124" lon="6.94043">
        <ele>714</ele>
        <time>2026-05-09T17:06:08.981Z</time>
      </trkpt>
      <trkpt lat="47.90123" lon="6.94041">
        <ele>714</ele>
        <time>2026-05-09T17:06:09.981Z</time>
      </trkpt>
      <trkpt lat="47.90123" lon="6.94039">
        <ele>714</ele>
        <time>2026-05-09T17:06:10.981Z</time>
      </trkpt>
      <trkpt lat="47.90122" lon="6.94037">
        <ele>714</ele>
        <time>2026-05-09T17:06:11.982Z</time>
      </trkpt>
      <trkpt lat="47.90122" lon="6.94035">
        <ele>714</ele>
        <time>2026-05-09T17:06:12.981Z</time>
      </trkpt>
      <trkpt lat="47.90121" lon="6.94033">
        <ele>714</ele>
        <time>2026-05-09T17:06:13.981Z</time>
      </trkpt>
      <trkpt lat="47.90121" lon="6.94031">
        <ele>714</ele>
        <time>2026-05-09T17:06:14.981Z</time>
      </trkpt>
      <trkpt lat="47.9012" lon="6.94029">
        <ele>714</ele>
        <time>2026-05-09T17:06:15.981Z</time>
      </trkpt>
      <trkpt lat="47.90119" lon="6.94027">
        <ele>714</ele>
        <time>2026-05-09T17:06:16.981Z</time>
      </trkpt>
      <trkpt lat="47.90118" lon="6.94025">
        <ele>714</ele>
        <time>2026-05-09T17:06:17.981Z</time>
      </trkpt>
      <trkpt lat="47.90118" lon="6.94024">
        <ele>715</ele>
        <time>2026-05-09T17:06:18.981Z</time>
      </trkpt>
      <trkpt lat="47.90117" lon="6.94023">
        <ele>715</ele>
        <time>2026-05-09T17:06:19.981Z</time>
      </trkpt>
      <trkpt lat="47.90117" lon="6.94022">
        <ele>715</ele>
        <time>2026-05-09T17:06:20.982Z</time>
      </trkpt>
      <trkpt lat="47.90116" lon="6.9402">
        <ele>715</ele>
        <time>2026-05-09T17:06:21.981Z</time>
      </trkpt>
      <trkpt lat="47.90116" lon="6.94019">
        <ele>715</ele>
        <time>2026-05-09T17:06:22.982Z</time>
      </trkpt>
      <trkpt lat="47.90115" lon="6.94018">
        <ele>715</ele>
        <time>2026-05-09T17:06:23.981Z</time>
      </trkpt>
      <trkpt lat="47.90114" lon="6.94016">
        <ele>715</ele>
        <time>2026-05-09T17:06:24.982Z</time>
      </trkpt>
      <trkpt lat="47.90114" lon="6.94015">
        <ele>715</ele>
        <time>2026-05-09T17:06:25.982Z</time>
      </trkpt>
      <trkpt lat="47.90114" lon="6.94013">
        <ele>715</ele>
        <time>2026-05-09T17:06:26.982Z</time>
      </trkpt>
      <trkpt lat="47.90113" lon="6.94012">
        <ele>715</ele>
        <time>2026-05-09T17:06:27.981Z</time>
      </trkpt>
      <trkpt lat="47.90113" lon="6.94011">
        <ele>715</ele>
        <time>2026-05-09T17:06:28.981Z</time>
      </trkpt>
      <trkpt lat="47.90112" lon="6.9401">
        <ele>715</ele>
        <time>2026-05-09T17:06:29.982Z</time>
      </trkpt>
      <trkpt lat="47.90111" lon="6.94009">
        <ele>716</ele>
        <time>2026-05-09T17:06:30.982Z</time>
      </trkpt>
      <trkpt lat="47.9011" lon="6.94007">
        <ele>716</ele>
        <time>2026-05-09T17:06:31.981Z</time>
      </trkpt>
      <trkpt lat="47.90109" lon="6.94006">
        <ele>717</ele>
        <time>2026-05-09T17:06:32.981Z</time>
      </trkpt>
      <trkpt lat="47.90109" lon="6.94004">
        <ele>717</ele>
        <time>2026-05-09T17:06:33.982Z</time>
      </trkpt>
      <trkpt lat="47.90108" lon="6.94003">
        <ele>717</ele>
        <time>2026-05-09T17:06:34.982Z</time>
      </trkpt>
      <trkpt lat="47.90107" lon="6.94002">
        <ele>718</ele>
        <time>2026-05-09T17:06:35.981Z</time>
      </trkpt>
      <trkpt lat="47.90106" lon="6.94001">
        <ele>718</ele>
        <time>2026-05-09T17:06:36.982Z</time>
      </trkpt>
      <trkpt lat="47.90106" lon="6.93999">
        <ele>719</ele>
        <time>2026-05-09T17:06:37.981Z</time>
      </trkpt>
      <trkpt lat="47.90104" lon="6.93997">
        <ele>719</ele>
        <time>2026-05-09T17:06:38.981Z</time>
      </trkpt>
      <trkpt lat="47.90103" lon="6.93995">
        <ele>719</ele>
        <time>2026-05-09T17:06:39.981Z</time>
      </trkpt>
      <trkpt lat="47.90103" lon="6.93993">
        <ele>720</ele>
        <time>2026-05-09T17:06:40.981Z</time>
      </trkpt>
      <trkpt lat="47.90103" lon="6.93992">
        <ele>720</ele>
        <time>2026-05-09T17:06:41.981Z</time>
      </trkpt>
      <trkpt lat="47.90102" lon="6.9399">
        <ele>721</ele>
        <time>2026-05-09T17:06:42.982Z</time>
      </trkpt>
      <trkpt lat="47.90102" lon="6.93989">
        <ele>721</ele>
        <time>2026-05-09T17:06:43.981Z</time>
      </trkpt>
      <trkpt lat="47.90101" lon="6.93987">
        <ele>721</ele>
        <time>2026-05-09T17:06:44.981Z</time>
      </trkpt>
      <trkpt lat="47.901" lon="6.93986">
        <ele>721</ele>
        <time>2026-05-09T17:06:45.981Z</time>
      </trkpt>
      <trkpt lat="47.90099" lon="6.93985">
        <ele>722</ele>
        <time>2026-05-09T17:06:46.981Z</time>
      </trkpt>
      <trkpt lat="47.90098" lon="6.93985">
        <ele>722</ele>
        <time>2026-05-09T17:06:47.981Z</time>
      </trkpt>
      <trkpt lat="47.90097" lon="6.93984">
        <ele>722</ele>
        <time>2026-05-09T17:06:48.982Z</time>
      </trkpt>
      <trkpt lat="47.90097" lon="6.93983">
        <ele>723</ele>
        <time>2026-05-09T17:06:49.982Z</time>
      </trkpt>
      <trkpt lat="47.90096" lon="6.93982">
        <ele>723</ele>
        <time>2026-05-09T17:06:50.981Z</time>
      </trkpt>
      <trkpt lat="47.90094" lon="6.93981">
        <ele>723</ele>
        <time>2026-05-09T17:06:51.981Z</time>
      </trkpt>
      <trkpt lat="47.90092" lon="6.93981">
        <ele>724</ele>
        <time>2026-05-09T17:06:52.981Z</time>
      </trkpt>
      <trkpt lat="47.90091" lon="6.93981">
        <ele>724</ele>
        <time>2026-05-09T17:06:53.981Z</time>
      </trkpt>
      <trkpt lat="47.9009" lon="6.93981">
        <ele>724</ele>
        <time>2026-05-09T17:06:54.981Z</time>
      </trkpt>
      <trkpt lat="47.90089" lon="6.9398">
        <ele>725</ele>
        <time>2026-05-09T17:06:55.982Z</time>
      </trkpt>
      <trkpt lat="47.90089" lon="6.93979">
        <ele>726</ele>
        <time>2026-05-09T17:06:56.982Z</time>
      </trkpt>
      <trkpt lat="47.90088" lon="6.93978">
        <ele>727</ele>
        <time>2026-05-09T17:06:57.981Z</time>
      </trkpt>
      <trkpt lat="47.90086" lon="6.93978">
        <ele>728</ele>
        <time>2026-05-09T17:06:58.981Z</time>
      </trkpt>
      <trkpt lat="47.90085" lon="6.93978">
        <ele>730</ele>
        <time>2026-05-09T17:06:59.982Z</time>
      </trkpt>
      <trkpt lat="47.90083" lon="6.93978">
        <ele>730</ele>
        <time>2026-05-09T17:07:00.981Z</time>
      </trkpt>
      <trkpt lat="47.90081" lon="6.93979">
        <ele>731</ele>
        <time>2026-05-09T17:07:01.982Z</time>
      </trkpt>
      <trkpt lat="47.90079" lon="6.93979">
        <ele>732</ele>
        <time>2026-05-09T17:07:02.981Z</time>
      </trkpt>
      <trkpt lat="47.90079" lon="6.9398">
        <ele>732</ele>
        <time>2026-05-09T17:07:03.981Z</time>
      </trkpt>
      <trkpt lat="47.90078" lon="6.93979">
        <ele>733</ele>
        <time>2026-05-09T17:07:04.982Z</time>
      </trkpt>
      <trkpt lat="47.90077" lon="6.93979">
        <ele>733</ele>
        <time>2026-05-09T17:07:05.981Z</time>
      </trkpt>
      <trkpt lat="47.90077" lon="6.93979">
        <ele>733</ele>
        <time>2026-05-09T17:07:06.982Z</time>
      </trkpt>
      <trkpt lat="47.90077" lon="6.93979">
        <ele>734</ele>
        <time>2026-05-09T17:07:07.981Z</time>
      </trkpt>
      <trkpt lat="47.90077" lon="6.93979">
        <ele>734</ele>
        <time>2026-05-09T17:07:08.981Z</time>
      </trkpt>
      <trkpt lat="47.90076" lon="6.93979">
        <ele>733</ele>
        <time>2026-05-09T17:07:09.981Z</time>
      </trkpt>
      <trkpt lat="47.90076" lon="6.93979">
        <ele>733</ele>
        <time>2026-05-09T17:07:10.981Z</time>
      </trkpt>
      <trkpt lat="47.90075" lon="6.93978">
        <ele>733</ele>
        <time>2026-05-09T17:07:11.981Z</time>
      </trkpt>
      <trkpt lat="47.90075" lon="6.93978">
        <ele>733</ele>
        <time>2026-05-09T17:07:12.981Z</time>
      </trkpt>
      <trkpt lat="47.90075" lon="6.93977">
        <ele>732</ele>
        <time>2026-05-09T17:07:13.981Z</time>
      </trkpt>
      <trkpt lat="47.90076" lon="6.93977">
        <ele>732</ele>
        <time>2026-05-09T17:07:14.981Z</time>
      </trkpt>
      <trkpt lat="47.90076" lon="6.93977">
        <ele>731</ele>
        <time>2026-05-09T17:07:15.981Z</time>
      </trkpt>
      <trkpt lat="47.90076" lon="6.93977">
        <ele>731</ele>
        <time>2026-05-09T17:07:16.981Z</time>
      </trkpt>
      <trkpt lat="47.90071" lon="6.93978">
        <ele>721</ele>
        <time>2026-05-09T17:07:35.436Z</time>
      </trkpt>
      <trkpt lat="47.90072" lon="6.93977">
        <ele>721</ele>
        <time>2026-05-09T17:07:36.436Z</time>
      </trkpt>
      <trkpt lat="47.90072" lon="6.93975">
        <ele>721</ele>
        <time>2026-05-09T17:07:37.436Z</time>
      </trkpt>
      <trkpt lat="47.90072" lon="6.93974">
        <ele>721</ele>
        <time>2026-05-09T17:07:38.435Z</time>
      </trkpt>
      <trkpt lat="47.90072" lon="6.93973">
        <ele>721</ele>
        <time>2026-05-09T17:07:39.435Z</time>
      </trkpt>
      <trkpt lat="47.90073" lon="6.93972">
        <ele>721</ele>
        <time>2026-05-09T17:07:40.435Z</time>
      </trkpt>
      <trkpt lat="47.90073" lon="6.93971">
        <ele>721</ele>
        <time>2026-05-09T17:07:41.435Z</time>
      </trkpt>
      <trkpt lat="47.90074" lon="6.93971">
        <ele>722</ele>
        <time>2026-05-09T17:07:42.436Z</time>
      </trkpt>
      <trkpt lat="47.90074" lon="6.93971">
        <ele>722</ele>
        <time>2026-05-09T17:07:43.435Z</time>
      </trkpt>
      <trkpt lat="47.90074" lon="6.93971">
        <ele>722</ele>
        <time>2026-05-09T17:07:44.435Z</time>
      </trkpt>
      <trkpt lat="47.90073" lon="6.9397">
        <ele>723</ele>
        <time>2026-05-09T17:07:45.435Z</time>
      </trkpt>
      <trkpt lat="47.90073" lon="6.93969">
        <ele>723</ele>
        <time>2026-05-09T17:07:46.435Z</time>
      </trkpt>
      <trkpt lat="47.90072" lon="6.93968">
        <ele>724</ele>
        <time>2026-05-09T17:07:47.436Z</time>
      </trkpt>
      <trkpt lat="47.90072" lon="6.93966">
        <ele>724</ele>
        <time>2026-05-09T17:07:48.435Z</time>
      </trkpt>
      <trkpt lat="47.90072" lon="6.93964">
        <ele>725</ele>
        <time>2026-05-09T17:07:49.436Z</time>
      </trkpt>
      <trkpt lat="47.90071" lon="6.93962">
        <ele>725</ele>
        <time>2026-05-09T17:07:50.436Z</time>
      </trkpt>
      <trkpt lat="47.90071" lon="6.93961">
        <ele>725</ele>
        <time>2026-05-09T17:07:51.435Z</time>
      </trkpt>
      <trkpt lat="47.9007" lon="6.93958">
        <ele>726</ele>
        <time>2026-05-09T17:07:52.435Z</time>
      </trkpt>
      <trkpt lat="47.90069" lon="6.93956">
        <ele>726</ele>
        <time>2026-05-09T17:07:53.436Z</time>
      </trkpt>
      <trkpt lat="47.90068" lon="6.93953">
        <ele>727</ele>
        <time>2026-05-09T17:07:54.435Z</time>
      </trkpt>
      <trkpt lat="47.90068" lon="6.93951">
        <ele>728</ele>
        <time>2026-05-09T17:07:55.435Z</time>
      </trkpt>
      <trkpt lat="47.90067" lon="6.93949">
        <ele>728</ele>
        <time>2026-05-09T17:07:56.435Z</time>
      </trkpt>
      <trkpt lat="47.90066" lon="6.93947">
        <ele>729</ele>
        <time>2026-05-09T17:07:57.436Z</time>
      </trkpt>
      <trkpt lat="47.90066" lon="6.93945">
        <ele>729</ele>
        <time>2026-05-09T17:07:58.435Z</time>
      </trkpt>
      <trkpt lat="47.90065" lon="6.93944">
        <ele>729</ele>
        <time>2026-05-09T17:07:59.435Z</time>
      </trkpt>
      <trkpt lat="47.90064" lon="6.93942">
        <ele>730</ele>
        <time>2026-05-09T17:08:00.436Z</time>
      </trkpt>
      <trkpt lat="47.90064" lon="6.93941">
        <ele>730</ele>
        <time>2026-05-09T17:08:01.435Z</time>
      </trkpt>
      <trkpt lat="47.90062" lon="6.93939">
        <ele>730</ele>
        <time>2026-05-09T17:08:02.435Z</time>
      </trkpt>
      <trkpt lat="47.90061" lon="6.93938">
        <ele>730</ele>
        <time>2026-05-09T17:08:03.435Z</time>
      </trkpt>
      <trkpt lat="47.90061" lon="6.93935">
        <ele>730</ele>
        <time>2026-05-09T17:08:04.436Z</time>
      </trkpt>
      <trkpt lat="47.90061" lon="6.93932">
        <ele>731</ele>
        <time>2026-05-09T17:08:05.435Z</time>
      </trkpt>
      <trkpt lat="47.90061" lon="6.93929">
        <ele>731</ele>
        <time>2026-05-09T17:08:06.435Z</time>
      </trkpt>
      <trkpt lat="47.90062" lon="6.93927">
        <ele>731</ele>
        <time>2026-05-09T17:08:07.436Z</time>
      </trkpt>
      <trkpt lat="47.90061" lon="6.93925">
        <ele>732</ele>
        <time>2026-05-09T17:08:08.435Z</time>
      </trkpt>
      <trkpt lat="47.9006" lon="6.93924">
        <ele>732</ele>
        <time>2026-05-09T17:08:09.435Z</time>
      </trkpt>
      <trkpt lat="47.90059" lon="6.93923">
        <ele>732</ele>
        <time>2026-05-09T17:08:10.436Z</time>
      </trkpt>
      <trkpt lat="47.90057" lon="6.93922">
        <ele>732</ele>
        <time>2026-05-09T17:08:11.435Z</time>
      </trkpt>
      <trkpt lat="47.90057" lon="6.93921">
        <ele>733</ele>
        <time>2026-05-09T17:08:12.435Z</time>
      </trkpt>
      <trkpt lat="47.90056" lon="6.93919">
        <ele>733</ele>
        <time>2026-05-09T17:08:13.435Z</time>
      </trkpt>
      <trkpt lat="47.90055" lon="6.93918">
        <ele>733</ele>
        <time>2026-05-09T17:08:14.435Z</time>
      </trkpt>
      <trkpt lat="47.90054" lon="6.93917">
        <ele>733</ele>
        <time>2026-05-09T17:08:15.435Z</time>
      </trkpt>
      <trkpt lat="47.90053" lon="6.93916">
        <ele>733</ele>
        <time>2026-05-09T17:08:16.436Z</time>
      </trkpt>
      <trkpt lat="47.90053" lon="6.93915">
        <ele>733</ele>
        <time>2026-05-09T17:08:17.435Z</time>
      </trkpt>
      <trkpt lat="47.90053" lon="6.93914">
        <ele>732</ele>
        <time>2026-05-09T17:08:18.435Z</time>
      </trkpt>
      <trkpt lat="47.90053" lon="6.93913">
        <ele>732</ele>
        <time>2026-05-09T17:08:19.436Z</time>
      </trkpt>
      <trkpt lat="47.90053" lon="6.93912">
        <ele>731</ele>
        <time>2026-05-09T17:08:20.435Z</time>
      </trkpt>
      <trkpt lat="47.90052" lon="6.93912">
        <ele>731</ele>
        <time>2026-05-09T17:08:21.435Z</time>
      </trkpt>
      <trkpt lat="47.90052" lon="6.93911">
        <ele>731</ele>
        <time>2026-05-09T17:08:22.435Z</time>
      </trkpt>
      <trkpt lat="47.90051" lon="6.93909">
        <ele>730</ele>
        <time>2026-05-09T17:08:23.435Z</time>
      </trkpt>
      <trkpt lat="47.9005" lon="6.93908">
        <ele>730</ele>
        <time>2026-05-09T17:08:24.435Z</time>
      </trkpt>
      <trkpt lat="47.9005" lon="6.93906">
        <ele>730</ele>
        <time>2026-05-09T17:08:25.435Z</time>
      </trkpt>
      <trkpt lat="47.90049" lon="6.93905">
        <ele>730</ele>
        <time>2026-05-09T17:08:26.435Z</time>
      </trkpt>
      <trkpt lat="47.90049" lon="6.93905">
        <ele>730</ele>
        <time>2026-05-09T17:08:27.436Z</time>
      </trkpt>
      <trkpt lat="47.90048" lon="6.93904">
        <ele>730</ele>
        <time>2026-05-09T17:08:28.436Z</time>
      </trkpt>
      <trkpt lat="47.90048" lon="6.93902">
        <ele>730</ele>
        <time>2026-05-09T17:08:29.436Z</time>
      </trkpt>
      <trkpt lat="47.90049" lon="6.93901">
        <ele>730</ele>
        <time>2026-05-09T17:08:30.436Z</time>
      </trkpt>
      <trkpt lat="47.90049" lon="6.93899">
        <ele>730</ele>
        <time>2026-05-09T17:08:31.435Z</time>
      </trkpt>
      <trkpt lat="47.90048" lon="6.93898">
        <ele>730</ele>
        <time>2026-05-09T17:08:32.436Z</time>
      </trkpt>
      <trkpt lat="47.90047" lon="6.93896">
        <ele>730</ele>
        <time>2026-05-09T17:08:33.436Z</time>
      </trkpt>
      <trkpt lat="47.90046" lon="6.93895">
        <ele>729</ele>
        <time>2026-05-09T17:08:34.436Z</time>
      </trkpt>
      <trkpt lat="47.90045" lon="6.93893">
        <ele>729</ele>
        <time>2026-05-09T17:08:35.436Z</time>
      </trkpt>
      <trkpt lat="47.90045" lon="6.93891">
        <ele>729</ele>
        <time>2026-05-09T17:08:36.436Z</time>
      </trkpt>
      <trkpt lat="47.90045" lon="6.9389">
        <ele>729</ele>
        <time>2026-05-09T17:08:37.435Z</time>
      </trkpt>
      <trkpt lat="47.90046" lon="6.93888">
        <ele>730</ele>
        <time>2026-05-09T17:08:38.436Z</time>
      </trkpt>
      <trkpt lat="47.90046" lon="6.93887">
        <ele>730</ele>
        <time>2026-05-09T17:08:39.435Z</time>
      </trkpt>
      <trkpt lat="47.90046" lon="6.93886">
        <ele>731</ele>
        <time>2026-05-09T17:08:40.435Z</time>
      </trkpt>
      <trkpt lat="47.90047" lon="6.93884">
        <ele>731</ele>
        <time>2026-05-09T17:08:41.435Z</time>
      </trkpt>
      <trkpt lat="47.90047" lon="6.93883">
        <ele>732</ele>
        <time>2026-05-09T17:08:42.435Z</time>
      </trkpt>
      <trkpt lat="47.90048" lon="6.93881">
        <ele>732</ele>
        <time>2026-05-09T17:08:43.435Z</time>
      </trkpt>
      <trkpt lat="47.90048" lon="6.93879">
        <ele>733</ele>
        <time>2026-05-09T17:08:44.435Z</time>
      </trkpt>
      <trkpt lat="47.90047" lon="6.93876">
        <ele>734</ele>
        <time>2026-05-09T17:08:45.435Z</time>
      </trkpt>
      <trkpt lat="47.90047" lon="6.93874">
        <ele>734</ele>
        <time>2026-05-09T17:08:46.435Z</time>
      </trkpt>
      <trkpt lat="47.90047" lon="6.93872">
        <ele>734</ele>
        <time>2026-05-09T17:08:47.435Z</time>
      </trkpt>
      <trkpt lat="47.90047" lon="6.9387">
        <ele>735</ele>
        <time>2026-05-09T17:08:48.435Z</time>
      </trkpt>
      <trkpt lat="47.90046" lon="6.93868">
        <ele>735</ele>
        <time>2026-05-09T17:08:49.436Z</time>
      </trkpt>
      <trkpt lat="47.90045" lon="6.93866">
        <ele>735</ele>
        <time>2026-05-09T17:08:50.435Z</time>
      </trkpt>
      <trkpt lat="47.90044" lon="6.93865">
        <ele>736</ele>
        <time>2026-05-09T17:08:51.436Z</time>
      </trkpt>
      <trkpt lat="47.90044" lon="6.93863">
        <ele>736</ele>
        <time>2026-05-09T17:08:52.436Z</time>
      </trkpt>
      <trkpt lat="47.90045" lon="6.93861">
        <ele>736</ele>
        <time>2026-05-09T17:08:53.436Z</time>
      </trkpt>
      <trkpt lat="47.90045" lon="6.9386">
        <ele>736</ele>
        <time>2026-05-09T17:08:54.435Z</time>
      </trkpt>
      <trkpt lat="47.90045" lon="6.93858">
        <ele>736</ele>
        <time>2026-05-09T17:08:55.435Z</time>
      </trkpt>
      <trkpt lat="47.90044" lon="6.93857">
        <ele>736</ele>
        <time>2026-05-09T17:08:56.435Z</time>
      </trkpt>
      <trkpt lat="47.90044" lon="6.93856">
        <ele>736</ele>
        <time>2026-05-09T17:08:57.436Z</time>
      </trkpt>
      <trkpt lat="47.90042" lon="6.93854">
        <ele>736</ele>
        <time>2026-05-09T17:08:58.436Z</time>
      </trkpt>
      <trkpt lat="47.90041" lon="6.93852">
        <ele>736</ele>
        <time>2026-05-09T17:08:59.435Z</time>
      </trkpt>
      <trkpt lat="47.90039" lon="6.9385">
        <ele>735</ele>
        <time>2026-05-09T17:09:00.435Z</time>
      </trkpt>
      <trkpt lat="47.90039" lon="6.93849">
        <ele>735</ele>
        <time>2026-05-09T17:09:01.435Z</time>
      </trkpt>
      <trkpt lat="47.90038" lon="6.93847">
        <ele>735</ele>
        <time>2026-05-09T17:09:02.435Z</time>
      </trkpt>
      <trkpt lat="47.90036" lon="6.93845">
        <ele>734</ele>
        <time>2026-05-09T17:09:03.436Z</time>
      </trkpt>
      <trkpt lat="47.90035" lon="6.93844">
        <ele>734</ele>
        <time>2026-05-09T17:09:04.435Z</time>
      </trkpt>
      <trkpt lat="47.90034" lon="6.93842">
        <ele>734</ele>
        <time>2026-05-09T17:09:05.435Z</time>
      </trkpt>
      <trkpt lat="47.90034" lon="6.9384">
        <ele>734</ele>
        <time>2026-05-09T17:09:06.435Z</time>
      </trkpt>
      <trkpt lat="47.90033" lon="6.93837">
        <ele>734</ele>
        <time>2026-05-09T17:09:07.435Z</time>
      </trkpt>
      <trkpt lat="47.90032" lon="6.93835">
        <ele>735</ele>
        <time>2026-05-09T17:09:08.435Z</time>
      </trkpt>
      <trkpt lat="47.90032" lon="6.93833">
        <ele>735</ele>
        <time>2026-05-09T17:09:09.435Z</time>
      </trkpt>
      <trkpt lat="47.9003" lon="6.93831">
        <ele>735</ele>
        <time>2026-05-09T17:09:10.435Z</time>
      </trkpt>
      <trkpt lat="47.90029" lon="6.93829">
        <ele>735</ele>
        <time>2026-05-09T17:09:11.436Z</time>
      </trkpt>
      <trkpt lat="47.90027" lon="6.93827">
        <ele>735</ele>
        <time>2026-05-09T17:09:12.435Z</time>
      </trkpt>
      <trkpt lat="47.90025" lon="6.93826">
        <ele>735</ele>
        <time>2026-05-09T17:09:13.436Z</time>
      </trkpt>
      <trkpt lat="47.90024" lon="6.93825">
        <ele>734</ele>
        <time>2026-05-09T17:09:14.436Z</time>
      </trkpt>
      <trkpt lat="47.90022" lon="6.93823">
        <ele>734</ele>
        <time>2026-05-09T17:09:15.435Z</time>
      </trkpt>
      <trkpt lat="47.90021" lon="6.93821">
        <ele>734</ele>
        <time>2026-05-09T17:09:16.435Z</time>
      </trkpt>
      <trkpt lat="47.9002" lon="6.93819">
        <ele>734</ele>
        <time>2026-05-09T17:09:17.436Z</time>
      </trkpt>
      <trkpt lat="47.9002" lon="6.93817">
        <ele>734</ele>
        <time>2026-05-09T17:09:18.436Z</time>
      </trkpt>
      <trkpt lat="47.90019" lon="6.93815">
        <ele>734</ele>
        <time>2026-05-09T17:09:19.435Z</time>
      </trkpt>
      <trkpt lat="47.90019" lon="6.93813">
        <ele>734</ele>
        <time>2026-05-09T17:09:20.435Z</time>
      </trkpt>
      <trkpt lat="47.90019" lon="6.93811">
        <ele>734</ele>
        <time>2026-05-09T17:09:21.435Z</time>
      </trkpt>
      <trkpt lat="47.90018" lon="6.9381">
        <ele>734</ele>
        <time>2026-05-09T17:09:22.435Z</time>
      </trkpt>
      <trkpt lat="47.90018" lon="6.93808">
        <ele>734</ele>
        <time>2026-05-09T17:09:23.435Z</time>
      </trkpt>
      <trkpt lat="47.90016" lon="6.93807">
        <ele>734</ele>
        <time>2026-05-09T17:09:24.435Z</time>
      </trkpt>
      <trkpt lat="47.90016" lon="6.93805">
        <ele>734</ele>
        <time>2026-05-09T17:09:25.435Z</time>
      </trkpt>
      <trkpt lat="47.90014" lon="6.93803">
        <ele>734</ele>
        <time>2026-05-09T17:09:26.436Z</time>
      </trkpt>
      <trkpt lat="47.90014" lon="6.93801">
        <ele>734</ele>
        <time>2026-05-09T17:09:27.436Z</time>
      </trkpt>
      <trkpt lat="47.90012" lon="6.93799">
        <ele>734</ele>
        <time>2026-05-09T17:09:28.436Z</time>
      </trkpt>
      <trkpt lat="47.90011" lon="6.93797">
        <ele>734</ele>
        <time>2026-05-09T17:09:29.435Z</time>
      </trkpt>
      <trkpt lat="47.90011" lon="6.93795">
        <ele>735</ele>
        <time>2026-05-09T17:09:30.436Z</time>
      </trkpt>
      <trkpt lat="47.9001" lon="6.93793">
        <ele>735</ele>
        <time>2026-05-09T17:09:31.435Z</time>
      </trkpt>
      <trkpt lat="47.9001" lon="6.9379">
        <ele>736</ele>
        <time>2026-05-09T17:09:32.436Z</time>
      </trkpt>
      <trkpt lat="47.90009" lon="6.93789">
        <ele>736</ele>
        <time>2026-05-09T17:09:33.435Z</time>
      </trkpt>
      <trkpt lat="47.90008" lon="6.93787">
        <ele>736</ele>
        <time>2026-05-09T17:09:34.436Z</time>
      </trkpt>
      <trkpt lat="47.90007" lon="6.93786">
        <ele>737</ele>
        <time>2026-05-09T17:09:35.435Z</time>
      </trkpt>
      <trkpt lat="47.90007" lon="6.93784">
        <ele>737</ele>
        <time>2026-05-09T17:09:36.435Z</time>
      </trkpt>
      <trkpt lat="47.90006" lon="6.93783">
        <ele>737</ele>
        <time>2026-05-09T17:09:37.435Z</time>
      </trkpt>
      <trkpt lat="47.90005" lon="6.93782">
        <ele>737</ele>
        <time>2026-05-09T17:09:38.435Z</time>
      </trkpt>
      <trkpt lat="47.90004" lon="6.93781">
        <ele>738</ele>
        <time>2026-05-09T17:09:39.435Z</time>
      </trkpt>
      <trkpt lat="47.90003" lon="6.9378">
        <ele>738</ele>
        <time>2026-05-09T17:09:40.435Z</time>
      </trkpt>
      <trkpt lat="47.90001" lon="6.93778">
        <ele>738</ele>
        <time>2026-05-09T17:09:41.435Z</time>
      </trkpt>
      <trkpt lat="47.89999" lon="6.93778">
        <ele>739</ele>
        <time>2026-05-09T17:09:42.436Z</time>
      </trkpt>
      <trkpt lat="47.89997" lon="6.93776">
        <ele>739</ele>
        <time>2026-05-09T17:09:43.436Z</time>
      </trkpt>
      <trkpt lat="47.89996" lon="6.93775">
        <ele>739</ele>
        <time>2026-05-09T17:09:44.436Z</time>
      </trkpt>
      <trkpt lat="47.89995" lon="6.93773">
        <ele>740</ele>
        <time>2026-05-09T17:09:45.436Z</time>
      </trkpt>
      <trkpt lat="47.89994" lon="6.93772">
        <ele>740</ele>
        <time>2026-05-09T17:09:46.436Z</time>
      </trkpt>
      <trkpt lat="47.89994" lon="6.9377">
        <ele>740</ele>
        <time>2026-05-09T17:09:47.436Z</time>
      </trkpt>
      <trkpt lat="47.89994" lon="6.93769">
        <ele>741</ele>
        <time>2026-05-09T17:09:48.435Z</time>
      </trkpt>
      <trkpt lat="47.89993" lon="6.93767">
        <ele>742</ele>
        <time>2026-05-09T17:09:49.435Z</time>
      </trkpt>
      <trkpt lat="47.89993" lon="6.93765">
        <ele>742</ele>
        <time>2026-05-09T17:09:50.435Z</time>
      </trkpt>
      <trkpt lat="47.89992" lon="6.93763">
        <ele>743</ele>
        <time>2026-05-09T17:09:51.435Z</time>
      </trkpt>
      <trkpt lat="47.89992" lon="6.93761">
        <ele>743</ele>
        <time>2026-05-09T17:09:52.435Z</time>
      </trkpt>
      <trkpt lat="47.89991" lon="6.93759">
        <ele>743</ele>
        <time>2026-05-09T17:09:53.435Z</time>
      </trkpt>
      <trkpt lat="47.8999" lon="6.93758">
        <ele>743</ele>
        <time>2026-05-09T17:09:54.435Z</time>
      </trkpt>
      <trkpt lat="47.89989" lon="6.93756">
        <ele>742</ele>
        <time>2026-05-09T17:09:55.435Z</time>
      </trkpt>
      <trkpt lat="47.89989" lon="6.93754">
        <ele>742</ele>
        <time>2026-05-09T17:09:56.435Z</time>
      </trkpt>
      <trkpt lat="47.89988" lon="6.93753">
        <ele>742</ele>
        <time>2026-05-09T17:09:57.435Z</time>
      </trkpt>
      <trkpt lat="47.89987" lon="6.93751">
        <ele>742</ele>
        <time>2026-05-09T17:09:58.435Z</time>
      </trkpt>
      <trkpt lat="47.89986" lon="6.9375">
        <ele>742</ele>
        <time>2026-05-09T17:09:59.436Z</time>
      </trkpt>
      <trkpt lat="47.89985" lon="6.93748">
        <ele>741</ele>
        <time>2026-05-09T17:10:00.436Z</time>
      </trkpt>
      <trkpt lat="47.89984" lon="6.93746">
        <ele>741</ele>
        <time>2026-05-09T17:10:01.436Z</time>
      </trkpt>
      <trkpt lat="47.89984" lon="6.93744">
        <ele>741</ele>
        <time>2026-05-09T17:10:02.436Z</time>
      </trkpt>
      <trkpt lat="47.89983" lon="6.93742">
        <ele>741</ele>
        <time>2026-05-09T17:10:03.435Z</time>
      </trkpt>
      <trkpt lat="47.89983" lon="6.9374">
        <ele>741</ele>
        <time>2026-05-09T17:10:04.435Z</time>
      </trkpt>
      <trkpt lat="47.89983" lon="6.93738">
        <ele>740</ele>
        <time>2026-05-09T17:10:05.435Z</time>
      </trkpt>
      <trkpt lat="47.89983" lon="6.93737">
        <ele>740</ele>
        <time>2026-05-09T17:10:06.435Z</time>
      </trkpt>
      <trkpt lat="47.89983" lon="6.93735">
        <ele>740</ele>
        <time>2026-05-09T17:10:07.436Z</time>
      </trkpt>
      <trkpt lat="47.89983" lon="6.93733">
        <ele>739</ele>
        <time>2026-05-09T17:10:08.435Z</time>
      </trkpt>
      <trkpt lat="47.89983" lon="6.93731">
        <ele>739</ele>
        <time>2026-05-09T17:10:09.435Z</time>
      </trkpt>
      <trkpt lat="47.89984" lon="6.93728">
        <ele>738</ele>
        <time>2026-05-09T17:10:10.436Z</time>
      </trkpt>
      <trkpt lat="47.89985" lon="6.93724">
        <ele>738</ele>
        <time>2026-05-09T17:10:11.436Z</time>
      </trkpt>
      <trkpt lat="47.89986" lon="6.93719">
        <ele>738</ele>
        <time>2026-05-09T17:10:12.436Z</time>
      </trkpt>
      <trkpt lat="47.89986" lon="6.93715">
        <ele>738</ele>
        <time>2026-05-09T17:10:13.436Z</time>
      </trkpt>
      <trkpt lat="47.89985" lon="6.9371">
        <ele>738</ele>
        <time>2026-05-09T17:10:14.435Z</time>
      </trkpt>
      <trkpt lat="47.89985" lon="6.93707">
        <ele>738</ele>
        <time>2026-05-09T17:10:15.435Z</time>
      </trkpt>
      <trkpt lat="47.89985" lon="6.93704">
        <ele>738</ele>
        <time>2026-05-09T17:10:16.435Z</time>
      </trkpt>
      <trkpt lat="47.89985" lon="6.93704">
        <ele>738</ele>
        <time>2026-05-09T17:10:17.435Z</time>
      </trkpt>
      <trkpt lat="47.89984" lon="6.93702">
        <ele>738</ele>
        <time>2026-05-09T17:10:18.435Z</time>
      </trkpt>
      <trkpt lat="47.89985" lon="6.93701">
        <ele>738</ele>
        <time>2026-05-09T17:10:19.435Z</time>
      </trkpt>
      <trkpt lat="47.89984" lon="6.93699">
        <ele>738</ele>
        <time>2026-05-09T17:10:20.435Z</time>
      </trkpt>
      <trkpt lat="47.89983" lon="6.93698">
        <ele>738</ele>
        <time>2026-05-09T17:10:21.435Z</time>
      </trkpt>
      <trkpt lat="47.89981" lon="6.93697">
        <ele>738</ele>
        <time>2026-05-09T17:10:22.436Z</time>
      </trkpt>
      <trkpt lat="47.89978" lon="6.93697">
        <ele>739</ele>
        <time>2026-05-09T17:10:23.435Z</time>
      </trkpt>
      <trkpt lat="47.89978" lon="6.93694">
        <ele>738</ele>
        <time>2026-05-09T17:10:24.436Z</time>
      </trkpt>
      <trkpt lat="47.8998" lon="6.9369">
        <ele>738</ele>
        <time>2026-05-09T17:10:25.435Z</time>
      </trkpt>
      <trkpt lat="47.89983" lon="6.93686">
        <ele>738</ele>
        <time>2026-05-09T17:10:26.436Z</time>
      </trkpt>
      <trkpt lat="47.89982" lon="6.93684">
        <ele>739</ele>
        <time>2026-05-09T17:10:27.435Z</time>
      </trkpt>
      <trkpt lat="47.89982" lon="6.93681">
        <ele>739</ele>
        <time>2026-05-09T17:10:28.436Z</time>
      </trkpt>
      <trkpt lat="47.89982" lon="6.93679">
        <ele>739</ele>
        <time>2026-05-09T17:10:29.436Z</time>
      </trkpt>
      <trkpt lat="47.89983" lon="6.93679">
        <ele>739</ele>
        <time>2026-05-09T17:10:30.435Z</time>
      </trkpt>
      <trkpt lat="47.89982" lon="6.93677">
        <ele>739</ele>
        <time>2026-05-09T17:10:31.436Z</time>
      </trkpt>
      <trkpt lat="47.89982" lon="6.93676">
        <ele>739</ele>
        <time>2026-05-09T17:10:32.435Z</time>
      </trkpt>
      <trkpt lat="47.89983" lon="6.93673">
        <ele>739</ele>
        <time>2026-05-09T17:10:33.436Z</time>
      </trkpt>
      <trkpt lat="47.89982" lon="6.93673">
        <ele>739</ele>
        <time>2026-05-09T17:10:34.435Z</time>
      </trkpt>
      <trkpt lat="47.89979" lon="6.93671">
        <ele>739</ele>
        <time>2026-05-09T17:10:35.435Z</time>
      </trkpt>
      <trkpt lat="47.89979" lon="6.93669">
        <ele>739</ele>
        <time>2026-05-09T17:10:36.435Z</time>
      </trkpt>
      <trkpt lat="47.89979" lon="6.93666">
        <ele>739</ele>
        <time>2026-05-09T17:10:37.436Z</time>
      </trkpt>
      <trkpt lat="47.89978" lon="6.93664">
        <ele>739</ele>
        <time>2026-05-09T17:10:38.435Z</time>
      </trkpt>
      <trkpt lat="47.89977" lon="6.93665">
        <ele>739</ele>
        <time>2026-05-09T17:10:39.435Z</time>
      </trkpt>
      <trkpt lat="47.89977" lon="6.93664">
        <ele>739</ele>
        <time>2026-05-09T17:10:40.435Z</time>
      </trkpt>
      <trkpt lat="47.89976" lon="6.93662">
        <ele>739</ele>
        <time>2026-05-09T17:10:41.436Z</time>
      </trkpt>
      <trkpt lat="47.89975" lon="6.93661">
        <ele>740</ele>
        <time>2026-05-09T17:10:42.435Z</time>
      </trkpt>
      <trkpt lat="47.89973" lon="6.9366">
        <ele>740</ele>
        <time>2026-05-09T17:10:43.436Z</time>
      </trkpt>
      <trkpt lat="47.89971" lon="6.93658">
        <ele>741</ele>
        <time>2026-05-09T17:10:44.435Z</time>
      </trkpt>
      <trkpt lat="47.89971" lon="6.93657">
        <ele>742</ele>
        <time>2026-05-09T17:10:45.436Z</time>
      </trkpt>
      <trkpt lat="47.8997" lon="6.93656">
        <ele>742</ele>
        <time>2026-05-09T17:10:46.436Z</time>
      </trkpt>
      <trkpt lat="47.8997" lon="6.93654">
        <ele>742</ele>
        <time>2026-05-09T17:10:47.436Z</time>
      </trkpt>
      <trkpt lat="47.89969" lon="6.93653">
        <ele>743</ele>
        <time>2026-05-09T17:10:48.436Z</time>
      </trkpt>
      <trkpt lat="47.8997" lon="6.9365">
        <ele>743</ele>
        <time>2026-05-09T17:10:49.435Z</time>
      </trkpt>
      <trkpt lat="47.8997" lon="6.93648">
        <ele>744</ele>
        <time>2026-05-09T17:10:50.436Z</time>
      </trkpt>
      <trkpt lat="47.89969" lon="6.93647">
        <ele>744</ele>
        <time>2026-05-09T17:10:51.435Z</time>
      </trkpt>
      <trkpt lat="47.8997" lon="6.93645">
        <ele>745</ele>
        <time>2026-05-09T17:10:52.436Z</time>
      </trkpt>
      <trkpt lat="47.8997" lon="6.93643">
        <ele>746</ele>
        <time>2026-05-09T17:10:53.435Z</time>
      </trkpt>
      <trkpt lat="47.8997" lon="6.93642">
        <ele>747</ele>
        <time>2026-05-09T17:10:54.435Z</time>
      </trkpt>
      <trkpt lat="47.8997" lon="6.93641">
        <ele>747</ele>
        <time>2026-05-09T17:10:55.435Z</time>
      </trkpt>
      <trkpt lat="47.8997" lon="6.9364">
        <ele>748</ele>
        <time>2026-05-09T17:10:56.436Z</time>
      </trkpt>
      <trkpt lat="47.8997" lon="6.93638">
        <ele>749</ele>
        <time>2026-05-09T17:10:57.435Z</time>
      </trkpt>
      <trkpt lat="47.8997" lon="6.93636">
        <ele>750</ele>
        <time>2026-05-09T17:10:58.435Z</time>
      </trkpt>
      <trkpt lat="47.8997" lon="6.93635">
        <ele>751</ele>
        <time>2026-05-09T17:10:59.435Z</time>
      </trkpt>
      <trkpt lat="47.89969" lon="6.93633">
        <ele>751</ele>
        <time>2026-05-09T17:11:00.436Z</time>
      </trkpt>
      <trkpt lat="47.89968" lon="6.93632">
        <ele>752</ele>
        <time>2026-05-09T17:11:01.435Z</time>
      </trkpt>
      <trkpt lat="47.89968" lon="6.93631">
        <ele>752</ele>
        <time>2026-05-09T17:11:02.436Z</time>
      </trkpt>
      <trkpt lat="47.89967" lon="6.9363">
        <ele>753</ele>
        <time>2026-05-09T17:11:03.436Z</time>
      </trkpt>
      <trkpt lat="47.89966" lon="6.93629">
        <ele>753</ele>
        <time>2026-05-09T17:11:04.435Z</time>
      </trkpt>
      <trkpt lat="47.89965" lon="6.93628">
        <ele>754</ele>
        <time>2026-05-09T17:11:05.436Z</time>
      </trkpt>
      <trkpt lat="47.89965" lon="6.93626">
        <ele>754</ele>
        <time>2026-05-09T17:11:06.435Z</time>
      </trkpt>
      <trkpt lat="47.89965" lon="6.93625">
        <ele>754</ele>
        <time>2026-05-09T17:11:07.436Z</time>
      </trkpt>
      <trkpt lat="47.89965" lon="6.93623">
        <ele>755</ele>
        <time>2026-05-09T17:11:08.435Z</time>
      </trkpt>
      <trkpt lat="47.89965" lon="6.93622">
        <ele>755</ele>
        <time>2026-05-09T17:11:09.436Z</time>
      </trkpt>
      <trkpt lat="47.89965" lon="6.93621">
        <ele>756</ele>
        <time>2026-05-09T17:11:10.435Z</time>
      </trkpt>
      <trkpt lat="47.89965" lon="6.93621">
        <ele>757</ele>
        <time>2026-05-09T17:11:11.436Z</time>
      </trkpt>
      <trkpt lat="47.89965" lon="6.93611">
        <ele>760</ele>
        <time>2026-05-09T17:11:17.839Z</time>
      </trkpt>
      <trkpt lat="47.89965" lon="6.9361">
        <ele>760</ele>
        <time>2026-05-09T17:11:18.838Z</time>
      </trkpt>
      <trkpt lat="47.89966" lon="6.93609">
        <ele>760</ele>
        <time>2026-05-09T17:11:19.838Z</time>
      </trkpt>
      <trkpt lat="47.89966" lon="6.93607">
        <ele>760</ele>
        <time>2026-05-09T17:11:20.839Z</time>
      </trkpt>
      <trkpt lat="47.89966" lon="6.93605">
        <ele>760</ele>
        <time>2026-05-09T17:11:21.838Z</time>
      </trkpt>
      <trkpt lat="47.89966" lon="6.93603">
        <ele>761</ele>
        <time>2026-05-09T17:11:22.838Z</time>
      </trkpt>
      <trkpt lat="47.89966" lon="6.93601">
        <ele>761</ele>
        <time>2026-05-09T17:11:23.839Z</time>
      </trkpt>
      <trkpt lat="47.89966" lon="6.93599">
        <ele>761</ele>
        <time>2026-05-09T17:11:24.838Z</time>
      </trkpt>
      <trkpt lat="47.89966" lon="6.93598">
        <ele>762</ele>
        <time>2026-05-09T17:11:25.838Z</time>
      </trkpt>
      <trkpt lat="47.89965" lon="6.93596">
        <ele>762</ele>
        <time>2026-05-09T17:11:26.839Z</time>
      </trkpt>
      <trkpt lat="47.89965" lon="6.93594">
        <ele>762</ele>
        <time>2026-05-09T17:11:27.838Z</time>
      </trkpt>
      <trkpt lat="47.89965" lon="6.93594">
        <ele>762</ele>
        <time>2026-05-09T17:11:28.838Z</time>
      </trkpt>
      <trkpt lat="47.89965" lon="6.9359">
        <ele>762</ele>
        <time>2026-05-09T17:11:29.839Z</time>
      </trkpt>
      <trkpt lat="47.89963" lon="6.93587">
        <ele>762</ele>
        <time>2026-05-09T17:11:30.838Z</time>
      </trkpt>
      <trkpt lat="47.89963" lon="6.93585">
        <ele>762</ele>
        <time>2026-05-09T17:11:31.838Z</time>
      </trkpt>
      <trkpt lat="47.89964" lon="6.93584">
        <ele>762</ele>
        <time>2026-05-09T17:11:32.838Z</time>
      </trkpt>
      <trkpt lat="47.89963" lon="6.93582">
        <ele>762</ele>
        <time>2026-05-09T17:11:33.839Z</time>
      </trkpt>
      <trkpt lat="47.89964" lon="6.9358">
        <ele>762</ele>
        <time>2026-05-09T17:11:34.838Z</time>
      </trkpt>
      <trkpt lat="47.89963" lon="6.93578">
        <ele>761</ele>
        <time>2026-05-09T17:11:35.838Z</time>
      </trkpt>
      <trkpt lat="47.89963" lon="6.93577">
        <ele>761</ele>
        <time>2026-05-09T17:11:36.839Z</time>
      </trkpt>
      <trkpt lat="47.89963" lon="6.93575">
        <ele>760</ele>
        <time>2026-05-09T17:11:37.839Z</time>
      </trkpt>
      <trkpt lat="47.89963" lon="6.93573">
        <ele>760</ele>
        <time>2026-05-09T17:11:38.838Z</time>
      </trkpt>
      <trkpt lat="47.89963" lon="6.93571">
        <ele>759</ele>
        <time>2026-05-09T17:11:39.838Z</time>
      </trkpt>
      <trkpt lat="47.89963" lon="6.93569">
        <ele>759</ele>
        <time>2026-05-09T17:11:40.838Z</time>
      </trkpt>
      <trkpt lat="47.89963" lon="6.93568">
        <ele>758</ele>
        <time>2026-05-09T17:11:41.838Z</time>
      </trkpt>
      <trkpt lat="47.89962" lon="6.93567">
        <ele>758</ele>
        <time>2026-05-09T17:11:42.838Z</time>
      </trkpt>
      <trkpt lat="47.89961" lon="6.93566">
        <ele>757</ele>
        <time>2026-05-09T17:11:43.838Z</time>
      </trkpt>
      <trkpt lat="47.89959" lon="6.93565">
        <ele>756</ele>
        <time>2026-05-09T17:11:44.838Z</time>
      </trkpt>
      <trkpt lat="47.89958" lon="6.93564">
        <ele>756</ele>
        <time>2026-05-09T17:11:45.838Z</time>
      </trkpt>
      <trkpt lat="47.89957" lon="6.93563">
        <ele>755</ele>
        <time>2026-05-09T17:11:46.838Z</time>
      </trkpt>
      <trkpt lat="47.89957" lon="6.93561">
        <ele>755</ele>
        <time>2026-05-09T17:11:47.839Z</time>
      </trkpt>
      <trkpt lat="47.89956" lon="6.9356">
        <ele>754</ele>
        <time>2026-05-09T17:11:48.838Z</time>
      </trkpt>
      <trkpt lat="47.89955" lon="6.93559">
        <ele>754</ele>
        <time>2026-05-09T17:11:49.838Z</time>
      </trkpt>
      <trkpt lat="47.89954" lon="6.93558">
        <ele>754</ele>
        <time>2026-05-09T17:11:50.838Z</time>
      </trkpt>
      <trkpt lat="47.89954" lon="6.93556">
        <ele>753</ele>
        <time>2026-05-09T17:11:51.839Z</time>
      </trkpt>
      <trkpt lat="47.89954" lon="6.93555">
        <ele>753</ele>
        <time>2026-05-09T17:11:52.838Z</time>
      </trkpt>
      <trkpt lat="47.89954" lon="6.93555">
        <ele>753</ele>
        <time>2026-05-09T17:11:53.839Z</time>
      </trkpt>
      <trkpt lat="47.89955" lon="6.93552">
        <ele>753</ele>
        <time>2026-05-09T17:11:54.838Z</time>
      </trkpt>
      <trkpt lat="47.89954" lon="6.93551">
        <ele>753</ele>
        <time>2026-05-09T17:11:55.839Z</time>
      </trkpt>
      <trkpt lat="47.89954" lon="6.93549">
        <ele>752</ele>
        <time>2026-05-09T17:11:56.838Z</time>
      </trkpt>
      <trkpt lat="47.89954" lon="6.93549">
        <ele>752</ele>
        <time>2026-05-09T17:11:57.839Z</time>
      </trkpt>
      <trkpt lat="47.89954" lon="6.93545">
        <ele>751</ele>
        <time>2026-05-09T17:11:58.838Z</time>
      </trkpt>
      <trkpt lat="47.89954" lon="6.93543">
        <ele>751</ele>
        <time>2026-05-09T17:11:59.839Z</time>
      </trkpt>
      <trkpt lat="47.89954" lon="6.9354">
        <ele>751</ele>
        <time>2026-05-09T17:12:00.838Z</time>
      </trkpt>
      <trkpt lat="47.89954" lon="6.93538">
        <ele>751</ele>
        <time>2026-05-09T17:12:01.838Z</time>
      </trkpt>
      <trkpt lat="47.89954" lon="6.93537">
        <ele>751</ele>
        <time>2026-05-09T17:12:02.839Z</time>
      </trkpt>
      <trkpt lat="47.89953" lon="6.93535">
        <ele>752</ele>
        <time>2026-05-09T17:12:03.839Z</time>
      </trkpt>
      <trkpt lat="47.89953" lon="6.93534">
        <ele>752</ele>
        <time>2026-05-09T17:12:04.838Z</time>
      </trkpt>
      <trkpt lat="47.89952" lon="6.93533">
        <ele>752</ele>
        <time>2026-05-09T17:12:05.838Z</time>
      </trkpt>
      <trkpt lat="47.89951" lon="6.93532">
        <ele>752</ele>
        <time>2026-05-09T17:12:06.838Z</time>
      </trkpt>
      <trkpt lat="47.8995" lon="6.93531">
        <ele>752</ele>
        <time>2026-05-09T17:12:07.838Z</time>
      </trkpt>
      <trkpt lat="47.89949" lon="6.9353">
        <ele>752</ele>
        <time>2026-05-09T17:12:08.838Z</time>
      </trkpt>
      <trkpt lat="47.89949" lon="6.93528">
        <ele>752</ele>
        <time>2026-05-09T17:12:09.838Z</time>
      </trkpt>
      <trkpt lat="47.8995" lon="6.93526">
        <ele>752</ele>
        <time>2026-05-09T17:12:10.838Z</time>
      </trkpt>
      <trkpt lat="47.8995" lon="6.93525">
        <ele>753</ele>
        <time>2026-05-09T17:12:11.838Z</time>
      </trkpt>
      <trkpt lat="47.8995" lon="6.93523">
        <ele>753</ele>
        <time>2026-05-09T17:12:12.838Z</time>
      </trkpt>
      <trkpt lat="47.8995" lon="6.93522">
        <ele>754</ele>
        <time>2026-05-09T17:12:13.838Z</time>
      </trkpt>
      <trkpt lat="47.8995" lon="6.93521">
        <ele>754</ele>
        <time>2026-05-09T17:12:14.839Z</time>
      </trkpt>
      <trkpt lat="47.8995" lon="6.9352">
        <ele>754</ele>
        <time>2026-05-09T17:12:15.838Z</time>
      </trkpt>
      <trkpt lat="47.8995" lon="6.93518">
        <ele>755</ele>
        <time>2026-05-09T17:12:16.838Z</time>
      </trkpt>
      <trkpt lat="47.8995" lon="6.93517">
        <ele>755</ele>
        <time>2026-05-09T17:12:17.838Z</time>
      </trkpt>
      <trkpt lat="47.8995" lon="6.93517">
        <ele>755</ele>
        <time>2026-05-09T17:12:18.839Z</time>
      </trkpt>
      <trkpt lat="47.89949" lon="6.93514">
        <ele>756</ele>
        <time>2026-05-09T17:12:19.838Z</time>
      </trkpt>
      <trkpt lat="47.89949" lon="6.93514">
        <ele>757</ele>
        <time>2026-05-09T17:12:20.838Z</time>
      </trkpt>
      <trkpt lat="47.89948" lon="6.93512">
        <ele>757</ele>
        <time>2026-05-09T17:12:21.838Z</time>
      </trkpt>
      <trkpt lat="47.89948" lon="6.93512">
        <ele>757</ele>
        <time>2026-05-09T17:12:22.838Z</time>
      </trkpt>
      <trkpt lat="47.89947" lon="6.93509">
        <ele>758</ele>
        <time>2026-05-09T17:12:23.838Z</time>
      </trkpt>
      <trkpt lat="47.89947" lon="6.93508">
        <ele>759</ele>
        <time>2026-05-09T17:12:24.838Z</time>
      </trkpt>
      <trkpt lat="47.89948" lon="6.93506">
        <ele>759</ele>
        <time>2026-05-09T17:12:25.838Z</time>
      </trkpt>
      <trkpt lat="47.89949" lon="6.93504">
        <ele>759</ele>
        <time>2026-05-09T17:12:26.838Z</time>
      </trkpt>
      <trkpt lat="47.89947" lon="6.93504">
        <ele>759</ele>
        <time>2026-05-09T17:12:27.839Z</time>
      </trkpt>
      <trkpt lat="47.89946" lon="6.93503">
        <ele>759</ele>
        <time>2026-05-09T17:12:28.838Z</time>
      </trkpt>
      <trkpt lat="47.89946" lon="6.93501">
        <ele>759</ele>
        <time>2026-05-09T17:12:29.838Z</time>
      </trkpt>
      <trkpt lat="47.89946" lon="6.935">
        <ele>760</ele>
        <time>2026-05-09T17:12:30.839Z</time>
      </trkpt>
      <trkpt lat="47.89946" lon="6.93499">
        <ele>759</ele>
        <time>2026-05-09T17:12:31.838Z</time>
      </trkpt>
      <trkpt lat="47.89945" lon="6.93497">
        <ele>759</ele>
        <time>2026-05-09T17:12:32.839Z</time>
      </trkpt>
      <trkpt lat="47.89945" lon="6.93496">
        <ele>759</ele>
        <time>2026-05-09T17:12:33.838Z</time>
      </trkpt>
      <trkpt lat="47.89945" lon="6.93494">
        <ele>759</ele>
        <time>2026-05-09T17:12:34.839Z</time>
      </trkpt>
      <trkpt lat="47.89944" lon="6.93493">
        <ele>759</ele>
        <time>2026-05-09T17:12:35.838Z</time>
      </trkpt>
      <trkpt lat="47.89944" lon="6.93491">
        <ele>759</ele>
        <time>2026-05-09T17:12:36.839Z</time>
      </trkpt>
      <trkpt lat="47.89943" lon="6.93489">
        <ele>759</ele>
        <time>2026-05-09T17:12:37.839Z</time>
      </trkpt>
      <trkpt lat="47.89943" lon="6.93489">
        <ele>759</ele>
        <time>2026-05-09T17:12:38.839Z</time>
      </trkpt>
      <trkpt lat="47.89945" lon="6.93485">
        <ele>759</ele>
        <time>2026-05-09T17:12:39.838Z</time>
      </trkpt>
      <trkpt lat="47.89943" lon="6.93485">
        <ele>759</ele>
        <time>2026-05-09T17:12:40.838Z</time>
      </trkpt>
      <trkpt lat="47.89943" lon="6.93483">
        <ele>759</ele>
        <time>2026-05-09T17:12:41.838Z</time>
      </trkpt>
      <trkpt lat="47.89943" lon="6.93483">
        <ele>759</ele>
        <time>2026-05-09T17:12:42.839Z</time>
      </trkpt>
      <trkpt lat="47.89943" lon="6.93482">
        <ele>759</ele>
        <time>2026-05-09T17:12:43.838Z</time>
      </trkpt>
      <trkpt lat="47.89942" lon="6.93479">
        <ele>759</ele>
        <time>2026-05-09T17:12:44.838Z</time>
      </trkpt>
      <trkpt lat="47.89941" lon="6.93478">
        <ele>759</ele>
        <time>2026-05-09T17:12:45.839Z</time>
      </trkpt>
      <trkpt lat="47.89941" lon="6.93477">
        <ele>759</ele>
        <time>2026-05-09T17:12:46.838Z</time>
      </trkpt>
      <trkpt lat="47.8994" lon="6.93476">
        <ele>759</ele>
        <time>2026-05-09T17:12:47.839Z</time>
      </trkpt>
      <trkpt lat="47.89939" lon="6.93475">
        <ele>759</ele>
        <time>2026-05-09T17:12:48.838Z</time>
      </trkpt>
      <trkpt lat="47.89937" lon="6.93475">
        <ele>758</ele>
        <time>2026-05-09T17:12:49.839Z</time>
      </trkpt>
      <trkpt lat="47.89936" lon="6.93474">
        <ele>758</ele>
        <time>2026-05-09T17:12:50.838Z</time>
      </trkpt>
      <trkpt lat="47.89936" lon="6.93474">
        <ele>758</ele>
        <time>2026-05-09T17:12:51.839Z</time>
      </trkpt>
      <trkpt lat="47.89934" lon="6.93473">
        <ele>758</ele>
        <time>2026-05-09T17:12:52.838Z</time>
      </trkpt>
      <trkpt lat="47.89933" lon="6.93474">
        <ele>758</ele>
        <time>2026-05-09T17:12:53.839Z</time>
      </trkpt>
      <trkpt lat="47.89931" lon="6.93474">
        <ele>759</ele>
        <time>2026-05-09T17:12:54.838Z</time>
      </trkpt>
      <trkpt lat="47.8993" lon="6.93474">
        <ele>759</ele>
        <time>2026-05-09T17:12:55.838Z</time>
      </trkpt>
      <trkpt lat="47.89928" lon="6.93474">
        <ele>759</ele>
        <time>2026-05-09T17:12:56.839Z</time>
      </trkpt>
      <trkpt lat="47.89927" lon="6.93472">
        <ele>759</ele>
        <time>2026-05-09T17:12:57.838Z</time>
      </trkpt>
      <trkpt lat="47.89927" lon="6.93472">
        <ele>759</ele>
        <time>2026-05-09T17:12:58.838Z</time>
      </trkpt>
      <trkpt lat="47.89925" lon="6.9347">
        <ele>760</ele>
        <time>2026-05-09T17:12:59.839Z</time>
      </trkpt>
      <trkpt lat="47.89924" lon="6.93469">
        <ele>760</ele>
        <time>2026-05-09T17:13:00.838Z</time>
      </trkpt>
      <trkpt lat="47.89924" lon="6.93468">
        <ele>760</ele>
        <time>2026-05-09T17:13:01.838Z</time>
      </trkpt>
      <trkpt lat="47.89923" lon="6.93466">
        <ele>761</ele>
        <time>2026-05-09T17:13:02.838Z</time>
      </trkpt>
      <trkpt lat="47.89923" lon="6.93466">
        <ele>761</ele>
        <time>2026-05-09T17:13:03.838Z</time>
      </trkpt>
      <trkpt lat="47.89923" lon="6.93465">
        <ele>762</ele>
        <time>2026-05-09T17:13:04.838Z</time>
      </trkpt>
      <trkpt lat="47.89923" lon="6.93464">
        <ele>762</ele>
        <time>2026-05-09T17:13:05.839Z</time>
      </trkpt>
      <trkpt lat="47.89923" lon="6.93463">
        <ele>762</ele>
        <time>2026-05-09T17:13:06.838Z</time>
      </trkpt>
      <trkpt lat="47.89923" lon="6.93461">
        <ele>763</ele>
        <time>2026-05-09T17:13:07.838Z</time>
      </trkpt>
      <trkpt lat="47.89922" lon="6.9346">
        <ele>763</ele>
        <time>2026-05-09T17:13:08.838Z</time>
      </trkpt>
      <trkpt lat="47.89921" lon="6.93458">
        <ele>763</ele>
        <time>2026-05-09T17:13:09.839Z</time>
      </trkpt>
      <trkpt lat="47.89921" lon="6.93456">
        <ele>763</ele>
        <time>2026-05-09T17:13:10.838Z</time>
      </trkpt>
      <trkpt lat="47.89921" lon="6.93456">
        <ele>763</ele>
        <time>2026-05-09T17:13:11.838Z</time>
      </trkpt>
      <trkpt lat="47.8992" lon="6.93455">
        <ele>763</ele>
        <time>2026-05-09T17:13:12.839Z</time>
      </trkpt>
      <trkpt lat="47.89918" lon="6.93453">
        <ele>763</ele>
        <time>2026-05-09T17:13:13.838Z</time>
      </trkpt>
      <trkpt lat="47.89917" lon="6.93452">
        <ele>764</ele>
        <time>2026-05-09T17:13:14.838Z</time>
      </trkpt>
      <trkpt lat="47.89916" lon="6.93451">
        <ele>764</ele>
        <time>2026-05-09T17:13:15.838Z</time>
      </trkpt>
      <trkpt lat="47.89915" lon="6.9345">
        <ele>764</ele>
        <time>2026-05-09T17:13:16.838Z</time>
      </trkpt>
      <trkpt lat="47.89915" lon="6.93448">
        <ele>764</ele>
        <time>2026-05-09T17:13:17.839Z</time>
      </trkpt>
      <trkpt lat="47.89914" lon="6.93448">
        <ele>764</ele>
        <time>2026-05-09T17:13:18.839Z</time>
      </trkpt>
      <trkpt lat="47.89913" lon="6.93448">
        <ele>764</ele>
        <time>2026-05-09T17:13:19.838Z</time>
      </trkpt>
      <trkpt lat="47.89914" lon="6.93446">
        <ele>764</ele>
        <time>2026-05-09T17:13:20.838Z</time>
      </trkpt>
      <trkpt lat="47.89913" lon="6.93444">
        <ele>764</ele>
        <time>2026-05-09T17:13:21.838Z</time>
      </trkpt>
      <trkpt lat="47.89913" lon="6.93444">
        <ele>764</ele>
        <time>2026-05-09T17:13:22.838Z</time>
      </trkpt>
      <trkpt lat="47.89913" lon="6.93444">
        <ele>764</ele>
        <time>2026-05-09T17:13:23.838Z</time>
      </trkpt>
      <trkpt lat="47.89913" lon="6.93442">
        <ele>764</ele>
        <time>2026-05-09T17:13:24.838Z</time>
      </trkpt>
      <trkpt lat="47.89913" lon="6.93441">
        <ele>764</ele>
        <time>2026-05-09T17:13:25.838Z</time>
      </trkpt>
      <trkpt lat="47.89912" lon="6.9344">
        <ele>764</ele>
        <time>2026-05-09T17:13:26.838Z</time>
      </trkpt>
      <trkpt lat="47.89912" lon="6.93438">
        <ele>764</ele>
        <time>2026-05-09T17:13:27.838Z</time>
      </trkpt>
      <trkpt lat="47.89912" lon="6.93438">
        <ele>764</ele>
        <time>2026-05-09T17:13:28.838Z</time>
      </trkpt>
      <trkpt lat="47.89912" lon="6.93436">
        <ele>764</ele>
        <time>2026-05-09T17:13:29.838Z</time>
      </trkpt>
      <trkpt lat="47.89912" lon="6.93434">
        <ele>764</ele>
        <time>2026-05-09T17:13:30.838Z</time>
      </trkpt>
      <trkpt lat="47.89912" lon="6.93431">
        <ele>764</ele>
        <time>2026-05-09T17:13:31.838Z</time>
      </trkpt>
      <trkpt lat="47.89911" lon="6.93428">
        <ele>764</ele>
        <time>2026-05-09T17:13:32.838Z</time>
      </trkpt>
      <trkpt lat="47.89911" lon="6.93426">
        <ele>764</ele>
        <time>2026-05-09T17:13:33.838Z</time>
      </trkpt>
      <trkpt lat="47.8991" lon="6.93424">
        <ele>764</ele>
        <time>2026-05-09T17:13:34.838Z</time>
      </trkpt>
      <trkpt lat="47.89909" lon="6.93422">
        <ele>764</ele>
        <time>2026-05-09T17:13:35.838Z</time>
      </trkpt>
      <trkpt lat="47.89908" lon="6.9342">
        <ele>765</ele>
        <time>2026-05-09T17:13:36.838Z</time>
      </trkpt>
      <trkpt lat="47.89907" lon="6.93418">
        <ele>765</ele>
        <time>2026-05-09T17:13:37.839Z</time>
      </trkpt>
      <trkpt lat="47.89906" lon="6.93416">
        <ele>765</ele>
        <time>2026-05-09T17:13:38.838Z</time>
      </trkpt>
      <trkpt lat="47.89907" lon="6.93414">
        <ele>765</ele>
        <time>2026-05-09T17:13:39.838Z</time>
      </trkpt>
      <trkpt lat="47.89907" lon="6.93411">
        <ele>765</ele>
        <time>2026-05-09T17:13:40.838Z</time>
      </trkpt>
      <trkpt lat="47.89907" lon="6.93409">
        <ele>765</ele>
        <time>2026-05-09T17:13:41.838Z</time>
      </trkpt>
      <trkpt lat="47.89907" lon="6.93407">
        <ele>765</ele>
        <time>2026-05-09T17:13:42.838Z</time>
      </trkpt>
      <trkpt lat="47.89906" lon="6.93406">
        <ele>765</ele>
        <time>2026-05-09T17:13:43.838Z</time>
      </trkpt>
      <trkpt lat="47.89905" lon="6.93405">
        <ele>765</ele>
        <time>2026-05-09T17:13:44.838Z</time>
      </trkpt>
      <trkpt lat="47.89905" lon="6.93404">
        <ele>765</ele>
        <time>2026-05-09T17:13:45.839Z</time>
      </trkpt>
      <trkpt lat="47.89906" lon="6.93403">
        <ele>765</ele>
        <time>2026-05-09T17:13:46.839Z</time>
      </trkpt>
      <trkpt lat="47.89906" lon="6.93401">
        <ele>766</ele>
        <time>2026-05-09T17:13:47.838Z</time>
      </trkpt>
      <trkpt lat="47.89906" lon="6.93401">
        <ele>766</ele>
        <time>2026-05-09T17:13:48.839Z</time>
      </trkpt>
      <trkpt lat="47.89905" lon="6.93399">
        <ele>766</ele>
        <time>2026-05-09T17:13:49.838Z</time>
      </trkpt>
      <trkpt lat="47.89905" lon="6.93397">
        <ele>766</ele>
        <time>2026-05-09T17:13:50.838Z</time>
      </trkpt>
      <trkpt lat="47.89904" lon="6.93395">
        <ele>766</ele>
        <time>2026-05-09T17:13:51.838Z</time>
      </trkpt>
      <trkpt lat="47.89903" lon="6.93394">
        <ele>766</ele>
        <time>2026-05-09T17:13:52.838Z</time>
      </trkpt>
      <trkpt lat="47.89903" lon="6.93394">
        <ele>766</ele>
        <time>2026-05-09T17:13:53.838Z</time>
      </trkpt>
      <trkpt lat="47.89905" lon="6.93392">
        <ele>766</ele>
        <time>2026-05-09T17:13:54.838Z</time>
      </trkpt>
      <trkpt lat="47.89905" lon="6.9339">
        <ele>766</ele>
        <time>2026-05-09T17:13:55.838Z</time>
      </trkpt>
      <trkpt lat="47.89906" lon="6.93389">
        <ele>767</ele>
        <time>2026-05-09T17:13:56.839Z</time>
      </trkpt>
      <trkpt lat="47.89906" lon="6.93389">
        <ele>767</ele>
        <time>2026-05-09T17:13:57.839Z</time>
      </trkpt>
      <trkpt lat="47.89908" lon="6.93385">
        <ele>768</ele>
        <time>2026-05-09T17:13:58.839Z</time>
      </trkpt>
      <trkpt lat="47.89909" lon="6.93383">
        <ele>768</ele>
        <time>2026-05-09T17:13:59.838Z</time>
      </trkpt>
      <trkpt lat="47.8991" lon="6.93381">
        <ele>769</ele>
        <time>2026-05-09T17:14:00.838Z</time>
      </trkpt>
      <trkpt lat="47.8991" lon="6.93381">
        <ele>769</ele>
        <time>2026-05-09T17:14:01.838Z</time>
      </trkpt>
      <trkpt lat="47.89909" lon="6.93378">
        <ele>769</ele>
        <time>2026-05-09T17:14:02.838Z</time>
      </trkpt>
      <trkpt lat="47.89909" lon="6.93377">
        <ele>769</ele>
        <time>2026-05-09T17:14:03.838Z</time>
      </trkpt>
      <trkpt lat="47.89907" lon="6.93375">
        <ele>770</ele>
        <time>2026-05-09T17:14:04.838Z</time>
      </trkpt>
      <trkpt lat="47.89907" lon="6.93373">
        <ele>770</ele>
        <time>2026-05-09T17:14:05.838Z</time>
      </trkpt>
      <trkpt lat="47.89906" lon="6.93372">
        <ele>770</ele>
        <time>2026-05-09T17:14:06.838Z</time>
      </trkpt>
      <trkpt lat="47.89906" lon="6.9337">
        <ele>770</ele>
        <time>2026-05-09T17:14:07.838Z</time>
      </trkpt>
      <trkpt lat="47.89907" lon="6.93368">
        <ele>771</ele>
        <time>2026-05-09T17:14:08.838Z</time>
      </trkpt>
      <trkpt lat="47.89907" lon="6.93366">
        <ele>771</ele>
        <time>2026-05-09T17:14:09.839Z</time>
      </trkpt>
      <trkpt lat="47.89907" lon="6.93366">
        <ele>771</ele>
        <time>2026-05-09T17:14:10.839Z</time>
      </trkpt>
      <trkpt lat="47.89906" lon="6.93361">
        <ele>771</ele>
        <time>2026-05-09T17:14:11.838Z</time>
      </trkpt>
      <trkpt lat="47.89906" lon="6.93361">
        <ele>771</ele>
        <time>2026-05-09T17:14:12.838Z</time>
      </trkpt>
      <trkpt lat="47.89905" lon="6.9336">
        <ele>772</ele>
        <time>2026-05-09T17:14:13.838Z</time>
      </trkpt>
      <trkpt lat="47.89904" lon="6.93357">
        <ele>772</ele>
        <time>2026-05-09T17:14:14.838Z</time>
      </trkpt>
      <trkpt lat="47.89904" lon="6.93356">
        <ele>772</ele>
        <time>2026-05-09T17:14:15.838Z</time>
      </trkpt>
      <trkpt lat="47.89901" lon="6.93355">
        <ele>772</ele>
        <time>2026-05-09T17:14:16.839Z</time>
      </trkpt>
      <trkpt lat="47.89901" lon="6.93355">
        <ele>772</ele>
        <time>2026-05-09T17:14:17.838Z</time>
      </trkpt>
      <trkpt lat="47.89899" lon="6.93354">
        <ele>772</ele>
        <time>2026-05-09T17:14:18.838Z</time>
      </trkpt>
      <trkpt lat="47.89897" lon="6.93351">
        <ele>773</ele>
        <time>2026-05-09T17:14:19.838Z</time>
      </trkpt>
      <trkpt lat="47.89897" lon="6.93349">
        <ele>773</ele>
        <time>2026-05-09T17:14:20.838Z</time>
      </trkpt>
      <trkpt lat="47.89898" lon="6.93348">
        <ele>773</ele>
        <time>2026-05-09T17:14:21.838Z</time>
      </trkpt>
      <trkpt lat="47.89898" lon="6.93348">
        <ele>773</ele>
        <time>2026-05-09T17:14:22.838Z</time>
      </trkpt>
      <trkpt lat="47.89894" lon="6.93345">
        <ele>773</ele>
        <time>2026-05-09T17:14:23.838Z</time>
      </trkpt>
      <trkpt lat="47.89893" lon="6.93343">
        <ele>773</ele>
        <time>2026-05-09T17:14:24.838Z</time>
      </trkpt>
      <trkpt lat="47.89891" lon="6.93341">
        <ele>773</ele>
        <time>2026-05-09T17:14:25.839Z</time>
      </trkpt>
      <trkpt lat="47.89891" lon="6.93341">
        <ele>773</ele>
        <time>2026-05-09T17:14:26.839Z</time>
      </trkpt>
      <trkpt lat="47.89889" lon="6.93336">
        <ele>773</ele>
        <time>2026-05-09T17:14:27.839Z</time>
      </trkpt>
      <trkpt lat="47.89889" lon="6.93334">
        <ele>773</ele>
        <time>2026-05-09T17:14:28.838Z</time>
      </trkpt>
      <trkpt lat="47.89888" lon="6.93332">
        <ele>773</ele>
        <time>2026-05-09T17:14:29.839Z</time>
      </trkpt>
      <trkpt lat="47.89888" lon="6.93331">
        <ele>773</ele>
        <time>2026-05-09T17:14:30.838Z</time>
      </trkpt>
      <trkpt lat="47.89887" lon="6.93329">
        <ele>773</ele>
        <time>2026-05-09T17:14:31.839Z</time>
      </trkpt>
      <trkpt lat="47.89887" lon="6.93327">
        <ele>773</ele>
        <time>2026-05-09T17:14:32.838Z</time>
      </trkpt>
      <trkpt lat="47.89887" lon="6.93327">
        <ele>773</ele>
        <time>2026-05-09T17:14:33.838Z</time>
      </trkpt>
      <trkpt lat="47.89887" lon="6.93323">
        <ele>773</ele>
        <time>2026-05-09T17:14:34.839Z</time>
      </trkpt>
      <trkpt lat="47.89886" lon="6.93322">
        <ele>773</ele>
        <time>2026-05-09T17:14:35.838Z</time>
      </trkpt>
      <trkpt lat="47.89886" lon="6.9332">
        <ele>773</ele>
        <time>2026-05-09T17:14:36.838Z</time>
      </trkpt>
      <trkpt lat="47.89886" lon="6.9332">
        <ele>773</ele>
        <time>2026-05-09T17:14:37.839Z</time>
      </trkpt>
      <trkpt lat="47.89885" lon="6.93316">
        <ele>773</ele>
        <time>2026-05-09T17:14:38.838Z</time>
      </trkpt>
      <trkpt lat="47.89885" lon="6.93315">
        <ele>774</ele>
        <time>2026-05-09T17:14:39.838Z</time>
      </trkpt>
      <trkpt lat="47.89885" lon="6.93313">
        <ele>774</ele>
        <time>2026-05-09T17:14:40.838Z</time>
      </trkpt>
      <trkpt lat="47.89886" lon="6.93311">
        <ele>774</ele>
        <time>2026-05-09T17:14:41.839Z</time>
      </trkpt>
      <trkpt lat="47.89886" lon="6.93311">
        <ele>774</ele>
        <time>2026-05-09T17:14:42.838Z</time>
      </trkpt>
      <trkpt lat="47.89886" lon="6.93309">
        <ele>774</ele>
        <time>2026-05-09T17:14:43.838Z</time>
      </trkpt>
      <trkpt lat="47.89887" lon="6.93305">
        <ele>774</ele>
        <time>2026-05-09T17:14:44.839Z</time>
      </trkpt>
      <trkpt lat="47.89888" lon="6.93303">
        <ele>774</ele>
        <time>2026-05-09T17:14:45.838Z</time>
      </trkpt>
      <trkpt lat="47.89887" lon="6.93301">
        <ele>774</ele>
        <time>2026-05-09T17:14:46.838Z</time>
      </trkpt>
      <trkpt lat="47.89887" lon="6.93301">
        <ele>774</ele>
        <time>2026-05-09T17:14:47.839Z</time>
      </trkpt>
      <trkpt lat="47.89889" lon="6.93298">
        <ele>774</ele>
        <time>2026-05-09T17:14:48.838Z</time>
      </trkpt>
      <trkpt lat="47.8989" lon="6.93297">
        <ele>774</ele>
        <time>2026-05-09T17:14:49.838Z</time>
      </trkpt>
      <trkpt lat="47.89891" lon="6.93295">
        <ele>774</ele>
        <time>2026-05-09T17:14:50.838Z</time>
      </trkpt>
      <trkpt lat="47.89891" lon="6.93295">
        <ele>774</ele>
        <time>2026-05-09T17:14:51.839Z</time>
      </trkpt>
      <trkpt lat="47.89894" lon="6.93291">
        <ele>773</ele>
        <time>2026-05-09T17:14:52.838Z</time>
      </trkpt>
      <trkpt lat="47.89895" lon="6.9329">
        <ele>773</ele>
        <time>2026-05-09T17:14:53.838Z</time>
      </trkpt>
      <trkpt lat="47.89896" lon="6.93288">
        <ele>773</ele>
        <time>2026-05-09T17:14:54.838Z</time>
      </trkpt>
      <trkpt lat="47.89896" lon="6.93288">
        <ele>773</ele>
        <time>2026-05-09T17:14:55.839Z</time>
      </trkpt>
      <trkpt lat="47.89897" lon="6.93285">
        <ele>773</ele>
        <time>2026-05-09T17:14:56.838Z</time>
      </trkpt>
      <trkpt lat="47.89897" lon="6.93283">
        <ele>773</ele>
        <time>2026-05-09T17:14:57.838Z</time>
      </trkpt>
      <trkpt lat="47.89897" lon="6.93283">
        <ele>773</ele>
        <time>2026-05-09T17:14:58.838Z</time>
      </trkpt>
      <trkpt lat="47.89897" lon="6.93279">
        <ele>773</ele>
        <time>2026-05-09T17:14:59.838Z</time>
      </trkpt>
      <trkpt lat="47.89897" lon="6.93277">
        <ele>774</ele>
        <time>2026-05-09T17:15:00.838Z</time>
      </trkpt>
      <trkpt lat="47.89898" lon="6.93275">
        <ele>774</ele>
        <time>2026-05-09T17:15:01.839Z</time>
      </trkpt>
      <trkpt lat="47.89899" lon="6.93274">
        <ele>774</ele>
        <time>2026-05-09T17:15:02.838Z</time>
      </trkpt>
      <trkpt lat="47.89899" lon="6.93273">
        <ele>774</ele>
        <time>2026-05-09T17:15:03.838Z</time>
      </trkpt>
      <trkpt lat="47.899" lon="6.93272">
        <ele>775</ele>
        <time>2026-05-09T17:15:04.838Z</time>
      </trkpt>
      <trkpt lat="47.89901" lon="6.9327">
        <ele>775</ele>
        <time>2026-05-09T17:15:05.838Z</time>
      </trkpt>
      <trkpt lat="47.89903" lon="6.9327">
        <ele>775</ele>
        <time>2026-05-09T17:15:06.838Z</time>
      </trkpt>
      <trkpt lat="47.89904" lon="6.93269">
        <ele>775</ele>
        <time>2026-05-09T17:15:07.838Z</time>
      </trkpt>
      <trkpt lat="47.89904" lon="6.93269">
        <ele>775</ele>
        <time>2026-05-09T17:15:08.838Z</time>
      </trkpt>
      <trkpt lat="47.89909" lon="6.93265">
        <ele>775</ele>
        <time>2026-05-09T17:15:09.838Z</time>
      </trkpt>
      <trkpt lat="47.8991" lon="6.93263">
        <ele>776</ele>
        <time>2026-05-09T17:15:10.838Z</time>
      </trkpt>
      <trkpt lat="47.89912" lon="6.93262">
        <ele>776</ele>
        <time>2026-05-09T17:15:11.838Z</time>
      </trkpt>
      <trkpt lat="47.89912" lon="6.93262">
        <ele>776</ele>
        <time>2026-05-09T17:15:12.838Z</time>
      </trkpt>
      <trkpt lat="47.89912" lon="6.93259">
        <ele>776</ele>
        <time>2026-05-09T17:15:13.838Z</time>
      </trkpt>
      <trkpt lat="47.89913" lon="6.93257">
        <ele>776</ele>
        <time>2026-05-09T17:15:14.839Z</time>
      </trkpt>
      <trkpt lat="47.89913" lon="6.93256">
        <ele>776</ele>
        <time>2026-05-09T17:15:15.839Z</time>
      </trkpt>
      <trkpt lat="47.89913" lon="6.93256">
        <ele>776</ele>
        <time>2026-05-09T17:15:16.838Z</time>
      </trkpt>
      <trkpt lat="47.89912" lon="6.93253">
        <ele>777</ele>
        <time>2026-05-09T17:15:17.838Z</time>
      </trkpt>
      <trkpt lat="47.89912" lon="6.93252">
        <ele>778</ele>
        <time>2026-05-09T17:15:18.838Z</time>
      </trkpt>
      <trkpt lat="47.8991" lon="6.93251">
        <ele>778</ele>
        <time>2026-05-09T17:15:19.838Z</time>
      </trkpt>
      <trkpt lat="47.8991" lon="6.93249">
        <ele>778</ele>
        <time>2026-05-09T17:15:20.838Z</time>
      </trkpt>
      <trkpt lat="47.89909" lon="6.93248">
        <ele>779</ele>
        <time>2026-05-09T17:15:21.838Z</time>
      </trkpt>
      <trkpt lat="47.89909" lon="6.93246">
        <ele>779</ele>
        <time>2026-05-09T17:15:22.838Z</time>
      </trkpt>
      <trkpt lat="47.8991" lon="6.93245">
        <ele>779</ele>
        <time>2026-05-09T17:15:23.838Z</time>
      </trkpt>
      <trkpt lat="47.8991" lon="6.93245">
        <ele>779</ele>
        <time>2026-05-09T17:15:24.839Z</time>
      </trkpt>
      <trkpt lat="47.89913" lon="6.93242">
        <ele>780</ele>
        <time>2026-05-09T17:15:25.838Z</time>
      </trkpt>
      <trkpt lat="47.89914" lon="6.9324">
        <ele>780</ele>
        <time>2026-05-09T17:15:26.839Z</time>
      </trkpt>
      <trkpt lat="47.89914" lon="6.93238">
        <ele>780</ele>
        <time>2026-05-09T17:15:27.838Z</time>
      </trkpt>
      <trkpt lat="47.89914" lon="6.93238">
        <ele>780</ele>
        <time>2026-05-09T17:15:28.838Z</time>
      </trkpt>
      <trkpt lat="47.89911" lon="6.93235">
        <ele>780</ele>
        <time>2026-05-09T17:15:29.839Z</time>
      </trkpt>
      <trkpt lat="47.89911" lon="6.93233">
        <ele>781</ele>
        <time>2026-05-09T17:15:30.838Z</time>
      </trkpt>
      <trkpt lat="47.89912" lon="6.93232">
        <ele>781</ele>
        <time>2026-05-09T17:15:31.838Z</time>
      </trkpt>
      <trkpt lat="47.89912" lon="6.93232">
        <ele>781</ele>
        <time>2026-05-09T17:15:32.838Z</time>
      </trkpt>
      <trkpt lat="47.89914" lon="6.93229">
        <ele>781</ele>
        <time>2026-05-09T17:15:33.838Z</time>
      </trkpt>
      <trkpt lat="47.89916" lon="6.93227">
        <ele>781</ele>
        <time>2026-05-09T17:15:34.839Z</time>
      </trkpt>
      <trkpt lat="47.89916" lon="6.93225">
        <ele>781</ele>
        <time>2026-05-09T17:15:35.838Z</time>
      </trkpt>
      <trkpt lat="47.89916" lon="6.93223">
        <ele>781</ele>
        <time>2026-05-09T17:15:36.838Z</time>
      </trkpt>
      <trkpt lat="47.89914" lon="6.93222">
        <ele>781</ele>
        <time>2026-05-09T17:15:37.839Z</time>
      </trkpt>
      <trkpt lat="47.89914" lon="6.9322">
        <ele>781</ele>
        <time>2026-05-09T17:15:38.838Z</time>
      </trkpt>
      <trkpt lat="47.89914" lon="6.93219">
        <ele>781</ele>
        <time>2026-05-09T17:15:39.838Z</time>
      </trkpt>
      <trkpt lat="47.89914" lon="6.93218">
        <ele>781</ele>
        <time>2026-05-09T17:15:40.838Z</time>
      </trkpt>
      <trkpt lat="47.89916" lon="6.93217">
        <ele>781</ele>
        <time>2026-05-09T17:15:41.839Z</time>
      </trkpt>
      <trkpt lat="47.8992" lon="6.93216">
        <ele>781</ele>
        <time>2026-05-09T17:15:42.838Z</time>
      </trkpt>
      <trkpt lat="47.89921" lon="6.93214">
        <ele>781</ele>
        <time>2026-05-09T17:15:43.838Z</time>
      </trkpt>
      <trkpt lat="47.89919" lon="6.93213">
        <ele>781</ele>
        <time>2026-05-09T17:15:44.839Z</time>
      </trkpt>
      <trkpt lat="47.89919" lon="6.93213">
        <ele>781</ele>
        <time>2026-05-09T17:15:45.839Z</time>
      </trkpt>
      <trkpt lat="47.8992" lon="6.93212">
        <ele>781</ele>
        <time>2026-05-09T17:15:46.838Z</time>
      </trkpt>
      <trkpt lat="47.8992" lon="6.93211">
        <ele>781</ele>
        <time>2026-05-09T17:15:47.839Z</time>
      </trkpt>
      <trkpt lat="47.8992" lon="6.9321">
        <ele>781</ele>
        <time>2026-05-09T17:15:48.839Z</time>
      </trkpt>
      <trkpt lat="47.89921" lon="6.93209">
        <ele>781</ele>
        <time>2026-05-09T17:15:49.838Z</time>
      </trkpt>
      <trkpt lat="47.89922" lon="6.93207">
        <ele>782</ele>
        <time>2026-05-09T17:15:50.839Z</time>
      </trkpt>
      <trkpt lat="47.89923" lon="6.93205">
        <ele>782</ele>
        <time>2026-05-09T17:15:51.838Z</time>
      </trkpt>
      <trkpt lat="47.89924" lon="6.93204">
        <ele>782</ele>
        <time>2026-05-09T17:15:52.838Z</time>
      </trkpt>
      <trkpt lat="47.89924" lon="6.93204">
        <ele>782</ele>
        <time>2026-05-09T17:15:53.838Z</time>
      </trkpt>
      <trkpt lat="47.89925" lon="6.93201">
        <ele>782</ele>
        <time>2026-05-09T17:15:54.838Z</time>
      </trkpt>
      <trkpt lat="47.89925" lon="6.93199">
        <ele>782</ele>
        <time>2026-05-09T17:15:55.838Z</time>
      </trkpt>
      <trkpt lat="47.89925" lon="6.93198">
        <ele>782</ele>
        <time>2026-05-09T17:15:56.838Z</time>
      </trkpt>
      <trkpt lat="47.89925" lon="6.93198">
        <ele>782</ele>
        <time>2026-05-09T17:15:57.838Z</time>
      </trkpt>
      <trkpt lat="47.89924" lon="6.93195">
        <ele>782</ele>
        <time>2026-05-09T17:15:58.838Z</time>
      </trkpt>
      <trkpt lat="47.89924" lon="6.93192">
        <ele>783</ele>
        <time>2026-05-09T17:15:59.838Z</time>
      </trkpt>
      <trkpt lat="47.89924" lon="6.9319">
        <ele>783</ele>
        <time>2026-05-09T17:16:00.838Z</time>
      </trkpt>
      <trkpt lat="47.89924" lon="6.9319">
        <ele>783</ele>
        <time>2026-05-09T17:16:01.838Z</time>
      </trkpt>
      <trkpt lat="47.89924" lon="6.93185">
        <ele>783</ele>
        <time>2026-05-09T17:16:02.838Z</time>
      </trkpt>
      <trkpt lat="47.89925" lon="6.93183">
        <ele>783</ele>
        <time>2026-05-09T17:16:03.838Z</time>
      </trkpt>
      <trkpt lat="47.89926" lon="6.93181">
        <ele>783</ele>
        <time>2026-05-09T17:16:04.838Z</time>
      </trkpt>
      <trkpt lat="47.89925" lon="6.93179">
        <ele>784</ele>
        <time>2026-05-09T17:16:05.838Z</time>
      </trkpt>
      <trkpt lat="47.89925" lon="6.93177">
        <ele>784</ele>
        <time>2026-05-09T17:16:06.838Z</time>
      </trkpt>
      <trkpt lat="47.89924" lon="6.93176">
        <ele>785</ele>
        <time>2026-05-09T17:16:07.838Z</time>
      </trkpt>
      <trkpt lat="47.89924" lon="6.93174">
        <ele>785</ele>
        <time>2026-05-09T17:16:08.838Z</time>
      </trkpt>
      <trkpt lat="47.89923" lon="6.93172">
        <ele>785</ele>
        <time>2026-05-09T17:16:09.838Z</time>
      </trkpt>
      <trkpt lat="47.89924" lon="6.9317">
        <ele>785</ele>
        <time>2026-05-09T17:16:10.838Z</time>
      </trkpt>
      <trkpt lat="47.89923" lon="6.93168">
        <ele>785</ele>
        <time>2026-05-09T17:16:11.838Z</time>
      </trkpt>
      <trkpt lat="47.89922" lon="6.93166">
        <ele>786</ele>
        <time>2026-05-09T17:16:12.838Z</time>
      </trkpt>
      <trkpt lat="47.89922" lon="6.93165">
        <ele>786</ele>
        <time>2026-05-09T17:16:13.838Z</time>
      </trkpt>
      <trkpt lat="47.89922" lon="6.93165">
        <ele>786</ele>
        <time>2026-05-09T17:16:14.839Z</time>
      </trkpt>
      <trkpt lat="47.89923" lon="6.93162">
        <ele>785</ele>
        <time>2026-05-09T17:16:15.838Z</time>
      </trkpt>
      <trkpt lat="47.89923" lon="6.9316">
        <ele>785</ele>
        <time>2026-05-09T17:16:16.838Z</time>
      </trkpt>
      <trkpt lat="47.89923" lon="6.93158">
        <ele>785</ele>
        <time>2026-05-09T17:16:17.838Z</time>
      </trkpt>
      <trkpt lat="47.89923" lon="6.93158">
        <ele>785</ele>
        <time>2026-05-09T17:16:18.838Z</time>
      </trkpt>
      <trkpt lat="47.89924" lon="6.93155">
        <ele>785</ele>
        <time>2026-05-09T17:16:19.838Z</time>
      </trkpt>
      <trkpt lat="47.89925" lon="6.93153">
        <ele>785</ele>
        <time>2026-05-09T17:16:20.838Z</time>
      </trkpt>
      <trkpt lat="47.89925" lon="6.93152">
        <ele>785</ele>
        <time>2026-05-09T17:16:21.838Z</time>
      </trkpt>
      <trkpt lat="47.89925" lon="6.9315">
        <ele>785</ele>
        <time>2026-05-09T17:16:22.839Z</time>
      </trkpt>
      <trkpt lat="47.89924" lon="6.93149">
        <ele>785</ele>
        <time>2026-05-09T17:16:23.838Z</time>
      </trkpt>
      <trkpt lat="47.89924" lon="6.93147">
        <ele>785</ele>
        <time>2026-05-09T17:16:24.838Z</time>
      </trkpt>
      <trkpt lat="47.89925" lon="6.93145">
        <ele>785</ele>
        <time>2026-05-09T17:16:25.839Z</time>
      </trkpt>
      <trkpt lat="47.89925" lon="6.93145">
        <ele>785</ele>
        <time>2026-05-09T17:16:26.838Z</time>
      </trkpt>
      <trkpt lat="47.89925" lon="6.93141">
        <ele>784</ele>
        <time>2026-05-09T17:16:27.838Z</time>
      </trkpt>
      <trkpt lat="47.89924" lon="6.93139">
        <ele>784</ele>
        <time>2026-05-09T17:16:28.839Z</time>
      </trkpt>
      <trkpt lat="47.89924" lon="6.93138">
        <ele>784</ele>
        <time>2026-05-09T17:16:29.839Z</time>
      </trkpt>
      <trkpt lat="47.89924" lon="6.93138">
        <ele>784</ele>
        <time>2026-05-09T17:16:30.839Z</time>
      </trkpt>
      <trkpt lat="47.89924" lon="6.93133">
        <ele>784</ele>
        <time>2026-05-09T17:16:31.838Z</time>
      </trkpt>
      <trkpt lat="47.89925" lon="6.93131">
        <ele>784</ele>
        <time>2026-05-09T17:16:32.839Z</time>
      </trkpt>
      <trkpt lat="47.89924" lon="6.9313">
        <ele>784</ele>
        <time>2026-05-09T17:16:33.838Z</time>
      </trkpt>
      <trkpt lat="47.89924" lon="6.93127">
        <ele>784</ele>
        <time>2026-05-09T17:16:34.838Z</time>
      </trkpt>
      <trkpt lat="47.89923" lon="6.93125">
        <ele>784</ele>
        <time>2026-05-09T17:16:35.838Z</time>
      </trkpt>
      <trkpt lat="47.89923" lon="6.93123">
        <ele>784</ele>
        <time>2026-05-09T17:16:36.839Z</time>
      </trkpt>
      <trkpt lat="47.89922" lon="6.93121">
        <ele>784</ele>
        <time>2026-05-09T17:16:37.838Z</time>
      </trkpt>
      <trkpt lat="47.89922" lon="6.93119">
        <ele>784</ele>
        <time>2026-05-09T17:16:38.838Z</time>
      </trkpt>
      <trkpt lat="47.89922" lon="6.93117">
        <ele>784</ele>
        <time>2026-05-09T17:16:39.838Z</time>
      </trkpt>
      <trkpt lat="47.89922" lon="6.93116">
        <ele>784</ele>
        <time>2026-05-09T17:16:40.838Z</time>
      </trkpt>
      <trkpt lat="47.89922" lon="6.93115">
        <ele>785</ele>
        <time>2026-05-09T17:16:41.838Z</time>
      </trkpt>
      <trkpt lat="47.89922" lon="6.93112">
        <ele>785</ele>
        <time>2026-05-09T17:16:42.838Z</time>
      </trkpt>
      <trkpt lat="47.89922" lon="6.93112">
        <ele>785</ele>
        <time>2026-05-09T17:16:43.838Z</time>
      </trkpt>
      <trkpt lat="47.89922" lon="6.93109">
        <ele>785</ele>
        <time>2026-05-09T17:16:44.838Z</time>
      </trkpt>
      <trkpt lat="47.89922" lon="6.93107">
        <ele>786</ele>
        <time>2026-05-09T17:16:45.838Z</time>
      </trkpt>
      <trkpt lat="47.89921" lon="6.93105">
        <ele>786</ele>
        <time>2026-05-09T17:16:46.838Z</time>
      </trkpt>
      <trkpt lat="47.89921" lon="6.93105">
        <ele>786</ele>
        <time>2026-05-09T17:16:47.839Z</time>
      </trkpt>
      <trkpt lat="47.8992" lon="6.93102">
        <ele>786</ele>
        <time>2026-05-09T17:16:48.838Z</time>
      </trkpt>
      <trkpt lat="47.8992" lon="6.93099">
        <ele>786</ele>
        <time>2026-05-09T17:16:49.838Z</time>
      </trkpt>
      <trkpt lat="47.8992" lon="6.93097">
        <ele>785</ele>
        <time>2026-05-09T17:16:50.839Z</time>
      </trkpt>
      <trkpt lat="47.8992" lon="6.93094">
        <ele>785</ele>
        <time>2026-05-09T17:16:51.838Z</time>
      </trkpt>
      <trkpt lat="47.89921" lon="6.93092">
        <ele>785</ele>
        <time>2026-05-09T17:16:52.839Z</time>
      </trkpt>
      <trkpt lat="47.89921" lon="6.9309">
        <ele>785</ele>
        <time>2026-05-09T17:16:53.838Z</time>
      </trkpt>
      <trkpt lat="47.89922" lon="6.93088">
        <ele>784</ele>
        <time>2026-05-09T17:16:54.838Z</time>
      </trkpt>
      <trkpt lat="47.89922" lon="6.93088">
        <ele>784</ele>
        <time>2026-05-09T17:16:55.839Z</time>
      </trkpt>
      <trkpt lat="47.89922" lon="6.93085">
        <ele>784</ele>
        <time>2026-05-09T17:16:56.838Z</time>
      </trkpt>
      <trkpt lat="47.89921" lon="6.93083">
        <ele>783</ele>
        <time>2026-05-09T17:16:57.838Z</time>
      </trkpt>
      <trkpt lat="47.8992" lon="6.93081">
        <ele>783</ele>
        <time>2026-05-09T17:16:58.838Z</time>
      </trkpt>
      <trkpt lat="47.8992" lon="6.93081">
        <ele>783</ele>
        <time>2026-05-09T17:16:59.839Z</time>
      </trkpt>
      <trkpt lat="47.89919" lon="6.93077">
        <ele>783</ele>
        <time>2026-05-09T17:17:00.838Z</time>
      </trkpt>
      <trkpt lat="47.89919" lon="6.93075">
        <ele>783</ele>
        <time>2026-05-09T17:17:01.838Z</time>
      </trkpt>
      <trkpt lat="47.8992" lon="6.93073">
        <ele>783</ele>
        <time>2026-05-09T17:17:02.839Z</time>
      </trkpt>
      <trkpt lat="47.89921" lon="6.93071">
        <ele>784</ele>
        <time>2026-05-09T17:17:03.838Z</time>
      </trkpt>
      <trkpt lat="47.89921" lon="6.9307">
        <ele>784</ele>
        <time>2026-05-09T17:17:04.838Z</time>
      </trkpt>
      <trkpt lat="47.89921" lon="6.93068">
        <ele>784</ele>
        <time>2026-05-09T17:17:05.838Z</time>
      </trkpt>
      <trkpt lat="47.89921" lon="6.93067">
        <ele>785</ele>
        <time>2026-05-09T17:17:06.838Z</time>
      </trkpt>
      <trkpt lat="47.8992" lon="6.93066">
        <ele>785</ele>
        <time>2026-05-09T17:17:07.838Z</time>
      </trkpt>
      <trkpt lat="47.8992" lon="6.93065">
        <ele>785</ele>
        <time>2026-05-09T17:17:08.839Z</time>
      </trkpt>
      <trkpt lat="47.8992" lon="6.93064">
        <ele>785</ele>
        <time>2026-05-09T17:17:09.838Z</time>
      </trkpt>
      <trkpt lat="47.89919" lon="6.93063">
        <ele>785</ele>
        <time>2026-05-09T17:17:10.838Z</time>
      </trkpt>
      <trkpt lat="47.89919" lon="6.93061">
        <ele>785</ele>
        <time>2026-05-09T17:17:11.838Z</time>
      </trkpt>
      <trkpt lat="47.89919" lon="6.93059">
        <ele>785</ele>
        <time>2026-05-09T17:17:12.839Z</time>
      </trkpt>
      <trkpt lat="47.89919" lon="6.93058">
        <ele>785</ele>
        <time>2026-05-09T17:17:13.838Z</time>
      </trkpt>
      <trkpt lat="47.89919" lon="6.93056">
        <ele>785</ele>
        <time>2026-05-09T17:17:14.838Z</time>
      </trkpt>
      <trkpt lat="47.89919" lon="6.93054">
        <ele>786</ele>
        <time>2026-05-09T17:17:15.839Z</time>
      </trkpt>
      <trkpt lat="47.89919" lon="6.93054">
        <ele>786</ele>
        <time>2026-05-09T17:17:16.839Z</time>
      </trkpt>
      <trkpt lat="47.89919" lon="6.93051">
        <ele>786</ele>
        <time>2026-05-09T17:17:17.838Z</time>
      </trkpt>
      <trkpt lat="47.8992" lon="6.9305">
        <ele>787</ele>
        <time>2026-05-09T17:17:18.838Z</time>
      </trkpt>
      <trkpt lat="47.89919" lon="6.93048">
        <ele>787</ele>
        <time>2026-05-09T17:17:19.838Z</time>
      </trkpt>
      <trkpt lat="47.89919" lon="6.93048">
        <ele>787</ele>
        <time>2026-05-09T17:17:20.838Z</time>
      </trkpt>
      <trkpt lat="47.8992" lon="6.93045">
        <ele>788</ele>
        <time>2026-05-09T17:17:21.839Z</time>
      </trkpt>
      <trkpt lat="47.8992" lon="6.93044">
        <ele>789</ele>
        <time>2026-05-09T17:17:22.838Z</time>
      </trkpt>
      <trkpt lat="47.89919" lon="6.93044">
        <ele>789</ele>
        <time>2026-05-09T17:17:23.839Z</time>
      </trkpt>
      <trkpt lat="47.89919" lon="6.93044">
        <ele>789</ele>
        <time>2026-05-09T17:17:24.838Z</time>
      </trkpt>
      <trkpt lat="47.89917" lon="6.93043">
        <ele>790</ele>
        <time>2026-05-09T17:17:25.838Z</time>
      </trkpt>
      <trkpt lat="47.89916" lon="6.93044">
        <ele>791</ele>
        <time>2026-05-09T17:17:26.838Z</time>
      </trkpt>
      <trkpt lat="47.89915" lon="6.93044">
        <ele>791</ele>
        <time>2026-05-09T17:17:27.839Z</time>
      </trkpt>
      <trkpt lat="47.89915" lon="6.93045">
        <ele>791</ele>
        <time>2026-05-09T17:17:28.838Z</time>
      </trkpt>
      <trkpt lat="47.89914" lon="6.93045">
        <ele>791</ele>
        <time>2026-05-09T17:17:29.839Z</time>
      </trkpt>
      <trkpt lat="47.89913" lon="6.93045">
        <ele>791</ele>
        <time>2026-05-09T17:17:30.838Z</time>
      </trkpt>
      <trkpt lat="47.89912" lon="6.93047">
        <ele>792</ele>
        <time>2026-05-09T17:17:31.838Z</time>
      </trkpt>
      <trkpt lat="47.89911" lon="6.93048">
        <ele>792</ele>
        <time>2026-05-09T17:17:32.838Z</time>
      </trkpt>
      <trkpt lat="47.8991" lon="6.93049">
        <ele>792</ele>
        <time>2026-05-09T17:17:33.838Z</time>
      </trkpt>
      <trkpt lat="47.89908" lon="6.9305">
        <ele>792</ele>
        <time>2026-05-09T17:17:34.838Z</time>
      </trkpt>
      <trkpt lat="47.89907" lon="6.93051">
        <ele>792</ele>
        <time>2026-05-09T17:17:35.838Z</time>
      </trkpt>
      <trkpt lat="47.89907" lon="6.93052">
        <ele>792</ele>
        <time>2026-05-09T17:17:36.838Z</time>
      </trkpt>
      <trkpt lat="47.89906" lon="6.93053">
        <ele>792</ele>
        <time>2026-05-09T17:17:37.839Z</time>
      </trkpt>
      <trkpt lat="47.89905" lon="6.93055">
        <ele>793</ele>
        <time>2026-05-09T17:17:38.838Z</time>
      </trkpt>
      <trkpt lat="47.89904" lon="6.93056">
        <ele>793</ele>
        <time>2026-05-09T17:17:39.838Z</time>
      </trkpt>
      <trkpt lat="47.89903" lon="6.93058">
        <ele>793</ele>
        <time>2026-05-09T17:17:40.838Z</time>
      </trkpt>
      <trkpt lat="47.89903" lon="6.9306">
        <ele>793</ele>
        <time>2026-05-09T17:17:41.838Z</time>
      </trkpt>
      <trkpt lat="47.89903" lon="6.93061">
        <ele>793</ele>
        <time>2026-05-09T17:17:42.839Z</time>
      </trkpt>
      <trkpt lat="47.89902" lon="6.93063">
        <ele>793</ele>
        <time>2026-05-09T17:17:43.838Z</time>
      </trkpt>
      <trkpt lat="47.89902" lon="6.93064">
        <ele>793</ele>
        <time>2026-05-09T17:17:44.838Z</time>
      </trkpt>
      <trkpt lat="47.89902" lon="6.93066">
        <ele>793</ele>
        <time>2026-05-09T17:17:45.838Z</time>
      </trkpt>
      <trkpt lat="47.89901" lon="6.93067">
        <ele>793</ele>
        <time>2026-05-09T17:17:46.838Z</time>
      </trkpt>
      <trkpt lat="47.89901" lon="6.93068">
        <ele>793</ele>
        <time>2026-05-09T17:17:47.838Z</time>
      </trkpt>
      <trkpt lat="47.89901" lon="6.9307">
        <ele>794</ele>
        <time>2026-05-09T17:17:48.838Z</time>
      </trkpt>
      <trkpt lat="47.89901" lon="6.9307">
        <ele>794</ele>
        <time>2026-05-09T17:17:49.838Z</time>
      </trkpt>
      <trkpt lat="47.899" lon="6.93074">
        <ele>796</ele>
        <time>2026-05-09T17:17:50.838Z</time>
      </trkpt>
      <trkpt lat="47.89899" lon="6.93075">
        <ele>796</ele>
        <time>2026-05-09T17:17:51.838Z</time>
      </trkpt>
      <trkpt lat="47.89899" lon="6.93076">
        <ele>797</ele>
        <time>2026-05-09T17:17:52.839Z</time>
      </trkpt>
      <trkpt lat="47.89898" lon="6.93078">
        <ele>797</ele>
        <time>2026-05-09T17:17:53.838Z</time>
      </trkpt>
      <trkpt lat="47.89897" lon="6.9308">
        <ele>797</ele>
        <time>2026-05-09T17:17:54.838Z</time>
      </trkpt>
      <trkpt lat="47.89897" lon="6.93081">
        <ele>798</ele>
        <time>2026-05-09T17:17:55.838Z</time>
      </trkpt>
      <trkpt lat="47.89896" lon="6.93083">
        <ele>798</ele>
        <time>2026-05-09T17:17:56.838Z</time>
      </trkpt>
      <trkpt lat="47.89896" lon="6.93083">
        <ele>798</ele>
        <time>2026-05-09T17:17:57.839Z</time>
      </trkpt>
      <trkpt lat="47.89895" lon="6.93085">
        <ele>799</ele>
        <time>2026-05-09T17:17:58.838Z</time>
      </trkpt>
      <trkpt lat="47.89894" lon="6.93087">
        <ele>799</ele>
        <time>2026-05-09T17:17:59.838Z</time>
      </trkpt>
      <trkpt lat="47.89894" lon="6.93087">
        <ele>800</ele>
        <time>2026-05-09T17:18:00.838Z</time>
      </trkpt>
      <trkpt lat="47.89894" lon="6.93087">
        <ele>800</ele>
        <time>2026-05-09T17:18:01.838Z</time>
      </trkpt>
      <trkpt lat="47.89894" lon="6.9309">
        <ele>801</ele>
        <time>2026-05-09T17:18:02.838Z</time>
      </trkpt>
      <trkpt lat="47.89894" lon="6.93091">
        <ele>801</ele>
        <time>2026-05-09T17:18:03.838Z</time>
      </trkpt>
      <trkpt lat="47.89895" lon="6.93092">
        <ele>802</ele>
        <time>2026-05-09T17:18:04.838Z</time>
      </trkpt>
      <trkpt lat="47.89895" lon="6.93093">
        <ele>802</ele>
        <time>2026-05-09T17:18:05.838Z</time>
      </trkpt>
      <trkpt lat="47.89895" lon="6.93095">
        <ele>802</ele>
        <time>2026-05-09T17:18:06.838Z</time>
      </trkpt>
      <trkpt lat="47.89894" lon="6.93097">
        <ele>802</ele>
        <time>2026-05-09T17:18:07.838Z</time>
      </trkpt>
      <trkpt lat="47.89894" lon="6.93098">
        <ele>803</ele>
        <time>2026-05-09T17:18:08.838Z</time>
      </trkpt>
      <trkpt lat="47.89893" lon="6.931">
        <ele>803</ele>
        <time>2026-05-09T17:18:09.838Z</time>
      </trkpt>
      <trkpt lat="47.89893" lon="6.93102">
        <ele>803</ele>
        <time>2026-05-09T17:18:10.838Z</time>
      </trkpt>
      <trkpt lat="47.89892" lon="6.93104">
        <ele>804</ele>
        <time>2026-05-09T17:18:11.838Z</time>
      </trkpt>
      <trkpt lat="47.89891" lon="6.93105">
        <ele>804</ele>
        <time>2026-05-09T17:18:12.838Z</time>
      </trkpt>
      <trkpt lat="47.8989" lon="6.93108">
        <ele>805</ele>
        <time>2026-05-09T17:18:13.838Z</time>
      </trkpt>
      <trkpt lat="47.8989" lon="6.93108">
        <ele>805</ele>
        <time>2026-05-09T17:18:14.838Z</time>
      </trkpt>
      <trkpt lat="47.8989" lon="6.93111">
        <ele>806</ele>
        <time>2026-05-09T17:18:15.838Z</time>
      </trkpt>
      <trkpt lat="47.8989" lon="6.93111">
        <ele>806</ele>
        <time>2026-05-09T17:18:16.838Z</time>
      </trkpt>
      <trkpt lat="47.8989" lon="6.93114">
        <ele>807</ele>
        <time>2026-05-09T17:18:17.838Z</time>
      </trkpt>
      <trkpt lat="47.8989" lon="6.93115">
        <ele>807</ele>
        <time>2026-05-09T17:18:18.838Z</time>
      </trkpt>
      <trkpt lat="47.89889" lon="6.93117">
        <ele>808</ele>
        <time>2026-05-09T17:18:19.838Z</time>
      </trkpt>
      <trkpt lat="47.89888" lon="6.93118">
        <ele>808</ele>
        <time>2026-05-09T17:18:20.838Z</time>
      </trkpt>
      <trkpt lat="47.89888" lon="6.9312">
        <ele>808</ele>
        <time>2026-05-09T17:18:21.838Z</time>
      </trkpt>
      <trkpt lat="47.89888" lon="6.9312">
        <ele>808</ele>
        <time>2026-05-09T17:18:22.838Z</time>
      </trkpt>
      <trkpt lat="47.89887" lon="6.93125">
        <ele>809</ele>
        <time>2026-05-09T17:18:23.838Z</time>
      </trkpt>
      <trkpt lat="47.89887" lon="6.93126">
        <ele>810</ele>
        <time>2026-05-09T17:18:24.838Z</time>
      </trkpt>
      <trkpt lat="47.89887" lon="6.93126">
        <ele>810</ele>
        <time>2026-05-09T17:18:25.838Z</time>
      </trkpt>
      <trkpt lat="47.89886" lon="6.93127">
        <ele>810</ele>
        <time>2026-05-09T17:18:26.838Z</time>
      </trkpt>
      <trkpt lat="47.89885" lon="6.9313">
        <ele>810</ele>
        <time>2026-05-09T17:18:27.838Z</time>
      </trkpt>
      <trkpt lat="47.89884" lon="6.93131">
        <ele>810</ele>
        <time>2026-05-09T17:18:28.838Z</time>
      </trkpt>
      <trkpt lat="47.89883" lon="6.93133">
        <ele>810</ele>
        <time>2026-05-09T17:18:29.839Z</time>
      </trkpt>
      <trkpt lat="47.89883" lon="6.93133">
        <ele>810</ele>
        <time>2026-05-09T17:18:30.839Z</time>
      </trkpt>
      <trkpt lat="47.8988" lon="6.93137">
        <ele>810</ele>
        <time>2026-05-09T17:18:31.838Z</time>
      </trkpt>
      <trkpt lat="47.89879" lon="6.93138">
        <ele>810</ele>
        <time>2026-05-09T17:18:32.838Z</time>
      </trkpt>
      <trkpt lat="47.89879" lon="6.9314">
        <ele>811</ele>
        <time>2026-05-09T17:18:33.838Z</time>
      </trkpt>
      <trkpt lat="47.89879" lon="6.9314">
        <ele>811</ele>
        <time>2026-05-09T17:18:34.838Z</time>
      </trkpt>
      <trkpt lat="47.89877" lon="6.93144">
        <ele>811</ele>
        <time>2026-05-09T17:18:35.838Z</time>
      </trkpt>
      <trkpt lat="47.89877" lon="6.93144">
        <ele>811</ele>
        <time>2026-05-09T17:18:36.838Z</time>
      </trkpt>
      <trkpt lat="47.89875" lon="6.93146">
        <ele>812</ele>
        <time>2026-05-09T17:18:37.838Z</time>
      </trkpt>
      <trkpt lat="47.89874" lon="6.93148">
        <ele>812</ele>
        <time>2026-05-09T17:18:38.838Z</time>
      </trkpt>
      <trkpt lat="47.89873" lon="6.93149">
        <ele>813</ele>
        <time>2026-05-09T17:18:39.839Z</time>
      </trkpt>
      <trkpt lat="47.89873" lon="6.93149">
        <ele>813</ele>
        <time>2026-05-09T17:18:40.839Z</time>
      </trkpt>
      <trkpt lat="47.89871" lon="6.93151">
        <ele>813</ele>
        <time>2026-05-09T17:18:41.838Z</time>
      </trkpt>
      <trkpt lat="47.89868" lon="6.93152">
        <ele>812</ele>
        <time>2026-05-09T17:18:42.838Z</time>
      </trkpt>
      <trkpt lat="47.89868" lon="6.93152">
        <ele>812</ele>
        <time>2026-05-09T17:18:43.838Z</time>
      </trkpt>
      <trkpt lat="47.89867" lon="6.93153">
        <ele>812</ele>
        <time>2026-05-09T17:18:44.838Z</time>
      </trkpt>
      <trkpt lat="47.89867" lon="6.93153">
        <ele>812</ele>
        <time>2026-05-09T17:18:45.838Z</time>
      </trkpt>
      <trkpt lat="47.89866" lon="6.93154">
        <ele>812</ele>
        <time>2026-05-09T17:18:46.839Z</time>
      </trkpt>
      <trkpt lat="47.89865" lon="6.93156">
        <ele>812</ele>
        <time>2026-05-09T17:18:47.839Z</time>
      </trkpt>
      <trkpt lat="47.89864" lon="6.93158">
        <ele>812</ele>
        <time>2026-05-09T17:18:48.838Z</time>
      </trkpt>
      <trkpt lat="47.89864" lon="6.93158">
        <ele>812</ele>
        <time>2026-05-09T17:18:49.838Z</time>
      </trkpt>
      <trkpt lat="47.89863" lon="6.9316">
        <ele>813</ele>
        <time>2026-05-09T17:18:50.838Z</time>
      </trkpt>
      <trkpt lat="47.89863" lon="6.9316">
        <ele>813</ele>
        <time>2026-05-09T17:18:51.839Z</time>
      </trkpt>
      <trkpt lat="47.89861" lon="6.93161">
        <ele>814</ele>
        <time>2026-05-09T17:18:52.839Z</time>
      </trkpt>
      <trkpt lat="47.8986" lon="6.93162">
        <ele>815</ele>
        <time>2026-05-09T17:18:53.838Z</time>
      </trkpt>
      <trkpt lat="47.8986" lon="6.93162">
        <ele>815</ele>
        <time>2026-05-09T17:18:54.838Z</time>
      </trkpt>
      <trkpt lat="47.89859" lon="6.93163">
        <ele>815</ele>
        <time>2026-05-09T17:18:55.838Z</time>
      </trkpt>
      <trkpt lat="47.89857" lon="6.93164">
        <ele>816</ele>
        <time>2026-05-09T17:18:56.839Z</time>
      </trkpt>
      <trkpt lat="47.89856" lon="6.93166">
        <ele>816</ele>
        <time>2026-05-09T17:18:57.838Z</time>
      </trkpt>
      <trkpt lat="47.89855" lon="6.93168">
        <ele>816</ele>
        <time>2026-05-09T17:18:58.838Z</time>
      </trkpt>
      <trkpt lat="47.89855" lon="6.93168">
        <ele>816</ele>
        <time>2026-05-09T17:18:59.838Z</time>
      </trkpt>
      <trkpt lat="47.89854" lon="6.93171">
        <ele>817</ele>
        <time>2026-05-09T17:19:00.838Z</time>
      </trkpt>
      <trkpt lat="47.89854" lon="6.93171">
        <ele>817</ele>
        <time>2026-05-09T17:19:01.838Z</time>
      </trkpt>
      <trkpt lat="47.89853" lon="6.93174">
        <ele>819</ele>
        <time>2026-05-09T17:19:02.838Z</time>
      </trkpt>
      <trkpt lat="47.89853" lon="6.93174">
        <ele>819</ele>
        <time>2026-05-09T17:19:03.839Z</time>
      </trkpt>
      <trkpt lat="47.89852" lon="6.93177">
        <ele>820</ele>
        <time>2026-05-09T17:19:04.839Z</time>
      </trkpt>
      <trkpt lat="47.89852" lon="6.93177">
        <ele>820</ele>
        <time>2026-05-09T17:19:05.838Z</time>
      </trkpt>
      <trkpt lat="47.89851" lon="6.93178">
        <ele>820</ele>
        <time>2026-05-09T17:19:06.838Z</time>
      </trkpt>
      <trkpt lat="47.89851" lon="6.93181">
        <ele>822</ele>
        <time>2026-05-09T17:19:07.839Z</time>
      </trkpt>
      <trkpt lat="47.8985" lon="6.93183">
        <ele>822</ele>
        <time>2026-05-09T17:19:08.838Z</time>
      </trkpt>
      <trkpt lat="47.8985" lon="6.93183">
        <ele>822</ele>
        <time>2026-05-09T17:19:09.838Z</time>
      </trkpt>
      <trkpt lat="47.8985" lon="6.93184">
        <ele>823</ele>
        <time>2026-05-09T17:19:10.839Z</time>
      </trkpt>
      <trkpt lat="47.8985" lon="6.93186">
        <ele>823</ele>
        <time>2026-05-09T17:19:11.839Z</time>
      </trkpt>
      <trkpt lat="47.89848" lon="6.93191">
        <ele>824</ele>
        <time>2026-05-09T17:19:12.839Z</time>
      </trkpt>
      <trkpt lat="47.89848" lon="6.93193">
        <ele>824</ele>
        <time>2026-05-09T17:19:13.838Z</time>
      </trkpt>
      <trkpt lat="47.89848" lon="6.93193">
        <ele>824</ele>
        <time>2026-05-09T17:19:14.838Z</time>
      </trkpt>
      <trkpt lat="47.89847" lon="6.93197">
        <ele>824</ele>
        <time>2026-05-09T17:19:15.838Z</time>
      </trkpt>
      <trkpt lat="47.89847" lon="6.93197">
        <ele>824</ele>
        <time>2026-05-09T17:19:16.839Z</time>
      </trkpt>
      <trkpt lat="47.89847" lon="6.932">
        <ele>824</ele>
        <time>2026-05-09T17:19:17.838Z</time>
      </trkpt>
      <trkpt lat="47.89846" lon="6.93201">
        <ele>823</ele>
        <time>2026-05-09T17:19:18.838Z</time>
      </trkpt>
      <trkpt lat="47.89846" lon="6.93201">
        <ele>823</ele>
        <time>2026-05-09T17:19:19.838Z</time>
      </trkpt>
      <trkpt lat="47.89846" lon="6.93202">
        <ele>823</ele>
        <time>2026-05-09T17:19:20.838Z</time>
      </trkpt>
      <trkpt lat="47.89846" lon="6.93206">
        <ele>823</ele>
        <time>2026-05-09T17:19:21.838Z</time>
      </trkpt>
      <trkpt lat="47.89846" lon="6.93207">
        <ele>823</ele>
        <time>2026-05-09T17:19:22.839Z</time>
      </trkpt>
      <trkpt lat="47.89846" lon="6.93209">
        <ele>823</ele>
        <time>2026-05-09T17:19:23.839Z</time>
      </trkpt>
      <trkpt lat="47.89846" lon="6.93209">
        <ele>823</ele>
        <time>2026-05-09T17:19:24.838Z</time>
      </trkpt>
      <trkpt lat="47.89846" lon="6.93212">
        <ele>824</ele>
        <time>2026-05-09T17:19:25.838Z</time>
      </trkpt>
      <trkpt lat="47.89846" lon="6.93214">
        <ele>824</ele>
        <time>2026-05-09T17:19:26.839Z</time>
      </trkpt>
      <trkpt lat="47.89846" lon="6.93217">
        <ele>824</ele>
        <time>2026-05-09T17:19:27.839Z</time>
      </trkpt>
      <trkpt lat="47.89846" lon="6.93217">
        <ele>824</ele>
        <time>2026-05-09T17:19:28.838Z</time>
      </trkpt>
      <trkpt lat="47.89845" lon="6.93221">
        <ele>823</ele>
        <time>2026-05-09T17:19:29.838Z</time>
      </trkpt>
      <trkpt lat="47.89845" lon="6.93221">
        <ele>823</ele>
        <time>2026-05-09T17:19:30.838Z</time>
      </trkpt>
      <trkpt lat="47.89845" lon="6.93223">
        <ele>823</ele>
        <time>2026-05-09T17:19:31.838Z</time>
      </trkpt>
      <trkpt lat="47.89845" lon="6.93225">
        <ele>823</ele>
        <time>2026-05-09T17:19:32.838Z</time>
      </trkpt>
      <trkpt lat="47.89844" lon="6.93229">
        <ele>823</ele>
        <time>2026-05-09T17:19:33.838Z</time>
      </trkpt>
      <trkpt lat="47.89844" lon="6.93229">
        <ele>823</ele>
        <time>2026-05-09T17:19:34.839Z</time>
      </trkpt>
      <trkpt lat="47.89844" lon="6.93232">
        <ele>823</ele>
        <time>2026-05-09T17:19:35.838Z</time>
      </trkpt>
      <trkpt lat="47.89843" lon="6.93235">
        <ele>822</ele>
        <time>2026-05-09T17:19:36.838Z</time>
      </trkpt>
      <trkpt lat="47.89842" lon="6.93237">
        <ele>822</ele>
        <time>2026-05-09T17:19:37.839Z</time>
      </trkpt>
      <trkpt lat="47.89841" lon="6.93239">
        <ele>822</ele>
        <time>2026-05-09T17:19:38.838Z</time>
      </trkpt>
      <trkpt lat="47.89841" lon="6.93241">
        <ele>821</ele>
        <time>2026-05-09T17:19:39.838Z</time>
      </trkpt>
      <trkpt lat="47.89841" lon="6.93241">
        <ele>821</ele>
        <time>2026-05-09T17:19:40.838Z</time>
      </trkpt>
      <trkpt lat="47.8984" lon="6.93243">
        <ele>821</ele>
        <time>2026-05-09T17:19:41.838Z</time>
      </trkpt>
      <trkpt lat="47.8984" lon="6.93247">
        <ele>821</ele>
        <time>2026-05-09T17:19:42.838Z</time>
      </trkpt>
      <trkpt lat="47.8984" lon="6.93247">
        <ele>821</ele>
        <time>2026-05-09T17:19:43.838Z</time>
      </trkpt>
      <trkpt lat="47.89839" lon="6.9325">
        <ele>821</ele>
        <time>2026-05-09T17:19:44.838Z</time>
      </trkpt>
      <trkpt lat="47.89839" lon="6.9325">
        <ele>821</ele>
        <time>2026-05-09T17:19:45.838Z</time>
      </trkpt>
      <trkpt lat="47.89839" lon="6.93252">
        <ele>821</ele>
        <time>2026-05-09T17:19:46.838Z</time>
      </trkpt>
      <trkpt lat="47.89839" lon="6.93254">
        <ele>821</ele>
        <time>2026-05-09T17:19:47.838Z</time>
      </trkpt>
      <trkpt lat="47.89838" lon="6.93255">
        <ele>821</ele>
        <time>2026-05-09T17:19:48.839Z</time>
      </trkpt>
      <trkpt lat="47.89837" lon="6.93257">
        <ele>820</ele>
        <time>2026-05-09T17:19:49.839Z</time>
      </trkpt>
      <trkpt lat="47.89837" lon="6.93259">
        <ele>820</ele>
        <time>2026-05-09T17:19:50.838Z</time>
      </trkpt>
      <trkpt lat="47.89836" lon="6.9326">
        <ele>820</ele>
        <time>2026-05-09T17:19:51.838Z</time>
      </trkpt>
      <trkpt lat="47.89836" lon="6.93262">
        <ele>819</ele>
        <time>2026-05-09T17:19:52.839Z</time>
      </trkpt>
      <trkpt lat="47.89836" lon="6.93263">
        <ele>819</ele>
        <time>2026-05-09T17:19:53.838Z</time>
      </trkpt>
      <trkpt lat="47.89835" lon="6.93267">
        <ele>818</ele>
        <time>2026-05-09T17:19:54.839Z</time>
      </trkpt>
      <trkpt lat="47.89835" lon="6.93267">
        <ele>818</ele>
        <time>2026-05-09T17:19:55.838Z</time>
      </trkpt>
      <trkpt lat="47.89836" lon="6.93268">
        <ele>818</ele>
        <time>2026-05-09T17:19:56.838Z</time>
      </trkpt>
      <trkpt lat="47.89835" lon="6.9327">
        <ele>817</ele>
        <time>2026-05-09T17:19:57.839Z</time>
      </trkpt>
      <trkpt lat="47.89835" lon="6.93275">
        <ele>817</ele>
        <time>2026-05-09T17:19:58.838Z</time>
      </trkpt>
      <trkpt lat="47.89835" lon="6.93275">
        <ele>817</ele>
        <time>2026-05-09T17:19:59.838Z</time>
      </trkpt>
      <trkpt lat="47.89835" lon="6.93277">
        <ele>817</ele>
        <time>2026-05-09T17:20:00.838Z</time>
      </trkpt>
      <trkpt lat="47.89835" lon="6.93279">
        <ele>817</ele>
        <time>2026-05-09T17:20:01.838Z</time>
      </trkpt>
      <trkpt lat="47.89834" lon="6.93282">
        <ele>816</ele>
        <time>2026-05-09T17:20:02.838Z</time>
      </trkpt>
      <trkpt lat="47.89834" lon="6.93282">
        <ele>816</ele>
        <time>2026-05-09T17:20:03.838Z</time>
      </trkpt>
      <trkpt lat="47.89834" lon="6.93284">
        <ele>815</ele>
        <time>2026-05-09T17:20:04.838Z</time>
      </trkpt>
      <trkpt lat="47.89834" lon="6.93285">
        <ele>815</ele>
        <time>2026-05-09T17:20:05.838Z</time>
      </trkpt>
      <trkpt lat="47.89834" lon="6.93287">
        <ele>814</ele>
        <time>2026-05-09T17:20:06.838Z</time>
      </trkpt>
      <trkpt lat="47.89833" lon="6.93289">
        <ele>814</ele>
        <time>2026-05-09T17:20:07.839Z</time>
      </trkpt>
      <trkpt lat="47.89833" lon="6.93291">
        <ele>814</ele>
        <time>2026-05-09T17:20:08.838Z</time>
      </trkpt>
      <trkpt lat="47.89832" lon="6.93293">
        <ele>813</ele>
        <time>2026-05-09T17:20:09.839Z</time>
      </trkpt>
      <trkpt lat="47.89832" lon="6.93295">
        <ele>814</ele>
        <time>2026-05-09T17:20:10.838Z</time>
      </trkpt>
      <trkpt lat="47.89832" lon="6.93297">
        <ele>814</ele>
        <time>2026-05-09T17:20:11.838Z</time>
      </trkpt>
      <trkpt lat="47.89831" lon="6.93299">
        <ele>815</ele>
        <time>2026-05-09T17:20:12.838Z</time>
      </trkpt>
      <trkpt lat="47.8983" lon="6.93302">
        <ele>815</ele>
        <time>2026-05-09T17:20:13.838Z</time>
      </trkpt>
      <trkpt lat="47.8983" lon="6.93303">
        <ele>816</ele>
        <time>2026-05-09T17:20:14.838Z</time>
      </trkpt>
      <trkpt lat="47.89829" lon="6.93305">
        <ele>816</ele>
        <time>2026-05-09T17:20:15.838Z</time>
      </trkpt>
      <trkpt lat="47.89828" lon="6.93307">
        <ele>817</ele>
        <time>2026-05-09T17:20:16.839Z</time>
      </trkpt>
      <trkpt lat="47.89828" lon="6.93308">
        <ele>817</ele>
        <time>2026-05-09T17:20:17.838Z</time>
      </trkpt>
      <trkpt lat="47.89828" lon="6.9331">
        <ele>817</ele>
        <time>2026-05-09T17:20:18.838Z</time>
      </trkpt>
      <trkpt lat="47.89828" lon="6.9331">
        <ele>817</ele>
        <time>2026-05-09T17:20:19.838Z</time>
      </trkpt>
      <trkpt lat="47.89828" lon="6.93311">
        <ele>817</ele>
        <time>2026-05-09T17:20:20.838Z</time>
      </trkpt>
      <trkpt lat="47.89828" lon="6.93313">
        <ele>817</ele>
        <time>2026-05-09T17:20:21.838Z</time>
      </trkpt>
      <trkpt lat="47.89827" lon="6.93315">
        <ele>817</ele>
        <time>2026-05-09T17:20:22.838Z</time>
      </trkpt>
      <trkpt lat="47.89826" lon="6.93317">
        <ele>817</ele>
        <time>2026-05-09T17:20:23.839Z</time>
      </trkpt>
      <trkpt lat="47.89826" lon="6.93318">
        <ele>817</ele>
        <time>2026-05-09T17:20:24.838Z</time>
      </trkpt>
      <trkpt lat="47.89826" lon="6.9332">
        <ele>817</ele>
        <time>2026-05-09T17:20:25.839Z</time>
      </trkpt>
      <trkpt lat="47.89825" lon="6.93322">
        <ele>817</ele>
        <time>2026-05-09T17:20:26.838Z</time>
      </trkpt>
      <trkpt lat="47.89824" lon="6.93325">
        <ele>817</ele>
        <time>2026-05-09T17:20:27.839Z</time>
      </trkpt>
      <trkpt lat="47.89824" lon="6.93325">
        <ele>817</ele>
        <time>2026-05-09T17:20:28.838Z</time>
      </trkpt>
      <trkpt lat="47.89824" lon="6.93326">
        <ele>817</ele>
        <time>2026-05-09T17:20:29.838Z</time>
      </trkpt>
      <trkpt lat="47.89824" lon="6.93328">
        <ele>817</ele>
        <time>2026-05-09T17:20:30.838Z</time>
      </trkpt>
      <trkpt lat="47.89824" lon="6.9333">
        <ele>817</ele>
        <time>2026-05-09T17:20:31.838Z</time>
      </trkpt>
      <trkpt lat="47.89824" lon="6.93332">
        <ele>817</ele>
        <time>2026-05-09T17:20:32.838Z</time>
      </trkpt>
      <trkpt lat="47.89824" lon="6.93333">
        <ele>817</ele>
        <time>2026-05-09T17:20:33.838Z</time>
      </trkpt>
      <trkpt lat="47.89823" lon="6.93335">
        <ele>817</ele>
        <time>2026-05-09T17:20:34.838Z</time>
      </trkpt>
      <trkpt lat="47.89823" lon="6.93337">
        <ele>817</ele>
        <time>2026-05-09T17:20:35.838Z</time>
      </trkpt>
      <trkpt lat="47.89823" lon="6.93338">
        <ele>817</ele>
        <time>2026-05-09T17:20:36.838Z</time>
      </trkpt>
      <trkpt lat="47.89822" lon="6.93339">
        <ele>817</ele>
        <time>2026-05-09T17:20:37.838Z</time>
      </trkpt>
      <trkpt lat="47.89822" lon="6.93341">
        <ele>817</ele>
        <time>2026-05-09T17:20:38.839Z</time>
      </trkpt>
      <trkpt lat="47.89821" lon="6.93342">
        <ele>816</ele>
        <time>2026-05-09T17:20:39.838Z</time>
      </trkpt>
      <trkpt lat="47.89821" lon="6.93344">
        <ele>816</ele>
        <time>2026-05-09T17:20:40.839Z</time>
      </trkpt>
      <trkpt lat="47.89821" lon="6.93346">
        <ele>815</ele>
        <time>2026-05-09T17:20:41.838Z</time>
      </trkpt>
      <trkpt lat="47.89821" lon="6.93347">
        <ele>815</ele>
        <time>2026-05-09T17:20:42.838Z</time>
      </trkpt>
      <trkpt lat="47.89821" lon="6.93349">
        <ele>815</ele>
        <time>2026-05-09T17:20:43.838Z</time>
      </trkpt>
      <trkpt lat="47.8982" lon="6.9335">
        <ele>815</ele>
        <time>2026-05-09T17:20:44.838Z</time>
      </trkpt>
      <trkpt lat="47.8982" lon="6.93352">
        <ele>814</ele>
        <time>2026-05-09T17:20:45.838Z</time>
      </trkpt>
      <trkpt lat="47.8982" lon="6.93354">
        <ele>814</ele>
        <time>2026-05-09T17:20:46.839Z</time>
      </trkpt>
      <trkpt lat="47.8982" lon="6.93356">
        <ele>815</ele>
        <time>2026-05-09T17:20:47.838Z</time>
      </trkpt>
      <trkpt lat="47.89819" lon="6.93359">
        <ele>815</ele>
        <time>2026-05-09T17:20:48.838Z</time>
      </trkpt>
      <trkpt lat="47.89819" lon="6.93359">
        <ele>815</ele>
        <time>2026-05-09T17:20:49.838Z</time>
      </trkpt>
      <trkpt lat="47.89819" lon="6.93361">
        <ele>815</ele>
        <time>2026-05-09T17:20:50.838Z</time>
      </trkpt>
      <trkpt lat="47.89819" lon="6.93363">
        <ele>816</ele>
        <time>2026-05-09T17:20:51.838Z</time>
      </trkpt>
      <trkpt lat="47.89819" lon="6.93364">
        <ele>816</ele>
        <time>2026-05-09T17:20:52.839Z</time>
      </trkpt>
      <trkpt lat="47.89819" lon="6.93366">
        <ele>816</ele>
        <time>2026-05-09T17:20:53.838Z</time>
      </trkpt>
      <trkpt lat="47.89819" lon="6.93368">
        <ele>816</ele>
        <time>2026-05-09T17:20:54.838Z</time>
      </trkpt>
      <trkpt lat="47.89819" lon="6.9337">
        <ele>816</ele>
        <time>2026-05-09T17:20:55.838Z</time>
      </trkpt>
      <trkpt lat="47.89818" lon="6.93372">
        <ele>816</ele>
        <time>2026-05-09T17:20:56.838Z</time>
      </trkpt>
      <trkpt lat="47.89818" lon="6.93374">
        <ele>816</ele>
        <time>2026-05-09T17:20:57.838Z</time>
      </trkpt>
      <trkpt lat="47.89819" lon="6.93376">
        <ele>816</ele>
        <time>2026-05-09T17:20:58.839Z</time>
      </trkpt>
      <trkpt lat="47.89818" lon="6.9338">
        <ele>816</ele>
        <time>2026-05-09T17:20:59.839Z</time>
      </trkpt>
      <trkpt lat="47.89818" lon="6.93382">
        <ele>817</ele>
        <time>2026-05-09T17:21:00.839Z</time>
      </trkpt>
      <trkpt lat="47.89819" lon="6.93384">
        <ele>817</ele>
        <time>2026-05-09T17:21:01.838Z</time>
      </trkpt>
      <trkpt lat="47.89819" lon="6.93384">
        <ele>817</ele>
        <time>2026-05-09T17:21:02.839Z</time>
      </trkpt>
      <trkpt lat="47.89819" lon="6.93385">
        <ele>817</ele>
        <time>2026-05-09T17:21:03.838Z</time>
      </trkpt>
      <trkpt lat="47.89818" lon="6.93389">
        <ele>817</ele>
        <time>2026-05-09T17:21:04.838Z</time>
      </trkpt>
      <trkpt lat="47.89818" lon="6.93391">
        <ele>817</ele>
        <time>2026-05-09T17:21:05.838Z</time>
      </trkpt>
      <trkpt lat="47.89819" lon="6.93393">
        <ele>817</ele>
        <time>2026-05-09T17:21:06.839Z</time>
      </trkpt>
      <trkpt lat="47.89819" lon="6.93393">
        <ele>817</ele>
        <time>2026-05-09T17:21:07.839Z</time>
      </trkpt>
      <trkpt lat="47.89819" lon="6.93397">
        <ele>818</ele>
        <time>2026-05-09T17:21:08.838Z</time>
      </trkpt>
      <trkpt lat="47.89819" lon="6.934">
        <ele>818</ele>
        <time>2026-05-09T17:21:09.838Z</time>
      </trkpt>
      <trkpt lat="47.8982" lon="6.93403">
        <ele>819</ele>
        <time>2026-05-09T17:21:10.838Z</time>
      </trkpt>
      <trkpt lat="47.89821" lon="6.93405">
        <ele>819</ele>
        <time>2026-05-09T17:21:11.839Z</time>
      </trkpt>
      <trkpt lat="47.89821" lon="6.93405">
        <ele>819</ele>
        <time>2026-05-09T17:21:12.839Z</time>
      </trkpt>
      <trkpt lat="47.89821" lon="6.93407">
        <ele>820</ele>
        <time>2026-05-09T17:21:13.838Z</time>
      </trkpt>
      <trkpt lat="47.89821" lon="6.93412">
        <ele>820</ele>
        <time>2026-05-09T17:21:14.838Z</time>
      </trkpt>
      <trkpt lat="47.89822" lon="6.93413">
        <ele>821</ele>
        <time>2026-05-09T17:21:15.839Z</time>
      </trkpt>
      <trkpt lat="47.89823" lon="6.93414">
        <ele>821</ele>
        <time>2026-05-09T17:21:16.838Z</time>
      </trkpt>
      <trkpt lat="47.89823" lon="6.93414">
        <ele>821</ele>
        <time>2026-05-09T17:21:17.838Z</time>
      </trkpt>
      <trkpt lat="47.89823" lon="6.93415">
        <ele>821</ele>
        <time>2026-05-09T17:21:18.838Z</time>
      </trkpt>
      <trkpt lat="47.89823" lon="6.93417">
        <ele>822</ele>
        <time>2026-05-09T17:21:19.838Z</time>
      </trkpt>
      <trkpt lat="47.89824" lon="6.93418">
        <ele>822</ele>
        <time>2026-05-09T17:21:20.838Z</time>
      </trkpt>
      <trkpt lat="47.89824" lon="6.9342">
        <ele>822</ele>
        <time>2026-05-09T17:21:21.839Z</time>
      </trkpt>
      <trkpt lat="47.89824" lon="6.9342">
        <ele>822</ele>
        <time>2026-05-09T17:21:22.839Z</time>
      </trkpt>
      <trkpt lat="47.89823" lon="6.93422">
        <ele>822</ele>
        <time>2026-05-09T17:21:23.839Z</time>
      </trkpt>
      <trkpt lat="47.89822" lon="6.93426">
        <ele>823</ele>
        <time>2026-05-09T17:21:24.838Z</time>
      </trkpt>
      <trkpt lat="47.89822" lon="6.93427">
        <ele>823</ele>
        <time>2026-05-09T17:21:25.839Z</time>
      </trkpt>
      <trkpt lat="47.89822" lon="6.93428">
        <ele>823</ele>
        <time>2026-05-09T17:21:26.838Z</time>
      </trkpt>
      <trkpt lat="47.89822" lon="6.93428">
        <ele>823</ele>
        <time>2026-05-09T17:21:27.838Z</time>
      </trkpt>
      <trkpt lat="47.89822" lon="6.9343">
        <ele>823</ele>
        <time>2026-05-09T17:21:28.838Z</time>
      </trkpt>
      <trkpt lat="47.89821" lon="6.93434">
        <ele>822</ele>
        <time>2026-05-09T17:21:29.838Z</time>
      </trkpt>
      <trkpt lat="47.8982" lon="6.93436">
        <ele>822</ele>
        <time>2026-05-09T17:21:30.838Z</time>
      </trkpt>
      <trkpt lat="47.89821" lon="6.93437">
        <ele>822</ele>
        <time>2026-05-09T17:21:31.838Z</time>
      </trkpt>
      <trkpt lat="47.89821" lon="6.93439">
        <ele>822</ele>
        <time>2026-05-09T17:21:32.838Z</time>
      </trkpt>
      <trkpt lat="47.89822" lon="6.93441">
        <ele>822</ele>
        <time>2026-05-09T17:21:33.838Z</time>
      </trkpt>
      <trkpt lat="47.89822" lon="6.93443">
        <ele>823</ele>
        <time>2026-05-09T17:21:34.839Z</time>
      </trkpt>
      <trkpt lat="47.89821" lon="6.93446">
        <ele>824</ele>
        <time>2026-05-09T17:21:35.838Z</time>
      </trkpt>
      <trkpt lat="47.89821" lon="6.93449">
        <ele>825</ele>
        <time>2026-05-09T17:21:36.838Z</time>
      </trkpt>
      <trkpt lat="47.89821" lon="6.93451">
        <ele>825</ele>
        <time>2026-05-09T17:21:37.839Z</time>
      </trkpt>
      <trkpt lat="47.8982" lon="6.93453">
        <ele>826</ele>
        <time>2026-05-09T17:21:38.838Z</time>
      </trkpt>
      <trkpt lat="47.8982" lon="6.93456">
        <ele>827</ele>
        <time>2026-05-09T17:21:39.839Z</time>
      </trkpt>
      <trkpt lat="47.89819" lon="6.93459">
        <ele>828</ele>
        <time>2026-05-09T17:21:40.838Z</time>
      </trkpt>
      <trkpt lat="47.8982" lon="6.93462">
        <ele>829</ele>
        <time>2026-05-09T17:21:41.839Z</time>
      </trkpt>
      <trkpt lat="47.89819" lon="6.93465">
        <ele>829</ele>
        <time>2026-05-09T17:21:42.838Z</time>
      </trkpt>
      <trkpt lat="47.89819" lon="6.93468">
        <ele>830</ele>
        <time>2026-05-09T17:21:43.839Z</time>
      </trkpt>
      <trkpt lat="47.89819" lon="6.93469">
        <ele>831</ele>
        <time>2026-05-09T17:21:44.838Z</time>
      </trkpt>
      <trkpt lat="47.89818" lon="6.9347">
        <ele>831</ele>
        <time>2026-05-09T17:21:45.838Z</time>
      </trkpt>
      <trkpt lat="47.89818" lon="6.93472">
        <ele>831</ele>
        <time>2026-05-09T17:21:46.838Z</time>
      </trkpt>
      <trkpt lat="47.89817" lon="6.93473">
        <ele>830</ele>
        <time>2026-05-09T17:21:47.838Z</time>
      </trkpt>
      <trkpt lat="47.89816" lon="6.93474">
        <ele>830</ele>
        <time>2026-05-09T17:21:48.838Z</time>
      </trkpt>
      <trkpt lat="47.89816" lon="6.93475">
        <ele>829</ele>
        <time>2026-05-09T17:21:49.839Z</time>
      </trkpt>
      <trkpt lat="47.89815" lon="6.93477">
        <ele>828</ele>
        <time>2026-05-09T17:21:50.838Z</time>
      </trkpt>
      <trkpt lat="47.89815" lon="6.93479">
        <ele>828</ele>
        <time>2026-05-09T17:21:51.838Z</time>
      </trkpt>
      <trkpt lat="47.89814" lon="6.9348">
        <ele>827</ele>
        <time>2026-05-09T17:21:52.838Z</time>
      </trkpt>
      <trkpt lat="47.89814" lon="6.9348">
        <ele>827</ele>
        <time>2026-05-09T17:21:53.838Z</time>
      </trkpt>
      <trkpt lat="47.89813" lon="6.93484">
        <ele>826</ele>
        <time>2026-05-09T17:21:54.838Z</time>
      </trkpt>
      <trkpt lat="47.89813" lon="6.93486">
        <ele>826</ele>
        <time>2026-05-09T17:21:55.838Z</time>
      </trkpt>
      <trkpt lat="47.89813" lon="6.93488">
        <ele>825</ele>
        <time>2026-05-09T17:21:56.838Z</time>
      </trkpt>
      <trkpt lat="47.89813" lon="6.93488">
        <ele>825</ele>
        <time>2026-05-09T17:21:57.839Z</time>
      </trkpt>
      <trkpt lat="47.89813" lon="6.93493">
        <ele>826</ele>
        <time>2026-05-09T17:21:58.838Z</time>
      </trkpt>
      <trkpt lat="47.89813" lon="6.93495">
        <ele>825</ele>
        <time>2026-05-09T17:21:59.838Z</time>
      </trkpt>
      <trkpt lat="47.89812" lon="6.93498">
        <ele>826</ele>
        <time>2026-05-09T17:22:00.839Z</time>
      </trkpt>
      <trkpt lat="47.89812" lon="6.935">
        <ele>826</ele>
        <time>2026-05-09T17:22:01.838Z</time>
      </trkpt>
      <trkpt lat="47.89813" lon="6.93502">
        <ele>826</ele>
        <time>2026-05-09T17:22:02.838Z</time>
      </trkpt>
      <trkpt lat="47.89812" lon="6.93504">
        <ele>826</ele>
        <time>2026-05-09T17:22:03.838Z</time>
      </trkpt>
      <trkpt lat="47.8981" lon="6.93506">
        <ele>826</ele>
        <time>2026-05-09T17:22:04.838Z</time>
      </trkpt>
      <trkpt lat="47.89811" lon="6.93508">
        <ele>826</ele>
        <time>2026-05-09T17:22:05.838Z</time>
      </trkpt>
      <trkpt lat="47.89811" lon="6.9351">
        <ele>826</ele>
        <time>2026-05-09T17:22:06.838Z</time>
      </trkpt>
      <trkpt lat="47.89812" lon="6.93513">
        <ele>826</ele>
        <time>2026-05-09T17:22:07.838Z</time>
      </trkpt>
      <trkpt lat="47.89811" lon="6.93516">
        <ele>826</ele>
        <time>2026-05-09T17:22:08.838Z</time>
      </trkpt>
      <trkpt lat="47.89811" lon="6.93518">
        <ele>826</ele>
        <time>2026-05-09T17:22:09.838Z</time>
      </trkpt>
      <trkpt lat="47.89811" lon="6.93521">
        <ele>827</ele>
        <time>2026-05-09T17:22:10.838Z</time>
      </trkpt>
      <trkpt lat="47.89811" lon="6.93522">
        <ele>827</ele>
        <time>2026-05-09T17:22:11.838Z</time>
      </trkpt>
      <trkpt lat="47.89811" lon="6.93524">
        <ele>827</ele>
        <time>2026-05-09T17:22:12.838Z</time>
      </trkpt>
      <trkpt lat="47.89811" lon="6.93525">
        <ele>827</ele>
        <time>2026-05-09T17:22:13.838Z</time>
      </trkpt>
      <trkpt lat="47.89811" lon="6.93527">
        <ele>827</ele>
        <time>2026-05-09T17:22:14.838Z</time>
      </trkpt>
      <trkpt lat="47.89811" lon="6.93529">
        <ele>827</ele>
        <time>2026-05-09T17:22:15.839Z</time>
      </trkpt>
      <trkpt lat="47.89811" lon="6.9353">
        <ele>827</ele>
        <time>2026-05-09T17:22:16.838Z</time>
      </trkpt>
      <trkpt lat="47.89811" lon="6.93531">
        <ele>827</ele>
        <time>2026-05-09T17:22:17.838Z</time>
      </trkpt>
      <trkpt lat="47.89811" lon="6.93531">
        <ele>827</ele>
        <time>2026-05-09T17:22:18.838Z</time>
      </trkpt>
      <trkpt lat="47.89812" lon="6.93534">
        <ele>827</ele>
        <time>2026-05-09T17:22:19.838Z</time>
      </trkpt>
      <trkpt lat="47.89811" lon="6.93535">
        <ele>826</ele>
        <time>2026-05-09T17:22:20.839Z</time>
      </trkpt>
      <trkpt lat="47.89811" lon="6.93537">
        <ele>826</ele>
        <time>2026-05-09T17:22:21.839Z</time>
      </trkpt>
      <trkpt lat="47.89811" lon="6.93537">
        <ele>826</ele>
        <time>2026-05-09T17:22:22.838Z</time>
      </trkpt>
      <trkpt lat="47.89812" lon="6.9354">
        <ele>825</ele>
        <time>2026-05-09T17:22:23.838Z</time>
      </trkpt>
      <trkpt lat="47.89813" lon="6.93542">
        <ele>824</ele>
        <time>2026-05-09T17:22:24.839Z</time>
      </trkpt>
      <trkpt lat="47.89813" lon="6.93544">
        <ele>824</ele>
        <time>2026-05-09T17:22:25.838Z</time>
      </trkpt>
      <trkpt lat="47.89813" lon="6.93546">
        <ele>824</ele>
        <time>2026-05-09T17:22:26.838Z</time>
      </trkpt>
      <trkpt lat="47.89814" lon="6.93548">
        <ele>825</ele>
        <time>2026-05-09T17:22:27.838Z</time>
      </trkpt>
      <trkpt lat="47.89813" lon="6.9355">
        <ele>825</ele>
        <time>2026-05-09T17:22:28.838Z</time>
      </trkpt>
      <trkpt lat="47.89814" lon="6.93552">
        <ele>825</ele>
        <time>2026-05-09T17:22:29.838Z</time>
      </trkpt>
      <trkpt lat="47.89814" lon="6.93553">
        <ele>826</ele>
        <time>2026-05-09T17:22:30.838Z</time>
      </trkpt>
      <trkpt lat="47.89814" lon="6.93555">
        <ele>826</ele>
        <time>2026-05-09T17:22:31.839Z</time>
      </trkpt>
      <trkpt lat="47.89814" lon="6.93557">
        <ele>826</ele>
        <time>2026-05-09T17:22:32.838Z</time>
      </trkpt>
      <trkpt lat="47.89814" lon="6.93559">
        <ele>826</ele>
        <time>2026-05-09T17:22:33.838Z</time>
      </trkpt>
      <trkpt lat="47.89814" lon="6.9356">
        <ele>827</ele>
        <time>2026-05-09T17:22:34.839Z</time>
      </trkpt>
      <trkpt lat="47.89814" lon="6.93562">
        <ele>827</ele>
        <time>2026-05-09T17:22:35.838Z</time>
      </trkpt>
      <trkpt lat="47.89814" lon="6.93564">
        <ele>827</ele>
        <time>2026-05-09T17:22:36.839Z</time>
      </trkpt>
      <trkpt lat="47.89814" lon="6.93566">
        <ele>827</ele>
        <time>2026-05-09T17:22:37.839Z</time>
      </trkpt>
      <trkpt lat="47.89814" lon="6.93567">
        <ele>827</ele>
        <time>2026-05-09T17:22:38.839Z</time>
      </trkpt>
      <trkpt lat="47.89814" lon="6.93568">
        <ele>827</ele>
        <time>2026-05-09T17:22:39.838Z</time>
      </trkpt>
      <trkpt lat="47.89814" lon="6.9357">
        <ele>826</ele>
        <time>2026-05-09T17:22:40.839Z</time>
      </trkpt>
      <trkpt lat="47.89814" lon="6.93571">
        <ele>826</ele>
        <time>2026-05-09T17:22:41.839Z</time>
      </trkpt>
      <trkpt lat="47.89813" lon="6.93573">
        <ele>826</ele>
        <time>2026-05-09T17:22:42.838Z</time>
      </trkpt>
      <trkpt lat="47.89813" lon="6.93573">
        <ele>826</ele>
        <time>2026-05-09T17:22:43.838Z</time>
      </trkpt>
      <trkpt lat="47.89813" lon="6.93576">
        <ele>825</ele>
        <time>2026-05-09T17:22:44.838Z</time>
      </trkpt>
      <trkpt lat="47.89814" lon="6.93578">
        <ele>825</ele>
        <time>2026-05-09T17:22:45.839Z</time>
      </trkpt>
      <trkpt lat="47.89814" lon="6.93579">
        <ele>825</ele>
        <time>2026-05-09T17:22:46.838Z</time>
      </trkpt>
      <trkpt lat="47.89814" lon="6.93579">
        <ele>825</ele>
        <time>2026-05-09T17:22:47.838Z</time>
      </trkpt>
      <trkpt lat="47.89813" lon="6.93582">
        <ele>824</ele>
        <time>2026-05-09T17:22:48.839Z</time>
      </trkpt>
      <trkpt lat="47.89813" lon="6.93585">
        <ele>824</ele>
        <time>2026-05-09T17:22:49.838Z</time>
      </trkpt>
      <trkpt lat="47.89813" lon="6.93586">
        <ele>824</ele>
        <time>2026-05-09T17:22:50.838Z</time>
      </trkpt>
      <trkpt lat="47.89813" lon="6.93588">
        <ele>824</ele>
        <time>2026-05-09T17:22:51.838Z</time>
      </trkpt>
      <trkpt lat="47.89814" lon="6.93589">
        <ele>824</ele>
        <time>2026-05-09T17:22:52.839Z</time>
      </trkpt>
      <trkpt lat="47.89814" lon="6.93591">
        <ele>823</ele>
        <time>2026-05-09T17:22:53.838Z</time>
      </trkpt>
      <trkpt lat="47.89814" lon="6.93593">
        <ele>823</ele>
        <time>2026-05-09T17:22:54.838Z</time>
      </trkpt>
      <trkpt lat="47.89814" lon="6.93595">
        <ele>823</ele>
        <time>2026-05-09T17:22:55.839Z</time>
      </trkpt>
      <trkpt lat="47.89813" lon="6.93598">
        <ele>823</ele>
        <time>2026-05-09T17:22:56.838Z</time>
      </trkpt>
      <trkpt lat="47.89813" lon="6.93599">
        <ele>823</ele>
        <time>2026-05-09T17:22:57.838Z</time>
      </trkpt>
      <trkpt lat="47.89813" lon="6.93601">
        <ele>823</ele>
        <time>2026-05-09T17:22:58.838Z</time>
      </trkpt>
      <trkpt lat="47.89812" lon="6.93602">
        <ele>823</ele>
        <time>2026-05-09T17:22:59.838Z</time>
      </trkpt>
      <trkpt lat="47.89811" lon="6.93604">
        <ele>823</ele>
        <time>2026-05-09T17:23:00.838Z</time>
      </trkpt>
      <trkpt lat="47.89811" lon="6.93606">
        <ele>822</ele>
        <time>2026-05-09T17:23:01.838Z</time>
      </trkpt>
      <trkpt lat="47.89811" lon="6.93608">
        <ele>822</ele>
        <time>2026-05-09T17:23:02.838Z</time>
      </trkpt>
      <trkpt lat="47.89811" lon="6.93608">
        <ele>822</ele>
        <time>2026-05-09T17:23:03.839Z</time>
      </trkpt>
      <trkpt lat="47.89811" lon="6.93612">
        <ele>823</ele>
        <time>2026-05-09T17:23:04.838Z</time>
      </trkpt>
      <trkpt lat="47.89812" lon="6.93614">
        <ele>823</ele>
        <time>2026-05-09T17:23:05.838Z</time>
      </trkpt>
      <trkpt lat="47.89812" lon="6.93616">
        <ele>823</ele>
        <time>2026-05-09T17:23:06.838Z</time>
      </trkpt>
      <trkpt lat="47.89812" lon="6.93616">
        <ele>823</ele>
        <time>2026-05-09T17:23:07.838Z</time>
      </trkpt>
      <trkpt lat="47.89812" lon="6.9362">
        <ele>824</ele>
        <time>2026-05-09T17:23:08.838Z</time>
      </trkpt>
      <trkpt lat="47.89811" lon="6.93621">
        <ele>824</ele>
        <time>2026-05-09T17:23:09.838Z</time>
      </trkpt>
      <trkpt lat="47.89811" lon="6.93623">
        <ele>825</ele>
        <time>2026-05-09T17:23:10.838Z</time>
      </trkpt>
      <trkpt lat="47.89811" lon="6.93624">
        <ele>825</ele>
        <time>2026-05-09T17:23:11.838Z</time>
      </trkpt>
      <trkpt lat="47.89811" lon="6.93624">
        <ele>825</ele>
        <time>2026-05-09T17:23:12.838Z</time>
      </trkpt>
      <trkpt lat="47.8981" lon="6.93627">
        <ele>827</ele>
        <time>2026-05-09T17:23:13.838Z</time>
      </trkpt>
      <trkpt lat="47.8981" lon="6.93628">
        <ele>827</ele>
        <time>2026-05-09T17:23:14.838Z</time>
      </trkpt>
      <trkpt lat="47.8981" lon="6.9363">
        <ele>828</ele>
        <time>2026-05-09T17:23:15.838Z</time>
      </trkpt>
      <trkpt lat="47.8981" lon="6.93633">
        <ele>828</ele>
        <time>2026-05-09T17:23:16.838Z</time>
      </trkpt>
      <trkpt lat="47.8981" lon="6.93635">
        <ele>829</ele>
        <time>2026-05-09T17:23:17.838Z</time>
      </trkpt>
      <trkpt lat="47.8981" lon="6.93637">
        <ele>829</ele>
        <time>2026-05-09T17:23:18.839Z</time>
      </trkpt>
      <trkpt lat="47.8981" lon="6.93639">
        <ele>829</ele>
        <time>2026-05-09T17:23:19.838Z</time>
      </trkpt>
      <trkpt lat="47.8981" lon="6.93642">
        <ele>829</ele>
        <time>2026-05-09T17:23:20.838Z</time>
      </trkpt>
      <trkpt lat="47.89811" lon="6.93644">
        <ele>830</ele>
        <time>2026-05-09T17:23:21.838Z</time>
      </trkpt>
      <trkpt lat="47.89811" lon="6.93647">
        <ele>830</ele>
        <time>2026-05-09T17:23:22.838Z</time>
      </trkpt>
      <trkpt lat="47.89812" lon="6.93649">
        <ele>831</ele>
        <time>2026-05-09T17:23:23.838Z</time>
      </trkpt>
      <trkpt lat="47.89812" lon="6.93651">
        <ele>831</ele>
        <time>2026-05-09T17:23:24.838Z</time>
      </trkpt>
      <trkpt lat="47.89813" lon="6.93653">
        <ele>831</ele>
        <time>2026-05-09T17:23:25.838Z</time>
      </trkpt>
      <trkpt lat="47.89813" lon="6.93655">
        <ele>831</ele>
        <time>2026-05-09T17:23:26.839Z</time>
      </trkpt>
      <trkpt lat="47.89813" lon="6.93656">
        <ele>831</ele>
        <time>2026-05-09T17:23:27.838Z</time>
      </trkpt>
      <trkpt lat="47.89813" lon="6.93656">
        <ele>831</ele>
        <time>2026-05-09T17:23:28.838Z</time>
      </trkpt>
      <trkpt lat="47.89813" lon="6.9366">
        <ele>830</ele>
        <time>2026-05-09T17:23:29.838Z</time>
      </trkpt>
      <trkpt lat="47.89813" lon="6.93662">
        <ele>829</ele>
        <time>2026-05-09T17:23:30.838Z</time>
      </trkpt>
      <trkpt lat="47.89814" lon="6.93664">
        <ele>829</ele>
        <time>2026-05-09T17:23:31.838Z</time>
      </trkpt>
      <trkpt lat="47.89814" lon="6.93664">
        <ele>829</ele>
        <time>2026-05-09T17:23:32.839Z</time>
      </trkpt>
      <trkpt lat="47.89815" lon="6.93668">
        <ele>829</ele>
        <time>2026-05-09T17:23:33.838Z</time>
      </trkpt>
      <trkpt lat="47.89816" lon="6.93669">
        <ele>829</ele>
        <time>2026-05-09T17:23:34.838Z</time>
      </trkpt>
      <trkpt lat="47.89816" lon="6.9367">
        <ele>829</ele>
        <time>2026-05-09T17:23:35.839Z</time>
      </trkpt>
      <trkpt lat="47.89817" lon="6.93672">
        <ele>828</ele>
        <time>2026-05-09T17:23:36.839Z</time>
      </trkpt>
      <trkpt lat="47.89816" lon="6.93673">
        <ele>828</ele>
        <time>2026-05-09T17:23:37.838Z</time>
      </trkpt>
      <trkpt lat="47.89816" lon="6.93675">
        <ele>828</ele>
        <time>2026-05-09T17:23:38.839Z</time>
      </trkpt>
      <trkpt lat="47.89816" lon="6.93676">
        <ele>828</ele>
        <time>2026-05-09T17:23:39.839Z</time>
      </trkpt>
      <trkpt lat="47.89817" lon="6.93676">
        <ele>828</ele>
        <time>2026-05-09T17:23:40.838Z</time>
      </trkpt>
      <trkpt lat="47.89817" lon="6.93677">
        <ele>828</ele>
        <time>2026-05-09T17:23:41.839Z</time>
      </trkpt>
      <trkpt lat="47.89817" lon="6.93678">
        <ele>828</ele>
        <time>2026-05-09T17:23:42.838Z</time>
      </trkpt>
      <trkpt lat="47.89817" lon="6.9368">
        <ele>828</ele>
        <time>2026-05-09T17:23:43.839Z</time>
      </trkpt>
      <trkpt lat="47.89817" lon="6.93681">
        <ele>828</ele>
        <time>2026-05-09T17:23:44.838Z</time>
      </trkpt>
      <trkpt lat="47.89818" lon="6.93683">
        <ele>829</ele>
        <time>2026-05-09T17:23:45.838Z</time>
      </trkpt>
      <trkpt lat="47.89817" lon="6.93684">
        <ele>829</ele>
        <time>2026-05-09T17:23:46.838Z</time>
      </trkpt>
      <trkpt lat="47.89816" lon="6.93687">
        <ele>830</ele>
        <time>2026-05-09T17:23:47.838Z</time>
      </trkpt>
      <trkpt lat="47.89816" lon="6.93688">
        <ele>830</ele>
        <time>2026-05-09T17:23:48.838Z</time>
      </trkpt>
      <trkpt lat="47.89816" lon="6.93689">
        <ele>831</ele>
        <time>2026-05-09T17:23:49.839Z</time>
      </trkpt>
      <trkpt lat="47.89816" lon="6.9369">
        <ele>832</ele>
        <time>2026-05-09T17:23:50.838Z</time>
      </trkpt>
      <trkpt lat="47.89816" lon="6.93692">
        <ele>832</ele>
        <time>2026-05-09T17:23:51.838Z</time>
      </trkpt>
      <trkpt lat="47.89816" lon="6.93694">
        <ele>832</ele>
        <time>2026-05-09T17:23:52.838Z</time>
      </trkpt>
      <trkpt lat="47.89816" lon="6.93694">
        <ele>832</ele>
        <time>2026-05-09T17:23:53.838Z</time>
      </trkpt>
      <trkpt lat="47.89815" lon="6.93697">
        <ele>833</ele>
        <time>2026-05-09T17:23:54.839Z</time>
      </trkpt>
      <trkpt lat="47.89816" lon="6.93698">
        <ele>833</ele>
        <time>2026-05-09T17:23:55.838Z</time>
      </trkpt>
      <trkpt lat="47.89817" lon="6.93701">
        <ele>833</ele>
        <time>2026-05-09T17:23:56.838Z</time>
      </trkpt>
      <trkpt lat="47.89817" lon="6.93701">
        <ele>833</ele>
        <time>2026-05-09T17:23:57.838Z</time>
      </trkpt>
      <trkpt lat="47.89818" lon="6.93705">
        <ele>834</ele>
        <time>2026-05-09T17:23:58.839Z</time>
      </trkpt>
      <trkpt lat="47.89818" lon="6.93707">
        <ele>833</ele>
        <time>2026-05-09T17:23:59.838Z</time>
      </trkpt>
      <trkpt lat="47.89818" lon="6.93708">
        <ele>833</ele>
        <time>2026-05-09T17:24:00.838Z</time>
      </trkpt>
      <trkpt lat="47.89819" lon="6.93711">
        <ele>833</ele>
        <time>2026-05-09T17:24:01.838Z</time>
      </trkpt>
      <trkpt lat="47.89819" lon="6.93713">
        <ele>834</ele>
        <time>2026-05-09T17:24:02.838Z</time>
      </trkpt>
      <trkpt lat="47.89819" lon="6.93715">
        <ele>834</ele>
        <time>2026-05-09T17:24:03.838Z</time>
      </trkpt>
      <trkpt lat="47.89819" lon="6.93716">
        <ele>834</ele>
        <time>2026-05-09T17:24:04.838Z</time>
      </trkpt>
      <trkpt lat="47.89819" lon="6.93717">
        <ele>834</ele>
        <time>2026-05-09T17:24:05.839Z</time>
      </trkpt>
      <trkpt lat="47.8982" lon="6.93719">
        <ele>834</ele>
        <time>2026-05-09T17:24:06.838Z</time>
      </trkpt>
      <trkpt lat="47.8982" lon="6.93721">
        <ele>834</ele>
        <time>2026-05-09T17:24:07.839Z</time>
      </trkpt>
      <trkpt lat="47.89821" lon="6.93722">
        <ele>834</ele>
        <time>2026-05-09T17:24:08.838Z</time>
      </trkpt>
      <trkpt lat="47.89821" lon="6.93724">
        <ele>834</ele>
        <time>2026-05-09T17:24:09.838Z</time>
      </trkpt>
      <trkpt lat="47.89822" lon="6.93726">
        <ele>834</ele>
        <time>2026-05-09T17:24:10.838Z</time>
      </trkpt>
      <trkpt lat="47.89822" lon="6.93727">
        <ele>835</ele>
        <time>2026-05-09T17:24:11.838Z</time>
      </trkpt>
      <trkpt lat="47.89823" lon="6.93728">
        <ele>835</ele>
        <time>2026-05-09T17:24:12.838Z</time>
      </trkpt>
      <trkpt lat="47.89823" lon="6.9373">
        <ele>834</ele>
        <time>2026-05-09T17:24:13.839Z</time>
      </trkpt>
      <trkpt lat="47.89823" lon="6.93732">
        <ele>834</ele>
        <time>2026-05-09T17:24:14.838Z</time>
      </trkpt>
      <trkpt lat="47.89822" lon="6.93734">
        <ele>834</ele>
        <time>2026-05-09T17:24:15.838Z</time>
      </trkpt>
      <trkpt lat="47.89822" lon="6.93737">
        <ele>834</ele>
        <time>2026-05-09T17:24:16.838Z</time>
      </trkpt>
      <trkpt lat="47.89823" lon="6.93739">
        <ele>834</ele>
        <time>2026-05-09T17:24:17.839Z</time>
      </trkpt>
      <trkpt lat="47.89823" lon="6.93739">
        <ele>834</ele>
        <time>2026-05-09T17:24:18.838Z</time>
      </trkpt>
      <trkpt lat="47.89824" lon="6.93743">
        <ele>834</ele>
        <time>2026-05-09T17:24:19.838Z</time>
      </trkpt>
      <trkpt lat="47.89824" lon="6.93746">
        <ele>834</ele>
        <time>2026-05-09T17:24:20.838Z</time>
      </trkpt>
      <trkpt lat="47.89825" lon="6.93748">
        <ele>835</ele>
        <time>2026-05-09T17:24:21.838Z</time>
      </trkpt>
      <trkpt lat="47.89825" lon="6.93748">
        <ele>835</ele>
        <time>2026-05-09T17:24:22.839Z</time>
      </trkpt>
      <trkpt lat="47.89826" lon="6.93752">
        <ele>835</ele>
        <time>2026-05-09T17:24:23.838Z</time>
      </trkpt>
      <trkpt lat="47.89826" lon="6.93755">
        <ele>836</ele>
        <time>2026-05-09T17:24:24.838Z</time>
      </trkpt>
      <trkpt lat="47.89827" lon="6.93758">
        <ele>836</ele>
        <time>2026-05-09T17:24:25.838Z</time>
      </trkpt>
      <trkpt lat="47.89828" lon="6.93759">
        <ele>837</ele>
        <time>2026-05-09T17:24:26.839Z</time>
      </trkpt>
      <trkpt lat="47.89828" lon="6.93761">
        <ele>837</ele>
        <time>2026-05-09T17:24:27.838Z</time>
      </trkpt>
      <trkpt lat="47.89829" lon="6.93762">
        <ele>837</ele>
        <time>2026-05-09T17:24:28.838Z</time>
      </trkpt>
      <trkpt lat="47.89829" lon="6.93764">
        <ele>838</ele>
        <time>2026-05-09T17:24:29.838Z</time>
      </trkpt>
      <trkpt lat="47.89829" lon="6.93765">
        <ele>838</ele>
        <time>2026-05-09T17:24:30.838Z</time>
      </trkpt>
      <trkpt lat="47.89829" lon="6.93767">
        <ele>837</ele>
        <time>2026-05-09T17:24:31.838Z</time>
      </trkpt>
      <trkpt lat="47.89829" lon="6.93769">
        <ele>837</ele>
        <time>2026-05-09T17:24:32.838Z</time>
      </trkpt>
      <trkpt lat="47.89829" lon="6.9377">
        <ele>837</ele>
        <time>2026-05-09T17:24:33.838Z</time>
      </trkpt>
      <trkpt lat="47.89829" lon="6.93772">
        <ele>837</ele>
        <time>2026-05-09T17:24:34.838Z</time>
      </trkpt>
      <trkpt lat="47.89829" lon="6.93773">
        <ele>837</ele>
        <time>2026-05-09T17:24:35.839Z</time>
      </trkpt>
      <trkpt lat="47.89829" lon="6.93775">
        <ele>837</ele>
        <time>2026-05-09T17:24:36.838Z</time>
      </trkpt>
      <trkpt lat="47.8983" lon="6.93777">
        <ele>837</ele>
        <time>2026-05-09T17:24:37.838Z</time>
      </trkpt>
      <trkpt lat="47.8983" lon="6.93777">
        <ele>837</ele>
        <time>2026-05-09T17:24:38.838Z</time>
      </trkpt>
      <trkpt lat="47.89829" lon="6.93782">
        <ele>838</ele>
        <time>2026-05-09T17:24:39.838Z</time>
      </trkpt>
      <trkpt lat="47.89829" lon="6.93784">
        <ele>838</ele>
        <time>2026-05-09T17:24:40.838Z</time>
      </trkpt>
      <trkpt lat="47.89829" lon="6.93787">
        <ele>839</ele>
        <time>2026-05-09T17:24:41.838Z</time>
      </trkpt>
      <trkpt lat="47.89829" lon="6.93789">
        <ele>839</ele>
        <time>2026-05-09T17:24:42.838Z</time>
      </trkpt>
      <trkpt lat="47.89829" lon="6.93789">
        <ele>839</ele>
        <time>2026-05-09T17:24:43.838Z</time>
      </trkpt>
      <trkpt lat="47.8983" lon="6.93792">
        <ele>840</ele>
        <time>2026-05-09T17:24:44.839Z</time>
      </trkpt>
      <trkpt lat="47.8983" lon="6.93794">
        <ele>840</ele>
        <time>2026-05-09T17:24:45.838Z</time>
      </trkpt>
      <trkpt lat="47.89829" lon="6.93796">
        <ele>840</ele>
        <time>2026-05-09T17:24:46.838Z</time>
      </trkpt>
      <trkpt lat="47.89829" lon="6.93796">
        <ele>840</ele>
        <time>2026-05-09T17:24:47.838Z</time>
      </trkpt>
      <trkpt lat="47.89829" lon="6.93801">
        <ele>840</ele>
        <time>2026-05-09T17:24:48.838Z</time>
      </trkpt>
      <trkpt lat="47.8983" lon="6.93803">
        <ele>840</ele>
        <time>2026-05-09T17:24:49.838Z</time>
      </trkpt>
      <trkpt lat="47.89831" lon="6.93805">
        <ele>841</ele>
        <time>2026-05-09T17:24:50.838Z</time>
      </trkpt>
      <trkpt lat="47.89832" lon="6.93806">
        <ele>841</ele>
        <time>2026-05-09T17:24:51.839Z</time>
      </trkpt>
      <trkpt lat="47.89833" lon="6.93808">
        <ele>841</ele>
        <time>2026-05-09T17:24:52.838Z</time>
      </trkpt>
      <trkpt lat="47.89833" lon="6.93809">
        <ele>842</ele>
        <time>2026-05-09T17:24:53.838Z</time>
      </trkpt>
      <trkpt lat="47.89833" lon="6.93811">
        <ele>842</ele>
        <time>2026-05-09T17:24:54.838Z</time>
      </trkpt>
      <trkpt lat="47.89833" lon="6.93813">
        <ele>842</ele>
        <time>2026-05-09T17:24:55.838Z</time>
      </trkpt>
      <trkpt lat="47.89833" lon="6.93815">
        <ele>842</ele>
        <time>2026-05-09T17:24:56.839Z</time>
      </trkpt>
      <trkpt lat="47.89834" lon="6.93816">
        <ele>842</ele>
        <time>2026-05-09T17:24:57.838Z</time>
      </trkpt>
      <trkpt lat="47.89834" lon="6.93818">
        <ele>842</ele>
        <time>2026-05-09T17:24:58.839Z</time>
      </trkpt>
      <trkpt lat="47.89834" lon="6.93819">
        <ele>842</ele>
        <time>2026-05-09T17:24:59.838Z</time>
      </trkpt>
      <trkpt lat="47.89834" lon="6.9382">
        <ele>842</ele>
        <time>2026-05-09T17:25:00.838Z</time>
      </trkpt>
      <trkpt lat="47.89835" lon="6.93822">
        <ele>842</ele>
        <time>2026-05-09T17:25:01.838Z</time>
      </trkpt>
      <trkpt lat="47.89835" lon="6.93824">
        <ele>842</ele>
        <time>2026-05-09T17:25:02.838Z</time>
      </trkpt>
      <trkpt lat="47.89835" lon="6.93824">
        <ele>842</ele>
        <time>2026-05-09T17:25:03.838Z</time>
      </trkpt>
      <trkpt lat="47.89836" lon="6.93829">
        <ele>841</ele>
        <time>2026-05-09T17:25:04.838Z</time>
      </trkpt>
      <trkpt lat="47.89836" lon="6.93831">
        <ele>841</ele>
        <time>2026-05-09T17:25:05.839Z</time>
      </trkpt>
      <trkpt lat="47.89836" lon="6.93833">
        <ele>842</ele>
        <time>2026-05-09T17:25:06.838Z</time>
      </trkpt>
      <trkpt lat="47.89836" lon="6.93833">
        <ele>842</ele>
        <time>2026-05-09T17:25:07.839Z</time>
      </trkpt>
      <trkpt lat="47.89837" lon="6.93836">
        <ele>842</ele>
        <time>2026-05-09T17:25:08.838Z</time>
      </trkpt>
      <trkpt lat="47.89837" lon="6.93837">
        <ele>842</ele>
        <time>2026-05-09T17:25:09.838Z</time>
      </trkpt>
      <trkpt lat="47.89838" lon="6.93839">
        <ele>842</ele>
        <time>2026-05-09T17:25:10.838Z</time>
      </trkpt>
      <trkpt lat="47.89838" lon="6.93841">
        <ele>842</ele>
        <time>2026-05-09T17:25:11.838Z</time>
      </trkpt>
      <trkpt lat="47.89838" lon="6.93841">
        <ele>842</ele>
        <time>2026-05-09T17:25:12.839Z</time>
      </trkpt>
      <trkpt lat="47.89838" lon="6.93844">
        <ele>843</ele>
        <time>2026-05-09T17:25:13.838Z</time>
      </trkpt>
      <trkpt lat="47.89838" lon="6.93846">
        <ele>843</ele>
        <time>2026-05-09T17:25:14.838Z</time>
      </trkpt>
      <trkpt lat="47.89838" lon="6.93848">
        <ele>843</ele>
        <time>2026-05-09T17:25:15.839Z</time>
      </trkpt>
      <trkpt lat="47.89838" lon="6.9385">
        <ele>844</ele>
        <time>2026-05-09T17:25:16.839Z</time>
      </trkpt>
      <trkpt lat="47.8984" lon="6.93852">
        <ele>844</ele>
        <time>2026-05-09T17:25:17.838Z</time>
      </trkpt>
      <trkpt lat="47.89841" lon="6.93853">
        <ele>844</ele>
        <time>2026-05-09T17:25:18.838Z</time>
      </trkpt>
      <trkpt lat="47.89843" lon="6.93854">
        <ele>845</ele>
        <time>2026-05-09T17:25:19.839Z</time>
      </trkpt>
      <trkpt lat="47.89844" lon="6.93856">
        <ele>845</ele>
        <time>2026-05-09T17:25:20.839Z</time>
      </trkpt>
      <trkpt lat="47.89844" lon="6.93857">
        <ele>846</ele>
        <time>2026-05-09T17:25:21.838Z</time>
      </trkpt>
      <trkpt lat="47.89845" lon="6.93859">
        <ele>846</ele>
        <time>2026-05-09T17:25:22.839Z</time>
      </trkpt>
      <trkpt lat="47.89845" lon="6.9386">
        <ele>847</ele>
        <time>2026-05-09T17:25:23.839Z</time>
      </trkpt>
      <trkpt lat="47.89846" lon="6.93862">
        <ele>847</ele>
        <time>2026-05-09T17:25:24.838Z</time>
      </trkpt>
      <trkpt lat="47.89846" lon="6.93864">
        <ele>848</ele>
        <time>2026-05-09T17:25:25.838Z</time>
      </trkpt>
      <trkpt lat="47.89846" lon="6.93866">
        <ele>848</ele>
        <time>2026-05-09T17:25:26.839Z</time>
      </trkpt>
      <trkpt lat="47.89846" lon="6.93868">
        <ele>849</ele>
        <time>2026-05-09T17:25:27.838Z</time>
      </trkpt>
      <trkpt lat="47.89846" lon="6.93868">
        <ele>849</ele>
        <time>2026-05-09T17:25:28.839Z</time>
      </trkpt>
      <trkpt lat="47.89847" lon="6.93871">
        <ele>849</ele>
        <time>2026-05-09T17:25:29.839Z</time>
      </trkpt>
      <trkpt lat="47.89847" lon="6.93873">
        <ele>848</ele>
        <time>2026-05-09T17:25:30.838Z</time>
      </trkpt>
      <trkpt lat="47.89848" lon="6.93874">
        <ele>848</ele>
        <time>2026-05-09T17:25:31.839Z</time>
      </trkpt>
      <trkpt lat="47.89848" lon="6.93874">
        <ele>848</ele>
        <time>2026-05-09T17:25:32.838Z</time>
      </trkpt>
      <trkpt lat="47.89848" lon="6.93877">
        <ele>848</ele>
        <time>2026-05-09T17:25:33.838Z</time>
      </trkpt>
      <trkpt lat="47.89849" lon="6.93879">
        <ele>848</ele>
        <time>2026-05-09T17:25:34.839Z</time>
      </trkpt>
      <trkpt lat="47.8985" lon="6.93881">
        <ele>848</ele>
        <time>2026-05-09T17:25:35.839Z</time>
      </trkpt>
      <trkpt lat="47.89851" lon="6.93884">
        <ele>848</ele>
        <time>2026-05-09T17:25:36.838Z</time>
      </trkpt>
      <trkpt lat="47.89852" lon="6.93885">
        <ele>848</ele>
        <time>2026-05-09T17:25:37.838Z</time>
      </trkpt>
      <trkpt lat="47.89852" lon="6.93887">
        <ele>848</ele>
        <time>2026-05-09T17:25:38.839Z</time>
      </trkpt>
      <trkpt lat="47.89852" lon="6.93889">
        <ele>848</ele>
        <time>2026-05-09T17:25:39.839Z</time>
      </trkpt>
      <trkpt lat="47.89852" lon="6.93891">
        <ele>848</ele>
        <time>2026-05-09T17:25:40.838Z</time>
      </trkpt>
      <trkpt lat="47.89852" lon="6.93893">
        <ele>848</ele>
        <time>2026-05-09T17:25:41.838Z</time>
      </trkpt>
      <trkpt lat="47.89852" lon="6.93895">
        <ele>848</ele>
        <time>2026-05-09T17:25:42.838Z</time>
      </trkpt>
      <trkpt lat="47.89851" lon="6.93897">
        <ele>847</ele>
        <time>2026-05-09T17:25:43.838Z</time>
      </trkpt>
      <trkpt lat="47.89851" lon="6.93899">
        <ele>847</ele>
        <time>2026-05-09T17:25:44.838Z</time>
      </trkpt>
      <trkpt lat="47.89851" lon="6.93901">
        <ele>847</ele>
        <time>2026-05-09T17:25:45.838Z</time>
      </trkpt>
      <trkpt lat="47.89851" lon="6.93902">
        <ele>846</ele>
        <time>2026-05-09T17:25:46.838Z</time>
      </trkpt>
      <trkpt lat="47.89852" lon="6.93904">
        <ele>846</ele>
        <time>2026-05-09T17:25:47.838Z</time>
      </trkpt>
      <trkpt lat="47.89852" lon="6.93906">
        <ele>846</ele>
        <time>2026-05-09T17:25:48.838Z</time>
      </trkpt>
      <trkpt lat="47.89852" lon="6.93907">
        <ele>845</ele>
        <time>2026-05-09T17:25:49.839Z</time>
      </trkpt>
      <trkpt lat="47.89852" lon="6.93909">
        <ele>845</ele>
        <time>2026-05-09T17:25:50.838Z</time>
      </trkpt>
      <trkpt lat="47.89853" lon="6.9391">
        <ele>845</ele>
        <time>2026-05-09T17:25:51.839Z</time>
      </trkpt>
      <trkpt lat="47.89853" lon="6.93912">
        <ele>845</ele>
        <time>2026-05-09T17:25:52.839Z</time>
      </trkpt>
      <trkpt lat="47.89853" lon="6.93912">
        <ele>845</ele>
        <time>2026-05-09T17:25:53.838Z</time>
      </trkpt>
      <trkpt lat="47.89854" lon="6.93916">
        <ele>845</ele>
        <time>2026-05-09T17:25:54.839Z</time>
      </trkpt>
      <trkpt lat="47.89854" lon="6.93918">
        <ele>845</ele>
        <time>2026-05-09T17:25:55.839Z</time>
      </trkpt>
      <trkpt lat="47.89854" lon="6.93919">
        <ele>845</ele>
        <time>2026-05-09T17:25:56.839Z</time>
      </trkpt>
      <trkpt lat="47.89854" lon="6.93919">
        <ele>845</ele>
        <time>2026-05-09T17:25:57.839Z</time>
      </trkpt>
      <trkpt lat="47.89855" lon="6.93922">
        <ele>845</ele>
        <time>2026-05-09T17:25:58.839Z</time>
      </trkpt>
      <trkpt lat="47.89855" lon="6.93924">
        <ele>845</ele>
        <time>2026-05-09T17:25:59.838Z</time>
      </trkpt>
      <trkpt lat="47.89855" lon="6.93925">
        <ele>845</ele>
        <time>2026-05-09T17:26:00.839Z</time>
      </trkpt>
      <trkpt lat="47.89855" lon="6.93928">
        <ele>845</ele>
        <time>2026-05-09T17:26:01.838Z</time>
      </trkpt>
      <trkpt lat="47.89856" lon="6.9393">
        <ele>845</ele>
        <time>2026-05-09T17:26:02.838Z</time>
      </trkpt>
      <trkpt lat="47.89857" lon="6.93932">
        <ele>845</ele>
        <time>2026-05-09T17:26:03.838Z</time>
      </trkpt>
      <trkpt lat="47.89857" lon="6.93934">
        <ele>845</ele>
        <time>2026-05-09T17:26:04.838Z</time>
      </trkpt>
      <trkpt lat="47.89856" lon="6.93936">
        <ele>845</ele>
        <time>2026-05-09T17:26:05.839Z</time>
      </trkpt>
      <trkpt lat="47.89857" lon="6.93937">
        <ele>845</ele>
        <time>2026-05-09T17:26:06.838Z</time>
      </trkpt>
      <trkpt lat="47.89857" lon="6.93939">
        <ele>845</ele>
        <time>2026-05-09T17:26:07.838Z</time>
      </trkpt>
      <trkpt lat="47.89858" lon="6.93942">
        <ele>844</ele>
        <time>2026-05-09T17:26:08.838Z</time>
      </trkpt>
      <trkpt lat="47.89858" lon="6.93944">
        <ele>844</ele>
        <time>2026-05-09T17:26:09.838Z</time>
      </trkpt>
      <trkpt lat="47.89858" lon="6.93945">
        <ele>844</ele>
        <time>2026-05-09T17:26:10.838Z</time>
      </trkpt>
      <trkpt lat="47.89858" lon="6.93947">
        <ele>844</ele>
        <time>2026-05-09T17:26:11.838Z</time>
      </trkpt>
      <trkpt lat="47.89859" lon="6.93948">
        <ele>844</ele>
        <time>2026-05-09T17:26:12.838Z</time>
      </trkpt>
      <trkpt lat="47.89859" lon="6.9395">
        <ele>844</ele>
        <time>2026-05-09T17:26:13.839Z</time>
      </trkpt>
      <trkpt lat="47.89859" lon="6.93952">
        <ele>843</ele>
        <time>2026-05-09T17:26:14.838Z</time>
      </trkpt>
      <trkpt lat="47.89859" lon="6.93954">
        <ele>843</ele>
        <time>2026-05-09T17:26:15.838Z</time>
      </trkpt>
      <trkpt lat="47.8986" lon="6.93956">
        <ele>843</ele>
        <time>2026-05-09T17:26:16.838Z</time>
      </trkpt>
      <trkpt lat="47.8986" lon="6.93958">
        <ele>843</ele>
        <time>2026-05-09T17:26:17.838Z</time>
      </trkpt>
      <trkpt lat="47.8986" lon="6.93958">
        <ele>843</ele>
        <time>2026-05-09T17:26:18.838Z</time>
      </trkpt>
      <trkpt lat="47.8986" lon="6.93963">
        <ele>843</ele>
        <time>2026-05-09T17:26:19.839Z</time>
      </trkpt>
      <trkpt lat="47.8986" lon="6.93965">
        <ele>844</ele>
        <time>2026-05-09T17:26:20.838Z</time>
      </trkpt>
      <trkpt lat="47.89859" lon="6.93966">
        <ele>844</ele>
        <time>2026-05-09T17:26:21.838Z</time>
      </trkpt>
      <trkpt lat="47.89859" lon="6.93966">
        <ele>844</ele>
        <time>2026-05-09T17:26:22.839Z</time>
      </trkpt>
      <trkpt lat="47.89858" lon="6.93969">
        <ele>843</ele>
        <time>2026-05-09T17:26:23.838Z</time>
      </trkpt>
      <trkpt lat="47.89858" lon="6.93971">
        <ele>842</ele>
        <time>2026-05-09T17:26:24.838Z</time>
      </trkpt>
      <trkpt lat="47.89858" lon="6.93973">
        <ele>842</ele>
        <time>2026-05-09T17:26:25.838Z</time>
      </trkpt>
      <trkpt lat="47.89859" lon="6.93975">
        <ele>842</ele>
        <time>2026-05-09T17:26:26.839Z</time>
      </trkpt>
      <trkpt lat="47.8986" lon="6.93976">
        <ele>842</ele>
        <time>2026-05-09T17:26:27.839Z</time>
      </trkpt>
      <trkpt lat="47.8986" lon="6.93978">
        <ele>842</ele>
        <time>2026-05-09T17:26:28.838Z</time>
      </trkpt>
      <trkpt lat="47.8986" lon="6.9398">
        <ele>843</ele>
        <time>2026-05-09T17:26:29.838Z</time>
      </trkpt>
      <trkpt lat="47.8986" lon="6.93981">
        <ele>843</ele>
        <time>2026-05-09T17:26:30.838Z</time>
      </trkpt>
      <trkpt lat="47.89861" lon="6.93983">
        <ele>844</ele>
        <time>2026-05-09T17:26:31.838Z</time>
      </trkpt>
      <trkpt lat="47.89861" lon="6.93985">
        <ele>844</ele>
        <time>2026-05-09T17:26:32.838Z</time>
      </trkpt>
      <trkpt lat="47.89861" lon="6.93987">
        <ele>844</ele>
        <time>2026-05-09T17:26:33.838Z</time>
      </trkpt>
      <trkpt lat="47.8986" lon="6.93988">
        <ele>844</ele>
        <time>2026-05-09T17:26:34.838Z</time>
      </trkpt>
      <trkpt lat="47.8986" lon="6.9399">
        <ele>844</ele>
        <time>2026-05-09T17:26:35.838Z</time>
      </trkpt>
      <trkpt lat="47.8986" lon="6.93992">
        <ele>844</ele>
        <time>2026-05-09T17:26:36.839Z</time>
      </trkpt>
      <trkpt lat="47.89861" lon="6.93994">
        <ele>844</ele>
        <time>2026-05-09T17:26:37.838Z</time>
      </trkpt>
      <trkpt lat="47.89861" lon="6.93994">
        <ele>844</ele>
        <time>2026-05-09T17:26:38.838Z</time>
      </trkpt>
      <trkpt lat="47.89861" lon="6.93999">
        <ele>845</ele>
        <time>2026-05-09T17:26:39.838Z</time>
      </trkpt>
      <trkpt lat="47.89862" lon="6.94002">
        <ele>845</ele>
        <time>2026-05-09T17:26:40.838Z</time>
      </trkpt>
      <trkpt lat="47.89862" lon="6.94004">
        <ele>845</ele>
        <time>2026-05-09T17:26:41.838Z</time>
      </trkpt>
      <trkpt lat="47.89862" lon="6.94004">
        <ele>845</ele>
        <time>2026-05-09T17:26:42.839Z</time>
      </trkpt>
      <trkpt lat="47.89862" lon="6.94006">
        <ele>845</ele>
        <time>2026-05-09T17:26:43.838Z</time>
      </trkpt>
      <trkpt lat="47.89863" lon="6.9401">
        <ele>845</ele>
        <time>2026-05-09T17:26:44.838Z</time>
      </trkpt>
      <trkpt lat="47.89863" lon="6.94011">
        <ele>846</ele>
        <time>2026-05-09T17:26:45.838Z</time>
      </trkpt>
      <trkpt lat="47.89864" lon="6.94013">
        <ele>846</ele>
        <time>2026-05-09T17:26:46.838Z</time>
      </trkpt>
      <trkpt lat="47.89864" lon="6.94013">
        <ele>846</ele>
        <time>2026-05-09T17:26:47.839Z</time>
      </trkpt>
      <trkpt lat="47.89864" lon="6.94016">
        <ele>847</ele>
        <time>2026-05-09T17:26:48.838Z</time>
      </trkpt>
      <trkpt lat="47.89864" lon="6.94018">
        <ele>847</ele>
        <time>2026-05-09T17:26:49.838Z</time>
      </trkpt>
      <trkpt lat="47.89864" lon="6.9402">
        <ele>847</ele>
        <time>2026-05-09T17:26:50.839Z</time>
      </trkpt>
      <trkpt lat="47.89865" lon="6.94022">
        <ele>848</ele>
        <time>2026-05-09T17:26:51.838Z</time>
      </trkpt>
      <trkpt lat="47.89866" lon="6.94024">
        <ele>848</ele>
        <time>2026-05-09T17:26:52.838Z</time>
      </trkpt>
      <trkpt lat="47.89865" lon="6.94026">
        <ele>849</ele>
        <time>2026-05-09T17:26:53.838Z</time>
      </trkpt>
      <trkpt lat="47.89865" lon="6.94028">
        <ele>849</ele>
        <time>2026-05-09T17:26:54.838Z</time>
      </trkpt>
      <trkpt lat="47.89864" lon="6.9403">
        <ele>849</ele>
        <time>2026-05-09T17:26:55.838Z</time>
      </trkpt>
      <trkpt lat="47.89864" lon="6.94031">
        <ele>849</ele>
        <time>2026-05-09T17:26:56.838Z</time>
      </trkpt>
      <trkpt lat="47.89863" lon="6.94032">
        <ele>849</ele>
        <time>2026-05-09T17:26:57.839Z</time>
      </trkpt>
      <trkpt lat="47.89863" lon="6.94033">
        <ele>849</ele>
        <time>2026-05-09T17:26:58.839Z</time>
      </trkpt>
      <trkpt lat="47.89863" lon="6.94035">
        <ele>849</ele>
        <time>2026-05-09T17:26:59.838Z</time>
      </trkpt>
      <trkpt lat="47.89863" lon="6.94037">
        <ele>849</ele>
        <time>2026-05-09T17:27:00.838Z</time>
      </trkpt>
      <trkpt lat="47.89863" lon="6.94038">
        <ele>849</ele>
        <time>2026-05-09T17:27:01.839Z</time>
      </trkpt>
      <trkpt lat="47.89863" lon="6.94039">
        <ele>849</ele>
        <time>2026-05-09T17:27:02.838Z</time>
      </trkpt>
      <trkpt lat="47.89863" lon="6.94039">
        <ele>849</ele>
        <time>2026-05-09T17:27:03.839Z</time>
      </trkpt>
      <trkpt lat="47.89862" lon="6.94043">
        <ele>849</ele>
        <time>2026-05-09T17:27:04.838Z</time>
      </trkpt>
      <trkpt lat="47.89862" lon="6.94045">
        <ele>850</ele>
        <time>2026-05-09T17:27:05.838Z</time>
      </trkpt>
      <trkpt lat="47.89862" lon="6.94048">
        <ele>850</ele>
        <time>2026-05-09T17:27:06.838Z</time>
      </trkpt>
      <trkpt lat="47.89862" lon="6.94048">
        <ele>850</ele>
        <time>2026-05-09T17:27:07.838Z</time>
      </trkpt>
      <trkpt lat="47.89861" lon="6.94051">
        <ele>851</ele>
        <time>2026-05-09T17:27:08.838Z</time>
      </trkpt>
      <trkpt lat="47.89861" lon="6.94053">
        <ele>852</ele>
        <time>2026-05-09T17:27:09.839Z</time>
      </trkpt>
      <trkpt lat="47.89861" lon="6.94054">
        <ele>852</ele>
        <time>2026-05-09T17:27:10.839Z</time>
      </trkpt>
      <trkpt lat="47.89861" lon="6.94056">
        <ele>853</ele>
        <time>2026-05-09T17:27:11.838Z</time>
      </trkpt>
      <trkpt lat="47.89861" lon="6.94056">
        <ele>853</ele>
        <time>2026-05-09T17:27:12.838Z</time>
      </trkpt>
      <trkpt lat="47.89861" lon="6.94059">
        <ele>854</ele>
        <time>2026-05-09T17:27:13.839Z</time>
      </trkpt>
      <trkpt lat="47.89861" lon="6.94061">
        <ele>855</ele>
        <time>2026-05-09T17:27:14.838Z</time>
      </trkpt>
      <trkpt lat="47.8986" lon="6.94063">
        <ele>855</ele>
        <time>2026-05-09T17:27:15.838Z</time>
      </trkpt>
      <trkpt lat="47.8986" lon="6.94065">
        <ele>855</ele>
        <time>2026-05-09T17:27:16.838Z</time>
      </trkpt>
      <trkpt lat="47.89859" lon="6.94067">
        <ele>856</ele>
        <time>2026-05-09T17:27:17.838Z</time>
      </trkpt>
      <trkpt lat="47.89858" lon="6.94068">
        <ele>856</ele>
        <time>2026-05-09T17:27:18.838Z</time>
      </trkpt>
      <trkpt lat="47.89858" lon="6.94069">
        <ele>856</ele>
        <time>2026-05-09T17:27:19.838Z</time>
      </trkpt>
      <trkpt lat="47.89858" lon="6.9407">
        <ele>855</ele>
        <time>2026-05-09T17:27:20.838Z</time>
      </trkpt>
      <trkpt lat="47.89858" lon="6.94071">
        <ele>855</ele>
        <time>2026-05-09T17:27:21.838Z</time>
      </trkpt>
      <trkpt lat="47.89859" lon="6.94073">
        <ele>856</ele>
        <time>2026-05-09T17:27:22.838Z</time>
      </trkpt>
      <trkpt lat="47.89858" lon="6.94075">
        <ele>856</ele>
        <time>2026-05-09T17:27:23.838Z</time>
      </trkpt>
      <trkpt lat="47.89858" lon="6.94076">
        <ele>856</ele>
        <time>2026-05-09T17:27:24.839Z</time>
      </trkpt>
      <trkpt lat="47.89858" lon="6.94077">
        <ele>856</ele>
        <time>2026-05-09T17:27:25.838Z</time>
      </trkpt>
      <trkpt lat="47.89857" lon="6.94079">
        <ele>856</ele>
        <time>2026-05-09T17:27:26.839Z</time>
      </trkpt>
      <trkpt lat="47.89857" lon="6.9408">
        <ele>855</ele>
        <time>2026-05-09T17:27:27.838Z</time>
      </trkpt>
      <trkpt lat="47.89857" lon="6.9408">
        <ele>855</ele>
        <time>2026-05-09T17:27:28.839Z</time>
      </trkpt>
      <trkpt lat="47.89856" lon="6.94083">
        <ele>855</ele>
        <time>2026-05-09T17:27:29.838Z</time>
      </trkpt>
      <trkpt lat="47.89855" lon="6.94085">
        <ele>855</ele>
        <time>2026-05-09T17:27:30.839Z</time>
      </trkpt>
      <trkpt lat="47.89854" lon="6.94087">
        <ele>855</ele>
        <time>2026-05-09T17:27:31.838Z</time>
      </trkpt>
      <trkpt lat="47.89854" lon="6.94087">
        <ele>855</ele>
        <time>2026-05-09T17:27:32.839Z</time>
      </trkpt>
      <trkpt lat="47.89854" lon="6.9409">
        <ele>855</ele>
        <time>2026-05-09T17:27:33.839Z</time>
      </trkpt>
      <trkpt lat="47.89853" lon="6.94092">
        <ele>855</ele>
        <time>2026-05-09T17:27:34.839Z</time>
      </trkpt>
      <trkpt lat="47.89853" lon="6.94093">
        <ele>855</ele>
        <time>2026-05-09T17:27:35.839Z</time>
      </trkpt>
      <trkpt lat="47.89853" lon="6.94095">
        <ele>855</ele>
        <time>2026-05-09T17:27:36.838Z</time>
      </trkpt>
      <trkpt lat="47.89853" lon="6.94097">
        <ele>855</ele>
        <time>2026-05-09T17:27:37.838Z</time>
      </trkpt>
      <trkpt lat="47.89853" lon="6.94099">
        <ele>855</ele>
        <time>2026-05-09T17:27:38.839Z</time>
      </trkpt>
      <trkpt lat="47.89852" lon="6.94101">
        <ele>855</ele>
        <time>2026-05-09T17:27:39.838Z</time>
      </trkpt>
      <trkpt lat="47.89852" lon="6.94102">
        <ele>855</ele>
        <time>2026-05-09T17:27:40.838Z</time>
      </trkpt>
      <trkpt lat="47.89851" lon="6.94103">
        <ele>855</ele>
        <time>2026-05-09T17:27:41.838Z</time>
      </trkpt>
      <trkpt lat="47.89851" lon="6.94103">
        <ele>855</ele>
        <time>2026-05-09T17:27:42.838Z</time>
      </trkpt>
      <trkpt lat="47.8985" lon="6.94104">
        <ele>855</ele>
        <time>2026-05-09T17:27:43.838Z</time>
      </trkpt>
      <trkpt lat="47.8985" lon="6.94105">
        <ele>855</ele>
        <time>2026-05-09T17:27:44.838Z</time>
      </trkpt>
      <trkpt lat="47.89849" lon="6.94106">
        <ele>854</ele>
        <time>2026-05-09T17:27:45.838Z</time>
      </trkpt>
      <trkpt lat="47.89848" lon="6.94107">
        <ele>854</ele>
        <time>2026-05-09T17:27:46.839Z</time>
      </trkpt>
      <trkpt lat="47.89847" lon="6.94108">
        <ele>854</ele>
        <time>2026-05-09T17:27:47.839Z</time>
      </trkpt>
      <trkpt lat="47.89845" lon="6.94109">
        <ele>854</ele>
        <time>2026-05-09T17:27:48.839Z</time>
      </trkpt>
      <trkpt lat="47.89844" lon="6.94111">
        <ele>855</ele>
        <time>2026-05-09T17:27:49.838Z</time>
      </trkpt>
      <trkpt lat="47.89843" lon="6.94114">
        <ele>855</ele>
        <time>2026-05-09T17:27:50.838Z</time>
      </trkpt>
      <trkpt lat="47.89842" lon="6.94115">
        <ele>855</ele>
        <time>2026-05-09T17:27:51.839Z</time>
      </trkpt>
      <trkpt lat="47.89841" lon="6.94117">
        <ele>855</ele>
        <time>2026-05-09T17:27:52.838Z</time>
      </trkpt>
      <trkpt lat="47.89841" lon="6.94117">
        <ele>855</ele>
        <time>2026-05-09T17:27:53.839Z</time>
      </trkpt>
      <trkpt lat="47.8984" lon="6.9412">
        <ele>856</ele>
        <time>2026-05-09T17:27:54.839Z</time>
      </trkpt>
      <trkpt lat="47.89839" lon="6.94123">
        <ele>856</ele>
        <time>2026-05-09T17:27:55.838Z</time>
      </trkpt>
      <trkpt lat="47.89838" lon="6.94125">
        <ele>856</ele>
        <time>2026-05-09T17:27:56.838Z</time>
      </trkpt>
      <trkpt lat="47.89838" lon="6.94125">
        <ele>856</ele>
        <time>2026-05-09T17:27:57.838Z</time>
      </trkpt>
      <trkpt lat="47.89836" lon="6.9413">
        <ele>856</ele>
        <time>2026-05-09T17:27:58.839Z</time>
      </trkpt>
      <trkpt lat="47.89836" lon="6.94132">
        <ele>856</ele>
        <time>2026-05-09T17:27:59.838Z</time>
      </trkpt>
      <trkpt lat="47.89835" lon="6.94134">
        <ele>856</ele>
        <time>2026-05-09T17:28:00.838Z</time>
      </trkpt>
      <trkpt lat="47.89834" lon="6.94136">
        <ele>857</ele>
        <time>2026-05-09T17:28:01.838Z</time>
      </trkpt>
      <trkpt lat="47.89832" lon="6.94138">
        <ele>857</ele>
        <time>2026-05-09T17:28:02.838Z</time>
      </trkpt>
      <trkpt lat="47.89831" lon="6.94141">
        <ele>857</ele>
        <time>2026-05-09T17:28:03.838Z</time>
      </trkpt>
      <trkpt lat="47.89831" lon="6.94142">
        <ele>858</ele>
        <time>2026-05-09T17:28:04.838Z</time>
      </trkpt>
      <trkpt lat="47.8983" lon="6.94143">
        <ele>858</ele>
        <time>2026-05-09T17:28:05.838Z</time>
      </trkpt>
      <trkpt lat="47.89828" lon="6.94144">
        <ele>858</ele>
        <time>2026-05-09T17:28:06.838Z</time>
      </trkpt>
      <trkpt lat="47.89828" lon="6.94146">
        <ele>858</ele>
        <time>2026-05-09T17:28:07.838Z</time>
      </trkpt>
      <trkpt lat="47.89828" lon="6.94148">
        <ele>858</ele>
        <time>2026-05-09T17:28:08.838Z</time>
      </trkpt>
      <trkpt lat="47.89828" lon="6.94149">
        <ele>858</ele>
        <time>2026-05-09T17:28:09.838Z</time>
      </trkpt>
      <trkpt lat="47.89829" lon="6.94152">
        <ele>859</ele>
        <time>2026-05-09T17:28:10.838Z</time>
      </trkpt>
      <trkpt lat="47.89828" lon="6.94154">
        <ele>859</ele>
        <time>2026-05-09T17:28:11.839Z</time>
      </trkpt>
      <trkpt lat="47.89827" lon="6.94155">
        <ele>859</ele>
        <time>2026-05-09T17:28:12.838Z</time>
      </trkpt>
      <trkpt lat="47.89827" lon="6.94155">
        <ele>859</ele>
        <time>2026-05-09T17:28:13.838Z</time>
      </trkpt>
      <trkpt lat="47.89825" lon="6.94159">
        <ele>859</ele>
        <time>2026-05-09T17:28:14.838Z</time>
      </trkpt>
      <trkpt lat="47.89824" lon="6.9416">
        <ele>859</ele>
        <time>2026-05-09T17:28:15.838Z</time>
      </trkpt>
      <trkpt lat="47.89824" lon="6.94162">
        <ele>860</ele>
        <time>2026-05-09T17:28:16.838Z</time>
      </trkpt>
      <trkpt lat="47.89823" lon="6.94162">
        <ele>860</ele>
        <time>2026-05-09T17:28:17.838Z</time>
      </trkpt>
      <trkpt lat="47.89823" lon="6.94162">
        <ele>860</ele>
        <time>2026-05-09T17:28:18.838Z</time>
      </trkpt>
      <trkpt lat="47.89822" lon="6.94165">
        <ele>860</ele>
        <time>2026-05-09T17:28:19.838Z</time>
      </trkpt>
      <trkpt lat="47.89822" lon="6.94166">
        <ele>861</ele>
        <time>2026-05-09T17:28:20.838Z</time>
      </trkpt>
      <trkpt lat="47.89821" lon="6.94167">
        <ele>861</ele>
        <time>2026-05-09T17:28:21.838Z</time>
      </trkpt>
      <trkpt lat="47.89821" lon="6.94167">
        <ele>861</ele>
        <time>2026-05-09T17:28:22.838Z</time>
      </trkpt>
      <trkpt lat="47.89819" lon="6.9417">
        <ele>861</ele>
        <time>2026-05-09T17:28:23.839Z</time>
      </trkpt>
      <trkpt lat="47.89817" lon="6.94172">
        <ele>861</ele>
        <time>2026-05-09T17:28:24.838Z</time>
      </trkpt>
      <trkpt lat="47.89815" lon="6.94173">
        <ele>860</ele>
        <time>2026-05-09T17:28:25.839Z</time>
      </trkpt>
      <trkpt lat="47.89815" lon="6.94174">
        <ele>860</ele>
        <time>2026-05-09T17:28:26.838Z</time>
      </trkpt>
      <trkpt lat="47.89814" lon="6.94176">
        <ele>860</ele>
        <time>2026-05-09T17:28:27.839Z</time>
      </trkpt>
      <trkpt lat="47.89812" lon="6.94177">
        <ele>860</ele>
        <time>2026-05-09T17:28:28.838Z</time>
      </trkpt>
      <trkpt lat="47.89811" lon="6.94179">
        <ele>860</ele>
        <time>2026-05-09T17:28:29.839Z</time>
      </trkpt>
      <trkpt lat="47.89808" lon="6.9418">
        <ele>860</ele>
        <time>2026-05-09T17:28:30.838Z</time>
      </trkpt>
      <trkpt lat="47.89808" lon="6.94183">
        <ele>861</ele>
        <time>2026-05-09T17:28:31.838Z</time>
      </trkpt>
      <trkpt lat="47.89808" lon="6.94183">
        <ele>861</ele>
        <time>2026-05-09T17:28:32.839Z</time>
      </trkpt>
      <trkpt lat="47.89807" lon="6.94185">
        <ele>861</ele>
        <time>2026-05-09T17:28:33.838Z</time>
      </trkpt>
      <trkpt lat="47.89804" lon="6.9419">
        <ele>862</ele>
        <time>2026-05-09T17:28:34.838Z</time>
      </trkpt>
      <trkpt lat="47.89803" lon="6.94192">
        <ele>862</ele>
        <time>2026-05-09T17:28:35.839Z</time>
      </trkpt>
      <trkpt lat="47.89803" lon="6.94193">
        <ele>863</ele>
        <time>2026-05-09T17:28:36.838Z</time>
      </trkpt>
      <trkpt lat="47.89803" lon="6.94193">
        <ele>863</ele>
        <time>2026-05-09T17:28:37.839Z</time>
      </trkpt>
      <trkpt lat="47.89801" lon="6.94195">
        <ele>863</ele>
        <time>2026-05-09T17:28:38.838Z</time>
      </trkpt>
      <trkpt lat="47.89798" lon="6.94196">
        <ele>864</ele>
        <time>2026-05-09T17:28:39.838Z</time>
      </trkpt>
      <trkpt lat="47.89798" lon="6.94196">
        <ele>864</ele>
        <time>2026-05-09T17:28:40.838Z</time>
      </trkpt>
      <trkpt lat="47.89797" lon="6.94197">
        <ele>865</ele>
        <time>2026-05-09T17:28:41.838Z</time>
      </trkpt>
      <trkpt lat="47.89797" lon="6.94197">
        <ele>865</ele>
        <time>2026-05-09T17:28:42.839Z</time>
      </trkpt>
      <trkpt lat="47.89796" lon="6.94197">
        <ele>865</ele>
        <time>2026-05-09T17:28:43.838Z</time>
      </trkpt>
      <trkpt lat="47.89795" lon="6.94199">
        <ele>866</ele>
        <time>2026-05-09T17:28:44.839Z</time>
      </trkpt>
      <trkpt lat="47.89794" lon="6.94199">
        <ele>867</ele>
        <time>2026-05-09T17:28:45.838Z</time>
      </trkpt>
      <trkpt lat="47.89794" lon="6.94199">
        <ele>867</ele>
        <time>2026-05-09T17:28:46.839Z</time>
      </trkpt>
      <trkpt lat="47.89794" lon="6.94199">
        <ele>867</ele>
        <time>2026-05-09T17:28:47.838Z</time>
      </trkpt>
      <trkpt lat="47.89793" lon="6.94199">
        <ele>867</ele>
        <time>2026-05-09T17:28:48.838Z</time>
      </trkpt>
      <trkpt lat="47.89791" lon="6.94199">
        <ele>868</ele>
        <time>2026-05-09T17:28:49.838Z</time>
      </trkpt>
      <trkpt lat="47.8979" lon="6.94201">
        <ele>868</ele>
        <time>2026-05-09T17:28:50.838Z</time>
      </trkpt>
      <trkpt lat="47.89788" lon="6.94202">
        <ele>868</ele>
        <time>2026-05-09T17:28:51.838Z</time>
      </trkpt>
      <trkpt lat="47.89788" lon="6.94202">
        <ele>868</ele>
        <time>2026-05-09T17:28:52.838Z</time>
      </trkpt>
      <trkpt lat="47.89787" lon="6.94202">
        <ele>869</ele>
        <time>2026-05-09T17:28:53.838Z</time>
      </trkpt>
      <trkpt lat="47.89786" lon="6.94202">
        <ele>870</ele>
        <time>2026-05-09T17:28:54.838Z</time>
      </trkpt>
      <trkpt lat="47.89785" lon="6.94202">
        <ele>870</ele>
        <time>2026-05-09T17:28:55.838Z</time>
      </trkpt>
      <trkpt lat="47.89785" lon="6.94202">
        <ele>871</ele>
        <time>2026-05-09T17:28:56.839Z</time>
      </trkpt>
      <trkpt lat="47.89785" lon="6.94202">
        <ele>871</ele>
        <time>2026-05-09T17:28:57.838Z</time>
      </trkpt>
      <trkpt lat="47.89784" lon="6.94202">
        <ele>871</ele>
        <time>2026-05-09T17:28:58.838Z</time>
      </trkpt>
      <trkpt lat="47.89781" lon="6.94201">
        <ele>871</ele>
        <time>2026-05-09T17:28:59.839Z</time>
      </trkpt>
      <trkpt lat="47.8978" lon="6.94201">
        <ele>872</ele>
        <time>2026-05-09T17:29:00.838Z</time>
      </trkpt>
      <trkpt lat="47.89778" lon="6.942">
        <ele>872</ele>
        <time>2026-05-09T17:29:01.838Z</time>
      </trkpt>
      <trkpt lat="47.89778" lon="6.942">
        <ele>872</ele>
        <time>2026-05-09T17:29:02.839Z</time>
      </trkpt>
      <trkpt lat="47.89777" lon="6.942">
        <ele>872</ele>
        <time>2026-05-09T17:29:03.838Z</time>
      </trkpt>
      <trkpt lat="47.89774" lon="6.94199">
        <ele>873</ele>
        <time>2026-05-09T17:29:04.838Z</time>
      </trkpt>
      <trkpt lat="47.89773" lon="6.94198">
        <ele>873</ele>
        <time>2026-05-09T17:29:05.838Z</time>
      </trkpt>
      <trkpt lat="47.89772" lon="6.94196">
        <ele>873</ele>
        <time>2026-05-09T17:29:06.838Z</time>
      </trkpt>
      <trkpt lat="47.89772" lon="6.94196">
        <ele>873</ele>
        <time>2026-05-09T17:29:07.838Z</time>
      </trkpt>
      <trkpt lat="47.8977" lon="6.94195">
        <ele>873</ele>
        <time>2026-05-09T17:29:08.838Z</time>
      </trkpt>
      <trkpt lat="47.89768" lon="6.94194">
        <ele>872</ele>
        <time>2026-05-09T17:29:09.838Z</time>
      </trkpt>
      <trkpt lat="47.89767" lon="6.94193">
        <ele>872</ele>
        <time>2026-05-09T17:29:10.839Z</time>
      </trkpt>
      <trkpt lat="47.89765" lon="6.94193">
        <ele>872</ele>
        <time>2026-05-09T17:29:11.838Z</time>
      </trkpt>
      <trkpt lat="47.89765" lon="6.94193">
        <ele>872</ele>
        <time>2026-05-09T17:29:12.839Z</time>
      </trkpt>
      <trkpt lat="47.89763" lon="6.94192">
        <ele>873</ele>
        <time>2026-05-09T17:29:13.839Z</time>
      </trkpt>
      <trkpt lat="47.89759" lon="6.9419">
        <ele>874</ele>
        <time>2026-05-09T17:29:14.839Z</time>
      </trkpt>
      <trkpt lat="47.89758" lon="6.9419">
        <ele>874</ele>
        <time>2026-05-09T17:29:15.838Z</time>
      </trkpt>
      <trkpt lat="47.89757" lon="6.94189">
        <ele>875</ele>
        <time>2026-05-09T17:29:16.839Z</time>
      </trkpt>
      <trkpt lat="47.89757" lon="6.94189">
        <ele>875</ele>
        <time>2026-05-09T17:29:17.839Z</time>
      </trkpt>
      <trkpt lat="47.89757" lon="6.94187">
        <ele>876</ele>
        <time>2026-05-09T17:29:18.839Z</time>
      </trkpt>
      <trkpt lat="47.89756" lon="6.94183">
        <ele>877</ele>
        <time>2026-05-09T17:29:19.838Z</time>
      </trkpt>
      <trkpt lat="47.89755" lon="6.94183">
        <ele>878</ele>
        <time>2026-05-09T17:29:20.839Z</time>
      </trkpt>
      <trkpt lat="47.89754" lon="6.94182">
        <ele>878</ele>
        <time>2026-05-09T17:29:21.838Z</time>
      </trkpt>
      <trkpt lat="47.89754" lon="6.94182">
        <ele>878</ele>
        <time>2026-05-09T17:29:22.838Z</time>
      </trkpt>
      <trkpt lat="47.89752" lon="6.94181">
        <ele>879</ele>
        <time>2026-05-09T17:29:23.838Z</time>
      </trkpt>
      <trkpt lat="47.89751" lon="6.9418">
        <ele>880</ele>
        <time>2026-05-09T17:29:24.838Z</time>
      </trkpt>
      <trkpt lat="47.89749" lon="6.94177">
        <ele>880</ele>
        <time>2026-05-09T17:29:25.838Z</time>
      </trkpt>
      <trkpt lat="47.89748" lon="6.94175">
        <ele>880</ele>
        <time>2026-05-09T17:29:26.838Z</time>
      </trkpt>
      <trkpt lat="47.89748" lon="6.94175">
        <ele>880</ele>
        <time>2026-05-09T17:29:27.838Z</time>
      </trkpt>
      <trkpt lat="47.89746" lon="6.94172">
        <ele>881</ele>
        <time>2026-05-09T17:29:28.839Z</time>
      </trkpt>
      <trkpt lat="47.89744" lon="6.9417">
        <ele>881</ele>
        <time>2026-05-09T17:29:29.838Z</time>
      </trkpt>
      <trkpt lat="47.89743" lon="6.94169">
        <ele>881</ele>
        <time>2026-05-09T17:29:30.838Z</time>
      </trkpt>
      <trkpt lat="47.89741" lon="6.94169">
        <ele>881</ele>
        <time>2026-05-09T17:29:31.838Z</time>
      </trkpt>
      <trkpt lat="47.89741" lon="6.94169">
        <ele>881</ele>
        <time>2026-05-09T17:29:32.838Z</time>
      </trkpt>
      <trkpt lat="47.89738" lon="6.94168">
        <ele>882</ele>
        <time>2026-05-09T17:29:33.839Z</time>
      </trkpt>
      <trkpt lat="47.89737" lon="6.94167">
        <ele>882</ele>
        <time>2026-05-09T17:29:34.838Z</time>
      </trkpt>
      <trkpt lat="47.89736" lon="6.94166">
        <ele>882</ele>
        <time>2026-05-09T17:29:35.838Z</time>
      </trkpt>
      <trkpt lat="47.89734" lon="6.94165">
        <ele>882</ele>
        <time>2026-05-09T17:29:36.839Z</time>
      </trkpt>
      <trkpt lat="47.89734" lon="6.94165">
        <ele>883</ele>
        <time>2026-05-09T17:29:37.838Z</time>
      </trkpt>
      <trkpt lat="47.89734" lon="6.94165">
        <ele>883</ele>
        <time>2026-05-09T17:29:38.839Z</time>
      </trkpt>
      <trkpt lat="47.89732" lon="6.94163">
        <ele>883</ele>
        <time>2026-05-09T17:29:39.838Z</time>
      </trkpt>
      <trkpt lat="47.89732" lon="6.94162">
        <ele>883</ele>
        <time>2026-05-09T17:29:40.838Z</time>
      </trkpt>
      <trkpt lat="47.89731" lon="6.9416">
        <ele>883</ele>
        <time>2026-05-09T17:29:41.839Z</time>
      </trkpt>
      <trkpt lat="47.89731" lon="6.9416">
        <ele>883</ele>
        <time>2026-05-09T17:29:42.839Z</time>
      </trkpt>
      <trkpt lat="47.89728" lon="6.94156">
        <ele>883</ele>
        <time>2026-05-09T17:29:43.838Z</time>
      </trkpt>
      <trkpt lat="47.89726" lon="6.94155">
        <ele>883</ele>
        <time>2026-05-09T17:29:44.838Z</time>
      </trkpt>
      <trkpt lat="47.89725" lon="6.94153">
        <ele>883</ele>
        <time>2026-05-09T17:29:45.838Z</time>
      </trkpt>
      <trkpt lat="47.89723" lon="6.94152">
        <ele>884</ele>
        <time>2026-05-09T17:29:46.839Z</time>
      </trkpt>
      <trkpt lat="47.89723" lon="6.94152">
        <ele>884</ele>
        <time>2026-05-09T17:29:47.838Z</time>
      </trkpt>
      <trkpt lat="47.89722" lon="6.9415">
        <ele>884</ele>
        <time>2026-05-09T17:29:48.838Z</time>
      </trkpt>
      <trkpt lat="47.89721" lon="6.94149">
        <ele>885</ele>
        <time>2026-05-09T17:29:49.838Z</time>
      </trkpt>
      <trkpt lat="47.8972" lon="6.94148">
        <ele>885</ele>
        <time>2026-05-09T17:29:50.838Z</time>
      </trkpt>
      <trkpt lat="47.8972" lon="6.94147">
        <ele>885</ele>
        <time>2026-05-09T17:29:51.838Z</time>
      </trkpt>
      <trkpt lat="47.8972" lon="6.94147">
        <ele>885</ele>
        <time>2026-05-09T17:29:52.839Z</time>
      </trkpt>
      <trkpt lat="47.89719" lon="6.94146">
        <ele>885</ele>
        <time>2026-05-09T17:29:53.839Z</time>
      </trkpt>
      <trkpt lat="47.89718" lon="6.94143">
        <ele>885</ele>
        <time>2026-05-09T17:29:54.838Z</time>
      </trkpt>
      <trkpt lat="47.89716" lon="6.94142">
        <ele>885</ele>
        <time>2026-05-09T17:29:55.838Z</time>
      </trkpt>
      <trkpt lat="47.89716" lon="6.94141">
        <ele>885</ele>
        <time>2026-05-09T17:29:56.838Z</time>
      </trkpt>
      <trkpt lat="47.89716" lon="6.94141">
        <ele>885</ele>
        <time>2026-05-09T17:29:57.838Z</time>
      </trkpt>
      <trkpt lat="47.89715" lon="6.9414">
        <ele>885</ele>
        <time>2026-05-09T17:29:58.838Z</time>
      </trkpt>
      <trkpt lat="47.89711" lon="6.94136">
        <ele>885</ele>
        <time>2026-05-09T17:29:59.838Z</time>
      </trkpt>
      <trkpt lat="47.8971" lon="6.94135">
        <ele>886</ele>
        <time>2026-05-09T17:30:00.838Z</time>
      </trkpt>
      <trkpt lat="47.89708" lon="6.94133">
        <ele>886</ele>
        <time>2026-05-09T17:30:01.838Z</time>
      </trkpt>
      <trkpt lat="47.89705" lon="6.94132">
        <ele>887</ele>
        <time>2026-05-09T17:30:02.838Z</time>
      </trkpt>
      <trkpt lat="47.89705" lon="6.94132">
        <ele>887</ele>
        <time>2026-05-09T17:30:03.838Z</time>
      </trkpt>
      <trkpt lat="47.89699" lon="6.94129">
        <ele>888</ele>
        <time>2026-05-09T17:30:04.839Z</time>
      </trkpt>
      <trkpt lat="47.89698" lon="6.9413">
        <ele>888</ele>
        <time>2026-05-09T17:30:05.839Z</time>
      </trkpt>
      <trkpt lat="47.89698" lon="6.94129">
        <ele>889</ele>
        <time>2026-05-09T17:30:06.838Z</time>
      </trkpt>
      <trkpt lat="47.89698" lon="6.94129">
        <ele>889</ele>
        <time>2026-05-09T17:30:07.838Z</time>
      </trkpt>
      <trkpt lat="47.89696" lon="6.94128">
        <ele>889</ele>
        <time>2026-05-09T17:30:08.838Z</time>
      </trkpt>
      <trkpt lat="47.89696" lon="6.94125">
        <ele>889</ele>
        <time>2026-05-09T17:30:09.838Z</time>
      </trkpt>
      <trkpt lat="47.89695" lon="6.94123">
        <ele>890</ele>
        <time>2026-05-09T17:30:10.838Z</time>
      </trkpt>
      <trkpt lat="47.89694" lon="6.94121">
        <ele>890</ele>
        <time>2026-05-09T17:30:11.838Z</time>
      </trkpt>
      <trkpt lat="47.89694" lon="6.94121">
        <ele>890</ele>
        <time>2026-05-09T17:30:12.838Z</time>
      </trkpt>
      <trkpt lat="47.89693" lon="6.9412">
        <ele>890</ele>
        <time>2026-05-09T17:30:13.839Z</time>
      </trkpt>
      <trkpt lat="47.89694" lon="6.94118">
        <ele>890</ele>
        <time>2026-05-09T17:30:14.839Z</time>
      </trkpt>
      <trkpt lat="47.89693" lon="6.94115">
        <ele>891</ele>
        <time>2026-05-09T17:30:15.838Z</time>
      </trkpt>
      <trkpt lat="47.89693" lon="6.94113">
        <ele>891</ele>
        <time>2026-05-09T17:30:16.838Z</time>
      </trkpt>
      <trkpt lat="47.89694" lon="6.94112">
        <ele>891</ele>
        <time>2026-05-09T17:30:17.838Z</time>
      </trkpt>
      <trkpt lat="47.89694" lon="6.94112">
        <ele>891</ele>
        <time>2026-05-09T17:30:18.839Z</time>
      </trkpt>
      <trkpt lat="47.89694" lon="6.94109">
        <ele>890</ele>
        <time>2026-05-09T17:30:19.838Z</time>
      </trkpt>
      <trkpt lat="47.89694" lon="6.94108">
        <ele>889</ele>
        <time>2026-05-09T17:30:20.838Z</time>
      </trkpt>
      <trkpt lat="47.89694" lon="6.94106">
        <ele>889</ele>
        <time>2026-05-09T17:30:21.839Z</time>
      </trkpt>
      <trkpt lat="47.89694" lon="6.94106">
        <ele>889</ele>
        <time>2026-05-09T17:30:22.838Z</time>
      </trkpt>
      <trkpt lat="47.89693" lon="6.94106">
        <ele>889</ele>
        <time>2026-05-09T17:30:23.838Z</time>
      </trkpt>
      <trkpt lat="47.89693" lon="6.94104">
        <ele>888</ele>
        <time>2026-05-09T17:30:24.839Z</time>
      </trkpt>
      <trkpt lat="47.89692" lon="6.94102">
        <ele>888</ele>
        <time>2026-05-09T17:30:25.839Z</time>
      </trkpt>
      <trkpt lat="47.89692" lon="6.94102">
        <ele>888</ele>
        <time>2026-05-09T17:30:26.838Z</time>
      </trkpt>
      <trkpt lat="47.89692" lon="6.94102">
        <ele>888</ele>
        <time>2026-05-09T17:30:27.838Z</time>
      </trkpt>
      <trkpt lat="47.89692" lon="6.941">
        <ele>889</ele>
        <time>2026-05-09T17:30:28.838Z</time>
      </trkpt>
      <trkpt lat="47.89691" lon="6.94098">
        <ele>889</ele>
        <time>2026-05-09T17:30:29.838Z</time>
      </trkpt>
      <trkpt lat="47.89691" lon="6.94096">
        <ele>889</ele>
        <time>2026-05-09T17:30:30.838Z</time>
      </trkpt>
      <trkpt lat="47.89691" lon="6.94095">
        <ele>889</ele>
        <time>2026-05-09T17:30:31.838Z</time>
      </trkpt>
      <trkpt lat="47.89691" lon="6.94094">
        <ele>888</ele>
        <time>2026-05-09T17:30:32.838Z</time>
      </trkpt>
      <trkpt lat="47.89691" lon="6.94094">
        <ele>888</ele>
        <time>2026-05-09T17:30:33.838Z</time>
      </trkpt>
      <trkpt lat="47.89689" lon="6.94092">
        <ele>888</ele>
        <time>2026-05-09T17:30:34.838Z</time>
      </trkpt>
      <trkpt lat="47.89688" lon="6.94091">
        <ele>888</ele>
        <time>2026-05-09T17:30:35.839Z</time>
      </trkpt>
      <trkpt lat="47.89687" lon="6.94089">
        <ele>889</ele>
        <time>2026-05-09T17:30:36.839Z</time>
      </trkpt>
      <trkpt lat="47.89687" lon="6.94089">
        <ele>889</ele>
        <time>2026-05-09T17:30:37.838Z</time>
      </trkpt>
      <trkpt lat="47.89686" lon="6.94088">
        <ele>889</ele>
        <time>2026-05-09T17:30:38.838Z</time>
      </trkpt>
      <trkpt lat="47.89684" lon="6.94084">
        <ele>890</ele>
        <time>2026-05-09T17:30:39.839Z</time>
      </trkpt>
      <trkpt lat="47.89683" lon="6.94083">
        <ele>891</ele>
        <time>2026-05-09T17:30:40.838Z</time>
      </trkpt>
      <trkpt lat="47.89683" lon="6.94081">
        <ele>891</ele>
        <time>2026-05-09T17:30:41.838Z</time>
      </trkpt>
      <trkpt lat="47.89683" lon="6.94081">
        <ele>891</ele>
        <time>2026-05-09T17:30:42.838Z</time>
      </trkpt>
      <trkpt lat="47.89683" lon="6.9408">
        <ele>891</ele>
        <time>2026-05-09T17:30:43.838Z</time>
      </trkpt>
      <trkpt lat="47.89681" lon="6.94076">
        <ele>891</ele>
        <time>2026-05-09T17:30:44.838Z</time>
      </trkpt>
      <trkpt lat="47.8968" lon="6.94075">
        <ele>891</ele>
        <time>2026-05-09T17:30:45.838Z</time>
      </trkpt>
      <trkpt lat="47.89679" lon="6.94074">
        <ele>891</ele>
        <time>2026-05-09T17:30:46.839Z</time>
      </trkpt>
      <trkpt lat="47.89679" lon="6.94074">
        <ele>891</ele>
        <time>2026-05-09T17:30:47.838Z</time>
      </trkpt>
      <trkpt lat="47.89678" lon="6.94073">
        <ele>892</ele>
        <time>2026-05-09T17:30:48.838Z</time>
      </trkpt>
      <trkpt lat="47.89676" lon="6.94073">
        <ele>892</ele>
        <time>2026-05-09T17:30:49.838Z</time>
      </trkpt>
      <trkpt lat="47.89676" lon="6.94072">
        <ele>892</ele>
        <time>2026-05-09T17:30:50.838Z</time>
      </trkpt>
      <trkpt lat="47.89676" lon="6.94071">
        <ele>892</ele>
        <time>2026-05-09T17:30:51.838Z</time>
      </trkpt>
      <trkpt lat="47.89676" lon="6.94071">
        <ele>892</ele>
        <time>2026-05-09T17:30:52.838Z</time>
      </trkpt>
      <trkpt lat="47.89676" lon="6.9407">
        <ele>892</ele>
        <time>2026-05-09T17:30:53.839Z</time>
      </trkpt>
      <trkpt lat="47.89674" lon="6.94069">
        <ele>893</ele>
        <time>2026-05-09T17:30:54.838Z</time>
      </trkpt>
      <trkpt lat="47.89673" lon="6.94068">
        <ele>893</ele>
        <time>2026-05-09T17:30:55.838Z</time>
      </trkpt>
      <trkpt lat="47.89672" lon="6.94066">
        <ele>893</ele>
        <time>2026-05-09T17:30:56.838Z</time>
      </trkpt>
      <trkpt lat="47.89672" lon="6.94066">
        <ele>893</ele>
        <time>2026-05-09T17:30:57.839Z</time>
      </trkpt>
      <trkpt lat="47.89671" lon="6.94065">
        <ele>894</ele>
        <time>2026-05-09T17:30:58.838Z</time>
      </trkpt>
      <trkpt lat="47.89669" lon="6.94063">
        <ele>895</ele>
        <time>2026-05-09T17:30:59.838Z</time>
      </trkpt>
      <trkpt lat="47.89668" lon="6.94062">
        <ele>895</ele>
        <time>2026-05-09T17:31:00.838Z</time>
      </trkpt>
      <trkpt lat="47.89666" lon="6.94061">
        <ele>896</ele>
        <time>2026-05-09T17:31:01.838Z</time>
      </trkpt>
      <trkpt lat="47.89666" lon="6.9406">
        <ele>897</ele>
        <time>2026-05-09T17:31:02.838Z</time>
      </trkpt>
      <trkpt lat="47.89666" lon="6.9406">
        <ele>897</ele>
        <time>2026-05-09T17:31:03.838Z</time>
      </trkpt>
      <trkpt lat="47.89665" lon="6.94056">
        <ele>897</ele>
        <time>2026-05-09T17:31:04.838Z</time>
      </trkpt>
      <trkpt lat="47.89664" lon="6.94054">
        <ele>897</ele>
        <time>2026-05-09T17:31:05.838Z</time>
      </trkpt>
      <trkpt lat="47.89663" lon="6.94052">
        <ele>897</ele>
        <time>2026-05-09T17:31:06.839Z</time>
      </trkpt>
      <trkpt lat="47.89663" lon="6.94052">
        <ele>897</ele>
        <time>2026-05-09T17:31:07.838Z</time>
      </trkpt>
      <trkpt lat="47.89661" lon="6.94051">
        <ele>897</ele>
        <time>2026-05-09T17:31:08.838Z</time>
      </trkpt>
      <trkpt lat="47.8966" lon="6.9405">
        <ele>897</ele>
        <time>2026-05-09T17:31:09.838Z</time>
      </trkpt>
      <trkpt lat="47.8966" lon="6.94048">
        <ele>897</ele>
        <time>2026-05-09T17:31:10.838Z</time>
      </trkpt>
      <trkpt lat="47.89659" lon="6.94047">
        <ele>897</ele>
        <time>2026-05-09T17:31:11.839Z</time>
      </trkpt>
      <trkpt lat="47.89659" lon="6.94047">
        <ele>897</ele>
        <time>2026-05-09T17:31:12.838Z</time>
      </trkpt>
      <trkpt lat="47.89656" lon="6.94045">
        <ele>897</ele>
        <time>2026-05-09T17:31:13.838Z</time>
      </trkpt>
      <trkpt lat="47.89655" lon="6.94044">
        <ele>898</ele>
        <time>2026-05-09T17:31:14.838Z</time>
      </trkpt>
      <trkpt lat="47.89654" lon="6.94044">
        <ele>898</ele>
        <time>2026-05-09T17:31:15.839Z</time>
      </trkpt>
      <trkpt lat="47.89652" lon="6.94044">
        <ele>898</ele>
        <time>2026-05-09T17:31:16.838Z</time>
      </trkpt>
      <trkpt lat="47.89652" lon="6.94044">
        <ele>899</ele>
        <time>2026-05-09T17:31:17.838Z</time>
      </trkpt>
      <trkpt lat="47.89651" lon="6.94044">
        <ele>899</ele>
        <time>2026-05-09T17:31:18.839Z</time>
      </trkpt>
      <trkpt lat="47.89649" lon="6.94043">
        <ele>899</ele>
        <time>2026-05-09T17:31:19.838Z</time>
      </trkpt>
      <trkpt lat="47.89647" lon="6.94042">
        <ele>900</ele>
        <time>2026-05-09T17:31:20.838Z</time>
      </trkpt>
      <trkpt lat="47.89646" lon="6.9404">
        <ele>900</ele>
        <time>2026-05-09T17:31:21.838Z</time>
      </trkpt>
      <trkpt lat="47.89645" lon="6.94038">
        <ele>901</ele>
        <time>2026-05-09T17:31:22.838Z</time>
      </trkpt>
      <trkpt lat="47.89644" lon="6.94036">
        <ele>901</ele>
        <time>2026-05-09T17:31:23.838Z</time>
      </trkpt>
      <trkpt lat="47.89643" lon="6.94035">
        <ele>902</ele>
        <time>2026-05-09T17:31:24.838Z</time>
      </trkpt>
      <trkpt lat="47.89642" lon="6.94033">
        <ele>902</ele>
        <time>2026-05-09T17:31:25.839Z</time>
      </trkpt>
      <trkpt lat="47.89641" lon="6.94032">
        <ele>903</ele>
        <time>2026-05-09T17:31:26.838Z</time>
      </trkpt>
      <trkpt lat="47.8964" lon="6.94031">
        <ele>903</ele>
        <time>2026-05-09T17:31:27.839Z</time>
      </trkpt>
      <trkpt lat="47.8964" lon="6.94031">
        <ele>903</ele>
        <time>2026-05-09T17:31:28.838Z</time>
      </trkpt>
      <trkpt lat="47.89637" lon="6.9403">
        <ele>905</ele>
        <time>2026-05-09T17:31:29.838Z</time>
      </trkpt>
      <trkpt lat="47.89636" lon="6.94029">
        <ele>905</ele>
        <time>2026-05-09T17:31:30.838Z</time>
      </trkpt>
      <trkpt lat="47.89635" lon="6.94029">
        <ele>906</ele>
        <time>2026-05-09T17:31:31.838Z</time>
      </trkpt>
      <trkpt lat="47.89634" lon="6.94029">
        <ele>907</ele>
        <time>2026-05-09T17:31:32.838Z</time>
      </trkpt>
      <trkpt lat="47.89633" lon="6.94029">
        <ele>907</ele>
        <time>2026-05-09T17:31:33.839Z</time>
      </trkpt>
      <trkpt lat="47.89632" lon="6.94029">
        <ele>908</ele>
        <time>2026-05-09T17:31:34.839Z</time>
      </trkpt>
      <trkpt lat="47.89631" lon="6.94028">
        <ele>908</ele>
        <time>2026-05-09T17:31:35.838Z</time>
      </trkpt>
      <trkpt lat="47.8963" lon="6.94026">
        <ele>909</ele>
        <time>2026-05-09T17:31:36.838Z</time>
      </trkpt>
      <trkpt lat="47.89629" lon="6.94025">
        <ele>909</ele>
        <time>2026-05-09T17:31:37.838Z</time>
      </trkpt>
      <trkpt lat="47.89628" lon="6.94023">
        <ele>910</ele>
        <time>2026-05-09T17:31:38.839Z</time>
      </trkpt>
      <trkpt lat="47.89627" lon="6.94022">
        <ele>909</ele>
        <time>2026-05-09T17:31:39.838Z</time>
      </trkpt>
      <trkpt lat="47.89626" lon="6.94021">
        <ele>909</ele>
        <time>2026-05-09T17:31:40.839Z</time>
      </trkpt>
      <trkpt lat="47.89625" lon="6.94019">
        <ele>909</ele>
        <time>2026-05-09T17:31:41.838Z</time>
      </trkpt>
      <trkpt lat="47.89625" lon="6.94018">
        <ele>908</ele>
        <time>2026-05-09T17:31:42.838Z</time>
      </trkpt>
      <trkpt lat="47.89624" lon="6.94017">
        <ele>908</ele>
        <time>2026-05-09T17:31:43.839Z</time>
      </trkpt>
      <trkpt lat="47.89623" lon="6.94016">
        <ele>908</ele>
        <time>2026-05-09T17:31:44.838Z</time>
      </trkpt>
      <trkpt lat="47.89622" lon="6.94016">
        <ele>907</ele>
        <time>2026-05-09T17:31:45.838Z</time>
      </trkpt>
      <trkpt lat="47.89622" lon="6.94014">
        <ele>907</ele>
        <time>2026-05-09T17:31:46.838Z</time>
      </trkpt>
      <trkpt lat="47.89621" lon="6.94013">
        <ele>906</ele>
        <time>2026-05-09T17:31:47.839Z</time>
      </trkpt>
      <trkpt lat="47.8962" lon="6.94012">
        <ele>906</ele>
        <time>2026-05-09T17:31:48.838Z</time>
      </trkpt>
      <trkpt lat="47.89619" lon="6.9401">
        <ele>905</ele>
        <time>2026-05-09T17:31:49.838Z</time>
      </trkpt>
      <trkpt lat="47.89618" lon="6.94009">
        <ele>904</ele>
        <time>2026-05-09T17:31:50.838Z</time>
      </trkpt>
      <trkpt lat="47.89618" lon="6.94007">
        <ele>904</ele>
        <time>2026-05-09T17:31:51.839Z</time>
      </trkpt>
      <trkpt lat="47.89617" lon="6.94006">
        <ele>903</ele>
        <time>2026-05-09T17:31:52.838Z</time>
      </trkpt>
      <trkpt lat="47.89617" lon="6.94006">
        <ele>903</ele>
        <time>2026-05-09T17:31:53.839Z</time>
      </trkpt>
      <trkpt lat="47.89616" lon="6.94004">
        <ele>901</ele>
        <time>2026-05-09T17:31:54.839Z</time>
      </trkpt>
      <trkpt lat="47.89615" lon="6.94004">
        <ele>901</ele>
        <time>2026-05-09T17:31:55.838Z</time>
      </trkpt>
      <trkpt lat="47.89614" lon="6.94003">
        <ele>900</ele>
        <time>2026-05-09T17:31:56.839Z</time>
      </trkpt>
      <trkpt lat="47.89614" lon="6.94003">
        <ele>900</ele>
        <time>2026-05-09T17:31:57.838Z</time>
      </trkpt>
      <trkpt lat="47.89611" lon="6.94002">
        <ele>899</ele>
        <time>2026-05-09T17:31:58.838Z</time>
      </trkpt>
      <trkpt lat="47.89611" lon="6.94">
        <ele>898</ele>
        <time>2026-05-09T17:31:59.838Z</time>
      </trkpt>
      <trkpt lat="47.89609" lon="6.93999">
        <ele>898</ele>
        <time>2026-05-09T17:32:00.838Z</time>
      </trkpt>
      <trkpt lat="47.89608" lon="6.93998">
        <ele>897</ele>
        <time>2026-05-09T17:32:01.839Z</time>
      </trkpt>
      <trkpt lat="47.89607" lon="6.93997">
        <ele>896</ele>
        <time>2026-05-09T17:32:02.838Z</time>
      </trkpt>
      <trkpt lat="47.89606" lon="6.93997">
        <ele>896</ele>
        <time>2026-05-09T17:32:03.839Z</time>
      </trkpt>
      <trkpt lat="47.89604" lon="6.93996">
        <ele>895</ele>
        <time>2026-05-09T17:32:04.838Z</time>
      </trkpt>
      <trkpt lat="47.89603" lon="6.93997">
        <ele>895</ele>
        <time>2026-05-09T17:32:05.838Z</time>
      </trkpt>
      <trkpt lat="47.89601" lon="6.93998">
        <ele>895</ele>
        <time>2026-05-09T17:32:06.838Z</time>
      </trkpt>
      <trkpt lat="47.896" lon="6.93998">
        <ele>896</ele>
        <time>2026-05-09T17:32:07.838Z</time>
      </trkpt>
      <trkpt lat="47.89599" lon="6.93999">
        <ele>896</ele>
        <time>2026-05-09T17:32:08.838Z</time>
      </trkpt>
      <trkpt lat="47.89598" lon="6.93998">
        <ele>896</ele>
        <time>2026-05-09T17:32:09.838Z</time>
      </trkpt>
      <trkpt lat="47.89598" lon="6.93996">
        <ele>896</ele>
        <time>2026-05-09T17:32:10.838Z</time>
      </trkpt>
      <trkpt lat="47.89597" lon="6.93996">
        <ele>896</ele>
        <time>2026-05-09T17:32:11.838Z</time>
      </trkpt>
      <trkpt lat="47.89597" lon="6.93994">
        <ele>896</ele>
        <time>2026-05-09T17:32:12.838Z</time>
      </trkpt>
      <trkpt lat="47.89597" lon="6.93994">
        <ele>896</ele>
        <time>2026-05-09T17:32:13.838Z</time>
      </trkpt>
      <trkpt lat="47.89595" lon="6.93992">
        <ele>895</ele>
        <time>2026-05-09T17:32:14.838Z</time>
      </trkpt>
      <trkpt lat="47.89594" lon="6.93992">
        <ele>895</ele>
        <time>2026-05-09T17:32:15.838Z</time>
      </trkpt>
      <trkpt lat="47.89593" lon="6.93991">
        <ele>896</ele>
        <time>2026-05-09T17:32:16.839Z</time>
      </trkpt>
      <trkpt lat="47.89592" lon="6.93991">
        <ele>896</ele>
        <time>2026-05-09T17:32:17.838Z</time>
      </trkpt>
      <trkpt lat="47.89592" lon="6.93991">
        <ele>896</ele>
        <time>2026-05-09T17:32:18.838Z</time>
      </trkpt>
      <trkpt lat="47.8959" lon="6.93989">
        <ele>895</ele>
        <time>2026-05-09T17:32:19.839Z</time>
      </trkpt>
      <trkpt lat="47.89589" lon="6.93989">
        <ele>894</ele>
        <time>2026-05-09T17:32:20.838Z</time>
      </trkpt>
      <trkpt lat="47.89588" lon="6.93988">
        <ele>894</ele>
        <time>2026-05-09T17:32:21.838Z</time>
      </trkpt>
      <trkpt lat="47.89588" lon="6.93988">
        <ele>894</ele>
        <time>2026-05-09T17:32:22.838Z</time>
      </trkpt>
      <trkpt lat="47.89586" lon="6.93987">
        <ele>892</ele>
        <time>2026-05-09T17:32:23.838Z</time>
      </trkpt>
      <trkpt lat="47.89585" lon="6.93986">
        <ele>891</ele>
        <time>2026-05-09T17:32:24.839Z</time>
      </trkpt>
      <trkpt lat="47.89584" lon="6.93985">
        <ele>891</ele>
        <time>2026-05-09T17:32:25.839Z</time>
      </trkpt>
      <trkpt lat="47.89582" lon="6.93985">
        <ele>890</ele>
        <time>2026-05-09T17:32:26.839Z</time>
      </trkpt>
      <trkpt lat="47.89581" lon="6.93985">
        <ele>890</ele>
        <time>2026-05-09T17:32:27.838Z</time>
      </trkpt>
      <trkpt lat="47.89579" lon="6.93985">
        <ele>890</ele>
        <time>2026-05-09T17:32:28.838Z</time>
      </trkpt>
      <trkpt lat="47.89578" lon="6.93984">
        <ele>890</ele>
        <time>2026-05-09T17:32:29.838Z</time>
      </trkpt>
      <trkpt lat="47.89577" lon="6.93984">
        <ele>890</ele>
        <time>2026-05-09T17:32:30.838Z</time>
      </trkpt>
      <trkpt lat="47.89576" lon="6.93984">
        <ele>890</ele>
        <time>2026-05-09T17:32:31.838Z</time>
      </trkpt>
      <trkpt lat="47.89575" lon="6.93984">
        <ele>890</ele>
        <time>2026-05-09T17:32:32.838Z</time>
      </trkpt>
      <trkpt lat="47.89574" lon="6.93983">
        <ele>890</ele>
        <time>2026-05-09T17:32:33.838Z</time>
      </trkpt>
      <trkpt lat="47.89573" lon="6.93982">
        <ele>890</ele>
        <time>2026-05-09T17:32:34.838Z</time>
      </trkpt>
      <trkpt lat="47.89572" lon="6.93981">
        <ele>890</ele>
        <time>2026-05-09T17:32:35.839Z</time>
      </trkpt>
      <trkpt lat="47.89572" lon="6.9398">
        <ele>890</ele>
        <time>2026-05-09T17:32:36.838Z</time>
      </trkpt>
      <trkpt lat="47.8957" lon="6.9398">
        <ele>890</ele>
        <time>2026-05-09T17:32:37.838Z</time>
      </trkpt>
      <trkpt lat="47.8957" lon="6.9398">
        <ele>890</ele>
        <time>2026-05-09T17:32:38.838Z</time>
      </trkpt>
      <trkpt lat="47.89568" lon="6.9398">
        <ele>890</ele>
        <time>2026-05-09T17:32:39.839Z</time>
      </trkpt>
      <trkpt lat="47.89567" lon="6.93979">
        <ele>890</ele>
        <time>2026-05-09T17:32:40.838Z</time>
      </trkpt>
      <trkpt lat="47.89566" lon="6.9398">
        <ele>890</ele>
        <time>2026-05-09T17:32:41.839Z</time>
      </trkpt>
      <trkpt lat="47.89566" lon="6.9398">
        <ele>890</ele>
        <time>2026-05-09T17:32:42.838Z</time>
      </trkpt>
      <trkpt lat="47.89565" lon="6.9398">
        <ele>890</ele>
        <time>2026-05-09T17:32:43.838Z</time>
      </trkpt>
      <trkpt lat="47.89564" lon="6.93978">
        <ele>889</ele>
        <time>2026-05-09T17:32:44.838Z</time>
      </trkpt>
      <trkpt lat="47.89564" lon="6.93977">
        <ele>888</ele>
        <time>2026-05-09T17:32:45.839Z</time>
      </trkpt>
      <trkpt lat="47.89562" lon="6.93976">
        <ele>888</ele>
        <time>2026-05-09T17:32:46.838Z</time>
      </trkpt>
      <trkpt lat="47.89562" lon="6.93976">
        <ele>888</ele>
        <time>2026-05-09T17:32:47.838Z</time>
      </trkpt>
      <trkpt lat="47.8956" lon="6.93975">
        <ele>887</ele>
        <time>2026-05-09T17:32:48.838Z</time>
      </trkpt>
      <trkpt lat="47.89559" lon="6.93974">
        <ele>886</ele>
        <time>2026-05-09T17:32:49.838Z</time>
      </trkpt>
      <trkpt lat="47.89558" lon="6.93973">
        <ele>885</ele>
        <time>2026-05-09T17:32:50.838Z</time>
      </trkpt>
      <trkpt lat="47.89557" lon="6.93972">
        <ele>885</ele>
        <time>2026-05-09T17:32:51.838Z</time>
      </trkpt>
      <trkpt lat="47.89556" lon="6.93972">
        <ele>885</ele>
        <time>2026-05-09T17:32:52.838Z</time>
      </trkpt>
      <trkpt lat="47.89555" lon="6.93971">
        <ele>884</ele>
        <time>2026-05-09T17:32:53.838Z</time>
      </trkpt>
      <trkpt lat="47.89554" lon="6.93971">
        <ele>884</ele>
        <time>2026-05-09T17:32:54.838Z</time>
      </trkpt>
      <trkpt lat="47.89552" lon="6.9397">
        <ele>884</ele>
        <time>2026-05-09T17:32:55.838Z</time>
      </trkpt>
      <trkpt lat="47.89551" lon="6.9397">
        <ele>884</ele>
        <time>2026-05-09T17:32:56.839Z</time>
      </trkpt>
      <trkpt lat="47.8955" lon="6.93969">
        <ele>884</ele>
        <time>2026-05-09T17:32:57.838Z</time>
      </trkpt>
      <trkpt lat="47.89549" lon="6.93969">
        <ele>883</ele>
        <time>2026-05-09T17:32:58.838Z</time>
      </trkpt>
      <trkpt lat="47.89548" lon="6.93969">
        <ele>883</ele>
        <time>2026-05-09T17:32:59.838Z</time>
      </trkpt>
      <trkpt lat="47.89547" lon="6.93969">
        <ele>883</ele>
        <time>2026-05-09T17:33:00.838Z</time>
      </trkpt>
      <trkpt lat="47.89546" lon="6.93969">
        <ele>883</ele>
        <time>2026-05-09T17:33:01.838Z</time>
      </trkpt>
      <trkpt lat="47.89545" lon="6.93969">
        <ele>883</ele>
        <time>2026-05-09T17:33:02.838Z</time>
      </trkpt>
      <trkpt lat="47.89545" lon="6.93969">
        <ele>883</ele>
        <time>2026-05-09T17:33:03.838Z</time>
      </trkpt>
      <trkpt lat="47.89542" lon="6.93969">
        <ele>882</ele>
        <time>2026-05-09T17:33:04.838Z</time>
      </trkpt>
      <trkpt lat="47.89541" lon="6.93969">
        <ele>882</ele>
        <time>2026-05-09T17:33:05.838Z</time>
      </trkpt>
      <trkpt lat="47.8954" lon="6.93969">
        <ele>883</ele>
        <time>2026-05-09T17:33:06.839Z</time>
      </trkpt>
      <trkpt lat="47.8954" lon="6.93969">
        <ele>883</ele>
        <time>2026-05-09T17:33:07.839Z</time>
      </trkpt>
      <trkpt lat="47.89537" lon="6.93968">
        <ele>883</ele>
        <time>2026-05-09T17:33:08.838Z</time>
      </trkpt>
      <trkpt lat="47.89536" lon="6.93968">
        <ele>883</ele>
        <time>2026-05-09T17:33:09.838Z</time>
      </trkpt>
      <trkpt lat="47.89535" lon="6.93967">
        <ele>883</ele>
        <time>2026-05-09T17:33:10.838Z</time>
      </trkpt>
      <trkpt lat="47.89534" lon="6.93967">
        <ele>883</ele>
        <time>2026-05-09T17:33:11.838Z</time>
      </trkpt>
      <trkpt lat="47.89534" lon="6.93967">
        <ele>883</ele>
        <time>2026-05-09T17:33:12.838Z</time>
      </trkpt>
      <trkpt lat="47.89531" lon="6.93967">
        <ele>883</ele>
        <time>2026-05-09T17:33:13.838Z</time>
      </trkpt>
      <trkpt lat="47.89529" lon="6.93967">
        <ele>883</ele>
        <time>2026-05-09T17:33:14.838Z</time>
      </trkpt>
      <trkpt lat="47.89528" lon="6.93967">
        <ele>884</ele>
        <time>2026-05-09T17:33:15.838Z</time>
      </trkpt>
      <trkpt lat="47.89527" lon="6.93967">
        <ele>884</ele>
        <time>2026-05-09T17:33:16.838Z</time>
      </trkpt>
      <trkpt lat="47.89526" lon="6.93967">
        <ele>884</ele>
        <time>2026-05-09T17:33:17.838Z</time>
      </trkpt>
      <trkpt lat="47.89525" lon="6.93967">
        <ele>884</ele>
        <time>2026-05-09T17:33:18.838Z</time>
      </trkpt>
      <trkpt lat="47.89524" lon="6.93967">
        <ele>883</ele>
        <time>2026-05-09T17:33:19.838Z</time>
      </trkpt>
      <trkpt lat="47.89522" lon="6.93967">
        <ele>883</ele>
        <time>2026-05-09T17:33:20.838Z</time>
      </trkpt>
      <trkpt lat="47.89521" lon="6.93968">
        <ele>883</ele>
        <time>2026-05-09T17:33:21.838Z</time>
      </trkpt>
      <trkpt lat="47.8952" lon="6.93967">
        <ele>883</ele>
        <time>2026-05-09T17:33:22.839Z</time>
      </trkpt>
      <trkpt lat="47.89519" lon="6.93967">
        <ele>883</ele>
        <time>2026-05-09T17:33:23.839Z</time>
      </trkpt>
      <trkpt lat="47.89518" lon="6.93967">
        <ele>883</ele>
        <time>2026-05-09T17:33:24.838Z</time>
      </trkpt>
      <trkpt lat="47.89518" lon="6.93967">
        <ele>883</ele>
        <time>2026-05-09T17:33:25.839Z</time>
      </trkpt>
      <trkpt lat="47.89517" lon="6.93967">
        <ele>883</ele>
        <time>2026-05-09T17:33:26.838Z</time>
      </trkpt>
      <trkpt lat="47.89515" lon="6.93967">
        <ele>883</ele>
        <time>2026-05-09T17:33:27.839Z</time>
      </trkpt>
      <trkpt lat="47.89513" lon="6.93967">
        <ele>884</ele>
        <time>2026-05-09T17:33:28.838Z</time>
      </trkpt>
      <trkpt lat="47.89512" lon="6.93967">
        <ele>884</ele>
        <time>2026-05-09T17:33:29.838Z</time>
      </trkpt>
      <trkpt lat="47.89511" lon="6.93968">
        <ele>884</ele>
        <time>2026-05-09T17:33:30.838Z</time>
      </trkpt>
      <trkpt lat="47.8951" lon="6.93968">
        <ele>884</ele>
        <time>2026-05-09T17:33:31.838Z</time>
      </trkpt>
      <trkpt lat="47.8951" lon="6.93968">
        <ele>884</ele>
        <time>2026-05-09T17:33:32.838Z</time>
      </trkpt>
      <trkpt lat="47.89508" lon="6.93968">
        <ele>884</ele>
        <time>2026-05-09T17:33:33.838Z</time>
      </trkpt>
      <trkpt lat="47.89508" lon="6.93968">
        <ele>885</ele>
        <time>2026-05-09T17:33:34.839Z</time>
      </trkpt>
      <trkpt lat="47.89508" lon="6.93967">
        <ele>885</ele>
        <time>2026-05-09T17:33:35.838Z</time>
      </trkpt>
      <trkpt lat="47.89508" lon="6.93967">
        <ele>885</ele>
        <time>2026-05-09T17:33:36.838Z</time>
      </trkpt>
      <trkpt lat="47.89508" lon="6.93967">
        <ele>885</ele>
        <time>2026-05-09T17:33:37.838Z</time>
      </trkpt>
      <trkpt lat="47.89508" lon="6.93967">
        <ele>886</ele>
        <time>2026-05-09T17:33:44.207Z</time>
      </trkpt>
      <trkpt lat="47.89508" lon="6.93967">
        <ele>887</ele>
        <time>2026-05-09T17:33:45.206Z</time>
      </trkpt>
      <trkpt lat="47.89508" lon="6.93966">
        <ele>887</ele>
        <time>2026-05-09T17:33:46.206Z</time>
      </trkpt>
      <trkpt lat="47.89507" lon="6.93967">
        <ele>887</ele>
        <time>2026-05-09T17:33:47.206Z</time>
      </trkpt>
      <trkpt lat="47.89506" lon="6.93967">
        <ele>887</ele>
        <time>2026-05-09T17:33:48.206Z</time>
      </trkpt>
      <trkpt lat="47.89506" lon="6.93968">
        <ele>887</ele>
        <time>2026-05-09T17:33:49.207Z</time>
      </trkpt>
      <trkpt lat="47.89504" lon="6.93968">
        <ele>887</ele>
        <time>2026-05-09T17:33:50.206Z</time>
      </trkpt>
      <trkpt lat="47.89504" lon="6.93969">
        <ele>888</ele>
        <time>2026-05-09T17:33:51.206Z</time>
      </trkpt>
      <trkpt lat="47.89503" lon="6.93969">
        <ele>887</ele>
        <time>2026-05-09T17:33:52.206Z</time>
      </trkpt>
      <trkpt lat="47.89502" lon="6.93969">
        <ele>887</ele>
        <time>2026-05-09T17:33:53.206Z</time>
      </trkpt>
      <trkpt lat="47.89501" lon="6.9397">
        <ele>887</ele>
        <time>2026-05-09T17:33:54.207Z</time>
      </trkpt>
      <trkpt lat="47.895" lon="6.9397">
        <ele>887</ele>
        <time>2026-05-09T17:33:55.206Z</time>
      </trkpt>
      <trkpt lat="47.895" lon="6.9397">
        <ele>887</ele>
        <time>2026-05-09T17:33:56.206Z</time>
      </trkpt>
      <trkpt lat="47.895" lon="6.93972">
        <ele>887</ele>
        <time>2026-05-09T17:33:57.206Z</time>
      </trkpt>
      <trkpt lat="47.89501" lon="6.93973">
        <ele>887</ele>
        <time>2026-05-09T17:33:58.207Z</time>
      </trkpt>
      <trkpt lat="47.89502" lon="6.93974">
        <ele>887</ele>
        <time>2026-05-09T17:33:59.207Z</time>
      </trkpt>
      <trkpt lat="47.89501" lon="6.93975">
        <ele>887</ele>
        <time>2026-05-09T17:34:00.207Z</time>
      </trkpt>
      <trkpt lat="47.89501" lon="6.93975">
        <ele>887</ele>
        <time>2026-05-09T17:34:01.207Z</time>
      </trkpt>
      <trkpt lat="47.89501" lon="6.93975">
        <ele>888</ele>
        <time>2026-05-09T17:34:02.207Z</time>
      </trkpt>
      <trkpt lat="47.895" lon="6.93976">
        <ele>888</ele>
        <time>2026-05-09T17:34:07.206Z</time>
      </trkpt>
      <trkpt lat="47.895" lon="6.93976">
        <ele>889</ele>
        <time>2026-05-09T17:34:08.207Z</time>
      </trkpt>
      <trkpt lat="47.895" lon="6.93976">
        <ele>890</ele>
        <time>2026-05-09T17:34:09.206Z</time>
      </trkpt>
      <trkpt lat="47.895" lon="6.93976">
        <ele>891</ele>
        <time>2026-05-09T17:34:10.206Z</time>
      </trkpt>
      <trkpt lat="47.895" lon="6.93976">
        <ele>892</ele>
        <time>2026-05-09T17:34:11.207Z</time>
      </trkpt>
      <trkpt lat="47.895" lon="6.93976">
        <ele>893</ele>
        <time>2026-05-09T17:34:12.207Z</time>
      </trkpt>
      <trkpt lat="47.89501" lon="6.93976">
        <ele>894</ele>
        <time>2026-05-09T17:34:13.207Z</time>
      </trkpt>
      <trkpt lat="47.89501" lon="6.93976">
        <ele>896</ele>
        <time>2026-05-09T17:34:14.207Z</time>
      </trkpt>
      <trkpt lat="47.89501" lon="6.93976">
        <ele>897</ele>
        <time>2026-05-09T17:34:15.207Z</time>
      </trkpt>
      <trkpt lat="47.89501" lon="6.93976">
        <ele>898</ele>
        <time>2026-05-09T17:34:16.207Z</time>
      </trkpt>
      <trkpt lat="47.89501" lon="6.93976">
        <ele>899</ele>
        <time>2026-05-09T17:34:17.206Z</time>
      </trkpt>
      <trkpt lat="47.89501" lon="6.93976">
        <ele>900</ele>
        <time>2026-05-09T17:34:18.207Z</time>
      </trkpt>
      <trkpt lat="47.89501" lon="6.93976">
        <ele>901</ele>
        <time>2026-05-09T17:34:19.206Z</time>
      </trkpt>
      <trkpt lat="47.89502" lon="6.93976">
        <ele>902</ele>
        <time>2026-05-09T17:34:20.206Z</time>
      </trkpt>
      <trkpt lat="47.89502" lon="6.93975">
        <ele>903</ele>
        <time>2026-05-09T17:34:21.206Z</time>
      </trkpt>
      <trkpt lat="47.89502" lon="6.93975">
        <ele>903</ele>
        <time>2026-05-09T17:34:22.206Z</time>
      </trkpt>
      <trkpt lat="47.89502" lon="6.93975">
        <ele>904</ele>
        <time>2026-05-09T17:34:23.206Z</time>
      </trkpt>
      <trkpt lat="47.89502" lon="6.93976">
        <ele>907</ele>
        <time>2026-05-09T17:34:37.408Z</time>
      </trkpt>
      <trkpt lat="47.89502" lon="6.93976">
        <ele>907</ele>
        <time>2026-05-09T17:34:38.407Z</time>
      </trkpt>
      <trkpt lat="47.89497" lon="6.93976">
        <ele>905</ele>
        <time>2026-05-09T17:34:50.559Z</time>
      </trkpt>
      <trkpt lat="47.89495" lon="6.93976">
        <ele>905</ele>
        <time>2026-05-09T17:34:51.559Z</time>
      </trkpt>
      <trkpt lat="47.89494" lon="6.93976">
        <ele>905</ele>
        <time>2026-05-09T17:34:52.559Z</time>
      </trkpt>
      <trkpt lat="47.89493" lon="6.93975">
        <ele>905</ele>
        <time>2026-05-09T17:34:53.560Z</time>
      </trkpt>
      <trkpt lat="47.89492" lon="6.93975">
        <ele>904</ele>
        <time>2026-05-09T17:34:54.559Z</time>
      </trkpt>
      <trkpt lat="47.89491" lon="6.93974">
        <ele>904</ele>
        <time>2026-05-09T17:34:55.560Z</time>
      </trkpt>
      <trkpt lat="47.8949" lon="6.93974">
        <ele>903</ele>
        <time>2026-05-09T17:34:56.559Z</time>
      </trkpt>
      <trkpt lat="47.89488" lon="6.93973">
        <ele>903</ele>
        <time>2026-05-09T17:34:57.560Z</time>
      </trkpt>
      <trkpt lat="47.89487" lon="6.93973">
        <ele>902</ele>
        <time>2026-05-09T17:34:58.559Z</time>
      </trkpt>
      <trkpt lat="47.89485" lon="6.93973">
        <ele>902</ele>
        <time>2026-05-09T17:34:59.560Z</time>
      </trkpt>
      <trkpt lat="47.89484" lon="6.93972">
        <ele>902</ele>
        <time>2026-05-09T17:35:00.559Z</time>
      </trkpt>
      <trkpt lat="47.89483" lon="6.93972">
        <ele>902</ele>
        <time>2026-05-09T17:35:01.560Z</time>
      </trkpt>
      <trkpt lat="47.89482" lon="6.93973">
        <ele>902</ele>
        <time>2026-05-09T17:35:02.560Z</time>
      </trkpt>
      <trkpt lat="47.89482" lon="6.93972">
        <ele>901</ele>
        <time>2026-05-09T17:35:03.560Z</time>
      </trkpt>
      <trkpt lat="47.89482" lon="6.93972">
        <ele>901</ele>
        <time>2026-05-09T17:35:04.560Z</time>
      </trkpt>
      <trkpt lat="47.89481" lon="6.93972">
        <ele>901</ele>
        <time>2026-05-09T17:35:05.559Z</time>
      </trkpt>
      <trkpt lat="47.89474" lon="6.93972">
        <ele>900</ele>
        <time>2026-05-09T17:35:11.853Z</time>
      </trkpt>
      <trkpt lat="47.89473" lon="6.93971">
        <ele>900</ele>
        <time>2026-05-09T17:35:12.853Z</time>
      </trkpt>
      <trkpt lat="47.89472" lon="6.93971">
        <ele>900</ele>
        <time>2026-05-09T17:35:13.853Z</time>
      </trkpt>
      <trkpt lat="47.89471" lon="6.93971">
        <ele>899</ele>
        <time>2026-05-09T17:35:14.853Z</time>
      </trkpt>
      <trkpt lat="47.89469" lon="6.93971">
        <ele>899</ele>
        <time>2026-05-09T17:35:15.853Z</time>
      </trkpt>
      <trkpt lat="47.89468" lon="6.93971">
        <ele>899</ele>
        <time>2026-05-09T17:35:16.854Z</time>
      </trkpt>
      <trkpt lat="47.89467" lon="6.93971">
        <ele>899</ele>
        <time>2026-05-09T17:35:17.853Z</time>
      </trkpt>
      <trkpt lat="47.89466" lon="6.93971">
        <ele>899</ele>
        <time>2026-05-09T17:35:18.854Z</time>
      </trkpt>
      <trkpt lat="47.89465" lon="6.9397">
        <ele>898</ele>
        <time>2026-05-09T17:35:19.853Z</time>
      </trkpt>
      <trkpt lat="47.89463" lon="6.93971">
        <ele>898</ele>
        <time>2026-05-09T17:35:20.853Z</time>
      </trkpt>
      <trkpt lat="47.89462" lon="6.93971">
        <ele>898</ele>
        <time>2026-05-09T17:35:21.854Z</time>
      </trkpt>
      <trkpt lat="47.89461" lon="6.93971">
        <ele>898</ele>
        <time>2026-05-09T17:35:22.854Z</time>
      </trkpt>
      <trkpt lat="47.89461" lon="6.93971">
        <ele>898</ele>
        <time>2026-05-09T17:35:23.853Z</time>
      </trkpt>
      <trkpt lat="47.8946" lon="6.93972">
        <ele>897</ele>
        <time>2026-05-09T17:35:24.853Z</time>
      </trkpt>
      <trkpt lat="47.8946" lon="6.93972">
        <ele>898</ele>
        <time>2026-05-09T17:35:25.854Z</time>
      </trkpt>
      <trkpt lat="47.89458" lon="6.93973">
        <ele>898</ele>
        <time>2026-05-09T17:35:26.853Z</time>
      </trkpt>
      <trkpt lat="47.89457" lon="6.93973">
        <ele>898</ele>
        <time>2026-05-09T17:35:27.853Z</time>
      </trkpt>
      <trkpt lat="47.89457" lon="6.93973">
        <ele>898</ele>
        <time>2026-05-09T17:35:28.853Z</time>
      </trkpt>
      <trkpt lat="47.89455" lon="6.93975">
        <ele>898</ele>
        <time>2026-05-09T17:35:29.853Z</time>
      </trkpt>
      <trkpt lat="47.89454" lon="6.93976">
        <ele>898</ele>
        <time>2026-05-09T17:35:30.854Z</time>
      </trkpt>
      <trkpt lat="47.89453" lon="6.93976">
        <ele>898</ele>
        <time>2026-05-09T17:35:31.853Z</time>
      </trkpt>
      <trkpt lat="47.89453" lon="6.93976">
        <ele>898</ele>
        <time>2026-05-09T17:35:32.854Z</time>
      </trkpt>
      <trkpt lat="47.89451" lon="6.93977">
        <ele>897</ele>
        <time>2026-05-09T17:35:33.853Z</time>
      </trkpt>
      <trkpt lat="47.8945" lon="6.93977">
        <ele>897</ele>
        <time>2026-05-09T17:35:34.853Z</time>
      </trkpt>
      <trkpt lat="47.89449" lon="6.93977">
        <ele>896</ele>
        <time>2026-05-09T17:35:35.853Z</time>
      </trkpt>
      <trkpt lat="47.89449" lon="6.93978">
        <ele>896</ele>
        <time>2026-05-09T17:35:36.854Z</time>
      </trkpt>
      <trkpt lat="47.89448" lon="6.93978">
        <ele>896</ele>
        <time>2026-05-09T17:35:37.853Z</time>
      </trkpt>
      <trkpt lat="47.89447" lon="6.93979">
        <ele>896</ele>
        <time>2026-05-09T17:35:38.853Z</time>
      </trkpt>
      <trkpt lat="47.89446" lon="6.9398">
        <ele>895</ele>
        <time>2026-05-09T17:35:39.853Z</time>
      </trkpt>
      <trkpt lat="47.89446" lon="6.9398">
        <ele>895</ele>
        <time>2026-05-09T17:35:40.853Z</time>
      </trkpt>
      <trkpt lat="47.89445" lon="6.93981">
        <ele>895</ele>
        <time>2026-05-09T17:35:41.853Z</time>
      </trkpt>
      <trkpt lat="47.89444" lon="6.93981">
        <ele>896</ele>
        <time>2026-05-09T17:35:42.853Z</time>
      </trkpt>
      <trkpt lat="47.89443" lon="6.93981">
        <ele>896</ele>
        <time>2026-05-09T17:35:43.853Z</time>
      </trkpt>
      <trkpt lat="47.89443" lon="6.93981">
        <ele>896</ele>
        <time>2026-05-09T17:35:44.853Z</time>
      </trkpt>
      <trkpt lat="47.89442" lon="6.93982">
        <ele>896</ele>
        <time>2026-05-09T17:35:45.853Z</time>
      </trkpt>
      <trkpt lat="47.89441" lon="6.93983">
        <ele>896</ele>
        <time>2026-05-09T17:35:46.854Z</time>
      </trkpt>
      <trkpt lat="47.8944" lon="6.93984">
        <ele>897</ele>
        <time>2026-05-09T17:35:47.853Z</time>
      </trkpt>
      <trkpt lat="47.89439" lon="6.93984">
        <ele>897</ele>
        <time>2026-05-09T17:35:48.853Z</time>
      </trkpt>
      <trkpt lat="47.89438" lon="6.93985">
        <ele>897</ele>
        <time>2026-05-09T17:35:49.853Z</time>
      </trkpt>
      <trkpt lat="47.89437" lon="6.93986">
        <ele>897</ele>
        <time>2026-05-09T17:35:50.854Z</time>
      </trkpt>
      <trkpt lat="47.89436" lon="6.93987">
        <ele>897</ele>
        <time>2026-05-09T17:35:51.853Z</time>
      </trkpt>
      <trkpt lat="47.89435" lon="6.93988">
        <ele>897</ele>
        <time>2026-05-09T17:35:52.853Z</time>
      </trkpt>
      <trkpt lat="47.89435" lon="6.93988">
        <ele>897</ele>
        <time>2026-05-09T17:35:53.853Z</time>
      </trkpt>
      <trkpt lat="47.89433" lon="6.9399">
        <ele>897</ele>
        <time>2026-05-09T17:35:54.853Z</time>
      </trkpt>
      <trkpt lat="47.89432" lon="6.93991">
        <ele>897</ele>
        <time>2026-05-09T17:35:55.853Z</time>
      </trkpt>
      <trkpt lat="47.89431" lon="6.93992">
        <ele>897</ele>
        <time>2026-05-09T17:35:56.853Z</time>
      </trkpt>
      <trkpt lat="47.89431" lon="6.93992">
        <ele>897</ele>
        <time>2026-05-09T17:35:57.853Z</time>
      </trkpt>
      <trkpt lat="47.89428" lon="6.93994">
        <ele>897</ele>
        <time>2026-05-09T17:35:58.853Z</time>
      </trkpt>
      <trkpt lat="47.89427" lon="6.93996">
        <ele>897</ele>
        <time>2026-05-09T17:35:59.853Z</time>
      </trkpt>
      <trkpt lat="47.89425" lon="6.93998">
        <ele>897</ele>
        <time>2026-05-09T17:36:00.853Z</time>
      </trkpt>
      <trkpt lat="47.89424" lon="6.93999">
        <ele>897</ele>
        <time>2026-05-09T17:36:01.853Z</time>
      </trkpt>
      <trkpt lat="47.89423" lon="6.94">
        <ele>897</ele>
        <time>2026-05-09T17:36:02.853Z</time>
      </trkpt>
      <trkpt lat="47.89422" lon="6.94001">
        <ele>897</ele>
        <time>2026-05-09T17:36:03.853Z</time>
      </trkpt>
      <trkpt lat="47.89421" lon="6.94002">
        <ele>897</ele>
        <time>2026-05-09T17:36:04.853Z</time>
      </trkpt>
      <trkpt lat="47.8942" lon="6.94004">
        <ele>897</ele>
        <time>2026-05-09T17:36:05.853Z</time>
      </trkpt>
      <trkpt lat="47.8942" lon="6.94005">
        <ele>897</ele>
        <time>2026-05-09T17:36:06.853Z</time>
      </trkpt>
      <trkpt lat="47.8942" lon="6.94005">
        <ele>897</ele>
        <time>2026-05-09T17:36:07.853Z</time>
      </trkpt>
      <trkpt lat="47.89418" lon="6.94007">
        <ele>898</ele>
        <time>2026-05-09T17:36:08.853Z</time>
      </trkpt>
      <trkpt lat="47.89417" lon="6.94008">
        <ele>898</ele>
        <time>2026-05-09T17:36:09.853Z</time>
      </trkpt>
      <trkpt lat="47.89417" lon="6.94009">
        <ele>898</ele>
        <time>2026-05-09T17:36:10.853Z</time>
      </trkpt>
      <trkpt lat="47.89416" lon="6.9401">
        <ele>898</ele>
        <time>2026-05-09T17:36:11.853Z</time>
      </trkpt>
      <trkpt lat="47.89416" lon="6.9401">
        <ele>898</ele>
        <time>2026-05-09T17:36:12.853Z</time>
      </trkpt>
      <trkpt lat="47.89415" lon="6.94012">
        <ele>898</ele>
        <time>2026-05-09T17:36:13.854Z</time>
      </trkpt>
      <trkpt lat="47.89413" lon="6.94013">
        <ele>898</ele>
        <time>2026-05-09T17:36:14.854Z</time>
      </trkpt>
      <trkpt lat="47.89412" lon="6.94014">
        <ele>898</ele>
        <time>2026-05-09T17:36:15.853Z</time>
      </trkpt>
      <trkpt lat="47.8941" lon="6.94015">
        <ele>898</ele>
        <time>2026-05-09T17:36:16.853Z</time>
      </trkpt>
      <trkpt lat="47.8941" lon="6.94015">
        <ele>898</ele>
        <time>2026-05-09T17:36:17.853Z</time>
      </trkpt>
      <trkpt lat="47.89409" lon="6.94016">
        <ele>898</ele>
        <time>2026-05-09T17:36:18.853Z</time>
      </trkpt>
      <trkpt lat="47.89407" lon="6.94018">
        <ele>897</ele>
        <time>2026-05-09T17:36:19.854Z</time>
      </trkpt>
      <trkpt lat="47.89407" lon="6.94018">
        <ele>897</ele>
        <time>2026-05-09T17:36:20.853Z</time>
      </trkpt>
      <trkpt lat="47.89406" lon="6.94019">
        <ele>897</ele>
        <time>2026-05-09T17:36:21.853Z</time>
      </trkpt>
      <trkpt lat="47.89406" lon="6.94019">
        <ele>897</ele>
        <time>2026-05-09T17:36:22.853Z</time>
      </trkpt>
      <trkpt lat="47.89406" lon="6.9402">
        <ele>897</ele>
        <time>2026-05-09T17:36:23.853Z</time>
      </trkpt>
      <trkpt lat="47.89405" lon="6.94023">
        <ele>897</ele>
        <time>2026-05-09T17:36:24.854Z</time>
      </trkpt>
      <trkpt lat="47.89405" lon="6.94025">
        <ele>898</ele>
        <time>2026-05-09T17:36:25.854Z</time>
      </trkpt>
      <trkpt lat="47.89404" lon="6.94026">
        <ele>898</ele>
        <time>2026-05-09T17:36:26.854Z</time>
      </trkpt>
      <trkpt lat="47.89404" lon="6.94026">
        <ele>898</ele>
        <time>2026-05-09T17:36:27.854Z</time>
      </trkpt>
      <trkpt lat="47.89402" lon="6.94031">
        <ele>898</ele>
        <time>2026-05-09T17:36:28.853Z</time>
      </trkpt>
      <trkpt lat="47.89401" lon="6.94034">
        <ele>898</ele>
        <time>2026-05-09T17:36:29.853Z</time>
      </trkpt>
      <trkpt lat="47.894" lon="6.94036">
        <ele>898</ele>
        <time>2026-05-09T17:36:30.853Z</time>
      </trkpt>
      <trkpt lat="47.894" lon="6.94038">
        <ele>898</ele>
        <time>2026-05-09T17:36:31.854Z</time>
      </trkpt>
      <trkpt lat="47.894" lon="6.94038">
        <ele>898</ele>
        <time>2026-05-09T17:36:32.853Z</time>
      </trkpt>
      <trkpt lat="47.89398" lon="6.9404">
        <ele>899</ele>
        <time>2026-05-09T17:36:33.853Z</time>
      </trkpt>
      <trkpt lat="47.89396" lon="6.94044">
        <ele>899</ele>
        <time>2026-05-09T17:36:34.853Z</time>
      </trkpt>
      <trkpt lat="47.89397" lon="6.94045">
        <ele>899</ele>
        <time>2026-05-09T17:36:35.853Z</time>
      </trkpt>
      <trkpt lat="47.89397" lon="6.94047">
        <ele>900</ele>
        <time>2026-05-09T17:36:36.853Z</time>
      </trkpt>
      <trkpt lat="47.89397" lon="6.94047">
        <ele>900</ele>
        <time>2026-05-09T17:36:37.854Z</time>
      </trkpt>
      <trkpt lat="47.89396" lon="6.94049">
        <ele>900</ele>
        <time>2026-05-09T17:36:38.854Z</time>
      </trkpt>
      <trkpt lat="47.89394" lon="6.94052">
        <ele>900</ele>
        <time>2026-05-09T17:36:39.853Z</time>
      </trkpt>
      <trkpt lat="47.89393" lon="6.94054">
        <ele>901</ele>
        <time>2026-05-09T17:36:40.853Z</time>
      </trkpt>
      <trkpt lat="47.89392" lon="6.94055">
        <ele>901</ele>
        <time>2026-05-09T17:36:41.853Z</time>
      </trkpt>
      <trkpt lat="47.89392" lon="6.94055">
        <ele>901</ele>
        <time>2026-05-09T17:36:42.854Z</time>
      </trkpt>
      <trkpt lat="47.89391" lon="6.94057">
        <ele>901</ele>
        <time>2026-05-09T17:36:43.854Z</time>
      </trkpt>
      <trkpt lat="47.8939" lon="6.94058">
        <ele>902</ele>
        <time>2026-05-09T17:36:44.853Z</time>
      </trkpt>
      <trkpt lat="47.89389" lon="6.94059">
        <ele>902</ele>
        <time>2026-05-09T17:36:45.854Z</time>
      </trkpt>
      <trkpt lat="47.89388" lon="6.94061">
        <ele>902</ele>
        <time>2026-05-09T17:36:46.853Z</time>
      </trkpt>
      <trkpt lat="47.89388" lon="6.94061">
        <ele>902</ele>
        <time>2026-05-09T17:36:47.853Z</time>
      </trkpt>
      <trkpt lat="47.89387" lon="6.94063">
        <ele>902</ele>
        <time>2026-05-09T17:36:48.853Z</time>
      </trkpt>
      <trkpt lat="47.89386" lon="6.94064">
        <ele>902</ele>
        <time>2026-05-09T17:36:49.853Z</time>
      </trkpt>
      <trkpt lat="47.89386" lon="6.94066">
        <ele>902</ele>
        <time>2026-05-09T17:36:50.854Z</time>
      </trkpt>
      <trkpt lat="47.89385" lon="6.94067">
        <ele>902</ele>
        <time>2026-05-09T17:36:51.853Z</time>
      </trkpt>
      <trkpt lat="47.89384" lon="6.94068">
        <ele>902</ele>
        <time>2026-05-09T17:36:52.853Z</time>
      </trkpt>
      <trkpt lat="47.89384" lon="6.9407">
        <ele>903</ele>
        <time>2026-05-09T17:36:53.854Z</time>
      </trkpt>
      <trkpt lat="47.89383" lon="6.94071">
        <ele>903</ele>
        <time>2026-05-09T17:36:54.853Z</time>
      </trkpt>
      <trkpt lat="47.89382" lon="6.94072">
        <ele>903</ele>
        <time>2026-05-09T17:36:55.853Z</time>
      </trkpt>
      <trkpt lat="47.89381" lon="6.94073">
        <ele>903</ele>
        <time>2026-05-09T17:36:56.854Z</time>
      </trkpt>
      <trkpt lat="47.89381" lon="6.94076">
        <ele>904</ele>
        <time>2026-05-09T17:36:57.853Z</time>
      </trkpt>
      <trkpt lat="47.8938" lon="6.94078">
        <ele>904</ele>
        <time>2026-05-09T17:36:58.853Z</time>
      </trkpt>
      <trkpt lat="47.89379" lon="6.94079">
        <ele>904</ele>
        <time>2026-05-09T17:36:59.853Z</time>
      </trkpt>
      <trkpt lat="47.89378" lon="6.9408">
        <ele>904</ele>
        <time>2026-05-09T17:37:00.853Z</time>
      </trkpt>
      <trkpt lat="47.89377" lon="6.94082">
        <ele>903</ele>
        <time>2026-05-09T17:37:01.853Z</time>
      </trkpt>
      <trkpt lat="47.89377" lon="6.94084">
        <ele>903</ele>
        <time>2026-05-09T17:37:02.853Z</time>
      </trkpt>
      <trkpt lat="47.89377" lon="6.94084">
        <ele>903</ele>
        <time>2026-05-09T17:37:03.853Z</time>
      </trkpt>
      <trkpt lat="47.89376" lon="6.94085">
        <ele>903</ele>
        <time>2026-05-09T17:37:04.853Z</time>
      </trkpt>
      <trkpt lat="47.89376" lon="6.94087">
        <ele>902</ele>
        <time>2026-05-09T17:37:05.853Z</time>
      </trkpt>
      <trkpt lat="47.89374" lon="6.9409">
        <ele>902</ele>
        <time>2026-05-09T17:37:06.853Z</time>
      </trkpt>
      <trkpt lat="47.89374" lon="6.9409">
        <ele>902</ele>
        <time>2026-05-09T17:37:07.853Z</time>
      </trkpt>
      <trkpt lat="47.89371" lon="6.94094">
        <ele>902</ele>
        <time>2026-05-09T17:37:08.853Z</time>
      </trkpt>
      <trkpt lat="47.8937" lon="6.94096">
        <ele>902</ele>
        <time>2026-05-09T17:37:09.853Z</time>
      </trkpt>
      <trkpt lat="47.89369" lon="6.94098">
        <ele>902</ele>
        <time>2026-05-09T17:37:10.854Z</time>
      </trkpt>
      <trkpt lat="47.89368" lon="6.94099">
        <ele>902</ele>
        <time>2026-05-09T17:37:11.853Z</time>
      </trkpt>
      <trkpt lat="47.89367" lon="6.94101">
        <ele>902</ele>
        <time>2026-05-09T17:37:12.853Z</time>
      </trkpt>
      <trkpt lat="47.89366" lon="6.94102">
        <ele>902</ele>
        <time>2026-05-09T17:37:13.854Z</time>
      </trkpt>
      <trkpt lat="47.89365" lon="6.94103">
        <ele>902</ele>
        <time>2026-05-09T17:37:14.853Z</time>
      </trkpt>
      <trkpt lat="47.89363" lon="6.94104">
        <ele>902</ele>
        <time>2026-05-09T17:37:15.853Z</time>
      </trkpt>
      <trkpt lat="47.89362" lon="6.94105">
        <ele>902</ele>
        <time>2026-05-09T17:37:16.854Z</time>
      </trkpt>
      <trkpt lat="47.89361" lon="6.94106">
        <ele>902</ele>
        <time>2026-05-09T17:37:17.853Z</time>
      </trkpt>
      <trkpt lat="47.8936" lon="6.94106">
        <ele>902</ele>
        <time>2026-05-09T17:37:18.854Z</time>
      </trkpt>
      <trkpt lat="47.89358" lon="6.94107">
        <ele>901</ele>
        <time>2026-05-09T17:37:19.854Z</time>
      </trkpt>
      <trkpt lat="47.89357" lon="6.94107">
        <ele>901</ele>
        <time>2026-05-09T17:37:20.853Z</time>
      </trkpt>
      <trkpt lat="47.89356" lon="6.94107">
        <ele>901</ele>
        <time>2026-05-09T17:37:21.853Z</time>
      </trkpt>
      <trkpt lat="47.89355" lon="6.94108">
        <ele>901</ele>
        <time>2026-05-09T17:37:22.853Z</time>
      </trkpt>
      <trkpt lat="47.89353" lon="6.94109">
        <ele>901</ele>
        <time>2026-05-09T17:37:23.853Z</time>
      </trkpt>
      <trkpt lat="47.89353" lon="6.94109">
        <ele>901</ele>
        <time>2026-05-09T17:37:24.853Z</time>
      </trkpt>
      <trkpt lat="47.89351" lon="6.94111">
        <ele>901</ele>
        <time>2026-05-09T17:37:25.853Z</time>
      </trkpt>
      <trkpt lat="47.89351" lon="6.94111">
        <ele>901</ele>
        <time>2026-05-09T17:37:26.853Z</time>
      </trkpt>
      <trkpt lat="47.89349" lon="6.94112">
        <ele>902</ele>
        <time>2026-05-09T17:37:27.853Z</time>
      </trkpt>
      <trkpt lat="47.89349" lon="6.94112">
        <ele>902</ele>
        <time>2026-05-09T17:37:28.854Z</time>
      </trkpt>
      <trkpt lat="47.89347" lon="6.94113">
        <ele>902</ele>
        <time>2026-05-09T17:37:29.853Z</time>
      </trkpt>
      <trkpt lat="47.89346" lon="6.94113">
        <ele>902</ele>
        <time>2026-05-09T17:37:30.853Z</time>
      </trkpt>
      <trkpt lat="47.89345" lon="6.94113">
        <ele>902</ele>
        <time>2026-05-09T17:37:31.853Z</time>
      </trkpt>
      <trkpt lat="47.89345" lon="6.94113">
        <ele>902</ele>
        <time>2026-05-09T17:37:32.853Z</time>
      </trkpt>
      <trkpt lat="47.89343" lon="6.94114">
        <ele>903</ele>
        <time>2026-05-09T17:37:33.854Z</time>
      </trkpt>
      <trkpt lat="47.89343" lon="6.94115">
        <ele>903</ele>
        <time>2026-05-09T17:37:34.853Z</time>
      </trkpt>
      <trkpt lat="47.89342" lon="6.94115">
        <ele>903</ele>
        <time>2026-05-09T17:37:35.853Z</time>
      </trkpt>
      <trkpt lat="47.89341" lon="6.94116">
        <ele>904</ele>
        <time>2026-05-09T17:37:36.853Z</time>
      </trkpt>
      <trkpt lat="47.89339" lon="6.94119">
        <ele>904</ele>
        <time>2026-05-09T17:37:37.853Z</time>
      </trkpt>
      <trkpt lat="47.89338" lon="6.94121">
        <ele>904</ele>
        <time>2026-05-09T17:37:38.854Z</time>
      </trkpt>
      <trkpt lat="47.89337" lon="6.94122">
        <ele>905</ele>
        <time>2026-05-09T17:37:39.853Z</time>
      </trkpt>
      <trkpt lat="47.89336" lon="6.94123">
        <ele>905</ele>
        <time>2026-05-09T17:37:40.854Z</time>
      </trkpt>
      <trkpt lat="47.89335" lon="6.94124">
        <ele>905</ele>
        <time>2026-05-09T17:37:41.853Z</time>
      </trkpt>
      <trkpt lat="47.89334" lon="6.94125">
        <ele>905</ele>
        <time>2026-05-09T17:37:42.853Z</time>
      </trkpt>
      <trkpt lat="47.89333" lon="6.94126">
        <ele>905</ele>
        <time>2026-05-09T17:37:43.853Z</time>
      </trkpt>
      <trkpt lat="47.89332" lon="6.94127">
        <ele>905</ele>
        <time>2026-05-09T17:37:44.853Z</time>
      </trkpt>
      <trkpt lat="47.89331" lon="6.94127">
        <ele>905</ele>
        <time>2026-05-09T17:37:45.854Z</time>
      </trkpt>
      <trkpt lat="47.8933" lon="6.94128">
        <ele>905</ele>
        <time>2026-05-09T17:37:46.853Z</time>
      </trkpt>
      <trkpt lat="47.89328" lon="6.94129">
        <ele>905</ele>
        <time>2026-05-09T17:37:47.853Z</time>
      </trkpt>
      <trkpt lat="47.89328" lon="6.9413">
        <ele>905</ele>
        <time>2026-05-09T17:37:48.853Z</time>
      </trkpt>
      <trkpt lat="47.89328" lon="6.9413">
        <ele>905</ele>
        <time>2026-05-09T17:37:49.854Z</time>
      </trkpt>
      <trkpt lat="47.89325" lon="6.9413">
        <ele>905</ele>
        <time>2026-05-09T17:37:50.853Z</time>
      </trkpt>
      <trkpt lat="47.89324" lon="6.9413">
        <ele>905</ele>
        <time>2026-05-09T17:37:51.854Z</time>
      </trkpt>
      <trkpt lat="47.89323" lon="6.9413">
        <ele>904</ele>
        <time>2026-05-09T17:37:52.853Z</time>
      </trkpt>
      <trkpt lat="47.89323" lon="6.9413">
        <ele>904</ele>
        <time>2026-05-09T17:37:53.854Z</time>
      </trkpt>
      <trkpt lat="47.89321" lon="6.9413">
        <ele>904</ele>
        <time>2026-05-09T17:37:54.853Z</time>
      </trkpt>
      <trkpt lat="47.8932" lon="6.9413">
        <ele>903</ele>
        <time>2026-05-09T17:37:55.853Z</time>
      </trkpt>
      <trkpt lat="47.89319" lon="6.9413">
        <ele>903</ele>
        <time>2026-05-09T17:37:56.853Z</time>
      </trkpt>
      <trkpt lat="47.89319" lon="6.9413">
        <ele>903</ele>
        <time>2026-05-09T17:37:57.853Z</time>
      </trkpt>
      <trkpt lat="47.89316" lon="6.9413">
        <ele>903</ele>
        <time>2026-05-09T17:37:58.853Z</time>
      </trkpt>
      <trkpt lat="47.89315" lon="6.94131">
        <ele>902</ele>
        <time>2026-05-09T17:37:59.853Z</time>
      </trkpt>
      <trkpt lat="47.89314" lon="6.94132">
        <ele>902</ele>
        <time>2026-05-09T17:38:00.853Z</time>
      </trkpt>
      <trkpt lat="47.89314" lon="6.94132">
        <ele>902</ele>
        <time>2026-05-09T17:38:01.853Z</time>
      </trkpt>
      <trkpt lat="47.89312" lon="6.94132">
        <ele>901</ele>
        <time>2026-05-09T17:38:02.853Z</time>
      </trkpt>
      <trkpt lat="47.89311" lon="6.94132">
        <ele>901</ele>
        <time>2026-05-09T17:38:03.853Z</time>
      </trkpt>
      <trkpt lat="47.8931" lon="6.94132">
        <ele>901</ele>
        <time>2026-05-09T17:38:04.853Z</time>
      </trkpt>
      <trkpt lat="47.89309" lon="6.94131">
        <ele>901</ele>
        <time>2026-05-09T17:38:05.853Z</time>
      </trkpt>
      <trkpt lat="47.89308" lon="6.94131">
        <ele>902</ele>
        <time>2026-05-09T17:38:06.853Z</time>
      </trkpt>
      <trkpt lat="47.89307" lon="6.94131">
        <ele>902</ele>
        <time>2026-05-09T17:38:07.853Z</time>
      </trkpt>
      <trkpt lat="47.89306" lon="6.9413">
        <ele>903</ele>
        <time>2026-05-09T17:38:08.853Z</time>
      </trkpt>
      <trkpt lat="47.89306" lon="6.9413">
        <ele>903</ele>
        <time>2026-05-09T17:38:09.854Z</time>
      </trkpt>
      <trkpt lat="47.89302" lon="6.9413">
        <ele>904</ele>
        <time>2026-05-09T17:38:10.853Z</time>
      </trkpt>
      <trkpt lat="47.893" lon="6.94129">
        <ele>904</ele>
        <time>2026-05-09T17:38:11.853Z</time>
      </trkpt>
      <trkpt lat="47.89298" lon="6.94128">
        <ele>905</ele>
        <time>2026-05-09T17:38:12.853Z</time>
      </trkpt>
      <trkpt lat="47.89296" lon="6.94126">
        <ele>905</ele>
        <time>2026-05-09T17:38:13.853Z</time>
      </trkpt>
      <trkpt lat="47.89296" lon="6.94126">
        <ele>905</ele>
        <time>2026-05-09T17:38:14.853Z</time>
      </trkpt>
      <trkpt lat="47.89293" lon="6.94124">
        <ele>907</ele>
        <time>2026-05-09T17:38:15.853Z</time>
      </trkpt>
      <trkpt lat="47.89291" lon="6.94123">
        <ele>908</ele>
        <time>2026-05-09T17:38:16.853Z</time>
      </trkpt>
      <trkpt lat="47.8929" lon="6.94122">
        <ele>909</ele>
        <time>2026-05-09T17:38:17.853Z</time>
      </trkpt>
      <trkpt lat="47.8929" lon="6.94122">
        <ele>909</ele>
        <time>2026-05-09T17:38:18.853Z</time>
      </trkpt>
      <trkpt lat="47.89288" lon="6.9412">
        <ele>910</ele>
        <time>2026-05-09T17:38:19.854Z</time>
      </trkpt>
      <trkpt lat="47.89286" lon="6.94119">
        <ele>911</ele>
        <time>2026-05-09T17:38:20.853Z</time>
      </trkpt>
      <trkpt lat="47.89285" lon="6.94118">
        <ele>912</ele>
        <time>2026-05-09T17:38:21.853Z</time>
      </trkpt>
      <trkpt lat="47.89285" lon="6.94118">
        <ele>912</ele>
        <time>2026-05-09T17:38:22.854Z</time>
      </trkpt>
      <trkpt lat="47.89283" lon="6.94116">
        <ele>913</ele>
        <time>2026-05-09T17:38:23.854Z</time>
      </trkpt>
      <trkpt lat="47.89282" lon="6.94115">
        <ele>914</ele>
        <time>2026-05-09T17:38:24.853Z</time>
      </trkpt>
      <trkpt lat="47.8928" lon="6.94114">
        <ele>914</ele>
        <time>2026-05-09T17:38:25.854Z</time>
      </trkpt>
      <trkpt lat="47.8928" lon="6.94114">
        <ele>914</ele>
        <time>2026-05-09T17:38:26.854Z</time>
      </trkpt>
      <trkpt lat="47.89278" lon="6.94112">
        <ele>915</ele>
        <time>2026-05-09T17:38:27.853Z</time>
      </trkpt>
      <trkpt lat="47.89277" lon="6.94111">
        <ele>915</ele>
        <time>2026-05-09T17:38:28.853Z</time>
      </trkpt>
      <trkpt lat="47.89276" lon="6.9411">
        <ele>915</ele>
        <time>2026-05-09T17:38:29.854Z</time>
      </trkpt>
      <trkpt lat="47.89276" lon="6.94109">
        <ele>916</ele>
        <time>2026-05-09T17:38:30.853Z</time>
      </trkpt>
      <trkpt lat="47.89275" lon="6.94108">
        <ele>916</ele>
        <time>2026-05-09T17:38:31.853Z</time>
      </trkpt>
      <trkpt lat="47.89274" lon="6.94106">
        <ele>916</ele>
        <time>2026-05-09T17:38:32.853Z</time>
      </trkpt>
      <trkpt lat="47.89273" lon="6.94105">
        <ele>916</ele>
        <time>2026-05-09T17:38:33.853Z</time>
      </trkpt>
      <trkpt lat="47.89273" lon="6.94105">
        <ele>916</ele>
        <time>2026-05-09T17:38:34.853Z</time>
      </trkpt>
      <trkpt lat="47.8927" lon="6.94103">
        <ele>916</ele>
        <time>2026-05-09T17:38:35.853Z</time>
      </trkpt>
      <trkpt lat="47.89269" lon="6.94101">
        <ele>916</ele>
        <time>2026-05-09T17:38:36.854Z</time>
      </trkpt>
      <trkpt lat="47.89269" lon="6.94099">
        <ele>916</ele>
        <time>2026-05-09T17:38:37.853Z</time>
      </trkpt>
      <trkpt lat="47.89269" lon="6.94099">
        <ele>916</ele>
        <time>2026-05-09T17:38:38.853Z</time>
      </trkpt>
      <trkpt lat="47.89267" lon="6.94096">
        <ele>915</ele>
        <time>2026-05-09T17:38:39.853Z</time>
      </trkpt>
      <trkpt lat="47.89267" lon="6.94094">
        <ele>915</ele>
        <time>2026-05-09T17:38:40.853Z</time>
      </trkpt>
      <trkpt lat="47.89266" lon="6.94093">
        <ele>914</ele>
        <time>2026-05-09T17:38:41.853Z</time>
      </trkpt>
      <trkpt lat="47.89265" lon="6.94091">
        <ele>914</ele>
        <time>2026-05-09T17:38:42.853Z</time>
      </trkpt>
      <trkpt lat="47.89265" lon="6.9409">
        <ele>914</ele>
        <time>2026-05-09T17:38:43.853Z</time>
      </trkpt>
      <trkpt lat="47.89264" lon="6.94087">
        <ele>914</ele>
        <time>2026-05-09T17:38:44.853Z</time>
      </trkpt>
      <trkpt lat="47.89263" lon="6.94086">
        <ele>913</ele>
        <time>2026-05-09T17:38:45.853Z</time>
      </trkpt>
      <trkpt lat="47.89263" lon="6.94084">
        <ele>913</ele>
        <time>2026-05-09T17:38:46.853Z</time>
      </trkpt>
      <trkpt lat="47.89263" lon="6.94084">
        <ele>913</ele>
        <time>2026-05-09T17:38:47.853Z</time>
      </trkpt>
      <trkpt lat="47.8926" lon="6.94081">
        <ele>912</ele>
        <time>2026-05-09T17:38:48.853Z</time>
      </trkpt>
      <trkpt lat="47.89259" lon="6.9408">
        <ele>912</ele>
        <time>2026-05-09T17:38:49.853Z</time>
      </trkpt>
      <trkpt lat="47.89258" lon="6.94079">
        <ele>912</ele>
        <time>2026-05-09T17:38:50.853Z</time>
      </trkpt>
      <trkpt lat="47.89257" lon="6.94077">
        <ele>912</ele>
        <time>2026-05-09T17:38:51.853Z</time>
      </trkpt>
      <trkpt lat="47.89256" lon="6.94076">
        <ele>912</ele>
        <time>2026-05-09T17:38:52.854Z</time>
      </trkpt>
      <trkpt lat="47.89256" lon="6.94074">
        <ele>912</ele>
        <time>2026-05-09T17:38:53.853Z</time>
      </trkpt>
      <trkpt lat="47.89256" lon="6.94072">
        <ele>911</ele>
        <time>2026-05-09T17:38:54.853Z</time>
      </trkpt>
      <trkpt lat="47.89254" lon="6.94071">
        <ele>912</ele>
        <time>2026-05-09T17:38:55.853Z</time>
      </trkpt>
      <trkpt lat="47.89253" lon="6.94069">
        <ele>912</ele>
        <time>2026-05-09T17:38:56.854Z</time>
      </trkpt>
      <trkpt lat="47.89252" lon="6.94068">
        <ele>912</ele>
        <time>2026-05-09T17:38:57.854Z</time>
      </trkpt>
      <trkpt lat="47.89251" lon="6.94065">
        <ele>912</ele>
        <time>2026-05-09T17:38:58.854Z</time>
      </trkpt>
      <trkpt lat="47.89251" lon="6.94065">
        <ele>912</ele>
        <time>2026-05-09T17:38:59.854Z</time>
      </trkpt>
      <trkpt lat="47.89249" lon="6.94061">
        <ele>912</ele>
        <time>2026-05-09T17:39:00.854Z</time>
      </trkpt>
      <trkpt lat="47.89247" lon="6.94058">
        <ele>913</ele>
        <time>2026-05-09T17:39:01.853Z</time>
      </trkpt>
      <trkpt lat="47.89244" lon="6.94054">
        <ele>913</ele>
        <time>2026-05-09T17:39:02.853Z</time>
      </trkpt>
      <trkpt lat="47.89244" lon="6.94054">
        <ele>913</ele>
        <time>2026-05-09T17:39:03.854Z</time>
      </trkpt>
      <trkpt lat="47.89239" lon="6.94047">
        <ele>914</ele>
        <time>2026-05-09T17:39:04.853Z</time>
      </trkpt>
      <trkpt lat="47.89238" lon="6.94045">
        <ele>914</ele>
        <time>2026-05-09T17:39:05.854Z</time>
      </trkpt>
      <trkpt lat="47.89236" lon="6.94043">
        <ele>915</ele>
        <time>2026-05-09T17:39:06.853Z</time>
      </trkpt>
      <trkpt lat="47.89236" lon="6.94043">
        <ele>915</ele>
        <time>2026-05-09T17:39:07.853Z</time>
      </trkpt>
      <trkpt lat="47.89235" lon="6.94038">
        <ele>915</ele>
        <time>2026-05-09T17:39:08.853Z</time>
      </trkpt>
      <trkpt lat="47.89233" lon="6.94036">
        <ele>915</ele>
        <time>2026-05-09T17:39:09.853Z</time>
      </trkpt>
      <trkpt lat="47.89233" lon="6.94035">
        <ele>915</ele>
        <time>2026-05-09T17:39:10.853Z</time>
      </trkpt>
      <trkpt lat="47.89234" lon="6.94033">
        <ele>915</ele>
        <time>2026-05-09T17:39:11.853Z</time>
      </trkpt>
      <trkpt lat="47.89236" lon="6.94032">
        <ele>915</ele>
        <time>2026-05-09T17:39:12.854Z</time>
      </trkpt>
      <trkpt lat="47.89237" lon="6.94031">
        <ele>915</ele>
        <time>2026-05-09T17:39:13.853Z</time>
      </trkpt>
      <trkpt lat="47.89237" lon="6.94028">
        <ele>914</ele>
        <time>2026-05-09T17:39:14.854Z</time>
      </trkpt>
      <trkpt lat="47.89237" lon="6.94026">
        <ele>914</ele>
        <time>2026-05-09T17:39:15.853Z</time>
      </trkpt>
      <trkpt lat="47.89236" lon="6.94024">
        <ele>914</ele>
        <time>2026-05-09T17:39:16.854Z</time>
      </trkpt>
      <trkpt lat="47.89235" lon="6.94023">
        <ele>914</ele>
        <time>2026-05-09T17:39:17.853Z</time>
      </trkpt>
      <trkpt lat="47.89236" lon="6.94021">
        <ele>914</ele>
        <time>2026-05-09T17:39:18.853Z</time>
      </trkpt>
      <trkpt lat="47.89236" lon="6.9402">
        <ele>914</ele>
        <time>2026-05-09T17:39:19.853Z</time>
      </trkpt>
      <trkpt lat="47.89236" lon="6.94018">
        <ele>913</ele>
        <time>2026-05-09T17:39:20.853Z</time>
      </trkpt>
      <trkpt lat="47.89236" lon="6.94016">
        <ele>913</ele>
        <time>2026-05-09T17:39:21.853Z</time>
      </trkpt>
      <trkpt lat="47.89236" lon="6.94014">
        <ele>913</ele>
        <time>2026-05-09T17:39:22.853Z</time>
      </trkpt>
      <trkpt lat="47.89235" lon="6.94012">
        <ele>912</ele>
        <time>2026-05-09T17:39:23.853Z</time>
      </trkpt>
      <trkpt lat="47.89235" lon="6.94012">
        <ele>912</ele>
        <time>2026-05-09T17:39:24.854Z</time>
      </trkpt>
      <trkpt lat="47.89236" lon="6.94008">
        <ele>911</ele>
        <time>2026-05-09T17:39:25.853Z</time>
      </trkpt>
      <trkpt lat="47.89236" lon="6.94008">
        <ele>911</ele>
        <time>2026-05-09T17:39:26.854Z</time>
      </trkpt>
      <trkpt lat="47.89236" lon="6.94006">
        <ele>911</ele>
        <time>2026-05-09T17:39:27.853Z</time>
      </trkpt>
      <trkpt lat="47.89236" lon="6.94004">
        <ele>911</ele>
        <time>2026-05-09T17:39:28.853Z</time>
      </trkpt>
      <trkpt lat="47.89237" lon="6.93999">
        <ele>910</ele>
        <time>2026-05-09T17:39:29.853Z</time>
      </trkpt>
      <trkpt lat="47.89237" lon="6.93996">
        <ele>909</ele>
        <time>2026-05-09T17:39:30.853Z</time>
      </trkpt>
      <trkpt lat="47.89236" lon="6.93994">
        <ele>909</ele>
        <time>2026-05-09T17:39:31.853Z</time>
      </trkpt>
      <trkpt lat="47.89236" lon="6.93994">
        <ele>909</ele>
        <time>2026-05-09T17:39:32.854Z</time>
      </trkpt>
      <trkpt lat="47.89236" lon="6.9399">
        <ele>910</ele>
        <time>2026-05-09T17:39:33.853Z</time>
      </trkpt>
      <trkpt lat="47.89236" lon="6.93988">
        <ele>910</ele>
        <time>2026-05-09T17:39:34.853Z</time>
      </trkpt>
      <trkpt lat="47.89236" lon="6.93986">
        <ele>910</ele>
        <time>2026-05-09T17:39:35.853Z</time>
      </trkpt>
      <trkpt lat="47.89236" lon="6.93984">
        <ele>910</ele>
        <time>2026-05-09T17:39:36.853Z</time>
      </trkpt>
      <trkpt lat="47.89236" lon="6.93983">
        <ele>910</ele>
        <time>2026-05-09T17:39:37.853Z</time>
      </trkpt>
      <trkpt lat="47.89236" lon="6.93981">
        <ele>910</ele>
        <time>2026-05-09T17:39:38.853Z</time>
      </trkpt>
      <trkpt lat="47.89236" lon="6.93979">
        <ele>910</ele>
        <time>2026-05-09T17:39:39.853Z</time>
      </trkpt>
      <trkpt lat="47.89237" lon="6.93977">
        <ele>910</ele>
        <time>2026-05-09T17:39:40.854Z</time>
      </trkpt>
      <trkpt lat="47.89237" lon="6.93976">
        <ele>910</ele>
        <time>2026-05-09T17:39:41.853Z</time>
      </trkpt>
      <trkpt lat="47.89237" lon="6.93974">
        <ele>910</ele>
        <time>2026-05-09T17:39:42.854Z</time>
      </trkpt>
      <trkpt lat="47.89237" lon="6.93972">
        <ele>910</ele>
        <time>2026-05-09T17:39:43.853Z</time>
      </trkpt>
      <trkpt lat="47.89237" lon="6.93972">
        <ele>910</ele>
        <time>2026-05-09T17:39:44.853Z</time>
      </trkpt>
      <trkpt lat="47.89237" lon="6.93967">
        <ele>911</ele>
        <time>2026-05-09T17:39:45.853Z</time>
      </trkpt>
      <trkpt lat="47.89237" lon="6.93965">
        <ele>911</ele>
        <time>2026-05-09T17:39:46.854Z</time>
      </trkpt>
      <trkpt lat="47.89237" lon="6.93963">
        <ele>911</ele>
        <time>2026-05-09T17:39:47.853Z</time>
      </trkpt>
      <trkpt lat="47.89237" lon="6.93961">
        <ele>911</ele>
        <time>2026-05-09T17:39:48.853Z</time>
      </trkpt>
      <trkpt lat="47.89237" lon="6.93961">
        <ele>911</ele>
        <time>2026-05-09T17:39:49.853Z</time>
      </trkpt>
      <trkpt lat="47.89237" lon="6.93956">
        <ele>913</ele>
        <time>2026-05-09T17:39:50.853Z</time>
      </trkpt>
      <trkpt lat="47.89237" lon="6.93954">
        <ele>913</ele>
        <time>2026-05-09T17:39:51.853Z</time>
      </trkpt>
      <trkpt lat="47.89238" lon="6.93952">
        <ele>913</ele>
        <time>2026-05-09T17:39:52.854Z</time>
      </trkpt>
      <trkpt lat="47.89238" lon="6.93952">
        <ele>913</ele>
        <time>2026-05-09T17:39:53.853Z</time>
      </trkpt>
      <trkpt lat="47.89238" lon="6.93948">
        <ele>914</ele>
        <time>2026-05-09T17:39:54.853Z</time>
      </trkpt>
      <trkpt lat="47.89238" lon="6.93946">
        <ele>914</ele>
        <time>2026-05-09T17:39:55.853Z</time>
      </trkpt>
      <trkpt lat="47.89238" lon="6.93944">
        <ele>914</ele>
        <time>2026-05-09T17:39:56.853Z</time>
      </trkpt>
      <trkpt lat="47.89238" lon="6.93944">
        <ele>914</ele>
        <time>2026-05-09T17:39:57.853Z</time>
      </trkpt>
      <trkpt lat="47.89238" lon="6.9394">
        <ele>915</ele>
        <time>2026-05-09T17:39:58.854Z</time>
      </trkpt>
      <trkpt lat="47.89238" lon="6.93938">
        <ele>916</ele>
        <time>2026-05-09T17:39:59.853Z</time>
      </trkpt>
      <trkpt lat="47.89239" lon="6.93936">
        <ele>916</ele>
        <time>2026-05-09T17:40:00.853Z</time>
      </trkpt>
      <trkpt lat="47.89239" lon="6.93934">
        <ele>916</ele>
        <time>2026-05-09T17:40:01.853Z</time>
      </trkpt>
      <trkpt lat="47.89239" lon="6.93932">
        <ele>916</ele>
        <time>2026-05-09T17:40:02.854Z</time>
      </trkpt>
      <trkpt lat="47.8924" lon="6.9393">
        <ele>916</ele>
        <time>2026-05-09T17:40:03.853Z</time>
      </trkpt>
      <trkpt lat="47.8924" lon="6.93929">
        <ele>915</ele>
        <time>2026-05-09T17:40:04.853Z</time>
      </trkpt>
      <trkpt lat="47.8924" lon="6.93927">
        <ele>915</ele>
        <time>2026-05-09T17:40:05.853Z</time>
      </trkpt>
      <trkpt lat="47.8924" lon="6.93925">
        <ele>915</ele>
        <time>2026-05-09T17:40:06.853Z</time>
      </trkpt>
      <trkpt lat="47.8924" lon="6.93923">
        <ele>915</ele>
        <time>2026-05-09T17:40:07.853Z</time>
      </trkpt>
      <trkpt lat="47.8924" lon="6.93921">
        <ele>915</ele>
        <time>2026-05-09T17:40:08.853Z</time>
      </trkpt>
      <trkpt lat="47.8924" lon="6.93921">
        <ele>915</ele>
        <time>2026-05-09T17:40:09.853Z</time>
      </trkpt>
      <trkpt lat="47.89241" lon="6.93917">
        <ele>915</ele>
        <time>2026-05-09T17:40:10.854Z</time>
      </trkpt>
      <trkpt lat="47.89241" lon="6.93916">
        <ele>915</ele>
        <time>2026-05-09T17:40:11.853Z</time>
      </trkpt>
      <trkpt lat="47.89241" lon="6.93914">
        <ele>914</ele>
        <time>2026-05-09T17:40:12.853Z</time>
      </trkpt>
      <trkpt lat="47.89241" lon="6.93914">
        <ele>914</ele>
        <time>2026-05-09T17:40:13.853Z</time>
      </trkpt>
      <trkpt lat="47.89241" lon="6.93912">
        <ele>914</ele>
        <time>2026-05-09T17:40:14.853Z</time>
      </trkpt>
      <trkpt lat="47.89242" lon="6.93909">
        <ele>914</ele>
        <time>2026-05-09T17:40:15.853Z</time>
      </trkpt>
      <trkpt lat="47.89242" lon="6.93907">
        <ele>914</ele>
        <time>2026-05-09T17:40:16.853Z</time>
      </trkpt>
      <trkpt lat="47.89242" lon="6.93906">
        <ele>914</ele>
        <time>2026-05-09T17:40:17.854Z</time>
      </trkpt>
      <trkpt lat="47.89242" lon="6.93906">
        <ele>914</ele>
        <time>2026-05-09T17:40:18.853Z</time>
      </trkpt>
      <trkpt lat="47.89242" lon="6.93902">
        <ele>913</ele>
        <time>2026-05-09T17:40:19.854Z</time>
      </trkpt>
      <trkpt lat="47.89242" lon="6.939">
        <ele>912</ele>
        <time>2026-05-09T17:40:20.853Z</time>
      </trkpt>
      <trkpt lat="47.89242" lon="6.93898">
        <ele>912</ele>
        <time>2026-05-09T17:40:21.853Z</time>
      </trkpt>
      <trkpt lat="47.89242" lon="6.93898">
        <ele>912</ele>
        <time>2026-05-09T17:40:22.853Z</time>
      </trkpt>
      <trkpt lat="47.89243" lon="6.93894">
        <ele>911</ele>
        <time>2026-05-09T17:40:23.853Z</time>
      </trkpt>
      <trkpt lat="47.89243" lon="6.93892">
        <ele>911</ele>
        <time>2026-05-09T17:40:24.853Z</time>
      </trkpt>
      <trkpt lat="47.89243" lon="6.9389">
        <ele>911</ele>
        <time>2026-05-09T17:40:25.853Z</time>
      </trkpt>
      <trkpt lat="47.89243" lon="6.9389">
        <ele>911</ele>
        <time>2026-05-09T17:40:26.853Z</time>
      </trkpt>
      <trkpt lat="47.89244" lon="6.93886">
        <ele>910</ele>
        <time>2026-05-09T17:40:27.853Z</time>
      </trkpt>
      <trkpt lat="47.89244" lon="6.93884">
        <ele>910</ele>
        <time>2026-05-09T17:40:28.853Z</time>
      </trkpt>
      <trkpt lat="47.89245" lon="6.93882">
        <ele>910</ele>
        <time>2026-05-09T17:40:29.853Z</time>
      </trkpt>
      <trkpt lat="47.89244" lon="6.9388">
        <ele>911</ele>
        <time>2026-05-09T17:40:30.853Z</time>
      </trkpt>
      <trkpt lat="47.89244" lon="6.93878">
        <ele>911</ele>
        <time>2026-05-09T17:40:31.854Z</time>
      </trkpt>
      <trkpt lat="47.89244" lon="6.93876">
        <ele>911</ele>
        <time>2026-05-09T17:40:32.854Z</time>
      </trkpt>
      <trkpt lat="47.89243" lon="6.93874">
        <ele>911</ele>
        <time>2026-05-09T17:40:33.853Z</time>
      </trkpt>
      <trkpt lat="47.89243" lon="6.93874">
        <ele>911</ele>
        <time>2026-05-09T17:40:34.853Z</time>
      </trkpt>
      <trkpt lat="47.89244" lon="6.93872">
        <ele>912</ele>
        <time>2026-05-09T17:40:35.854Z</time>
      </trkpt>
      <trkpt lat="47.89245" lon="6.9387">
        <ele>912</ele>
        <time>2026-05-09T17:40:36.853Z</time>
      </trkpt>
      <trkpt lat="47.89246" lon="6.93868">
        <ele>912</ele>
        <time>2026-05-09T17:40:37.853Z</time>
      </trkpt>
      <trkpt lat="47.89246" lon="6.93868">
        <ele>912</ele>
        <time>2026-05-09T17:40:38.854Z</time>
      </trkpt>
      <trkpt lat="47.89246" lon="6.93863">
        <ele>912</ele>
        <time>2026-05-09T17:40:39.853Z</time>
      </trkpt>
      <trkpt lat="47.89246" lon="6.9386">
        <ele>912</ele>
        <time>2026-05-09T17:40:40.854Z</time>
      </trkpt>
      <trkpt lat="47.89246" lon="6.93858">
        <ele>912</ele>
        <time>2026-05-09T17:40:41.854Z</time>
      </trkpt>
      <trkpt lat="47.89246" lon="6.93855">
        <ele>913</ele>
        <time>2026-05-09T17:40:42.853Z</time>
      </trkpt>
      <trkpt lat="47.89246" lon="6.93853">
        <ele>913</ele>
        <time>2026-05-09T17:40:43.854Z</time>
      </trkpt>
      <trkpt lat="47.89247" lon="6.9385">
        <ele>913</ele>
        <time>2026-05-09T17:40:44.853Z</time>
      </trkpt>
      <trkpt lat="47.89247" lon="6.93848">
        <ele>912</ele>
        <time>2026-05-09T17:40:45.853Z</time>
      </trkpt>
      <trkpt lat="47.89247" lon="6.93846">
        <ele>912</ele>
        <time>2026-05-09T17:40:46.853Z</time>
      </trkpt>
      <trkpt lat="47.89247" lon="6.93846">
        <ele>912</ele>
        <time>2026-05-09T17:40:47.853Z</time>
      </trkpt>
      <trkpt lat="47.89247" lon="6.93841">
        <ele>913</ele>
        <time>2026-05-09T17:40:48.853Z</time>
      </trkpt>
      <trkpt lat="47.89247" lon="6.93839">
        <ele>913</ele>
        <time>2026-05-09T17:40:49.853Z</time>
      </trkpt>
      <trkpt lat="47.89247" lon="6.93837">
        <ele>913</ele>
        <time>2026-05-09T17:40:50.853Z</time>
      </trkpt>
      <trkpt lat="47.89247" lon="6.93834">
        <ele>913</ele>
        <time>2026-05-09T17:40:51.853Z</time>
      </trkpt>
      <trkpt lat="47.89247" lon="6.93832">
        <ele>913</ele>
        <time>2026-05-09T17:40:52.853Z</time>
      </trkpt>
      <trkpt lat="47.89246" lon="6.9383">
        <ele>913</ele>
        <time>2026-05-09T17:40:53.854Z</time>
      </trkpt>
      <trkpt lat="47.89247" lon="6.93828">
        <ele>913</ele>
        <time>2026-05-09T17:40:54.854Z</time>
      </trkpt>
      <trkpt lat="47.89247" lon="6.93826">
        <ele>913</ele>
        <time>2026-05-09T17:40:55.853Z</time>
      </trkpt>
      <trkpt lat="47.89247" lon="6.93824">
        <ele>914</ele>
        <time>2026-05-09T17:40:56.853Z</time>
      </trkpt>
      <trkpt lat="47.89247" lon="6.93822">
        <ele>914</ele>
        <time>2026-05-09T17:40:57.853Z</time>
      </trkpt>
      <trkpt lat="47.89248" lon="6.9382">
        <ele>913</ele>
        <time>2026-05-09T17:40:58.853Z</time>
      </trkpt>
      <trkpt lat="47.89248" lon="6.9382">
        <ele>913</ele>
        <time>2026-05-09T17:40:59.853Z</time>
      </trkpt>
      <trkpt lat="47.89248" lon="6.93817">
        <ele>912</ele>
        <time>2026-05-09T17:41:00.853Z</time>
      </trkpt>
      <trkpt lat="47.89248" lon="6.93815">
        <ele>912</ele>
        <time>2026-05-09T17:41:01.853Z</time>
      </trkpt>
      <trkpt lat="47.89248" lon="6.93813">
        <ele>912</ele>
        <time>2026-05-09T17:41:02.854Z</time>
      </trkpt>
      <trkpt lat="47.89248" lon="6.93813">
        <ele>912</ele>
        <time>2026-05-09T17:41:03.853Z</time>
      </trkpt>
      <trkpt lat="47.89248" lon="6.93808">
        <ele>911</ele>
        <time>2026-05-09T17:41:04.853Z</time>
      </trkpt>
      <trkpt lat="47.89249" lon="6.93806">
        <ele>911</ele>
        <time>2026-05-09T17:41:05.853Z</time>
      </trkpt>
      <trkpt lat="47.89248" lon="6.93804">
        <ele>911</ele>
        <time>2026-05-09T17:41:06.853Z</time>
      </trkpt>
      <trkpt lat="47.89247" lon="6.93801">
        <ele>910</ele>
        <time>2026-05-09T17:41:07.854Z</time>
      </trkpt>
      <trkpt lat="47.89246" lon="6.93799">
        <ele>911</ele>
        <time>2026-05-09T17:41:08.853Z</time>
      </trkpt>
      <trkpt lat="47.89246" lon="6.93797">
        <ele>911</ele>
        <time>2026-05-09T17:41:09.854Z</time>
      </trkpt>
      <trkpt lat="47.89247" lon="6.93795">
        <ele>910</ele>
        <time>2026-05-09T17:41:10.853Z</time>
      </trkpt>
      <trkpt lat="47.89247" lon="6.93794">
        <ele>910</ele>
        <time>2026-05-09T17:41:11.853Z</time>
      </trkpt>
      <trkpt lat="47.89247" lon="6.93791">
        <ele>910</ele>
        <time>2026-05-09T17:41:12.853Z</time>
      </trkpt>
      <trkpt lat="47.89247" lon="6.93789">
        <ele>910</ele>
        <time>2026-05-09T17:41:13.853Z</time>
      </trkpt>
      <trkpt lat="47.89247" lon="6.93789">
        <ele>910</ele>
        <time>2026-05-09T17:41:14.853Z</time>
      </trkpt>
      <trkpt lat="47.89246" lon="6.93784">
        <ele>910</ele>
        <time>2026-05-09T17:41:15.853Z</time>
      </trkpt>
      <trkpt lat="47.89246" lon="6.93782">
        <ele>910</ele>
        <time>2026-05-09T17:41:16.854Z</time>
      </trkpt>
      <trkpt lat="47.89246" lon="6.93781">
        <ele>910</ele>
        <time>2026-05-09T17:41:17.853Z</time>
      </trkpt>
      <trkpt lat="47.89246" lon="6.93778">
        <ele>910</ele>
        <time>2026-05-09T17:41:18.853Z</time>
      </trkpt>
      <trkpt lat="47.89245" lon="6.93776">
        <ele>910</ele>
        <time>2026-05-09T17:41:19.853Z</time>
      </trkpt>
      <trkpt lat="47.89245" lon="6.93774">
        <ele>910</ele>
        <time>2026-05-09T17:41:20.854Z</time>
      </trkpt>
      <trkpt lat="47.89245" lon="6.93772">
        <ele>910</ele>
        <time>2026-05-09T17:41:21.853Z</time>
      </trkpt>
      <trkpt lat="47.89245" lon="6.93771">
        <ele>910</ele>
        <time>2026-05-09T17:41:22.853Z</time>
      </trkpt>
      <trkpt lat="47.89245" lon="6.93771">
        <ele>910</ele>
        <time>2026-05-09T17:41:23.854Z</time>
      </trkpt>
      <trkpt lat="47.89245" lon="6.93769">
        <ele>909</ele>
        <time>2026-05-09T17:41:24.853Z</time>
      </trkpt>
      <trkpt lat="47.89245" lon="6.93766">
        <ele>908</ele>
        <time>2026-05-09T17:41:25.853Z</time>
      </trkpt>
      <trkpt lat="47.89245" lon="6.93766">
        <ele>908</ele>
        <time>2026-05-09T17:41:26.853Z</time>
      </trkpt>
      <trkpt lat="47.89244" lon="6.93764">
        <ele>908</ele>
        <time>2026-05-09T17:41:27.854Z</time>
      </trkpt>
      <trkpt lat="47.89244" lon="6.93761">
        <ele>907</ele>
        <time>2026-05-09T17:41:28.853Z</time>
      </trkpt>
      <trkpt lat="47.89243" lon="6.93759">
        <ele>907</ele>
        <time>2026-05-09T17:41:29.854Z</time>
      </trkpt>
      <trkpt lat="47.89243" lon="6.93757">
        <ele>907</ele>
        <time>2026-05-09T17:41:30.853Z</time>
      </trkpt>
      <trkpt lat="47.89242" lon="6.93755">
        <ele>907</ele>
        <time>2026-05-09T17:41:31.853Z</time>
      </trkpt>
      <trkpt lat="47.89242" lon="6.93753">
        <ele>907</ele>
        <time>2026-05-09T17:41:32.853Z</time>
      </trkpt>
      <trkpt lat="47.89242" lon="6.93753">
        <ele>907</ele>
        <time>2026-05-09T17:41:33.854Z</time>
      </trkpt>
      <trkpt lat="47.89241" lon="6.93751">
        <ele>907</ele>
        <time>2026-05-09T17:41:34.853Z</time>
      </trkpt>
      <trkpt lat="47.89241" lon="6.93748">
        <ele>908</ele>
        <time>2026-05-09T17:41:35.853Z</time>
      </trkpt>
      <trkpt lat="47.8924" lon="6.93746">
        <ele>908</ele>
        <time>2026-05-09T17:41:36.853Z</time>
      </trkpt>
      <trkpt lat="47.8924" lon="6.93744">
        <ele>908</ele>
        <time>2026-05-09T17:41:37.853Z</time>
      </trkpt>
      <trkpt lat="47.8924" lon="6.93744">
        <ele>908</ele>
        <time>2026-05-09T17:41:38.853Z</time>
      </trkpt>
      <trkpt lat="47.8924" lon="6.93742">
        <ele>908</ele>
        <time>2026-05-09T17:41:39.853Z</time>
      </trkpt>
      <trkpt lat="47.8924" lon="6.93739">
        <ele>908</ele>
        <time>2026-05-09T17:41:40.853Z</time>
      </trkpt>
      <trkpt lat="47.89239" lon="6.93737">
        <ele>908</ele>
        <time>2026-05-09T17:41:41.853Z</time>
      </trkpt>
      <trkpt lat="47.89239" lon="6.93735">
        <ele>909</ele>
        <time>2026-05-09T17:41:42.853Z</time>
      </trkpt>
      <trkpt lat="47.89239" lon="6.93733">
        <ele>909</ele>
        <time>2026-05-09T17:41:43.853Z</time>
      </trkpt>
      <trkpt lat="47.89239" lon="6.93733">
        <ele>909</ele>
        <time>2026-05-09T17:41:44.854Z</time>
      </trkpt>
      <trkpt lat="47.89237" lon="6.93729">
        <ele>909</ele>
        <time>2026-05-09T17:41:45.853Z</time>
      </trkpt>
      <trkpt lat="47.89236" lon="6.93726">
        <ele>909</ele>
        <time>2026-05-09T17:41:46.854Z</time>
      </trkpt>
      <trkpt lat="47.89236" lon="6.93724">
        <ele>910</ele>
        <time>2026-05-09T17:41:47.853Z</time>
      </trkpt>
      <trkpt lat="47.89236" lon="6.93724">
        <ele>910</ele>
        <time>2026-05-09T17:41:48.854Z</time>
      </trkpt>
      <trkpt lat="47.89235" lon="6.93722">
        <ele>910</ele>
        <time>2026-05-09T17:41:49.854Z</time>
      </trkpt>
      <trkpt lat="47.89234" lon="6.93719">
        <ele>910</ele>
        <time>2026-05-09T17:41:50.853Z</time>
      </trkpt>
      <trkpt lat="47.89233" lon="6.93718">
        <ele>910</ele>
        <time>2026-05-09T17:41:51.853Z</time>
      </trkpt>
      <trkpt lat="47.89233" lon="6.93718">
        <ele>910</ele>
        <time>2026-05-09T17:41:52.853Z</time>
      </trkpt>
      <trkpt lat="47.89232" lon="6.93716">
        <ele>910</ele>
        <time>2026-05-09T17:41:53.853Z</time>
      </trkpt>
      <trkpt lat="47.89232" lon="6.93714">
        <ele>910</ele>
        <time>2026-05-09T17:41:54.854Z</time>
      </trkpt>
      <trkpt lat="47.89231" lon="6.9371">
        <ele>909</ele>
        <time>2026-05-09T17:41:55.853Z</time>
      </trkpt>
      <trkpt lat="47.8923" lon="6.93708">
        <ele>909</ele>
        <time>2026-05-09T17:41:56.854Z</time>
      </trkpt>
      <trkpt lat="47.8923" lon="6.93706">
        <ele>909</ele>
        <time>2026-05-09T17:41:57.853Z</time>
      </trkpt>
      <trkpt lat="47.8923" lon="6.93706">
        <ele>909</ele>
        <time>2026-05-09T17:41:58.854Z</time>
      </trkpt>
      <trkpt lat="47.89229" lon="6.93704">
        <ele>909</ele>
        <time>2026-05-09T17:41:59.853Z</time>
      </trkpt>
      <trkpt lat="47.89227" lon="6.93701">
        <ele>909</ele>
        <time>2026-05-09T17:42:00.853Z</time>
      </trkpt>
      <trkpt lat="47.89227" lon="6.937">
        <ele>909</ele>
        <time>2026-05-09T17:42:01.854Z</time>
      </trkpt>
      <trkpt lat="47.89227" lon="6.93698">
        <ele>909</ele>
        <time>2026-05-09T17:42:02.853Z</time>
      </trkpt>
      <trkpt lat="47.89227" lon="6.93698">
        <ele>909</ele>
        <time>2026-05-09T17:42:03.854Z</time>
      </trkpt>
      <trkpt lat="47.89226" lon="6.93697">
        <ele>909</ele>
        <time>2026-05-09T17:42:04.853Z</time>
      </trkpt>
      <trkpt lat="47.89226" lon="6.93694">
        <ele>907</ele>
        <time>2026-05-09T17:42:05.853Z</time>
      </trkpt>
      <trkpt lat="47.89225" lon="6.93693">
        <ele>907</ele>
        <time>2026-05-09T17:42:06.853Z</time>
      </trkpt>
      <trkpt lat="47.89224" lon="6.93691">
        <ele>906</ele>
        <time>2026-05-09T17:42:07.853Z</time>
      </trkpt>
      <trkpt lat="47.89224" lon="6.93691">
        <ele>906</ele>
        <time>2026-05-09T17:42:08.854Z</time>
      </trkpt>
      <trkpt lat="47.89223" lon="6.93689">
        <ele>906</ele>
        <time>2026-05-09T17:42:09.854Z</time>
      </trkpt>
      <trkpt lat="47.89222" lon="6.93685">
        <ele>904</ele>
        <time>2026-05-09T17:42:10.854Z</time>
      </trkpt>
      <trkpt lat="47.89222" lon="6.93683">
        <ele>903</ele>
        <time>2026-05-09T17:42:11.853Z</time>
      </trkpt>
      <trkpt lat="47.89221" lon="6.93682">
        <ele>903</ele>
        <time>2026-05-09T17:42:12.854Z</time>
      </trkpt>
      <trkpt lat="47.89221" lon="6.93682">
        <ele>903</ele>
        <time>2026-05-09T17:42:13.853Z</time>
      </trkpt>
      <trkpt lat="47.89221" lon="6.9368">
        <ele>902</ele>
        <time>2026-05-09T17:42:14.853Z</time>
      </trkpt>
      <trkpt lat="47.8922" lon="6.93676">
        <ele>901</ele>
        <time>2026-05-09T17:42:15.853Z</time>
      </trkpt>
      <trkpt lat="47.8922" lon="6.93675">
        <ele>900</ele>
        <time>2026-05-09T17:42:16.853Z</time>
      </trkpt>
      <trkpt lat="47.89219" lon="6.93673">
        <ele>900</ele>
        <time>2026-05-09T17:42:17.853Z</time>
      </trkpt>
      <trkpt lat="47.89219" lon="6.93673">
        <ele>900</ele>
        <time>2026-05-09T17:42:18.853Z</time>
      </trkpt>
      <trkpt lat="47.89219" lon="6.93671">
        <ele>899</ele>
        <time>2026-05-09T17:42:19.854Z</time>
      </trkpt>
      <trkpt lat="47.89218" lon="6.93668">
        <ele>899</ele>
        <time>2026-05-09T17:42:20.853Z</time>
      </trkpt>
      <trkpt lat="47.89218" lon="6.93666">
        <ele>898</ele>
        <time>2026-05-09T17:42:21.854Z</time>
      </trkpt>
      <trkpt lat="47.89218" lon="6.93666">
        <ele>898</ele>
        <time>2026-05-09T17:42:22.853Z</time>
      </trkpt>
      <trkpt lat="47.89217" lon="6.93664">
        <ele>898</ele>
        <time>2026-05-09T17:42:23.853Z</time>
      </trkpt>
      <trkpt lat="47.89216" lon="6.93663">
        <ele>898</ele>
        <time>2026-05-09T17:42:24.853Z</time>
      </trkpt>
      <trkpt lat="47.89215" lon="6.9366">
        <ele>898</ele>
        <time>2026-05-09T17:42:25.853Z</time>
      </trkpt>
      <trkpt lat="47.89215" lon="6.9366">
        <ele>898</ele>
        <time>2026-05-09T17:42:26.854Z</time>
      </trkpt>
      <trkpt lat="47.89215" lon="6.93658">
        <ele>898</ele>
        <time>2026-05-09T17:42:27.854Z</time>
      </trkpt>
      <trkpt lat="47.89214" lon="6.93656">
        <ele>898</ele>
        <time>2026-05-09T17:42:28.854Z</time>
      </trkpt>
      <trkpt lat="47.89214" lon="6.93655">
        <ele>898</ele>
        <time>2026-05-09T17:42:29.853Z</time>
      </trkpt>
      <trkpt lat="47.89213" lon="6.93651">
        <ele>898</ele>
        <time>2026-05-09T17:42:30.853Z</time>
      </trkpt>
      <trkpt lat="47.89212" lon="6.9365">
        <ele>897</ele>
        <time>2026-05-09T17:42:31.853Z</time>
      </trkpt>
      <trkpt lat="47.89211" lon="6.93648">
        <ele>897</ele>
        <time>2026-05-09T17:42:32.853Z</time>
      </trkpt>
      <trkpt lat="47.89211" lon="6.93648">
        <ele>897</ele>
        <time>2026-05-09T17:42:33.853Z</time>
      </trkpt>
      <trkpt lat="47.89211" lon="6.93647">
        <ele>896</ele>
        <time>2026-05-09T17:42:34.854Z</time>
      </trkpt>
      <trkpt lat="47.89209" lon="6.93643">
        <ele>896</ele>
        <time>2026-05-09T17:42:35.853Z</time>
      </trkpt>
      <trkpt lat="47.89209" lon="6.93641">
        <ele>896</ele>
        <time>2026-05-09T17:42:36.854Z</time>
      </trkpt>
      <trkpt lat="47.89208" lon="6.9364">
        <ele>896</ele>
        <time>2026-05-09T17:42:37.853Z</time>
      </trkpt>
      <trkpt lat="47.89208" lon="6.9364">
        <ele>896</ele>
        <time>2026-05-09T17:42:38.853Z</time>
      </trkpt>
      <trkpt lat="47.89208" lon="6.93637">
        <ele>897</ele>
        <time>2026-05-09T17:42:39.853Z</time>
      </trkpt>
      <trkpt lat="47.89207" lon="6.93635">
        <ele>897</ele>
        <time>2026-05-09T17:42:40.853Z</time>
      </trkpt>
      <trkpt lat="47.89207" lon="6.93634">
        <ele>898</ele>
        <time>2026-05-09T17:42:41.853Z</time>
      </trkpt>
      <trkpt lat="47.89207" lon="6.93634">
        <ele>898</ele>
        <time>2026-05-09T17:42:42.853Z</time>
      </trkpt>
      <trkpt lat="47.89206" lon="6.9363">
        <ele>900</ele>
        <time>2026-05-09T17:42:43.853Z</time>
      </trkpt>
      <trkpt lat="47.89206" lon="6.9363">
        <ele>900</ele>
        <time>2026-05-09T17:42:44.853Z</time>
      </trkpt>
      <trkpt lat="47.89204" lon="6.93626">
        <ele>901</ele>
        <time>2026-05-09T17:42:45.853Z</time>
      </trkpt>
      <trkpt lat="47.89203" lon="6.93624">
        <ele>902</ele>
        <time>2026-05-09T17:42:46.853Z</time>
      </trkpt>
      <trkpt lat="47.89203" lon="6.93624">
        <ele>902</ele>
        <time>2026-05-09T17:42:47.853Z</time>
      </trkpt>
      <trkpt lat="47.89202" lon="6.93622">
        <ele>902</ele>
        <time>2026-05-09T17:42:48.853Z</time>
      </trkpt>
      <trkpt lat="47.89201" lon="6.93621">
        <ele>903</ele>
        <time>2026-05-09T17:42:49.854Z</time>
      </trkpt>
      <trkpt lat="47.892" lon="6.93617">
        <ele>903</ele>
        <time>2026-05-09T17:42:50.854Z</time>
      </trkpt>
      <trkpt lat="47.892" lon="6.93617">
        <ele>903</ele>
        <time>2026-05-09T17:42:51.853Z</time>
      </trkpt>
      <trkpt lat="47.89199" lon="6.93614">
        <ele>902</ele>
        <time>2026-05-09T17:42:52.854Z</time>
      </trkpt>
      <trkpt lat="47.89199" lon="6.93614">
        <ele>902</ele>
        <time>2026-05-09T17:42:53.854Z</time>
      </trkpt>
      <trkpt lat="47.89199" lon="6.93613">
        <ele>903</ele>
        <time>2026-05-09T17:42:54.853Z</time>
      </trkpt>
      <trkpt lat="47.89198" lon="6.9361">
        <ele>903</ele>
        <time>2026-05-09T17:42:55.853Z</time>
      </trkpt>
      <trkpt lat="47.89198" lon="6.93609">
        <ele>903</ele>
        <time>2026-05-09T17:42:56.853Z</time>
      </trkpt>
      <trkpt lat="47.89197" lon="6.93607">
        <ele>903</ele>
        <time>2026-05-09T17:42:57.853Z</time>
      </trkpt>
      <trkpt lat="47.89197" lon="6.93607">
        <ele>903</ele>
        <time>2026-05-09T17:42:58.853Z</time>
      </trkpt>
      <trkpt lat="47.89197" lon="6.93606">
        <ele>903</ele>
        <time>2026-05-09T17:42:59.853Z</time>
      </trkpt>
      <trkpt lat="47.89196" lon="6.93603">
        <ele>902</ele>
        <time>2026-05-09T17:43:00.853Z</time>
      </trkpt>
      <trkpt lat="47.89195" lon="6.93601">
        <ele>902</ele>
        <time>2026-05-09T17:43:01.853Z</time>
      </trkpt>
      <trkpt lat="47.89195" lon="6.936">
        <ele>901</ele>
        <time>2026-05-09T17:43:02.853Z</time>
      </trkpt>
      <trkpt lat="47.89195" lon="6.936">
        <ele>901</ele>
        <time>2026-05-09T17:43:03.853Z</time>
      </trkpt>
      <trkpt lat="47.89195" lon="6.93598">
        <ele>901</ele>
        <time>2026-05-09T17:43:04.854Z</time>
      </trkpt>
      <trkpt lat="47.89193" lon="6.93595">
        <ele>900</ele>
        <time>2026-05-09T17:43:05.853Z</time>
      </trkpt>
      <trkpt lat="47.89193" lon="6.93593">
        <ele>900</ele>
        <time>2026-05-09T17:43:06.853Z</time>
      </trkpt>
      <trkpt lat="47.89192" lon="6.93592">
        <ele>900</ele>
        <time>2026-05-09T17:43:07.853Z</time>
      </trkpt>
      <trkpt lat="47.89192" lon="6.93591">
        <ele>900</ele>
        <time>2026-05-09T17:43:08.853Z</time>
      </trkpt>
      <trkpt lat="47.89192" lon="6.93589">
        <ele>900</ele>
        <time>2026-05-09T17:43:09.853Z</time>
      </trkpt>
      <trkpt lat="47.89191" lon="6.93587">
        <ele>900</ele>
        <time>2026-05-09T17:43:10.854Z</time>
      </trkpt>
      <trkpt lat="47.89191" lon="6.93587">
        <ele>900</ele>
        <time>2026-05-09T17:43:11.854Z</time>
      </trkpt>
      <trkpt lat="47.8919" lon="6.93583">
        <ele>900</ele>
        <time>2026-05-09T17:43:12.854Z</time>
      </trkpt>
      <trkpt lat="47.8919" lon="6.93581">
        <ele>899</ele>
        <time>2026-05-09T17:43:13.854Z</time>
      </trkpt>
      <trkpt lat="47.89189" lon="6.9358">
        <ele>899</ele>
        <time>2026-05-09T17:43:14.853Z</time>
      </trkpt>
      <trkpt lat="47.89189" lon="6.93578">
        <ele>899</ele>
        <time>2026-05-09T17:43:15.853Z</time>
      </trkpt>
      <trkpt lat="47.89189" lon="6.93578">
        <ele>899</ele>
        <time>2026-05-09T17:43:16.853Z</time>
      </trkpt>
      <trkpt lat="47.89188" lon="6.93575">
        <ele>899</ele>
        <time>2026-05-09T17:43:17.854Z</time>
      </trkpt>
      <trkpt lat="47.89187" lon="6.93574">
        <ele>900</ele>
        <time>2026-05-09T17:43:18.854Z</time>
      </trkpt>
      <trkpt lat="47.89186" lon="6.93572">
        <ele>900</ele>
        <time>2026-05-09T17:43:19.853Z</time>
      </trkpt>
      <trkpt lat="47.89186" lon="6.9357">
        <ele>900</ele>
        <time>2026-05-09T17:43:20.853Z</time>
      </trkpt>
      <trkpt lat="47.89185" lon="6.93568">
        <ele>900</ele>
        <time>2026-05-09T17:43:21.853Z</time>
      </trkpt>
      <trkpt lat="47.89185" lon="6.93567">
        <ele>900</ele>
        <time>2026-05-09T17:43:22.853Z</time>
      </trkpt>
      <trkpt lat="47.89184" lon="6.93565">
        <ele>901</ele>
        <time>2026-05-09T17:43:23.853Z</time>
      </trkpt>
      <trkpt lat="47.89184" lon="6.93565">
        <ele>901</ele>
        <time>2026-05-09T17:43:24.854Z</time>
      </trkpt>
      <trkpt lat="47.89182" lon="6.9356">
        <ele>901</ele>
        <time>2026-05-09T17:43:25.853Z</time>
      </trkpt>
      <trkpt lat="47.89182" lon="6.93558">
        <ele>902</ele>
        <time>2026-05-09T17:43:26.853Z</time>
      </trkpt>
      <trkpt lat="47.89182" lon="6.93557">
        <ele>902</ele>
        <time>2026-05-09T17:43:27.853Z</time>
      </trkpt>
      <trkpt lat="47.89182" lon="6.93557">
        <ele>902</ele>
        <time>2026-05-09T17:43:28.853Z</time>
      </trkpt>
      <trkpt lat="47.89182" lon="6.93554">
        <ele>902</ele>
        <time>2026-05-09T17:43:29.853Z</time>
      </trkpt>
      <trkpt lat="47.89182" lon="6.93552">
        <ele>902</ele>
        <time>2026-05-09T17:43:30.853Z</time>
      </trkpt>
      <trkpt lat="47.89182" lon="6.9355">
        <ele>902</ele>
        <time>2026-05-09T17:43:31.853Z</time>
      </trkpt>
      <trkpt lat="47.89182" lon="6.9355">
        <ele>902</ele>
        <time>2026-05-09T17:43:32.854Z</time>
      </trkpt>
      <trkpt lat="47.89182" lon="6.93544">
        <ele>903</ele>
        <time>2026-05-09T17:43:33.854Z</time>
      </trkpt>
      <trkpt lat="47.89182" lon="6.93542">
        <ele>903</ele>
        <time>2026-05-09T17:43:34.853Z</time>
      </trkpt>
      <trkpt lat="47.89182" lon="6.93539">
        <ele>903</ele>
        <time>2026-05-09T17:43:35.854Z</time>
      </trkpt>
      <trkpt lat="47.89182" lon="6.93539">
        <ele>903</ele>
        <time>2026-05-09T17:43:36.853Z</time>
      </trkpt>
      <trkpt lat="47.89182" lon="6.93536">
        <ele>903</ele>
        <time>2026-05-09T17:43:37.854Z</time>
      </trkpt>
      <trkpt lat="47.89182" lon="6.93533">
        <ele>902</ele>
        <time>2026-05-09T17:43:38.853Z</time>
      </trkpt>
      <trkpt lat="47.89183" lon="6.93531">
        <ele>902</ele>
        <time>2026-05-09T17:43:39.853Z</time>
      </trkpt>
      <trkpt lat="47.89183" lon="6.93531">
        <ele>902</ele>
        <time>2026-05-09T17:43:40.854Z</time>
      </trkpt>
      <trkpt lat="47.89182" lon="6.93528">
        <ele>902</ele>
        <time>2026-05-09T17:43:41.853Z</time>
      </trkpt>
      <trkpt lat="47.89181" lon="6.93526">
        <ele>902</ele>
        <time>2026-05-09T17:43:42.853Z</time>
      </trkpt>
      <trkpt lat="47.89181" lon="6.93524">
        <ele>902</ele>
        <time>2026-05-09T17:43:43.854Z</time>
      </trkpt>
      <trkpt lat="47.89181" lon="6.93524">
        <ele>902</ele>
        <time>2026-05-09T17:43:44.853Z</time>
      </trkpt>
      <trkpt lat="47.8918" lon="6.93522">
        <ele>902</ele>
        <time>2026-05-09T17:43:45.854Z</time>
      </trkpt>
      <trkpt lat="47.8918" lon="6.93519">
        <ele>902</ele>
        <time>2026-05-09T17:43:46.854Z</time>
      </trkpt>
      <trkpt lat="47.8918" lon="6.93517">
        <ele>901</ele>
        <time>2026-05-09T17:43:47.853Z</time>
      </trkpt>
      <trkpt lat="47.89181" lon="6.93515">
        <ele>901</ele>
        <time>2026-05-09T17:43:48.853Z</time>
      </trkpt>
      <trkpt lat="47.89181" lon="6.93515">
        <ele>901</ele>
        <time>2026-05-09T17:43:49.853Z</time>
      </trkpt>
      <trkpt lat="47.89179" lon="6.93511">
        <ele>901</ele>
        <time>2026-05-09T17:43:50.853Z</time>
      </trkpt>
      <trkpt lat="47.8918" lon="6.93509">
        <ele>901</ele>
        <time>2026-05-09T17:43:51.854Z</time>
      </trkpt>
      <trkpt lat="47.89179" lon="6.93507">
        <ele>901</ele>
        <time>2026-05-09T17:43:52.853Z</time>
      </trkpt>
      <trkpt lat="47.89179" lon="6.93507">
        <ele>901</ele>
        <time>2026-05-09T17:43:53.853Z</time>
      </trkpt>
      <trkpt lat="47.89178" lon="6.93501">
        <ele>903</ele>
        <time>2026-05-09T17:43:54.853Z</time>
      </trkpt>
      <trkpt lat="47.89178" lon="6.93499">
        <ele>903</ele>
        <time>2026-05-09T17:43:55.853Z</time>
      </trkpt>
      <trkpt lat="47.89178" lon="6.93497">
        <ele>904</ele>
        <time>2026-05-09T17:43:56.853Z</time>
      </trkpt>
      <trkpt lat="47.89177" lon="6.93494">
        <ele>905</ele>
        <time>2026-05-09T17:43:57.853Z</time>
      </trkpt>
      <trkpt lat="47.89177" lon="6.93493">
        <ele>905</ele>
        <time>2026-05-09T17:43:58.854Z</time>
      </trkpt>
      <trkpt lat="47.89176" lon="6.93491">
        <ele>905</ele>
        <time>2026-05-09T17:43:59.853Z</time>
      </trkpt>
      <trkpt lat="47.89176" lon="6.93489">
        <ele>906</ele>
        <time>2026-05-09T17:44:00.854Z</time>
      </trkpt>
      <trkpt lat="47.89176" lon="6.93489">
        <ele>906</ele>
        <time>2026-05-09T17:44:01.853Z</time>
      </trkpt>
      <trkpt lat="47.89175" lon="6.93485">
        <ele>906</ele>
        <time>2026-05-09T17:44:02.854Z</time>
      </trkpt>
      <trkpt lat="47.89174" lon="6.93484">
        <ele>906</ele>
        <time>2026-05-09T17:44:03.853Z</time>
      </trkpt>
      <trkpt lat="47.89174" lon="6.93483">
        <ele>906</ele>
        <time>2026-05-09T17:44:04.853Z</time>
      </trkpt>
      <trkpt lat="47.89174" lon="6.93483">
        <ele>906</ele>
        <time>2026-05-09T17:44:05.853Z</time>
      </trkpt>
      <trkpt lat="47.89173" lon="6.9348">
        <ele>906</ele>
        <time>2026-05-09T17:44:06.853Z</time>
      </trkpt>
      <trkpt lat="47.89172" lon="6.93479">
        <ele>907</ele>
        <time>2026-05-09T17:44:07.854Z</time>
      </trkpt>
      <trkpt lat="47.89172" lon="6.93477">
        <ele>907</ele>
        <time>2026-05-09T17:44:08.854Z</time>
      </trkpt>
      <trkpt lat="47.89172" lon="6.93477">
        <ele>907</ele>
        <time>2026-05-09T17:44:09.853Z</time>
      </trkpt>
      <trkpt lat="47.8917" lon="6.93473">
        <ele>907</ele>
        <time>2026-05-09T17:44:10.853Z</time>
      </trkpt>
      <trkpt lat="47.8917" lon="6.93472">
        <ele>907</ele>
        <time>2026-05-09T17:44:11.853Z</time>
      </trkpt>
      <trkpt lat="47.89169" lon="6.9347">
        <ele>907</ele>
        <time>2026-05-09T17:44:12.853Z</time>
      </trkpt>
      <trkpt lat="47.89169" lon="6.9347">
        <ele>907</ele>
        <time>2026-05-09T17:44:13.853Z</time>
      </trkpt>
      <trkpt lat="47.89167" lon="6.93466">
        <ele>908</ele>
        <time>2026-05-09T17:44:14.853Z</time>
      </trkpt>
      <trkpt lat="47.89166" lon="6.93465">
        <ele>908</ele>
        <time>2026-05-09T17:44:15.853Z</time>
      </trkpt>
      <trkpt lat="47.89165" lon="6.93464">
        <ele>908</ele>
        <time>2026-05-09T17:44:16.853Z</time>
      </trkpt>
      <trkpt lat="47.89164" lon="6.93463">
        <ele>908</ele>
        <time>2026-05-09T17:44:17.853Z</time>
      </trkpt>
      <trkpt lat="47.89164" lon="6.93463">
        <ele>908</ele>
        <time>2026-05-09T17:44:18.853Z</time>
      </trkpt>
      <trkpt lat="47.89159" lon="6.93464">
        <ele>908</ele>
        <time>2026-05-09T17:44:19.854Z</time>
      </trkpt>
      <trkpt lat="47.89158" lon="6.93464">
        <ele>909</ele>
        <time>2026-05-09T17:44:20.854Z</time>
      </trkpt>
      <trkpt lat="47.89157" lon="6.93463">
        <ele>909</ele>
        <time>2026-05-09T17:44:21.853Z</time>
      </trkpt>
      <trkpt lat="47.89157" lon="6.93463">
        <ele>909</ele>
        <time>2026-05-09T17:44:22.853Z</time>
      </trkpt>
      <trkpt lat="47.89157" lon="6.9346">
        <ele>909</ele>
        <time>2026-05-09T17:44:23.853Z</time>
      </trkpt>
      <trkpt lat="47.89156" lon="6.93458">
        <ele>910</ele>
        <time>2026-05-09T17:44:24.853Z</time>
      </trkpt>
      <trkpt lat="47.89156" lon="6.93458">
        <ele>910</ele>
        <time>2026-05-09T17:44:25.853Z</time>
      </trkpt>
      <trkpt lat="47.89156" lon="6.93458">
        <ele>910</ele>
        <time>2026-05-09T17:44:26.854Z</time>
      </trkpt>
      <trkpt lat="47.89154" lon="6.93459">
        <ele>910</ele>
        <time>2026-05-09T17:44:27.853Z</time>
      </trkpt>
      <trkpt lat="47.89153" lon="6.93459">
        <ele>910</ele>
        <time>2026-05-09T17:44:28.853Z</time>
      </trkpt>
      <trkpt lat="47.89152" lon="6.93458">
        <ele>910</ele>
        <time>2026-05-09T17:44:29.853Z</time>
      </trkpt>
      <trkpt lat="47.89152" lon="6.93458">
        <ele>910</ele>
        <time>2026-05-09T17:44:30.853Z</time>
      </trkpt>
      <trkpt lat="47.89148" lon="6.93459">
        <ele>911</ele>
        <time>2026-05-09T17:44:31.854Z</time>
      </trkpt>
      <trkpt lat="47.89147" lon="6.93459">
        <ele>911</ele>
        <time>2026-05-09T17:44:32.854Z</time>
      </trkpt>
      <trkpt lat="47.89147" lon="6.93459">
        <ele>911</ele>
        <time>2026-05-09T17:44:33.853Z</time>
      </trkpt>
      <trkpt lat="47.89147" lon="6.93459">
        <ele>911</ele>
        <time>2026-05-09T17:44:34.853Z</time>
      </trkpt>
      <trkpt lat="47.89145" lon="6.93457">
        <ele>912</ele>
        <time>2026-05-09T17:44:35.853Z</time>
      </trkpt>
      <trkpt lat="47.89145" lon="6.93455">
        <ele>912</ele>
        <time>2026-05-09T17:44:36.854Z</time>
      </trkpt>
      <trkpt lat="47.89144" lon="6.93453">
        <ele>912</ele>
        <time>2026-05-09T17:44:37.853Z</time>
      </trkpt>
      <trkpt lat="47.89144" lon="6.93453">
        <ele>912</ele>
        <time>2026-05-09T17:44:38.853Z</time>
      </trkpt>
      <trkpt lat="47.89143" lon="6.93448">
        <ele>912</ele>
        <time>2026-05-09T17:44:39.854Z</time>
      </trkpt>
      <trkpt lat="47.89142" lon="6.93446">
        <ele>912</ele>
        <time>2026-05-09T17:44:40.853Z</time>
      </trkpt>
      <trkpt lat="47.89141" lon="6.93444">
        <ele>912</ele>
        <time>2026-05-09T17:44:41.853Z</time>
      </trkpt>
      <trkpt lat="47.89141" lon="6.93444">
        <ele>912</ele>
        <time>2026-05-09T17:44:42.853Z</time>
      </trkpt>
      <trkpt lat="47.8914" lon="6.93441">
        <ele>911</ele>
        <time>2026-05-09T17:44:43.853Z</time>
      </trkpt>
      <trkpt lat="47.89139" lon="6.9344">
        <ele>911</ele>
        <time>2026-05-09T17:44:44.853Z</time>
      </trkpt>
      <trkpt lat="47.89138" lon="6.93438">
        <ele>911</ele>
        <time>2026-05-09T17:44:45.853Z</time>
      </trkpt>
      <trkpt lat="47.89138" lon="6.93438">
        <ele>911</ele>
        <time>2026-05-09T17:44:46.853Z</time>
      </trkpt>
      <trkpt lat="47.89138" lon="6.93438">
        <ele>911</ele>
        <time>2026-05-09T17:44:47.853Z</time>
      </trkpt>
      <trkpt lat="47.89137" lon="6.93435">
        <ele>911</ele>
        <time>2026-05-09T17:44:48.854Z</time>
      </trkpt>
      <trkpt lat="47.89136" lon="6.93434">
        <ele>911</ele>
        <time>2026-05-09T17:44:49.854Z</time>
      </trkpt>
      <trkpt lat="47.89136" lon="6.93432">
        <ele>911</ele>
        <time>2026-05-09T17:44:50.853Z</time>
      </trkpt>
      <trkpt lat="47.89136" lon="6.93432">
        <ele>911</ele>
        <time>2026-05-09T17:44:51.853Z</time>
      </trkpt>
      <trkpt lat="47.89135" lon="6.9343">
        <ele>910</ele>
        <time>2026-05-09T17:44:52.853Z</time>
      </trkpt>
      <trkpt lat="47.89134" lon="6.9343">
        <ele>911</ele>
        <time>2026-05-09T17:44:53.853Z</time>
      </trkpt>
      <trkpt lat="47.89133" lon="6.93429">
        <ele>911</ele>
        <time>2026-05-09T17:44:54.853Z</time>
      </trkpt>
      <trkpt lat="47.89133" lon="6.93429">
        <ele>911</ele>
        <time>2026-05-09T17:44:55.853Z</time>
      </trkpt>
      <trkpt lat="47.89132" lon="6.93426">
        <ele>910</ele>
        <time>2026-05-09T17:44:56.853Z</time>
      </trkpt>
      <trkpt lat="47.89131" lon="6.93425">
        <ele>910</ele>
        <time>2026-05-09T17:44:57.853Z</time>
      </trkpt>
      <trkpt lat="47.8913" lon="6.93423">
        <ele>909</ele>
        <time>2026-05-09T17:44:58.853Z</time>
      </trkpt>
      <trkpt lat="47.8913" lon="6.93423">
        <ele>909</ele>
        <time>2026-05-09T17:44:59.854Z</time>
      </trkpt>
      <trkpt lat="47.89129" lon="6.93421">
        <ele>908</ele>
        <time>2026-05-09T17:45:00.853Z</time>
      </trkpt>
      <trkpt lat="47.89128" lon="6.93419">
        <ele>908</ele>
        <time>2026-05-09T17:45:01.854Z</time>
      </trkpt>
      <trkpt lat="47.89127" lon="6.93418">
        <ele>908</ele>
        <time>2026-05-09T17:45:02.853Z</time>
      </trkpt>
      <trkpt lat="47.89127" lon="6.93418">
        <ele>908</ele>
        <time>2026-05-09T17:45:03.853Z</time>
      </trkpt>
      <trkpt lat="47.89125" lon="6.93416">
        <ele>907</ele>
        <time>2026-05-09T17:45:04.853Z</time>
      </trkpt>
      <trkpt lat="47.89124" lon="6.93416">
        <ele>907</ele>
        <time>2026-05-09T17:45:05.853Z</time>
      </trkpt>
      <trkpt lat="47.89123" lon="6.93414">
        <ele>907</ele>
        <time>2026-05-09T17:45:06.853Z</time>
      </trkpt>
      <trkpt lat="47.89123" lon="6.93414">
        <ele>907</ele>
        <time>2026-05-09T17:45:07.853Z</time>
      </trkpt>
      <trkpt lat="47.89121" lon="6.93413">
        <ele>907</ele>
        <time>2026-05-09T17:45:08.853Z</time>
      </trkpt>
      <trkpt lat="47.8912" lon="6.93412">
        <ele>907</ele>
        <time>2026-05-09T17:45:09.854Z</time>
      </trkpt>
      <trkpt lat="47.89119" lon="6.93411">
        <ele>907</ele>
        <time>2026-05-09T17:45:10.853Z</time>
      </trkpt>
      <trkpt lat="47.89119" lon="6.93411">
        <ele>907</ele>
        <time>2026-05-09T17:45:11.853Z</time>
      </trkpt>
      <trkpt lat="47.89117" lon="6.93409">
        <ele>907</ele>
        <time>2026-05-09T17:45:12.853Z</time>
      </trkpt>
      <trkpt lat="47.89116" lon="6.93407">
        <ele>907</ele>
        <time>2026-05-09T17:45:13.853Z</time>
      </trkpt>
      <trkpt lat="47.89115" lon="6.93406">
        <ele>907</ele>
        <time>2026-05-09T17:45:14.853Z</time>
      </trkpt>
      <trkpt lat="47.89115" lon="6.93406">
        <ele>907</ele>
        <time>2026-05-09T17:45:15.853Z</time>
      </trkpt>
      <trkpt lat="47.89113" lon="6.93405">
        <ele>906</ele>
        <time>2026-05-09T17:45:16.853Z</time>
      </trkpt>
      <trkpt lat="47.89112" lon="6.93403">
        <ele>906</ele>
        <time>2026-05-09T17:45:17.853Z</time>
      </trkpt>
      <trkpt lat="47.89111" lon="6.93402">
        <ele>906</ele>
        <time>2026-05-09T17:45:18.853Z</time>
      </trkpt>
      <trkpt lat="47.8911" lon="6.934">
        <ele>905</ele>
        <time>2026-05-09T17:45:19.853Z</time>
      </trkpt>
      <trkpt lat="47.8911" lon="6.934">
        <ele>905</ele>
        <time>2026-05-09T17:45:20.853Z</time>
      </trkpt>
      <trkpt lat="47.89109" lon="6.93398">
        <ele>905</ele>
        <time>2026-05-09T17:45:21.853Z</time>
      </trkpt>
      <trkpt lat="47.89109" lon="6.93396">
        <ele>904</ele>
        <time>2026-05-09T17:45:22.854Z</time>
      </trkpt>
      <trkpt lat="47.89108" lon="6.93395">
        <ele>903</ele>
        <time>2026-05-09T17:45:23.853Z</time>
      </trkpt>
      <trkpt lat="47.89108" lon="6.93395">
        <ele>903</ele>
        <time>2026-05-09T17:45:24.853Z</time>
      </trkpt>
      <trkpt lat="47.89107" lon="6.93391">
        <ele>902</ele>
        <time>2026-05-09T17:45:25.853Z</time>
      </trkpt>
      <trkpt lat="47.89106" lon="6.93389">
        <ele>901</ele>
        <time>2026-05-09T17:45:26.854Z</time>
      </trkpt>
      <trkpt lat="47.89105" lon="6.93386">
        <ele>901</ele>
        <time>2026-05-09T17:45:27.854Z</time>
      </trkpt>
      <trkpt lat="47.89105" lon="6.93386">
        <ele>901</ele>
        <time>2026-05-09T17:45:28.854Z</time>
      </trkpt>
      <trkpt lat="47.89102" lon="6.9338">
        <ele>901</ele>
        <time>2026-05-09T17:45:29.854Z</time>
      </trkpt>
      <trkpt lat="47.891" lon="6.93378">
        <ele>902</ele>
        <time>2026-05-09T17:45:30.853Z</time>
      </trkpt>
      <trkpt lat="47.891" lon="6.93376">
        <ele>902</ele>
        <time>2026-05-09T17:45:31.853Z</time>
      </trkpt>
      <trkpt lat="47.891" lon="6.93376">
        <ele>902</ele>
        <time>2026-05-09T17:45:32.853Z</time>
      </trkpt>
      <trkpt lat="47.89099" lon="6.93373">
        <ele>902</ele>
        <time>2026-05-09T17:45:33.853Z</time>
      </trkpt>
      <trkpt lat="47.89099" lon="6.93372">
        <ele>902</ele>
        <time>2026-05-09T17:45:34.854Z</time>
      </trkpt>
      <trkpt lat="47.89098" lon="6.9337">
        <ele>902</ele>
        <time>2026-05-09T17:45:35.853Z</time>
      </trkpt>
      <trkpt lat="47.89098" lon="6.9337">
        <ele>902</ele>
        <time>2026-05-09T17:45:36.853Z</time>
      </trkpt>
      <trkpt lat="47.89098" lon="6.93367">
        <ele>902</ele>
        <time>2026-05-09T17:45:37.853Z</time>
      </trkpt>
      <trkpt lat="47.89098" lon="6.93366">
        <ele>903</ele>
        <time>2026-05-09T17:45:38.853Z</time>
      </trkpt>
      <trkpt lat="47.89097" lon="6.93365">
        <ele>903</ele>
        <time>2026-05-09T17:45:39.854Z</time>
      </trkpt>
      <trkpt lat="47.89097" lon="6.93364">
        <ele>903</ele>
        <time>2026-05-09T17:45:40.853Z</time>
      </trkpt>
      <trkpt lat="47.89096" lon="6.93362">
        <ele>902</ele>
        <time>2026-05-09T17:45:41.853Z</time>
      </trkpt>
      <trkpt lat="47.89096" lon="6.93362">
        <ele>902</ele>
        <time>2026-05-09T17:45:42.853Z</time>
      </trkpt>
      <trkpt lat="47.89096" lon="6.93361">
        <ele>902</ele>
        <time>2026-05-09T17:45:43.853Z</time>
      </trkpt>
      <trkpt lat="47.89096" lon="6.93361">
        <ele>902</ele>
        <time>2026-05-09T17:45:44.854Z</time>
      </trkpt>
      <trkpt lat="47.89096" lon="6.93361">
        <ele>902</ele>
        <time>2026-05-09T17:45:45.853Z</time>
      </trkpt>
      <trkpt lat="47.89096" lon="6.93361">
        <ele>906</ele>
        <time>2026-05-09T17:46:18.954Z</time>
      </trkpt>
      <trkpt lat="47.89096" lon="6.93361">
        <ele>905</ele>
        <time>2026-05-09T17:46:19.954Z</time>
      </trkpt>
      <trkpt lat="47.89096" lon="6.93361">
        <ele>905</ele>
        <time>2026-05-09T17:46:20.955Z</time>
      </trkpt>
      <trkpt lat="47.89096" lon="6.93361">
        <ele>905</ele>
        <time>2026-05-09T17:46:21.955Z</time>
      </trkpt>
      <trkpt lat="47.89096" lon="6.93361">
        <ele>905</ele>
        <time>2026-05-09T17:46:22.954Z</time>
      </trkpt>
      <trkpt lat="47.89096" lon="6.93361">
        <ele>904</ele>
        <time>2026-05-09T17:46:23.955Z</time>
      </trkpt>
      <trkpt lat="47.89096" lon="6.93361">
        <ele>904</ele>
        <time>2026-05-09T17:46:24.955Z</time>
      </trkpt>
      <trkpt lat="47.89096" lon="6.93361">
        <ele>904</ele>
        <time>2026-05-09T17:46:25.955Z</time>
      </trkpt>
      <trkpt lat="47.89096" lon="6.93361">
        <ele>904</ele>
        <time>2026-05-09T17:46:26.954Z</time>
      </trkpt>
      <trkpt lat="47.89096" lon="6.93361">
        <ele>904</ele>
        <time>2026-05-09T17:46:27.955Z</time>
      </trkpt>
      <trkpt lat="47.89096" lon="6.93361">
        <ele>904</ele>
        <time>2026-05-09T17:46:28.954Z</time>
      </trkpt>
      <trkpt lat="47.89096" lon="6.93361">
        <ele>904</ele>
        <time>2026-05-09T17:46:29.955Z</time>
      </trkpt>
      <trkpt lat="47.89096" lon="6.93361">
        <ele>903</ele>
        <time>2026-05-09T17:46:30.955Z</time>
      </trkpt>
      <trkpt lat="47.89096" lon="6.93361">
        <ele>903</ele>
        <time>2026-05-09T17:46:31.955Z</time>
      </trkpt>
      <trkpt lat="47.89096" lon="6.93361">
        <ele>903</ele>
        <time>2026-05-09T17:46:32.954Z</time>
      </trkpt>
      <trkpt lat="47.89096" lon="6.93361">
        <ele>903</ele>
        <time>2026-05-09T17:46:33.954Z</time>
      </trkpt>
      <trkpt lat="47.89096" lon="6.93361">
        <ele>903</ele>
        <time>2026-05-09T17:46:34.954Z</time>
      </trkpt>
      <trkpt lat="47.89096" lon="6.93361">
        <ele>903</ele>
        <time>2026-05-09T17:46:35.954Z</time>
      </trkpt>
      <trkpt lat="47.89096" lon="6.93361">
        <ele>903</ele>
        <time>2026-05-09T17:46:36.955Z</time>
      </trkpt>
      <trkpt lat="47.89095" lon="6.93361">
        <ele>904</ele>
        <time>2026-05-09T17:46:37.954Z</time>
      </trkpt>
      <trkpt lat="47.89095" lon="6.93361">
        <ele>904</ele>
        <time>2026-05-09T17:46:38.954Z</time>
      </trkpt>
      <trkpt lat="47.89095" lon="6.93361">
        <ele>904</ele>
        <time>2026-05-09T17:46:39.955Z</time>
      </trkpt>
      <trkpt lat="47.89095" lon="6.93361">
        <ele>904</ele>
        <time>2026-05-09T17:46:40.954Z</time>
      </trkpt>
      <trkpt lat="47.89095" lon="6.93361">
        <ele>904</ele>
        <time>2026-05-09T17:46:41.955Z</time>
      </trkpt>
      <trkpt lat="47.89095" lon="6.93361">
        <ele>904</ele>
        <time>2026-05-09T17:46:42.954Z</time>
      </trkpt>
      <trkpt lat="47.89095" lon="6.93361">
        <ele>905</ele>
        <time>2026-05-09T17:46:43.954Z</time>
      </trkpt>
      <trkpt lat="47.89096" lon="6.93361">
        <ele>905</ele>
        <time>2026-05-09T17:46:44.955Z</time>
      </trkpt>
      <trkpt lat="47.89096" lon="6.93361">
        <ele>905</ele>
        <time>2026-05-09T17:46:45.954Z</time>
      </trkpt>
      <trkpt lat="47.89096" lon="6.93361">
        <ele>906</ele>
        <time>2026-05-09T17:46:46.954Z</time>
      </trkpt>
      <trkpt lat="47.89096" lon="6.93362">
        <ele>906</ele>
        <time>2026-05-09T17:46:47.954Z</time>
      </trkpt>
      <trkpt lat="47.89096" lon="6.93362">
        <ele>906</ele>
        <time>2026-05-09T17:46:48.954Z</time>
      </trkpt>
      <trkpt lat="47.89096" lon="6.93362">
        <ele>905</ele>
        <time>2026-05-09T17:46:49.955Z</time>
      </trkpt>
      <trkpt lat="47.89096" lon="6.93362">
        <ele>905</ele>
        <time>2026-05-09T17:46:50.954Z</time>
      </trkpt>
      <trkpt lat="47.89096" lon="6.93362">
        <ele>906</ele>
        <time>2026-05-09T17:46:51.954Z</time>
      </trkpt>
      <trkpt lat="47.89096" lon="6.93362">
        <ele>906</ele>
        <time>2026-05-09T17:46:52.955Z</time>
      </trkpt>
      <trkpt lat="47.89097" lon="6.93362">
        <ele>906</ele>
        <time>2026-05-09T17:47:03.188Z</time>
      </trkpt>
      <trkpt lat="47.89097" lon="6.93362">
        <ele>906</ele>
        <time>2026-05-09T17:47:04.189Z</time>
      </trkpt>
      <trkpt lat="47.89097" lon="6.93362">
        <ele>906</ele>
        <time>2026-05-09T17:47:05.188Z</time>
      </trkpt>
      <trkpt lat="47.89097" lon="6.93362">
        <ele>907</ele>
        <time>2026-05-09T17:47:06.188Z</time>
      </trkpt>
      <trkpt lat="47.89097" lon="6.93362">
        <ele>907</ele>
        <time>2026-05-09T17:47:07.188Z</time>
      </trkpt>
      <trkpt lat="47.89097" lon="6.93362">
        <ele>907</ele>
        <time>2026-05-09T17:47:08.189Z</time>
      </trkpt>
      <trkpt lat="47.89097" lon="6.93362">
        <ele>907</ele>
        <time>2026-05-09T17:47:09.189Z</time>
      </trkpt>
      <trkpt lat="47.89097" lon="6.93362">
        <ele>907</ele>
        <time>2026-05-09T17:47:10.189Z</time>
      </trkpt>
      <trkpt lat="47.89097" lon="6.93362">
        <ele>906</ele>
        <time>2026-05-09T17:47:11.189Z</time>
      </trkpt>
      <trkpt lat="47.89097" lon="6.93362">
        <ele>905</ele>
        <time>2026-05-09T17:47:12.189Z</time>
      </trkpt>
      <trkpt lat="47.89097" lon="6.93362">
        <ele>904</ele>
        <time>2026-05-09T17:47:13.189Z</time>
      </trkpt>
      <trkpt lat="47.89097" lon="6.93362">
        <ele>902</ele>
        <time>2026-05-09T17:47:14.188Z</time>
      </trkpt>
      <trkpt lat="47.89097" lon="6.93362">
        <ele>900</ele>
        <time>2026-05-09T17:47:15.189Z</time>
      </trkpt>
      <trkpt lat="47.89097" lon="6.93362">
        <ele>898</ele>
        <time>2026-05-09T17:47:16.189Z</time>
      </trkpt>
      <trkpt lat="47.89097" lon="6.93362">
        <ele>896</ele>
        <time>2026-05-09T17:47:17.188Z</time>
      </trkpt>
      <trkpt lat="47.89097" lon="6.93362">
        <ele>894</ele>
        <time>2026-05-09T17:47:18.189Z</time>
      </trkpt>
      <trkpt lat="47.89097" lon="6.93363">
        <ele>893</ele>
        <time>2026-05-09T17:47:19.189Z</time>
      </trkpt>
      <trkpt lat="47.89097" lon="6.93363">
        <ele>892</ele>
        <time>2026-05-09T17:47:20.189Z</time>
      </trkpt>
      <trkpt lat="47.89097" lon="6.93363">
        <ele>890</ele>
        <time>2026-05-09T17:47:21.188Z</time>
      </trkpt>
      <trkpt lat="47.89097" lon="6.93363">
        <ele>890</ele>
        <time>2026-05-09T17:47:22.188Z</time>
      </trkpt>
      <trkpt lat="47.89097" lon="6.93362">
        <ele>889</ele>
        <time>2026-05-09T17:47:23.188Z</time>
      </trkpt>
      <trkpt lat="47.89097" lon="6.93362">
        <ele>889</ele>
        <time>2026-05-09T17:47:24.189Z</time>
      </trkpt>
      <trkpt lat="47.89097" lon="6.93362">
        <ele>889</ele>
        <time>2026-05-09T17:47:25.188Z</time>
      </trkpt>
      <trkpt lat="47.89097" lon="6.93362">
        <ele>889</ele>
        <time>2026-05-09T17:47:26.189Z</time>
      </trkpt>
      <trkpt lat="47.89097" lon="6.93362">
        <ele>889</ele>
        <time>2026-05-09T17:47:27.189Z</time>
      </trkpt>
      <trkpt lat="47.89097" lon="6.93362">
        <ele>889</ele>
        <time>2026-05-09T17:47:28.189Z</time>
      </trkpt>
      <trkpt lat="47.89097" lon="6.93362">
        <ele>889</ele>
        <time>2026-05-09T17:47:29.189Z</time>
      </trkpt>
      <trkpt lat="47.89097" lon="6.93362">
        <ele>888</ele>
        <time>2026-05-09T17:47:30.189Z</time>
      </trkpt>
      <trkpt lat="47.89097" lon="6.93362">
        <ele>888</ele>
        <time>2026-05-09T17:47:31.189Z</time>
      </trkpt>
      <trkpt lat="47.89097" lon="6.93363">
        <ele>888</ele>
        <time>2026-05-09T17:47:32.189Z</time>
      </trkpt>
      <trkpt lat="47.89097" lon="6.93363">
        <ele>888</ele>
        <time>2026-05-09T17:47:33.189Z</time>
      </trkpt>
      <trkpt lat="47.89098" lon="6.93363">
        <ele>887</ele>
        <time>2026-05-09T17:47:34.188Z</time>
      </trkpt>
      <trkpt lat="47.89098" lon="6.93363">
        <ele>887</ele>
        <time>2026-05-09T17:47:35.189Z</time>
      </trkpt>
      <trkpt lat="47.89097" lon="6.93362">
        <ele>877</ele>
        <time>2026-05-09T17:48:04.371Z</time>
      </trkpt>
      <trkpt lat="47.89097" lon="6.93362">
        <ele>877</ele>
        <time>2026-05-09T17:48:05.370Z</time>
      </trkpt>
      <trkpt lat="47.89097" lon="6.93362">
        <ele>877</ele>
        <time>2026-05-09T17:48:06.370Z</time>
      </trkpt>
      <trkpt lat="47.89097" lon="6.93362">
        <ele>877</ele>
        <time>2026-05-09T17:48:07.370Z</time>
      </trkpt>
      <trkpt lat="47.89096" lon="6.93362">
        <ele>877</ele>
        <time>2026-05-09T17:48:08.370Z</time>
      </trkpt>
      <trkpt lat="47.89096" lon="6.93361">
        <ele>891</ele>
        <time>2026-05-09T17:48:39.685Z</time>
      </trkpt>
      <trkpt lat="47.89096" lon="6.93361">
        <ele>890</ele>
        <time>2026-05-09T17:48:40.685Z</time>
      </trkpt>
      <trkpt lat="47.89096" lon="6.93361">
        <ele>890</ele>
        <time>2026-05-09T17:48:41.685Z</time>
      </trkpt>
      <trkpt lat="47.89096" lon="6.93361">
        <ele>890</ele>
        <time>2026-05-09T17:48:42.685Z</time>
      </trkpt>
      <trkpt lat="47.89096" lon="6.93361">
        <ele>889</ele>
        <time>2026-05-09T17:48:43.685Z</time>
      </trkpt>
      <trkpt lat="47.89096" lon="6.93361">
        <ele>888</ele>
        <time>2026-05-09T17:48:44.685Z</time>
      </trkpt>
      <trkpt lat="47.89096" lon="6.93361">
        <ele>888</ele>
        <time>2026-05-09T17:48:45.685Z</time>
      </trkpt>
      <trkpt lat="47.89096" lon="6.93361">
        <ele>887</ele>
        <time>2026-05-09T17:48:46.685Z</time>
      </trkpt>
      <trkpt lat="47.89096" lon="6.93361">
        <ele>886</ele>
        <time>2026-05-09T17:48:47.685Z</time>
      </trkpt>
      <trkpt lat="47.89096" lon="6.93361">
        <ele>886</ele>
        <time>2026-05-09T17:48:48.685Z</time>
      </trkpt>
      <trkpt lat="47.89095" lon="6.93361">
        <ele>885</ele>
        <time>2026-05-09T17:48:49.685Z</time>
      </trkpt>
      <trkpt lat="47.89095" lon="6.93361">
        <ele>884</ele>
        <time>2026-05-09T17:48:50.685Z</time>
      </trkpt>
      <trkpt lat="47.89095" lon="6.93361">
        <ele>883</ele>
        <time>2026-05-09T17:48:51.685Z</time>
      </trkpt>
      <trkpt lat="47.89095" lon="6.93361">
        <ele>883</ele>
        <time>2026-05-09T17:48:52.685Z</time>
      </trkpt>
      <trkpt lat="47.89095" lon="6.93361">
        <ele>882</ele>
        <time>2026-05-09T17:48:53.685Z</time>
      </trkpt>
      <trkpt lat="47.89095" lon="6.93361">
        <ele>881</ele>
        <time>2026-05-09T17:48:54.685Z</time>
      </trkpt>
      <trkpt lat="47.89095" lon="6.93361">
        <ele>880</ele>
        <time>2026-05-09T17:48:55.685Z</time>
      </trkpt>
      <trkpt lat="47.89096" lon="6.93361">
        <ele>880</ele>
        <time>2026-05-09T17:48:56.685Z</time>
      </trkpt>
      <trkpt lat="47.89096" lon="6.93361">
        <ele>879</ele>
        <time>2026-05-09T17:48:57.685Z</time>
      </trkpt>
      <trkpt lat="47.89096" lon="6.93361">
        <ele>879</ele>
        <time>2026-05-09T17:48:58.685Z</time>
      </trkpt>
      <trkpt lat="47.89096" lon="6.93361">
        <ele>878</ele>
        <time>2026-05-09T17:48:59.685Z</time>
      </trkpt>
      <trkpt lat="47.89096" lon="6.93361">
        <ele>877</ele>
        <time>2026-05-09T17:49:00.685Z</time>
      </trkpt>
      <trkpt lat="47.89096" lon="6.93361">
        <ele>877</ele>
        <time>2026-05-09T17:49:01.685Z</time>
      </trkpt>
      <trkpt lat="47.89096" lon="6.93361">
        <ele>876</ele>
        <time>2026-05-09T17:49:02.685Z</time>
      </trkpt>
      <trkpt lat="47.89096" lon="6.93361">
        <ele>876</ele>
        <time>2026-05-09T17:49:03.685Z</time>
      </trkpt>
      <trkpt lat="47.89096" lon="6.93361">
        <ele>876</ele>
        <time>2026-05-09T17:49:04.685Z</time>
      </trkpt>
      <trkpt lat="47.89096" lon="6.93361">
        <ele>875</ele>
        <time>2026-05-09T17:49:05.685Z</time>
      </trkpt>
      <trkpt lat="47.89096" lon="6.93361">
        <ele>875</ele>
        <time>2026-05-09T17:49:06.685Z</time>
      </trkpt>
      <trkpt lat="47.89096" lon="6.93361">
        <ele>875</ele>
        <time>2026-05-09T17:49:07.685Z</time>
      </trkpt>
      <trkpt lat="47.89095" lon="6.93361">
        <ele>876</ele>
        <time>2026-05-09T17:49:08.685Z</time>
      </trkpt>
      <trkpt lat="47.89096" lon="6.93358">
        <ele>882</ele>
        <time>2026-05-09T17:49:21.975Z</time>
      </trkpt>
      <trkpt lat="47.89097" lon="6.93351">
        <ele>889</ele>
        <time>2026-05-09T17:49:28.359Z</time>
      </trkpt>
      <trkpt lat="47.89097" lon="6.93351">
        <ele>891</ele>
        <time>2026-05-09T17:49:29.358Z</time>
      </trkpt>
      <trkpt lat="47.89097" lon="6.9335">
        <ele>892</ele>
        <time>2026-05-09T17:49:30.359Z</time>
      </trkpt>
      <trkpt lat="47.89097" lon="6.93349">
        <ele>893</ele>
        <time>2026-05-09T17:49:31.359Z</time>
      </trkpt>
      <trkpt lat="47.89097" lon="6.93348">
        <ele>894</ele>
        <time>2026-05-09T17:49:32.358Z</time>
      </trkpt>
      <trkpt lat="47.89098" lon="6.93346">
        <ele>895</ele>
        <time>2026-05-09T17:49:33.358Z</time>
      </trkpt>
      <trkpt lat="47.89098" lon="6.93344">
        <ele>896</ele>
        <time>2026-05-09T17:49:34.359Z</time>
      </trkpt>
      <trkpt lat="47.89098" lon="6.93343">
        <ele>897</ele>
        <time>2026-05-09T17:49:35.358Z</time>
      </trkpt>
      <trkpt lat="47.89097" lon="6.93341">
        <ele>897</ele>
        <time>2026-05-09T17:49:36.358Z</time>
      </trkpt>
      <trkpt lat="47.89097" lon="6.93339">
        <ele>898</ele>
        <time>2026-05-09T17:49:37.359Z</time>
      </trkpt>
      <trkpt lat="47.89098" lon="6.93338">
        <ele>898</ele>
        <time>2026-05-09T17:49:38.359Z</time>
      </trkpt>
      <trkpt lat="47.89098" lon="6.93337">
        <ele>899</ele>
        <time>2026-05-09T17:49:39.358Z</time>
      </trkpt>
      <trkpt lat="47.89098" lon="6.93335">
        <ele>899</ele>
        <time>2026-05-09T17:49:40.359Z</time>
      </trkpt>
      <trkpt lat="47.89098" lon="6.93332">
        <ele>899</ele>
        <time>2026-05-09T17:49:41.359Z</time>
      </trkpt>
      <trkpt lat="47.89098" lon="6.93331">
        <ele>899</ele>
        <time>2026-05-09T17:49:42.359Z</time>
      </trkpt>
      <trkpt lat="47.89098" lon="6.93329">
        <ele>900</ele>
        <time>2026-05-09T17:49:43.358Z</time>
      </trkpt>
      <trkpt lat="47.89098" lon="6.93328">
        <ele>900</ele>
        <time>2026-05-09T17:49:44.358Z</time>
      </trkpt>
      <trkpt lat="47.89098" lon="6.93326">
        <ele>901</ele>
        <time>2026-05-09T17:49:45.359Z</time>
      </trkpt>
      <trkpt lat="47.89098" lon="6.93324">
        <ele>901</ele>
        <time>2026-05-09T17:49:46.359Z</time>
      </trkpt>
      <trkpt lat="47.89097" lon="6.93322">
        <ele>901</ele>
        <time>2026-05-09T17:49:47.358Z</time>
      </trkpt>
      <trkpt lat="47.89097" lon="6.9332">
        <ele>901</ele>
        <time>2026-05-09T17:49:48.359Z</time>
      </trkpt>
      <trkpt lat="47.89097" lon="6.93319">
        <ele>901</ele>
        <time>2026-05-09T17:49:49.358Z</time>
      </trkpt>
      <trkpt lat="47.89097" lon="6.93317">
        <ele>901</ele>
        <time>2026-05-09T17:49:50.359Z</time>
      </trkpt>
      <trkpt lat="47.89097" lon="6.93315">
        <ele>901</ele>
        <time>2026-05-09T17:49:51.359Z</time>
      </trkpt>
      <trkpt lat="47.89096" lon="6.93313">
        <ele>901</ele>
        <time>2026-05-09T17:49:52.359Z</time>
      </trkpt>
      <trkpt lat="47.89096" lon="6.93311">
        <ele>901</ele>
        <time>2026-05-09T17:49:53.358Z</time>
      </trkpt>
      <trkpt lat="47.89096" lon="6.93309">
        <ele>900</ele>
        <time>2026-05-09T17:49:54.359Z</time>
      </trkpt>
      <trkpt lat="47.89096" lon="6.93308">
        <ele>900</ele>
        <time>2026-05-09T17:49:55.358Z</time>
      </trkpt>
      <trkpt lat="47.89097" lon="6.93306">
        <ele>900</ele>
        <time>2026-05-09T17:49:56.359Z</time>
      </trkpt>
      <trkpt lat="47.89097" lon="6.93304">
        <ele>900</ele>
        <time>2026-05-09T17:49:57.359Z</time>
      </trkpt>
      <trkpt lat="47.89098" lon="6.93302">
        <ele>900</ele>
        <time>2026-05-09T17:49:58.359Z</time>
      </trkpt>
      <trkpt lat="47.89098" lon="6.933">
        <ele>900</ele>
        <time>2026-05-09T17:49:59.359Z</time>
      </trkpt>
      <trkpt lat="47.89099" lon="6.93299">
        <ele>900</ele>
        <time>2026-05-09T17:50:00.359Z</time>
      </trkpt>
      <trkpt lat="47.89099" lon="6.93297">
        <ele>899</ele>
        <time>2026-05-09T17:50:01.358Z</time>
      </trkpt>
      <trkpt lat="47.89099" lon="6.93295">
        <ele>899</ele>
        <time>2026-05-09T17:50:02.359Z</time>
      </trkpt>
      <trkpt lat="47.891" lon="6.93293">
        <ele>899</ele>
        <time>2026-05-09T17:50:03.359Z</time>
      </trkpt>
      <trkpt lat="47.891" lon="6.93291">
        <ele>899</ele>
        <time>2026-05-09T17:50:04.358Z</time>
      </trkpt>
      <trkpt lat="47.89101" lon="6.93289">
        <ele>900</ele>
        <time>2026-05-09T17:50:05.358Z</time>
      </trkpt>
      <trkpt lat="47.89102" lon="6.93288">
        <ele>900</ele>
        <time>2026-05-09T17:50:06.359Z</time>
      </trkpt>
      <trkpt lat="47.89103" lon="6.93286">
        <ele>900</ele>
        <time>2026-05-09T17:50:07.359Z</time>
      </trkpt>
      <trkpt lat="47.89104" lon="6.93284">
        <ele>900</ele>
        <time>2026-05-09T17:50:08.359Z</time>
      </trkpt>
      <trkpt lat="47.89106" lon="6.93283">
        <ele>900</ele>
        <time>2026-05-09T17:50:09.359Z</time>
      </trkpt>
      <trkpt lat="47.89107" lon="6.93281">
        <ele>900</ele>
        <time>2026-05-09T17:50:10.359Z</time>
      </trkpt>
      <trkpt lat="47.89108" lon="6.93278">
        <ele>900</ele>
        <time>2026-05-09T17:50:11.358Z</time>
      </trkpt>
      <trkpt lat="47.89109" lon="6.93276">
        <ele>900</ele>
        <time>2026-05-09T17:50:12.358Z</time>
      </trkpt>
      <trkpt lat="47.8911" lon="6.93274">
        <ele>901</ele>
        <time>2026-05-09T17:50:13.359Z</time>
      </trkpt>
      <trkpt lat="47.8911" lon="6.93273">
        <ele>901</ele>
        <time>2026-05-09T17:50:14.359Z</time>
      </trkpt>
      <trkpt lat="47.8911" lon="6.93271">
        <ele>901</ele>
        <time>2026-05-09T17:50:15.358Z</time>
      </trkpt>
      <trkpt lat="47.89111" lon="6.9327">
        <ele>902</ele>
        <time>2026-05-09T17:50:16.358Z</time>
      </trkpt>
      <trkpt lat="47.89111" lon="6.93268">
        <ele>902</ele>
        <time>2026-05-09T17:50:17.359Z</time>
      </trkpt>
      <trkpt lat="47.89112" lon="6.93267">
        <ele>903</ele>
        <time>2026-05-09T17:50:18.359Z</time>
      </trkpt>
      <trkpt lat="47.89112" lon="6.93265">
        <ele>903</ele>
        <time>2026-05-09T17:50:19.359Z</time>
      </trkpt>
      <trkpt lat="47.89113" lon="6.93264">
        <ele>904</ele>
        <time>2026-05-09T17:50:20.358Z</time>
      </trkpt>
      <trkpt lat="47.89113" lon="6.93262">
        <ele>904</ele>
        <time>2026-05-09T17:50:21.359Z</time>
      </trkpt>
      <trkpt lat="47.89114" lon="6.93261">
        <ele>904</ele>
        <time>2026-05-09T17:50:22.358Z</time>
      </trkpt>
      <trkpt lat="47.89115" lon="6.9326">
        <ele>904</ele>
        <time>2026-05-09T17:50:23.359Z</time>
      </trkpt>
      <trkpt lat="47.89116" lon="6.93258">
        <ele>904</ele>
        <time>2026-05-09T17:50:24.358Z</time>
      </trkpt>
      <trkpt lat="47.89116" lon="6.93256">
        <ele>904</ele>
        <time>2026-05-09T17:50:25.358Z</time>
      </trkpt>
      <trkpt lat="47.89117" lon="6.93255">
        <ele>904</ele>
        <time>2026-05-09T17:50:26.358Z</time>
      </trkpt>
      <trkpt lat="47.89118" lon="6.93254">
        <ele>905</ele>
        <time>2026-05-09T17:50:27.359Z</time>
      </trkpt>
      <trkpt lat="47.89119" lon="6.93253">
        <ele>905</ele>
        <time>2026-05-09T17:50:28.358Z</time>
      </trkpt>
      <trkpt lat="47.89119" lon="6.93252">
        <ele>904</ele>
        <time>2026-05-09T17:50:29.359Z</time>
      </trkpt>
      <trkpt lat="47.8912" lon="6.93251">
        <ele>904</ele>
        <time>2026-05-09T17:50:30.358Z</time>
      </trkpt>
      <trkpt lat="47.89121" lon="6.9325">
        <ele>904</ele>
        <time>2026-05-09T17:50:31.358Z</time>
      </trkpt>
      <trkpt lat="47.89122" lon="6.93249">
        <ele>904</ele>
        <time>2026-05-09T17:50:32.359Z</time>
      </trkpt>
      <trkpt lat="47.89122" lon="6.93247">
        <ele>904</ele>
        <time>2026-05-09T17:50:33.359Z</time>
      </trkpt>
      <trkpt lat="47.89123" lon="6.93246">
        <ele>904</ele>
        <time>2026-05-09T17:50:34.359Z</time>
      </trkpt>
      <trkpt lat="47.89124" lon="6.93244">
        <ele>904</ele>
        <time>2026-05-09T17:50:35.358Z</time>
      </trkpt>
      <trkpt lat="47.89124" lon="6.93242">
        <ele>905</ele>
        <time>2026-05-09T17:50:36.359Z</time>
      </trkpt>
      <trkpt lat="47.89124" lon="6.9324">
        <ele>905</ele>
        <time>2026-05-09T17:50:37.358Z</time>
      </trkpt>
      <trkpt lat="47.89125" lon="6.93238">
        <ele>904</ele>
        <time>2026-05-09T17:50:38.359Z</time>
      </trkpt>
      <trkpt lat="47.89125" lon="6.93236">
        <ele>905</ele>
        <time>2026-05-09T17:50:39.359Z</time>
      </trkpt>
      <trkpt lat="47.89126" lon="6.93235">
        <ele>905</ele>
        <time>2026-05-09T17:50:40.358Z</time>
      </trkpt>
      <trkpt lat="47.89126" lon="6.93233">
        <ele>905</ele>
        <time>2026-05-09T17:50:41.359Z</time>
      </trkpt>
      <trkpt lat="47.89127" lon="6.93232">
        <ele>905</ele>
        <time>2026-05-09T17:50:42.358Z</time>
      </trkpt>
      <trkpt lat="47.89128" lon="6.9323">
        <ele>905</ele>
        <time>2026-05-09T17:50:43.359Z</time>
      </trkpt>
      <trkpt lat="47.89129" lon="6.93228">
        <ele>905</ele>
        <time>2026-05-09T17:50:44.358Z</time>
      </trkpt>
      <trkpt lat="47.8913" lon="6.93227">
        <ele>906</ele>
        <time>2026-05-09T17:50:45.358Z</time>
      </trkpt>
      <trkpt lat="47.8913" lon="6.93226">
        <ele>906</ele>
        <time>2026-05-09T17:50:46.359Z</time>
      </trkpt>
      <trkpt lat="47.89131" lon="6.93226">
        <ele>907</ele>
        <time>2026-05-09T17:50:47.359Z</time>
      </trkpt>
      <trkpt lat="47.89132" lon="6.93224">
        <ele>907</ele>
        <time>2026-05-09T17:50:48.359Z</time>
      </trkpt>
      <trkpt lat="47.89133" lon="6.93223">
        <ele>907</ele>
        <time>2026-05-09T17:50:49.358Z</time>
      </trkpt>
      <trkpt lat="47.89133" lon="6.93222">
        <ele>907</ele>
        <time>2026-05-09T17:50:50.359Z</time>
      </trkpt>
      <trkpt lat="47.89134" lon="6.93221">
        <ele>907</ele>
        <time>2026-05-09T17:50:51.358Z</time>
      </trkpt>
      <trkpt lat="47.89135" lon="6.9322">
        <ele>907</ele>
        <time>2026-05-09T17:50:52.359Z</time>
      </trkpt>
      <trkpt lat="47.89136" lon="6.93219">
        <ele>908</ele>
        <time>2026-05-09T17:50:53.358Z</time>
      </trkpt>
      <trkpt lat="47.89137" lon="6.93218">
        <ele>908</ele>
        <time>2026-05-09T17:50:54.358Z</time>
      </trkpt>
      <trkpt lat="47.89138" lon="6.93217">
        <ele>908</ele>
        <time>2026-05-09T17:50:55.358Z</time>
      </trkpt>
      <trkpt lat="47.89139" lon="6.93216">
        <ele>907</ele>
        <time>2026-05-09T17:50:56.359Z</time>
      </trkpt>
      <trkpt lat="47.8914" lon="6.93215">
        <ele>907</ele>
        <time>2026-05-09T17:50:57.358Z</time>
      </trkpt>
      <trkpt lat="47.89141" lon="6.93213">
        <ele>907</ele>
        <time>2026-05-09T17:50:58.358Z</time>
      </trkpt>
      <trkpt lat="47.89141" lon="6.93212">
        <ele>908</ele>
        <time>2026-05-09T17:50:59.358Z</time>
      </trkpt>
      <trkpt lat="47.89142" lon="6.93211">
        <ele>908</ele>
        <time>2026-05-09T17:51:00.359Z</time>
      </trkpt>
      <trkpt lat="47.89143" lon="6.93209">
        <ele>908</ele>
        <time>2026-05-09T17:51:01.358Z</time>
      </trkpt>
      <trkpt lat="47.89145" lon="6.93208">
        <ele>908</ele>
        <time>2026-05-09T17:51:02.359Z</time>
      </trkpt>
      <trkpt lat="47.89146" lon="6.93207">
        <ele>908</ele>
        <time>2026-05-09T17:51:03.358Z</time>
      </trkpt>
      <trkpt lat="47.89147" lon="6.93206">
        <ele>909</ele>
        <time>2026-05-09T17:51:04.358Z</time>
      </trkpt>
      <trkpt lat="47.89148" lon="6.93206">
        <ele>909</ele>
        <time>2026-05-09T17:51:05.359Z</time>
      </trkpt>
      <trkpt lat="47.89149" lon="6.93205">
        <ele>909</ele>
        <time>2026-05-09T17:51:06.359Z</time>
      </trkpt>
      <trkpt lat="47.8915" lon="6.93204">
        <ele>909</ele>
        <time>2026-05-09T17:51:07.358Z</time>
      </trkpt>
      <trkpt lat="47.89151" lon="6.93203">
        <ele>909</ele>
        <time>2026-05-09T17:51:08.359Z</time>
      </trkpt>
      <trkpt lat="47.89152" lon="6.93202">
        <ele>909</ele>
        <time>2026-05-09T17:51:09.358Z</time>
      </trkpt>
      <trkpt lat="47.89153" lon="6.93201">
        <ele>910</ele>
        <time>2026-05-09T17:51:10.359Z</time>
      </trkpt>
      <trkpt lat="47.89154" lon="6.93199">
        <ele>910</ele>
        <time>2026-05-09T17:51:11.359Z</time>
      </trkpt>
      <trkpt lat="47.89155" lon="6.93198">
        <ele>910</ele>
        <time>2026-05-09T17:51:12.358Z</time>
      </trkpt>
      <trkpt lat="47.89156" lon="6.93197">
        <ele>910</ele>
        <time>2026-05-09T17:51:13.358Z</time>
      </trkpt>
      <trkpt lat="47.89157" lon="6.93196">
        <ele>910</ele>
        <time>2026-05-09T17:51:14.359Z</time>
      </trkpt>
      <trkpt lat="47.89158" lon="6.93195">
        <ele>911</ele>
        <time>2026-05-09T17:51:15.358Z</time>
      </trkpt>
      <trkpt lat="47.89159" lon="6.93194">
        <ele>911</ele>
        <time>2026-05-09T17:51:16.359Z</time>
      </trkpt>
      <trkpt lat="47.8916" lon="6.93193">
        <ele>911</ele>
        <time>2026-05-09T17:51:17.358Z</time>
      </trkpt>
      <trkpt lat="47.89161" lon="6.93192">
        <ele>911</ele>
        <time>2026-05-09T17:51:18.359Z</time>
      </trkpt>
      <trkpt lat="47.89162" lon="6.93191">
        <ele>910</ele>
        <time>2026-05-09T17:51:19.359Z</time>
      </trkpt>
      <trkpt lat="47.89163" lon="6.9319">
        <ele>910</ele>
        <time>2026-05-09T17:51:20.359Z</time>
      </trkpt>
      <trkpt lat="47.89164" lon="6.93188">
        <ele>910</ele>
        <time>2026-05-09T17:51:21.359Z</time>
      </trkpt>
      <trkpt lat="47.89165" lon="6.93187">
        <ele>910</ele>
        <time>2026-05-09T17:51:22.358Z</time>
      </trkpt>
      <trkpt lat="47.89166" lon="6.93187">
        <ele>910</ele>
        <time>2026-05-09T17:51:23.358Z</time>
      </trkpt>
      <trkpt lat="47.89167" lon="6.93186">
        <ele>909</ele>
        <time>2026-05-09T17:51:24.358Z</time>
      </trkpt>
      <trkpt lat="47.89168" lon="6.93185">
        <ele>910</ele>
        <time>2026-05-09T17:51:25.359Z</time>
      </trkpt>
      <trkpt lat="47.89169" lon="6.93185">
        <ele>910</ele>
        <time>2026-05-09T17:51:26.358Z</time>
      </trkpt>
      <trkpt lat="47.8917" lon="6.93184">
        <ele>910</ele>
        <time>2026-05-09T17:51:27.359Z</time>
      </trkpt>
      <trkpt lat="47.8917" lon="6.93183">
        <ele>910</ele>
        <time>2026-05-09T17:51:28.358Z</time>
      </trkpt>
      <trkpt lat="47.89171" lon="6.93182">
        <ele>911</ele>
        <time>2026-05-09T17:51:29.359Z</time>
      </trkpt>
      <trkpt lat="47.89172" lon="6.93181">
        <ele>911</ele>
        <time>2026-05-09T17:51:30.358Z</time>
      </trkpt>
      <trkpt lat="47.89173" lon="6.9318">
        <ele>911</ele>
        <time>2026-05-09T17:51:31.359Z</time>
      </trkpt>
      <trkpt lat="47.89174" lon="6.93179">
        <ele>912</ele>
        <time>2026-05-09T17:51:32.358Z</time>
      </trkpt>
      <trkpt lat="47.89175" lon="6.93178">
        <ele>912</ele>
        <time>2026-05-09T17:51:33.359Z</time>
      </trkpt>
      <trkpt lat="47.89176" lon="6.93177">
        <ele>912</ele>
        <time>2026-05-09T17:51:34.359Z</time>
      </trkpt>
      <trkpt lat="47.89176" lon="6.93176">
        <ele>912</ele>
        <time>2026-05-09T17:51:35.359Z</time>
      </trkpt>
      <trkpt lat="47.89177" lon="6.93175">
        <ele>912</ele>
        <time>2026-05-09T17:51:36.359Z</time>
      </trkpt>
      <trkpt lat="47.89178" lon="6.93174">
        <ele>912</ele>
        <time>2026-05-09T17:51:37.358Z</time>
      </trkpt>
      <trkpt lat="47.89179" lon="6.93173">
        <ele>912</ele>
        <time>2026-05-09T17:51:38.358Z</time>
      </trkpt>
      <trkpt lat="47.8918" lon="6.93172">
        <ele>912</ele>
        <time>2026-05-09T17:51:39.358Z</time>
      </trkpt>
      <trkpt lat="47.89181" lon="6.9317">
        <ele>912</ele>
        <time>2026-05-09T17:51:40.358Z</time>
      </trkpt>
      <trkpt lat="47.89181" lon="6.93169">
        <ele>912</ele>
        <time>2026-05-09T17:51:41.358Z</time>
      </trkpt>
      <trkpt lat="47.89182" lon="6.93168">
        <ele>912</ele>
        <time>2026-05-09T17:51:42.358Z</time>
      </trkpt>
      <trkpt lat="47.89183" lon="6.93167">
        <ele>913</ele>
        <time>2026-05-09T17:51:43.359Z</time>
      </trkpt>
      <trkpt lat="47.89184" lon="6.93166">
        <ele>913</ele>
        <time>2026-05-09T17:51:44.359Z</time>
      </trkpt>
      <trkpt lat="47.89184" lon="6.93165">
        <ele>914</ele>
        <time>2026-05-09T17:51:45.358Z</time>
      </trkpt>
      <trkpt lat="47.89185" lon="6.93164">
        <ele>914</ele>
        <time>2026-05-09T17:51:46.359Z</time>
      </trkpt>
      <trkpt lat="47.89186" lon="6.93163">
        <ele>914</ele>
        <time>2026-05-09T17:51:47.358Z</time>
      </trkpt>
      <trkpt lat="47.89187" lon="6.93161">
        <ele>915</ele>
        <time>2026-05-09T17:51:48.358Z</time>
      </trkpt>
      <trkpt lat="47.89187" lon="6.9316">
        <ele>915</ele>
        <time>2026-05-09T17:51:49.358Z</time>
      </trkpt>
      <trkpt lat="47.89188" lon="6.93158">
        <ele>916</ele>
        <time>2026-05-09T17:51:50.359Z</time>
      </trkpt>
      <trkpt lat="47.89189" lon="6.93157">
        <ele>916</ele>
        <time>2026-05-09T17:51:51.359Z</time>
      </trkpt>
      <trkpt lat="47.89189" lon="6.93156">
        <ele>916</ele>
        <time>2026-05-09T17:51:52.359Z</time>
      </trkpt>
      <trkpt lat="47.8919" lon="6.93155">
        <ele>916</ele>
        <time>2026-05-09T17:51:53.358Z</time>
      </trkpt>
      <trkpt lat="47.89191" lon="6.93153">
        <ele>916</ele>
        <time>2026-05-09T17:51:54.359Z</time>
      </trkpt>
      <trkpt lat="47.89192" lon="6.93152">
        <ele>916</ele>
        <time>2026-05-09T17:51:55.358Z</time>
      </trkpt>
      <trkpt lat="47.89192" lon="6.93151">
        <ele>916</ele>
        <time>2026-05-09T17:51:56.358Z</time>
      </trkpt>
      <trkpt lat="47.89193" lon="6.9315">
        <ele>916</ele>
        <time>2026-05-09T17:51:57.358Z</time>
      </trkpt>
      <trkpt lat="47.89193" lon="6.93148">
        <ele>916</ele>
        <time>2026-05-09T17:51:58.359Z</time>
      </trkpt>
      <trkpt lat="47.89194" lon="6.93147">
        <ele>916</ele>
        <time>2026-05-09T17:51:59.358Z</time>
      </trkpt>
      <trkpt lat="47.89194" lon="6.93146">
        <ele>916</ele>
        <time>2026-05-09T17:52:00.359Z</time>
      </trkpt>
      <trkpt lat="47.89195" lon="6.93144">
        <ele>916</ele>
        <time>2026-05-09T17:52:01.358Z</time>
      </trkpt>
      <trkpt lat="47.89196" lon="6.93143">
        <ele>917</ele>
        <time>2026-05-09T17:52:02.359Z</time>
      </trkpt>
      <trkpt lat="47.89196" lon="6.93142">
        <ele>917</ele>
        <time>2026-05-09T17:52:03.358Z</time>
      </trkpt>
      <trkpt lat="47.89196" lon="6.9314">
        <ele>917</ele>
        <time>2026-05-09T17:52:04.359Z</time>
      </trkpt>
      <trkpt lat="47.89197" lon="6.93139">
        <ele>917</ele>
        <time>2026-05-09T17:52:05.358Z</time>
      </trkpt>
      <trkpt lat="47.89197" lon="6.93138">
        <ele>918</ele>
        <time>2026-05-09T17:52:06.359Z</time>
      </trkpt>
      <trkpt lat="47.89198" lon="6.93137">
        <ele>918</ele>
        <time>2026-05-09T17:52:07.359Z</time>
      </trkpt>
      <trkpt lat="47.89198" lon="6.93136">
        <ele>918</ele>
        <time>2026-05-09T17:52:08.358Z</time>
      </trkpt>
      <trkpt lat="47.89199" lon="6.93135">
        <ele>919</ele>
        <time>2026-05-09T17:52:09.358Z</time>
      </trkpt>
      <trkpt lat="47.89199" lon="6.93134">
        <ele>919</ele>
        <time>2026-05-09T17:52:10.358Z</time>
      </trkpt>
      <trkpt lat="47.892" lon="6.93133">
        <ele>919</ele>
        <time>2026-05-09T17:52:11.359Z</time>
      </trkpt>
      <trkpt lat="47.89201" lon="6.93132">
        <ele>919</ele>
        <time>2026-05-09T17:52:12.358Z</time>
      </trkpt>
      <trkpt lat="47.89201" lon="6.93131">
        <ele>919</ele>
        <time>2026-05-09T17:52:13.359Z</time>
      </trkpt>
      <trkpt lat="47.89202" lon="6.93129">
        <ele>918</ele>
        <time>2026-05-09T17:52:14.359Z</time>
      </trkpt>
      <trkpt lat="47.89202" lon="6.93128">
        <ele>918</ele>
        <time>2026-05-09T17:52:15.358Z</time>
      </trkpt>
      <trkpt lat="47.89203" lon="6.93126">
        <ele>918</ele>
        <time>2026-05-09T17:52:16.359Z</time>
      </trkpt>
      <trkpt lat="47.89203" lon="6.93125">
        <ele>919</ele>
        <time>2026-05-09T17:52:17.358Z</time>
      </trkpt>
      <trkpt lat="47.89204" lon="6.93123">
        <ele>919</ele>
        <time>2026-05-09T17:52:18.359Z</time>
      </trkpt>
      <trkpt lat="47.89204" lon="6.93122">
        <ele>919</ele>
        <time>2026-05-09T17:52:19.358Z</time>
      </trkpt>
      <trkpt lat="47.89205" lon="6.93121">
        <ele>918</ele>
        <time>2026-05-09T17:52:20.359Z</time>
      </trkpt>
      <trkpt lat="47.89206" lon="6.9312">
        <ele>918</ele>
        <time>2026-05-09T17:52:21.359Z</time>
      </trkpt>
      <trkpt lat="47.89206" lon="6.93119">
        <ele>918</ele>
        <time>2026-05-09T17:52:22.359Z</time>
      </trkpt>
      <trkpt lat="47.89207" lon="6.93118">
        <ele>918</ele>
        <time>2026-05-09T17:52:23.359Z</time>
      </trkpt>
      <trkpt lat="47.89208" lon="6.93117">
        <ele>918</ele>
        <time>2026-05-09T17:52:24.358Z</time>
      </trkpt>
      <trkpt lat="47.89208" lon="6.93116">
        <ele>918</ele>
        <time>2026-05-09T17:52:25.358Z</time>
      </trkpt>
      <trkpt lat="47.89209" lon="6.93114">
        <ele>917</ele>
        <time>2026-05-09T17:52:26.359Z</time>
      </trkpt>
      <trkpt lat="47.89209" lon="6.93113">
        <ele>918</ele>
        <time>2026-05-09T17:52:27.358Z</time>
      </trkpt>
      <trkpt lat="47.8921" lon="6.93112">
        <ele>918</ele>
        <time>2026-05-09T17:52:28.359Z</time>
      </trkpt>
      <trkpt lat="47.89211" lon="6.9311">
        <ele>918</ele>
        <time>2026-05-09T17:52:29.359Z</time>
      </trkpt>
      <trkpt lat="47.89211" lon="6.93109">
        <ele>918</ele>
        <time>2026-05-09T17:52:30.359Z</time>
      </trkpt>
      <trkpt lat="47.89212" lon="6.93108">
        <ele>919</ele>
        <time>2026-05-09T17:52:31.359Z</time>
      </trkpt>
      <trkpt lat="47.89212" lon="6.93107">
        <ele>919</ele>
        <time>2026-05-09T17:52:32.358Z</time>
      </trkpt>
      <trkpt lat="47.89213" lon="6.93106">
        <ele>919</ele>
        <time>2026-05-09T17:52:33.359Z</time>
      </trkpt>
      <trkpt lat="47.89214" lon="6.93105">
        <ele>919</ele>
        <time>2026-05-09T17:52:34.358Z</time>
      </trkpt>
      <trkpt lat="47.89214" lon="6.93103">
        <ele>920</ele>
        <time>2026-05-09T17:52:35.359Z</time>
      </trkpt>
      <trkpt lat="47.89215" lon="6.93102">
        <ele>920</ele>
        <time>2026-05-09T17:52:36.359Z</time>
      </trkpt>
      <trkpt lat="47.89216" lon="6.93101">
        <ele>920</ele>
        <time>2026-05-09T17:52:37.359Z</time>
      </trkpt>
      <trkpt lat="47.89217" lon="6.931">
        <ele>921</ele>
        <time>2026-05-09T17:52:38.359Z</time>
      </trkpt>
      <trkpt lat="47.89218" lon="6.93099">
        <ele>921</ele>
        <time>2026-05-09T17:52:39.358Z</time>
      </trkpt>
      <trkpt lat="47.89218" lon="6.93098">
        <ele>921</ele>
        <time>2026-05-09T17:52:40.358Z</time>
      </trkpt>
      <trkpt lat="47.89219" lon="6.93097">
        <ele>921</ele>
        <time>2026-05-09T17:52:41.358Z</time>
      </trkpt>
      <trkpt lat="47.8922" lon="6.93096">
        <ele>922</ele>
        <time>2026-05-09T17:52:42.359Z</time>
      </trkpt>
      <trkpt lat="47.8922" lon="6.93095">
        <ele>922</ele>
        <time>2026-05-09T17:52:43.358Z</time>
      </trkpt>
      <trkpt lat="47.89221" lon="6.93094">
        <ele>922</ele>
        <time>2026-05-09T17:52:44.359Z</time>
      </trkpt>
      <trkpt lat="47.89222" lon="6.93093">
        <ele>922</ele>
        <time>2026-05-09T17:52:45.358Z</time>
      </trkpt>
      <trkpt lat="47.89223" lon="6.93092">
        <ele>922</ele>
        <time>2026-05-09T17:52:46.359Z</time>
      </trkpt>
      <trkpt lat="47.89224" lon="6.93091">
        <ele>923</ele>
        <time>2026-05-09T17:52:47.358Z</time>
      </trkpt>
      <trkpt lat="47.89225" lon="6.9309">
        <ele>922</ele>
        <time>2026-05-09T17:52:48.359Z</time>
      </trkpt>
      <trkpt lat="47.89226" lon="6.93089">
        <ele>922</ele>
        <time>2026-05-09T17:52:49.358Z</time>
      </trkpt>
      <trkpt lat="47.89226" lon="6.93088">
        <ele>922</ele>
        <time>2026-05-09T17:52:50.359Z</time>
      </trkpt>
      <trkpt lat="47.89227" lon="6.93088">
        <ele>922</ele>
        <time>2026-05-09T17:52:51.358Z</time>
      </trkpt>
      <trkpt lat="47.89228" lon="6.93087">
        <ele>922</ele>
        <time>2026-05-09T17:52:52.359Z</time>
      </trkpt>
      <trkpt lat="47.89229" lon="6.93087">
        <ele>922</ele>
        <time>2026-05-09T17:52:53.359Z</time>
      </trkpt>
      <trkpt lat="47.8923" lon="6.93086">
        <ele>922</ele>
        <time>2026-05-09T17:52:54.358Z</time>
      </trkpt>
      <trkpt lat="47.89231" lon="6.93085">
        <ele>922</ele>
        <time>2026-05-09T17:52:55.359Z</time>
      </trkpt>
      <trkpt lat="47.89232" lon="6.93084">
        <ele>922</ele>
        <time>2026-05-09T17:52:56.358Z</time>
      </trkpt>
      <trkpt lat="47.89233" lon="6.93083">
        <ele>922</ele>
        <time>2026-05-09T17:52:57.359Z</time>
      </trkpt>
      <trkpt lat="47.89234" lon="6.93082">
        <ele>922</ele>
        <time>2026-05-09T17:52:58.359Z</time>
      </trkpt>
      <trkpt lat="47.89235" lon="6.93081">
        <ele>922</ele>
        <time>2026-05-09T17:52:59.359Z</time>
      </trkpt>
      <trkpt lat="47.89236" lon="6.9308">
        <ele>922</ele>
        <time>2026-05-09T17:53:00.359Z</time>
      </trkpt>
      <trkpt lat="47.89236" lon="6.93079">
        <ele>922</ele>
        <time>2026-05-09T17:53:01.359Z</time>
      </trkpt>
      <trkpt lat="47.89237" lon="6.93078">
        <ele>922</ele>
        <time>2026-05-09T17:53:02.359Z</time>
      </trkpt>
      <trkpt lat="47.89238" lon="6.93077">
        <ele>923</ele>
        <time>2026-05-09T17:53:03.359Z</time>
      </trkpt>
      <trkpt lat="47.89239" lon="6.93076">
        <ele>923</ele>
        <time>2026-05-09T17:53:04.359Z</time>
      </trkpt>
      <trkpt lat="47.8924" lon="6.93075">
        <ele>923</ele>
        <time>2026-05-09T17:53:05.358Z</time>
      </trkpt>
      <trkpt lat="47.89241" lon="6.93074">
        <ele>923</ele>
        <time>2026-05-09T17:53:06.359Z</time>
      </trkpt>
      <trkpt lat="47.89242" lon="6.93073">
        <ele>923</ele>
        <time>2026-05-09T17:53:07.358Z</time>
      </trkpt>
      <trkpt lat="47.89242" lon="6.93071">
        <ele>923</ele>
        <time>2026-05-09T17:53:08.359Z</time>
      </trkpt>
      <trkpt lat="47.89243" lon="6.9307">
        <ele>923</ele>
        <time>2026-05-09T17:53:09.358Z</time>
      </trkpt>
      <trkpt lat="47.89244" lon="6.93069">
        <ele>923</ele>
        <time>2026-05-09T17:53:10.359Z</time>
      </trkpt>
      <trkpt lat="47.89245" lon="6.93068">
        <ele>923</ele>
        <time>2026-05-09T17:53:11.358Z</time>
      </trkpt>
      <trkpt lat="47.89246" lon="6.93068">
        <ele>923</ele>
        <time>2026-05-09T17:53:12.359Z</time>
      </trkpt>
      <trkpt lat="47.89246" lon="6.93067">
        <ele>923</ele>
        <time>2026-05-09T17:53:13.358Z</time>
      </trkpt>
      <trkpt lat="47.89247" lon="6.93066">
        <ele>923</ele>
        <time>2026-05-09T17:53:14.358Z</time>
      </trkpt>
      <trkpt lat="47.89248" lon="6.93065">
        <ele>924</ele>
        <time>2026-05-09T17:53:15.358Z</time>
      </trkpt>
      <trkpt lat="47.89249" lon="6.93064">
        <ele>924</ele>
        <time>2026-05-09T17:53:16.359Z</time>
      </trkpt>
      <trkpt lat="47.89249" lon="6.93063">
        <ele>925</ele>
        <time>2026-05-09T17:53:17.359Z</time>
      </trkpt>
      <trkpt lat="47.8925" lon="6.93062">
        <ele>925</ele>
        <time>2026-05-09T17:53:18.359Z</time>
      </trkpt>
      <trkpt lat="47.89251" lon="6.93061">
        <ele>926</ele>
        <time>2026-05-09T17:53:19.359Z</time>
      </trkpt>
      <trkpt lat="47.89251" lon="6.9306">
        <ele>926</ele>
        <time>2026-05-09T17:53:20.358Z</time>
      </trkpt>
      <trkpt lat="47.89252" lon="6.93059">
        <ele>926</ele>
        <time>2026-05-09T17:53:21.359Z</time>
      </trkpt>
      <trkpt lat="47.89253" lon="6.93058">
        <ele>926</ele>
        <time>2026-05-09T17:53:22.358Z</time>
      </trkpt>
      <trkpt lat="47.89253" lon="6.93057">
        <ele>926</ele>
        <time>2026-05-09T17:53:23.359Z</time>
      </trkpt>
      <trkpt lat="47.89254" lon="6.93056">
        <ele>926</ele>
        <time>2026-05-09T17:53:24.358Z</time>
      </trkpt>
      <trkpt lat="47.89255" lon="6.93055">
        <ele>926</ele>
        <time>2026-05-09T17:53:25.359Z</time>
      </trkpt>
      <trkpt lat="47.89255" lon="6.93054">
        <ele>926</ele>
        <time>2026-05-09T17:53:26.358Z</time>
      </trkpt>
      <trkpt lat="47.89256" lon="6.93053">
        <ele>927</ele>
        <time>2026-05-09T17:53:27.359Z</time>
      </trkpt>
      <trkpt lat="47.89257" lon="6.93052">
        <ele>927</ele>
        <time>2026-05-09T17:53:28.358Z</time>
      </trkpt>
      <trkpt lat="47.89258" lon="6.93051">
        <ele>927</ele>
        <time>2026-05-09T17:53:29.358Z</time>
      </trkpt>
      <trkpt lat="47.89258" lon="6.9305">
        <ele>928</ele>
        <time>2026-05-09T17:53:30.358Z</time>
      </trkpt>
      <trkpt lat="47.89259" lon="6.9305">
        <ele>928</ele>
        <time>2026-05-09T17:53:31.359Z</time>
      </trkpt>
      <trkpt lat="47.8926" lon="6.93049">
        <ele>928</ele>
        <time>2026-05-09T17:53:32.358Z</time>
      </trkpt>
      <trkpt lat="47.89261" lon="6.93049">
        <ele>928</ele>
        <time>2026-05-09T17:53:33.359Z</time>
      </trkpt>
      <trkpt lat="47.89261" lon="6.93047">
        <ele>928</ele>
        <time>2026-05-09T17:53:34.359Z</time>
      </trkpt>
      <trkpt lat="47.89262" lon="6.93046">
        <ele>928</ele>
        <time>2026-05-09T17:53:35.359Z</time>
      </trkpt>
      <trkpt lat="47.89263" lon="6.93045">
        <ele>928</ele>
        <time>2026-05-09T17:53:36.359Z</time>
      </trkpt>
      <trkpt lat="47.89263" lon="6.93044">
        <ele>928</ele>
        <time>2026-05-09T17:53:37.358Z</time>
      </trkpt>
      <trkpt lat="47.89264" lon="6.93043">
        <ele>929</ele>
        <time>2026-05-09T17:53:38.359Z</time>
      </trkpt>
      <trkpt lat="47.89265" lon="6.93042">
        <ele>929</ele>
        <time>2026-05-09T17:53:39.358Z</time>
      </trkpt>
      <trkpt lat="47.89266" lon="6.93042">
        <ele>929</ele>
        <time>2026-05-09T17:53:40.359Z</time>
      </trkpt>
      <trkpt lat="47.89267" lon="6.93041">
        <ele>929</ele>
        <time>2026-05-09T17:53:41.358Z</time>
      </trkpt>
      <trkpt lat="47.89267" lon="6.9304">
        <ele>929</ele>
        <time>2026-05-09T17:53:42.359Z</time>
      </trkpt>
      <trkpt lat="47.89268" lon="6.93039">
        <ele>929</ele>
        <time>2026-05-09T17:53:43.358Z</time>
      </trkpt>
      <trkpt lat="47.89269" lon="6.93038">
        <ele>930</ele>
        <time>2026-05-09T17:53:44.359Z</time>
      </trkpt>
      <trkpt lat="47.8927" lon="6.93037">
        <ele>930</ele>
        <time>2026-05-09T17:53:45.358Z</time>
      </trkpt>
      <trkpt lat="47.8927" lon="6.93036">
        <ele>930</ele>
        <time>2026-05-09T17:53:46.359Z</time>
      </trkpt>
      <trkpt lat="47.89271" lon="6.93035">
        <ele>930</ele>
        <time>2026-05-09T17:53:47.358Z</time>
      </trkpt>
      <trkpt lat="47.89271" lon="6.93034">
        <ele>930</ele>
        <time>2026-05-09T17:53:48.358Z</time>
      </trkpt>
      <trkpt lat="47.89272" lon="6.93034">
        <ele>930</ele>
        <time>2026-05-09T17:53:49.358Z</time>
      </trkpt>
      <trkpt lat="47.89272" lon="6.93033">
        <ele>930</ele>
        <time>2026-05-09T17:53:50.359Z</time>
      </trkpt>
      <trkpt lat="47.89274" lon="6.9303">
        <ele>931</ele>
        <time>2026-05-09T17:54:00.498Z</time>
      </trkpt>
      <trkpt lat="47.89275" lon="6.93028">
        <ele>931</ele>
        <time>2026-05-09T17:54:01.499Z</time>
      </trkpt>
      <trkpt lat="47.89275" lon="6.93027">
        <ele>932</ele>
        <time>2026-05-09T17:54:02.498Z</time>
      </trkpt>
      <trkpt lat="47.89276" lon="6.93026">
        <ele>932</ele>
        <time>2026-05-09T17:54:03.499Z</time>
      </trkpt>
      <trkpt lat="47.89277" lon="6.93024">
        <ele>933</ele>
        <time>2026-05-09T17:54:04.498Z</time>
      </trkpt>
      <trkpt lat="47.89278" lon="6.93023">
        <ele>933</ele>
        <time>2026-05-09T17:54:05.499Z</time>
      </trkpt>
      <trkpt lat="47.89278" lon="6.93022">
        <ele>933</ele>
        <time>2026-05-09T17:54:06.498Z</time>
      </trkpt>
      <trkpt lat="47.89279" lon="6.93021">
        <ele>934</ele>
        <time>2026-05-09T17:54:07.499Z</time>
      </trkpt>
      <trkpt lat="47.89279" lon="6.9302">
        <ele>934</ele>
        <time>2026-05-09T17:54:08.498Z</time>
      </trkpt>
      <trkpt lat="47.8928" lon="6.93019">
        <ele>934</ele>
        <time>2026-05-09T17:54:09.499Z</time>
      </trkpt>
      <trkpt lat="47.89281" lon="6.93018">
        <ele>935</ele>
        <time>2026-05-09T17:54:10.498Z</time>
      </trkpt>
      <trkpt lat="47.89281" lon="6.93016">
        <ele>935</ele>
        <time>2026-05-09T17:54:11.499Z</time>
      </trkpt>
      <trkpt lat="47.89282" lon="6.93015">
        <ele>935</ele>
        <time>2026-05-09T17:54:12.498Z</time>
      </trkpt>
      <trkpt lat="47.89282" lon="6.93014">
        <ele>935</ele>
        <time>2026-05-09T17:54:13.499Z</time>
      </trkpt>
      <trkpt lat="47.89283" lon="6.93013">
        <ele>935</ele>
        <time>2026-05-09T17:54:14.498Z</time>
      </trkpt>
      <trkpt lat="47.89284" lon="6.93012">
        <ele>935</ele>
        <time>2026-05-09T17:54:15.499Z</time>
      </trkpt>
      <trkpt lat="47.89284" lon="6.93011">
        <ele>935</ele>
        <time>2026-05-09T17:54:16.498Z</time>
      </trkpt>
      <trkpt lat="47.89285" lon="6.9301">
        <ele>935</ele>
        <time>2026-05-09T17:54:17.498Z</time>
      </trkpt>
      <trkpt lat="47.89285" lon="6.93009">
        <ele>935</ele>
        <time>2026-05-09T17:54:18.498Z</time>
      </trkpt>
      <trkpt lat="47.89286" lon="6.93008">
        <ele>934</ele>
        <time>2026-05-09T17:54:19.499Z</time>
      </trkpt>
      <trkpt lat="47.89287" lon="6.93006">
        <ele>934</ele>
        <time>2026-05-09T17:54:20.499Z</time>
      </trkpt>
      <trkpt lat="47.89287" lon="6.93005">
        <ele>934</ele>
        <time>2026-05-09T17:54:21.498Z</time>
      </trkpt>
      <trkpt lat="47.89288" lon="6.93004">
        <ele>934</ele>
        <time>2026-05-09T17:54:22.498Z</time>
      </trkpt>
      <trkpt lat="47.89288" lon="6.93002">
        <ele>935</ele>
        <time>2026-05-09T17:54:23.498Z</time>
      </trkpt>
      <trkpt lat="47.89289" lon="6.93001">
        <ele>935</ele>
        <time>2026-05-09T17:54:24.499Z</time>
      </trkpt>
      <trkpt lat="47.89289" lon="6.93">
        <ele>935</ele>
        <time>2026-05-09T17:54:25.498Z</time>
      </trkpt>
      <trkpt lat="47.8929" lon="6.93">
        <ele>935</ele>
        <time>2026-05-09T17:54:26.499Z</time>
      </trkpt>
      <trkpt lat="47.89291" lon="6.92998">
        <ele>935</ele>
        <time>2026-05-09T17:54:27.498Z</time>
      </trkpt>
      <trkpt lat="47.89291" lon="6.92997">
        <ele>935</ele>
        <time>2026-05-09T17:54:28.499Z</time>
      </trkpt>
      <trkpt lat="47.89292" lon="6.92996">
        <ele>935</ele>
        <time>2026-05-09T17:54:29.498Z</time>
      </trkpt>
      <trkpt lat="47.89292" lon="6.92994">
        <ele>935</ele>
        <time>2026-05-09T17:54:30.499Z</time>
      </trkpt>
      <trkpt lat="47.89293" lon="6.92993">
        <ele>935</ele>
        <time>2026-05-09T17:54:31.499Z</time>
      </trkpt>
      <trkpt lat="47.89293" lon="6.92992">
        <ele>935</ele>
        <time>2026-05-09T17:54:32.499Z</time>
      </trkpt>
      <trkpt lat="47.89294" lon="6.92991">
        <ele>935</ele>
        <time>2026-05-09T17:54:33.498Z</time>
      </trkpt>
      <trkpt lat="47.89294" lon="6.9299">
        <ele>935</ele>
        <time>2026-05-09T17:54:34.499Z</time>
      </trkpt>
      <trkpt lat="47.89295" lon="6.92988">
        <ele>935</ele>
        <time>2026-05-09T17:54:35.498Z</time>
      </trkpt>
      <trkpt lat="47.89295" lon="6.92987">
        <ele>935</ele>
        <time>2026-05-09T17:54:36.499Z</time>
      </trkpt>
      <trkpt lat="47.89295" lon="6.92986">
        <ele>935</ele>
        <time>2026-05-09T17:54:37.498Z</time>
      </trkpt>
      <trkpt lat="47.89296" lon="6.92984">
        <ele>935</ele>
        <time>2026-05-09T17:54:38.499Z</time>
      </trkpt>
      <trkpt lat="47.89296" lon="6.92983">
        <ele>935</ele>
        <time>2026-05-09T17:54:39.498Z</time>
      </trkpt>
      <trkpt lat="47.89296" lon="6.92981">
        <ele>935</ele>
        <time>2026-05-09T17:54:40.498Z</time>
      </trkpt>
      <trkpt lat="47.89297" lon="6.9298">
        <ele>936</ele>
        <time>2026-05-09T17:54:41.499Z</time>
      </trkpt>
      <trkpt lat="47.89297" lon="6.92979">
        <ele>936</ele>
        <time>2026-05-09T17:54:42.498Z</time>
      </trkpt>
      <trkpt lat="47.89298" lon="6.92978">
        <ele>937</ele>
        <time>2026-05-09T17:54:43.498Z</time>
      </trkpt>
      <trkpt lat="47.89298" lon="6.92976">
        <ele>938</ele>
        <time>2026-05-09T17:54:44.498Z</time>
      </trkpt>
      <trkpt lat="47.89299" lon="6.92975">
        <ele>938</ele>
        <time>2026-05-09T17:54:45.498Z</time>
      </trkpt>
      <trkpt lat="47.89299" lon="6.92973">
        <ele>938</ele>
        <time>2026-05-09T17:54:46.498Z</time>
      </trkpt>
      <trkpt lat="47.893" lon="6.92972">
        <ele>939</ele>
        <time>2026-05-09T17:54:47.499Z</time>
      </trkpt>
      <trkpt lat="47.89301" lon="6.9297">
        <ele>939</ele>
        <time>2026-05-09T17:54:48.499Z</time>
      </trkpt>
      <trkpt lat="47.89301" lon="6.92969">
        <ele>940</ele>
        <time>2026-05-09T17:54:49.499Z</time>
      </trkpt>
      <trkpt lat="47.89301" lon="6.92967">
        <ele>940</ele>
        <time>2026-05-09T17:54:50.498Z</time>
      </trkpt>
      <trkpt lat="47.89302" lon="6.92966">
        <ele>941</ele>
        <time>2026-05-09T17:54:51.499Z</time>
      </trkpt>
      <trkpt lat="47.89302" lon="6.92964">
        <ele>941</ele>
        <time>2026-05-09T17:54:52.499Z</time>
      </trkpt>
      <trkpt lat="47.89302" lon="6.92963">
        <ele>941</ele>
        <time>2026-05-09T17:54:53.499Z</time>
      </trkpt>
      <trkpt lat="47.89303" lon="6.92962">
        <ele>941</ele>
        <time>2026-05-09T17:54:54.498Z</time>
      </trkpt>
      <trkpt lat="47.89303" lon="6.9296">
        <ele>942</ele>
        <time>2026-05-09T17:54:55.498Z</time>
      </trkpt>
      <trkpt lat="47.89304" lon="6.92958">
        <ele>942</ele>
        <time>2026-05-09T17:54:56.499Z</time>
      </trkpt>
      <trkpt lat="47.89304" lon="6.92957">
        <ele>942</ele>
        <time>2026-05-09T17:54:57.499Z</time>
      </trkpt>
      <trkpt lat="47.89305" lon="6.92955">
        <ele>943</ele>
        <time>2026-05-09T17:54:58.498Z</time>
      </trkpt>
      <trkpt lat="47.89305" lon="6.92954">
        <ele>943</ele>
        <time>2026-05-09T17:54:59.499Z</time>
      </trkpt>
      <trkpt lat="47.89305" lon="6.92952">
        <ele>943</ele>
        <time>2026-05-09T17:55:00.498Z</time>
      </trkpt>
      <trkpt lat="47.89305" lon="6.92951">
        <ele>943</ele>
        <time>2026-05-09T17:55:01.499Z</time>
      </trkpt>
      <trkpt lat="47.89306" lon="6.9295">
        <ele>944</ele>
        <time>2026-05-09T17:55:02.498Z</time>
      </trkpt>
      <trkpt lat="47.89306" lon="6.92948">
        <ele>944</ele>
        <time>2026-05-09T17:55:03.498Z</time>
      </trkpt>
      <trkpt lat="47.89306" lon="6.92946">
        <ele>944</ele>
        <time>2026-05-09T17:55:04.499Z</time>
      </trkpt>
      <trkpt lat="47.89307" lon="6.92945">
        <ele>944</ele>
        <time>2026-05-09T17:55:05.498Z</time>
      </trkpt>
      <trkpt lat="47.89307" lon="6.92943">
        <ele>945</ele>
        <time>2026-05-09T17:55:06.499Z</time>
      </trkpt>
      <trkpt lat="47.89307" lon="6.92942">
        <ele>945</ele>
        <time>2026-05-09T17:55:07.498Z</time>
      </trkpt>
      <trkpt lat="47.89308" lon="6.92941">
        <ele>945</ele>
        <time>2026-05-09T17:55:08.499Z</time>
      </trkpt>
      <trkpt lat="47.89308" lon="6.9294">
        <ele>944</ele>
        <time>2026-05-09T17:55:09.498Z</time>
      </trkpt>
      <trkpt lat="47.89309" lon="6.92938">
        <ele>944</ele>
        <time>2026-05-09T17:55:10.499Z</time>
      </trkpt>
      <trkpt lat="47.89309" lon="6.92937">
        <ele>944</ele>
        <time>2026-05-09T17:55:11.498Z</time>
      </trkpt>
      <trkpt lat="47.8931" lon="6.92935">
        <ele>944</ele>
        <time>2026-05-09T17:55:12.498Z</time>
      </trkpt>
      <trkpt lat="47.8931" lon="6.92934">
        <ele>944</ele>
        <time>2026-05-09T17:55:13.499Z</time>
      </trkpt>
      <trkpt lat="47.8931" lon="6.92933">
        <ele>944</ele>
        <time>2026-05-09T17:55:14.498Z</time>
      </trkpt>
      <trkpt lat="47.8931" lon="6.92931">
        <ele>945</ele>
        <time>2026-05-09T17:55:15.498Z</time>
      </trkpt>
      <trkpt lat="47.89311" lon="6.9293">
        <ele>945</ele>
        <time>2026-05-09T17:55:16.499Z</time>
      </trkpt>
      <trkpt lat="47.89311" lon="6.92928">
        <ele>946</ele>
        <time>2026-05-09T17:55:17.499Z</time>
      </trkpt>
      <trkpt lat="47.89311" lon="6.92927">
        <ele>946</ele>
        <time>2026-05-09T17:55:18.499Z</time>
      </trkpt>
      <trkpt lat="47.89312" lon="6.92926">
        <ele>947</ele>
        <time>2026-05-09T17:55:19.499Z</time>
      </trkpt>
      <trkpt lat="47.89312" lon="6.92925">
        <ele>947</ele>
        <time>2026-05-09T17:55:20.498Z</time>
      </trkpt>
      <trkpt lat="47.89312" lon="6.92923">
        <ele>947</ele>
        <time>2026-05-09T17:55:21.499Z</time>
      </trkpt>
      <trkpt lat="47.89312" lon="6.92922">
        <ele>947</ele>
        <time>2026-05-09T17:55:22.498Z</time>
      </trkpt>
      <trkpt lat="47.89313" lon="6.9292">
        <ele>947</ele>
        <time>2026-05-09T17:55:23.499Z</time>
      </trkpt>
      <trkpt lat="47.89313" lon="6.92919">
        <ele>947</ele>
        <time>2026-05-09T17:55:24.499Z</time>
      </trkpt>
      <trkpt lat="47.89313" lon="6.92918">
        <ele>947</ele>
        <time>2026-05-09T17:55:25.498Z</time>
      </trkpt>
      <trkpt lat="47.89314" lon="6.92916">
        <ele>948</ele>
        <time>2026-05-09T17:55:26.499Z</time>
      </trkpt>
      <trkpt lat="47.89314" lon="6.92915">
        <ele>948</ele>
        <time>2026-05-09T17:55:27.498Z</time>
      </trkpt>
      <trkpt lat="47.89315" lon="6.92913">
        <ele>948</ele>
        <time>2026-05-09T17:55:28.499Z</time>
      </trkpt>
      <trkpt lat="47.89315" lon="6.92912">
        <ele>948</ele>
        <time>2026-05-09T17:55:29.498Z</time>
      </trkpt>
      <trkpt lat="47.89316" lon="6.92911">
        <ele>948</ele>
        <time>2026-05-09T17:55:30.499Z</time>
      </trkpt>
      <trkpt lat="47.89316" lon="6.9291">
        <ele>949</ele>
        <time>2026-05-09T17:55:31.498Z</time>
      </trkpt>
      <trkpt lat="47.89316" lon="6.92908">
        <ele>949</ele>
        <time>2026-05-09T17:55:32.499Z</time>
      </trkpt>
      <trkpt lat="47.89317" lon="6.92906">
        <ele>950</ele>
        <time>2026-05-09T17:55:33.498Z</time>
      </trkpt>
      <trkpt lat="47.89317" lon="6.92905">
        <ele>950</ele>
        <time>2026-05-09T17:55:34.499Z</time>
      </trkpt>
      <trkpt lat="47.89318" lon="6.92904">
        <ele>951</ele>
        <time>2026-05-09T17:55:35.498Z</time>
      </trkpt>
      <trkpt lat="47.89319" lon="6.92903">
        <ele>951</ele>
        <time>2026-05-09T17:55:36.499Z</time>
      </trkpt>
      <trkpt lat="47.89319" lon="6.92901">
        <ele>952</ele>
        <time>2026-05-09T17:55:37.498Z</time>
      </trkpt>
      <trkpt lat="47.8932" lon="6.929">
        <ele>952</ele>
        <time>2026-05-09T17:55:38.499Z</time>
      </trkpt>
      <trkpt lat="47.8932" lon="6.92899">
        <ele>952</ele>
        <time>2026-05-09T17:55:39.499Z</time>
      </trkpt>
      <trkpt lat="47.8932" lon="6.92898">
        <ele>953</ele>
        <time>2026-05-09T17:55:40.498Z</time>
      </trkpt>
      <trkpt lat="47.89321" lon="6.92896">
        <ele>953</ele>
        <time>2026-05-09T17:55:41.499Z</time>
      </trkpt>
      <trkpt lat="47.89321" lon="6.92895">
        <ele>953</ele>
        <time>2026-05-09T17:55:42.498Z</time>
      </trkpt>
      <trkpt lat="47.89321" lon="6.92893">
        <ele>953</ele>
        <time>2026-05-09T17:55:43.498Z</time>
      </trkpt>
      <trkpt lat="47.89321" lon="6.92892">
        <ele>953</ele>
        <time>2026-05-09T17:55:44.498Z</time>
      </trkpt>
      <trkpt lat="47.89321" lon="6.9289">
        <ele>953</ele>
        <time>2026-05-09T17:55:45.498Z</time>
      </trkpt>
      <trkpt lat="47.89322" lon="6.92889">
        <ele>953</ele>
        <time>2026-05-09T17:55:46.498Z</time>
      </trkpt>
      <trkpt lat="47.89322" lon="6.92887">
        <ele>954</ele>
        <time>2026-05-09T17:55:47.499Z</time>
      </trkpt>
      <trkpt lat="47.89322" lon="6.92886">
        <ele>954</ele>
        <time>2026-05-09T17:55:48.499Z</time>
      </trkpt>
      <trkpt lat="47.89323" lon="6.92885">
        <ele>954</ele>
        <time>2026-05-09T17:55:49.499Z</time>
      </trkpt>
      <trkpt lat="47.89323" lon="6.92884">
        <ele>955</ele>
        <time>2026-05-09T17:55:50.499Z</time>
      </trkpt>
      <trkpt lat="47.89324" lon="6.92882">
        <ele>955</ele>
        <time>2026-05-09T17:55:51.498Z</time>
      </trkpt>
      <trkpt lat="47.89324" lon="6.92881">
        <ele>955</ele>
        <time>2026-05-09T17:55:52.499Z</time>
      </trkpt>
      <trkpt lat="47.89325" lon="6.9288">
        <ele>955</ele>
        <time>2026-05-09T17:55:53.498Z</time>
      </trkpt>
      <trkpt lat="47.89325" lon="6.92879">
        <ele>955</ele>
        <time>2026-05-09T17:55:54.499Z</time>
      </trkpt>
      <trkpt lat="47.89325" lon="6.92878">
        <ele>955</ele>
        <time>2026-05-09T17:55:55.498Z</time>
      </trkpt>
      <trkpt lat="47.89326" lon="6.92877">
        <ele>955</ele>
        <time>2026-05-09T17:55:56.499Z</time>
      </trkpt>
      <trkpt lat="47.89327" lon="6.92875">
        <ele>956</ele>
        <time>2026-05-09T17:55:57.499Z</time>
      </trkpt>
      <trkpt lat="47.89327" lon="6.92874">
        <ele>956</ele>
        <time>2026-05-09T17:55:58.498Z</time>
      </trkpt>
      <trkpt lat="47.89328" lon="6.92873">
        <ele>956</ele>
        <time>2026-05-09T17:55:59.499Z</time>
      </trkpt>
      <trkpt lat="47.89329" lon="6.92873">
        <ele>956</ele>
        <time>2026-05-09T17:56:00.499Z</time>
      </trkpt>
      <trkpt lat="47.8933" lon="6.92873">
        <ele>955</ele>
        <time>2026-05-09T17:56:01.499Z</time>
      </trkpt>
      <trkpt lat="47.89331" lon="6.92873">
        <ele>955</ele>
        <time>2026-05-09T17:56:02.499Z</time>
      </trkpt>
      <trkpt lat="47.89332" lon="6.92871">
        <ele>955</ele>
        <time>2026-05-09T17:56:03.499Z</time>
      </trkpt>
      <trkpt lat="47.89332" lon="6.9287">
        <ele>955</ele>
        <time>2026-05-09T17:56:04.499Z</time>
      </trkpt>
      <trkpt lat="47.89333" lon="6.9287">
        <ele>955</ele>
        <time>2026-05-09T17:56:05.499Z</time>
      </trkpt>
      <trkpt lat="47.89334" lon="6.92869">
        <ele>955</ele>
        <time>2026-05-09T17:56:06.499Z</time>
      </trkpt>
      <trkpt lat="47.89334" lon="6.92868">
        <ele>955</ele>
        <time>2026-05-09T17:56:07.498Z</time>
      </trkpt>
      <trkpt lat="47.89335" lon="6.92867">
        <ele>955</ele>
        <time>2026-05-09T17:56:08.499Z</time>
      </trkpt>
      <trkpt lat="47.89336" lon="6.92865">
        <ele>956</ele>
        <time>2026-05-09T17:56:09.499Z</time>
      </trkpt>
      <trkpt lat="47.89336" lon="6.92863">
        <ele>956</ele>
        <time>2026-05-09T17:56:10.499Z</time>
      </trkpt>
      <trkpt lat="47.89336" lon="6.92862">
        <ele>956</ele>
        <time>2026-05-09T17:56:11.499Z</time>
      </trkpt>
      <trkpt lat="47.89337" lon="6.9286">
        <ele>956</ele>
        <time>2026-05-09T17:56:12.499Z</time>
      </trkpt>
      <trkpt lat="47.89337" lon="6.92859">
        <ele>956</ele>
        <time>2026-05-09T17:56:13.498Z</time>
      </trkpt>
      <trkpt lat="47.89337" lon="6.92858">
        <ele>956</ele>
        <time>2026-05-09T17:56:14.498Z</time>
      </trkpt>
      <trkpt lat="47.89338" lon="6.92856">
        <ele>956</ele>
        <time>2026-05-09T17:56:15.499Z</time>
      </trkpt>
      <trkpt lat="47.89337" lon="6.92855">
        <ele>956</ele>
        <time>2026-05-09T17:56:16.499Z</time>
      </trkpt>
      <trkpt lat="47.89337" lon="6.92853">
        <ele>955</ele>
        <time>2026-05-09T17:56:17.498Z</time>
      </trkpt>
      <trkpt lat="47.89337" lon="6.92851">
        <ele>955</ele>
        <time>2026-05-09T17:56:18.499Z</time>
      </trkpt>
      <trkpt lat="47.89337" lon="6.92848">
        <ele>956</ele>
        <time>2026-05-09T17:56:19.499Z</time>
      </trkpt>
      <trkpt lat="47.89337" lon="6.92846">
        <ele>957</ele>
        <time>2026-05-09T17:56:20.498Z</time>
      </trkpt>
      <trkpt lat="47.89338" lon="6.92845">
        <ele>957</ele>
        <time>2026-05-09T17:56:21.499Z</time>
      </trkpt>
      <trkpt lat="47.89338" lon="6.92843">
        <ele>957</ele>
        <time>2026-05-09T17:56:22.499Z</time>
      </trkpt>
      <trkpt lat="47.89339" lon="6.92842">
        <ele>958</ele>
        <time>2026-05-09T17:56:23.498Z</time>
      </trkpt>
      <trkpt lat="47.89339" lon="6.9284">
        <ele>958</ele>
        <time>2026-05-09T17:56:24.498Z</time>
      </trkpt>
      <trkpt lat="47.89339" lon="6.92839">
        <ele>957</ele>
        <time>2026-05-09T17:56:25.498Z</time>
      </trkpt>
      <trkpt lat="47.89339" lon="6.92837">
        <ele>957</ele>
        <time>2026-05-09T17:56:26.499Z</time>
      </trkpt>
      <trkpt lat="47.89339" lon="6.92836">
        <ele>957</ele>
        <time>2026-05-09T17:56:27.499Z</time>
      </trkpt>
      <trkpt lat="47.89339" lon="6.92834">
        <ele>956</ele>
        <time>2026-05-09T17:56:28.499Z</time>
      </trkpt>
      <trkpt lat="47.89339" lon="6.92833">
        <ele>956</ele>
        <time>2026-05-09T17:56:29.499Z</time>
      </trkpt>
      <trkpt lat="47.8934" lon="6.92831">
        <ele>955</ele>
        <time>2026-05-09T17:56:30.499Z</time>
      </trkpt>
      <trkpt lat="47.8934" lon="6.9283">
        <ele>954</ele>
        <time>2026-05-09T17:56:31.498Z</time>
      </trkpt>
      <trkpt lat="47.8934" lon="6.92828">
        <ele>953</ele>
        <time>2026-05-09T17:56:32.498Z</time>
      </trkpt>
      <trkpt lat="47.8934" lon="6.92826">
        <ele>952</ele>
        <time>2026-05-09T17:56:33.499Z</time>
      </trkpt>
      <trkpt lat="47.89341" lon="6.92824">
        <ele>951</ele>
        <time>2026-05-09T17:56:34.498Z</time>
      </trkpt>
      <trkpt lat="47.89341" lon="6.92823">
        <ele>950</ele>
        <time>2026-05-09T17:56:35.499Z</time>
      </trkpt>
      <trkpt lat="47.89341" lon="6.9282">
        <ele>949</ele>
        <time>2026-05-09T17:56:36.498Z</time>
      </trkpt>
      <trkpt lat="47.89342" lon="6.92818">
        <ele>948</ele>
        <time>2026-05-09T17:56:37.499Z</time>
      </trkpt>
      <trkpt lat="47.89342" lon="6.92816">
        <ele>947</ele>
        <time>2026-05-09T17:56:38.498Z</time>
      </trkpt>
      <trkpt lat="47.89342" lon="6.92815">
        <ele>946</ele>
        <time>2026-05-09T17:56:39.498Z</time>
      </trkpt>
      <trkpt lat="47.89343" lon="6.92813">
        <ele>946</ele>
        <time>2026-05-09T17:56:40.499Z</time>
      </trkpt>
      <trkpt lat="47.89343" lon="6.92811">
        <ele>945</ele>
        <time>2026-05-09T17:56:41.499Z</time>
      </trkpt>
      <trkpt lat="47.89344" lon="6.9281">
        <ele>945</ele>
        <time>2026-05-09T17:56:42.498Z</time>
      </trkpt>
      <trkpt lat="47.89344" lon="6.92807">
        <ele>945</ele>
        <time>2026-05-09T17:56:43.498Z</time>
      </trkpt>
      <trkpt lat="47.89345" lon="6.92805">
        <ele>945</ele>
        <time>2026-05-09T17:56:44.498Z</time>
      </trkpt>
      <trkpt lat="47.89345" lon="6.92803">
        <ele>944</ele>
        <time>2026-05-09T17:56:45.499Z</time>
      </trkpt>
      <trkpt lat="47.89346" lon="6.92801">
        <ele>944</ele>
        <time>2026-05-09T17:56:46.499Z</time>
      </trkpt>
      <trkpt lat="47.89346" lon="6.92799">
        <ele>944</ele>
        <time>2026-05-09T17:56:47.498Z</time>
      </trkpt>
      <trkpt lat="47.89347" lon="6.92798">
        <ele>944</ele>
        <time>2026-05-09T17:56:48.499Z</time>
      </trkpt>
      <trkpt lat="47.89347" lon="6.92796">
        <ele>944</ele>
        <time>2026-05-09T17:56:49.498Z</time>
      </trkpt>
      <trkpt lat="47.89348" lon="6.92794">
        <ele>944</ele>
        <time>2026-05-09T17:56:50.499Z</time>
      </trkpt>
      <trkpt lat="47.89349" lon="6.92793">
        <ele>944</ele>
        <time>2026-05-09T17:56:51.498Z</time>
      </trkpt>
      <trkpt lat="47.89349" lon="6.92791">
        <ele>944</ele>
        <time>2026-05-09T17:56:52.498Z</time>
      </trkpt>
      <trkpt lat="47.8935" lon="6.92789">
        <ele>945</ele>
        <time>2026-05-09T17:56:53.499Z</time>
      </trkpt>
      <trkpt lat="47.8935" lon="6.92787">
        <ele>945</ele>
        <time>2026-05-09T17:56:54.498Z</time>
      </trkpt>
      <trkpt lat="47.8935" lon="6.92785">
        <ele>946</ele>
        <time>2026-05-09T17:56:55.498Z</time>
      </trkpt>
      <trkpt lat="47.89351" lon="6.92783">
        <ele>947</ele>
        <time>2026-05-09T17:56:56.499Z</time>
      </trkpt>
      <trkpt lat="47.89351" lon="6.92781">
        <ele>947</ele>
        <time>2026-05-09T17:56:57.499Z</time>
      </trkpt>
      <trkpt lat="47.89351" lon="6.92779">
        <ele>948</ele>
        <time>2026-05-09T17:56:58.499Z</time>
      </trkpt>
      <trkpt lat="47.89352" lon="6.92777">
        <ele>948</ele>
        <time>2026-05-09T17:56:59.499Z</time>
      </trkpt>
      <trkpt lat="47.89352" lon="6.92775">
        <ele>948</ele>
        <time>2026-05-09T17:57:00.499Z</time>
      </trkpt>
      <trkpt lat="47.89352" lon="6.92773">
        <ele>948</ele>
        <time>2026-05-09T17:57:01.499Z</time>
      </trkpt>
      <trkpt lat="47.89353" lon="6.92771">
        <ele>949</ele>
        <time>2026-05-09T17:57:02.498Z</time>
      </trkpt>
      <trkpt lat="47.89353" lon="6.92769">
        <ele>949</ele>
        <time>2026-05-09T17:57:03.499Z</time>
      </trkpt>
      <trkpt lat="47.89353" lon="6.92767">
        <ele>949</ele>
        <time>2026-05-09T17:57:04.498Z</time>
      </trkpt>
      <trkpt lat="47.89353" lon="6.92765">
        <ele>949</ele>
        <time>2026-05-09T17:57:05.499Z</time>
      </trkpt>
      <trkpt lat="47.89353" lon="6.92763">
        <ele>949</ele>
        <time>2026-05-09T17:57:06.498Z</time>
      </trkpt>
      <trkpt lat="47.89353" lon="6.92762">
        <ele>949</ele>
        <time>2026-05-09T17:57:07.498Z</time>
      </trkpt>
      <trkpt lat="47.89353" lon="6.9276">
        <ele>948</ele>
        <time>2026-05-09T17:57:08.498Z</time>
      </trkpt>
      <trkpt lat="47.89353" lon="6.92758">
        <ele>948</ele>
        <time>2026-05-09T17:57:09.498Z</time>
      </trkpt>
      <trkpt lat="47.89352" lon="6.92756">
        <ele>949</ele>
        <time>2026-05-09T17:57:10.499Z</time>
      </trkpt>
      <trkpt lat="47.89352" lon="6.92754">
        <ele>949</ele>
        <time>2026-05-09T17:57:11.499Z</time>
      </trkpt>
      <trkpt lat="47.89352" lon="6.92752">
        <ele>949</ele>
        <time>2026-05-09T17:57:12.498Z</time>
      </trkpt>
      <trkpt lat="47.89351" lon="6.9275">
        <ele>950</ele>
        <time>2026-05-09T17:57:13.499Z</time>
      </trkpt>
      <trkpt lat="47.89351" lon="6.92748">
        <ele>950</ele>
        <time>2026-05-09T17:57:14.499Z</time>
      </trkpt>
      <trkpt lat="47.89352" lon="6.92746">
        <ele>950</ele>
        <time>2026-05-09T17:57:15.498Z</time>
      </trkpt>
      <trkpt lat="47.89352" lon="6.92744">
        <ele>950</ele>
        <time>2026-05-09T17:57:16.498Z</time>
      </trkpt>
      <trkpt lat="47.89352" lon="6.92742">
        <ele>950</ele>
        <time>2026-05-09T17:57:17.499Z</time>
      </trkpt>
      <trkpt lat="47.89353" lon="6.9274">
        <ele>950</ele>
        <time>2026-05-09T17:57:18.499Z</time>
      </trkpt>
      <trkpt lat="47.89353" lon="6.92738">
        <ele>950</ele>
        <time>2026-05-09T17:57:19.498Z</time>
      </trkpt>
      <trkpt lat="47.89354" lon="6.92736">
        <ele>950</ele>
        <time>2026-05-09T17:57:20.499Z</time>
      </trkpt>
      <trkpt lat="47.89354" lon="6.92734">
        <ele>950</ele>
        <time>2026-05-09T17:57:21.499Z</time>
      </trkpt>
      <trkpt lat="47.89355" lon="6.92732">
        <ele>950</ele>
        <time>2026-05-09T17:57:22.498Z</time>
      </trkpt>
      <trkpt lat="47.89355" lon="6.9273">
        <ele>950</ele>
        <time>2026-05-09T17:57:23.498Z</time>
      </trkpt>
      <trkpt lat="47.89356" lon="6.92728">
        <ele>950</ele>
        <time>2026-05-09T17:57:24.499Z</time>
      </trkpt>
      <trkpt lat="47.89357" lon="6.92726">
        <ele>951</ele>
        <time>2026-05-09T17:57:25.498Z</time>
      </trkpt>
      <trkpt lat="47.89357" lon="6.92725">
        <ele>951</ele>
        <time>2026-05-09T17:57:26.498Z</time>
      </trkpt>
      <trkpt lat="47.89358" lon="6.92723">
        <ele>951</ele>
        <time>2026-05-09T17:57:27.499Z</time>
      </trkpt>
      <trkpt lat="47.89358" lon="6.92721">
        <ele>951</ele>
        <time>2026-05-09T17:57:28.499Z</time>
      </trkpt>
      <trkpt lat="47.89359" lon="6.92719">
        <ele>951</ele>
        <time>2026-05-09T17:57:29.499Z</time>
      </trkpt>
      <trkpt lat="47.89359" lon="6.92717">
        <ele>951</ele>
        <time>2026-05-09T17:57:30.498Z</time>
      </trkpt>
      <trkpt lat="47.89359" lon="6.92715">
        <ele>951</ele>
        <time>2026-05-09T17:57:31.498Z</time>
      </trkpt>
      <trkpt lat="47.8936" lon="6.92713">
        <ele>951</ele>
        <time>2026-05-09T17:57:32.498Z</time>
      </trkpt>
      <trkpt lat="47.8936" lon="6.92712">
        <ele>952</ele>
        <time>2026-05-09T17:57:33.498Z</time>
      </trkpt>
      <trkpt lat="47.89361" lon="6.9271">
        <ele>952</ele>
        <time>2026-05-09T17:57:34.499Z</time>
      </trkpt>
      <trkpt lat="47.89362" lon="6.92708">
        <ele>951</ele>
        <time>2026-05-09T17:57:35.499Z</time>
      </trkpt>
      <trkpt lat="47.89362" lon="6.92706">
        <ele>952</ele>
        <time>2026-05-09T17:57:36.499Z</time>
      </trkpt>
      <trkpt lat="47.89362" lon="6.92704">
        <ele>952</ele>
        <time>2026-05-09T17:57:37.499Z</time>
      </trkpt>
      <trkpt lat="47.89363" lon="6.92702">
        <ele>952</ele>
        <time>2026-05-09T17:57:38.499Z</time>
      </trkpt>
      <trkpt lat="47.89363" lon="6.927">
        <ele>952</ele>
        <time>2026-05-09T17:57:39.498Z</time>
      </trkpt>
      <trkpt lat="47.89364" lon="6.92698">
        <ele>953</ele>
        <time>2026-05-09T17:57:40.498Z</time>
      </trkpt>
      <trkpt lat="47.89365" lon="6.92696">
        <ele>953</ele>
        <time>2026-05-09T17:57:41.499Z</time>
      </trkpt>
      <trkpt lat="47.89365" lon="6.92694">
        <ele>953</ele>
        <time>2026-05-09T17:57:42.498Z</time>
      </trkpt>
      <trkpt lat="47.89366" lon="6.92692">
        <ele>953</ele>
        <time>2026-05-09T17:57:43.499Z</time>
      </trkpt>
      <trkpt lat="47.89366" lon="6.92689">
        <ele>954</ele>
        <time>2026-05-09T17:57:44.498Z</time>
      </trkpt>
      <trkpt lat="47.89366" lon="6.92687">
        <ele>954</ele>
        <time>2026-05-09T17:57:45.499Z</time>
      </trkpt>
      <trkpt lat="47.89367" lon="6.92685">
        <ele>954</ele>
        <time>2026-05-09T17:57:46.498Z</time>
      </trkpt>
      <trkpt lat="47.89367" lon="6.92683">
        <ele>954</ele>
        <time>2026-05-09T17:57:47.498Z</time>
      </trkpt>
      <trkpt lat="47.89368" lon="6.92682">
        <ele>954</ele>
        <time>2026-05-09T17:57:48.498Z</time>
      </trkpt>
      <trkpt lat="47.89369" lon="6.9268">
        <ele>954</ele>
        <time>2026-05-09T17:57:49.499Z</time>
      </trkpt>
      <trkpt lat="47.89369" lon="6.92678">
        <ele>954</ele>
        <time>2026-05-09T17:57:50.499Z</time>
      </trkpt>
      <trkpt lat="47.8937" lon="6.92676">
        <ele>953</ele>
        <time>2026-05-09T17:57:51.498Z</time>
      </trkpt>
      <trkpt lat="47.89371" lon="6.92674">
        <ele>953</ele>
        <time>2026-05-09T17:57:52.498Z</time>
      </trkpt>
      <trkpt lat="47.89371" lon="6.92673">
        <ele>953</ele>
        <time>2026-05-09T17:57:53.499Z</time>
      </trkpt>
      <trkpt lat="47.89372" lon="6.92671">
        <ele>953</ele>
        <time>2026-05-09T17:57:54.499Z</time>
      </trkpt>
      <trkpt lat="47.89372" lon="6.92669">
        <ele>953</ele>
        <time>2026-05-09T17:57:55.498Z</time>
      </trkpt>
      <trkpt lat="47.89373" lon="6.92667">
        <ele>953</ele>
        <time>2026-05-09T17:57:56.499Z</time>
      </trkpt>
      <trkpt lat="47.89374" lon="6.92665">
        <ele>953</ele>
        <time>2026-05-09T17:57:57.498Z</time>
      </trkpt>
      <trkpt lat="47.89374" lon="6.92663">
        <ele>953</ele>
        <time>2026-05-09T17:57:58.499Z</time>
      </trkpt>
      <trkpt lat="47.89375" lon="6.92661">
        <ele>953</ele>
        <time>2026-05-09T17:57:59.498Z</time>
      </trkpt>
      <trkpt lat="47.89375" lon="6.9266">
        <ele>953</ele>
        <time>2026-05-09T17:58:00.499Z</time>
      </trkpt>
      <trkpt lat="47.89376" lon="6.92658">
        <ele>953</ele>
        <time>2026-05-09T17:58:01.499Z</time>
      </trkpt>
      <trkpt lat="47.89376" lon="6.92656">
        <ele>953</ele>
        <time>2026-05-09T17:58:02.498Z</time>
      </trkpt>
      <trkpt lat="47.89376" lon="6.92654">
        <ele>954</ele>
        <time>2026-05-09T17:58:03.498Z</time>
      </trkpt>
      <trkpt lat="47.89377" lon="6.92652">
        <ele>954</ele>
        <time>2026-05-09T17:58:04.499Z</time>
      </trkpt>
      <trkpt lat="47.89377" lon="6.9265">
        <ele>954</ele>
        <time>2026-05-09T17:58:05.499Z</time>
      </trkpt>
      <trkpt lat="47.89377" lon="6.92649">
        <ele>954</ele>
        <time>2026-05-09T17:58:06.498Z</time>
      </trkpt>
      <trkpt lat="47.89378" lon="6.92646">
        <ele>954</ele>
        <time>2026-05-09T17:58:07.498Z</time>
      </trkpt>
      <trkpt lat="47.89378" lon="6.92645">
        <ele>954</ele>
        <time>2026-05-09T17:58:08.498Z</time>
      </trkpt>
      <trkpt lat="47.89379" lon="6.92643">
        <ele>954</ele>
        <time>2026-05-09T17:58:09.498Z</time>
      </trkpt>
      <trkpt lat="47.89379" lon="6.92641">
        <ele>954</ele>
        <time>2026-05-09T17:58:10.498Z</time>
      </trkpt>
      <trkpt lat="47.89379" lon="6.92639">
        <ele>954</ele>
        <time>2026-05-09T17:58:11.498Z</time>
      </trkpt>
      <trkpt lat="47.89379" lon="6.92637">
        <ele>954</ele>
        <time>2026-05-09T17:58:12.499Z</time>
      </trkpt>
      <trkpt lat="47.89379" lon="6.92635">
        <ele>954</ele>
        <time>2026-05-09T17:58:13.499Z</time>
      </trkpt>
      <trkpt lat="47.89379" lon="6.92633">
        <ele>954</ele>
        <time>2026-05-09T17:58:14.499Z</time>
      </trkpt>
      <trkpt lat="47.8938" lon="6.92631">
        <ele>954</ele>
        <time>2026-05-09T17:58:15.499Z</time>
      </trkpt>
      <trkpt lat="47.8938" lon="6.9263">
        <ele>954</ele>
        <time>2026-05-09T17:58:16.499Z</time>
      </trkpt>
      <trkpt lat="47.8938" lon="6.92628">
        <ele>954</ele>
        <time>2026-05-09T17:58:17.498Z</time>
      </trkpt>
      <trkpt lat="47.8938" lon="6.92626">
        <ele>954</ele>
        <time>2026-05-09T17:58:18.499Z</time>
      </trkpt>
      <trkpt lat="47.89381" lon="6.92624">
        <ele>954</ele>
        <time>2026-05-09T17:58:19.498Z</time>
      </trkpt>
      <trkpt lat="47.89381" lon="6.92622">
        <ele>954</ele>
        <time>2026-05-09T17:58:20.499Z</time>
      </trkpt>
      <trkpt lat="47.89381" lon="6.9262">
        <ele>954</ele>
        <time>2026-05-09T17:58:21.499Z</time>
      </trkpt>
      <trkpt lat="47.89382" lon="6.92619">
        <ele>953</ele>
        <time>2026-05-09T17:58:22.499Z</time>
      </trkpt>
      <trkpt lat="47.89382" lon="6.92617">
        <ele>953</ele>
        <time>2026-05-09T17:58:23.498Z</time>
      </trkpt>
      <trkpt lat="47.89382" lon="6.92615">
        <ele>953</ele>
        <time>2026-05-09T17:58:24.498Z</time>
      </trkpt>
      <trkpt lat="47.89382" lon="6.92614">
        <ele>952</ele>
        <time>2026-05-09T17:58:25.499Z</time>
      </trkpt>
      <trkpt lat="47.89382" lon="6.92612">
        <ele>952</ele>
        <time>2026-05-09T17:58:26.499Z</time>
      </trkpt>
      <trkpt lat="47.89382" lon="6.9261">
        <ele>952</ele>
        <time>2026-05-09T17:58:27.498Z</time>
      </trkpt>
      <trkpt lat="47.89383" lon="6.92608">
        <ele>952</ele>
        <time>2026-05-09T17:58:28.498Z</time>
      </trkpt>
      <trkpt lat="47.89383" lon="6.92607">
        <ele>952</ele>
        <time>2026-05-09T17:58:29.499Z</time>
      </trkpt>
      <trkpt lat="47.89383" lon="6.92605">
        <ele>953</ele>
        <time>2026-05-09T17:58:30.498Z</time>
      </trkpt>
      <trkpt lat="47.89383" lon="6.92603">
        <ele>953</ele>
        <time>2026-05-09T17:58:31.498Z</time>
      </trkpt>
      <trkpt lat="47.89383" lon="6.92601">
        <ele>953</ele>
        <time>2026-05-09T17:58:32.498Z</time>
      </trkpt>
      <trkpt lat="47.89383" lon="6.92599">
        <ele>953</ele>
        <time>2026-05-09T17:58:33.498Z</time>
      </trkpt>
      <trkpt lat="47.89383" lon="6.92597">
        <ele>953</ele>
        <time>2026-05-09T17:58:34.499Z</time>
      </trkpt>
      <trkpt lat="47.89383" lon="6.92596">
        <ele>953</ele>
        <time>2026-05-09T17:58:35.499Z</time>
      </trkpt>
      <trkpt lat="47.89383" lon="6.92594">
        <ele>954</ele>
        <time>2026-05-09T17:58:36.499Z</time>
      </trkpt>
      <trkpt lat="47.89383" lon="6.92592">
        <ele>954</ele>
        <time>2026-05-09T17:58:37.499Z</time>
      </trkpt>
      <trkpt lat="47.89383" lon="6.9259">
        <ele>954</ele>
        <time>2026-05-09T17:58:38.498Z</time>
      </trkpt>
      <trkpt lat="47.89383" lon="6.92588">
        <ele>954</ele>
        <time>2026-05-09T17:58:39.498Z</time>
      </trkpt>
      <trkpt lat="47.89382" lon="6.92587">
        <ele>955</ele>
        <time>2026-05-09T17:58:40.498Z</time>
      </trkpt>
      <trkpt lat="47.89382" lon="6.92585">
        <ele>955</ele>
        <time>2026-05-09T17:58:41.498Z</time>
      </trkpt>
      <trkpt lat="47.89382" lon="6.92583">
        <ele>955</ele>
        <time>2026-05-09T17:58:42.499Z</time>
      </trkpt>
      <trkpt lat="47.89382" lon="6.92581">
        <ele>956</ele>
        <time>2026-05-09T17:58:43.499Z</time>
      </trkpt>
      <trkpt lat="47.89382" lon="6.92579">
        <ele>956</ele>
        <time>2026-05-09T17:58:44.499Z</time>
      </trkpt>
      <trkpt lat="47.89382" lon="6.92577">
        <ele>956</ele>
        <time>2026-05-09T17:58:45.498Z</time>
      </trkpt>
      <trkpt lat="47.89381" lon="6.92574">
        <ele>956</ele>
        <time>2026-05-09T17:58:46.499Z</time>
      </trkpt>
      <trkpt lat="47.89381" lon="6.92572">
        <ele>957</ele>
        <time>2026-05-09T17:58:47.499Z</time>
      </trkpt>
      <trkpt lat="47.89381" lon="6.9257">
        <ele>957</ele>
        <time>2026-05-09T17:58:48.498Z</time>
      </trkpt>
      <trkpt lat="47.89381" lon="6.92568">
        <ele>957</ele>
        <time>2026-05-09T17:58:49.498Z</time>
      </trkpt>
      <trkpt lat="47.89381" lon="6.92566">
        <ele>957</ele>
        <time>2026-05-09T17:58:50.498Z</time>
      </trkpt>
      <trkpt lat="47.89381" lon="6.92564">
        <ele>956</ele>
        <time>2026-05-09T17:58:51.498Z</time>
      </trkpt>
      <trkpt lat="47.89381" lon="6.92562">
        <ele>956</ele>
        <time>2026-05-09T17:58:52.499Z</time>
      </trkpt>
      <trkpt lat="47.89381" lon="6.9256">
        <ele>956</ele>
        <time>2026-05-09T17:58:53.498Z</time>
      </trkpt>
      <trkpt lat="47.89381" lon="6.92558">
        <ele>956</ele>
        <time>2026-05-09T17:58:54.499Z</time>
      </trkpt>
      <trkpt lat="47.89381" lon="6.92556">
        <ele>956</ele>
        <time>2026-05-09T17:58:55.499Z</time>
      </trkpt>
      <trkpt lat="47.89381" lon="6.92554">
        <ele>956</ele>
        <time>2026-05-09T17:58:56.498Z</time>
      </trkpt>
      <trkpt lat="47.89381" lon="6.92552">
        <ele>957</ele>
        <time>2026-05-09T17:58:57.499Z</time>
      </trkpt>
      <trkpt lat="47.89381" lon="6.9255">
        <ele>957</ele>
        <time>2026-05-09T17:58:58.499Z</time>
      </trkpt>
      <trkpt lat="47.89381" lon="6.92548">
        <ele>957</ele>
        <time>2026-05-09T17:58:59.499Z</time>
      </trkpt>
      <trkpt lat="47.89381" lon="6.92546">
        <ele>958</ele>
        <time>2026-05-09T17:59:00.499Z</time>
      </trkpt>
      <trkpt lat="47.89381" lon="6.92544">
        <ele>958</ele>
        <time>2026-05-09T17:59:01.498Z</time>
      </trkpt>
      <trkpt lat="47.89381" lon="6.92542">
        <ele>958</ele>
        <time>2026-05-09T17:59:02.498Z</time>
      </trkpt>
      <trkpt lat="47.89381" lon="6.9254">
        <ele>958</ele>
        <time>2026-05-09T17:59:03.499Z</time>
      </trkpt>
      <trkpt lat="47.89381" lon="6.92538">
        <ele>958</ele>
        <time>2026-05-09T17:59:04.498Z</time>
      </trkpt>
      <trkpt lat="47.8938" lon="6.92536">
        <ele>959</ele>
        <time>2026-05-09T17:59:05.499Z</time>
      </trkpt>
      <trkpt lat="47.8938" lon="6.92533">
        <ele>959</ele>
        <time>2026-05-09T17:59:06.498Z</time>
      </trkpt>
      <trkpt lat="47.8938" lon="6.92532">
        <ele>959</ele>
        <time>2026-05-09T17:59:07.499Z</time>
      </trkpt>
      <trkpt lat="47.8938" lon="6.9253">
        <ele>960</ele>
        <time>2026-05-09T17:59:08.499Z</time>
      </trkpt>
      <trkpt lat="47.8938" lon="6.92528">
        <ele>960</ele>
        <time>2026-05-09T17:59:09.499Z</time>
      </trkpt>
      <trkpt lat="47.8938" lon="6.92526">
        <ele>960</ele>
        <time>2026-05-09T17:59:10.499Z</time>
      </trkpt>
      <trkpt lat="47.8938" lon="6.92524">
        <ele>960</ele>
        <time>2026-05-09T17:59:11.499Z</time>
      </trkpt>
      <trkpt lat="47.8938" lon="6.92522">
        <ele>960</ele>
        <time>2026-05-09T17:59:12.498Z</time>
      </trkpt>
      <trkpt lat="47.8938" lon="6.9252">
        <ele>960</ele>
        <time>2026-05-09T17:59:13.499Z</time>
      </trkpt>
      <trkpt lat="47.8938" lon="6.92518">
        <ele>960</ele>
        <time>2026-05-09T17:59:14.499Z</time>
      </trkpt>
      <trkpt lat="47.89381" lon="6.92516">
        <ele>960</ele>
        <time>2026-05-09T17:59:15.498Z</time>
      </trkpt>
      <trkpt lat="47.89381" lon="6.92514">
        <ele>960</ele>
        <time>2026-05-09T17:59:16.499Z</time>
      </trkpt>
      <trkpt lat="47.89381" lon="6.92513">
        <ele>960</ele>
        <time>2026-05-09T17:59:17.499Z</time>
      </trkpt>
      <trkpt lat="47.89381" lon="6.92511">
        <ele>960</ele>
        <time>2026-05-09T17:59:18.498Z</time>
      </trkpt>
      <trkpt lat="47.8938" lon="6.92509">
        <ele>960</ele>
        <time>2026-05-09T17:59:19.499Z</time>
      </trkpt>
      <trkpt lat="47.8938" lon="6.92508">
        <ele>960</ele>
        <time>2026-05-09T17:59:20.498Z</time>
      </trkpt>
      <trkpt lat="47.8938" lon="6.92506">
        <ele>960</ele>
        <time>2026-05-09T17:59:21.498Z</time>
      </trkpt>
      <trkpt lat="47.8938" lon="6.92504">
        <ele>960</ele>
        <time>2026-05-09T17:59:22.499Z</time>
      </trkpt>
      <trkpt lat="47.8938" lon="6.92503">
        <ele>960</ele>
        <time>2026-05-09T17:59:23.498Z</time>
      </trkpt>
      <trkpt lat="47.89379" lon="6.92501">
        <ele>960</ele>
        <time>2026-05-09T17:59:24.499Z</time>
      </trkpt>
      <trkpt lat="47.89379" lon="6.92499">
        <ele>960</ele>
        <time>2026-05-09T17:59:25.498Z</time>
      </trkpt>
      <trkpt lat="47.89378" lon="6.92497">
        <ele>961</ele>
        <time>2026-05-09T17:59:26.499Z</time>
      </trkpt>
      <trkpt lat="47.89378" lon="6.92495">
        <ele>961</ele>
        <time>2026-05-09T17:59:27.498Z</time>
      </trkpt>
      <trkpt lat="47.89378" lon="6.92492">
        <ele>961</ele>
        <time>2026-05-09T17:59:28.499Z</time>
      </trkpt>
      <trkpt lat="47.89377" lon="6.92491">
        <ele>961</ele>
        <time>2026-05-09T17:59:29.498Z</time>
      </trkpt>
      <trkpt lat="47.89377" lon="6.92488">
        <ele>961</ele>
        <time>2026-05-09T17:59:30.498Z</time>
      </trkpt>
      <trkpt lat="47.89377" lon="6.92487">
        <ele>961</ele>
        <time>2026-05-09T17:59:31.499Z</time>
      </trkpt>
      <trkpt lat="47.89376" lon="6.92485">
        <ele>961</ele>
        <time>2026-05-09T17:59:32.498Z</time>
      </trkpt>
      <trkpt lat="47.89376" lon="6.92483">
        <ele>961</ele>
        <time>2026-05-09T17:59:33.499Z</time>
      </trkpt>
      <trkpt lat="47.89376" lon="6.92481">
        <ele>961</ele>
        <time>2026-05-09T17:59:34.498Z</time>
      </trkpt>
      <trkpt lat="47.89375" lon="6.9248">
        <ele>961</ele>
        <time>2026-05-09T17:59:35.499Z</time>
      </trkpt>
      <trkpt lat="47.89374" lon="6.92477">
        <ele>961</ele>
        <time>2026-05-09T17:59:36.498Z</time>
      </trkpt>
      <trkpt lat="47.89374" lon="6.92475">
        <ele>961</ele>
        <time>2026-05-09T17:59:37.499Z</time>
      </trkpt>
      <trkpt lat="47.89373" lon="6.92473">
        <ele>962</ele>
        <time>2026-05-09T17:59:38.498Z</time>
      </trkpt>
      <trkpt lat="47.89372" lon="6.92471">
        <ele>962</ele>
        <time>2026-05-09T17:59:39.499Z</time>
      </trkpt>
      <trkpt lat="47.89372" lon="6.92469">
        <ele>963</ele>
        <time>2026-05-09T17:59:40.498Z</time>
      </trkpt>
      <trkpt lat="47.89372" lon="6.92467">
        <ele>963</ele>
        <time>2026-05-09T17:59:41.498Z</time>
      </trkpt>
      <trkpt lat="47.89371" lon="6.92465">
        <ele>963</ele>
        <time>2026-05-09T17:59:42.499Z</time>
      </trkpt>
      <trkpt lat="47.89371" lon="6.92463">
        <ele>963</ele>
        <time>2026-05-09T17:59:43.498Z</time>
      </trkpt>
      <trkpt lat="47.8937" lon="6.92461">
        <ele>963</ele>
        <time>2026-05-09T17:59:44.498Z</time>
      </trkpt>
      <trkpt lat="47.8937" lon="6.9246">
        <ele>963</ele>
        <time>2026-05-09T17:59:45.498Z</time>
      </trkpt>
      <trkpt lat="47.89369" lon="6.92458">
        <ele>963</ele>
        <time>2026-05-09T17:59:46.499Z</time>
      </trkpt>
      <trkpt lat="47.89369" lon="6.92456">
        <ele>963</ele>
        <time>2026-05-09T17:59:47.498Z</time>
      </trkpt>
      <trkpt lat="47.89368" lon="6.92455">
        <ele>963</ele>
        <time>2026-05-09T17:59:48.499Z</time>
      </trkpt>
      <trkpt lat="47.89368" lon="6.92453">
        <ele>963</ele>
        <time>2026-05-09T17:59:49.498Z</time>
      </trkpt>
      <trkpt lat="47.89368" lon="6.92451">
        <ele>963</ele>
        <time>2026-05-09T17:59:50.498Z</time>
      </trkpt>
      <trkpt lat="47.89367" lon="6.92448">
        <ele>963</ele>
        <time>2026-05-09T17:59:51.499Z</time>
      </trkpt>
      <trkpt lat="47.89366" lon="6.92447">
        <ele>963</ele>
        <time>2026-05-09T17:59:52.498Z</time>
      </trkpt>
      <trkpt lat="47.89366" lon="6.92445">
        <ele>964</ele>
        <time>2026-05-09T17:59:53.499Z</time>
      </trkpt>
      <trkpt lat="47.89365" lon="6.92443">
        <ele>964</ele>
        <time>2026-05-09T17:59:54.498Z</time>
      </trkpt>
      <trkpt lat="47.89364" lon="6.92442">
        <ele>964</ele>
        <time>2026-05-09T17:59:55.499Z</time>
      </trkpt>
      <trkpt lat="47.89364" lon="6.9244">
        <ele>964</ele>
        <time>2026-05-09T17:59:56.498Z</time>
      </trkpt>
      <trkpt lat="47.89363" lon="6.92439">
        <ele>964</ele>
        <time>2026-05-09T17:59:57.499Z</time>
      </trkpt>
      <trkpt lat="47.89363" lon="6.92437">
        <ele>964</ele>
        <time>2026-05-09T17:59:58.498Z</time>
      </trkpt>
      <trkpt lat="47.89363" lon="6.92436">
        <ele>964</ele>
        <time>2026-05-09T17:59:59.499Z</time>
      </trkpt>
      <trkpt lat="47.89362" lon="6.92434">
        <ele>964</ele>
        <time>2026-05-09T18:00:00.498Z</time>
      </trkpt>
      <trkpt lat="47.89361" lon="6.92433">
        <ele>963</ele>
        <time>2026-05-09T18:00:01.499Z</time>
      </trkpt>
      <trkpt lat="47.89361" lon="6.92432">
        <ele>963</ele>
        <time>2026-05-09T18:00:02.498Z</time>
      </trkpt>
      <trkpt lat="47.8936" lon="6.9243">
        <ele>963</ele>
        <time>2026-05-09T18:00:03.499Z</time>
      </trkpt>
      <trkpt lat="47.89359" lon="6.92428">
        <ele>963</ele>
        <time>2026-05-09T18:00:04.498Z</time>
      </trkpt>
      <trkpt lat="47.89358" lon="6.92427">
        <ele>963</ele>
        <time>2026-05-09T18:00:05.498Z</time>
      </trkpt>
      <trkpt lat="47.89358" lon="6.92425">
        <ele>963</ele>
        <time>2026-05-09T18:00:06.499Z</time>
      </trkpt>
      <trkpt lat="47.89356" lon="6.92424">
        <ele>964</ele>
        <time>2026-05-09T18:00:07.499Z</time>
      </trkpt>
      <trkpt lat="47.89356" lon="6.92422">
        <ele>964</ele>
        <time>2026-05-09T18:00:08.498Z</time>
      </trkpt>
      <trkpt lat="47.89355" lon="6.92421">
        <ele>964</ele>
        <time>2026-05-09T18:00:09.498Z</time>
      </trkpt>
      <trkpt lat="47.89354" lon="6.92419">
        <ele>964</ele>
        <time>2026-05-09T18:00:10.499Z</time>
      </trkpt>
      <trkpt lat="47.89353" lon="6.92418">
        <ele>964</ele>
        <time>2026-05-09T18:00:11.499Z</time>
      </trkpt>
      <trkpt lat="47.89352" lon="6.92416">
        <ele>964</ele>
        <time>2026-05-09T18:00:12.498Z</time>
      </trkpt>
      <trkpt lat="47.89352" lon="6.92415">
        <ele>964</ele>
        <time>2026-05-09T18:00:13.499Z</time>
      </trkpt>
      <trkpt lat="47.89351" lon="6.92414">
        <ele>965</ele>
        <time>2026-05-09T18:00:14.498Z</time>
      </trkpt>
      <trkpt lat="47.8935" lon="6.92412">
        <ele>965</ele>
        <time>2026-05-09T18:00:15.499Z</time>
      </trkpt>
      <trkpt lat="47.89349" lon="6.92411">
        <ele>965</ele>
        <time>2026-05-09T18:00:16.498Z</time>
      </trkpt>
      <trkpt lat="47.89348" lon="6.92409">
        <ele>965</ele>
        <time>2026-05-09T18:00:17.499Z</time>
      </trkpt>
      <trkpt lat="47.89348" lon="6.92408">
        <ele>965</ele>
        <time>2026-05-09T18:00:18.498Z</time>
      </trkpt>
      <trkpt lat="47.89347" lon="6.92407">
        <ele>965</ele>
        <time>2026-05-09T18:00:19.499Z</time>
      </trkpt>
      <trkpt lat="47.89346" lon="6.92405">
        <ele>965</ele>
        <time>2026-05-09T18:00:20.499Z</time>
      </trkpt>
      <trkpt lat="47.89344" lon="6.92405">
        <ele>964</ele>
        <time>2026-05-09T18:00:21.498Z</time>
      </trkpt>
      <trkpt lat="47.89343" lon="6.92404">
        <ele>964</ele>
        <time>2026-05-09T18:00:22.499Z</time>
      </trkpt>
      <trkpt lat="47.89342" lon="6.92403">
        <ele>963</ele>
        <time>2026-05-09T18:00:23.498Z</time>
      </trkpt>
      <trkpt lat="47.89341" lon="6.92402">
        <ele>963</ele>
        <time>2026-05-09T18:00:24.499Z</time>
      </trkpt>
      <trkpt lat="47.8934" lon="6.92401">
        <ele>962</ele>
        <time>2026-05-09T18:00:25.498Z</time>
      </trkpt>
      <trkpt lat="47.89339" lon="6.924">
        <ele>962</ele>
        <time>2026-05-09T18:00:26.499Z</time>
      </trkpt>
      <trkpt lat="47.89338" lon="6.92399">
        <ele>962</ele>
        <time>2026-05-09T18:00:27.499Z</time>
      </trkpt>
      <trkpt lat="47.89337" lon="6.92397">
        <ele>962</ele>
        <time>2026-05-09T18:00:28.498Z</time>
      </trkpt>
      <trkpt lat="47.89336" lon="6.92396">
        <ele>962</ele>
        <time>2026-05-09T18:00:29.499Z</time>
      </trkpt>
      <trkpt lat="47.89335" lon="6.92394">
        <ele>961</ele>
        <time>2026-05-09T18:00:30.498Z</time>
      </trkpt>
      <trkpt lat="47.89334" lon="6.92393">
        <ele>961</ele>
        <time>2026-05-09T18:00:31.499Z</time>
      </trkpt>
      <trkpt lat="47.89332" lon="6.92393">
        <ele>961</ele>
        <time>2026-05-09T18:00:32.498Z</time>
      </trkpt>
      <trkpt lat="47.89331" lon="6.92392">
        <ele>961</ele>
        <time>2026-05-09T18:00:33.499Z</time>
      </trkpt>
      <trkpt lat="47.8933" lon="6.92391">
        <ele>961</ele>
        <time>2026-05-09T18:00:34.498Z</time>
      </trkpt>
      <trkpt lat="47.89328" lon="6.9239">
        <ele>961</ele>
        <time>2026-05-09T18:00:35.499Z</time>
      </trkpt>
      <trkpt lat="47.89327" lon="6.92389">
        <ele>961</ele>
        <time>2026-05-09T18:00:36.498Z</time>
      </trkpt>
      <trkpt lat="47.89326" lon="6.92388">
        <ele>961</ele>
        <time>2026-05-09T18:00:37.498Z</time>
      </trkpt>
      <trkpt lat="47.89324" lon="6.92387">
        <ele>961</ele>
        <time>2026-05-09T18:00:38.499Z</time>
      </trkpt>
      <trkpt lat="47.89323" lon="6.92386">
        <ele>961</ele>
        <time>2026-05-09T18:00:39.498Z</time>
      </trkpt>
      <trkpt lat="47.89322" lon="6.92385">
        <ele>961</ele>
        <time>2026-05-09T18:00:40.498Z</time>
      </trkpt>
      <trkpt lat="47.89321" lon="6.92384">
        <ele>960</ele>
        <time>2026-05-09T18:00:41.499Z</time>
      </trkpt>
      <trkpt lat="47.8932" lon="6.92383">
        <ele>960</ele>
        <time>2026-05-09T18:00:42.499Z</time>
      </trkpt>
      <trkpt lat="47.89319" lon="6.92382">
        <ele>960</ele>
        <time>2026-05-09T18:00:43.498Z</time>
      </trkpt>
      <trkpt lat="47.89317" lon="6.92381">
        <ele>960</ele>
        <time>2026-05-09T18:00:44.498Z</time>
      </trkpt>
      <trkpt lat="47.89316" lon="6.9238">
        <ele>960</ele>
        <time>2026-05-09T18:00:45.499Z</time>
      </trkpt>
      <trkpt lat="47.89315" lon="6.92379">
        <ele>960</ele>
        <time>2026-05-09T18:00:46.498Z</time>
      </trkpt>
      <trkpt lat="47.89313" lon="6.92378">
        <ele>959</ele>
        <time>2026-05-09T18:00:47.498Z</time>
      </trkpt>
      <trkpt lat="47.89312" lon="6.92377">
        <ele>960</ele>
        <time>2026-05-09T18:00:48.498Z</time>
      </trkpt>
      <trkpt lat="47.89311" lon="6.92377">
        <ele>960</ele>
        <time>2026-05-09T18:00:49.499Z</time>
      </trkpt>
      <trkpt lat="47.89309" lon="6.92376">
        <ele>960</ele>
        <time>2026-05-09T18:00:50.498Z</time>
      </trkpt>
      <trkpt lat="47.89308" lon="6.92375">
        <ele>960</ele>
        <time>2026-05-09T18:00:51.499Z</time>
      </trkpt>
      <trkpt lat="47.89307" lon="6.92373">
        <ele>961</ele>
        <time>2026-05-09T18:00:52.499Z</time>
      </trkpt>
      <trkpt lat="47.89306" lon="6.92372">
        <ele>961</ele>
        <time>2026-05-09T18:00:53.498Z</time>
      </trkpt>
      <trkpt lat="47.89304" lon="6.92371">
        <ele>961</ele>
        <time>2026-05-09T18:00:54.499Z</time>
      </trkpt>
      <trkpt lat="47.89303" lon="6.9237">
        <ele>961</ele>
        <time>2026-05-09T18:00:55.498Z</time>
      </trkpt>
      <trkpt lat="47.89302" lon="6.92369">
        <ele>961</ele>
        <time>2026-05-09T18:00:56.499Z</time>
      </trkpt>
      <trkpt lat="47.89301" lon="6.92368">
        <ele>961</ele>
        <time>2026-05-09T18:00:57.498Z</time>
      </trkpt>
      <trkpt lat="47.893" lon="6.92367">
        <ele>962</ele>
        <time>2026-05-09T18:00:58.499Z</time>
      </trkpt>
      <trkpt lat="47.89299" lon="6.92365">
        <ele>961</ele>
        <time>2026-05-09T18:00:59.499Z</time>
      </trkpt>
      <trkpt lat="47.89298" lon="6.92364">
        <ele>961</ele>
        <time>2026-05-09T18:01:00.498Z</time>
      </trkpt>
      <trkpt lat="47.89297" lon="6.92362">
        <ele>961</ele>
        <time>2026-05-09T18:01:01.499Z</time>
      </trkpt>
      <trkpt lat="47.89296" lon="6.92361">
        <ele>960</ele>
        <time>2026-05-09T18:01:02.498Z</time>
      </trkpt>
      <trkpt lat="47.89295" lon="6.92359">
        <ele>960</ele>
        <time>2026-05-09T18:01:03.498Z</time>
      </trkpt>
      <trkpt lat="47.89294" lon="6.92357">
        <ele>960</ele>
        <time>2026-05-09T18:01:04.498Z</time>
      </trkpt>
      <trkpt lat="47.89293" lon="6.92356">
        <ele>960</ele>
        <time>2026-05-09T18:01:05.499Z</time>
      </trkpt>
      <trkpt lat="47.89293" lon="6.92354">
        <ele>959</ele>
        <time>2026-05-09T18:01:06.498Z</time>
      </trkpt>
      <trkpt lat="47.89292" lon="6.92351">
        <ele>959</ele>
        <time>2026-05-09T18:01:07.499Z</time>
      </trkpt>
      <trkpt lat="47.89292" lon="6.92349">
        <ele>959</ele>
        <time>2026-05-09T18:01:08.498Z</time>
      </trkpt>
      <trkpt lat="47.89291" lon="6.92347">
        <ele>959</ele>
        <time>2026-05-09T18:01:09.499Z</time>
      </trkpt>
      <trkpt lat="47.89291" lon="6.92345">
        <ele>958</ele>
        <time>2026-05-09T18:01:10.498Z</time>
      </trkpt>
      <trkpt lat="47.8929" lon="6.92343">
        <ele>958</ele>
        <time>2026-05-09T18:01:11.499Z</time>
      </trkpt>
      <trkpt lat="47.8929" lon="6.92341">
        <ele>958</ele>
        <time>2026-05-09T18:01:12.498Z</time>
      </trkpt>
      <trkpt lat="47.89289" lon="6.92339">
        <ele>958</ele>
        <time>2026-05-09T18:01:13.499Z</time>
      </trkpt>
      <trkpt lat="47.89288" lon="6.92337">
        <ele>958</ele>
        <time>2026-05-09T18:01:14.498Z</time>
      </trkpt>
      <trkpt lat="47.89288" lon="6.92335">
        <ele>958</ele>
        <time>2026-05-09T18:01:15.499Z</time>
      </trkpt>
      <trkpt lat="47.89287" lon="6.92333">
        <ele>958</ele>
        <time>2026-05-09T18:01:16.498Z</time>
      </trkpt>
      <trkpt lat="47.89287" lon="6.92331">
        <ele>958</ele>
        <time>2026-05-09T18:01:17.499Z</time>
      </trkpt>
      <trkpt lat="47.89287" lon="6.92329">
        <ele>958</ele>
        <time>2026-05-09T18:01:18.498Z</time>
      </trkpt>
      <trkpt lat="47.89287" lon="6.92327">
        <ele>958</ele>
        <time>2026-05-09T18:01:19.499Z</time>
      </trkpt>
      <trkpt lat="47.89287" lon="6.92324">
        <ele>958</ele>
        <time>2026-05-09T18:01:20.498Z</time>
      </trkpt>
      <trkpt lat="47.89286" lon="6.92322">
        <ele>958</ele>
        <time>2026-05-09T18:01:21.499Z</time>
      </trkpt>
      <trkpt lat="47.89286" lon="6.92321">
        <ele>958</ele>
        <time>2026-05-09T18:01:22.498Z</time>
      </trkpt>
      <trkpt lat="47.89286" lon="6.92319">
        <ele>958</ele>
        <time>2026-05-09T18:01:23.499Z</time>
      </trkpt>
      <trkpt lat="47.89286" lon="6.92317">
        <ele>957</ele>
        <time>2026-05-09T18:01:24.499Z</time>
      </trkpt>
      <trkpt lat="47.89286" lon="6.92314">
        <ele>957</ele>
        <time>2026-05-09T18:01:25.498Z</time>
      </trkpt>
      <trkpt lat="47.89286" lon="6.92312">
        <ele>957</ele>
        <time>2026-05-09T18:01:26.499Z</time>
      </trkpt>
      <trkpt lat="47.89286" lon="6.92311">
        <ele>957</ele>
        <time>2026-05-09T18:01:27.498Z</time>
      </trkpt>
      <trkpt lat="47.89286" lon="6.92308">
        <ele>957</ele>
        <time>2026-05-09T18:01:28.498Z</time>
      </trkpt>
      <trkpt lat="47.89285" lon="6.92306">
        <ele>957</ele>
        <time>2026-05-09T18:01:29.499Z</time>
      </trkpt>
      <trkpt lat="47.89285" lon="6.92304">
        <ele>957</ele>
        <time>2026-05-09T18:01:30.498Z</time>
      </trkpt>
      <trkpt lat="47.89285" lon="6.92302">
        <ele>958</ele>
        <time>2026-05-09T18:01:31.499Z</time>
      </trkpt>
      <trkpt lat="47.89285" lon="6.92299">
        <ele>958</ele>
        <time>2026-05-09T18:01:32.499Z</time>
      </trkpt>
      <trkpt lat="47.89285" lon="6.92297">
        <ele>958</ele>
        <time>2026-05-09T18:01:33.498Z</time>
      </trkpt>
      <trkpt lat="47.89285" lon="6.92295">
        <ele>958</ele>
        <time>2026-05-09T18:01:34.499Z</time>
      </trkpt>
      <trkpt lat="47.89285" lon="6.92293">
        <ele>958</ele>
        <time>2026-05-09T18:01:35.498Z</time>
      </trkpt>
      <trkpt lat="47.89285" lon="6.92291">
        <ele>959</ele>
        <time>2026-05-09T18:01:36.499Z</time>
      </trkpt>
      <trkpt lat="47.89286" lon="6.92289">
        <ele>959</ele>
        <time>2026-05-09T18:01:37.498Z</time>
      </trkpt>
      <trkpt lat="47.89286" lon="6.92286">
        <ele>959</ele>
        <time>2026-05-09T18:01:38.498Z</time>
      </trkpt>
      <trkpt lat="47.89286" lon="6.92284">
        <ele>959</ele>
        <time>2026-05-09T18:01:39.498Z</time>
      </trkpt>
      <trkpt lat="47.89286" lon="6.92283">
        <ele>959</ele>
        <time>2026-05-09T18:01:40.499Z</time>
      </trkpt>
      <trkpt lat="47.89287" lon="6.92281">
        <ele>959</ele>
        <time>2026-05-09T18:01:41.498Z</time>
      </trkpt>
      <trkpt lat="47.89287" lon="6.92279">
        <ele>959</ele>
        <time>2026-05-09T18:01:42.499Z</time>
      </trkpt>
      <trkpt lat="47.89288" lon="6.92277">
        <ele>959</ele>
        <time>2026-05-09T18:01:43.498Z</time>
      </trkpt>
      <trkpt lat="47.89288" lon="6.92275">
        <ele>959</ele>
        <time>2026-05-09T18:01:44.499Z</time>
      </trkpt>
      <trkpt lat="47.89289" lon="6.92274">
        <ele>959</ele>
        <time>2026-05-09T18:01:45.498Z</time>
      </trkpt>
      <trkpt lat="47.89289" lon="6.92272">
        <ele>959</ele>
        <time>2026-05-09T18:01:46.498Z</time>
      </trkpt>
      <trkpt lat="47.8929" lon="6.9227">
        <ele>958</ele>
        <time>2026-05-09T18:01:47.499Z</time>
      </trkpt>
      <trkpt lat="47.8929" lon="6.92269">
        <ele>958</ele>
        <time>2026-05-09T18:01:48.498Z</time>
      </trkpt>
      <trkpt lat="47.89291" lon="6.92267">
        <ele>958</ele>
        <time>2026-05-09T18:01:49.498Z</time>
      </trkpt>
      <trkpt lat="47.89292" lon="6.92265">
        <ele>958</ele>
        <time>2026-05-09T18:01:50.498Z</time>
      </trkpt>
      <trkpt lat="47.89292" lon="6.92263">
        <ele>958</ele>
        <time>2026-05-09T18:01:51.499Z</time>
      </trkpt>
      <trkpt lat="47.89292" lon="6.92261">
        <ele>958</ele>
        <time>2026-05-09T18:01:52.498Z</time>
      </trkpt>
      <trkpt lat="47.89293" lon="6.92259">
        <ele>958</ele>
        <time>2026-05-09T18:01:53.498Z</time>
      </trkpt>
      <trkpt lat="47.89293" lon="6.92257">
        <ele>958</ele>
        <time>2026-05-09T18:01:54.498Z</time>
      </trkpt>
      <trkpt lat="47.89294" lon="6.92256">
        <ele>959</ele>
        <time>2026-05-09T18:01:55.498Z</time>
      </trkpt>
      <trkpt lat="47.89294" lon="6.92254">
        <ele>959</ele>
        <time>2026-05-09T18:01:56.499Z</time>
      </trkpt>
      <trkpt lat="47.89294" lon="6.92251">
        <ele>960</ele>
        <time>2026-05-09T18:01:57.498Z</time>
      </trkpt>
      <trkpt lat="47.89295" lon="6.92249">
        <ele>960</ele>
        <time>2026-05-09T18:01:58.499Z</time>
      </trkpt>
      <trkpt lat="47.89295" lon="6.92247">
        <ele>961</ele>
        <time>2026-05-09T18:01:59.499Z</time>
      </trkpt>
      <trkpt lat="47.89295" lon="6.92244">
        <ele>962</ele>
        <time>2026-05-09T18:02:00.498Z</time>
      </trkpt>
      <trkpt lat="47.89296" lon="6.92242">
        <ele>962</ele>
        <time>2026-05-09T18:02:01.499Z</time>
      </trkpt>
      <trkpt lat="47.89297" lon="6.9224">
        <ele>962</ele>
        <time>2026-05-09T18:02:02.498Z</time>
      </trkpt>
      <trkpt lat="47.89297" lon="6.92238">
        <ele>962</ele>
        <time>2026-05-09T18:02:03.499Z</time>
      </trkpt>
      <trkpt lat="47.89298" lon="6.92236">
        <ele>963</ele>
        <time>2026-05-09T18:02:04.499Z</time>
      </trkpt>
      <trkpt lat="47.89298" lon="6.92233">
        <ele>963</ele>
        <time>2026-05-09T18:02:05.498Z</time>
      </trkpt>
      <trkpt lat="47.89298" lon="6.92231">
        <ele>963</ele>
        <time>2026-05-09T18:02:06.498Z</time>
      </trkpt>
      <trkpt lat="47.89299" lon="6.92229">
        <ele>963</ele>
        <time>2026-05-09T18:02:07.498Z</time>
      </trkpt>
      <trkpt lat="47.893" lon="6.92227">
        <ele>964</ele>
        <time>2026-05-09T18:02:08.499Z</time>
      </trkpt>
      <trkpt lat="47.893" lon="6.92224">
        <ele>964</ele>
        <time>2026-05-09T18:02:09.499Z</time>
      </trkpt>
      <trkpt lat="47.89301" lon="6.92222">
        <ele>964</ele>
        <time>2026-05-09T18:02:10.498Z</time>
      </trkpt>
      <trkpt lat="47.89301" lon="6.9222">
        <ele>964</ele>
        <time>2026-05-09T18:02:11.499Z</time>
      </trkpt>
      <trkpt lat="47.89302" lon="6.92219">
        <ele>965</ele>
        <time>2026-05-09T18:02:12.498Z</time>
      </trkpt>
      <trkpt lat="47.89302" lon="6.92217">
        <ele>965</ele>
        <time>2026-05-09T18:02:13.499Z</time>
      </trkpt>
      <trkpt lat="47.89303" lon="6.92215">
        <ele>964</ele>
        <time>2026-05-09T18:02:14.498Z</time>
      </trkpt>
      <trkpt lat="47.89304" lon="6.92214">
        <ele>964</ele>
        <time>2026-05-09T18:02:15.499Z</time>
      </trkpt>
      <trkpt lat="47.89305" lon="6.92212">
        <ele>964</ele>
        <time>2026-05-09T18:02:16.498Z</time>
      </trkpt>
      <trkpt lat="47.89305" lon="6.9221">
        <ele>964</ele>
        <time>2026-05-09T18:02:17.499Z</time>
      </trkpt>
      <trkpt lat="47.89306" lon="6.92208">
        <ele>964</ele>
        <time>2026-05-09T18:02:18.498Z</time>
      </trkpt>
      <trkpt lat="47.89306" lon="6.92206">
        <ele>964</ele>
        <time>2026-05-09T18:02:19.499Z</time>
      </trkpt>
      <trkpt lat="47.89307" lon="6.92204">
        <ele>963</ele>
        <time>2026-05-09T18:02:20.499Z</time>
      </trkpt>
      <trkpt lat="47.89307" lon="6.92202">
        <ele>963</ele>
        <time>2026-05-09T18:02:21.498Z</time>
      </trkpt>
      <trkpt lat="47.89308" lon="6.922">
        <ele>963</ele>
        <time>2026-05-09T18:02:22.499Z</time>
      </trkpt>
      <trkpt lat="47.89309" lon="6.92198">
        <ele>963</ele>
        <time>2026-05-09T18:02:23.499Z</time>
      </trkpt>
      <trkpt lat="47.89309" lon="6.92196">
        <ele>963</ele>
        <time>2026-05-09T18:02:24.498Z</time>
      </trkpt>
      <trkpt lat="47.8931" lon="6.92193">
        <ele>962</ele>
        <time>2026-05-09T18:02:25.499Z</time>
      </trkpt>
      <trkpt lat="47.89311" lon="6.92191">
        <ele>962</ele>
        <time>2026-05-09T18:02:26.498Z</time>
      </trkpt>
      <trkpt lat="47.89312" lon="6.92189">
        <ele>962</ele>
        <time>2026-05-09T18:02:27.499Z</time>
      </trkpt>
      <trkpt lat="47.89312" lon="6.92187">
        <ele>962</ele>
        <time>2026-05-09T18:02:28.499Z</time>
      </trkpt>
      <trkpt lat="47.89313" lon="6.92186">
        <ele>961</ele>
        <time>2026-05-09T18:02:29.498Z</time>
      </trkpt>
      <trkpt lat="47.89313" lon="6.92183">
        <ele>962</ele>
        <time>2026-05-09T18:02:30.499Z</time>
      </trkpt>
      <trkpt lat="47.89314" lon="6.92181">
        <ele>961</ele>
        <time>2026-05-09T18:02:31.498Z</time>
      </trkpt>
      <trkpt lat="47.89314" lon="6.92179">
        <ele>962</ele>
        <time>2026-05-09T18:02:32.499Z</time>
      </trkpt>
      <trkpt lat="47.89315" lon="6.92176">
        <ele>962</ele>
        <time>2026-05-09T18:02:33.498Z</time>
      </trkpt>
      <trkpt lat="47.89315" lon="6.92174">
        <ele>962</ele>
        <time>2026-05-09T18:02:34.498Z</time>
      </trkpt>
      <trkpt lat="47.89316" lon="6.92172">
        <ele>962</ele>
        <time>2026-05-09T18:02:35.499Z</time>
      </trkpt>
      <trkpt lat="47.89317" lon="6.9217">
        <ele>961</ele>
        <time>2026-05-09T18:02:36.498Z</time>
      </trkpt>
      <trkpt lat="47.89318" lon="6.92169">
        <ele>961</ele>
        <time>2026-05-09T18:02:37.499Z</time>
      </trkpt>
      <trkpt lat="47.89318" lon="6.92167">
        <ele>961</ele>
        <time>2026-05-09T18:02:38.498Z</time>
      </trkpt>
      <trkpt lat="47.89319" lon="6.92165">
        <ele>961</ele>
        <time>2026-05-09T18:02:39.498Z</time>
      </trkpt>
      <trkpt lat="47.8932" lon="6.92164">
        <ele>961</ele>
        <time>2026-05-09T18:02:40.499Z</time>
      </trkpt>
      <trkpt lat="47.8932" lon="6.92162">
        <ele>961</ele>
        <time>2026-05-09T18:02:41.498Z</time>
      </trkpt>
      <trkpt lat="47.89321" lon="6.9216">
        <ele>961</ele>
        <time>2026-05-09T18:02:42.499Z</time>
      </trkpt>
      <trkpt lat="47.89321" lon="6.92159">
        <ele>961</ele>
        <time>2026-05-09T18:02:43.499Z</time>
      </trkpt>
      <trkpt lat="47.89322" lon="6.92157">
        <ele>961</ele>
        <time>2026-05-09T18:02:44.498Z</time>
      </trkpt>
      <trkpt lat="47.89323" lon="6.92155">
        <ele>961</ele>
        <time>2026-05-09T18:02:45.498Z</time>
      </trkpt>
      <trkpt lat="47.89323" lon="6.92153">
        <ele>961</ele>
        <time>2026-05-09T18:02:46.499Z</time>
      </trkpt>
      <trkpt lat="47.89323" lon="6.92151">
        <ele>962</ele>
        <time>2026-05-09T18:02:47.498Z</time>
      </trkpt>
      <trkpt lat="47.89324" lon="6.9215">
        <ele>962</ele>
        <time>2026-05-09T18:02:48.499Z</time>
      </trkpt>
      <trkpt lat="47.89324" lon="6.92148">
        <ele>962</ele>
        <time>2026-05-09T18:02:49.498Z</time>
      </trkpt>
      <trkpt lat="47.89325" lon="6.92147">
        <ele>962</ele>
        <time>2026-05-09T18:02:50.498Z</time>
      </trkpt>
      <trkpt lat="47.89325" lon="6.92145">
        <ele>963</ele>
        <time>2026-05-09T18:02:51.499Z</time>
      </trkpt>
      <trkpt lat="47.89325" lon="6.92143">
        <ele>963</ele>
        <time>2026-05-09T18:02:52.498Z</time>
      </trkpt>
      <trkpt lat="47.89326" lon="6.92142">
        <ele>963</ele>
        <time>2026-05-09T18:02:53.499Z</time>
      </trkpt>
      <trkpt lat="47.89326" lon="6.92141">
        <ele>963</ele>
        <time>2026-05-09T18:02:54.499Z</time>
      </trkpt>
      <trkpt lat="47.89327" lon="6.9214">
        <ele>963</ele>
        <time>2026-05-09T18:02:55.499Z</time>
      </trkpt>
      <trkpt lat="47.89327" lon="6.92139">
        <ele>962</ele>
        <time>2026-05-09T18:02:56.499Z</time>
      </trkpt>
      <trkpt lat="47.89328" lon="6.92137">
        <ele>962</ele>
        <time>2026-05-09T18:02:57.499Z</time>
      </trkpt>
      <trkpt lat="47.89329" lon="6.92136">
        <ele>962</ele>
        <time>2026-05-09T18:02:58.498Z</time>
      </trkpt>
      <trkpt lat="47.89329" lon="6.92134">
        <ele>962</ele>
        <time>2026-05-09T18:02:59.499Z</time>
      </trkpt>
      <trkpt lat="47.8933" lon="6.92133">
        <ele>961</ele>
        <time>2026-05-09T18:03:00.498Z</time>
      </trkpt>
      <trkpt lat="47.89331" lon="6.92132">
        <ele>961</ele>
        <time>2026-05-09T18:03:01.498Z</time>
      </trkpt>
      <trkpt lat="47.89332" lon="6.92131">
        <ele>961</ele>
        <time>2026-05-09T18:03:02.498Z</time>
      </trkpt>
      <trkpt lat="47.89333" lon="6.92128">
        <ele>960</ele>
        <time>2026-05-09T18:03:03.499Z</time>
      </trkpt>
      <trkpt lat="47.89333" lon="6.92126">
        <ele>960</ele>
        <time>2026-05-09T18:03:04.498Z</time>
      </trkpt>
      <trkpt lat="47.89334" lon="6.92124">
        <ele>960</ele>
        <time>2026-05-09T18:03:05.499Z</time>
      </trkpt>
      <trkpt lat="47.89335" lon="6.92123">
        <ele>960</ele>
        <time>2026-05-09T18:03:06.498Z</time>
      </trkpt>
      <trkpt lat="47.89336" lon="6.92122">
        <ele>960</ele>
        <time>2026-05-09T18:03:07.498Z</time>
      </trkpt>
      <trkpt lat="47.89336" lon="6.92119">
        <ele>960</ele>
        <time>2026-05-09T18:03:08.499Z</time>
      </trkpt>
      <trkpt lat="47.89336" lon="6.92117">
        <ele>959</ele>
        <time>2026-05-09T18:03:09.499Z</time>
      </trkpt>
      <trkpt lat="47.89336" lon="6.92115">
        <ele>959</ele>
        <time>2026-05-09T18:03:10.498Z</time>
      </trkpt>
      <trkpt lat="47.89336" lon="6.92112">
        <ele>959</ele>
        <time>2026-05-09T18:03:11.498Z</time>
      </trkpt>
      <trkpt lat="47.89336" lon="6.92109">
        <ele>959</ele>
        <time>2026-05-09T18:03:12.498Z</time>
      </trkpt>
      <trkpt lat="47.89336" lon="6.92106">
        <ele>959</ele>
        <time>2026-05-09T18:03:13.499Z</time>
      </trkpt>
      <trkpt lat="47.89337" lon="6.92104">
        <ele>958</ele>
        <time>2026-05-09T18:03:14.499Z</time>
      </trkpt>
      <trkpt lat="47.89338" lon="6.92103">
        <ele>958</ele>
        <time>2026-05-09T18:03:15.499Z</time>
      </trkpt>
      <trkpt lat="47.89339" lon="6.92101">
        <ele>959</ele>
        <time>2026-05-09T18:03:16.499Z</time>
      </trkpt>
      <trkpt lat="47.89339" lon="6.92099">
        <ele>958</ele>
        <time>2026-05-09T18:03:17.498Z</time>
      </trkpt>
      <trkpt lat="47.8934" lon="6.92097">
        <ele>958</ele>
        <time>2026-05-09T18:03:18.498Z</time>
      </trkpt>
      <trkpt lat="47.89341" lon="6.92095">
        <ele>958</ele>
        <time>2026-05-09T18:03:19.498Z</time>
      </trkpt>
      <trkpt lat="47.89341" lon="6.92092">
        <ele>958</ele>
        <time>2026-05-09T18:03:20.499Z</time>
      </trkpt>
      <trkpt lat="47.89341" lon="6.9209">
        <ele>958</ele>
        <time>2026-05-09T18:03:21.498Z</time>
      </trkpt>
      <trkpt lat="47.89342" lon="6.92087">
        <ele>958</ele>
        <time>2026-05-09T18:03:22.498Z</time>
      </trkpt>
      <trkpt lat="47.89343" lon="6.92086">
        <ele>958</ele>
        <time>2026-05-09T18:03:23.498Z</time>
      </trkpt>
      <trkpt lat="47.89344" lon="6.92084">
        <ele>958</ele>
        <time>2026-05-09T18:03:24.498Z</time>
      </trkpt>
      <trkpt lat="47.89345" lon="6.92082">
        <ele>959</ele>
        <time>2026-05-09T18:03:25.498Z</time>
      </trkpt>
      <trkpt lat="47.89346" lon="6.9208">
        <ele>959</ele>
        <time>2026-05-09T18:03:26.499Z</time>
      </trkpt>
      <trkpt lat="47.89348" lon="6.92079">
        <ele>959</ele>
        <time>2026-05-09T18:03:27.498Z</time>
      </trkpt>
      <trkpt lat="47.89349" lon="6.92076">
        <ele>959</ele>
        <time>2026-05-09T18:03:28.498Z</time>
      </trkpt>
      <trkpt lat="47.8935" lon="6.92074">
        <ele>959</ele>
        <time>2026-05-09T18:03:29.498Z</time>
      </trkpt>
      <trkpt lat="47.89351" lon="6.92072">
        <ele>959</ele>
        <time>2026-05-09T18:03:30.499Z</time>
      </trkpt>
      <trkpt lat="47.89352" lon="6.92071">
        <ele>959</ele>
        <time>2026-05-09T18:03:31.499Z</time>
      </trkpt>
      <trkpt lat="47.89353" lon="6.9207">
        <ele>959</ele>
        <time>2026-05-09T18:03:32.499Z</time>
      </trkpt>
      <trkpt lat="47.89355" lon="6.92068">
        <ele>959</ele>
        <time>2026-05-09T18:03:33.499Z</time>
      </trkpt>
      <trkpt lat="47.89356" lon="6.92065">
        <ele>960</ele>
        <time>2026-05-09T18:03:34.498Z</time>
      </trkpt>
      <trkpt lat="47.89357" lon="6.92062">
        <ele>960</ele>
        <time>2026-05-09T18:03:35.498Z</time>
      </trkpt>
      <trkpt lat="47.89358" lon="6.92061">
        <ele>961</ele>
        <time>2026-05-09T18:03:36.498Z</time>
      </trkpt>
      <trkpt lat="47.89358" lon="6.9206">
        <ele>961</ele>
        <time>2026-05-09T18:03:37.499Z</time>
      </trkpt>
      <trkpt lat="47.89359" lon="6.92058">
        <ele>961</ele>
        <time>2026-05-09T18:03:38.498Z</time>
      </trkpt>
      <trkpt lat="47.8936" lon="6.92057">
        <ele>961</ele>
        <time>2026-05-09T18:03:39.498Z</time>
      </trkpt>
      <trkpt lat="47.89361" lon="6.92056">
        <ele>961</ele>
        <time>2026-05-09T18:03:40.498Z</time>
      </trkpt>
      <trkpt lat="47.89361" lon="6.92054">
        <ele>961</ele>
        <time>2026-05-09T18:03:41.499Z</time>
      </trkpt>
      <trkpt lat="47.89362" lon="6.92052">
        <ele>961</ele>
        <time>2026-05-09T18:03:42.499Z</time>
      </trkpt>
      <trkpt lat="47.89363" lon="6.9205">
        <ele>961</ele>
        <time>2026-05-09T18:03:43.499Z</time>
      </trkpt>
      <trkpt lat="47.89364" lon="6.92048">
        <ele>961</ele>
        <time>2026-05-09T18:03:44.499Z</time>
      </trkpt>
      <trkpt lat="47.89364" lon="6.92047">
        <ele>961</ele>
        <time>2026-05-09T18:03:45.498Z</time>
      </trkpt>
      <trkpt lat="47.89365" lon="6.92046">
        <ele>962</ele>
        <time>2026-05-09T18:03:46.499Z</time>
      </trkpt>
      <trkpt lat="47.89365" lon="6.92044">
        <ele>962</ele>
        <time>2026-05-09T18:03:47.499Z</time>
      </trkpt>
      <trkpt lat="47.89365" lon="6.92041">
        <ele>962</ele>
        <time>2026-05-09T18:03:48.498Z</time>
      </trkpt>
      <trkpt lat="47.89365" lon="6.9204">
        <ele>962</ele>
        <time>2026-05-09T18:03:49.499Z</time>
      </trkpt>
      <trkpt lat="47.89366" lon="6.92038">
        <ele>962</ele>
        <time>2026-05-09T18:03:50.498Z</time>
      </trkpt>
      <trkpt lat="47.89366" lon="6.92035">
        <ele>961</ele>
        <time>2026-05-09T18:03:51.498Z</time>
      </trkpt>
      <trkpt lat="47.89366" lon="6.92033">
        <ele>961</ele>
        <time>2026-05-09T18:03:52.498Z</time>
      </trkpt>
      <trkpt lat="47.89366" lon="6.92031">
        <ele>962</ele>
        <time>2026-05-09T18:03:53.498Z</time>
      </trkpt>
      <trkpt lat="47.89367" lon="6.9203">
        <ele>961</ele>
        <time>2026-05-09T18:03:54.498Z</time>
      </trkpt>
      <trkpt lat="47.89367" lon="6.92028">
        <ele>961</ele>
        <time>2026-05-09T18:03:55.498Z</time>
      </trkpt>
      <trkpt lat="47.89368" lon="6.92026">
        <ele>961</ele>
        <time>2026-05-09T18:03:56.498Z</time>
      </trkpt>
      <trkpt lat="47.89368" lon="6.92023">
        <ele>961</ele>
        <time>2026-05-09T18:03:57.498Z</time>
      </trkpt>
      <trkpt lat="47.89368" lon="6.92021">
        <ele>961</ele>
        <time>2026-05-09T18:03:58.498Z</time>
      </trkpt>
      <trkpt lat="47.89369" lon="6.92019">
        <ele>961</ele>
        <time>2026-05-09T18:03:59.498Z</time>
      </trkpt>
      <trkpt lat="47.89369" lon="6.92018">
        <ele>961</ele>
        <time>2026-05-09T18:04:00.498Z</time>
      </trkpt>
      <trkpt lat="47.8937" lon="6.92016">
        <ele>961</ele>
        <time>2026-05-09T18:04:01.499Z</time>
      </trkpt>
      <trkpt lat="47.89371" lon="6.92014">
        <ele>961</ele>
        <time>2026-05-09T18:04:02.499Z</time>
      </trkpt>
      <trkpt lat="47.89371" lon="6.92013">
        <ele>961</ele>
        <time>2026-05-09T18:04:03.498Z</time>
      </trkpt>
      <trkpt lat="47.89371" lon="6.9201">
        <ele>962</ele>
        <time>2026-05-09T18:04:04.499Z</time>
      </trkpt>
      <trkpt lat="47.89371" lon="6.92009">
        <ele>962</ele>
        <time>2026-05-09T18:04:05.499Z</time>
      </trkpt>
      <trkpt lat="47.89372" lon="6.92007">
        <ele>962</ele>
        <time>2026-05-09T18:04:06.499Z</time>
      </trkpt>
      <trkpt lat="47.89372" lon="6.92005">
        <ele>962</ele>
        <time>2026-05-09T18:04:07.499Z</time>
      </trkpt>
      <trkpt lat="47.89372" lon="6.92002">
        <ele>962</ele>
        <time>2026-05-09T18:04:08.498Z</time>
      </trkpt>
      <trkpt lat="47.89372" lon="6.92001">
        <ele>963</ele>
        <time>2026-05-09T18:04:09.499Z</time>
      </trkpt>
      <trkpt lat="47.89373" lon="6.91999">
        <ele>962</ele>
        <time>2026-05-09T18:04:10.499Z</time>
      </trkpt>
      <trkpt lat="47.89373" lon="6.91995">
        <ele>962</ele>
        <time>2026-05-09T18:04:11.499Z</time>
      </trkpt>
      <trkpt lat="47.89374" lon="6.91992">
        <ele>963</ele>
        <time>2026-05-09T18:04:12.498Z</time>
      </trkpt>
      <trkpt lat="47.89373" lon="6.9199">
        <ele>963</ele>
        <time>2026-05-09T18:04:13.499Z</time>
      </trkpt>
      <trkpt lat="47.89373" lon="6.91988">
        <ele>963</ele>
        <time>2026-05-09T18:04:14.498Z</time>
      </trkpt>
      <trkpt lat="47.89373" lon="6.91985">
        <ele>963</ele>
        <time>2026-05-09T18:04:15.498Z</time>
      </trkpt>
      <trkpt lat="47.89373" lon="6.91982">
        <ele>964</ele>
        <time>2026-05-09T18:04:16.499Z</time>
      </trkpt>
      <trkpt lat="47.89373" lon="6.9198">
        <ele>964</ele>
        <time>2026-05-09T18:04:17.499Z</time>
      </trkpt>
      <trkpt lat="47.89373" lon="6.91978">
        <ele>964</ele>
        <time>2026-05-09T18:04:18.499Z</time>
      </trkpt>
      <trkpt lat="47.89373" lon="6.91976">
        <ele>965</ele>
        <time>2026-05-09T18:04:19.498Z</time>
      </trkpt>
      <trkpt lat="47.89373" lon="6.91975">
        <ele>965</ele>
        <time>2026-05-09T18:04:20.499Z</time>
      </trkpt>
      <trkpt lat="47.89373" lon="6.91972">
        <ele>966</ele>
        <time>2026-05-09T18:04:21.499Z</time>
      </trkpt>
      <trkpt lat="47.89373" lon="6.91971">
        <ele>966</ele>
        <time>2026-05-09T18:04:22.499Z</time>
      </trkpt>
      <trkpt lat="47.89373" lon="6.91969">
        <ele>966</ele>
        <time>2026-05-09T18:04:23.499Z</time>
      </trkpt>
      <trkpt lat="47.89373" lon="6.91968">
        <ele>966</ele>
        <time>2026-05-09T18:04:24.499Z</time>
      </trkpt>
      <trkpt lat="47.89374" lon="6.91966">
        <ele>966</ele>
        <time>2026-05-09T18:04:25.498Z</time>
      </trkpt>
      <trkpt lat="47.89374" lon="6.91964">
        <ele>966</ele>
        <time>2026-05-09T18:04:26.499Z</time>
      </trkpt>
      <trkpt lat="47.89374" lon="6.91963">
        <ele>966</ele>
        <time>2026-05-09T18:04:27.499Z</time>
      </trkpt>
      <trkpt lat="47.89374" lon="6.91961">
        <ele>966</ele>
        <time>2026-05-09T18:04:28.499Z</time>
      </trkpt>
      <trkpt lat="47.89375" lon="6.91959">
        <ele>966</ele>
        <time>2026-05-09T18:04:29.498Z</time>
      </trkpt>
      <trkpt lat="47.89375" lon="6.91956">
        <ele>965</ele>
        <time>2026-05-09T18:04:30.498Z</time>
      </trkpt>
      <trkpt lat="47.89375" lon="6.91954">
        <ele>965</ele>
        <time>2026-05-09T18:04:31.498Z</time>
      </trkpt>
      <trkpt lat="47.89375" lon="6.91952">
        <ele>964</ele>
        <time>2026-05-09T18:04:32.499Z</time>
      </trkpt>
      <trkpt lat="47.89375" lon="6.91949">
        <ele>964</ele>
        <time>2026-05-09T18:04:33.499Z</time>
      </trkpt>
      <trkpt lat="47.89375" lon="6.91948">
        <ele>964</ele>
        <time>2026-05-09T18:04:34.499Z</time>
      </trkpt>
      <trkpt lat="47.89375" lon="6.91946">
        <ele>964</ele>
        <time>2026-05-09T18:04:35.499Z</time>
      </trkpt>
      <trkpt lat="47.89375" lon="6.91943">
        <ele>964</ele>
        <time>2026-05-09T18:04:36.498Z</time>
      </trkpt>
      <trkpt lat="47.89375" lon="6.91941">
        <ele>964</ele>
        <time>2026-05-09T18:04:37.499Z</time>
      </trkpt>
      <trkpt lat="47.89375" lon="6.91939">
        <ele>963</ele>
        <time>2026-05-09T18:04:38.499Z</time>
      </trkpt>
      <trkpt lat="47.89375" lon="6.91936">
        <ele>963</ele>
        <time>2026-05-09T18:04:39.499Z</time>
      </trkpt>
      <trkpt lat="47.89374" lon="6.91933">
        <ele>963</ele>
        <time>2026-05-09T18:04:40.499Z</time>
      </trkpt>
      <trkpt lat="47.89374" lon="6.9193">
        <ele>963</ele>
        <time>2026-05-09T18:04:41.498Z</time>
      </trkpt>
      <trkpt lat="47.89374" lon="6.91928">
        <ele>963</ele>
        <time>2026-05-09T18:04:42.498Z</time>
      </trkpt>
      <trkpt lat="47.89374" lon="6.91925">
        <ele>963</ele>
        <time>2026-05-09T18:04:43.498Z</time>
      </trkpt>
      <trkpt lat="47.89374" lon="6.91923">
        <ele>964</ele>
        <time>2026-05-09T18:04:44.498Z</time>
      </trkpt>
      <trkpt lat="47.89375" lon="6.91921">
        <ele>964</ele>
        <time>2026-05-09T18:04:45.498Z</time>
      </trkpt>
      <trkpt lat="47.89375" lon="6.9192">
        <ele>964</ele>
        <time>2026-05-09T18:04:46.499Z</time>
      </trkpt>
      <trkpt lat="47.89376" lon="6.91919">
        <ele>965</ele>
        <time>2026-05-09T18:04:47.499Z</time>
      </trkpt>
      <trkpt lat="47.89376" lon="6.91917">
        <ele>965</ele>
        <time>2026-05-09T18:04:48.499Z</time>
      </trkpt>
      <trkpt lat="47.89376" lon="6.91914">
        <ele>965</ele>
        <time>2026-05-09T18:04:49.499Z</time>
      </trkpt>
      <trkpt lat="47.89376" lon="6.91912">
        <ele>966</ele>
        <time>2026-05-09T18:04:50.498Z</time>
      </trkpt>
      <trkpt lat="47.89377" lon="6.9191">
        <ele>966</ele>
        <time>2026-05-09T18:04:51.499Z</time>
      </trkpt>
      <trkpt lat="47.89377" lon="6.91908">
        <ele>966</ele>
        <time>2026-05-09T18:04:52.499Z</time>
      </trkpt>
      <trkpt lat="47.89376" lon="6.91905">
        <ele>966</ele>
        <time>2026-05-09T18:04:53.498Z</time>
      </trkpt>
      <trkpt lat="47.89376" lon="6.91903">
        <ele>966</ele>
        <time>2026-05-09T18:04:54.499Z</time>
      </trkpt>
      <trkpt lat="47.89376" lon="6.91901">
        <ele>966</ele>
        <time>2026-05-09T18:04:55.498Z</time>
      </trkpt>
      <trkpt lat="47.89376" lon="6.91898">
        <ele>966</ele>
        <time>2026-05-09T18:04:56.498Z</time>
      </trkpt>
      <trkpt lat="47.89376" lon="6.91896">
        <ele>966</ele>
        <time>2026-05-09T18:04:57.498Z</time>
      </trkpt>
      <trkpt lat="47.89377" lon="6.91893">
        <ele>966</ele>
        <time>2026-05-09T18:04:58.498Z</time>
      </trkpt>
      <trkpt lat="47.89377" lon="6.91891">
        <ele>966</ele>
        <time>2026-05-09T18:04:59.498Z</time>
      </trkpt>
      <trkpt lat="47.89377" lon="6.91889">
        <ele>966</ele>
        <time>2026-05-09T18:05:00.498Z</time>
      </trkpt>
      <trkpt lat="47.89378" lon="6.91887">
        <ele>966</ele>
        <time>2026-05-09T18:05:01.498Z</time>
      </trkpt>
      <trkpt lat="47.89378" lon="6.91885">
        <ele>966</ele>
        <time>2026-05-09T18:05:02.498Z</time>
      </trkpt>
      <trkpt lat="47.89379" lon="6.91883">
        <ele>966</ele>
        <time>2026-05-09T18:05:03.498Z</time>
      </trkpt>
      <trkpt lat="47.89379" lon="6.91881">
        <ele>965</ele>
        <time>2026-05-09T18:05:04.499Z</time>
      </trkpt>
      <trkpt lat="47.89381" lon="6.91879">
        <ele>964</ele>
        <time>2026-05-09T18:05:05.499Z</time>
      </trkpt>
      <trkpt lat="47.89382" lon="6.91878">
        <ele>964</ele>
        <time>2026-05-09T18:05:06.499Z</time>
      </trkpt>
      <trkpt lat="47.89384" lon="6.91877">
        <ele>963</ele>
        <time>2026-05-09T18:05:07.498Z</time>
      </trkpt>
      <trkpt lat="47.89385" lon="6.91876">
        <ele>963</ele>
        <time>2026-05-09T18:05:08.499Z</time>
      </trkpt>
      <trkpt lat="47.89385" lon="6.91875">
        <ele>963</ele>
        <time>2026-05-09T18:05:09.498Z</time>
      </trkpt>
      <trkpt lat="47.89385" lon="6.91872">
        <ele>963</ele>
        <time>2026-05-09T18:05:10.498Z</time>
      </trkpt>
      <trkpt lat="47.89385" lon="6.9187">
        <ele>963</ele>
        <time>2026-05-09T18:05:11.499Z</time>
      </trkpt>
      <trkpt lat="47.89386" lon="6.91868">
        <ele>962</ele>
        <time>2026-05-09T18:05:12.499Z</time>
      </trkpt>
      <trkpt lat="47.89387" lon="6.91867">
        <ele>963</ele>
        <time>2026-05-09T18:05:13.499Z</time>
      </trkpt>
      <trkpt lat="47.89387" lon="6.91866">
        <ele>963</ele>
        <time>2026-05-09T18:05:14.498Z</time>
      </trkpt>
      <trkpt lat="47.89388" lon="6.91866">
        <ele>963</ele>
        <time>2026-05-09T18:05:15.499Z</time>
      </trkpt>
      <trkpt lat="47.89388" lon="6.91864">
        <ele>963</ele>
        <time>2026-05-09T18:05:16.499Z</time>
      </trkpt>
      <trkpt lat="47.89389" lon="6.91862">
        <ele>963</ele>
        <time>2026-05-09T18:05:17.498Z</time>
      </trkpt>
      <trkpt lat="47.89389" lon="6.9186">
        <ele>962</ele>
        <time>2026-05-09T18:05:18.499Z</time>
      </trkpt>
      <trkpt lat="47.8939" lon="6.91858">
        <ele>962</ele>
        <time>2026-05-09T18:05:19.498Z</time>
      </trkpt>
      <trkpt lat="47.89391" lon="6.91856">
        <ele>962</ele>
        <time>2026-05-09T18:05:20.499Z</time>
      </trkpt>
      <trkpt lat="47.89392" lon="6.91854">
        <ele>961</ele>
        <time>2026-05-09T18:05:21.498Z</time>
      </trkpt>
      <trkpt lat="47.89392" lon="6.91852">
        <ele>961</ele>
        <time>2026-05-09T18:05:22.498Z</time>
      </trkpt>
      <trkpt lat="47.89393" lon="6.91851">
        <ele>961</ele>
        <time>2026-05-09T18:05:23.498Z</time>
      </trkpt>
      <trkpt lat="47.89394" lon="6.9185">
        <ele>960</ele>
        <time>2026-05-09T18:05:24.499Z</time>
      </trkpt>
      <trkpt lat="47.89395" lon="6.91848">
        <ele>960</ele>
        <time>2026-05-09T18:05:25.498Z</time>
      </trkpt>
      <trkpt lat="47.89395" lon="6.91847">
        <ele>960</ele>
        <time>2026-05-09T18:05:26.498Z</time>
      </trkpt>
      <trkpt lat="47.89396" lon="6.91844">
        <ele>959</ele>
        <time>2026-05-09T18:05:27.498Z</time>
      </trkpt>
      <trkpt lat="47.89396" lon="6.91842">
        <ele>959</ele>
        <time>2026-05-09T18:05:28.499Z</time>
      </trkpt>
      <trkpt lat="47.89396" lon="6.9184">
        <ele>958</ele>
        <time>2026-05-09T18:05:29.498Z</time>
      </trkpt>
      <trkpt lat="47.89396" lon="6.91838">
        <ele>958</ele>
        <time>2026-05-09T18:05:30.498Z</time>
      </trkpt>
      <trkpt lat="47.89397" lon="6.91836">
        <ele>957</ele>
        <time>2026-05-09T18:05:31.498Z</time>
      </trkpt>
      <trkpt lat="47.89398" lon="6.91834">
        <ele>957</ele>
        <time>2026-05-09T18:05:32.498Z</time>
      </trkpt>
      <trkpt lat="47.89398" lon="6.91831">
        <ele>956</ele>
        <time>2026-05-09T18:05:33.498Z</time>
      </trkpt>
      <trkpt lat="47.89399" lon="6.9183">
        <ele>955</ele>
        <time>2026-05-09T18:05:34.498Z</time>
      </trkpt>
      <trkpt lat="47.894" lon="6.91828">
        <ele>955</ele>
        <time>2026-05-09T18:05:35.499Z</time>
      </trkpt>
      <trkpt lat="47.894" lon="6.91826">
        <ele>954</ele>
        <time>2026-05-09T18:05:36.499Z</time>
      </trkpt>
      <trkpt lat="47.894" lon="6.91823">
        <ele>954</ele>
        <time>2026-05-09T18:05:37.499Z</time>
      </trkpt>
      <trkpt lat="47.89401" lon="6.9182">
        <ele>954</ele>
        <time>2026-05-09T18:05:38.499Z</time>
      </trkpt>
      <trkpt lat="47.89402" lon="6.91819">
        <ele>953</ele>
        <time>2026-05-09T18:05:39.499Z</time>
      </trkpt>
      <trkpt lat="47.89403" lon="6.91818">
        <ele>953</ele>
        <time>2026-05-09T18:05:40.499Z</time>
      </trkpt>
      <trkpt lat="47.89403" lon="6.91817">
        <ele>953</ele>
        <time>2026-05-09T18:05:41.499Z</time>
      </trkpt>
      <trkpt lat="47.89404" lon="6.91815">
        <ele>953</ele>
        <time>2026-05-09T18:05:42.498Z</time>
      </trkpt>
      <trkpt lat="47.89404" lon="6.91813">
        <ele>953</ele>
        <time>2026-05-09T18:05:43.498Z</time>
      </trkpt>
      <trkpt lat="47.89404" lon="6.91811">
        <ele>953</ele>
        <time>2026-05-09T18:05:44.498Z</time>
      </trkpt>
      <trkpt lat="47.89404" lon="6.91808">
        <ele>954</ele>
        <time>2026-05-09T18:05:45.498Z</time>
      </trkpt>
      <trkpt lat="47.89404" lon="6.91806">
        <ele>954</ele>
        <time>2026-05-09T18:05:46.498Z</time>
      </trkpt>
      <trkpt lat="47.89404" lon="6.91804">
        <ele>954</ele>
        <time>2026-05-09T18:05:47.498Z</time>
      </trkpt>
      <trkpt lat="47.89404" lon="6.91803">
        <ele>955</ele>
        <time>2026-05-09T18:05:48.498Z</time>
      </trkpt>
      <trkpt lat="47.89405" lon="6.91801">
        <ele>955</ele>
        <time>2026-05-09T18:05:49.498Z</time>
      </trkpt>
      <trkpt lat="47.89405" lon="6.91799">
        <ele>955</ele>
        <time>2026-05-09T18:05:50.498Z</time>
      </trkpt>
      <trkpt lat="47.89406" lon="6.91797">
        <ele>956</ele>
        <time>2026-05-09T18:05:51.498Z</time>
      </trkpt>
      <trkpt lat="47.89406" lon="6.91796">
        <ele>956</ele>
        <time>2026-05-09T18:05:52.498Z</time>
      </trkpt>
      <trkpt lat="47.89406" lon="6.91793">
        <ele>957</ele>
        <time>2026-05-09T18:05:53.499Z</time>
      </trkpt>
      <trkpt lat="47.89407" lon="6.91791">
        <ele>958</ele>
        <time>2026-05-09T18:05:54.499Z</time>
      </trkpt>
      <trkpt lat="47.89407" lon="6.91788">
        <ele>958</ele>
        <time>2026-05-09T18:05:55.499Z</time>
      </trkpt>
      <trkpt lat="47.89407" lon="6.91786">
        <ele>959</ele>
        <time>2026-05-09T18:05:56.499Z</time>
      </trkpt>
      <trkpt lat="47.89407" lon="6.91785">
        <ele>959</ele>
        <time>2026-05-09T18:05:57.498Z</time>
      </trkpt>
      <trkpt lat="47.89407" lon="6.91783">
        <ele>960</ele>
        <time>2026-05-09T18:05:58.498Z</time>
      </trkpt>
      <trkpt lat="47.89407" lon="6.9178">
        <ele>960</ele>
        <time>2026-05-09T18:05:59.498Z</time>
      </trkpt>
      <trkpt lat="47.89408" lon="6.91779">
        <ele>959</ele>
        <time>2026-05-09T18:06:00.498Z</time>
      </trkpt>
      <trkpt lat="47.89409" lon="6.91778">
        <ele>959</ele>
        <time>2026-05-09T18:06:01.498Z</time>
      </trkpt>
      <trkpt lat="47.8941" lon="6.91777">
        <ele>959</ele>
        <time>2026-05-09T18:06:02.499Z</time>
      </trkpt>
      <trkpt lat="47.89411" lon="6.91776">
        <ele>959</ele>
        <time>2026-05-09T18:06:03.499Z</time>
      </trkpt>
      <trkpt lat="47.89411" lon="6.91775">
        <ele>960</ele>
        <time>2026-05-09T18:06:04.499Z</time>
      </trkpt>
      <trkpt lat="47.89411" lon="6.91773">
        <ele>960</ele>
        <time>2026-05-09T18:06:05.498Z</time>
      </trkpt>
      <trkpt lat="47.89411" lon="6.91772">
        <ele>960</ele>
        <time>2026-05-09T18:06:06.498Z</time>
      </trkpt>
      <trkpt lat="47.89411" lon="6.9177">
        <ele>960</ele>
        <time>2026-05-09T18:06:07.498Z</time>
      </trkpt>
      <trkpt lat="47.89411" lon="6.91768">
        <ele>960</ele>
        <time>2026-05-09T18:06:08.498Z</time>
      </trkpt>
      <trkpt lat="47.89411" lon="6.91767">
        <ele>960</ele>
        <time>2026-05-09T18:06:09.499Z</time>
      </trkpt>
      <trkpt lat="47.89412" lon="6.91766">
        <ele>960</ele>
        <time>2026-05-09T18:06:10.498Z</time>
      </trkpt>
      <trkpt lat="47.89412" lon="6.91765">
        <ele>960</ele>
        <time>2026-05-09T18:06:11.499Z</time>
      </trkpt>
      <trkpt lat="47.89412" lon="6.91764">
        <ele>960</ele>
        <time>2026-05-09T18:06:12.499Z</time>
      </trkpt>
      <trkpt lat="47.89413" lon="6.91763">
        <ele>961</ele>
        <time>2026-05-09T18:06:13.499Z</time>
      </trkpt>
      <trkpt lat="47.89413" lon="6.91761">
        <ele>960</ele>
        <time>2026-05-09T18:06:14.499Z</time>
      </trkpt>
      <trkpt lat="47.89413" lon="6.9176">
        <ele>960</ele>
        <time>2026-05-09T18:06:15.499Z</time>
      </trkpt>
      <trkpt lat="47.89414" lon="6.91758">
        <ele>959</ele>
        <time>2026-05-09T18:06:16.499Z</time>
      </trkpt>
      <trkpt lat="47.89414" lon="6.91756">
        <ele>958</ele>
        <time>2026-05-09T18:06:17.498Z</time>
      </trkpt>
      <trkpt lat="47.89415" lon="6.91755">
        <ele>957</ele>
        <time>2026-05-09T18:06:18.498Z</time>
      </trkpt>
      <trkpt lat="47.89415" lon="6.91753">
        <ele>956</ele>
        <time>2026-05-09T18:06:19.499Z</time>
      </trkpt>
      <trkpt lat="47.89416" lon="6.91751">
        <ele>955</ele>
        <time>2026-05-09T18:06:20.498Z</time>
      </trkpt>
      <trkpt lat="47.89416" lon="6.91748">
        <ele>955</ele>
        <time>2026-05-09T18:06:21.498Z</time>
      </trkpt>
      <trkpt lat="47.89416" lon="6.91746">
        <ele>954</ele>
        <time>2026-05-09T18:06:22.498Z</time>
      </trkpt>
      <trkpt lat="47.89415" lon="6.91743">
        <ele>953</ele>
        <time>2026-05-09T18:06:23.498Z</time>
      </trkpt>
      <trkpt lat="47.89415" lon="6.91742">
        <ele>953</ele>
        <time>2026-05-09T18:06:24.498Z</time>
      </trkpt>
      <trkpt lat="47.89414" lon="6.9174">
        <ele>952</ele>
        <time>2026-05-09T18:06:25.499Z</time>
      </trkpt>
      <trkpt lat="47.89413" lon="6.9174">
        <ele>952</ele>
        <time>2026-05-09T18:06:26.498Z</time>
      </trkpt>
      <trkpt lat="47.89412" lon="6.9174">
        <ele>951</ele>
        <time>2026-05-09T18:06:27.498Z</time>
      </trkpt>
      <trkpt lat="47.89411" lon="6.9174">
        <ele>951</ele>
        <time>2026-05-09T18:06:28.498Z</time>
      </trkpt>
      <trkpt lat="47.8941" lon="6.9174">
        <ele>951</ele>
        <time>2026-05-09T18:06:29.498Z</time>
      </trkpt>
      <trkpt lat="47.89409" lon="6.91739">
        <ele>950</ele>
        <time>2026-05-09T18:06:30.498Z</time>
      </trkpt>
      <trkpt lat="47.89408" lon="6.91738">
        <ele>950</ele>
        <time>2026-05-09T18:06:31.498Z</time>
      </trkpt>
      <trkpt lat="47.89408" lon="6.91738">
        <ele>950</ele>
        <time>2026-05-09T18:06:32.498Z</time>
      </trkpt>
      <trkpt lat="47.89408" lon="6.91738">
        <ele>950</ele>
        <time>2026-05-09T18:06:33.498Z</time>
      </trkpt>
      <trkpt lat="47.8941" lon="6.91739">
        <ele>947</ele>
        <time>2026-05-09T18:06:39.876Z</time>
      </trkpt>
      <trkpt lat="47.89405" lon="6.91739">
        <ele>944</ele>
        <time>2026-05-09T18:06:48.199Z</time>
      </trkpt>
      <trkpt lat="47.89404" lon="6.91739">
        <ele>944</ele>
        <time>2026-05-09T18:06:49.199Z</time>
      </trkpt>
      <trkpt lat="47.89403" lon="6.91739">
        <ele>944</ele>
        <time>2026-05-09T18:06:50.198Z</time>
      </trkpt>
      <trkpt lat="47.89402" lon="6.91739">
        <ele>944</ele>
        <time>2026-05-09T18:06:51.199Z</time>
      </trkpt>
      <trkpt lat="47.89401" lon="6.91739">
        <ele>945</ele>
        <time>2026-05-09T18:06:52.198Z</time>
      </trkpt>
      <trkpt lat="47.894" lon="6.91739">
        <ele>945</ele>
        <time>2026-05-09T18:06:53.199Z</time>
      </trkpt>
      <trkpt lat="47.89399" lon="6.91739">
        <ele>945</ele>
        <time>2026-05-09T18:06:54.198Z</time>
      </trkpt>
      <trkpt lat="47.89398" lon="6.91739">
        <ele>946</ele>
        <time>2026-05-09T18:06:55.198Z</time>
      </trkpt>
      <trkpt lat="47.89396" lon="6.91739">
        <ele>947</ele>
        <time>2026-05-09T18:06:56.198Z</time>
      </trkpt>
      <trkpt lat="47.89395" lon="6.91738">
        <ele>947</ele>
        <time>2026-05-09T18:06:57.198Z</time>
      </trkpt>
      <trkpt lat="47.89394" lon="6.91738">
        <ele>948</ele>
        <time>2026-05-09T18:06:58.198Z</time>
      </trkpt>
      <trkpt lat="47.89393" lon="6.91738">
        <ele>948</ele>
        <time>2026-05-09T18:06:59.198Z</time>
      </trkpt>
      <trkpt lat="47.89392" lon="6.91738">
        <ele>949</ele>
        <time>2026-05-09T18:07:00.198Z</time>
      </trkpt>
      <trkpt lat="47.89391" lon="6.91738">
        <ele>949</ele>
        <time>2026-05-09T18:07:01.199Z</time>
      </trkpt>
      <trkpt lat="47.8939" lon="6.91738">
        <ele>949</ele>
        <time>2026-05-09T18:07:02.199Z</time>
      </trkpt>
      <trkpt lat="47.89389" lon="6.91738">
        <ele>949</ele>
        <time>2026-05-09T18:07:03.199Z</time>
      </trkpt>
      <trkpt lat="47.89388" lon="6.91739">
        <ele>949</ele>
        <time>2026-05-09T18:07:04.198Z</time>
      </trkpt>
      <trkpt lat="47.89387" lon="6.91739">
        <ele>949</ele>
        <time>2026-05-09T18:07:05.199Z</time>
      </trkpt>
      <trkpt lat="47.89386" lon="6.9174">
        <ele>949</ele>
        <time>2026-05-09T18:07:06.199Z</time>
      </trkpt>
      <trkpt lat="47.89385" lon="6.9174">
        <ele>949</ele>
        <time>2026-05-09T18:07:07.198Z</time>
      </trkpt>
      <trkpt lat="47.89384" lon="6.9174">
        <ele>948</ele>
        <time>2026-05-09T18:07:08.198Z</time>
      </trkpt>
      <trkpt lat="47.89383" lon="6.9174">
        <ele>948</ele>
        <time>2026-05-09T18:07:09.199Z</time>
      </trkpt>
      <trkpt lat="47.89382" lon="6.9174">
        <ele>948</ele>
        <time>2026-05-09T18:07:10.198Z</time>
      </trkpt>
      <trkpt lat="47.89381" lon="6.9174">
        <ele>947</ele>
        <time>2026-05-09T18:07:11.199Z</time>
      </trkpt>
      <trkpt lat="47.89381" lon="6.9174">
        <ele>947</ele>
        <time>2026-05-09T18:07:12.198Z</time>
      </trkpt>
      <trkpt lat="47.89381" lon="6.9174">
        <ele>947</ele>
        <time>2026-05-09T18:07:13.198Z</time>
      </trkpt>
      <trkpt lat="47.8938" lon="6.9174">
        <ele>947</ele>
        <time>2026-05-09T18:07:14.199Z</time>
      </trkpt>
      <trkpt lat="47.89379" lon="6.9174">
        <ele>947</ele>
        <time>2026-05-09T18:07:15.199Z</time>
      </trkpt>
      <trkpt lat="47.89379" lon="6.9174">
        <ele>947</ele>
        <time>2026-05-09T18:07:16.199Z</time>
      </trkpt>
      <trkpt lat="47.89379" lon="6.9174">
        <ele>947</ele>
        <time>2026-05-09T18:07:17.199Z</time>
      </trkpt>
      <trkpt lat="47.89379" lon="6.9174">
        <ele>947</ele>
        <time>2026-05-09T18:07:18.199Z</time>
      </trkpt>
      <trkpt lat="47.89379" lon="6.91739">
        <ele>947</ele>
        <time>2026-05-09T18:07:19.199Z</time>
      </trkpt>
      <trkpt lat="47.89379" lon="6.91739">
        <ele>947</ele>
        <time>2026-05-09T18:07:20.198Z</time>
      </trkpt>
      <trkpt lat="47.89379" lon="6.91739">
        <ele>947</ele>
        <time>2026-05-09T18:07:26.585Z</time>
      </trkpt>
      <trkpt lat="47.89378" lon="6.91735">
        <ele>947</ele>
        <time>2026-05-09T18:07:33.967Z</time>
      </trkpt>
      <trkpt lat="47.89378" lon="6.91735">
        <ele>947</ele>
        <time>2026-05-09T18:07:34.967Z</time>
      </trkpt>
      <trkpt lat="47.89378" lon="6.91739">
        <ele>947</ele>
        <time>2026-05-09T18:07:43.996Z</time>
      </trkpt>
      <trkpt lat="47.89378" lon="6.9174">
        <ele>947</ele>
        <time>2026-05-09T18:07:44.996Z</time>
      </trkpt>
      <trkpt lat="47.89377" lon="6.91741">
        <ele>947</ele>
        <time>2026-05-09T18:07:45.996Z</time>
      </trkpt>
      <trkpt lat="47.89377" lon="6.91742">
        <ele>947</ele>
        <time>2026-05-09T18:07:46.996Z</time>
      </trkpt>
      <trkpt lat="47.89377" lon="6.91744">
        <ele>946</ele>
        <time>2026-05-09T18:07:47.996Z</time>
      </trkpt>
      <trkpt lat="47.89377" lon="6.91745">
        <ele>946</ele>
        <time>2026-05-09T18:07:48.996Z</time>
      </trkpt>
      <trkpt lat="47.89376" lon="6.91745">
        <ele>945</ele>
        <time>2026-05-09T18:07:49.996Z</time>
      </trkpt>
      <trkpt lat="47.89376" lon="6.91746">
        <ele>944</ele>
        <time>2026-05-09T18:07:50.996Z</time>
      </trkpt>
      <trkpt lat="47.89376" lon="6.91747">
        <ele>943</ele>
        <time>2026-05-09T18:07:51.997Z</time>
      </trkpt>
      <trkpt lat="47.89375" lon="6.91748">
        <ele>942</ele>
        <time>2026-05-09T18:07:52.996Z</time>
      </trkpt>
      <trkpt lat="47.89375" lon="6.9175">
        <ele>940</ele>
        <time>2026-05-09T18:07:53.996Z</time>
      </trkpt>
      <trkpt lat="47.89374" lon="6.91752">
        <ele>939</ele>
        <time>2026-05-09T18:07:54.996Z</time>
      </trkpt>
      <trkpt lat="47.89373" lon="6.91753">
        <ele>939</ele>
        <time>2026-05-09T18:07:55.997Z</time>
      </trkpt>
      <trkpt lat="47.89371" lon="6.91754">
        <ele>938</ele>
        <time>2026-05-09T18:07:56.996Z</time>
      </trkpt>
      <trkpt lat="47.8937" lon="6.91756">
        <ele>938</ele>
        <time>2026-05-09T18:07:57.996Z</time>
      </trkpt>
      <trkpt lat="47.89369" lon="6.91759">
        <ele>937</ele>
        <time>2026-05-09T18:07:58.996Z</time>
      </trkpt>
      <trkpt lat="47.89369" lon="6.9176">
        <ele>937</ele>
        <time>2026-05-09T18:07:59.996Z</time>
      </trkpt>
      <trkpt lat="47.89368" lon="6.91761">
        <ele>937</ele>
        <time>2026-05-09T18:08:00.997Z</time>
      </trkpt>
      <trkpt lat="47.89367" lon="6.91761">
        <ele>936</ele>
        <time>2026-05-09T18:08:01.997Z</time>
      </trkpt>
      <trkpt lat="47.89367" lon="6.91762">
        <ele>936</ele>
        <time>2026-05-09T18:08:02.997Z</time>
      </trkpt>
      <trkpt lat="47.89367" lon="6.91763">
        <ele>936</ele>
        <time>2026-05-09T18:08:03.996Z</time>
      </trkpt>
      <trkpt lat="47.89367" lon="6.91766">
        <ele>936</ele>
        <time>2026-05-09T18:08:04.996Z</time>
      </trkpt>
      <trkpt lat="47.89366" lon="6.91768">
        <ele>936</ele>
        <time>2026-05-09T18:08:05.996Z</time>
      </trkpt>
      <trkpt lat="47.89365" lon="6.9177">
        <ele>936</ele>
        <time>2026-05-09T18:08:06.996Z</time>
      </trkpt>
      <trkpt lat="47.89364" lon="6.91771">
        <ele>936</ele>
        <time>2026-05-09T18:08:07.996Z</time>
      </trkpt>
      <trkpt lat="47.89363" lon="6.91772">
        <ele>936</ele>
        <time>2026-05-09T18:08:08.997Z</time>
      </trkpt>
      <trkpt lat="47.89363" lon="6.91773">
        <ele>936</ele>
        <time>2026-05-09T18:08:09.996Z</time>
      </trkpt>
      <trkpt lat="47.89362" lon="6.91773">
        <ele>935</ele>
        <time>2026-05-09T18:08:10.996Z</time>
      </trkpt>
      <trkpt lat="47.89362" lon="6.91774">
        <ele>935</ele>
        <time>2026-05-09T18:08:11.996Z</time>
      </trkpt>
      <trkpt lat="47.89363" lon="6.91775">
        <ele>935</ele>
        <time>2026-05-09T18:08:12.996Z</time>
      </trkpt>
      <trkpt lat="47.89363" lon="6.91775">
        <ele>934</ele>
        <time>2026-05-09T18:08:13.996Z</time>
      </trkpt>
      <trkpt lat="47.89363" lon="6.91775">
        <ele>934</ele>
        <time>2026-05-09T18:08:14.997Z</time>
      </trkpt>
      <trkpt lat="47.89364" lon="6.91772">
        <ele>931</ele>
        <time>2026-05-09T18:08:23.310Z</time>
      </trkpt>
      <trkpt lat="47.89364" lon="6.91772">
        <ele>930</ele>
        <time>2026-05-09T18:08:24.310Z</time>
      </trkpt>
      <trkpt lat="47.89366" lon="6.91769">
        <ele>930</ele>
        <time>2026-05-09T18:08:35.538Z</time>
      </trkpt>
      <trkpt lat="47.89366" lon="6.91769">
        <ele>930</ele>
        <time>2026-05-09T18:08:36.538Z</time>
      </trkpt>
      <trkpt lat="47.89366" lon="6.91768">
        <ele>930</ele>
        <time>2026-05-09T18:08:37.538Z</time>
      </trkpt>
      <trkpt lat="47.89366" lon="6.91768">
        <ele>930</ele>
        <time>2026-05-09T18:08:38.538Z</time>
      </trkpt>
      <trkpt lat="47.89366" lon="6.91768">
        <ele>929</ele>
        <time>2026-05-09T18:08:39.539Z</time>
      </trkpt>
      <trkpt lat="47.89366" lon="6.91768">
        <ele>929</ele>
        <time>2026-05-09T18:08:40.538Z</time>
      </trkpt>
      <trkpt lat="47.89366" lon="6.9177">
        <ele>927</ele>
        <time>2026-05-09T18:08:48.893Z</time>
      </trkpt>
      <trkpt lat="47.89366" lon="6.91771">
        <ele>927</ele>
        <time>2026-05-09T18:08:49.893Z</time>
      </trkpt>
      <trkpt lat="47.89366" lon="6.91773">
        <ele>927</ele>
        <time>2026-05-09T18:08:50.893Z</time>
      </trkpt>
      <trkpt lat="47.89366" lon="6.91774">
        <ele>927</ele>
        <time>2026-05-09T18:08:51.893Z</time>
      </trkpt>
      <trkpt lat="47.89366" lon="6.91775">
        <ele>927</ele>
        <time>2026-05-09T18:08:52.893Z</time>
      </trkpt>
      <trkpt lat="47.89366" lon="6.91775">
        <ele>927</ele>
        <time>2026-05-09T18:08:53.893Z</time>
      </trkpt>
      <trkpt lat="47.89366" lon="6.91777">
        <ele>927</ele>
        <time>2026-05-09T18:08:54.893Z</time>
      </trkpt>
      <trkpt lat="47.89366" lon="6.91777">
        <ele>927</ele>
        <time>2026-05-09T18:08:55.893Z</time>
      </trkpt>
      <trkpt lat="47.89366" lon="6.9178">
        <ele>927</ele>
        <time>2026-05-09T18:08:56.893Z</time>
      </trkpt>
      <trkpt lat="47.89366" lon="6.91782">
        <ele>928</ele>
        <time>2026-05-09T18:08:57.893Z</time>
      </trkpt>
      <trkpt lat="47.89366" lon="6.91784">
        <ele>928</ele>
        <time>2026-05-09T18:08:58.893Z</time>
      </trkpt>
      <trkpt lat="47.89366" lon="6.91784">
        <ele>928</ele>
        <time>2026-05-09T18:08:59.893Z</time>
      </trkpt>
      <trkpt lat="47.89365" lon="6.91786">
        <ele>928</ele>
        <time>2026-05-09T18:09:00.893Z</time>
      </trkpt>
      <trkpt lat="47.89365" lon="6.91786">
        <ele>927</ele>
        <time>2026-05-09T18:09:01.893Z</time>
      </trkpt>
      <trkpt lat="47.89365" lon="6.91787">
        <ele>927</ele>
        <time>2026-05-09T18:09:02.893Z</time>
      </trkpt>
      <trkpt lat="47.89365" lon="6.91787">
        <ele>927</ele>
        <time>2026-05-09T18:09:03.893Z</time>
      </trkpt>
      <trkpt lat="47.89364" lon="6.91787">
        <ele>927</ele>
        <time>2026-05-09T18:09:04.893Z</time>
      </trkpt>
      <trkpt lat="47.89364" lon="6.91789">
        <ele>927</ele>
        <time>2026-05-09T18:09:05.893Z</time>
      </trkpt>
      <trkpt lat="47.89364" lon="6.91789">
        <ele>927</ele>
        <time>2026-05-09T18:09:06.893Z</time>
      </trkpt>
      <trkpt lat="47.89364" lon="6.91789">
        <ele>927</ele>
        <time>2026-05-09T18:09:07.893Z</time>
      </trkpt>
      <trkpt lat="47.89363" lon="6.9179">
        <ele>927</ele>
        <time>2026-05-09T18:09:08.893Z</time>
      </trkpt>
      <trkpt lat="47.89363" lon="6.91792">
        <ele>927</ele>
        <time>2026-05-09T18:09:09.893Z</time>
      </trkpt>
      <trkpt lat="47.89363" lon="6.91792">
        <ele>927</ele>
        <time>2026-05-09T18:09:10.893Z</time>
      </trkpt>
      <trkpt lat="47.89363" lon="6.91792">
        <ele>928</ele>
        <time>2026-05-09T18:09:11.893Z</time>
      </trkpt>
      <trkpt lat="47.89362" lon="6.91793">
        <ele>928</ele>
        <time>2026-05-09T18:09:12.893Z</time>
      </trkpt>
      <trkpt lat="47.89362" lon="6.91795">
        <ele>928</ele>
        <time>2026-05-09T18:09:13.893Z</time>
      </trkpt>
      <trkpt lat="47.89362" lon="6.91794">
        <ele>930</ele>
        <time>2026-05-09T18:09:20.249Z</time>
      </trkpt>
      <trkpt lat="47.89362" lon="6.91794">
        <ele>930</ele>
        <time>2026-05-09T18:09:21.249Z</time>
      </trkpt>
      <trkpt lat="47.89362" lon="6.91794">
        <ele>930</ele>
        <time>2026-05-09T18:09:22.250Z</time>
      </trkpt>
      <trkpt lat="47.89362" lon="6.91793">
        <ele>931</ele>
        <time>2026-05-09T18:09:23.249Z</time>
      </trkpt>
      <trkpt lat="47.89363" lon="6.91793">
        <ele>931</ele>
        <time>2026-05-09T18:09:24.250Z</time>
      </trkpt>
      <trkpt lat="47.89363" lon="6.91793">
        <ele>931</ele>
        <time>2026-05-09T18:09:25.249Z</time>
      </trkpt>
      <trkpt lat="47.89363" lon="6.91803">
        <ele>932</ele>
        <time>2026-05-09T18:09:33.452Z</time>
      </trkpt>
      <trkpt lat="47.89363" lon="6.91803">
        <ele>932</ele>
        <time>2026-05-09T18:09:34.453Z</time>
      </trkpt>
      <trkpt lat="47.89363" lon="6.91803">
        <ele>932</ele>
        <time>2026-05-09T18:09:35.452Z</time>
      </trkpt>
      <trkpt lat="47.89362" lon="6.9181">
        <ele>932</ele>
        <time>2026-05-09T18:09:41.791Z</time>
      </trkpt>
      <trkpt lat="47.89361" lon="6.91812">
        <ele>931</ele>
        <time>2026-05-09T18:09:42.792Z</time>
      </trkpt>
      <trkpt lat="47.89361" lon="6.91813">
        <ele>931</ele>
        <time>2026-05-09T18:09:43.791Z</time>
      </trkpt>
      <trkpt lat="47.8936" lon="6.91814">
        <ele>931</ele>
        <time>2026-05-09T18:09:44.792Z</time>
      </trkpt>
      <trkpt lat="47.89359" lon="6.91815">
        <ele>930</ele>
        <time>2026-05-09T18:09:45.792Z</time>
      </trkpt>
      <trkpt lat="47.89358" lon="6.91817">
        <ele>930</ele>
        <time>2026-05-09T18:09:46.791Z</time>
      </trkpt>
      <trkpt lat="47.89357" lon="6.91818">
        <ele>930</ele>
        <time>2026-05-09T18:09:47.791Z</time>
      </trkpt>
      <trkpt lat="47.89356" lon="6.9182">
        <ele>930</ele>
        <time>2026-05-09T18:09:48.791Z</time>
      </trkpt>
      <trkpt lat="47.89355" lon="6.91822">
        <ele>930</ele>
        <time>2026-05-09T18:09:49.792Z</time>
      </trkpt>
      <trkpt lat="47.89355" lon="6.91824">
        <ele>929</ele>
        <time>2026-05-09T18:09:50.791Z</time>
      </trkpt>
      <trkpt lat="47.89354" lon="6.91826">
        <ele>929</ele>
        <time>2026-05-09T18:09:51.792Z</time>
      </trkpt>
      <trkpt lat="47.89353" lon="6.91829">
        <ele>928</ele>
        <time>2026-05-09T18:09:52.791Z</time>
      </trkpt>
      <trkpt lat="47.89352" lon="6.91832">
        <ele>927</ele>
        <time>2026-05-09T18:09:53.791Z</time>
      </trkpt>
      <trkpt lat="47.89351" lon="6.91837">
        <ele>926</ele>
        <time>2026-05-09T18:09:54.791Z</time>
      </trkpt>
      <trkpt lat="47.8935" lon="6.9184">
        <ele>925</ele>
        <time>2026-05-09T18:09:55.792Z</time>
      </trkpt>
      <trkpt lat="47.8935" lon="6.91842">
        <ele>924</ele>
        <time>2026-05-09T18:09:56.792Z</time>
      </trkpt>
      <trkpt lat="47.89349" lon="6.91845">
        <ele>924</ele>
        <time>2026-05-09T18:09:57.791Z</time>
      </trkpt>
      <trkpt lat="47.89349" lon="6.91848">
        <ele>923</ele>
        <time>2026-05-09T18:09:58.792Z</time>
      </trkpt>
      <trkpt lat="47.89348" lon="6.9185">
        <ele>922</ele>
        <time>2026-05-09T18:09:59.791Z</time>
      </trkpt>
      <trkpt lat="47.89348" lon="6.91852">
        <ele>921</ele>
        <time>2026-05-09T18:10:00.791Z</time>
      </trkpt>
      <trkpt lat="47.89347" lon="6.91856">
        <ele>921</ele>
        <time>2026-05-09T18:10:01.792Z</time>
      </trkpt>
      <trkpt lat="47.89346" lon="6.91859">
        <ele>920</ele>
        <time>2026-05-09T18:10:02.791Z</time>
      </trkpt>
      <trkpt lat="47.89346" lon="6.91862">
        <ele>919</ele>
        <time>2026-05-09T18:10:03.791Z</time>
      </trkpt>
      <trkpt lat="47.89345" lon="6.91865">
        <ele>919</ele>
        <time>2026-05-09T18:10:04.792Z</time>
      </trkpt>
      <trkpt lat="47.89344" lon="6.91866">
        <ele>919</ele>
        <time>2026-05-09T18:10:05.792Z</time>
      </trkpt>
      <trkpt lat="47.89344" lon="6.91868">
        <ele>918</ele>
        <time>2026-05-09T18:10:06.792Z</time>
      </trkpt>
      <trkpt lat="47.89343" lon="6.9187">
        <ele>918</ele>
        <time>2026-05-09T18:10:07.791Z</time>
      </trkpt>
      <trkpt lat="47.89343" lon="6.91872">
        <ele>918</ele>
        <time>2026-05-09T18:10:08.791Z</time>
      </trkpt>
      <trkpt lat="47.89342" lon="6.91873">
        <ele>917</ele>
        <time>2026-05-09T18:10:09.792Z</time>
      </trkpt>
      <trkpt lat="47.89342" lon="6.91875">
        <ele>917</ele>
        <time>2026-05-09T18:10:10.792Z</time>
      </trkpt>
      <trkpt lat="47.89341" lon="6.91875">
        <ele>917</ele>
        <time>2026-05-09T18:10:11.792Z</time>
      </trkpt>
      <trkpt lat="47.89341" lon="6.91876">
        <ele>917</ele>
        <time>2026-05-09T18:10:12.791Z</time>
      </trkpt>
      <trkpt lat="47.89341" lon="6.91876">
        <ele>917</ele>
        <time>2026-05-09T18:10:13.791Z</time>
      </trkpt>
      <trkpt lat="47.89338" lon="6.91885">
        <ele>919</ele>
        <time>2026-05-09T18:10:19.207Z</time>
      </trkpt>
      <trkpt lat="47.89337" lon="6.91887">
        <ele>919</ele>
        <time>2026-05-09T18:10:20.206Z</time>
      </trkpt>
      <trkpt lat="47.89336" lon="6.91889">
        <ele>919</ele>
        <time>2026-05-09T18:10:21.207Z</time>
      </trkpt>
      <trkpt lat="47.89335" lon="6.91891">
        <ele>920</ele>
        <time>2026-05-09T18:10:22.207Z</time>
      </trkpt>
      <trkpt lat="47.89335" lon="6.91893">
        <ele>920</ele>
        <time>2026-05-09T18:10:23.207Z</time>
      </trkpt>
      <trkpt lat="47.89335" lon="6.91894">
        <ele>920</ele>
        <time>2026-05-09T18:10:24.207Z</time>
      </trkpt>
      <trkpt lat="47.89334" lon="6.91896">
        <ele>921</ele>
        <time>2026-05-09T18:10:25.206Z</time>
      </trkpt>
      <trkpt lat="47.89334" lon="6.91897">
        <ele>921</ele>
        <time>2026-05-09T18:10:26.206Z</time>
      </trkpt>
      <trkpt lat="47.89334" lon="6.91899">
        <ele>921</ele>
        <time>2026-05-09T18:10:27.206Z</time>
      </trkpt>
      <trkpt lat="47.89333" lon="6.919">
        <ele>922</ele>
        <time>2026-05-09T18:10:28.206Z</time>
      </trkpt>
      <trkpt lat="47.89332" lon="6.91902">
        <ele>922</ele>
        <time>2026-05-09T18:10:29.206Z</time>
      </trkpt>
      <trkpt lat="47.89332" lon="6.91903">
        <ele>922</ele>
        <time>2026-05-09T18:10:30.207Z</time>
      </trkpt>
      <trkpt lat="47.89331" lon="6.91904">
        <ele>922</ele>
        <time>2026-05-09T18:10:31.207Z</time>
      </trkpt>
      <trkpt lat="47.8933" lon="6.91906">
        <ele>923</ele>
        <time>2026-05-09T18:10:32.207Z</time>
      </trkpt>
      <trkpt lat="47.8933" lon="6.91908">
        <ele>923</ele>
        <time>2026-05-09T18:10:33.207Z</time>
      </trkpt>
      <trkpt lat="47.89329" lon="6.9191">
        <ele>923</ele>
        <time>2026-05-09T18:10:34.207Z</time>
      </trkpt>
      <trkpt lat="47.89329" lon="6.91912">
        <ele>923</ele>
        <time>2026-05-09T18:10:35.206Z</time>
      </trkpt>
      <trkpt lat="47.89328" lon="6.91914">
        <ele>923</ele>
        <time>2026-05-09T18:10:36.207Z</time>
      </trkpt>
      <trkpt lat="47.89328" lon="6.91917">
        <ele>924</ele>
        <time>2026-05-09T18:10:37.207Z</time>
      </trkpt>
      <trkpt lat="47.89328" lon="6.9192">
        <ele>924</ele>
        <time>2026-05-09T18:10:38.207Z</time>
      </trkpt>
      <trkpt lat="47.89329" lon="6.91923">
        <ele>924</ele>
        <time>2026-05-09T18:10:39.206Z</time>
      </trkpt>
      <trkpt lat="47.89328" lon="6.91927">
        <ele>924</ele>
        <time>2026-05-09T18:10:40.207Z</time>
      </trkpt>
      <trkpt lat="47.89327" lon="6.91928">
        <ele>925</ele>
        <time>2026-05-09T18:10:41.207Z</time>
      </trkpt>
      <trkpt lat="47.89326" lon="6.9193">
        <ele>925</ele>
        <time>2026-05-09T18:10:42.207Z</time>
      </trkpt>
      <trkpt lat="47.89326" lon="6.91932">
        <ele>925</ele>
        <time>2026-05-09T18:10:43.207Z</time>
      </trkpt>
      <trkpt lat="47.89325" lon="6.91934">
        <ele>926</ele>
        <time>2026-05-09T18:10:44.207Z</time>
      </trkpt>
      <trkpt lat="47.89324" lon="6.91937">
        <ele>926</ele>
        <time>2026-05-09T18:10:45.206Z</time>
      </trkpt>
      <trkpt lat="47.89323" lon="6.91939">
        <ele>926</ele>
        <time>2026-05-09T18:10:46.206Z</time>
      </trkpt>
      <trkpt lat="47.89322" lon="6.91941">
        <ele>927</ele>
        <time>2026-05-09T18:10:47.207Z</time>
      </trkpt>
      <trkpt lat="47.8932" lon="6.91943">
        <ele>927</ele>
        <time>2026-05-09T18:10:48.207Z</time>
      </trkpt>
      <trkpt lat="47.89319" lon="6.91945">
        <ele>927</ele>
        <time>2026-05-09T18:10:49.207Z</time>
      </trkpt>
      <trkpt lat="47.89318" lon="6.91947">
        <ele>927</ele>
        <time>2026-05-09T18:10:50.207Z</time>
      </trkpt>
      <trkpt lat="47.89316" lon="6.9195">
        <ele>927</ele>
        <time>2026-05-09T18:10:51.207Z</time>
      </trkpt>
      <trkpt lat="47.89315" lon="6.91952">
        <ele>927</ele>
        <time>2026-05-09T18:10:52.207Z</time>
      </trkpt>
      <trkpt lat="47.89315" lon="6.91954">
        <ele>927</ele>
        <time>2026-05-09T18:10:53.206Z</time>
      </trkpt>
      <trkpt lat="47.89314" lon="6.91957">
        <ele>927</ele>
        <time>2026-05-09T18:10:54.206Z</time>
      </trkpt>
      <trkpt lat="47.89313" lon="6.9196">
        <ele>927</ele>
        <time>2026-05-09T18:10:55.207Z</time>
      </trkpt>
      <trkpt lat="47.89313" lon="6.91964">
        <ele>928</ele>
        <time>2026-05-09T18:10:56.206Z</time>
      </trkpt>
      <trkpt lat="47.89312" lon="6.91968">
        <ele>928</ele>
        <time>2026-05-09T18:10:57.207Z</time>
      </trkpt>
      <trkpt lat="47.8931" lon="6.91971">
        <ele>927</ele>
        <time>2026-05-09T18:10:58.206Z</time>
      </trkpt>
      <trkpt lat="47.89308" lon="6.91973">
        <ele>927</ele>
        <time>2026-05-09T18:10:59.206Z</time>
      </trkpt>
      <trkpt lat="47.89306" lon="6.91976">
        <ele>926</ele>
        <time>2026-05-09T18:11:00.207Z</time>
      </trkpt>
      <trkpt lat="47.89304" lon="6.9198">
        <ele>926</ele>
        <time>2026-05-09T18:11:01.206Z</time>
      </trkpt>
      <trkpt lat="47.89303" lon="6.91983">
        <ele>925</ele>
        <time>2026-05-09T18:11:02.206Z</time>
      </trkpt>
      <trkpt lat="47.89302" lon="6.91988">
        <ele>924</ele>
        <time>2026-05-09T18:11:03.206Z</time>
      </trkpt>
      <trkpt lat="47.893" lon="6.91992">
        <ele>924</ele>
        <time>2026-05-09T18:11:04.206Z</time>
      </trkpt>
      <trkpt lat="47.89299" lon="6.91995">
        <ele>923</ele>
        <time>2026-05-09T18:11:05.207Z</time>
      </trkpt>
      <trkpt lat="47.89296" lon="6.91997">
        <ele>922</ele>
        <time>2026-05-09T18:11:06.207Z</time>
      </trkpt>
      <trkpt lat="47.89295" lon="6.92001">
        <ele>922</ele>
        <time>2026-05-09T18:11:07.207Z</time>
      </trkpt>
      <trkpt lat="47.89295" lon="6.92004">
        <ele>921</ele>
        <time>2026-05-09T18:11:08.207Z</time>
      </trkpt>
      <trkpt lat="47.89295" lon="6.92008">
        <ele>920</ele>
        <time>2026-05-09T18:11:09.207Z</time>
      </trkpt>
      <trkpt lat="47.89295" lon="6.92011">
        <ele>919</ele>
        <time>2026-05-09T18:11:10.206Z</time>
      </trkpt>
      <trkpt lat="47.89293" lon="6.92012">
        <ele>918</ele>
        <time>2026-05-09T18:11:11.206Z</time>
      </trkpt>
      <trkpt lat="47.89292" lon="6.92013">
        <ele>917</ele>
        <time>2026-05-09T18:11:12.206Z</time>
      </trkpt>
      <trkpt lat="47.89291" lon="6.92013">
        <ele>915</ele>
        <time>2026-05-09T18:11:13.206Z</time>
      </trkpt>
      <trkpt lat="47.89292" lon="6.92013">
        <ele>914</ele>
        <time>2026-05-09T18:11:14.207Z</time>
      </trkpt>
      <trkpt lat="47.89292" lon="6.92012">
        <ele>913</ele>
        <time>2026-05-09T18:11:15.206Z</time>
      </trkpt>
      <trkpt lat="47.89291" lon="6.92014">
        <ele>913</ele>
        <time>2026-05-09T18:11:16.206Z</time>
      </trkpt>
      <trkpt lat="47.89289" lon="6.92017">
        <ele>912</ele>
        <time>2026-05-09T18:11:17.206Z</time>
      </trkpt>
      <trkpt lat="47.89289" lon="6.9202">
        <ele>911</ele>
        <time>2026-05-09T18:11:18.207Z</time>
      </trkpt>
      <trkpt lat="47.89289" lon="6.92022">
        <ele>910</ele>
        <time>2026-05-09T18:11:19.207Z</time>
      </trkpt>
      <trkpt lat="47.89289" lon="6.92023">
        <ele>910</ele>
        <time>2026-05-09T18:11:20.207Z</time>
      </trkpt>
      <trkpt lat="47.89288" lon="6.92023">
        <ele>909</ele>
        <time>2026-05-09T18:11:21.206Z</time>
      </trkpt>
      <trkpt lat="47.89288" lon="6.92022">
        <ele>908</ele>
        <time>2026-05-09T18:11:22.206Z</time>
      </trkpt>
      <trkpt lat="47.89288" lon="6.92021">
        <ele>908</ele>
        <time>2026-05-09T18:11:23.207Z</time>
      </trkpt>
      <trkpt lat="47.89288" lon="6.92021">
        <ele>908</ele>
        <time>2026-05-09T18:11:24.207Z</time>
      </trkpt>
      <trkpt lat="47.89287" lon="6.92022">
        <ele>907</ele>
        <time>2026-05-09T18:11:25.206Z</time>
      </trkpt>
      <trkpt lat="47.89285" lon="6.92022">
        <ele>907</ele>
        <time>2026-05-09T18:11:26.206Z</time>
      </trkpt>
      <trkpt lat="47.89284" lon="6.92024">
        <ele>906</ele>
        <time>2026-05-09T18:11:27.206Z</time>
      </trkpt>
      <trkpt lat="47.89283" lon="6.92025">
        <ele>906</ele>
        <time>2026-05-09T18:11:28.206Z</time>
      </trkpt>
      <trkpt lat="47.89283" lon="6.92025">
        <ele>905</ele>
        <time>2026-05-09T18:11:29.207Z</time>
      </trkpt>
      <trkpt lat="47.89283" lon="6.92028">
        <ele>905</ele>
        <time>2026-05-09T18:11:30.206Z</time>
      </trkpt>
      <trkpt lat="47.89285" lon="6.92029">
        <ele>905</ele>
        <time>2026-05-09T18:11:31.206Z</time>
      </trkpt>
      <trkpt lat="47.89285" lon="6.92031">
        <ele>905</ele>
        <time>2026-05-09T18:11:32.207Z</time>
      </trkpt>
      <trkpt lat="47.89284" lon="6.92032">
        <ele>905</ele>
        <time>2026-05-09T18:11:33.207Z</time>
      </trkpt>
      <trkpt lat="47.89282" lon="6.92033">
        <ele>905</ele>
        <time>2026-05-09T18:11:34.207Z</time>
      </trkpt>
      <trkpt lat="47.89282" lon="6.92033">
        <ele>904</ele>
        <time>2026-05-09T18:11:35.206Z</time>
      </trkpt>
      <trkpt lat="47.89281" lon="6.92033">
        <ele>904</ele>
        <time>2026-05-09T18:11:36.206Z</time>
      </trkpt>
      <trkpt lat="47.89282" lon="6.92033">
        <ele>900</ele>
        <time>2026-05-09T18:11:47.565Z</time>
      </trkpt>
      <trkpt lat="47.89282" lon="6.92034">
        <ele>900</ele>
        <time>2026-05-09T18:11:48.564Z</time>
      </trkpt>
      <trkpt lat="47.89281" lon="6.92035">
        <ele>899</ele>
        <time>2026-05-09T18:11:49.565Z</time>
      </trkpt>
      <trkpt lat="47.8928" lon="6.92036">
        <ele>899</ele>
        <time>2026-05-09T18:11:50.564Z</time>
      </trkpt>
      <trkpt lat="47.89279" lon="6.92037">
        <ele>898</ele>
        <time>2026-05-09T18:11:51.564Z</time>
      </trkpt>
      <trkpt lat="47.89278" lon="6.92037">
        <ele>898</ele>
        <time>2026-05-09T18:11:52.564Z</time>
      </trkpt>
      <trkpt lat="47.89277" lon="6.92038">
        <ele>897</ele>
        <time>2026-05-09T18:11:53.565Z</time>
      </trkpt>
      <trkpt lat="47.89276" lon="6.92039">
        <ele>897</ele>
        <time>2026-05-09T18:11:54.564Z</time>
      </trkpt>
      <trkpt lat="47.89276" lon="6.9204">
        <ele>897</ele>
        <time>2026-05-09T18:11:55.565Z</time>
      </trkpt>
      <trkpt lat="47.89274" lon="6.92041">
        <ele>897</ele>
        <time>2026-05-09T18:11:56.564Z</time>
      </trkpt>
      <trkpt lat="47.89274" lon="6.92042">
        <ele>897</ele>
        <time>2026-05-09T18:11:57.565Z</time>
      </trkpt>
      <trkpt lat="47.89273" lon="6.92043">
        <ele>897</ele>
        <time>2026-05-09T18:11:58.564Z</time>
      </trkpt>
      <trkpt lat="47.89273" lon="6.92043">
        <ele>897</ele>
        <time>2026-05-09T18:11:59.565Z</time>
      </trkpt>
      <trkpt lat="47.89273" lon="6.92044">
        <ele>897</ele>
        <time>2026-05-09T18:12:00.564Z</time>
      </trkpt>
      <trkpt lat="47.89273" lon="6.92036">
        <ele>898</ele>
        <time>2026-05-09T18:12:06.808Z</time>
      </trkpt>
      <trkpt lat="47.89273" lon="6.92033">
        <ele>899</ele>
        <time>2026-05-09T18:12:07.807Z</time>
      </trkpt>
      <trkpt lat="47.89274" lon="6.9203">
        <ele>899</ele>
        <time>2026-05-09T18:12:08.807Z</time>
      </trkpt>
      <trkpt lat="47.89274" lon="6.92028">
        <ele>899</ele>
        <time>2026-05-09T18:12:09.807Z</time>
      </trkpt>
      <trkpt lat="47.89275" lon="6.92027">
        <ele>899</ele>
        <time>2026-05-09T18:12:10.808Z</time>
      </trkpt>
      <trkpt lat="47.89276" lon="6.92025">
        <ele>899</ele>
        <time>2026-05-09T18:12:11.808Z</time>
      </trkpt>
      <trkpt lat="47.89276" lon="6.92023">
        <ele>899</ele>
        <time>2026-05-09T18:12:12.807Z</time>
      </trkpt>
      <trkpt lat="47.89277" lon="6.92022">
        <ele>900</ele>
        <time>2026-05-09T18:12:13.807Z</time>
      </trkpt>
      <trkpt lat="47.89278" lon="6.92021">
        <ele>900</ele>
        <time>2026-05-09T18:12:14.808Z</time>
      </trkpt>
      <trkpt lat="47.89279" lon="6.92021">
        <ele>901</ele>
        <time>2026-05-09T18:12:15.808Z</time>
      </trkpt>
      <trkpt lat="47.8928" lon="6.9202">
        <ele>901</ele>
        <time>2026-05-09T18:12:16.807Z</time>
      </trkpt>
      <trkpt lat="47.89281" lon="6.92019">
        <ele>901</ele>
        <time>2026-05-09T18:12:17.807Z</time>
      </trkpt>
      <trkpt lat="47.89282" lon="6.92018">
        <ele>901</ele>
        <time>2026-05-09T18:12:18.807Z</time>
      </trkpt>
      <trkpt lat="47.89283" lon="6.92017">
        <ele>901</ele>
        <time>2026-05-09T18:12:19.807Z</time>
      </trkpt>
      <trkpt lat="47.89284" lon="6.92016">
        <ele>901</ele>
        <time>2026-05-09T18:12:20.807Z</time>
      </trkpt>
      <trkpt lat="47.89284" lon="6.92014">
        <ele>901</ele>
        <time>2026-05-09T18:12:21.807Z</time>
      </trkpt>
      <trkpt lat="47.89285" lon="6.92013">
        <ele>901</ele>
        <time>2026-05-09T18:12:22.808Z</time>
      </trkpt>
      <trkpt lat="47.89285" lon="6.92011">
        <ele>901</ele>
        <time>2026-05-09T18:12:23.807Z</time>
      </trkpt>
      <trkpt lat="47.89285" lon="6.92008">
        <ele>902</ele>
        <time>2026-05-09T18:12:24.808Z</time>
      </trkpt>
      <trkpt lat="47.89286" lon="6.92006">
        <ele>902</ele>
        <time>2026-05-09T18:12:25.808Z</time>
      </trkpt>
      <trkpt lat="47.89286" lon="6.92005">
        <ele>902</ele>
        <time>2026-05-09T18:12:26.807Z</time>
      </trkpt>
      <trkpt lat="47.89287" lon="6.92005">
        <ele>902</ele>
        <time>2026-05-09T18:12:27.808Z</time>
      </trkpt>
      <trkpt lat="47.89287" lon="6.92004">
        <ele>903</ele>
        <time>2026-05-09T18:12:28.808Z</time>
      </trkpt>
      <trkpt lat="47.89288" lon="6.92003">
        <ele>903</ele>
        <time>2026-05-09T18:12:29.808Z</time>
      </trkpt>
      <trkpt lat="47.89288" lon="6.92001">
        <ele>903</ele>
        <time>2026-05-09T18:12:30.808Z</time>
      </trkpt>
      <trkpt lat="47.89288" lon="6.92">
        <ele>904</ele>
        <time>2026-05-09T18:12:31.808Z</time>
      </trkpt>
      <trkpt lat="47.89289" lon="6.91998">
        <ele>904</ele>
        <time>2026-05-09T18:12:32.808Z</time>
      </trkpt>
      <trkpt lat="47.89289" lon="6.91997">
        <ele>905</ele>
        <time>2026-05-09T18:12:33.807Z</time>
      </trkpt>
      <trkpt lat="47.8929" lon="6.91995">
        <ele>905</ele>
        <time>2026-05-09T18:12:34.807Z</time>
      </trkpt>
      <trkpt lat="47.8929" lon="6.91995">
        <ele>906</ele>
        <time>2026-05-09T18:12:35.808Z</time>
      </trkpt>
      <trkpt lat="47.89291" lon="6.91994">
        <ele>906</ele>
        <time>2026-05-09T18:12:36.807Z</time>
      </trkpt>
      <trkpt lat="47.89292" lon="6.91994">
        <ele>906</ele>
        <time>2026-05-09T18:12:37.807Z</time>
      </trkpt>
      <trkpt lat="47.89292" lon="6.91993">
        <ele>907</ele>
        <time>2026-05-09T18:12:38.807Z</time>
      </trkpt>
      <trkpt lat="47.89293" lon="6.91992">
        <ele>906</ele>
        <time>2026-05-09T18:12:39.808Z</time>
      </trkpt>
      <trkpt lat="47.89293" lon="6.9199">
        <ele>906</ele>
        <time>2026-05-09T18:12:40.807Z</time>
      </trkpt>
      <trkpt lat="47.89294" lon="6.91989">
        <ele>906</ele>
        <time>2026-05-09T18:12:41.807Z</time>
      </trkpt>
      <trkpt lat="47.89295" lon="6.91989">
        <ele>907</ele>
        <time>2026-05-09T18:12:42.807Z</time>
      </trkpt>
      <trkpt lat="47.89295" lon="6.91987">
        <ele>907</ele>
        <time>2026-05-09T18:12:43.807Z</time>
      </trkpt>
      <trkpt lat="47.89295" lon="6.91986">
        <ele>907</ele>
        <time>2026-05-09T18:12:44.808Z</time>
      </trkpt>
      <trkpt lat="47.89295" lon="6.91984">
        <ele>908</ele>
        <time>2026-05-09T18:12:45.807Z</time>
      </trkpt>
      <trkpt lat="47.89296" lon="6.91983">
        <ele>908</ele>
        <time>2026-05-09T18:12:46.807Z</time>
      </trkpt>
      <trkpt lat="47.89296" lon="6.91982">
        <ele>908</ele>
        <time>2026-05-09T18:12:47.807Z</time>
      </trkpt>
      <trkpt lat="47.89296" lon="6.91982">
        <ele>908</ele>
        <time>2026-05-09T18:12:48.807Z</time>
      </trkpt>
      <trkpt lat="47.89299" lon="6.91979">
        <ele>910</ele>
        <time>2026-05-09T18:12:58.139Z</time>
      </trkpt>
      <trkpt lat="47.893" lon="6.91978">
        <ele>910</ele>
        <time>2026-05-09T18:12:59.139Z</time>
      </trkpt>
      <trkpt lat="47.893" lon="6.91976">
        <ele>911</ele>
        <time>2026-05-09T18:13:00.139Z</time>
      </trkpt>
      <trkpt lat="47.89301" lon="6.91975">
        <ele>911</ele>
        <time>2026-05-09T18:13:01.140Z</time>
      </trkpt>
      <trkpt lat="47.89302" lon="6.91974">
        <ele>911</ele>
        <time>2026-05-09T18:13:02.140Z</time>
      </trkpt>
      <trkpt lat="47.89302" lon="6.91973">
        <ele>911</ele>
        <time>2026-05-09T18:13:03.140Z</time>
      </trkpt>
      <trkpt lat="47.89302" lon="6.91972">
        <ele>911</ele>
        <time>2026-05-09T18:13:04.140Z</time>
      </trkpt>
      <trkpt lat="47.89302" lon="6.91971">
        <ele>911</ele>
        <time>2026-05-09T18:13:05.139Z</time>
      </trkpt>
      <trkpt lat="47.89303" lon="6.9197">
        <ele>910</ele>
        <time>2026-05-09T18:13:06.140Z</time>
      </trkpt>
      <trkpt lat="47.89303" lon="6.91969">
        <ele>910</ele>
        <time>2026-05-09T18:13:07.140Z</time>
      </trkpt>
      <trkpt lat="47.89303" lon="6.91968">
        <ele>910</ele>
        <time>2026-05-09T18:13:08.140Z</time>
      </trkpt>
      <trkpt lat="47.89303" lon="6.91967">
        <ele>910</ele>
        <time>2026-05-09T18:13:09.139Z</time>
      </trkpt>
      <trkpt lat="47.89302" lon="6.91967">
        <ele>910</ele>
        <time>2026-05-09T18:13:10.139Z</time>
      </trkpt>
      <trkpt lat="47.89303" lon="6.91965">
        <ele>910</ele>
        <time>2026-05-09T18:13:11.140Z</time>
      </trkpt>
      <trkpt lat="47.89303" lon="6.91965">
        <ele>910</ele>
        <time>2026-05-09T18:13:12.140Z</time>
      </trkpt>
      <trkpt lat="47.89303" lon="6.91964">
        <ele>910</ele>
        <time>2026-05-09T18:13:13.139Z</time>
      </trkpt>
      <trkpt lat="47.89302" lon="6.91963">
        <ele>910</ele>
        <time>2026-05-09T18:13:14.140Z</time>
      </trkpt>
      <trkpt lat="47.89302" lon="6.91961">
        <ele>910</ele>
        <time>2026-05-09T18:13:15.139Z</time>
      </trkpt>
      <trkpt lat="47.89301" lon="6.91959">
        <ele>910</ele>
        <time>2026-05-09T18:13:16.139Z</time>
      </trkpt>
      <trkpt lat="47.893" lon="6.91957">
        <ele>910</ele>
        <time>2026-05-09T18:13:17.139Z</time>
      </trkpt>
      <trkpt lat="47.89299" lon="6.91956">
        <ele>910</ele>
        <time>2026-05-09T18:13:18.140Z</time>
      </trkpt>
      <trkpt lat="47.89299" lon="6.91956">
        <ele>910</ele>
        <time>2026-05-09T18:13:19.140Z</time>
      </trkpt>
      <trkpt lat="47.89298" lon="6.91956">
        <ele>910</ele>
        <time>2026-05-09T18:13:20.139Z</time>
      </trkpt>
      <trkpt lat="47.89298" lon="6.91957">
        <ele>911</ele>
        <time>2026-05-09T18:13:21.139Z</time>
      </trkpt>
      <trkpt lat="47.89298" lon="6.91958">
        <ele>911</ele>
        <time>2026-05-09T18:13:22.139Z</time>
      </trkpt>
      <trkpt lat="47.89298" lon="6.91959">
        <ele>911</ele>
        <time>2026-05-09T18:13:23.140Z</time>
      </trkpt>
      <trkpt lat="47.89298" lon="6.9196">
        <ele>910</ele>
        <time>2026-05-09T18:13:24.139Z</time>
      </trkpt>
      <trkpt lat="47.89297" lon="6.9196">
        <ele>910</ele>
        <time>2026-05-09T18:13:25.140Z</time>
      </trkpt>
      <trkpt lat="47.89297" lon="6.9196">
        <ele>910</ele>
        <time>2026-05-09T18:13:26.139Z</time>
      </trkpt>
      <trkpt lat="47.89296" lon="6.91958">
        <ele>907</ele>
        <time>2026-05-09T18:13:41.344Z</time>
      </trkpt>
      <trkpt lat="47.89296" lon="6.91958">
        <ele>907</ele>
        <time>2026-05-09T18:13:42.345Z</time>
      </trkpt>
      <trkpt lat="47.89297" lon="6.91957">
        <ele>906</ele>
        <time>2026-05-09T18:13:43.344Z</time>
      </trkpt>
      <trkpt lat="47.89296" lon="6.91957">
        <ele>905</ele>
        <time>2026-05-09T18:13:44.345Z</time>
      </trkpt>
      <trkpt lat="47.89296" lon="6.91956">
        <ele>904</ele>
        <time>2026-05-09T18:13:45.345Z</time>
      </trkpt>
      <trkpt lat="47.89296" lon="6.91956">
        <ele>904</ele>
        <time>2026-05-09T18:13:46.344Z</time>
      </trkpt>
      <trkpt lat="47.89297" lon="6.91957">
        <ele>903</ele>
        <time>2026-05-09T18:13:47.344Z</time>
      </trkpt>
      <trkpt lat="47.89297" lon="6.91957">
        <ele>903</ele>
        <time>2026-05-09T18:13:48.344Z</time>
      </trkpt>
      <trkpt lat="47.89297" lon="6.91957">
        <ele>903</ele>
        <time>2026-05-09T18:13:49.345Z</time>
      </trkpt>
      <trkpt lat="47.89296" lon="6.91958">
        <ele>902</ele>
        <time>2026-05-09T18:13:50.344Z</time>
      </trkpt>
      <trkpt lat="47.89295" lon="6.91959">
        <ele>902</ele>
        <time>2026-05-09T18:13:51.345Z</time>
      </trkpt>
      <trkpt lat="47.89295" lon="6.9196">
        <ele>902</ele>
        <time>2026-05-09T18:13:52.345Z</time>
      </trkpt>
      <trkpt lat="47.89294" lon="6.9196">
        <ele>903</ele>
        <time>2026-05-09T18:13:53.345Z</time>
      </trkpt>
      <trkpt lat="47.89294" lon="6.91961">
        <ele>903</ele>
        <time>2026-05-09T18:13:54.345Z</time>
      </trkpt>
      <trkpt lat="47.89293" lon="6.91961">
        <ele>903</ele>
        <time>2026-05-09T18:13:55.344Z</time>
      </trkpt>
      <trkpt lat="47.89293" lon="6.91962">
        <ele>904</ele>
        <time>2026-05-09T18:13:56.345Z</time>
      </trkpt>
      <trkpt lat="47.89293" lon="6.91963">
        <ele>904</ele>
        <time>2026-05-09T18:13:57.344Z</time>
      </trkpt>
      <trkpt lat="47.89293" lon="6.91965">
        <ele>904</ele>
        <time>2026-05-09T18:13:58.345Z</time>
      </trkpt>
      <trkpt lat="47.89292" lon="6.91966">
        <ele>905</ele>
        <time>2026-05-09T18:13:59.345Z</time>
      </trkpt>
      <trkpt lat="47.89291" lon="6.91967">
        <ele>905</ele>
        <time>2026-05-09T18:14:00.345Z</time>
      </trkpt>
      <trkpt lat="47.89291" lon="6.91968">
        <ele>905</ele>
        <time>2026-05-09T18:14:01.344Z</time>
      </trkpt>
      <trkpt lat="47.8929" lon="6.91969">
        <ele>905</ele>
        <time>2026-05-09T18:14:02.344Z</time>
      </trkpt>
      <trkpt lat="47.8929" lon="6.91969">
        <ele>905</ele>
        <time>2026-05-09T18:14:03.344Z</time>
      </trkpt>
      <trkpt lat="47.89289" lon="6.91971">
        <ele>905</ele>
        <time>2026-05-09T18:14:04.344Z</time>
      </trkpt>
      <trkpt lat="47.89288" lon="6.91973">
        <ele>904</ele>
        <time>2026-05-09T18:14:05.345Z</time>
      </trkpt>
      <trkpt lat="47.89286" lon="6.91975">
        <ele>904</ele>
        <time>2026-05-09T18:14:06.345Z</time>
      </trkpt>
      <trkpt lat="47.89286" lon="6.91976">
        <ele>903</ele>
        <time>2026-05-09T18:14:07.345Z</time>
      </trkpt>
      <trkpt lat="47.89284" lon="6.91977">
        <ele>902</ele>
        <time>2026-05-09T18:14:08.345Z</time>
      </trkpt>
      <trkpt lat="47.89283" lon="6.91979">
        <ele>902</ele>
        <time>2026-05-09T18:14:09.344Z</time>
      </trkpt>
      <trkpt lat="47.89283" lon="6.9198">
        <ele>901</ele>
        <time>2026-05-09T18:14:10.345Z</time>
      </trkpt>
      <trkpt lat="47.89282" lon="6.91983">
        <ele>901</ele>
        <time>2026-05-09T18:14:11.345Z</time>
      </trkpt>
      <trkpt lat="47.89281" lon="6.91984">
        <ele>901</ele>
        <time>2026-05-09T18:14:12.345Z</time>
      </trkpt>
      <trkpt lat="47.89281" lon="6.91985">
        <ele>900</ele>
        <time>2026-05-09T18:14:13.345Z</time>
      </trkpt>
      <trkpt lat="47.89281" lon="6.91985">
        <ele>900</ele>
        <time>2026-05-09T18:14:14.345Z</time>
      </trkpt>
      <trkpt lat="47.89281" lon="6.91986">
        <ele>900</ele>
        <time>2026-05-09T18:14:15.345Z</time>
      </trkpt>
      <trkpt lat="47.8928" lon="6.91987">
        <ele>899</ele>
        <time>2026-05-09T18:14:16.344Z</time>
      </trkpt>
      <trkpt lat="47.8928" lon="6.91987">
        <ele>899</ele>
        <time>2026-05-09T18:14:17.344Z</time>
      </trkpt>
      <trkpt lat="47.8928" lon="6.91987">
        <ele>898</ele>
        <time>2026-05-09T18:14:18.345Z</time>
      </trkpt>
      <trkpt lat="47.89279" lon="6.91985">
        <ele>898</ele>
        <time>2026-05-09T18:14:19.345Z</time>
      </trkpt>
      <trkpt lat="47.89278" lon="6.91983">
        <ele>898</ele>
        <time>2026-05-09T18:14:20.345Z</time>
      </trkpt>
      <trkpt lat="47.89278" lon="6.91982">
        <ele>897</ele>
        <time>2026-05-09T18:14:21.345Z</time>
      </trkpt>
      <trkpt lat="47.89278" lon="6.91981">
        <ele>897</ele>
        <time>2026-05-09T18:14:22.345Z</time>
      </trkpt>
      <trkpt lat="47.89278" lon="6.9198">
        <ele>896</ele>
        <time>2026-05-09T18:14:23.344Z</time>
      </trkpt>
      <trkpt lat="47.89278" lon="6.91978">
        <ele>896</ele>
        <time>2026-05-09T18:14:24.344Z</time>
      </trkpt>
      <trkpt lat="47.89278" lon="6.91976">
        <ele>896</ele>
        <time>2026-05-09T18:14:25.345Z</time>
      </trkpt>
      <trkpt lat="47.89278" lon="6.91974">
        <ele>896</ele>
        <time>2026-05-09T18:14:26.344Z</time>
      </trkpt>
      <trkpt lat="47.89278" lon="6.91972">
        <ele>895</ele>
        <time>2026-05-09T18:14:27.344Z</time>
      </trkpt>
      <trkpt lat="47.89278" lon="6.91971">
        <ele>895</ele>
        <time>2026-05-09T18:14:28.344Z</time>
      </trkpt>
      <trkpt lat="47.89278" lon="6.91969">
        <ele>895</ele>
        <time>2026-05-09T18:14:29.344Z</time>
      </trkpt>
      <trkpt lat="47.89277" lon="6.91968">
        <ele>894</ele>
        <time>2026-05-09T18:14:30.345Z</time>
      </trkpt>
      <trkpt lat="47.89277" lon="6.91966">
        <ele>893</ele>
        <time>2026-05-09T18:14:31.345Z</time>
      </trkpt>
      <trkpt lat="47.89276" lon="6.91964">
        <ele>893</ele>
        <time>2026-05-09T18:14:32.345Z</time>
      </trkpt>
      <trkpt lat="47.89275" lon="6.91962">
        <ele>892</ele>
        <time>2026-05-09T18:14:33.344Z</time>
      </trkpt>
      <trkpt lat="47.89275" lon="6.91959">
        <ele>892</ele>
        <time>2026-05-09T18:14:34.344Z</time>
      </trkpt>
      <trkpt lat="47.89275" lon="6.91956">
        <ele>891</ele>
        <time>2026-05-09T18:14:35.344Z</time>
      </trkpt>
      <trkpt lat="47.89275" lon="6.91953">
        <ele>891</ele>
        <time>2026-05-09T18:14:36.345Z</time>
      </trkpt>
      <trkpt lat="47.89274" lon="6.91951">
        <ele>890</ele>
        <time>2026-05-09T18:14:37.344Z</time>
      </trkpt>
      <trkpt lat="47.89274" lon="6.91949">
        <ele>890</ele>
        <time>2026-05-09T18:14:38.345Z</time>
      </trkpt>
      <trkpt lat="47.89273" lon="6.91948">
        <ele>889</ele>
        <time>2026-05-09T18:14:39.345Z</time>
      </trkpt>
      <trkpt lat="47.89273" lon="6.91946">
        <ele>889</ele>
        <time>2026-05-09T18:14:40.344Z</time>
      </trkpt>
      <trkpt lat="47.89272" lon="6.91943">
        <ele>889</ele>
        <time>2026-05-09T18:14:41.345Z</time>
      </trkpt>
      <trkpt lat="47.89272" lon="6.91942">
        <ele>889</ele>
        <time>2026-05-09T18:14:42.345Z</time>
      </trkpt>
      <trkpt lat="47.89271" lon="6.9194">
        <ele>889</ele>
        <time>2026-05-09T18:14:43.344Z</time>
      </trkpt>
      <trkpt lat="47.89271" lon="6.91939">
        <ele>890</ele>
        <time>2026-05-09T18:14:44.344Z</time>
      </trkpt>
      <trkpt lat="47.89271" lon="6.91938">
        <ele>890</ele>
        <time>2026-05-09T18:14:45.344Z</time>
      </trkpt>
      <trkpt lat="47.89271" lon="6.91937">
        <ele>890</ele>
        <time>2026-05-09T18:14:46.344Z</time>
      </trkpt>
      <trkpt lat="47.8927" lon="6.91938">
        <ele>890</ele>
        <time>2026-05-09T18:14:47.344Z</time>
      </trkpt>
      <trkpt lat="47.89268" lon="6.91939">
        <ele>891</ele>
        <time>2026-05-09T18:14:48.344Z</time>
      </trkpt>
      <trkpt lat="47.89268" lon="6.91942">
        <ele>891</ele>
        <time>2026-05-09T18:14:49.345Z</time>
      </trkpt>
      <trkpt lat="47.89267" lon="6.91944">
        <ele>891</ele>
        <time>2026-05-09T18:14:50.345Z</time>
      </trkpt>
      <trkpt lat="47.89266" lon="6.91945">
        <ele>891</ele>
        <time>2026-05-09T18:14:51.345Z</time>
      </trkpt>
      <trkpt lat="47.89265" lon="6.91947">
        <ele>891</ele>
        <time>2026-05-09T18:14:52.345Z</time>
      </trkpt>
      <trkpt lat="47.89265" lon="6.91947">
        <ele>891</ele>
        <time>2026-05-09T18:14:53.345Z</time>
      </trkpt>
      <trkpt lat="47.89264" lon="6.91948">
        <ele>891</ele>
        <time>2026-05-09T18:14:54.345Z</time>
      </trkpt>
      <trkpt lat="47.89264" lon="6.91949">
        <ele>891</ele>
        <time>2026-05-09T18:14:55.344Z</time>
      </trkpt>
      <trkpt lat="47.89264" lon="6.91951">
        <ele>891</ele>
        <time>2026-05-09T18:14:56.345Z</time>
      </trkpt>
      <trkpt lat="47.89263" lon="6.91952">
        <ele>891</ele>
        <time>2026-05-09T18:14:57.345Z</time>
      </trkpt>
      <trkpt lat="47.89263" lon="6.91953">
        <ele>891</ele>
        <time>2026-05-09T18:14:58.344Z</time>
      </trkpt>
      <trkpt lat="47.89262" lon="6.91953">
        <ele>890</ele>
        <time>2026-05-09T18:14:59.345Z</time>
      </trkpt>
      <trkpt lat="47.89262" lon="6.91955">
        <ele>890</ele>
        <time>2026-05-09T18:15:00.345Z</time>
      </trkpt>
      <trkpt lat="47.89262" lon="6.91957">
        <ele>890</ele>
        <time>2026-05-09T18:15:01.345Z</time>
      </trkpt>
      <trkpt lat="47.89262" lon="6.91958">
        <ele>890</ele>
        <time>2026-05-09T18:15:02.345Z</time>
      </trkpt>
      <trkpt lat="47.89262" lon="6.91959">
        <ele>890</ele>
        <time>2026-05-09T18:15:03.344Z</time>
      </trkpt>
      <trkpt lat="47.89261" lon="6.9196">
        <ele>890</ele>
        <time>2026-05-09T18:15:04.345Z</time>
      </trkpt>
      <trkpt lat="47.89261" lon="6.91962">
        <ele>891</ele>
        <time>2026-05-09T18:15:05.345Z</time>
      </trkpt>
      <trkpt lat="47.89261" lon="6.91963">
        <ele>891</ele>
        <time>2026-05-09T18:15:06.344Z</time>
      </trkpt>
      <trkpt lat="47.8926" lon="6.91964">
        <ele>891</ele>
        <time>2026-05-09T18:15:07.344Z</time>
      </trkpt>
      <trkpt lat="47.8926" lon="6.91965">
        <ele>891</ele>
        <time>2026-05-09T18:15:08.344Z</time>
      </trkpt>
      <trkpt lat="47.89261" lon="6.91966">
        <ele>891</ele>
        <time>2026-05-09T18:15:09.344Z</time>
      </trkpt>
      <trkpt lat="47.89261" lon="6.91968">
        <ele>890</ele>
        <time>2026-05-09T18:15:10.345Z</time>
      </trkpt>
      <trkpt lat="47.89261" lon="6.9197">
        <ele>890</ele>
        <time>2026-05-09T18:15:11.345Z</time>
      </trkpt>
      <trkpt lat="47.8926" lon="6.91971">
        <ele>890</ele>
        <time>2026-05-09T18:15:12.344Z</time>
      </trkpt>
      <trkpt lat="47.89259" lon="6.91971">
        <ele>890</ele>
        <time>2026-05-09T18:15:13.344Z</time>
      </trkpt>
      <trkpt lat="47.89259" lon="6.91972">
        <ele>889</ele>
        <time>2026-05-09T18:15:14.345Z</time>
      </trkpt>
      <trkpt lat="47.89258" lon="6.91973">
        <ele>889</ele>
        <time>2026-05-09T18:15:15.345Z</time>
      </trkpt>
      <trkpt lat="47.89257" lon="6.91974">
        <ele>888</ele>
        <time>2026-05-09T18:15:16.344Z</time>
      </trkpt>
      <trkpt lat="47.89256" lon="6.91976">
        <ele>887</ele>
        <time>2026-05-09T18:15:17.345Z</time>
      </trkpt>
      <trkpt lat="47.89256" lon="6.91978">
        <ele>886</ele>
        <time>2026-05-09T18:15:18.345Z</time>
      </trkpt>
      <trkpt lat="47.89255" lon="6.9198">
        <ele>885</ele>
        <time>2026-05-09T18:15:19.345Z</time>
      </trkpt>
      <trkpt lat="47.89255" lon="6.91981">
        <ele>884</ele>
        <time>2026-05-09T18:15:20.345Z</time>
      </trkpt>
      <trkpt lat="47.89254" lon="6.91982">
        <ele>882</ele>
        <time>2026-05-09T18:15:21.344Z</time>
      </trkpt>
      <trkpt lat="47.89254" lon="6.91982">
        <ele>881</ele>
        <time>2026-05-09T18:15:22.345Z</time>
      </trkpt>
      <trkpt lat="47.89254" lon="6.91983">
        <ele>880</ele>
        <time>2026-05-09T18:15:23.344Z</time>
      </trkpt>
      <trkpt lat="47.89253" lon="6.91984">
        <ele>879</ele>
        <time>2026-05-09T18:15:24.344Z</time>
      </trkpt>
      <trkpt lat="47.89252" lon="6.91985">
        <ele>879</ele>
        <time>2026-05-09T18:15:25.344Z</time>
      </trkpt>
      <trkpt lat="47.89251" lon="6.91986">
        <ele>878</ele>
        <time>2026-05-09T18:15:26.344Z</time>
      </trkpt>
      <trkpt lat="47.89251" lon="6.91986">
        <ele>877</ele>
        <time>2026-05-09T18:15:27.345Z</time>
      </trkpt>
      <trkpt lat="47.89251" lon="6.91985">
        <ele>877</ele>
        <time>2026-05-09T18:15:28.345Z</time>
      </trkpt>
      <trkpt lat="47.8925" lon="6.91984">
        <ele>876</ele>
        <time>2026-05-09T18:15:29.345Z</time>
      </trkpt>
      <trkpt lat="47.8925" lon="6.91984">
        <ele>876</ele>
        <time>2026-05-09T18:15:30.344Z</time>
      </trkpt>
      <trkpt lat="47.8925" lon="6.91983">
        <ele>876</ele>
        <time>2026-05-09T18:15:31.344Z</time>
      </trkpt>
      <trkpt lat="47.8925" lon="6.91983">
        <ele>875</ele>
        <time>2026-05-09T18:15:32.344Z</time>
      </trkpt>
      <trkpt lat="47.89249" lon="6.91982">
        <ele>875</ele>
        <time>2026-05-09T18:15:33.345Z</time>
      </trkpt>
      <trkpt lat="47.89248" lon="6.91982">
        <ele>875</ele>
        <time>2026-05-09T18:15:34.344Z</time>
      </trkpt>
      <trkpt lat="47.89247" lon="6.91982">
        <ele>874</ele>
        <time>2026-05-09T18:15:35.344Z</time>
      </trkpt>
      <trkpt lat="47.89246" lon="6.91982">
        <ele>873</ele>
        <time>2026-05-09T18:15:36.345Z</time>
      </trkpt>
      <trkpt lat="47.89245" lon="6.91982">
        <ele>872</ele>
        <time>2026-05-09T18:15:37.344Z</time>
      </trkpt>
      <trkpt lat="47.89244" lon="6.91983">
        <ele>871</ele>
        <time>2026-05-09T18:15:38.344Z</time>
      </trkpt>
      <trkpt lat="47.89243" lon="6.91984">
        <ele>869</ele>
        <time>2026-05-09T18:15:39.345Z</time>
      </trkpt>
      <trkpt lat="47.89243" lon="6.91985">
        <ele>868</ele>
        <time>2026-05-09T18:15:40.344Z</time>
      </trkpt>
      <trkpt lat="47.89241" lon="6.91986">
        <ele>867</ele>
        <time>2026-05-09T18:15:41.345Z</time>
      </trkpt>
      <trkpt lat="47.89241" lon="6.91988">
        <ele>866</ele>
        <time>2026-05-09T18:15:42.344Z</time>
      </trkpt>
      <trkpt lat="47.8924" lon="6.91989">
        <ele>866</ele>
        <time>2026-05-09T18:15:43.345Z</time>
      </trkpt>
      <trkpt lat="47.8924" lon="6.9199">
        <ele>866</ele>
        <time>2026-05-09T18:15:44.344Z</time>
      </trkpt>
      <trkpt lat="47.89239" lon="6.91991">
        <ele>866</ele>
        <time>2026-05-09T18:15:45.345Z</time>
      </trkpt>
      <trkpt lat="47.89238" lon="6.91993">
        <ele>865</ele>
        <time>2026-05-09T18:15:46.345Z</time>
      </trkpt>
      <trkpt lat="47.89237" lon="6.91994">
        <ele>865</ele>
        <time>2026-05-09T18:15:47.345Z</time>
      </trkpt>
      <trkpt lat="47.89237" lon="6.91996">
        <ele>864</ele>
        <time>2026-05-09T18:15:48.344Z</time>
      </trkpt>
      <trkpt lat="47.89236" lon="6.91997">
        <ele>864</ele>
        <time>2026-05-09T18:15:49.344Z</time>
      </trkpt>
      <trkpt lat="47.89235" lon="6.91998">
        <ele>864</ele>
        <time>2026-05-09T18:15:50.345Z</time>
      </trkpt>
      <trkpt lat="47.89234" lon="6.91998">
        <ele>864</ele>
        <time>2026-05-09T18:15:51.345Z</time>
      </trkpt>
      <trkpt lat="47.89233" lon="6.91998">
        <ele>864</ele>
        <time>2026-05-09T18:15:52.345Z</time>
      </trkpt>
      <trkpt lat="47.89232" lon="6.91999">
        <ele>864</ele>
        <time>2026-05-09T18:15:53.344Z</time>
      </trkpt>
      <trkpt lat="47.89231" lon="6.92">
        <ele>864</ele>
        <time>2026-05-09T18:15:54.344Z</time>
      </trkpt>
      <trkpt lat="47.8923" lon="6.92001">
        <ele>864</ele>
        <time>2026-05-09T18:15:55.345Z</time>
      </trkpt>
      <trkpt lat="47.89229" lon="6.92002">
        <ele>865</ele>
        <time>2026-05-09T18:15:56.344Z</time>
      </trkpt>
      <trkpt lat="47.89228" lon="6.92003">
        <ele>865</ele>
        <time>2026-05-09T18:15:57.344Z</time>
      </trkpt>
      <trkpt lat="47.89228" lon="6.92005">
        <ele>865</ele>
        <time>2026-05-09T18:15:58.344Z</time>
      </trkpt>
      <trkpt lat="47.89227" lon="6.92007">
        <ele>865</ele>
        <time>2026-05-09T18:15:59.345Z</time>
      </trkpt>
      <trkpt lat="47.89226" lon="6.92008">
        <ele>865</ele>
        <time>2026-05-09T18:16:00.345Z</time>
      </trkpt>
      <trkpt lat="47.89225" lon="6.92009">
        <ele>865</ele>
        <time>2026-05-09T18:16:01.345Z</time>
      </trkpt>
      <trkpt lat="47.89224" lon="6.9201">
        <ele>865</ele>
        <time>2026-05-09T18:16:02.344Z</time>
      </trkpt>
      <trkpt lat="47.89223" lon="6.92011">
        <ele>865</ele>
        <time>2026-05-09T18:16:03.344Z</time>
      </trkpt>
      <trkpt lat="47.89222" lon="6.92012">
        <ele>865</ele>
        <time>2026-05-09T18:16:04.345Z</time>
      </trkpt>
      <trkpt lat="47.89221" lon="6.92012">
        <ele>865</ele>
        <time>2026-05-09T18:16:05.345Z</time>
      </trkpt>
      <trkpt lat="47.8922" lon="6.92013">
        <ele>865</ele>
        <time>2026-05-09T18:16:06.345Z</time>
      </trkpt>
      <trkpt lat="47.89219" lon="6.92014">
        <ele>865</ele>
        <time>2026-05-09T18:16:07.345Z</time>
      </trkpt>
      <trkpt lat="47.89219" lon="6.92015">
        <ele>865</ele>
        <time>2026-05-09T18:16:08.345Z</time>
      </trkpt>
      <trkpt lat="47.89218" lon="6.92015">
        <ele>865</ele>
        <time>2026-05-09T18:16:09.344Z</time>
      </trkpt>
      <trkpt lat="47.89218" lon="6.92016">
        <ele>865</ele>
        <time>2026-05-09T18:16:10.344Z</time>
      </trkpt>
      <trkpt lat="47.89216" lon="6.92018">
        <ele>865</ele>
        <time>2026-05-09T18:16:11.345Z</time>
      </trkpt>
      <trkpt lat="47.89216" lon="6.92018">
        <ele>865</ele>
        <time>2026-05-09T18:16:12.344Z</time>
      </trkpt>
      <trkpt lat="47.89215" lon="6.92018">
        <ele>865</ele>
        <time>2026-05-09T18:16:13.345Z</time>
      </trkpt>
      <trkpt lat="47.89215" lon="6.92018">
        <ele>865</ele>
        <time>2026-05-09T18:16:14.345Z</time>
      </trkpt>
      <trkpt lat="47.89214" lon="6.92019">
        <ele>865</ele>
        <time>2026-05-09T18:16:15.344Z</time>
      </trkpt>
      <trkpt lat="47.89213" lon="6.92019">
        <ele>865</ele>
        <time>2026-05-09T18:16:16.345Z</time>
      </trkpt>
      <trkpt lat="47.89212" lon="6.92021">
        <ele>864</ele>
        <time>2026-05-09T18:16:17.345Z</time>
      </trkpt>
      <trkpt lat="47.89211" lon="6.92023">
        <ele>864</ele>
        <time>2026-05-09T18:16:18.344Z</time>
      </trkpt>
      <trkpt lat="47.8921" lon="6.92025">
        <ele>865</ele>
        <time>2026-05-09T18:16:19.345Z</time>
      </trkpt>
      <trkpt lat="47.8921" lon="6.92027">
        <ele>865</ele>
        <time>2026-05-09T18:16:20.344Z</time>
      </trkpt>
      <trkpt lat="47.89209" lon="6.92029">
        <ele>865</ele>
        <time>2026-05-09T18:16:21.345Z</time>
      </trkpt>
      <trkpt lat="47.89209" lon="6.9203">
        <ele>865</ele>
        <time>2026-05-09T18:16:22.344Z</time>
      </trkpt>
      <trkpt lat="47.89208" lon="6.9203">
        <ele>865</ele>
        <time>2026-05-09T18:16:23.345Z</time>
      </trkpt>
      <trkpt lat="47.89208" lon="6.92029">
        <ele>864</ele>
        <time>2026-05-09T18:16:24.344Z</time>
      </trkpt>
      <trkpt lat="47.89206" lon="6.92028">
        <ele>864</ele>
        <time>2026-05-09T18:16:25.345Z</time>
      </trkpt>
      <trkpt lat="47.89204" lon="6.92027">
        <ele>863</ele>
        <time>2026-05-09T18:16:26.345Z</time>
      </trkpt>
      <trkpt lat="47.89203" lon="6.92026">
        <ele>863</ele>
        <time>2026-05-09T18:16:27.344Z</time>
      </trkpt>
      <trkpt lat="47.89203" lon="6.92025">
        <ele>863</ele>
        <time>2026-05-09T18:16:28.345Z</time>
      </trkpt>
      <trkpt lat="47.89203" lon="6.92026">
        <ele>863</ele>
        <time>2026-05-09T18:16:29.345Z</time>
      </trkpt>
      <trkpt lat="47.89202" lon="6.92027">
        <ele>863</ele>
        <time>2026-05-09T18:16:30.344Z</time>
      </trkpt>
      <trkpt lat="47.89201" lon="6.92028">
        <ele>863</ele>
        <time>2026-05-09T18:16:31.344Z</time>
      </trkpt>
      <trkpt lat="47.892" lon="6.92027">
        <ele>862</ele>
        <time>2026-05-09T18:16:32.344Z</time>
      </trkpt>
      <trkpt lat="47.89199" lon="6.92026">
        <ele>862</ele>
        <time>2026-05-09T18:16:33.345Z</time>
      </trkpt>
      <trkpt lat="47.89199" lon="6.92024">
        <ele>862</ele>
        <time>2026-05-09T18:16:34.345Z</time>
      </trkpt>
      <trkpt lat="47.89198" lon="6.92023">
        <ele>862</ele>
        <time>2026-05-09T18:16:35.344Z</time>
      </trkpt>
      <trkpt lat="47.89197" lon="6.92021">
        <ele>861</ele>
        <time>2026-05-09T18:16:36.345Z</time>
      </trkpt>
      <trkpt lat="47.89197" lon="6.9202">
        <ele>861</ele>
        <time>2026-05-09T18:16:37.344Z</time>
      </trkpt>
      <trkpt lat="47.89196" lon="6.92018">
        <ele>861</ele>
        <time>2026-05-09T18:16:38.344Z</time>
      </trkpt>
      <trkpt lat="47.89196" lon="6.92018">
        <ele>860</ele>
        <time>2026-05-09T18:16:39.345Z</time>
      </trkpt>
      <trkpt lat="47.89196" lon="6.92018">
        <ele>860</ele>
        <time>2026-05-09T18:16:40.345Z</time>
      </trkpt>
      <trkpt lat="47.89197" lon="6.92018">
        <ele>859</ele>
        <time>2026-05-09T18:16:41.344Z</time>
      </trkpt>
      <trkpt lat="47.89199" lon="6.92025">
        <ele>854</ele>
        <time>2026-05-09T18:16:47.696Z</time>
      </trkpt>
      <trkpt lat="47.89198" lon="6.92027">
        <ele>854</ele>
        <time>2026-05-09T18:16:48.696Z</time>
      </trkpt>
      <trkpt lat="47.89198" lon="6.92028">
        <ele>853</ele>
        <time>2026-05-09T18:16:49.697Z</time>
      </trkpt>
      <trkpt lat="47.89198" lon="6.92029">
        <ele>853</ele>
        <time>2026-05-09T18:16:50.696Z</time>
      </trkpt>
      <trkpt lat="47.89198" lon="6.9203">
        <ele>852</ele>
        <time>2026-05-09T18:16:51.697Z</time>
      </trkpt>
      <trkpt lat="47.89198" lon="6.92032">
        <ele>852</ele>
        <time>2026-05-09T18:16:52.697Z</time>
      </trkpt>
      <trkpt lat="47.89198" lon="6.92033">
        <ele>852</ele>
        <time>2026-05-09T18:16:53.697Z</time>
      </trkpt>
      <trkpt lat="47.89198" lon="6.92034">
        <ele>851</ele>
        <time>2026-05-09T18:16:54.696Z</time>
      </trkpt>
      <trkpt lat="47.89197" lon="6.92036">
        <ele>851</ele>
        <time>2026-05-09T18:16:55.696Z</time>
      </trkpt>
      <trkpt lat="47.89197" lon="6.92037">
        <ele>851</ele>
        <time>2026-05-09T18:16:56.697Z</time>
      </trkpt>
      <trkpt lat="47.89197" lon="6.92039">
        <ele>851</ele>
        <time>2026-05-09T18:16:57.697Z</time>
      </trkpt>
      <trkpt lat="47.89197" lon="6.92042">
        <ele>851</ele>
        <time>2026-05-09T18:16:58.696Z</time>
      </trkpt>
      <trkpt lat="47.89196" lon="6.92044">
        <ele>851</ele>
        <time>2026-05-09T18:16:59.697Z</time>
      </trkpt>
      <trkpt lat="47.89196" lon="6.92046">
        <ele>851</ele>
        <time>2026-05-09T18:17:00.696Z</time>
      </trkpt>
      <trkpt lat="47.89196" lon="6.92048">
        <ele>851</ele>
        <time>2026-05-09T18:17:01.697Z</time>
      </trkpt>
      <trkpt lat="47.89195" lon="6.92049">
        <ele>851</ele>
        <time>2026-05-09T18:17:02.697Z</time>
      </trkpt>
      <trkpt lat="47.89194" lon="6.9205">
        <ele>850</ele>
        <time>2026-05-09T18:17:03.696Z</time>
      </trkpt>
      <trkpt lat="47.89193" lon="6.92051">
        <ele>850</ele>
        <time>2026-05-09T18:17:04.697Z</time>
      </trkpt>
      <trkpt lat="47.89193" lon="6.92052">
        <ele>850</ele>
        <time>2026-05-09T18:17:05.697Z</time>
      </trkpt>
      <trkpt lat="47.89192" lon="6.92053">
        <ele>849</ele>
        <time>2026-05-09T18:17:06.696Z</time>
      </trkpt>
      <trkpt lat="47.89192" lon="6.92054">
        <ele>849</ele>
        <time>2026-05-09T18:17:07.697Z</time>
      </trkpt>
      <trkpt lat="47.89192" lon="6.92055">
        <ele>849</ele>
        <time>2026-05-09T18:17:08.696Z</time>
      </trkpt>
      <trkpt lat="47.89192" lon="6.92057">
        <ele>848</ele>
        <time>2026-05-09T18:17:09.696Z</time>
      </trkpt>
      <trkpt lat="47.89191" lon="6.92058">
        <ele>848</ele>
        <time>2026-05-09T18:17:10.697Z</time>
      </trkpt>
      <trkpt lat="47.8919" lon="6.92059">
        <ele>848</ele>
        <time>2026-05-09T18:17:11.697Z</time>
      </trkpt>
      <trkpt lat="47.8919" lon="6.92059">
        <ele>848</ele>
        <time>2026-05-09T18:17:12.697Z</time>
      </trkpt>
      <trkpt lat="47.8919" lon="6.92059">
        <ele>847</ele>
        <time>2026-05-09T18:17:13.697Z</time>
      </trkpt>
      <trkpt lat="47.8919" lon="6.92059">
        <ele>845</ele>
        <time>2026-05-09T18:17:20.874Z</time>
      </trkpt>
      <trkpt lat="47.89166" lon="6.92085">
        <ele>840</ele>
        <time>2026-05-09T18:21:40.057Z</time>
      </trkpt>
      <trkpt lat="47.89165" lon="6.92086">
        <ele>841</ele>
        <time>2026-05-09T18:21:41.057Z</time>
      </trkpt>
      <trkpt lat="47.89164" lon="6.92088">
        <ele>842</ele>
        <time>2026-05-09T18:21:42.057Z</time>
      </trkpt>
      <trkpt lat="47.89162" lon="6.92089">
        <ele>842</ele>
        <time>2026-05-09T18:21:43.058Z</time>
      </trkpt>
      <trkpt lat="47.89161" lon="6.92091">
        <ele>843</ele>
        <time>2026-05-09T18:21:44.058Z</time>
      </trkpt>
      <trkpt lat="47.8916" lon="6.92092">
        <ele>843</ele>
        <time>2026-05-09T18:21:45.057Z</time>
      </trkpt>
      <trkpt lat="47.89159" lon="6.92093">
        <ele>843</ele>
        <time>2026-05-09T18:21:46.057Z</time>
      </trkpt>
      <trkpt lat="47.89158" lon="6.92095">
        <ele>843</ele>
        <time>2026-05-09T18:21:47.057Z</time>
      </trkpt>
      <trkpt lat="47.89157" lon="6.92096">
        <ele>842</ele>
        <time>2026-05-09T18:21:48.057Z</time>
      </trkpt>
      <trkpt lat="47.89156" lon="6.92097">
        <ele>842</ele>
        <time>2026-05-09T18:21:49.057Z</time>
      </trkpt>
      <trkpt lat="47.89155" lon="6.92097">
        <ele>841</ele>
        <time>2026-05-09T18:21:50.057Z</time>
      </trkpt>
      <trkpt lat="47.89154" lon="6.92098">
        <ele>841</ele>
        <time>2026-05-09T18:21:51.057Z</time>
      </trkpt>
      <trkpt lat="47.89154" lon="6.92099">
        <ele>841</ele>
        <time>2026-05-09T18:21:52.058Z</time>
      </trkpt>
      <trkpt lat="47.89152" lon="6.92101">
        <ele>840</ele>
        <time>2026-05-09T18:21:53.057Z</time>
      </trkpt>
      <trkpt lat="47.89151" lon="6.92103">
        <ele>840</ele>
        <time>2026-05-09T18:21:54.057Z</time>
      </trkpt>
      <trkpt lat="47.8915" lon="6.92104">
        <ele>840</ele>
        <time>2026-05-09T18:21:55.057Z</time>
      </trkpt>
      <trkpt lat="47.89149" lon="6.92105">
        <ele>840</ele>
        <time>2026-05-09T18:21:56.057Z</time>
      </trkpt>
      <trkpt lat="47.89148" lon="6.92106">
        <ele>839</ele>
        <time>2026-05-09T18:21:57.057Z</time>
      </trkpt>
      <trkpt lat="47.89148" lon="6.92106">
        <ele>839</ele>
        <time>2026-05-09T18:21:58.057Z</time>
      </trkpt>
      <trkpt lat="47.89147" lon="6.92106">
        <ele>839</ele>
        <time>2026-05-09T18:21:59.057Z</time>
      </trkpt>
      <trkpt lat="47.89146" lon="6.92106">
        <ele>839</ele>
        <time>2026-05-09T18:22:00.057Z</time>
      </trkpt>
      <trkpt lat="47.89146" lon="6.92106">
        <ele>838</ele>
        <time>2026-05-09T18:22:01.057Z</time>
      </trkpt>
      <trkpt lat="47.89146" lon="6.92107">
        <ele>838</ele>
        <time>2026-05-09T18:22:02.058Z</time>
      </trkpt>
      <trkpt lat="47.89146" lon="6.92108">
        <ele>838</ele>
        <time>2026-05-09T18:22:03.057Z</time>
      </trkpt>
      <trkpt lat="47.89146" lon="6.92108">
        <ele>838</ele>
        <time>2026-05-09T18:22:04.058Z</time>
      </trkpt>
      <trkpt lat="47.89145" lon="6.92109">
        <ele>837</ele>
        <time>2026-05-09T18:22:05.057Z</time>
      </trkpt>
      <trkpt lat="47.89144" lon="6.9211">
        <ele>836</ele>
        <time>2026-05-09T18:22:06.058Z</time>
      </trkpt>
      <trkpt lat="47.89142" lon="6.92111">
        <ele>835</ele>
        <time>2026-05-09T18:22:07.057Z</time>
      </trkpt>
      <trkpt lat="47.89141" lon="6.92112">
        <ele>834</ele>
        <time>2026-05-09T18:22:08.057Z</time>
      </trkpt>
      <trkpt lat="47.89139" lon="6.92114">
        <ele>834</ele>
        <time>2026-05-09T18:22:09.058Z</time>
      </trkpt>
      <trkpt lat="47.89138" lon="6.92115">
        <ele>834</ele>
        <time>2026-05-09T18:22:10.058Z</time>
      </trkpt>
      <trkpt lat="47.89138" lon="6.92115">
        <ele>833</ele>
        <time>2026-05-09T18:22:11.057Z</time>
      </trkpt>
      <trkpt lat="47.89137" lon="6.92116">
        <ele>833</ele>
        <time>2026-05-09T18:22:12.058Z</time>
      </trkpt>
      <trkpt lat="47.89136" lon="6.92117">
        <ele>833</ele>
        <time>2026-05-09T18:22:13.057Z</time>
      </trkpt>
      <trkpt lat="47.89134" lon="6.9212">
        <ele>832</ele>
        <time>2026-05-09T18:22:14.057Z</time>
      </trkpt>
      <trkpt lat="47.89132" lon="6.92121">
        <ele>832</ele>
        <time>2026-05-09T18:22:15.058Z</time>
      </trkpt>
      <trkpt lat="47.89131" lon="6.92122">
        <ele>832</ele>
        <time>2026-05-09T18:22:16.058Z</time>
      </trkpt>
      <trkpt lat="47.8913" lon="6.92123">
        <ele>832</ele>
        <time>2026-05-09T18:22:17.058Z</time>
      </trkpt>
      <trkpt lat="47.89128" lon="6.92125">
        <ele>831</ele>
        <time>2026-05-09T18:22:18.057Z</time>
      </trkpt>
      <trkpt lat="47.89127" lon="6.92125">
        <ele>831</ele>
        <time>2026-05-09T18:22:19.058Z</time>
      </trkpt>
      <trkpt lat="47.89125" lon="6.92127">
        <ele>831</ele>
        <time>2026-05-09T18:22:20.058Z</time>
      </trkpt>
      <trkpt lat="47.89124" lon="6.92128">
        <ele>830</ele>
        <time>2026-05-09T18:22:21.058Z</time>
      </trkpt>
      <trkpt lat="47.89122" lon="6.92129">
        <ele>830</ele>
        <time>2026-05-09T18:22:22.057Z</time>
      </trkpt>
      <trkpt lat="47.8912" lon="6.92129">
        <ele>830</ele>
        <time>2026-05-09T18:22:23.057Z</time>
      </trkpt>
      <trkpt lat="47.89118" lon="6.9213">
        <ele>829</ele>
        <time>2026-05-09T18:22:24.057Z</time>
      </trkpt>
      <trkpt lat="47.89117" lon="6.92131">
        <ele>829</ele>
        <time>2026-05-09T18:22:25.057Z</time>
      </trkpt>
      <trkpt lat="47.89115" lon="6.92132">
        <ele>829</ele>
        <time>2026-05-09T18:22:26.057Z</time>
      </trkpt>
      <trkpt lat="47.89114" lon="6.92133">
        <ele>829</ele>
        <time>2026-05-09T18:22:27.058Z</time>
      </trkpt>
      <trkpt lat="47.89113" lon="6.92134">
        <ele>829</ele>
        <time>2026-05-09T18:22:28.057Z</time>
      </trkpt>
      <trkpt lat="47.89111" lon="6.92136">
        <ele>829</ele>
        <time>2026-05-09T18:22:29.057Z</time>
      </trkpt>
      <trkpt lat="47.8911" lon="6.92137">
        <ele>829</ele>
        <time>2026-05-09T18:22:30.057Z</time>
      </trkpt>
      <trkpt lat="47.89109" lon="6.92139">
        <ele>829</ele>
        <time>2026-05-09T18:22:31.057Z</time>
      </trkpt>
      <trkpt lat="47.89107" lon="6.92141">
        <ele>828</ele>
        <time>2026-05-09T18:22:32.057Z</time>
      </trkpt>
      <trkpt lat="47.89106" lon="6.92142">
        <ele>828</ele>
        <time>2026-05-09T18:22:33.057Z</time>
      </trkpt>
      <trkpt lat="47.89105" lon="6.92143">
        <ele>827</ele>
        <time>2026-05-09T18:22:34.057Z</time>
      </trkpt>
      <trkpt lat="47.89104" lon="6.92144">
        <ele>827</ele>
        <time>2026-05-09T18:22:35.057Z</time>
      </trkpt>
      <trkpt lat="47.89103" lon="6.92145">
        <ele>826</ele>
        <time>2026-05-09T18:22:36.057Z</time>
      </trkpt>
      <trkpt lat="47.89101" lon="6.92146">
        <ele>826</ele>
        <time>2026-05-09T18:22:37.057Z</time>
      </trkpt>
      <trkpt lat="47.891" lon="6.92147">
        <ele>825</ele>
        <time>2026-05-09T18:22:38.058Z</time>
      </trkpt>
      <trkpt lat="47.89099" lon="6.92147">
        <ele>825</ele>
        <time>2026-05-09T18:22:39.057Z</time>
      </trkpt>
      <trkpt lat="47.89098" lon="6.92148">
        <ele>824</ele>
        <time>2026-05-09T18:22:40.057Z</time>
      </trkpt>
      <trkpt lat="47.89097" lon="6.92149">
        <ele>823</ele>
        <time>2026-05-09T18:22:41.057Z</time>
      </trkpt>
      <trkpt lat="47.89096" lon="6.92149">
        <ele>823</ele>
        <time>2026-05-09T18:22:42.057Z</time>
      </trkpt>
      <trkpt lat="47.89095" lon="6.9215">
        <ele>822</ele>
        <time>2026-05-09T18:22:43.057Z</time>
      </trkpt>
      <trkpt lat="47.89094" lon="6.92151">
        <ele>821</ele>
        <time>2026-05-09T18:22:44.057Z</time>
      </trkpt>
      <trkpt lat="47.89093" lon="6.92153">
        <ele>820</ele>
        <time>2026-05-09T18:22:45.057Z</time>
      </trkpt>
      <trkpt lat="47.89092" lon="6.92155">
        <ele>819</ele>
        <time>2026-05-09T18:22:46.058Z</time>
      </trkpt>
      <trkpt lat="47.89091" lon="6.92156">
        <ele>818</ele>
        <time>2026-05-09T18:22:47.057Z</time>
      </trkpt>
      <trkpt lat="47.8909" lon="6.92157">
        <ele>817</ele>
        <time>2026-05-09T18:22:48.057Z</time>
      </trkpt>
      <trkpt lat="47.89089" lon="6.92158">
        <ele>816</ele>
        <time>2026-05-09T18:22:49.057Z</time>
      </trkpt>
      <trkpt lat="47.89088" lon="6.92159">
        <ele>815</ele>
        <time>2026-05-09T18:22:50.057Z</time>
      </trkpt>
      <trkpt lat="47.89088" lon="6.9216">
        <ele>815</ele>
        <time>2026-05-09T18:22:51.058Z</time>
      </trkpt>
      <trkpt lat="47.89087" lon="6.92161">
        <ele>814</ele>
        <time>2026-05-09T18:22:52.057Z</time>
      </trkpt>
      <trkpt lat="47.89086" lon="6.92162">
        <ele>814</ele>
        <time>2026-05-09T18:22:53.058Z</time>
      </trkpt>
      <trkpt lat="47.89085" lon="6.92163">
        <ele>814</ele>
        <time>2026-05-09T18:22:54.057Z</time>
      </trkpt>
      <trkpt lat="47.89085" lon="6.92164">
        <ele>814</ele>
        <time>2026-05-09T18:22:55.057Z</time>
      </trkpt>
      <trkpt lat="47.89083" lon="6.92166">
        <ele>814</ele>
        <time>2026-05-09T18:22:56.058Z</time>
      </trkpt>
      <trkpt lat="47.89082" lon="6.92168">
        <ele>814</ele>
        <time>2026-05-09T18:22:57.058Z</time>
      </trkpt>
      <trkpt lat="47.89081" lon="6.92169">
        <ele>814</ele>
        <time>2026-05-09T18:22:58.057Z</time>
      </trkpt>
      <trkpt lat="47.89079" lon="6.9217">
        <ele>813</ele>
        <time>2026-05-09T18:22:59.058Z</time>
      </trkpt>
      <trkpt lat="47.89078" lon="6.92171">
        <ele>813</ele>
        <time>2026-05-09T18:23:00.057Z</time>
      </trkpt>
      <trkpt lat="47.89076" lon="6.92172">
        <ele>813</ele>
        <time>2026-05-09T18:23:01.058Z</time>
      </trkpt>
      <trkpt lat="47.89075" lon="6.92173">
        <ele>812</ele>
        <time>2026-05-09T18:23:02.058Z</time>
      </trkpt>
      <trkpt lat="47.89073" lon="6.92173">
        <ele>812</ele>
        <time>2026-05-09T18:23:03.058Z</time>
      </trkpt>
      <trkpt lat="47.89071" lon="6.92174">
        <ele>811</ele>
        <time>2026-05-09T18:23:04.057Z</time>
      </trkpt>
      <trkpt lat="47.8907" lon="6.92175">
        <ele>811</ele>
        <time>2026-05-09T18:23:05.057Z</time>
      </trkpt>
      <trkpt lat="47.8907" lon="6.92176">
        <ele>811</ele>
        <time>2026-05-09T18:23:06.058Z</time>
      </trkpt>
      <trkpt lat="47.89069" lon="6.92177">
        <ele>810</ele>
        <time>2026-05-09T18:23:07.057Z</time>
      </trkpt>
      <trkpt lat="47.89068" lon="6.92178">
        <ele>810</ele>
        <time>2026-05-09T18:23:08.057Z</time>
      </trkpt>
      <trkpt lat="47.89067" lon="6.9218">
        <ele>810</ele>
        <time>2026-05-09T18:23:09.058Z</time>
      </trkpt>
      <trkpt lat="47.89066" lon="6.92181">
        <ele>809</ele>
        <time>2026-05-09T18:23:10.057Z</time>
      </trkpt>
      <trkpt lat="47.89065" lon="6.92182">
        <ele>809</ele>
        <time>2026-05-09T18:23:11.057Z</time>
      </trkpt>
      <trkpt lat="47.89064" lon="6.92184">
        <ele>809</ele>
        <time>2026-05-09T18:23:12.057Z</time>
      </trkpt>
      <trkpt lat="47.89063" lon="6.92184">
        <ele>809</ele>
        <time>2026-05-09T18:23:13.057Z</time>
      </trkpt>
      <trkpt lat="47.89062" lon="6.92185">
        <ele>809</ele>
        <time>2026-05-09T18:23:14.057Z</time>
      </trkpt>
      <trkpt lat="47.89061" lon="6.92187">
        <ele>809</ele>
        <time>2026-05-09T18:23:15.057Z</time>
      </trkpt>
      <trkpt lat="47.8906" lon="6.92188">
        <ele>809</ele>
        <time>2026-05-09T18:23:16.057Z</time>
      </trkpt>
      <trkpt lat="47.8906" lon="6.92189">
        <ele>809</ele>
        <time>2026-05-09T18:23:17.057Z</time>
      </trkpt>
      <trkpt lat="47.89059" lon="6.92191">
        <ele>808</ele>
        <time>2026-05-09T18:23:18.058Z</time>
      </trkpt>
      <trkpt lat="47.89059" lon="6.92193">
        <ele>807</ele>
        <time>2026-05-09T18:23:19.058Z</time>
      </trkpt>
      <trkpt lat="47.89057" lon="6.92194">
        <ele>807</ele>
        <time>2026-05-09T18:23:20.058Z</time>
      </trkpt>
      <trkpt lat="47.89057" lon="6.92195">
        <ele>806</ele>
        <time>2026-05-09T18:23:21.058Z</time>
      </trkpt>
      <trkpt lat="47.89055" lon="6.92196">
        <ele>806</ele>
        <time>2026-05-09T18:23:22.058Z</time>
      </trkpt>
      <trkpt lat="47.89053" lon="6.92197">
        <ele>806</ele>
        <time>2026-05-09T18:23:23.057Z</time>
      </trkpt>
      <trkpt lat="47.89052" lon="6.92198">
        <ele>805</ele>
        <time>2026-05-09T18:23:24.057Z</time>
      </trkpt>
      <trkpt lat="47.89051" lon="6.92199">
        <ele>805</ele>
        <time>2026-05-09T18:23:25.057Z</time>
      </trkpt>
      <trkpt lat="47.8905" lon="6.922">
        <ele>805</ele>
        <time>2026-05-09T18:23:26.058Z</time>
      </trkpt>
      <trkpt lat="47.89048" lon="6.92201">
        <ele>804</ele>
        <time>2026-05-09T18:23:27.058Z</time>
      </trkpt>
      <trkpt lat="47.89047" lon="6.92202">
        <ele>804</ele>
        <time>2026-05-09T18:23:28.058Z</time>
      </trkpt>
      <trkpt lat="47.89046" lon="6.92204">
        <ele>804</ele>
        <time>2026-05-09T18:23:29.057Z</time>
      </trkpt>
      <trkpt lat="47.89045" lon="6.92205">
        <ele>804</ele>
        <time>2026-05-09T18:23:30.057Z</time>
      </trkpt>
      <trkpt lat="47.89043" lon="6.92205">
        <ele>804</ele>
        <time>2026-05-09T18:23:31.057Z</time>
      </trkpt>
      <trkpt lat="47.89043" lon="6.92204">
        <ele>803</ele>
        <time>2026-05-09T18:23:32.057Z</time>
      </trkpt>
      <trkpt lat="47.89042" lon="6.92202">
        <ele>803</ele>
        <time>2026-05-09T18:23:33.057Z</time>
      </trkpt>
      <trkpt lat="47.89042" lon="6.922">
        <ele>802</ele>
        <time>2026-05-09T18:23:34.058Z</time>
      </trkpt>
      <trkpt lat="47.89041" lon="6.92198">
        <ele>802</ele>
        <time>2026-05-09T18:23:35.057Z</time>
      </trkpt>
      <trkpt lat="47.89041" lon="6.92196">
        <ele>802</ele>
        <time>2026-05-09T18:23:36.058Z</time>
      </trkpt>
      <trkpt lat="47.89041" lon="6.92194">
        <ele>801</ele>
        <time>2026-05-09T18:23:37.057Z</time>
      </trkpt>
      <trkpt lat="47.89042" lon="6.92192">
        <ele>800</ele>
        <time>2026-05-09T18:23:38.057Z</time>
      </trkpt>
      <trkpt lat="47.89042" lon="6.9219">
        <ele>799</ele>
        <time>2026-05-09T18:23:39.057Z</time>
      </trkpt>
      <trkpt lat="47.89042" lon="6.92189">
        <ele>799</ele>
        <time>2026-05-09T18:23:40.057Z</time>
      </trkpt>
      <trkpt lat="47.89043" lon="6.92187">
        <ele>799</ele>
        <time>2026-05-09T18:23:41.058Z</time>
      </trkpt>
      <trkpt lat="47.89043" lon="6.92185">
        <ele>799</ele>
        <time>2026-05-09T18:23:42.058Z</time>
      </trkpt>
      <trkpt lat="47.89044" lon="6.92183">
        <ele>798</ele>
        <time>2026-05-09T18:23:43.057Z</time>
      </trkpt>
      <trkpt lat="47.89044" lon="6.92181">
        <ele>798</ele>
        <time>2026-05-09T18:23:44.058Z</time>
      </trkpt>
      <trkpt lat="47.89045" lon="6.9218">
        <ele>798</ele>
        <time>2026-05-09T18:23:45.058Z</time>
      </trkpt>
      <trkpt lat="47.89046" lon="6.92178">
        <ele>798</ele>
        <time>2026-05-09T18:23:46.057Z</time>
      </trkpt>
      <trkpt lat="47.89047" lon="6.92176">
        <ele>797</ele>
        <time>2026-05-09T18:23:47.058Z</time>
      </trkpt>
      <trkpt lat="47.89047" lon="6.92174">
        <ele>797</ele>
        <time>2026-05-09T18:23:48.058Z</time>
      </trkpt>
      <trkpt lat="47.89048" lon="6.92172">
        <ele>796</ele>
        <time>2026-05-09T18:23:49.057Z</time>
      </trkpt>
      <trkpt lat="47.89048" lon="6.92169">
        <ele>796</ele>
        <time>2026-05-09T18:23:50.058Z</time>
      </trkpt>
      <trkpt lat="47.89049" lon="6.92167">
        <ele>796</ele>
        <time>2026-05-09T18:23:51.057Z</time>
      </trkpt>
      <trkpt lat="47.89048" lon="6.92165">
        <ele>795</ele>
        <time>2026-05-09T18:23:52.058Z</time>
      </trkpt>
      <trkpt lat="47.89049" lon="6.92163">
        <ele>795</ele>
        <time>2026-05-09T18:23:53.058Z</time>
      </trkpt>
      <trkpt lat="47.89049" lon="6.92162">
        <ele>794</ele>
        <time>2026-05-09T18:23:54.058Z</time>
      </trkpt>
      <trkpt lat="47.89049" lon="6.9216">
        <ele>794</ele>
        <time>2026-05-09T18:23:55.058Z</time>
      </trkpt>
      <trkpt lat="47.8905" lon="6.92158">
        <ele>793</ele>
        <time>2026-05-09T18:23:56.058Z</time>
      </trkpt>
      <trkpt lat="47.8905" lon="6.92156">
        <ele>793</ele>
        <time>2026-05-09T18:23:57.057Z</time>
      </trkpt>
      <trkpt lat="47.89051" lon="6.92154">
        <ele>793</ele>
        <time>2026-05-09T18:23:58.058Z</time>
      </trkpt>
      <trkpt lat="47.89052" lon="6.92153">
        <ele>792</ele>
        <time>2026-05-09T18:23:59.058Z</time>
      </trkpt>
      <trkpt lat="47.89053" lon="6.92151">
        <ele>792</ele>
        <time>2026-05-09T18:24:00.058Z</time>
      </trkpt>
      <trkpt lat="47.89054" lon="6.92149">
        <ele>792</ele>
        <time>2026-05-09T18:24:01.058Z</time>
      </trkpt>
      <trkpt lat="47.89054" lon="6.92147">
        <ele>792</ele>
        <time>2026-05-09T18:24:02.058Z</time>
      </trkpt>
      <trkpt lat="47.89055" lon="6.92146">
        <ele>792</ele>
        <time>2026-05-09T18:24:03.058Z</time>
      </trkpt>
      <trkpt lat="47.89056" lon="6.92143">
        <ele>792</ele>
        <time>2026-05-09T18:24:04.057Z</time>
      </trkpt>
      <trkpt lat="47.89057" lon="6.9214">
        <ele>792</ele>
        <time>2026-05-09T18:24:05.057Z</time>
      </trkpt>
      <trkpt lat="47.89058" lon="6.92138">
        <ele>792</ele>
        <time>2026-05-09T18:24:06.057Z</time>
      </trkpt>
      <trkpt lat="47.89059" lon="6.92136">
        <ele>792</ele>
        <time>2026-05-09T18:24:07.057Z</time>
      </trkpt>
      <trkpt lat="47.89059" lon="6.92133">
        <ele>792</ele>
        <time>2026-05-09T18:24:08.057Z</time>
      </trkpt>
      <trkpt lat="47.8906" lon="6.9213">
        <ele>791</ele>
        <time>2026-05-09T18:24:09.057Z</time>
      </trkpt>
      <trkpt lat="47.89061" lon="6.92128">
        <ele>791</ele>
        <time>2026-05-09T18:24:10.057Z</time>
      </trkpt>
      <trkpt lat="47.89061" lon="6.92126">
        <ele>791</ele>
        <time>2026-05-09T18:24:11.057Z</time>
      </trkpt>
      <trkpt lat="47.89062" lon="6.92125">
        <ele>791</ele>
        <time>2026-05-09T18:24:12.058Z</time>
      </trkpt>
      <trkpt lat="47.89063" lon="6.92123">
        <ele>791</ele>
        <time>2026-05-09T18:24:13.057Z</time>
      </trkpt>
      <trkpt lat="47.89064" lon="6.92122">
        <ele>791</ele>
        <time>2026-05-09T18:24:14.058Z</time>
      </trkpt>
      <trkpt lat="47.89065" lon="6.9212">
        <ele>791</ele>
        <time>2026-05-09T18:24:15.057Z</time>
      </trkpt>
      <trkpt lat="47.89066" lon="6.92119">
        <ele>791</ele>
        <time>2026-05-09T18:24:16.057Z</time>
      </trkpt>
      <trkpt lat="47.89066" lon="6.92117">
        <ele>791</ele>
        <time>2026-05-09T18:24:17.057Z</time>
      </trkpt>
      <trkpt lat="47.89067" lon="6.92115">
        <ele>791</ele>
        <time>2026-05-09T18:24:18.057Z</time>
      </trkpt>
      <trkpt lat="47.89068" lon="6.92114">
        <ele>791</ele>
        <time>2026-05-09T18:24:19.057Z</time>
      </trkpt>
      <trkpt lat="47.89069" lon="6.92112">
        <ele>791</ele>
        <time>2026-05-09T18:24:20.057Z</time>
      </trkpt>
      <trkpt lat="47.8907" lon="6.9211">
        <ele>791</ele>
        <time>2026-05-09T18:24:21.057Z</time>
      </trkpt>
      <trkpt lat="47.8907" lon="6.92108">
        <ele>791</ele>
        <time>2026-05-09T18:24:22.057Z</time>
      </trkpt>
      <trkpt lat="47.89071" lon="6.92106">
        <ele>790</ele>
        <time>2026-05-09T18:24:23.057Z</time>
      </trkpt>
      <trkpt lat="47.89072" lon="6.92104">
        <ele>790</ele>
        <time>2026-05-09T18:24:24.057Z</time>
      </trkpt>
      <trkpt lat="47.89073" lon="6.92101">
        <ele>790</ele>
        <time>2026-05-09T18:24:25.057Z</time>
      </trkpt>
      <trkpt lat="47.89074" lon="6.92099">
        <ele>790</ele>
        <time>2026-05-09T18:24:26.058Z</time>
      </trkpt>
      <trkpt lat="47.89075" lon="6.92097">
        <ele>790</ele>
        <time>2026-05-09T18:24:27.057Z</time>
      </trkpt>
      <trkpt lat="47.89076" lon="6.92095">
        <ele>790</ele>
        <time>2026-05-09T18:24:28.058Z</time>
      </trkpt>
      <trkpt lat="47.89076" lon="6.92093">
        <ele>790</ele>
        <time>2026-05-09T18:24:29.057Z</time>
      </trkpt>
      <trkpt lat="47.89077" lon="6.92091">
        <ele>789</ele>
        <time>2026-05-09T18:24:30.057Z</time>
      </trkpt>
      <trkpt lat="47.89078" lon="6.92089">
        <ele>789</ele>
        <time>2026-05-09T18:24:31.057Z</time>
      </trkpt>
      <trkpt lat="47.89079" lon="6.92087">
        <ele>789</ele>
        <time>2026-05-09T18:24:32.057Z</time>
      </trkpt>
      <trkpt lat="47.8908" lon="6.92085">
        <ele>789</ele>
        <time>2026-05-09T18:24:33.057Z</time>
      </trkpt>
      <trkpt lat="47.8908" lon="6.92082">
        <ele>788</ele>
        <time>2026-05-09T18:24:34.058Z</time>
      </trkpt>
      <trkpt lat="47.89081" lon="6.9208">
        <ele>788</ele>
        <time>2026-05-09T18:24:35.057Z</time>
      </trkpt>
      <trkpt lat="47.89082" lon="6.92078">
        <ele>788</ele>
        <time>2026-05-09T18:24:36.058Z</time>
      </trkpt>
      <trkpt lat="47.89083" lon="6.92076">
        <ele>787</ele>
        <time>2026-05-09T18:24:37.057Z</time>
      </trkpt>
      <trkpt lat="47.89084" lon="6.92074">
        <ele>786</ele>
        <time>2026-05-09T18:24:38.057Z</time>
      </trkpt>
      <trkpt lat="47.89085" lon="6.92072">
        <ele>786</ele>
        <time>2026-05-09T18:24:39.057Z</time>
      </trkpt>
      <trkpt lat="47.89085" lon="6.9207">
        <ele>785</ele>
        <time>2026-05-09T18:24:40.057Z</time>
      </trkpt>
      <trkpt lat="47.89086" lon="6.92068">
        <ele>785</ele>
        <time>2026-05-09T18:24:41.057Z</time>
      </trkpt>
      <trkpt lat="47.89087" lon="6.92066">
        <ele>785</ele>
        <time>2026-05-09T18:24:42.057Z</time>
      </trkpt>
      <trkpt lat="47.89087" lon="6.92063">
        <ele>785</ele>
        <time>2026-05-09T18:24:43.057Z</time>
      </trkpt>
      <trkpt lat="47.89088" lon="6.92061">
        <ele>785</ele>
        <time>2026-05-09T18:24:44.057Z</time>
      </trkpt>
      <trkpt lat="47.89088" lon="6.92059">
        <ele>785</ele>
        <time>2026-05-09T18:24:45.057Z</time>
      </trkpt>
      <trkpt lat="47.89089" lon="6.92056">
        <ele>785</ele>
        <time>2026-05-09T18:24:46.057Z</time>
      </trkpt>
      <trkpt lat="47.89089" lon="6.92054">
        <ele>785</ele>
        <time>2026-05-09T18:24:47.057Z</time>
      </trkpt>
      <trkpt lat="47.8909" lon="6.92051">
        <ele>785</ele>
        <time>2026-05-09T18:24:48.057Z</time>
      </trkpt>
      <trkpt lat="47.8909" lon="6.92049">
        <ele>786</ele>
        <time>2026-05-09T18:24:49.057Z</time>
      </trkpt>
      <trkpt lat="47.8909" lon="6.92047">
        <ele>786</ele>
        <time>2026-05-09T18:24:50.057Z</time>
      </trkpt>
      <trkpt lat="47.8909" lon="6.92045">
        <ele>786</ele>
        <time>2026-05-09T18:24:51.057Z</time>
      </trkpt>
      <trkpt lat="47.8909" lon="6.92043">
        <ele>787</ele>
        <time>2026-05-09T18:24:52.057Z</time>
      </trkpt>
      <trkpt lat="47.8909" lon="6.92041">
        <ele>787</ele>
        <time>2026-05-09T18:24:53.057Z</time>
      </trkpt>
      <trkpt lat="47.8909" lon="6.92039">
        <ele>787</ele>
        <time>2026-05-09T18:24:54.057Z</time>
      </trkpt>
      <trkpt lat="47.8909" lon="6.92037">
        <ele>787</ele>
        <time>2026-05-09T18:24:55.058Z</time>
      </trkpt>
      <trkpt lat="47.8909" lon="6.92035">
        <ele>787</ele>
        <time>2026-05-09T18:24:56.057Z</time>
      </trkpt>
      <trkpt lat="47.8909" lon="6.92033">
        <ele>787</ele>
        <time>2026-05-09T18:24:57.058Z</time>
      </trkpt>
      <trkpt lat="47.89089" lon="6.9203">
        <ele>787</ele>
        <time>2026-05-09T18:24:58.058Z</time>
      </trkpt>
      <trkpt lat="47.89088" lon="6.92029">
        <ele>787</ele>
        <time>2026-05-09T18:24:59.058Z</time>
      </trkpt>
      <trkpt lat="47.89088" lon="6.92027">
        <ele>788</ele>
        <time>2026-05-09T18:25:00.057Z</time>
      </trkpt>
      <trkpt lat="47.89087" lon="6.92024">
        <ele>788</ele>
        <time>2026-05-09T18:25:01.058Z</time>
      </trkpt>
      <trkpt lat="47.89087" lon="6.92023">
        <ele>789</ele>
        <time>2026-05-09T18:25:02.057Z</time>
      </trkpt>
      <trkpt lat="47.89086" lon="6.92021">
        <ele>789</ele>
        <time>2026-05-09T18:25:03.058Z</time>
      </trkpt>
      <trkpt lat="47.89086" lon="6.9202">
        <ele>790</ele>
        <time>2026-05-09T18:25:04.057Z</time>
      </trkpt>
      <trkpt lat="47.89085" lon="6.92017">
        <ele>791</ele>
        <time>2026-05-09T18:25:05.057Z</time>
      </trkpt>
      <trkpt lat="47.89084" lon="6.92015">
        <ele>792</ele>
        <time>2026-05-09T18:25:06.057Z</time>
      </trkpt>
      <trkpt lat="47.89083" lon="6.92012">
        <ele>792</ele>
        <time>2026-05-09T18:25:07.057Z</time>
      </trkpt>
      <trkpt lat="47.89082" lon="6.9201">
        <ele>792</ele>
        <time>2026-05-09T18:25:08.058Z</time>
      </trkpt>
      <trkpt lat="47.89081" lon="6.92008">
        <ele>792</ele>
        <time>2026-05-09T18:25:09.057Z</time>
      </trkpt>
      <trkpt lat="47.8908" lon="6.92004">
        <ele>792</ele>
        <time>2026-05-09T18:25:10.057Z</time>
      </trkpt>
      <trkpt lat="47.8908" lon="6.92001">
        <ele>792</ele>
        <time>2026-05-09T18:25:11.058Z</time>
      </trkpt>
      <trkpt lat="47.89079" lon="6.91999">
        <ele>791</ele>
        <time>2026-05-09T18:25:12.058Z</time>
      </trkpt>
      <trkpt lat="47.89079" lon="6.91997">
        <ele>791</ele>
        <time>2026-05-09T18:25:13.057Z</time>
      </trkpt>
      <trkpt lat="47.89078" lon="6.91995">
        <ele>791</ele>
        <time>2026-05-09T18:25:14.058Z</time>
      </trkpt>
      <trkpt lat="47.89077" lon="6.91993">
        <ele>791</ele>
        <time>2026-05-09T18:25:15.057Z</time>
      </trkpt>
      <trkpt lat="47.89077" lon="6.91991">
        <ele>791</ele>
        <time>2026-05-09T18:25:16.058Z</time>
      </trkpt>
      <trkpt lat="47.89076" lon="6.91989">
        <ele>791</ele>
        <time>2026-05-09T18:25:17.057Z</time>
      </trkpt>
      <trkpt lat="47.89075" lon="6.91987">
        <ele>791</ele>
        <time>2026-05-09T18:25:18.057Z</time>
      </trkpt>
      <trkpt lat="47.89074" lon="6.91985">
        <ele>791</ele>
        <time>2026-05-09T18:25:19.057Z</time>
      </trkpt>
      <trkpt lat="47.89073" lon="6.91983">
        <ele>791</ele>
        <time>2026-05-09T18:25:20.058Z</time>
      </trkpt>
      <trkpt lat="47.89072" lon="6.9198">
        <ele>791</ele>
        <time>2026-05-09T18:25:21.058Z</time>
      </trkpt>
      <trkpt lat="47.8907" lon="6.91977">
        <ele>791</ele>
        <time>2026-05-09T18:25:22.057Z</time>
      </trkpt>
      <trkpt lat="47.89069" lon="6.91975">
        <ele>792</ele>
        <time>2026-05-09T18:25:23.057Z</time>
      </trkpt>
      <trkpt lat="47.89068" lon="6.91973">
        <ele>792</ele>
        <time>2026-05-09T18:25:24.057Z</time>
      </trkpt>
      <trkpt lat="47.89067" lon="6.91972">
        <ele>792</ele>
        <time>2026-05-09T18:25:25.057Z</time>
      </trkpt>
      <trkpt lat="47.89067" lon="6.9197">
        <ele>792</ele>
        <time>2026-05-09T18:25:26.058Z</time>
      </trkpt>
      <trkpt lat="47.89066" lon="6.91969">
        <ele>792</ele>
        <time>2026-05-09T18:25:27.058Z</time>
      </trkpt>
      <trkpt lat="47.89066" lon="6.91967">
        <ele>792</ele>
        <time>2026-05-09T18:25:28.058Z</time>
      </trkpt>
      <trkpt lat="47.89065" lon="6.91965">
        <ele>792</ele>
        <time>2026-05-09T18:25:29.058Z</time>
      </trkpt>
      <trkpt lat="47.89064" lon="6.91964">
        <ele>792</ele>
        <time>2026-05-09T18:25:30.058Z</time>
      </trkpt>
      <trkpt lat="47.89063" lon="6.91962">
        <ele>792</ele>
        <time>2026-05-09T18:25:31.058Z</time>
      </trkpt>
      <trkpt lat="47.89062" lon="6.9196">
        <ele>792</ele>
        <time>2026-05-09T18:25:32.058Z</time>
      </trkpt>
      <trkpt lat="47.89061" lon="6.91959">
        <ele>792</ele>
        <time>2026-05-09T18:25:33.057Z</time>
      </trkpt>
      <trkpt lat="47.8906" lon="6.91957">
        <ele>792</ele>
        <time>2026-05-09T18:25:34.057Z</time>
      </trkpt>
      <trkpt lat="47.8906" lon="6.91955">
        <ele>792</ele>
        <time>2026-05-09T18:25:35.057Z</time>
      </trkpt>
      <trkpt lat="47.89059" lon="6.91953">
        <ele>792</ele>
        <time>2026-05-09T18:25:36.058Z</time>
      </trkpt>
      <trkpt lat="47.89059" lon="6.91952">
        <ele>792</ele>
        <time>2026-05-09T18:25:37.057Z</time>
      </trkpt>
      <trkpt lat="47.89058" lon="6.9195">
        <ele>791</ele>
        <time>2026-05-09T18:25:38.057Z</time>
      </trkpt>
      <trkpt lat="47.89057" lon="6.91948">
        <ele>791</ele>
        <time>2026-05-09T18:25:39.058Z</time>
      </trkpt>
      <trkpt lat="47.89057" lon="6.91947">
        <ele>791</ele>
        <time>2026-05-09T18:25:40.058Z</time>
      </trkpt>
      <trkpt lat="47.89057" lon="6.91945">
        <ele>791</ele>
        <time>2026-05-09T18:25:41.057Z</time>
      </trkpt>
      <trkpt lat="47.89056" lon="6.91943">
        <ele>791</ele>
        <time>2026-05-09T18:25:42.058Z</time>
      </trkpt>
      <trkpt lat="47.89055" lon="6.91942">
        <ele>792</ele>
        <time>2026-05-09T18:25:43.057Z</time>
      </trkpt>
      <trkpt lat="47.89054" lon="6.9194">
        <ele>792</ele>
        <time>2026-05-09T18:25:44.057Z</time>
      </trkpt>
      <trkpt lat="47.89053" lon="6.91937">
        <ele>792</ele>
        <time>2026-05-09T18:25:45.058Z</time>
      </trkpt>
      <trkpt lat="47.89053" lon="6.91935">
        <ele>792</ele>
        <time>2026-05-09T18:25:46.058Z</time>
      </trkpt>
      <trkpt lat="47.89052" lon="6.91932">
        <ele>792</ele>
        <time>2026-05-09T18:25:47.057Z</time>
      </trkpt>
      <trkpt lat="47.89051" lon="6.91932">
        <ele>792</ele>
        <time>2026-05-09T18:25:48.058Z</time>
      </trkpt>
      <trkpt lat="47.8905" lon="6.9193">
        <ele>793</ele>
        <time>2026-05-09T18:25:49.057Z</time>
      </trkpt>
      <trkpt lat="47.89049" lon="6.91929">
        <ele>793</ele>
        <time>2026-05-09T18:25:50.058Z</time>
      </trkpt>
      <trkpt lat="47.89048" lon="6.91927">
        <ele>793</ele>
        <time>2026-05-09T18:25:51.057Z</time>
      </trkpt>
      <trkpt lat="47.89048" lon="6.91925">
        <ele>793</ele>
        <time>2026-05-09T18:25:52.057Z</time>
      </trkpt>
      <trkpt lat="47.89047" lon="6.91924">
        <ele>793</ele>
        <time>2026-05-09T18:25:53.058Z</time>
      </trkpt>
      <trkpt lat="47.89046" lon="6.91922">
        <ele>792</ele>
        <time>2026-05-09T18:25:54.058Z</time>
      </trkpt>
      <trkpt lat="47.89046" lon="6.9192">
        <ele>792</ele>
        <time>2026-05-09T18:25:55.057Z</time>
      </trkpt>
      <trkpt lat="47.89045" lon="6.91919">
        <ele>792</ele>
        <time>2026-05-09T18:25:56.057Z</time>
      </trkpt>
      <trkpt lat="47.89044" lon="6.91917">
        <ele>792</ele>
        <time>2026-05-09T18:25:57.057Z</time>
      </trkpt>
      <trkpt lat="47.89043" lon="6.91915">
        <ele>792</ele>
        <time>2026-05-09T18:25:58.058Z</time>
      </trkpt>
      <trkpt lat="47.89042" lon="6.91913">
        <ele>793</ele>
        <time>2026-05-09T18:25:59.058Z</time>
      </trkpt>
      <trkpt lat="47.89042" lon="6.91911">
        <ele>793</ele>
        <time>2026-05-09T18:26:00.057Z</time>
      </trkpt>
      <trkpt lat="47.8904" lon="6.91909">
        <ele>793</ele>
        <time>2026-05-09T18:26:01.057Z</time>
      </trkpt>
      <trkpt lat="47.8904" lon="6.91907">
        <ele>793</ele>
        <time>2026-05-09T18:26:02.057Z</time>
      </trkpt>
      <trkpt lat="47.89039" lon="6.91905">
        <ele>793</ele>
        <time>2026-05-09T18:26:03.057Z</time>
      </trkpt>
      <trkpt lat="47.89038" lon="6.91903">
        <ele>793</ele>
        <time>2026-05-09T18:26:04.057Z</time>
      </trkpt>
      <trkpt lat="47.89038" lon="6.91901">
        <ele>793</ele>
        <time>2026-05-09T18:26:05.057Z</time>
      </trkpt>
      <trkpt lat="47.89037" lon="6.91899">
        <ele>793</ele>
        <time>2026-05-09T18:26:06.057Z</time>
      </trkpt>
      <trkpt lat="47.89036" lon="6.91898">
        <ele>793</ele>
        <time>2026-05-09T18:26:07.058Z</time>
      </trkpt>
      <trkpt lat="47.89035" lon="6.91896">
        <ele>793</ele>
        <time>2026-05-09T18:26:08.057Z</time>
      </trkpt>
      <trkpt lat="47.89034" lon="6.91894">
        <ele>793</ele>
        <time>2026-05-09T18:26:09.057Z</time>
      </trkpt>
      <trkpt lat="47.89033" lon="6.91892">
        <ele>793</ele>
        <time>2026-05-09T18:26:10.058Z</time>
      </trkpt>
      <trkpt lat="47.89032" lon="6.91891">
        <ele>793</ele>
        <time>2026-05-09T18:26:11.057Z</time>
      </trkpt>
      <trkpt lat="47.89032" lon="6.91889">
        <ele>792</ele>
        <time>2026-05-09T18:26:12.058Z</time>
      </trkpt>
      <trkpt lat="47.89031" lon="6.91887">
        <ele>792</ele>
        <time>2026-05-09T18:26:13.057Z</time>
      </trkpt>
      <trkpt lat="47.89031" lon="6.91884">
        <ele>792</ele>
        <time>2026-05-09T18:26:14.058Z</time>
      </trkpt>
      <trkpt lat="47.8903" lon="6.91883">
        <ele>792</ele>
        <time>2026-05-09T18:26:15.057Z</time>
      </trkpt>
      <trkpt lat="47.89029" lon="6.91881">
        <ele>791</ele>
        <time>2026-05-09T18:26:16.057Z</time>
      </trkpt>
      <trkpt lat="47.89028" lon="6.91879">
        <ele>791</ele>
        <time>2026-05-09T18:26:17.057Z</time>
      </trkpt>
      <trkpt lat="47.89028" lon="6.91876">
        <ele>790</ele>
        <time>2026-05-09T18:26:18.057Z</time>
      </trkpt>
      <trkpt lat="47.89027" lon="6.91874">
        <ele>790</ele>
        <time>2026-05-09T18:26:19.058Z</time>
      </trkpt>
      <trkpt lat="47.89027" lon="6.91873">
        <ele>789</ele>
        <time>2026-05-09T18:26:20.057Z</time>
      </trkpt>
      <trkpt lat="47.89026" lon="6.91871">
        <ele>788</ele>
        <time>2026-05-09T18:26:21.058Z</time>
      </trkpt>
      <trkpt lat="47.89026" lon="6.91869">
        <ele>787</ele>
        <time>2026-05-09T18:26:22.058Z</time>
      </trkpt>
      <trkpt lat="47.89025" lon="6.91868">
        <ele>786</ele>
        <time>2026-05-09T18:26:23.058Z</time>
      </trkpt>
      <trkpt lat="47.89024" lon="6.91866">
        <ele>786</ele>
        <time>2026-05-09T18:26:24.057Z</time>
      </trkpt>
      <trkpt lat="47.89024" lon="6.91864">
        <ele>785</ele>
        <time>2026-05-09T18:26:25.057Z</time>
      </trkpt>
      <trkpt lat="47.89023" lon="6.91863">
        <ele>785</ele>
        <time>2026-05-09T18:26:26.058Z</time>
      </trkpt>
      <trkpt lat="47.89022" lon="6.9186">
        <ele>784</ele>
        <time>2026-05-09T18:26:27.057Z</time>
      </trkpt>
      <trkpt lat="47.89021" lon="6.91859">
        <ele>783</ele>
        <time>2026-05-09T18:26:28.058Z</time>
      </trkpt>
      <trkpt lat="47.89021" lon="6.91857">
        <ele>783</ele>
        <time>2026-05-09T18:26:29.058Z</time>
      </trkpt>
      <trkpt lat="47.8902" lon="6.91855">
        <ele>782</ele>
        <time>2026-05-09T18:26:30.057Z</time>
      </trkpt>
      <trkpt lat="47.8902" lon="6.91854">
        <ele>782</ele>
        <time>2026-05-09T18:26:31.058Z</time>
      </trkpt>
      <trkpt lat="47.89019" lon="6.91852">
        <ele>782</ele>
        <time>2026-05-09T18:26:32.058Z</time>
      </trkpt>
      <trkpt lat="47.89018" lon="6.9185">
        <ele>781</ele>
        <time>2026-05-09T18:26:33.058Z</time>
      </trkpt>
      <trkpt lat="47.89017" lon="6.91848">
        <ele>781</ele>
        <time>2026-05-09T18:26:34.057Z</time>
      </trkpt>
      <trkpt lat="47.89016" lon="6.91845">
        <ele>781</ele>
        <time>2026-05-09T18:26:35.057Z</time>
      </trkpt>
      <trkpt lat="47.89015" lon="6.91843">
        <ele>780</ele>
        <time>2026-05-09T18:26:36.057Z</time>
      </trkpt>
      <trkpt lat="47.89015" lon="6.91841">
        <ele>780</ele>
        <time>2026-05-09T18:26:37.057Z</time>
      </trkpt>
      <trkpt lat="47.89014" lon="6.91839">
        <ele>779</ele>
        <time>2026-05-09T18:26:38.058Z</time>
      </trkpt>
      <trkpt lat="47.89013" lon="6.91837">
        <ele>779</ele>
        <time>2026-05-09T18:26:39.057Z</time>
      </trkpt>
      <trkpt lat="47.89013" lon="6.91835">
        <ele>779</ele>
        <time>2026-05-09T18:26:40.057Z</time>
      </trkpt>
      <trkpt lat="47.89012" lon="6.91833">
        <ele>779</ele>
        <time>2026-05-09T18:26:41.057Z</time>
      </trkpt>
      <trkpt lat="47.89011" lon="6.91831">
        <ele>779</ele>
        <time>2026-05-09T18:26:42.058Z</time>
      </trkpt>
      <trkpt lat="47.8901" lon="6.91829">
        <ele>779</ele>
        <time>2026-05-09T18:26:43.057Z</time>
      </trkpt>
      <trkpt lat="47.8901" lon="6.91828">
        <ele>779</ele>
        <time>2026-05-09T18:26:44.058Z</time>
      </trkpt>
      <trkpt lat="47.89009" lon="6.91826">
        <ele>779</ele>
        <time>2026-05-09T18:26:45.057Z</time>
      </trkpt>
      <trkpt lat="47.89009" lon="6.91824">
        <ele>779</ele>
        <time>2026-05-09T18:26:46.057Z</time>
      </trkpt>
      <trkpt lat="47.89008" lon="6.91821">
        <ele>779</ele>
        <time>2026-05-09T18:26:47.058Z</time>
      </trkpt>
      <trkpt lat="47.89007" lon="6.91819">
        <ele>779</ele>
        <time>2026-05-09T18:26:48.057Z</time>
      </trkpt>
      <trkpt lat="47.89006" lon="6.91817">
        <ele>779</ele>
        <time>2026-05-09T18:26:49.057Z</time>
      </trkpt>
      <trkpt lat="47.89005" lon="6.91814">
        <ele>779</ele>
        <time>2026-05-09T18:26:50.057Z</time>
      </trkpt>
      <trkpt lat="47.89004" lon="6.91812">
        <ele>780</ele>
        <time>2026-05-09T18:26:51.058Z</time>
      </trkpt>
      <trkpt lat="47.89003" lon="6.9181">
        <ele>780</ele>
        <time>2026-05-09T18:26:52.057Z</time>
      </trkpt>
      <trkpt lat="47.89003" lon="6.91807">
        <ele>781</ele>
        <time>2026-05-09T18:26:53.058Z</time>
      </trkpt>
      <trkpt lat="47.89003" lon="6.91804">
        <ele>781</ele>
        <time>2026-05-09T18:26:54.058Z</time>
      </trkpt>
      <trkpt lat="47.89003" lon="6.91802">
        <ele>781</ele>
        <time>2026-05-09T18:26:55.057Z</time>
      </trkpt>
      <trkpt lat="47.89003" lon="6.918">
        <ele>781</ele>
        <time>2026-05-09T18:26:56.058Z</time>
      </trkpt>
      <trkpt lat="47.89002" lon="6.91798">
        <ele>780</ele>
        <time>2026-05-09T18:26:57.057Z</time>
      </trkpt>
      <trkpt lat="47.89002" lon="6.91796">
        <ele>780</ele>
        <time>2026-05-09T18:26:58.057Z</time>
      </trkpt>
      <trkpt lat="47.89001" lon="6.91794">
        <ele>780</ele>
        <time>2026-05-09T18:26:59.057Z</time>
      </trkpt>
      <trkpt lat="47.89001" lon="6.91792">
        <ele>779</ele>
        <time>2026-05-09T18:27:00.057Z</time>
      </trkpt>
      <trkpt lat="47.89" lon="6.9179">
        <ele>779</ele>
        <time>2026-05-09T18:27:01.058Z</time>
      </trkpt>
      <trkpt lat="47.88999" lon="6.91788">
        <ele>779</ele>
        <time>2026-05-09T18:27:02.057Z</time>
      </trkpt>
      <trkpt lat="47.88998" lon="6.91786">
        <ele>780</ele>
        <time>2026-05-09T18:27:03.057Z</time>
      </trkpt>
      <trkpt lat="47.88997" lon="6.91784">
        <ele>780</ele>
        <time>2026-05-09T18:27:04.057Z</time>
      </trkpt>
      <trkpt lat="47.88996" lon="6.91782">
        <ele>780</ele>
        <time>2026-05-09T18:27:05.058Z</time>
      </trkpt>
      <trkpt lat="47.88995" lon="6.9178">
        <ele>780</ele>
        <time>2026-05-09T18:27:06.058Z</time>
      </trkpt>
      <trkpt lat="47.88995" lon="6.91777">
        <ele>780</ele>
        <time>2026-05-09T18:27:07.057Z</time>
      </trkpt>
      <trkpt lat="47.88994" lon="6.91775">
        <ele>780</ele>
        <time>2026-05-09T18:27:08.058Z</time>
      </trkpt>
      <trkpt lat="47.88993" lon="6.91773">
        <ele>780</ele>
        <time>2026-05-09T18:27:09.057Z</time>
      </trkpt>
      <trkpt lat="47.88993" lon="6.91771">
        <ele>779</ele>
        <time>2026-05-09T18:27:10.057Z</time>
      </trkpt>
      <trkpt lat="47.88992" lon="6.91769">
        <ele>779</ele>
        <time>2026-05-09T18:27:11.058Z</time>
      </trkpt>
      <trkpt lat="47.88991" lon="6.91766">
        <ele>779</ele>
        <time>2026-05-09T18:27:12.057Z</time>
      </trkpt>
      <trkpt lat="47.88991" lon="6.91764">
        <ele>779</ele>
        <time>2026-05-09T18:27:13.057Z</time>
      </trkpt>
      <trkpt lat="47.8899" lon="6.91762">
        <ele>779</ele>
        <time>2026-05-09T18:27:14.057Z</time>
      </trkpt>
      <trkpt lat="47.8899" lon="6.9176">
        <ele>779</ele>
        <time>2026-05-09T18:27:15.057Z</time>
      </trkpt>
      <trkpt lat="47.8899" lon="6.91758">
        <ele>778</ele>
        <time>2026-05-09T18:27:16.057Z</time>
      </trkpt>
      <trkpt lat="47.88989" lon="6.91756">
        <ele>778</ele>
        <time>2026-05-09T18:27:17.057Z</time>
      </trkpt>
      <trkpt lat="47.88989" lon="6.91754">
        <ele>777</ele>
        <time>2026-05-09T18:27:18.058Z</time>
      </trkpt>
      <trkpt lat="47.88989" lon="6.91752">
        <ele>777</ele>
        <time>2026-05-09T18:27:19.057Z</time>
      </trkpt>
      <trkpt lat="47.88989" lon="6.9175">
        <ele>776</ele>
        <time>2026-05-09T18:27:20.058Z</time>
      </trkpt>
      <trkpt lat="47.88989" lon="6.91747">
        <ele>776</ele>
        <time>2026-05-09T18:27:21.057Z</time>
      </trkpt>
      <trkpt lat="47.88989" lon="6.91745">
        <ele>776</ele>
        <time>2026-05-09T18:27:22.057Z</time>
      </trkpt>
      <trkpt lat="47.88989" lon="6.91743">
        <ele>775</ele>
        <time>2026-05-09T18:27:23.058Z</time>
      </trkpt>
      <trkpt lat="47.88989" lon="6.91741">
        <ele>774</ele>
        <time>2026-05-09T18:27:24.057Z</time>
      </trkpt>
      <trkpt lat="47.88989" lon="6.91739">
        <ele>774</ele>
        <time>2026-05-09T18:27:25.057Z</time>
      </trkpt>
      <trkpt lat="47.88988" lon="6.91737">
        <ele>773</ele>
        <time>2026-05-09T18:27:26.058Z</time>
      </trkpt>
      <trkpt lat="47.88988" lon="6.91735">
        <ele>773</ele>
        <time>2026-05-09T18:27:27.058Z</time>
      </trkpt>
      <trkpt lat="47.88988" lon="6.91732">
        <ele>773</ele>
        <time>2026-05-09T18:27:28.057Z</time>
      </trkpt>
      <trkpt lat="47.88988" lon="6.9173">
        <ele>773</ele>
        <time>2026-05-09T18:27:29.058Z</time>
      </trkpt>
      <trkpt lat="47.88989" lon="6.91728">
        <ele>773</ele>
        <time>2026-05-09T18:27:30.057Z</time>
      </trkpt>
      <trkpt lat="47.88989" lon="6.91725">
        <ele>773</ele>
        <time>2026-05-09T18:27:31.058Z</time>
      </trkpt>
      <trkpt lat="47.8899" lon="6.91723">
        <ele>772</ele>
        <time>2026-05-09T18:27:32.057Z</time>
      </trkpt>
      <trkpt lat="47.88991" lon="6.91721">
        <ele>772</ele>
        <time>2026-05-09T18:27:33.058Z</time>
      </trkpt>
      <trkpt lat="47.88991" lon="6.91719">
        <ele>772</ele>
        <time>2026-05-09T18:27:34.057Z</time>
      </trkpt>
      <trkpt lat="47.88991" lon="6.91718">
        <ele>772</ele>
        <time>2026-05-09T18:27:35.057Z</time>
      </trkpt>
      <trkpt lat="47.88991" lon="6.91716">
        <ele>772</ele>
        <time>2026-05-09T18:27:36.058Z</time>
      </trkpt>
      <trkpt lat="47.88991" lon="6.91714">
        <ele>772</ele>
        <time>2026-05-09T18:27:37.058Z</time>
      </trkpt>
      <trkpt lat="47.88991" lon="6.91711">
        <ele>772</ele>
        <time>2026-05-09T18:27:38.058Z</time>
      </trkpt>
      <trkpt lat="47.88991" lon="6.91709">
        <ele>772</ele>
        <time>2026-05-09T18:27:39.057Z</time>
      </trkpt>
      <trkpt lat="47.88992" lon="6.91707">
        <ele>772</ele>
        <time>2026-05-09T18:27:40.058Z</time>
      </trkpt>
      <trkpt lat="47.88992" lon="6.91705">
        <ele>771</ele>
        <time>2026-05-09T18:27:41.057Z</time>
      </trkpt>
      <trkpt lat="47.88992" lon="6.91702">
        <ele>771</ele>
        <time>2026-05-09T18:27:42.057Z</time>
      </trkpt>
      <trkpt lat="47.88993" lon="6.917">
        <ele>771</ele>
        <time>2026-05-09T18:27:43.057Z</time>
      </trkpt>
      <trkpt lat="47.88993" lon="6.91698">
        <ele>771</ele>
        <time>2026-05-09T18:27:44.058Z</time>
      </trkpt>
      <trkpt lat="47.88993" lon="6.91695">
        <ele>770</ele>
        <time>2026-05-09T18:27:45.057Z</time>
      </trkpt>
      <trkpt lat="47.88993" lon="6.91693">
        <ele>770</ele>
        <time>2026-05-09T18:27:46.057Z</time>
      </trkpt>
      <trkpt lat="47.88994" lon="6.9169">
        <ele>770</ele>
        <time>2026-05-09T18:27:47.057Z</time>
      </trkpt>
      <trkpt lat="47.88994" lon="6.91688">
        <ele>770</ele>
        <time>2026-05-09T18:27:48.057Z</time>
      </trkpt>
      <trkpt lat="47.88994" lon="6.91687">
        <ele>770</ele>
        <time>2026-05-09T18:27:49.058Z</time>
      </trkpt>
      <trkpt lat="47.88995" lon="6.91685">
        <ele>769</ele>
        <time>2026-05-09T18:27:50.058Z</time>
      </trkpt>
      <trkpt lat="47.88995" lon="6.91683">
        <ele>769</ele>
        <time>2026-05-09T18:27:51.057Z</time>
      </trkpt>
      <trkpt lat="47.88996" lon="6.91682">
        <ele>769</ele>
        <time>2026-05-09T18:27:52.058Z</time>
      </trkpt>
      <trkpt lat="47.88996" lon="6.9168">
        <ele>769</ele>
        <time>2026-05-09T18:27:53.058Z</time>
      </trkpt>
      <trkpt lat="47.88997" lon="6.91678">
        <ele>769</ele>
        <time>2026-05-09T18:27:54.057Z</time>
      </trkpt>
      <trkpt lat="47.88997" lon="6.91676">
        <ele>769</ele>
        <time>2026-05-09T18:27:55.057Z</time>
      </trkpt>
      <trkpt lat="47.88997" lon="6.91674">
        <ele>769</ele>
        <time>2026-05-09T18:27:56.057Z</time>
      </trkpt>
      <trkpt lat="47.88998" lon="6.91672">
        <ele>769</ele>
        <time>2026-05-09T18:27:57.058Z</time>
      </trkpt>
      <trkpt lat="47.88998" lon="6.91669">
        <ele>769</ele>
        <time>2026-05-09T18:27:58.058Z</time>
      </trkpt>
      <trkpt lat="47.88998" lon="6.91667">
        <ele>769</ele>
        <time>2026-05-09T18:27:59.058Z</time>
      </trkpt>
      <trkpt lat="47.88998" lon="6.91664">
        <ele>768</ele>
        <time>2026-05-09T18:28:00.058Z</time>
      </trkpt>
      <trkpt lat="47.88998" lon="6.91662">
        <ele>768</ele>
        <time>2026-05-09T18:28:01.057Z</time>
      </trkpt>
      <trkpt lat="47.88998" lon="6.91659">
        <ele>768</ele>
        <time>2026-05-09T18:28:02.058Z</time>
      </trkpt>
      <trkpt lat="47.88998" lon="6.91658">
        <ele>768</ele>
        <time>2026-05-09T18:28:03.058Z</time>
      </trkpt>
      <trkpt lat="47.88999" lon="6.91655">
        <ele>768</ele>
        <time>2026-05-09T18:28:04.058Z</time>
      </trkpt>
      <trkpt lat="47.88999" lon="6.91652">
        <ele>768</ele>
        <time>2026-05-09T18:28:05.057Z</time>
      </trkpt>
      <trkpt lat="47.88999" lon="6.9165">
        <ele>768</ele>
        <time>2026-05-09T18:28:06.057Z</time>
      </trkpt>
      <trkpt lat="47.88999" lon="6.91647">
        <ele>767</ele>
        <time>2026-05-09T18:28:07.058Z</time>
      </trkpt>
      <trkpt lat="47.88999" lon="6.91644">
        <ele>767</ele>
        <time>2026-05-09T18:28:08.057Z</time>
      </trkpt>
      <trkpt lat="47.88999" lon="6.91642">
        <ele>766</ele>
        <time>2026-05-09T18:28:09.058Z</time>
      </trkpt>
      <trkpt lat="47.88998" lon="6.91639">
        <ele>766</ele>
        <time>2026-05-09T18:28:10.057Z</time>
      </trkpt>
      <trkpt lat="47.88998" lon="6.91637">
        <ele>765</ele>
        <time>2026-05-09T18:28:11.057Z</time>
      </trkpt>
      <trkpt lat="47.88998" lon="6.91635">
        <ele>764</ele>
        <time>2026-05-09T18:28:12.057Z</time>
      </trkpt>
      <trkpt lat="47.88998" lon="6.91632">
        <ele>764</ele>
        <time>2026-05-09T18:28:13.057Z</time>
      </trkpt>
      <trkpt lat="47.88998" lon="6.9163">
        <ele>763</ele>
        <time>2026-05-09T18:28:14.058Z</time>
      </trkpt>
      <trkpt lat="47.88998" lon="6.91628">
        <ele>763</ele>
        <time>2026-05-09T18:28:15.058Z</time>
      </trkpt>
      <trkpt lat="47.88998" lon="6.91625">
        <ele>764</ele>
        <time>2026-05-09T18:28:16.057Z</time>
      </trkpt>
      <trkpt lat="47.88998" lon="6.91623">
        <ele>764</ele>
        <time>2026-05-09T18:28:17.058Z</time>
      </trkpt>
      <trkpt lat="47.88997" lon="6.91621">
        <ele>764</ele>
        <time>2026-05-09T18:28:18.057Z</time>
      </trkpt>
      <trkpt lat="47.88997" lon="6.91618">
        <ele>765</ele>
        <time>2026-05-09T18:28:19.057Z</time>
      </trkpt>
      <trkpt lat="47.88997" lon="6.91616">
        <ele>765</ele>
        <time>2026-05-09T18:28:20.057Z</time>
      </trkpt>
      <trkpt lat="47.88997" lon="6.91614">
        <ele>765</ele>
        <time>2026-05-09T18:28:21.058Z</time>
      </trkpt>
      <trkpt lat="47.88997" lon="6.91612">
        <ele>765</ele>
        <time>2026-05-09T18:28:22.057Z</time>
      </trkpt>
      <trkpt lat="47.88996" lon="6.9161">
        <ele>766</ele>
        <time>2026-05-09T18:28:23.057Z</time>
      </trkpt>
      <trkpt lat="47.88996" lon="6.91608">
        <ele>766</ele>
        <time>2026-05-09T18:28:24.057Z</time>
      </trkpt>
      <trkpt lat="47.88996" lon="6.91607">
        <ele>766</ele>
        <time>2026-05-09T18:28:25.058Z</time>
      </trkpt>
      <trkpt lat="47.88996" lon="6.91605">
        <ele>766</ele>
        <time>2026-05-09T18:28:26.057Z</time>
      </trkpt>
      <trkpt lat="47.88996" lon="6.91603">
        <ele>766</ele>
        <time>2026-05-09T18:28:27.058Z</time>
      </trkpt>
      <trkpt lat="47.88996" lon="6.916">
        <ele>766</ele>
        <time>2026-05-09T18:28:28.058Z</time>
      </trkpt>
      <trkpt lat="47.88996" lon="6.91598">
        <ele>765</ele>
        <time>2026-05-09T18:28:29.057Z</time>
      </trkpt>
      <trkpt lat="47.88995" lon="6.91595">
        <ele>765</ele>
        <time>2026-05-09T18:28:30.057Z</time>
      </trkpt>
      <trkpt lat="47.88995" lon="6.91593">
        <ele>765</ele>
        <time>2026-05-09T18:28:31.057Z</time>
      </trkpt>
      <trkpt lat="47.88995" lon="6.9159">
        <ele>765</ele>
        <time>2026-05-09T18:28:32.057Z</time>
      </trkpt>
      <trkpt lat="47.88995" lon="6.91588">
        <ele>764</ele>
        <time>2026-05-09T18:28:33.058Z</time>
      </trkpt>
      <trkpt lat="47.88994" lon="6.91586">
        <ele>764</ele>
        <time>2026-05-09T18:28:34.057Z</time>
      </trkpt>
      <trkpt lat="47.88994" lon="6.91584">
        <ele>764</ele>
        <time>2026-05-09T18:28:35.057Z</time>
      </trkpt>
      <trkpt lat="47.88994" lon="6.91582">
        <ele>764</ele>
        <time>2026-05-09T18:28:36.058Z</time>
      </trkpt>
      <trkpt lat="47.88994" lon="6.91579">
        <ele>763</ele>
        <time>2026-05-09T18:28:37.057Z</time>
      </trkpt>
      <trkpt lat="47.88993" lon="6.91577">
        <ele>763</ele>
        <time>2026-05-09T18:28:38.058Z</time>
      </trkpt>
      <trkpt lat="47.88993" lon="6.91574">
        <ele>762</ele>
        <time>2026-05-09T18:28:39.057Z</time>
      </trkpt>
      <trkpt lat="47.88993" lon="6.91572">
        <ele>762</ele>
        <time>2026-05-09T18:28:40.057Z</time>
      </trkpt>
      <trkpt lat="47.88993" lon="6.9157">
        <ele>761</ele>
        <time>2026-05-09T18:28:41.057Z</time>
      </trkpt>
      <trkpt lat="47.88993" lon="6.91568">
        <ele>761</ele>
        <time>2026-05-09T18:28:42.058Z</time>
      </trkpt>
      <trkpt lat="47.88992" lon="6.91565">
        <ele>761</ele>
        <time>2026-05-09T18:28:43.057Z</time>
      </trkpt>
      <trkpt lat="47.88992" lon="6.91563">
        <ele>761</ele>
        <time>2026-05-09T18:28:44.057Z</time>
      </trkpt>
      <trkpt lat="47.88992" lon="6.91561">
        <ele>761</ele>
        <time>2026-05-09T18:28:45.057Z</time>
      </trkpt>
      <trkpt lat="47.88992" lon="6.91559">
        <ele>760</ele>
        <time>2026-05-09T18:28:46.057Z</time>
      </trkpt>
      <trkpt lat="47.88992" lon="6.91557">
        <ele>760</ele>
        <time>2026-05-09T18:28:47.057Z</time>
      </trkpt>
      <trkpt lat="47.88991" lon="6.91555">
        <ele>761</ele>
        <time>2026-05-09T18:28:48.058Z</time>
      </trkpt>
      <trkpt lat="47.88991" lon="6.91553">
        <ele>760</ele>
        <time>2026-05-09T18:28:49.058Z</time>
      </trkpt>
      <trkpt lat="47.88991" lon="6.9155">
        <ele>760</ele>
        <time>2026-05-09T18:28:50.058Z</time>
      </trkpt>
      <trkpt lat="47.88991" lon="6.91548">
        <ele>760</ele>
        <time>2026-05-09T18:28:51.057Z</time>
      </trkpt>
      <trkpt lat="47.88991" lon="6.91546">
        <ele>760</ele>
        <time>2026-05-09T18:28:52.057Z</time>
      </trkpt>
      <trkpt lat="47.88991" lon="6.91543">
        <ele>760</ele>
        <time>2026-05-09T18:28:53.057Z</time>
      </trkpt>
      <trkpt lat="47.88991" lon="6.91541">
        <ele>759</ele>
        <time>2026-05-09T18:28:54.057Z</time>
      </trkpt>
      <trkpt lat="47.88991" lon="6.91539">
        <ele>759</ele>
        <time>2026-05-09T18:28:55.057Z</time>
      </trkpt>
      <trkpt lat="47.88991" lon="6.91537">
        <ele>759</ele>
        <time>2026-05-09T18:28:56.057Z</time>
      </trkpt>
      <trkpt lat="47.88991" lon="6.91534">
        <ele>758</ele>
        <time>2026-05-09T18:28:57.057Z</time>
      </trkpt>
      <trkpt lat="47.8899" lon="6.91532">
        <ele>758</ele>
        <time>2026-05-09T18:28:58.058Z</time>
      </trkpt>
      <trkpt lat="47.8899" lon="6.9153">
        <ele>758</ele>
        <time>2026-05-09T18:28:59.057Z</time>
      </trkpt>
      <trkpt lat="47.8899" lon="6.91528">
        <ele>758</ele>
        <time>2026-05-09T18:29:00.057Z</time>
      </trkpt>
      <trkpt lat="47.8899" lon="6.91525">
        <ele>758</ele>
        <time>2026-05-09T18:29:01.057Z</time>
      </trkpt>
      <trkpt lat="47.8899" lon="6.91523">
        <ele>758</ele>
        <time>2026-05-09T18:29:02.057Z</time>
      </trkpt>
      <trkpt lat="47.8899" lon="6.91521">
        <ele>758</ele>
        <time>2026-05-09T18:29:03.057Z</time>
      </trkpt>
      <trkpt lat="47.8899" lon="6.91518">
        <ele>757</ele>
        <time>2026-05-09T18:29:04.058Z</time>
      </trkpt>
      <trkpt lat="47.8899" lon="6.91516">
        <ele>757</ele>
        <time>2026-05-09T18:29:05.057Z</time>
      </trkpt>
      <trkpt lat="47.8899" lon="6.91513">
        <ele>757</ele>
        <time>2026-05-09T18:29:06.057Z</time>
      </trkpt>
      <trkpt lat="47.8899" lon="6.91511">
        <ele>757</ele>
        <time>2026-05-09T18:29:07.057Z</time>
      </trkpt>
      <trkpt lat="47.88989" lon="6.91509">
        <ele>756</ele>
        <time>2026-05-09T18:29:08.057Z</time>
      </trkpt>
      <trkpt lat="47.88989" lon="6.91506">
        <ele>756</ele>
        <time>2026-05-09T18:29:09.057Z</time>
      </trkpt>
      <trkpt lat="47.88989" lon="6.91504">
        <ele>756</ele>
        <time>2026-05-09T18:29:10.057Z</time>
      </trkpt>
      <trkpt lat="47.88989" lon="6.91502">
        <ele>756</ele>
        <time>2026-05-09T18:29:11.057Z</time>
      </trkpt>
      <trkpt lat="47.88989" lon="6.91499">
        <ele>756</ele>
        <time>2026-05-09T18:29:12.057Z</time>
      </trkpt>
      <trkpt lat="47.88989" lon="6.91497">
        <ele>756</ele>
        <time>2026-05-09T18:29:13.057Z</time>
      </trkpt>
      <trkpt lat="47.88989" lon="6.91495">
        <ele>756</ele>
        <time>2026-05-09T18:29:14.058Z</time>
      </trkpt>
      <trkpt lat="47.88989" lon="6.91492">
        <ele>755</ele>
        <time>2026-05-09T18:29:15.057Z</time>
      </trkpt>
      <trkpt lat="47.88989" lon="6.9149">
        <ele>755</ele>
        <time>2026-05-09T18:29:16.058Z</time>
      </trkpt>
      <trkpt lat="47.88989" lon="6.91488">
        <ele>754</ele>
        <time>2026-05-09T18:29:17.058Z</time>
      </trkpt>
      <trkpt lat="47.88989" lon="6.91486">
        <ele>753</ele>
        <time>2026-05-09T18:29:18.058Z</time>
      </trkpt>
      <trkpt lat="47.88989" lon="6.91484">
        <ele>753</ele>
        <time>2026-05-09T18:29:19.058Z</time>
      </trkpt>
      <trkpt lat="47.88989" lon="6.91482">
        <ele>752</ele>
        <time>2026-05-09T18:29:20.058Z</time>
      </trkpt>
      <trkpt lat="47.88989" lon="6.91479">
        <ele>751</ele>
        <time>2026-05-09T18:29:21.058Z</time>
      </trkpt>
      <trkpt lat="47.88989" lon="6.91477">
        <ele>751</ele>
        <time>2026-05-09T18:29:22.058Z</time>
      </trkpt>
      <trkpt lat="47.88989" lon="6.91475">
        <ele>751</ele>
        <time>2026-05-09T18:29:23.057Z</time>
      </trkpt>
      <trkpt lat="47.88989" lon="6.91473">
        <ele>751</ele>
        <time>2026-05-09T18:29:24.058Z</time>
      </trkpt>
      <trkpt lat="47.88989" lon="6.9147">
        <ele>751</ele>
        <time>2026-05-09T18:29:25.058Z</time>
      </trkpt>
      <trkpt lat="47.88989" lon="6.91468">
        <ele>751</ele>
        <time>2026-05-09T18:29:26.057Z</time>
      </trkpt>
      <trkpt lat="47.88988" lon="6.91466">
        <ele>751</ele>
        <time>2026-05-09T18:29:27.057Z</time>
      </trkpt>
      <trkpt lat="47.88988" lon="6.91463">
        <ele>752</ele>
        <time>2026-05-09T18:29:28.057Z</time>
      </trkpt>
      <trkpt lat="47.88988" lon="6.9146">
        <ele>752</ele>
        <time>2026-05-09T18:29:29.057Z</time>
      </trkpt>
      <trkpt lat="47.88988" lon="6.91458">
        <ele>752</ele>
        <time>2026-05-09T18:29:30.057Z</time>
      </trkpt>
      <trkpt lat="47.88987" lon="6.91456">
        <ele>752</ele>
        <time>2026-05-09T18:29:31.058Z</time>
      </trkpt>
      <trkpt lat="47.88987" lon="6.91453">
        <ele>751</ele>
        <time>2026-05-09T18:29:32.057Z</time>
      </trkpt>
      <trkpt lat="47.88987" lon="6.91451">
        <ele>751</ele>
        <time>2026-05-09T18:29:33.057Z</time>
      </trkpt>
      <trkpt lat="47.88987" lon="6.91449">
        <ele>751</ele>
        <time>2026-05-09T18:29:34.057Z</time>
      </trkpt>
      <trkpt lat="47.88986" lon="6.91447">
        <ele>750</ele>
        <time>2026-05-09T18:29:35.057Z</time>
      </trkpt>
      <trkpt lat="47.88986" lon="6.91445">
        <ele>750</ele>
        <time>2026-05-09T18:29:36.058Z</time>
      </trkpt>
      <trkpt lat="47.88986" lon="6.91444">
        <ele>750</ele>
        <time>2026-05-09T18:29:37.057Z</time>
      </trkpt>
      <trkpt lat="47.88986" lon="6.91442">
        <ele>749</ele>
        <time>2026-05-09T18:29:38.057Z</time>
      </trkpt>
      <trkpt lat="47.88986" lon="6.9144">
        <ele>749</ele>
        <time>2026-05-09T18:29:39.057Z</time>
      </trkpt>
      <trkpt lat="47.88986" lon="6.91438">
        <ele>749</ele>
        <time>2026-05-09T18:29:40.057Z</time>
      </trkpt>
      <trkpt lat="47.88985" lon="6.91435">
        <ele>749</ele>
        <time>2026-05-09T18:29:41.057Z</time>
      </trkpt>
      <trkpt lat="47.88985" lon="6.91433">
        <ele>749</ele>
        <time>2026-05-09T18:29:42.057Z</time>
      </trkpt>
      <trkpt lat="47.88984" lon="6.9143">
        <ele>748</ele>
        <time>2026-05-09T18:29:43.057Z</time>
      </trkpt>
      <trkpt lat="47.88984" lon="6.91429">
        <ele>749</ele>
        <time>2026-05-09T18:29:44.057Z</time>
      </trkpt>
      <trkpt lat="47.88984" lon="6.91426">
        <ele>748</ele>
        <time>2026-05-09T18:29:45.058Z</time>
      </trkpt>
      <trkpt lat="47.88983" lon="6.91424">
        <ele>748</ele>
        <time>2026-05-09T18:29:46.058Z</time>
      </trkpt>
      <trkpt lat="47.88983" lon="6.91422">
        <ele>748</ele>
        <time>2026-05-09T18:29:47.058Z</time>
      </trkpt>
      <trkpt lat="47.88982" lon="6.9142">
        <ele>748</ele>
        <time>2026-05-09T18:29:48.058Z</time>
      </trkpt>
      <trkpt lat="47.88982" lon="6.91418">
        <ele>748</ele>
        <time>2026-05-09T18:29:49.057Z</time>
      </trkpt>
      <trkpt lat="47.88981" lon="6.91416">
        <ele>748</ele>
        <time>2026-05-09T18:29:50.057Z</time>
      </trkpt>
      <trkpt lat="47.8898" lon="6.91414">
        <ele>748</ele>
        <time>2026-05-09T18:29:51.058Z</time>
      </trkpt>
      <trkpt lat="47.8898" lon="6.91411">
        <ele>748</ele>
        <time>2026-05-09T18:29:52.057Z</time>
      </trkpt>
      <trkpt lat="47.88979" lon="6.91409">
        <ele>748</ele>
        <time>2026-05-09T18:29:53.057Z</time>
      </trkpt>
      <trkpt lat="47.88978" lon="6.91406">
        <ele>748</ele>
        <time>2026-05-09T18:29:54.058Z</time>
      </trkpt>
      <trkpt lat="47.88978" lon="6.91404">
        <ele>747</ele>
        <time>2026-05-09T18:29:55.058Z</time>
      </trkpt>
      <trkpt lat="47.88978" lon="6.91402">
        <ele>747</ele>
        <time>2026-05-09T18:29:56.057Z</time>
      </trkpt>
      <trkpt lat="47.88977" lon="6.914">
        <ele>747</ele>
        <time>2026-05-09T18:29:57.057Z</time>
      </trkpt>
      <trkpt lat="47.88977" lon="6.91398">
        <ele>747</ele>
        <time>2026-05-09T18:29:58.057Z</time>
      </trkpt>
      <trkpt lat="47.88976" lon="6.91396">
        <ele>747</ele>
        <time>2026-05-09T18:29:59.057Z</time>
      </trkpt>
      <trkpt lat="47.88976" lon="6.91394">
        <ele>747</ele>
        <time>2026-05-09T18:30:00.058Z</time>
      </trkpt>
      <trkpt lat="47.88975" lon="6.91392">
        <ele>747</ele>
        <time>2026-05-09T18:30:01.058Z</time>
      </trkpt>
      <trkpt lat="47.88975" lon="6.91389">
        <ele>747</ele>
        <time>2026-05-09T18:30:02.057Z</time>
      </trkpt>
      <trkpt lat="47.88975" lon="6.91388">
        <ele>747</ele>
        <time>2026-05-09T18:30:03.058Z</time>
      </trkpt>
      <trkpt lat="47.88974" lon="6.91386">
        <ele>746</ele>
        <time>2026-05-09T18:30:04.057Z</time>
      </trkpt>
      <trkpt lat="47.88973" lon="6.91384">
        <ele>746</ele>
        <time>2026-05-09T18:30:05.057Z</time>
      </trkpt>
      <trkpt lat="47.88972" lon="6.91382">
        <ele>745</ele>
        <time>2026-05-09T18:30:06.058Z</time>
      </trkpt>
      <trkpt lat="47.88972" lon="6.9138">
        <ele>745</ele>
        <time>2026-05-09T18:30:07.058Z</time>
      </trkpt>
      <trkpt lat="47.88971" lon="6.91379">
        <ele>745</ele>
        <time>2026-05-09T18:30:08.058Z</time>
      </trkpt>
      <trkpt lat="47.88971" lon="6.91378">
        <ele>745</ele>
        <time>2026-05-09T18:30:09.057Z</time>
      </trkpt>
      <trkpt lat="47.88971" lon="6.91376">
        <ele>744</ele>
        <time>2026-05-09T18:30:10.058Z</time>
      </trkpt>
      <trkpt lat="47.8897" lon="6.91375">
        <ele>744</ele>
        <time>2026-05-09T18:30:11.058Z</time>
      </trkpt>
      <trkpt lat="47.88969" lon="6.91372">
        <ele>744</ele>
        <time>2026-05-09T18:30:12.057Z</time>
      </trkpt>
      <trkpt lat="47.88969" lon="6.9137">
        <ele>743</ele>
        <time>2026-05-09T18:30:13.057Z</time>
      </trkpt>
      <trkpt lat="47.88968" lon="6.91368">
        <ele>743</ele>
        <time>2026-05-09T18:30:14.057Z</time>
      </trkpt>
      <trkpt lat="47.88968" lon="6.91366">
        <ele>742</ele>
        <time>2026-05-09T18:30:15.057Z</time>
      </trkpt>
      <trkpt lat="47.88967" lon="6.91364">
        <ele>742</ele>
        <time>2026-05-09T18:30:16.057Z</time>
      </trkpt>
      <trkpt lat="47.88965" lon="6.91363">
        <ele>742</ele>
        <time>2026-05-09T18:30:17.057Z</time>
      </trkpt>
      <trkpt lat="47.88964" lon="6.91362">
        <ele>742</ele>
        <time>2026-05-09T18:30:18.058Z</time>
      </trkpt>
      <trkpt lat="47.88963" lon="6.91359">
        <ele>742</ele>
        <time>2026-05-09T18:30:19.057Z</time>
      </trkpt>
      <trkpt lat="47.88962" lon="6.91358">
        <ele>742</ele>
        <time>2026-05-09T18:30:20.058Z</time>
      </trkpt>
      <trkpt lat="47.88961" lon="6.91357">
        <ele>742</ele>
        <time>2026-05-09T18:30:21.057Z</time>
      </trkpt>
      <trkpt lat="47.8896" lon="6.91355">
        <ele>742</ele>
        <time>2026-05-09T18:30:22.058Z</time>
      </trkpt>
      <trkpt lat="47.88959" lon="6.91353">
        <ele>742</ele>
        <time>2026-05-09T18:30:23.058Z</time>
      </trkpt>
      <trkpt lat="47.88958" lon="6.91351">
        <ele>741</ele>
        <time>2026-05-09T18:30:24.057Z</time>
      </trkpt>
      <trkpt lat="47.88957" lon="6.91349">
        <ele>741</ele>
        <time>2026-05-09T18:30:25.058Z</time>
      </trkpt>
      <trkpt lat="47.88955" lon="6.91348">
        <ele>741</ele>
        <time>2026-05-09T18:30:26.058Z</time>
      </trkpt>
      <trkpt lat="47.88954" lon="6.91346">
        <ele>740</ele>
        <time>2026-05-09T18:30:27.058Z</time>
      </trkpt>
      <trkpt lat="47.88953" lon="6.91344">
        <ele>740</ele>
        <time>2026-05-09T18:30:28.058Z</time>
      </trkpt>
      <trkpt lat="47.88952" lon="6.91343">
        <ele>740</ele>
        <time>2026-05-09T18:30:29.057Z</time>
      </trkpt>
      <trkpt lat="47.88951" lon="6.91342">
        <ele>741</ele>
        <time>2026-05-09T18:30:30.057Z</time>
      </trkpt>
      <trkpt lat="47.8895" lon="6.9134">
        <ele>741</ele>
        <time>2026-05-09T18:30:31.057Z</time>
      </trkpt>
      <trkpt lat="47.88949" lon="6.91339">
        <ele>741</ele>
        <time>2026-05-09T18:30:32.058Z</time>
      </trkpt>
      <trkpt lat="47.88948" lon="6.91337">
        <ele>741</ele>
        <time>2026-05-09T18:30:33.057Z</time>
      </trkpt>
      <trkpt lat="47.88947" lon="6.91336">
        <ele>741</ele>
        <time>2026-05-09T18:30:34.058Z</time>
      </trkpt>
      <trkpt lat="47.88946" lon="6.91335">
        <ele>741</ele>
        <time>2026-05-09T18:30:35.057Z</time>
      </trkpt>
      <trkpt lat="47.88945" lon="6.91333">
        <ele>741</ele>
        <time>2026-05-09T18:30:36.058Z</time>
      </trkpt>
      <trkpt lat="47.88944" lon="6.91332">
        <ele>741</ele>
        <time>2026-05-09T18:30:37.057Z</time>
      </trkpt>
      <trkpt lat="47.88943" lon="6.9133">
        <ele>741</ele>
        <time>2026-05-09T18:30:38.058Z</time>
      </trkpt>
      <trkpt lat="47.88942" lon="6.91329">
        <ele>741</ele>
        <time>2026-05-09T18:30:39.057Z</time>
      </trkpt>
      <trkpt lat="47.88941" lon="6.91327">
        <ele>741</ele>
        <time>2026-05-09T18:30:40.058Z</time>
      </trkpt>
      <trkpt lat="47.8894" lon="6.91325">
        <ele>741</ele>
        <time>2026-05-09T18:30:41.057Z</time>
      </trkpt>
      <trkpt lat="47.88938" lon="6.91324">
        <ele>741</ele>
        <time>2026-05-09T18:30:42.058Z</time>
      </trkpt>
      <trkpt lat="47.88937" lon="6.91322">
        <ele>741</ele>
        <time>2026-05-09T18:30:43.057Z</time>
      </trkpt>
      <trkpt lat="47.88937" lon="6.9132">
        <ele>740</ele>
        <time>2026-05-09T18:30:44.057Z</time>
      </trkpt>
      <trkpt lat="47.88936" lon="6.91318">
        <ele>740</ele>
        <time>2026-05-09T18:30:45.058Z</time>
      </trkpt>
      <trkpt lat="47.88935" lon="6.91316">
        <ele>740</ele>
        <time>2026-05-09T18:30:46.057Z</time>
      </trkpt>
      <trkpt lat="47.88935" lon="6.91315">
        <ele>740</ele>
        <time>2026-05-09T18:30:47.057Z</time>
      </trkpt>
      <trkpt lat="47.88934" lon="6.91313">
        <ele>739</ele>
        <time>2026-05-09T18:30:48.057Z</time>
      </trkpt>
      <trkpt lat="47.88933" lon="6.91311">
        <ele>739</ele>
        <time>2026-05-09T18:30:49.058Z</time>
      </trkpt>
      <trkpt lat="47.88932" lon="6.91309">
        <ele>739</ele>
        <time>2026-05-09T18:30:50.057Z</time>
      </trkpt>
      <trkpt lat="47.88931" lon="6.91308">
        <ele>739</ele>
        <time>2026-05-09T18:30:51.057Z</time>
      </trkpt>
      <trkpt lat="47.88931" lon="6.91305">
        <ele>739</ele>
        <time>2026-05-09T18:30:52.057Z</time>
      </trkpt>
      <trkpt lat="47.8893" lon="6.91303">
        <ele>739</ele>
        <time>2026-05-09T18:30:53.058Z</time>
      </trkpt>
      <trkpt lat="47.88929" lon="6.91301">
        <ele>739</ele>
        <time>2026-05-09T18:30:54.058Z</time>
      </trkpt>
      <trkpt lat="47.88929" lon="6.91299">
        <ele>738</ele>
        <time>2026-05-09T18:30:55.057Z</time>
      </trkpt>
      <trkpt lat="47.88928" lon="6.91297">
        <ele>738</ele>
        <time>2026-05-09T18:30:56.058Z</time>
      </trkpt>
      <trkpt lat="47.88928" lon="6.91295">
        <ele>737</ele>
        <time>2026-05-09T18:30:57.058Z</time>
      </trkpt>
      <trkpt lat="47.88927" lon="6.91293">
        <ele>737</ele>
        <time>2026-05-09T18:30:58.058Z</time>
      </trkpt>
      <trkpt lat="47.88927" lon="6.91291">
        <ele>737</ele>
        <time>2026-05-09T18:30:59.058Z</time>
      </trkpt>
      <trkpt lat="47.88926" lon="6.91288">
        <ele>737</ele>
        <time>2026-05-09T18:31:00.058Z</time>
      </trkpt>
      <trkpt lat="47.88926" lon="6.91286">
        <ele>736</ele>
        <time>2026-05-09T18:31:01.058Z</time>
      </trkpt>
      <trkpt lat="47.88925" lon="6.91284">
        <ele>736</ele>
        <time>2026-05-09T18:31:02.057Z</time>
      </trkpt>
      <trkpt lat="47.88925" lon="6.91283">
        <ele>735</ele>
        <time>2026-05-09T18:31:03.057Z</time>
      </trkpt>
      <trkpt lat="47.88925" lon="6.91281">
        <ele>735</ele>
        <time>2026-05-09T18:31:04.057Z</time>
      </trkpt>
      <trkpt lat="47.88924" lon="6.91278">
        <ele>735</ele>
        <time>2026-05-09T18:31:05.057Z</time>
      </trkpt>
      <trkpt lat="47.88924" lon="6.91277">
        <ele>734</ele>
        <time>2026-05-09T18:31:06.057Z</time>
      </trkpt>
      <trkpt lat="47.88923" lon="6.91274">
        <ele>734</ele>
        <time>2026-05-09T18:31:07.057Z</time>
      </trkpt>
      <trkpt lat="47.88923" lon="6.91272">
        <ele>735</ele>
        <time>2026-05-09T18:31:08.057Z</time>
      </trkpt>
      <trkpt lat="47.88922" lon="6.9127">
        <ele>735</ele>
        <time>2026-05-09T18:31:09.058Z</time>
      </trkpt>
      <trkpt lat="47.88921" lon="6.91268">
        <ele>735</ele>
        <time>2026-05-09T18:31:10.058Z</time>
      </trkpt>
      <trkpt lat="47.88921" lon="6.91266">
        <ele>735</ele>
        <time>2026-05-09T18:31:11.058Z</time>
      </trkpt>
      <trkpt lat="47.8892" lon="6.91263">
        <ele>735</ele>
        <time>2026-05-09T18:31:12.058Z</time>
      </trkpt>
      <trkpt lat="47.88919" lon="6.91261">
        <ele>735</ele>
        <time>2026-05-09T18:31:13.058Z</time>
      </trkpt>
      <trkpt lat="47.88918" lon="6.91259">
        <ele>735</ele>
        <time>2026-05-09T18:31:14.058Z</time>
      </trkpt>
      <trkpt lat="47.88918" lon="6.91257">
        <ele>735</ele>
        <time>2026-05-09T18:31:15.058Z</time>
      </trkpt>
      <trkpt lat="47.88917" lon="6.91255">
        <ele>734</ele>
        <time>2026-05-09T18:31:16.057Z</time>
      </trkpt>
      <trkpt lat="47.88917" lon="6.91253">
        <ele>734</ele>
        <time>2026-05-09T18:31:17.058Z</time>
      </trkpt>
      <trkpt lat="47.88916" lon="6.9125">
        <ele>734</ele>
        <time>2026-05-09T18:31:18.057Z</time>
      </trkpt>
      <trkpt lat="47.88916" lon="6.91248">
        <ele>733</ele>
        <time>2026-05-09T18:31:19.058Z</time>
      </trkpt>
      <trkpt lat="47.88915" lon="6.91246">
        <ele>733</ele>
        <time>2026-05-09T18:31:20.057Z</time>
      </trkpt>
      <trkpt lat="47.88915" lon="6.91244">
        <ele>733</ele>
        <time>2026-05-09T18:31:21.057Z</time>
      </trkpt>
      <trkpt lat="47.88914" lon="6.91241">
        <ele>733</ele>
        <time>2026-05-09T18:31:22.057Z</time>
      </trkpt>
      <trkpt lat="47.88913" lon="6.91239">
        <ele>734</ele>
        <time>2026-05-09T18:31:23.057Z</time>
      </trkpt>
      <trkpt lat="47.88913" lon="6.91236">
        <ele>734</ele>
        <time>2026-05-09T18:31:24.057Z</time>
      </trkpt>
      <trkpt lat="47.88913" lon="6.91234">
        <ele>734</ele>
        <time>2026-05-09T18:31:25.057Z</time>
      </trkpt>
      <trkpt lat="47.88912" lon="6.91231">
        <ele>734</ele>
        <time>2026-05-09T18:31:26.058Z</time>
      </trkpt>
      <trkpt lat="47.88912" lon="6.91229">
        <ele>733</ele>
        <time>2026-05-09T18:31:27.058Z</time>
      </trkpt>
      <trkpt lat="47.88912" lon="6.91227">
        <ele>733</ele>
        <time>2026-05-09T18:31:28.058Z</time>
      </trkpt>
      <trkpt lat="47.88912" lon="6.91225">
        <ele>732</ele>
        <time>2026-05-09T18:31:29.058Z</time>
      </trkpt>
      <trkpt lat="47.88911" lon="6.91223">
        <ele>732</ele>
        <time>2026-05-09T18:31:30.058Z</time>
      </trkpt>
      <trkpt lat="47.88912" lon="6.91221">
        <ele>731</ele>
        <time>2026-05-09T18:31:31.058Z</time>
      </trkpt>
      <trkpt lat="47.88911" lon="6.91219">
        <ele>731</ele>
        <time>2026-05-09T18:31:32.057Z</time>
      </trkpt>
      <trkpt lat="47.88911" lon="6.91216">
        <ele>731</ele>
        <time>2026-05-09T18:31:33.058Z</time>
      </trkpt>
      <trkpt lat="47.8891" lon="6.91214">
        <ele>730</ele>
        <time>2026-05-09T18:31:34.058Z</time>
      </trkpt>
      <trkpt lat="47.8891" lon="6.91212">
        <ele>730</ele>
        <time>2026-05-09T18:31:35.058Z</time>
      </trkpt>
      <trkpt lat="47.8891" lon="6.9121">
        <ele>730</ele>
        <time>2026-05-09T18:31:36.058Z</time>
      </trkpt>
      <trkpt lat="47.88909" lon="6.91207">
        <ele>730</ele>
        <time>2026-05-09T18:31:37.058Z</time>
      </trkpt>
      <trkpt lat="47.88909" lon="6.91205">
        <ele>730</ele>
        <time>2026-05-09T18:31:38.057Z</time>
      </trkpt>
      <trkpt lat="47.88909" lon="6.91203">
        <ele>731</ele>
        <time>2026-05-09T18:31:39.057Z</time>
      </trkpt>
      <trkpt lat="47.88909" lon="6.912">
        <ele>731</ele>
        <time>2026-05-09T18:31:40.057Z</time>
      </trkpt>
      <trkpt lat="47.88909" lon="6.91198">
        <ele>731</ele>
        <time>2026-05-09T18:31:41.057Z</time>
      </trkpt>
      <trkpt lat="47.88909" lon="6.91196">
        <ele>731</ele>
        <time>2026-05-09T18:31:42.057Z</time>
      </trkpt>
      <trkpt lat="47.88909" lon="6.91193">
        <ele>730</ele>
        <time>2026-05-09T18:31:43.058Z</time>
      </trkpt>
      <trkpt lat="47.88909" lon="6.9119">
        <ele>730</ele>
        <time>2026-05-09T18:31:44.057Z</time>
      </trkpt>
      <trkpt lat="47.88909" lon="6.91188">
        <ele>729</ele>
        <time>2026-05-09T18:31:45.057Z</time>
      </trkpt>
      <trkpt lat="47.88908" lon="6.91185">
        <ele>729</ele>
        <time>2026-05-09T18:31:46.057Z</time>
      </trkpt>
      <trkpt lat="47.88908" lon="6.91183">
        <ele>728</ele>
        <time>2026-05-09T18:31:47.057Z</time>
      </trkpt>
      <trkpt lat="47.88908" lon="6.91181">
        <ele>728</ele>
        <time>2026-05-09T18:31:48.057Z</time>
      </trkpt>
      <trkpt lat="47.88908" lon="6.91179">
        <ele>728</ele>
        <time>2026-05-09T18:31:49.058Z</time>
      </trkpt>
      <trkpt lat="47.88908" lon="6.91177">
        <ele>728</ele>
        <time>2026-05-09T18:31:50.058Z</time>
      </trkpt>
      <trkpt lat="47.88908" lon="6.91175">
        <ele>728</ele>
        <time>2026-05-09T18:31:51.057Z</time>
      </trkpt>
      <trkpt lat="47.88908" lon="6.91173">
        <ele>728</ele>
        <time>2026-05-09T18:31:52.058Z</time>
      </trkpt>
      <trkpt lat="47.88907" lon="6.91171">
        <ele>728</ele>
        <time>2026-05-09T18:31:53.057Z</time>
      </trkpt>
      <trkpt lat="47.88907" lon="6.91168">
        <ele>728</ele>
        <time>2026-05-09T18:31:54.058Z</time>
      </trkpt>
      <trkpt lat="47.88907" lon="6.91166">
        <ele>728</ele>
        <time>2026-05-09T18:31:55.058Z</time>
      </trkpt>
      <trkpt lat="47.88907" lon="6.91163">
        <ele>728</ele>
        <time>2026-05-09T18:31:56.057Z</time>
      </trkpt>
      <trkpt lat="47.88906" lon="6.91161">
        <ele>728</ele>
        <time>2026-05-09T18:31:57.057Z</time>
      </trkpt>
      <trkpt lat="47.88906" lon="6.91159">
        <ele>728</ele>
        <time>2026-05-09T18:31:58.057Z</time>
      </trkpt>
      <trkpt lat="47.88906" lon="6.91157">
        <ele>728</ele>
        <time>2026-05-09T18:31:59.057Z</time>
      </trkpt>
      <trkpt lat="47.88906" lon="6.91155">
        <ele>728</ele>
        <time>2026-05-09T18:32:00.057Z</time>
      </trkpt>
      <trkpt lat="47.88905" lon="6.91153">
        <ele>729</ele>
        <time>2026-05-09T18:32:01.057Z</time>
      </trkpt>
      <trkpt lat="47.88905" lon="6.9115">
        <ele>729</ele>
        <time>2026-05-09T18:32:02.057Z</time>
      </trkpt>
      <trkpt lat="47.88905" lon="6.91148">
        <ele>729</ele>
        <time>2026-05-09T18:32:03.058Z</time>
      </trkpt>
      <trkpt lat="47.88904" lon="6.91146">
        <ele>730</ele>
        <time>2026-05-09T18:32:04.058Z</time>
      </trkpt>
      <trkpt lat="47.88904" lon="6.91143">
        <ele>730</ele>
        <time>2026-05-09T18:32:05.058Z</time>
      </trkpt>
      <trkpt lat="47.88904" lon="6.91141">
        <ele>730</ele>
        <time>2026-05-09T18:32:06.058Z</time>
      </trkpt>
      <trkpt lat="47.88904" lon="6.91139">
        <ele>729</ele>
        <time>2026-05-09T18:32:07.058Z</time>
      </trkpt>
      <trkpt lat="47.88904" lon="6.91137">
        <ele>729</ele>
        <time>2026-05-09T18:32:08.057Z</time>
      </trkpt>
      <trkpt lat="47.88903" lon="6.91134">
        <ele>729</ele>
        <time>2026-05-09T18:32:09.057Z</time>
      </trkpt>
      <trkpt lat="47.88903" lon="6.91132">
        <ele>729</ele>
        <time>2026-05-09T18:32:10.057Z</time>
      </trkpt>
      <trkpt lat="47.88903" lon="6.9113">
        <ele>729</ele>
        <time>2026-05-09T18:32:11.057Z</time>
      </trkpt>
      <trkpt lat="47.88903" lon="6.91128">
        <ele>729</ele>
        <time>2026-05-09T18:32:12.057Z</time>
      </trkpt>
      <trkpt lat="47.88903" lon="6.91127">
        <ele>730</ele>
        <time>2026-05-09T18:32:13.058Z</time>
      </trkpt>
      <trkpt lat="47.88903" lon="6.91124">
        <ele>730</ele>
        <time>2026-05-09T18:32:14.057Z</time>
      </trkpt>
      <trkpt lat="47.88902" lon="6.91122">
        <ele>730</ele>
        <time>2026-05-09T18:32:15.058Z</time>
      </trkpt>
      <trkpt lat="47.88902" lon="6.9112">
        <ele>730</ele>
        <time>2026-05-09T18:32:16.058Z</time>
      </trkpt>
      <trkpt lat="47.88901" lon="6.91118">
        <ele>730</ele>
        <time>2026-05-09T18:32:17.057Z</time>
      </trkpt>
      <trkpt lat="47.88901" lon="6.91116">
        <ele>730</ele>
        <time>2026-05-09T18:32:18.058Z</time>
      </trkpt>
      <trkpt lat="47.88901" lon="6.91113">
        <ele>730</ele>
        <time>2026-05-09T18:32:19.058Z</time>
      </trkpt>
      <trkpt lat="47.889" lon="6.91111">
        <ele>730</ele>
        <time>2026-05-09T18:32:20.057Z</time>
      </trkpt>
      <trkpt lat="47.889" lon="6.91109">
        <ele>730</ele>
        <time>2026-05-09T18:32:21.058Z</time>
      </trkpt>
      <trkpt lat="47.88899" lon="6.91107">
        <ele>729</ele>
        <time>2026-05-09T18:32:22.057Z</time>
      </trkpt>
      <trkpt lat="47.88899" lon="6.91105">
        <ele>729</ele>
        <time>2026-05-09T18:32:23.057Z</time>
      </trkpt>
      <trkpt lat="47.88898" lon="6.91103">
        <ele>728</ele>
        <time>2026-05-09T18:32:24.057Z</time>
      </trkpt>
      <trkpt lat="47.88898" lon="6.91101">
        <ele>728</ele>
        <time>2026-05-09T18:32:25.057Z</time>
      </trkpt>
      <trkpt lat="47.88898" lon="6.91099">
        <ele>727</ele>
        <time>2026-05-09T18:32:26.058Z</time>
      </trkpt>
      <trkpt lat="47.88897" lon="6.91097">
        <ele>727</ele>
        <time>2026-05-09T18:32:27.057Z</time>
      </trkpt>
      <trkpt lat="47.88897" lon="6.91095">
        <ele>726</ele>
        <time>2026-05-09T18:32:28.057Z</time>
      </trkpt>
      <trkpt lat="47.88897" lon="6.91094">
        <ele>726</ele>
        <time>2026-05-09T18:32:29.057Z</time>
      </trkpt>
      <trkpt lat="47.88897" lon="6.91091">
        <ele>726</ele>
        <time>2026-05-09T18:32:30.058Z</time>
      </trkpt>
      <trkpt lat="47.88897" lon="6.91089">
        <ele>726</ele>
        <time>2026-05-09T18:32:31.057Z</time>
      </trkpt>
      <trkpt lat="47.88896" lon="6.91087">
        <ele>725</ele>
        <time>2026-05-09T18:32:32.058Z</time>
      </trkpt>
      <trkpt lat="47.88896" lon="6.91084">
        <ele>725</ele>
        <time>2026-05-09T18:32:33.058Z</time>
      </trkpt>
      <trkpt lat="47.88895" lon="6.91082">
        <ele>725</ele>
        <time>2026-05-09T18:32:34.057Z</time>
      </trkpt>
      <trkpt lat="47.88895" lon="6.9108">
        <ele>725</ele>
        <time>2026-05-09T18:32:35.058Z</time>
      </trkpt>
      <trkpt lat="47.88895" lon="6.91078">
        <ele>725</ele>
        <time>2026-05-09T18:32:36.058Z</time>
      </trkpt>
      <trkpt lat="47.88894" lon="6.91077">
        <ele>725</ele>
        <time>2026-05-09T18:32:37.057Z</time>
      </trkpt>
      <trkpt lat="47.88894" lon="6.91075">
        <ele>725</ele>
        <time>2026-05-09T18:32:38.057Z</time>
      </trkpt>
      <trkpt lat="47.88893" lon="6.91072">
        <ele>725</ele>
        <time>2026-05-09T18:32:39.057Z</time>
      </trkpt>
      <trkpt lat="47.88893" lon="6.9107">
        <ele>725</ele>
        <time>2026-05-09T18:32:40.058Z</time>
      </trkpt>
      <trkpt lat="47.88892" lon="6.91067">
        <ele>725</ele>
        <time>2026-05-09T18:32:41.058Z</time>
      </trkpt>
      <trkpt lat="47.88892" lon="6.91065">
        <ele>724</ele>
        <time>2026-05-09T18:32:42.058Z</time>
      </trkpt>
      <trkpt lat="47.88892" lon="6.91062">
        <ele>724</ele>
        <time>2026-05-09T18:32:43.058Z</time>
      </trkpt>
      <trkpt lat="47.88891" lon="6.9106">
        <ele>723</ele>
        <time>2026-05-09T18:32:44.057Z</time>
      </trkpt>
      <trkpt lat="47.88891" lon="6.91058">
        <ele>723</ele>
        <time>2026-05-09T18:32:45.058Z</time>
      </trkpt>
      <trkpt lat="47.8889" lon="6.91056">
        <ele>722</ele>
        <time>2026-05-09T18:32:46.058Z</time>
      </trkpt>
      <trkpt lat="47.8889" lon="6.91054">
        <ele>722</ele>
        <time>2026-05-09T18:32:47.057Z</time>
      </trkpt>
      <trkpt lat="47.8889" lon="6.91052">
        <ele>722</ele>
        <time>2026-05-09T18:32:48.057Z</time>
      </trkpt>
      <trkpt lat="47.88889" lon="6.91049">
        <ele>721</ele>
        <time>2026-05-09T18:32:49.057Z</time>
      </trkpt>
      <trkpt lat="47.88889" lon="6.91047">
        <ele>721</ele>
        <time>2026-05-09T18:32:50.057Z</time>
      </trkpt>
      <trkpt lat="47.88889" lon="6.91045">
        <ele>720</ele>
        <time>2026-05-09T18:32:51.057Z</time>
      </trkpt>
      <trkpt lat="47.88888" lon="6.91042">
        <ele>720</ele>
        <time>2026-05-09T18:32:52.057Z</time>
      </trkpt>
      <trkpt lat="47.88888" lon="6.9104">
        <ele>720</ele>
        <time>2026-05-09T18:32:53.057Z</time>
      </trkpt>
      <trkpt lat="47.88887" lon="6.91038">
        <ele>720</ele>
        <time>2026-05-09T18:32:54.057Z</time>
      </trkpt>
      <trkpt lat="47.88887" lon="6.91035">
        <ele>720</ele>
        <time>2026-05-09T18:32:55.057Z</time>
      </trkpt>
      <trkpt lat="47.88886" lon="6.91033">
        <ele>721</ele>
        <time>2026-05-09T18:32:56.058Z</time>
      </trkpt>
      <trkpt lat="47.88886" lon="6.91031">
        <ele>721</ele>
        <time>2026-05-09T18:32:57.058Z</time>
      </trkpt>
      <trkpt lat="47.88886" lon="6.91029">
        <ele>721</ele>
        <time>2026-05-09T18:32:58.058Z</time>
      </trkpt>
      <trkpt lat="47.88885" lon="6.91026">
        <ele>721</ele>
        <time>2026-05-09T18:32:59.058Z</time>
      </trkpt>
      <trkpt lat="47.88885" lon="6.91024">
        <ele>721</ele>
        <time>2026-05-09T18:33:00.057Z</time>
      </trkpt>
      <trkpt lat="47.88885" lon="6.91021">
        <ele>721</ele>
        <time>2026-05-09T18:33:01.058Z</time>
      </trkpt>
      <trkpt lat="47.88884" lon="6.9102">
        <ele>721</ele>
        <time>2026-05-09T18:33:02.057Z</time>
      </trkpt>
      <trkpt lat="47.88884" lon="6.91017">
        <ele>720</ele>
        <time>2026-05-09T18:33:03.057Z</time>
      </trkpt>
      <trkpt lat="47.88884" lon="6.91016">
        <ele>720</ele>
        <time>2026-05-09T18:33:04.057Z</time>
      </trkpt>
      <trkpt lat="47.88884" lon="6.91014">
        <ele>720</ele>
        <time>2026-05-09T18:33:05.058Z</time>
      </trkpt>
      <trkpt lat="47.88883" lon="6.91013">
        <ele>720</ele>
        <time>2026-05-09T18:33:06.058Z</time>
      </trkpt>
      <trkpt lat="47.88883" lon="6.9101">
        <ele>720</ele>
        <time>2026-05-09T18:33:07.057Z</time>
      </trkpt>
      <trkpt lat="47.88882" lon="6.91008">
        <ele>720</ele>
        <time>2026-05-09T18:33:08.058Z</time>
      </trkpt>
      <trkpt lat="47.88882" lon="6.91006">
        <ele>720</ele>
        <time>2026-05-09T18:33:09.057Z</time>
      </trkpt>
      <trkpt lat="47.88881" lon="6.91003">
        <ele>720</ele>
        <time>2026-05-09T18:33:10.057Z</time>
      </trkpt>
      <trkpt lat="47.88881" lon="6.91001">
        <ele>720</ele>
        <time>2026-05-09T18:33:11.058Z</time>
      </trkpt>
      <trkpt lat="47.88881" lon="6.91">
        <ele>720</ele>
        <time>2026-05-09T18:33:12.058Z</time>
      </trkpt>
      <trkpt lat="47.8888" lon="6.90999">
        <ele>719</ele>
        <time>2026-05-09T18:33:13.057Z</time>
      </trkpt>
      <trkpt lat="47.8888" lon="6.90997">
        <ele>719</ele>
        <time>2026-05-09T18:33:14.057Z</time>
      </trkpt>
      <trkpt lat="47.8888" lon="6.90995">
        <ele>718</ele>
        <time>2026-05-09T18:33:15.057Z</time>
      </trkpt>
      <trkpt lat="47.8888" lon="6.90993">
        <ele>718</ele>
        <time>2026-05-09T18:33:16.057Z</time>
      </trkpt>
      <trkpt lat="47.88879" lon="6.90992">
        <ele>718</ele>
        <time>2026-05-09T18:33:17.057Z</time>
      </trkpt>
      <trkpt lat="47.88878" lon="6.90991">
        <ele>717</ele>
        <time>2026-05-09T18:33:18.057Z</time>
      </trkpt>
      <trkpt lat="47.88878" lon="6.90989">
        <ele>717</ele>
        <time>2026-05-09T18:33:19.057Z</time>
      </trkpt>
      <trkpt lat="47.88878" lon="6.90988">
        <ele>716</ele>
        <time>2026-05-09T18:33:20.058Z</time>
      </trkpt>
      <trkpt lat="47.88878" lon="6.90986">
        <ele>716</ele>
        <time>2026-05-09T18:33:21.058Z</time>
      </trkpt>
      <trkpt lat="47.88877" lon="6.90983">
        <ele>716</ele>
        <time>2026-05-09T18:33:22.058Z</time>
      </trkpt>
      <trkpt lat="47.88877" lon="6.9098">
        <ele>716</ele>
        <time>2026-05-09T18:33:23.058Z</time>
      </trkpt>
      <trkpt lat="47.88877" lon="6.90979">
        <ele>716</ele>
        <time>2026-05-09T18:33:24.058Z</time>
      </trkpt>
      <trkpt lat="47.88877" lon="6.90977">
        <ele>716</ele>
        <time>2026-05-09T18:33:25.057Z</time>
      </trkpt>
      <trkpt lat="47.88876" lon="6.90975">
        <ele>716</ele>
        <time>2026-05-09T18:33:26.057Z</time>
      </trkpt>
      <trkpt lat="47.88875" lon="6.90974">
        <ele>716</ele>
        <time>2026-05-09T18:33:27.057Z</time>
      </trkpt>
      <trkpt lat="47.88875" lon="6.90973">
        <ele>716</ele>
        <time>2026-05-09T18:33:28.057Z</time>
      </trkpt>
      <trkpt lat="47.88875" lon="6.90971">
        <ele>716</ele>
        <time>2026-05-09T18:33:29.057Z</time>
      </trkpt>
      <trkpt lat="47.88874" lon="6.9097">
        <ele>716</ele>
        <time>2026-05-09T18:33:30.057Z</time>
      </trkpt>
      <trkpt lat="47.88874" lon="6.90968">
        <ele>716</ele>
        <time>2026-05-09T18:33:31.057Z</time>
      </trkpt>
      <trkpt lat="47.88873" lon="6.90966">
        <ele>716</ele>
        <time>2026-05-09T18:33:32.057Z</time>
      </trkpt>
      <trkpt lat="47.88873" lon="6.90965">
        <ele>715</ele>
        <time>2026-05-09T18:33:33.057Z</time>
      </trkpt>
      <trkpt lat="47.88872" lon="6.90964">
        <ele>715</ele>
        <time>2026-05-09T18:33:34.057Z</time>
      </trkpt>
      <trkpt lat="47.88871" lon="6.90962">
        <ele>715</ele>
        <time>2026-05-09T18:33:35.057Z</time>
      </trkpt>
      <trkpt lat="47.88871" lon="6.9096">
        <ele>715</ele>
        <time>2026-05-09T18:33:36.057Z</time>
      </trkpt>
      <trkpt lat="47.88871" lon="6.90958">
        <ele>715</ele>
        <time>2026-05-09T18:33:37.057Z</time>
      </trkpt>
      <trkpt lat="47.8887" lon="6.90957">
        <ele>715</ele>
        <time>2026-05-09T18:33:38.057Z</time>
      </trkpt>
      <trkpt lat="47.88869" lon="6.90955">
        <ele>715</ele>
        <time>2026-05-09T18:33:39.057Z</time>
      </trkpt>
      <trkpt lat="47.88869" lon="6.90954">
        <ele>716</ele>
        <time>2026-05-09T18:33:40.058Z</time>
      </trkpt>
      <trkpt lat="47.88868" lon="6.90952">
        <ele>716</ele>
        <time>2026-05-09T18:33:41.058Z</time>
      </trkpt>
      <trkpt lat="47.88868" lon="6.90951">
        <ele>717</ele>
        <time>2026-05-09T18:33:42.058Z</time>
      </trkpt>
      <trkpt lat="47.88867" lon="6.90949">
        <ele>718</ele>
        <time>2026-05-09T18:33:43.057Z</time>
      </trkpt>
      <trkpt lat="47.88867" lon="6.90947">
        <ele>718</ele>
        <time>2026-05-09T18:33:44.057Z</time>
      </trkpt>
      <trkpt lat="47.88867" lon="6.90945">
        <ele>719</ele>
        <time>2026-05-09T18:33:45.058Z</time>
      </trkpt>
      <trkpt lat="47.88866" lon="6.90944">
        <ele>719</ele>
        <time>2026-05-09T18:33:46.058Z</time>
      </trkpt>
      <trkpt lat="47.88866" lon="6.90942">
        <ele>719</ele>
        <time>2026-05-09T18:33:47.057Z</time>
      </trkpt>
      <trkpt lat="47.88865" lon="6.90939">
        <ele>719</ele>
        <time>2026-05-09T18:33:48.057Z</time>
      </trkpt>
      <trkpt lat="47.88865" lon="6.90937">
        <ele>719</ele>
        <time>2026-05-09T18:33:49.057Z</time>
      </trkpt>
      <trkpt lat="47.88865" lon="6.90935">
        <ele>719</ele>
        <time>2026-05-09T18:33:50.057Z</time>
      </trkpt>
      <trkpt lat="47.88865" lon="6.90933">
        <ele>719</ele>
        <time>2026-05-09T18:33:51.057Z</time>
      </trkpt>
      <trkpt lat="47.88865" lon="6.9093">
        <ele>718</ele>
        <time>2026-05-09T18:33:52.057Z</time>
      </trkpt>
      <trkpt lat="47.88864" lon="6.90927">
        <ele>718</ele>
        <time>2026-05-09T18:33:53.057Z</time>
      </trkpt>
      <trkpt lat="47.88864" lon="6.90924">
        <ele>717</ele>
        <time>2026-05-09T18:33:54.057Z</time>
      </trkpt>
      <trkpt lat="47.88863" lon="6.90921">
        <ele>717</ele>
        <time>2026-05-09T18:33:55.058Z</time>
      </trkpt>
      <trkpt lat="47.88863" lon="6.90918">
        <ele>716</ele>
        <time>2026-05-09T18:33:56.057Z</time>
      </trkpt>
      <trkpt lat="47.88863" lon="6.90916">
        <ele>715</ele>
        <time>2026-05-09T18:33:57.058Z</time>
      </trkpt>
      <trkpt lat="47.88863" lon="6.90914">
        <ele>714</ele>
        <time>2026-05-09T18:33:58.057Z</time>
      </trkpt>
      <trkpt lat="47.88863" lon="6.90911">
        <ele>713</ele>
        <time>2026-05-09T18:33:59.058Z</time>
      </trkpt>
      <trkpt lat="47.88862" lon="6.90909">
        <ele>712</ele>
        <time>2026-05-09T18:34:00.057Z</time>
      </trkpt>
      <trkpt lat="47.88862" lon="6.90907">
        <ele>711</ele>
        <time>2026-05-09T18:34:01.057Z</time>
      </trkpt>
      <trkpt lat="47.88862" lon="6.90905">
        <ele>710</ele>
        <time>2026-05-09T18:34:02.058Z</time>
      </trkpt>
      <trkpt lat="47.88862" lon="6.90902">
        <ele>709</ele>
        <time>2026-05-09T18:34:03.057Z</time>
      </trkpt>
      <trkpt lat="47.88862" lon="6.909">
        <ele>709</ele>
        <time>2026-05-09T18:34:04.058Z</time>
      </trkpt>
      <trkpt lat="47.88861" lon="6.90898">
        <ele>708</ele>
        <time>2026-05-09T18:34:05.058Z</time>
      </trkpt>
      <trkpt lat="47.88861" lon="6.90896">
        <ele>707</ele>
        <time>2026-05-09T18:34:06.057Z</time>
      </trkpt>
      <trkpt lat="47.8886" lon="6.90894">
        <ele>706</ele>
        <time>2026-05-09T18:34:07.057Z</time>
      </trkpt>
      <trkpt lat="47.8886" lon="6.90892">
        <ele>705</ele>
        <time>2026-05-09T18:34:08.057Z</time>
      </trkpt>
      <trkpt lat="47.8886" lon="6.9089">
        <ele>705</ele>
        <time>2026-05-09T18:34:09.057Z</time>
      </trkpt>
      <trkpt lat="47.88859" lon="6.90887">
        <ele>704</ele>
        <time>2026-05-09T18:34:10.057Z</time>
      </trkpt>
      <trkpt lat="47.88859" lon="6.90884">
        <ele>703</ele>
        <time>2026-05-09T18:34:11.058Z</time>
      </trkpt>
      <trkpt lat="47.88858" lon="6.90881">
        <ele>703</ele>
        <time>2026-05-09T18:34:12.057Z</time>
      </trkpt>
      <trkpt lat="47.88858" lon="6.90878">
        <ele>703</ele>
        <time>2026-05-09T18:34:13.057Z</time>
      </trkpt>
      <trkpt lat="47.88859" lon="6.90876">
        <ele>703</ele>
        <time>2026-05-09T18:34:14.057Z</time>
      </trkpt>
      <trkpt lat="47.88859" lon="6.90874">
        <ele>703</ele>
        <time>2026-05-09T18:34:15.058Z</time>
      </trkpt>
      <trkpt lat="47.88859" lon="6.90872">
        <ele>704</ele>
        <time>2026-05-09T18:34:16.058Z</time>
      </trkpt>
      <trkpt lat="47.88859" lon="6.9087">
        <ele>704</ele>
        <time>2026-05-09T18:34:17.057Z</time>
      </trkpt>
      <trkpt lat="47.88859" lon="6.90869">
        <ele>705</ele>
        <time>2026-05-09T18:34:18.058Z</time>
      </trkpt>
      <trkpt lat="47.8886" lon="6.90867">
        <ele>705</ele>
        <time>2026-05-09T18:34:19.057Z</time>
      </trkpt>
      <trkpt lat="47.8886" lon="6.90865">
        <ele>706</ele>
        <time>2026-05-09T18:34:20.057Z</time>
      </trkpt>
      <trkpt lat="47.8886" lon="6.90863">
        <ele>707</ele>
        <time>2026-05-09T18:34:21.058Z</time>
      </trkpt>
      <trkpt lat="47.88859" lon="6.9086">
        <ele>708</ele>
        <time>2026-05-09T18:34:22.058Z</time>
      </trkpt>
      <trkpt lat="47.8886" lon="6.90858">
        <ele>708</ele>
        <time>2026-05-09T18:34:23.058Z</time>
      </trkpt>
      <trkpt lat="47.8886" lon="6.90856">
        <ele>708</ele>
        <time>2026-05-09T18:34:24.057Z</time>
      </trkpt>
      <trkpt lat="47.8886" lon="6.90854">
        <ele>709</ele>
        <time>2026-05-09T18:34:25.058Z</time>
      </trkpt>
      <trkpt lat="47.8886" lon="6.90852">
        <ele>709</ele>
        <time>2026-05-09T18:34:26.058Z</time>
      </trkpt>
      <trkpt lat="47.8886" lon="6.9085">
        <ele>710</ele>
        <time>2026-05-09T18:34:27.057Z</time>
      </trkpt>
      <trkpt lat="47.8886" lon="6.90847">
        <ele>710</ele>
        <time>2026-05-09T18:34:28.058Z</time>
      </trkpt>
      <trkpt lat="47.8886" lon="6.90846">
        <ele>711</ele>
        <time>2026-05-09T18:34:29.057Z</time>
      </trkpt>
      <trkpt lat="47.8886" lon="6.90844">
        <ele>712</ele>
        <time>2026-05-09T18:34:30.057Z</time>
      </trkpt>
      <trkpt lat="47.8886" lon="6.90841">
        <ele>712</ele>
        <time>2026-05-09T18:34:31.058Z</time>
      </trkpt>
      <trkpt lat="47.8886" lon="6.9084">
        <ele>713</ele>
        <time>2026-05-09T18:34:32.057Z</time>
      </trkpt>
      <trkpt lat="47.88859" lon="6.90837">
        <ele>713</ele>
        <time>2026-05-09T18:34:33.058Z</time>
      </trkpt>
      <trkpt lat="47.8886" lon="6.90835">
        <ele>713</ele>
        <time>2026-05-09T18:34:34.058Z</time>
      </trkpt>
      <trkpt lat="47.8886" lon="6.90833">
        <ele>713</ele>
        <time>2026-05-09T18:34:35.058Z</time>
      </trkpt>
      <trkpt lat="47.8886" lon="6.90831">
        <ele>713</ele>
        <time>2026-05-09T18:34:36.058Z</time>
      </trkpt>
      <trkpt lat="47.8886" lon="6.90829">
        <ele>712</ele>
        <time>2026-05-09T18:34:37.058Z</time>
      </trkpt>
      <trkpt lat="47.8886" lon="6.90827">
        <ele>712</ele>
        <time>2026-05-09T18:34:38.057Z</time>
      </trkpt>
      <trkpt lat="47.88859" lon="6.90825">
        <ele>712</ele>
        <time>2026-05-09T18:34:39.057Z</time>
      </trkpt>
      <trkpt lat="47.88859" lon="6.90823">
        <ele>711</ele>
        <time>2026-05-09T18:34:40.058Z</time>
      </trkpt>
      <trkpt lat="47.88859" lon="6.90821">
        <ele>711</ele>
        <time>2026-05-09T18:34:41.057Z</time>
      </trkpt>
      <trkpt lat="47.88858" lon="6.9082">
        <ele>710</ele>
        <time>2026-05-09T18:34:42.057Z</time>
      </trkpt>
      <trkpt lat="47.88858" lon="6.90818">
        <ele>710</ele>
        <time>2026-05-09T18:34:43.057Z</time>
      </trkpt>
      <trkpt lat="47.88858" lon="6.90816">
        <ele>709</ele>
        <time>2026-05-09T18:34:44.057Z</time>
      </trkpt>
      <trkpt lat="47.88857" lon="6.90813">
        <ele>709</ele>
        <time>2026-05-09T18:34:45.058Z</time>
      </trkpt>
      <trkpt lat="47.88857" lon="6.9081">
        <ele>709</ele>
        <time>2026-05-09T18:34:46.058Z</time>
      </trkpt>
      <trkpt lat="47.88856" lon="6.90808">
        <ele>709</ele>
        <time>2026-05-09T18:34:47.058Z</time>
      </trkpt>
      <trkpt lat="47.88856" lon="6.90805">
        <ele>709</ele>
        <time>2026-05-09T18:34:48.057Z</time>
      </trkpt>
      <trkpt lat="47.88855" lon="6.90803">
        <ele>709</ele>
        <time>2026-05-09T18:34:49.058Z</time>
      </trkpt>
      <trkpt lat="47.88855" lon="6.90801">
        <ele>709</ele>
        <time>2026-05-09T18:34:50.058Z</time>
      </trkpt>
      <trkpt lat="47.88854" lon="6.90799">
        <ele>709</ele>
        <time>2026-05-09T18:34:51.058Z</time>
      </trkpt>
      <trkpt lat="47.88853" lon="6.90797">
        <ele>709</ele>
        <time>2026-05-09T18:34:52.057Z</time>
      </trkpt>
      <trkpt lat="47.88852" lon="6.90795">
        <ele>709</ele>
        <time>2026-05-09T18:34:53.058Z</time>
      </trkpt>
      <trkpt lat="47.88851" lon="6.90793">
        <ele>709</ele>
        <time>2026-05-09T18:34:54.057Z</time>
      </trkpt>
      <trkpt lat="47.8885" lon="6.90791">
        <ele>710</ele>
        <time>2026-05-09T18:34:55.057Z</time>
      </trkpt>
      <trkpt lat="47.88849" lon="6.90789">
        <ele>710</ele>
        <time>2026-05-09T18:34:56.057Z</time>
      </trkpt>
      <trkpt lat="47.88849" lon="6.90787">
        <ele>711</ele>
        <time>2026-05-09T18:34:57.057Z</time>
      </trkpt>
      <trkpt lat="47.88848" lon="6.90785">
        <ele>711</ele>
        <time>2026-05-09T18:34:58.057Z</time>
      </trkpt>
      <trkpt lat="47.88847" lon="6.90784">
        <ele>712</ele>
        <time>2026-05-09T18:34:59.058Z</time>
      </trkpt>
      <trkpt lat="47.88846" lon="6.90782">
        <ele>713</ele>
        <time>2026-05-09T18:35:00.057Z</time>
      </trkpt>
      <trkpt lat="47.88845" lon="6.9078">
        <ele>713</ele>
        <time>2026-05-09T18:35:01.058Z</time>
      </trkpt>
      <trkpt lat="47.88844" lon="6.90778">
        <ele>714</ele>
        <time>2026-05-09T18:35:02.057Z</time>
      </trkpt>
      <trkpt lat="47.88843" lon="6.90775">
        <ele>714</ele>
        <time>2026-05-09T18:35:03.058Z</time>
      </trkpt>
      <trkpt lat="47.88843" lon="6.90774">
        <ele>715</ele>
        <time>2026-05-09T18:35:04.057Z</time>
      </trkpt>
      <trkpt lat="47.88842" lon="6.90772">
        <ele>715</ele>
        <time>2026-05-09T18:35:05.057Z</time>
      </trkpt>
      <trkpt lat="47.88841" lon="6.9077">
        <ele>715</ele>
        <time>2026-05-09T18:35:06.057Z</time>
      </trkpt>
      <trkpt lat="47.8884" lon="6.90768">
        <ele>715</ele>
        <time>2026-05-09T18:35:07.057Z</time>
      </trkpt>
      <trkpt lat="47.8884" lon="6.90766">
        <ele>715</ele>
        <time>2026-05-09T18:35:08.057Z</time>
      </trkpt>
      <trkpt lat="47.88839" lon="6.90764">
        <ele>715</ele>
        <time>2026-05-09T18:35:09.057Z</time>
      </trkpt>
      <trkpt lat="47.88839" lon="6.90763">
        <ele>714</ele>
        <time>2026-05-09T18:35:10.057Z</time>
      </trkpt>
      <trkpt lat="47.88838" lon="6.90761">
        <ele>714</ele>
        <time>2026-05-09T18:35:11.057Z</time>
      </trkpt>
      <trkpt lat="47.88837" lon="6.9076">
        <ele>713</ele>
        <time>2026-05-09T18:35:12.057Z</time>
      </trkpt>
      <trkpt lat="47.88836" lon="6.90758">
        <ele>713</ele>
        <time>2026-05-09T18:35:13.057Z</time>
      </trkpt>
      <trkpt lat="47.88835" lon="6.90757">
        <ele>713</ele>
        <time>2026-05-09T18:35:14.057Z</time>
      </trkpt>
      <trkpt lat="47.88834" lon="6.90755">
        <ele>712</ele>
        <time>2026-05-09T18:35:15.058Z</time>
      </trkpt>
      <trkpt lat="47.88833" lon="6.90753">
        <ele>712</ele>
        <time>2026-05-09T18:35:16.058Z</time>
      </trkpt>
      <trkpt lat="47.88832" lon="6.90752">
        <ele>711</ele>
        <time>2026-05-09T18:35:17.058Z</time>
      </trkpt>
      <trkpt lat="47.88831" lon="6.9075">
        <ele>711</ele>
        <time>2026-05-09T18:35:18.058Z</time>
      </trkpt>
      <trkpt lat="47.88831" lon="6.9075">
        <ele>710</ele>
        <time>2026-05-09T18:35:19.058Z</time>
      </trkpt>
      <trkpt lat="47.88829" lon="6.90751">
        <ele>710</ele>
        <time>2026-05-09T18:35:20.058Z</time>
      </trkpt>
      <trkpt lat="47.88828" lon="6.90751">
        <ele>709</ele>
        <time>2026-05-09T18:35:21.057Z</time>
      </trkpt>
      <trkpt lat="47.88827" lon="6.9075">
        <ele>709</ele>
        <time>2026-05-09T18:35:22.057Z</time>
      </trkpt>
      <trkpt lat="47.88826" lon="6.90748">
        <ele>708</ele>
        <time>2026-05-09T18:35:23.058Z</time>
      </trkpt>
      <trkpt lat="47.88825" lon="6.90747">
        <ele>707</ele>
        <time>2026-05-09T18:35:24.058Z</time>
      </trkpt>
      <trkpt lat="47.88825" lon="6.90744">
        <ele>706</ele>
        <time>2026-05-09T18:35:25.058Z</time>
      </trkpt>
      <trkpt lat="47.88824" lon="6.90741">
        <ele>705</ele>
        <time>2026-05-09T18:35:26.058Z</time>
      </trkpt>
      <trkpt lat="47.88824" lon="6.90738">
        <ele>704</ele>
        <time>2026-05-09T18:35:27.057Z</time>
      </trkpt>
      <trkpt lat="47.88824" lon="6.90736">
        <ele>703</ele>
        <time>2026-05-09T18:35:28.057Z</time>
      </trkpt>
      <trkpt lat="47.88823" lon="6.90735">
        <ele>702</ele>
        <time>2026-05-09T18:35:29.057Z</time>
      </trkpt>
      <trkpt lat="47.88823" lon="6.90733">
        <ele>701</ele>
        <time>2026-05-09T18:35:30.057Z</time>
      </trkpt>
      <trkpt lat="47.88822" lon="6.90733">
        <ele>700</ele>
        <time>2026-05-09T18:35:31.057Z</time>
      </trkpt>
      <trkpt lat="47.88821" lon="6.90732">
        <ele>700</ele>
        <time>2026-05-09T18:35:32.058Z</time>
      </trkpt>
      <trkpt lat="47.88819" lon="6.90732">
        <ele>700</ele>
        <time>2026-05-09T18:35:33.058Z</time>
      </trkpt>
      <trkpt lat="47.88818" lon="6.90732">
        <ele>700</ele>
        <time>2026-05-09T18:35:34.057Z</time>
      </trkpt>
      <trkpt lat="47.88817" lon="6.90732">
        <ele>700</ele>
        <time>2026-05-09T18:35:35.057Z</time>
      </trkpt>
      <trkpt lat="47.88816" lon="6.90732">
        <ele>701</ele>
        <time>2026-05-09T18:35:36.057Z</time>
      </trkpt>
      <trkpt lat="47.88814" lon="6.90732">
        <ele>702</ele>
        <time>2026-05-09T18:35:37.057Z</time>
      </trkpt>
      <trkpt lat="47.88813" lon="6.90733">
        <ele>703</ele>
        <time>2026-05-09T18:35:38.057Z</time>
      </trkpt>
      <trkpt lat="47.88812" lon="6.90733">
        <ele>703</ele>
        <time>2026-05-09T18:35:39.058Z</time>
      </trkpt>
      <trkpt lat="47.8881" lon="6.90733">
        <ele>704</ele>
        <time>2026-05-09T18:35:40.058Z</time>
      </trkpt>
      <trkpt lat="47.88809" lon="6.90733">
        <ele>705</ele>
        <time>2026-05-09T18:35:41.057Z</time>
      </trkpt>
      <trkpt lat="47.88807" lon="6.90734">
        <ele>705</ele>
        <time>2026-05-09T18:35:42.057Z</time>
      </trkpt>
      <trkpt lat="47.88805" lon="6.90735">
        <ele>705</ele>
        <time>2026-05-09T18:35:43.058Z</time>
      </trkpt>
      <trkpt lat="47.88804" lon="6.90737">
        <ele>706</ele>
        <time>2026-05-09T18:35:44.057Z</time>
      </trkpt>
      <trkpt lat="47.88804" lon="6.90738">
        <ele>706</ele>
        <time>2026-05-09T18:35:45.057Z</time>
      </trkpt>
      <trkpt lat="47.88803" lon="6.90739">
        <ele>706</ele>
        <time>2026-05-09T18:35:46.058Z</time>
      </trkpt>
      <trkpt lat="47.88802" lon="6.9074">
        <ele>706</ele>
        <time>2026-05-09T18:35:47.057Z</time>
      </trkpt>
      <trkpt lat="47.88802" lon="6.9074">
        <ele>707</ele>
        <time>2026-05-09T18:35:48.057Z</time>
      </trkpt>
      <trkpt lat="47.888" lon="6.9074">
        <ele>707</ele>
        <time>2026-05-09T18:35:49.058Z</time>
      </trkpt>
      <trkpt lat="47.88799" lon="6.90741">
        <ele>707</ele>
        <time>2026-05-09T18:35:50.058Z</time>
      </trkpt>
      <trkpt lat="47.88797" lon="6.90741">
        <ele>707</ele>
        <time>2026-05-09T18:35:51.057Z</time>
      </trkpt>
      <trkpt lat="47.88796" lon="6.90741">
        <ele>707</ele>
        <time>2026-05-09T18:35:52.057Z</time>
      </trkpt>
      <trkpt lat="47.88794" lon="6.90741">
        <ele>707</ele>
        <time>2026-05-09T18:35:53.057Z</time>
      </trkpt>
      <trkpt lat="47.88793" lon="6.90741">
        <ele>706</ele>
        <time>2026-05-09T18:35:54.057Z</time>
      </trkpt>
      <trkpt lat="47.88792" lon="6.90741">
        <ele>706</ele>
        <time>2026-05-09T18:35:55.057Z</time>
      </trkpt>
      <trkpt lat="47.88791" lon="6.90741">
        <ele>706</ele>
        <time>2026-05-09T18:35:56.057Z</time>
      </trkpt>
      <trkpt lat="47.88791" lon="6.90742">
        <ele>706</ele>
        <time>2026-05-09T18:35:57.058Z</time>
      </trkpt>
      <trkpt lat="47.8879" lon="6.90742">
        <ele>706</ele>
        <time>2026-05-09T18:35:58.058Z</time>
      </trkpt>
      <trkpt lat="47.88789" lon="6.90743">
        <ele>707</ele>
        <time>2026-05-09T18:35:59.058Z</time>
      </trkpt>
      <trkpt lat="47.88788" lon="6.90743">
        <ele>707</ele>
        <time>2026-05-09T18:36:00.057Z</time>
      </trkpt>
      <trkpt lat="47.88787" lon="6.90742">
        <ele>707</ele>
        <time>2026-05-09T18:36:01.057Z</time>
      </trkpt>
      <trkpt lat="47.88786" lon="6.90742">
        <ele>707</ele>
        <time>2026-05-09T18:36:02.057Z</time>
      </trkpt>
      <trkpt lat="47.88786" lon="6.90741">
        <ele>707</ele>
        <time>2026-05-09T18:36:03.057Z</time>
      </trkpt>
      <trkpt lat="47.88786" lon="6.90741">
        <ele>707</ele>
        <time>2026-05-09T18:36:04.057Z</time>
      </trkpt>
      <trkpt lat="47.88786" lon="6.90741">
        <ele>707</ele>
        <time>2026-05-09T18:36:05.057Z</time>
      </trkpt>
      <trkpt lat="47.88785" lon="6.90742">
        <ele>711</ele>
        <time>2026-05-09T18:36:27.260Z</time>
      </trkpt>
      <trkpt lat="47.88785" lon="6.90741">
        <ele>711</ele>
        <time>2026-05-09T18:36:28.259Z</time>
      </trkpt>
      <trkpt lat="47.88785" lon="6.90741">
        <ele>711</ele>
        <time>2026-05-09T18:36:29.259Z</time>
      </trkpt>
      <trkpt lat="47.88786" lon="6.90741">
        <ele>711</ele>
        <time>2026-05-09T18:36:30.259Z</time>
      </trkpt>
      <trkpt lat="47.88786" lon="6.90741">
        <ele>711</ele>
        <time>2026-05-09T18:36:31.260Z</time>
      </trkpt>
      <trkpt lat="47.88786" lon="6.90741">
        <ele>711</ele>
        <time>2026-05-09T18:36:32.259Z</time>
      </trkpt>
      <trkpt lat="47.88786" lon="6.90741">
        <ele>711</ele>
        <time>2026-05-09T18:36:33.259Z</time>
      </trkpt>
      <trkpt lat="47.88787" lon="6.90739">
        <ele>703</ele>
        <time>2026-05-09T18:38:11.901Z</time>
      </trkpt>
      <trkpt lat="47.88787" lon="6.90739">
        <ele>703</ele>
        <time>2026-05-09T18:38:12.900Z</time>
      </trkpt>
      <trkpt lat="47.88787" lon="6.90739">
        <ele>703</ele>
        <time>2026-05-09T18:38:13.900Z</time>
      </trkpt>
      <trkpt lat="47.88787" lon="6.90739">
        <ele>704</ele>
        <time>2026-05-09T18:38:14.901Z</time>
      </trkpt>
      <trkpt lat="47.88787" lon="6.90739">
        <ele>705</ele>
        <time>2026-05-09T18:38:15.901Z</time>
      </trkpt>
      <trkpt lat="47.88787" lon="6.90739">
        <ele>706</ele>
        <time>2026-05-09T18:38:16.901Z</time>
      </trkpt>
      <trkpt lat="47.88787" lon="6.90739">
        <ele>706</ele>
        <time>2026-05-09T18:38:17.900Z</time>
      </trkpt>
      <trkpt lat="47.88787" lon="6.90739">
        <ele>706</ele>
        <time>2026-05-09T18:38:18.901Z</time>
      </trkpt>
      <trkpt lat="47.88787" lon="6.90739">
        <ele>707</ele>
        <time>2026-05-09T18:38:19.901Z</time>
      </trkpt>
      <trkpt lat="47.88787" lon="6.90738">
        <ele>708</ele>
        <time>2026-05-09T18:38:20.901Z</time>
      </trkpt>
      <trkpt lat="47.88787" lon="6.90738">
        <ele>708</ele>
        <time>2026-05-09T18:38:21.901Z</time>
      </trkpt>
      <trkpt lat="47.88787" lon="6.90738">
        <ele>709</ele>
        <time>2026-05-09T18:38:22.901Z</time>
      </trkpt>
      <trkpt lat="47.88787" lon="6.90738">
        <ele>709</ele>
        <time>2026-05-09T18:38:23.901Z</time>
      </trkpt>
      <trkpt lat="47.88787" lon="6.90738">
        <ele>709</ele>
        <time>2026-05-09T18:38:24.901Z</time>
      </trkpt>
      <trkpt lat="47.88787" lon="6.90738">
        <ele>709</ele>
        <time>2026-05-09T18:38:25.900Z</time>
      </trkpt>
      <trkpt lat="47.88787" lon="6.90738">
        <ele>708</ele>
        <time>2026-05-09T18:38:26.901Z</time>
      </trkpt>
      <trkpt lat="47.88787" lon="6.90738">
        <ele>708</ele>
        <time>2026-05-09T18:38:27.900Z</time>
      </trkpt>
      <trkpt lat="47.88787" lon="6.90738">
        <ele>708</ele>
        <time>2026-05-09T18:38:28.900Z</time>
      </trkpt>
      <trkpt lat="47.88787" lon="6.90739">
        <ele>708</ele>
        <time>2026-05-09T18:38:29.900Z</time>
      </trkpt>
      <trkpt lat="47.88788" lon="6.90738">
        <ele>708</ele>
        <time>2026-05-09T18:38:30.901Z</time>
      </trkpt>
      <trkpt lat="47.88788" lon="6.90738">
        <ele>708</ele>
        <time>2026-05-09T18:38:31.900Z</time>
      </trkpt>
      <trkpt lat="47.88788" lon="6.90738">
        <ele>708</ele>
        <time>2026-05-09T18:38:32.900Z</time>
      </trkpt>
      <trkpt lat="47.88788" lon="6.90738">
        <ele>708</ele>
        <time>2026-05-09T18:38:33.900Z</time>
      </trkpt>
      <trkpt lat="47.88788" lon="6.90738">
        <ele>709</ele>
        <time>2026-05-09T18:38:34.900Z</time>
      </trkpt>
      <trkpt lat="47.88788" lon="6.90738">
        <ele>710</ele>
        <time>2026-05-09T18:38:35.901Z</time>
      </trkpt>
      <trkpt lat="47.88788" lon="6.90738">
        <ele>710</ele>
        <time>2026-05-09T18:38:36.901Z</time>
      </trkpt>
      <trkpt lat="47.88788" lon="6.90738">
        <ele>710</ele>
        <time>2026-05-09T18:38:37.900Z</time>
      </trkpt>
      <trkpt lat="47.88788" lon="6.90738">
        <ele>711</ele>
        <time>2026-05-09T18:38:38.900Z</time>
      </trkpt>
      <trkpt lat="47.88788" lon="6.90738">
        <ele>712</ele>
        <time>2026-05-09T18:38:39.900Z</time>
      </trkpt>
      <trkpt lat="47.88788" lon="6.90738">
        <ele>713</ele>
        <time>2026-05-09T18:38:40.900Z</time>
      </trkpt>
      <trkpt lat="47.88788" lon="6.90738">
        <ele>713</ele>
        <time>2026-05-09T18:38:41.901Z</time>
      </trkpt>
      <trkpt lat="47.88788" lon="6.90738">
        <ele>713</ele>
        <time>2026-05-09T18:38:42.900Z</time>
      </trkpt>
      <trkpt lat="47.88788" lon="6.90738">
        <ele>714</ele>
        <time>2026-05-09T18:38:43.901Z</time>
      </trkpt>
      <trkpt lat="47.88788" lon="6.90738">
        <ele>714</ele>
        <time>2026-05-09T18:38:44.900Z</time>
      </trkpt>
      <trkpt lat="47.88788" lon="6.90739">
        <ele>715</ele>
        <time>2026-05-09T18:38:45.900Z</time>
      </trkpt>
      <trkpt lat="47.88788" lon="6.90739">
        <ele>715</ele>
        <time>2026-05-09T18:38:46.900Z</time>
      </trkpt>
      <trkpt lat="47.88788" lon="6.90739">
        <ele>715</ele>
        <time>2026-05-09T18:38:47.900Z</time>
      </trkpt>
      <trkpt lat="47.88788" lon="6.90739">
        <ele>715</ele>
        <time>2026-05-09T18:38:48.900Z</time>
      </trkpt>
      <trkpt lat="47.88788" lon="6.90739">
        <ele>716</ele>
        <time>2026-05-09T18:38:49.900Z</time>
      </trkpt>
      <trkpt lat="47.88788" lon="6.90738">
        <ele>716</ele>
        <time>2026-05-09T18:38:50.900Z</time>
      </trkpt>
      <trkpt lat="47.88788" lon="6.90738">
        <ele>717</ele>
        <time>2026-05-09T18:38:51.901Z</time>
      </trkpt>
      <trkpt lat="47.88788" lon="6.90738">
        <ele>717</ele>
        <time>2026-05-09T18:38:52.900Z</time>
      </trkpt>
      <trkpt lat="47.88788" lon="6.90738">
        <ele>717</ele>
        <time>2026-05-09T18:38:53.900Z</time>
      </trkpt>
      <trkpt lat="47.88788" lon="6.90738">
        <ele>717</ele>
        <time>2026-05-09T18:38:54.900Z</time>
      </trkpt>
      <trkpt lat="47.88788" lon="6.90738">
        <ele>716</ele>
        <time>2026-05-09T18:38:55.900Z</time>
      </trkpt>
      <trkpt lat="47.88788" lon="6.90738">
        <ele>716</ele>
        <time>2026-05-09T18:38:56.900Z</time>
      </trkpt>
      <trkpt lat="47.88788" lon="6.90738">
        <ele>716</ele>
        <time>2026-05-09T18:38:57.901Z</time>
      </trkpt>
      <trkpt lat="47.88788" lon="6.90738">
        <ele>715</ele>
        <time>2026-05-09T18:38:58.901Z</time>
      </trkpt>
      <trkpt lat="47.88788" lon="6.90738">
        <ele>714</ele>
        <time>2026-05-09T18:38:59.900Z</time>
      </trkpt>
      <trkpt lat="47.88788" lon="6.90738">
        <ele>713</ele>
        <time>2026-05-09T18:39:00.901Z</time>
      </trkpt>
      <trkpt lat="47.88788" lon="6.90738">
        <ele>713</ele>
        <time>2026-05-09T18:39:01.901Z</time>
      </trkpt>
      <trkpt lat="47.88788" lon="6.90738">
        <ele>713</ele>
        <time>2026-05-09T18:39:02.900Z</time>
      </trkpt>
      <trkpt lat="47.88788" lon="6.90738">
        <ele>712</ele>
        <time>2026-05-09T18:39:03.900Z</time>
      </trkpt>
      <trkpt lat="47.88788" lon="6.90738">
        <ele>712</ele>
        <time>2026-05-09T18:39:04.900Z</time>
      </trkpt>
      <trkpt lat="47.88788" lon="6.90738">
        <ele>712</ele>
        <time>2026-05-09T18:39:05.900Z</time>
      </trkpt>
      <trkpt lat="47.88788" lon="6.90738">
        <ele>712</ele>
        <time>2026-05-09T18:39:06.900Z</time>
      </trkpt>
      <trkpt lat="47.88788" lon="6.90738">
        <ele>712</ele>
        <time>2026-05-09T18:39:07.901Z</time>
      </trkpt>
      <trkpt lat="47.88788" lon="6.90738">
        <ele>712</ele>
        <time>2026-05-09T18:39:08.901Z</time>
      </trkpt>
      <trkpt lat="47.88788" lon="6.90738">
        <ele>712</ele>
        <time>2026-05-09T18:39:09.901Z</time>
      </trkpt>
      <trkpt lat="47.88788" lon="6.90738">
        <ele>713</ele>
        <time>2026-05-09T18:39:10.900Z</time>
      </trkpt>
      <trkpt lat="47.88788" lon="6.90738">
        <ele>713</ele>
        <time>2026-05-09T18:39:11.900Z</time>
      </trkpt>
      <trkpt lat="47.88788" lon="6.90737">
        <ele>713</ele>
        <time>2026-05-09T18:39:12.900Z</time>
      </trkpt>
      <trkpt lat="47.88788" lon="6.90738">
        <ele>712</ele>
        <time>2026-05-09T18:39:13.900Z</time>
      </trkpt>
      <trkpt lat="47.88788" lon="6.90738">
        <ele>708</ele>
        <time>2026-05-09T18:39:20.185Z</time>
      </trkpt>
      <trkpt lat="47.88788" lon="6.90738">
        <ele>708</ele>
        <time>2026-05-09T18:39:21.185Z</time>
      </trkpt>
      <trkpt lat="47.88788" lon="6.90738">
        <ele>707</ele>
        <time>2026-05-09T18:39:22.185Z</time>
      </trkpt>
      <trkpt lat="47.88788" lon="6.90738">
        <ele>707</ele>
        <time>2026-05-09T18:39:23.186Z</time>
      </trkpt>
      <trkpt lat="47.88788" lon="6.90738">
        <ele>707</ele>
        <time>2026-05-09T18:39:24.186Z</time>
      </trkpt>
      <trkpt lat="47.88788" lon="6.90738">
        <ele>706</ele>
        <time>2026-05-09T18:39:25.186Z</time>
      </trkpt>
      <trkpt lat="47.88788" lon="6.90738">
        <ele>705</ele>
        <time>2026-05-09T18:39:26.185Z</time>
      </trkpt>
      <trkpt lat="47.88788" lon="6.90738">
        <ele>705</ele>
        <time>2026-05-09T18:39:27.186Z</time>
      </trkpt>
      <trkpt lat="47.88788" lon="6.90738">
        <ele>705</ele>
        <time>2026-05-09T18:39:28.185Z</time>
      </trkpt>
      <trkpt lat="47.88788" lon="6.90738">
        <ele>705</ele>
        <time>2026-05-09T18:39:29.186Z</time>
      </trkpt>
      <trkpt lat="47.88788" lon="6.90739">
        <ele>705</ele>
        <time>2026-05-09T18:39:30.185Z</time>
      </trkpt>
      <trkpt lat="47.88788" lon="6.90739">
        <ele>705</ele>
        <time>2026-05-09T18:39:31.186Z</time>
      </trkpt>
      <trkpt lat="47.88788" lon="6.90739">
        <ele>705</ele>
        <time>2026-05-09T18:39:32.185Z</time>
      </trkpt>
      <trkpt lat="47.88788" lon="6.90739">
        <ele>705</ele>
        <time>2026-05-09T18:39:33.186Z</time>
      </trkpt>
      <trkpt lat="47.88788" lon="6.90739">
        <ele>704</ele>
        <time>2026-05-09T18:39:34.185Z</time>
      </trkpt>
      <trkpt lat="47.88788" lon="6.90739">
        <ele>704</ele>
        <time>2026-05-09T18:39:35.186Z</time>
      </trkpt>
      <trkpt lat="47.88788" lon="6.90739">
        <ele>704</ele>
        <time>2026-05-09T18:39:36.186Z</time>
      </trkpt>
      <trkpt lat="47.88788" lon="6.90739">
        <ele>704</ele>
        <time>2026-05-09T18:39:37.186Z</time>
      </trkpt>
      <trkpt lat="47.88788" lon="6.90739">
        <ele>704</ele>
        <time>2026-05-09T18:39:38.186Z</time>
      </trkpt>
      <trkpt lat="47.88788" lon="6.90739">
        <ele>704</ele>
        <time>2026-05-09T18:39:39.185Z</time>
      </trkpt>
      <trkpt lat="47.88788" lon="6.90739">
        <ele>704</ele>
        <time>2026-05-09T18:39:40.186Z</time>
      </trkpt>
      <trkpt lat="47.88788" lon="6.90739">
        <ele>704</ele>
        <time>2026-05-09T18:39:41.185Z</time>
      </trkpt>
      <trkpt lat="47.88788" lon="6.90739">
        <ele>704</ele>
        <time>2026-05-09T18:39:42.186Z</time>
      </trkpt>
      <trkpt lat="47.88788" lon="6.90739">
        <ele>704</ele>
        <time>2026-05-09T18:39:43.185Z</time>
      </trkpt>
      <trkpt lat="47.88788" lon="6.90739">
        <ele>704</ele>
        <time>2026-05-09T18:39:44.186Z</time>
      </trkpt>
      <trkpt lat="47.88788" lon="6.9074">
        <ele>704</ele>
        <time>2026-05-09T18:39:45.186Z</time>
      </trkpt>
      <trkpt lat="47.88788" lon="6.9074">
        <ele>705</ele>
        <time>2026-05-09T18:39:46.186Z</time>
      </trkpt>
      <trkpt lat="47.88788" lon="6.9074">
        <ele>705</ele>
        <time>2026-05-09T18:39:47.185Z</time>
      </trkpt>
      <trkpt lat="47.88788" lon="6.9074">
        <ele>706</ele>
        <time>2026-05-09T18:39:48.186Z</time>
      </trkpt>
      <trkpt lat="47.88788" lon="6.9074">
        <ele>706</ele>
        <time>2026-05-09T18:39:49.185Z</time>
      </trkpt>
      <trkpt lat="47.88788" lon="6.9074">
        <ele>707</ele>
        <time>2026-05-09T18:39:50.186Z</time>
      </trkpt>
      <trkpt lat="47.88788" lon="6.9074">
        <ele>707</ele>
        <time>2026-05-09T18:39:51.186Z</time>
      </trkpt>
      <trkpt lat="47.88789" lon="6.9074">
        <ele>708</ele>
        <time>2026-05-09T18:39:52.185Z</time>
      </trkpt>
      <trkpt lat="47.88788" lon="6.9074">
        <ele>708</ele>
        <time>2026-05-09T18:39:53.186Z</time>
      </trkpt>
      <trkpt lat="47.88788" lon="6.90741">
        <ele>708</ele>
        <time>2026-05-09T18:39:54.185Z</time>
      </trkpt>
      <trkpt lat="47.88788" lon="6.90741">
        <ele>709</ele>
        <time>2026-05-09T18:39:55.185Z</time>
      </trkpt>
      <trkpt lat="47.88787" lon="6.9074">
        <ele>709</ele>
        <time>2026-05-09T18:39:56.185Z</time>
      </trkpt>
      <trkpt lat="47.88786" lon="6.9074">
        <ele>709</ele>
        <time>2026-05-09T18:39:57.186Z</time>
      </trkpt>
      <trkpt lat="47.88786" lon="6.9074">
        <ele>710</ele>
        <time>2026-05-09T18:39:58.185Z</time>
      </trkpt>
      <trkpt lat="47.88786" lon="6.90739">
        <ele>710</ele>
        <time>2026-05-09T18:39:59.186Z</time>
      </trkpt>
      <trkpt lat="47.88785" lon="6.90739">
        <ele>710</ele>
        <time>2026-05-09T18:40:00.185Z</time>
      </trkpt>
      <trkpt lat="47.88785" lon="6.90739">
        <ele>710</ele>
        <time>2026-05-09T18:40:01.186Z</time>
      </trkpt>
      <trkpt lat="47.88785" lon="6.9074">
        <ele>710</ele>
        <time>2026-05-09T18:40:02.185Z</time>
      </trkpt>
      <trkpt lat="47.88785" lon="6.90739">
        <ele>711</ele>
        <time>2026-05-09T18:40:03.186Z</time>
      </trkpt>
      <trkpt lat="47.88785" lon="6.90738">
        <ele>711</ele>
        <time>2026-05-09T18:40:04.185Z</time>
      </trkpt>
      <trkpt lat="47.88785" lon="6.90738">
        <ele>711</ele>
        <time>2026-05-09T18:40:05.186Z</time>
      </trkpt>
      <trkpt lat="47.88786" lon="6.90737">
        <ele>716</ele>
        <time>2026-05-09T18:40:13.436Z</time>
      </trkpt>
      <trkpt lat="47.88786" lon="6.90737">
        <ele>716</ele>
        <time>2026-05-09T18:40:14.436Z</time>
      </trkpt>
      <trkpt lat="47.88786" lon="6.90737">
        <ele>716</ele>
        <time>2026-05-09T18:40:15.436Z</time>
      </trkpt>
      <trkpt lat="47.88786" lon="6.90737">
        <ele>716</ele>
        <time>2026-05-09T18:40:16.436Z</time>
      </trkpt>
      <trkpt lat="47.88786" lon="6.90737">
        <ele>717</ele>
        <time>2026-05-09T18:40:17.437Z</time>
      </trkpt>
      <trkpt lat="47.88786" lon="6.90737">
        <ele>718</ele>
        <time>2026-05-09T18:40:18.437Z</time>
      </trkpt>
      <trkpt lat="47.88786" lon="6.90737">
        <ele>718</ele>
        <time>2026-05-09T18:40:19.437Z</time>
      </trkpt>
      <trkpt lat="47.88786" lon="6.90736">
        <ele>719</ele>
        <time>2026-05-09T18:40:20.436Z</time>
      </trkpt>
      <trkpt lat="47.88786" lon="6.90736">
        <ele>719</ele>
        <time>2026-05-09T18:40:21.436Z</time>
      </trkpt>
      <trkpt lat="47.88786" lon="6.90736">
        <ele>720</ele>
        <time>2026-05-09T18:40:22.436Z</time>
      </trkpt>
      <trkpt lat="47.88786" lon="6.90736">
        <ele>720</ele>
        <time>2026-05-09T18:40:23.436Z</time>
      </trkpt>
      <trkpt lat="47.88786" lon="6.90736">
        <ele>719</ele>
        <time>2026-05-09T18:40:24.436Z</time>
      </trkpt>
      <trkpt lat="47.88786" lon="6.90736">
        <ele>719</ele>
        <time>2026-05-09T18:40:25.437Z</time>
      </trkpt>
      <trkpt lat="47.88786" lon="6.90736">
        <ele>719</ele>
        <time>2026-05-09T18:40:26.436Z</time>
      </trkpt>
      <trkpt lat="47.88786" lon="6.90736">
        <ele>718</ele>
        <time>2026-05-09T18:40:27.437Z</time>
      </trkpt>
      <trkpt lat="47.88786" lon="6.90736">
        <ele>717</ele>
        <time>2026-05-09T18:40:28.437Z</time>
      </trkpt>
      <trkpt lat="47.88786" lon="6.90736">
        <ele>717</ele>
        <time>2026-05-09T18:40:29.437Z</time>
      </trkpt>
      <trkpt lat="47.88785" lon="6.90736">
        <ele>716</ele>
        <time>2026-05-09T18:40:30.436Z</time>
      </trkpt>
      <trkpt lat="47.88785" lon="6.90736">
        <ele>716</ele>
        <time>2026-05-09T18:40:31.436Z</time>
      </trkpt>
      <trkpt lat="47.88785" lon="6.90736">
        <ele>716</ele>
        <time>2026-05-09T18:40:32.436Z</time>
      </trkpt>
      <trkpt lat="47.88786" lon="6.90735">
        <ele>715</ele>
        <time>2026-05-09T18:40:33.437Z</time>
      </trkpt>
      <trkpt lat="47.88786" lon="6.90735">
        <ele>715</ele>
        <time>2026-05-09T18:40:34.436Z</time>
      </trkpt>
      <trkpt lat="47.88786" lon="6.90736">
        <ele>715</ele>
        <time>2026-05-09T18:40:35.436Z</time>
      </trkpt>
      <trkpt lat="47.88786" lon="6.90736">
        <ele>714</ele>
        <time>2026-05-09T18:40:36.436Z</time>
      </trkpt>
      <trkpt lat="47.88787" lon="6.90736">
        <ele>714</ele>
        <time>2026-05-09T18:40:37.437Z</time>
      </trkpt>
      <trkpt lat="47.88786" lon="6.90736">
        <ele>713</ele>
        <time>2026-05-09T18:40:38.436Z</time>
      </trkpt>
      <trkpt lat="47.88786" lon="6.90736">
        <ele>712</ele>
        <time>2026-05-09T18:40:39.436Z</time>
      </trkpt>
      <trkpt lat="47.88786" lon="6.90736">
        <ele>712</ele>
        <time>2026-05-09T18:40:40.436Z</time>
      </trkpt>
      <trkpt lat="47.88786" lon="6.90736">
        <ele>711</ele>
        <time>2026-05-09T18:40:41.436Z</time>
      </trkpt>
      <trkpt lat="47.88786" lon="6.90735">
        <ele>711</ele>
        <time>2026-05-09T18:40:42.437Z</time>
      </trkpt>
      <trkpt lat="47.88786" lon="6.90733">
        <ele>716</ele>
        <time>2026-05-09T18:41:02.675Z</time>
      </trkpt>
      <trkpt lat="47.88786" lon="6.90732">
        <ele>717</ele>
        <time>2026-05-09T18:41:03.674Z</time>
      </trkpt>
      <trkpt lat="47.88786" lon="6.90731">
        <ele>717</ele>
        <time>2026-05-09T18:41:04.674Z</time>
      </trkpt>
      <trkpt lat="47.88786" lon="6.9073">
        <ele>717</ele>
        <time>2026-05-09T18:41:05.675Z</time>
      </trkpt>
      <trkpt lat="47.88787" lon="6.90729">
        <ele>717</ele>
        <time>2026-05-09T18:41:06.674Z</time>
      </trkpt>
      <trkpt lat="47.88787" lon="6.90727">
        <ele>717</ele>
        <time>2026-05-09T18:41:07.674Z</time>
      </trkpt>
      <trkpt lat="47.88787" lon="6.90726">
        <ele>717</ele>
        <time>2026-05-09T18:41:08.675Z</time>
      </trkpt>
      <trkpt lat="47.88787" lon="6.90725">
        <ele>717</ele>
        <time>2026-05-09T18:41:09.674Z</time>
      </trkpt>
      <trkpt lat="47.88787" lon="6.90724">
        <ele>716</ele>
        <time>2026-05-09T18:41:10.674Z</time>
      </trkpt>
      <trkpt lat="47.88788" lon="6.90724">
        <ele>716</ele>
        <time>2026-05-09T18:41:11.675Z</time>
      </trkpt>
      <trkpt lat="47.88788" lon="6.90723">
        <ele>716</ele>
        <time>2026-05-09T18:41:12.674Z</time>
      </trkpt>
      <trkpt lat="47.88788" lon="6.90723">
        <ele>715</ele>
        <time>2026-05-09T18:41:13.675Z</time>
      </trkpt>
      <trkpt lat="47.88788" lon="6.90722">
        <ele>715</ele>
        <time>2026-05-09T18:41:14.674Z</time>
      </trkpt>
      <trkpt lat="47.88788" lon="6.90721">
        <ele>714</ele>
        <time>2026-05-09T18:41:15.675Z</time>
      </trkpt>
      <trkpt lat="47.88787" lon="6.90719">
        <ele>714</ele>
        <time>2026-05-09T18:41:16.674Z</time>
      </trkpt>
      <trkpt lat="47.88787" lon="6.90717">
        <ele>713</ele>
        <time>2026-05-09T18:41:17.675Z</time>
      </trkpt>
      <trkpt lat="47.88786" lon="6.90715">
        <ele>713</ele>
        <time>2026-05-09T18:41:18.674Z</time>
      </trkpt>
      <trkpt lat="47.88786" lon="6.90713">
        <ele>713</ele>
        <time>2026-05-09T18:41:19.674Z</time>
      </trkpt>
      <trkpt lat="47.88786" lon="6.90711">
        <ele>713</ele>
        <time>2026-05-09T18:41:20.674Z</time>
      </trkpt>
      <trkpt lat="47.88786" lon="6.90708">
        <ele>713</ele>
        <time>2026-05-09T18:41:21.675Z</time>
      </trkpt>
      <trkpt lat="47.88786" lon="6.90706">
        <ele>713</ele>
        <time>2026-05-09T18:41:22.675Z</time>
      </trkpt>
      <trkpt lat="47.88786" lon="6.90704">
        <ele>713</ele>
        <time>2026-05-09T18:41:23.675Z</time>
      </trkpt>
      <trkpt lat="47.88786" lon="6.90703">
        <ele>713</ele>
        <time>2026-05-09T18:41:24.674Z</time>
      </trkpt>
      <trkpt lat="47.88785" lon="6.90701">
        <ele>713</ele>
        <time>2026-05-09T18:41:25.675Z</time>
      </trkpt>
      <trkpt lat="47.88785" lon="6.90699">
        <ele>713</ele>
        <time>2026-05-09T18:41:26.674Z</time>
      </trkpt>
      <trkpt lat="47.88786" lon="6.90698">
        <ele>713</ele>
        <time>2026-05-09T18:41:27.675Z</time>
      </trkpt>
      <trkpt lat="47.88786" lon="6.90696">
        <ele>713</ele>
        <time>2026-05-09T18:41:28.674Z</time>
      </trkpt>
      <trkpt lat="47.88786" lon="6.90695">
        <ele>713</ele>
        <time>2026-05-09T18:41:29.675Z</time>
      </trkpt>
      <trkpt lat="47.88785" lon="6.90693">
        <ele>713</ele>
        <time>2026-05-09T18:41:30.675Z</time>
      </trkpt>
      <trkpt lat="47.88785" lon="6.90691">
        <ele>713</ele>
        <time>2026-05-09T18:41:31.675Z</time>
      </trkpt>
      <trkpt lat="47.88785" lon="6.9069">
        <ele>714</ele>
        <time>2026-05-09T18:41:32.675Z</time>
      </trkpt>
      <trkpt lat="47.88785" lon="6.90688">
        <ele>714</ele>
        <time>2026-05-09T18:41:33.675Z</time>
      </trkpt>
      <trkpt lat="47.88785" lon="6.90687">
        <ele>714</ele>
        <time>2026-05-09T18:41:34.675Z</time>
      </trkpt>
      <trkpt lat="47.88785" lon="6.90685">
        <ele>714</ele>
        <time>2026-05-09T18:41:35.675Z</time>
      </trkpt>
      <trkpt lat="47.88784" lon="6.90683">
        <ele>715</ele>
        <time>2026-05-09T18:41:36.674Z</time>
      </trkpt>
      <trkpt lat="47.88784" lon="6.90682">
        <ele>715</ele>
        <time>2026-05-09T18:41:37.674Z</time>
      </trkpt>
      <trkpt lat="47.88784" lon="6.9068">
        <ele>715</ele>
        <time>2026-05-09T18:41:38.675Z</time>
      </trkpt>
      <trkpt lat="47.88784" lon="6.90678">
        <ele>716</ele>
        <time>2026-05-09T18:41:39.674Z</time>
      </trkpt>
      <trkpt lat="47.88784" lon="6.90677">
        <ele>716</ele>
        <time>2026-05-09T18:41:40.674Z</time>
      </trkpt>
      <trkpt lat="47.88784" lon="6.90676">
        <ele>716</ele>
        <time>2026-05-09T18:41:41.674Z</time>
      </trkpt>
      <trkpt lat="47.88784" lon="6.90674">
        <ele>717</ele>
        <time>2026-05-09T18:41:42.674Z</time>
      </trkpt>
      <trkpt lat="47.88784" lon="6.90673">
        <ele>717</ele>
        <time>2026-05-09T18:41:43.675Z</time>
      </trkpt>
      <trkpt lat="47.88784" lon="6.90671">
        <ele>717</ele>
        <time>2026-05-09T18:41:44.674Z</time>
      </trkpt>
      <trkpt lat="47.88784" lon="6.90669">
        <ele>718</ele>
        <time>2026-05-09T18:41:45.674Z</time>
      </trkpt>
      <trkpt lat="47.88784" lon="6.90667">
        <ele>718</ele>
        <time>2026-05-09T18:41:46.674Z</time>
      </trkpt>
      <trkpt lat="47.88783" lon="6.90665">
        <ele>718</ele>
        <time>2026-05-09T18:41:47.675Z</time>
      </trkpt>
      <trkpt lat="47.88783" lon="6.90665">
        <ele>718</ele>
        <time>2026-05-09T18:41:48.674Z</time>
      </trkpt>
      <trkpt lat="47.88783" lon="6.90664">
        <ele>719</ele>
        <time>2026-05-09T18:41:49.675Z</time>
      </trkpt>
      <trkpt lat="47.88783" lon="6.90663">
        <ele>719</ele>
        <time>2026-05-09T18:41:50.675Z</time>
      </trkpt>
      <trkpt lat="47.88783" lon="6.90662">
        <ele>720</ele>
        <time>2026-05-09T18:41:51.674Z</time>
      </trkpt>
      <trkpt lat="47.88782" lon="6.90661">
        <ele>720</ele>
        <time>2026-05-09T18:41:52.674Z</time>
      </trkpt>
      <trkpt lat="47.88782" lon="6.90659">
        <ele>720</ele>
        <time>2026-05-09T18:41:53.675Z</time>
      </trkpt>
      <trkpt lat="47.88782" lon="6.90659">
        <ele>721</ele>
        <time>2026-05-09T18:41:54.674Z</time>
      </trkpt>
      <trkpt lat="47.88782" lon="6.90657">
        <ele>721</ele>
        <time>2026-05-09T18:41:55.675Z</time>
      </trkpt>
      <trkpt lat="47.88782" lon="6.90656">
        <ele>721</ele>
        <time>2026-05-09T18:41:56.674Z</time>
      </trkpt>
      <trkpt lat="47.88781" lon="6.90654">
        <ele>721</ele>
        <time>2026-05-09T18:41:57.675Z</time>
      </trkpt>
      <trkpt lat="47.88781" lon="6.90653">
        <ele>721</ele>
        <time>2026-05-09T18:41:58.674Z</time>
      </trkpt>
      <trkpt lat="47.88781" lon="6.90652">
        <ele>721</ele>
        <time>2026-05-09T18:41:59.674Z</time>
      </trkpt>
      <trkpt lat="47.88781" lon="6.90652">
        <ele>721</ele>
        <time>2026-05-09T18:42:00.675Z</time>
      </trkpt>
      <trkpt lat="47.88781" lon="6.90652">
        <ele>721</ele>
        <time>2026-05-09T18:42:01.674Z</time>
      </trkpt>
      <trkpt lat="47.88782" lon="6.90651">
        <ele>721</ele>
        <time>2026-05-09T18:42:02.675Z</time>
      </trkpt>
      <trkpt lat="47.88782" lon="6.9065">
        <ele>721</ele>
        <time>2026-05-09T18:42:03.674Z</time>
      </trkpt>
      <trkpt lat="47.88782" lon="6.90647">
        <ele>721</ele>
        <time>2026-05-09T18:42:04.674Z</time>
      </trkpt>
      <trkpt lat="47.88781" lon="6.90645">
        <ele>720</ele>
        <time>2026-05-09T18:42:05.675Z</time>
      </trkpt>
      <trkpt lat="47.88781" lon="6.90643">
        <ele>720</ele>
        <time>2026-05-09T18:42:06.675Z</time>
      </trkpt>
      <trkpt lat="47.88781" lon="6.90642">
        <ele>720</ele>
        <time>2026-05-09T18:42:07.675Z</time>
      </trkpt>
      <trkpt lat="47.88781" lon="6.9064">
        <ele>720</ele>
        <time>2026-05-09T18:42:08.674Z</time>
      </trkpt>
      <trkpt lat="47.88781" lon="6.90639">
        <ele>720</ele>
        <time>2026-05-09T18:42:09.675Z</time>
      </trkpt>
      <trkpt lat="47.88782" lon="6.90638">
        <ele>719</ele>
        <time>2026-05-09T18:42:10.674Z</time>
      </trkpt>
      <trkpt lat="47.88782" lon="6.90638">
        <ele>720</ele>
        <time>2026-05-09T18:42:11.674Z</time>
      </trkpt>
      <trkpt lat="47.88782" lon="6.90637">
        <ele>720</ele>
        <time>2026-05-09T18:42:12.675Z</time>
      </trkpt>
      <trkpt lat="47.88781" lon="6.90636">
        <ele>720</ele>
        <time>2026-05-09T18:42:13.674Z</time>
      </trkpt>
      <trkpt lat="47.8878" lon="6.90635">
        <ele>720</ele>
        <time>2026-05-09T18:42:14.675Z</time>
      </trkpt>
      <trkpt lat="47.8878" lon="6.90634">
        <ele>721</ele>
        <time>2026-05-09T18:42:15.674Z</time>
      </trkpt>
      <trkpt lat="47.8878" lon="6.90633">
        <ele>721</ele>
        <time>2026-05-09T18:42:16.674Z</time>
      </trkpt>
      <trkpt lat="47.8878" lon="6.90631">
        <ele>721</ele>
        <time>2026-05-09T18:42:17.674Z</time>
      </trkpt>
      <trkpt lat="47.8878" lon="6.90629">
        <ele>721</ele>
        <time>2026-05-09T18:42:18.674Z</time>
      </trkpt>
      <trkpt lat="47.88779" lon="6.90627">
        <ele>722</ele>
        <time>2026-05-09T18:42:19.675Z</time>
      </trkpt>
      <trkpt lat="47.88779" lon="6.90625">
        <ele>722</ele>
        <time>2026-05-09T18:42:20.675Z</time>
      </trkpt>
      <trkpt lat="47.8878" lon="6.90624">
        <ele>722</ele>
        <time>2026-05-09T18:42:21.674Z</time>
      </trkpt>
      <trkpt lat="47.8878" lon="6.90623">
        <ele>722</ele>
        <time>2026-05-09T18:42:22.674Z</time>
      </trkpt>
      <trkpt lat="47.8878" lon="6.90622">
        <ele>722</ele>
        <time>2026-05-09T18:42:23.675Z</time>
      </trkpt>
      <trkpt lat="47.8878" lon="6.90621">
        <ele>722</ele>
        <time>2026-05-09T18:42:24.674Z</time>
      </trkpt>
      <trkpt lat="47.8878" lon="6.90621">
        <ele>722</ele>
        <time>2026-05-09T18:42:25.675Z</time>
      </trkpt>
      <trkpt lat="47.88781" lon="6.9062">
        <ele>722</ele>
        <time>2026-05-09T18:42:26.675Z</time>
      </trkpt>
      <trkpt lat="47.8878" lon="6.90619">
        <ele>722</ele>
        <time>2026-05-09T18:42:27.674Z</time>
      </trkpt>
      <trkpt lat="47.8878" lon="6.90619">
        <ele>722</ele>
        <time>2026-05-09T18:42:28.675Z</time>
      </trkpt>
      <trkpt lat="47.88779" lon="6.90619">
        <ele>723</ele>
        <time>2026-05-09T18:42:29.674Z</time>
      </trkpt>
      <trkpt lat="47.88779" lon="6.90617">
        <ele>723</ele>
        <time>2026-05-09T18:42:30.674Z</time>
      </trkpt>
      <trkpt lat="47.88779" lon="6.90616">
        <ele>723</ele>
        <time>2026-05-09T18:42:31.674Z</time>
      </trkpt>
      <trkpt lat="47.88779" lon="6.90614">
        <ele>723</ele>
        <time>2026-05-09T18:42:32.674Z</time>
      </trkpt>
      <trkpt lat="47.88779" lon="6.90612">
        <ele>724</ele>
        <time>2026-05-09T18:42:33.675Z</time>
      </trkpt>
      <trkpt lat="47.88779" lon="6.9061">
        <ele>724</ele>
        <time>2026-05-09T18:42:34.674Z</time>
      </trkpt>
      <trkpt lat="47.88778" lon="6.90609">
        <ele>724</ele>
        <time>2026-05-09T18:42:35.674Z</time>
      </trkpt>
      <trkpt lat="47.88778" lon="6.90607">
        <ele>724</ele>
        <time>2026-05-09T18:42:36.674Z</time>
      </trkpt>
      <trkpt lat="47.88778" lon="6.90606">
        <ele>725</ele>
        <time>2026-05-09T18:42:37.675Z</time>
      </trkpt>
      <trkpt lat="47.88778" lon="6.90604">
        <ele>725</ele>
        <time>2026-05-09T18:42:38.674Z</time>
      </trkpt>
      <trkpt lat="47.88777" lon="6.90603">
        <ele>725</ele>
        <time>2026-05-09T18:42:39.675Z</time>
      </trkpt>
      <trkpt lat="47.88776" lon="6.90601">
        <ele>725</ele>
        <time>2026-05-09T18:42:40.675Z</time>
      </trkpt>
      <trkpt lat="47.88775" lon="6.90599">
        <ele>725</ele>
        <time>2026-05-09T18:42:41.674Z</time>
      </trkpt>
      <trkpt lat="47.88776" lon="6.90597">
        <ele>724</ele>
        <time>2026-05-09T18:42:42.675Z</time>
      </trkpt>
      <trkpt lat="47.88775" lon="6.90595">
        <ele>724</ele>
        <time>2026-05-09T18:42:43.674Z</time>
      </trkpt>
      <trkpt lat="47.88776" lon="6.90594">
        <ele>724</ele>
        <time>2026-05-09T18:42:44.675Z</time>
      </trkpt>
      <trkpt lat="47.88776" lon="6.90592">
        <ele>724</ele>
        <time>2026-05-09T18:42:45.675Z</time>
      </trkpt>
      <trkpt lat="47.88776" lon="6.90591">
        <ele>724</ele>
        <time>2026-05-09T18:42:46.674Z</time>
      </trkpt>
      <trkpt lat="47.88776" lon="6.90589">
        <ele>724</ele>
        <time>2026-05-09T18:42:47.675Z</time>
      </trkpt>
      <trkpt lat="47.88776" lon="6.90587">
        <ele>724</ele>
        <time>2026-05-09T18:42:48.674Z</time>
      </trkpt>
      <trkpt lat="47.88775" lon="6.90585">
        <ele>724</ele>
        <time>2026-05-09T18:42:49.675Z</time>
      </trkpt>
      <trkpt lat="47.88775" lon="6.90582">
        <ele>725</ele>
        <time>2026-05-09T18:42:50.674Z</time>
      </trkpt>
      <trkpt lat="47.88775" lon="6.9058">
        <ele>725</ele>
        <time>2026-05-09T18:42:51.675Z</time>
      </trkpt>
      <trkpt lat="47.88775" lon="6.90579">
        <ele>725</ele>
        <time>2026-05-09T18:42:52.674Z</time>
      </trkpt>
      <trkpt lat="47.88775" lon="6.90579">
        <ele>725</ele>
        <time>2026-05-09T18:42:53.674Z</time>
      </trkpt>
      <trkpt lat="47.88775" lon="6.90578">
        <ele>725</ele>
        <time>2026-05-09T18:42:54.674Z</time>
      </trkpt>
      <trkpt lat="47.88775" lon="6.90577">
        <ele>725</ele>
        <time>2026-05-09T18:42:55.675Z</time>
      </trkpt>
      <trkpt lat="47.88775" lon="6.90577">
        <ele>725</ele>
        <time>2026-05-09T18:42:56.675Z</time>
      </trkpt>
      <trkpt lat="47.88775" lon="6.90576">
        <ele>725</ele>
        <time>2026-05-09T18:42:57.675Z</time>
      </trkpt>
      <trkpt lat="47.88775" lon="6.90576">
        <ele>725</ele>
        <time>2026-05-09T18:42:58.674Z</time>
      </trkpt>
      <trkpt lat="47.88775" lon="6.90575">
        <ele>726</ele>
        <time>2026-05-09T18:42:59.675Z</time>
      </trkpt>
      <trkpt lat="47.88773" lon="6.90568">
        <ele>726</ele>
        <time>2026-05-09T18:43:06.087Z</time>
      </trkpt>
      <trkpt lat="47.88773" lon="6.90567">
        <ele>726</ele>
        <time>2026-05-09T18:43:07.087Z</time>
      </trkpt>
      <trkpt lat="47.88772" lon="6.90566">
        <ele>726</ele>
        <time>2026-05-09T18:43:08.088Z</time>
      </trkpt>
      <trkpt lat="47.88773" lon="6.90566">
        <ele>726</ele>
        <time>2026-05-09T18:43:09.087Z</time>
      </trkpt>
      <trkpt lat="47.88773" lon="6.90566">
        <ele>726</ele>
        <time>2026-05-09T18:43:10.087Z</time>
      </trkpt>
      <trkpt lat="47.88773" lon="6.90565">
        <ele>726</ele>
        <time>2026-05-09T18:43:11.088Z</time>
      </trkpt>
      <trkpt lat="47.88773" lon="6.90563">
        <ele>726</ele>
        <time>2026-05-09T18:43:12.087Z</time>
      </trkpt>
      <trkpt lat="47.88773" lon="6.90563">
        <ele>725</ele>
        <time>2026-05-09T18:43:13.087Z</time>
      </trkpt>
      <trkpt lat="47.88773" lon="6.90561">
        <ele>725</ele>
        <time>2026-05-09T18:43:14.087Z</time>
      </trkpt>
      <trkpt lat="47.88773" lon="6.90559">
        <ele>725</ele>
        <time>2026-05-09T18:43:15.087Z</time>
      </trkpt>
      <trkpt lat="47.88773" lon="6.90558">
        <ele>726</ele>
        <time>2026-05-09T18:43:16.087Z</time>
      </trkpt>
      <trkpt lat="47.88773" lon="6.90556">
        <ele>726</ele>
        <time>2026-05-09T18:43:17.087Z</time>
      </trkpt>
      <trkpt lat="47.88774" lon="6.90554">
        <ele>726</ele>
        <time>2026-05-09T18:43:18.087Z</time>
      </trkpt>
      <trkpt lat="47.88774" lon="6.90553">
        <ele>726</ele>
        <time>2026-05-09T18:43:19.088Z</time>
      </trkpt>
      <trkpt lat="47.88774" lon="6.90552">
        <ele>727</ele>
        <time>2026-05-09T18:43:20.088Z</time>
      </trkpt>
      <trkpt lat="47.88774" lon="6.90552">
        <ele>727</ele>
        <time>2026-05-09T18:43:21.087Z</time>
      </trkpt>
      <trkpt lat="47.88775" lon="6.90552">
        <ele>727</ele>
        <time>2026-05-09T18:43:22.088Z</time>
      </trkpt>
      <trkpt lat="47.88775" lon="6.90552">
        <ele>728</ele>
        <time>2026-05-09T18:43:23.087Z</time>
      </trkpt>
      <trkpt lat="47.88775" lon="6.90552">
        <ele>728</ele>
        <time>2026-05-09T18:43:24.087Z</time>
      </trkpt>
      <trkpt lat="47.88775" lon="6.90552">
        <ele>729</ele>
        <time>2026-05-09T18:43:25.087Z</time>
      </trkpt>
      <trkpt lat="47.88775" lon="6.90551">
        <ele>729</ele>
        <time>2026-05-09T18:43:26.088Z</time>
      </trkpt>
      <trkpt lat="47.88774" lon="6.90549">
        <ele>730</ele>
        <time>2026-05-09T18:43:27.087Z</time>
      </trkpt>
      <trkpt lat="47.88773" lon="6.90548">
        <ele>730</ele>
        <time>2026-05-09T18:43:28.087Z</time>
      </trkpt>
      <trkpt lat="47.88772" lon="6.90546">
        <ele>731</ele>
        <time>2026-05-09T18:43:29.087Z</time>
      </trkpt>
      <trkpt lat="47.88772" lon="6.90544">
        <ele>731</ele>
        <time>2026-05-09T18:43:30.088Z</time>
      </trkpt>
      <trkpt lat="47.88772" lon="6.90543">
        <ele>731</ele>
        <time>2026-05-09T18:43:31.087Z</time>
      </trkpt>
      <trkpt lat="47.88771" lon="6.90541">
        <ele>732</ele>
        <time>2026-05-09T18:43:32.088Z</time>
      </trkpt>
      <trkpt lat="47.88771" lon="6.9054">
        <ele>732</ele>
        <time>2026-05-09T18:43:33.087Z</time>
      </trkpt>
      <trkpt lat="47.88771" lon="6.90539">
        <ele>732</ele>
        <time>2026-05-09T18:43:34.087Z</time>
      </trkpt>
      <trkpt lat="47.88771" lon="6.90538">
        <ele>733</ele>
        <time>2026-05-09T18:43:35.088Z</time>
      </trkpt>
      <trkpt lat="47.88771" lon="6.90536">
        <ele>733</ele>
        <time>2026-05-09T18:43:36.088Z</time>
      </trkpt>
      <trkpt lat="47.88772" lon="6.90534">
        <ele>733</ele>
        <time>2026-05-09T18:43:37.087Z</time>
      </trkpt>
      <trkpt lat="47.88771" lon="6.90531">
        <ele>734</ele>
        <time>2026-05-09T18:43:38.088Z</time>
      </trkpt>
      <trkpt lat="47.88772" lon="6.90529">
        <ele>734</ele>
        <time>2026-05-09T18:43:39.087Z</time>
      </trkpt>
      <trkpt lat="47.88772" lon="6.90527">
        <ele>734</ele>
        <time>2026-05-09T18:43:40.087Z</time>
      </trkpt>
      <trkpt lat="47.88772" lon="6.90525">
        <ele>735</ele>
        <time>2026-05-09T18:43:41.087Z</time>
      </trkpt>
      <trkpt lat="47.88771" lon="6.90524">
        <ele>735</ele>
        <time>2026-05-09T18:43:42.088Z</time>
      </trkpt>
      <trkpt lat="47.88771" lon="6.90524">
        <ele>735</ele>
        <time>2026-05-09T18:43:43.087Z</time>
      </trkpt>
      <trkpt lat="47.8877" lon="6.90523">
        <ele>736</ele>
        <time>2026-05-09T18:43:44.087Z</time>
      </trkpt>
      <trkpt lat="47.8877" lon="6.90523">
        <ele>736</ele>
        <time>2026-05-09T18:43:45.088Z</time>
      </trkpt>
      <trkpt lat="47.8877" lon="6.90524">
        <ele>736</ele>
        <time>2026-05-09T18:43:46.088Z</time>
      </trkpt>
      <trkpt lat="47.8877" lon="6.90516">
        <ele>738</ele>
        <time>2026-05-09T18:43:52.669Z</time>
      </trkpt>
      <trkpt lat="47.8877" lon="6.90515">
        <ele>738</ele>
        <time>2026-05-09T18:43:53.668Z</time>
      </trkpt>
      <trkpt lat="47.8877" lon="6.90514">
        <ele>738</ele>
        <time>2026-05-09T18:43:54.669Z</time>
      </trkpt>
      <trkpt lat="47.8877" lon="6.90513">
        <ele>738</ele>
        <time>2026-05-09T18:43:55.669Z</time>
      </trkpt>
      <trkpt lat="47.88771" lon="6.90511">
        <ele>738</ele>
        <time>2026-05-09T18:43:56.668Z</time>
      </trkpt>
      <trkpt lat="47.8877" lon="6.90511">
        <ele>738</ele>
        <time>2026-05-09T18:43:57.669Z</time>
      </trkpt>
      <trkpt lat="47.8877" lon="6.9051">
        <ele>738</ele>
        <time>2026-05-09T18:43:58.668Z</time>
      </trkpt>
      <trkpt lat="47.8877" lon="6.9051">
        <ele>738</ele>
        <time>2026-05-09T18:43:59.669Z</time>
      </trkpt>
      <trkpt lat="47.88769" lon="6.9051">
        <ele>738</ele>
        <time>2026-05-09T18:44:00.668Z</time>
      </trkpt>
      <trkpt lat="47.88769" lon="6.90509">
        <ele>738</ele>
        <time>2026-05-09T18:44:01.669Z</time>
      </trkpt>
      <trkpt lat="47.88769" lon="6.90509">
        <ele>738</ele>
        <time>2026-05-09T18:44:02.669Z</time>
      </trkpt>
      <trkpt lat="47.88769" lon="6.90509">
        <ele>738</ele>
        <time>2026-05-09T18:44:03.669Z</time>
      </trkpt>
      <trkpt lat="47.88768" lon="6.90499">
        <ele>741</ele>
        <time>2026-05-09T18:44:10.064Z</time>
      </trkpt>
      <trkpt lat="47.88768" lon="6.90497">
        <ele>742</ele>
        <time>2026-05-09T18:44:11.064Z</time>
      </trkpt>
      <trkpt lat="47.88768" lon="6.90495">
        <ele>742</ele>
        <time>2026-05-09T18:44:12.063Z</time>
      </trkpt>
      <trkpt lat="47.88767" lon="6.90493">
        <ele>743</ele>
        <time>2026-05-09T18:44:13.064Z</time>
      </trkpt>
      <trkpt lat="47.88768" lon="6.90491">
        <ele>743</ele>
        <time>2026-05-09T18:44:14.063Z</time>
      </trkpt>
      <trkpt lat="47.88768" lon="6.90489">
        <ele>743</ele>
        <time>2026-05-09T18:44:15.063Z</time>
      </trkpt>
      <trkpt lat="47.88768" lon="6.90487">
        <ele>743</ele>
        <time>2026-05-09T18:44:16.064Z</time>
      </trkpt>
      <trkpt lat="47.88768" lon="6.90485">
        <ele>743</ele>
        <time>2026-05-09T18:44:17.063Z</time>
      </trkpt>
      <trkpt lat="47.88769" lon="6.90483">
        <ele>744</ele>
        <time>2026-05-09T18:44:18.063Z</time>
      </trkpt>
      <trkpt lat="47.88769" lon="6.90482">
        <ele>744</ele>
        <time>2026-05-09T18:44:19.063Z</time>
      </trkpt>
      <trkpt lat="47.88769" lon="6.90476">
        <ele>744</ele>
        <time>2026-05-09T18:44:20.063Z</time>
      </trkpt>
      <trkpt lat="47.88768" lon="6.90472">
        <ele>744</ele>
        <time>2026-05-09T18:44:21.064Z</time>
      </trkpt>
      <trkpt lat="47.88768" lon="6.90469">
        <ele>744</ele>
        <time>2026-05-09T18:44:22.064Z</time>
      </trkpt>
      <trkpt lat="47.88767" lon="6.90466">
        <ele>744</ele>
        <time>2026-05-09T18:44:23.063Z</time>
      </trkpt>
      <trkpt lat="47.88766" lon="6.90463">
        <ele>744</ele>
        <time>2026-05-09T18:44:24.063Z</time>
      </trkpt>
      <trkpt lat="47.88766" lon="6.90461">
        <ele>744</ele>
        <time>2026-05-09T18:44:25.064Z</time>
      </trkpt>
      <trkpt lat="47.88765" lon="6.90459">
        <ele>744</ele>
        <time>2026-05-09T18:44:26.063Z</time>
      </trkpt>
      <trkpt lat="47.88765" lon="6.90457">
        <ele>744</ele>
        <time>2026-05-09T18:44:27.063Z</time>
      </trkpt>
      <trkpt lat="47.88765" lon="6.90455">
        <ele>744</ele>
        <time>2026-05-09T18:44:28.063Z</time>
      </trkpt>
      <trkpt lat="47.88764" lon="6.90453">
        <ele>744</ele>
        <time>2026-05-09T18:44:29.064Z</time>
      </trkpt>
      <trkpt lat="47.88764" lon="6.90449">
        <ele>744</ele>
        <time>2026-05-09T18:44:30.063Z</time>
      </trkpt>
      <trkpt lat="47.88764" lon="6.90447">
        <ele>744</ele>
        <time>2026-05-09T18:44:31.063Z</time>
      </trkpt>
      <trkpt lat="47.88764" lon="6.90445">
        <ele>744</ele>
        <time>2026-05-09T18:44:32.064Z</time>
      </trkpt>
      <trkpt lat="47.88764" lon="6.90445">
        <ele>744</ele>
        <time>2026-05-09T18:44:33.063Z</time>
      </trkpt>
      <trkpt lat="47.88765" lon="6.90443">
        <ele>744</ele>
        <time>2026-05-09T18:44:34.063Z</time>
      </trkpt>
      <trkpt lat="47.88765" lon="6.9044">
        <ele>744</ele>
        <time>2026-05-09T18:44:35.063Z</time>
      </trkpt>
      <trkpt lat="47.88765" lon="6.90438">
        <ele>744</ele>
        <time>2026-05-09T18:44:36.063Z</time>
      </trkpt>
      <trkpt lat="47.88765" lon="6.90435">
        <ele>744</ele>
        <time>2026-05-09T18:44:37.064Z</time>
      </trkpt>
      <trkpt lat="47.88766" lon="6.90433">
        <ele>744</ele>
        <time>2026-05-09T18:44:38.063Z</time>
      </trkpt>
      <trkpt lat="47.88766" lon="6.90433">
        <ele>744</ele>
        <time>2026-05-09T18:44:39.063Z</time>
      </trkpt>
      <trkpt lat="47.88766" lon="6.90431">
        <ele>744</ele>
        <time>2026-05-09T18:44:40.063Z</time>
      </trkpt>
      <trkpt lat="47.88766" lon="6.90429">
        <ele>744</ele>
        <time>2026-05-09T18:44:41.063Z</time>
      </trkpt>
      <trkpt lat="47.88766" lon="6.90427">
        <ele>744</ele>
        <time>2026-05-09T18:44:42.064Z</time>
      </trkpt>
      <trkpt lat="47.88766" lon="6.90426">
        <ele>743</ele>
        <time>2026-05-09T18:44:43.063Z</time>
      </trkpt>
      <trkpt lat="47.88766" lon="6.90425">
        <ele>743</ele>
        <time>2026-05-09T18:44:44.064Z</time>
      </trkpt>
      <trkpt lat="47.88766" lon="6.90424">
        <ele>743</ele>
        <time>2026-05-09T18:44:45.063Z</time>
      </trkpt>
      <trkpt lat="47.88766" lon="6.90422">
        <ele>743</ele>
        <time>2026-05-09T18:44:46.064Z</time>
      </trkpt>
      <trkpt lat="47.88766" lon="6.9042">
        <ele>743</ele>
        <time>2026-05-09T18:44:47.063Z</time>
      </trkpt>
      <trkpt lat="47.88766" lon="6.90419">
        <ele>743</ele>
        <time>2026-05-09T18:44:48.064Z</time>
      </trkpt>
      <trkpt lat="47.88767" lon="6.90417">
        <ele>743</ele>
        <time>2026-05-09T18:44:49.063Z</time>
      </trkpt>
      <trkpt lat="47.88767" lon="6.90416">
        <ele>743</ele>
        <time>2026-05-09T18:44:50.063Z</time>
      </trkpt>
      <trkpt lat="47.88768" lon="6.90415">
        <ele>743</ele>
        <time>2026-05-09T18:44:51.064Z</time>
      </trkpt>
      <trkpt lat="47.88768" lon="6.90414">
        <ele>743</ele>
        <time>2026-05-09T18:44:52.063Z</time>
      </trkpt>
      <trkpt lat="47.88769" lon="6.90413">
        <ele>744</ele>
        <time>2026-05-09T18:44:53.063Z</time>
      </trkpt>
      <trkpt lat="47.8877" lon="6.90411">
        <ele>744</ele>
        <time>2026-05-09T18:44:54.063Z</time>
      </trkpt>
      <trkpt lat="47.8877" lon="6.90409">
        <ele>744</ele>
        <time>2026-05-09T18:44:55.063Z</time>
      </trkpt>
      <trkpt lat="47.88771" lon="6.90406">
        <ele>744</ele>
        <time>2026-05-09T18:44:56.063Z</time>
      </trkpt>
      <trkpt lat="47.88771" lon="6.90404">
        <ele>745</ele>
        <time>2026-05-09T18:44:57.063Z</time>
      </trkpt>
      <trkpt lat="47.88771" lon="6.90402">
        <ele>745</ele>
        <time>2026-05-09T18:44:58.064Z</time>
      </trkpt>
      <trkpt lat="47.8877" lon="6.90401">
        <ele>745</ele>
        <time>2026-05-09T18:44:59.063Z</time>
      </trkpt>
      <trkpt lat="47.8877" lon="6.904">
        <ele>745</ele>
        <time>2026-05-09T18:45:00.063Z</time>
      </trkpt>
      <trkpt lat="47.88771" lon="6.90399">
        <ele>745</ele>
        <time>2026-05-09T18:45:01.063Z</time>
      </trkpt>
      <trkpt lat="47.88771" lon="6.90398">
        <ele>745</ele>
        <time>2026-05-09T18:45:02.064Z</time>
      </trkpt>
      <trkpt lat="47.88771" lon="6.90396">
        <ele>745</ele>
        <time>2026-05-09T18:45:03.063Z</time>
      </trkpt>
      <trkpt lat="47.88771" lon="6.90395">
        <ele>745</ele>
        <time>2026-05-09T18:45:04.063Z</time>
      </trkpt>
      <trkpt lat="47.88772" lon="6.90394">
        <ele>746</ele>
        <time>2026-05-09T18:45:05.063Z</time>
      </trkpt>
      <trkpt lat="47.88772" lon="6.90393">
        <ele>746</ele>
        <time>2026-05-09T18:45:06.063Z</time>
      </trkpt>
      <trkpt lat="47.88772" lon="6.90391">
        <ele>746</ele>
        <time>2026-05-09T18:45:07.064Z</time>
      </trkpt>
      <trkpt lat="47.88771" lon="6.90389">
        <ele>746</ele>
        <time>2026-05-09T18:45:08.063Z</time>
      </trkpt>
      <trkpt lat="47.88772" lon="6.90388">
        <ele>746</ele>
        <time>2026-05-09T18:45:09.064Z</time>
      </trkpt>
      <trkpt lat="47.88772" lon="6.90386">
        <ele>746</ele>
        <time>2026-05-09T18:45:10.064Z</time>
      </trkpt>
      <trkpt lat="47.88773" lon="6.90385">
        <ele>746</ele>
        <time>2026-05-09T18:45:11.063Z</time>
      </trkpt>
      <trkpt lat="47.88773" lon="6.90383">
        <ele>745</ele>
        <time>2026-05-09T18:45:12.063Z</time>
      </trkpt>
      <trkpt lat="47.88773" lon="6.90382">
        <ele>745</ele>
        <time>2026-05-09T18:45:13.064Z</time>
      </trkpt>
      <trkpt lat="47.88773" lon="6.90381">
        <ele>745</ele>
        <time>2026-05-09T18:45:14.064Z</time>
      </trkpt>
      <trkpt lat="47.88774" lon="6.9038">
        <ele>745</ele>
        <time>2026-05-09T18:45:15.063Z</time>
      </trkpt>
      <trkpt lat="47.88774" lon="6.9038">
        <ele>745</ele>
        <time>2026-05-09T18:45:16.064Z</time>
      </trkpt>
      <trkpt lat="47.88774" lon="6.90378">
        <ele>745</ele>
        <time>2026-05-09T18:45:17.063Z</time>
      </trkpt>
      <trkpt lat="47.88774" lon="6.90378">
        <ele>745</ele>
        <time>2026-05-09T18:45:18.064Z</time>
      </trkpt>
      <trkpt lat="47.88774" lon="6.90375">
        <ele>745</ele>
        <time>2026-05-09T18:45:19.063Z</time>
      </trkpt>
      <trkpt lat="47.88773" lon="6.90373">
        <ele>745</ele>
        <time>2026-05-09T18:45:20.063Z</time>
      </trkpt>
      <trkpt lat="47.88772" lon="6.90371">
        <ele>746</ele>
        <time>2026-05-09T18:45:21.063Z</time>
      </trkpt>
      <trkpt lat="47.8877" lon="6.90369">
        <ele>746</ele>
        <time>2026-05-09T18:45:22.064Z</time>
      </trkpt>
      <trkpt lat="47.88769" lon="6.90366">
        <ele>746</ele>
        <time>2026-05-09T18:45:23.063Z</time>
      </trkpt>
      <trkpt lat="47.88769" lon="6.90362">
        <ele>746</ele>
        <time>2026-05-09T18:45:24.063Z</time>
      </trkpt>
      <trkpt lat="47.88769" lon="6.90358">
        <ele>746</ele>
        <time>2026-05-09T18:45:25.063Z</time>
      </trkpt>
      <trkpt lat="47.88768" lon="6.90354">
        <ele>745</ele>
        <time>2026-05-09T18:45:26.064Z</time>
      </trkpt>
      <trkpt lat="47.88769" lon="6.9035">
        <ele>745</ele>
        <time>2026-05-09T18:45:27.064Z</time>
      </trkpt>
      <trkpt lat="47.88769" lon="6.90347">
        <ele>745</ele>
        <time>2026-05-09T18:45:28.063Z</time>
      </trkpt>
      <trkpt lat="47.88769" lon="6.90344">
        <ele>744</ele>
        <time>2026-05-09T18:45:29.063Z</time>
      </trkpt>
      <trkpt lat="47.88768" lon="6.90341">
        <ele>744</ele>
        <time>2026-05-09T18:45:30.063Z</time>
      </trkpt>
      <trkpt lat="47.88769" lon="6.9034">
        <ele>743</ele>
        <time>2026-05-09T18:45:31.064Z</time>
      </trkpt>
      <trkpt lat="47.88768" lon="6.9034">
        <ele>743</ele>
        <time>2026-05-09T18:45:32.063Z</time>
      </trkpt>
      <trkpt lat="47.88766" lon="6.90339">
        <ele>743</ele>
        <time>2026-05-09T18:45:33.063Z</time>
      </trkpt>
      <trkpt lat="47.88766" lon="6.90338">
        <ele>742</ele>
        <time>2026-05-09T18:45:34.063Z</time>
      </trkpt>
      <trkpt lat="47.88766" lon="6.90337">
        <ele>742</ele>
        <time>2026-05-09T18:45:35.064Z</time>
      </trkpt>
      <trkpt lat="47.88766" lon="6.90337">
        <ele>741</ele>
        <time>2026-05-09T18:45:36.063Z</time>
      </trkpt>
      <trkpt lat="47.88766" lon="6.90336">
        <ele>741</ele>
        <time>2026-05-09T18:45:37.063Z</time>
      </trkpt>
      <trkpt lat="47.88768" lon="6.90334">
        <ele>741</ele>
        <time>2026-05-09T18:45:38.064Z</time>
      </trkpt>
      <trkpt lat="47.88769" lon="6.90333">
        <ele>741</ele>
        <time>2026-05-09T18:45:39.063Z</time>
      </trkpt>
      <trkpt lat="47.8877" lon="6.90333">
        <ele>741</ele>
        <time>2026-05-09T18:45:40.063Z</time>
      </trkpt>
      <trkpt lat="47.8877" lon="6.90334">
        <ele>741</ele>
        <time>2026-05-09T18:45:41.063Z</time>
      </trkpt>
      <trkpt lat="47.8877" lon="6.90335">
        <ele>741</ele>
        <time>2026-05-09T18:45:42.063Z</time>
      </trkpt>
      <trkpt lat="47.88771" lon="6.90334">
        <ele>741</ele>
        <time>2026-05-09T18:45:43.063Z</time>
      </trkpt>
      <trkpt lat="47.88771" lon="6.90331">
        <ele>741</ele>
        <time>2026-05-09T18:45:44.063Z</time>
      </trkpt>
      <trkpt lat="47.88771" lon="6.90329">
        <ele>741</ele>
        <time>2026-05-09T18:45:45.063Z</time>
      </trkpt>
      <trkpt lat="47.88771" lon="6.90327">
        <ele>741</ele>
        <time>2026-05-09T18:45:46.063Z</time>
      </trkpt>
      <trkpt lat="47.8877" lon="6.90325">
        <ele>742</ele>
        <time>2026-05-09T18:45:47.063Z</time>
      </trkpt>
      <trkpt lat="47.8877" lon="6.90324">
        <ele>742</ele>
        <time>2026-05-09T18:45:48.063Z</time>
      </trkpt>
      <trkpt lat="47.8877" lon="6.90324">
        <ele>742</ele>
        <time>2026-05-09T18:45:49.064Z</time>
      </trkpt>
      <trkpt lat="47.88771" lon="6.90324">
        <ele>742</ele>
        <time>2026-05-09T18:45:50.064Z</time>
      </trkpt>
      <trkpt lat="47.88771" lon="6.90326">
        <ele>742</ele>
        <time>2026-05-09T18:45:51.063Z</time>
      </trkpt>
      <trkpt lat="47.88771" lon="6.90329">
        <ele>743</ele>
        <time>2026-05-09T18:45:52.064Z</time>
      </trkpt>
      <trkpt lat="47.88771" lon="6.90328">
        <ele>743</ele>
        <time>2026-05-09T18:45:53.063Z</time>
      </trkpt>
      <trkpt lat="47.88772" lon="6.90328">
        <ele>743</ele>
        <time>2026-05-09T18:45:54.064Z</time>
      </trkpt>
      <trkpt lat="47.88772" lon="6.9032">
        <ele>748</ele>
        <time>2026-05-09T18:46:03.418Z</time>
      </trkpt>
      <trkpt lat="47.88772" lon="6.90319">
        <ele>748</ele>
        <time>2026-05-09T18:46:04.417Z</time>
      </trkpt>
      <trkpt lat="47.88772" lon="6.90318">
        <ele>748</ele>
        <time>2026-05-09T18:46:05.417Z</time>
      </trkpt>
      <trkpt lat="47.88772" lon="6.90318">
        <ele>748</ele>
        <time>2026-05-09T18:46:06.418Z</time>
      </trkpt>
      <trkpt lat="47.88772" lon="6.90317">
        <ele>748</ele>
        <time>2026-05-09T18:46:07.417Z</time>
      </trkpt>
      <trkpt lat="47.88772" lon="6.90316">
        <ele>749</ele>
        <time>2026-05-09T18:46:08.418Z</time>
      </trkpt>
      <trkpt lat="47.88772" lon="6.90316">
        <ele>749</ele>
        <time>2026-05-09T18:46:09.417Z</time>
      </trkpt>
      <trkpt lat="47.88772" lon="6.90315">
        <ele>749</ele>
        <time>2026-05-09T18:46:10.418Z</time>
      </trkpt>
      <trkpt lat="47.88772" lon="6.90314">
        <ele>749</ele>
        <time>2026-05-09T18:46:11.417Z</time>
      </trkpt>
      <trkpt lat="47.88772" lon="6.90313">
        <ele>749</ele>
        <time>2026-05-09T18:46:12.417Z</time>
      </trkpt>
      <trkpt lat="47.88772" lon="6.90311">
        <ele>749</ele>
        <time>2026-05-09T18:46:13.418Z</time>
      </trkpt>
      <trkpt lat="47.88771" lon="6.9031">
        <ele>749</ele>
        <time>2026-05-09T18:46:14.417Z</time>
      </trkpt>
      <trkpt lat="47.88771" lon="6.9031">
        <ele>750</ele>
        <time>2026-05-09T18:46:15.418Z</time>
      </trkpt>
      <trkpt lat="47.88771" lon="6.90309">
        <ele>750</ele>
        <time>2026-05-09T18:46:16.417Z</time>
      </trkpt>
      <trkpt lat="47.8877" lon="6.90308">
        <ele>751</ele>
        <time>2026-05-09T18:46:17.417Z</time>
      </trkpt>
      <trkpt lat="47.8877" lon="6.90308">
        <ele>751</ele>
        <time>2026-05-09T18:46:18.418Z</time>
      </trkpt>
      <trkpt lat="47.88769" lon="6.90307">
        <ele>751</ele>
        <time>2026-05-09T18:46:19.417Z</time>
      </trkpt>
      <trkpt lat="47.88768" lon="6.90306">
        <ele>752</ele>
        <time>2026-05-09T18:46:20.418Z</time>
      </trkpt>
      <trkpt lat="47.88768" lon="6.90305">
        <ele>752</ele>
        <time>2026-05-09T18:46:21.418Z</time>
      </trkpt>
      <trkpt lat="47.88768" lon="6.90303">
        <ele>752</ele>
        <time>2026-05-09T18:46:22.418Z</time>
      </trkpt>
      <trkpt lat="47.88768" lon="6.90302">
        <ele>752</ele>
        <time>2026-05-09T18:46:23.418Z</time>
      </trkpt>
      <trkpt lat="47.88768" lon="6.90301">
        <ele>753</ele>
        <time>2026-05-09T18:46:24.418Z</time>
      </trkpt>
      <trkpt lat="47.88768" lon="6.903">
        <ele>753</ele>
        <time>2026-05-09T18:46:25.418Z</time>
      </trkpt>
      <trkpt lat="47.88768" lon="6.90298">
        <ele>753</ele>
        <time>2026-05-09T18:46:26.417Z</time>
      </trkpt>
      <trkpt lat="47.88768" lon="6.90297">
        <ele>754</ele>
        <time>2026-05-09T18:46:27.417Z</time>
      </trkpt>
      <trkpt lat="47.88768" lon="6.90295">
        <ele>754</ele>
        <time>2026-05-09T18:46:28.418Z</time>
      </trkpt>
      <trkpt lat="47.88769" lon="6.90292">
        <ele>754</ele>
        <time>2026-05-09T18:46:29.417Z</time>
      </trkpt>
      <trkpt lat="47.88769" lon="6.9029">
        <ele>754</ele>
        <time>2026-05-09T18:46:30.418Z</time>
      </trkpt>
      <trkpt lat="47.88769" lon="6.90288">
        <ele>755</ele>
        <time>2026-05-09T18:46:31.417Z</time>
      </trkpt>
      <trkpt lat="47.88769" lon="6.90286">
        <ele>755</ele>
        <time>2026-05-09T18:46:32.418Z</time>
      </trkpt>
      <trkpt lat="47.8877" lon="6.90283">
        <ele>756</ele>
        <time>2026-05-09T18:46:33.417Z</time>
      </trkpt>
      <trkpt lat="47.88771" lon="6.9028">
        <ele>756</ele>
        <time>2026-05-09T18:46:34.418Z</time>
      </trkpt>
      <trkpt lat="47.88771" lon="6.90278">
        <ele>757</ele>
        <time>2026-05-09T18:46:35.417Z</time>
      </trkpt>
      <trkpt lat="47.88772" lon="6.90276">
        <ele>758</ele>
        <time>2026-05-09T18:46:36.418Z</time>
      </trkpt>
      <trkpt lat="47.88773" lon="6.90273">
        <ele>758</ele>
        <time>2026-05-09T18:46:37.417Z</time>
      </trkpt>
      <trkpt lat="47.88773" lon="6.90271">
        <ele>758</ele>
        <time>2026-05-09T18:46:38.418Z</time>
      </trkpt>
      <trkpt lat="47.88773" lon="6.90271">
        <ele>758</ele>
        <time>2026-05-09T18:46:39.417Z</time>
      </trkpt>
      <trkpt lat="47.88773" lon="6.90268">
        <ele>759</ele>
        <time>2026-05-09T18:46:40.418Z</time>
      </trkpt>
      <trkpt lat="47.88773" lon="6.90267">
        <ele>759</ele>
        <time>2026-05-09T18:46:41.417Z</time>
      </trkpt>
      <trkpt lat="47.88773" lon="6.90265">
        <ele>759</ele>
        <time>2026-05-09T18:46:42.418Z</time>
      </trkpt>
      <trkpt lat="47.88773" lon="6.90262">
        <ele>759</ele>
        <time>2026-05-09T18:46:43.417Z</time>
      </trkpt>
      <trkpt lat="47.88773" lon="6.9026">
        <ele>759</ele>
        <time>2026-05-09T18:46:44.418Z</time>
      </trkpt>
      <trkpt lat="47.88773" lon="6.90259">
        <ele>759</ele>
        <time>2026-05-09T18:46:45.417Z</time>
      </trkpt>
      <trkpt lat="47.88773" lon="6.90258">
        <ele>760</ele>
        <time>2026-05-09T18:46:46.418Z</time>
      </trkpt>
      <trkpt lat="47.88773" lon="6.90257">
        <ele>760</ele>
        <time>2026-05-09T18:46:47.417Z</time>
      </trkpt>
      <trkpt lat="47.88773" lon="6.90256">
        <ele>760</ele>
        <time>2026-05-09T18:46:48.417Z</time>
      </trkpt>
      <trkpt lat="47.88773" lon="6.90255">
        <ele>760</ele>
        <time>2026-05-09T18:46:49.417Z</time>
      </trkpt>
      <trkpt lat="47.88774" lon="6.90253">
        <ele>760</ele>
        <time>2026-05-09T18:46:50.418Z</time>
      </trkpt>
      <trkpt lat="47.88774" lon="6.90252">
        <ele>760</ele>
        <time>2026-05-09T18:46:51.417Z</time>
      </trkpt>
      <trkpt lat="47.88775" lon="6.9025">
        <ele>760</ele>
        <time>2026-05-09T18:46:52.418Z</time>
      </trkpt>
      <trkpt lat="47.88775" lon="6.90248">
        <ele>761</ele>
        <time>2026-05-09T18:46:53.418Z</time>
      </trkpt>
      <trkpt lat="47.88775" lon="6.90246">
        <ele>761</ele>
        <time>2026-05-09T18:46:54.418Z</time>
      </trkpt>
      <trkpt lat="47.88775" lon="6.90245">
        <ele>762</ele>
        <time>2026-05-09T18:46:55.418Z</time>
      </trkpt>
      <trkpt lat="47.88775" lon="6.90243">
        <ele>762</ele>
        <time>2026-05-09T18:46:56.417Z</time>
      </trkpt>
      <trkpt lat="47.88776" lon="6.90241">
        <ele>763</ele>
        <time>2026-05-09T18:46:57.418Z</time>
      </trkpt>
      <trkpt lat="47.88776" lon="6.90239">
        <ele>763</ele>
        <time>2026-05-09T18:46:58.417Z</time>
      </trkpt>
      <trkpt lat="47.88775" lon="6.90237">
        <ele>763</ele>
        <time>2026-05-09T18:46:59.417Z</time>
      </trkpt>
      <trkpt lat="47.88775" lon="6.90234">
        <ele>763</ele>
        <time>2026-05-09T18:47:00.418Z</time>
      </trkpt>
      <trkpt lat="47.88775" lon="6.90232">
        <ele>763</ele>
        <time>2026-05-09T18:47:01.417Z</time>
      </trkpt>
      <trkpt lat="47.88776" lon="6.9023">
        <ele>763</ele>
        <time>2026-05-09T18:47:02.418Z</time>
      </trkpt>
      <trkpt lat="47.88776" lon="6.90228">
        <ele>764</ele>
        <time>2026-05-09T18:47:03.417Z</time>
      </trkpt>
      <trkpt lat="47.88777" lon="6.90226">
        <ele>764</ele>
        <time>2026-05-09T18:47:04.418Z</time>
      </trkpt>
      <trkpt lat="47.88777" lon="6.90224">
        <ele>765</ele>
        <time>2026-05-09T18:47:05.417Z</time>
      </trkpt>
      <trkpt lat="47.88777" lon="6.90222">
        <ele>765</ele>
        <time>2026-05-09T18:47:06.418Z</time>
      </trkpt>
      <trkpt lat="47.88777" lon="6.90222">
        <ele>766</ele>
        <time>2026-05-09T18:47:07.418Z</time>
      </trkpt>
      <trkpt lat="47.88777" lon="6.90221">
        <ele>766</ele>
        <time>2026-05-09T18:47:08.417Z</time>
      </trkpt>
      <trkpt lat="47.88778" lon="6.9022">
        <ele>767</ele>
        <time>2026-05-09T18:47:09.418Z</time>
      </trkpt>
      <trkpt lat="47.88778" lon="6.9022">
        <ele>767</ele>
        <time>2026-05-09T18:47:10.417Z</time>
      </trkpt>
      <trkpt lat="47.88779" lon="6.90219">
        <ele>768</ele>
        <time>2026-05-09T18:47:11.417Z</time>
      </trkpt>
      <trkpt lat="47.88779" lon="6.90218">
        <ele>768</ele>
        <time>2026-05-09T18:47:12.418Z</time>
      </trkpt>
      <trkpt lat="47.88779" lon="6.90217">
        <ele>769</ele>
        <time>2026-05-09T18:47:13.418Z</time>
      </trkpt>
      <trkpt lat="47.88779" lon="6.90217">
        <ele>769</ele>
        <time>2026-05-09T18:47:14.417Z</time>
      </trkpt>
      <trkpt lat="47.88779" lon="6.90219">
        <ele>769</ele>
        <time>2026-05-09T18:47:15.418Z</time>
      </trkpt>
      <trkpt lat="47.88779" lon="6.90222">
        <ele>770</ele>
        <time>2026-05-09T18:47:16.417Z</time>
      </trkpt>
      <trkpt lat="47.88778" lon="6.90223">
        <ele>770</ele>
        <time>2026-05-09T18:47:17.417Z</time>
      </trkpt>
      <trkpt lat="47.88776" lon="6.90225">
        <ele>770</ele>
        <time>2026-05-09T18:47:18.418Z</time>
      </trkpt>
      <trkpt lat="47.88775" lon="6.90228">
        <ele>770</ele>
        <time>2026-05-09T18:47:19.417Z</time>
      </trkpt>
      <trkpt lat="47.88775" lon="6.9023">
        <ele>770</ele>
        <time>2026-05-09T18:47:20.418Z</time>
      </trkpt>
      <trkpt lat="47.88775" lon="6.90232">
        <ele>770</ele>
        <time>2026-05-09T18:47:21.417Z</time>
      </trkpt>
      <trkpt lat="47.88774" lon="6.90233">
        <ele>770</ele>
        <time>2026-05-09T18:47:22.418Z</time>
      </trkpt>
      <trkpt lat="47.88774" lon="6.90234">
        <ele>770</ele>
        <time>2026-05-09T18:47:23.417Z</time>
      </trkpt>
      <trkpt lat="47.88775" lon="6.90235">
        <ele>770</ele>
        <time>2026-05-09T18:47:24.418Z</time>
      </trkpt>
      <trkpt lat="47.88776" lon="6.90236">
        <ele>769</ele>
        <time>2026-05-09T18:47:25.418Z</time>
      </trkpt>
      <trkpt lat="47.88777" lon="6.90237">
        <ele>768</ele>
        <time>2026-05-09T18:47:26.417Z</time>
      </trkpt>
      <trkpt lat="47.88777" lon="6.90239">
        <ele>767</ele>
        <time>2026-05-09T18:47:27.417Z</time>
      </trkpt>
      <trkpt lat="47.88776" lon="6.9024">
        <ele>767</ele>
        <time>2026-05-09T18:47:28.417Z</time>
      </trkpt>
      <trkpt lat="47.88776" lon="6.90242">
        <ele>767</ele>
        <time>2026-05-09T18:47:29.418Z</time>
      </trkpt>
      <trkpt lat="47.88774" lon="6.90243">
        <ele>768</ele>
        <time>2026-05-09T18:47:30.417Z</time>
      </trkpt>
      <trkpt lat="47.88774" lon="6.90244">
        <ele>768</ele>
        <time>2026-05-09T18:47:31.417Z</time>
      </trkpt>
      <trkpt lat="47.88774" lon="6.90244">
        <ele>769</ele>
        <time>2026-05-09T18:47:32.418Z</time>
      </trkpt>
      <trkpt lat="47.88773" lon="6.90244">
        <ele>770</ele>
        <time>2026-05-09T18:47:33.418Z</time>
      </trkpt>
      <trkpt lat="47.88773" lon="6.90245">
        <ele>771</ele>
        <time>2026-05-09T18:47:34.417Z</time>
      </trkpt>
      <trkpt lat="47.88773" lon="6.90246">
        <ele>771</ele>
        <time>2026-05-09T18:47:35.418Z</time>
      </trkpt>
      <trkpt lat="47.88773" lon="6.90247">
        <ele>772</ele>
        <time>2026-05-09T18:47:36.418Z</time>
      </trkpt>
      <trkpt lat="47.88772" lon="6.9025">
        <ele>772</ele>
        <time>2026-05-09T18:47:37.417Z</time>
      </trkpt>
      <trkpt lat="47.88772" lon="6.90252">
        <ele>772</ele>
        <time>2026-05-09T18:47:38.417Z</time>
      </trkpt>
      <trkpt lat="47.88771" lon="6.90254">
        <ele>773</ele>
        <time>2026-05-09T18:47:39.417Z</time>
      </trkpt>
      <trkpt lat="47.88771" lon="6.90256">
        <ele>773</ele>
        <time>2026-05-09T18:47:40.417Z</time>
      </trkpt>
      <trkpt lat="47.88771" lon="6.90257">
        <ele>774</ele>
        <time>2026-05-09T18:47:41.418Z</time>
      </trkpt>
      <trkpt lat="47.8877" lon="6.90258">
        <ele>774</ele>
        <time>2026-05-09T18:47:42.417Z</time>
      </trkpt>
      <trkpt lat="47.8877" lon="6.90258">
        <ele>775</ele>
        <time>2026-05-09T18:47:43.417Z</time>
      </trkpt>
      <trkpt lat="47.8877" lon="6.90258">
        <ele>775</ele>
        <time>2026-05-09T18:47:44.417Z</time>
      </trkpt>
      <trkpt lat="47.88771" lon="6.90265">
        <ele>778</ele>
        <time>2026-05-09T18:47:51.835Z</time>
      </trkpt>
      <trkpt lat="47.88771" lon="6.90267">
        <ele>779</ele>
        <time>2026-05-09T18:47:52.835Z</time>
      </trkpt>
      <trkpt lat="47.88771" lon="6.90268">
        <ele>779</ele>
        <time>2026-05-09T18:47:53.835Z</time>
      </trkpt>
      <trkpt lat="47.88771" lon="6.90269">
        <ele>780</ele>
        <time>2026-05-09T18:47:54.836Z</time>
      </trkpt>
      <trkpt lat="47.88772" lon="6.90271">
        <ele>780</ele>
        <time>2026-05-09T18:47:55.835Z</time>
      </trkpt>
      <trkpt lat="47.88771" lon="6.90273">
        <ele>781</ele>
        <time>2026-05-09T18:47:56.835Z</time>
      </trkpt>
      <trkpt lat="47.88771" lon="6.90275">
        <ele>781</ele>
        <time>2026-05-09T18:47:57.836Z</time>
      </trkpt>
      <trkpt lat="47.8877" lon="6.90277">
        <ele>782</ele>
        <time>2026-05-09T18:47:58.835Z</time>
      </trkpt>
      <trkpt lat="47.8877" lon="6.9028">
        <ele>783</ele>
        <time>2026-05-09T18:47:59.836Z</time>
      </trkpt>
      <trkpt lat="47.88768" lon="6.90283">
        <ele>783</ele>
        <time>2026-05-09T18:48:00.835Z</time>
      </trkpt>
      <trkpt lat="47.88766" lon="6.90286">
        <ele>783</ele>
        <time>2026-05-09T18:48:01.836Z</time>
      </trkpt>
      <trkpt lat="47.88766" lon="6.90286">
        <ele>783</ele>
        <time>2026-05-09T18:48:02.835Z</time>
      </trkpt>
      <trkpt lat="47.88766" lon="6.90287">
        <ele>783</ele>
        <time>2026-05-09T18:48:03.836Z</time>
      </trkpt>
      <trkpt lat="47.88766" lon="6.90287">
        <ele>783</ele>
        <time>2026-05-09T18:48:04.835Z</time>
      </trkpt>
      <trkpt lat="47.88765" lon="6.90287">
        <ele>783</ele>
        <time>2026-05-09T18:48:05.835Z</time>
      </trkpt>
      <trkpt lat="47.88765" lon="6.90288">
        <ele>783</ele>
        <time>2026-05-09T18:48:06.836Z</time>
      </trkpt>
      <trkpt lat="47.88765" lon="6.90288">
        <ele>782</ele>
        <time>2026-05-09T18:48:07.836Z</time>
      </trkpt>
      <trkpt lat="47.88764" lon="6.90288">
        <ele>782</ele>
        <time>2026-05-09T18:48:08.836Z</time>
      </trkpt>
      <trkpt lat="47.88762" lon="6.90297">
        <ele>782</ele>
        <time>2026-05-09T18:48:15.065Z</time>
      </trkpt>
      <trkpt lat="47.88761" lon="6.90299">
        <ele>782</ele>
        <time>2026-05-09T18:48:16.065Z</time>
      </trkpt>
      <trkpt lat="47.8876" lon="6.903">
        <ele>782</ele>
        <time>2026-05-09T18:48:17.065Z</time>
      </trkpt>
      <trkpt lat="47.88759" lon="6.90302">
        <ele>781</ele>
        <time>2026-05-09T18:48:18.065Z</time>
      </trkpt>
      <trkpt lat="47.88759" lon="6.90305">
        <ele>781</ele>
        <time>2026-05-09T18:48:19.065Z</time>
      </trkpt>
      <trkpt lat="47.88759" lon="6.90307">
        <ele>781</ele>
        <time>2026-05-09T18:48:20.065Z</time>
      </trkpt>
      <trkpt lat="47.88759" lon="6.90309">
        <ele>781</ele>
        <time>2026-05-09T18:48:21.065Z</time>
      </trkpt>
      <trkpt lat="47.88759" lon="6.90311">
        <ele>781</ele>
        <time>2026-05-09T18:48:22.065Z</time>
      </trkpt>
      <trkpt lat="47.88759" lon="6.90313">
        <ele>781</ele>
        <time>2026-05-09T18:48:23.065Z</time>
      </trkpt>
      <trkpt lat="47.88758" lon="6.90315">
        <ele>781</ele>
        <time>2026-05-09T18:48:24.066Z</time>
      </trkpt>
      <trkpt lat="47.88757" lon="6.90317">
        <ele>781</ele>
        <time>2026-05-09T18:48:25.065Z</time>
      </trkpt>
      <trkpt lat="47.88756" lon="6.90319">
        <ele>781</ele>
        <time>2026-05-09T18:48:26.066Z</time>
      </trkpt>
      <trkpt lat="47.88754" lon="6.90321">
        <ele>781</ele>
        <time>2026-05-09T18:48:27.065Z</time>
      </trkpt>
      <trkpt lat="47.88754" lon="6.90323">
        <ele>780</ele>
        <time>2026-05-09T18:48:28.065Z</time>
      </trkpt>
      <trkpt lat="47.88754" lon="6.90324">
        <ele>780</ele>
        <time>2026-05-09T18:48:29.065Z</time>
      </trkpt>
      <trkpt lat="47.88753" lon="6.90325">
        <ele>780</ele>
        <time>2026-05-09T18:48:30.066Z</time>
      </trkpt>
      <trkpt lat="47.88753" lon="6.90327">
        <ele>779</ele>
        <time>2026-05-09T18:48:31.065Z</time>
      </trkpt>
      <trkpt lat="47.88753" lon="6.90328">
        <ele>779</ele>
        <time>2026-05-09T18:48:32.065Z</time>
      </trkpt>
      <trkpt lat="47.88753" lon="6.9033">
        <ele>779</ele>
        <time>2026-05-09T18:48:33.066Z</time>
      </trkpt>
      <trkpt lat="47.88753" lon="6.90332">
        <ele>779</ele>
        <time>2026-05-09T18:48:34.065Z</time>
      </trkpt>
      <trkpt lat="47.88753" lon="6.90334">
        <ele>779</ele>
        <time>2026-05-09T18:48:35.065Z</time>
      </trkpt>
      <trkpt lat="47.88752" lon="6.90336">
        <ele>779</ele>
        <time>2026-05-09T18:48:36.065Z</time>
      </trkpt>
      <trkpt lat="47.88752" lon="6.90338">
        <ele>778</ele>
        <time>2026-05-09T18:48:37.065Z</time>
      </trkpt>
      <trkpt lat="47.88751" lon="6.9034">
        <ele>778</ele>
        <time>2026-05-09T18:48:38.066Z</time>
      </trkpt>
      <trkpt lat="47.88751" lon="6.90342">
        <ele>778</ele>
        <time>2026-05-09T18:48:39.066Z</time>
      </trkpt>
      <trkpt lat="47.88751" lon="6.90344">
        <ele>778</ele>
        <time>2026-05-09T18:48:40.066Z</time>
      </trkpt>
      <trkpt lat="47.88751" lon="6.90346">
        <ele>778</ele>
        <time>2026-05-09T18:48:41.065Z</time>
      </trkpt>
      <trkpt lat="47.8875" lon="6.90347">
        <ele>778</ele>
        <time>2026-05-09T18:48:42.066Z</time>
      </trkpt>
      <trkpt lat="47.88751" lon="6.90349">
        <ele>778</ele>
        <time>2026-05-09T18:48:43.065Z</time>
      </trkpt>
      <trkpt lat="47.8875" lon="6.90351">
        <ele>778</ele>
        <time>2026-05-09T18:48:44.066Z</time>
      </trkpt>
      <trkpt lat="47.8875" lon="6.90353">
        <ele>778</ele>
        <time>2026-05-09T18:48:45.065Z</time>
      </trkpt>
      <trkpt lat="47.88749" lon="6.90354">
        <ele>778</ele>
        <time>2026-05-09T18:48:46.065Z</time>
      </trkpt>
      <trkpt lat="47.88748" lon="6.90356">
        <ele>778</ele>
        <time>2026-05-09T18:48:47.066Z</time>
      </trkpt>
      <trkpt lat="47.88748" lon="6.90358">
        <ele>777</ele>
        <time>2026-05-09T18:48:48.065Z</time>
      </trkpt>
      <trkpt lat="47.88749" lon="6.90361">
        <ele>777</ele>
        <time>2026-05-09T18:48:49.065Z</time>
      </trkpt>
      <trkpt lat="47.88748" lon="6.90363">
        <ele>776</ele>
        <time>2026-05-09T18:48:50.065Z</time>
      </trkpt>
      <trkpt lat="47.88748" lon="6.90366">
        <ele>777</ele>
        <time>2026-05-09T18:48:51.065Z</time>
      </trkpt>
      <trkpt lat="47.88747" lon="6.90369">
        <ele>776</ele>
        <time>2026-05-09T18:48:52.065Z</time>
      </trkpt>
      <trkpt lat="47.88745" lon="6.90372">
        <ele>776</ele>
        <time>2026-05-09T18:48:53.065Z</time>
      </trkpt>
      <trkpt lat="47.88745" lon="6.90374">
        <ele>777</ele>
        <time>2026-05-09T18:48:54.065Z</time>
      </trkpt>
      <trkpt lat="47.88746" lon="6.90376">
        <ele>777</ele>
        <time>2026-05-09T18:48:55.066Z</time>
      </trkpt>
      <trkpt lat="47.88747" lon="6.90378">
        <ele>777</ele>
        <time>2026-05-09T18:48:56.065Z</time>
      </trkpt>
      <trkpt lat="47.88747" lon="6.9038">
        <ele>777</ele>
        <time>2026-05-09T18:48:57.066Z</time>
      </trkpt>
      <trkpt lat="47.88747" lon="6.90383">
        <ele>777</ele>
        <time>2026-05-09T18:48:58.066Z</time>
      </trkpt>
      <trkpt lat="47.88748" lon="6.90385">
        <ele>778</ele>
        <time>2026-05-09T18:48:59.066Z</time>
      </trkpt>
      <trkpt lat="47.88747" lon="6.90386">
        <ele>778</ele>
        <time>2026-05-09T18:49:00.065Z</time>
      </trkpt>
      <trkpt lat="47.88747" lon="6.90388">
        <ele>779</ele>
        <time>2026-05-09T18:49:01.065Z</time>
      </trkpt>
      <trkpt lat="47.88745" lon="6.90391">
        <ele>779</ele>
        <time>2026-05-09T18:49:02.065Z</time>
      </trkpt>
      <trkpt lat="47.88744" lon="6.90393">
        <ele>780</ele>
        <time>2026-05-09T18:49:03.065Z</time>
      </trkpt>
      <trkpt lat="47.88743" lon="6.90396">
        <ele>780</ele>
        <time>2026-05-09T18:49:04.065Z</time>
      </trkpt>
      <trkpt lat="47.88742" lon="6.90398">
        <ele>780</ele>
        <time>2026-05-09T18:49:05.066Z</time>
      </trkpt>
      <trkpt lat="47.88741" lon="6.904">
        <ele>780</ele>
        <time>2026-05-09T18:49:06.066Z</time>
      </trkpt>
      <trkpt lat="47.8874" lon="6.90402">
        <ele>780</ele>
        <time>2026-05-09T18:49:07.066Z</time>
      </trkpt>
      <trkpt lat="47.8874" lon="6.90404">
        <ele>780</ele>
        <time>2026-05-09T18:49:08.065Z</time>
      </trkpt>
      <trkpt lat="47.88739" lon="6.90406">
        <ele>780</ele>
        <time>2026-05-09T18:49:09.065Z</time>
      </trkpt>
      <trkpt lat="47.88739" lon="6.90408">
        <ele>779</ele>
        <time>2026-05-09T18:49:10.066Z</time>
      </trkpt>
      <trkpt lat="47.88739" lon="6.90411">
        <ele>779</ele>
        <time>2026-05-09T18:49:11.065Z</time>
      </trkpt>
      <trkpt lat="47.88738" lon="6.90413">
        <ele>779</ele>
        <time>2026-05-09T18:49:12.065Z</time>
      </trkpt>
      <trkpt lat="47.88738" lon="6.90415">
        <ele>779</ele>
        <time>2026-05-09T18:49:13.065Z</time>
      </trkpt>
      <trkpt lat="47.88738" lon="6.90418">
        <ele>778</ele>
        <time>2026-05-09T18:49:14.066Z</time>
      </trkpt>
      <trkpt lat="47.8874" lon="6.9042">
        <ele>778</ele>
        <time>2026-05-09T18:49:15.065Z</time>
      </trkpt>
      <trkpt lat="47.8874" lon="6.90422">
        <ele>778</ele>
        <time>2026-05-09T18:49:16.066Z</time>
      </trkpt>
      <trkpt lat="47.8874" lon="6.90424">
        <ele>778</ele>
        <time>2026-05-09T18:49:17.065Z</time>
      </trkpt>
      <trkpt lat="47.8874" lon="6.90426">
        <ele>777</ele>
        <time>2026-05-09T18:49:18.066Z</time>
      </trkpt>
      <trkpt lat="47.8874" lon="6.90427">
        <ele>777</ele>
        <time>2026-05-09T18:49:19.065Z</time>
      </trkpt>
      <trkpt lat="47.8874" lon="6.90429">
        <ele>776</ele>
        <time>2026-05-09T18:49:20.065Z</time>
      </trkpt>
      <trkpt lat="47.88741" lon="6.90431">
        <ele>775</ele>
        <time>2026-05-09T18:49:21.065Z</time>
      </trkpt>
      <trkpt lat="47.88741" lon="6.90433">
        <ele>774</ele>
        <time>2026-05-09T18:49:22.066Z</time>
      </trkpt>
      <trkpt lat="47.88741" lon="6.90435">
        <ele>774</ele>
        <time>2026-05-09T18:49:23.065Z</time>
      </trkpt>
      <trkpt lat="47.88741" lon="6.90437">
        <ele>773</ele>
        <time>2026-05-09T18:49:24.065Z</time>
      </trkpt>
      <trkpt lat="47.8874" lon="6.90438">
        <ele>772</ele>
        <time>2026-05-09T18:49:25.066Z</time>
      </trkpt>
      <trkpt lat="47.88739" lon="6.90439">
        <ele>772</ele>
        <time>2026-05-09T18:49:26.065Z</time>
      </trkpt>
      <trkpt lat="47.88738" lon="6.9044">
        <ele>772</ele>
        <time>2026-05-09T18:49:27.066Z</time>
      </trkpt>
      <trkpt lat="47.88737" lon="6.90442">
        <ele>771</ele>
        <time>2026-05-09T18:49:28.066Z</time>
      </trkpt>
      <trkpt lat="47.88736" lon="6.90443">
        <ele>771</ele>
        <time>2026-05-09T18:49:29.065Z</time>
      </trkpt>
      <trkpt lat="47.88736" lon="6.90445">
        <ele>770</ele>
        <time>2026-05-09T18:49:30.065Z</time>
      </trkpt>
      <trkpt lat="47.88736" lon="6.90447">
        <ele>770</ele>
        <time>2026-05-09T18:49:31.066Z</time>
      </trkpt>
      <trkpt lat="47.88737" lon="6.9045">
        <ele>770</ele>
        <time>2026-05-09T18:49:32.066Z</time>
      </trkpt>
      <trkpt lat="47.88738" lon="6.90453">
        <ele>770</ele>
        <time>2026-05-09T18:49:33.065Z</time>
      </trkpt>
      <trkpt lat="47.88739" lon="6.90456">
        <ele>770</ele>
        <time>2026-05-09T18:49:34.066Z</time>
      </trkpt>
      <trkpt lat="47.8874" lon="6.9046">
        <ele>770</ele>
        <time>2026-05-09T18:49:35.066Z</time>
      </trkpt>
      <trkpt lat="47.88741" lon="6.90463">
        <ele>770</ele>
        <time>2026-05-09T18:49:36.066Z</time>
      </trkpt>
      <trkpt lat="47.88741" lon="6.90467">
        <ele>770</ele>
        <time>2026-05-09T18:49:37.065Z</time>
      </trkpt>
      <trkpt lat="47.88742" lon="6.90469">
        <ele>771</ele>
        <time>2026-05-09T18:49:38.065Z</time>
      </trkpt>
      <trkpt lat="47.88743" lon="6.90472">
        <ele>771</ele>
        <time>2026-05-09T18:49:39.066Z</time>
      </trkpt>
      <trkpt lat="47.88744" lon="6.90474">
        <ele>771</ele>
        <time>2026-05-09T18:49:40.065Z</time>
      </trkpt>
      <trkpt lat="47.88743" lon="6.90476">
        <ele>772</ele>
        <time>2026-05-09T18:49:41.065Z</time>
      </trkpt>
      <trkpt lat="47.88743" lon="6.90478">
        <ele>772</ele>
        <time>2026-05-09T18:49:42.066Z</time>
      </trkpt>
      <trkpt lat="47.88742" lon="6.90479">
        <ele>773</ele>
        <time>2026-05-09T18:49:43.066Z</time>
      </trkpt>
      <trkpt lat="47.88741" lon="6.90482">
        <ele>773</ele>
        <time>2026-05-09T18:49:44.066Z</time>
      </trkpt>
      <trkpt lat="47.88741" lon="6.90485">
        <ele>773</ele>
        <time>2026-05-09T18:49:45.065Z</time>
      </trkpt>
      <trkpt lat="47.8874" lon="6.90488">
        <ele>772</ele>
        <time>2026-05-09T18:49:46.065Z</time>
      </trkpt>
      <trkpt lat="47.88739" lon="6.90492">
        <ele>772</ele>
        <time>2026-05-09T18:49:47.065Z</time>
      </trkpt>
      <trkpt lat="47.88737" lon="6.90496">
        <ele>772</ele>
        <time>2026-05-09T18:49:48.066Z</time>
      </trkpt>
      <trkpt lat="47.88736" lon="6.90499">
        <ele>772</ele>
        <time>2026-05-09T18:49:49.065Z</time>
      </trkpt>
      <trkpt lat="47.88731" lon="6.90504">
        <ele>772</ele>
        <time>2026-05-09T18:49:50.065Z</time>
      </trkpt>
      <trkpt lat="47.88733" lon="6.90503">
        <ele>771</ele>
        <time>2026-05-09T18:49:51.065Z</time>
      </trkpt>
      <trkpt lat="47.88735" lon="6.90505">
        <ele>771</ele>
        <time>2026-05-09T18:49:52.065Z</time>
      </trkpt>
      <trkpt lat="47.88735" lon="6.90509">
        <ele>771</ele>
        <time>2026-05-09T18:49:53.066Z</time>
      </trkpt>
      <trkpt lat="47.88735" lon="6.90512">
        <ele>771</ele>
        <time>2026-05-09T18:49:54.065Z</time>
      </trkpt>
      <trkpt lat="47.88734" lon="6.90515">
        <ele>771</ele>
        <time>2026-05-09T18:49:55.065Z</time>
      </trkpt>
      <trkpt lat="47.88734" lon="6.90518">
        <ele>772</ele>
        <time>2026-05-09T18:49:56.066Z</time>
      </trkpt>
      <trkpt lat="47.88733" lon="6.90519">
        <ele>772</ele>
        <time>2026-05-09T18:49:57.065Z</time>
      </trkpt>
      <trkpt lat="47.88732" lon="6.90519">
        <ele>772</ele>
        <time>2026-05-09T18:49:58.066Z</time>
      </trkpt>
      <trkpt lat="47.88731" lon="6.90519">
        <ele>772</ele>
        <time>2026-05-09T18:49:59.065Z</time>
      </trkpt>
      <trkpt lat="47.88731" lon="6.90519">
        <ele>772</ele>
        <time>2026-05-09T18:50:00.066Z</time>
      </trkpt>
      <trkpt lat="47.88731" lon="6.9052">
        <ele>773</ele>
        <time>2026-05-09T18:50:01.065Z</time>
      </trkpt>
      <trkpt lat="47.88731" lon="6.90522">
        <ele>773</ele>
        <time>2026-05-09T18:50:02.065Z</time>
      </trkpt>
      <trkpt lat="47.88731" lon="6.90526">
        <ele>774</ele>
        <time>2026-05-09T18:50:03.065Z</time>
      </trkpt>
      <trkpt lat="47.8873" lon="6.90528">
        <ele>774</ele>
        <time>2026-05-09T18:50:04.065Z</time>
      </trkpt>
      <trkpt lat="47.8873" lon="6.9053">
        <ele>774</ele>
        <time>2026-05-09T18:50:05.066Z</time>
      </trkpt>
      <trkpt lat="47.8873" lon="6.90532">
        <ele>774</ele>
        <time>2026-05-09T18:50:06.065Z</time>
      </trkpt>
      <trkpt lat="47.8873" lon="6.90533">
        <ele>774</ele>
        <time>2026-05-09T18:50:07.066Z</time>
      </trkpt>
      <trkpt lat="47.88729" lon="6.90535">
        <ele>774</ele>
        <time>2026-05-09T18:50:08.066Z</time>
      </trkpt>
      <trkpt lat="47.88729" lon="6.90536">
        <ele>774</ele>
        <time>2026-05-09T18:50:09.065Z</time>
      </trkpt>
      <trkpt lat="47.88728" lon="6.90538">
        <ele>775</ele>
        <time>2026-05-09T18:50:10.065Z</time>
      </trkpt>
      <trkpt lat="47.88729" lon="6.9054">
        <ele>775</ele>
        <time>2026-05-09T18:50:11.065Z</time>
      </trkpt>
      <trkpt lat="47.88729" lon="6.90542">
        <ele>774</ele>
        <time>2026-05-09T18:50:12.065Z</time>
      </trkpt>
      <trkpt lat="47.88729" lon="6.90545">
        <ele>774</ele>
        <time>2026-05-09T18:50:13.066Z</time>
      </trkpt>
      <trkpt lat="47.8873" lon="6.90547">
        <ele>774</ele>
        <time>2026-05-09T18:50:14.065Z</time>
      </trkpt>
      <trkpt lat="47.88731" lon="6.90551">
        <ele>774</ele>
        <time>2026-05-09T18:50:15.066Z</time>
      </trkpt>
      <trkpt lat="47.88732" lon="6.90554">
        <ele>774</ele>
        <time>2026-05-09T18:50:16.065Z</time>
      </trkpt>
      <trkpt lat="47.88733" lon="6.90556">
        <ele>774</ele>
        <time>2026-05-09T18:50:17.065Z</time>
      </trkpt>
      <trkpt lat="47.88734" lon="6.90557">
        <ele>774</ele>
        <time>2026-05-09T18:50:18.065Z</time>
      </trkpt>
      <trkpt lat="47.88734" lon="6.90558">
        <ele>774</ele>
        <time>2026-05-09T18:50:19.066Z</time>
      </trkpt>
      <trkpt lat="47.88734" lon="6.9056">
        <ele>775</ele>
        <time>2026-05-09T18:50:20.065Z</time>
      </trkpt>
      <trkpt lat="47.88734" lon="6.90562">
        <ele>775</ele>
        <time>2026-05-09T18:50:21.065Z</time>
      </trkpt>
      <trkpt lat="47.88733" lon="6.90564">
        <ele>776</ele>
        <time>2026-05-09T18:50:22.066Z</time>
      </trkpt>
      <trkpt lat="47.88733" lon="6.90565">
        <ele>776</ele>
        <time>2026-05-09T18:50:23.065Z</time>
      </trkpt>
      <trkpt lat="47.88733" lon="6.90566">
        <ele>777</ele>
        <time>2026-05-09T18:50:24.066Z</time>
      </trkpt>
      <trkpt lat="47.88734" lon="6.90568">
        <ele>777</ele>
        <time>2026-05-09T18:50:25.065Z</time>
      </trkpt>
      <trkpt lat="47.88735" lon="6.90569">
        <ele>777</ele>
        <time>2026-05-09T18:50:26.066Z</time>
      </trkpt>
      <trkpt lat="47.88735" lon="6.90571">
        <ele>777</ele>
        <time>2026-05-09T18:50:27.065Z</time>
      </trkpt>
      <trkpt lat="47.88736" lon="6.90572">
        <ele>777</ele>
        <time>2026-05-09T18:50:28.066Z</time>
      </trkpt>
      <trkpt lat="47.88736" lon="6.90573">
        <ele>777</ele>
        <time>2026-05-09T18:50:29.065Z</time>
      </trkpt>
      <trkpt lat="47.88735" lon="6.90576">
        <ele>777</ele>
        <time>2026-05-09T18:50:30.065Z</time>
      </trkpt>
      <trkpt lat="47.88731" lon="6.90582">
        <ele>776</ele>
        <time>2026-05-09T18:50:31.066Z</time>
      </trkpt>
      <trkpt lat="47.88728" lon="6.90588">
        <ele>776</ele>
        <time>2026-05-09T18:50:32.065Z</time>
      </trkpt>
      <trkpt lat="47.88727" lon="6.90592">
        <ele>775</ele>
        <time>2026-05-09T18:50:33.066Z</time>
      </trkpt>
      <trkpt lat="47.88728" lon="6.90594">
        <ele>775</ele>
        <time>2026-05-09T18:50:34.065Z</time>
      </trkpt>
      <trkpt lat="47.88729" lon="6.90595">
        <ele>775</ele>
        <time>2026-05-09T18:50:35.066Z</time>
      </trkpt>
      <trkpt lat="47.88729" lon="6.90596">
        <ele>775</ele>
        <time>2026-05-09T18:50:36.065Z</time>
      </trkpt>
      <trkpt lat="47.88729" lon="6.90597">
        <ele>775</ele>
        <time>2026-05-09T18:50:37.065Z</time>
      </trkpt>
      <trkpt lat="47.88727" lon="6.90599">
        <ele>776</ele>
        <time>2026-05-09T18:50:38.065Z</time>
      </trkpt>
      <trkpt lat="47.88725" lon="6.90601">
        <ele>776</ele>
        <time>2026-05-09T18:50:39.065Z</time>
      </trkpt>
      <trkpt lat="47.88724" lon="6.90605">
        <ele>776</ele>
        <time>2026-05-09T18:50:40.065Z</time>
      </trkpt>
      <trkpt lat="47.88723" lon="6.90607">
        <ele>776</ele>
        <time>2026-05-09T18:50:41.066Z</time>
      </trkpt>
      <trkpt lat="47.88723" lon="6.90608">
        <ele>776</ele>
        <time>2026-05-09T18:50:42.065Z</time>
      </trkpt>
      <trkpt lat="47.88723" lon="6.9061">
        <ele>776</ele>
        <time>2026-05-09T18:50:43.065Z</time>
      </trkpt>
      <trkpt lat="47.88722" lon="6.90611">
        <ele>776</ele>
        <time>2026-05-09T18:50:44.065Z</time>
      </trkpt>
      <trkpt lat="47.88722" lon="6.90612">
        <ele>776</ele>
        <time>2026-05-09T18:50:45.065Z</time>
      </trkpt>
      <trkpt lat="47.88722" lon="6.90613">
        <ele>776</ele>
        <time>2026-05-09T18:50:46.065Z</time>
      </trkpt>
      <trkpt lat="47.88722" lon="6.90615">
        <ele>776</ele>
        <time>2026-05-09T18:50:47.065Z</time>
      </trkpt>
      <trkpt lat="47.88722" lon="6.90617">
        <ele>775</ele>
        <time>2026-05-09T18:50:48.065Z</time>
      </trkpt>
      <trkpt lat="47.88721" lon="6.90619">
        <ele>775</ele>
        <time>2026-05-09T18:50:49.065Z</time>
      </trkpt>
      <trkpt lat="47.8872" lon="6.90622">
        <ele>775</ele>
        <time>2026-05-09T18:50:50.065Z</time>
      </trkpt>
      <trkpt lat="47.88719" lon="6.90624">
        <ele>774</ele>
        <time>2026-05-09T18:50:51.065Z</time>
      </trkpt>
      <trkpt lat="47.88718" lon="6.90628">
        <ele>774</ele>
        <time>2026-05-09T18:50:52.065Z</time>
      </trkpt>
      <trkpt lat="47.88717" lon="6.90632">
        <ele>774</ele>
        <time>2026-05-09T18:50:53.065Z</time>
      </trkpt>
      <trkpt lat="47.88718" lon="6.90634">
        <ele>773</ele>
        <time>2026-05-09T18:50:54.065Z</time>
      </trkpt>
      <trkpt lat="47.88719" lon="6.90636">
        <ele>773</ele>
        <time>2026-05-09T18:50:55.066Z</time>
      </trkpt>
      <trkpt lat="47.8872" lon="6.90638">
        <ele>772</ele>
        <time>2026-05-09T18:50:56.066Z</time>
      </trkpt>
      <trkpt lat="47.88723" lon="6.90639">
        <ele>772</ele>
        <time>2026-05-09T18:50:57.065Z</time>
      </trkpt>
      <trkpt lat="47.88723" lon="6.90639">
        <ele>772</ele>
        <time>2026-05-09T18:50:58.065Z</time>
      </trkpt>
      <trkpt lat="47.88724" lon="6.90641">
        <ele>771</ele>
        <time>2026-05-09T18:50:59.066Z</time>
      </trkpt>
      <trkpt lat="47.88722" lon="6.90643">
        <ele>771</ele>
        <time>2026-05-09T18:51:00.065Z</time>
      </trkpt>
      <trkpt lat="47.88719" lon="6.90646">
        <ele>771</ele>
        <time>2026-05-09T18:51:01.065Z</time>
      </trkpt>
      <trkpt lat="47.88718" lon="6.90648">
        <ele>770</ele>
        <time>2026-05-09T18:51:02.066Z</time>
      </trkpt>
      <trkpt lat="47.88719" lon="6.90649">
        <ele>770</ele>
        <time>2026-05-09T18:51:03.065Z</time>
      </trkpt>
      <trkpt lat="47.88719" lon="6.90649">
        <ele>769</ele>
        <time>2026-05-09T18:51:04.066Z</time>
      </trkpt>
      <trkpt lat="47.88719" lon="6.9065">
        <ele>769</ele>
        <time>2026-05-09T18:51:05.065Z</time>
      </trkpt>
      <trkpt lat="47.88718" lon="6.90651">
        <ele>769</ele>
        <time>2026-05-09T18:51:06.066Z</time>
      </trkpt>
      <trkpt lat="47.88718" lon="6.90652">
        <ele>769</ele>
        <time>2026-05-09T18:51:07.065Z</time>
      </trkpt>
      <trkpt lat="47.88717" lon="6.90655">
        <ele>769</ele>
        <time>2026-05-09T18:51:08.065Z</time>
      </trkpt>
      <trkpt lat="47.88716" lon="6.90657">
        <ele>769</ele>
        <time>2026-05-09T18:51:09.065Z</time>
      </trkpt>
      <trkpt lat="47.88715" lon="6.90659">
        <ele>770</ele>
        <time>2026-05-09T18:51:10.065Z</time>
      </trkpt>
      <trkpt lat="47.88714" lon="6.90661">
        <ele>770</ele>
        <time>2026-05-09T18:51:11.065Z</time>
      </trkpt>
      <trkpt lat="47.88714" lon="6.90662">
        <ele>770</ele>
        <time>2026-05-09T18:51:12.065Z</time>
      </trkpt>
      <trkpt lat="47.88713" lon="6.90664">
        <ele>770</ele>
        <time>2026-05-09T18:51:13.066Z</time>
      </trkpt>
      <trkpt lat="47.88713" lon="6.90665">
        <ele>770</ele>
        <time>2026-05-09T18:51:14.066Z</time>
      </trkpt>
      <trkpt lat="47.88714" lon="6.90666">
        <ele>770</ele>
        <time>2026-05-09T18:51:15.065Z</time>
      </trkpt>
      <trkpt lat="47.88715" lon="6.90667">
        <ele>770</ele>
        <time>2026-05-09T18:51:16.065Z</time>
      </trkpt>
      <trkpt lat="47.88715" lon="6.90669">
        <ele>770</ele>
        <time>2026-05-09T18:51:17.066Z</time>
      </trkpt>
      <trkpt lat="47.88715" lon="6.90671">
        <ele>770</ele>
        <time>2026-05-09T18:51:18.065Z</time>
      </trkpt>
      <trkpt lat="47.88715" lon="6.90672">
        <ele>770</ele>
        <time>2026-05-09T18:51:19.066Z</time>
      </trkpt>
      <trkpt lat="47.88715" lon="6.90673">
        <ele>771</ele>
        <time>2026-05-09T18:51:20.065Z</time>
      </trkpt>
      <trkpt lat="47.88714" lon="6.90674">
        <ele>772</ele>
        <time>2026-05-09T18:51:21.066Z</time>
      </trkpt>
      <trkpt lat="47.88713" lon="6.90676">
        <ele>772</ele>
        <time>2026-05-09T18:51:22.066Z</time>
      </trkpt>
      <trkpt lat="47.88713" lon="6.90679">
        <ele>773</ele>
        <time>2026-05-09T18:51:23.065Z</time>
      </trkpt>
      <trkpt lat="47.88712" lon="6.90681">
        <ele>774</ele>
        <time>2026-05-09T18:51:24.066Z</time>
      </trkpt>
      <trkpt lat="47.88711" lon="6.90683">
        <ele>774</ele>
        <time>2026-05-09T18:51:25.065Z</time>
      </trkpt>
      <trkpt lat="47.88711" lon="6.90685">
        <ele>774</ele>
        <time>2026-05-09T18:51:26.065Z</time>
      </trkpt>
      <trkpt lat="47.8871" lon="6.90687">
        <ele>774</ele>
        <time>2026-05-09T18:51:27.066Z</time>
      </trkpt>
      <trkpt lat="47.8871" lon="6.90689">
        <ele>774</ele>
        <time>2026-05-09T18:51:28.065Z</time>
      </trkpt>
      <trkpt lat="47.8871" lon="6.90691">
        <ele>774</ele>
        <time>2026-05-09T18:51:29.065Z</time>
      </trkpt>
      <trkpt lat="47.88711" lon="6.90694">
        <ele>774</ele>
        <time>2026-05-09T18:51:30.065Z</time>
      </trkpt>
      <trkpt lat="47.88709" lon="6.90699">
        <ele>774</ele>
        <time>2026-05-09T18:51:31.066Z</time>
      </trkpt>
      <trkpt lat="47.88709" lon="6.90704">
        <ele>774</ele>
        <time>2026-05-09T18:51:32.065Z</time>
      </trkpt>
      <trkpt lat="47.88708" lon="6.90708">
        <ele>774</ele>
        <time>2026-05-09T18:51:33.065Z</time>
      </trkpt>
      <trkpt lat="47.88707" lon="6.90713">
        <ele>773</ele>
        <time>2026-05-09T18:51:34.065Z</time>
      </trkpt>
      <trkpt lat="47.88706" lon="6.90716">
        <ele>773</ele>
        <time>2026-05-09T18:51:35.065Z</time>
      </trkpt>
      <trkpt lat="47.88706" lon="6.90719">
        <ele>773</ele>
        <time>2026-05-09T18:51:36.065Z</time>
      </trkpt>
      <trkpt lat="47.88708" lon="6.9072">
        <ele>773</ele>
        <time>2026-05-09T18:51:37.066Z</time>
      </trkpt>
      <trkpt lat="47.88709" lon="6.90721">
        <ele>772</ele>
        <time>2026-05-09T18:51:38.065Z</time>
      </trkpt>
      <trkpt lat="47.8871" lon="6.90722">
        <ele>772</ele>
        <time>2026-05-09T18:51:39.065Z</time>
      </trkpt>
      <trkpt lat="47.88711" lon="6.90723">
        <ele>772</ele>
        <time>2026-05-09T18:51:40.066Z</time>
      </trkpt>
      <trkpt lat="47.88711" lon="6.90725">
        <ele>772</ele>
        <time>2026-05-09T18:51:41.066Z</time>
      </trkpt>
      <trkpt lat="47.8871" lon="6.90723">
        <ele>772</ele>
        <time>2026-05-09T18:51:42.066Z</time>
      </trkpt>
      <trkpt lat="47.8871" lon="6.90724">
        <ele>772</ele>
        <time>2026-05-09T18:51:43.065Z</time>
      </trkpt>
      <trkpt lat="47.88709" lon="6.90725">
        <ele>772</ele>
        <time>2026-05-09T18:51:44.065Z</time>
      </trkpt>
      <trkpt lat="47.88708" lon="6.90727">
        <ele>772</ele>
        <time>2026-05-09T18:51:45.066Z</time>
      </trkpt>
      <trkpt lat="47.88707" lon="6.90728">
        <ele>772</ele>
        <time>2026-05-09T18:51:46.066Z</time>
      </trkpt>
      <trkpt lat="47.88708" lon="6.90728">
        <ele>771</ele>
        <time>2026-05-09T18:51:47.066Z</time>
      </trkpt>
      <trkpt lat="47.88708" lon="6.90728">
        <ele>771</ele>
        <time>2026-05-09T18:51:48.066Z</time>
      </trkpt>
      <trkpt lat="47.88708" lon="6.90728">
        <ele>771</ele>
        <time>2026-05-09T18:51:49.066Z</time>
      </trkpt>
      <trkpt lat="47.88708" lon="6.90729">
        <ele>770</ele>
        <time>2026-05-09T18:51:50.065Z</time>
      </trkpt>
      <trkpt lat="47.88708" lon="6.90731">
        <ele>770</ele>
        <time>2026-05-09T18:51:51.065Z</time>
      </trkpt>
      <trkpt lat="47.88708" lon="6.90733">
        <ele>770</ele>
        <time>2026-05-09T18:51:52.065Z</time>
      </trkpt>
      <trkpt lat="47.88707" lon="6.90735">
        <ele>769</ele>
        <time>2026-05-09T18:51:53.065Z</time>
      </trkpt>
      <trkpt lat="47.88707" lon="6.90737">
        <ele>769</ele>
        <time>2026-05-09T18:51:54.065Z</time>
      </trkpt>
      <trkpt lat="47.88707" lon="6.90738">
        <ele>769</ele>
        <time>2026-05-09T18:51:55.066Z</time>
      </trkpt>
      <trkpt lat="47.88706" lon="6.90739">
        <ele>769</ele>
        <time>2026-05-09T18:51:56.066Z</time>
      </trkpt>
      <trkpt lat="47.88706" lon="6.9074">
        <ele>769</ele>
        <time>2026-05-09T18:51:57.065Z</time>
      </trkpt>
      <trkpt lat="47.88706" lon="6.90742">
        <ele>768</ele>
        <time>2026-05-09T18:51:58.065Z</time>
      </trkpt>
      <trkpt lat="47.88706" lon="6.90743">
        <ele>768</ele>
        <time>2026-05-09T18:51:59.066Z</time>
      </trkpt>
      <trkpt lat="47.88705" lon="6.90745">
        <ele>769</ele>
        <time>2026-05-09T18:52:00.065Z</time>
      </trkpt>
      <trkpt lat="47.88705" lon="6.90745">
        <ele>769</ele>
        <time>2026-05-09T18:52:01.065Z</time>
      </trkpt>
      <trkpt lat="47.88704" lon="6.90748">
        <ele>769</ele>
        <time>2026-05-09T18:52:02.065Z</time>
      </trkpt>
      <trkpt lat="47.88703" lon="6.9075">
        <ele>769</ele>
        <time>2026-05-09T18:52:03.065Z</time>
      </trkpt>
      <trkpt lat="47.88702" lon="6.90752">
        <ele>770</ele>
        <time>2026-05-09T18:52:04.065Z</time>
      </trkpt>
      <trkpt lat="47.88702" lon="6.90755">
        <ele>770</ele>
        <time>2026-05-09T18:52:05.065Z</time>
      </trkpt>
      <trkpt lat="47.88701" lon="6.90758">
        <ele>770</ele>
        <time>2026-05-09T18:52:06.065Z</time>
      </trkpt>
      <trkpt lat="47.887" lon="6.90761">
        <ele>770</ele>
        <time>2026-05-09T18:52:07.066Z</time>
      </trkpt>
      <trkpt lat="47.88699" lon="6.90763">
        <ele>770</ele>
        <time>2026-05-09T18:52:08.066Z</time>
      </trkpt>
      <trkpt lat="47.88698" lon="6.90764">
        <ele>770</ele>
        <time>2026-05-09T18:52:09.065Z</time>
      </trkpt>
      <trkpt lat="47.88697" lon="6.90766">
        <ele>770</ele>
        <time>2026-05-09T18:52:10.066Z</time>
      </trkpt>
      <trkpt lat="47.88697" lon="6.90768">
        <ele>771</ele>
        <time>2026-05-09T18:52:11.066Z</time>
      </trkpt>
      <trkpt lat="47.88697" lon="6.9077">
        <ele>771</ele>
        <time>2026-05-09T18:52:12.065Z</time>
      </trkpt>
      <trkpt lat="47.88697" lon="6.90772">
        <ele>771</ele>
        <time>2026-05-09T18:52:13.066Z</time>
      </trkpt>
      <trkpt lat="47.88697" lon="6.90774">
        <ele>771</ele>
        <time>2026-05-09T18:52:14.066Z</time>
      </trkpt>
      <trkpt lat="47.88697" lon="6.90775">
        <ele>772</ele>
        <time>2026-05-09T18:52:15.066Z</time>
      </trkpt>
      <trkpt lat="47.88697" lon="6.90776">
        <ele>772</ele>
        <time>2026-05-09T18:52:16.065Z</time>
      </trkpt>
      <trkpt lat="47.88697" lon="6.90776">
        <ele>772</ele>
        <time>2026-05-09T18:52:17.066Z</time>
      </trkpt>
      <trkpt lat="47.88697" lon="6.90778">
        <ele>772</ele>
        <time>2026-05-09T18:52:18.065Z</time>
      </trkpt>
      <trkpt lat="47.88697" lon="6.90779">
        <ele>773</ele>
        <time>2026-05-09T18:52:19.065Z</time>
      </trkpt>
      <trkpt lat="47.88697" lon="6.9078">
        <ele>773</ele>
        <time>2026-05-09T18:52:20.066Z</time>
      </trkpt>
      <trkpt lat="47.88697" lon="6.90781">
        <ele>773</ele>
        <time>2026-05-09T18:52:21.065Z</time>
      </trkpt>
      <trkpt lat="47.88696" lon="6.90782">
        <ele>773</ele>
        <time>2026-05-09T18:52:22.065Z</time>
      </trkpt>
      <trkpt lat="47.88696" lon="6.90784">
        <ele>774</ele>
        <time>2026-05-09T18:52:23.065Z</time>
      </trkpt>
      <trkpt lat="47.88695" lon="6.90785">
        <ele>774</ele>
        <time>2026-05-09T18:52:24.065Z</time>
      </trkpt>
      <trkpt lat="47.88695" lon="6.90787">
        <ele>774</ele>
        <time>2026-05-09T18:52:25.065Z</time>
      </trkpt>
      <trkpt lat="47.88694" lon="6.90789">
        <ele>775</ele>
        <time>2026-05-09T18:52:26.065Z</time>
      </trkpt>
      <trkpt lat="47.88694" lon="6.90789">
        <ele>775</ele>
        <time>2026-05-09T18:52:27.066Z</time>
      </trkpt>
      <trkpt lat="47.88694" lon="6.90791">
        <ele>775</ele>
        <time>2026-05-09T18:52:28.066Z</time>
      </trkpt>
      <trkpt lat="47.88693" lon="6.90793">
        <ele>776</ele>
        <time>2026-05-09T18:52:29.065Z</time>
      </trkpt>
      <trkpt lat="47.88692" lon="6.90795">
        <ele>776</ele>
        <time>2026-05-09T18:52:30.065Z</time>
      </trkpt>
      <trkpt lat="47.88691" lon="6.90797">
        <ele>777</ele>
        <time>2026-05-09T18:52:31.065Z</time>
      </trkpt>
      <trkpt lat="47.88691" lon="6.90799">
        <ele>777</ele>
        <time>2026-05-09T18:52:32.066Z</time>
      </trkpt>
      <trkpt lat="47.88691" lon="6.90802">
        <ele>777</ele>
        <time>2026-05-09T18:52:33.065Z</time>
      </trkpt>
      <trkpt lat="47.88691" lon="6.90803">
        <ele>778</ele>
        <time>2026-05-09T18:52:34.066Z</time>
      </trkpt>
      <trkpt lat="47.88692" lon="6.90805">
        <ele>778</ele>
        <time>2026-05-09T18:52:35.065Z</time>
      </trkpt>
      <trkpt lat="47.88692" lon="6.90806">
        <ele>778</ele>
        <time>2026-05-09T18:52:36.066Z</time>
      </trkpt>
      <trkpt lat="47.88691" lon="6.90808">
        <ele>778</ele>
        <time>2026-05-09T18:52:37.065Z</time>
      </trkpt>
      <trkpt lat="47.8869" lon="6.90811">
        <ele>779</ele>
        <time>2026-05-09T18:52:38.065Z</time>
      </trkpt>
      <trkpt lat="47.88689" lon="6.90813">
        <ele>779</ele>
        <time>2026-05-09T18:52:39.065Z</time>
      </trkpt>
      <trkpt lat="47.88688" lon="6.90814">
        <ele>779</ele>
        <time>2026-05-09T18:52:40.066Z</time>
      </trkpt>
      <trkpt lat="47.88687" lon="6.90817">
        <ele>779</ele>
        <time>2026-05-09T18:52:41.065Z</time>
      </trkpt>
      <trkpt lat="47.88687" lon="6.90818">
        <ele>779</ele>
        <time>2026-05-09T18:52:42.066Z</time>
      </trkpt>
      <trkpt lat="47.88685" lon="6.90821">
        <ele>779</ele>
        <time>2026-05-09T18:52:43.065Z</time>
      </trkpt>
      <trkpt lat="47.88684" lon="6.90824">
        <ele>779</ele>
        <time>2026-05-09T18:52:44.066Z</time>
      </trkpt>
      <trkpt lat="47.88682" lon="6.90828">
        <ele>779</ele>
        <time>2026-05-09T18:52:45.066Z</time>
      </trkpt>
      <trkpt lat="47.88681" lon="6.9083">
        <ele>778</ele>
        <time>2026-05-09T18:52:46.065Z</time>
      </trkpt>
      <trkpt lat="47.88679" lon="6.90836">
        <ele>778</ele>
        <time>2026-05-09T18:52:47.066Z</time>
      </trkpt>
      <trkpt lat="47.88678" lon="6.90838">
        <ele>778</ele>
        <time>2026-05-09T18:52:48.065Z</time>
      </trkpt>
      <trkpt lat="47.88678" lon="6.90841">
        <ele>778</ele>
        <time>2026-05-09T18:52:49.066Z</time>
      </trkpt>
      <trkpt lat="47.88677" lon="6.90844">
        <ele>777</ele>
        <time>2026-05-09T18:52:50.065Z</time>
      </trkpt>
      <trkpt lat="47.88676" lon="6.90846">
        <ele>778</ele>
        <time>2026-05-09T18:52:51.065Z</time>
      </trkpt>
      <trkpt lat="47.88677" lon="6.90849">
        <ele>778</ele>
        <time>2026-05-09T18:52:52.065Z</time>
      </trkpt>
      <trkpt lat="47.88676" lon="6.90851">
        <ele>778</ele>
        <time>2026-05-09T18:52:53.065Z</time>
      </trkpt>
      <trkpt lat="47.88674" lon="6.90853">
        <ele>778</ele>
        <time>2026-05-09T18:52:54.066Z</time>
      </trkpt>
      <trkpt lat="47.88672" lon="6.90855">
        <ele>778</ele>
        <time>2026-05-09T18:52:55.065Z</time>
      </trkpt>
      <trkpt lat="47.88672" lon="6.90857">
        <ele>778</ele>
        <time>2026-05-09T18:52:56.065Z</time>
      </trkpt>
      <trkpt lat="47.88673" lon="6.90858">
        <ele>778</ele>
        <time>2026-05-09T18:52:57.065Z</time>
      </trkpt>
      <trkpt lat="47.88673" lon="6.90859">
        <ele>779</ele>
        <time>2026-05-09T18:52:58.065Z</time>
      </trkpt>
      <trkpt lat="47.88674" lon="6.9086">
        <ele>779</ele>
        <time>2026-05-09T18:52:59.065Z</time>
      </trkpt>
      <trkpt lat="47.88673" lon="6.90862">
        <ele>779</ele>
        <time>2026-05-09T18:53:00.065Z</time>
      </trkpt>
      <trkpt lat="47.88671" lon="6.90864">
        <ele>779</ele>
        <time>2026-05-09T18:53:01.065Z</time>
      </trkpt>
      <trkpt lat="47.8867" lon="6.90866">
        <ele>779</ele>
        <time>2026-05-09T18:53:02.066Z</time>
      </trkpt>
      <trkpt lat="47.88671" lon="6.90867">
        <ele>780</ele>
        <time>2026-05-09T18:53:03.066Z</time>
      </trkpt>
      <trkpt lat="47.8867" lon="6.90868">
        <ele>780</ele>
        <time>2026-05-09T18:53:04.065Z</time>
      </trkpt>
      <trkpt lat="47.8867" lon="6.90869">
        <ele>781</ele>
        <time>2026-05-09T18:53:05.065Z</time>
      </trkpt>
      <trkpt lat="47.8867" lon="6.9087">
        <ele>781</ele>
        <time>2026-05-09T18:53:06.066Z</time>
      </trkpt>
      <trkpt lat="47.8867" lon="6.90872">
        <ele>782</ele>
        <time>2026-05-09T18:53:07.066Z</time>
      </trkpt>
      <trkpt lat="47.8867" lon="6.90873">
        <ele>782</ele>
        <time>2026-05-09T18:53:08.066Z</time>
      </trkpt>
      <trkpt lat="47.88669" lon="6.90875">
        <ele>782</ele>
        <time>2026-05-09T18:53:09.065Z</time>
      </trkpt>
      <trkpt lat="47.88667" lon="6.90876">
        <ele>782</ele>
        <time>2026-05-09T18:53:10.065Z</time>
      </trkpt>
      <trkpt lat="47.88666" lon="6.90878">
        <ele>782</ele>
        <time>2026-05-09T18:53:11.066Z</time>
      </trkpt>
      <trkpt lat="47.88664" lon="6.9088">
        <ele>783</ele>
        <time>2026-05-09T18:53:12.065Z</time>
      </trkpt>
      <trkpt lat="47.88663" lon="6.90882">
        <ele>783</ele>
        <time>2026-05-09T18:53:13.065Z</time>
      </trkpt>
      <trkpt lat="47.88663" lon="6.90883">
        <ele>783</ele>
        <time>2026-05-09T18:53:14.065Z</time>
      </trkpt>
      <trkpt lat="47.88663" lon="6.90885">
        <ele>784</ele>
        <time>2026-05-09T18:53:15.066Z</time>
      </trkpt>
      <trkpt lat="47.88663" lon="6.90886">
        <ele>784</ele>
        <time>2026-05-09T18:53:16.065Z</time>
      </trkpt>
      <trkpt lat="47.88662" lon="6.90886">
        <ele>784</ele>
        <time>2026-05-09T18:53:17.065Z</time>
      </trkpt>
      <trkpt lat="47.88662" lon="6.90888">
        <ele>784</ele>
        <time>2026-05-09T18:53:18.065Z</time>
      </trkpt>
      <trkpt lat="47.88662" lon="6.9089">
        <ele>784</ele>
        <time>2026-05-09T18:53:19.065Z</time>
      </trkpt>
      <trkpt lat="47.88662" lon="6.90891">
        <ele>784</ele>
        <time>2026-05-09T18:53:20.065Z</time>
      </trkpt>
      <trkpt lat="47.88661" lon="6.90893">
        <ele>784</ele>
        <time>2026-05-09T18:53:21.066Z</time>
      </trkpt>
      <trkpt lat="47.8866" lon="6.90895">
        <ele>784</ele>
        <time>2026-05-09T18:53:22.066Z</time>
      </trkpt>
      <trkpt lat="47.8866" lon="6.90897">
        <ele>784</ele>
        <time>2026-05-09T18:53:23.066Z</time>
      </trkpt>
      <trkpt lat="47.88659" lon="6.90899">
        <ele>784</ele>
        <time>2026-05-09T18:53:24.065Z</time>
      </trkpt>
      <trkpt lat="47.88657" lon="6.90902">
        <ele>784</ele>
        <time>2026-05-09T18:53:25.065Z</time>
      </trkpt>
      <trkpt lat="47.88658" lon="6.90904">
        <ele>784</ele>
        <time>2026-05-09T18:53:26.065Z</time>
      </trkpt>
      <trkpt lat="47.88659" lon="6.90906">
        <ele>785</ele>
        <time>2026-05-09T18:53:27.065Z</time>
      </trkpt>
      <trkpt lat="47.88659" lon="6.90909">
        <ele>785</ele>
        <time>2026-05-09T18:53:28.065Z</time>
      </trkpt>
      <trkpt lat="47.88656" lon="6.90914">
        <ele>785</ele>
        <time>2026-05-09T18:53:29.065Z</time>
      </trkpt>
      <trkpt lat="47.88652" lon="6.90919">
        <ele>785</ele>
        <time>2026-05-09T18:53:30.066Z</time>
      </trkpt>
      <trkpt lat="47.8865" lon="6.90924">
        <ele>785</ele>
        <time>2026-05-09T18:53:31.065Z</time>
      </trkpt>
      <trkpt lat="47.8865" lon="6.90926">
        <ele>786</ele>
        <time>2026-05-09T18:53:32.065Z</time>
      </trkpt>
      <trkpt lat="47.88649" lon="6.90929">
        <ele>786</ele>
        <time>2026-05-09T18:53:33.066Z</time>
      </trkpt>
      <trkpt lat="47.88646" lon="6.90935">
        <ele>786</ele>
        <time>2026-05-09T18:53:34.065Z</time>
      </trkpt>
      <trkpt lat="47.88643" lon="6.90939">
        <ele>786</ele>
        <time>2026-05-09T18:53:35.065Z</time>
      </trkpt>
      <trkpt lat="47.8864" lon="6.90943">
        <ele>786</ele>
        <time>2026-05-09T18:53:36.066Z</time>
      </trkpt>
      <trkpt lat="47.88637" lon="6.90945">
        <ele>786</ele>
        <time>2026-05-09T18:53:37.065Z</time>
      </trkpt>
      <trkpt lat="47.88633" lon="6.9095">
        <ele>786</ele>
        <time>2026-05-09T18:53:38.065Z</time>
      </trkpt>
      <trkpt lat="47.8863" lon="6.90953">
        <ele>786</ele>
        <time>2026-05-09T18:53:39.065Z</time>
      </trkpt>
      <trkpt lat="47.88629" lon="6.90956">
        <ele>786</ele>
        <time>2026-05-09T18:53:40.065Z</time>
      </trkpt>
      <trkpt lat="47.88629" lon="6.90956">
        <ele>786</ele>
        <time>2026-05-09T18:53:41.066Z</time>
      </trkpt>
      <trkpt lat="47.88629" lon="6.90956">
        <ele>786</ele>
        <time>2026-05-09T18:53:42.066Z</time>
      </trkpt>
      <trkpt lat="47.8863" lon="6.90955">
        <ele>786</ele>
        <time>2026-05-09T18:53:43.066Z</time>
      </trkpt>
      <trkpt lat="47.88629" lon="6.90954">
        <ele>787</ele>
        <time>2026-05-09T18:53:44.065Z</time>
      </trkpt>
      <trkpt lat="47.88627" lon="6.90955">
        <ele>787</ele>
        <time>2026-05-09T18:53:45.066Z</time>
      </trkpt>
      <trkpt lat="47.88625" lon="6.90956">
        <ele>787</ele>
        <time>2026-05-09T18:53:46.065Z</time>
      </trkpt>
      <trkpt lat="47.88625" lon="6.90957">
        <ele>786</ele>
        <time>2026-05-09T18:53:47.065Z</time>
      </trkpt>
      <trkpt lat="47.88625" lon="6.90957">
        <ele>787</ele>
        <time>2026-05-09T18:53:48.065Z</time>
      </trkpt>
      <trkpt lat="47.88624" lon="6.90957">
        <ele>787</ele>
        <time>2026-05-09T18:53:54.557Z</time>
      </trkpt>
      <trkpt lat="47.88624" lon="6.90958">
        <ele>788</ele>
        <time>2026-05-09T18:53:55.556Z</time>
      </trkpt>
      <trkpt lat="47.88624" lon="6.90958">
        <ele>788</ele>
        <time>2026-05-09T18:53:56.556Z</time>
      </trkpt>
      <trkpt lat="47.88623" lon="6.90959">
        <ele>788</ele>
        <time>2026-05-09T18:53:57.556Z</time>
      </trkpt>
      <trkpt lat="47.88623" lon="6.90959">
        <ele>788</ele>
        <time>2026-05-09T18:53:58.557Z</time>
      </trkpt>
      <trkpt lat="47.88623" lon="6.9096">
        <ele>788</ele>
        <time>2026-05-09T18:53:59.556Z</time>
      </trkpt>
      <trkpt lat="47.88622" lon="6.90961">
        <ele>788</ele>
        <time>2026-05-09T18:54:00.557Z</time>
      </trkpt>
      <trkpt lat="47.88622" lon="6.90961">
        <ele>788</ele>
        <time>2026-05-09T18:54:01.557Z</time>
      </trkpt>
      <trkpt lat="47.88622" lon="6.90962">
        <ele>788</ele>
        <time>2026-05-09T18:54:02.557Z</time>
      </trkpt>
      <trkpt lat="47.88621" lon="6.90963">
        <ele>789</ele>
        <time>2026-05-09T18:54:03.557Z</time>
      </trkpt>
      <trkpt lat="47.88621" lon="6.90963">
        <ele>789</ele>
        <time>2026-05-09T18:54:04.556Z</time>
      </trkpt>
      <trkpt lat="47.88621" lon="6.90963">
        <ele>789</ele>
        <time>2026-05-09T18:54:05.557Z</time>
      </trkpt>
      <trkpt lat="47.88616" lon="6.90971">
        <ele>791</ele>
        <time>2026-05-09T18:54:12.031Z</time>
      </trkpt>
      <trkpt lat="47.88616" lon="6.90972">
        <ele>791</ele>
        <time>2026-05-09T18:54:13.030Z</time>
      </trkpt>
      <trkpt lat="47.88615" lon="6.90972">
        <ele>792</ele>
        <time>2026-05-09T18:54:14.031Z</time>
      </trkpt>
      <trkpt lat="47.88615" lon="6.90972">
        <ele>792</ele>
        <time>2026-05-09T18:54:15.030Z</time>
      </trkpt>
      <trkpt lat="47.88614" lon="6.90973">
        <ele>792</ele>
        <time>2026-05-09T18:54:16.031Z</time>
      </trkpt>
      <trkpt lat="47.88614" lon="6.90974">
        <ele>792</ele>
        <time>2026-05-09T18:54:17.030Z</time>
      </trkpt>
      <trkpt lat="47.88614" lon="6.90974">
        <ele>792</ele>
        <time>2026-05-09T18:54:18.030Z</time>
      </trkpt>
      <trkpt lat="47.88613" lon="6.90975">
        <ele>792</ele>
        <time>2026-05-09T18:54:19.031Z</time>
      </trkpt>
      <trkpt lat="47.88612" lon="6.90976">
        <ele>792</ele>
        <time>2026-05-09T18:54:20.030Z</time>
      </trkpt>
      <trkpt lat="47.88612" lon="6.90977">
        <ele>792</ele>
        <time>2026-05-09T18:54:21.030Z</time>
      </trkpt>
      <trkpt lat="47.88612" lon="6.90977">
        <ele>792</ele>
        <time>2026-05-09T18:54:22.030Z</time>
      </trkpt>
      <trkpt lat="47.88611" lon="6.90979">
        <ele>792</ele>
        <time>2026-05-09T18:54:29.140Z</time>
      </trkpt>
      <trkpt lat="47.88611" lon="6.90979">
        <ele>792</ele>
        <time>2026-05-09T18:54:30.141Z</time>
      </trkpt>
      <trkpt lat="47.8861" lon="6.90982">
        <ele>792</ele>
        <time>2026-05-09T18:54:31.140Z</time>
      </trkpt>
      <trkpt lat="47.88608" lon="6.90984">
        <ele>792</ele>
        <time>2026-05-09T18:54:32.141Z</time>
      </trkpt>
      <trkpt lat="47.88608" lon="6.90985">
        <ele>791</ele>
        <time>2026-05-09T18:54:33.140Z</time>
      </trkpt>
      <trkpt lat="47.88608" lon="6.90986">
        <ele>791</ele>
        <time>2026-05-09T18:54:34.140Z</time>
      </trkpt>
      <trkpt lat="47.88606" lon="6.90988">
        <ele>791</ele>
        <time>2026-05-09T18:54:35.141Z</time>
      </trkpt>
      <trkpt lat="47.88607" lon="6.9099">
        <ele>791</ele>
        <time>2026-05-09T18:54:36.140Z</time>
      </trkpt>
      <trkpt lat="47.88607" lon="6.90992">
        <ele>791</ele>
        <time>2026-05-09T18:54:37.141Z</time>
      </trkpt>
      <trkpt lat="47.88606" lon="6.90994">
        <ele>791</ele>
        <time>2026-05-09T18:54:38.141Z</time>
      </trkpt>
      <trkpt lat="47.88606" lon="6.90994">
        <ele>791</ele>
        <time>2026-05-09T18:54:39.141Z</time>
      </trkpt>
      <trkpt lat="47.88605" lon="6.90995">
        <ele>791</ele>
        <time>2026-05-09T18:54:40.141Z</time>
      </trkpt>
      <trkpt lat="47.88605" lon="6.90997">
        <ele>792</ele>
        <time>2026-05-09T18:54:41.141Z</time>
      </trkpt>
      <trkpt lat="47.88604" lon="6.90999">
        <ele>792</ele>
        <time>2026-05-09T18:54:42.140Z</time>
      </trkpt>
      <trkpt lat="47.88603" lon="6.91001">
        <ele>791</ele>
        <time>2026-05-09T18:54:43.141Z</time>
      </trkpt>
      <trkpt lat="47.88603" lon="6.91003">
        <ele>791</ele>
        <time>2026-05-09T18:54:44.141Z</time>
      </trkpt>
      <trkpt lat="47.88602" lon="6.91004">
        <ele>792</ele>
        <time>2026-05-09T18:54:45.141Z</time>
      </trkpt>
      <trkpt lat="47.88602" lon="6.91006">
        <ele>792</ele>
        <time>2026-05-09T18:54:46.140Z</time>
      </trkpt>
      <trkpt lat="47.88601" lon="6.91008">
        <ele>792</ele>
        <time>2026-05-09T18:54:47.141Z</time>
      </trkpt>
      <trkpt lat="47.886" lon="6.9101">
        <ele>792</ele>
        <time>2026-05-09T18:54:48.140Z</time>
      </trkpt>
      <trkpt lat="47.88599" lon="6.91013">
        <ele>792</ele>
        <time>2026-05-09T18:54:49.140Z</time>
      </trkpt>
      <trkpt lat="47.88598" lon="6.91016">
        <ele>793</ele>
        <time>2026-05-09T18:54:50.140Z</time>
      </trkpt>
      <trkpt lat="47.88597" lon="6.91019">
        <ele>793</ele>
        <time>2026-05-09T18:54:51.141Z</time>
      </trkpt>
      <trkpt lat="47.88596" lon="6.91021">
        <ele>793</ele>
        <time>2026-05-09T18:54:52.141Z</time>
      </trkpt>
      <trkpt lat="47.88595" lon="6.91023">
        <ele>793</ele>
        <time>2026-05-09T18:54:53.140Z</time>
      </trkpt>
      <trkpt lat="47.88594" lon="6.91024">
        <ele>792</ele>
        <time>2026-05-09T18:54:54.141Z</time>
      </trkpt>
      <trkpt lat="47.88594" lon="6.91026">
        <ele>792</ele>
        <time>2026-05-09T18:54:55.140Z</time>
      </trkpt>
      <trkpt lat="47.88593" lon="6.91028">
        <ele>792</ele>
        <time>2026-05-09T18:54:56.141Z</time>
      </trkpt>
      <trkpt lat="47.88593" lon="6.91029">
        <ele>792</ele>
        <time>2026-05-09T18:54:57.141Z</time>
      </trkpt>
      <trkpt lat="47.88593" lon="6.9103">
        <ele>792</ele>
        <time>2026-05-09T18:54:58.140Z</time>
      </trkpt>
      <trkpt lat="47.88592" lon="6.91032">
        <ele>792</ele>
        <time>2026-05-09T18:54:59.141Z</time>
      </trkpt>
      <trkpt lat="47.88591" lon="6.91034">
        <ele>792</ele>
        <time>2026-05-09T18:55:00.140Z</time>
      </trkpt>
      <trkpt lat="47.8859" lon="6.91036">
        <ele>792</ele>
        <time>2026-05-09T18:55:01.140Z</time>
      </trkpt>
      <trkpt lat="47.88589" lon="6.91039">
        <ele>792</ele>
        <time>2026-05-09T18:55:02.141Z</time>
      </trkpt>
      <trkpt lat="47.88589" lon="6.91041">
        <ele>792</ele>
        <time>2026-05-09T18:55:03.140Z</time>
      </trkpt>
      <trkpt lat="47.88588" lon="6.91043">
        <ele>792</ele>
        <time>2026-05-09T18:55:04.141Z</time>
      </trkpt>
      <trkpt lat="47.88588" lon="6.91045">
        <ele>792</ele>
        <time>2026-05-09T18:55:05.140Z</time>
      </trkpt>
      <trkpt lat="47.88588" lon="6.91046">
        <ele>792</ele>
        <time>2026-05-09T18:55:06.141Z</time>
      </trkpt>
      <trkpt lat="47.88588" lon="6.91047">
        <ele>793</ele>
        <time>2026-05-09T18:55:07.140Z</time>
      </trkpt>
      <trkpt lat="47.88587" lon="6.91048">
        <ele>793</ele>
        <time>2026-05-09T18:55:08.141Z</time>
      </trkpt>
      <trkpt lat="47.88587" lon="6.91049">
        <ele>793</ele>
        <time>2026-05-09T18:55:09.140Z</time>
      </trkpt>
      <trkpt lat="47.88587" lon="6.91049">
        <ele>794</ele>
        <time>2026-05-09T18:55:10.141Z</time>
      </trkpt>
      <trkpt lat="47.88587" lon="6.9105">
        <ele>794</ele>
        <time>2026-05-09T18:55:11.141Z</time>
      </trkpt>
      <trkpt lat="47.88587" lon="6.91052">
        <ele>794</ele>
        <time>2026-05-09T18:55:12.141Z</time>
      </trkpt>
      <trkpt lat="47.88586" lon="6.91054">
        <ele>795</ele>
        <time>2026-05-09T18:55:13.140Z</time>
      </trkpt>
      <trkpt lat="47.88585" lon="6.91055">
        <ele>795</ele>
        <time>2026-05-09T18:55:14.141Z</time>
      </trkpt>
      <trkpt lat="47.88585" lon="6.91058">
        <ele>795</ele>
        <time>2026-05-09T18:55:15.141Z</time>
      </trkpt>
      <trkpt lat="47.88584" lon="6.91059">
        <ele>796</ele>
        <time>2026-05-09T18:55:16.140Z</time>
      </trkpt>
      <trkpt lat="47.88584" lon="6.91062">
        <ele>796</ele>
        <time>2026-05-09T18:55:17.141Z</time>
      </trkpt>
      <trkpt lat="47.88583" lon="6.91064">
        <ele>796</ele>
        <time>2026-05-09T18:55:18.141Z</time>
      </trkpt>
      <trkpt lat="47.88582" lon="6.91066">
        <ele>796</ele>
        <time>2026-05-09T18:55:19.141Z</time>
      </trkpt>
      <trkpt lat="47.88581" lon="6.91069">
        <ele>796</ele>
        <time>2026-05-09T18:55:20.140Z</time>
      </trkpt>
      <trkpt lat="47.88581" lon="6.91072">
        <ele>797</ele>
        <time>2026-05-09T18:55:21.141Z</time>
      </trkpt>
      <trkpt lat="47.8858" lon="6.91074">
        <ele>797</ele>
        <time>2026-05-09T18:55:22.141Z</time>
      </trkpt>
      <trkpt lat="47.8858" lon="6.91077">
        <ele>797</ele>
        <time>2026-05-09T18:55:23.141Z</time>
      </trkpt>
      <trkpt lat="47.8858" lon="6.9108">
        <ele>798</ele>
        <time>2026-05-09T18:55:24.141Z</time>
      </trkpt>
      <trkpt lat="47.8858" lon="6.91082">
        <ele>798</ele>
        <time>2026-05-09T18:55:25.141Z</time>
      </trkpt>
      <trkpt lat="47.8858" lon="6.91085">
        <ele>798</ele>
        <time>2026-05-09T18:55:26.141Z</time>
      </trkpt>
      <trkpt lat="47.88579" lon="6.91087">
        <ele>798</ele>
        <time>2026-05-09T18:55:27.140Z</time>
      </trkpt>
      <trkpt lat="47.88578" lon="6.91091">
        <ele>798</ele>
        <time>2026-05-09T18:55:28.140Z</time>
      </trkpt>
      <trkpt lat="47.88577" lon="6.91094">
        <ele>798</ele>
        <time>2026-05-09T18:55:29.140Z</time>
      </trkpt>
      <trkpt lat="47.88576" lon="6.91097">
        <ele>798</ele>
        <time>2026-05-09T18:55:30.141Z</time>
      </trkpt>
      <trkpt lat="47.88575" lon="6.91101">
        <ele>798</ele>
        <time>2026-05-09T18:55:31.141Z</time>
      </trkpt>
      <trkpt lat="47.88573" lon="6.91106">
        <ele>797</ele>
        <time>2026-05-09T18:55:32.140Z</time>
      </trkpt>
      <trkpt lat="47.88572" lon="6.9111">
        <ele>797</ele>
        <time>2026-05-09T18:55:33.140Z</time>
      </trkpt>
      <trkpt lat="47.88573" lon="6.91113">
        <ele>797</ele>
        <time>2026-05-09T18:55:34.141Z</time>
      </trkpt>
      <trkpt lat="47.88573" lon="6.91118">
        <ele>797</ele>
        <time>2026-05-09T18:55:35.141Z</time>
      </trkpt>
      <trkpt lat="47.88572" lon="6.91122">
        <ele>797</ele>
        <time>2026-05-09T18:55:36.140Z</time>
      </trkpt>
      <trkpt lat="47.88571" lon="6.91124">
        <ele>797</ele>
        <time>2026-05-09T18:55:37.141Z</time>
      </trkpt>
      <trkpt lat="47.88571" lon="6.91126">
        <ele>797</ele>
        <time>2026-05-09T18:55:38.140Z</time>
      </trkpt>
      <trkpt lat="47.8857" lon="6.9113">
        <ele>797</ele>
        <time>2026-05-09T18:55:39.140Z</time>
      </trkpt>
      <trkpt lat="47.8857" lon="6.91134">
        <ele>797</ele>
        <time>2026-05-09T18:55:40.141Z</time>
      </trkpt>
      <trkpt lat="47.8857" lon="6.91137">
        <ele>797</ele>
        <time>2026-05-09T18:55:41.141Z</time>
      </trkpt>
      <trkpt lat="47.88572" lon="6.91136">
        <ele>797</ele>
        <time>2026-05-09T18:55:42.140Z</time>
      </trkpt>
      <trkpt lat="47.88576" lon="6.91136">
        <ele>798</ele>
        <time>2026-05-09T18:55:43.141Z</time>
      </trkpt>
      <trkpt lat="47.88577" lon="6.91138">
        <ele>798</ele>
        <time>2026-05-09T18:55:44.141Z</time>
      </trkpt>
      <trkpt lat="47.8858" lon="6.91141">
        <ele>798</ele>
        <time>2026-05-09T18:55:45.141Z</time>
      </trkpt>
      <trkpt lat="47.88581" lon="6.91144">
        <ele>799</ele>
        <time>2026-05-09T18:55:46.140Z</time>
      </trkpt>
      <trkpt lat="47.8858" lon="6.91147">
        <ele>799</ele>
        <time>2026-05-09T18:55:47.140Z</time>
      </trkpt>
      <trkpt lat="47.88579" lon="6.91151">
        <ele>799</ele>
        <time>2026-05-09T18:55:48.141Z</time>
      </trkpt>
      <trkpt lat="47.8858" lon="6.91153">
        <ele>799</ele>
        <time>2026-05-09T18:55:49.140Z</time>
      </trkpt>
      <trkpt lat="47.8858" lon="6.91155">
        <ele>799</ele>
        <time>2026-05-09T18:55:50.140Z</time>
      </trkpt>
      <trkpt lat="47.88579" lon="6.91158">
        <ele>799</ele>
        <time>2026-05-09T18:55:51.141Z</time>
      </trkpt>
      <trkpt lat="47.88579" lon="6.91161">
        <ele>799</ele>
        <time>2026-05-09T18:55:52.140Z</time>
      </trkpt>
      <trkpt lat="47.88579" lon="6.91163">
        <ele>799</ele>
        <time>2026-05-09T18:55:53.140Z</time>
      </trkpt>
      <trkpt lat="47.88579" lon="6.91166">
        <ele>799</ele>
        <time>2026-05-09T18:55:54.141Z</time>
      </trkpt>
      <trkpt lat="47.88578" lon="6.91166">
        <ele>799</ele>
        <time>2026-05-09T18:55:55.140Z</time>
      </trkpt>
      <trkpt lat="47.88578" lon="6.91167">
        <ele>800</ele>
        <time>2026-05-09T18:55:56.140Z</time>
      </trkpt>
      <trkpt lat="47.88578" lon="6.91167">
        <ele>800</ele>
        <time>2026-05-09T18:55:57.141Z</time>
      </trkpt>
      <trkpt lat="47.88579" lon="6.9117">
        <ele>800</ele>
        <time>2026-05-09T18:55:58.140Z</time>
      </trkpt>
      <trkpt lat="47.88579" lon="6.91174">
        <ele>800</ele>
        <time>2026-05-09T18:55:59.141Z</time>
      </trkpt>
      <trkpt lat="47.8858" lon="6.91177">
        <ele>800</ele>
        <time>2026-05-09T18:56:00.140Z</time>
      </trkpt>
      <trkpt lat="47.88583" lon="6.91178">
        <ele>800</ele>
        <time>2026-05-09T18:56:01.141Z</time>
      </trkpt>
      <trkpt lat="47.88584" lon="6.91177">
        <ele>801</ele>
        <time>2026-05-09T18:56:02.140Z</time>
      </trkpt>
      <trkpt lat="47.88586" lon="6.91177">
        <ele>801</ele>
        <time>2026-05-09T18:56:03.140Z</time>
      </trkpt>
      <trkpt lat="47.88586" lon="6.91177">
        <ele>801</ele>
        <time>2026-05-09T18:56:04.141Z</time>
      </trkpt>
      <trkpt lat="47.88585" lon="6.91178">
        <ele>802</ele>
        <time>2026-05-09T18:56:05.140Z</time>
      </trkpt>
      <trkpt lat="47.88584" lon="6.9118">
        <ele>802</ele>
        <time>2026-05-09T18:56:06.140Z</time>
      </trkpt>
      <trkpt lat="47.88581" lon="6.91183">
        <ele>803</ele>
        <time>2026-05-09T18:56:07.141Z</time>
      </trkpt>
      <trkpt lat="47.88579" lon="6.91185">
        <ele>803</ele>
        <time>2026-05-09T18:56:08.141Z</time>
      </trkpt>
      <trkpt lat="47.88578" lon="6.91187">
        <ele>803</ele>
        <time>2026-05-09T18:56:09.141Z</time>
      </trkpt>
      <trkpt lat="47.88577" lon="6.91189">
        <ele>802</ele>
        <time>2026-05-09T18:56:10.140Z</time>
      </trkpt>
      <trkpt lat="47.88577" lon="6.91191">
        <ele>802</ele>
        <time>2026-05-09T18:56:11.141Z</time>
      </trkpt>
      <trkpt lat="47.88577" lon="6.91191">
        <ele>802</ele>
        <time>2026-05-09T18:56:12.140Z</time>
      </trkpt>
      <trkpt lat="47.88577" lon="6.91193">
        <ele>802</ele>
        <time>2026-05-09T18:56:13.141Z</time>
      </trkpt>
      <trkpt lat="47.88577" lon="6.91194">
        <ele>801</ele>
        <time>2026-05-09T18:56:14.141Z</time>
      </trkpt>
      <trkpt lat="47.88577" lon="6.91196">
        <ele>801</ele>
        <time>2026-05-09T18:56:15.140Z</time>
      </trkpt>
      <trkpt lat="47.88577" lon="6.91198">
        <ele>801</ele>
        <time>2026-05-09T18:56:16.141Z</time>
      </trkpt>
      <trkpt lat="47.88577" lon="6.91199">
        <ele>801</ele>
        <time>2026-05-09T18:56:17.140Z</time>
      </trkpt>
      <trkpt lat="47.88576" lon="6.912">
        <ele>800</ele>
        <time>2026-05-09T18:56:18.141Z</time>
      </trkpt>
      <trkpt lat="47.88576" lon="6.91201">
        <ele>800</ele>
        <time>2026-05-09T18:56:19.140Z</time>
      </trkpt>
      <trkpt lat="47.88575" lon="6.91203">
        <ele>800</ele>
        <time>2026-05-09T18:56:20.140Z</time>
      </trkpt>
      <trkpt lat="47.88574" lon="6.91205">
        <ele>801</ele>
        <time>2026-05-09T18:56:21.140Z</time>
      </trkpt>
      <trkpt lat="47.88573" lon="6.91207">
        <ele>801</ele>
        <time>2026-05-09T18:56:22.141Z</time>
      </trkpt>
      <trkpt lat="47.88573" lon="6.91209">
        <ele>801</ele>
        <time>2026-05-09T18:56:23.141Z</time>
      </trkpt>
      <trkpt lat="47.88572" lon="6.91211">
        <ele>801</ele>
        <time>2026-05-09T18:56:24.141Z</time>
      </trkpt>
      <trkpt lat="47.88572" lon="6.91212">
        <ele>800</ele>
        <time>2026-05-09T18:56:25.141Z</time>
      </trkpt>
      <trkpt lat="47.88572" lon="6.91214">
        <ele>800</ele>
        <time>2026-05-09T18:56:26.141Z</time>
      </trkpt>
      <trkpt lat="47.88572" lon="6.91216">
        <ele>800</ele>
        <time>2026-05-09T18:56:27.141Z</time>
      </trkpt>
      <trkpt lat="47.88572" lon="6.91218">
        <ele>799</ele>
        <time>2026-05-09T18:56:28.140Z</time>
      </trkpt>
      <trkpt lat="47.88572" lon="6.9122">
        <ele>799</ele>
        <time>2026-05-09T18:56:29.141Z</time>
      </trkpt>
      <trkpt lat="47.88572" lon="6.91222">
        <ele>799</ele>
        <time>2026-05-09T18:56:30.141Z</time>
      </trkpt>
      <trkpt lat="47.88572" lon="6.91223">
        <ele>799</ele>
        <time>2026-05-09T18:56:31.141Z</time>
      </trkpt>
      <trkpt lat="47.88572" lon="6.91225">
        <ele>799</ele>
        <time>2026-05-09T18:56:32.141Z</time>
      </trkpt>
      <trkpt lat="47.88571" lon="6.91227">
        <ele>798</ele>
        <time>2026-05-09T18:56:33.140Z</time>
      </trkpt>
      <trkpt lat="47.88571" lon="6.91229">
        <ele>798</ele>
        <time>2026-05-09T18:56:34.140Z</time>
      </trkpt>
      <trkpt lat="47.88571" lon="6.91231">
        <ele>797</ele>
        <time>2026-05-09T18:56:35.141Z</time>
      </trkpt>
      <trkpt lat="47.88571" lon="6.91233">
        <ele>797</ele>
        <time>2026-05-09T18:56:36.141Z</time>
      </trkpt>
      <trkpt lat="47.88572" lon="6.91234">
        <ele>796</ele>
        <time>2026-05-09T18:56:37.141Z</time>
      </trkpt>
      <trkpt lat="47.88572" lon="6.91235">
        <ele>796</ele>
        <time>2026-05-09T18:56:38.140Z</time>
      </trkpt>
      <trkpt lat="47.88573" lon="6.91236">
        <ele>796</ele>
        <time>2026-05-09T18:56:39.141Z</time>
      </trkpt>
      <trkpt lat="47.88573" lon="6.91238">
        <ele>796</ele>
        <time>2026-05-09T18:56:40.141Z</time>
      </trkpt>
      <trkpt lat="47.88573" lon="6.91239">
        <ele>796</ele>
        <time>2026-05-09T18:56:41.140Z</time>
      </trkpt>
      <trkpt lat="47.88572" lon="6.91241">
        <ele>796</ele>
        <time>2026-05-09T18:56:42.140Z</time>
      </trkpt>
      <trkpt lat="47.88571" lon="6.91242">
        <ele>796</ele>
        <time>2026-05-09T18:56:43.140Z</time>
      </trkpt>
      <trkpt lat="47.88571" lon="6.91243">
        <ele>796</ele>
        <time>2026-05-09T18:56:44.141Z</time>
      </trkpt>
      <trkpt lat="47.8857" lon="6.91243">
        <ele>797</ele>
        <time>2026-05-09T18:56:45.141Z</time>
      </trkpt>
      <trkpt lat="47.8857" lon="6.91244">
        <ele>797</ele>
        <time>2026-05-09T18:56:46.140Z</time>
      </trkpt>
      <trkpt lat="47.88569" lon="6.91245">
        <ele>797</ele>
        <time>2026-05-09T18:56:47.141Z</time>
      </trkpt>
      <trkpt lat="47.88572" lon="6.91246">
        <ele>797</ele>
        <time>2026-05-09T18:56:48.140Z</time>
      </trkpt>
      <trkpt lat="47.88573" lon="6.91247">
        <ele>797</ele>
        <time>2026-05-09T18:56:49.140Z</time>
      </trkpt>
      <trkpt lat="47.88574" lon="6.91249">
        <ele>797</ele>
        <time>2026-05-09T18:56:50.140Z</time>
      </trkpt>
      <trkpt lat="47.88574" lon="6.91251">
        <ele>797</ele>
        <time>2026-05-09T18:56:51.140Z</time>
      </trkpt>
      <trkpt lat="47.88573" lon="6.91254">
        <ele>796</ele>
        <time>2026-05-09T18:56:52.140Z</time>
      </trkpt>
      <trkpt lat="47.88573" lon="6.91256">
        <ele>796</ele>
        <time>2026-05-09T18:56:53.140Z</time>
      </trkpt>
      <trkpt lat="47.88572" lon="6.91258">
        <ele>796</ele>
        <time>2026-05-09T18:56:54.141Z</time>
      </trkpt>
      <trkpt lat="47.88572" lon="6.9126">
        <ele>795</ele>
        <time>2026-05-09T18:56:55.141Z</time>
      </trkpt>
      <trkpt lat="47.88573" lon="6.91262">
        <ele>795</ele>
        <time>2026-05-09T18:56:56.140Z</time>
      </trkpt>
      <trkpt lat="47.88573" lon="6.91264">
        <ele>795</ele>
        <time>2026-05-09T18:56:57.141Z</time>
      </trkpt>
      <trkpt lat="47.88573" lon="6.91266">
        <ele>795</ele>
        <time>2026-05-09T18:56:58.141Z</time>
      </trkpt>
      <trkpt lat="47.88573" lon="6.91269">
        <ele>795</ele>
        <time>2026-05-09T18:56:59.141Z</time>
      </trkpt>
      <trkpt lat="47.88573" lon="6.91271">
        <ele>795</ele>
        <time>2026-05-09T18:57:00.141Z</time>
      </trkpt>
      <trkpt lat="47.88573" lon="6.91273">
        <ele>795</ele>
        <time>2026-05-09T18:57:01.141Z</time>
      </trkpt>
      <trkpt lat="47.88572" lon="6.91275">
        <ele>795</ele>
        <time>2026-05-09T18:57:02.140Z</time>
      </trkpt>
      <trkpt lat="47.88572" lon="6.91277">
        <ele>795</ele>
        <time>2026-05-09T18:57:03.141Z</time>
      </trkpt>
      <trkpt lat="47.88571" lon="6.9128">
        <ele>795</ele>
        <time>2026-05-09T18:57:04.140Z</time>
      </trkpt>
      <trkpt lat="47.88572" lon="6.91282">
        <ele>795</ele>
        <time>2026-05-09T18:57:05.140Z</time>
      </trkpt>
      <trkpt lat="47.88573" lon="6.91284">
        <ele>795</ele>
        <time>2026-05-09T18:57:06.140Z</time>
      </trkpt>
      <trkpt lat="47.88573" lon="6.91286">
        <ele>794</ele>
        <time>2026-05-09T18:57:07.141Z</time>
      </trkpt>
      <trkpt lat="47.88572" lon="6.91289">
        <ele>794</ele>
        <time>2026-05-09T18:57:08.141Z</time>
      </trkpt>
      <trkpt lat="47.88572" lon="6.91292">
        <ele>793</ele>
        <time>2026-05-09T18:57:09.140Z</time>
      </trkpt>
      <trkpt lat="47.88571" lon="6.91295">
        <ele>793</ele>
        <time>2026-05-09T18:57:10.140Z</time>
      </trkpt>
      <trkpt lat="47.88571" lon="6.91298">
        <ele>792</ele>
        <time>2026-05-09T18:57:11.140Z</time>
      </trkpt>
      <trkpt lat="47.8857" lon="6.913">
        <ele>792</ele>
        <time>2026-05-09T18:57:12.141Z</time>
      </trkpt>
      <trkpt lat="47.8857" lon="6.91303">
        <ele>791</ele>
        <time>2026-05-09T18:57:13.141Z</time>
      </trkpt>
      <trkpt lat="47.88569" lon="6.91306">
        <ele>791</ele>
        <time>2026-05-09T18:57:14.141Z</time>
      </trkpt>
      <trkpt lat="47.88568" lon="6.91308">
        <ele>790</ele>
        <time>2026-05-09T18:57:15.141Z</time>
      </trkpt>
      <trkpt lat="47.88567" lon="6.9131">
        <ele>790</ele>
        <time>2026-05-09T18:57:16.140Z</time>
      </trkpt>
      <trkpt lat="47.88568" lon="6.91311">
        <ele>789</ele>
        <time>2026-05-09T18:57:17.140Z</time>
      </trkpt>
      <trkpt lat="47.88567" lon="6.91313">
        <ele>789</ele>
        <time>2026-05-09T18:57:18.141Z</time>
      </trkpt>
      <trkpt lat="47.88567" lon="6.91314">
        <ele>789</ele>
        <time>2026-05-09T18:57:19.140Z</time>
      </trkpt>
      <trkpt lat="47.88567" lon="6.91316">
        <ele>789</ele>
        <time>2026-05-09T18:57:20.140Z</time>
      </trkpt>
      <trkpt lat="47.88566" lon="6.91319">
        <ele>789</ele>
        <time>2026-05-09T18:57:21.140Z</time>
      </trkpt>
      <trkpt lat="47.88566" lon="6.9132">
        <ele>790</ele>
        <time>2026-05-09T18:57:22.140Z</time>
      </trkpt>
      <trkpt lat="47.88565" lon="6.91321">
        <ele>790</ele>
        <time>2026-05-09T18:57:23.140Z</time>
      </trkpt>
      <trkpt lat="47.88564" lon="6.91321">
        <ele>791</ele>
        <time>2026-05-09T18:57:24.141Z</time>
      </trkpt>
      <trkpt lat="47.88563" lon="6.91322">
        <ele>791</ele>
        <time>2026-05-09T18:57:25.140Z</time>
      </trkpt>
      <trkpt lat="47.88563" lon="6.91322">
        <ele>792</ele>
        <time>2026-05-09T18:57:26.141Z</time>
      </trkpt>
      <trkpt lat="47.88563" lon="6.91323">
        <ele>792</ele>
        <time>2026-05-09T18:57:27.140Z</time>
      </trkpt>
      <trkpt lat="47.88564" lon="6.91325">
        <ele>792</ele>
        <time>2026-05-09T18:57:28.140Z</time>
      </trkpt>
      <trkpt lat="47.88564" lon="6.91326">
        <ele>792</ele>
        <time>2026-05-09T18:57:29.140Z</time>
      </trkpt>
      <trkpt lat="47.88566" lon="6.91328">
        <ele>792</ele>
        <time>2026-05-09T18:57:30.141Z</time>
      </trkpt>
      <trkpt lat="47.88567" lon="6.91328">
        <ele>792</ele>
        <time>2026-05-09T18:57:31.140Z</time>
      </trkpt>
      <trkpt lat="47.88568" lon="6.91328">
        <ele>792</ele>
        <time>2026-05-09T18:57:32.140Z</time>
      </trkpt>
      <trkpt lat="47.88568" lon="6.91329">
        <ele>793</ele>
        <time>2026-05-09T18:57:33.141Z</time>
      </trkpt>
      <trkpt lat="47.88569" lon="6.9133">
        <ele>793</ele>
        <time>2026-05-09T18:57:34.141Z</time>
      </trkpt>
      <trkpt lat="47.8857" lon="6.9133">
        <ele>793</ele>
        <time>2026-05-09T18:57:35.140Z</time>
      </trkpt>
      <trkpt lat="47.8857" lon="6.91331">
        <ele>793</ele>
        <time>2026-05-09T18:57:36.140Z</time>
      </trkpt>
      <trkpt lat="47.88569" lon="6.91332">
        <ele>793</ele>
        <time>2026-05-09T18:57:37.141Z</time>
      </trkpt>
      <trkpt lat="47.88568" lon="6.91334">
        <ele>794</ele>
        <time>2026-05-09T18:57:38.140Z</time>
      </trkpt>
      <trkpt lat="47.88567" lon="6.91337">
        <ele>794</ele>
        <time>2026-05-09T18:57:39.141Z</time>
      </trkpt>
      <trkpt lat="47.88566" lon="6.91339">
        <ele>794</ele>
        <time>2026-05-09T18:57:40.140Z</time>
      </trkpt>
      <trkpt lat="47.88565" lon="6.91341">
        <ele>794</ele>
        <time>2026-05-09T18:57:41.140Z</time>
      </trkpt>
      <trkpt lat="47.88565" lon="6.91343">
        <ele>794</ele>
        <time>2026-05-09T18:57:42.140Z</time>
      </trkpt>
      <trkpt lat="47.88564" lon="6.91344">
        <ele>795</ele>
        <time>2026-05-09T18:57:43.140Z</time>
      </trkpt>
      <trkpt lat="47.88564" lon="6.91346">
        <ele>795</ele>
        <time>2026-05-09T18:57:44.140Z</time>
      </trkpt>
      <trkpt lat="47.88563" lon="6.91347">
        <ele>795</ele>
        <time>2026-05-09T18:57:45.140Z</time>
      </trkpt>
      <trkpt lat="47.88562" lon="6.91349">
        <ele>795</ele>
        <time>2026-05-09T18:57:46.141Z</time>
      </trkpt>
      <trkpt lat="47.88561" lon="6.91351">
        <ele>795</ele>
        <time>2026-05-09T18:57:47.140Z</time>
      </trkpt>
      <trkpt lat="47.88561" lon="6.91352">
        <ele>795</ele>
        <time>2026-05-09T18:57:48.140Z</time>
      </trkpt>
      <trkpt lat="47.8856" lon="6.91353">
        <ele>794</ele>
        <time>2026-05-09T18:57:49.141Z</time>
      </trkpt>
      <trkpt lat="47.88559" lon="6.91355">
        <ele>794</ele>
        <time>2026-05-09T18:57:50.141Z</time>
      </trkpt>
      <trkpt lat="47.88558" lon="6.91356">
        <ele>794</ele>
        <time>2026-05-09T18:57:51.141Z</time>
      </trkpt>
      <trkpt lat="47.88557" lon="6.91357">
        <ele>794</ele>
        <time>2026-05-09T18:57:52.140Z</time>
      </trkpt>
      <trkpt lat="47.88555" lon="6.91359">
        <ele>794</ele>
        <time>2026-05-09T18:57:53.140Z</time>
      </trkpt>
      <trkpt lat="47.88554" lon="6.9136">
        <ele>794</ele>
        <time>2026-05-09T18:57:54.140Z</time>
      </trkpt>
      <trkpt lat="47.88553" lon="6.91362">
        <ele>794</ele>
        <time>2026-05-09T18:57:55.141Z</time>
      </trkpt>
      <trkpt lat="47.88552" lon="6.91363">
        <ele>795</ele>
        <time>2026-05-09T18:57:56.140Z</time>
      </trkpt>
      <trkpt lat="47.88551" lon="6.91364">
        <ele>795</ele>
        <time>2026-05-09T18:57:57.140Z</time>
      </trkpt>
      <trkpt lat="47.8855" lon="6.91365">
        <ele>795</ele>
        <time>2026-05-09T18:57:58.140Z</time>
      </trkpt>
      <trkpt lat="47.88549" lon="6.91367">
        <ele>796</ele>
        <time>2026-05-09T18:57:59.141Z</time>
      </trkpt>
      <trkpt lat="47.88549" lon="6.91368">
        <ele>796</ele>
        <time>2026-05-09T18:58:00.141Z</time>
      </trkpt>
      <trkpt lat="47.88548" lon="6.91369">
        <ele>796</ele>
        <time>2026-05-09T18:58:01.140Z</time>
      </trkpt>
      <trkpt lat="47.88548" lon="6.91371">
        <ele>796</ele>
        <time>2026-05-09T18:58:02.141Z</time>
      </trkpt>
      <trkpt lat="47.88547" lon="6.91372">
        <ele>797</ele>
        <time>2026-05-09T18:58:03.141Z</time>
      </trkpt>
      <trkpt lat="47.88547" lon="6.91374">
        <ele>797</ele>
        <time>2026-05-09T18:58:04.140Z</time>
      </trkpt>
      <trkpt lat="47.88547" lon="6.91376">
        <ele>797</ele>
        <time>2026-05-09T18:58:05.141Z</time>
      </trkpt>
      <trkpt lat="47.88547" lon="6.91377">
        <ele>797</ele>
        <time>2026-05-09T18:58:06.141Z</time>
      </trkpt>
      <trkpt lat="47.88546" lon="6.91379">
        <ele>797</ele>
        <time>2026-05-09T18:58:07.140Z</time>
      </trkpt>
      <trkpt lat="47.88545" lon="6.91382">
        <ele>797</ele>
        <time>2026-05-09T18:58:08.141Z</time>
      </trkpt>
      <trkpt lat="47.88546" lon="6.91384">
        <ele>797</ele>
        <time>2026-05-09T18:58:09.141Z</time>
      </trkpt>
      <trkpt lat="47.88546" lon="6.91386">
        <ele>797</ele>
        <time>2026-05-09T18:58:10.141Z</time>
      </trkpt>
      <trkpt lat="47.88545" lon="6.91388">
        <ele>797</ele>
        <time>2026-05-09T18:58:11.140Z</time>
      </trkpt>
      <trkpt lat="47.88545" lon="6.91391">
        <ele>796</ele>
        <time>2026-05-09T18:58:12.140Z</time>
      </trkpt>
      <trkpt lat="47.88545" lon="6.91393">
        <ele>796</ele>
        <time>2026-05-09T18:58:13.141Z</time>
      </trkpt>
      <trkpt lat="47.88545" lon="6.91395">
        <ele>796</ele>
        <time>2026-05-09T18:58:14.140Z</time>
      </trkpt>
      <trkpt lat="47.88545" lon="6.91397">
        <ele>796</ele>
        <time>2026-05-09T18:58:15.140Z</time>
      </trkpt>
      <trkpt lat="47.88545" lon="6.91399">
        <ele>796</ele>
        <time>2026-05-09T18:58:16.140Z</time>
      </trkpt>
      <trkpt lat="47.88544" lon="6.91401">
        <ele>795</ele>
        <time>2026-05-09T18:58:17.140Z</time>
      </trkpt>
      <trkpt lat="47.88543" lon="6.91404">
        <ele>794</ele>
        <time>2026-05-09T18:58:18.141Z</time>
      </trkpt>
      <trkpt lat="47.88542" lon="6.91405">
        <ele>794</ele>
        <time>2026-05-09T18:58:19.141Z</time>
      </trkpt>
      <trkpt lat="47.88541" lon="6.91407">
        <ele>794</ele>
        <time>2026-05-09T18:58:20.141Z</time>
      </trkpt>
      <trkpt lat="47.8854" lon="6.91409">
        <ele>793</ele>
        <time>2026-05-09T18:58:21.141Z</time>
      </trkpt>
      <trkpt lat="47.88539" lon="6.9141">
        <ele>792</ele>
        <time>2026-05-09T18:58:22.141Z</time>
      </trkpt>
      <trkpt lat="47.88537" lon="6.91412">
        <ele>792</ele>
        <time>2026-05-09T18:58:23.140Z</time>
      </trkpt>
      <trkpt lat="47.88536" lon="6.91413">
        <ele>791</ele>
        <time>2026-05-09T18:58:24.140Z</time>
      </trkpt>
      <trkpt lat="47.88534" lon="6.91414">
        <ele>791</ele>
        <time>2026-05-09T18:58:25.140Z</time>
      </trkpt>
      <trkpt lat="47.88532" lon="6.91415">
        <ele>790</ele>
        <time>2026-05-09T18:58:26.141Z</time>
      </trkpt>
      <trkpt lat="47.88531" lon="6.91416">
        <ele>791</ele>
        <time>2026-05-09T18:58:27.140Z</time>
      </trkpt>
      <trkpt lat="47.88529" lon="6.91417">
        <ele>791</ele>
        <time>2026-05-09T18:58:28.140Z</time>
      </trkpt>
      <trkpt lat="47.88528" lon="6.91416">
        <ele>791</ele>
        <time>2026-05-09T18:58:29.140Z</time>
      </trkpt>
      <trkpt lat="47.88526" lon="6.91416">
        <ele>791</ele>
        <time>2026-05-09T18:58:30.140Z</time>
      </trkpt>
      <trkpt lat="47.88525" lon="6.91415">
        <ele>791</ele>
        <time>2026-05-09T18:58:31.140Z</time>
      </trkpt>
      <trkpt lat="47.88524" lon="6.91415">
        <ele>791</ele>
        <time>2026-05-09T18:58:32.141Z</time>
      </trkpt>
      <trkpt lat="47.88522" lon="6.91414">
        <ele>791</ele>
        <time>2026-05-09T18:58:33.140Z</time>
      </trkpt>
      <trkpt lat="47.88521" lon="6.91413">
        <ele>791</ele>
        <time>2026-05-09T18:58:34.140Z</time>
      </trkpt>
      <trkpt lat="47.88519" lon="6.91412">
        <ele>791</ele>
        <time>2026-05-09T18:58:35.141Z</time>
      </trkpt>
      <trkpt lat="47.88517" lon="6.91412">
        <ele>790</ele>
        <time>2026-05-09T18:58:36.141Z</time>
      </trkpt>
      <trkpt lat="47.88515" lon="6.91412">
        <ele>790</ele>
        <time>2026-05-09T18:58:37.141Z</time>
      </trkpt>
      <trkpt lat="47.88513" lon="6.91413">
        <ele>789</ele>
        <time>2026-05-09T18:58:38.141Z</time>
      </trkpt>
      <trkpt lat="47.88512" lon="6.91414">
        <ele>789</ele>
        <time>2026-05-09T18:58:39.140Z</time>
      </trkpt>
      <trkpt lat="47.88512" lon="6.91415">
        <ele>789</ele>
        <time>2026-05-09T18:58:40.141Z</time>
      </trkpt>
      <trkpt lat="47.88511" lon="6.91417">
        <ele>788</ele>
        <time>2026-05-09T18:58:41.140Z</time>
      </trkpt>
      <trkpt lat="47.8851" lon="6.91418">
        <ele>788</ele>
        <time>2026-05-09T18:58:42.140Z</time>
      </trkpt>
      <trkpt lat="47.88509" lon="6.91418">
        <ele>788</ele>
        <time>2026-05-09T18:58:43.141Z</time>
      </trkpt>
      <trkpt lat="47.88508" lon="6.91418">
        <ele>788</ele>
        <time>2026-05-09T18:58:44.140Z</time>
      </trkpt>
      <trkpt lat="47.88507" lon="6.91418">
        <ele>788</ele>
        <time>2026-05-09T18:58:45.141Z</time>
      </trkpt>
      <trkpt lat="47.88507" lon="6.91418">
        <ele>789</ele>
        <time>2026-05-09T18:58:46.141Z</time>
      </trkpt>
      <trkpt lat="47.88506" lon="6.91418">
        <ele>789</ele>
        <time>2026-05-09T18:58:47.140Z</time>
      </trkpt>
      <trkpt lat="47.88506" lon="6.91417">
        <ele>789</ele>
        <time>2026-05-09T18:58:48.141Z</time>
      </trkpt>
      <trkpt lat="47.88501" lon="6.91416">
        <ele>789</ele>
        <time>2026-05-09T18:58:54.442Z</time>
      </trkpt>
      <trkpt lat="47.88501" lon="6.91415">
        <ele>789</ele>
        <time>2026-05-09T18:58:55.442Z</time>
      </trkpt>
      <trkpt lat="47.885" lon="6.91414">
        <ele>789</ele>
        <time>2026-05-09T18:58:56.442Z</time>
      </trkpt>
      <trkpt lat="47.885" lon="6.91414">
        <ele>789</ele>
        <time>2026-05-09T18:58:57.443Z</time>
      </trkpt>
      <trkpt lat="47.88499" lon="6.91413">
        <ele>789</ele>
        <time>2026-05-09T18:58:58.443Z</time>
      </trkpt>
      <trkpt lat="47.88498" lon="6.91413">
        <ele>789</ele>
        <time>2026-05-09T18:58:59.443Z</time>
      </trkpt>
      <trkpt lat="47.88498" lon="6.91413">
        <ele>789</ele>
        <time>2026-05-09T18:59:00.443Z</time>
      </trkpt>
      <trkpt lat="47.88496" lon="6.91414">
        <ele>790</ele>
        <time>2026-05-09T18:59:01.443Z</time>
      </trkpt>
      <trkpt lat="47.88495" lon="6.91414">
        <ele>790</ele>
        <time>2026-05-09T18:59:02.443Z</time>
      </trkpt>
      <trkpt lat="47.88494" lon="6.91415">
        <ele>790</ele>
        <time>2026-05-09T18:59:03.442Z</time>
      </trkpt>
      <trkpt lat="47.88493" lon="6.91414">
        <ele>790</ele>
        <time>2026-05-09T18:59:04.443Z</time>
      </trkpt>
      <trkpt lat="47.88492" lon="6.91414">
        <ele>791</ele>
        <time>2026-05-09T18:59:05.442Z</time>
      </trkpt>
      <trkpt lat="47.88492" lon="6.91413">
        <ele>791</ele>
        <time>2026-05-09T18:59:06.443Z</time>
      </trkpt>
      <trkpt lat="47.88491" lon="6.91413">
        <ele>791</ele>
        <time>2026-05-09T18:59:07.442Z</time>
      </trkpt>
      <trkpt lat="47.88489" lon="6.91413">
        <ele>791</ele>
        <time>2026-05-09T18:59:08.443Z</time>
      </trkpt>
      <trkpt lat="47.88488" lon="6.91414">
        <ele>791</ele>
        <time>2026-05-09T18:59:09.442Z</time>
      </trkpt>
      <trkpt lat="47.88486" lon="6.91415">
        <ele>792</ele>
        <time>2026-05-09T18:59:10.443Z</time>
      </trkpt>
      <trkpt lat="47.88485" lon="6.91415">
        <ele>792</ele>
        <time>2026-05-09T18:59:11.442Z</time>
      </trkpt>
      <trkpt lat="47.88484" lon="6.91415">
        <ele>793</ele>
        <time>2026-05-09T18:59:12.443Z</time>
      </trkpt>
      <trkpt lat="47.88483" lon="6.91415">
        <ele>793</ele>
        <time>2026-05-09T18:59:13.442Z</time>
      </trkpt>
      <trkpt lat="47.88483" lon="6.91415">
        <ele>794</ele>
        <time>2026-05-09T18:59:14.443Z</time>
      </trkpt>
      <trkpt lat="47.88482" lon="6.91415">
        <ele>794</ele>
        <time>2026-05-09T18:59:15.443Z</time>
      </trkpt>
      <trkpt lat="47.8848" lon="6.91415">
        <ele>793</ele>
        <time>2026-05-09T18:59:16.442Z</time>
      </trkpt>
      <trkpt lat="47.88479" lon="6.91416">
        <ele>793</ele>
        <time>2026-05-09T18:59:17.443Z</time>
      </trkpt>
      <trkpt lat="47.88479" lon="6.91416">
        <ele>793</ele>
        <time>2026-05-09T18:59:18.442Z</time>
      </trkpt>
      <trkpt lat="47.88478" lon="6.91418">
        <ele>793</ele>
        <time>2026-05-09T18:59:19.443Z</time>
      </trkpt>
      <trkpt lat="47.88476" lon="6.91418">
        <ele>794</ele>
        <time>2026-05-09T18:59:20.442Z</time>
      </trkpt>
      <trkpt lat="47.88475" lon="6.91416">
        <ele>794</ele>
        <time>2026-05-09T18:59:21.443Z</time>
      </trkpt>
      <trkpt lat="47.88474" lon="6.91415">
        <ele>795</ele>
        <time>2026-05-09T18:59:22.443Z</time>
      </trkpt>
      <trkpt lat="47.88474" lon="6.91413">
        <ele>795</ele>
        <time>2026-05-09T18:59:23.443Z</time>
      </trkpt>
      <trkpt lat="47.88473" lon="6.91413">
        <ele>796</ele>
        <time>2026-05-09T18:59:24.442Z</time>
      </trkpt>
      <trkpt lat="47.88472" lon="6.91413">
        <ele>797</ele>
        <time>2026-05-09T18:59:25.443Z</time>
      </trkpt>
      <trkpt lat="47.88472" lon="6.91413">
        <ele>797</ele>
        <time>2026-05-09T18:59:26.442Z</time>
      </trkpt>
      <trkpt lat="47.88471" lon="6.91414">
        <ele>798</ele>
        <time>2026-05-09T18:59:27.442Z</time>
      </trkpt>
      <trkpt lat="47.8847" lon="6.91414">
        <ele>798</ele>
        <time>2026-05-09T18:59:28.442Z</time>
      </trkpt>
      <trkpt lat="47.88469" lon="6.91414">
        <ele>799</ele>
        <time>2026-05-09T18:59:29.443Z</time>
      </trkpt>
      <trkpt lat="47.88468" lon="6.91414">
        <ele>799</ele>
        <time>2026-05-09T18:59:30.442Z</time>
      </trkpt>
      <trkpt lat="47.88467" lon="6.91414">
        <ele>799</ele>
        <time>2026-05-09T18:59:31.442Z</time>
      </trkpt>
      <trkpt lat="47.88466" lon="6.91414">
        <ele>799</ele>
        <time>2026-05-09T18:59:32.442Z</time>
      </trkpt>
      <trkpt lat="47.88465" lon="6.91413">
        <ele>799</ele>
        <time>2026-05-09T18:59:33.442Z</time>
      </trkpt>
      <trkpt lat="47.88464" lon="6.91413">
        <ele>799</ele>
        <time>2026-05-09T18:59:34.443Z</time>
      </trkpt>
      <trkpt lat="47.88463" lon="6.91413">
        <ele>799</ele>
        <time>2026-05-09T18:59:35.442Z</time>
      </trkpt>
      <trkpt lat="47.88462" lon="6.91413">
        <ele>799</ele>
        <time>2026-05-09T18:59:36.443Z</time>
      </trkpt>
      <trkpt lat="47.88461" lon="6.91413">
        <ele>799</ele>
        <time>2026-05-09T18:59:37.443Z</time>
      </trkpt>
      <trkpt lat="47.88461" lon="6.91412">
        <ele>799</ele>
        <time>2026-05-09T18:59:38.443Z</time>
      </trkpt>
      <trkpt lat="47.88461" lon="6.91413">
        <ele>798</ele>
        <time>2026-05-09T18:59:39.443Z</time>
      </trkpt>
      <trkpt lat="47.8846" lon="6.91415">
        <ele>798</ele>
        <time>2026-05-09T18:59:40.443Z</time>
      </trkpt>
      <trkpt lat="47.88459" lon="6.91417">
        <ele>798</ele>
        <time>2026-05-09T18:59:41.443Z</time>
      </trkpt>
      <trkpt lat="47.88459" lon="6.91417">
        <ele>797</ele>
        <time>2026-05-09T18:59:42.442Z</time>
      </trkpt>
      <trkpt lat="47.88458" lon="6.91418">
        <ele>797</ele>
        <time>2026-05-09T18:59:43.442Z</time>
      </trkpt>
      <trkpt lat="47.88457" lon="6.91418">
        <ele>797</ele>
        <time>2026-05-09T18:59:44.443Z</time>
      </trkpt>
      <trkpt lat="47.88456" lon="6.91418">
        <ele>796</ele>
        <time>2026-05-09T18:59:45.442Z</time>
      </trkpt>
      <trkpt lat="47.88455" lon="6.91417">
        <ele>796</ele>
        <time>2026-05-09T18:59:46.443Z</time>
      </trkpt>
      <trkpt lat="47.88455" lon="6.91417">
        <ele>796</ele>
        <time>2026-05-09T18:59:47.443Z</time>
      </trkpt>
      <trkpt lat="47.88455" lon="6.91417">
        <ele>796</ele>
        <time>2026-05-09T18:59:48.443Z</time>
      </trkpt>
      <trkpt lat="47.88455" lon="6.91416">
        <ele>796</ele>
        <time>2026-05-09T18:59:49.443Z</time>
      </trkpt>
      <trkpt lat="47.88454" lon="6.91415">
        <ele>796</ele>
        <time>2026-05-09T18:59:50.442Z</time>
      </trkpt>
      <trkpt lat="47.88455" lon="6.91414">
        <ele>796</ele>
        <time>2026-05-09T18:59:51.443Z</time>
      </trkpt>
      <trkpt lat="47.88456" lon="6.91412">
        <ele>795</ele>
        <time>2026-05-09T18:59:52.442Z</time>
      </trkpt>
      <trkpt lat="47.88456" lon="6.9141">
        <ele>795</ele>
        <time>2026-05-09T18:59:53.443Z</time>
      </trkpt>
      <trkpt lat="47.88457" lon="6.91408">
        <ele>795</ele>
        <time>2026-05-09T18:59:54.442Z</time>
      </trkpt>
      <trkpt lat="47.88458" lon="6.91406">
        <ele>795</ele>
        <time>2026-05-09T18:59:55.443Z</time>
      </trkpt>
      <trkpt lat="47.88458" lon="6.91405">
        <ele>794</ele>
        <time>2026-05-09T18:59:56.442Z</time>
      </trkpt>
      <trkpt lat="47.88459" lon="6.91405">
        <ele>794</ele>
        <time>2026-05-09T18:59:57.443Z</time>
      </trkpt>
      <trkpt lat="47.88459" lon="6.91404">
        <ele>794</ele>
        <time>2026-05-09T18:59:58.442Z</time>
      </trkpt>
      <trkpt lat="47.88459" lon="6.91404">
        <ele>794</ele>
        <time>2026-05-09T18:59:59.443Z</time>
      </trkpt>
      <trkpt lat="47.88459" lon="6.91404">
        <ele>794</ele>
        <time>2026-05-09T19:00:00.442Z</time>
      </trkpt>
      <trkpt lat="47.8846" lon="6.91403">
        <ele>794</ele>
        <time>2026-05-09T19:00:01.442Z</time>
      </trkpt>
      <trkpt lat="47.8846" lon="6.91402">
        <ele>794</ele>
        <time>2026-05-09T19:00:02.442Z</time>
      </trkpt>
      <trkpt lat="47.88461" lon="6.91401">
        <ele>794</ele>
        <time>2026-05-09T19:00:03.443Z</time>
      </trkpt>
      <trkpt lat="47.88461" lon="6.91401">
        <ele>795</ele>
        <time>2026-05-09T19:00:04.443Z</time>
      </trkpt>
      <trkpt lat="47.88461" lon="6.91402">
        <ele>796</ele>
        <time>2026-05-09T19:00:15.671Z</time>
      </trkpt>
      <trkpt lat="47.8846" lon="6.91403">
        <ele>796</ele>
        <time>2026-05-09T19:00:16.670Z</time>
      </trkpt>
      <trkpt lat="47.8846" lon="6.91402">
        <ele>796</ele>
        <time>2026-05-09T19:00:17.671Z</time>
      </trkpt>
      <trkpt lat="47.8846" lon="6.91402">
        <ele>797</ele>
        <time>2026-05-09T19:00:18.671Z</time>
      </trkpt>
      <trkpt lat="47.88459" lon="6.91402">
        <ele>797</ele>
        <time>2026-05-09T19:00:19.670Z</time>
      </trkpt>
      <trkpt lat="47.88458" lon="6.91403">
        <ele>797</ele>
        <time>2026-05-09T19:00:20.670Z</time>
      </trkpt>
      <trkpt lat="47.88457" lon="6.91403">
        <ele>797</ele>
        <time>2026-05-09T19:00:21.670Z</time>
      </trkpt>
      <trkpt lat="47.88455" lon="6.91404">
        <ele>797</ele>
        <time>2026-05-09T19:00:22.670Z</time>
      </trkpt>
      <trkpt lat="47.88454" lon="6.91403">
        <ele>797</ele>
        <time>2026-05-09T19:00:23.670Z</time>
      </trkpt>
      <trkpt lat="47.88454" lon="6.91403">
        <ele>796</ele>
        <time>2026-05-09T19:00:24.671Z</time>
      </trkpt>
      <trkpt lat="47.88453" lon="6.91403">
        <ele>796</ele>
        <time>2026-05-09T19:00:25.671Z</time>
      </trkpt>
      <trkpt lat="47.88452" lon="6.91402">
        <ele>795</ele>
        <time>2026-05-09T19:00:26.670Z</time>
      </trkpt>
      <trkpt lat="47.88451" lon="6.91402">
        <ele>795</ele>
        <time>2026-05-09T19:00:27.670Z</time>
      </trkpt>
      <trkpt lat="47.8845" lon="6.91402">
        <ele>795</ele>
        <time>2026-05-09T19:00:28.671Z</time>
      </trkpt>
      <trkpt lat="47.88449" lon="6.91403">
        <ele>795</ele>
        <time>2026-05-09T19:00:29.671Z</time>
      </trkpt>
      <trkpt lat="47.88448" lon="6.91404">
        <ele>796</ele>
        <time>2026-05-09T19:00:30.671Z</time>
      </trkpt>
      <trkpt lat="47.88447" lon="6.91405">
        <ele>796</ele>
        <time>2026-05-09T19:00:31.671Z</time>
      </trkpt>
      <trkpt lat="47.88446" lon="6.91406">
        <ele>797</ele>
        <time>2026-05-09T19:00:32.671Z</time>
      </trkpt>
      <trkpt lat="47.88445" lon="6.91407">
        <ele>798</ele>
        <time>2026-05-09T19:00:33.670Z</time>
      </trkpt>
      <trkpt lat="47.88444" lon="6.91408">
        <ele>799</ele>
        <time>2026-05-09T19:00:34.670Z</time>
      </trkpt>
      <trkpt lat="47.88443" lon="6.9141">
        <ele>799</ele>
        <time>2026-05-09T19:00:35.671Z</time>
      </trkpt>
      <trkpt lat="47.88442" lon="6.9141">
        <ele>799</ele>
        <time>2026-05-09T19:00:36.670Z</time>
      </trkpt>
      <trkpt lat="47.88441" lon="6.91411">
        <ele>799</ele>
        <time>2026-05-09T19:00:37.671Z</time>
      </trkpt>
      <trkpt lat="47.88441" lon="6.91411">
        <ele>799</ele>
        <time>2026-05-09T19:00:38.671Z</time>
      </trkpt>
      <trkpt lat="47.88442" lon="6.91411">
        <ele>799</ele>
        <time>2026-05-09T19:00:39.670Z</time>
      </trkpt>
      <trkpt lat="47.88442" lon="6.91412">
        <ele>799</ele>
        <time>2026-05-09T19:00:40.670Z</time>
      </trkpt>
      <trkpt lat="47.88442" lon="6.91413">
        <ele>799</ele>
        <time>2026-05-09T19:00:41.671Z</time>
      </trkpt>
      <trkpt lat="47.88442" lon="6.91413">
        <ele>800</ele>
        <time>2026-05-09T19:00:42.671Z</time>
      </trkpt>
      <trkpt lat="47.88441" lon="6.91414">
        <ele>800</ele>
        <time>2026-05-09T19:00:43.671Z</time>
      </trkpt>
      <trkpt lat="47.8844" lon="6.91414">
        <ele>800</ele>
        <time>2026-05-09T19:00:44.671Z</time>
      </trkpt>
      <trkpt lat="47.8844" lon="6.91414">
        <ele>800</ele>
        <time>2026-05-09T19:00:45.671Z</time>
      </trkpt>
      <trkpt lat="47.88439" lon="6.91414">
        <ele>800</ele>
        <time>2026-05-09T19:00:46.670Z</time>
      </trkpt>
      <trkpt lat="47.88438" lon="6.91415">
        <ele>800</ele>
        <time>2026-05-09T19:00:47.670Z</time>
      </trkpt>
      <trkpt lat="47.88438" lon="6.91415">
        <ele>800</ele>
        <time>2026-05-09T19:00:48.670Z</time>
      </trkpt>
      <trkpt lat="47.88437" lon="6.91415">
        <ele>800</ele>
        <time>2026-05-09T19:00:49.670Z</time>
      </trkpt>
      <trkpt lat="47.88436" lon="6.91415">
        <ele>800</ele>
        <time>2026-05-09T19:00:50.671Z</time>
      </trkpt>
      <trkpt lat="47.88436" lon="6.91415">
        <ele>800</ele>
        <time>2026-05-09T19:00:51.671Z</time>
      </trkpt>
      <trkpt lat="47.88435" lon="6.91415">
        <ele>801</ele>
        <time>2026-05-09T19:00:52.670Z</time>
      </trkpt>
      <trkpt lat="47.88434" lon="6.91414">
        <ele>801</ele>
        <time>2026-05-09T19:00:53.670Z</time>
      </trkpt>
      <trkpt lat="47.88434" lon="6.91414">
        <ele>801</ele>
        <time>2026-05-09T19:00:54.670Z</time>
      </trkpt>
      <trkpt lat="47.88433" lon="6.91414">
        <ele>802</ele>
        <time>2026-05-09T19:00:55.670Z</time>
      </trkpt>
      <trkpt lat="47.88433" lon="6.91414">
        <ele>802</ele>
        <time>2026-05-09T19:00:56.670Z</time>
      </trkpt>
      <trkpt lat="47.88432" lon="6.91415">
        <ele>802</ele>
        <time>2026-05-09T19:00:57.671Z</time>
      </trkpt>
      <trkpt lat="47.88432" lon="6.91416">
        <ele>802</ele>
        <time>2026-05-09T19:00:58.671Z</time>
      </trkpt>
      <trkpt lat="47.8843" lon="6.91418">
        <ele>803</ele>
        <time>2026-05-09T19:00:59.671Z</time>
      </trkpt>
      <trkpt lat="47.8843" lon="6.91418">
        <ele>803</ele>
        <time>2026-05-09T19:01:00.670Z</time>
      </trkpt>
      <trkpt lat="47.88429" lon="6.9142">
        <ele>803</ele>
        <time>2026-05-09T19:01:01.670Z</time>
      </trkpt>
      <trkpt lat="47.88429" lon="6.91421">
        <ele>803</ele>
        <time>2026-05-09T19:01:02.670Z</time>
      </trkpt>
      <trkpt lat="47.88428" lon="6.91422">
        <ele>804</ele>
        <time>2026-05-09T19:01:03.670Z</time>
      </trkpt>
      <trkpt lat="47.88428" lon="6.91423">
        <ele>804</ele>
        <time>2026-05-09T19:01:04.670Z</time>
      </trkpt>
      <trkpt lat="47.88427" lon="6.91423">
        <ele>804</ele>
        <time>2026-05-09T19:01:05.670Z</time>
      </trkpt>
      <trkpt lat="47.88427" lon="6.91423">
        <ele>804</ele>
        <time>2026-05-09T19:01:06.670Z</time>
      </trkpt>
      <trkpt lat="47.88426" lon="6.91424">
        <ele>803</ele>
        <time>2026-05-09T19:01:13.082Z</time>
      </trkpt>
      <trkpt lat="47.88426" lon="6.91424">
        <ele>802</ele>
        <time>2026-05-09T19:01:14.082Z</time>
      </trkpt>
      <trkpt lat="47.88425" lon="6.91424">
        <ele>803</ele>
        <time>2026-05-09T19:01:24.284Z</time>
      </trkpt>
      <trkpt lat="47.88424" lon="6.91424">
        <ele>803</ele>
        <time>2026-05-09T19:01:25.284Z</time>
      </trkpt>
      <trkpt lat="47.88423" lon="6.91423">
        <ele>804</ele>
        <time>2026-05-09T19:01:26.283Z</time>
      </trkpt>
      <trkpt lat="47.88423" lon="6.91423">
        <ele>804</ele>
        <time>2026-05-09T19:01:27.283Z</time>
      </trkpt>
      <trkpt lat="47.88422" lon="6.91422">
        <ele>804</ele>
        <time>2026-05-09T19:01:28.283Z</time>
      </trkpt>
      <trkpt lat="47.88422" lon="6.91422">
        <ele>805</ele>
        <time>2026-05-09T19:01:29.283Z</time>
      </trkpt>
      <trkpt lat="47.88422" lon="6.91422">
        <ele>805</ele>
        <time>2026-05-09T19:01:30.283Z</time>
      </trkpt>
      <trkpt lat="47.88421" lon="6.91422">
        <ele>805</ele>
        <time>2026-05-09T19:01:31.284Z</time>
      </trkpt>
      <trkpt lat="47.8842" lon="6.91422">
        <ele>806</ele>
        <time>2026-05-09T19:01:32.284Z</time>
      </trkpt>
      <trkpt lat="47.8842" lon="6.91423">
        <ele>806</ele>
        <time>2026-05-09T19:01:33.283Z</time>
      </trkpt>
      <trkpt lat="47.88419" lon="6.91424">
        <ele>807</ele>
        <time>2026-05-09T19:01:34.283Z</time>
      </trkpt>
      <trkpt lat="47.88418" lon="6.91424">
        <ele>807</ele>
        <time>2026-05-09T19:01:35.283Z</time>
      </trkpt>
      <trkpt lat="47.88417" lon="6.91424">
        <ele>807</ele>
        <time>2026-05-09T19:01:36.283Z</time>
      </trkpt>
      <trkpt lat="47.88416" lon="6.91424">
        <ele>807</ele>
        <time>2026-05-09T19:01:37.283Z</time>
      </trkpt>
      <trkpt lat="47.88416" lon="6.91422">
        <ele>808</ele>
        <time>2026-05-09T19:01:38.283Z</time>
      </trkpt>
      <trkpt lat="47.88416" lon="6.91421">
        <ele>808</ele>
        <time>2026-05-09T19:01:39.283Z</time>
      </trkpt>
      <trkpt lat="47.88415" lon="6.91421">
        <ele>809</ele>
        <time>2026-05-09T19:01:40.283Z</time>
      </trkpt>
      <trkpt lat="47.88415" lon="6.9142">
        <ele>809</ele>
        <time>2026-05-09T19:01:41.283Z</time>
      </trkpt>
      <trkpt lat="47.88414" lon="6.9142">
        <ele>810</ele>
        <time>2026-05-09T19:01:42.283Z</time>
      </trkpt>
      <trkpt lat="47.88413" lon="6.91418">
        <ele>810</ele>
        <time>2026-05-09T19:01:43.284Z</time>
      </trkpt>
      <trkpt lat="47.88413" lon="6.91417">
        <ele>811</ele>
        <time>2026-05-09T19:01:44.284Z</time>
      </trkpt>
      <trkpt lat="47.88412" lon="6.91416">
        <ele>811</ele>
        <time>2026-05-09T19:01:45.283Z</time>
      </trkpt>
      <trkpt lat="47.88412" lon="6.91415">
        <ele>811</ele>
        <time>2026-05-09T19:01:46.283Z</time>
      </trkpt>
      <trkpt lat="47.88411" lon="6.91414">
        <ele>811</ele>
        <time>2026-05-09T19:01:47.284Z</time>
      </trkpt>
      <trkpt lat="47.88411" lon="6.91413">
        <ele>811</ele>
        <time>2026-05-09T19:01:48.283Z</time>
      </trkpt>
      <trkpt lat="47.8841" lon="6.91413">
        <ele>811</ele>
        <time>2026-05-09T19:01:49.284Z</time>
      </trkpt>
      <trkpt lat="47.88409" lon="6.91413">
        <ele>811</ele>
        <time>2026-05-09T19:01:50.284Z</time>
      </trkpt>
      <trkpt lat="47.88408" lon="6.91412">
        <ele>810</ele>
        <time>2026-05-09T19:01:51.284Z</time>
      </trkpt>
      <trkpt lat="47.88407" lon="6.91412">
        <ele>810</ele>
        <time>2026-05-09T19:01:52.283Z</time>
      </trkpt>
      <trkpt lat="47.88406" lon="6.91411">
        <ele>810</ele>
        <time>2026-05-09T19:01:53.284Z</time>
      </trkpt>
      <trkpt lat="47.88406" lon="6.91411">
        <ele>810</ele>
        <time>2026-05-09T19:01:54.283Z</time>
      </trkpt>
      <trkpt lat="47.88405" lon="6.9141">
        <ele>810</ele>
        <time>2026-05-09T19:01:55.283Z</time>
      </trkpt>
      <trkpt lat="47.88405" lon="6.91409">
        <ele>810</ele>
        <time>2026-05-09T19:01:56.283Z</time>
      </trkpt>
      <trkpt lat="47.88404" lon="6.91409">
        <ele>810</ele>
        <time>2026-05-09T19:01:57.283Z</time>
      </trkpt>
      <trkpt lat="47.88403" lon="6.91409">
        <ele>810</ele>
        <time>2026-05-09T19:01:58.283Z</time>
      </trkpt>
      <trkpt lat="47.88403" lon="6.91409">
        <ele>811</ele>
        <time>2026-05-09T19:01:59.283Z</time>
      </trkpt>
      <trkpt lat="47.88402" lon="6.91409">
        <ele>811</ele>
        <time>2026-05-09T19:02:00.283Z</time>
      </trkpt>
      <trkpt lat="47.88401" lon="6.91409">
        <ele>811</ele>
        <time>2026-05-09T19:02:01.283Z</time>
      </trkpt>
      <trkpt lat="47.884" lon="6.91408">
        <ele>811</ele>
        <time>2026-05-09T19:02:02.283Z</time>
      </trkpt>
      <trkpt lat="47.88399" lon="6.91407">
        <ele>811</ele>
        <time>2026-05-09T19:02:03.283Z</time>
      </trkpt>
      <trkpt lat="47.88397" lon="6.91405">
        <ele>812</ele>
        <time>2026-05-09T19:02:04.284Z</time>
      </trkpt>
      <trkpt lat="47.88396" lon="6.91404">
        <ele>813</ele>
        <time>2026-05-09T19:02:05.284Z</time>
      </trkpt>
      <trkpt lat="47.88395" lon="6.91402">
        <ele>814</ele>
        <time>2026-05-09T19:02:06.283Z</time>
      </trkpt>
      <trkpt lat="47.88394" lon="6.914">
        <ele>815</ele>
        <time>2026-05-09T19:02:07.284Z</time>
      </trkpt>
      <trkpt lat="47.88392" lon="6.91399">
        <ele>816</ele>
        <time>2026-05-09T19:02:08.284Z</time>
      </trkpt>
      <trkpt lat="47.88391" lon="6.91398">
        <ele>817</ele>
        <time>2026-05-09T19:02:09.283Z</time>
      </trkpt>
      <trkpt lat="47.8839" lon="6.91398">
        <ele>817</ele>
        <time>2026-05-09T19:02:10.283Z</time>
      </trkpt>
      <trkpt lat="47.88388" lon="6.91398">
        <ele>818</ele>
        <time>2026-05-09T19:02:11.283Z</time>
      </trkpt>
      <trkpt lat="47.88387" lon="6.91398">
        <ele>819</ele>
        <time>2026-05-09T19:02:12.283Z</time>
      </trkpt>
      <trkpt lat="47.88386" lon="6.91398">
        <ele>819</ele>
        <time>2026-05-09T19:02:13.283Z</time>
      </trkpt>
      <trkpt lat="47.88385" lon="6.91398">
        <ele>820</ele>
        <time>2026-05-09T19:02:14.284Z</time>
      </trkpt>
      <trkpt lat="47.88385" lon="6.91398">
        <ele>821</ele>
        <time>2026-05-09T19:02:15.284Z</time>
      </trkpt>
      <trkpt lat="47.88384" lon="6.91398">
        <ele>822</ele>
        <time>2026-05-09T19:02:16.284Z</time>
      </trkpt>
      <trkpt lat="47.88383" lon="6.91399">
        <ele>823</ele>
        <time>2026-05-09T19:02:17.283Z</time>
      </trkpt>
      <trkpt lat="47.88382" lon="6.91398">
        <ele>823</ele>
        <time>2026-05-09T19:02:18.284Z</time>
      </trkpt>
      <trkpt lat="47.88382" lon="6.91397">
        <ele>824</ele>
        <time>2026-05-09T19:02:19.284Z</time>
      </trkpt>
      <trkpt lat="47.88381" lon="6.91397">
        <ele>824</ele>
        <time>2026-05-09T19:02:20.284Z</time>
      </trkpt>
      <trkpt lat="47.8838" lon="6.91396">
        <ele>824</ele>
        <time>2026-05-09T19:02:21.283Z</time>
      </trkpt>
      <trkpt lat="47.88379" lon="6.91397">
        <ele>825</ele>
        <time>2026-05-09T19:02:22.284Z</time>
      </trkpt>
      <trkpt lat="47.88378" lon="6.91397">
        <ele>825</ele>
        <time>2026-05-09T19:02:23.283Z</time>
      </trkpt>
      <trkpt lat="47.88377" lon="6.91397">
        <ele>826</ele>
        <time>2026-05-09T19:02:24.283Z</time>
      </trkpt>
      <trkpt lat="47.88376" lon="6.91398">
        <ele>826</ele>
        <time>2026-05-09T19:02:25.284Z</time>
      </trkpt>
      <trkpt lat="47.88376" lon="6.914">
        <ele>826</ele>
        <time>2026-05-09T19:02:26.284Z</time>
      </trkpt>
      <trkpt lat="47.88375" lon="6.91401">
        <ele>826</ele>
        <time>2026-05-09T19:02:27.283Z</time>
      </trkpt>
      <trkpt lat="47.88374" lon="6.91403">
        <ele>826</ele>
        <time>2026-05-09T19:02:28.284Z</time>
      </trkpt>
      <trkpt lat="47.88373" lon="6.91404">
        <ele>826</ele>
        <time>2026-05-09T19:02:29.284Z</time>
      </trkpt>
      <trkpt lat="47.88372" lon="6.91405">
        <ele>826</ele>
        <time>2026-05-09T19:02:30.284Z</time>
      </trkpt>
      <trkpt lat="47.88371" lon="6.91408">
        <ele>826</ele>
        <time>2026-05-09T19:02:31.283Z</time>
      </trkpt>
      <trkpt lat="47.8837" lon="6.9141">
        <ele>825</ele>
        <time>2026-05-09T19:02:32.283Z</time>
      </trkpt>
      <trkpt lat="47.88369" lon="6.91413">
        <ele>825</ele>
        <time>2026-05-09T19:02:33.283Z</time>
      </trkpt>
      <trkpt lat="47.88368" lon="6.91414">
        <ele>825</ele>
        <time>2026-05-09T19:02:34.283Z</time>
      </trkpt>
      <trkpt lat="47.88367" lon="6.91416">
        <ele>825</ele>
        <time>2026-05-09T19:02:35.283Z</time>
      </trkpt>
      <trkpt lat="47.88366" lon="6.91417">
        <ele>825</ele>
        <time>2026-05-09T19:02:36.284Z</time>
      </trkpt>
      <trkpt lat="47.88365" lon="6.91419">
        <ele>825</ele>
        <time>2026-05-09T19:02:37.283Z</time>
      </trkpt>
      <trkpt lat="47.88365" lon="6.9142">
        <ele>825</ele>
        <time>2026-05-09T19:02:38.284Z</time>
      </trkpt>
      <trkpt lat="47.88364" lon="6.91422">
        <ele>825</ele>
        <time>2026-05-09T19:02:39.284Z</time>
      </trkpt>
      <trkpt lat="47.88362" lon="6.91423">
        <ele>825</ele>
        <time>2026-05-09T19:02:40.284Z</time>
      </trkpt>
      <trkpt lat="47.88361" lon="6.91425">
        <ele>826</ele>
        <time>2026-05-09T19:02:41.283Z</time>
      </trkpt>
      <trkpt lat="47.8836" lon="6.91427">
        <ele>826</ele>
        <time>2026-05-09T19:02:42.284Z</time>
      </trkpt>
      <trkpt lat="47.88359" lon="6.91429">
        <ele>826</ele>
        <time>2026-05-09T19:02:43.284Z</time>
      </trkpt>
      <trkpt lat="47.88358" lon="6.91431">
        <ele>826</ele>
        <time>2026-05-09T19:02:44.284Z</time>
      </trkpt>
      <trkpt lat="47.88357" lon="6.91433">
        <ele>826</ele>
        <time>2026-05-09T19:02:45.284Z</time>
      </trkpt>
      <trkpt lat="47.88356" lon="6.91434">
        <ele>826</ele>
        <time>2026-05-09T19:02:46.284Z</time>
      </trkpt>
      <trkpt lat="47.88355" lon="6.91435">
        <ele>826</ele>
        <time>2026-05-09T19:02:47.283Z</time>
      </trkpt>
      <trkpt lat="47.88354" lon="6.91435">
        <ele>826</ele>
        <time>2026-05-09T19:02:48.284Z</time>
      </trkpt>
      <trkpt lat="47.88352" lon="6.91437">
        <ele>826</ele>
        <time>2026-05-09T19:02:49.284Z</time>
      </trkpt>
      <trkpt lat="47.88351" lon="6.91438">
        <ele>826</ele>
        <time>2026-05-09T19:02:50.284Z</time>
      </trkpt>
      <trkpt lat="47.8835" lon="6.91439">
        <ele>826</ele>
        <time>2026-05-09T19:02:51.283Z</time>
      </trkpt>
      <trkpt lat="47.88349" lon="6.9144">
        <ele>826</ele>
        <time>2026-05-09T19:02:52.284Z</time>
      </trkpt>
      <trkpt lat="47.88348" lon="6.91441">
        <ele>826</ele>
        <time>2026-05-09T19:02:53.283Z</time>
      </trkpt>
      <trkpt lat="47.88347" lon="6.91441">
        <ele>826</ele>
        <time>2026-05-09T19:02:54.284Z</time>
      </trkpt>
      <trkpt lat="47.88346" lon="6.91442">
        <ele>826</ele>
        <time>2026-05-09T19:02:55.284Z</time>
      </trkpt>
      <trkpt lat="47.88345" lon="6.91443">
        <ele>826</ele>
        <time>2026-05-09T19:02:56.284Z</time>
      </trkpt>
      <trkpt lat="47.88344" lon="6.91444">
        <ele>825</ele>
        <time>2026-05-09T19:02:57.284Z</time>
      </trkpt>
      <trkpt lat="47.88342" lon="6.91445">
        <ele>825</ele>
        <time>2026-05-09T19:02:58.284Z</time>
      </trkpt>
      <trkpt lat="47.88341" lon="6.91447">
        <ele>825</ele>
        <time>2026-05-09T19:02:59.284Z</time>
      </trkpt>
      <trkpt lat="47.8834" lon="6.91449">
        <ele>824</ele>
        <time>2026-05-09T19:03:00.283Z</time>
      </trkpt>
      <trkpt lat="47.88339" lon="6.91449">
        <ele>824</ele>
        <time>2026-05-09T19:03:01.284Z</time>
      </trkpt>
      <trkpt lat="47.88338" lon="6.91451">
        <ele>823</ele>
        <time>2026-05-09T19:03:02.283Z</time>
      </trkpt>
      <trkpt lat="47.88337" lon="6.91451">
        <ele>823</ele>
        <time>2026-05-09T19:03:03.283Z</time>
      </trkpt>
      <trkpt lat="47.88336" lon="6.91452">
        <ele>823</ele>
        <time>2026-05-09T19:03:04.283Z</time>
      </trkpt>
      <trkpt lat="47.88335" lon="6.91453">
        <ele>823</ele>
        <time>2026-05-09T19:03:05.283Z</time>
      </trkpt>
      <trkpt lat="47.88334" lon="6.91453">
        <ele>822</ele>
        <time>2026-05-09T19:03:06.283Z</time>
      </trkpt>
      <trkpt lat="47.88333" lon="6.91454">
        <ele>822</ele>
        <time>2026-05-09T19:03:07.283Z</time>
      </trkpt>
      <trkpt lat="47.88332" lon="6.91456">
        <ele>822</ele>
        <time>2026-05-09T19:03:08.284Z</time>
      </trkpt>
      <trkpt lat="47.88331" lon="6.91458">
        <ele>822</ele>
        <time>2026-05-09T19:03:09.283Z</time>
      </trkpt>
      <trkpt lat="47.8833" lon="6.91459">
        <ele>822</ele>
        <time>2026-05-09T19:03:10.283Z</time>
      </trkpt>
      <trkpt lat="47.88328" lon="6.91462">
        <ele>822</ele>
        <time>2026-05-09T19:03:11.283Z</time>
      </trkpt>
      <trkpt lat="47.88327" lon="6.91465">
        <ele>822</ele>
        <time>2026-05-09T19:03:12.284Z</time>
      </trkpt>
      <trkpt lat="47.88325" lon="6.91467">
        <ele>823</ele>
        <time>2026-05-09T19:03:13.283Z</time>
      </trkpt>
      <trkpt lat="47.88324" lon="6.91468">
        <ele>823</ele>
        <time>2026-05-09T19:03:14.283Z</time>
      </trkpt>
      <trkpt lat="47.88324" lon="6.91468">
        <ele>823</ele>
        <time>2026-05-09T19:03:15.283Z</time>
      </trkpt>
      <trkpt lat="47.88323" lon="6.91469">
        <ele>823</ele>
        <time>2026-05-09T19:03:16.283Z</time>
      </trkpt>
      <trkpt lat="47.88321" lon="6.9147">
        <ele>824</ele>
        <time>2026-05-09T19:03:17.284Z</time>
      </trkpt>
      <trkpt lat="47.8832" lon="6.91471">
        <ele>824</ele>
        <time>2026-05-09T19:03:18.283Z</time>
      </trkpt>
      <trkpt lat="47.88319" lon="6.91471">
        <ele>824</ele>
        <time>2026-05-09T19:03:19.283Z</time>
      </trkpt>
      <trkpt lat="47.88319" lon="6.91472">
        <ele>824</ele>
        <time>2026-05-09T19:03:20.283Z</time>
      </trkpt>
      <trkpt lat="47.88318" lon="6.91472">
        <ele>825</ele>
        <time>2026-05-09T19:03:21.283Z</time>
      </trkpt>
      <trkpt lat="47.88318" lon="6.91472">
        <ele>825</ele>
        <time>2026-05-09T19:03:22.283Z</time>
      </trkpt>
      <trkpt lat="47.88317" lon="6.91473">
        <ele>825</ele>
        <time>2026-05-09T19:03:23.283Z</time>
      </trkpt>
      <trkpt lat="47.88315" lon="6.91476">
        <ele>826</ele>
        <time>2026-05-09T19:03:24.283Z</time>
      </trkpt>
      <trkpt lat="47.88315" lon="6.91478">
        <ele>826</ele>
        <time>2026-05-09T19:03:25.283Z</time>
      </trkpt>
      <trkpt lat="47.88314" lon="6.9148">
        <ele>826</ele>
        <time>2026-05-09T19:03:26.283Z</time>
      </trkpt>
      <trkpt lat="47.88312" lon="6.91482">
        <ele>826</ele>
        <time>2026-05-09T19:03:27.283Z</time>
      </trkpt>
      <trkpt lat="47.88311" lon="6.91484">
        <ele>826</ele>
        <time>2026-05-09T19:03:28.284Z</time>
      </trkpt>
      <trkpt lat="47.8831" lon="6.91485">
        <ele>826</ele>
        <time>2026-05-09T19:03:29.283Z</time>
      </trkpt>
      <trkpt lat="47.88309" lon="6.91485">
        <ele>825</ele>
        <time>2026-05-09T19:03:30.284Z</time>
      </trkpt>
      <trkpt lat="47.88308" lon="6.91486">
        <ele>825</ele>
        <time>2026-05-09T19:03:31.284Z</time>
      </trkpt>
      <trkpt lat="47.88306" lon="6.91487">
        <ele>825</ele>
        <time>2026-05-09T19:03:32.284Z</time>
      </trkpt>
      <trkpt lat="47.88305" lon="6.91487">
        <ele>824</ele>
        <time>2026-05-09T19:03:33.283Z</time>
      </trkpt>
      <trkpt lat="47.88304" lon="6.91487">
        <ele>824</ele>
        <time>2026-05-09T19:03:34.283Z</time>
      </trkpt>
      <trkpt lat="47.88304" lon="6.91487">
        <ele>824</ele>
        <time>2026-05-09T19:03:35.283Z</time>
      </trkpt>
      <trkpt lat="47.88304" lon="6.91487">
        <ele>823</ele>
        <time>2026-05-09T19:03:36.284Z</time>
      </trkpt>
      <trkpt lat="47.88304" lon="6.91487">
        <ele>823</ele>
        <time>2026-05-09T19:03:37.284Z</time>
      </trkpt>
      <trkpt lat="47.88303" lon="6.91487">
        <ele>823</ele>
        <time>2026-05-09T19:03:38.284Z</time>
      </trkpt>
      <trkpt lat="47.88302" lon="6.91488">
        <ele>823</ele>
        <time>2026-05-09T19:03:39.284Z</time>
      </trkpt>
      <trkpt lat="47.88301" lon="6.9149">
        <ele>823</ele>
        <time>2026-05-09T19:03:40.284Z</time>
      </trkpt>
      <trkpt lat="47.883" lon="6.91491">
        <ele>823</ele>
        <time>2026-05-09T19:03:41.284Z</time>
      </trkpt>
      <trkpt lat="47.88299" lon="6.91492">
        <ele>823</ele>
        <time>2026-05-09T19:03:42.283Z</time>
      </trkpt>
      <trkpt lat="47.88297" lon="6.91493">
        <ele>823</ele>
        <time>2026-05-09T19:03:43.284Z</time>
      </trkpt>
      <trkpt lat="47.88295" lon="6.91494">
        <ele>823</ele>
        <time>2026-05-09T19:03:44.283Z</time>
      </trkpt>
      <trkpt lat="47.88294" lon="6.91495">
        <ele>823</ele>
        <time>2026-05-09T19:03:45.283Z</time>
      </trkpt>
      <trkpt lat="47.88293" lon="6.91495">
        <ele>824</ele>
        <time>2026-05-09T19:03:46.284Z</time>
      </trkpt>
      <trkpt lat="47.88292" lon="6.91495">
        <ele>824</ele>
        <time>2026-05-09T19:03:47.284Z</time>
      </trkpt>
      <trkpt lat="47.88291" lon="6.91495">
        <ele>824</ele>
        <time>2026-05-09T19:03:48.283Z</time>
      </trkpt>
      <trkpt lat="47.8829" lon="6.91494">
        <ele>825</ele>
        <time>2026-05-09T19:03:49.283Z</time>
      </trkpt>
      <trkpt lat="47.88288" lon="6.91494">
        <ele>825</ele>
        <time>2026-05-09T19:03:50.284Z</time>
      </trkpt>
      <trkpt lat="47.88287" lon="6.91495">
        <ele>825</ele>
        <time>2026-05-09T19:03:51.284Z</time>
      </trkpt>
      <trkpt lat="47.88286" lon="6.91497">
        <ele>825</ele>
        <time>2026-05-09T19:03:52.283Z</time>
      </trkpt>
      <trkpt lat="47.88284" lon="6.91498">
        <ele>826</ele>
        <time>2026-05-09T19:03:53.284Z</time>
      </trkpt>
      <trkpt lat="47.88283" lon="6.91499">
        <ele>826</ele>
        <time>2026-05-09T19:03:54.284Z</time>
      </trkpt>
      <trkpt lat="47.88283" lon="6.915">
        <ele>826</ele>
        <time>2026-05-09T19:03:55.284Z</time>
      </trkpt>
      <trkpt lat="47.88282" lon="6.91501">
        <ele>826</ele>
        <time>2026-05-09T19:03:56.284Z</time>
      </trkpt>
      <trkpt lat="47.88281" lon="6.91501">
        <ele>826</ele>
        <time>2026-05-09T19:03:57.284Z</time>
      </trkpt>
      <trkpt lat="47.8828" lon="6.91502">
        <ele>826</ele>
        <time>2026-05-09T19:03:58.283Z</time>
      </trkpt>
      <trkpt lat="47.8828" lon="6.91503">
        <ele>825</ele>
        <time>2026-05-09T19:03:59.283Z</time>
      </trkpt>
      <trkpt lat="47.88278" lon="6.91504">
        <ele>825</ele>
        <time>2026-05-09T19:04:00.284Z</time>
      </trkpt>
      <trkpt lat="47.88277" lon="6.91506">
        <ele>824</ele>
        <time>2026-05-09T19:04:01.284Z</time>
      </trkpt>
      <trkpt lat="47.88276" lon="6.91507">
        <ele>824</ele>
        <time>2026-05-09T19:04:02.283Z</time>
      </trkpt>
      <trkpt lat="47.88275" lon="6.91508">
        <ele>824</ele>
        <time>2026-05-09T19:04:03.284Z</time>
      </trkpt>
      <trkpt lat="47.88274" lon="6.91509">
        <ele>823</ele>
        <time>2026-05-09T19:04:04.284Z</time>
      </trkpt>
      <trkpt lat="47.88273" lon="6.9151">
        <ele>824</ele>
        <time>2026-05-09T19:04:05.284Z</time>
      </trkpt>
      <trkpt lat="47.88271" lon="6.91511">
        <ele>824</ele>
        <time>2026-05-09T19:04:06.284Z</time>
      </trkpt>
      <trkpt lat="47.8827" lon="6.91512">
        <ele>824</ele>
        <time>2026-05-09T19:04:07.283Z</time>
      </trkpt>
      <trkpt lat="47.88268" lon="6.91514">
        <ele>823</ele>
        <time>2026-05-09T19:04:08.283Z</time>
      </trkpt>
      <trkpt lat="47.88267" lon="6.91515">
        <ele>823</ele>
        <time>2026-05-09T19:04:09.283Z</time>
      </trkpt>
      <trkpt lat="47.88265" lon="6.91517">
        <ele>823</ele>
        <time>2026-05-09T19:04:10.284Z</time>
      </trkpt>
      <trkpt lat="47.88264" lon="6.91517">
        <ele>823</ele>
        <time>2026-05-09T19:04:11.284Z</time>
      </trkpt>
      <trkpt lat="47.88263" lon="6.91518">
        <ele>823</ele>
        <time>2026-05-09T19:04:12.284Z</time>
      </trkpt>
      <trkpt lat="47.88262" lon="6.91519">
        <ele>823</ele>
        <time>2026-05-09T19:04:13.284Z</time>
      </trkpt>
      <trkpt lat="47.88262" lon="6.91521">
        <ele>823</ele>
        <time>2026-05-09T19:04:14.284Z</time>
      </trkpt>
      <trkpt lat="47.88259" lon="6.91523">
        <ele>823</ele>
        <time>2026-05-09T19:04:15.283Z</time>
      </trkpt>
      <trkpt lat="47.88258" lon="6.91524">
        <ele>823</ele>
        <time>2026-05-09T19:04:16.284Z</time>
      </trkpt>
      <trkpt lat="47.88257" lon="6.91525">
        <ele>824</ele>
        <time>2026-05-09T19:04:17.284Z</time>
      </trkpt>
      <trkpt lat="47.88256" lon="6.91527">
        <ele>825</ele>
        <time>2026-05-09T19:04:18.283Z</time>
      </trkpt>
      <trkpt lat="47.88255" lon="6.91527">
        <ele>825</ele>
        <time>2026-05-09T19:04:19.284Z</time>
      </trkpt>
      <trkpt lat="47.88254" lon="6.91528">
        <ele>826</ele>
        <time>2026-05-09T19:04:20.284Z</time>
      </trkpt>
      <trkpt lat="47.88253" lon="6.91529">
        <ele>826</ele>
        <time>2026-05-09T19:04:21.284Z</time>
      </trkpt>
      <trkpt lat="47.88252" lon="6.9153">
        <ele>826</ele>
        <time>2026-05-09T19:04:22.283Z</time>
      </trkpt>
      <trkpt lat="47.88252" lon="6.9153">
        <ele>826</ele>
        <time>2026-05-09T19:04:23.284Z</time>
      </trkpt>
      <trkpt lat="47.88251" lon="6.91531">
        <ele>826</ele>
        <time>2026-05-09T19:04:24.284Z</time>
      </trkpt>
      <trkpt lat="47.88249" lon="6.91532">
        <ele>826</ele>
        <time>2026-05-09T19:04:25.284Z</time>
      </trkpt>
      <trkpt lat="47.88247" lon="6.91532">
        <ele>826</ele>
        <time>2026-05-09T19:04:26.284Z</time>
      </trkpt>
      <trkpt lat="47.88246" lon="6.91533">
        <ele>825</ele>
        <time>2026-05-09T19:04:27.283Z</time>
      </trkpt>
      <trkpt lat="47.88244" lon="6.91533">
        <ele>824</ele>
        <time>2026-05-09T19:04:28.283Z</time>
      </trkpt>
      <trkpt lat="47.88242" lon="6.91534">
        <ele>824</ele>
        <time>2026-05-09T19:04:29.283Z</time>
      </trkpt>
      <trkpt lat="47.88241" lon="6.91533">
        <ele>823</ele>
        <time>2026-05-09T19:04:30.283Z</time>
      </trkpt>
      <trkpt lat="47.8824" lon="6.91533">
        <ele>823</ele>
        <time>2026-05-09T19:04:31.283Z</time>
      </trkpt>
      <trkpt lat="47.88238" lon="6.91532">
        <ele>822</ele>
        <time>2026-05-09T19:04:32.284Z</time>
      </trkpt>
      <trkpt lat="47.88237" lon="6.91532">
        <ele>822</ele>
        <time>2026-05-09T19:04:33.284Z</time>
      </trkpt>
      <trkpt lat="47.88236" lon="6.91532">
        <ele>821</ele>
        <time>2026-05-09T19:04:34.284Z</time>
      </trkpt>
      <trkpt lat="47.88234" lon="6.91531">
        <ele>821</ele>
        <time>2026-05-09T19:04:35.284Z</time>
      </trkpt>
      <trkpt lat="47.88233" lon="6.91531">
        <ele>820</ele>
        <time>2026-05-09T19:04:36.284Z</time>
      </trkpt>
      <trkpt lat="47.88232" lon="6.9153">
        <ele>820</ele>
        <time>2026-05-09T19:04:37.284Z</time>
      </trkpt>
      <trkpt lat="47.8823" lon="6.91529">
        <ele>820</ele>
        <time>2026-05-09T19:04:38.283Z</time>
      </trkpt>
      <trkpt lat="47.88229" lon="6.91529">
        <ele>819</ele>
        <time>2026-05-09T19:04:39.284Z</time>
      </trkpt>
      <trkpt lat="47.88227" lon="6.91528">
        <ele>819</ele>
        <time>2026-05-09T19:04:40.284Z</time>
      </trkpt>
      <trkpt lat="47.88225" lon="6.91528">
        <ele>819</ele>
        <time>2026-05-09T19:04:41.283Z</time>
      </trkpt>
      <trkpt lat="47.88224" lon="6.91528">
        <ele>819</ele>
        <time>2026-05-09T19:04:42.283Z</time>
      </trkpt>
      <trkpt lat="47.88221" lon="6.91529">
        <ele>820</ele>
        <time>2026-05-09T19:04:43.284Z</time>
      </trkpt>
      <trkpt lat="47.8822" lon="6.9153">
        <ele>821</ele>
        <time>2026-05-09T19:04:44.284Z</time>
      </trkpt>
      <trkpt lat="47.88219" lon="6.91531">
        <ele>821</ele>
        <time>2026-05-09T19:04:45.284Z</time>
      </trkpt>
      <trkpt lat="47.88218" lon="6.91531">
        <ele>822</ele>
        <time>2026-05-09T19:04:46.283Z</time>
      </trkpt>
      <trkpt lat="47.88216" lon="6.91533">
        <ele>823</ele>
        <time>2026-05-09T19:04:47.283Z</time>
      </trkpt>
      <trkpt lat="47.88215" lon="6.91535">
        <ele>824</ele>
        <time>2026-05-09T19:04:48.284Z</time>
      </trkpt>
      <trkpt lat="47.88214" lon="6.91535">
        <ele>824</ele>
        <time>2026-05-09T19:04:49.284Z</time>
      </trkpt>
      <trkpt lat="47.88213" lon="6.91537">
        <ele>825</ele>
        <time>2026-05-09T19:04:50.284Z</time>
      </trkpt>
      <trkpt lat="47.88212" lon="6.91538">
        <ele>826</ele>
        <time>2026-05-09T19:04:51.284Z</time>
      </trkpt>
      <trkpt lat="47.88211" lon="6.91539">
        <ele>827</ele>
        <time>2026-05-09T19:04:52.284Z</time>
      </trkpt>
      <trkpt lat="47.8821" lon="6.91539">
        <ele>828</ele>
        <time>2026-05-09T19:04:53.283Z</time>
      </trkpt>
      <trkpt lat="47.88209" lon="6.9154">
        <ele>829</ele>
        <time>2026-05-09T19:04:54.283Z</time>
      </trkpt>
      <trkpt lat="47.88208" lon="6.91541">
        <ele>829</ele>
        <time>2026-05-09T19:04:55.283Z</time>
      </trkpt>
      <trkpt lat="47.88207" lon="6.91543">
        <ele>830</ele>
        <time>2026-05-09T19:04:56.283Z</time>
      </trkpt>
      <trkpt lat="47.88206" lon="6.91543">
        <ele>830</ele>
        <time>2026-05-09T19:04:57.284Z</time>
      </trkpt>
      <trkpt lat="47.88205" lon="6.91544">
        <ele>831</ele>
        <time>2026-05-09T19:04:58.284Z</time>
      </trkpt>
      <trkpt lat="47.88204" lon="6.91544">
        <ele>831</ele>
        <time>2026-05-09T19:04:59.284Z</time>
      </trkpt>
      <trkpt lat="47.88203" lon="6.91545">
        <ele>831</ele>
        <time>2026-05-09T19:05:00.284Z</time>
      </trkpt>
      <trkpt lat="47.88202" lon="6.91545">
        <ele>832</ele>
        <time>2026-05-09T19:05:01.284Z</time>
      </trkpt>
      <trkpt lat="47.88201" lon="6.91546">
        <ele>832</ele>
        <time>2026-05-09T19:05:02.283Z</time>
      </trkpt>
      <trkpt lat="47.882" lon="6.91546">
        <ele>832</ele>
        <time>2026-05-09T19:05:03.283Z</time>
      </trkpt>
      <trkpt lat="47.88199" lon="6.91547">
        <ele>832</ele>
        <time>2026-05-09T19:05:04.283Z</time>
      </trkpt>
      <trkpt lat="47.88198" lon="6.91548">
        <ele>832</ele>
        <time>2026-05-09T19:05:05.283Z</time>
      </trkpt>
      <trkpt lat="47.88195" lon="6.91553">
        <ele>832</ele>
        <time>2026-05-09T19:05:06.283Z</time>
      </trkpt>
      <trkpt lat="47.88193" lon="6.91557">
        <ele>832</ele>
        <time>2026-05-09T19:05:07.283Z</time>
      </trkpt>
      <trkpt lat="47.8819" lon="6.91562">
        <ele>832</ele>
        <time>2026-05-09T19:05:08.284Z</time>
      </trkpt>
      <trkpt lat="47.88188" lon="6.91566">
        <ele>832</ele>
        <time>2026-05-09T19:05:09.284Z</time>
      </trkpt>
      <trkpt lat="47.88186" lon="6.9157">
        <ele>832</ele>
        <time>2026-05-09T19:05:10.283Z</time>
      </trkpt>
      <trkpt lat="47.88184" lon="6.91572">
        <ele>832</ele>
        <time>2026-05-09T19:05:11.284Z</time>
      </trkpt>
      <trkpt lat="47.88183" lon="6.91572">
        <ele>831</ele>
        <time>2026-05-09T19:05:12.283Z</time>
      </trkpt>
      <trkpt lat="47.88183" lon="6.91571">
        <ele>831</ele>
        <time>2026-05-09T19:05:13.284Z</time>
      </trkpt>
      <trkpt lat="47.88182" lon="6.9157">
        <ele>831</ele>
        <time>2026-05-09T19:05:14.284Z</time>
      </trkpt>
      <trkpt lat="47.88181" lon="6.91572">
        <ele>831</ele>
        <time>2026-05-09T19:05:15.284Z</time>
      </trkpt>
      <trkpt lat="47.8818" lon="6.91572">
        <ele>831</ele>
        <time>2026-05-09T19:05:16.284Z</time>
      </trkpt>
      <trkpt lat="47.88179" lon="6.91573">
        <ele>832</ele>
        <time>2026-05-09T19:05:17.283Z</time>
      </trkpt>
      <trkpt lat="47.88177" lon="6.91575">
        <ele>833</ele>
        <time>2026-05-09T19:05:18.284Z</time>
      </trkpt>
      <trkpt lat="47.88175" lon="6.91576">
        <ele>833</ele>
        <time>2026-05-09T19:05:19.284Z</time>
      </trkpt>
      <trkpt lat="47.88174" lon="6.91577">
        <ele>834</ele>
        <time>2026-05-09T19:05:20.284Z</time>
      </trkpt>
      <trkpt lat="47.88174" lon="6.91576">
        <ele>834</ele>
        <time>2026-05-09T19:05:21.284Z</time>
      </trkpt>
      <trkpt lat="47.88174" lon="6.91575">
        <ele>834</ele>
        <time>2026-05-09T19:05:22.284Z</time>
      </trkpt>
      <trkpt lat="47.88173" lon="6.91576">
        <ele>835</ele>
        <time>2026-05-09T19:05:23.284Z</time>
      </trkpt>
      <trkpt lat="47.88172" lon="6.91576">
        <ele>834</ele>
        <time>2026-05-09T19:05:24.284Z</time>
      </trkpt>
      <trkpt lat="47.8817" lon="6.91577">
        <ele>834</ele>
        <time>2026-05-09T19:05:25.284Z</time>
      </trkpt>
      <trkpt lat="47.88168" lon="6.91577">
        <ele>834</ele>
        <time>2026-05-09T19:05:26.283Z</time>
      </trkpt>
      <trkpt lat="47.88167" lon="6.91577">
        <ele>834</ele>
        <time>2026-05-09T19:05:27.284Z</time>
      </trkpt>
      <trkpt lat="47.88167" lon="6.91577">
        <ele>834</ele>
        <time>2026-05-09T19:05:28.283Z</time>
      </trkpt>
      <trkpt lat="47.88166" lon="6.91577">
        <ele>834</ele>
        <time>2026-05-09T19:05:29.283Z</time>
      </trkpt>
      <trkpt lat="47.88164" lon="6.91577">
        <ele>834</ele>
        <time>2026-05-09T19:05:30.283Z</time>
      </trkpt>
      <trkpt lat="47.88163" lon="6.91578">
        <ele>833</ele>
        <time>2026-05-09T19:05:31.283Z</time>
      </trkpt>
      <trkpt lat="47.88162" lon="6.91578">
        <ele>833</ele>
        <time>2026-05-09T19:05:32.283Z</time>
      </trkpt>
      <trkpt lat="47.88161" lon="6.91579">
        <ele>833</ele>
        <time>2026-05-09T19:05:33.283Z</time>
      </trkpt>
      <trkpt lat="47.8816" lon="6.9158">
        <ele>833</ele>
        <time>2026-05-09T19:05:34.284Z</time>
      </trkpt>
      <trkpt lat="47.88159" lon="6.9158">
        <ele>833</ele>
        <time>2026-05-09T19:05:35.284Z</time>
      </trkpt>
      <trkpt lat="47.88158" lon="6.91581">
        <ele>834</ele>
        <time>2026-05-09T19:05:36.284Z</time>
      </trkpt>
      <trkpt lat="47.88157" lon="6.91582">
        <ele>834</ele>
        <time>2026-05-09T19:05:37.283Z</time>
      </trkpt>
      <trkpt lat="47.88157" lon="6.91583">
        <ele>835</ele>
        <time>2026-05-09T19:05:38.284Z</time>
      </trkpt>
      <trkpt lat="47.88156" lon="6.91585">
        <ele>835</ele>
        <time>2026-05-09T19:05:39.284Z</time>
      </trkpt>
      <trkpt lat="47.88155" lon="6.91587">
        <ele>835</ele>
        <time>2026-05-09T19:05:40.284Z</time>
      </trkpt>
      <trkpt lat="47.88154" lon="6.91589">
        <ele>835</ele>
        <time>2026-05-09T19:05:41.284Z</time>
      </trkpt>
      <trkpt lat="47.88153" lon="6.91592">
        <ele>835</ele>
        <time>2026-05-09T19:05:42.283Z</time>
      </trkpt>
      <trkpt lat="47.88154" lon="6.91594">
        <ele>835</ele>
        <time>2026-05-09T19:05:43.284Z</time>
      </trkpt>
      <trkpt lat="47.88154" lon="6.91596">
        <ele>835</ele>
        <time>2026-05-09T19:05:44.284Z</time>
      </trkpt>
      <trkpt lat="47.88154" lon="6.91597">
        <ele>835</ele>
        <time>2026-05-09T19:05:45.283Z</time>
      </trkpt>
      <trkpt lat="47.88154" lon="6.91597">
        <ele>835</ele>
        <time>2026-05-09T19:05:46.283Z</time>
      </trkpt>
      <trkpt lat="47.88154" lon="6.91598">
        <ele>834</ele>
        <time>2026-05-09T19:05:47.284Z</time>
      </trkpt>
      <trkpt lat="47.88154" lon="6.91599">
        <ele>834</ele>
        <time>2026-05-09T19:05:48.284Z</time>
      </trkpt>
      <trkpt lat="47.88154" lon="6.91601">
        <ele>833</ele>
        <time>2026-05-09T19:05:49.284Z</time>
      </trkpt>
      <trkpt lat="47.88154" lon="6.91602">
        <ele>833</ele>
        <time>2026-05-09T19:05:50.284Z</time>
      </trkpt>
      <trkpt lat="47.88154" lon="6.91603">
        <ele>832</ele>
        <time>2026-05-09T19:05:51.284Z</time>
      </trkpt>
      <trkpt lat="47.88153" lon="6.91605">
        <ele>832</ele>
        <time>2026-05-09T19:05:52.283Z</time>
      </trkpt>
      <trkpt lat="47.88153" lon="6.91606">
        <ele>831</ele>
        <time>2026-05-09T19:05:53.284Z</time>
      </trkpt>
      <trkpt lat="47.88153" lon="6.91607">
        <ele>831</ele>
        <time>2026-05-09T19:05:54.283Z</time>
      </trkpt>
      <trkpt lat="47.88153" lon="6.91609">
        <ele>831</ele>
        <time>2026-05-09T19:05:55.284Z</time>
      </trkpt>
      <trkpt lat="47.88153" lon="6.9161">
        <ele>831</ele>
        <time>2026-05-09T19:05:56.284Z</time>
      </trkpt>
      <trkpt lat="47.88153" lon="6.91611">
        <ele>831</ele>
        <time>2026-05-09T19:05:57.283Z</time>
      </trkpt>
      <trkpt lat="47.88153" lon="6.91612">
        <ele>831</ele>
        <time>2026-05-09T19:05:58.284Z</time>
      </trkpt>
      <trkpt lat="47.88153" lon="6.91614">
        <ele>831</ele>
        <time>2026-05-09T19:05:59.284Z</time>
      </trkpt>
      <trkpt lat="47.88153" lon="6.91615">
        <ele>830</ele>
        <time>2026-05-09T19:06:00.284Z</time>
      </trkpt>
      <trkpt lat="47.88152" lon="6.91616">
        <ele>830</ele>
        <time>2026-05-09T19:06:01.284Z</time>
      </trkpt>
      <trkpt lat="47.88152" lon="6.91617">
        <ele>829</ele>
        <time>2026-05-09T19:06:02.283Z</time>
      </trkpt>
      <trkpt lat="47.88153" lon="6.91618">
        <ele>829</ele>
        <time>2026-05-09T19:06:03.284Z</time>
      </trkpt>
      <trkpt lat="47.88153" lon="6.9162">
        <ele>829</ele>
        <time>2026-05-09T19:06:04.284Z</time>
      </trkpt>
      <trkpt lat="47.88154" lon="6.91622">
        <ele>829</ele>
        <time>2026-05-09T19:06:05.283Z</time>
      </trkpt>
      <trkpt lat="47.88152" lon="6.91626">
        <ele>829</ele>
        <time>2026-05-09T19:06:06.283Z</time>
      </trkpt>
      <trkpt lat="47.8815" lon="6.91628">
        <ele>829</ele>
        <time>2026-05-09T19:06:07.284Z</time>
      </trkpt>
      <trkpt lat="47.88149" lon="6.9163">
        <ele>829</ele>
        <time>2026-05-09T19:06:08.283Z</time>
      </trkpt>
      <trkpt lat="47.88148" lon="6.91631">
        <ele>829</ele>
        <time>2026-05-09T19:06:09.283Z</time>
      </trkpt>
      <trkpt lat="47.88147" lon="6.91633">
        <ele>829</ele>
        <time>2026-05-09T19:06:10.284Z</time>
      </trkpt>
      <trkpt lat="47.88147" lon="6.91634">
        <ele>829</ele>
        <time>2026-05-09T19:06:11.284Z</time>
      </trkpt>
      <trkpt lat="47.88146" lon="6.91636">
        <ele>829</ele>
        <time>2026-05-09T19:06:12.283Z</time>
      </trkpt>
      <trkpt lat="47.88145" lon="6.91637">
        <ele>829</ele>
        <time>2026-05-09T19:06:13.283Z</time>
      </trkpt>
      <trkpt lat="47.88145" lon="6.91639">
        <ele>829</ele>
        <time>2026-05-09T19:06:14.283Z</time>
      </trkpt>
      <trkpt lat="47.88144" lon="6.9164">
        <ele>829</ele>
        <time>2026-05-09T19:06:15.283Z</time>
      </trkpt>
      <trkpt lat="47.88143" lon="6.91642">
        <ele>829</ele>
        <time>2026-05-09T19:06:16.283Z</time>
      </trkpt>
      <trkpt lat="47.88142" lon="6.91643">
        <ele>828</ele>
        <time>2026-05-09T19:06:17.284Z</time>
      </trkpt>
      <trkpt lat="47.88142" lon="6.91644">
        <ele>828</ele>
        <time>2026-05-09T19:06:18.284Z</time>
      </trkpt>
      <trkpt lat="47.88141" lon="6.91646">
        <ele>828</ele>
        <time>2026-05-09T19:06:19.283Z</time>
      </trkpt>
      <trkpt lat="47.8814" lon="6.91648">
        <ele>828</ele>
        <time>2026-05-09T19:06:20.283Z</time>
      </trkpt>
      <trkpt lat="47.88139" lon="6.91651">
        <ele>827</ele>
        <time>2026-05-09T19:06:21.283Z</time>
      </trkpt>
      <trkpt lat="47.88139" lon="6.91653">
        <ele>827</ele>
        <time>2026-05-09T19:06:22.284Z</time>
      </trkpt>
      <trkpt lat="47.88138" lon="6.91654">
        <ele>827</ele>
        <time>2026-05-09T19:06:23.283Z</time>
      </trkpt>
      <trkpt lat="47.88137" lon="6.91655">
        <ele>827</ele>
        <time>2026-05-09T19:06:24.283Z</time>
      </trkpt>
      <trkpt lat="47.88136" lon="6.91656">
        <ele>827</ele>
        <time>2026-05-09T19:06:25.283Z</time>
      </trkpt>
      <trkpt lat="47.88135" lon="6.91658">
        <ele>827</ele>
        <time>2026-05-09T19:06:26.283Z</time>
      </trkpt>
      <trkpt lat="47.88133" lon="6.9166">
        <ele>827</ele>
        <time>2026-05-09T19:06:27.283Z</time>
      </trkpt>
      <trkpt lat="47.88131" lon="6.91662">
        <ele>827</ele>
        <time>2026-05-09T19:06:28.284Z</time>
      </trkpt>
      <trkpt lat="47.8813" lon="6.91664">
        <ele>827</ele>
        <time>2026-05-09T19:06:29.284Z</time>
      </trkpt>
      <trkpt lat="47.88129" lon="6.91665">
        <ele>827</ele>
        <time>2026-05-09T19:06:30.284Z</time>
      </trkpt>
      <trkpt lat="47.88128" lon="6.91667">
        <ele>827</ele>
        <time>2026-05-09T19:06:31.284Z</time>
      </trkpt>
      <trkpt lat="47.88128" lon="6.91669">
        <ele>827</ele>
        <time>2026-05-09T19:06:32.283Z</time>
      </trkpt>
      <trkpt lat="47.88127" lon="6.91671">
        <ele>827</ele>
        <time>2026-05-09T19:06:33.284Z</time>
      </trkpt>
      <trkpt lat="47.88127" lon="6.91674">
        <ele>827</ele>
        <time>2026-05-09T19:06:34.284Z</time>
      </trkpt>
      <trkpt lat="47.88127" lon="6.91675">
        <ele>827</ele>
        <time>2026-05-09T19:06:35.284Z</time>
      </trkpt>
      <trkpt lat="47.88127" lon="6.91676">
        <ele>827</ele>
        <time>2026-05-09T19:06:36.284Z</time>
      </trkpt>
      <trkpt lat="47.88127" lon="6.91677">
        <ele>827</ele>
        <time>2026-05-09T19:06:37.284Z</time>
      </trkpt>
      <trkpt lat="47.88127" lon="6.91678">
        <ele>827</ele>
        <time>2026-05-09T19:06:38.284Z</time>
      </trkpt>
      <trkpt lat="47.88127" lon="6.91679">
        <ele>827</ele>
        <time>2026-05-09T19:06:39.284Z</time>
      </trkpt>
      <trkpt lat="47.88127" lon="6.91681">
        <ele>827</ele>
        <time>2026-05-09T19:06:40.284Z</time>
      </trkpt>
      <trkpt lat="47.88126" lon="6.91682">
        <ele>827</ele>
        <time>2026-05-09T19:06:41.284Z</time>
      </trkpt>
      <trkpt lat="47.88125" lon="6.91683">
        <ele>828</ele>
        <time>2026-05-09T19:06:42.283Z</time>
      </trkpt>
      <trkpt lat="47.88125" lon="6.91684">
        <ele>828</ele>
        <time>2026-05-09T19:06:43.283Z</time>
      </trkpt>
      <trkpt lat="47.88124" lon="6.91685">
        <ele>828</ele>
        <time>2026-05-09T19:06:44.284Z</time>
      </trkpt>
      <trkpt lat="47.88123" lon="6.91687">
        <ele>828</ele>
        <time>2026-05-09T19:06:45.284Z</time>
      </trkpt>
      <trkpt lat="47.88122" lon="6.91688">
        <ele>828</ele>
        <time>2026-05-09T19:06:46.284Z</time>
      </trkpt>
      <trkpt lat="47.88121" lon="6.91689">
        <ele>828</ele>
        <time>2026-05-09T19:06:47.284Z</time>
      </trkpt>
      <trkpt lat="47.8812" lon="6.91691">
        <ele>828</ele>
        <time>2026-05-09T19:06:48.284Z</time>
      </trkpt>
      <trkpt lat="47.8812" lon="6.91692">
        <ele>828</ele>
        <time>2026-05-09T19:06:49.284Z</time>
      </trkpt>
      <trkpt lat="47.88118" lon="6.91694">
        <ele>828</ele>
        <time>2026-05-09T19:06:50.284Z</time>
      </trkpt>
      <trkpt lat="47.88116" lon="6.91697">
        <ele>827</ele>
        <time>2026-05-09T19:06:51.284Z</time>
      </trkpt>
      <trkpt lat="47.88114" lon="6.917">
        <ele>827</ele>
        <time>2026-05-09T19:06:52.284Z</time>
      </trkpt>
      <trkpt lat="47.88112" lon="6.91704">
        <ele>827</ele>
        <time>2026-05-09T19:06:53.284Z</time>
      </trkpt>
      <trkpt lat="47.88108" lon="6.91707">
        <ele>827</ele>
        <time>2026-05-09T19:06:54.284Z</time>
      </trkpt>
      <trkpt lat="47.88103" lon="6.91713">
        <ele>827</ele>
        <time>2026-05-09T19:06:55.283Z</time>
      </trkpt>
      <trkpt lat="47.88101" lon="6.91716">
        <ele>827</ele>
        <time>2026-05-09T19:06:56.283Z</time>
      </trkpt>
      <trkpt lat="47.88099" lon="6.91718">
        <ele>827</ele>
        <time>2026-05-09T19:06:57.283Z</time>
      </trkpt>
      <trkpt lat="47.88098" lon="6.91718">
        <ele>827</ele>
        <time>2026-05-09T19:06:58.283Z</time>
      </trkpt>
      <trkpt lat="47.88098" lon="6.91718">
        <ele>827</ele>
        <time>2026-05-09T19:06:59.283Z</time>
      </trkpt>
      <trkpt lat="47.88096" lon="6.91718">
        <ele>827</ele>
        <time>2026-05-09T19:07:00.283Z</time>
      </trkpt>
      <trkpt lat="47.88095" lon="6.91718">
        <ele>826</ele>
        <time>2026-05-09T19:07:01.283Z</time>
      </trkpt>
      <trkpt lat="47.88094" lon="6.91718">
        <ele>826</ele>
        <time>2026-05-09T19:07:02.284Z</time>
      </trkpt>
      <trkpt lat="47.88092" lon="6.91719">
        <ele>826</ele>
        <time>2026-05-09T19:07:03.284Z</time>
      </trkpt>
      <trkpt lat="47.88091" lon="6.91719">
        <ele>826</ele>
        <time>2026-05-09T19:07:04.283Z</time>
      </trkpt>
      <trkpt lat="47.88089" lon="6.91719">
        <ele>826</ele>
        <time>2026-05-09T19:07:05.283Z</time>
      </trkpt>
      <trkpt lat="47.88087" lon="6.91719">
        <ele>826</ele>
        <time>2026-05-09T19:07:06.283Z</time>
      </trkpt>
      <trkpt lat="47.88086" lon="6.9172">
        <ele>826</ele>
        <time>2026-05-09T19:07:07.283Z</time>
      </trkpt>
      <trkpt lat="47.88085" lon="6.9172">
        <ele>826</ele>
        <time>2026-05-09T19:07:08.283Z</time>
      </trkpt>
      <trkpt lat="47.88083" lon="6.91721">
        <ele>826</ele>
        <time>2026-05-09T19:07:09.283Z</time>
      </trkpt>
      <trkpt lat="47.88081" lon="6.91722">
        <ele>826</ele>
        <time>2026-05-09T19:07:10.283Z</time>
      </trkpt>
      <trkpt lat="47.8808" lon="6.91723">
        <ele>826</ele>
        <time>2026-05-09T19:07:11.283Z</time>
      </trkpt>
      <trkpt lat="47.88079" lon="6.91723">
        <ele>826</ele>
        <time>2026-05-09T19:07:12.284Z</time>
      </trkpt>
      <trkpt lat="47.88077" lon="6.91724">
        <ele>826</ele>
        <time>2026-05-09T19:07:13.284Z</time>
      </trkpt>
      <trkpt lat="47.88076" lon="6.91724">
        <ele>826</ele>
        <time>2026-05-09T19:07:14.284Z</time>
      </trkpt>
      <trkpt lat="47.88075" lon="6.91724">
        <ele>825</ele>
        <time>2026-05-09T19:07:15.284Z</time>
      </trkpt>
      <trkpt lat="47.88074" lon="6.91724">
        <ele>825</ele>
        <time>2026-05-09T19:07:16.284Z</time>
      </trkpt>
      <trkpt lat="47.88072" lon="6.91724">
        <ele>824</ele>
        <time>2026-05-09T19:07:17.284Z</time>
      </trkpt>
      <trkpt lat="47.88071" lon="6.91723">
        <ele>824</ele>
        <time>2026-05-09T19:07:18.284Z</time>
      </trkpt>
      <trkpt lat="47.8807" lon="6.91723">
        <ele>824</ele>
        <time>2026-05-09T19:07:19.284Z</time>
      </trkpt>
      <trkpt lat="47.88069" lon="6.91723">
        <ele>823</ele>
        <time>2026-05-09T19:07:20.284Z</time>
      </trkpt>
      <trkpt lat="47.88068" lon="6.91723">
        <ele>823</ele>
        <time>2026-05-09T19:07:21.284Z</time>
      </trkpt>
      <trkpt lat="47.88066" lon="6.91723">
        <ele>823</ele>
        <time>2026-05-09T19:07:22.283Z</time>
      </trkpt>
      <trkpt lat="47.88065" lon="6.91723">
        <ele>822</ele>
        <time>2026-05-09T19:07:23.284Z</time>
      </trkpt>
      <trkpt lat="47.88064" lon="6.91723">
        <ele>822</ele>
        <time>2026-05-09T19:07:24.283Z</time>
      </trkpt>
      <trkpt lat="47.88062" lon="6.91723">
        <ele>822</ele>
        <time>2026-05-09T19:07:25.283Z</time>
      </trkpt>
      <trkpt lat="47.88061" lon="6.91723">
        <ele>821</ele>
        <time>2026-05-09T19:07:26.283Z</time>
      </trkpt>
      <trkpt lat="47.8806" lon="6.91723">
        <ele>821</ele>
        <time>2026-05-09T19:07:27.283Z</time>
      </trkpt>
      <trkpt lat="47.88058" lon="6.91723">
        <ele>821</ele>
        <time>2026-05-09T19:07:28.283Z</time>
      </trkpt>
      <trkpt lat="47.88057" lon="6.91722">
        <ele>820</ele>
        <time>2026-05-09T19:07:29.284Z</time>
      </trkpt>
      <trkpt lat="47.88056" lon="6.91722">
        <ele>820</ele>
        <time>2026-05-09T19:07:30.283Z</time>
      </trkpt>
      <trkpt lat="47.88055" lon="6.91721">
        <ele>820</ele>
        <time>2026-05-09T19:07:31.284Z</time>
      </trkpt>
      <trkpt lat="47.88054" lon="6.91721">
        <ele>820</ele>
        <time>2026-05-09T19:07:32.284Z</time>
      </trkpt>
      <trkpt lat="47.88052" lon="6.91721">
        <ele>819</ele>
        <time>2026-05-09T19:07:33.284Z</time>
      </trkpt>
      <trkpt lat="47.88052" lon="6.91721">
        <ele>819</ele>
        <time>2026-05-09T19:07:34.283Z</time>
      </trkpt>
      <trkpt lat="47.88051" lon="6.91722">
        <ele>819</ele>
        <time>2026-05-09T19:07:35.283Z</time>
      </trkpt>
      <trkpt lat="47.88049" lon="6.91723">
        <ele>819</ele>
        <time>2026-05-09T19:07:36.283Z</time>
      </trkpt>
      <trkpt lat="47.88047" lon="6.91724">
        <ele>818</ele>
        <time>2026-05-09T19:07:37.283Z</time>
      </trkpt>
      <trkpt lat="47.88045" lon="6.91724">
        <ele>818</ele>
        <time>2026-05-09T19:07:38.283Z</time>
      </trkpt>
      <trkpt lat="47.88044" lon="6.91724">
        <ele>818</ele>
        <time>2026-05-09T19:07:39.283Z</time>
      </trkpt>
      <trkpt lat="47.88043" lon="6.91724">
        <ele>818</ele>
        <time>2026-05-09T19:07:40.283Z</time>
      </trkpt>
      <trkpt lat="47.88041" lon="6.91724">
        <ele>818</ele>
        <time>2026-05-09T19:07:41.284Z</time>
      </trkpt>
      <trkpt lat="47.8804" lon="6.91722">
        <ele>818</ele>
        <time>2026-05-09T19:07:42.283Z</time>
      </trkpt>
      <trkpt lat="47.8804" lon="6.91721">
        <ele>818</ele>
        <time>2026-05-09T19:07:43.284Z</time>
      </trkpt>
      <trkpt lat="47.88039" lon="6.9172">
        <ele>818</ele>
        <time>2026-05-09T19:07:44.284Z</time>
      </trkpt>
      <trkpt lat="47.88038" lon="6.91719">
        <ele>818</ele>
        <time>2026-05-09T19:07:45.284Z</time>
      </trkpt>
      <trkpt lat="47.88037" lon="6.91717">
        <ele>818</ele>
        <time>2026-05-09T19:07:46.284Z</time>
      </trkpt>
      <trkpt lat="47.88036" lon="6.91716">
        <ele>819</ele>
        <time>2026-05-09T19:07:47.284Z</time>
      </trkpt>
      <trkpt lat="47.88035" lon="6.91714">
        <ele>819</ele>
        <time>2026-05-09T19:07:48.284Z</time>
      </trkpt>
      <trkpt lat="47.88035" lon="6.91712">
        <ele>819</ele>
        <time>2026-05-09T19:07:49.284Z</time>
      </trkpt>
      <trkpt lat="47.88034" lon="6.9171">
        <ele>819</ele>
        <time>2026-05-09T19:07:50.284Z</time>
      </trkpt>
      <trkpt lat="47.88033" lon="6.91708">
        <ele>818</ele>
        <time>2026-05-09T19:07:51.284Z</time>
      </trkpt>
      <trkpt lat="47.88032" lon="6.91707">
        <ele>818</ele>
        <time>2026-05-09T19:07:52.283Z</time>
      </trkpt>
      <trkpt lat="47.88031" lon="6.91705">
        <ele>818</ele>
        <time>2026-05-09T19:07:53.284Z</time>
      </trkpt>
      <trkpt lat="47.8803" lon="6.91704">
        <ele>818</ele>
        <time>2026-05-09T19:07:54.283Z</time>
      </trkpt>
      <trkpt lat="47.88029" lon="6.91702">
        <ele>818</ele>
        <time>2026-05-09T19:07:55.283Z</time>
      </trkpt>
      <trkpt lat="47.88029" lon="6.917">
        <ele>818</ele>
        <time>2026-05-09T19:07:56.283Z</time>
      </trkpt>
      <trkpt lat="47.88028" lon="6.91699">
        <ele>818</ele>
        <time>2026-05-09T19:07:57.284Z</time>
      </trkpt>
      <trkpt lat="47.88027" lon="6.91697">
        <ele>818</ele>
        <time>2026-05-09T19:07:58.284Z</time>
      </trkpt>
      <trkpt lat="47.88026" lon="6.91696">
        <ele>819</ele>
        <time>2026-05-09T19:07:59.283Z</time>
      </trkpt>
      <trkpt lat="47.88025" lon="6.91694">
        <ele>820</ele>
        <time>2026-05-09T19:08:00.283Z</time>
      </trkpt>
      <trkpt lat="47.88023" lon="6.91693">
        <ele>820</ele>
        <time>2026-05-09T19:08:01.283Z</time>
      </trkpt>
      <trkpt lat="47.88022" lon="6.91692">
        <ele>820</ele>
        <time>2026-05-09T19:08:02.283Z</time>
      </trkpt>
      <trkpt lat="47.88022" lon="6.91691">
        <ele>820</ele>
        <time>2026-05-09T19:08:03.283Z</time>
      </trkpt>
      <trkpt lat="47.88021" lon="6.91689">
        <ele>820</ele>
        <time>2026-05-09T19:08:04.283Z</time>
      </trkpt>
      <trkpt lat="47.88021" lon="6.91689">
        <ele>819</ele>
        <time>2026-05-09T19:08:05.283Z</time>
      </trkpt>
      <trkpt lat="47.88021" lon="6.91688">
        <ele>817</ele>
        <time>2026-05-09T19:08:13.555Z</time>
      </trkpt>
      <trkpt lat="47.88021" lon="6.91688">
        <ele>817</ele>
        <time>2026-05-09T19:08:14.555Z</time>
      </trkpt>
      <trkpt lat="47.88021" lon="6.91688">
        <ele>817</ele>
        <time>2026-05-09T19:08:15.555Z</time>
      </trkpt>
      <trkpt lat="47.88021" lon="6.91688">
        <ele>816</ele>
        <time>2026-05-09T19:08:16.555Z</time>
      </trkpt>
      <trkpt lat="47.88021" lon="6.91688">
        <ele>816</ele>
        <time>2026-05-09T19:08:17.555Z</time>
      </trkpt>
      <trkpt lat="47.88021" lon="6.91688">
        <ele>817</ele>
        <time>2026-05-09T19:08:18.555Z</time>
      </trkpt>
      <trkpt lat="47.88021" lon="6.91689">
        <ele>817</ele>
        <time>2026-05-09T19:08:19.556Z</time>
      </trkpt>
      <trkpt lat="47.88021" lon="6.91689">
        <ele>817</ele>
        <time>2026-05-09T19:08:20.556Z</time>
      </trkpt>
      <trkpt lat="47.88021" lon="6.91689">
        <ele>818</ele>
        <time>2026-05-09T19:08:21.556Z</time>
      </trkpt>
      <trkpt lat="47.88021" lon="6.91689">
        <ele>819</ele>
        <time>2026-05-09T19:08:22.555Z</time>
      </trkpt>
      <trkpt lat="47.88021" lon="6.91689">
        <ele>819</ele>
        <time>2026-05-09T19:08:23.555Z</time>
      </trkpt>
      <trkpt lat="47.88021" lon="6.91689">
        <ele>820</ele>
        <time>2026-05-09T19:08:24.556Z</time>
      </trkpt>
      <trkpt lat="47.88021" lon="6.91689">
        <ele>820</ele>
        <time>2026-05-09T19:08:25.556Z</time>
      </trkpt>
      <trkpt lat="47.88021" lon="6.91689">
        <ele>820</ele>
        <time>2026-05-09T19:08:26.555Z</time>
      </trkpt>
      <trkpt lat="47.88021" lon="6.91689">
        <ele>820</ele>
        <time>2026-05-09T19:08:27.555Z</time>
      </trkpt>
      <trkpt lat="47.8802" lon="6.91689">
        <ele>820</ele>
        <time>2026-05-09T19:08:28.556Z</time>
      </trkpt>
      <trkpt lat="47.8802" lon="6.91689">
        <ele>820</ele>
        <time>2026-05-09T19:08:29.555Z</time>
      </trkpt>
      <trkpt lat="47.8802" lon="6.9169">
        <ele>820</ele>
        <time>2026-05-09T19:08:30.555Z</time>
      </trkpt>
      <trkpt lat="47.8802" lon="6.9169">
        <ele>821</ele>
        <time>2026-05-09T19:08:31.555Z</time>
      </trkpt>
      <trkpt lat="47.8802" lon="6.9169">
        <ele>821</ele>
        <time>2026-05-09T19:08:32.556Z</time>
      </trkpt>
      <trkpt lat="47.8802" lon="6.9169">
        <ele>821</ele>
        <time>2026-05-09T19:08:33.556Z</time>
      </trkpt>
      <trkpt lat="47.8802" lon="6.9169">
        <ele>821</ele>
        <time>2026-05-09T19:08:34.556Z</time>
      </trkpt>
      <trkpt lat="47.8802" lon="6.9169">
        <ele>821</ele>
        <time>2026-05-09T19:08:35.555Z</time>
      </trkpt>
      <trkpt lat="47.8802" lon="6.9169">
        <ele>821</ele>
        <time>2026-05-09T19:08:36.556Z</time>
      </trkpt>
      <trkpt lat="47.8802" lon="6.91689">
        <ele>821</ele>
        <time>2026-05-09T19:08:37.556Z</time>
      </trkpt>
      <trkpt lat="47.88021" lon="6.91689">
        <ele>821</ele>
        <time>2026-05-09T19:08:38.556Z</time>
      </trkpt>
      <trkpt lat="47.88021" lon="6.91689">
        <ele>821</ele>
        <time>2026-05-09T19:08:39.556Z</time>
      </trkpt>
      <trkpt lat="47.88021" lon="6.91689">
        <ele>821</ele>
        <time>2026-05-09T19:08:40.556Z</time>
      </trkpt>
      <trkpt lat="47.88021" lon="6.91689">
        <ele>821</ele>
        <time>2026-05-09T19:08:41.556Z</time>
      </trkpt>
      <trkpt lat="47.88021" lon="6.91689">
        <ele>821</ele>
        <time>2026-05-09T19:08:42.555Z</time>
      </trkpt>
      <trkpt lat="47.88021" lon="6.91689">
        <ele>821</ele>
        <time>2026-05-09T19:08:43.555Z</time>
      </trkpt>
      <trkpt lat="47.88021" lon="6.91689">
        <ele>820</ele>
        <time>2026-05-09T19:08:44.555Z</time>
      </trkpt>
      <trkpt lat="47.88021" lon="6.91689">
        <ele>820</ele>
        <time>2026-05-09T19:08:45.555Z</time>
      </trkpt>
      <trkpt lat="47.88021" lon="6.91689">
        <ele>820</ele>
        <time>2026-05-09T19:08:46.556Z</time>
      </trkpt>
      <trkpt lat="47.88021" lon="6.91689">
        <ele>820</ele>
        <time>2026-05-09T19:08:47.555Z</time>
      </trkpt>
      <trkpt lat="47.8802" lon="6.91689">
        <ele>819</ele>
        <time>2026-05-09T19:08:48.555Z</time>
      </trkpt>
      <trkpt lat="47.8802" lon="6.91689">
        <ele>819</ele>
        <time>2026-05-09T19:08:49.556Z</time>
      </trkpt>
      <trkpt lat="47.8802" lon="6.91689">
        <ele>819</ele>
        <time>2026-05-09T19:08:50.556Z</time>
      </trkpt>
      <trkpt lat="47.8802" lon="6.91689">
        <ele>819</ele>
        <time>2026-05-09T19:08:51.556Z</time>
      </trkpt>
      <trkpt lat="47.8802" lon="6.91689">
        <ele>819</ele>
        <time>2026-05-09T19:08:52.555Z</time>
      </trkpt>
      <trkpt lat="47.8802" lon="6.91689">
        <ele>819</ele>
        <time>2026-05-09T19:08:53.556Z</time>
      </trkpt>
      <trkpt lat="47.8802" lon="6.91688">
        <ele>819</ele>
        <time>2026-05-09T19:08:54.556Z</time>
      </trkpt>
      <trkpt lat="47.8802" lon="6.91688">
        <ele>819</ele>
        <time>2026-05-09T19:08:55.556Z</time>
      </trkpt>
      <trkpt lat="47.8802" lon="6.91688">
        <ele>819</ele>
        <time>2026-05-09T19:08:56.555Z</time>
      </trkpt>
      <trkpt lat="47.8802" lon="6.91688">
        <ele>819</ele>
        <time>2026-05-09T19:08:57.556Z</time>
      </trkpt>
      <trkpt lat="47.8802" lon="6.91688">
        <ele>819</ele>
        <time>2026-05-09T19:08:58.556Z</time>
      </trkpt>
      <trkpt lat="47.8802" lon="6.91688">
        <ele>819</ele>
        <time>2026-05-09T19:08:59.556Z</time>
      </trkpt>
      <trkpt lat="47.8802" lon="6.91688">
        <ele>819</ele>
        <time>2026-05-09T19:09:00.556Z</time>
      </trkpt>
      <trkpt lat="47.8802" lon="6.91687">
        <ele>819</ele>
        <time>2026-05-09T19:09:01.556Z</time>
      </trkpt>
      <trkpt lat="47.8802" lon="6.91687">
        <ele>819</ele>
        <time>2026-05-09T19:09:02.556Z</time>
      </trkpt>
      <trkpt lat="47.88019" lon="6.91687">
        <ele>819</ele>
        <time>2026-05-09T19:09:03.556Z</time>
      </trkpt>
      <trkpt lat="47.88018" lon="6.91687">
        <ele>819</ele>
        <time>2026-05-09T19:09:04.556Z</time>
      </trkpt>
      <trkpt lat="47.88017" lon="6.91687">
        <ele>819</ele>
        <time>2026-05-09T19:09:05.556Z</time>
      </trkpt>
      <trkpt lat="47.88016" lon="6.91686">
        <ele>819</ele>
        <time>2026-05-09T19:09:06.556Z</time>
      </trkpt>
      <trkpt lat="47.88015" lon="6.91685">
        <ele>819</ele>
        <time>2026-05-09T19:09:07.555Z</time>
      </trkpt>
      <trkpt lat="47.88014" lon="6.91684">
        <ele>819</ele>
        <time>2026-05-09T19:09:08.555Z</time>
      </trkpt>
      <trkpt lat="47.88013" lon="6.91684">
        <ele>819</ele>
        <time>2026-05-09T19:09:09.555Z</time>
      </trkpt>
      <trkpt lat="47.88013" lon="6.91684">
        <ele>819</ele>
        <time>2026-05-09T19:09:10.555Z</time>
      </trkpt>
      <trkpt lat="47.88013" lon="6.91684">
        <ele>819</ele>
        <time>2026-05-09T19:09:11.555Z</time>
      </trkpt>
      <trkpt lat="47.88013" lon="6.91683">
        <ele>819</ele>
        <time>2026-05-09T19:09:12.556Z</time>
      </trkpt>
      <trkpt lat="47.88008" lon="6.91684">
        <ele>819</ele>
        <time>2026-05-09T19:09:20.736Z</time>
      </trkpt>
      <trkpt lat="47.88008" lon="6.91683">
        <ele>819</ele>
        <time>2026-05-09T19:09:21.735Z</time>
      </trkpt>
      <trkpt lat="47.88007" lon="6.91682">
        <ele>819</ele>
        <time>2026-05-09T19:09:22.735Z</time>
      </trkpt>
      <trkpt lat="47.88006" lon="6.91681">
        <ele>819</ele>
        <time>2026-05-09T19:09:23.735Z</time>
      </trkpt>
      <trkpt lat="47.88006" lon="6.91679">
        <ele>819</ele>
        <time>2026-05-09T19:09:24.736Z</time>
      </trkpt>
      <trkpt lat="47.88005" lon="6.91677">
        <ele>819</ele>
        <time>2026-05-09T19:09:25.735Z</time>
      </trkpt>
      <trkpt lat="47.88005" lon="6.91675">
        <ele>818</ele>
        <time>2026-05-09T19:09:26.735Z</time>
      </trkpt>
      <trkpt lat="47.88004" lon="6.91674">
        <ele>818</ele>
        <time>2026-05-09T19:09:27.735Z</time>
      </trkpt>
      <trkpt lat="47.88002" lon="6.91672">
        <ele>817</ele>
        <time>2026-05-09T19:09:28.735Z</time>
      </trkpt>
      <trkpt lat="47.88001" lon="6.91671">
        <ele>817</ele>
        <time>2026-05-09T19:09:29.736Z</time>
      </trkpt>
      <trkpt lat="47.87999" lon="6.91669">
        <ele>817</ele>
        <time>2026-05-09T19:09:30.735Z</time>
      </trkpt>
      <trkpt lat="47.87998" lon="6.91667">
        <ele>817</ele>
        <time>2026-05-09T19:09:31.736Z</time>
      </trkpt>
      <trkpt lat="47.87996" lon="6.91667">
        <ele>817</ele>
        <time>2026-05-09T19:09:32.736Z</time>
      </trkpt>
      <trkpt lat="47.87994" lon="6.91666">
        <ele>817</ele>
        <time>2026-05-09T19:09:33.735Z</time>
      </trkpt>
      <trkpt lat="47.87993" lon="6.91665">
        <ele>817</ele>
        <time>2026-05-09T19:09:34.736Z</time>
      </trkpt>
      <trkpt lat="47.87993" lon="6.91663">
        <ele>816</ele>
        <time>2026-05-09T19:09:35.736Z</time>
      </trkpt>
      <trkpt lat="47.87992" lon="6.91662">
        <ele>816</ele>
        <time>2026-05-09T19:09:36.735Z</time>
      </trkpt>
      <trkpt lat="47.87991" lon="6.91661">
        <ele>816</ele>
        <time>2026-05-09T19:09:37.735Z</time>
      </trkpt>
      <trkpt lat="47.8799" lon="6.91659">
        <ele>816</ele>
        <time>2026-05-09T19:09:38.735Z</time>
      </trkpt>
      <trkpt lat="47.87989" lon="6.91659">
        <ele>816</ele>
        <time>2026-05-09T19:09:39.736Z</time>
      </trkpt>
      <trkpt lat="47.87987" lon="6.91658">
        <ele>815</ele>
        <time>2026-05-09T19:09:40.736Z</time>
      </trkpt>
      <trkpt lat="47.87986" lon="6.91657">
        <ele>815</ele>
        <time>2026-05-09T19:09:41.735Z</time>
      </trkpt>
      <trkpt lat="47.87985" lon="6.91656">
        <ele>814</ele>
        <time>2026-05-09T19:09:42.736Z</time>
      </trkpt>
      <trkpt lat="47.87984" lon="6.91655">
        <ele>814</ele>
        <time>2026-05-09T19:09:43.736Z</time>
      </trkpt>
      <trkpt lat="47.87984" lon="6.91653">
        <ele>814</ele>
        <time>2026-05-09T19:09:44.735Z</time>
      </trkpt>
      <trkpt lat="47.87982" lon="6.91652">
        <ele>814</ele>
        <time>2026-05-09T19:09:45.735Z</time>
      </trkpt>
      <trkpt lat="47.87981" lon="6.91652">
        <ele>814</ele>
        <time>2026-05-09T19:09:46.735Z</time>
      </trkpt>
      <trkpt lat="47.87981" lon="6.9165">
        <ele>814</ele>
        <time>2026-05-09T19:09:47.736Z</time>
      </trkpt>
      <trkpt lat="47.87979" lon="6.9165">
        <ele>814</ele>
        <time>2026-05-09T19:09:48.735Z</time>
      </trkpt>
      <trkpt lat="47.87977" lon="6.91649">
        <ele>814</ele>
        <time>2026-05-09T19:09:49.736Z</time>
      </trkpt>
      <trkpt lat="47.87976" lon="6.91647">
        <ele>814</ele>
        <time>2026-05-09T19:09:50.736Z</time>
      </trkpt>
      <trkpt lat="47.87975" lon="6.91646">
        <ele>813</ele>
        <time>2026-05-09T19:09:51.735Z</time>
      </trkpt>
      <trkpt lat="47.87974" lon="6.91645">
        <ele>813</ele>
        <time>2026-05-09T19:09:52.735Z</time>
      </trkpt>
      <trkpt lat="47.87973" lon="6.91643">
        <ele>813</ele>
        <time>2026-05-09T19:09:53.735Z</time>
      </trkpt>
      <trkpt lat="47.87972" lon="6.91641">
        <ele>814</ele>
        <time>2026-05-09T19:09:54.736Z</time>
      </trkpt>
      <trkpt lat="47.87971" lon="6.9164">
        <ele>813</ele>
        <time>2026-05-09T19:09:55.736Z</time>
      </trkpt>
      <trkpt lat="47.87971" lon="6.91638">
        <ele>813</ele>
        <time>2026-05-09T19:09:56.735Z</time>
      </trkpt>
      <trkpt lat="47.8797" lon="6.91637">
        <ele>813</ele>
        <time>2026-05-09T19:09:57.736Z</time>
      </trkpt>
      <trkpt lat="47.87969" lon="6.91635">
        <ele>813</ele>
        <time>2026-05-09T19:09:58.736Z</time>
      </trkpt>
      <trkpt lat="47.87969" lon="6.91634">
        <ele>813</ele>
        <time>2026-05-09T19:09:59.735Z</time>
      </trkpt>
      <trkpt lat="47.87968" lon="6.91633">
        <ele>814</ele>
        <time>2026-05-09T19:10:00.736Z</time>
      </trkpt>
      <trkpt lat="47.87967" lon="6.91632">
        <ele>814</ele>
        <time>2026-05-09T19:10:01.736Z</time>
      </trkpt>
      <trkpt lat="47.87966" lon="6.91632">
        <ele>813</ele>
        <time>2026-05-09T19:10:02.735Z</time>
      </trkpt>
      <trkpt lat="47.87965" lon="6.91631">
        <ele>813</ele>
        <time>2026-05-09T19:10:03.736Z</time>
      </trkpt>
      <trkpt lat="47.87964" lon="6.9163">
        <ele>814</ele>
        <time>2026-05-09T19:10:04.736Z</time>
      </trkpt>
      <trkpt lat="47.87963" lon="6.91628">
        <ele>814</ele>
        <time>2026-05-09T19:10:05.735Z</time>
      </trkpt>
      <trkpt lat="47.87962" lon="6.91628">
        <ele>814</ele>
        <time>2026-05-09T19:10:06.735Z</time>
      </trkpt>
      <trkpt lat="47.8796" lon="6.91627">
        <ele>814</ele>
        <time>2026-05-09T19:10:07.735Z</time>
      </trkpt>
      <trkpt lat="47.87957" lon="6.91626">
        <ele>814</ele>
        <time>2026-05-09T19:10:08.735Z</time>
      </trkpt>
      <trkpt lat="47.87956" lon="6.91626">
        <ele>815</ele>
        <time>2026-05-09T19:10:09.736Z</time>
      </trkpt>
      <trkpt lat="47.87955" lon="6.91625">
        <ele>815</ele>
        <time>2026-05-09T19:10:10.736Z</time>
      </trkpt>
      <trkpt lat="47.87954" lon="6.91624">
        <ele>816</ele>
        <time>2026-05-09T19:10:11.735Z</time>
      </trkpt>
      <trkpt lat="47.87953" lon="6.91623">
        <ele>816</ele>
        <time>2026-05-09T19:10:12.736Z</time>
      </trkpt>
      <trkpt lat="47.87951" lon="6.91623">
        <ele>816</ele>
        <time>2026-05-09T19:10:13.736Z</time>
      </trkpt>
      <trkpt lat="47.8795" lon="6.91623">
        <ele>816</ele>
        <time>2026-05-09T19:10:14.736Z</time>
      </trkpt>
      <trkpt lat="47.87948" lon="6.91623">
        <ele>815</ele>
        <time>2026-05-09T19:10:15.736Z</time>
      </trkpt>
      <trkpt lat="47.87947" lon="6.91624">
        <ele>815</ele>
        <time>2026-05-09T19:10:16.735Z</time>
      </trkpt>
      <trkpt lat="47.87946" lon="6.91623">
        <ele>815</ele>
        <time>2026-05-09T19:10:17.736Z</time>
      </trkpt>
      <trkpt lat="47.87945" lon="6.91623">
        <ele>814</ele>
        <time>2026-05-09T19:10:18.736Z</time>
      </trkpt>
      <trkpt lat="47.87943" lon="6.91622">
        <ele>814</ele>
        <time>2026-05-09T19:10:19.735Z</time>
      </trkpt>
      <trkpt lat="47.87942" lon="6.91623">
        <ele>813</ele>
        <time>2026-05-09T19:10:20.736Z</time>
      </trkpt>
      <trkpt lat="47.87942" lon="6.91623">
        <ele>813</ele>
        <time>2026-05-09T19:10:21.735Z</time>
      </trkpt>
      <trkpt lat="47.87941" lon="6.91623">
        <ele>813</ele>
        <time>2026-05-09T19:10:22.735Z</time>
      </trkpt>
      <trkpt lat="47.8794" lon="6.91624">
        <ele>812</ele>
        <time>2026-05-09T19:10:23.735Z</time>
      </trkpt>
      <trkpt lat="47.8794" lon="6.91623">
        <ele>812</ele>
        <time>2026-05-09T19:10:24.736Z</time>
      </trkpt>
      <trkpt lat="47.8794" lon="6.91622">
        <ele>812</ele>
        <time>2026-05-09T19:10:25.735Z</time>
      </trkpt>
      <trkpt lat="47.87939" lon="6.91622">
        <ele>812</ele>
        <time>2026-05-09T19:10:26.735Z</time>
      </trkpt>
      <trkpt lat="47.87938" lon="6.91622">
        <ele>812</ele>
        <time>2026-05-09T19:10:27.735Z</time>
      </trkpt>
      <trkpt lat="47.87937" lon="6.91623">
        <ele>811</ele>
        <time>2026-05-09T19:10:28.735Z</time>
      </trkpt>
      <trkpt lat="47.87936" lon="6.91623">
        <ele>811</ele>
        <time>2026-05-09T19:10:29.736Z</time>
      </trkpt>
      <trkpt lat="47.87935" lon="6.91624">
        <ele>811</ele>
        <time>2026-05-09T19:10:30.735Z</time>
      </trkpt>
      <trkpt lat="47.87934" lon="6.91623">
        <ele>810</ele>
        <time>2026-05-09T19:10:31.735Z</time>
      </trkpt>
      <trkpt lat="47.87932" lon="6.91623">
        <ele>810</ele>
        <time>2026-05-09T19:10:32.736Z</time>
      </trkpt>
      <trkpt lat="47.87931" lon="6.91623">
        <ele>809</ele>
        <time>2026-05-09T19:10:33.736Z</time>
      </trkpt>
      <trkpt lat="47.8793" lon="6.91622">
        <ele>809</ele>
        <time>2026-05-09T19:10:34.735Z</time>
      </trkpt>
      <trkpt lat="47.87929" lon="6.91621">
        <ele>809</ele>
        <time>2026-05-09T19:10:35.736Z</time>
      </trkpt>
      <trkpt lat="47.87928" lon="6.9162">
        <ele>809</ele>
        <time>2026-05-09T19:10:36.735Z</time>
      </trkpt>
      <trkpt lat="47.87927" lon="6.91619">
        <ele>808</ele>
        <time>2026-05-09T19:10:37.735Z</time>
      </trkpt>
      <trkpt lat="47.87925" lon="6.91618">
        <ele>808</ele>
        <time>2026-05-09T19:10:38.736Z</time>
      </trkpt>
      <trkpt lat="47.87924" lon="6.91617">
        <ele>808</ele>
        <time>2026-05-09T19:10:39.736Z</time>
      </trkpt>
      <trkpt lat="47.87923" lon="6.91617">
        <ele>808</ele>
        <time>2026-05-09T19:10:40.735Z</time>
      </trkpt>
      <trkpt lat="47.87922" lon="6.91617">
        <ele>808</ele>
        <time>2026-05-09T19:10:41.736Z</time>
      </trkpt>
      <trkpt lat="47.87921" lon="6.91616">
        <ele>807</ele>
        <time>2026-05-09T19:10:42.736Z</time>
      </trkpt>
      <trkpt lat="47.87921" lon="6.91615">
        <ele>808</ele>
        <time>2026-05-09T19:10:43.735Z</time>
      </trkpt>
      <trkpt lat="47.8792" lon="6.91613">
        <ele>808</ele>
        <time>2026-05-09T19:10:44.736Z</time>
      </trkpt>
      <trkpt lat="47.87919" lon="6.91611">
        <ele>808</ele>
        <time>2026-05-09T19:10:45.735Z</time>
      </trkpt>
      <trkpt lat="47.87918" lon="6.91608">
        <ele>808</ele>
        <time>2026-05-09T19:10:46.735Z</time>
      </trkpt>
      <trkpt lat="47.87918" lon="6.91606">
        <ele>808</ele>
        <time>2026-05-09T19:10:47.735Z</time>
      </trkpt>
      <trkpt lat="47.87917" lon="6.91604">
        <ele>809</ele>
        <time>2026-05-09T19:10:48.735Z</time>
      </trkpt>
      <trkpt lat="47.87917" lon="6.91601">
        <ele>809</ele>
        <time>2026-05-09T19:10:49.736Z</time>
      </trkpt>
      <trkpt lat="47.87916" lon="6.91599">
        <ele>810</ele>
        <time>2026-05-09T19:10:50.736Z</time>
      </trkpt>
      <trkpt lat="47.87916" lon="6.91596">
        <ele>810</ele>
        <time>2026-05-09T19:10:51.735Z</time>
      </trkpt>
      <trkpt lat="47.87916" lon="6.91594">
        <ele>811</ele>
        <time>2026-05-09T19:10:52.735Z</time>
      </trkpt>
      <trkpt lat="47.87916" lon="6.91592">
        <ele>811</ele>
        <time>2026-05-09T19:10:53.735Z</time>
      </trkpt>
      <trkpt lat="47.87916" lon="6.9159">
        <ele>812</ele>
        <time>2026-05-09T19:10:54.735Z</time>
      </trkpt>
      <trkpt lat="47.87916" lon="6.91587">
        <ele>812</ele>
        <time>2026-05-09T19:10:55.736Z</time>
      </trkpt>
      <trkpt lat="47.87915" lon="6.91585">
        <ele>812</ele>
        <time>2026-05-09T19:10:56.736Z</time>
      </trkpt>
      <trkpt lat="47.87915" lon="6.91582">
        <ele>813</ele>
        <time>2026-05-09T19:10:57.736Z</time>
      </trkpt>
      <trkpt lat="47.87915" lon="6.9158">
        <ele>813</ele>
        <time>2026-05-09T19:10:58.736Z</time>
      </trkpt>
      <trkpt lat="47.87914" lon="6.91577">
        <ele>813</ele>
        <time>2026-05-09T19:10:59.735Z</time>
      </trkpt>
      <trkpt lat="47.87914" lon="6.91573">
        <ele>813</ele>
        <time>2026-05-09T19:11:00.735Z</time>
      </trkpt>
      <trkpt lat="47.87914" lon="6.91571">
        <ele>814</ele>
        <time>2026-05-09T19:11:01.736Z</time>
      </trkpt>
      <trkpt lat="47.87914" lon="6.91569">
        <ele>814</ele>
        <time>2026-05-09T19:11:02.735Z</time>
      </trkpt>
      <trkpt lat="47.87914" lon="6.91567">
        <ele>815</ele>
        <time>2026-05-09T19:11:03.736Z</time>
      </trkpt>
      <trkpt lat="47.87914" lon="6.91564">
        <ele>815</ele>
        <time>2026-05-09T19:11:04.736Z</time>
      </trkpt>
      <trkpt lat="47.87913" lon="6.91561">
        <ele>816</ele>
        <time>2026-05-09T19:11:05.735Z</time>
      </trkpt>
      <trkpt lat="47.87913" lon="6.91559">
        <ele>816</ele>
        <time>2026-05-09T19:11:06.736Z</time>
      </trkpt>
      <trkpt lat="47.87913" lon="6.91556">
        <ele>817</ele>
        <time>2026-05-09T19:11:07.735Z</time>
      </trkpt>
      <trkpt lat="47.87913" lon="6.91554">
        <ele>817</ele>
        <time>2026-05-09T19:11:08.736Z</time>
      </trkpt>
      <trkpt lat="47.87913" lon="6.91553">
        <ele>818</ele>
        <time>2026-05-09T19:11:09.736Z</time>
      </trkpt>
      <trkpt lat="47.87913" lon="6.91551">
        <ele>818</ele>
        <time>2026-05-09T19:11:10.736Z</time>
      </trkpt>
      <trkpt lat="47.87914" lon="6.91548">
        <ele>818</ele>
        <time>2026-05-09T19:11:11.735Z</time>
      </trkpt>
      <trkpt lat="47.87914" lon="6.91545">
        <ele>818</ele>
        <time>2026-05-09T19:11:12.735Z</time>
      </trkpt>
      <trkpt lat="47.87913" lon="6.91543">
        <ele>818</ele>
        <time>2026-05-09T19:11:13.736Z</time>
      </trkpt>
      <trkpt lat="47.87913" lon="6.9154">
        <ele>819</ele>
        <time>2026-05-09T19:11:14.735Z</time>
      </trkpt>
      <trkpt lat="47.87913" lon="6.91536">
        <ele>819</ele>
        <time>2026-05-09T19:11:15.736Z</time>
      </trkpt>
      <trkpt lat="47.87913" lon="6.91534">
        <ele>819</ele>
        <time>2026-05-09T19:11:16.735Z</time>
      </trkpt>
      <trkpt lat="47.87913" lon="6.91532">
        <ele>820</ele>
        <time>2026-05-09T19:11:17.735Z</time>
      </trkpt>
      <trkpt lat="47.87913" lon="6.91531">
        <ele>820</ele>
        <time>2026-05-09T19:11:18.736Z</time>
      </trkpt>
      <trkpt lat="47.87913" lon="6.91529">
        <ele>821</ele>
        <time>2026-05-09T19:11:19.736Z</time>
      </trkpt>
      <trkpt lat="47.87913" lon="6.91527">
        <ele>821</ele>
        <time>2026-05-09T19:11:20.736Z</time>
      </trkpt>
      <trkpt lat="47.87913" lon="6.91526">
        <ele>822</ele>
        <time>2026-05-09T19:11:21.736Z</time>
      </trkpt>
      <trkpt lat="47.87913" lon="6.91524">
        <ele>822</ele>
        <time>2026-05-09T19:11:22.736Z</time>
      </trkpt>
      <trkpt lat="47.87913" lon="6.91521">
        <ele>823</ele>
        <time>2026-05-09T19:11:23.735Z</time>
      </trkpt>
      <trkpt lat="47.87913" lon="6.91519">
        <ele>823</ele>
        <time>2026-05-09T19:11:24.736Z</time>
      </trkpt>
      <trkpt lat="47.87913" lon="6.91517">
        <ele>823</ele>
        <time>2026-05-09T19:11:25.735Z</time>
      </trkpt>
      <trkpt lat="47.87912" lon="6.91516">
        <ele>824</ele>
        <time>2026-05-09T19:11:26.735Z</time>
      </trkpt>
      <trkpt lat="47.87912" lon="6.91514">
        <ele>824</ele>
        <time>2026-05-09T19:11:27.735Z</time>
      </trkpt>
      <trkpt lat="47.87912" lon="6.91512">
        <ele>824</ele>
        <time>2026-05-09T19:11:28.735Z</time>
      </trkpt>
      <trkpt lat="47.87912" lon="6.91511">
        <ele>824</ele>
        <time>2026-05-09T19:11:29.735Z</time>
      </trkpt>
      <trkpt lat="47.87911" lon="6.9151">
        <ele>824</ele>
        <time>2026-05-09T19:11:30.735Z</time>
      </trkpt>
      <trkpt lat="47.87911" lon="6.91509">
        <ele>824</ele>
        <time>2026-05-09T19:11:31.736Z</time>
      </trkpt>
      <trkpt lat="47.8791" lon="6.91507">
        <ele>824</ele>
        <time>2026-05-09T19:11:32.736Z</time>
      </trkpt>
      <trkpt lat="47.8791" lon="6.91506">
        <ele>823</ele>
        <time>2026-05-09T19:11:33.736Z</time>
      </trkpt>
      <trkpt lat="47.87909" lon="6.91505">
        <ele>823</ele>
        <time>2026-05-09T19:11:34.735Z</time>
      </trkpt>
      <trkpt lat="47.87908" lon="6.91505">
        <ele>822</ele>
        <time>2026-05-09T19:11:35.736Z</time>
      </trkpt>
      <trkpt lat="47.87907" lon="6.91504">
        <ele>822</ele>
        <time>2026-05-09T19:11:36.735Z</time>
      </trkpt>
      <trkpt lat="47.87907" lon="6.91503">
        <ele>822</ele>
        <time>2026-05-09T19:11:37.735Z</time>
      </trkpt>
      <trkpt lat="47.87906" lon="6.91502">
        <ele>821</ele>
        <time>2026-05-09T19:11:38.736Z</time>
      </trkpt>
      <trkpt lat="47.87905" lon="6.915">
        <ele>821</ele>
        <time>2026-05-09T19:11:39.735Z</time>
      </trkpt>
      <trkpt lat="47.87903" lon="6.91497">
        <ele>821</ele>
        <time>2026-05-09T19:11:40.736Z</time>
      </trkpt>
      <trkpt lat="47.87901" lon="6.91495">
        <ele>821</ele>
        <time>2026-05-09T19:11:41.735Z</time>
      </trkpt>
      <trkpt lat="47.87901" lon="6.91493">
        <ele>820</ele>
        <time>2026-05-09T19:11:42.735Z</time>
      </trkpt>
      <trkpt lat="47.879" lon="6.91492">
        <ele>820</ele>
        <time>2026-05-09T19:11:43.736Z</time>
      </trkpt>
      <trkpt lat="47.87899" lon="6.9149">
        <ele>819</ele>
        <time>2026-05-09T19:11:44.736Z</time>
      </trkpt>
      <trkpt lat="47.87898" lon="6.91489">
        <ele>818</ele>
        <time>2026-05-09T19:11:45.735Z</time>
      </trkpt>
      <trkpt lat="47.87898" lon="6.91487">
        <ele>817</ele>
        <time>2026-05-09T19:11:46.735Z</time>
      </trkpt>
      <trkpt lat="47.87897" lon="6.91484">
        <ele>817</ele>
        <time>2026-05-09T19:11:47.736Z</time>
      </trkpt>
      <trkpt lat="47.87897" lon="6.91481">
        <ele>816</ele>
        <time>2026-05-09T19:11:48.735Z</time>
      </trkpt>
      <trkpt lat="47.87897" lon="6.91478">
        <ele>815</ele>
        <time>2026-05-09T19:11:49.736Z</time>
      </trkpt>
      <trkpt lat="47.87897" lon="6.91476">
        <ele>815</ele>
        <time>2026-05-09T19:11:50.735Z</time>
      </trkpt>
      <trkpt lat="47.87897" lon="6.91474">
        <ele>814</ele>
        <time>2026-05-09T19:11:51.736Z</time>
      </trkpt>
      <trkpt lat="47.87897" lon="6.91472">
        <ele>814</ele>
        <time>2026-05-09T19:11:52.735Z</time>
      </trkpt>
      <trkpt lat="47.87896" lon="6.9147">
        <ele>813</ele>
        <time>2026-05-09T19:11:53.735Z</time>
      </trkpt>
      <trkpt lat="47.87896" lon="6.91468">
        <ele>813</ele>
        <time>2026-05-09T19:11:54.736Z</time>
      </trkpt>
      <trkpt lat="47.87895" lon="6.91467">
        <ele>812</ele>
        <time>2026-05-09T19:11:55.735Z</time>
      </trkpt>
      <trkpt lat="47.87894" lon="6.91466">
        <ele>812</ele>
        <time>2026-05-09T19:11:56.735Z</time>
      </trkpt>
      <trkpt lat="47.87893" lon="6.91464">
        <ele>812</ele>
        <time>2026-05-09T19:11:57.735Z</time>
      </trkpt>
      <trkpt lat="47.87892" lon="6.91462">
        <ele>812</ele>
        <time>2026-05-09T19:11:58.736Z</time>
      </trkpt>
      <trkpt lat="47.87891" lon="6.91461">
        <ele>811</ele>
        <time>2026-05-09T19:11:59.735Z</time>
      </trkpt>
      <trkpt lat="47.8789" lon="6.9146">
        <ele>811</ele>
        <time>2026-05-09T19:12:00.736Z</time>
      </trkpt>
      <trkpt lat="47.8789" lon="6.91458">
        <ele>810</ele>
        <time>2026-05-09T19:12:01.735Z</time>
      </trkpt>
      <trkpt lat="47.87889" lon="6.91457">
        <ele>810</ele>
        <time>2026-05-09T19:12:02.735Z</time>
      </trkpt>
      <trkpt lat="47.87888" lon="6.91455">
        <ele>810</ele>
        <time>2026-05-09T19:12:03.735Z</time>
      </trkpt>
      <trkpt lat="47.87888" lon="6.91453">
        <ele>809</ele>
        <time>2026-05-09T19:12:04.735Z</time>
      </trkpt>
      <trkpt lat="47.87888" lon="6.91449">
        <ele>809</ele>
        <time>2026-05-09T19:12:05.735Z</time>
      </trkpt>
      <trkpt lat="47.87887" lon="6.91446">
        <ele>808</ele>
        <time>2026-05-09T19:12:06.735Z</time>
      </trkpt>
      <trkpt lat="47.87886" lon="6.91444">
        <ele>808</ele>
        <time>2026-05-09T19:12:07.735Z</time>
      </trkpt>
      <trkpt lat="47.87886" lon="6.91441">
        <ele>808</ele>
        <time>2026-05-09T19:12:08.735Z</time>
      </trkpt>
      <trkpt lat="47.87885" lon="6.91439">
        <ele>807</ele>
        <time>2026-05-09T19:12:09.735Z</time>
      </trkpt>
      <trkpt lat="47.87885" lon="6.91438">
        <ele>807</ele>
        <time>2026-05-09T19:12:10.735Z</time>
      </trkpt>
      <trkpt lat="47.87884" lon="6.91436">
        <ele>806</ele>
        <time>2026-05-09T19:12:11.735Z</time>
      </trkpt>
      <trkpt lat="47.87884" lon="6.91434">
        <ele>806</ele>
        <time>2026-05-09T19:12:12.735Z</time>
      </trkpt>
      <trkpt lat="47.87883" lon="6.91433">
        <ele>805</ele>
        <time>2026-05-09T19:12:13.735Z</time>
      </trkpt>
      <trkpt lat="47.87882" lon="6.91432">
        <ele>804</ele>
        <time>2026-05-09T19:12:14.736Z</time>
      </trkpt>
      <trkpt lat="47.87881" lon="6.9143">
        <ele>804</ele>
        <time>2026-05-09T19:12:15.735Z</time>
      </trkpt>
      <trkpt lat="47.87881" lon="6.91429">
        <ele>803</ele>
        <time>2026-05-09T19:12:16.736Z</time>
      </trkpt>
      <trkpt lat="47.8788" lon="6.91427">
        <ele>803</ele>
        <time>2026-05-09T19:12:17.735Z</time>
      </trkpt>
      <trkpt lat="47.8788" lon="6.91425">
        <ele>802</ele>
        <time>2026-05-09T19:12:18.735Z</time>
      </trkpt>
      <trkpt lat="47.8788" lon="6.91423">
        <ele>802</ele>
        <time>2026-05-09T19:12:19.736Z</time>
      </trkpt>
      <trkpt lat="47.87879" lon="6.91421">
        <ele>802</ele>
        <time>2026-05-09T19:12:20.735Z</time>
      </trkpt>
      <trkpt lat="47.87878" lon="6.91419">
        <ele>801</ele>
        <time>2026-05-09T19:12:21.736Z</time>
      </trkpt>
      <trkpt lat="47.87878" lon="6.91418">
        <ele>801</ele>
        <time>2026-05-09T19:12:22.736Z</time>
      </trkpt>
      <trkpt lat="47.87877" lon="6.91416">
        <ele>801</ele>
        <time>2026-05-09T19:12:23.736Z</time>
      </trkpt>
      <trkpt lat="47.87876" lon="6.91415">
        <ele>801</ele>
        <time>2026-05-09T19:12:24.735Z</time>
      </trkpt>
      <trkpt lat="47.87875" lon="6.91413">
        <ele>801</ele>
        <time>2026-05-09T19:12:25.736Z</time>
      </trkpt>
      <trkpt lat="47.87874" lon="6.91411">
        <ele>801</ele>
        <time>2026-05-09T19:12:26.735Z</time>
      </trkpt>
      <trkpt lat="47.87874" lon="6.91408">
        <ele>801</ele>
        <time>2026-05-09T19:12:27.735Z</time>
      </trkpt>
      <trkpt lat="47.87873" lon="6.91406">
        <ele>801</ele>
        <time>2026-05-09T19:12:28.735Z</time>
      </trkpt>
      <trkpt lat="47.87873" lon="6.91405">
        <ele>800</ele>
        <time>2026-05-09T19:12:29.736Z</time>
      </trkpt>
      <trkpt lat="47.87872" lon="6.91403">
        <ele>800</ele>
        <time>2026-05-09T19:12:30.735Z</time>
      </trkpt>
      <trkpt lat="47.87872" lon="6.91403">
        <ele>800</ele>
        <time>2026-05-09T19:12:31.735Z</time>
      </trkpt>
      <trkpt lat="47.87872" lon="6.91402">
        <ele>800</ele>
        <time>2026-05-09T19:12:32.736Z</time>
      </trkpt>
      <trkpt lat="47.87872" lon="6.91402">
        <ele>800</ele>
        <time>2026-05-09T19:12:33.735Z</time>
      </trkpt>
      <trkpt lat="47.87869" lon="6.91394">
        <ele>801</ele>
        <time>2026-05-09T19:12:41.032Z</time>
      </trkpt>
      <trkpt lat="47.87869" lon="6.91392">
        <ele>801</ele>
        <time>2026-05-09T19:12:42.032Z</time>
      </trkpt>
      <trkpt lat="47.87869" lon="6.9139">
        <ele>801</ele>
        <time>2026-05-09T19:12:43.033Z</time>
      </trkpt>
      <trkpt lat="47.87869" lon="6.91389">
        <ele>800</ele>
        <time>2026-05-09T19:12:44.033Z</time>
      </trkpt>
      <trkpt lat="47.87868" lon="6.91387">
        <ele>800</ele>
        <time>2026-05-09T19:12:45.032Z</time>
      </trkpt>
      <trkpt lat="47.87868" lon="6.91386">
        <ele>800</ele>
        <time>2026-05-09T19:12:46.032Z</time>
      </trkpt>
      <trkpt lat="47.87868" lon="6.91384">
        <ele>800</ele>
        <time>2026-05-09T19:12:47.032Z</time>
      </trkpt>
      <trkpt lat="47.87867" lon="6.91382">
        <ele>800</ele>
        <time>2026-05-09T19:12:48.032Z</time>
      </trkpt>
      <trkpt lat="47.87867" lon="6.91381">
        <ele>800</ele>
        <time>2026-05-09T19:12:49.033Z</time>
      </trkpt>
      <trkpt lat="47.87866" lon="6.9138">
        <ele>800</ele>
        <time>2026-05-09T19:12:50.032Z</time>
      </trkpt>
      <trkpt lat="47.87865" lon="6.91379">
        <ele>799</ele>
        <time>2026-05-09T19:12:51.033Z</time>
      </trkpt>
      <trkpt lat="47.87864" lon="6.91377">
        <ele>799</ele>
        <time>2026-05-09T19:12:52.032Z</time>
      </trkpt>
      <trkpt lat="47.87864" lon="6.91376">
        <ele>799</ele>
        <time>2026-05-09T19:12:53.032Z</time>
      </trkpt>
      <trkpt lat="47.87864" lon="6.91373">
        <ele>798</ele>
        <time>2026-05-09T19:12:54.032Z</time>
      </trkpt>
      <trkpt lat="47.87864" lon="6.9137">
        <ele>798</ele>
        <time>2026-05-09T19:12:55.033Z</time>
      </trkpt>
      <trkpt lat="47.87864" lon="6.91368">
        <ele>798</ele>
        <time>2026-05-09T19:12:56.033Z</time>
      </trkpt>
      <trkpt lat="47.87864" lon="6.91365">
        <ele>797</ele>
        <time>2026-05-09T19:12:57.032Z</time>
      </trkpt>
      <trkpt lat="47.87863" lon="6.91362">
        <ele>797</ele>
        <time>2026-05-09T19:12:58.032Z</time>
      </trkpt>
      <trkpt lat="47.87863" lon="6.9136">
        <ele>797</ele>
        <time>2026-05-09T19:12:59.033Z</time>
      </trkpt>
      <trkpt lat="47.87862" lon="6.91359">
        <ele>797</ele>
        <time>2026-05-09T19:13:00.032Z</time>
      </trkpt>
      <trkpt lat="47.87861" lon="6.91357">
        <ele>798</ele>
        <time>2026-05-09T19:13:01.032Z</time>
      </trkpt>
      <trkpt lat="47.87861" lon="6.91355">
        <ele>798</ele>
        <time>2026-05-09T19:13:02.032Z</time>
      </trkpt>
      <trkpt lat="47.8786" lon="6.91353">
        <ele>798</ele>
        <time>2026-05-09T19:13:03.032Z</time>
      </trkpt>
      <trkpt lat="47.8786" lon="6.91351">
        <ele>799</ele>
        <time>2026-05-09T19:13:04.032Z</time>
      </trkpt>
      <trkpt lat="47.8786" lon="6.91349">
        <ele>799</ele>
        <time>2026-05-09T19:13:05.032Z</time>
      </trkpt>
      <trkpt lat="47.87859" lon="6.91347">
        <ele>799</ele>
        <time>2026-05-09T19:13:06.032Z</time>
      </trkpt>
      <trkpt lat="47.87858" lon="6.91346">
        <ele>800</ele>
        <time>2026-05-09T19:13:07.033Z</time>
      </trkpt>
      <trkpt lat="47.87858" lon="6.91345">
        <ele>800</ele>
        <time>2026-05-09T19:13:08.033Z</time>
      </trkpt>
      <trkpt lat="47.87857" lon="6.91343">
        <ele>800</ele>
        <time>2026-05-09T19:13:09.033Z</time>
      </trkpt>
      <trkpt lat="47.87856" lon="6.91342">
        <ele>800</ele>
        <time>2026-05-09T19:13:10.032Z</time>
      </trkpt>
      <trkpt lat="47.87854" lon="6.91343">
        <ele>799</ele>
        <time>2026-05-09T19:13:11.032Z</time>
      </trkpt>
      <trkpt lat="47.87853" lon="6.91342">
        <ele>800</ele>
        <time>2026-05-09T19:13:12.032Z</time>
      </trkpt>
      <trkpt lat="47.87851" lon="6.91342">
        <ele>800</ele>
        <time>2026-05-09T19:13:13.032Z</time>
      </trkpt>
      <trkpt lat="47.87851" lon="6.91343">
        <ele>800</ele>
        <time>2026-05-09T19:13:14.032Z</time>
      </trkpt>
      <trkpt lat="47.87849" lon="6.91343">
        <ele>800</ele>
        <time>2026-05-09T19:13:15.032Z</time>
      </trkpt>
      <trkpt lat="47.87848" lon="6.91343">
        <ele>800</ele>
        <time>2026-05-09T19:13:16.032Z</time>
      </trkpt>
      <trkpt lat="47.87847" lon="6.91344">
        <ele>800</ele>
        <time>2026-05-09T19:13:17.032Z</time>
      </trkpt>
      <trkpt lat="47.87846" lon="6.91344">
        <ele>800</ele>
        <time>2026-05-09T19:13:18.032Z</time>
      </trkpt>
      <trkpt lat="47.87845" lon="6.91344">
        <ele>801</ele>
        <time>2026-05-09T19:13:19.032Z</time>
      </trkpt>
      <trkpt lat="47.87845" lon="6.91344">
        <ele>801</ele>
        <time>2026-05-09T19:13:20.032Z</time>
      </trkpt>
      <trkpt lat="47.87844" lon="6.91341">
        <ele>801</ele>
        <time>2026-05-09T19:13:21.033Z</time>
      </trkpt>
      <trkpt lat="47.87844" lon="6.91339">
        <ele>802</ele>
        <time>2026-05-09T19:13:22.033Z</time>
      </trkpt>
      <trkpt lat="47.87844" lon="6.91338">
        <ele>802</ele>
        <time>2026-05-09T19:13:23.032Z</time>
      </trkpt>
      <trkpt lat="47.87843" lon="6.91336">
        <ele>802</ele>
        <time>2026-05-09T19:13:24.032Z</time>
      </trkpt>
      <trkpt lat="47.87843" lon="6.91334">
        <ele>802</ele>
        <time>2026-05-09T19:13:25.032Z</time>
      </trkpt>
      <trkpt lat="47.87843" lon="6.91333">
        <ele>803</ele>
        <time>2026-05-09T19:13:26.032Z</time>
      </trkpt>
      <trkpt lat="47.87843" lon="6.9133">
        <ele>803</ele>
        <time>2026-05-09T19:13:27.032Z</time>
      </trkpt>
      <trkpt lat="47.87843" lon="6.91328">
        <ele>803</ele>
        <time>2026-05-09T19:13:28.032Z</time>
      </trkpt>
      <trkpt lat="47.87844" lon="6.91326">
        <ele>804</ele>
        <time>2026-05-09T19:13:29.032Z</time>
      </trkpt>
      <trkpt lat="47.87844" lon="6.91324">
        <ele>804</ele>
        <time>2026-05-09T19:13:30.032Z</time>
      </trkpt>
      <trkpt lat="47.87845" lon="6.91322">
        <ele>804</ele>
        <time>2026-05-09T19:13:31.032Z</time>
      </trkpt>
      <trkpt lat="47.87845" lon="6.9132">
        <ele>804</ele>
        <time>2026-05-09T19:13:32.033Z</time>
      </trkpt>
      <trkpt lat="47.87845" lon="6.91318">
        <ele>804</ele>
        <time>2026-05-09T19:13:33.032Z</time>
      </trkpt>
      <trkpt lat="47.87845" lon="6.91316">
        <ele>804</ele>
        <time>2026-05-09T19:13:34.032Z</time>
      </trkpt>
      <trkpt lat="47.87846" lon="6.91314">
        <ele>804</ele>
        <time>2026-05-09T19:13:35.032Z</time>
      </trkpt>
      <trkpt lat="47.87845" lon="6.9131">
        <ele>804</ele>
        <time>2026-05-09T19:13:36.032Z</time>
      </trkpt>
      <trkpt lat="47.87845" lon="6.91308">
        <ele>804</ele>
        <time>2026-05-09T19:13:37.032Z</time>
      </trkpt>
      <trkpt lat="47.87845" lon="6.91305">
        <ele>804</ele>
        <time>2026-05-09T19:13:38.032Z</time>
      </trkpt>
      <trkpt lat="47.87845" lon="6.91302">
        <ele>804</ele>
        <time>2026-05-09T19:13:39.032Z</time>
      </trkpt>
      <trkpt lat="47.87846" lon="6.91298">
        <ele>805</ele>
        <time>2026-05-09T19:13:40.032Z</time>
      </trkpt>
      <trkpt lat="47.87847" lon="6.91295">
        <ele>805</ele>
        <time>2026-05-09T19:13:41.032Z</time>
      </trkpt>
      <trkpt lat="47.87848" lon="6.91293">
        <ele>805</ele>
        <time>2026-05-09T19:13:42.032Z</time>
      </trkpt>
      <trkpt lat="47.87848" lon="6.9129">
        <ele>805</ele>
        <time>2026-05-09T19:13:43.033Z</time>
      </trkpt>
      <trkpt lat="47.87848" lon="6.91288">
        <ele>805</ele>
        <time>2026-05-09T19:13:44.032Z</time>
      </trkpt>
      <trkpt lat="47.87849" lon="6.91287">
        <ele>805</ele>
        <time>2026-05-09T19:13:45.032Z</time>
      </trkpt>
      <trkpt lat="47.87849" lon="6.91285">
        <ele>805</ele>
        <time>2026-05-09T19:13:46.032Z</time>
      </trkpt>
      <trkpt lat="47.87849" lon="6.91283">
        <ele>805</ele>
        <time>2026-05-09T19:13:47.032Z</time>
      </trkpt>
      <trkpt lat="47.87849" lon="6.91281">
        <ele>806</ele>
        <time>2026-05-09T19:13:48.032Z</time>
      </trkpt>
      <trkpt lat="47.87849" lon="6.91279">
        <ele>806</ele>
        <time>2026-05-09T19:13:49.032Z</time>
      </trkpt>
      <trkpt lat="47.87849" lon="6.91277">
        <ele>807</ele>
        <time>2026-05-09T19:13:50.032Z</time>
      </trkpt>
      <trkpt lat="47.87849" lon="6.91274">
        <ele>807</ele>
        <time>2026-05-09T19:13:51.032Z</time>
      </trkpt>
      <trkpt lat="47.87849" lon="6.91272">
        <ele>808</ele>
        <time>2026-05-09T19:13:52.033Z</time>
      </trkpt>
      <trkpt lat="47.87849" lon="6.9127">
        <ele>809</ele>
        <time>2026-05-09T19:13:53.032Z</time>
      </trkpt>
      <trkpt lat="47.87849" lon="6.91269">
        <ele>809</ele>
        <time>2026-05-09T19:13:54.033Z</time>
      </trkpt>
      <trkpt lat="47.8785" lon="6.91266">
        <ele>810</ele>
        <time>2026-05-09T19:13:55.032Z</time>
      </trkpt>
      <trkpt lat="47.8785" lon="6.91264">
        <ele>810</ele>
        <time>2026-05-09T19:13:56.032Z</time>
      </trkpt>
      <trkpt lat="47.87851" lon="6.91263">
        <ele>811</ele>
        <time>2026-05-09T19:13:57.032Z</time>
      </trkpt>
      <trkpt lat="47.87852" lon="6.91261">
        <ele>811</ele>
        <time>2026-05-09T19:13:58.032Z</time>
      </trkpt>
      <trkpt lat="47.87852" lon="6.91261">
        <ele>812</ele>
        <time>2026-05-09T19:13:59.032Z</time>
      </trkpt>
      <trkpt lat="47.87852" lon="6.9126">
        <ele>812</ele>
        <time>2026-05-09T19:14:00.033Z</time>
      </trkpt>
      <trkpt lat="47.87852" lon="6.9126">
        <ele>813</ele>
        <time>2026-05-09T19:14:01.032Z</time>
      </trkpt>
      <trkpt lat="47.87852" lon="6.9126">
        <ele>814</ele>
        <time>2026-05-09T19:14:02.032Z</time>
      </trkpt>
      <trkpt lat="47.87852" lon="6.91262">
        <ele>814</ele>
        <time>2026-05-09T19:14:03.032Z</time>
      </trkpt>
      <trkpt lat="47.87852" lon="6.91264">
        <ele>815</ele>
        <time>2026-05-09T19:14:04.033Z</time>
      </trkpt>
      <trkpt lat="47.87852" lon="6.91264">
        <ele>816</ele>
        <time>2026-05-09T19:14:05.032Z</time>
      </trkpt>
      <trkpt lat="47.87851" lon="6.91264">
        <ele>816</ele>
        <time>2026-05-09T19:14:06.032Z</time>
      </trkpt>
      <trkpt lat="47.87851" lon="6.91264">
        <ele>817</ele>
        <time>2026-05-09T19:14:07.032Z</time>
      </trkpt>
      <trkpt lat="47.8785" lon="6.91264">
        <ele>818</ele>
        <time>2026-05-09T19:14:08.032Z</time>
      </trkpt>
      <trkpt lat="47.87849" lon="6.91263">
        <ele>818</ele>
        <time>2026-05-09T19:14:09.033Z</time>
      </trkpt>
      <trkpt lat="47.87848" lon="6.91263">
        <ele>818</ele>
        <time>2026-05-09T19:14:10.032Z</time>
      </trkpt>
      <trkpt lat="47.87847" lon="6.91263">
        <ele>818</ele>
        <time>2026-05-09T19:14:11.032Z</time>
      </trkpt>
      <trkpt lat="47.87847" lon="6.91263">
        <ele>819</ele>
        <time>2026-05-09T19:14:12.032Z</time>
      </trkpt>
      <trkpt lat="47.87846" lon="6.91263">
        <ele>819</ele>
        <time>2026-05-09T19:14:13.032Z</time>
      </trkpt>
      <trkpt lat="47.87846" lon="6.91263">
        <ele>819</ele>
        <time>2026-05-09T19:14:14.032Z</time>
      </trkpt>
      <trkpt lat="47.87845" lon="6.91263">
        <ele>819</ele>
        <time>2026-05-09T19:14:15.032Z</time>
      </trkpt>
      <trkpt lat="47.87844" lon="6.91263">
        <ele>819</ele>
        <time>2026-05-09T19:14:16.033Z</time>
      </trkpt>
      <trkpt lat="47.87844" lon="6.91264">
        <ele>819</ele>
        <time>2026-05-09T19:14:17.033Z</time>
      </trkpt>
      <trkpt lat="47.87843" lon="6.91265">
        <ele>819</ele>
        <time>2026-05-09T19:14:18.032Z</time>
      </trkpt>
      <trkpt lat="47.87842" lon="6.91265">
        <ele>820</ele>
        <time>2026-05-09T19:14:19.032Z</time>
      </trkpt>
      <trkpt lat="47.87842" lon="6.91266">
        <ele>820</ele>
        <time>2026-05-09T19:14:20.033Z</time>
      </trkpt>
      <trkpt lat="47.87841" lon="6.91266">
        <ele>820</ele>
        <time>2026-05-09T19:14:21.032Z</time>
      </trkpt>
      <trkpt lat="47.87841" lon="6.91267">
        <ele>820</ele>
        <time>2026-05-09T19:14:22.033Z</time>
      </trkpt>
      <trkpt lat="47.8784" lon="6.91268">
        <ele>820</ele>
        <time>2026-05-09T19:14:23.033Z</time>
      </trkpt>
      <trkpt lat="47.87839" lon="6.91269">
        <ele>821</ele>
        <time>2026-05-09T19:14:24.032Z</time>
      </trkpt>
      <trkpt lat="47.87837" lon="6.91269">
        <ele>821</ele>
        <time>2026-05-09T19:14:25.033Z</time>
      </trkpt>
      <trkpt lat="47.87835" lon="6.9127">
        <ele>821</ele>
        <time>2026-05-09T19:14:26.032Z</time>
      </trkpt>
      <trkpt lat="47.87833" lon="6.9127">
        <ele>820</ele>
        <time>2026-05-09T19:14:27.032Z</time>
      </trkpt>
      <trkpt lat="47.87832" lon="6.91269">
        <ele>820</ele>
        <time>2026-05-09T19:14:28.032Z</time>
      </trkpt>
      <trkpt lat="47.87832" lon="6.91268">
        <ele>819</ele>
        <time>2026-05-09T19:14:29.032Z</time>
      </trkpt>
      <trkpt lat="47.87832" lon="6.91268">
        <ele>819</ele>
        <time>2026-05-09T19:14:30.033Z</time>
      </trkpt>
      <trkpt lat="47.87831" lon="6.91267">
        <ele>818</ele>
        <time>2026-05-09T19:14:31.032Z</time>
      </trkpt>
      <trkpt lat="47.87831" lon="6.91266">
        <ele>817</ele>
        <time>2026-05-09T19:14:32.032Z</time>
      </trkpt>
      <trkpt lat="47.8783" lon="6.91265">
        <ele>817</ele>
        <time>2026-05-09T19:14:33.033Z</time>
      </trkpt>
      <trkpt lat="47.8783" lon="6.91265">
        <ele>816</ele>
        <time>2026-05-09T19:14:34.032Z</time>
      </trkpt>
      <trkpt lat="47.87831" lon="6.91264">
        <ele>816</ele>
        <time>2026-05-09T19:14:35.032Z</time>
      </trkpt>
      <trkpt lat="47.8783" lon="6.91264">
        <ele>815</ele>
        <time>2026-05-09T19:14:36.033Z</time>
      </trkpt>
      <trkpt lat="47.8783" lon="6.91264">
        <ele>815</ele>
        <time>2026-05-09T19:14:37.032Z</time>
      </trkpt>
      <trkpt lat="47.8783" lon="6.91264">
        <ele>808</ele>
        <time>2026-05-09T19:14:47.187Z</time>
      </trkpt>
      <trkpt lat="47.87829" lon="6.91264">
        <ele>808</ele>
        <time>2026-05-09T19:14:48.186Z</time>
      </trkpt>
      <trkpt lat="47.87824" lon="6.91266">
        <ele>808</ele>
        <time>2026-05-09T19:14:55.386Z</time>
      </trkpt>
      <trkpt lat="47.87823" lon="6.91267">
        <ele>808</ele>
        <time>2026-05-09T19:14:56.387Z</time>
      </trkpt>
      <trkpt lat="47.87822" lon="6.91267">
        <ele>809</ele>
        <time>2026-05-09T19:14:57.386Z</time>
      </trkpt>
      <trkpt lat="47.87821" lon="6.91267">
        <ele>809</ele>
        <time>2026-05-09T19:14:58.387Z</time>
      </trkpt>
      <trkpt lat="47.87821" lon="6.91266">
        <ele>810</ele>
        <time>2026-05-09T19:14:59.387Z</time>
      </trkpt>
      <trkpt lat="47.8782" lon="6.91267">
        <ele>810</ele>
        <time>2026-05-09T19:15:00.387Z</time>
      </trkpt>
      <trkpt lat="47.87818" lon="6.91267">
        <ele>811</ele>
        <time>2026-05-09T19:15:01.386Z</time>
      </trkpt>
      <trkpt lat="47.87818" lon="6.91267">
        <ele>811</ele>
        <time>2026-05-09T19:15:02.386Z</time>
      </trkpt>
      <trkpt lat="47.87817" lon="6.91267">
        <ele>812</ele>
        <time>2026-05-09T19:15:03.387Z</time>
      </trkpt>
      <trkpt lat="47.87816" lon="6.91268">
        <ele>812</ele>
        <time>2026-05-09T19:15:04.386Z</time>
      </trkpt>
      <trkpt lat="47.87815" lon="6.91269">
        <ele>813</ele>
        <time>2026-05-09T19:15:05.387Z</time>
      </trkpt>
      <trkpt lat="47.87814" lon="6.91269">
        <ele>813</ele>
        <time>2026-05-09T19:15:06.386Z</time>
      </trkpt>
      <trkpt lat="47.87813" lon="6.9127">
        <ele>814</ele>
        <time>2026-05-09T19:15:07.387Z</time>
      </trkpt>
      <trkpt lat="47.87813" lon="6.9127">
        <ele>814</ele>
        <time>2026-05-09T19:15:08.386Z</time>
      </trkpt>
      <trkpt lat="47.87812" lon="6.91271">
        <ele>815</ele>
        <time>2026-05-09T19:15:09.387Z</time>
      </trkpt>
      <trkpt lat="47.87811" lon="6.91271">
        <ele>816</ele>
        <time>2026-05-09T19:15:10.386Z</time>
      </trkpt>
      <trkpt lat="47.87811" lon="6.91271">
        <ele>816</ele>
        <time>2026-05-09T19:15:11.387Z</time>
      </trkpt>
      <trkpt lat="47.8781" lon="6.91271">
        <ele>817</ele>
        <time>2026-05-09T19:15:12.386Z</time>
      </trkpt>
      <trkpt lat="47.87809" lon="6.91272">
        <ele>817</ele>
        <time>2026-05-09T19:15:13.386Z</time>
      </trkpt>
      <trkpt lat="47.87808" lon="6.91273">
        <ele>817</ele>
        <time>2026-05-09T19:15:14.386Z</time>
      </trkpt>
      <trkpt lat="47.87807" lon="6.91273">
        <ele>817</ele>
        <time>2026-05-09T19:15:15.387Z</time>
      </trkpt>
      <trkpt lat="47.87806" lon="6.91274">
        <ele>818</ele>
        <time>2026-05-09T19:15:16.386Z</time>
      </trkpt>
      <trkpt lat="47.87805" lon="6.91275">
        <ele>818</ele>
        <time>2026-05-09T19:15:17.387Z</time>
      </trkpt>
      <trkpt lat="47.87804" lon="6.91276">
        <ele>819</ele>
        <time>2026-05-09T19:15:18.386Z</time>
      </trkpt>
      <trkpt lat="47.87803" lon="6.91277">
        <ele>819</ele>
        <time>2026-05-09T19:15:19.386Z</time>
      </trkpt>
      <trkpt lat="47.87803" lon="6.91278">
        <ele>820</ele>
        <time>2026-05-09T19:15:20.387Z</time>
      </trkpt>
      <trkpt lat="47.87802" lon="6.91279">
        <ele>820</ele>
        <time>2026-05-09T19:15:21.387Z</time>
      </trkpt>
      <trkpt lat="47.87801" lon="6.9128">
        <ele>821</ele>
        <time>2026-05-09T19:15:22.387Z</time>
      </trkpt>
      <trkpt lat="47.87801" lon="6.9128">
        <ele>821</ele>
        <time>2026-05-09T19:15:23.386Z</time>
      </trkpt>
      <trkpt lat="47.878" lon="6.9128">
        <ele>821</ele>
        <time>2026-05-09T19:15:24.386Z</time>
      </trkpt>
      <trkpt lat="47.878" lon="6.91282">
        <ele>821</ele>
        <time>2026-05-09T19:15:25.387Z</time>
      </trkpt>
      <trkpt lat="47.87798" lon="6.91283">
        <ele>821</ele>
        <time>2026-05-09T19:15:26.386Z</time>
      </trkpt>
      <trkpt lat="47.87797" lon="6.91285">
        <ele>821</ele>
        <time>2026-05-09T19:15:27.387Z</time>
      </trkpt>
      <trkpt lat="47.87795" lon="6.91287">
        <ele>821</ele>
        <time>2026-05-09T19:15:28.387Z</time>
      </trkpt>
      <trkpt lat="47.87793" lon="6.91289">
        <ele>821</ele>
        <time>2026-05-09T19:15:29.386Z</time>
      </trkpt>
      <trkpt lat="47.87791" lon="6.9129">
        <ele>821</ele>
        <time>2026-05-09T19:15:30.387Z</time>
      </trkpt>
      <trkpt lat="47.8779" lon="6.91291">
        <ele>821</ele>
        <time>2026-05-09T19:15:31.386Z</time>
      </trkpt>
      <trkpt lat="47.87789" lon="6.91293">
        <ele>821</ele>
        <time>2026-05-09T19:15:32.387Z</time>
      </trkpt>
      <trkpt lat="47.87787" lon="6.91295">
        <ele>821</ele>
        <time>2026-05-09T19:15:33.386Z</time>
      </trkpt>
      <trkpt lat="47.87785" lon="6.91296">
        <ele>821</ele>
        <time>2026-05-09T19:15:34.387Z</time>
      </trkpt>
      <trkpt lat="47.87784" lon="6.91298">
        <ele>821</ele>
        <time>2026-05-09T19:15:35.386Z</time>
      </trkpt>
      <trkpt lat="47.87782" lon="6.913">
        <ele>821</ele>
        <time>2026-05-09T19:15:36.387Z</time>
      </trkpt>
      <trkpt lat="47.87781" lon="6.91302">
        <ele>821</ele>
        <time>2026-05-09T19:15:37.386Z</time>
      </trkpt>
      <trkpt lat="47.87781" lon="6.91304">
        <ele>822</ele>
        <time>2026-05-09T19:15:38.386Z</time>
      </trkpt>
      <trkpt lat="47.8778" lon="6.91305">
        <ele>822</ele>
        <time>2026-05-09T19:15:39.386Z</time>
      </trkpt>
      <trkpt lat="47.8778" lon="6.91308">
        <ele>822</ele>
        <time>2026-05-09T19:15:40.387Z</time>
      </trkpt>
      <trkpt lat="47.87779" lon="6.91311">
        <ele>822</ele>
        <time>2026-05-09T19:15:41.386Z</time>
      </trkpt>
      <trkpt lat="47.87779" lon="6.91311">
        <ele>823</ele>
        <time>2026-05-09T19:15:42.386Z</time>
      </trkpt>
      <trkpt lat="47.87777" lon="6.91312">
        <ele>823</ele>
        <time>2026-05-09T19:15:43.387Z</time>
      </trkpt>
      <trkpt lat="47.87776" lon="6.91313">
        <ele>823</ele>
        <time>2026-05-09T19:15:44.386Z</time>
      </trkpt>
      <trkpt lat="47.87776" lon="6.91314">
        <ele>823</ele>
        <time>2026-05-09T19:15:45.387Z</time>
      </trkpt>
      <trkpt lat="47.87775" lon="6.91314">
        <ele>823</ele>
        <time>2026-05-09T19:15:46.386Z</time>
      </trkpt>
      <trkpt lat="47.87774" lon="6.91315">
        <ele>823</ele>
        <time>2026-05-09T19:15:47.386Z</time>
      </trkpt>
      <trkpt lat="47.87773" lon="6.91316">
        <ele>823</ele>
        <time>2026-05-09T19:15:48.387Z</time>
      </trkpt>
      <trkpt lat="47.87773" lon="6.91317">
        <ele>823</ele>
        <time>2026-05-09T19:15:49.386Z</time>
      </trkpt>
      <trkpt lat="47.87773" lon="6.91318">
        <ele>823</ele>
        <time>2026-05-09T19:15:50.386Z</time>
      </trkpt>
      <trkpt lat="47.87773" lon="6.91319">
        <ele>823</ele>
        <time>2026-05-09T19:15:51.387Z</time>
      </trkpt>
      <trkpt lat="47.87773" lon="6.91321">
        <ele>823</ele>
        <time>2026-05-09T19:15:52.386Z</time>
      </trkpt>
      <trkpt lat="47.87773" lon="6.91322">
        <ele>823</ele>
        <time>2026-05-09T19:15:53.386Z</time>
      </trkpt>
      <trkpt lat="47.87773" lon="6.91323">
        <ele>823</ele>
        <time>2026-05-09T19:15:54.386Z</time>
      </trkpt>
      <trkpt lat="47.87773" lon="6.91324">
        <ele>823</ele>
        <time>2026-05-09T19:15:55.387Z</time>
      </trkpt>
      <trkpt lat="47.87773" lon="6.91325">
        <ele>823</ele>
        <time>2026-05-09T19:15:56.386Z</time>
      </trkpt>
      <trkpt lat="47.87773" lon="6.91327">
        <ele>824</ele>
        <time>2026-05-09T19:15:57.386Z</time>
      </trkpt>
      <trkpt lat="47.87773" lon="6.91328">
        <ele>824</ele>
        <time>2026-05-09T19:15:58.387Z</time>
      </trkpt>
      <trkpt lat="47.87773" lon="6.9133">
        <ele>824</ele>
        <time>2026-05-09T19:15:59.386Z</time>
      </trkpt>
      <trkpt lat="47.87773" lon="6.9133">
        <ele>824</ele>
        <time>2026-05-09T19:16:00.387Z</time>
      </trkpt>
      <trkpt lat="47.87773" lon="6.91331">
        <ele>825</ele>
        <time>2026-05-09T19:16:01.386Z</time>
      </trkpt>
      <trkpt lat="47.87773" lon="6.91331">
        <ele>825</ele>
        <time>2026-05-09T19:16:02.386Z</time>
      </trkpt>
      <trkpt lat="47.87772" lon="6.91333">
        <ele>825</ele>
        <time>2026-05-09T19:16:03.387Z</time>
      </trkpt>
      <trkpt lat="47.87772" lon="6.91333">
        <ele>825</ele>
        <time>2026-05-09T19:16:04.386Z</time>
      </trkpt>
      <trkpt lat="47.87772" lon="6.91334">
        <ele>825</ele>
        <time>2026-05-09T19:16:05.386Z</time>
      </trkpt>
      <trkpt lat="47.87771" lon="6.91335">
        <ele>825</ele>
        <time>2026-05-09T19:16:06.387Z</time>
      </trkpt>
      <trkpt lat="47.87771" lon="6.91336">
        <ele>825</ele>
        <time>2026-05-09T19:16:07.386Z</time>
      </trkpt>
      <trkpt lat="47.8777" lon="6.91338">
        <ele>825</ele>
        <time>2026-05-09T19:16:08.386Z</time>
      </trkpt>
      <trkpt lat="47.8777" lon="6.91339">
        <ele>825</ele>
        <time>2026-05-09T19:16:09.386Z</time>
      </trkpt>
      <trkpt lat="47.87769" lon="6.91341">
        <ele>825</ele>
        <time>2026-05-09T19:16:10.386Z</time>
      </trkpt>
      <trkpt lat="47.87769" lon="6.91343">
        <ele>825</ele>
        <time>2026-05-09T19:16:11.386Z</time>
      </trkpt>
      <trkpt lat="47.87768" lon="6.91345">
        <ele>825</ele>
        <time>2026-05-09T19:16:12.386Z</time>
      </trkpt>
      <trkpt lat="47.87767" lon="6.91346">
        <ele>825</ele>
        <time>2026-05-09T19:16:13.386Z</time>
      </trkpt>
      <trkpt lat="47.87767" lon="6.91348">
        <ele>824</ele>
        <time>2026-05-09T19:16:14.386Z</time>
      </trkpt>
      <trkpt lat="47.87767" lon="6.91349">
        <ele>825</ele>
        <time>2026-05-09T19:16:15.386Z</time>
      </trkpt>
      <trkpt lat="47.87766" lon="6.91351">
        <ele>825</ele>
        <time>2026-05-09T19:16:16.386Z</time>
      </trkpt>
      <trkpt lat="47.87766" lon="6.91352">
        <ele>825</ele>
        <time>2026-05-09T19:16:17.386Z</time>
      </trkpt>
      <trkpt lat="47.87765" lon="6.91354">
        <ele>825</ele>
        <time>2026-05-09T19:16:18.386Z</time>
      </trkpt>
      <trkpt lat="47.87765" lon="6.91356">
        <ele>825</ele>
        <time>2026-05-09T19:16:19.386Z</time>
      </trkpt>
      <trkpt lat="47.87764" lon="6.91357">
        <ele>825</ele>
        <time>2026-05-09T19:16:20.386Z</time>
      </trkpt>
      <trkpt lat="47.87764" lon="6.91359">
        <ele>824</ele>
        <time>2026-05-09T19:16:21.387Z</time>
      </trkpt>
      <trkpt lat="47.87762" lon="6.91362">
        <ele>824</ele>
        <time>2026-05-09T19:16:22.386Z</time>
      </trkpt>
      <trkpt lat="47.87761" lon="6.91365">
        <ele>824</ele>
        <time>2026-05-09T19:16:23.387Z</time>
      </trkpt>
      <trkpt lat="47.8776" lon="6.91367">
        <ele>824</ele>
        <time>2026-05-09T19:16:24.386Z</time>
      </trkpt>
      <trkpt lat="47.8776" lon="6.91369">
        <ele>824</ele>
        <time>2026-05-09T19:16:25.387Z</time>
      </trkpt>
      <trkpt lat="47.87761" lon="6.9137">
        <ele>824</ele>
        <time>2026-05-09T19:16:26.386Z</time>
      </trkpt>
      <trkpt lat="47.87762" lon="6.91372">
        <ele>825</ele>
        <time>2026-05-09T19:16:27.387Z</time>
      </trkpt>
      <trkpt lat="47.87762" lon="6.91373">
        <ele>825</ele>
        <time>2026-05-09T19:16:28.386Z</time>
      </trkpt>
      <trkpt lat="47.87762" lon="6.91374">
        <ele>825</ele>
        <time>2026-05-09T19:16:29.387Z</time>
      </trkpt>
      <trkpt lat="47.87762" lon="6.91376">
        <ele>825</ele>
        <time>2026-05-09T19:16:30.386Z</time>
      </trkpt>
      <trkpt lat="47.87762" lon="6.91377">
        <ele>825</ele>
        <time>2026-05-09T19:16:31.386Z</time>
      </trkpt>
      <trkpt lat="47.87762" lon="6.91378">
        <ele>825</ele>
        <time>2026-05-09T19:16:32.387Z</time>
      </trkpt>
      <trkpt lat="47.87761" lon="6.91379">
        <ele>825</ele>
        <time>2026-05-09T19:16:33.386Z</time>
      </trkpt>
      <trkpt lat="47.87761" lon="6.9138">
        <ele>825</ele>
        <time>2026-05-09T19:16:34.386Z</time>
      </trkpt>
      <trkpt lat="47.87761" lon="6.91381">
        <ele>826</ele>
        <time>2026-05-09T19:16:35.386Z</time>
      </trkpt>
      <trkpt lat="47.8776" lon="6.91382">
        <ele>826</ele>
        <time>2026-05-09T19:16:36.386Z</time>
      </trkpt>
      <trkpt lat="47.87759" lon="6.91383">
        <ele>826</ele>
        <time>2026-05-09T19:16:37.386Z</time>
      </trkpt>
      <trkpt lat="47.87758" lon="6.91384">
        <ele>826</ele>
        <time>2026-05-09T19:16:38.386Z</time>
      </trkpt>
      <trkpt lat="47.87757" lon="6.91385">
        <ele>826</ele>
        <time>2026-05-09T19:16:39.386Z</time>
      </trkpt>
      <trkpt lat="47.87757" lon="6.91386">
        <ele>827</ele>
        <time>2026-05-09T19:16:40.386Z</time>
      </trkpt>
      <trkpt lat="47.87757" lon="6.91387">
        <ele>827</ele>
        <time>2026-05-09T19:16:41.387Z</time>
      </trkpt>
      <trkpt lat="47.87756" lon="6.91389">
        <ele>827</ele>
        <time>2026-05-09T19:16:42.386Z</time>
      </trkpt>
      <trkpt lat="47.87756" lon="6.91391">
        <ele>827</ele>
        <time>2026-05-09T19:16:43.386Z</time>
      </trkpt>
      <trkpt lat="47.87756" lon="6.91392">
        <ele>827</ele>
        <time>2026-05-09T19:16:44.386Z</time>
      </trkpt>
      <trkpt lat="47.87756" lon="6.91394">
        <ele>827</ele>
        <time>2026-05-09T19:16:45.387Z</time>
      </trkpt>
      <trkpt lat="47.87755" lon="6.91396">
        <ele>827</ele>
        <time>2026-05-09T19:16:46.386Z</time>
      </trkpt>
      <trkpt lat="47.87755" lon="6.91398">
        <ele>827</ele>
        <time>2026-05-09T19:16:47.387Z</time>
      </trkpt>
      <trkpt lat="47.87755" lon="6.914">
        <ele>827</ele>
        <time>2026-05-09T19:16:48.386Z</time>
      </trkpt>
      <trkpt lat="47.87755" lon="6.91401">
        <ele>827</ele>
        <time>2026-05-09T19:16:49.387Z</time>
      </trkpt>
      <trkpt lat="47.87754" lon="6.91403">
        <ele>827</ele>
        <time>2026-05-09T19:16:50.386Z</time>
      </trkpt>
      <trkpt lat="47.87754" lon="6.91405">
        <ele>827</ele>
        <time>2026-05-09T19:16:51.386Z</time>
      </trkpt>
      <trkpt lat="47.87754" lon="6.91407">
        <ele>827</ele>
        <time>2026-05-09T19:16:52.386Z</time>
      </trkpt>
      <trkpt lat="47.87753" lon="6.9141">
        <ele>827</ele>
        <time>2026-05-09T19:16:53.387Z</time>
      </trkpt>
      <trkpt lat="47.87752" lon="6.91412">
        <ele>827</ele>
        <time>2026-05-09T19:16:54.386Z</time>
      </trkpt>
      <trkpt lat="47.87751" lon="6.91414">
        <ele>827</ele>
        <time>2026-05-09T19:16:55.387Z</time>
      </trkpt>
      <trkpt lat="47.87751" lon="6.91416">
        <ele>827</ele>
        <time>2026-05-09T19:16:56.386Z</time>
      </trkpt>
      <trkpt lat="47.8775" lon="6.91419">
        <ele>828</ele>
        <time>2026-05-09T19:16:57.387Z</time>
      </trkpt>
      <trkpt lat="47.8775" lon="6.91419">
        <ele>828</ele>
        <time>2026-05-09T19:16:58.387Z</time>
      </trkpt>
      <trkpt lat="47.8775" lon="6.9142">
        <ele>828</ele>
        <time>2026-05-09T19:16:59.387Z</time>
      </trkpt>
      <trkpt lat="47.8775" lon="6.91421">
        <ele>828</ele>
        <time>2026-05-09T19:17:00.387Z</time>
      </trkpt>
      <trkpt lat="47.87749" lon="6.91423">
        <ele>828</ele>
        <time>2026-05-09T19:17:01.387Z</time>
      </trkpt>
      <trkpt lat="47.8775" lon="6.91426">
        <ele>828</ele>
        <time>2026-05-09T19:17:02.386Z</time>
      </trkpt>
      <trkpt lat="47.87751" lon="6.91427">
        <ele>828</ele>
        <time>2026-05-09T19:17:03.386Z</time>
      </trkpt>
      <trkpt lat="47.87753" lon="6.91428">
        <ele>828</ele>
        <time>2026-05-09T19:17:04.386Z</time>
      </trkpt>
      <trkpt lat="47.87754" lon="6.91429">
        <ele>828</ele>
        <time>2026-05-09T19:17:05.386Z</time>
      </trkpt>
      <trkpt lat="47.87755" lon="6.91432">
        <ele>828</ele>
        <time>2026-05-09T19:17:06.386Z</time>
      </trkpt>
      <trkpt lat="47.87754" lon="6.91435">
        <ele>828</ele>
        <time>2026-05-09T19:17:07.386Z</time>
      </trkpt>
      <trkpt lat="47.87754" lon="6.91437">
        <ele>828</ele>
        <time>2026-05-09T19:17:08.386Z</time>
      </trkpt>
      <trkpt lat="47.87754" lon="6.9144">
        <ele>828</ele>
        <time>2026-05-09T19:17:09.387Z</time>
      </trkpt>
      <trkpt lat="47.87753" lon="6.91441">
        <ele>828</ele>
        <time>2026-05-09T19:17:10.386Z</time>
      </trkpt>
      <trkpt lat="47.8775" lon="6.91444">
        <ele>828</ele>
        <time>2026-05-09T19:17:11.387Z</time>
      </trkpt>
      <trkpt lat="47.87748" lon="6.91446">
        <ele>828</ele>
        <time>2026-05-09T19:17:12.386Z</time>
      </trkpt>
      <trkpt lat="47.87746" lon="6.91448">
        <ele>828</ele>
        <time>2026-05-09T19:17:13.386Z</time>
      </trkpt>
      <trkpt lat="47.87746" lon="6.9145">
        <ele>828</ele>
        <time>2026-05-09T19:17:14.386Z</time>
      </trkpt>
      <trkpt lat="47.87745" lon="6.91452">
        <ele>828</ele>
        <time>2026-05-09T19:17:15.387Z</time>
      </trkpt>
      <trkpt lat="47.87745" lon="6.91454">
        <ele>828</ele>
        <time>2026-05-09T19:17:16.386Z</time>
      </trkpt>
      <trkpt lat="47.87744" lon="6.91454">
        <ele>827</ele>
        <time>2026-05-09T19:17:17.387Z</time>
      </trkpt>
      <trkpt lat="47.87744" lon="6.91456">
        <ele>827</ele>
        <time>2026-05-09T19:17:18.386Z</time>
      </trkpt>
      <trkpt lat="47.87743" lon="6.91458">
        <ele>827</ele>
        <time>2026-05-09T19:17:19.387Z</time>
      </trkpt>
      <trkpt lat="47.87743" lon="6.9146">
        <ele>827</ele>
        <time>2026-05-09T19:17:20.386Z</time>
      </trkpt>
      <trkpt lat="47.87742" lon="6.91462">
        <ele>827</ele>
        <time>2026-05-09T19:17:21.386Z</time>
      </trkpt>
      <trkpt lat="47.87743" lon="6.91464">
        <ele>827</ele>
        <time>2026-05-09T19:17:22.386Z</time>
      </trkpt>
      <trkpt lat="47.87743" lon="6.91465">
        <ele>827</ele>
        <time>2026-05-09T19:17:23.386Z</time>
      </trkpt>
      <trkpt lat="47.87744" lon="6.91466">
        <ele>827</ele>
        <time>2026-05-09T19:17:24.386Z</time>
      </trkpt>
      <trkpt lat="47.87745" lon="6.91465">
        <ele>827</ele>
        <time>2026-05-09T19:17:25.386Z</time>
      </trkpt>
      <trkpt lat="47.87745" lon="6.91464">
        <ele>827</ele>
        <time>2026-05-09T19:17:26.386Z</time>
      </trkpt>
      <trkpt lat="47.87746" lon="6.91464">
        <ele>828</ele>
        <time>2026-05-09T19:17:27.386Z</time>
      </trkpt>
      <trkpt lat="47.87747" lon="6.91464">
        <ele>828</ele>
        <time>2026-05-09T19:17:28.386Z</time>
      </trkpt>
      <trkpt lat="47.87747" lon="6.91465">
        <ele>828</ele>
        <time>2026-05-09T19:17:29.386Z</time>
      </trkpt>
      <trkpt lat="47.87747" lon="6.91465">
        <ele>828</ele>
        <time>2026-05-09T19:17:30.386Z</time>
      </trkpt>
      <trkpt lat="47.87746" lon="6.91465">
        <ele>828</ele>
        <time>2026-05-09T19:17:31.387Z</time>
      </trkpt>
      <trkpt lat="47.87746" lon="6.91466">
        <ele>828</ele>
        <time>2026-05-09T19:17:32.386Z</time>
      </trkpt>
      <trkpt lat="47.87747" lon="6.91466">
        <ele>828</ele>
        <time>2026-05-09T19:17:33.386Z</time>
      </trkpt>
      <trkpt lat="47.87748" lon="6.91466">
        <ele>828</ele>
        <time>2026-05-09T19:17:34.387Z</time>
      </trkpt>
      <trkpt lat="47.87748" lon="6.91467">
        <ele>829</ele>
        <time>2026-05-09T19:17:35.387Z</time>
      </trkpt>
      <trkpt lat="47.87748" lon="6.91467">
        <ele>829</ele>
        <time>2026-05-09T19:17:36.386Z</time>
      </trkpt>
      <trkpt lat="47.87748" lon="6.91467">
        <ele>829</ele>
        <time>2026-05-09T19:17:37.387Z</time>
      </trkpt>
      <trkpt lat="47.87749" lon="6.91467">
        <ele>829</ele>
        <time>2026-05-09T19:17:38.387Z</time>
      </trkpt>
      <trkpt lat="47.8775" lon="6.91468">
        <ele>829</ele>
        <time>2026-05-09T19:17:39.387Z</time>
      </trkpt>
      <trkpt lat="47.8775" lon="6.91468">
        <ele>829</ele>
        <time>2026-05-09T19:17:40.386Z</time>
      </trkpt>
      <trkpt lat="47.8775" lon="6.91469">
        <ele>829</ele>
        <time>2026-05-09T19:17:41.386Z</time>
      </trkpt>
      <trkpt lat="47.87751" lon="6.9147">
        <ele>829</ele>
        <time>2026-05-09T19:17:42.386Z</time>
      </trkpt>
      <trkpt lat="47.87751" lon="6.91471">
        <ele>829</ele>
        <time>2026-05-09T19:17:43.387Z</time>
      </trkpt>
      <trkpt lat="47.87751" lon="6.91471">
        <ele>830</ele>
        <time>2026-05-09T19:17:44.387Z</time>
      </trkpt>
      <trkpt lat="47.87751" lon="6.91472">
        <ele>829</ele>
        <time>2026-05-09T19:17:45.386Z</time>
      </trkpt>
      <trkpt lat="47.8775" lon="6.91473">
        <ele>829</ele>
        <time>2026-05-09T19:17:46.386Z</time>
      </trkpt>
      <trkpt lat="47.87749" lon="6.91474">
        <ele>829</ele>
        <time>2026-05-09T19:17:47.387Z</time>
      </trkpt>
      <trkpt lat="47.87748" lon="6.91475">
        <ele>829</ele>
        <time>2026-05-09T19:17:48.387Z</time>
      </trkpt>
      <trkpt lat="47.87747" lon="6.91476">
        <ele>829</ele>
        <time>2026-05-09T19:17:49.386Z</time>
      </trkpt>
      <trkpt lat="47.87746" lon="6.91478">
        <ele>830</ele>
        <time>2026-05-09T19:17:50.386Z</time>
      </trkpt>
      <trkpt lat="47.87745" lon="6.9148">
        <ele>830</ele>
        <time>2026-05-09T19:17:51.387Z</time>
      </trkpt>
      <trkpt lat="47.87744" lon="6.91481">
        <ele>830</ele>
        <time>2026-05-09T19:17:52.387Z</time>
      </trkpt>
      <trkpt lat="47.87742" lon="6.91483">
        <ele>831</ele>
        <time>2026-05-09T19:17:53.387Z</time>
      </trkpt>
      <trkpt lat="47.87741" lon="6.91484">
        <ele>832</ele>
        <time>2026-05-09T19:17:54.386Z</time>
      </trkpt>
      <trkpt lat="47.8774" lon="6.91484">
        <ele>832</ele>
        <time>2026-05-09T19:17:55.386Z</time>
      </trkpt>
      <trkpt lat="47.87739" lon="6.91485">
        <ele>833</ele>
        <time>2026-05-09T19:17:56.386Z</time>
      </trkpt>
      <trkpt lat="47.87737" lon="6.91485">
        <ele>833</ele>
        <time>2026-05-09T19:17:57.386Z</time>
      </trkpt>
      <trkpt lat="47.87736" lon="6.91486">
        <ele>834</ele>
        <time>2026-05-09T19:17:58.386Z</time>
      </trkpt>
      <trkpt lat="47.87735" lon="6.91486">
        <ele>834</ele>
        <time>2026-05-09T19:17:59.387Z</time>
      </trkpt>
      <trkpt lat="47.87734" lon="6.91487">
        <ele>835</ele>
        <time>2026-05-09T19:18:00.387Z</time>
      </trkpt>
      <trkpt lat="47.87734" lon="6.91487">
        <ele>835</ele>
        <time>2026-05-09T19:18:01.386Z</time>
      </trkpt>
      <trkpt lat="47.87732" lon="6.91488">
        <ele>836</ele>
        <time>2026-05-09T19:18:02.386Z</time>
      </trkpt>
      <trkpt lat="47.87731" lon="6.91489">
        <ele>836</ele>
        <time>2026-05-09T19:18:03.386Z</time>
      </trkpt>
      <trkpt lat="47.8773" lon="6.91491">
        <ele>836</ele>
        <time>2026-05-09T19:18:04.387Z</time>
      </trkpt>
      <trkpt lat="47.8773" lon="6.91491">
        <ele>837</ele>
        <time>2026-05-09T19:18:05.387Z</time>
      </trkpt>
      <trkpt lat="47.87729" lon="6.91491">
        <ele>837</ele>
        <time>2026-05-09T19:18:06.387Z</time>
      </trkpt>
      <trkpt lat="47.87728" lon="6.91493">
        <ele>838</ele>
        <time>2026-05-09T19:18:07.387Z</time>
      </trkpt>
      <trkpt lat="47.87727" lon="6.91495">
        <ele>838</ele>
        <time>2026-05-09T19:18:08.387Z</time>
      </trkpt>
      <trkpt lat="47.87727" lon="6.91495">
        <ele>838</ele>
        <time>2026-05-09T19:18:09.386Z</time>
      </trkpt>
      <trkpt lat="47.87726" lon="6.91495">
        <ele>839</ele>
        <time>2026-05-09T19:18:10.386Z</time>
      </trkpt>
      <trkpt lat="47.87726" lon="6.91495">
        <ele>839</ele>
        <time>2026-05-09T19:18:11.386Z</time>
      </trkpt>
      <trkpt lat="47.87726" lon="6.91495">
        <ele>839</ele>
        <time>2026-05-09T19:18:12.386Z</time>
      </trkpt>
      <trkpt lat="47.87725" lon="6.91496">
        <ele>840</ele>
        <time>2026-05-09T19:18:13.386Z</time>
      </trkpt>
      <trkpt lat="47.87724" lon="6.91496">
        <ele>840</ele>
        <time>2026-05-09T19:18:14.387Z</time>
      </trkpt>
      <trkpt lat="47.87723" lon="6.91496">
        <ele>840</ele>
        <time>2026-05-09T19:18:15.387Z</time>
      </trkpt>
      <trkpt lat="47.87723" lon="6.91497">
        <ele>841</ele>
        <time>2026-05-09T19:18:16.386Z</time>
      </trkpt>
      <trkpt lat="47.87722" lon="6.91497">
        <ele>841</ele>
        <time>2026-05-09T19:18:17.386Z</time>
      </trkpt>
      <trkpt lat="47.87722" lon="6.91496">
        <ele>842</ele>
        <time>2026-05-09T19:18:18.386Z</time>
      </trkpt>
      <trkpt lat="47.87722" lon="6.91497">
        <ele>842</ele>
        <time>2026-05-09T19:18:19.386Z</time>
      </trkpt>
      <trkpt lat="47.87721" lon="6.91497">
        <ele>842</ele>
        <time>2026-05-09T19:18:20.387Z</time>
      </trkpt>
      <trkpt lat="47.8772" lon="6.91498">
        <ele>842</ele>
        <time>2026-05-09T19:18:21.386Z</time>
      </trkpt>
      <trkpt lat="47.8772" lon="6.91497">
        <ele>843</ele>
        <time>2026-05-09T19:18:22.386Z</time>
      </trkpt>
      <trkpt lat="47.87719" lon="6.91497">
        <ele>843</ele>
        <time>2026-05-09T19:18:23.386Z</time>
      </trkpt>
      <trkpt lat="47.87719" lon="6.91497">
        <ele>844</ele>
        <time>2026-05-09T19:18:24.386Z</time>
      </trkpt>
      <trkpt lat="47.87719" lon="6.91497">
        <ele>844</ele>
        <time>2026-05-09T19:18:25.386Z</time>
      </trkpt>
      <trkpt lat="47.87719" lon="6.91496">
        <ele>844</ele>
        <time>2026-05-09T19:18:26.386Z</time>
      </trkpt>
      <trkpt lat="47.87718" lon="6.91496">
        <ele>845</ele>
        <time>2026-05-09T19:18:27.386Z</time>
      </trkpt>
      <trkpt lat="47.87719" lon="6.91494">
        <ele>845</ele>
        <time>2026-05-09T19:18:28.386Z</time>
      </trkpt>
      <trkpt lat="47.87718" lon="6.91494">
        <ele>846</ele>
        <time>2026-05-09T19:18:29.387Z</time>
      </trkpt>
      <trkpt lat="47.87717" lon="6.91494">
        <ele>846</ele>
        <time>2026-05-09T19:18:30.386Z</time>
      </trkpt>
      <trkpt lat="47.87717" lon="6.91493">
        <ele>847</ele>
        <time>2026-05-09T19:18:31.386Z</time>
      </trkpt>
      <trkpt lat="47.87718" lon="6.91492">
        <ele>847</ele>
        <time>2026-05-09T19:18:32.386Z</time>
      </trkpt>
      <trkpt lat="47.87718" lon="6.9149">
        <ele>848</ele>
        <time>2026-05-09T19:18:33.386Z</time>
      </trkpt>
      <trkpt lat="47.87719" lon="6.91489">
        <ele>848</ele>
        <time>2026-05-09T19:18:34.387Z</time>
      </trkpt>
      <trkpt lat="47.87719" lon="6.91487">
        <ele>849</ele>
        <time>2026-05-09T19:18:35.386Z</time>
      </trkpt>
      <trkpt lat="47.87719" lon="6.91486">
        <ele>849</ele>
        <time>2026-05-09T19:18:36.387Z</time>
      </trkpt>
      <trkpt lat="47.8772" lon="6.91486">
        <ele>849</ele>
        <time>2026-05-09T19:18:37.387Z</time>
      </trkpt>
      <trkpt lat="47.8772" lon="6.91485">
        <ele>850</ele>
        <time>2026-05-09T19:18:38.387Z</time>
      </trkpt>
      <trkpt lat="47.87721" lon="6.91485">
        <ele>850</ele>
        <time>2026-05-09T19:18:39.386Z</time>
      </trkpt>
      <trkpt lat="47.8772" lon="6.91484">
        <ele>850</ele>
        <time>2026-05-09T19:18:40.386Z</time>
      </trkpt>
      <trkpt lat="47.87721" lon="6.91483">
        <ele>851</ele>
        <time>2026-05-09T19:18:41.386Z</time>
      </trkpt>
      <trkpt lat="47.87721" lon="6.91483">
        <ele>852</ele>
        <time>2026-05-09T19:18:42.387Z</time>
      </trkpt>
      <trkpt lat="47.87719" lon="6.91481">
        <ele>856</ele>
        <time>2026-05-09T19:18:48.736Z</time>
      </trkpt>
      <trkpt lat="47.87719" lon="6.9148">
        <ele>857</ele>
        <time>2026-05-09T19:18:49.736Z</time>
      </trkpt>
      <trkpt lat="47.87718" lon="6.91474">
        <ele>863</ele>
        <time>2026-05-09T19:18:58.833Z</time>
      </trkpt>
      <trkpt lat="47.87718" lon="6.91473">
        <ele>863</ele>
        <time>2026-05-09T19:18:59.833Z</time>
      </trkpt>
      <trkpt lat="47.87718" lon="6.91472">
        <ele>864</ele>
        <time>2026-05-09T19:19:00.833Z</time>
      </trkpt>
      <trkpt lat="47.87719" lon="6.91471">
        <ele>864</ele>
        <time>2026-05-09T19:19:01.832Z</time>
      </trkpt>
      <trkpt lat="47.87719" lon="6.9147">
        <ele>864</ele>
        <time>2026-05-09T19:19:02.833Z</time>
      </trkpt>
      <trkpt lat="47.8772" lon="6.91469">
        <ele>865</ele>
        <time>2026-05-09T19:19:03.833Z</time>
      </trkpt>
      <trkpt lat="47.8772" lon="6.91469">
        <ele>865</ele>
        <time>2026-05-09T19:19:04.832Z</time>
      </trkpt>
      <trkpt lat="47.8772" lon="6.91468">
        <ele>865</ele>
        <time>2026-05-09T19:19:05.832Z</time>
      </trkpt>
      <trkpt lat="47.87721" lon="6.91467">
        <ele>865</ele>
        <time>2026-05-09T19:19:06.832Z</time>
      </trkpt>
      <trkpt lat="47.87721" lon="6.91466">
        <ele>865</ele>
        <time>2026-05-09T19:19:07.833Z</time>
      </trkpt>
      <trkpt lat="47.8772" lon="6.91465">
        <ele>866</ele>
        <time>2026-05-09T19:19:08.833Z</time>
      </trkpt>
      <trkpt lat="47.8772" lon="6.91463">
        <ele>866</ele>
        <time>2026-05-09T19:19:09.833Z</time>
      </trkpt>
      <trkpt lat="47.87719" lon="6.91463">
        <ele>866</ele>
        <time>2026-05-09T19:19:10.832Z</time>
      </trkpt>
      <trkpt lat="47.87719" lon="6.91462">
        <ele>866</ele>
        <time>2026-05-09T19:19:11.832Z</time>
      </trkpt>
      <trkpt lat="47.87718" lon="6.91462">
        <ele>865</ele>
        <time>2026-05-09T19:19:12.832Z</time>
      </trkpt>
      <trkpt lat="47.87718" lon="6.91462">
        <ele>865</ele>
        <time>2026-05-09T19:19:13.832Z</time>
      </trkpt>
      <trkpt lat="47.87716" lon="6.91463">
        <ele>864</ele>
        <time>2026-05-09T19:19:14.832Z</time>
      </trkpt>
      <trkpt lat="47.87715" lon="6.91464">
        <ele>864</ele>
        <time>2026-05-09T19:19:15.833Z</time>
      </trkpt>
      <trkpt lat="47.87714" lon="6.91465">
        <ele>863</ele>
        <time>2026-05-09T19:19:16.833Z</time>
      </trkpt>
      <trkpt lat="47.87713" lon="6.91465">
        <ele>863</ele>
        <time>2026-05-09T19:19:17.833Z</time>
      </trkpt>
      <trkpt lat="47.87711" lon="6.91465">
        <ele>862</ele>
        <time>2026-05-09T19:19:18.833Z</time>
      </trkpt>
      <trkpt lat="47.87711" lon="6.91465">
        <ele>862</ele>
        <time>2026-05-09T19:19:19.833Z</time>
      </trkpt>
      <trkpt lat="47.87709" lon="6.91466">
        <ele>861</ele>
        <time>2026-05-09T19:19:20.833Z</time>
      </trkpt>
      <trkpt lat="47.87708" lon="6.91467">
        <ele>861</ele>
        <time>2026-05-09T19:19:21.833Z</time>
      </trkpt>
      <trkpt lat="47.87707" lon="6.91468">
        <ele>861</ele>
        <time>2026-05-09T19:19:22.833Z</time>
      </trkpt>
      <trkpt lat="47.87706" lon="6.91468">
        <ele>861</ele>
        <time>2026-05-09T19:19:23.833Z</time>
      </trkpt>
      <trkpt lat="47.87706" lon="6.91469">
        <ele>861</ele>
        <time>2026-05-09T19:19:24.832Z</time>
      </trkpt>
      <trkpt lat="47.87705" lon="6.9147">
        <ele>861</ele>
        <time>2026-05-09T19:19:25.832Z</time>
      </trkpt>
      <trkpt lat="47.87705" lon="6.9147">
        <ele>861</ele>
        <time>2026-05-09T19:19:26.832Z</time>
      </trkpt>
      <trkpt lat="47.87703" lon="6.91471">
        <ele>861</ele>
        <time>2026-05-09T19:19:27.832Z</time>
      </trkpt>
      <trkpt lat="47.87702" lon="6.91471">
        <ele>861</ele>
        <time>2026-05-09T19:19:28.832Z</time>
      </trkpt>
      <trkpt lat="47.87701" lon="6.91472">
        <ele>861</ele>
        <time>2026-05-09T19:19:29.833Z</time>
      </trkpt>
      <trkpt lat="47.87699" lon="6.91472">
        <ele>861</ele>
        <time>2026-05-09T19:19:30.832Z</time>
      </trkpt>
      <trkpt lat="47.87699" lon="6.91472">
        <ele>862</ele>
        <time>2026-05-09T19:19:31.832Z</time>
      </trkpt>
      <trkpt lat="47.87698" lon="6.91472">
        <ele>862</ele>
        <time>2026-05-09T19:19:32.832Z</time>
      </trkpt>
      <trkpt lat="47.87697" lon="6.91472">
        <ele>862</ele>
        <time>2026-05-09T19:19:33.832Z</time>
      </trkpt>
      <trkpt lat="47.87697" lon="6.91472">
        <ele>862</ele>
        <time>2026-05-09T19:19:34.832Z</time>
      </trkpt>
      <trkpt lat="47.87696" lon="6.91471">
        <ele>863</ele>
        <time>2026-05-09T19:19:35.832Z</time>
      </trkpt>
      <trkpt lat="47.87696" lon="6.91472">
        <ele>863</ele>
        <time>2026-05-09T19:19:36.833Z</time>
      </trkpt>
      <trkpt lat="47.87696" lon="6.91472">
        <ele>863</ele>
        <time>2026-05-09T19:19:37.832Z</time>
      </trkpt>
      <trkpt lat="47.87695" lon="6.91472">
        <ele>863</ele>
        <time>2026-05-09T19:19:38.832Z</time>
      </trkpt>
      <trkpt lat="47.87695" lon="6.91472">
        <ele>863</ele>
        <time>2026-05-09T19:19:39.832Z</time>
      </trkpt>
      <trkpt lat="47.87695" lon="6.91472">
        <ele>864</ele>
        <time>2026-05-09T19:19:40.832Z</time>
      </trkpt>
      <trkpt lat="47.87694" lon="6.91472">
        <ele>864</ele>
        <time>2026-05-09T19:19:41.832Z</time>
      </trkpt>
      <trkpt lat="47.87694" lon="6.91473">
        <ele>864</ele>
        <time>2026-05-09T19:19:42.832Z</time>
      </trkpt>
      <trkpt lat="47.87694" lon="6.91473">
        <ele>864</ele>
        <time>2026-05-09T19:19:43.832Z</time>
      </trkpt>
      <trkpt lat="47.87694" lon="6.91474">
        <ele>864</ele>
        <time>2026-05-09T19:19:44.832Z</time>
      </trkpt>
      <trkpt lat="47.87693" lon="6.91474">
        <ele>864</ele>
        <time>2026-05-09T19:19:45.833Z</time>
      </trkpt>
      <trkpt lat="47.87693" lon="6.91474">
        <ele>864</ele>
        <time>2026-05-09T19:19:46.832Z</time>
      </trkpt>
      <trkpt lat="47.87692" lon="6.91475">
        <ele>864</ele>
        <time>2026-05-09T19:19:47.832Z</time>
      </trkpt>
      <trkpt lat="47.87691" lon="6.91475">
        <ele>864</ele>
        <time>2026-05-09T19:19:48.833Z</time>
      </trkpt>
      <trkpt lat="47.87691" lon="6.91475">
        <ele>864</ele>
        <time>2026-05-09T19:19:49.833Z</time>
      </trkpt>
      <trkpt lat="47.87691" lon="6.91474">
        <ele>864</ele>
        <time>2026-05-09T19:19:50.833Z</time>
      </trkpt>
      <trkpt lat="47.8769" lon="6.91475">
        <ele>864</ele>
        <time>2026-05-09T19:19:51.833Z</time>
      </trkpt>
      <trkpt lat="47.87689" lon="6.91475">
        <ele>864</ele>
        <time>2026-05-09T19:19:52.833Z</time>
      </trkpt>
      <trkpt lat="47.87688" lon="6.91476">
        <ele>865</ele>
        <time>2026-05-09T19:19:53.832Z</time>
      </trkpt>
      <trkpt lat="47.87688" lon="6.91475">
        <ele>865</ele>
        <time>2026-05-09T19:19:54.832Z</time>
      </trkpt>
      <trkpt lat="47.87687" lon="6.91476">
        <ele>865</ele>
        <time>2026-05-09T19:19:55.832Z</time>
      </trkpt>
      <trkpt lat="47.87687" lon="6.91476">
        <ele>865</ele>
        <time>2026-05-09T19:19:56.832Z</time>
      </trkpt>
      <trkpt lat="47.87686" lon="6.91476">
        <ele>865</ele>
        <time>2026-05-09T19:19:57.832Z</time>
      </trkpt>
      <trkpt lat="47.87685" lon="6.91476">
        <ele>865</ele>
        <time>2026-05-09T19:19:58.832Z</time>
      </trkpt>
      <trkpt lat="47.87685" lon="6.91476">
        <ele>865</ele>
        <time>2026-05-09T19:19:59.832Z</time>
      </trkpt>
      <trkpt lat="47.87684" lon="6.91476">
        <ele>865</ele>
        <time>2026-05-09T19:20:00.832Z</time>
      </trkpt>
      <trkpt lat="47.87684" lon="6.91476">
        <ele>865</ele>
        <time>2026-05-09T19:20:01.833Z</time>
      </trkpt>
      <trkpt lat="47.87684" lon="6.91476">
        <ele>865</ele>
        <time>2026-05-09T19:20:02.833Z</time>
      </trkpt>
      <trkpt lat="47.87683" lon="6.91476">
        <ele>865</ele>
        <time>2026-05-09T19:20:03.832Z</time>
      </trkpt>
      <trkpt lat="47.87683" lon="6.91476">
        <ele>865</ele>
        <time>2026-05-09T19:20:04.832Z</time>
      </trkpt>
      <trkpt lat="47.87682" lon="6.91477">
        <ele>865</ele>
        <time>2026-05-09T19:20:05.832Z</time>
      </trkpt>
      <trkpt lat="47.87682" lon="6.91477">
        <ele>864</ele>
        <time>2026-05-09T19:20:06.833Z</time>
      </trkpt>
      <trkpt lat="47.87683" lon="6.91474">
        <ele>857</ele>
        <time>2026-05-09T19:20:56.545Z</time>
      </trkpt>
      <trkpt lat="47.87683" lon="6.91474">
        <ele>857</ele>
        <time>2026-05-09T19:20:57.546Z</time>
      </trkpt>
      <trkpt lat="47.87683" lon="6.91474">
        <ele>856</ele>
        <time>2026-05-09T19:20:58.545Z</time>
      </trkpt>
      <trkpt lat="47.87682" lon="6.91473">
        <ele>856</ele>
        <time>2026-05-09T19:20:59.545Z</time>
      </trkpt>
      <trkpt lat="47.87681" lon="6.91474">
        <ele>855</ele>
        <time>2026-05-09T19:21:00.545Z</time>
      </trkpt>
      <trkpt lat="47.87681" lon="6.91474">
        <ele>854</ele>
        <time>2026-05-09T19:21:01.545Z</time>
      </trkpt>
      <trkpt lat="47.8768" lon="6.91474">
        <ele>854</ele>
        <time>2026-05-09T19:21:02.546Z</time>
      </trkpt>
      <trkpt lat="47.87679" lon="6.91475">
        <ele>853</ele>
        <time>2026-05-09T19:21:03.546Z</time>
      </trkpt>
      <trkpt lat="47.87679" lon="6.91475">
        <ele>853</ele>
        <time>2026-05-09T19:21:04.545Z</time>
      </trkpt>
      <trkpt lat="47.87679" lon="6.91475">
        <ele>853</ele>
        <time>2026-05-09T19:21:05.546Z</time>
      </trkpt>
      <trkpt lat="47.87678" lon="6.91475">
        <ele>853</ele>
        <time>2026-05-09T19:21:06.545Z</time>
      </trkpt>
      <trkpt lat="47.87678" lon="6.91476">
        <ele>853</ele>
        <time>2026-05-09T19:21:07.546Z</time>
      </trkpt>
      <trkpt lat="47.87678" lon="6.91477">
        <ele>853</ele>
        <time>2026-05-09T19:21:08.546Z</time>
      </trkpt>
      <trkpt lat="47.87677" lon="6.91477">
        <ele>853</ele>
        <time>2026-05-09T19:21:09.545Z</time>
      </trkpt>
      <trkpt lat="47.87677" lon="6.91478">
        <ele>854</ele>
        <time>2026-05-09T19:21:10.546Z</time>
      </trkpt>
      <trkpt lat="47.87676" lon="6.91479">
        <ele>854</ele>
        <time>2026-05-09T19:21:11.545Z</time>
      </trkpt>
      <trkpt lat="47.87675" lon="6.91479">
        <ele>855</ele>
        <time>2026-05-09T19:21:12.546Z</time>
      </trkpt>
      <trkpt lat="47.87675" lon="6.91479">
        <ele>855</ele>
        <time>2026-05-09T19:21:13.546Z</time>
      </trkpt>
      <trkpt lat="47.87674" lon="6.91479">
        <ele>856</ele>
        <time>2026-05-09T19:21:14.545Z</time>
      </trkpt>
      <trkpt lat="47.87674" lon="6.9148">
        <ele>856</ele>
        <time>2026-05-09T19:21:15.546Z</time>
      </trkpt>
      <trkpt lat="47.87674" lon="6.91479">
        <ele>856</ele>
        <time>2026-05-09T19:21:16.545Z</time>
      </trkpt>
      <trkpt lat="47.87673" lon="6.9148">
        <ele>857</ele>
        <time>2026-05-09T19:21:17.546Z</time>
      </trkpt>
      <trkpt lat="47.87672" lon="6.9148">
        <ele>857</ele>
        <time>2026-05-09T19:21:18.546Z</time>
      </trkpt>
      <trkpt lat="47.87672" lon="6.9148">
        <ele>857</ele>
        <time>2026-05-09T19:21:19.545Z</time>
      </trkpt>
      <trkpt lat="47.87671" lon="6.9148">
        <ele>858</ele>
        <time>2026-05-09T19:21:20.545Z</time>
      </trkpt>
      <trkpt lat="47.87671" lon="6.9148">
        <ele>858</ele>
        <time>2026-05-09T19:21:21.546Z</time>
      </trkpt>
      <trkpt lat="47.87672" lon="6.91479">
        <ele>858</ele>
        <time>2026-05-09T19:21:22.546Z</time>
      </trkpt>
      <trkpt lat="47.87672" lon="6.91479">
        <ele>858</ele>
        <time>2026-05-09T19:21:23.545Z</time>
      </trkpt>
      <trkpt lat="47.87672" lon="6.91478">
        <ele>858</ele>
        <time>2026-05-09T19:21:24.546Z</time>
      </trkpt>
      <trkpt lat="47.87672" lon="6.91477">
        <ele>858</ele>
        <time>2026-05-09T19:21:25.545Z</time>
      </trkpt>
      <trkpt lat="47.87673" lon="6.91477">
        <ele>858</ele>
        <time>2026-05-09T19:21:26.546Z</time>
      </trkpt>
      <trkpt lat="47.87673" lon="6.91476">
        <ele>859</ele>
        <time>2026-05-09T19:21:27.546Z</time>
      </trkpt>
      <trkpt lat="47.87673" lon="6.91476">
        <ele>859</ele>
        <time>2026-05-09T19:21:28.546Z</time>
      </trkpt>
      <trkpt lat="47.87674" lon="6.91475">
        <ele>859</ele>
        <time>2026-05-09T19:21:29.545Z</time>
      </trkpt>
      <trkpt lat="47.87675" lon="6.91474">
        <ele>860</ele>
        <time>2026-05-09T19:21:30.545Z</time>
      </trkpt>
      <trkpt lat="47.87675" lon="6.91473">
        <ele>860</ele>
        <time>2026-05-09T19:21:31.545Z</time>
      </trkpt>
      <trkpt lat="47.87675" lon="6.91472">
        <ele>860</ele>
        <time>2026-05-09T19:21:32.546Z</time>
      </trkpt>
      <trkpt lat="47.87675" lon="6.91471">
        <ele>860</ele>
        <time>2026-05-09T19:21:33.546Z</time>
      </trkpt>
      <trkpt lat="47.87675" lon="6.9147">
        <ele>860</ele>
        <time>2026-05-09T19:21:34.545Z</time>
      </trkpt>
      <trkpt lat="47.87675" lon="6.91469">
        <ele>860</ele>
        <time>2026-05-09T19:21:35.546Z</time>
      </trkpt>
      <trkpt lat="47.87675" lon="6.91468">
        <ele>860</ele>
        <time>2026-05-09T19:21:36.545Z</time>
      </trkpt>
      <trkpt lat="47.87675" lon="6.91467">
        <ele>860</ele>
        <time>2026-05-09T19:21:37.546Z</time>
      </trkpt>
      <trkpt lat="47.87675" lon="6.91466">
        <ele>860</ele>
        <time>2026-05-09T19:21:38.545Z</time>
      </trkpt>
      <trkpt lat="47.87674" lon="6.91465">
        <ele>861</ele>
        <time>2026-05-09T19:21:39.546Z</time>
      </trkpt>
      <trkpt lat="47.87674" lon="6.91463">
        <ele>861</ele>
        <time>2026-05-09T19:21:40.545Z</time>
      </trkpt>
      <trkpt lat="47.87674" lon="6.91462">
        <ele>861</ele>
        <time>2026-05-09T19:21:41.546Z</time>
      </trkpt>
      <trkpt lat="47.87674" lon="6.91461">
        <ele>861</ele>
        <time>2026-05-09T19:21:42.545Z</time>
      </trkpt>
      <trkpt lat="47.87674" lon="6.91461">
        <ele>861</ele>
        <time>2026-05-09T19:21:43.545Z</time>
      </trkpt>
      <trkpt lat="47.87675" lon="6.9146">
        <ele>862</ele>
        <time>2026-05-09T19:21:44.546Z</time>
      </trkpt>
      <trkpt lat="47.87675" lon="6.9146">
        <ele>862</ele>
        <time>2026-05-09T19:21:45.546Z</time>
      </trkpt>
      <trkpt lat="47.87675" lon="6.9146">
        <ele>862</ele>
        <time>2026-05-09T19:21:46.545Z</time>
      </trkpt>
      <trkpt lat="47.87676" lon="6.9146">
        <ele>863</ele>
        <time>2026-05-09T19:21:47.546Z</time>
      </trkpt>
      <trkpt lat="47.87667" lon="6.91465">
        <ele>864</ele>
        <time>2026-05-09T19:21:54.046Z</time>
      </trkpt>
      <trkpt lat="47.87666" lon="6.91467">
        <ele>864</ele>
        <time>2026-05-09T19:21:55.046Z</time>
      </trkpt>
      <trkpt lat="47.87665" lon="6.91468">
        <ele>865</ele>
        <time>2026-05-09T19:21:56.046Z</time>
      </trkpt>
      <trkpt lat="47.87664" lon="6.9147">
        <ele>865</ele>
        <time>2026-05-09T19:21:57.046Z</time>
      </trkpt>
      <trkpt lat="47.87664" lon="6.91471">
        <ele>865</ele>
        <time>2026-05-09T19:21:58.047Z</time>
      </trkpt>
      <trkpt lat="47.87663" lon="6.91471">
        <ele>865</ele>
        <time>2026-05-09T19:21:59.046Z</time>
      </trkpt>
      <trkpt lat="47.87662" lon="6.91472">
        <ele>866</ele>
        <time>2026-05-09T19:22:00.046Z</time>
      </trkpt>
      <trkpt lat="47.87661" lon="6.91473">
        <ele>866</ele>
        <time>2026-05-09T19:22:01.046Z</time>
      </trkpt>
      <trkpt lat="47.87661" lon="6.91474">
        <ele>867</ele>
        <time>2026-05-09T19:22:02.047Z</time>
      </trkpt>
      <trkpt lat="47.8766" lon="6.91475">
        <ele>867</ele>
        <time>2026-05-09T19:22:03.046Z</time>
      </trkpt>
      <trkpt lat="47.87659" lon="6.91475">
        <ele>867</ele>
        <time>2026-05-09T19:22:04.046Z</time>
      </trkpt>
      <trkpt lat="47.87658" lon="6.91475">
        <ele>867</ele>
        <time>2026-05-09T19:22:05.046Z</time>
      </trkpt>
      <trkpt lat="47.87657" lon="6.91476">
        <ele>867</ele>
        <time>2026-05-09T19:22:06.046Z</time>
      </trkpt>
      <trkpt lat="47.87656" lon="6.91476">
        <ele>867</ele>
        <time>2026-05-09T19:22:07.047Z</time>
      </trkpt>
      <trkpt lat="47.87655" lon="6.91477">
        <ele>867</ele>
        <time>2026-05-09T19:22:08.046Z</time>
      </trkpt>
      <trkpt lat="47.87654" lon="6.91479">
        <ele>867</ele>
        <time>2026-05-09T19:22:09.046Z</time>
      </trkpt>
      <trkpt lat="47.87654" lon="6.91479">
        <ele>867</ele>
        <time>2026-05-09T19:22:10.047Z</time>
      </trkpt>
      <trkpt lat="47.87654" lon="6.91479">
        <ele>867</ele>
        <time>2026-05-09T19:22:11.046Z</time>
      </trkpt>
      <trkpt lat="47.87653" lon="6.91481">
        <ele>867</ele>
        <time>2026-05-09T19:22:12.046Z</time>
      </trkpt>
      <trkpt lat="47.87652" lon="6.91483">
        <ele>867</ele>
        <time>2026-05-09T19:22:13.047Z</time>
      </trkpt>
      <trkpt lat="47.87651" lon="6.91485">
        <ele>867</ele>
        <time>2026-05-09T19:22:14.046Z</time>
      </trkpt>
      <trkpt lat="47.8765" lon="6.91486">
        <ele>867</ele>
        <time>2026-05-09T19:22:15.047Z</time>
      </trkpt>
      <trkpt lat="47.8765" lon="6.91488">
        <ele>867</ele>
        <time>2026-05-09T19:22:16.047Z</time>
      </trkpt>
      <trkpt lat="47.87649" lon="6.9149">
        <ele>867</ele>
        <time>2026-05-09T19:22:17.046Z</time>
      </trkpt>
      <trkpt lat="47.87647" lon="6.91493">
        <ele>867</ele>
        <time>2026-05-09T19:22:18.046Z</time>
      </trkpt>
      <trkpt lat="47.87646" lon="6.91495">
        <ele>868</ele>
        <time>2026-05-09T19:22:19.046Z</time>
      </trkpt>
      <trkpt lat="47.87644" lon="6.91497">
        <ele>868</ele>
        <time>2026-05-09T19:22:20.046Z</time>
      </trkpt>
      <trkpt lat="47.87643" lon="6.91499">
        <ele>868</ele>
        <time>2026-05-09T19:22:21.046Z</time>
      </trkpt>
      <trkpt lat="47.87642" lon="6.91501">
        <ele>868</ele>
        <time>2026-05-09T19:22:22.047Z</time>
      </trkpt>
      <trkpt lat="47.87642" lon="6.91502">
        <ele>868</ele>
        <time>2026-05-09T19:22:23.047Z</time>
      </trkpt>
      <trkpt lat="47.87641" lon="6.91504">
        <ele>868</ele>
        <time>2026-05-09T19:22:24.046Z</time>
      </trkpt>
      <trkpt lat="47.87641" lon="6.91506">
        <ele>868</ele>
        <time>2026-05-09T19:22:25.046Z</time>
      </trkpt>
      <trkpt lat="47.8764" lon="6.91507">
        <ele>868</ele>
        <time>2026-05-09T19:22:26.046Z</time>
      </trkpt>
      <trkpt lat="47.8764" lon="6.91508">
        <ele>869</ele>
        <time>2026-05-09T19:22:27.046Z</time>
      </trkpt>
      <trkpt lat="47.87639" lon="6.91508">
        <ele>869</ele>
        <time>2026-05-09T19:22:28.046Z</time>
      </trkpt>
      <trkpt lat="47.87638" lon="6.9151">
        <ele>869</ele>
        <time>2026-05-09T19:22:29.047Z</time>
      </trkpt>
      <trkpt lat="47.87637" lon="6.91511">
        <ele>868</ele>
        <time>2026-05-09T19:22:30.046Z</time>
      </trkpt>
      <trkpt lat="47.87637" lon="6.91512">
        <ele>868</ele>
        <time>2026-05-09T19:22:31.047Z</time>
      </trkpt>
      <trkpt lat="47.87637" lon="6.91513">
        <ele>868</ele>
        <time>2026-05-09T19:22:32.046Z</time>
      </trkpt>
      <trkpt lat="47.87636" lon="6.91514">
        <ele>868</ele>
        <time>2026-05-09T19:22:33.046Z</time>
      </trkpt>
      <trkpt lat="47.87635" lon="6.91516">
        <ele>868</ele>
        <time>2026-05-09T19:22:34.046Z</time>
      </trkpt>
      <trkpt lat="47.87634" lon="6.91516">
        <ele>868</ele>
        <time>2026-05-09T19:22:35.046Z</time>
      </trkpt>
      <trkpt lat="47.87633" lon="6.91516">
        <ele>868</ele>
        <time>2026-05-09T19:22:36.047Z</time>
      </trkpt>
      <trkpt lat="47.87633" lon="6.91517">
        <ele>869</ele>
        <time>2026-05-09T19:22:37.047Z</time>
      </trkpt>
      <trkpt lat="47.87632" lon="6.91518">
        <ele>868</ele>
        <time>2026-05-09T19:22:38.046Z</time>
      </trkpt>
      <trkpt lat="47.87632" lon="6.91518">
        <ele>868</ele>
        <time>2026-05-09T19:22:39.046Z</time>
      </trkpt>
      <trkpt lat="47.87631" lon="6.91519">
        <ele>868</ele>
        <time>2026-05-09T19:22:40.046Z</time>
      </trkpt>
      <trkpt lat="47.87631" lon="6.91521">
        <ele>868</ele>
        <time>2026-05-09T19:22:41.047Z</time>
      </trkpt>
      <trkpt lat="47.8763" lon="6.91522">
        <ele>868</ele>
        <time>2026-05-09T19:22:42.047Z</time>
      </trkpt>
      <trkpt lat="47.87629" lon="6.91523">
        <ele>868</ele>
        <time>2026-05-09T19:22:43.047Z</time>
      </trkpt>
      <trkpt lat="47.87629" lon="6.91523">
        <ele>869</ele>
        <time>2026-05-09T19:22:44.046Z</time>
      </trkpt>
      <trkpt lat="47.87628" lon="6.91525">
        <ele>869</ele>
        <time>2026-05-09T19:22:45.046Z</time>
      </trkpt>
      <trkpt lat="47.87626" lon="6.91527">
        <ele>869</ele>
        <time>2026-05-09T19:22:46.047Z</time>
      </trkpt>
      <trkpt lat="47.87625" lon="6.9153">
        <ele>869</ele>
        <time>2026-05-09T19:22:47.046Z</time>
      </trkpt>
      <trkpt lat="47.87624" lon="6.91531">
        <ele>869</ele>
        <time>2026-05-09T19:22:48.046Z</time>
      </trkpt>
      <trkpt lat="47.87624" lon="6.91533">
        <ele>869</ele>
        <time>2026-05-09T19:22:49.047Z</time>
      </trkpt>
      <trkpt lat="47.87624" lon="6.91534">
        <ele>869</ele>
        <time>2026-05-09T19:22:50.046Z</time>
      </trkpt>
      <trkpt lat="47.87623" lon="6.91535">
        <ele>869</ele>
        <time>2026-05-09T19:22:51.047Z</time>
      </trkpt>
      <trkpt lat="47.87622" lon="6.91536">
        <ele>869</ele>
        <time>2026-05-09T19:22:52.047Z</time>
      </trkpt>
      <trkpt lat="47.87622" lon="6.91537">
        <ele>870</ele>
        <time>2026-05-09T19:22:53.046Z</time>
      </trkpt>
      <trkpt lat="47.87622" lon="6.91538">
        <ele>870</ele>
        <time>2026-05-09T19:22:54.047Z</time>
      </trkpt>
      <trkpt lat="47.87621" lon="6.91538">
        <ele>871</ele>
        <time>2026-05-09T19:22:55.047Z</time>
      </trkpt>
      <trkpt lat="47.87621" lon="6.91539">
        <ele>871</ele>
        <time>2026-05-09T19:22:56.046Z</time>
      </trkpt>
      <trkpt lat="47.8762" lon="6.91541">
        <ele>872</ele>
        <time>2026-05-09T19:22:57.046Z</time>
      </trkpt>
      <trkpt lat="47.87619" lon="6.91542">
        <ele>872</ele>
        <time>2026-05-09T19:22:58.046Z</time>
      </trkpt>
      <trkpt lat="47.87619" lon="6.91543">
        <ele>873</ele>
        <time>2026-05-09T19:22:59.047Z</time>
      </trkpt>
      <trkpt lat="47.87618" lon="6.91543">
        <ele>873</ele>
        <time>2026-05-09T19:23:00.046Z</time>
      </trkpt>
      <trkpt lat="47.87617" lon="6.91544">
        <ele>873</ele>
        <time>2026-05-09T19:23:01.046Z</time>
      </trkpt>
      <trkpt lat="47.87617" lon="6.91546">
        <ele>874</ele>
        <time>2026-05-09T19:23:02.046Z</time>
      </trkpt>
      <trkpt lat="47.87617" lon="6.91547">
        <ele>874</ele>
        <time>2026-05-09T19:23:03.046Z</time>
      </trkpt>
      <trkpt lat="47.87616" lon="6.91549">
        <ele>874</ele>
        <time>2026-05-09T19:23:04.046Z</time>
      </trkpt>
      <trkpt lat="47.87616" lon="6.9155">
        <ele>874</ele>
        <time>2026-05-09T19:23:05.046Z</time>
      </trkpt>
      <trkpt lat="47.87616" lon="6.91552">
        <ele>874</ele>
        <time>2026-05-09T19:23:06.047Z</time>
      </trkpt>
      <trkpt lat="47.87616" lon="6.91553">
        <ele>875</ele>
        <time>2026-05-09T19:23:07.046Z</time>
      </trkpt>
      <trkpt lat="47.87615" lon="6.91555">
        <ele>875</ele>
        <time>2026-05-09T19:23:08.046Z</time>
      </trkpt>
      <trkpt lat="47.87615" lon="6.91557">
        <ele>875</ele>
        <time>2026-05-09T19:23:09.046Z</time>
      </trkpt>
      <trkpt lat="47.87614" lon="6.91558">
        <ele>875</ele>
        <time>2026-05-09T19:23:10.046Z</time>
      </trkpt>
      <trkpt lat="47.87614" lon="6.91559">
        <ele>875</ele>
        <time>2026-05-09T19:23:11.046Z</time>
      </trkpt>
      <trkpt lat="47.87613" lon="6.91561">
        <ele>876</ele>
        <time>2026-05-09T19:23:12.046Z</time>
      </trkpt>
      <trkpt lat="47.87613" lon="6.91563">
        <ele>876</ele>
        <time>2026-05-09T19:23:13.047Z</time>
      </trkpt>
      <trkpt lat="47.87613" lon="6.91563">
        <ele>876</ele>
        <time>2026-05-09T19:23:14.046Z</time>
      </trkpt>
      <trkpt lat="47.87612" lon="6.91565">
        <ele>877</ele>
        <time>2026-05-09T19:23:15.046Z</time>
      </trkpt>
      <trkpt lat="47.87612" lon="6.91567">
        <ele>877</ele>
        <time>2026-05-09T19:23:16.046Z</time>
      </trkpt>
      <trkpt lat="47.8761" lon="6.9157">
        <ele>877</ele>
        <time>2026-05-09T19:23:17.046Z</time>
      </trkpt>
      <trkpt lat="47.8761" lon="6.91571">
        <ele>877</ele>
        <time>2026-05-09T19:23:18.046Z</time>
      </trkpt>
      <trkpt lat="47.8761" lon="6.91573">
        <ele>878</ele>
        <time>2026-05-09T19:23:19.046Z</time>
      </trkpt>
      <trkpt lat="47.8761" lon="6.91574">
        <ele>878</ele>
        <time>2026-05-09T19:23:20.046Z</time>
      </trkpt>
      <trkpt lat="47.87609" lon="6.91575">
        <ele>879</ele>
        <time>2026-05-09T19:23:21.046Z</time>
      </trkpt>
      <trkpt lat="47.87609" lon="6.91576">
        <ele>879</ele>
        <time>2026-05-09T19:23:22.047Z</time>
      </trkpt>
      <trkpt lat="47.8761" lon="6.91578">
        <ele>880</ele>
        <time>2026-05-09T19:23:23.046Z</time>
      </trkpt>
      <trkpt lat="47.8761" lon="6.91581">
        <ele>880</ele>
        <time>2026-05-09T19:23:24.047Z</time>
      </trkpt>
      <trkpt lat="47.8761" lon="6.91583">
        <ele>881</ele>
        <time>2026-05-09T19:23:25.046Z</time>
      </trkpt>
      <trkpt lat="47.87609" lon="6.91584">
        <ele>881</ele>
        <time>2026-05-09T19:23:26.047Z</time>
      </trkpt>
      <trkpt lat="47.87607" lon="6.91587">
        <ele>881</ele>
        <time>2026-05-09T19:23:27.046Z</time>
      </trkpt>
      <trkpt lat="47.87606" lon="6.9159">
        <ele>882</ele>
        <time>2026-05-09T19:23:28.046Z</time>
      </trkpt>
      <trkpt lat="47.87605" lon="6.91593">
        <ele>882</ele>
        <time>2026-05-09T19:23:29.047Z</time>
      </trkpt>
      <trkpt lat="47.87605" lon="6.91597">
        <ele>883</ele>
        <time>2026-05-09T19:23:30.047Z</time>
      </trkpt>
      <trkpt lat="47.87605" lon="6.91598">
        <ele>883</ele>
        <time>2026-05-09T19:23:31.047Z</time>
      </trkpt>
      <trkpt lat="47.87606" lon="6.91598">
        <ele>884</ele>
        <time>2026-05-09T19:23:32.047Z</time>
      </trkpt>
      <trkpt lat="47.87607" lon="6.91599">
        <ele>884</ele>
        <time>2026-05-09T19:23:33.046Z</time>
      </trkpt>
      <trkpt lat="47.87607" lon="6.916">
        <ele>885</ele>
        <time>2026-05-09T19:23:34.046Z</time>
      </trkpt>
      <trkpt lat="47.87608" lon="6.91601">
        <ele>885</ele>
        <time>2026-05-09T19:23:35.046Z</time>
      </trkpt>
      <trkpt lat="47.87611" lon="6.91603">
        <ele>885</ele>
        <time>2026-05-09T19:23:36.046Z</time>
      </trkpt>
      <trkpt lat="47.87614" lon="6.91606">
        <ele>885</ele>
        <time>2026-05-09T19:23:37.046Z</time>
      </trkpt>
      <trkpt lat="47.87618" lon="6.91607">
        <ele>886</ele>
        <time>2026-05-09T19:23:38.046Z</time>
      </trkpt>
      <trkpt lat="47.87621" lon="6.91608">
        <ele>886</ele>
        <time>2026-05-09T19:23:39.046Z</time>
      </trkpt>
      <trkpt lat="47.87623" lon="6.9161">
        <ele>887</ele>
        <time>2026-05-09T19:23:40.046Z</time>
      </trkpt>
      <trkpt lat="47.87624" lon="6.91612">
        <ele>887</ele>
        <time>2026-05-09T19:23:41.047Z</time>
      </trkpt>
      <trkpt lat="47.87624" lon="6.91615">
        <ele>888</ele>
        <time>2026-05-09T19:23:42.046Z</time>
      </trkpt>
      <trkpt lat="47.87625" lon="6.91616">
        <ele>888</ele>
        <time>2026-05-09T19:23:43.046Z</time>
      </trkpt>
      <trkpt lat="47.87625" lon="6.91617">
        <ele>888</ele>
        <time>2026-05-09T19:23:44.046Z</time>
      </trkpt>
      <trkpt lat="47.87622" lon="6.91619">
        <ele>888</ele>
        <time>2026-05-09T19:23:45.047Z</time>
      </trkpt>
      <trkpt lat="47.8762" lon="6.91621">
        <ele>888</ele>
        <time>2026-05-09T19:23:46.046Z</time>
      </trkpt>
      <trkpt lat="47.87619" lon="6.91622">
        <ele>888</ele>
        <time>2026-05-09T19:23:47.046Z</time>
      </trkpt>
      <trkpt lat="47.87619" lon="6.91623">
        <ele>888</ele>
        <time>2026-05-09T19:23:48.046Z</time>
      </trkpt>
      <trkpt lat="47.87618" lon="6.91623">
        <ele>888</ele>
        <time>2026-05-09T19:23:49.047Z</time>
      </trkpt>
      <trkpt lat="47.87617" lon="6.91623">
        <ele>888</ele>
        <time>2026-05-09T19:23:50.046Z</time>
      </trkpt>
      <trkpt lat="47.87617" lon="6.91624">
        <ele>888</ele>
        <time>2026-05-09T19:23:51.046Z</time>
      </trkpt>
      <trkpt lat="47.87617" lon="6.91625">
        <ele>888</ele>
        <time>2026-05-09T19:23:52.046Z</time>
      </trkpt>
      <trkpt lat="47.87617" lon="6.91626">
        <ele>888</ele>
        <time>2026-05-09T19:23:53.046Z</time>
      </trkpt>
      <trkpt lat="47.87616" lon="6.91627">
        <ele>888</ele>
        <time>2026-05-09T19:23:54.046Z</time>
      </trkpt>
      <trkpt lat="47.87616" lon="6.91629">
        <ele>888</ele>
        <time>2026-05-09T19:23:55.046Z</time>
      </trkpt>
      <trkpt lat="47.87616" lon="6.9163">
        <ele>889</ele>
        <time>2026-05-09T19:23:56.047Z</time>
      </trkpt>
      <trkpt lat="47.87617" lon="6.91632">
        <ele>889</ele>
        <time>2026-05-09T19:23:57.046Z</time>
      </trkpt>
      <trkpt lat="47.87617" lon="6.91633">
        <ele>889</ele>
        <time>2026-05-09T19:23:58.046Z</time>
      </trkpt>
      <trkpt lat="47.87617" lon="6.91634">
        <ele>889</ele>
        <time>2026-05-09T19:23:59.046Z</time>
      </trkpt>
      <trkpt lat="47.87617" lon="6.91635">
        <ele>889</ele>
        <time>2026-05-09T19:24:00.047Z</time>
      </trkpt>
      <trkpt lat="47.87616" lon="6.91636">
        <ele>889</ele>
        <time>2026-05-09T19:24:01.046Z</time>
      </trkpt>
      <trkpt lat="47.87615" lon="6.91637">
        <ele>888</ele>
        <time>2026-05-09T19:24:02.046Z</time>
      </trkpt>
      <trkpt lat="47.87615" lon="6.91638">
        <ele>888</ele>
        <time>2026-05-09T19:24:03.046Z</time>
      </trkpt>
      <trkpt lat="47.87615" lon="6.91639">
        <ele>888</ele>
        <time>2026-05-09T19:24:04.046Z</time>
      </trkpt>
      <trkpt lat="47.87614" lon="6.9164">
        <ele>888</ele>
        <time>2026-05-09T19:24:05.046Z</time>
      </trkpt>
      <trkpt lat="47.87614" lon="6.91642">
        <ele>888</ele>
        <time>2026-05-09T19:24:06.046Z</time>
      </trkpt>
      <trkpt lat="47.87614" lon="6.91643">
        <ele>888</ele>
        <time>2026-05-09T19:24:07.046Z</time>
      </trkpt>
      <trkpt lat="47.87614" lon="6.91644">
        <ele>888</ele>
        <time>2026-05-09T19:24:08.046Z</time>
      </trkpt>
      <trkpt lat="47.87614" lon="6.91645">
        <ele>887</ele>
        <time>2026-05-09T19:24:09.046Z</time>
      </trkpt>
      <trkpt lat="47.87614" lon="6.91646">
        <ele>887</ele>
        <time>2026-05-09T19:24:10.046Z</time>
      </trkpt>
      <trkpt lat="47.87614" lon="6.91647">
        <ele>887</ele>
        <time>2026-05-09T19:24:11.046Z</time>
      </trkpt>
      <trkpt lat="47.87614" lon="6.91649">
        <ele>887</ele>
        <time>2026-05-09T19:24:12.047Z</time>
      </trkpt>
      <trkpt lat="47.87615" lon="6.9165">
        <ele>886</ele>
        <time>2026-05-09T19:24:13.046Z</time>
      </trkpt>
      <trkpt lat="47.87615" lon="6.91651">
        <ele>886</ele>
        <time>2026-05-09T19:24:14.046Z</time>
      </trkpt>
      <trkpt lat="47.87616" lon="6.91653">
        <ele>886</ele>
        <time>2026-05-09T19:24:15.047Z</time>
      </trkpt>
      <trkpt lat="47.87616" lon="6.91654">
        <ele>886</ele>
        <time>2026-05-09T19:24:16.047Z</time>
      </trkpt>
      <trkpt lat="47.87616" lon="6.91655">
        <ele>886</ele>
        <time>2026-05-09T19:24:17.046Z</time>
      </trkpt>
      <trkpt lat="47.87615" lon="6.91657">
        <ele>886</ele>
        <time>2026-05-09T19:24:18.047Z</time>
      </trkpt>
      <trkpt lat="47.87615" lon="6.91658">
        <ele>886</ele>
        <time>2026-05-09T19:24:19.046Z</time>
      </trkpt>
      <trkpt lat="47.87615" lon="6.9166">
        <ele>886</ele>
        <time>2026-05-09T19:24:20.046Z</time>
      </trkpt>
      <trkpt lat="47.87615" lon="6.91661">
        <ele>886</ele>
        <time>2026-05-09T19:24:21.047Z</time>
      </trkpt>
      <trkpt lat="47.87615" lon="6.91662">
        <ele>886</ele>
        <time>2026-05-09T19:24:22.046Z</time>
      </trkpt>
      <trkpt lat="47.87615" lon="6.91664">
        <ele>886</ele>
        <time>2026-05-09T19:24:23.047Z</time>
      </trkpt>
      <trkpt lat="47.87615" lon="6.91665">
        <ele>886</ele>
        <time>2026-05-09T19:24:24.046Z</time>
      </trkpt>
      <trkpt lat="47.87615" lon="6.91667">
        <ele>886</ele>
        <time>2026-05-09T19:24:25.046Z</time>
      </trkpt>
      <trkpt lat="47.87614" lon="6.9167">
        <ele>886</ele>
        <time>2026-05-09T19:24:26.046Z</time>
      </trkpt>
      <trkpt lat="47.87612" lon="6.91672">
        <ele>886</ele>
        <time>2026-05-09T19:24:27.046Z</time>
      </trkpt>
      <trkpt lat="47.8761" lon="6.91674">
        <ele>886</ele>
        <time>2026-05-09T19:24:28.047Z</time>
      </trkpt>
      <trkpt lat="47.8761" lon="6.91677">
        <ele>886</ele>
        <time>2026-05-09T19:24:29.046Z</time>
      </trkpt>
      <trkpt lat="47.87609" lon="6.91678">
        <ele>887</ele>
        <time>2026-05-09T19:24:30.046Z</time>
      </trkpt>
      <trkpt lat="47.87609" lon="6.9168">
        <ele>887</ele>
        <time>2026-05-09T19:24:31.046Z</time>
      </trkpt>
      <trkpt lat="47.87609" lon="6.91681">
        <ele>887</ele>
        <time>2026-05-09T19:24:32.046Z</time>
      </trkpt>
      <trkpt lat="47.87609" lon="6.91681">
        <ele>888</ele>
        <time>2026-05-09T19:24:33.047Z</time>
      </trkpt>
      <trkpt lat="47.87609" lon="6.91682">
        <ele>888</ele>
        <time>2026-05-09T19:24:34.046Z</time>
      </trkpt>
      <trkpt lat="47.87609" lon="6.91683">
        <ele>889</ele>
        <time>2026-05-09T19:24:35.046Z</time>
      </trkpt>
      <trkpt lat="47.87609" lon="6.91684">
        <ele>889</ele>
        <time>2026-05-09T19:24:36.046Z</time>
      </trkpt>
      <trkpt lat="47.87608" lon="6.91686">
        <ele>890</ele>
        <time>2026-05-09T19:24:37.046Z</time>
      </trkpt>
      <trkpt lat="47.87608" lon="6.91687">
        <ele>890</ele>
        <time>2026-05-09T19:24:38.047Z</time>
      </trkpt>
      <trkpt lat="47.87607" lon="6.91688">
        <ele>890</ele>
        <time>2026-05-09T19:24:39.046Z</time>
      </trkpt>
      <trkpt lat="47.87607" lon="6.91689">
        <ele>890</ele>
        <time>2026-05-09T19:24:40.046Z</time>
      </trkpt>
      <trkpt lat="47.87606" lon="6.91691">
        <ele>890</ele>
        <time>2026-05-09T19:24:41.046Z</time>
      </trkpt>
      <trkpt lat="47.87606" lon="6.91692">
        <ele>890</ele>
        <time>2026-05-09T19:24:42.047Z</time>
      </trkpt>
      <trkpt lat="47.87605" lon="6.91694">
        <ele>891</ele>
        <time>2026-05-09T19:24:43.046Z</time>
      </trkpt>
      <trkpt lat="47.87605" lon="6.91696">
        <ele>891</ele>
        <time>2026-05-09T19:24:44.046Z</time>
      </trkpt>
      <trkpt lat="47.87605" lon="6.91697">
        <ele>891</ele>
        <time>2026-05-09T19:24:45.046Z</time>
      </trkpt>
      <trkpt lat="47.87605" lon="6.91699">
        <ele>892</ele>
        <time>2026-05-09T19:24:46.046Z</time>
      </trkpt>
      <trkpt lat="47.87604" lon="6.917">
        <ele>892</ele>
        <time>2026-05-09T19:24:47.046Z</time>
      </trkpt>
      <trkpt lat="47.87604" lon="6.91701">
        <ele>892</ele>
        <time>2026-05-09T19:24:48.046Z</time>
      </trkpt>
      <trkpt lat="47.87605" lon="6.91703">
        <ele>893</ele>
        <time>2026-05-09T19:24:49.047Z</time>
      </trkpt>
      <trkpt lat="47.87605" lon="6.91704">
        <ele>893</ele>
        <time>2026-05-09T19:24:50.047Z</time>
      </trkpt>
      <trkpt lat="47.87605" lon="6.91706">
        <ele>893</ele>
        <time>2026-05-09T19:24:51.046Z</time>
      </trkpt>
      <trkpt lat="47.87606" lon="6.91707">
        <ele>893</ele>
        <time>2026-05-09T19:24:52.047Z</time>
      </trkpt>
      <trkpt lat="47.87606" lon="6.9171">
        <ele>893</ele>
        <time>2026-05-09T19:24:53.046Z</time>
      </trkpt>
      <trkpt lat="47.87606" lon="6.91712">
        <ele>893</ele>
        <time>2026-05-09T19:24:54.046Z</time>
      </trkpt>
      <trkpt lat="47.87606" lon="6.91714">
        <ele>893</ele>
        <time>2026-05-09T19:24:55.046Z</time>
      </trkpt>
      <trkpt lat="47.87607" lon="6.91716">
        <ele>893</ele>
        <time>2026-05-09T19:24:56.046Z</time>
      </trkpt>
      <trkpt lat="47.87608" lon="6.91718">
        <ele>893</ele>
        <time>2026-05-09T19:24:57.047Z</time>
      </trkpt>
      <trkpt lat="47.87608" lon="6.9172">
        <ele>893</ele>
        <time>2026-05-09T19:24:58.047Z</time>
      </trkpt>
      <trkpt lat="47.87608" lon="6.91722">
        <ele>893</ele>
        <time>2026-05-09T19:24:59.046Z</time>
      </trkpt>
      <trkpt lat="47.87608" lon="6.91724">
        <ele>893</ele>
        <time>2026-05-09T19:25:00.046Z</time>
      </trkpt>
      <trkpt lat="47.87609" lon="6.91726">
        <ele>893</ele>
        <time>2026-05-09T19:25:01.046Z</time>
      </trkpt>
      <trkpt lat="47.8761" lon="6.91728">
        <ele>893</ele>
        <time>2026-05-09T19:25:02.046Z</time>
      </trkpt>
      <trkpt lat="47.8761" lon="6.91728">
        <ele>893</ele>
        <time>2026-05-09T19:25:03.046Z</time>
      </trkpt>
      <trkpt lat="47.8761" lon="6.9173">
        <ele>893</ele>
        <time>2026-05-09T19:25:04.047Z</time>
      </trkpt>
      <trkpt lat="47.87611" lon="6.91731">
        <ele>893</ele>
        <time>2026-05-09T19:25:05.047Z</time>
      </trkpt>
      <trkpt lat="47.87612" lon="6.91733">
        <ele>894</ele>
        <time>2026-05-09T19:25:06.046Z</time>
      </trkpt>
      <trkpt lat="47.87612" lon="6.91734">
        <ele>894</ele>
        <time>2026-05-09T19:25:07.047Z</time>
      </trkpt>
      <trkpt lat="47.87612" lon="6.91735">
        <ele>894</ele>
        <time>2026-05-09T19:25:08.046Z</time>
      </trkpt>
      <trkpt lat="47.87612" lon="6.91737">
        <ele>894</ele>
        <time>2026-05-09T19:25:09.046Z</time>
      </trkpt>
      <trkpt lat="47.87613" lon="6.91739">
        <ele>894</ele>
        <time>2026-05-09T19:25:10.046Z</time>
      </trkpt>
      <trkpt lat="47.87614" lon="6.91742">
        <ele>894</ele>
        <time>2026-05-09T19:25:11.046Z</time>
      </trkpt>
      <trkpt lat="47.87614" lon="6.91744">
        <ele>894</ele>
        <time>2026-05-09T19:25:12.046Z</time>
      </trkpt>
      <trkpt lat="47.87615" lon="6.91746">
        <ele>894</ele>
        <time>2026-05-09T19:25:13.047Z</time>
      </trkpt>
      <trkpt lat="47.87615" lon="6.91747">
        <ele>894</ele>
        <time>2026-05-09T19:25:14.046Z</time>
      </trkpt>
      <trkpt lat="47.87614" lon="6.91748">
        <ele>894</ele>
        <time>2026-05-09T19:25:15.046Z</time>
      </trkpt>
      <trkpt lat="47.87614" lon="6.91749">
        <ele>894</ele>
        <time>2026-05-09T19:25:16.046Z</time>
      </trkpt>
      <trkpt lat="47.87613" lon="6.91752">
        <ele>894</ele>
        <time>2026-05-09T19:25:17.046Z</time>
      </trkpt>
      <trkpt lat="47.87613" lon="6.91754">
        <ele>894</ele>
        <time>2026-05-09T19:25:18.046Z</time>
      </trkpt>
      <trkpt lat="47.87613" lon="6.91755">
        <ele>894</ele>
        <time>2026-05-09T19:25:19.046Z</time>
      </trkpt>
      <trkpt lat="47.87612" lon="6.91756">
        <ele>894</ele>
        <time>2026-05-09T19:25:20.046Z</time>
      </trkpt>
      <trkpt lat="47.87612" lon="6.91758">
        <ele>894</ele>
        <time>2026-05-09T19:25:21.047Z</time>
      </trkpt>
      <trkpt lat="47.87612" lon="6.91758">
        <ele>894</ele>
        <time>2026-05-09T19:25:22.047Z</time>
      </trkpt>
      <trkpt lat="47.87611" lon="6.91758">
        <ele>894</ele>
        <time>2026-05-09T19:25:23.046Z</time>
      </trkpt>
      <trkpt lat="47.8761" lon="6.91757">
        <ele>893</ele>
        <time>2026-05-09T19:25:24.047Z</time>
      </trkpt>
      <trkpt lat="47.87609" lon="6.91758">
        <ele>893</ele>
        <time>2026-05-09T19:25:25.046Z</time>
      </trkpt>
      <trkpt lat="47.87608" lon="6.9176">
        <ele>892</ele>
        <time>2026-05-09T19:25:26.046Z</time>
      </trkpt>
      <trkpt lat="47.87609" lon="6.91763">
        <ele>892</ele>
        <time>2026-05-09T19:25:27.046Z</time>
      </trkpt>
      <trkpt lat="47.87609" lon="6.91767">
        <ele>891</ele>
        <time>2026-05-09T19:25:28.047Z</time>
      </trkpt>
      <trkpt lat="47.87611" lon="6.9177">
        <ele>891</ele>
        <time>2026-05-09T19:25:29.046Z</time>
      </trkpt>
      <trkpt lat="47.87611" lon="6.91773">
        <ele>891</ele>
        <time>2026-05-09T19:25:30.046Z</time>
      </trkpt>
      <trkpt lat="47.87611" lon="6.91775">
        <ele>891</ele>
        <time>2026-05-09T19:25:31.046Z</time>
      </trkpt>
      <trkpt lat="47.87612" lon="6.91779">
        <ele>891</ele>
        <time>2026-05-09T19:25:32.046Z</time>
      </trkpt>
      <trkpt lat="47.87613" lon="6.91782">
        <ele>890</ele>
        <time>2026-05-09T19:25:33.046Z</time>
      </trkpt>
      <trkpt lat="47.87615" lon="6.91783">
        <ele>890</ele>
        <time>2026-05-09T19:25:34.046Z</time>
      </trkpt>
      <trkpt lat="47.87617" lon="6.91783">
        <ele>890</ele>
        <time>2026-05-09T19:25:35.046Z</time>
      </trkpt>
      <trkpt lat="47.87619" lon="6.91782">
        <ele>890</ele>
        <time>2026-05-09T19:25:36.047Z</time>
      </trkpt>
      <trkpt lat="47.8762" lon="6.91784">
        <ele>889</ele>
        <time>2026-05-09T19:25:37.046Z</time>
      </trkpt>
      <trkpt lat="47.8762" lon="6.91785">
        <ele>889</ele>
        <time>2026-05-09T19:25:38.047Z</time>
      </trkpt>
      <trkpt lat="47.87621" lon="6.91787">
        <ele>889</ele>
        <time>2026-05-09T19:25:39.046Z</time>
      </trkpt>
      <trkpt lat="47.87622" lon="6.91789">
        <ele>888</ele>
        <time>2026-05-09T19:25:40.046Z</time>
      </trkpt>
      <trkpt lat="47.87624" lon="6.91793">
        <ele>888</ele>
        <time>2026-05-09T19:25:41.046Z</time>
      </trkpt>
      <trkpt lat="47.87624" lon="6.91796">
        <ele>888</ele>
        <time>2026-05-09T19:25:42.047Z</time>
      </trkpt>
      <trkpt lat="47.87623" lon="6.918">
        <ele>888</ele>
        <time>2026-05-09T19:25:43.046Z</time>
      </trkpt>
      <trkpt lat="47.87623" lon="6.91805">
        <ele>888</ele>
        <time>2026-05-09T19:25:44.046Z</time>
      </trkpt>
      <trkpt lat="47.87623" lon="6.91808">
        <ele>888</ele>
        <time>2026-05-09T19:25:45.046Z</time>
      </trkpt>
      <trkpt lat="47.87624" lon="6.9181">
        <ele>889</ele>
        <time>2026-05-09T19:25:46.047Z</time>
      </trkpt>
      <trkpt lat="47.87626" lon="6.91811">
        <ele>889</ele>
        <time>2026-05-09T19:25:47.046Z</time>
      </trkpt>
      <trkpt lat="47.87627" lon="6.91813">
        <ele>888</ele>
        <time>2026-05-09T19:25:48.046Z</time>
      </trkpt>
      <trkpt lat="47.87627" lon="6.91815">
        <ele>888</ele>
        <time>2026-05-09T19:25:49.046Z</time>
      </trkpt>
      <trkpt lat="47.87626" lon="6.91817">
        <ele>888</ele>
        <time>2026-05-09T19:25:50.046Z</time>
      </trkpt>
      <trkpt lat="47.87624" lon="6.91817">
        <ele>888</ele>
        <time>2026-05-09T19:25:51.047Z</time>
      </trkpt>
      <trkpt lat="47.87624" lon="6.91816">
        <ele>888</ele>
        <time>2026-05-09T19:25:52.046Z</time>
      </trkpt>
      <trkpt lat="47.87624" lon="6.91816">
        <ele>888</ele>
        <time>2026-05-09T19:25:53.046Z</time>
      </trkpt>
      <trkpt lat="47.87623" lon="6.91816">
        <ele>888</ele>
        <time>2026-05-09T19:25:54.046Z</time>
      </trkpt>
      <trkpt lat="47.87623" lon="6.91816">
        <ele>888</ele>
        <time>2026-05-09T19:25:55.046Z</time>
      </trkpt>
      <trkpt lat="47.87623" lon="6.91817">
        <ele>888</ele>
        <time>2026-05-09T19:25:56.046Z</time>
      </trkpt>
      <trkpt lat="47.87624" lon="6.91818">
        <ele>887</ele>
        <time>2026-05-09T19:25:57.047Z</time>
      </trkpt>
      <trkpt lat="47.87625" lon="6.91819">
        <ele>887</ele>
        <time>2026-05-09T19:25:58.047Z</time>
      </trkpt>
      <trkpt lat="47.87625" lon="6.91821">
        <ele>887</ele>
        <time>2026-05-09T19:25:59.047Z</time>
      </trkpt>
      <trkpt lat="47.87626" lon="6.91821">
        <ele>886</ele>
        <time>2026-05-09T19:26:00.046Z</time>
      </trkpt>
      <trkpt lat="47.87626" lon="6.91822">
        <ele>886</ele>
        <time>2026-05-09T19:26:01.047Z</time>
      </trkpt>
      <trkpt lat="47.87625" lon="6.91822">
        <ele>886</ele>
        <time>2026-05-09T19:26:02.046Z</time>
      </trkpt>
      <trkpt lat="47.87625" lon="6.91824">
        <ele>886</ele>
        <time>2026-05-09T19:26:03.047Z</time>
      </trkpt>
      <trkpt lat="47.87625" lon="6.91824">
        <ele>886</ele>
        <time>2026-05-09T19:26:04.046Z</time>
      </trkpt>
      <trkpt lat="47.87625" lon="6.91825">
        <ele>886</ele>
        <time>2026-05-09T19:26:05.047Z</time>
      </trkpt>
      <trkpt lat="47.87625" lon="6.91827">
        <ele>885</ele>
        <time>2026-05-09T19:26:06.047Z</time>
      </trkpt>
      <trkpt lat="47.87625" lon="6.91828">
        <ele>885</ele>
        <time>2026-05-09T19:26:07.047Z</time>
      </trkpt>
      <trkpt lat="47.87625" lon="6.91829">
        <ele>885</ele>
        <time>2026-05-09T19:26:08.046Z</time>
      </trkpt>
      <trkpt lat="47.87625" lon="6.9183">
        <ele>886</ele>
        <time>2026-05-09T19:26:09.046Z</time>
      </trkpt>
      <trkpt lat="47.87624" lon="6.91832">
        <ele>886</ele>
        <time>2026-05-09T19:26:10.046Z</time>
      </trkpt>
      <trkpt lat="47.87624" lon="6.91834">
        <ele>886</ele>
        <time>2026-05-09T19:26:11.047Z</time>
      </trkpt>
      <trkpt lat="47.87624" lon="6.91835">
        <ele>886</ele>
        <time>2026-05-09T19:26:12.046Z</time>
      </trkpt>
      <trkpt lat="47.87624" lon="6.91838">
        <ele>886</ele>
        <time>2026-05-09T19:26:13.046Z</time>
      </trkpt>
      <trkpt lat="47.87624" lon="6.9184">
        <ele>886</ele>
        <time>2026-05-09T19:26:14.046Z</time>
      </trkpt>
      <trkpt lat="47.87625" lon="6.91842">
        <ele>887</ele>
        <time>2026-05-09T19:26:15.047Z</time>
      </trkpt>
      <trkpt lat="47.87626" lon="6.91844">
        <ele>887</ele>
        <time>2026-05-09T19:26:16.047Z</time>
      </trkpt>
      <trkpt lat="47.87626" lon="6.91846">
        <ele>887</ele>
        <time>2026-05-09T19:26:17.046Z</time>
      </trkpt>
      <trkpt lat="47.87627" lon="6.91848">
        <ele>887</ele>
        <time>2026-05-09T19:26:18.046Z</time>
      </trkpt>
      <trkpt lat="47.87627" lon="6.9185">
        <ele>887</ele>
        <time>2026-05-09T19:26:19.046Z</time>
      </trkpt>
      <trkpt lat="47.87628" lon="6.9185">
        <ele>887</ele>
        <time>2026-05-09T19:26:20.046Z</time>
      </trkpt>
      <trkpt lat="47.87629" lon="6.91851">
        <ele>888</ele>
        <time>2026-05-09T19:26:21.047Z</time>
      </trkpt>
      <trkpt lat="47.87628" lon="6.91853">
        <ele>888</ele>
        <time>2026-05-09T19:26:22.046Z</time>
      </trkpt>
      <trkpt lat="47.87627" lon="6.91856">
        <ele>888</ele>
        <time>2026-05-09T19:26:23.046Z</time>
      </trkpt>
      <trkpt lat="47.87627" lon="6.91858">
        <ele>888</ele>
        <time>2026-05-09T19:26:24.047Z</time>
      </trkpt>
      <trkpt lat="47.87626" lon="6.9186">
        <ele>888</ele>
        <time>2026-05-09T19:26:25.046Z</time>
      </trkpt>
      <trkpt lat="47.87625" lon="6.91861">
        <ele>888</ele>
        <time>2026-05-09T19:26:26.046Z</time>
      </trkpt>
      <trkpt lat="47.87624" lon="6.91863">
        <ele>888</ele>
        <time>2026-05-09T19:26:27.047Z</time>
      </trkpt>
      <trkpt lat="47.87625" lon="6.91865">
        <ele>888</ele>
        <time>2026-05-09T19:26:28.046Z</time>
      </trkpt>
      <trkpt lat="47.87625" lon="6.91867">
        <ele>888</ele>
        <time>2026-05-09T19:26:29.046Z</time>
      </trkpt>
      <trkpt lat="47.87626" lon="6.91869">
        <ele>888</ele>
        <time>2026-05-09T19:26:30.046Z</time>
      </trkpt>
      <trkpt lat="47.87625" lon="6.91871">
        <ele>888</ele>
        <time>2026-05-09T19:26:31.047Z</time>
      </trkpt>
      <trkpt lat="47.87625" lon="6.91872">
        <ele>888</ele>
        <time>2026-05-09T19:26:32.047Z</time>
      </trkpt>
      <trkpt lat="47.87624" lon="6.91874">
        <ele>888</ele>
        <time>2026-05-09T19:26:33.046Z</time>
      </trkpt>
      <trkpt lat="47.87625" lon="6.91875">
        <ele>888</ele>
        <time>2026-05-09T19:26:34.047Z</time>
      </trkpt>
      <trkpt lat="47.87625" lon="6.91877">
        <ele>888</ele>
        <time>2026-05-09T19:26:35.047Z</time>
      </trkpt>
      <trkpt lat="47.87625" lon="6.91878">
        <ele>888</ele>
        <time>2026-05-09T19:26:36.046Z</time>
      </trkpt>
      <trkpt lat="47.87626" lon="6.9188">
        <ele>889</ele>
        <time>2026-05-09T19:26:37.046Z</time>
      </trkpt>
      <trkpt lat="47.87626" lon="6.91882">
        <ele>889</ele>
        <time>2026-05-09T19:26:38.047Z</time>
      </trkpt>
      <trkpt lat="47.87626" lon="6.91884">
        <ele>889</ele>
        <time>2026-05-09T19:26:39.046Z</time>
      </trkpt>
      <trkpt lat="47.87626" lon="6.91886">
        <ele>888</ele>
        <time>2026-05-09T19:26:40.046Z</time>
      </trkpt>
      <trkpt lat="47.87626" lon="6.91887">
        <ele>888</ele>
        <time>2026-05-09T19:26:41.046Z</time>
      </trkpt>
      <trkpt lat="47.87626" lon="6.9189">
        <ele>887</ele>
        <time>2026-05-09T19:26:42.047Z</time>
      </trkpt>
      <trkpt lat="47.87626" lon="6.91892">
        <ele>887</ele>
        <time>2026-05-09T19:26:43.046Z</time>
      </trkpt>
      <trkpt lat="47.87625" lon="6.91894">
        <ele>886</ele>
        <time>2026-05-09T19:26:44.046Z</time>
      </trkpt>
      <trkpt lat="47.87625" lon="6.91897">
        <ele>886</ele>
        <time>2026-05-09T19:26:45.047Z</time>
      </trkpt>
      <trkpt lat="47.87625" lon="6.919">
        <ele>886</ele>
        <time>2026-05-09T19:26:46.046Z</time>
      </trkpt>
      <trkpt lat="47.87623" lon="6.91902">
        <ele>885</ele>
        <time>2026-05-09T19:26:47.047Z</time>
      </trkpt>
      <trkpt lat="47.87623" lon="6.91903">
        <ele>885</ele>
        <time>2026-05-09T19:26:48.047Z</time>
      </trkpt>
      <trkpt lat="47.87623" lon="6.91905">
        <ele>885</ele>
        <time>2026-05-09T19:26:49.046Z</time>
      </trkpt>
      <trkpt lat="47.87623" lon="6.91907">
        <ele>884</ele>
        <time>2026-05-09T19:26:50.046Z</time>
      </trkpt>
      <trkpt lat="47.87623" lon="6.91909">
        <ele>884</ele>
        <time>2026-05-09T19:26:51.046Z</time>
      </trkpt>
      <trkpt lat="47.87623" lon="6.91911">
        <ele>884</ele>
        <time>2026-05-09T19:26:52.046Z</time>
      </trkpt>
      <trkpt lat="47.87623" lon="6.91914">
        <ele>884</ele>
        <time>2026-05-09T19:26:53.047Z</time>
      </trkpt>
      <trkpt lat="47.87623" lon="6.91917">
        <ele>884</ele>
        <time>2026-05-09T19:26:54.047Z</time>
      </trkpt>
      <trkpt lat="47.87622" lon="6.9192">
        <ele>883</ele>
        <time>2026-05-09T19:26:55.046Z</time>
      </trkpt>
      <trkpt lat="47.87622" lon="6.91922">
        <ele>883</ele>
        <time>2026-05-09T19:26:56.047Z</time>
      </trkpt>
      <trkpt lat="47.87621" lon="6.91923">
        <ele>883</ele>
        <time>2026-05-09T19:26:57.047Z</time>
      </trkpt>
      <trkpt lat="47.87621" lon="6.91925">
        <ele>882</ele>
        <time>2026-05-09T19:26:58.047Z</time>
      </trkpt>
      <trkpt lat="47.87621" lon="6.91928">
        <ele>882</ele>
        <time>2026-05-09T19:26:59.046Z</time>
      </trkpt>
      <trkpt lat="47.87621" lon="6.9193">
        <ele>882</ele>
        <time>2026-05-09T19:27:00.047Z</time>
      </trkpt>
      <trkpt lat="47.87622" lon="6.91932">
        <ele>881</ele>
        <time>2026-05-09T19:27:01.047Z</time>
      </trkpt>
      <trkpt lat="47.87622" lon="6.91934">
        <ele>881</ele>
        <time>2026-05-09T19:27:02.046Z</time>
      </trkpt>
      <trkpt lat="47.87622" lon="6.91936">
        <ele>880</ele>
        <time>2026-05-09T19:27:03.047Z</time>
      </trkpt>
      <trkpt lat="47.87622" lon="6.91938">
        <ele>879</ele>
        <time>2026-05-09T19:27:04.047Z</time>
      </trkpt>
      <trkpt lat="47.87623" lon="6.9194">
        <ele>879</ele>
        <time>2026-05-09T19:27:05.046Z</time>
      </trkpt>
      <trkpt lat="47.87623" lon="6.91943">
        <ele>878</ele>
        <time>2026-05-09T19:27:06.046Z</time>
      </trkpt>
      <trkpt lat="47.87624" lon="6.91945">
        <ele>878</ele>
        <time>2026-05-09T19:27:07.046Z</time>
      </trkpt>
      <trkpt lat="47.87625" lon="6.91946">
        <ele>878</ele>
        <time>2026-05-09T19:27:08.047Z</time>
      </trkpt>
      <trkpt lat="47.87625" lon="6.91948">
        <ele>878</ele>
        <time>2026-05-09T19:27:09.046Z</time>
      </trkpt>
      <trkpt lat="47.87625" lon="6.9195">
        <ele>878</ele>
        <time>2026-05-09T19:27:10.047Z</time>
      </trkpt>
      <trkpt lat="47.87626" lon="6.91952">
        <ele>878</ele>
        <time>2026-05-09T19:27:11.047Z</time>
      </trkpt>
      <trkpt lat="47.87626" lon="6.91954">
        <ele>878</ele>
        <time>2026-05-09T19:27:12.046Z</time>
      </trkpt>
      <trkpt lat="47.87627" lon="6.91956">
        <ele>878</ele>
        <time>2026-05-09T19:27:13.047Z</time>
      </trkpt>
      <trkpt lat="47.87627" lon="6.91957">
        <ele>878</ele>
        <time>2026-05-09T19:27:14.047Z</time>
      </trkpt>
      <trkpt lat="47.87628" lon="6.91959">
        <ele>878</ele>
        <time>2026-05-09T19:27:15.047Z</time>
      </trkpt>
      <trkpt lat="47.87628" lon="6.91961">
        <ele>877</ele>
        <time>2026-05-09T19:27:16.046Z</time>
      </trkpt>
      <trkpt lat="47.87629" lon="6.91963">
        <ele>877</ele>
        <time>2026-05-09T19:27:17.046Z</time>
      </trkpt>
      <trkpt lat="47.87629" lon="6.91964">
        <ele>877</ele>
        <time>2026-05-09T19:27:18.046Z</time>
      </trkpt>
      <trkpt lat="47.87629" lon="6.91966">
        <ele>877</ele>
        <time>2026-05-09T19:27:19.046Z</time>
      </trkpt>
      <trkpt lat="47.8763" lon="6.91968">
        <ele>876</ele>
        <time>2026-05-09T19:27:20.046Z</time>
      </trkpt>
      <trkpt lat="47.87632" lon="6.91971">
        <ele>876</ele>
        <time>2026-05-09T19:27:21.046Z</time>
      </trkpt>
      <trkpt lat="47.87632" lon="6.91973">
        <ele>876</ele>
        <time>2026-05-09T19:27:22.046Z</time>
      </trkpt>
      <trkpt lat="47.87633" lon="6.91976">
        <ele>876</ele>
        <time>2026-05-09T19:27:23.046Z</time>
      </trkpt>
      <trkpt lat="47.87633" lon="6.91978">
        <ele>876</ele>
        <time>2026-05-09T19:27:24.046Z</time>
      </trkpt>
      <trkpt lat="47.87635" lon="6.9198">
        <ele>876</ele>
        <time>2026-05-09T19:27:25.046Z</time>
      </trkpt>
      <trkpt lat="47.87635" lon="6.91982">
        <ele>875</ele>
        <time>2026-05-09T19:27:26.046Z</time>
      </trkpt>
      <trkpt lat="47.87636" lon="6.91984">
        <ele>875</ele>
        <time>2026-05-09T19:27:27.046Z</time>
      </trkpt>
      <trkpt lat="47.87637" lon="6.91986">
        <ele>875</ele>
        <time>2026-05-09T19:27:28.046Z</time>
      </trkpt>
      <trkpt lat="47.87638" lon="6.91988">
        <ele>875</ele>
        <time>2026-05-09T19:27:29.046Z</time>
      </trkpt>
      <trkpt lat="47.87638" lon="6.91989">
        <ele>875</ele>
        <time>2026-05-09T19:27:30.047Z</time>
      </trkpt>
      <trkpt lat="47.87638" lon="6.91991">
        <ele>875</ele>
        <time>2026-05-09T19:27:31.046Z</time>
      </trkpt>
      <trkpt lat="47.87639" lon="6.91993">
        <ele>875</ele>
        <time>2026-05-09T19:27:32.047Z</time>
      </trkpt>
      <trkpt lat="47.8764" lon="6.91995">
        <ele>874</ele>
        <time>2026-05-09T19:27:33.046Z</time>
      </trkpt>
      <trkpt lat="47.8764" lon="6.91997">
        <ele>874</ele>
        <time>2026-05-09T19:27:34.047Z</time>
      </trkpt>
      <trkpt lat="47.87641" lon="6.91999">
        <ele>874</ele>
        <time>2026-05-09T19:27:35.047Z</time>
      </trkpt>
      <trkpt lat="47.87641" lon="6.92001">
        <ele>874</ele>
        <time>2026-05-09T19:27:36.046Z</time>
      </trkpt>
      <trkpt lat="47.87642" lon="6.92003">
        <ele>874</ele>
        <time>2026-05-09T19:27:37.046Z</time>
      </trkpt>
      <trkpt lat="47.87642" lon="6.92005">
        <ele>874</ele>
        <time>2026-05-09T19:27:38.046Z</time>
      </trkpt>
      <trkpt lat="47.87642" lon="6.92007">
        <ele>874</ele>
        <time>2026-05-09T19:27:39.046Z</time>
      </trkpt>
      <trkpt lat="47.87643" lon="6.92009">
        <ele>874</ele>
        <time>2026-05-09T19:27:40.047Z</time>
      </trkpt>
      <trkpt lat="47.87643" lon="6.92011">
        <ele>874</ele>
        <time>2026-05-09T19:27:41.047Z</time>
      </trkpt>
      <trkpt lat="47.87644" lon="6.92013">
        <ele>874</ele>
        <time>2026-05-09T19:27:42.046Z</time>
      </trkpt>
      <trkpt lat="47.87644" lon="6.92015">
        <ele>873</ele>
        <time>2026-05-09T19:27:43.046Z</time>
      </trkpt>
      <trkpt lat="47.87644" lon="6.92017">
        <ele>873</ele>
        <time>2026-05-09T19:27:44.047Z</time>
      </trkpt>
      <trkpt lat="47.87644" lon="6.92019">
        <ele>873</ele>
        <time>2026-05-09T19:27:45.046Z</time>
      </trkpt>
      <trkpt lat="47.87644" lon="6.92021">
        <ele>873</ele>
        <time>2026-05-09T19:27:46.047Z</time>
      </trkpt>
      <trkpt lat="47.87644" lon="6.92023">
        <ele>873</ele>
        <time>2026-05-09T19:27:47.046Z</time>
      </trkpt>
      <trkpt lat="47.87644" lon="6.92025">
        <ele>873</ele>
        <time>2026-05-09T19:27:48.046Z</time>
      </trkpt>
      <trkpt lat="47.87644" lon="6.92027">
        <ele>873</ele>
        <time>2026-05-09T19:27:49.046Z</time>
      </trkpt>
      <trkpt lat="47.87644" lon="6.92029">
        <ele>873</ele>
        <time>2026-05-09T19:27:50.046Z</time>
      </trkpt>
      <trkpt lat="47.87644" lon="6.92031">
        <ele>873</ele>
        <time>2026-05-09T19:27:51.047Z</time>
      </trkpt>
      <trkpt lat="47.87644" lon="6.92033">
        <ele>873</ele>
        <time>2026-05-09T19:27:52.047Z</time>
      </trkpt>
      <trkpt lat="47.87644" lon="6.92036">
        <ele>873</ele>
        <time>2026-05-09T19:27:53.046Z</time>
      </trkpt>
      <trkpt lat="47.87644" lon="6.92038">
        <ele>873</ele>
        <time>2026-05-09T19:27:54.047Z</time>
      </trkpt>
      <trkpt lat="47.87643" lon="6.9204">
        <ele>873</ele>
        <time>2026-05-09T19:27:55.046Z</time>
      </trkpt>
      <trkpt lat="47.87642" lon="6.92042">
        <ele>873</ele>
        <time>2026-05-09T19:27:56.046Z</time>
      </trkpt>
      <trkpt lat="47.87642" lon="6.92044">
        <ele>873</ele>
        <time>2026-05-09T19:27:57.047Z</time>
      </trkpt>
      <trkpt lat="47.87642" lon="6.92046">
        <ele>873</ele>
        <time>2026-05-09T19:27:58.046Z</time>
      </trkpt>
      <trkpt lat="47.87642" lon="6.92048">
        <ele>873</ele>
        <time>2026-05-09T19:27:59.046Z</time>
      </trkpt>
      <trkpt lat="47.87641" lon="6.9205">
        <ele>873</ele>
        <time>2026-05-09T19:28:00.047Z</time>
      </trkpt>
      <trkpt lat="47.87641" lon="6.92052">
        <ele>873</ele>
        <time>2026-05-09T19:28:01.046Z</time>
      </trkpt>
      <trkpt lat="47.87641" lon="6.92054">
        <ele>873</ele>
        <time>2026-05-09T19:28:02.046Z</time>
      </trkpt>
      <trkpt lat="47.87642" lon="6.92056">
        <ele>873</ele>
        <time>2026-05-09T19:28:03.046Z</time>
      </trkpt>
      <trkpt lat="47.87642" lon="6.92057">
        <ele>873</ele>
        <time>2026-05-09T19:28:04.047Z</time>
      </trkpt>
      <trkpt lat="47.87642" lon="6.92059">
        <ele>872</ele>
        <time>2026-05-09T19:28:05.046Z</time>
      </trkpt>
      <trkpt lat="47.87643" lon="6.92061">
        <ele>872</ele>
        <time>2026-05-09T19:28:06.046Z</time>
      </trkpt>
      <trkpt lat="47.87643" lon="6.92063">
        <ele>872</ele>
        <time>2026-05-09T19:28:07.046Z</time>
      </trkpt>
      <trkpt lat="47.87643" lon="6.92065">
        <ele>872</ele>
        <time>2026-05-09T19:28:08.046Z</time>
      </trkpt>
      <trkpt lat="47.87643" lon="6.92067">
        <ele>872</ele>
        <time>2026-05-09T19:28:09.046Z</time>
      </trkpt>
      <trkpt lat="47.87643" lon="6.9207">
        <ele>873</ele>
        <time>2026-05-09T19:28:10.046Z</time>
      </trkpt>
      <trkpt lat="47.87642" lon="6.92072">
        <ele>873</ele>
        <time>2026-05-09T19:28:11.046Z</time>
      </trkpt>
      <trkpt lat="47.87643" lon="6.92074">
        <ele>873</ele>
        <time>2026-05-09T19:28:12.046Z</time>
      </trkpt>
      <trkpt lat="47.87644" lon="6.92076">
        <ele>873</ele>
        <time>2026-05-09T19:28:13.047Z</time>
      </trkpt>
      <trkpt lat="47.87645" lon="6.92078">
        <ele>873</ele>
        <time>2026-05-09T19:28:14.046Z</time>
      </trkpt>
      <trkpt lat="47.87647" lon="6.9208">
        <ele>873</ele>
        <time>2026-05-09T19:28:15.046Z</time>
      </trkpt>
      <trkpt lat="47.87648" lon="6.92081">
        <ele>873</ele>
        <time>2026-05-09T19:28:16.047Z</time>
      </trkpt>
      <trkpt lat="47.87649" lon="6.92084">
        <ele>874</ele>
        <time>2026-05-09T19:28:17.047Z</time>
      </trkpt>
      <trkpt lat="47.87649" lon="6.92086">
        <ele>874</ele>
        <time>2026-05-09T19:28:18.046Z</time>
      </trkpt>
      <trkpt lat="47.8765" lon="6.92088">
        <ele>875</ele>
        <time>2026-05-09T19:28:19.046Z</time>
      </trkpt>
      <trkpt lat="47.8765" lon="6.9209">
        <ele>875</ele>
        <time>2026-05-09T19:28:20.046Z</time>
      </trkpt>
      <trkpt lat="47.8765" lon="6.92092">
        <ele>875</ele>
        <time>2026-05-09T19:28:21.046Z</time>
      </trkpt>
      <trkpt lat="47.87651" lon="6.92094">
        <ele>875</ele>
        <time>2026-05-09T19:28:22.046Z</time>
      </trkpt>
      <trkpt lat="47.87652" lon="6.92096">
        <ele>875</ele>
        <time>2026-05-09T19:28:23.046Z</time>
      </trkpt>
      <trkpt lat="47.87652" lon="6.92098">
        <ele>875</ele>
        <time>2026-05-09T19:28:24.046Z</time>
      </trkpt>
      <trkpt lat="47.87653" lon="6.92099">
        <ele>875</ele>
        <time>2026-05-09T19:28:25.046Z</time>
      </trkpt>
      <trkpt lat="47.87653" lon="6.92101">
        <ele>875</ele>
        <time>2026-05-09T19:28:26.047Z</time>
      </trkpt>
      <trkpt lat="47.87653" lon="6.92103">
        <ele>874</ele>
        <time>2026-05-09T19:28:27.046Z</time>
      </trkpt>
      <trkpt lat="47.87653" lon="6.92105">
        <ele>874</ele>
        <time>2026-05-09T19:28:28.047Z</time>
      </trkpt>
      <trkpt lat="47.87654" lon="6.92106">
        <ele>874</ele>
        <time>2026-05-09T19:28:29.046Z</time>
      </trkpt>
      <trkpt lat="47.87654" lon="6.92108">
        <ele>874</ele>
        <time>2026-05-09T19:28:30.047Z</time>
      </trkpt>
      <trkpt lat="47.87655" lon="6.9211">
        <ele>874</ele>
        <time>2026-05-09T19:28:31.046Z</time>
      </trkpt>
      <trkpt lat="47.87655" lon="6.92112">
        <ele>874</ele>
        <time>2026-05-09T19:28:32.046Z</time>
      </trkpt>
      <trkpt lat="47.87655" lon="6.92114">
        <ele>874</ele>
        <time>2026-05-09T19:28:33.046Z</time>
      </trkpt>
      <trkpt lat="47.87656" lon="6.92115">
        <ele>874</ele>
        <time>2026-05-09T19:28:34.046Z</time>
      </trkpt>
      <trkpt lat="47.87656" lon="6.92118">
        <ele>873</ele>
        <time>2026-05-09T19:28:35.047Z</time>
      </trkpt>
      <trkpt lat="47.87657" lon="6.92119">
        <ele>873</ele>
        <time>2026-05-09T19:28:36.046Z</time>
      </trkpt>
      <trkpt lat="47.87659" lon="6.9212">
        <ele>872</ele>
        <time>2026-05-09T19:28:37.046Z</time>
      </trkpt>
      <trkpt lat="47.8766" lon="6.92122">
        <ele>872</ele>
        <time>2026-05-09T19:28:38.046Z</time>
      </trkpt>
      <trkpt lat="47.87661" lon="6.92124">
        <ele>872</ele>
        <time>2026-05-09T19:28:39.046Z</time>
      </trkpt>
      <trkpt lat="47.87662" lon="6.92126">
        <ele>872</ele>
        <time>2026-05-09T19:28:40.046Z</time>
      </trkpt>
      <trkpt lat="47.87662" lon="6.92128">
        <ele>872</ele>
        <time>2026-05-09T19:28:41.047Z</time>
      </trkpt>
      <trkpt lat="47.87663" lon="6.92129">
        <ele>872</ele>
        <time>2026-05-09T19:28:42.046Z</time>
      </trkpt>
      <trkpt lat="47.87665" lon="6.92131">
        <ele>872</ele>
        <time>2026-05-09T19:28:43.047Z</time>
      </trkpt>
      <trkpt lat="47.87666" lon="6.92133">
        <ele>871</ele>
        <time>2026-05-09T19:28:44.047Z</time>
      </trkpt>
      <trkpt lat="47.87667" lon="6.92135">
        <ele>871</ele>
        <time>2026-05-09T19:28:45.046Z</time>
      </trkpt>
      <trkpt lat="47.87667" lon="6.92137">
        <ele>871</ele>
        <time>2026-05-09T19:28:46.047Z</time>
      </trkpt>
      <trkpt lat="47.87668" lon="6.92139">
        <ele>871</ele>
        <time>2026-05-09T19:28:47.047Z</time>
      </trkpt>
      <trkpt lat="47.87669" lon="6.92141">
        <ele>871</ele>
        <time>2026-05-09T19:28:48.046Z</time>
      </trkpt>
      <trkpt lat="47.8767" lon="6.92143">
        <ele>871</ele>
        <time>2026-05-09T19:28:49.047Z</time>
      </trkpt>
      <trkpt lat="47.87671" lon="6.92144">
        <ele>871</ele>
        <time>2026-05-09T19:28:50.046Z</time>
      </trkpt>
      <trkpt lat="47.87671" lon="6.92146">
        <ele>871</ele>
        <time>2026-05-09T19:28:51.047Z</time>
      </trkpt>
      <trkpt lat="47.87671" lon="6.92148">
        <ele>871</ele>
        <time>2026-05-09T19:28:52.046Z</time>
      </trkpt>
      <trkpt lat="47.87672" lon="6.9215">
        <ele>871</ele>
        <time>2026-05-09T19:28:53.046Z</time>
      </trkpt>
      <trkpt lat="47.87672" lon="6.92152">
        <ele>871</ele>
        <time>2026-05-09T19:28:54.047Z</time>
      </trkpt>
      <trkpt lat="47.87673" lon="6.92154">
        <ele>871</ele>
        <time>2026-05-09T19:28:55.046Z</time>
      </trkpt>
      <trkpt lat="47.87674" lon="6.92156">
        <ele>871</ele>
        <time>2026-05-09T19:28:56.046Z</time>
      </trkpt>
      <trkpt lat="47.87674" lon="6.92158">
        <ele>871</ele>
        <time>2026-05-09T19:28:57.047Z</time>
      </trkpt>
      <trkpt lat="47.87675" lon="6.9216">
        <ele>871</ele>
        <time>2026-05-09T19:28:58.046Z</time>
      </trkpt>
      <trkpt lat="47.87675" lon="6.92161">
        <ele>870</ele>
        <time>2026-05-09T19:28:59.046Z</time>
      </trkpt>
      <trkpt lat="47.87676" lon="6.92163">
        <ele>870</ele>
        <time>2026-05-09T19:29:00.046Z</time>
      </trkpt>
      <trkpt lat="47.87677" lon="6.92165">
        <ele>870</ele>
        <time>2026-05-09T19:29:01.046Z</time>
      </trkpt>
      <trkpt lat="47.87678" lon="6.92166">
        <ele>870</ele>
        <time>2026-05-09T19:29:02.046Z</time>
      </trkpt>
      <trkpt lat="47.87679" lon="6.92168">
        <ele>870</ele>
        <time>2026-05-09T19:29:03.046Z</time>
      </trkpt>
      <trkpt lat="47.87679" lon="6.92169">
        <ele>870</ele>
        <time>2026-05-09T19:29:04.047Z</time>
      </trkpt>
      <trkpt lat="47.87679" lon="6.92171">
        <ele>870</ele>
        <time>2026-05-09T19:29:05.046Z</time>
      </trkpt>
      <trkpt lat="47.8768" lon="6.92172">
        <ele>870</ele>
        <time>2026-05-09T19:29:06.046Z</time>
      </trkpt>
      <trkpt lat="47.87679" lon="6.92174">
        <ele>870</ele>
        <time>2026-05-09T19:29:07.046Z</time>
      </trkpt>
      <trkpt lat="47.87679" lon="6.92175">
        <ele>869</ele>
        <time>2026-05-09T19:29:08.047Z</time>
      </trkpt>
      <trkpt lat="47.87679" lon="6.92176">
        <ele>869</ele>
        <time>2026-05-09T19:29:09.046Z</time>
      </trkpt>
      <trkpt lat="47.8768" lon="6.92178">
        <ele>869</ele>
        <time>2026-05-09T19:29:10.047Z</time>
      </trkpt>
      <trkpt lat="47.87681" lon="6.9218">
        <ele>869</ele>
        <time>2026-05-09T19:29:11.046Z</time>
      </trkpt>
      <trkpt lat="47.87682" lon="6.92181">
        <ele>868</ele>
        <time>2026-05-09T19:29:12.046Z</time>
      </trkpt>
      <trkpt lat="47.87683" lon="6.92182">
        <ele>868</ele>
        <time>2026-05-09T19:29:13.046Z</time>
      </trkpt>
      <trkpt lat="47.87683" lon="6.92183">
        <ele>868</ele>
        <time>2026-05-09T19:29:14.047Z</time>
      </trkpt>
      <trkpt lat="47.87684" lon="6.92185">
        <ele>868</ele>
        <time>2026-05-09T19:29:15.046Z</time>
      </trkpt>
      <trkpt lat="47.87684" lon="6.92187">
        <ele>867</ele>
        <time>2026-05-09T19:29:16.046Z</time>
      </trkpt>
      <trkpt lat="47.87685" lon="6.92189">
        <ele>867</ele>
        <time>2026-05-09T19:29:17.046Z</time>
      </trkpt>
      <trkpt lat="47.87686" lon="6.92191">
        <ele>867</ele>
        <time>2026-05-09T19:29:18.046Z</time>
      </trkpt>
      <trkpt lat="47.87687" lon="6.92193">
        <ele>867</ele>
        <time>2026-05-09T19:29:19.046Z</time>
      </trkpt>
      <trkpt lat="47.87688" lon="6.92194">
        <ele>867</ele>
        <time>2026-05-09T19:29:20.047Z</time>
      </trkpt>
      <trkpt lat="47.87689" lon="6.92196">
        <ele>868</ele>
        <time>2026-05-09T19:29:21.047Z</time>
      </trkpt>
      <trkpt lat="47.8769" lon="6.92198">
        <ele>867</ele>
        <time>2026-05-09T19:29:22.046Z</time>
      </trkpt>
      <trkpt lat="47.87691" lon="6.922">
        <ele>867</ele>
        <time>2026-05-09T19:29:23.046Z</time>
      </trkpt>
      <trkpt lat="47.87692" lon="6.92201">
        <ele>867</ele>
        <time>2026-05-09T19:29:24.046Z</time>
      </trkpt>
      <trkpt lat="47.87692" lon="6.92203">
        <ele>867</ele>
        <time>2026-05-09T19:29:25.046Z</time>
      </trkpt>
      <trkpt lat="47.87693" lon="6.92205">
        <ele>867</ele>
        <time>2026-05-09T19:29:26.046Z</time>
      </trkpt>
      <trkpt lat="47.87694" lon="6.92207">
        <ele>867</ele>
        <time>2026-05-09T19:29:27.046Z</time>
      </trkpt>
      <trkpt lat="47.87695" lon="6.92209">
        <ele>867</ele>
        <time>2026-05-09T19:29:28.046Z</time>
      </trkpt>
      <trkpt lat="47.87696" lon="6.92211">
        <ele>868</ele>
        <time>2026-05-09T19:29:29.046Z</time>
      </trkpt>
      <trkpt lat="47.87696" lon="6.92213">
        <ele>868</ele>
        <time>2026-05-09T19:29:30.046Z</time>
      </trkpt>
      <trkpt lat="47.87697" lon="6.92215">
        <ele>868</ele>
        <time>2026-05-09T19:29:31.047Z</time>
      </trkpt>
      <trkpt lat="47.87698" lon="6.92217">
        <ele>868</ele>
        <time>2026-05-09T19:29:32.046Z</time>
      </trkpt>
      <trkpt lat="47.87698" lon="6.92218">
        <ele>868</ele>
        <time>2026-05-09T19:29:33.046Z</time>
      </trkpt>
      <trkpt lat="47.87699" lon="6.9222">
        <ele>868</ele>
        <time>2026-05-09T19:29:34.046Z</time>
      </trkpt>
      <trkpt lat="47.877" lon="6.92222">
        <ele>868</ele>
        <time>2026-05-09T19:29:35.047Z</time>
      </trkpt>
      <trkpt lat="47.877" lon="6.92224">
        <ele>868</ele>
        <time>2026-05-09T19:29:36.047Z</time>
      </trkpt>
      <trkpt lat="47.877" lon="6.92225">
        <ele>868</ele>
        <time>2026-05-09T19:29:37.046Z</time>
      </trkpt>
      <trkpt lat="47.87701" lon="6.92227">
        <ele>868</ele>
        <time>2026-05-09T19:29:38.046Z</time>
      </trkpt>
      <trkpt lat="47.87701" lon="6.92229">
        <ele>868</ele>
        <time>2026-05-09T19:29:39.047Z</time>
      </trkpt>
      <trkpt lat="47.87701" lon="6.92231">
        <ele>868</ele>
        <time>2026-05-09T19:29:40.047Z</time>
      </trkpt>
      <trkpt lat="47.87702" lon="6.92233">
        <ele>867</ele>
        <time>2026-05-09T19:29:41.046Z</time>
      </trkpt>
      <trkpt lat="47.87703" lon="6.92235">
        <ele>867</ele>
        <time>2026-05-09T19:29:42.046Z</time>
      </trkpt>
      <trkpt lat="47.87703" lon="6.92236">
        <ele>867</ele>
        <time>2026-05-09T19:29:43.046Z</time>
      </trkpt>
      <trkpt lat="47.87704" lon="6.92238">
        <ele>867</ele>
        <time>2026-05-09T19:29:44.047Z</time>
      </trkpt>
      <trkpt lat="47.87705" lon="6.92239">
        <ele>867</ele>
        <time>2026-05-09T19:29:45.047Z</time>
      </trkpt>
      <trkpt lat="47.87706" lon="6.92241">
        <ele>867</ele>
        <time>2026-05-09T19:29:46.046Z</time>
      </trkpt>
      <trkpt lat="47.87707" lon="6.92242">
        <ele>867</ele>
        <time>2026-05-09T19:29:47.046Z</time>
      </trkpt>
      <trkpt lat="47.87707" lon="6.92244">
        <ele>867</ele>
        <time>2026-05-09T19:29:48.047Z</time>
      </trkpt>
      <trkpt lat="47.87708" lon="6.92246">
        <ele>867</ele>
        <time>2026-05-09T19:29:49.046Z</time>
      </trkpt>
      <trkpt lat="47.87708" lon="6.92248">
        <ele>867</ele>
        <time>2026-05-09T19:29:50.046Z</time>
      </trkpt>
      <trkpt lat="47.87708" lon="6.92249">
        <ele>867</ele>
        <time>2026-05-09T19:29:51.047Z</time>
      </trkpt>
      <trkpt lat="47.87708" lon="6.92251">
        <ele>867</ele>
        <time>2026-05-09T19:29:52.046Z</time>
      </trkpt>
      <trkpt lat="47.87708" lon="6.92252">
        <ele>867</ele>
        <time>2026-05-09T19:29:53.046Z</time>
      </trkpt>
      <trkpt lat="47.87707" lon="6.92253">
        <ele>867</ele>
        <time>2026-05-09T19:29:54.046Z</time>
      </trkpt>
      <trkpt lat="47.87707" lon="6.92255">
        <ele>866</ele>
        <time>2026-05-09T19:29:55.046Z</time>
      </trkpt>
      <trkpt lat="47.87707" lon="6.92256">
        <ele>866</ele>
        <time>2026-05-09T19:29:56.047Z</time>
      </trkpt>
      <trkpt lat="47.87708" lon="6.92258">
        <ele>866</ele>
        <time>2026-05-09T19:29:57.046Z</time>
      </trkpt>
      <trkpt lat="47.87709" lon="6.9226">
        <ele>866</ele>
        <time>2026-05-09T19:29:58.046Z</time>
      </trkpt>
      <trkpt lat="47.8771" lon="6.92262">
        <ele>866</ele>
        <time>2026-05-09T19:29:59.047Z</time>
      </trkpt>
      <trkpt lat="47.8771" lon="6.92264">
        <ele>866</ele>
        <time>2026-05-09T19:30:00.046Z</time>
      </trkpt>
      <trkpt lat="47.87711" lon="6.92266">
        <ele>866</ele>
        <time>2026-05-09T19:30:01.046Z</time>
      </trkpt>
      <trkpt lat="47.87712" lon="6.92268">
        <ele>866</ele>
        <time>2026-05-09T19:30:02.046Z</time>
      </trkpt>
      <trkpt lat="47.87713" lon="6.92269">
        <ele>866</ele>
        <time>2026-05-09T19:30:03.046Z</time>
      </trkpt>
      <trkpt lat="47.87714" lon="6.92271">
        <ele>866</ele>
        <time>2026-05-09T19:30:04.046Z</time>
      </trkpt>
      <trkpt lat="47.87715" lon="6.92272">
        <ele>866</ele>
        <time>2026-05-09T19:30:05.046Z</time>
      </trkpt>
      <trkpt lat="47.87715" lon="6.92274">
        <ele>867</ele>
        <time>2026-05-09T19:30:06.046Z</time>
      </trkpt>
      <trkpt lat="47.87716" lon="6.92275">
        <ele>867</ele>
        <time>2026-05-09T19:30:07.047Z</time>
      </trkpt>
      <trkpt lat="47.87716" lon="6.92277">
        <ele>867</ele>
        <time>2026-05-09T19:30:08.046Z</time>
      </trkpt>
      <trkpt lat="47.87716" lon="6.92278">
        <ele>868</ele>
        <time>2026-05-09T19:30:09.046Z</time>
      </trkpt>
      <trkpt lat="47.87716" lon="6.9228">
        <ele>868</ele>
        <time>2026-05-09T19:30:10.046Z</time>
      </trkpt>
      <trkpt lat="47.87717" lon="6.92281">
        <ele>869</ele>
        <time>2026-05-09T19:30:11.046Z</time>
      </trkpt>
      <trkpt lat="47.87717" lon="6.92283">
        <ele>869</ele>
        <time>2026-05-09T19:30:12.046Z</time>
      </trkpt>
      <trkpt lat="47.87717" lon="6.92284">
        <ele>870</ele>
        <time>2026-05-09T19:30:13.046Z</time>
      </trkpt>
      <trkpt lat="47.87718" lon="6.92286">
        <ele>871</ele>
        <time>2026-05-09T19:30:14.046Z</time>
      </trkpt>
      <trkpt lat="47.87718" lon="6.92287">
        <ele>871</ele>
        <time>2026-05-09T19:30:15.046Z</time>
      </trkpt>
      <trkpt lat="47.87719" lon="6.9229">
        <ele>872</ele>
        <time>2026-05-09T19:30:16.046Z</time>
      </trkpt>
      <trkpt lat="47.8772" lon="6.92292">
        <ele>873</ele>
        <time>2026-05-09T19:30:17.046Z</time>
      </trkpt>
      <trkpt lat="47.8772" lon="6.92294">
        <ele>873</ele>
        <time>2026-05-09T19:30:18.046Z</time>
      </trkpt>
      <trkpt lat="47.8772" lon="6.92295">
        <ele>874</ele>
        <time>2026-05-09T19:30:19.046Z</time>
      </trkpt>
      <trkpt lat="47.8772" lon="6.92297">
        <ele>874</ele>
        <time>2026-05-09T19:30:20.046Z</time>
      </trkpt>
      <trkpt lat="47.87721" lon="6.92299">
        <ele>874</ele>
        <time>2026-05-09T19:30:21.046Z</time>
      </trkpt>
      <trkpt lat="47.87721" lon="6.923">
        <ele>875</ele>
        <time>2026-05-09T19:30:22.046Z</time>
      </trkpt>
      <trkpt lat="47.87721" lon="6.92301">
        <ele>875</ele>
        <time>2026-05-09T19:30:23.046Z</time>
      </trkpt>
      <trkpt lat="47.87721" lon="6.92303">
        <ele>875</ele>
        <time>2026-05-09T19:30:24.046Z</time>
      </trkpt>
      <trkpt lat="47.87721" lon="6.92304">
        <ele>875</ele>
        <time>2026-05-09T19:30:25.046Z</time>
      </trkpt>
      <trkpt lat="47.87721" lon="6.92306">
        <ele>875</ele>
        <time>2026-05-09T19:30:26.046Z</time>
      </trkpt>
      <trkpt lat="47.87721" lon="6.92307">
        <ele>875</ele>
        <time>2026-05-09T19:30:27.047Z</time>
      </trkpt>
      <trkpt lat="47.87721" lon="6.92309">
        <ele>876</ele>
        <time>2026-05-09T19:30:28.046Z</time>
      </trkpt>
      <trkpt lat="47.87722" lon="6.9231">
        <ele>876</ele>
        <time>2026-05-09T19:30:29.047Z</time>
      </trkpt>
      <trkpt lat="47.87723" lon="6.92312">
        <ele>876</ele>
        <time>2026-05-09T19:30:30.047Z</time>
      </trkpt>
      <trkpt lat="47.87724" lon="6.92314">
        <ele>877</ele>
        <time>2026-05-09T19:30:31.047Z</time>
      </trkpt>
      <trkpt lat="47.87724" lon="6.92316">
        <ele>878</ele>
        <time>2026-05-09T19:30:32.046Z</time>
      </trkpt>
      <trkpt lat="47.87724" lon="6.92318">
        <ele>878</ele>
        <time>2026-05-09T19:30:33.046Z</time>
      </trkpt>
      <trkpt lat="47.87724" lon="6.9232">
        <ele>879</ele>
        <time>2026-05-09T19:30:34.047Z</time>
      </trkpt>
      <trkpt lat="47.87725" lon="6.92322">
        <ele>879</ele>
        <time>2026-05-09T19:30:35.046Z</time>
      </trkpt>
      <trkpt lat="47.87725" lon="6.92324">
        <ele>880</ele>
        <time>2026-05-09T19:30:36.046Z</time>
      </trkpt>
      <trkpt lat="47.87725" lon="6.92326">
        <ele>880</ele>
        <time>2026-05-09T19:30:37.046Z</time>
      </trkpt>
      <trkpt lat="47.87725" lon="6.92328">
        <ele>881</ele>
        <time>2026-05-09T19:30:38.046Z</time>
      </trkpt>
      <trkpt lat="47.87725" lon="6.92331">
        <ele>881</ele>
        <time>2026-05-09T19:30:39.046Z</time>
      </trkpt>
      <trkpt lat="47.87724" lon="6.92332">
        <ele>882</ele>
        <time>2026-05-09T19:30:40.046Z</time>
      </trkpt>
      <trkpt lat="47.87724" lon="6.92334">
        <ele>882</ele>
        <time>2026-05-09T19:30:41.046Z</time>
      </trkpt>
      <trkpt lat="47.87725" lon="6.92335">
        <ele>883</ele>
        <time>2026-05-09T19:30:42.047Z</time>
      </trkpt>
      <trkpt lat="47.87726" lon="6.92336">
        <ele>883</ele>
        <time>2026-05-09T19:30:43.047Z</time>
      </trkpt>
      <trkpt lat="47.87727" lon="6.92338">
        <ele>884</ele>
        <time>2026-05-09T19:30:44.047Z</time>
      </trkpt>
      <trkpt lat="47.87727" lon="6.9234">
        <ele>884</ele>
        <time>2026-05-09T19:30:45.046Z</time>
      </trkpt>
      <trkpt lat="47.87729" lon="6.92342">
        <ele>885</ele>
        <time>2026-05-09T19:30:46.046Z</time>
      </trkpt>
      <trkpt lat="47.87732" lon="6.92344">
        <ele>885</ele>
        <time>2026-05-09T19:30:47.046Z</time>
      </trkpt>
      <trkpt lat="47.87734" lon="6.92347">
        <ele>886</ele>
        <time>2026-05-09T19:30:48.046Z</time>
      </trkpt>
      <trkpt lat="47.87734" lon="6.9235">
        <ele>887</ele>
        <time>2026-05-09T19:30:49.046Z</time>
      </trkpt>
      <trkpt lat="47.87736" lon="6.92353">
        <ele>887</ele>
        <time>2026-05-09T19:30:50.047Z</time>
      </trkpt>
      <trkpt lat="47.87736" lon="6.92356">
        <ele>887</ele>
        <time>2026-05-09T19:30:51.046Z</time>
      </trkpt>
      <trkpt lat="47.87735" lon="6.92357">
        <ele>888</ele>
        <time>2026-05-09T19:30:52.046Z</time>
      </trkpt>
      <trkpt lat="47.87733" lon="6.92361">
        <ele>888</ele>
        <time>2026-05-09T19:30:53.047Z</time>
      </trkpt>
      <trkpt lat="47.87733" lon="6.92363">
        <ele>889</ele>
        <time>2026-05-09T19:30:54.046Z</time>
      </trkpt>
      <trkpt lat="47.87734" lon="6.92365">
        <ele>889</ele>
        <time>2026-05-09T19:30:55.046Z</time>
      </trkpt>
      <trkpt lat="47.87735" lon="6.92368">
        <ele>889</ele>
        <time>2026-05-09T19:30:56.046Z</time>
      </trkpt>
      <trkpt lat="47.87736" lon="6.92369">
        <ele>890</ele>
        <time>2026-05-09T19:30:57.046Z</time>
      </trkpt>
      <trkpt lat="47.87736" lon="6.92371">
        <ele>890</ele>
        <time>2026-05-09T19:30:58.046Z</time>
      </trkpt>
      <trkpt lat="47.87737" lon="6.92372">
        <ele>890</ele>
        <time>2026-05-09T19:30:59.046Z</time>
      </trkpt>
      <trkpt lat="47.87738" lon="6.92373">
        <ele>890</ele>
        <time>2026-05-09T19:31:00.047Z</time>
      </trkpt>
      <trkpt lat="47.87737" lon="6.92374">
        <ele>890</ele>
        <time>2026-05-09T19:31:01.046Z</time>
      </trkpt>
      <trkpt lat="47.87737" lon="6.92376">
        <ele>890</ele>
        <time>2026-05-09T19:31:02.046Z</time>
      </trkpt>
      <trkpt lat="47.87738" lon="6.92377">
        <ele>890</ele>
        <time>2026-05-09T19:31:03.046Z</time>
      </trkpt>
      <trkpt lat="47.87738" lon="6.92378">
        <ele>890</ele>
        <time>2026-05-09T19:31:04.047Z</time>
      </trkpt>
      <trkpt lat="47.87737" lon="6.92379">
        <ele>890</ele>
        <time>2026-05-09T19:31:05.046Z</time>
      </trkpt>
      <trkpt lat="47.87737" lon="6.92381">
        <ele>890</ele>
        <time>2026-05-09T19:31:06.046Z</time>
      </trkpt>
      <trkpt lat="47.87737" lon="6.92382">
        <ele>889</ele>
        <time>2026-05-09T19:31:07.046Z</time>
      </trkpt>
      <trkpt lat="47.87737" lon="6.92384">
        <ele>889</ele>
        <time>2026-05-09T19:31:08.047Z</time>
      </trkpt>
      <trkpt lat="47.87737" lon="6.92385">
        <ele>889</ele>
        <time>2026-05-09T19:31:09.046Z</time>
      </trkpt>
      <trkpt lat="47.87737" lon="6.92387">
        <ele>888</ele>
        <time>2026-05-09T19:31:10.046Z</time>
      </trkpt>
      <trkpt lat="47.87736" lon="6.92388">
        <ele>888</ele>
        <time>2026-05-09T19:31:11.046Z</time>
      </trkpt>
      <trkpt lat="47.87736" lon="6.92389">
        <ele>888</ele>
        <time>2026-05-09T19:31:12.046Z</time>
      </trkpt>
      <trkpt lat="47.87736" lon="6.9239">
        <ele>888</ele>
        <time>2026-05-09T19:31:13.046Z</time>
      </trkpt>
      <trkpt lat="47.87736" lon="6.92391">
        <ele>887</ele>
        <time>2026-05-09T19:31:14.047Z</time>
      </trkpt>
      <trkpt lat="47.87735" lon="6.92393">
        <ele>887</ele>
        <time>2026-05-09T19:31:15.046Z</time>
      </trkpt>
      <trkpt lat="47.87735" lon="6.92394">
        <ele>887</ele>
        <time>2026-05-09T19:31:16.047Z</time>
      </trkpt>
      <trkpt lat="47.87735" lon="6.92396">
        <ele>887</ele>
        <time>2026-05-09T19:31:17.046Z</time>
      </trkpt>
      <trkpt lat="47.87734" lon="6.92398">
        <ele>887</ele>
        <time>2026-05-09T19:31:18.046Z</time>
      </trkpt>
      <trkpt lat="47.87733" lon="6.924">
        <ele>887</ele>
        <time>2026-05-09T19:31:19.046Z</time>
      </trkpt>
      <trkpt lat="47.87732" lon="6.92403">
        <ele>886</ele>
        <time>2026-05-09T19:31:20.046Z</time>
      </trkpt>
      <trkpt lat="47.87731" lon="6.92404">
        <ele>886</ele>
        <time>2026-05-09T19:31:21.046Z</time>
      </trkpt>
      <trkpt lat="47.87731" lon="6.92406">
        <ele>886</ele>
        <time>2026-05-09T19:31:22.046Z</time>
      </trkpt>
      <trkpt lat="47.8773" lon="6.92407">
        <ele>886</ele>
        <time>2026-05-09T19:31:23.046Z</time>
      </trkpt>
      <trkpt lat="47.87729" lon="6.9241">
        <ele>886</ele>
        <time>2026-05-09T19:31:24.046Z</time>
      </trkpt>
      <trkpt lat="47.87728" lon="6.92411">
        <ele>886</ele>
        <time>2026-05-09T19:31:25.047Z</time>
      </trkpt>
      <trkpt lat="47.87729" lon="6.92413">
        <ele>886</ele>
        <time>2026-05-09T19:31:26.046Z</time>
      </trkpt>
      <trkpt lat="47.87729" lon="6.92414">
        <ele>886</ele>
        <time>2026-05-09T19:31:27.046Z</time>
      </trkpt>
      <trkpt lat="47.87729" lon="6.92415">
        <ele>886</ele>
        <time>2026-05-09T19:31:28.047Z</time>
      </trkpt>
      <trkpt lat="47.8773" lon="6.92417">
        <ele>886</ele>
        <time>2026-05-09T19:31:29.046Z</time>
      </trkpt>
      <trkpt lat="47.8773" lon="6.92418">
        <ele>886</ele>
        <time>2026-05-09T19:31:30.046Z</time>
      </trkpt>
      <trkpt lat="47.8773" lon="6.9242">
        <ele>886</ele>
        <time>2026-05-09T19:31:31.046Z</time>
      </trkpt>
      <trkpt lat="47.8773" lon="6.92421">
        <ele>886</ele>
        <time>2026-05-09T19:31:32.047Z</time>
      </trkpt>
      <trkpt lat="47.8773" lon="6.92423">
        <ele>886</ele>
        <time>2026-05-09T19:31:33.047Z</time>
      </trkpt>
      <trkpt lat="47.8773" lon="6.92424">
        <ele>886</ele>
        <time>2026-05-09T19:31:34.046Z</time>
      </trkpt>
      <trkpt lat="47.8773" lon="6.92425">
        <ele>886</ele>
        <time>2026-05-09T19:31:35.047Z</time>
      </trkpt>
      <trkpt lat="47.8773" lon="6.92426">
        <ele>886</ele>
        <time>2026-05-09T19:31:36.046Z</time>
      </trkpt>
      <trkpt lat="47.8773" lon="6.92428">
        <ele>886</ele>
        <time>2026-05-09T19:31:37.046Z</time>
      </trkpt>
      <trkpt lat="47.8773" lon="6.92429">
        <ele>886</ele>
        <time>2026-05-09T19:31:38.046Z</time>
      </trkpt>
      <trkpt lat="47.8773" lon="6.92431">
        <ele>886</ele>
        <time>2026-05-09T19:31:39.047Z</time>
      </trkpt>
      <trkpt lat="47.87729" lon="6.92433">
        <ele>886</ele>
        <time>2026-05-09T19:31:40.046Z</time>
      </trkpt>
      <trkpt lat="47.87728" lon="6.92435">
        <ele>886</ele>
        <time>2026-05-09T19:31:41.046Z</time>
      </trkpt>
      <trkpt lat="47.87728" lon="6.92437">
        <ele>886</ele>
        <time>2026-05-09T19:31:42.047Z</time>
      </trkpt>
      <trkpt lat="47.87728" lon="6.92439">
        <ele>886</ele>
        <time>2026-05-09T19:31:43.046Z</time>
      </trkpt>
      <trkpt lat="47.87728" lon="6.92441">
        <ele>886</ele>
        <time>2026-05-09T19:31:44.046Z</time>
      </trkpt>
      <trkpt lat="47.87728" lon="6.92443">
        <ele>886</ele>
        <time>2026-05-09T19:31:45.047Z</time>
      </trkpt>
      <trkpt lat="47.87728" lon="6.92445">
        <ele>886</ele>
        <time>2026-05-09T19:31:46.046Z</time>
      </trkpt>
      <trkpt lat="47.87727" lon="6.92447">
        <ele>886</ele>
        <time>2026-05-09T19:31:47.046Z</time>
      </trkpt>
      <trkpt lat="47.87727" lon="6.92448">
        <ele>886</ele>
        <time>2026-05-09T19:31:48.047Z</time>
      </trkpt>
      <trkpt lat="47.87727" lon="6.9245">
        <ele>886</ele>
        <time>2026-05-09T19:31:49.046Z</time>
      </trkpt>
      <trkpt lat="47.87726" lon="6.92451">
        <ele>886</ele>
        <time>2026-05-09T19:31:50.046Z</time>
      </trkpt>
      <trkpt lat="47.87727" lon="6.92452">
        <ele>886</ele>
        <time>2026-05-09T19:31:51.046Z</time>
      </trkpt>
      <trkpt lat="47.87727" lon="6.92453">
        <ele>886</ele>
        <time>2026-05-09T19:31:52.046Z</time>
      </trkpt>
      <trkpt lat="47.87727" lon="6.92455">
        <ele>886</ele>
        <time>2026-05-09T19:31:53.046Z</time>
      </trkpt>
      <trkpt lat="47.87728" lon="6.92457">
        <ele>886</ele>
        <time>2026-05-09T19:31:54.047Z</time>
      </trkpt>
      <trkpt lat="47.87728" lon="6.92458">
        <ele>886</ele>
        <time>2026-05-09T19:31:55.046Z</time>
      </trkpt>
      <trkpt lat="47.87728" lon="6.9246">
        <ele>886</ele>
        <time>2026-05-09T19:31:56.046Z</time>
      </trkpt>
      <trkpt lat="47.87728" lon="6.92461">
        <ele>886</ele>
        <time>2026-05-09T19:31:57.047Z</time>
      </trkpt>
      <trkpt lat="47.87728" lon="6.92463">
        <ele>887</ele>
        <time>2026-05-09T19:31:58.046Z</time>
      </trkpt>
      <trkpt lat="47.87728" lon="6.92465">
        <ele>887</ele>
        <time>2026-05-09T19:31:59.047Z</time>
      </trkpt>
      <trkpt lat="47.87728" lon="6.92466">
        <ele>887</ele>
        <time>2026-05-09T19:32:00.046Z</time>
      </trkpt>
      <trkpt lat="47.87729" lon="6.92468">
        <ele>888</ele>
        <time>2026-05-09T19:32:01.046Z</time>
      </trkpt>
      <trkpt lat="47.87729" lon="6.9247">
        <ele>888</ele>
        <time>2026-05-09T19:32:02.046Z</time>
      </trkpt>
      <trkpt lat="47.87729" lon="6.92472">
        <ele>889</ele>
        <time>2026-05-09T19:32:03.046Z</time>
      </trkpt>
      <trkpt lat="47.8773" lon="6.92473">
        <ele>889</ele>
        <time>2026-05-09T19:32:04.046Z</time>
      </trkpt>
      <trkpt lat="47.8773" lon="6.92475">
        <ele>890</ele>
        <time>2026-05-09T19:32:05.046Z</time>
      </trkpt>
      <trkpt lat="47.8773" lon="6.92476">
        <ele>890</ele>
        <time>2026-05-09T19:32:06.046Z</time>
      </trkpt>
      <trkpt lat="47.87731" lon="6.92478">
        <ele>891</ele>
        <time>2026-05-09T19:32:07.046Z</time>
      </trkpt>
      <trkpt lat="47.87731" lon="6.9248">
        <ele>891</ele>
        <time>2026-05-09T19:32:08.046Z</time>
      </trkpt>
      <trkpt lat="47.87731" lon="6.92481">
        <ele>892</ele>
        <time>2026-05-09T19:32:09.046Z</time>
      </trkpt>
      <trkpt lat="47.87731" lon="6.92483">
        <ele>893</ele>
        <time>2026-05-09T19:32:10.046Z</time>
      </trkpt>
      <trkpt lat="47.87731" lon="6.92485">
        <ele>893</ele>
        <time>2026-05-09T19:32:11.046Z</time>
      </trkpt>
      <trkpt lat="47.87731" lon="6.92487">
        <ele>894</ele>
        <time>2026-05-09T19:32:12.046Z</time>
      </trkpt>
      <trkpt lat="47.87731" lon="6.92488">
        <ele>895</ele>
        <time>2026-05-09T19:32:13.047Z</time>
      </trkpt>
      <trkpt lat="47.87731" lon="6.9249">
        <ele>895</ele>
        <time>2026-05-09T19:32:14.046Z</time>
      </trkpt>
      <trkpt lat="47.87731" lon="6.92492">
        <ele>895</ele>
        <time>2026-05-09T19:32:15.046Z</time>
      </trkpt>
      <trkpt lat="47.87731" lon="6.92493">
        <ele>896</ele>
        <time>2026-05-09T19:32:16.047Z</time>
      </trkpt>
      <trkpt lat="47.87732" lon="6.92494">
        <ele>896</ele>
        <time>2026-05-09T19:32:17.047Z</time>
      </trkpt>
      <trkpt lat="47.87732" lon="6.92496">
        <ele>896</ele>
        <time>2026-05-09T19:32:18.047Z</time>
      </trkpt>
      <trkpt lat="47.87732" lon="6.92498">
        <ele>896</ele>
        <time>2026-05-09T19:32:19.046Z</time>
      </trkpt>
      <trkpt lat="47.87732" lon="6.92499">
        <ele>897</ele>
        <time>2026-05-09T19:32:20.046Z</time>
      </trkpt>
      <trkpt lat="47.87733" lon="6.92501">
        <ele>897</ele>
        <time>2026-05-09T19:32:21.046Z</time>
      </trkpt>
      <trkpt lat="47.87732" lon="6.92503">
        <ele>897</ele>
        <time>2026-05-09T19:32:22.046Z</time>
      </trkpt>
      <trkpt lat="47.87732" lon="6.92505">
        <ele>897</ele>
        <time>2026-05-09T19:32:23.047Z</time>
      </trkpt>
      <trkpt lat="47.87732" lon="6.92506">
        <ele>897</ele>
        <time>2026-05-09T19:32:24.046Z</time>
      </trkpt>
      <trkpt lat="47.87731" lon="6.92508">
        <ele>897</ele>
        <time>2026-05-09T19:32:25.046Z</time>
      </trkpt>
      <trkpt lat="47.87731" lon="6.9251">
        <ele>897</ele>
        <time>2026-05-09T19:32:26.046Z</time>
      </trkpt>
      <trkpt lat="47.87731" lon="6.92511">
        <ele>897</ele>
        <time>2026-05-09T19:32:27.047Z</time>
      </trkpt>
      <trkpt lat="47.87731" lon="6.92512">
        <ele>897</ele>
        <time>2026-05-09T19:32:28.047Z</time>
      </trkpt>
      <trkpt lat="47.87731" lon="6.92514">
        <ele>897</ele>
        <time>2026-05-09T19:32:29.046Z</time>
      </trkpt>
      <trkpt lat="47.87731" lon="6.92515">
        <ele>897</ele>
        <time>2026-05-09T19:32:30.046Z</time>
      </trkpt>
      <trkpt lat="47.8773" lon="6.92517">
        <ele>897</ele>
        <time>2026-05-09T19:32:31.046Z</time>
      </trkpt>
      <trkpt lat="47.8773" lon="6.92518">
        <ele>897</ele>
        <time>2026-05-09T19:32:32.047Z</time>
      </trkpt>
      <trkpt lat="47.87729" lon="6.9252">
        <ele>897</ele>
        <time>2026-05-09T19:32:33.046Z</time>
      </trkpt>
      <trkpt lat="47.87728" lon="6.92522">
        <ele>897</ele>
        <time>2026-05-09T19:32:34.046Z</time>
      </trkpt>
      <trkpt lat="47.87727" lon="6.92524">
        <ele>897</ele>
        <time>2026-05-09T19:32:35.046Z</time>
      </trkpt>
      <trkpt lat="47.87726" lon="6.92526">
        <ele>897</ele>
        <time>2026-05-09T19:32:36.047Z</time>
      </trkpt>
      <trkpt lat="47.87726" lon="6.92527">
        <ele>897</ele>
        <time>2026-05-09T19:32:37.046Z</time>
      </trkpt>
      <trkpt lat="47.87725" lon="6.92529">
        <ele>897</ele>
        <time>2026-05-09T19:32:38.047Z</time>
      </trkpt>
      <trkpt lat="47.87725" lon="6.9253">
        <ele>897</ele>
        <time>2026-05-09T19:32:39.046Z</time>
      </trkpt>
      <trkpt lat="47.87725" lon="6.92533">
        <ele>897</ele>
        <time>2026-05-09T19:32:40.046Z</time>
      </trkpt>
      <trkpt lat="47.87724" lon="6.92535">
        <ele>897</ele>
        <time>2026-05-09T19:32:41.046Z</time>
      </trkpt>
      <trkpt lat="47.87724" lon="6.92536">
        <ele>897</ele>
        <time>2026-05-09T19:32:42.046Z</time>
      </trkpt>
      <trkpt lat="47.87724" lon="6.92538">
        <ele>898</ele>
        <time>2026-05-09T19:32:43.046Z</time>
      </trkpt>
      <trkpt lat="47.87723" lon="6.92539">
        <ele>898</ele>
        <time>2026-05-09T19:32:44.047Z</time>
      </trkpt>
      <trkpt lat="47.87723" lon="6.9254">
        <ele>898</ele>
        <time>2026-05-09T19:32:45.047Z</time>
      </trkpt>
      <trkpt lat="47.87723" lon="6.92541">
        <ele>897</ele>
        <time>2026-05-09T19:32:46.046Z</time>
      </trkpt>
      <trkpt lat="47.87722" lon="6.92542">
        <ele>897</ele>
        <time>2026-05-09T19:32:47.046Z</time>
      </trkpt>
      <trkpt lat="47.87721" lon="6.92543">
        <ele>897</ele>
        <time>2026-05-09T19:32:48.046Z</time>
      </trkpt>
      <trkpt lat="47.87721" lon="6.92544">
        <ele>896</ele>
        <time>2026-05-09T19:32:49.046Z</time>
      </trkpt>
      <trkpt lat="47.8772" lon="6.92545">
        <ele>896</ele>
        <time>2026-05-09T19:32:50.047Z</time>
      </trkpt>
      <trkpt lat="47.87719" lon="6.92547">
        <ele>896</ele>
        <time>2026-05-09T19:32:51.046Z</time>
      </trkpt>
      <trkpt lat="47.87719" lon="6.92548">
        <ele>896</ele>
        <time>2026-05-09T19:32:52.046Z</time>
      </trkpt>
      <trkpt lat="47.87717" lon="6.92549">
        <ele>896</ele>
        <time>2026-05-09T19:32:53.047Z</time>
      </trkpt>
      <trkpt lat="47.87716" lon="6.9255">
        <ele>896</ele>
        <time>2026-05-09T19:32:54.046Z</time>
      </trkpt>
      <trkpt lat="47.87715" lon="6.92551">
        <ele>896</ele>
        <time>2026-05-09T19:32:55.046Z</time>
      </trkpt>
      <trkpt lat="47.87714" lon="6.92552">
        <ele>895</ele>
        <time>2026-05-09T19:32:56.046Z</time>
      </trkpt>
      <trkpt lat="47.87712" lon="6.92552">
        <ele>895</ele>
        <time>2026-05-09T19:32:57.046Z</time>
      </trkpt>
      <trkpt lat="47.87711" lon="6.92553">
        <ele>895</ele>
        <time>2026-05-09T19:32:58.046Z</time>
      </trkpt>
      <trkpt lat="47.8771" lon="6.92554">
        <ele>895</ele>
        <time>2026-05-09T19:32:59.046Z</time>
      </trkpt>
      <trkpt lat="47.87708" lon="6.92554">
        <ele>895</ele>
        <time>2026-05-09T19:33:00.046Z</time>
      </trkpt>
      <trkpt lat="47.87707" lon="6.92554">
        <ele>895</ele>
        <time>2026-05-09T19:33:01.046Z</time>
      </trkpt>
      <trkpt lat="47.87706" lon="6.92554">
        <ele>895</ele>
        <time>2026-05-09T19:33:02.046Z</time>
      </trkpt>
      <trkpt lat="47.87705" lon="6.92554">
        <ele>896</ele>
        <time>2026-05-09T19:33:03.046Z</time>
      </trkpt>
      <trkpt lat="47.87704" lon="6.92555">
        <ele>896</ele>
        <time>2026-05-09T19:33:04.046Z</time>
      </trkpt>
      <trkpt lat="47.87703" lon="6.92554">
        <ele>896</ele>
        <time>2026-05-09T19:33:05.046Z</time>
      </trkpt>
      <trkpt lat="47.87701" lon="6.92554">
        <ele>896</ele>
        <time>2026-05-09T19:33:06.046Z</time>
      </trkpt>
      <trkpt lat="47.877" lon="6.92553">
        <ele>896</ele>
        <time>2026-05-09T19:33:07.046Z</time>
      </trkpt>
      <trkpt lat="47.87698" lon="6.92552">
        <ele>896</ele>
        <time>2026-05-09T19:33:08.047Z</time>
      </trkpt>
      <trkpt lat="47.87697" lon="6.92551">
        <ele>895</ele>
        <time>2026-05-09T19:33:09.046Z</time>
      </trkpt>
      <trkpt lat="47.87696" lon="6.9255">
        <ele>895</ele>
        <time>2026-05-09T19:33:10.046Z</time>
      </trkpt>
      <trkpt lat="47.87695" lon="6.9255">
        <ele>895</ele>
        <time>2026-05-09T19:33:11.046Z</time>
      </trkpt>
      <trkpt lat="47.87694" lon="6.92549">
        <ele>896</ele>
        <time>2026-05-09T19:33:12.046Z</time>
      </trkpt>
      <trkpt lat="47.87693" lon="6.92547">
        <ele>896</ele>
        <time>2026-05-09T19:33:13.046Z</time>
      </trkpt>
      <trkpt lat="47.87693" lon="6.92545">
        <ele>897</ele>
        <time>2026-05-09T19:33:14.046Z</time>
      </trkpt>
      <trkpt lat="47.87692" lon="6.92543">
        <ele>897</ele>
        <time>2026-05-09T19:33:15.047Z</time>
      </trkpt>
      <trkpt lat="47.87691" lon="6.92542">
        <ele>897</ele>
        <time>2026-05-09T19:33:16.046Z</time>
      </trkpt>
      <trkpt lat="47.8769" lon="6.9254">
        <ele>898</ele>
        <time>2026-05-09T19:33:17.047Z</time>
      </trkpt>
      <trkpt lat="47.8769" lon="6.92539">
        <ele>898</ele>
        <time>2026-05-09T19:33:18.047Z</time>
      </trkpt>
      <trkpt lat="47.87689" lon="6.92538">
        <ele>899</ele>
        <time>2026-05-09T19:33:19.046Z</time>
      </trkpt>
      <trkpt lat="47.87688" lon="6.92537">
        <ele>900</ele>
        <time>2026-05-09T19:33:20.047Z</time>
      </trkpt>
      <trkpt lat="47.87687" lon="6.92536">
        <ele>901</ele>
        <time>2026-05-09T19:33:21.047Z</time>
      </trkpt>
      <trkpt lat="47.87686" lon="6.92535">
        <ele>902</ele>
        <time>2026-05-09T19:33:22.047Z</time>
      </trkpt>
      <trkpt lat="47.87686" lon="6.92533">
        <ele>903</ele>
        <time>2026-05-09T19:33:23.046Z</time>
      </trkpt>
      <trkpt lat="47.87685" lon="6.92532">
        <ele>904</ele>
        <time>2026-05-09T19:33:24.046Z</time>
      </trkpt>
      <trkpt lat="47.87685" lon="6.92531">
        <ele>904</ele>
        <time>2026-05-09T19:33:25.046Z</time>
      </trkpt>
      <trkpt lat="47.87684" lon="6.92531">
        <ele>905</ele>
        <time>2026-05-09T19:33:26.046Z</time>
      </trkpt>
      <trkpt lat="47.87683" lon="6.9253">
        <ele>906</ele>
        <time>2026-05-09T19:33:27.047Z</time>
      </trkpt>
      <trkpt lat="47.87683" lon="6.92529">
        <ele>907</ele>
        <time>2026-05-09T19:33:28.047Z</time>
      </trkpt>
      <trkpt lat="47.87682" lon="6.92528">
        <ele>907</ele>
        <time>2026-05-09T19:33:29.046Z</time>
      </trkpt>
      <trkpt lat="47.87681" lon="6.92527">
        <ele>907</ele>
        <time>2026-05-09T19:33:30.047Z</time>
      </trkpt>
      <trkpt lat="47.8768" lon="6.92526">
        <ele>908</ele>
        <time>2026-05-09T19:33:31.046Z</time>
      </trkpt>
      <trkpt lat="47.87679" lon="6.92526">
        <ele>908</ele>
        <time>2026-05-09T19:33:32.046Z</time>
      </trkpt>
      <trkpt lat="47.87678" lon="6.92525">
        <ele>908</ele>
        <time>2026-05-09T19:33:33.046Z</time>
      </trkpt>
      <trkpt lat="47.87678" lon="6.92524">
        <ele>908</ele>
        <time>2026-05-09T19:33:34.047Z</time>
      </trkpt>
      <trkpt lat="47.87677" lon="6.92524">
        <ele>908</ele>
        <time>2026-05-09T19:33:35.046Z</time>
      </trkpt>
      <trkpt lat="47.87676" lon="6.92524">
        <ele>908</ele>
        <time>2026-05-09T19:33:36.046Z</time>
      </trkpt>
      <trkpt lat="47.87676" lon="6.92522">
        <ele>909</ele>
        <time>2026-05-09T19:33:37.046Z</time>
      </trkpt>
      <trkpt lat="47.87675" lon="6.92521">
        <ele>909</ele>
        <time>2026-05-09T19:33:38.046Z</time>
      </trkpt>
      <trkpt lat="47.87675" lon="6.9252">
        <ele>909</ele>
        <time>2026-05-09T19:33:39.046Z</time>
      </trkpt>
      <trkpt lat="47.87674" lon="6.92519">
        <ele>909</ele>
        <time>2026-05-09T19:33:40.046Z</time>
      </trkpt>
      <trkpt lat="47.87673" lon="6.92518">
        <ele>909</ele>
        <time>2026-05-09T19:33:41.046Z</time>
      </trkpt>
      <trkpt lat="47.87672" lon="6.92517">
        <ele>909</ele>
        <time>2026-05-09T19:33:42.046Z</time>
      </trkpt>
      <trkpt lat="47.87672" lon="6.92516">
        <ele>909</ele>
        <time>2026-05-09T19:33:43.047Z</time>
      </trkpt>
      <trkpt lat="47.87671" lon="6.92515">
        <ele>909</ele>
        <time>2026-05-09T19:33:44.046Z</time>
      </trkpt>
      <trkpt lat="47.8767" lon="6.92514">
        <ele>909</ele>
        <time>2026-05-09T19:33:45.046Z</time>
      </trkpt>
      <trkpt lat="47.8767" lon="6.92513">
        <ele>908</ele>
        <time>2026-05-09T19:33:46.046Z</time>
      </trkpt>
      <trkpt lat="47.87669" lon="6.92512">
        <ele>908</ele>
        <time>2026-05-09T19:33:47.046Z</time>
      </trkpt>
      <trkpt lat="47.87668" lon="6.92512">
        <ele>907</ele>
        <time>2026-05-09T19:33:48.046Z</time>
      </trkpt>
      <trkpt lat="47.87667" lon="6.92511">
        <ele>906</ele>
        <time>2026-05-09T19:33:49.046Z</time>
      </trkpt>
      <trkpt lat="47.87666" lon="6.9251">
        <ele>906</ele>
        <time>2026-05-09T19:33:50.047Z</time>
      </trkpt>
      <trkpt lat="47.87666" lon="6.92509">
        <ele>906</ele>
        <time>2026-05-09T19:33:51.047Z</time>
      </trkpt>
      <trkpt lat="47.87665" lon="6.92508">
        <ele>905</ele>
        <time>2026-05-09T19:33:52.046Z</time>
      </trkpt>
      <trkpt lat="47.87664" lon="6.92508">
        <ele>905</ele>
        <time>2026-05-09T19:33:53.046Z</time>
      </trkpt>
      <trkpt lat="47.87663" lon="6.92507">
        <ele>905</ele>
        <time>2026-05-09T19:33:54.046Z</time>
      </trkpt>
      <trkpt lat="47.87662" lon="6.92506">
        <ele>905</ele>
        <time>2026-05-09T19:33:55.047Z</time>
      </trkpt>
      <trkpt lat="47.8766" lon="6.92506">
        <ele>905</ele>
        <time>2026-05-09T19:33:56.046Z</time>
      </trkpt>
      <trkpt lat="47.87659" lon="6.92504">
        <ele>906</ele>
        <time>2026-05-09T19:33:57.046Z</time>
      </trkpt>
      <trkpt lat="47.87658" lon="6.92503">
        <ele>906</ele>
        <time>2026-05-09T19:33:58.047Z</time>
      </trkpt>
      <trkpt lat="47.87658" lon="6.92502">
        <ele>906</ele>
        <time>2026-05-09T19:33:59.047Z</time>
      </trkpt>
      <trkpt lat="47.87657" lon="6.925">
        <ele>907</ele>
        <time>2026-05-09T19:34:00.047Z</time>
      </trkpt>
      <trkpt lat="47.87656" lon="6.92499">
        <ele>907</ele>
        <time>2026-05-09T19:34:01.046Z</time>
      </trkpt>
      <trkpt lat="47.87655" lon="6.92498">
        <ele>907</ele>
        <time>2026-05-09T19:34:02.046Z</time>
      </trkpt>
      <trkpt lat="47.87654" lon="6.92497">
        <ele>907</ele>
        <time>2026-05-09T19:34:03.047Z</time>
      </trkpt>
      <trkpt lat="47.87653" lon="6.92497">
        <ele>907</ele>
        <time>2026-05-09T19:34:04.046Z</time>
      </trkpt>
      <trkpt lat="47.87651" lon="6.92498">
        <ele>908</ele>
        <time>2026-05-09T19:34:05.047Z</time>
      </trkpt>
      <trkpt lat="47.8765" lon="6.92498">
        <ele>908</ele>
        <time>2026-05-09T19:34:06.046Z</time>
      </trkpt>
      <trkpt lat="47.87649" lon="6.92497">
        <ele>908</ele>
        <time>2026-05-09T19:34:07.046Z</time>
      </trkpt>
      <trkpt lat="47.87648" lon="6.92495">
        <ele>908</ele>
        <time>2026-05-09T19:34:08.046Z</time>
      </trkpt>
      <trkpt lat="47.87647" lon="6.92494">
        <ele>909</ele>
        <time>2026-05-09T19:34:09.046Z</time>
      </trkpt>
      <trkpt lat="47.87646" lon="6.92493">
        <ele>909</ele>
        <time>2026-05-09T19:34:10.047Z</time>
      </trkpt>
      <trkpt lat="47.87645" lon="6.92492">
        <ele>909</ele>
        <time>2026-05-09T19:34:11.047Z</time>
      </trkpt>
      <trkpt lat="47.87644" lon="6.92492">
        <ele>909</ele>
        <time>2026-05-09T19:34:12.046Z</time>
      </trkpt>
      <trkpt lat="47.87643" lon="6.92491">
        <ele>909</ele>
        <time>2026-05-09T19:34:13.046Z</time>
      </trkpt>
      <trkpt lat="47.87642" lon="6.92491">
        <ele>909</ele>
        <time>2026-05-09T19:34:14.046Z</time>
      </trkpt>
      <trkpt lat="47.87642" lon="6.92489">
        <ele>909</ele>
        <time>2026-05-09T19:34:15.047Z</time>
      </trkpt>
      <trkpt lat="47.87641" lon="6.92488">
        <ele>909</ele>
        <time>2026-05-09T19:34:16.046Z</time>
      </trkpt>
      <trkpt lat="47.8764" lon="6.92487">
        <ele>909</ele>
        <time>2026-05-09T19:34:17.046Z</time>
      </trkpt>
      <trkpt lat="47.87639" lon="6.92487">
        <ele>909</ele>
        <time>2026-05-09T19:34:18.047Z</time>
      </trkpt>
      <trkpt lat="47.87639" lon="6.92485">
        <ele>909</ele>
        <time>2026-05-09T19:34:19.047Z</time>
      </trkpt>
      <trkpt lat="47.87638" lon="6.92484">
        <ele>909</ele>
        <time>2026-05-09T19:34:20.047Z</time>
      </trkpt>
      <trkpt lat="47.87637" lon="6.92484">
        <ele>909</ele>
        <time>2026-05-09T19:34:21.046Z</time>
      </trkpt>
      <trkpt lat="47.87636" lon="6.92483">
        <ele>909</ele>
        <time>2026-05-09T19:34:22.046Z</time>
      </trkpt>
      <trkpt lat="47.87636" lon="6.92483">
        <ele>909</ele>
        <time>2026-05-09T19:34:23.046Z</time>
      </trkpt>
      <trkpt lat="47.87634" lon="6.92483">
        <ele>910</ele>
        <time>2026-05-09T19:34:24.046Z</time>
      </trkpt>
      <trkpt lat="47.87633" lon="6.92482">
        <ele>910</ele>
        <time>2026-05-09T19:34:25.047Z</time>
      </trkpt>
      <trkpt lat="47.87633" lon="6.92481">
        <ele>910</ele>
        <time>2026-05-09T19:34:26.046Z</time>
      </trkpt>
      <trkpt lat="47.87632" lon="6.9248">
        <ele>910</ele>
        <time>2026-05-09T19:34:27.046Z</time>
      </trkpt>
      <trkpt lat="47.87631" lon="6.9248">
        <ele>910</ele>
        <time>2026-05-09T19:34:28.047Z</time>
      </trkpt>
      <trkpt lat="47.87631" lon="6.92479">
        <ele>910</ele>
        <time>2026-05-09T19:34:29.047Z</time>
      </trkpt>
      <trkpt lat="47.8763" lon="6.92478">
        <ele>909</ele>
        <time>2026-05-09T19:34:30.046Z</time>
      </trkpt>
      <trkpt lat="47.87629" lon="6.92476">
        <ele>909</ele>
        <time>2026-05-09T19:34:31.046Z</time>
      </trkpt>
      <trkpt lat="47.87628" lon="6.92476">
        <ele>909</ele>
        <time>2026-05-09T19:34:32.046Z</time>
      </trkpt>
      <trkpt lat="47.87627" lon="6.92475">
        <ele>909</ele>
        <time>2026-05-09T19:34:33.046Z</time>
      </trkpt>
      <trkpt lat="47.87627" lon="6.92475">
        <ele>909</ele>
        <time>2026-05-09T19:34:34.046Z</time>
      </trkpt>
      <trkpt lat="47.87626" lon="6.92475">
        <ele>909</ele>
        <time>2026-05-09T19:34:35.047Z</time>
      </trkpt>
      <trkpt lat="47.87626" lon="6.92475">
        <ele>909</ele>
        <time>2026-05-09T19:34:36.046Z</time>
      </trkpt>
      <trkpt lat="47.87626" lon="6.92475">
        <ele>909</ele>
        <time>2026-05-09T19:34:37.046Z</time>
      </trkpt>
      <trkpt lat="47.87626" lon="6.92474">
        <ele>909</ele>
        <time>2026-05-09T19:34:38.047Z</time>
      </trkpt>
      <trkpt lat="47.87629" lon="6.92469">
        <ele>908</ele>
        <time>2026-05-09T19:34:45.345Z</time>
      </trkpt>
      <trkpt lat="47.87629" lon="6.92469">
        <ele>908</ele>
        <time>2026-05-09T19:34:46.346Z</time>
      </trkpt>
      <trkpt lat="47.87629" lon="6.92469">
        <ele>908</ele>
        <time>2026-05-09T19:34:47.346Z</time>
      </trkpt>
      <trkpt lat="47.87629" lon="6.92468">
        <ele>909</ele>
        <time>2026-05-09T19:34:48.346Z</time>
      </trkpt>
      <trkpt lat="47.87629" lon="6.92468">
        <ele>909</ele>
        <time>2026-05-09T19:34:49.346Z</time>
      </trkpt>
      <trkpt lat="47.8763" lon="6.92467">
        <ele>910</ele>
        <time>2026-05-09T19:34:50.346Z</time>
      </trkpt>
      <trkpt lat="47.8763" lon="6.92467">
        <ele>911</ele>
        <time>2026-05-09T19:34:51.346Z</time>
      </trkpt>
      <trkpt lat="47.87629" lon="6.92466">
        <ele>912</ele>
        <time>2026-05-09T19:34:52.346Z</time>
      </trkpt>
      <trkpt lat="47.87629" lon="6.92466">
        <ele>912</ele>
        <time>2026-05-09T19:34:53.345Z</time>
      </trkpt>
      <trkpt lat="47.87629" lon="6.92466">
        <ele>913</ele>
        <time>2026-05-09T19:34:54.346Z</time>
      </trkpt>
      <trkpt lat="47.87629" lon="6.92466">
        <ele>914</ele>
        <time>2026-05-09T19:34:55.346Z</time>
      </trkpt>
      <trkpt lat="47.87629" lon="6.92462">
        <ele>916</ele>
        <time>2026-05-09T19:35:09.448Z</time>
      </trkpt>
      <trkpt lat="47.87628" lon="6.92461">
        <ele>912</ele>
        <time>2026-05-09T19:35:27.729Z</time>
      </trkpt>
      <trkpt lat="47.87628" lon="6.92461">
        <ele>912</ele>
        <time>2026-05-09T19:35:28.728Z</time>
      </trkpt>
      <trkpt lat="47.87628" lon="6.92461">
        <ele>912</ele>
        <time>2026-05-09T19:35:29.728Z</time>
      </trkpt>
      <trkpt lat="47.87628" lon="6.92461">
        <ele>912</ele>
        <time>2026-05-09T19:35:30.729Z</time>
      </trkpt>
      <trkpt lat="47.87628" lon="6.92461">
        <ele>911</ele>
        <time>2026-05-09T19:35:31.728Z</time>
      </trkpt>
      <trkpt lat="47.87629" lon="6.92461">
        <ele>910</ele>
        <time>2026-05-09T19:35:32.728Z</time>
      </trkpt>
      <trkpt lat="47.87629" lon="6.92461">
        <ele>909</ele>
        <time>2026-05-09T19:35:33.728Z</time>
      </trkpt>
      <trkpt lat="47.87629" lon="6.9246">
        <ele>908</ele>
        <time>2026-05-09T19:35:34.728Z</time>
      </trkpt>
      <trkpt lat="47.87629" lon="6.9246">
        <ele>908</ele>
        <time>2026-05-09T19:35:35.729Z</time>
      </trkpt>
      <trkpt lat="47.87629" lon="6.92459">
        <ele>907</ele>
        <time>2026-05-09T19:35:36.728Z</time>
      </trkpt>
      <trkpt lat="47.87629" lon="6.92459">
        <ele>907</ele>
        <time>2026-05-09T19:35:37.728Z</time>
      </trkpt>
      <trkpt lat="47.87629" lon="6.92459">
        <ele>907</ele>
        <time>2026-05-09T19:35:38.728Z</time>
      </trkpt>
      <trkpt lat="47.87629" lon="6.9246">
        <ele>907</ele>
        <time>2026-05-09T19:35:39.729Z</time>
      </trkpt>
      <trkpt lat="47.87628" lon="6.9246">
        <ele>906</ele>
        <time>2026-05-09T19:35:40.728Z</time>
      </trkpt>
      <trkpt lat="47.87628" lon="6.92461">
        <ele>906</ele>
        <time>2026-05-09T19:35:41.728Z</time>
      </trkpt>
      <trkpt lat="47.87627" lon="6.92461">
        <ele>906</ele>
        <time>2026-05-09T19:35:42.729Z</time>
      </trkpt>
      <trkpt lat="47.87627" lon="6.92462">
        <ele>906</ele>
        <time>2026-05-09T19:35:43.728Z</time>
      </trkpt>
      <trkpt lat="47.87627" lon="6.92462">
        <ele>906</ele>
        <time>2026-05-09T19:35:44.729Z</time>
      </trkpt>
      <trkpt lat="47.87627" lon="6.92462">
        <ele>906</ele>
        <time>2026-05-09T19:35:45.728Z</time>
      </trkpt>
      <trkpt lat="47.87627" lon="6.92462">
        <ele>905</ele>
        <time>2026-05-09T19:35:46.729Z</time>
      </trkpt>
      <trkpt lat="47.87627" lon="6.92462">
        <ele>905</ele>
        <time>2026-05-09T19:35:47.728Z</time>
      </trkpt>
      <trkpt lat="47.87627" lon="6.92462">
        <ele>905</ele>
        <time>2026-05-09T19:35:48.729Z</time>
      </trkpt>
      <trkpt lat="47.87627" lon="6.92462">
        <ele>905</ele>
        <time>2026-05-09T19:35:49.729Z</time>
      </trkpt>
      <trkpt lat="47.87627" lon="6.92462">
        <ele>905</ele>
        <time>2026-05-09T19:35:50.728Z</time>
      </trkpt>
      <trkpt lat="47.87626" lon="6.92464">
        <ele>905</ele>
        <time>2026-05-09T19:35:51.729Z</time>
      </trkpt>
      <trkpt lat="47.87626" lon="6.92464">
        <ele>905</ele>
        <time>2026-05-09T19:35:52.728Z</time>
      </trkpt>
      <trkpt lat="47.87626" lon="6.92464">
        <ele>905</ele>
        <time>2026-05-09T19:35:53.728Z</time>
      </trkpt>
      <trkpt lat="47.87626" lon="6.92464">
        <ele>905</ele>
        <time>2026-05-09T19:35:54.728Z</time>
      </trkpt>
      <trkpt lat="47.87626" lon="6.92464">
        <ele>905</ele>
        <time>2026-05-09T19:35:55.729Z</time>
      </trkpt>
      <trkpt lat="47.87626" lon="6.92463">
        <ele>905</ele>
        <time>2026-05-09T19:35:56.728Z</time>
      </trkpt>
      <trkpt lat="47.87626" lon="6.92463">
        <ele>905</ele>
        <time>2026-05-09T19:35:57.729Z</time>
      </trkpt>
      <trkpt lat="47.87626" lon="6.92463">
        <ele>905</ele>
        <time>2026-05-09T19:35:58.728Z</time>
      </trkpt>
      <trkpt lat="47.87626" lon="6.92463">
        <ele>905</ele>
        <time>2026-05-09T19:35:59.729Z</time>
      </trkpt>
      <trkpt lat="47.87624" lon="6.92462">
        <ele>902</ele>
        <time>2026-05-09T19:36:49.202Z</time>
      </trkpt>
      <trkpt lat="47.87624" lon="6.92463">
        <ele>900</ele>
        <time>2026-05-09T19:36:56.216Z</time>
      </trkpt>
      <trkpt lat="47.87623" lon="6.92463">
        <ele>900</ele>
        <time>2026-05-09T19:36:57.217Z</time>
      </trkpt>
      <trkpt lat="47.87624" lon="6.92463">
        <ele>900</ele>
        <time>2026-05-09T19:36:58.216Z</time>
      </trkpt>
      <trkpt lat="47.87623" lon="6.92463">
        <ele>901</ele>
        <time>2026-05-09T19:36:59.216Z</time>
      </trkpt>
      <trkpt lat="47.87623" lon="6.92463">
        <ele>901</ele>
        <time>2026-05-09T19:37:00.217Z</time>
      </trkpt>
      <trkpt lat="47.87623" lon="6.92463">
        <ele>901</ele>
        <time>2026-05-09T19:37:01.216Z</time>
      </trkpt>
      <trkpt lat="47.87623" lon="6.92463">
        <ele>901</ele>
        <time>2026-05-09T19:37:02.216Z</time>
      </trkpt>
      <trkpt lat="47.87623" lon="6.92463">
        <ele>901</ele>
        <time>2026-05-09T19:37:03.217Z</time>
      </trkpt>
      <trkpt lat="47.87623" lon="6.92464">
        <ele>902</ele>
        <time>2026-05-09T19:37:04.216Z</time>
      </trkpt>
      <trkpt lat="47.87623" lon="6.92464">
        <ele>902</ele>
        <time>2026-05-09T19:37:05.216Z</time>
      </trkpt>
      <trkpt lat="47.87623" lon="6.92464">
        <ele>902</ele>
        <time>2026-05-09T19:37:06.217Z</time>
      </trkpt>
      <trkpt lat="47.87623" lon="6.92464">
        <ele>903</ele>
        <time>2026-05-09T19:37:07.217Z</time>
      </trkpt>
      <trkpt lat="47.87622" lon="6.92464">
        <ele>903</ele>
        <time>2026-05-09T19:37:08.216Z</time>
      </trkpt>
      <trkpt lat="47.87621" lon="6.92465">
        <ele>903</ele>
        <time>2026-05-09T19:37:09.216Z</time>
      </trkpt>
      <trkpt lat="47.87621" lon="6.92465">
        <ele>904</ele>
        <time>2026-05-09T19:37:10.217Z</time>
      </trkpt>
      <trkpt lat="47.87621" lon="6.92464">
        <ele>904</ele>
        <time>2026-05-09T19:37:11.216Z</time>
      </trkpt>
      <trkpt lat="47.8762" lon="6.92464">
        <ele>905</ele>
        <time>2026-05-09T19:37:12.216Z</time>
      </trkpt>
      <trkpt lat="47.87619" lon="6.92464">
        <ele>906</ele>
        <time>2026-05-09T19:37:13.217Z</time>
      </trkpt>
      <trkpt lat="47.87617" lon="6.92464">
        <ele>906</ele>
        <time>2026-05-09T19:37:14.216Z</time>
      </trkpt>
      <trkpt lat="47.87616" lon="6.92464">
        <ele>907</ele>
        <time>2026-05-09T19:37:15.217Z</time>
      </trkpt>
      <trkpt lat="47.87615" lon="6.92463">
        <ele>908</ele>
        <time>2026-05-09T19:37:16.217Z</time>
      </trkpt>
      <trkpt lat="47.87614" lon="6.92462">
        <ele>908</ele>
        <time>2026-05-09T19:37:17.216Z</time>
      </trkpt>
      <trkpt lat="47.87613" lon="6.92462">
        <ele>908</ele>
        <time>2026-05-09T19:37:18.217Z</time>
      </trkpt>
      <trkpt lat="47.87613" lon="6.92461">
        <ele>909</ele>
        <time>2026-05-09T19:37:19.216Z</time>
      </trkpt>
      <trkpt lat="47.87612" lon="6.92461">
        <ele>909</ele>
        <time>2026-05-09T19:37:20.216Z</time>
      </trkpt>
      <trkpt lat="47.87611" lon="6.92461">
        <ele>909</ele>
        <time>2026-05-09T19:37:21.216Z</time>
      </trkpt>
      <trkpt lat="47.8761" lon="6.92461">
        <ele>909</ele>
        <time>2026-05-09T19:37:22.216Z</time>
      </trkpt>
      <trkpt lat="47.8761" lon="6.9246">
        <ele>909</ele>
        <time>2026-05-09T19:37:23.217Z</time>
      </trkpt>
      <trkpt lat="47.87609" lon="6.9246">
        <ele>909</ele>
        <time>2026-05-09T19:37:24.216Z</time>
      </trkpt>
      <trkpt lat="47.87608" lon="6.92458">
        <ele>910</ele>
        <time>2026-05-09T19:37:25.216Z</time>
      </trkpt>
      <trkpt lat="47.87607" lon="6.92457">
        <ele>910</ele>
        <time>2026-05-09T19:37:26.216Z</time>
      </trkpt>
      <trkpt lat="47.87607" lon="6.92457">
        <ele>910</ele>
        <time>2026-05-09T19:37:27.217Z</time>
      </trkpt>
      <trkpt lat="47.87607" lon="6.92455">
        <ele>910</ele>
        <time>2026-05-09T19:37:28.216Z</time>
      </trkpt>
      <trkpt lat="47.87606" lon="6.92454">
        <ele>911</ele>
        <time>2026-05-09T19:37:29.216Z</time>
      </trkpt>
      <trkpt lat="47.87605" lon="6.92452">
        <ele>911</ele>
        <time>2026-05-09T19:37:30.216Z</time>
      </trkpt>
      <trkpt lat="47.87604" lon="6.92451">
        <ele>912</ele>
        <time>2026-05-09T19:37:31.217Z</time>
      </trkpt>
      <trkpt lat="47.87603" lon="6.92451">
        <ele>912</ele>
        <time>2026-05-09T19:37:32.217Z</time>
      </trkpt>
      <trkpt lat="47.87602" lon="6.9245">
        <ele>913</ele>
        <time>2026-05-09T19:37:33.216Z</time>
      </trkpt>
      <trkpt lat="47.87601" lon="6.9245">
        <ele>913</ele>
        <time>2026-05-09T19:37:34.217Z</time>
      </trkpt>
      <trkpt lat="47.876" lon="6.9245">
        <ele>913</ele>
        <time>2026-05-09T19:37:35.216Z</time>
      </trkpt>
      <trkpt lat="47.87599" lon="6.9245">
        <ele>914</ele>
        <time>2026-05-09T19:37:36.216Z</time>
      </trkpt>
      <trkpt lat="47.87598" lon="6.9245">
        <ele>914</ele>
        <time>2026-05-09T19:37:37.216Z</time>
      </trkpt>
      <trkpt lat="47.87597" lon="6.9245">
        <ele>914</ele>
        <time>2026-05-09T19:37:38.216Z</time>
      </trkpt>
      <trkpt lat="47.87596" lon="6.9245">
        <ele>913</ele>
        <time>2026-05-09T19:37:39.217Z</time>
      </trkpt>
      <trkpt lat="47.87595" lon="6.92449">
        <ele>913</ele>
        <time>2026-05-09T19:37:40.216Z</time>
      </trkpt>
      <trkpt lat="47.87594" lon="6.92449">
        <ele>913</ele>
        <time>2026-05-09T19:37:41.216Z</time>
      </trkpt>
      <trkpt lat="47.87593" lon="6.92449">
        <ele>912</ele>
        <time>2026-05-09T19:37:42.217Z</time>
      </trkpt>
      <trkpt lat="47.87592" lon="6.92448">
        <ele>912</ele>
        <time>2026-05-09T19:37:43.216Z</time>
      </trkpt>
      <trkpt lat="47.87593" lon="6.92446">
        <ele>911</ele>
        <time>2026-05-09T19:37:44.217Z</time>
      </trkpt>
      <trkpt lat="47.87593" lon="6.92445">
        <ele>911</ele>
        <time>2026-05-09T19:37:45.216Z</time>
      </trkpt>
      <trkpt lat="47.87592" lon="6.92444">
        <ele>910</ele>
        <time>2026-05-09T19:37:46.216Z</time>
      </trkpt>
      <trkpt lat="47.87592" lon="6.92443">
        <ele>910</ele>
        <time>2026-05-09T19:37:47.217Z</time>
      </trkpt>
      <trkpt lat="47.87592" lon="6.92443">
        <ele>910</ele>
        <time>2026-05-09T19:37:48.216Z</time>
      </trkpt>
      <trkpt lat="47.87591" lon="6.92442">
        <ele>911</ele>
        <time>2026-05-09T19:37:54.597Z</time>
      </trkpt>
      <trkpt lat="47.87591" lon="6.92443">
        <ele>911</ele>
        <time>2026-05-09T19:37:55.597Z</time>
      </trkpt>
      <trkpt lat="47.87591" lon="6.92436">
        <ele>910</ele>
        <time>2026-05-09T19:38:15.845Z</time>
      </trkpt>
      <trkpt lat="47.87591" lon="6.92435">
        <ele>898</ele>
        <time>2026-05-09T19:38:29.178Z</time>
      </trkpt>
      <trkpt lat="47.87591" lon="6.92435">
        <ele>898</ele>
        <time>2026-05-09T19:38:30.178Z</time>
      </trkpt>
      <trkpt lat="47.87591" lon="6.92435">
        <ele>898</ele>
        <time>2026-05-09T19:38:31.179Z</time>
      </trkpt>
      <trkpt lat="47.8759" lon="6.92435">
        <ele>898</ele>
        <time>2026-05-09T19:38:32.178Z</time>
      </trkpt>
      <trkpt lat="47.87589" lon="6.92435">
        <ele>898</ele>
        <time>2026-05-09T19:38:33.179Z</time>
      </trkpt>
      <trkpt lat="47.87588" lon="6.92435">
        <ele>898</ele>
        <time>2026-05-09T19:38:34.178Z</time>
      </trkpt>
      <trkpt lat="47.87587" lon="6.92434">
        <ele>899</ele>
        <time>2026-05-09T19:38:35.178Z</time>
      </trkpt>
      <trkpt lat="47.87586" lon="6.92435">
        <ele>899</ele>
        <time>2026-05-09T19:38:36.179Z</time>
      </trkpt>
      <trkpt lat="47.87585" lon="6.92435">
        <ele>900</ele>
        <time>2026-05-09T19:38:37.178Z</time>
      </trkpt>
      <trkpt lat="47.87584" lon="6.92435">
        <ele>901</ele>
        <time>2026-05-09T19:38:38.178Z</time>
      </trkpt>
      <trkpt lat="47.87583" lon="6.92436">
        <ele>902</ele>
        <time>2026-05-09T19:38:39.178Z</time>
      </trkpt>
      <trkpt lat="47.87582" lon="6.92436">
        <ele>903</ele>
        <time>2026-05-09T19:38:40.178Z</time>
      </trkpt>
      <trkpt lat="47.8758" lon="6.92436">
        <ele>903</ele>
        <time>2026-05-09T19:38:41.178Z</time>
      </trkpt>
      <trkpt lat="47.87578" lon="6.92436">
        <ele>904</ele>
        <time>2026-05-09T19:38:42.178Z</time>
      </trkpt>
      <trkpt lat="47.87577" lon="6.92436">
        <ele>905</ele>
        <time>2026-05-09T19:38:43.179Z</time>
      </trkpt>
      <trkpt lat="47.87576" lon="6.92436">
        <ele>905</ele>
        <time>2026-05-09T19:38:44.178Z</time>
      </trkpt>
      <trkpt lat="47.87574" lon="6.92436">
        <ele>906</ele>
        <time>2026-05-09T19:38:45.178Z</time>
      </trkpt>
      <trkpt lat="47.87573" lon="6.92436">
        <ele>906</ele>
        <time>2026-05-09T19:38:46.178Z</time>
      </trkpt>
      <trkpt lat="47.87572" lon="6.92435">
        <ele>907</ele>
        <time>2026-05-09T19:38:47.179Z</time>
      </trkpt>
      <trkpt lat="47.87572" lon="6.92434">
        <ele>908</ele>
        <time>2026-05-09T19:38:48.178Z</time>
      </trkpt>
      <trkpt lat="47.87571" lon="6.92434">
        <ele>908</ele>
        <time>2026-05-09T19:38:49.178Z</time>
      </trkpt>
      <trkpt lat="47.8757" lon="6.92433">
        <ele>909</ele>
        <time>2026-05-09T19:38:50.178Z</time>
      </trkpt>
      <trkpt lat="47.8757" lon="6.92432">
        <ele>909</ele>
        <time>2026-05-09T19:38:51.178Z</time>
      </trkpt>
      <trkpt lat="47.87569" lon="6.92431">
        <ele>910</ele>
        <time>2026-05-09T19:38:52.179Z</time>
      </trkpt>
      <trkpt lat="47.87568" lon="6.92431">
        <ele>911</ele>
        <time>2026-05-09T19:38:53.179Z</time>
      </trkpt>
      <trkpt lat="47.87567" lon="6.92431">
        <ele>911</ele>
        <time>2026-05-09T19:38:54.179Z</time>
      </trkpt>
      <trkpt lat="47.87566" lon="6.92431">
        <ele>912</ele>
        <time>2026-05-09T19:38:55.178Z</time>
      </trkpt>
      <trkpt lat="47.87565" lon="6.92432">
        <ele>913</ele>
        <time>2026-05-09T19:38:56.178Z</time>
      </trkpt>
      <trkpt lat="47.87563" lon="6.92432">
        <ele>913</ele>
        <time>2026-05-09T19:38:57.178Z</time>
      </trkpt>
      <trkpt lat="47.87562" lon="6.92431">
        <ele>914</ele>
        <time>2026-05-09T19:38:58.178Z</time>
      </trkpt>
      <trkpt lat="47.87562" lon="6.92431">
        <ele>914</ele>
        <time>2026-05-09T19:38:59.179Z</time>
      </trkpt>
      <trkpt lat="47.87561" lon="6.9243">
        <ele>915</ele>
        <time>2026-05-09T19:39:00.178Z</time>
      </trkpt>
      <trkpt lat="47.87559" lon="6.9243">
        <ele>915</ele>
        <time>2026-05-09T19:39:01.178Z</time>
      </trkpt>
      <trkpt lat="47.87558" lon="6.92431">
        <ele>916</ele>
        <time>2026-05-09T19:39:02.178Z</time>
      </trkpt>
      <trkpt lat="47.87557" lon="6.9243">
        <ele>916</ele>
        <time>2026-05-09T19:39:03.178Z</time>
      </trkpt>
      <trkpt lat="47.87556" lon="6.92429">
        <ele>916</ele>
        <time>2026-05-09T19:39:04.179Z</time>
      </trkpt>
      <trkpt lat="47.87555" lon="6.92429">
        <ele>916</ele>
        <time>2026-05-09T19:39:05.178Z</time>
      </trkpt>
      <trkpt lat="47.87554" lon="6.92428">
        <ele>916</ele>
        <time>2026-05-09T19:39:06.179Z</time>
      </trkpt>
      <trkpt lat="47.87553" lon="6.92428">
        <ele>916</ele>
        <time>2026-05-09T19:39:07.179Z</time>
      </trkpt>
      <trkpt lat="47.87552" lon="6.92428">
        <ele>916</ele>
        <time>2026-05-09T19:39:08.178Z</time>
      </trkpt>
      <trkpt lat="47.8755" lon="6.92427">
        <ele>917</ele>
        <time>2026-05-09T19:39:09.179Z</time>
      </trkpt>
      <trkpt lat="47.87549" lon="6.92427">
        <ele>917</ele>
        <time>2026-05-09T19:39:10.178Z</time>
      </trkpt>
      <trkpt lat="47.87548" lon="6.92426">
        <ele>917</ele>
        <time>2026-05-09T19:39:11.178Z</time>
      </trkpt>
      <trkpt lat="47.87547" lon="6.92425">
        <ele>917</ele>
        <time>2026-05-09T19:39:12.178Z</time>
      </trkpt>
      <trkpt lat="47.87546" lon="6.92424">
        <ele>917</ele>
        <time>2026-05-09T19:39:13.179Z</time>
      </trkpt>
      <trkpt lat="47.87545" lon="6.92424">
        <ele>918</ele>
        <time>2026-05-09T19:39:14.179Z</time>
      </trkpt>
      <trkpt lat="47.87545" lon="6.92423">
        <ele>918</ele>
        <time>2026-05-09T19:39:15.179Z</time>
      </trkpt>
      <trkpt lat="47.87544" lon="6.92421">
        <ele>918</ele>
        <time>2026-05-09T19:39:16.178Z</time>
      </trkpt>
      <trkpt lat="47.87543" lon="6.9242">
        <ele>919</ele>
        <time>2026-05-09T19:39:17.178Z</time>
      </trkpt>
      <trkpt lat="47.87541" lon="6.9242">
        <ele>919</ele>
        <time>2026-05-09T19:39:18.179Z</time>
      </trkpt>
      <trkpt lat="47.8754" lon="6.92419">
        <ele>919</ele>
        <time>2026-05-09T19:39:19.178Z</time>
      </trkpt>
      <trkpt lat="47.87539" lon="6.92418">
        <ele>919</ele>
        <time>2026-05-09T19:39:20.178Z</time>
      </trkpt>
      <trkpt lat="47.87538" lon="6.92417">
        <ele>919</ele>
        <time>2026-05-09T19:39:21.178Z</time>
      </trkpt>
      <trkpt lat="47.87537" lon="6.92417">
        <ele>919</ele>
        <time>2026-05-09T19:39:22.178Z</time>
      </trkpt>
      <trkpt lat="47.87536" lon="6.92416">
        <ele>919</ele>
        <time>2026-05-09T19:39:23.179Z</time>
      </trkpt>
      <trkpt lat="47.87535" lon="6.92415">
        <ele>919</ele>
        <time>2026-05-09T19:39:24.178Z</time>
      </trkpt>
      <trkpt lat="47.87534" lon="6.92414">
        <ele>919</ele>
        <time>2026-05-09T19:39:25.178Z</time>
      </trkpt>
      <trkpt lat="47.87534" lon="6.92413">
        <ele>919</ele>
        <time>2026-05-09T19:39:26.179Z</time>
      </trkpt>
      <trkpt lat="47.87532" lon="6.92412">
        <ele>919</ele>
        <time>2026-05-09T19:39:27.178Z</time>
      </trkpt>
      <trkpt lat="47.87531" lon="6.92411">
        <ele>920</ele>
        <time>2026-05-09T19:39:28.178Z</time>
      </trkpt>
      <trkpt lat="47.8753" lon="6.92411">
        <ele>920</ele>
        <time>2026-05-09T19:39:29.179Z</time>
      </trkpt>
      <trkpt lat="47.87529" lon="6.92411">
        <ele>920</ele>
        <time>2026-05-09T19:39:30.179Z</time>
      </trkpt>
      <trkpt lat="47.87528" lon="6.9241">
        <ele>920</ele>
        <time>2026-05-09T19:39:31.178Z</time>
      </trkpt>
      <trkpt lat="47.87526" lon="6.92409">
        <ele>920</ele>
        <time>2026-05-09T19:39:32.178Z</time>
      </trkpt>
      <trkpt lat="47.87525" lon="6.92407">
        <ele>920</ele>
        <time>2026-05-09T19:39:33.178Z</time>
      </trkpt>
      <trkpt lat="47.87524" lon="6.92406">
        <ele>919</ele>
        <time>2026-05-09T19:39:34.178Z</time>
      </trkpt>
      <trkpt lat="47.87523" lon="6.92405">
        <ele>919</ele>
        <time>2026-05-09T19:39:35.178Z</time>
      </trkpt>
      <trkpt lat="47.87521" lon="6.92405">
        <ele>919</ele>
        <time>2026-05-09T19:39:36.178Z</time>
      </trkpt>
      <trkpt lat="47.87519" lon="6.92404">
        <ele>919</ele>
        <time>2026-05-09T19:39:37.178Z</time>
      </trkpt>
      <trkpt lat="47.87518" lon="6.92404">
        <ele>919</ele>
        <time>2026-05-09T19:39:38.178Z</time>
      </trkpt>
      <trkpt lat="47.87517" lon="6.92404">
        <ele>919</ele>
        <time>2026-05-09T19:39:39.178Z</time>
      </trkpt>
      <trkpt lat="47.87516" lon="6.92403">
        <ele>920</ele>
        <time>2026-05-09T19:39:40.178Z</time>
      </trkpt>
      <trkpt lat="47.87515" lon="6.92402">
        <ele>920</ele>
        <time>2026-05-09T19:39:41.178Z</time>
      </trkpt>
      <trkpt lat="47.87514" lon="6.92401">
        <ele>920</ele>
        <time>2026-05-09T19:39:42.179Z</time>
      </trkpt>
      <trkpt lat="47.87514" lon="6.924">
        <ele>919</ele>
        <time>2026-05-09T19:39:43.179Z</time>
      </trkpt>
      <trkpt lat="47.87513" lon="6.92399">
        <ele>919</ele>
        <time>2026-05-09T19:39:44.179Z</time>
      </trkpt>
      <trkpt lat="47.87512" lon="6.92397">
        <ele>919</ele>
        <time>2026-05-09T19:39:45.178Z</time>
      </trkpt>
      <trkpt lat="47.87511" lon="6.92397">
        <ele>918</ele>
        <time>2026-05-09T19:39:46.179Z</time>
      </trkpt>
      <trkpt lat="47.8751" lon="6.92396">
        <ele>918</ele>
        <time>2026-05-09T19:39:47.178Z</time>
      </trkpt>
      <trkpt lat="47.8751" lon="6.92395">
        <ele>918</ele>
        <time>2026-05-09T19:39:48.179Z</time>
      </trkpt>
      <trkpt lat="47.87509" lon="6.92395">
        <ele>918</ele>
        <time>2026-05-09T19:39:49.178Z</time>
      </trkpt>
      <trkpt lat="47.87508" lon="6.92394">
        <ele>918</ele>
        <time>2026-05-09T19:39:50.178Z</time>
      </trkpt>
      <trkpt lat="47.87506" lon="6.92393">
        <ele>918</ele>
        <time>2026-05-09T19:39:51.179Z</time>
      </trkpt>
      <trkpt lat="47.87505" lon="6.92392">
        <ele>918</ele>
        <time>2026-05-09T19:39:52.178Z</time>
      </trkpt>
      <trkpt lat="47.87504" lon="6.92391">
        <ele>919</ele>
        <time>2026-05-09T19:39:53.178Z</time>
      </trkpt>
      <trkpt lat="47.87502" lon="6.92391">
        <ele>919</ele>
        <time>2026-05-09T19:39:54.178Z</time>
      </trkpt>
      <trkpt lat="47.87501" lon="6.9239">
        <ele>919</ele>
        <time>2026-05-09T19:39:55.178Z</time>
      </trkpt>
      <trkpt lat="47.875" lon="6.92389">
        <ele>920</ele>
        <time>2026-05-09T19:39:56.178Z</time>
      </trkpt>
      <trkpt lat="47.87499" lon="6.92387">
        <ele>920</ele>
        <time>2026-05-09T19:39:57.178Z</time>
      </trkpt>
      <trkpt lat="47.87497" lon="6.92385">
        <ele>920</ele>
        <time>2026-05-09T19:39:58.178Z</time>
      </trkpt>
      <trkpt lat="47.87496" lon="6.92384">
        <ele>921</ele>
        <time>2026-05-09T19:39:59.178Z</time>
      </trkpt>
      <trkpt lat="47.87495" lon="6.92382">
        <ele>921</ele>
        <time>2026-05-09T19:40:00.178Z</time>
      </trkpt>
      <trkpt lat="47.87494" lon="6.92381">
        <ele>922</ele>
        <time>2026-05-09T19:40:01.178Z</time>
      </trkpt>
      <trkpt lat="47.87493" lon="6.9238">
        <ele>922</ele>
        <time>2026-05-09T19:40:02.179Z</time>
      </trkpt>
      <trkpt lat="47.87492" lon="6.92379">
        <ele>922</ele>
        <time>2026-05-09T19:40:03.179Z</time>
      </trkpt>
      <trkpt lat="47.87491" lon="6.92378">
        <ele>922</ele>
        <time>2026-05-09T19:40:04.179Z</time>
      </trkpt>
      <trkpt lat="47.8749" lon="6.92377">
        <ele>922</ele>
        <time>2026-05-09T19:40:05.178Z</time>
      </trkpt>
      <trkpt lat="47.87489" lon="6.92376">
        <ele>922</ele>
        <time>2026-05-09T19:40:06.178Z</time>
      </trkpt>
      <trkpt lat="47.87487" lon="6.92375">
        <ele>922</ele>
        <time>2026-05-09T19:40:07.179Z</time>
      </trkpt>
      <trkpt lat="47.87486" lon="6.92374">
        <ele>923</ele>
        <time>2026-05-09T19:40:08.179Z</time>
      </trkpt>
      <trkpt lat="47.87485" lon="6.92372">
        <ele>923</ele>
        <time>2026-05-09T19:40:09.178Z</time>
      </trkpt>
      <trkpt lat="47.87484" lon="6.92371">
        <ele>923</ele>
        <time>2026-05-09T19:40:10.178Z</time>
      </trkpt>
      <trkpt lat="47.87483" lon="6.9237">
        <ele>923</ele>
        <time>2026-05-09T19:40:11.178Z</time>
      </trkpt>
      <trkpt lat="47.87481" lon="6.9237">
        <ele>923</ele>
        <time>2026-05-09T19:40:12.179Z</time>
      </trkpt>
      <trkpt lat="47.87479" lon="6.9237">
        <ele>923</ele>
        <time>2026-05-09T19:40:13.178Z</time>
      </trkpt>
      <trkpt lat="47.87478" lon="6.92369">
        <ele>923</ele>
        <time>2026-05-09T19:40:14.178Z</time>
      </trkpt>
      <trkpt lat="47.87477" lon="6.92369">
        <ele>923</ele>
        <time>2026-05-09T19:40:15.178Z</time>
      </trkpt>
      <trkpt lat="47.87476" lon="6.92369">
        <ele>923</ele>
        <time>2026-05-09T19:40:16.178Z</time>
      </trkpt>
      <trkpt lat="47.87475" lon="6.92368">
        <ele>924</ele>
        <time>2026-05-09T19:40:17.178Z</time>
      </trkpt>
      <trkpt lat="47.87473" lon="6.92368">
        <ele>924</ele>
        <time>2026-05-09T19:40:18.178Z</time>
      </trkpt>
      <trkpt lat="47.87472" lon="6.92367">
        <ele>924</ele>
        <time>2026-05-09T19:40:19.178Z</time>
      </trkpt>
      <trkpt lat="47.87471" lon="6.92367">
        <ele>924</ele>
        <time>2026-05-09T19:40:20.178Z</time>
      </trkpt>
      <trkpt lat="47.8747" lon="6.92367">
        <ele>923</ele>
        <time>2026-05-09T19:40:21.179Z</time>
      </trkpt>
      <trkpt lat="47.87468" lon="6.92366">
        <ele>923</ele>
        <time>2026-05-09T19:40:22.178Z</time>
      </trkpt>
      <trkpt lat="47.87467" lon="6.92366">
        <ele>923</ele>
        <time>2026-05-09T19:40:23.178Z</time>
      </trkpt>
      <trkpt lat="47.87466" lon="6.92365">
        <ele>923</ele>
        <time>2026-05-09T19:40:24.178Z</time>
      </trkpt>
      <trkpt lat="47.87466" lon="6.92365">
        <ele>923</ele>
        <time>2026-05-09T19:40:25.179Z</time>
      </trkpt>
      <trkpt lat="47.87464" lon="6.92364">
        <ele>923</ele>
        <time>2026-05-09T19:40:26.179Z</time>
      </trkpt>
      <trkpt lat="47.87463" lon="6.92363">
        <ele>923</ele>
        <time>2026-05-09T19:40:27.178Z</time>
      </trkpt>
      <trkpt lat="47.87462" lon="6.92362">
        <ele>923</ele>
        <time>2026-05-09T19:40:28.178Z</time>
      </trkpt>
      <trkpt lat="47.87461" lon="6.92361">
        <ele>924</ele>
        <time>2026-05-09T19:40:29.178Z</time>
      </trkpt>
      <trkpt lat="47.8746" lon="6.9236">
        <ele>924</ele>
        <time>2026-05-09T19:40:30.178Z</time>
      </trkpt>
      <trkpt lat="47.87459" lon="6.92359">
        <ele>924</ele>
        <time>2026-05-09T19:40:31.178Z</time>
      </trkpt>
      <trkpt lat="47.87458" lon="6.92358">
        <ele>924</ele>
        <time>2026-05-09T19:40:32.178Z</time>
      </trkpt>
      <trkpt lat="47.87457" lon="6.92358">
        <ele>924</ele>
        <time>2026-05-09T19:40:33.178Z</time>
      </trkpt>
      <trkpt lat="47.87456" lon="6.92357">
        <ele>924</ele>
        <time>2026-05-09T19:40:34.178Z</time>
      </trkpt>
      <trkpt lat="47.87455" lon="6.92357">
        <ele>924</ele>
        <time>2026-05-09T19:40:35.178Z</time>
      </trkpt>
      <trkpt lat="47.87453" lon="6.92357">
        <ele>924</ele>
        <time>2026-05-09T19:40:36.178Z</time>
      </trkpt>
      <trkpt lat="47.87451" lon="6.92357">
        <ele>924</ele>
        <time>2026-05-09T19:40:37.178Z</time>
      </trkpt>
      <trkpt lat="47.8745" lon="6.92355">
        <ele>924</ele>
        <time>2026-05-09T19:40:38.178Z</time>
      </trkpt>
      <trkpt lat="47.8745" lon="6.92353">
        <ele>924</ele>
        <time>2026-05-09T19:40:39.178Z</time>
      </trkpt>
      <trkpt lat="47.87449" lon="6.92351">
        <ele>924</ele>
        <time>2026-05-09T19:40:40.178Z</time>
      </trkpt>
      <trkpt lat="47.87448" lon="6.92349">
        <ele>924</ele>
        <time>2026-05-09T19:40:41.178Z</time>
      </trkpt>
      <trkpt lat="47.87447" lon="6.92348">
        <ele>923</ele>
        <time>2026-05-09T19:40:42.178Z</time>
      </trkpt>
      <trkpt lat="47.87446" lon="6.92347">
        <ele>923</ele>
        <time>2026-05-09T19:40:43.178Z</time>
      </trkpt>
      <trkpt lat="47.87444" lon="6.92347">
        <ele>923</ele>
        <time>2026-05-09T19:40:44.178Z</time>
      </trkpt>
      <trkpt lat="47.87443" lon="6.92347">
        <ele>923</ele>
        <time>2026-05-09T19:40:45.178Z</time>
      </trkpt>
      <trkpt lat="47.87442" lon="6.92346">
        <ele>922</ele>
        <time>2026-05-09T19:40:46.178Z</time>
      </trkpt>
      <trkpt lat="47.8744" lon="6.92345">
        <ele>922</ele>
        <time>2026-05-09T19:40:47.178Z</time>
      </trkpt>
      <trkpt lat="47.87439" lon="6.92344">
        <ele>922</ele>
        <time>2026-05-09T19:40:48.178Z</time>
      </trkpt>
      <trkpt lat="47.87438" lon="6.92342">
        <ele>922</ele>
        <time>2026-05-09T19:40:49.179Z</time>
      </trkpt>
      <trkpt lat="47.87437" lon="6.92341">
        <ele>922</ele>
        <time>2026-05-09T19:40:50.178Z</time>
      </trkpt>
      <trkpt lat="47.87436" lon="6.9234">
        <ele>922</ele>
        <time>2026-05-09T19:40:51.178Z</time>
      </trkpt>
      <trkpt lat="47.87435" lon="6.92339">
        <ele>922</ele>
        <time>2026-05-09T19:40:52.178Z</time>
      </trkpt>
      <trkpt lat="47.87435" lon="6.92337">
        <ele>923</ele>
        <time>2026-05-09T19:40:53.179Z</time>
      </trkpt>
      <trkpt lat="47.87434" lon="6.92335">
        <ele>923</ele>
        <time>2026-05-09T19:40:54.178Z</time>
      </trkpt>
      <trkpt lat="47.87434" lon="6.92334">
        <ele>923</ele>
        <time>2026-05-09T19:40:55.178Z</time>
      </trkpt>
      <trkpt lat="47.87434" lon="6.92331">
        <ele>923</ele>
        <time>2026-05-09T19:40:56.178Z</time>
      </trkpt>
      <trkpt lat="47.87434" lon="6.92328">
        <ele>922</ele>
        <time>2026-05-09T19:40:57.178Z</time>
      </trkpt>
      <trkpt lat="47.87433" lon="6.92326">
        <ele>922</ele>
        <time>2026-05-09T19:40:58.179Z</time>
      </trkpt>
      <trkpt lat="47.87432" lon="6.92325">
        <ele>922</ele>
        <time>2026-05-09T19:40:59.179Z</time>
      </trkpt>
      <trkpt lat="47.87431" lon="6.92324">
        <ele>923</ele>
        <time>2026-05-09T19:41:00.178Z</time>
      </trkpt>
      <trkpt lat="47.8743" lon="6.92322">
        <ele>923</ele>
        <time>2026-05-09T19:41:01.178Z</time>
      </trkpt>
      <trkpt lat="47.8743" lon="6.9232">
        <ele>923</ele>
        <time>2026-05-09T19:41:02.178Z</time>
      </trkpt>
      <trkpt lat="47.87429" lon="6.92318">
        <ele>923</ele>
        <time>2026-05-09T19:41:03.178Z</time>
      </trkpt>
      <trkpt lat="47.87428" lon="6.92316">
        <ele>923</ele>
        <time>2026-05-09T19:41:04.179Z</time>
      </trkpt>
      <trkpt lat="47.87428" lon="6.92315">
        <ele>923</ele>
        <time>2026-05-09T19:41:05.179Z</time>
      </trkpt>
      <trkpt lat="47.87427" lon="6.92313">
        <ele>923</ele>
        <time>2026-05-09T19:41:06.179Z</time>
      </trkpt>
      <trkpt lat="47.87426" lon="6.92311">
        <ele>923</ele>
        <time>2026-05-09T19:41:07.178Z</time>
      </trkpt>
      <trkpt lat="47.87426" lon="6.92309">
        <ele>923</ele>
        <time>2026-05-09T19:41:08.179Z</time>
      </trkpt>
      <trkpt lat="47.87424" lon="6.92308">
        <ele>923</ele>
        <time>2026-05-09T19:41:09.178Z</time>
      </trkpt>
      <trkpt lat="47.87423" lon="6.92306">
        <ele>923</ele>
        <time>2026-05-09T19:41:10.178Z</time>
      </trkpt>
      <trkpt lat="47.87423" lon="6.92304">
        <ele>923</ele>
        <time>2026-05-09T19:41:11.179Z</time>
      </trkpt>
      <trkpt lat="47.87422" lon="6.92302">
        <ele>923</ele>
        <time>2026-05-09T19:41:12.178Z</time>
      </trkpt>
      <trkpt lat="47.87421" lon="6.92301">
        <ele>923</ele>
        <time>2026-05-09T19:41:13.178Z</time>
      </trkpt>
      <trkpt lat="47.8742" lon="6.923">
        <ele>924</ele>
        <time>2026-05-09T19:41:14.179Z</time>
      </trkpt>
      <trkpt lat="47.87419" lon="6.92299">
        <ele>924</ele>
        <time>2026-05-09T19:41:15.178Z</time>
      </trkpt>
      <trkpt lat="47.87418" lon="6.92298">
        <ele>925</ele>
        <time>2026-05-09T19:41:16.178Z</time>
      </trkpt>
      <trkpt lat="47.87416" lon="6.92298">
        <ele>925</ele>
        <time>2026-05-09T19:41:17.179Z</time>
      </trkpt>
      <trkpt lat="47.87415" lon="6.92297">
        <ele>926</ele>
        <time>2026-05-09T19:41:18.179Z</time>
      </trkpt>
      <trkpt lat="47.87414" lon="6.92296">
        <ele>926</ele>
        <time>2026-05-09T19:41:19.179Z</time>
      </trkpt>
      <trkpt lat="47.87412" lon="6.92295">
        <ele>927</ele>
        <time>2026-05-09T19:41:20.178Z</time>
      </trkpt>
      <trkpt lat="47.8741" lon="6.92294">
        <ele>928</ele>
        <time>2026-05-09T19:41:21.178Z</time>
      </trkpt>
      <trkpt lat="47.8741" lon="6.92292">
        <ele>928</ele>
        <time>2026-05-09T19:41:22.179Z</time>
      </trkpt>
      <trkpt lat="47.87408" lon="6.92292">
        <ele>929</ele>
        <time>2026-05-09T19:41:23.179Z</time>
      </trkpt>
      <trkpt lat="47.87407" lon="6.92291">
        <ele>929</ele>
        <time>2026-05-09T19:41:24.178Z</time>
      </trkpt>
      <trkpt lat="47.87406" lon="6.92289">
        <ele>929</ele>
        <time>2026-05-09T19:41:25.178Z</time>
      </trkpt>
      <trkpt lat="47.87405" lon="6.92288">
        <ele>930</ele>
        <time>2026-05-09T19:41:26.179Z</time>
      </trkpt>
      <trkpt lat="47.87404" lon="6.92286">
        <ele>930</ele>
        <time>2026-05-09T19:41:27.178Z</time>
      </trkpt>
      <trkpt lat="47.87403" lon="6.92284">
        <ele>930</ele>
        <time>2026-05-09T19:41:28.178Z</time>
      </trkpt>
      <trkpt lat="47.87401" lon="6.92283">
        <ele>930</ele>
        <time>2026-05-09T19:41:29.178Z</time>
      </trkpt>
      <trkpt lat="47.874" lon="6.92283">
        <ele>930</ele>
        <time>2026-05-09T19:41:30.178Z</time>
      </trkpt>
      <trkpt lat="47.87399" lon="6.92282">
        <ele>930</ele>
        <time>2026-05-09T19:41:31.178Z</time>
      </trkpt>
      <trkpt lat="47.87398" lon="6.9228">
        <ele>930</ele>
        <time>2026-05-09T19:41:32.178Z</time>
      </trkpt>
      <trkpt lat="47.87398" lon="6.92278">
        <ele>930</ele>
        <time>2026-05-09T19:41:33.178Z</time>
      </trkpt>
      <trkpt lat="47.87397" lon="6.92276">
        <ele>930</ele>
        <time>2026-05-09T19:41:34.178Z</time>
      </trkpt>
      <trkpt lat="47.87396" lon="6.92274">
        <ele>930</ele>
        <time>2026-05-09T19:41:35.178Z</time>
      </trkpt>
      <trkpt lat="47.87396" lon="6.92272">
        <ele>930</ele>
        <time>2026-05-09T19:41:36.178Z</time>
      </trkpt>
      <trkpt lat="47.87395" lon="6.9227">
        <ele>930</ele>
        <time>2026-05-09T19:41:37.179Z</time>
      </trkpt>
      <trkpt lat="47.87394" lon="6.92269">
        <ele>930</ele>
        <time>2026-05-09T19:41:38.178Z</time>
      </trkpt>
      <trkpt lat="47.87393" lon="6.92268">
        <ele>930</ele>
        <time>2026-05-09T19:41:39.179Z</time>
      </trkpt>
      <trkpt lat="47.87392" lon="6.92266">
        <ele>930</ele>
        <time>2026-05-09T19:41:40.178Z</time>
      </trkpt>
      <trkpt lat="47.87392" lon="6.92264">
        <ele>930</ele>
        <time>2026-05-09T19:41:41.179Z</time>
      </trkpt>
      <trkpt lat="47.87391" lon="6.92262">
        <ele>931</ele>
        <time>2026-05-09T19:41:42.179Z</time>
      </trkpt>
      <trkpt lat="47.8739" lon="6.9226">
        <ele>931</ele>
        <time>2026-05-09T19:41:43.178Z</time>
      </trkpt>
      <trkpt lat="47.87389" lon="6.92258">
        <ele>931</ele>
        <time>2026-05-09T19:41:44.178Z</time>
      </trkpt>
      <trkpt lat="47.87388" lon="6.92257">
        <ele>931</ele>
        <time>2026-05-09T19:41:45.179Z</time>
      </trkpt>
      <trkpt lat="47.87387" lon="6.92256">
        <ele>930</ele>
        <time>2026-05-09T19:41:46.179Z</time>
      </trkpt>
      <trkpt lat="47.87386" lon="6.92254">
        <ele>930</ele>
        <time>2026-05-09T19:41:47.178Z</time>
      </trkpt>
      <trkpt lat="47.87385" lon="6.92253">
        <ele>930</ele>
        <time>2026-05-09T19:41:48.179Z</time>
      </trkpt>
      <trkpt lat="47.87384" lon="6.92251">
        <ele>930</ele>
        <time>2026-05-09T19:41:49.178Z</time>
      </trkpt>
      <trkpt lat="47.87383" lon="6.92249">
        <ele>930</ele>
        <time>2026-05-09T19:41:50.179Z</time>
      </trkpt>
      <trkpt lat="47.87382" lon="6.92248">
        <ele>930</ele>
        <time>2026-05-09T19:41:51.179Z</time>
      </trkpt>
      <trkpt lat="47.87382" lon="6.92246">
        <ele>930</ele>
        <time>2026-05-09T19:41:52.178Z</time>
      </trkpt>
      <trkpt lat="47.87381" lon="6.92245">
        <ele>931</ele>
        <time>2026-05-09T19:41:53.179Z</time>
      </trkpt>
      <trkpt lat="47.8738" lon="6.92244">
        <ele>931</ele>
        <time>2026-05-09T19:41:54.178Z</time>
      </trkpt>
      <trkpt lat="47.87379" lon="6.92243">
        <ele>931</ele>
        <time>2026-05-09T19:41:55.179Z</time>
      </trkpt>
      <trkpt lat="47.87378" lon="6.92241">
        <ele>931</ele>
        <time>2026-05-09T19:41:56.178Z</time>
      </trkpt>
      <trkpt lat="47.87378" lon="6.9224">
        <ele>930</ele>
        <time>2026-05-09T19:41:57.178Z</time>
      </trkpt>
      <trkpt lat="47.87377" lon="6.92238">
        <ele>930</ele>
        <time>2026-05-09T19:41:58.179Z</time>
      </trkpt>
      <trkpt lat="47.87377" lon="6.92237">
        <ele>929</ele>
        <time>2026-05-09T19:41:59.179Z</time>
      </trkpt>
      <trkpt lat="47.87376" lon="6.92236">
        <ele>929</ele>
        <time>2026-05-09T19:42:00.178Z</time>
      </trkpt>
      <trkpt lat="47.87375" lon="6.92234">
        <ele>928</ele>
        <time>2026-05-09T19:42:01.179Z</time>
      </trkpt>
      <trkpt lat="47.87375" lon="6.92232">
        <ele>928</ele>
        <time>2026-05-09T19:42:02.179Z</time>
      </trkpt>
      <trkpt lat="47.87374" lon="6.92231">
        <ele>928</ele>
        <time>2026-05-09T19:42:03.178Z</time>
      </trkpt>
      <trkpt lat="47.87373" lon="6.9223">
        <ele>927</ele>
        <time>2026-05-09T19:42:04.178Z</time>
      </trkpt>
      <trkpt lat="47.87372" lon="6.92228">
        <ele>927</ele>
        <time>2026-05-09T19:42:05.178Z</time>
      </trkpt>
      <trkpt lat="47.87371" lon="6.92227">
        <ele>927</ele>
        <time>2026-05-09T19:42:06.179Z</time>
      </trkpt>
      <trkpt lat="47.8737" lon="6.92225">
        <ele>926</ele>
        <time>2026-05-09T19:42:07.178Z</time>
      </trkpt>
      <trkpt lat="47.87369" lon="6.92224">
        <ele>926</ele>
        <time>2026-05-09T19:42:08.179Z</time>
      </trkpt>
      <trkpt lat="47.87368" lon="6.92223">
        <ele>926</ele>
        <time>2026-05-09T19:42:09.178Z</time>
      </trkpt>
      <trkpt lat="47.87367" lon="6.92221">
        <ele>926</ele>
        <time>2026-05-09T19:42:10.179Z</time>
      </trkpt>
      <trkpt lat="47.87366" lon="6.9222">
        <ele>926</ele>
        <time>2026-05-09T19:42:11.178Z</time>
      </trkpt>
      <trkpt lat="47.87366" lon="6.92218">
        <ele>926</ele>
        <time>2026-05-09T19:42:12.179Z</time>
      </trkpt>
      <trkpt lat="47.87365" lon="6.92217">
        <ele>926</ele>
        <time>2026-05-09T19:42:13.178Z</time>
      </trkpt>
      <trkpt lat="47.87364" lon="6.92215">
        <ele>927</ele>
        <time>2026-05-09T19:42:14.178Z</time>
      </trkpt>
      <trkpt lat="47.87364" lon="6.92214">
        <ele>927</ele>
        <time>2026-05-09T19:42:15.178Z</time>
      </trkpt>
      <trkpt lat="47.87363" lon="6.92212">
        <ele>927</ele>
        <time>2026-05-09T19:42:16.178Z</time>
      </trkpt>
      <trkpt lat="47.87362" lon="6.9221">
        <ele>927</ele>
        <time>2026-05-09T19:42:17.179Z</time>
      </trkpt>
      <trkpt lat="47.87362" lon="6.92209">
        <ele>927</ele>
        <time>2026-05-09T19:42:18.179Z</time>
      </trkpt>
      <trkpt lat="47.87361" lon="6.92207">
        <ele>927</ele>
        <time>2026-05-09T19:42:19.178Z</time>
      </trkpt>
      <trkpt lat="47.87361" lon="6.92205">
        <ele>927</ele>
        <time>2026-05-09T19:42:20.178Z</time>
      </trkpt>
      <trkpt lat="47.8736" lon="6.92204">
        <ele>928</ele>
        <time>2026-05-09T19:42:21.178Z</time>
      </trkpt>
      <trkpt lat="47.87359" lon="6.92203">
        <ele>928</ele>
        <time>2026-05-09T19:42:22.179Z</time>
      </trkpt>
      <trkpt lat="47.87358" lon="6.92201">
        <ele>928</ele>
        <time>2026-05-09T19:42:23.178Z</time>
      </trkpt>
      <trkpt lat="47.87357" lon="6.922">
        <ele>928</ele>
        <time>2026-05-09T19:42:24.179Z</time>
      </trkpt>
      <trkpt lat="47.87355" lon="6.92199">
        <ele>928</ele>
        <time>2026-05-09T19:42:25.179Z</time>
      </trkpt>
      <trkpt lat="47.87354" lon="6.92199">
        <ele>928</ele>
        <time>2026-05-09T19:42:26.178Z</time>
      </trkpt>
      <trkpt lat="47.87352" lon="6.92198">
        <ele>928</ele>
        <time>2026-05-09T19:42:27.178Z</time>
      </trkpt>
      <trkpt lat="47.87351" lon="6.92197">
        <ele>928</ele>
        <time>2026-05-09T19:42:28.178Z</time>
      </trkpt>
      <trkpt lat="47.87349" lon="6.92196">
        <ele>928</ele>
        <time>2026-05-09T19:42:29.178Z</time>
      </trkpt>
      <trkpt lat="47.87347" lon="6.92196">
        <ele>928</ele>
        <time>2026-05-09T19:42:30.179Z</time>
      </trkpt>
      <trkpt lat="47.87345" lon="6.92195">
        <ele>928</ele>
        <time>2026-05-09T19:42:31.178Z</time>
      </trkpt>
      <trkpt lat="47.87343" lon="6.92195">
        <ele>928</ele>
        <time>2026-05-09T19:42:32.178Z</time>
      </trkpt>
      <trkpt lat="47.87342" lon="6.92194">
        <ele>927</ele>
        <time>2026-05-09T19:42:33.178Z</time>
      </trkpt>
      <trkpt lat="47.8734" lon="6.92193">
        <ele>927</ele>
        <time>2026-05-09T19:42:34.178Z</time>
      </trkpt>
      <trkpt lat="47.87338" lon="6.92192">
        <ele>927</ele>
        <time>2026-05-09T19:42:35.178Z</time>
      </trkpt>
      <trkpt lat="47.87337" lon="6.92191">
        <ele>927</ele>
        <time>2026-05-09T19:42:36.179Z</time>
      </trkpt>
      <trkpt lat="47.87336" lon="6.92189">
        <ele>927</ele>
        <time>2026-05-09T19:42:37.179Z</time>
      </trkpt>
      <trkpt lat="47.87335" lon="6.92187">
        <ele>927</ele>
        <time>2026-05-09T19:42:38.178Z</time>
      </trkpt>
      <trkpt lat="47.87334" lon="6.92186">
        <ele>927</ele>
        <time>2026-05-09T19:42:39.178Z</time>
      </trkpt>
      <trkpt lat="47.87332" lon="6.92185">
        <ele>926</ele>
        <time>2026-05-09T19:42:40.178Z</time>
      </trkpt>
      <trkpt lat="47.87331" lon="6.92185">
        <ele>926</ele>
        <time>2026-05-09T19:42:41.178Z</time>
      </trkpt>
      <trkpt lat="47.8733" lon="6.92184">
        <ele>926</ele>
        <time>2026-05-09T19:42:42.178Z</time>
      </trkpt>
      <trkpt lat="47.87328" lon="6.92183">
        <ele>926</ele>
        <time>2026-05-09T19:42:43.178Z</time>
      </trkpt>
      <trkpt lat="47.87327" lon="6.92182">
        <ele>926</ele>
        <time>2026-05-09T19:42:44.178Z</time>
      </trkpt>
      <trkpt lat="47.87326" lon="6.92181">
        <ele>926</ele>
        <time>2026-05-09T19:42:45.178Z</time>
      </trkpt>
      <trkpt lat="47.87325" lon="6.92179">
        <ele>926</ele>
        <time>2026-05-09T19:42:46.178Z</time>
      </trkpt>
      <trkpt lat="47.87324" lon="6.92178">
        <ele>925</ele>
        <time>2026-05-09T19:42:47.179Z</time>
      </trkpt>
      <trkpt lat="47.87323" lon="6.92176">
        <ele>925</ele>
        <time>2026-05-09T19:42:48.178Z</time>
      </trkpt>
      <trkpt lat="47.87322" lon="6.92174">
        <ele>925</ele>
        <time>2026-05-09T19:42:49.179Z</time>
      </trkpt>
      <trkpt lat="47.87321" lon="6.92173">
        <ele>925</ele>
        <time>2026-05-09T19:42:50.179Z</time>
      </trkpt>
      <trkpt lat="47.87321" lon="6.92171">
        <ele>925</ele>
        <time>2026-05-09T19:42:51.178Z</time>
      </trkpt>
      <trkpt lat="47.87321" lon="6.92168">
        <ele>925</ele>
        <time>2026-05-09T19:42:52.179Z</time>
      </trkpt>
      <trkpt lat="47.8732" lon="6.92165">
        <ele>925</ele>
        <time>2026-05-09T19:42:53.179Z</time>
      </trkpt>
      <trkpt lat="47.8732" lon="6.92163">
        <ele>925</ele>
        <time>2026-05-09T19:42:54.179Z</time>
      </trkpt>
      <trkpt lat="47.87319" lon="6.9216">
        <ele>925</ele>
        <time>2026-05-09T19:42:55.178Z</time>
      </trkpt>
      <trkpt lat="47.87318" lon="6.92158">
        <ele>925</ele>
        <time>2026-05-09T19:42:56.179Z</time>
      </trkpt>
      <trkpt lat="47.87318" lon="6.92156">
        <ele>925</ele>
        <time>2026-05-09T19:42:57.179Z</time>
      </trkpt>
      <trkpt lat="47.87317" lon="6.92154">
        <ele>925</ele>
        <time>2026-05-09T19:42:58.178Z</time>
      </trkpt>
      <trkpt lat="47.87316" lon="6.92152">
        <ele>925</ele>
        <time>2026-05-09T19:42:59.178Z</time>
      </trkpt>
      <trkpt lat="47.87315" lon="6.92151">
        <ele>925</ele>
        <time>2026-05-09T19:43:00.178Z</time>
      </trkpt>
      <trkpt lat="47.87313" lon="6.9215">
        <ele>925</ele>
        <time>2026-05-09T19:43:01.179Z</time>
      </trkpt>
      <trkpt lat="47.87312" lon="6.92149">
        <ele>925</ele>
        <time>2026-05-09T19:43:02.178Z</time>
      </trkpt>
      <trkpt lat="47.87311" lon="6.92149">
        <ele>925</ele>
        <time>2026-05-09T19:43:03.178Z</time>
      </trkpt>
      <trkpt lat="47.87309" lon="6.92149">
        <ele>925</ele>
        <time>2026-05-09T19:43:04.178Z</time>
      </trkpt>
      <trkpt lat="47.87308" lon="6.92148">
        <ele>924</ele>
        <time>2026-05-09T19:43:05.178Z</time>
      </trkpt>
      <trkpt lat="47.87307" lon="6.92148">
        <ele>924</ele>
        <time>2026-05-09T19:43:06.178Z</time>
      </trkpt>
      <trkpt lat="47.87306" lon="6.92148">
        <ele>924</ele>
        <time>2026-05-09T19:43:07.178Z</time>
      </trkpt>
      <trkpt lat="47.87304" lon="6.92148">
        <ele>924</ele>
        <time>2026-05-09T19:43:08.178Z</time>
      </trkpt>
      <trkpt lat="47.87303" lon="6.92147">
        <ele>924</ele>
        <time>2026-05-09T19:43:09.178Z</time>
      </trkpt>
      <trkpt lat="47.87301" lon="6.92146">
        <ele>923</ele>
        <time>2026-05-09T19:43:10.179Z</time>
      </trkpt>
      <trkpt lat="47.873" lon="6.92146">
        <ele>923</ele>
        <time>2026-05-09T19:43:11.179Z</time>
      </trkpt>
      <trkpt lat="47.87299" lon="6.92146">
        <ele>923</ele>
        <time>2026-05-09T19:43:12.178Z</time>
      </trkpt>
      <trkpt lat="47.87297" lon="6.92146">
        <ele>923</ele>
        <time>2026-05-09T19:43:13.179Z</time>
      </trkpt>
      <trkpt lat="47.87296" lon="6.92146">
        <ele>923</ele>
        <time>2026-05-09T19:43:14.178Z</time>
      </trkpt>
      <trkpt lat="47.87295" lon="6.92145">
        <ele>923</ele>
        <time>2026-05-09T19:43:15.178Z</time>
      </trkpt>
      <trkpt lat="47.87294" lon="6.92144">
        <ele>923</ele>
        <time>2026-05-09T19:43:16.179Z</time>
      </trkpt>
      <trkpt lat="47.87293" lon="6.92142">
        <ele>924</ele>
        <time>2026-05-09T19:43:17.179Z</time>
      </trkpt>
      <trkpt lat="47.87293" lon="6.9214">
        <ele>924</ele>
        <time>2026-05-09T19:43:18.178Z</time>
      </trkpt>
      <trkpt lat="47.87293" lon="6.92138">
        <ele>924</ele>
        <time>2026-05-09T19:43:19.178Z</time>
      </trkpt>
      <trkpt lat="47.87292" lon="6.92137">
        <ele>925</ele>
        <time>2026-05-09T19:43:20.178Z</time>
      </trkpt>
      <trkpt lat="47.87291" lon="6.92135">
        <ele>925</ele>
        <time>2026-05-09T19:43:21.178Z</time>
      </trkpt>
      <trkpt lat="47.8729" lon="6.92134">
        <ele>926</ele>
        <time>2026-05-09T19:43:22.178Z</time>
      </trkpt>
      <trkpt lat="47.87289" lon="6.92133">
        <ele>926</ele>
        <time>2026-05-09T19:43:23.179Z</time>
      </trkpt>
      <trkpt lat="47.87288" lon="6.92131">
        <ele>926</ele>
        <time>2026-05-09T19:43:24.179Z</time>
      </trkpt>
      <trkpt lat="47.87287" lon="6.9213">
        <ele>927</ele>
        <time>2026-05-09T19:43:25.179Z</time>
      </trkpt>
      <trkpt lat="47.87286" lon="6.92128">
        <ele>927</ele>
        <time>2026-05-09T19:43:26.179Z</time>
      </trkpt>
      <trkpt lat="47.87285" lon="6.92126">
        <ele>927</ele>
        <time>2026-05-09T19:43:27.179Z</time>
      </trkpt>
      <trkpt lat="47.87285" lon="6.92124">
        <ele>928</ele>
        <time>2026-05-09T19:43:28.178Z</time>
      </trkpt>
      <trkpt lat="47.87284" lon="6.92122">
        <ele>928</ele>
        <time>2026-05-09T19:43:29.179Z</time>
      </trkpt>
      <trkpt lat="47.87283" lon="6.92121">
        <ele>928</ele>
        <time>2026-05-09T19:43:30.179Z</time>
      </trkpt>
      <trkpt lat="47.87282" lon="6.92119">
        <ele>928</ele>
        <time>2026-05-09T19:43:31.178Z</time>
      </trkpt>
      <trkpt lat="47.87281" lon="6.92118">
        <ele>928</ele>
        <time>2026-05-09T19:43:32.178Z</time>
      </trkpt>
      <trkpt lat="47.8728" lon="6.92117">
        <ele>928</ele>
        <time>2026-05-09T19:43:33.179Z</time>
      </trkpt>
      <trkpt lat="47.87279" lon="6.92115">
        <ele>928</ele>
        <time>2026-05-09T19:43:34.179Z</time>
      </trkpt>
      <trkpt lat="47.87279" lon="6.92113">
        <ele>928</ele>
        <time>2026-05-09T19:43:35.179Z</time>
      </trkpt>
      <trkpt lat="47.87278" lon="6.92111">
        <ele>928</ele>
        <time>2026-05-09T19:43:36.178Z</time>
      </trkpt>
      <trkpt lat="47.87277" lon="6.9211">
        <ele>928</ele>
        <time>2026-05-09T19:43:37.178Z</time>
      </trkpt>
      <trkpt lat="47.87275" lon="6.92109">
        <ele>928</ele>
        <time>2026-05-09T19:43:38.178Z</time>
      </trkpt>
      <trkpt lat="47.87273" lon="6.92109">
        <ele>928</ele>
        <time>2026-05-09T19:43:39.178Z</time>
      </trkpt>
      <trkpt lat="47.87272" lon="6.92108">
        <ele>928</ele>
        <time>2026-05-09T19:43:40.178Z</time>
      </trkpt>
      <trkpt lat="47.87271" lon="6.92106">
        <ele>928</ele>
        <time>2026-05-09T19:43:41.178Z</time>
      </trkpt>
      <trkpt lat="47.8727" lon="6.92105">
        <ele>928</ele>
        <time>2026-05-09T19:43:42.178Z</time>
      </trkpt>
      <trkpt lat="47.87269" lon="6.92103">
        <ele>929</ele>
        <time>2026-05-09T19:43:43.178Z</time>
      </trkpt>
      <trkpt lat="47.87268" lon="6.92102">
        <ele>929</ele>
        <time>2026-05-09T19:43:44.178Z</time>
      </trkpt>
      <trkpt lat="47.87267" lon="6.92101">
        <ele>929</ele>
        <time>2026-05-09T19:43:45.178Z</time>
      </trkpt>
      <trkpt lat="47.87266" lon="6.921">
        <ele>929</ele>
        <time>2026-05-09T19:43:46.178Z</time>
      </trkpt>
      <trkpt lat="47.87265" lon="6.92099">
        <ele>929</ele>
        <time>2026-05-09T19:43:47.178Z</time>
      </trkpt>
      <trkpt lat="47.87264" lon="6.92097">
        <ele>929</ele>
        <time>2026-05-09T19:43:48.178Z</time>
      </trkpt>
      <trkpt lat="47.87263" lon="6.92097">
        <ele>929</ele>
        <time>2026-05-09T19:43:49.178Z</time>
      </trkpt>
      <trkpt lat="47.87262" lon="6.92096">
        <ele>929</ele>
        <time>2026-05-09T19:43:50.178Z</time>
      </trkpt>
      <trkpt lat="47.87261" lon="6.92096">
        <ele>929</ele>
        <time>2026-05-09T19:43:51.178Z</time>
      </trkpt>
      <trkpt lat="47.8726" lon="6.92096">
        <ele>929</ele>
        <time>2026-05-09T19:43:52.178Z</time>
      </trkpt>
      <trkpt lat="47.87259" lon="6.92095">
        <ele>929</ele>
        <time>2026-05-09T19:43:53.178Z</time>
      </trkpt>
      <trkpt lat="47.87257" lon="6.92095">
        <ele>929</ele>
        <time>2026-05-09T19:43:54.178Z</time>
      </trkpt>
      <trkpt lat="47.87256" lon="6.92094">
        <ele>929</ele>
        <time>2026-05-09T19:43:55.178Z</time>
      </trkpt>
      <trkpt lat="47.87254" lon="6.92093">
        <ele>929</ele>
        <time>2026-05-09T19:43:56.178Z</time>
      </trkpt>
      <trkpt lat="47.87253" lon="6.92091">
        <ele>929</ele>
        <time>2026-05-09T19:43:57.178Z</time>
      </trkpt>
      <trkpt lat="47.87252" lon="6.9209">
        <ele>930</ele>
        <time>2026-05-09T19:43:58.178Z</time>
      </trkpt>
      <trkpt lat="47.87251" lon="6.9209">
        <ele>930</ele>
        <time>2026-05-09T19:43:59.178Z</time>
      </trkpt>
      <trkpt lat="47.8725" lon="6.9209">
        <ele>930</ele>
        <time>2026-05-09T19:44:00.178Z</time>
      </trkpt>
      <trkpt lat="47.87248" lon="6.9209">
        <ele>930</ele>
        <time>2026-05-09T19:44:01.178Z</time>
      </trkpt>
      <trkpt lat="47.87247" lon="6.9209">
        <ele>930</ele>
        <time>2026-05-09T19:44:02.178Z</time>
      </trkpt>
      <trkpt lat="47.87245" lon="6.9209">
        <ele>930</ele>
        <time>2026-05-09T19:44:03.179Z</time>
      </trkpt>
      <trkpt lat="47.87244" lon="6.92089">
        <ele>931</ele>
        <time>2026-05-09T19:44:04.178Z</time>
      </trkpt>
      <trkpt lat="47.87243" lon="6.92089">
        <ele>931</ele>
        <time>2026-05-09T19:44:05.178Z</time>
      </trkpt>
      <trkpt lat="47.87242" lon="6.92088">
        <ele>931</ele>
        <time>2026-05-09T19:44:06.178Z</time>
      </trkpt>
      <trkpt lat="47.8724" lon="6.92087">
        <ele>932</ele>
        <time>2026-05-09T19:44:07.178Z</time>
      </trkpt>
      <trkpt lat="47.87239" lon="6.92085">
        <ele>932</ele>
        <time>2026-05-09T19:44:08.178Z</time>
      </trkpt>
      <trkpt lat="47.87238" lon="6.92084">
        <ele>932</ele>
        <time>2026-05-09T19:44:09.178Z</time>
      </trkpt>
      <trkpt lat="47.87237" lon="6.92082">
        <ele>932</ele>
        <time>2026-05-09T19:44:10.179Z</time>
      </trkpt>
      <trkpt lat="47.87237" lon="6.92081">
        <ele>932</ele>
        <time>2026-05-09T19:44:11.178Z</time>
      </trkpt>
      <trkpt lat="47.87236" lon="6.9208">
        <ele>931</ele>
        <time>2026-05-09T19:44:12.178Z</time>
      </trkpt>
      <trkpt lat="47.87236" lon="6.92078">
        <ele>931</ele>
        <time>2026-05-09T19:44:13.178Z</time>
      </trkpt>
      <trkpt lat="47.87235" lon="6.92077">
        <ele>931</ele>
        <time>2026-05-09T19:44:14.178Z</time>
      </trkpt>
      <trkpt lat="47.87234" lon="6.92076">
        <ele>931</ele>
        <time>2026-05-09T19:44:15.178Z</time>
      </trkpt>
      <trkpt lat="47.87233" lon="6.92075">
        <ele>931</ele>
        <time>2026-05-09T19:44:16.178Z</time>
      </trkpt>
      <trkpt lat="47.87233" lon="6.92075">
        <ele>931</ele>
        <time>2026-05-09T19:44:17.178Z</time>
      </trkpt>
      <trkpt lat="47.87231" lon="6.92074">
        <ele>930</ele>
        <time>2026-05-09T19:44:18.178Z</time>
      </trkpt>
      <trkpt lat="47.8723" lon="6.92073">
        <ele>930</ele>
        <time>2026-05-09T19:44:19.179Z</time>
      </trkpt>
      <trkpt lat="47.8723" lon="6.92072">
        <ele>929</ele>
        <time>2026-05-09T19:44:20.178Z</time>
      </trkpt>
      <trkpt lat="47.87229" lon="6.92071">
        <ele>929</ele>
        <time>2026-05-09T19:44:21.178Z</time>
      </trkpt>
      <trkpt lat="47.87228" lon="6.9207">
        <ele>929</ele>
        <time>2026-05-09T19:44:22.178Z</time>
      </trkpt>
      <trkpt lat="47.87227" lon="6.92069">
        <ele>928</ele>
        <time>2026-05-09T19:44:23.178Z</time>
      </trkpt>
      <trkpt lat="47.87226" lon="6.92068">
        <ele>928</ele>
        <time>2026-05-09T19:44:24.178Z</time>
      </trkpt>
      <trkpt lat="47.87224" lon="6.92065">
        <ele>928</ele>
        <time>2026-05-09T19:44:25.179Z</time>
      </trkpt>
      <trkpt lat="47.87223" lon="6.92062">
        <ele>928</ele>
        <time>2026-05-09T19:44:26.178Z</time>
      </trkpt>
      <trkpt lat="47.87222" lon="6.92059">
        <ele>928</ele>
        <time>2026-05-09T19:44:27.179Z</time>
      </trkpt>
      <trkpt lat="47.8722" lon="6.92058">
        <ele>928</ele>
        <time>2026-05-09T19:44:28.179Z</time>
      </trkpt>
      <trkpt lat="47.87219" lon="6.92058">
        <ele>929</ele>
        <time>2026-05-09T19:44:29.179Z</time>
      </trkpt>
      <trkpt lat="47.87217" lon="6.92059">
        <ele>929</ele>
        <time>2026-05-09T19:44:30.178Z</time>
      </trkpt>
      <trkpt lat="47.87215" lon="6.9206">
        <ele>929</ele>
        <time>2026-05-09T19:44:31.178Z</time>
      </trkpt>
      <trkpt lat="47.87214" lon="6.92059">
        <ele>930</ele>
        <time>2026-05-09T19:44:32.178Z</time>
      </trkpt>
      <trkpt lat="47.87213" lon="6.92058">
        <ele>930</ele>
        <time>2026-05-09T19:44:33.178Z</time>
      </trkpt>
      <trkpt lat="47.87212" lon="6.92057">
        <ele>930</ele>
        <time>2026-05-09T19:44:34.178Z</time>
      </trkpt>
      <trkpt lat="47.87211" lon="6.92056">
        <ele>930</ele>
        <time>2026-05-09T19:44:35.178Z</time>
      </trkpt>
      <trkpt lat="47.8721" lon="6.92055">
        <ele>930</ele>
        <time>2026-05-09T19:44:36.178Z</time>
      </trkpt>
      <trkpt lat="47.8721" lon="6.92054">
        <ele>930</ele>
        <time>2026-05-09T19:44:37.178Z</time>
      </trkpt>
      <trkpt lat="47.87209" lon="6.92053">
        <ele>930</ele>
        <time>2026-05-09T19:44:38.178Z</time>
      </trkpt>
      <trkpt lat="47.87208" lon="6.92052">
        <ele>930</ele>
        <time>2026-05-09T19:44:39.178Z</time>
      </trkpt>
      <trkpt lat="47.87207" lon="6.92052">
        <ele>930</ele>
        <time>2026-05-09T19:44:40.178Z</time>
      </trkpt>
      <trkpt lat="47.87207" lon="6.9205">
        <ele>930</ele>
        <time>2026-05-09T19:44:41.178Z</time>
      </trkpt>
      <trkpt lat="47.87206" lon="6.92049">
        <ele>931</ele>
        <time>2026-05-09T19:44:42.178Z</time>
      </trkpt>
      <trkpt lat="47.87204" lon="6.92047">
        <ele>931</ele>
        <time>2026-05-09T19:44:43.179Z</time>
      </trkpt>
      <trkpt lat="47.87203" lon="6.92046">
        <ele>931</ele>
        <time>2026-05-09T19:44:44.178Z</time>
      </trkpt>
      <trkpt lat="47.87202" lon="6.92045">
        <ele>932</ele>
        <time>2026-05-09T19:44:45.178Z</time>
      </trkpt>
      <trkpt lat="47.87201" lon="6.92044">
        <ele>933</ele>
        <time>2026-05-09T19:44:46.178Z</time>
      </trkpt>
      <trkpt lat="47.872" lon="6.92043">
        <ele>933</ele>
        <time>2026-05-09T19:44:47.178Z</time>
      </trkpt>
      <trkpt lat="47.87198" lon="6.92043">
        <ele>934</ele>
        <time>2026-05-09T19:44:48.178Z</time>
      </trkpt>
      <trkpt lat="47.87197" lon="6.92043">
        <ele>935</ele>
        <time>2026-05-09T19:44:49.178Z</time>
      </trkpt>
      <trkpt lat="47.87195" lon="6.92043">
        <ele>935</ele>
        <time>2026-05-09T19:44:50.178Z</time>
      </trkpt>
      <trkpt lat="47.87194" lon="6.92043">
        <ele>936</ele>
        <time>2026-05-09T19:44:51.178Z</time>
      </trkpt>
      <trkpt lat="47.87192" lon="6.92043">
        <ele>936</ele>
        <time>2026-05-09T19:44:52.178Z</time>
      </trkpt>
      <trkpt lat="47.87192" lon="6.92041">
        <ele>936</ele>
        <time>2026-05-09T19:44:53.179Z</time>
      </trkpt>
      <trkpt lat="47.87191" lon="6.92039">
        <ele>936</ele>
        <time>2026-05-09T19:44:54.179Z</time>
      </trkpt>
      <trkpt lat="47.8719" lon="6.92038">
        <ele>935</ele>
        <time>2026-05-09T19:44:55.179Z</time>
      </trkpt>
      <trkpt lat="47.87189" lon="6.92037">
        <ele>935</ele>
        <time>2026-05-09T19:44:56.178Z</time>
      </trkpt>
      <trkpt lat="47.87188" lon="6.92036">
        <ele>935</ele>
        <time>2026-05-09T19:44:57.178Z</time>
      </trkpt>
      <trkpt lat="47.87187" lon="6.92036">
        <ele>935</ele>
        <time>2026-05-09T19:44:58.178Z</time>
      </trkpt>
      <trkpt lat="47.87185" lon="6.92035">
        <ele>935</ele>
        <time>2026-05-09T19:44:59.178Z</time>
      </trkpt>
      <trkpt lat="47.87184" lon="6.92034">
        <ele>935</ele>
        <time>2026-05-09T19:45:00.178Z</time>
      </trkpt>
      <trkpt lat="47.87183" lon="6.92033">
        <ele>935</ele>
        <time>2026-05-09T19:45:01.179Z</time>
      </trkpt>
      <trkpt lat="47.87182" lon="6.92032">
        <ele>935</ele>
        <time>2026-05-09T19:45:02.179Z</time>
      </trkpt>
      <trkpt lat="47.87181" lon="6.92031">
        <ele>935</ele>
        <time>2026-05-09T19:45:03.178Z</time>
      </trkpt>
      <trkpt lat="47.87179" lon="6.9203">
        <ele>935</ele>
        <time>2026-05-09T19:45:04.178Z</time>
      </trkpt>
      <trkpt lat="47.87178" lon="6.92029">
        <ele>935</ele>
        <time>2026-05-09T19:45:05.179Z</time>
      </trkpt>
      <trkpt lat="47.87177" lon="6.92028">
        <ele>935</ele>
        <time>2026-05-09T19:45:06.178Z</time>
      </trkpt>
      <trkpt lat="47.87176" lon="6.92028">
        <ele>935</ele>
        <time>2026-05-09T19:45:07.178Z</time>
      </trkpt>
      <trkpt lat="47.87175" lon="6.92027">
        <ele>935</ele>
        <time>2026-05-09T19:45:08.178Z</time>
      </trkpt>
      <trkpt lat="47.87175" lon="6.92025">
        <ele>935</ele>
        <time>2026-05-09T19:45:09.179Z</time>
      </trkpt>
      <trkpt lat="47.87174" lon="6.92024">
        <ele>935</ele>
        <time>2026-05-09T19:45:10.178Z</time>
      </trkpt>
      <trkpt lat="47.87173" lon="6.92023">
        <ele>935</ele>
        <time>2026-05-09T19:45:11.178Z</time>
      </trkpt>
      <trkpt lat="47.87172" lon="6.92023">
        <ele>935</ele>
        <time>2026-05-09T19:45:12.179Z</time>
      </trkpt>
      <trkpt lat="47.87172" lon="6.92022">
        <ele>935</ele>
        <time>2026-05-09T19:45:13.178Z</time>
      </trkpt>
      <trkpt lat="47.8717" lon="6.92022">
        <ele>936</ele>
        <time>2026-05-09T19:45:14.179Z</time>
      </trkpt>
      <trkpt lat="47.87169" lon="6.92022">
        <ele>936</ele>
        <time>2026-05-09T19:45:15.179Z</time>
      </trkpt>
      <trkpt lat="47.87167" lon="6.92022">
        <ele>936</ele>
        <time>2026-05-09T19:45:16.178Z</time>
      </trkpt>
      <trkpt lat="47.87164" lon="6.92025">
        <ele>936</ele>
        <time>2026-05-09T19:45:17.178Z</time>
      </trkpt>
      <trkpt lat="47.87162" lon="6.92026">
        <ele>936</ele>
        <time>2026-05-09T19:45:18.179Z</time>
      </trkpt>
      <trkpt lat="47.8716" lon="6.92028">
        <ele>937</ele>
        <time>2026-05-09T19:45:19.179Z</time>
      </trkpt>
      <trkpt lat="47.87159" lon="6.92029">
        <ele>937</ele>
        <time>2026-05-09T19:45:20.178Z</time>
      </trkpt>
      <trkpt lat="47.87157" lon="6.9203">
        <ele>937</ele>
        <time>2026-05-09T19:45:21.178Z</time>
      </trkpt>
      <trkpt lat="47.87155" lon="6.92031">
        <ele>937</ele>
        <time>2026-05-09T19:45:22.178Z</time>
      </trkpt>
      <trkpt lat="47.87154" lon="6.92032">
        <ele>937</ele>
        <time>2026-05-09T19:45:23.178Z</time>
      </trkpt>
      <trkpt lat="47.87152" lon="6.92033">
        <ele>937</ele>
        <time>2026-05-09T19:45:24.178Z</time>
      </trkpt>
      <trkpt lat="47.87152" lon="6.92033">
        <ele>938</ele>
        <time>2026-05-09T19:45:25.179Z</time>
      </trkpt>
      <trkpt lat="47.87152" lon="6.92034">
        <ele>938</ele>
        <time>2026-05-09T19:45:26.179Z</time>
      </trkpt>
      <trkpt lat="47.87152" lon="6.92034">
        <ele>939</ele>
        <time>2026-05-09T19:45:27.178Z</time>
      </trkpt>
      <trkpt lat="47.87152" lon="6.92034">
        <ele>939</ele>
        <time>2026-05-09T19:45:28.178Z</time>
      </trkpt>
      <trkpt lat="47.87151" lon="6.92033">
        <ele>940</ele>
        <time>2026-05-09T19:45:29.179Z</time>
      </trkpt>
      <trkpt lat="47.87151" lon="6.92032">
        <ele>940</ele>
        <time>2026-05-09T19:45:30.178Z</time>
      </trkpt>
      <trkpt lat="47.8715" lon="6.92033">
        <ele>940</ele>
        <time>2026-05-09T19:45:31.179Z</time>
      </trkpt>
      <trkpt lat="47.87148" lon="6.92033">
        <ele>941</ele>
        <time>2026-05-09T19:45:32.178Z</time>
      </trkpt>
      <trkpt lat="47.87147" lon="6.92034">
        <ele>941</ele>
        <time>2026-05-09T19:45:33.178Z</time>
      </trkpt>
      <trkpt lat="47.87147" lon="6.92034">
        <ele>941</ele>
        <time>2026-05-09T19:45:34.178Z</time>
      </trkpt>
      <trkpt lat="47.87146" lon="6.92034">
        <ele>942</ele>
        <time>2026-05-09T19:45:35.179Z</time>
      </trkpt>
      <trkpt lat="47.87145" lon="6.92034">
        <ele>942</ele>
        <time>2026-05-09T19:45:36.179Z</time>
      </trkpt>
      <trkpt lat="47.87144" lon="6.92034">
        <ele>942</ele>
        <time>2026-05-09T19:45:37.178Z</time>
      </trkpt>
      <trkpt lat="47.87144" lon="6.92034">
        <ele>942</ele>
        <time>2026-05-09T19:45:38.178Z</time>
      </trkpt>
      <trkpt lat="47.87143" lon="6.92033">
        <ele>942</ele>
        <time>2026-05-09T19:45:39.179Z</time>
      </trkpt>
      <trkpt lat="47.87142" lon="6.92033">
        <ele>942</ele>
        <time>2026-05-09T19:45:40.179Z</time>
      </trkpt>
      <trkpt lat="47.87141" lon="6.92034">
        <ele>942</ele>
        <time>2026-05-09T19:45:41.178Z</time>
      </trkpt>
      <trkpt lat="47.8714" lon="6.92034">
        <ele>942</ele>
        <time>2026-05-09T19:45:42.179Z</time>
      </trkpt>
      <trkpt lat="47.87138" lon="6.92035">
        <ele>942</ele>
        <time>2026-05-09T19:45:43.178Z</time>
      </trkpt>
      <trkpt lat="47.87137" lon="6.92036">
        <ele>942</ele>
        <time>2026-05-09T19:45:44.179Z</time>
      </trkpt>
      <trkpt lat="47.87135" lon="6.92037">
        <ele>942</ele>
        <time>2026-05-09T19:45:45.178Z</time>
      </trkpt>
      <trkpt lat="47.87134" lon="6.92039">
        <ele>942</ele>
        <time>2026-05-09T19:45:46.178Z</time>
      </trkpt>
      <trkpt lat="47.87133" lon="6.9204">
        <ele>942</ele>
        <time>2026-05-09T19:45:47.178Z</time>
      </trkpt>
      <trkpt lat="47.87133" lon="6.9204">
        <ele>942</ele>
        <time>2026-05-09T19:45:48.179Z</time>
      </trkpt>
      <trkpt lat="47.87133" lon="6.92039">
        <ele>943</ele>
        <time>2026-05-09T19:45:49.178Z</time>
      </trkpt>
      <trkpt lat="47.87132" lon="6.9204">
        <ele>943</ele>
        <time>2026-05-09T19:45:50.178Z</time>
      </trkpt>
      <trkpt lat="47.87132" lon="6.9204">
        <ele>944</ele>
        <time>2026-05-09T19:45:51.179Z</time>
      </trkpt>
      <trkpt lat="47.87133" lon="6.9204">
        <ele>944</ele>
        <time>2026-05-09T19:45:52.178Z</time>
      </trkpt>
      <trkpt lat="47.87133" lon="6.9204">
        <ele>945</ele>
        <time>2026-05-09T19:45:53.179Z</time>
      </trkpt>
      <trkpt lat="47.87132" lon="6.92041">
        <ele>946</ele>
        <time>2026-05-09T19:45:54.178Z</time>
      </trkpt>
      <trkpt lat="47.87124" lon="6.92044">
        <ele>951</ele>
        <time>2026-05-09T19:46:06.053Z</time>
      </trkpt>
      <trkpt lat="47.87123" lon="6.92045">
        <ele>951</ele>
        <time>2026-05-09T19:46:07.052Z</time>
      </trkpt>
      <trkpt lat="47.87122" lon="6.92046">
        <ele>952</ele>
        <time>2026-05-09T19:46:08.052Z</time>
      </trkpt>
      <trkpt lat="47.87121" lon="6.92048">
        <ele>952</ele>
        <time>2026-05-09T19:46:09.052Z</time>
      </trkpt>
      <trkpt lat="47.87119" lon="6.9205">
        <ele>952</ele>
        <time>2026-05-09T19:46:10.053Z</time>
      </trkpt>
      <trkpt lat="47.87118" lon="6.92051">
        <ele>952</ele>
        <time>2026-05-09T19:46:11.052Z</time>
      </trkpt>
      <trkpt lat="47.87118" lon="6.92052">
        <ele>952</ele>
        <time>2026-05-09T19:46:12.052Z</time>
      </trkpt>
      <trkpt lat="47.87117" lon="6.92052">
        <ele>952</ele>
        <time>2026-05-09T19:46:13.052Z</time>
      </trkpt>
      <trkpt lat="47.87116" lon="6.92054">
        <ele>952</ele>
        <time>2026-05-09T19:46:14.052Z</time>
      </trkpt>
      <trkpt lat="47.87115" lon="6.92055">
        <ele>953</ele>
        <time>2026-05-09T19:46:15.052Z</time>
      </trkpt>
      <trkpt lat="47.87115" lon="6.92056">
        <ele>953</ele>
        <time>2026-05-09T19:46:16.052Z</time>
      </trkpt>
      <trkpt lat="47.87114" lon="6.92057">
        <ele>953</ele>
        <time>2026-05-09T19:46:17.053Z</time>
      </trkpt>
      <trkpt lat="47.87114" lon="6.92058">
        <ele>953</ele>
        <time>2026-05-09T19:46:18.052Z</time>
      </trkpt>
      <trkpt lat="47.87113" lon="6.92058">
        <ele>953</ele>
        <time>2026-05-09T19:46:19.052Z</time>
      </trkpt>
      <trkpt lat="47.87112" lon="6.92059">
        <ele>953</ele>
        <time>2026-05-09T19:46:20.052Z</time>
      </trkpt>
      <trkpt lat="47.87112" lon="6.9206">
        <ele>954</ele>
        <time>2026-05-09T19:46:21.053Z</time>
      </trkpt>
      <trkpt lat="47.87111" lon="6.92061">
        <ele>954</ele>
        <time>2026-05-09T19:46:22.052Z</time>
      </trkpt>
      <trkpt lat="47.87111" lon="6.92062">
        <ele>954</ele>
        <time>2026-05-09T19:46:23.052Z</time>
      </trkpt>
      <trkpt lat="47.87111" lon="6.92062">
        <ele>954</ele>
        <time>2026-05-09T19:46:24.053Z</time>
      </trkpt>
      <trkpt lat="47.8711" lon="6.92063">
        <ele>954</ele>
        <time>2026-05-09T19:46:25.052Z</time>
      </trkpt>
      <trkpt lat="47.8711" lon="6.92063">
        <ele>953</ele>
        <time>2026-05-09T19:46:26.053Z</time>
      </trkpt>
      <trkpt lat="47.87109" lon="6.92064">
        <ele>953</ele>
        <time>2026-05-09T19:46:27.052Z</time>
      </trkpt>
      <trkpt lat="47.87108" lon="6.92064">
        <ele>952</ele>
        <time>2026-05-09T19:46:28.053Z</time>
      </trkpt>
      <trkpt lat="47.87108" lon="6.92064">
        <ele>952</ele>
        <time>2026-05-09T19:46:29.052Z</time>
      </trkpt>
      <trkpt lat="47.87108" lon="6.92065">
        <ele>952</ele>
        <time>2026-05-09T19:46:30.052Z</time>
      </trkpt>
      <trkpt lat="47.87108" lon="6.92065">
        <ele>952</ele>
        <time>2026-05-09T19:46:31.053Z</time>
      </trkpt>
      <trkpt lat="47.87107" lon="6.92065">
        <ele>952</ele>
        <time>2026-05-09T19:46:32.052Z</time>
      </trkpt>
      <trkpt lat="47.87106" lon="6.92067">
        <ele>952</ele>
        <time>2026-05-09T19:46:33.053Z</time>
      </trkpt>
      <trkpt lat="47.87105" lon="6.92069">
        <ele>952</ele>
        <time>2026-05-09T19:46:34.052Z</time>
      </trkpt>
      <trkpt lat="47.87103" lon="6.9207">
        <ele>953</ele>
        <time>2026-05-09T19:46:35.052Z</time>
      </trkpt>
      <trkpt lat="47.87102" lon="6.92072">
        <ele>953</ele>
        <time>2026-05-09T19:46:36.052Z</time>
      </trkpt>
      <trkpt lat="47.87101" lon="6.92073">
        <ele>953</ele>
        <time>2026-05-09T19:46:37.052Z</time>
      </trkpt>
      <trkpt lat="47.87101" lon="6.92073">
        <ele>953</ele>
        <time>2026-05-09T19:46:38.052Z</time>
      </trkpt>
      <trkpt lat="47.87101" lon="6.92073">
        <ele>953</ele>
        <time>2026-05-09T19:46:39.052Z</time>
      </trkpt>
      <trkpt lat="47.87101" lon="6.92073">
        <ele>954</ele>
        <time>2026-05-09T19:46:40.052Z</time>
      </trkpt>
      <trkpt lat="47.87101" lon="6.92073">
        <ele>954</ele>
        <time>2026-05-09T19:46:41.052Z</time>
      </trkpt>
      <trkpt lat="47.871" lon="6.92073">
        <ele>954</ele>
        <time>2026-05-09T19:46:42.053Z</time>
      </trkpt>
      <trkpt lat="47.87098" lon="6.92078">
        <ele>955</ele>
        <time>2026-05-09T19:46:49.211Z</time>
      </trkpt>
      <trkpt lat="47.87097" lon="6.92079">
        <ele>956</ele>
        <time>2026-05-09T19:46:50.212Z</time>
      </trkpt>
      <trkpt lat="47.87097" lon="6.92081">
        <ele>956</ele>
        <time>2026-05-09T19:46:51.212Z</time>
      </trkpt>
      <trkpt lat="47.87096" lon="6.92083">
        <ele>956</ele>
        <time>2026-05-09T19:46:52.211Z</time>
      </trkpt>
      <trkpt lat="47.87095" lon="6.92085">
        <ele>956</ele>
        <time>2026-05-09T19:46:53.211Z</time>
      </trkpt>
      <trkpt lat="47.87094" lon="6.92086">
        <ele>956</ele>
        <time>2026-05-09T19:46:54.211Z</time>
      </trkpt>
      <trkpt lat="47.87094" lon="6.92087">
        <ele>957</ele>
        <time>2026-05-09T19:46:55.212Z</time>
      </trkpt>
      <trkpt lat="47.87093" lon="6.92089">
        <ele>957</ele>
        <time>2026-05-09T19:46:56.211Z</time>
      </trkpt>
      <trkpt lat="47.87092" lon="6.9209">
        <ele>957</ele>
        <time>2026-05-09T19:46:57.212Z</time>
      </trkpt>
      <trkpt lat="47.87091" lon="6.92092">
        <ele>957</ele>
        <time>2026-05-09T19:46:58.211Z</time>
      </trkpt>
      <trkpt lat="47.8709" lon="6.92093">
        <ele>957</ele>
        <time>2026-05-09T19:46:59.211Z</time>
      </trkpt>
      <trkpt lat="47.87089" lon="6.92095">
        <ele>957</ele>
        <time>2026-05-09T19:47:00.211Z</time>
      </trkpt>
      <trkpt lat="47.87088" lon="6.92098">
        <ele>958</ele>
        <time>2026-05-09T19:47:01.212Z</time>
      </trkpt>
      <trkpt lat="47.87086" lon="6.92101">
        <ele>958</ele>
        <time>2026-05-09T19:47:02.211Z</time>
      </trkpt>
      <trkpt lat="47.87085" lon="6.92106">
        <ele>958</ele>
        <time>2026-05-09T19:47:03.211Z</time>
      </trkpt>
      <trkpt lat="47.87084" lon="6.9211">
        <ele>958</ele>
        <time>2026-05-09T19:47:04.211Z</time>
      </trkpt>
      <trkpt lat="47.87084" lon="6.9211">
        <ele>959</ele>
        <time>2026-05-09T19:47:05.212Z</time>
      </trkpt>
      <trkpt lat="47.87084" lon="6.92111">
        <ele>959</ele>
        <time>2026-05-09T19:47:06.211Z</time>
      </trkpt>
      <trkpt lat="47.87084" lon="6.92111">
        <ele>959</ele>
        <time>2026-05-09T19:47:07.211Z</time>
      </trkpt>
      <trkpt lat="47.87083" lon="6.92113">
        <ele>958</ele>
        <time>2026-05-09T19:47:08.212Z</time>
      </trkpt>
      <trkpt lat="47.87081" lon="6.92114">
        <ele>958</ele>
        <time>2026-05-09T19:47:09.212Z</time>
      </trkpt>
      <trkpt lat="47.8708" lon="6.92116">
        <ele>957</ele>
        <time>2026-05-09T19:47:10.211Z</time>
      </trkpt>
      <trkpt lat="47.87079" lon="6.92117">
        <ele>956</ele>
        <time>2026-05-09T19:47:11.212Z</time>
      </trkpt>
      <trkpt lat="47.87078" lon="6.92118">
        <ele>956</ele>
        <time>2026-05-09T19:47:12.211Z</time>
      </trkpt>
      <trkpt lat="47.87076" lon="6.92119">
        <ele>955</ele>
        <time>2026-05-09T19:47:13.211Z</time>
      </trkpt>
      <trkpt lat="47.87075" lon="6.92121">
        <ele>954</ele>
        <time>2026-05-09T19:47:14.211Z</time>
      </trkpt>
      <trkpt lat="47.87074" lon="6.92122">
        <ele>953</ele>
        <time>2026-05-09T19:47:15.212Z</time>
      </trkpt>
      <trkpt lat="47.87073" lon="6.92124">
        <ele>952</ele>
        <time>2026-05-09T19:47:16.211Z</time>
      </trkpt>
      <trkpt lat="47.87073" lon="6.92125">
        <ele>951</ele>
        <time>2026-05-09T19:47:17.211Z</time>
      </trkpt>
      <trkpt lat="47.87072" lon="6.92126">
        <ele>951</ele>
        <time>2026-05-09T19:47:18.211Z</time>
      </trkpt>
      <trkpt lat="47.87071" lon="6.92128">
        <ele>950</ele>
        <time>2026-05-09T19:47:19.211Z</time>
      </trkpt>
      <trkpt lat="47.8707" lon="6.92129">
        <ele>950</ele>
        <time>2026-05-09T19:47:20.212Z</time>
      </trkpt>
      <trkpt lat="47.8707" lon="6.92131">
        <ele>950</ele>
        <time>2026-05-09T19:47:21.211Z</time>
      </trkpt>
      <trkpt lat="47.87069" lon="6.92132">
        <ele>949</ele>
        <time>2026-05-09T19:47:22.211Z</time>
      </trkpt>
      <trkpt lat="47.87068" lon="6.92134">
        <ele>949</ele>
        <time>2026-05-09T19:47:23.211Z</time>
      </trkpt>
      <trkpt lat="47.87065" lon="6.92136">
        <ele>949</ele>
        <time>2026-05-09T19:47:24.212Z</time>
      </trkpt>
      <trkpt lat="47.87063" lon="6.92139">
        <ele>948</ele>
        <time>2026-05-09T19:47:25.211Z</time>
      </trkpt>
      <trkpt lat="47.8706" lon="6.92142">
        <ele>947</ele>
        <time>2026-05-09T19:47:26.211Z</time>
      </trkpt>
      <trkpt lat="47.87058" lon="6.92145">
        <ele>947</ele>
        <time>2026-05-09T19:47:27.212Z</time>
      </trkpt>
      <trkpt lat="47.87055" lon="6.92147">
        <ele>946</ele>
        <time>2026-05-09T19:47:28.212Z</time>
      </trkpt>
      <trkpt lat="47.87053" lon="6.9215">
        <ele>946</ele>
        <time>2026-05-09T19:47:29.211Z</time>
      </trkpt>
      <trkpt lat="47.87052" lon="6.92152">
        <ele>946</ele>
        <time>2026-05-09T19:47:30.212Z</time>
      </trkpt>
      <trkpt lat="47.87051" lon="6.92155">
        <ele>946</ele>
        <time>2026-05-09T19:47:31.212Z</time>
      </trkpt>
      <trkpt lat="47.8705" lon="6.92157">
        <ele>946</ele>
        <time>2026-05-09T19:47:32.211Z</time>
      </trkpt>
      <trkpt lat="47.87049" lon="6.92159">
        <ele>946</ele>
        <time>2026-05-09T19:47:33.212Z</time>
      </trkpt>
      <trkpt lat="47.87049" lon="6.9216">
        <ele>946</ele>
        <time>2026-05-09T19:47:34.212Z</time>
      </trkpt>
      <trkpt lat="47.87048" lon="6.92162">
        <ele>946</ele>
        <time>2026-05-09T19:47:35.212Z</time>
      </trkpt>
      <trkpt lat="47.87047" lon="6.92163">
        <ele>946</ele>
        <time>2026-05-09T19:47:36.211Z</time>
      </trkpt>
      <trkpt lat="47.87046" lon="6.92165">
        <ele>946</ele>
        <time>2026-05-09T19:47:37.211Z</time>
      </trkpt>
      <trkpt lat="47.87045" lon="6.92167">
        <ele>946</ele>
        <time>2026-05-09T19:47:38.212Z</time>
      </trkpt>
      <trkpt lat="47.87044" lon="6.92168">
        <ele>946</ele>
        <time>2026-05-09T19:47:39.211Z</time>
      </trkpt>
      <trkpt lat="47.87044" lon="6.9217">
        <ele>946</ele>
        <time>2026-05-09T19:47:40.211Z</time>
      </trkpt>
      <trkpt lat="47.87043" lon="6.92172">
        <ele>946</ele>
        <time>2026-05-09T19:47:41.212Z</time>
      </trkpt>
      <trkpt lat="47.87041" lon="6.92173">
        <ele>946</ele>
        <time>2026-05-09T19:47:42.212Z</time>
      </trkpt>
      <trkpt lat="47.8704" lon="6.92174">
        <ele>946</ele>
        <time>2026-05-09T19:47:43.211Z</time>
      </trkpt>
      <trkpt lat="47.87039" lon="6.92175">
        <ele>947</ele>
        <time>2026-05-09T19:47:44.212Z</time>
      </trkpt>
      <trkpt lat="47.87038" lon="6.92177">
        <ele>947</ele>
        <time>2026-05-09T19:47:45.212Z</time>
      </trkpt>
      <trkpt lat="47.87038" lon="6.92178">
        <ele>947</ele>
        <time>2026-05-09T19:47:46.211Z</time>
      </trkpt>
      <trkpt lat="47.87038" lon="6.92179">
        <ele>948</ele>
        <time>2026-05-09T19:47:47.211Z</time>
      </trkpt>
      <trkpt lat="47.87037" lon="6.92181">
        <ele>948</ele>
        <time>2026-05-09T19:47:48.212Z</time>
      </trkpt>
      <trkpt lat="47.87037" lon="6.92182">
        <ele>948</ele>
        <time>2026-05-09T19:47:49.211Z</time>
      </trkpt>
      <trkpt lat="47.87036" lon="6.92184">
        <ele>948</ele>
        <time>2026-05-09T19:47:50.212Z</time>
      </trkpt>
      <trkpt lat="47.87035" lon="6.92186">
        <ele>948</ele>
        <time>2026-05-09T19:47:51.211Z</time>
      </trkpt>
      <trkpt lat="47.87035" lon="6.92187">
        <ele>949</ele>
        <time>2026-05-09T19:47:52.212Z</time>
      </trkpt>
      <trkpt lat="47.87035" lon="6.92188">
        <ele>949</ele>
        <time>2026-05-09T19:47:53.211Z</time>
      </trkpt>
      <trkpt lat="47.87034" lon="6.92189">
        <ele>949</ele>
        <time>2026-05-09T19:47:54.212Z</time>
      </trkpt>
      <trkpt lat="47.87034" lon="6.9219">
        <ele>950</ele>
        <time>2026-05-09T19:47:55.212Z</time>
      </trkpt>
      <trkpt lat="47.87033" lon="6.92191">
        <ele>950</ele>
        <time>2026-05-09T19:47:56.211Z</time>
      </trkpt>
      <trkpt lat="47.87032" lon="6.92192">
        <ele>950</ele>
        <time>2026-05-09T19:47:57.212Z</time>
      </trkpt>
      <trkpt lat="47.87032" lon="6.92194">
        <ele>950</ele>
        <time>2026-05-09T19:47:58.212Z</time>
      </trkpt>
      <trkpt lat="47.87032" lon="6.92196">
        <ele>950</ele>
        <time>2026-05-09T19:47:59.212Z</time>
      </trkpt>
      <trkpt lat="47.87032" lon="6.92197">
        <ele>950</ele>
        <time>2026-05-09T19:48:00.211Z</time>
      </trkpt>
      <trkpt lat="47.87031" lon="6.92199">
        <ele>950</ele>
        <time>2026-05-09T19:48:01.211Z</time>
      </trkpt>
      <trkpt lat="47.87029" lon="6.92201">
        <ele>950</ele>
        <time>2026-05-09T19:48:02.211Z</time>
      </trkpt>
      <trkpt lat="47.87028" lon="6.92203">
        <ele>951</ele>
        <time>2026-05-09T19:48:03.212Z</time>
      </trkpt>
      <trkpt lat="47.87027" lon="6.92205">
        <ele>951</ele>
        <time>2026-05-09T19:48:04.211Z</time>
      </trkpt>
      <trkpt lat="47.87026" lon="6.92207">
        <ele>951</ele>
        <time>2026-05-09T19:48:05.211Z</time>
      </trkpt>
      <trkpt lat="47.87025" lon="6.92208">
        <ele>951</ele>
        <time>2026-05-09T19:48:06.211Z</time>
      </trkpt>
      <trkpt lat="47.87024" lon="6.9221">
        <ele>951</ele>
        <time>2026-05-09T19:48:07.212Z</time>
      </trkpt>
      <trkpt lat="47.87024" lon="6.92212">
        <ele>951</ele>
        <time>2026-05-09T19:48:08.211Z</time>
      </trkpt>
      <trkpt lat="47.87024" lon="6.92214">
        <ele>951</ele>
        <time>2026-05-09T19:48:09.212Z</time>
      </trkpt>
      <trkpt lat="47.87023" lon="6.92215">
        <ele>951</ele>
        <time>2026-05-09T19:48:10.211Z</time>
      </trkpt>
      <trkpt lat="47.87022" lon="6.92217">
        <ele>951</ele>
        <time>2026-05-09T19:48:11.212Z</time>
      </trkpt>
      <trkpt lat="47.87022" lon="6.92218">
        <ele>951</ele>
        <time>2026-05-09T19:48:12.211Z</time>
      </trkpt>
      <trkpt lat="47.87021" lon="6.92219">
        <ele>952</ele>
        <time>2026-05-09T19:48:13.212Z</time>
      </trkpt>
      <trkpt lat="47.8702" lon="6.92221">
        <ele>952</ele>
        <time>2026-05-09T19:48:14.211Z</time>
      </trkpt>
      <trkpt lat="47.87019" lon="6.92222">
        <ele>952</ele>
        <time>2026-05-09T19:48:15.211Z</time>
      </trkpt>
      <trkpt lat="47.87018" lon="6.92225">
        <ele>952</ele>
        <time>2026-05-09T19:48:16.211Z</time>
      </trkpt>
      <trkpt lat="47.87017" lon="6.92226">
        <ele>952</ele>
        <time>2026-05-09T19:48:17.212Z</time>
      </trkpt>
      <trkpt lat="47.87016" lon="6.92228">
        <ele>952</ele>
        <time>2026-05-09T19:48:18.211Z</time>
      </trkpt>
      <trkpt lat="47.87016" lon="6.9223">
        <ele>953</ele>
        <time>2026-05-09T19:48:19.212Z</time>
      </trkpt>
      <trkpt lat="47.87016" lon="6.92231">
        <ele>953</ele>
        <time>2026-05-09T19:48:20.211Z</time>
      </trkpt>
      <trkpt lat="47.87015" lon="6.92233">
        <ele>953</ele>
        <time>2026-05-09T19:48:21.212Z</time>
      </trkpt>
      <trkpt lat="47.87015" lon="6.92234">
        <ele>953</ele>
        <time>2026-05-09T19:48:22.211Z</time>
      </trkpt>
      <trkpt lat="47.87014" lon="6.92236">
        <ele>953</ele>
        <time>2026-05-09T19:48:23.211Z</time>
      </trkpt>
      <trkpt lat="47.87013" lon="6.92237">
        <ele>953</ele>
        <time>2026-05-09T19:48:24.212Z</time>
      </trkpt>
      <trkpt lat="47.87011" lon="6.92238">
        <ele>953</ele>
        <time>2026-05-09T19:48:25.211Z</time>
      </trkpt>
      <trkpt lat="47.8701" lon="6.9224">
        <ele>953</ele>
        <time>2026-05-09T19:48:26.212Z</time>
      </trkpt>
      <trkpt lat="47.8701" lon="6.92242">
        <ele>953</ele>
        <time>2026-05-09T19:48:27.211Z</time>
      </trkpt>
      <trkpt lat="47.87009" lon="6.92243">
        <ele>953</ele>
        <time>2026-05-09T19:48:28.212Z</time>
      </trkpt>
      <trkpt lat="47.87009" lon="6.92245">
        <ele>953</ele>
        <time>2026-05-09T19:48:29.211Z</time>
      </trkpt>
      <trkpt lat="47.87009" lon="6.92246">
        <ele>953</ele>
        <time>2026-05-09T19:48:30.211Z</time>
      </trkpt>
      <trkpt lat="47.87008" lon="6.92248">
        <ele>953</ele>
        <time>2026-05-09T19:48:31.211Z</time>
      </trkpt>
      <trkpt lat="47.87008" lon="6.9225">
        <ele>953</ele>
        <time>2026-05-09T19:48:32.211Z</time>
      </trkpt>
      <trkpt lat="47.87008" lon="6.92252">
        <ele>953</ele>
        <time>2026-05-09T19:48:33.212Z</time>
      </trkpt>
      <trkpt lat="47.87008" lon="6.92254">
        <ele>953</ele>
        <time>2026-05-09T19:48:34.211Z</time>
      </trkpt>
      <trkpt lat="47.87007" lon="6.92256">
        <ele>954</ele>
        <time>2026-05-09T19:48:35.212Z</time>
      </trkpt>
      <trkpt lat="47.87006" lon="6.92257">
        <ele>955</ele>
        <time>2026-05-09T19:48:36.211Z</time>
      </trkpt>
      <trkpt lat="47.87006" lon="6.92257">
        <ele>955</ele>
        <time>2026-05-09T19:48:37.211Z</time>
      </trkpt>
      <trkpt lat="47.87006" lon="6.92257">
        <ele>955</ele>
        <time>2026-05-09T19:48:38.212Z</time>
      </trkpt>
      <trkpt lat="47.87005" lon="6.92257">
        <ele>956</ele>
        <time>2026-05-09T19:48:39.211Z</time>
      </trkpt>
      <trkpt lat="47.87005" lon="6.92258">
        <ele>956</ele>
        <time>2026-05-09T19:48:40.212Z</time>
      </trkpt>
      <trkpt lat="47.86999" lon="6.92257">
        <ele>954</ele>
        <time>2026-05-09T19:48:50.378Z</time>
      </trkpt>
      <trkpt lat="47.86999" lon="6.92256">
        <ele>954</ele>
        <time>2026-05-09T19:48:51.378Z</time>
      </trkpt>
      <trkpt lat="47.86999" lon="6.92256">
        <ele>954</ele>
        <time>2026-05-09T19:48:52.378Z</time>
      </trkpt>
      <trkpt lat="47.86998" lon="6.92256">
        <ele>953</ele>
        <time>2026-05-09T19:48:53.378Z</time>
      </trkpt>
      <trkpt lat="47.86998" lon="6.92256">
        <ele>953</ele>
        <time>2026-05-09T19:48:54.379Z</time>
      </trkpt>
      <trkpt lat="47.86998" lon="6.92256">
        <ele>952</ele>
        <time>2026-05-09T19:48:55.378Z</time>
      </trkpt>
      <trkpt lat="47.86998" lon="6.92255">
        <ele>948</ele>
        <time>2026-05-09T19:49:01.857Z</time>
      </trkpt>
      <trkpt lat="47.86998" lon="6.92254">
        <ele>947</ele>
        <time>2026-05-09T19:49:02.857Z</time>
      </trkpt>
      <trkpt lat="47.86998" lon="6.92254">
        <ele>946</ele>
        <time>2026-05-09T19:49:03.856Z</time>
      </trkpt>
      <trkpt lat="47.86999" lon="6.92254">
        <ele>946</ele>
        <time>2026-05-09T19:49:04.856Z</time>
      </trkpt>
      <trkpt lat="47.86999" lon="6.92253">
        <ele>945</ele>
        <time>2026-05-09T19:49:05.857Z</time>
      </trkpt>
      <trkpt lat="47.86999" lon="6.92253">
        <ele>944</ele>
        <time>2026-05-09T19:49:06.857Z</time>
      </trkpt>
      <trkpt lat="47.86999" lon="6.92253">
        <ele>944</ele>
        <time>2026-05-09T19:49:17.078Z</time>
      </trkpt>
      <trkpt lat="47.86999" lon="6.92252">
        <ele>945</ele>
        <time>2026-05-09T19:49:18.078Z</time>
      </trkpt>
      <trkpt lat="47.86999" lon="6.92252">
        <ele>946</ele>
        <time>2026-05-09T19:49:19.079Z</time>
      </trkpt>
      <trkpt lat="47.86999" lon="6.92252">
        <ele>946</ele>
        <time>2026-05-09T19:49:20.078Z</time>
      </trkpt>
      <trkpt lat="47.86999" lon="6.92252">
        <ele>947</ele>
        <time>2026-05-09T19:49:21.079Z</time>
      </trkpt>
      <trkpt lat="47.87" lon="6.92252">
        <ele>948</ele>
        <time>2026-05-09T19:49:22.079Z</time>
      </trkpt>
      <trkpt lat="47.86999" lon="6.92251">
        <ele>949</ele>
        <time>2026-05-09T19:49:23.079Z</time>
      </trkpt>
      <trkpt lat="47.86999" lon="6.92251">
        <ele>949</ele>
        <time>2026-05-09T19:49:24.079Z</time>
      </trkpt>
      <trkpt lat="47.87" lon="6.92252">
        <ele>950</ele>
        <time>2026-05-09T19:49:25.078Z</time>
      </trkpt>
      <trkpt lat="47.87" lon="6.92252">
        <ele>950</ele>
        <time>2026-05-09T19:49:26.079Z</time>
      </trkpt>
      <trkpt lat="47.87" lon="6.92252">
        <ele>951</ele>
        <time>2026-05-09T19:49:27.078Z</time>
      </trkpt>
      <trkpt lat="47.87" lon="6.92252">
        <ele>951</ele>
        <time>2026-05-09T19:49:28.078Z</time>
      </trkpt>
      <trkpt lat="47.86999" lon="6.92251">
        <ele>951</ele>
        <time>2026-05-09T19:49:29.079Z</time>
      </trkpt>
      <trkpt lat="47.86999" lon="6.9225">
        <ele>952</ele>
        <time>2026-05-09T19:49:30.078Z</time>
      </trkpt>
      <trkpt lat="47.86999" lon="6.9225">
        <ele>952</ele>
        <time>2026-05-09T19:49:31.078Z</time>
      </trkpt>
      <trkpt lat="47.86998" lon="6.9225">
        <ele>952</ele>
        <time>2026-05-09T19:49:32.078Z</time>
      </trkpt>
      <trkpt lat="47.86997" lon="6.92249">
        <ele>953</ele>
        <time>2026-05-09T19:49:33.078Z</time>
      </trkpt>
      <trkpt lat="47.86996" lon="6.92249">
        <ele>953</ele>
        <time>2026-05-09T19:49:34.078Z</time>
      </trkpt>
      <trkpt lat="47.86994" lon="6.92249">
        <ele>953</ele>
        <time>2026-05-09T19:49:35.078Z</time>
      </trkpt>
      <trkpt lat="47.86993" lon="6.92248">
        <ele>953</ele>
        <time>2026-05-09T19:49:36.078Z</time>
      </trkpt>
      <trkpt lat="47.86992" lon="6.92247">
        <ele>953</ele>
        <time>2026-05-09T19:49:37.078Z</time>
      </trkpt>
      <trkpt lat="47.86991" lon="6.92246">
        <ele>953</ele>
        <time>2026-05-09T19:49:38.078Z</time>
      </trkpt>
      <trkpt lat="47.8699" lon="6.92245">
        <ele>953</ele>
        <time>2026-05-09T19:49:39.079Z</time>
      </trkpt>
      <trkpt lat="47.86989" lon="6.92244">
        <ele>953</ele>
        <time>2026-05-09T19:49:40.078Z</time>
      </trkpt>
      <trkpt lat="47.86988" lon="6.92243">
        <ele>952</ele>
        <time>2026-05-09T19:49:41.078Z</time>
      </trkpt>
      <trkpt lat="47.86987" lon="6.92242">
        <ele>952</ele>
        <time>2026-05-09T19:49:42.078Z</time>
      </trkpt>
      <trkpt lat="47.86985" lon="6.92242">
        <ele>952</ele>
        <time>2026-05-09T19:49:43.078Z</time>
      </trkpt>
      <trkpt lat="47.86984" lon="6.92241">
        <ele>952</ele>
        <time>2026-05-09T19:49:44.078Z</time>
      </trkpt>
      <trkpt lat="47.86984" lon="6.92239">
        <ele>952</ele>
        <time>2026-05-09T19:49:45.078Z</time>
      </trkpt>
      <trkpt lat="47.86984" lon="6.92239">
        <ele>952</ele>
        <time>2026-05-09T19:49:46.078Z</time>
      </trkpt>
      <trkpt lat="47.86985" lon="6.92237">
        <ele>953</ele>
        <time>2026-05-09T19:49:47.078Z</time>
      </trkpt>
      <trkpt lat="47.86986" lon="6.92237">
        <ele>953</ele>
        <time>2026-05-09T19:49:48.078Z</time>
      </trkpt>
      <trkpt lat="47.86987" lon="6.92237">
        <ele>953</ele>
        <time>2026-05-09T19:49:49.078Z</time>
      </trkpt>
      <trkpt lat="47.86988" lon="6.92236">
        <ele>952</ele>
        <time>2026-05-09T19:49:50.078Z</time>
      </trkpt>
      <trkpt lat="47.86989" lon="6.92236">
        <ele>952</ele>
        <time>2026-05-09T19:49:51.078Z</time>
      </trkpt>
      <trkpt lat="47.8699" lon="6.92236">
        <ele>952</ele>
        <time>2026-05-09T19:49:52.078Z</time>
      </trkpt>
      <trkpt lat="47.86991" lon="6.92235">
        <ele>952</ele>
        <time>2026-05-09T19:49:53.078Z</time>
      </trkpt>
      <trkpt lat="47.86991" lon="6.92234">
        <ele>952</ele>
        <time>2026-05-09T19:49:54.078Z</time>
      </trkpt>
      <trkpt lat="47.86992" lon="6.92233">
        <ele>952</ele>
        <time>2026-05-09T19:49:55.078Z</time>
      </trkpt>
      <trkpt lat="47.86993" lon="6.92232">
        <ele>951</ele>
        <time>2026-05-09T19:49:56.079Z</time>
      </trkpt>
      <trkpt lat="47.86995" lon="6.92232">
        <ele>951</ele>
        <time>2026-05-09T19:49:57.079Z</time>
      </trkpt>
      <trkpt lat="47.86996" lon="6.92232">
        <ele>951</ele>
        <time>2026-05-09T19:49:58.078Z</time>
      </trkpt>
      <trkpt lat="47.86997" lon="6.92231">
        <ele>950</ele>
        <time>2026-05-09T19:49:59.078Z</time>
      </trkpt>
      <trkpt lat="47.86997" lon="6.92231">
        <ele>950</ele>
        <time>2026-05-09T19:50:00.079Z</time>
      </trkpt>
      <trkpt lat="47.86997" lon="6.9223">
        <ele>950</ele>
        <time>2026-05-09T19:50:01.078Z</time>
      </trkpt>
      <trkpt lat="47.86997" lon="6.9223">
        <ele>950</ele>
        <time>2026-05-09T19:50:02.078Z</time>
      </trkpt>
      <trkpt lat="47.86996" lon="6.92231">
        <ele>951</ele>
        <time>2026-05-09T19:50:03.078Z</time>
      </trkpt>
      <trkpt lat="47.86994" lon="6.92231">
        <ele>951</ele>
        <time>2026-05-09T19:50:04.078Z</time>
      </trkpt>
      <trkpt lat="47.86992" lon="6.92232">
        <ele>951</ele>
        <time>2026-05-09T19:50:05.078Z</time>
      </trkpt>
      <trkpt lat="47.86991" lon="6.92232">
        <ele>952</ele>
        <time>2026-05-09T19:50:06.078Z</time>
      </trkpt>
      <trkpt lat="47.86989" lon="6.92232">
        <ele>952</ele>
        <time>2026-05-09T19:50:07.078Z</time>
      </trkpt>
      <trkpt lat="47.86988" lon="6.92231">
        <ele>953</ele>
        <time>2026-05-09T19:50:08.078Z</time>
      </trkpt>
      <trkpt lat="47.86987" lon="6.9223">
        <ele>953</ele>
        <time>2026-05-09T19:50:09.078Z</time>
      </trkpt>
      <trkpt lat="47.86986" lon="6.9223">
        <ele>953</ele>
        <time>2026-05-09T19:50:10.079Z</time>
      </trkpt>
      <trkpt lat="47.86984" lon="6.92231">
        <ele>954</ele>
        <time>2026-05-09T19:50:11.078Z</time>
      </trkpt>
      <trkpt lat="47.86982" lon="6.92232">
        <ele>954</ele>
        <time>2026-05-09T19:50:12.078Z</time>
      </trkpt>
      <trkpt lat="47.86981" lon="6.92232">
        <ele>955</ele>
        <time>2026-05-09T19:50:13.078Z</time>
      </trkpt>
      <trkpt lat="47.8698" lon="6.92231">
        <ele>955</ele>
        <time>2026-05-09T19:50:14.079Z</time>
      </trkpt>
      <trkpt lat="47.86979" lon="6.92231">
        <ele>955</ele>
        <time>2026-05-09T19:50:15.078Z</time>
      </trkpt>
      <trkpt lat="47.86978" lon="6.9223">
        <ele>955</ele>
        <time>2026-05-09T19:50:16.079Z</time>
      </trkpt>
      <trkpt lat="47.86977" lon="6.92229">
        <ele>955</ele>
        <time>2026-05-09T19:50:17.079Z</time>
      </trkpt>
      <trkpt lat="47.86976" lon="6.92228">
        <ele>955</ele>
        <time>2026-05-09T19:50:18.079Z</time>
      </trkpt>
      <trkpt lat="47.86976" lon="6.92226">
        <ele>955</ele>
        <time>2026-05-09T19:50:19.078Z</time>
      </trkpt>
      <trkpt lat="47.86976" lon="6.92226">
        <ele>955</ele>
        <time>2026-05-09T19:50:20.078Z</time>
      </trkpt>
      <trkpt lat="47.86976" lon="6.92226">
        <ele>954</ele>
        <time>2026-05-09T19:50:21.078Z</time>
      </trkpt>
      <trkpt lat="47.86977" lon="6.92224">
        <ele>954</ele>
        <time>2026-05-09T19:50:22.079Z</time>
      </trkpt>
      <trkpt lat="47.86978" lon="6.92223">
        <ele>954</ele>
        <time>2026-05-09T19:50:23.078Z</time>
      </trkpt>
      <trkpt lat="47.86979" lon="6.92223">
        <ele>954</ele>
        <time>2026-05-09T19:50:24.078Z</time>
      </trkpt>
      <trkpt lat="47.86979" lon="6.92223">
        <ele>954</ele>
        <time>2026-05-09T19:50:25.078Z</time>
      </trkpt>
      <trkpt lat="47.86979" lon="6.92223">
        <ele>953</ele>
        <time>2026-05-09T19:50:26.078Z</time>
      </trkpt>
      <trkpt lat="47.86981" lon="6.92223">
        <ele>949</ele>
        <time>2026-05-09T19:50:35.211Z</time>
      </trkpt>
      <trkpt lat="47.86982" lon="6.92222">
        <ele>950</ele>
        <time>2026-05-09T19:50:36.211Z</time>
      </trkpt>
      <trkpt lat="47.86982" lon="6.92222">
        <ele>950</ele>
        <time>2026-05-09T19:50:37.211Z</time>
      </trkpt>
      <trkpt lat="47.86983" lon="6.92221">
        <ele>951</ele>
        <time>2026-05-09T19:50:38.211Z</time>
      </trkpt>
      <trkpt lat="47.86983" lon="6.92221">
        <ele>951</ele>
        <time>2026-05-09T19:50:39.212Z</time>
      </trkpt>
      <trkpt lat="47.86983" lon="6.92221">
        <ele>952</ele>
        <time>2026-05-09T19:50:40.212Z</time>
      </trkpt>
      <trkpt lat="47.86983" lon="6.92221">
        <ele>952</ele>
        <time>2026-05-09T19:50:41.212Z</time>
      </trkpt>
      <trkpt lat="47.86983" lon="6.9222">
        <ele>952</ele>
        <time>2026-05-09T19:50:42.212Z</time>
      </trkpt>
      <trkpt lat="47.86982" lon="6.9222">
        <ele>953</ele>
        <time>2026-05-09T19:50:43.212Z</time>
      </trkpt>
      <trkpt lat="47.86981" lon="6.92219">
        <ele>953</ele>
        <time>2026-05-09T19:50:44.211Z</time>
      </trkpt>
      <trkpt lat="47.86981" lon="6.92218">
        <ele>953</ele>
        <time>2026-05-09T19:50:45.211Z</time>
      </trkpt>
      <trkpt lat="47.8698" lon="6.92217">
        <ele>954</ele>
        <time>2026-05-09T19:50:46.212Z</time>
      </trkpt>
      <trkpt lat="47.86979" lon="6.92216">
        <ele>955</ele>
        <time>2026-05-09T19:50:47.211Z</time>
      </trkpt>
      <trkpt lat="47.86979" lon="6.92216">
        <ele>955</ele>
        <time>2026-05-09T19:50:48.212Z</time>
      </trkpt>
      <trkpt lat="47.86978" lon="6.92215">
        <ele>956</ele>
        <time>2026-05-09T19:50:49.212Z</time>
      </trkpt>
      <trkpt lat="47.86977" lon="6.92214">
        <ele>956</ele>
        <time>2026-05-09T19:50:50.211Z</time>
      </trkpt>
      <trkpt lat="47.86977" lon="6.92213">
        <ele>957</ele>
        <time>2026-05-09T19:50:51.211Z</time>
      </trkpt>
      <trkpt lat="47.86976" lon="6.92211">
        <ele>958</ele>
        <time>2026-05-09T19:50:52.211Z</time>
      </trkpt>
      <trkpt lat="47.86975" lon="6.9221">
        <ele>958</ele>
        <time>2026-05-09T19:50:53.211Z</time>
      </trkpt>
      <trkpt lat="47.86975" lon="6.92209">
        <ele>959</ele>
        <time>2026-05-09T19:50:54.212Z</time>
      </trkpt>
      <trkpt lat="47.86975" lon="6.92207">
        <ele>959</ele>
        <time>2026-05-09T19:50:55.211Z</time>
      </trkpt>
      <trkpt lat="47.86974" lon="6.92206">
        <ele>959</ele>
        <time>2026-05-09T19:50:56.212Z</time>
      </trkpt>
      <trkpt lat="47.86974" lon="6.92205">
        <ele>960</ele>
        <time>2026-05-09T19:50:57.211Z</time>
      </trkpt>
      <trkpt lat="47.86974" lon="6.92203">
        <ele>960</ele>
        <time>2026-05-09T19:50:58.211Z</time>
      </trkpt>
      <trkpt lat="47.86974" lon="6.92202">
        <ele>961</ele>
        <time>2026-05-09T19:50:59.211Z</time>
      </trkpt>
      <trkpt lat="47.86974" lon="6.922">
        <ele>961</ele>
        <time>2026-05-09T19:51:00.212Z</time>
      </trkpt>
      <trkpt lat="47.86974" lon="6.92199">
        <ele>962</ele>
        <time>2026-05-09T19:51:01.212Z</time>
      </trkpt>
      <trkpt lat="47.86974" lon="6.92197">
        <ele>963</ele>
        <time>2026-05-09T19:51:02.211Z</time>
      </trkpt>
      <trkpt lat="47.86975" lon="6.92196">
        <ele>963</ele>
        <time>2026-05-09T19:51:03.212Z</time>
      </trkpt>
      <trkpt lat="47.86974" lon="6.92195">
        <ele>963</ele>
        <time>2026-05-09T19:51:04.211Z</time>
      </trkpt>
      <trkpt lat="47.86974" lon="6.92194">
        <ele>964</ele>
        <time>2026-05-09T19:51:05.212Z</time>
      </trkpt>
      <trkpt lat="47.86973" lon="6.92192">
        <ele>964</ele>
        <time>2026-05-09T19:51:06.211Z</time>
      </trkpt>
      <trkpt lat="47.86973" lon="6.92191">
        <ele>964</ele>
        <time>2026-05-09T19:51:07.212Z</time>
      </trkpt>
      <trkpt lat="47.86973" lon="6.92189">
        <ele>964</ele>
        <time>2026-05-09T19:51:08.212Z</time>
      </trkpt>
      <trkpt lat="47.86972" lon="6.92188">
        <ele>964</ele>
        <time>2026-05-09T19:51:09.211Z</time>
      </trkpt>
      <trkpt lat="47.86972" lon="6.92187">
        <ele>964</ele>
        <time>2026-05-09T19:51:10.211Z</time>
      </trkpt>
      <trkpt lat="47.86971" lon="6.92186">
        <ele>964</ele>
        <time>2026-05-09T19:51:11.212Z</time>
      </trkpt>
      <trkpt lat="47.86971" lon="6.92184">
        <ele>964</ele>
        <time>2026-05-09T19:51:12.211Z</time>
      </trkpt>
      <trkpt lat="47.8697" lon="6.92183">
        <ele>965</ele>
        <time>2026-05-09T19:51:13.211Z</time>
      </trkpt>
      <trkpt lat="47.8697" lon="6.92182">
        <ele>965</ele>
        <time>2026-05-09T19:51:14.212Z</time>
      </trkpt>
      <trkpt lat="47.8697" lon="6.92182">
        <ele>965</ele>
        <time>2026-05-09T19:51:15.211Z</time>
      </trkpt>
      <trkpt lat="47.8697" lon="6.92181">
        <ele>965</ele>
        <time>2026-05-09T19:51:16.212Z</time>
      </trkpt>
      <trkpt lat="47.8697" lon="6.9218">
        <ele>965</ele>
        <time>2026-05-09T19:51:17.211Z</time>
      </trkpt>
      <trkpt lat="47.8697" lon="6.9218">
        <ele>965</ele>
        <time>2026-05-09T19:51:18.211Z</time>
      </trkpt>
      <trkpt lat="47.86971" lon="6.92179">
        <ele>965</ele>
        <time>2026-05-09T19:51:19.211Z</time>
      </trkpt>
      <trkpt lat="47.86971" lon="6.92179">
        <ele>965</ele>
        <time>2026-05-09T19:51:20.212Z</time>
      </trkpt>
      <trkpt lat="47.86968" lon="6.92174">
        <ele>964</ele>
        <time>2026-05-09T19:51:28.458Z</time>
      </trkpt>
      <trkpt lat="47.86968" lon="6.92173">
        <ele>964</ele>
        <time>2026-05-09T19:51:29.458Z</time>
      </trkpt>
      <trkpt lat="47.86968" lon="6.92171">
        <ele>964</ele>
        <time>2026-05-09T19:51:30.457Z</time>
      </trkpt>
      <trkpt lat="47.86967" lon="6.9217">
        <ele>964</ele>
        <time>2026-05-09T19:51:31.458Z</time>
      </trkpt>
      <trkpt lat="47.86967" lon="6.92168">
        <ele>964</ele>
        <time>2026-05-09T19:51:32.457Z</time>
      </trkpt>
      <trkpt lat="47.86967" lon="6.92166">
        <ele>964</ele>
        <time>2026-05-09T19:51:33.457Z</time>
      </trkpt>
      <trkpt lat="47.86967" lon="6.92164">
        <ele>963</ele>
        <time>2026-05-09T19:51:34.458Z</time>
      </trkpt>
      <trkpt lat="47.86967" lon="6.92162">
        <ele>963</ele>
        <time>2026-05-09T19:51:35.457Z</time>
      </trkpt>
      <trkpt lat="47.86967" lon="6.9216">
        <ele>963</ele>
        <time>2026-05-09T19:51:36.458Z</time>
      </trkpt>
      <trkpt lat="47.86967" lon="6.92158">
        <ele>963</ele>
        <time>2026-05-09T19:51:37.458Z</time>
      </trkpt>
      <trkpt lat="47.86966" lon="6.92157">
        <ele>962</ele>
        <time>2026-05-09T19:51:38.457Z</time>
      </trkpt>
      <trkpt lat="47.86965" lon="6.92155">
        <ele>962</ele>
        <time>2026-05-09T19:51:39.457Z</time>
      </trkpt>
      <trkpt lat="47.86965" lon="6.92153">
        <ele>962</ele>
        <time>2026-05-09T19:51:40.457Z</time>
      </trkpt>
      <trkpt lat="47.86965" lon="6.92152">
        <ele>962</ele>
        <time>2026-05-09T19:51:41.457Z</time>
      </trkpt>
      <trkpt lat="47.86965" lon="6.9215">
        <ele>963</ele>
        <time>2026-05-09T19:51:42.457Z</time>
      </trkpt>
      <trkpt lat="47.86965" lon="6.92149">
        <ele>963</ele>
        <time>2026-05-09T19:51:43.458Z</time>
      </trkpt>
      <trkpt lat="47.86965" lon="6.92147">
        <ele>963</ele>
        <time>2026-05-09T19:51:44.458Z</time>
      </trkpt>
      <trkpt lat="47.86964" lon="6.92145">
        <ele>964</ele>
        <time>2026-05-09T19:51:45.458Z</time>
      </trkpt>
      <trkpt lat="47.86964" lon="6.92144">
        <ele>964</ele>
        <time>2026-05-09T19:51:46.458Z</time>
      </trkpt>
      <trkpt lat="47.86964" lon="6.92142">
        <ele>964</ele>
        <time>2026-05-09T19:51:47.458Z</time>
      </trkpt>
      <trkpt lat="47.86964" lon="6.92141">
        <ele>965</ele>
        <time>2026-05-09T19:51:48.458Z</time>
      </trkpt>
      <trkpt lat="47.86964" lon="6.92139">
        <ele>965</ele>
        <time>2026-05-09T19:51:49.457Z</time>
      </trkpt>
      <trkpt lat="47.86963" lon="6.92138">
        <ele>965</ele>
        <time>2026-05-09T19:51:50.457Z</time>
      </trkpt>
      <trkpt lat="47.86963" lon="6.92136">
        <ele>965</ele>
        <time>2026-05-09T19:51:51.457Z</time>
      </trkpt>
      <trkpt lat="47.86962" lon="6.92135">
        <ele>965</ele>
        <time>2026-05-09T19:51:52.458Z</time>
      </trkpt>
      <trkpt lat="47.86961" lon="6.92133">
        <ele>965</ele>
        <time>2026-05-09T19:51:53.458Z</time>
      </trkpt>
      <trkpt lat="47.86961" lon="6.92132">
        <ele>966</ele>
        <time>2026-05-09T19:51:54.457Z</time>
      </trkpt>
      <trkpt lat="47.86961" lon="6.92129">
        <ele>966</ele>
        <time>2026-05-09T19:51:55.457Z</time>
      </trkpt>
      <trkpt lat="47.86961" lon="6.92128">
        <ele>966</ele>
        <time>2026-05-09T19:51:56.458Z</time>
      </trkpt>
      <trkpt lat="47.86961" lon="6.92126">
        <ele>966</ele>
        <time>2026-05-09T19:51:57.458Z</time>
      </trkpt>
      <trkpt lat="47.86961" lon="6.92124">
        <ele>967</ele>
        <time>2026-05-09T19:51:58.457Z</time>
      </trkpt>
      <trkpt lat="47.86961" lon="6.92122">
        <ele>967</ele>
        <time>2026-05-09T19:51:59.457Z</time>
      </trkpt>
      <trkpt lat="47.86961" lon="6.92118">
        <ele>967</ele>
        <time>2026-05-09T19:52:00.457Z</time>
      </trkpt>
      <trkpt lat="47.86958" lon="6.92116">
        <ele>968</ele>
        <time>2026-05-09T19:52:01.457Z</time>
      </trkpt>
      <trkpt lat="47.86957" lon="6.92114">
        <ele>968</ele>
        <time>2026-05-09T19:52:02.457Z</time>
      </trkpt>
      <trkpt lat="47.86957" lon="6.92111">
        <ele>969</ele>
        <time>2026-05-09T19:52:03.457Z</time>
      </trkpt>
      <trkpt lat="47.86957" lon="6.92109">
        <ele>969</ele>
        <time>2026-05-09T19:52:04.458Z</time>
      </trkpt>
      <trkpt lat="47.86957" lon="6.92107">
        <ele>970</ele>
        <time>2026-05-09T19:52:05.458Z</time>
      </trkpt>
      <trkpt lat="47.86956" lon="6.92106">
        <ele>971</ele>
        <time>2026-05-09T19:52:06.458Z</time>
      </trkpt>
      <trkpt lat="47.86957" lon="6.92104">
        <ele>971</ele>
        <time>2026-05-09T19:52:07.458Z</time>
      </trkpt>
      <trkpt lat="47.86957" lon="6.92102">
        <ele>972</ele>
        <time>2026-05-09T19:52:08.458Z</time>
      </trkpt>
      <trkpt lat="47.86957" lon="6.921">
        <ele>972</ele>
        <time>2026-05-09T19:52:09.458Z</time>
      </trkpt>
      <trkpt lat="47.86957" lon="6.92098">
        <ele>971</ele>
        <time>2026-05-09T19:52:10.457Z</time>
      </trkpt>
      <trkpt lat="47.86956" lon="6.92097">
        <ele>971</ele>
        <time>2026-05-09T19:52:11.457Z</time>
      </trkpt>
      <trkpt lat="47.86956" lon="6.92095">
        <ele>971</ele>
        <time>2026-05-09T19:52:12.457Z</time>
      </trkpt>
      <trkpt lat="47.86956" lon="6.92093">
        <ele>971</ele>
        <time>2026-05-09T19:52:13.457Z</time>
      </trkpt>
      <trkpt lat="47.86956" lon="6.92091">
        <ele>971</ele>
        <time>2026-05-09T19:52:14.457Z</time>
      </trkpt>
      <trkpt lat="47.86956" lon="6.9209">
        <ele>971</ele>
        <time>2026-05-09T19:52:15.457Z</time>
      </trkpt>
      <trkpt lat="47.86956" lon="6.92089">
        <ele>971</ele>
        <time>2026-05-09T19:52:16.457Z</time>
      </trkpt>
      <trkpt lat="47.86956" lon="6.92087">
        <ele>971</ele>
        <time>2026-05-09T19:52:17.457Z</time>
      </trkpt>
      <trkpt lat="47.86956" lon="6.92085">
        <ele>971</ele>
        <time>2026-05-09T19:52:18.457Z</time>
      </trkpt>
      <trkpt lat="47.86955" lon="6.92083">
        <ele>971</ele>
        <time>2026-05-09T19:52:19.458Z</time>
      </trkpt>
      <trkpt lat="47.86955" lon="6.92082">
        <ele>971</ele>
        <time>2026-05-09T19:52:20.457Z</time>
      </trkpt>
      <trkpt lat="47.86954" lon="6.9208">
        <ele>971</ele>
        <time>2026-05-09T19:52:21.457Z</time>
      </trkpt>
      <trkpt lat="47.86954" lon="6.92079">
        <ele>971</ele>
        <time>2026-05-09T19:52:22.457Z</time>
      </trkpt>
      <trkpt lat="47.86954" lon="6.92078">
        <ele>972</ele>
        <time>2026-05-09T19:52:23.457Z</time>
      </trkpt>
      <trkpt lat="47.86954" lon="6.92077">
        <ele>972</ele>
        <time>2026-05-09T19:52:24.457Z</time>
      </trkpt>
      <trkpt lat="47.86954" lon="6.92075">
        <ele>972</ele>
        <time>2026-05-09T19:52:25.457Z</time>
      </trkpt>
      <trkpt lat="47.86955" lon="6.92072">
        <ele>972</ele>
        <time>2026-05-09T19:52:26.457Z</time>
      </trkpt>
      <trkpt lat="47.86955" lon="6.9207">
        <ele>972</ele>
        <time>2026-05-09T19:52:27.457Z</time>
      </trkpt>
      <trkpt lat="47.86955" lon="6.92068">
        <ele>973</ele>
        <time>2026-05-09T19:52:28.457Z</time>
      </trkpt>
      <trkpt lat="47.86955" lon="6.92067">
        <ele>973</ele>
        <time>2026-05-09T19:52:29.458Z</time>
      </trkpt>
      <trkpt lat="47.86955" lon="6.92066">
        <ele>973</ele>
        <time>2026-05-09T19:52:30.458Z</time>
      </trkpt>
      <trkpt lat="47.86954" lon="6.92065">
        <ele>973</ele>
        <time>2026-05-09T19:52:31.457Z</time>
      </trkpt>
      <trkpt lat="47.86954" lon="6.92064">
        <ele>974</ele>
        <time>2026-05-09T19:52:32.457Z</time>
      </trkpt>
      <trkpt lat="47.86954" lon="6.92063">
        <ele>974</ele>
        <time>2026-05-09T19:52:33.458Z</time>
      </trkpt>
      <trkpt lat="47.86954" lon="6.92061">
        <ele>974</ele>
        <time>2026-05-09T19:52:34.457Z</time>
      </trkpt>
      <trkpt lat="47.86955" lon="6.92058">
        <ele>975</ele>
        <time>2026-05-09T19:52:35.457Z</time>
      </trkpt>
      <trkpt lat="47.86956" lon="6.92054">
        <ele>975</ele>
        <time>2026-05-09T19:52:36.457Z</time>
      </trkpt>
      <trkpt lat="47.86958" lon="6.9205">
        <ele>975</ele>
        <time>2026-05-09T19:52:37.457Z</time>
      </trkpt>
      <trkpt lat="47.86958" lon="6.9205">
        <ele>975</ele>
        <time>2026-05-09T19:52:38.458Z</time>
      </trkpt>
      <trkpt lat="47.86955" lon="6.92047">
        <ele>975</ele>
        <time>2026-05-09T19:52:39.458Z</time>
      </trkpt>
      <trkpt lat="47.86954" lon="6.92046">
        <ele>976</ele>
        <time>2026-05-09T19:52:40.458Z</time>
      </trkpt>
      <trkpt lat="47.86952" lon="6.92045">
        <ele>976</ele>
        <time>2026-05-09T19:52:41.458Z</time>
      </trkpt>
      <trkpt lat="47.86949" lon="6.92044">
        <ele>976</ele>
        <time>2026-05-09T19:52:42.458Z</time>
      </trkpt>
      <trkpt lat="47.86947" lon="6.92041">
        <ele>976</ele>
        <time>2026-05-09T19:52:43.457Z</time>
      </trkpt>
      <trkpt lat="47.86947" lon="6.9204">
        <ele>977</ele>
        <time>2026-05-09T19:52:44.457Z</time>
      </trkpt>
      <trkpt lat="47.86947" lon="6.92038">
        <ele>977</ele>
        <time>2026-05-09T19:52:45.457Z</time>
      </trkpt>
      <trkpt lat="47.86947" lon="6.92036">
        <ele>977</ele>
        <time>2026-05-09T19:52:46.457Z</time>
      </trkpt>
      <trkpt lat="47.86947" lon="6.92035">
        <ele>977</ele>
        <time>2026-05-09T19:52:47.458Z</time>
      </trkpt>
      <trkpt lat="47.86946" lon="6.92034">
        <ele>977</ele>
        <time>2026-05-09T19:52:48.458Z</time>
      </trkpt>
      <trkpt lat="47.86947" lon="6.92034">
        <ele>977</ele>
        <time>2026-05-09T19:52:49.458Z</time>
      </trkpt>
      <trkpt lat="47.86945" lon="6.92034">
        <ele>976</ele>
        <time>2026-05-09T19:52:50.457Z</time>
      </trkpt>
      <trkpt lat="47.86945" lon="6.92033">
        <ele>976</ele>
        <time>2026-05-09T19:52:51.457Z</time>
      </trkpt>
      <trkpt lat="47.86945" lon="6.92032">
        <ele>976</ele>
        <time>2026-05-09T19:52:52.457Z</time>
      </trkpt>
      <trkpt lat="47.86946" lon="6.9203">
        <ele>976</ele>
        <time>2026-05-09T19:52:53.458Z</time>
      </trkpt>
      <trkpt lat="47.86946" lon="6.9203">
        <ele>976</ele>
        <time>2026-05-09T19:52:54.457Z</time>
      </trkpt>
      <trkpt lat="47.86946" lon="6.9203">
        <ele>976</ele>
        <time>2026-05-09T19:52:55.457Z</time>
      </trkpt>
      <trkpt lat="47.86947" lon="6.9203">
        <ele>976</ele>
        <time>2026-05-09T19:52:56.457Z</time>
      </trkpt>
      <trkpt lat="47.86949" lon="6.92033">
        <ele>976</ele>
        <time>2026-05-09T19:52:57.457Z</time>
      </trkpt>
      <trkpt lat="47.86951" lon="6.92036">
        <ele>977</ele>
        <time>2026-05-09T19:52:58.457Z</time>
      </trkpt>
      <trkpt lat="47.86952" lon="6.92037">
        <ele>977</ele>
        <time>2026-05-09T19:52:59.457Z</time>
      </trkpt>
      <trkpt lat="47.86953" lon="6.92037">
        <ele>977</ele>
        <time>2026-05-09T19:53:00.457Z</time>
      </trkpt>
      <trkpt lat="47.86955" lon="6.92039">
        <ele>977</ele>
        <time>2026-05-09T19:53:01.457Z</time>
      </trkpt>
      <trkpt lat="47.86955" lon="6.92041">
        <ele>977</ele>
        <time>2026-05-09T19:53:02.457Z</time>
      </trkpt>
      <trkpt lat="47.86957" lon="6.92043">
        <ele>977</ele>
        <time>2026-05-09T19:53:03.458Z</time>
      </trkpt>
      <trkpt lat="47.86959" lon="6.92045">
        <ele>977</ele>
        <time>2026-05-09T19:53:04.457Z</time>
      </trkpt>
      <trkpt lat="47.8696" lon="6.92047">
        <ele>977</ele>
        <time>2026-05-09T19:53:05.457Z</time>
      </trkpt>
      <trkpt lat="47.8696" lon="6.92048">
        <ele>977</ele>
        <time>2026-05-09T19:53:06.457Z</time>
      </trkpt>
      <trkpt lat="47.86961" lon="6.92049">
        <ele>977</ele>
        <time>2026-05-09T19:53:07.458Z</time>
      </trkpt>
      <trkpt lat="47.86962" lon="6.9205">
        <ele>977</ele>
        <time>2026-05-09T19:53:08.457Z</time>
      </trkpt>
      <trkpt lat="47.86963" lon="6.92051">
        <ele>977</ele>
        <time>2026-05-09T19:53:09.457Z</time>
      </trkpt>
      <trkpt lat="47.86964" lon="6.92051">
        <ele>978</ele>
        <time>2026-05-09T19:53:10.457Z</time>
      </trkpt>
      <trkpt lat="47.86964" lon="6.92051">
        <ele>978</ele>
        <time>2026-05-09T19:53:11.457Z</time>
      </trkpt>
      <trkpt lat="47.86965" lon="6.92052">
        <ele>979</ele>
        <time>2026-05-09T19:53:12.457Z</time>
      </trkpt>
      <trkpt lat="47.86966" lon="6.92053">
        <ele>979</ele>
        <time>2026-05-09T19:53:13.457Z</time>
      </trkpt>
      <trkpt lat="47.86966" lon="6.92053">
        <ele>980</ele>
        <time>2026-05-09T19:53:14.457Z</time>
      </trkpt>
      <trkpt lat="47.86967" lon="6.92053">
        <ele>980</ele>
        <time>2026-05-09T19:53:15.457Z</time>
      </trkpt>
      <trkpt lat="47.86967" lon="6.92052">
        <ele>981</ele>
        <time>2026-05-09T19:53:16.458Z</time>
      </trkpt>
      <trkpt lat="47.86966" lon="6.9205">
        <ele>981</ele>
        <time>2026-05-09T19:53:17.457Z</time>
      </trkpt>
      <trkpt lat="47.86966" lon="6.9205">
        <ele>981</ele>
        <time>2026-05-09T19:53:18.458Z</time>
      </trkpt>
      <trkpt lat="47.86966" lon="6.92049">
        <ele>982</ele>
        <time>2026-05-09T19:53:19.457Z</time>
      </trkpt>
      <trkpt lat="47.86966" lon="6.92048">
        <ele>982</ele>
        <time>2026-05-09T19:53:20.457Z</time>
      </trkpt>
      <trkpt lat="47.86966" lon="6.92048">
        <ele>982</ele>
        <time>2026-05-09T19:53:21.457Z</time>
      </trkpt>
      <trkpt lat="47.86965" lon="6.92042">
        <ele>984</ele>
        <time>2026-05-09T19:53:30.377Z</time>
      </trkpt>
      <trkpt lat="47.86964" lon="6.92042">
        <ele>984</ele>
        <time>2026-05-09T19:53:31.378Z</time>
      </trkpt>
      <trkpt lat="47.86964" lon="6.92042">
        <ele>985</ele>
        <time>2026-05-09T19:53:32.377Z</time>
      </trkpt>
      <trkpt lat="47.86964" lon="6.92042">
        <ele>985</ele>
        <time>2026-05-09T19:53:33.377Z</time>
      </trkpt>
      <trkpt lat="47.86965" lon="6.92041">
        <ele>987</ele>
        <time>2026-05-09T19:53:49.734Z</time>
      </trkpt>
      <trkpt lat="47.86965" lon="6.92041">
        <ele>987</ele>
        <time>2026-05-09T19:53:50.734Z</time>
      </trkpt>
      <trkpt lat="47.86965" lon="6.92041">
        <ele>988</ele>
        <time>2026-05-09T19:53:51.735Z</time>
      </trkpt>
      <trkpt lat="47.86965" lon="6.92041">
        <ele>988</ele>
        <time>2026-05-09T19:53:52.734Z</time>
      </trkpt>
      <trkpt lat="47.86965" lon="6.92041">
        <ele>988</ele>
        <time>2026-05-09T19:53:53.735Z</time>
      </trkpt>
      <trkpt lat="47.86965" lon="6.92041">
        <ele>989</ele>
        <time>2026-05-09T19:53:54.735Z</time>
      </trkpt>
      <trkpt lat="47.86965" lon="6.92041">
        <ele>989</ele>
        <time>2026-05-09T19:53:55.734Z</time>
      </trkpt>
      <trkpt lat="47.86965" lon="6.92041">
        <ele>989</ele>
        <time>2026-05-09T19:53:56.735Z</time>
      </trkpt>
      <trkpt lat="47.86965" lon="6.92041">
        <ele>989</ele>
        <time>2026-05-09T19:53:57.734Z</time>
      </trkpt>
      <trkpt lat="47.86965" lon="6.92042">
        <ele>989</ele>
        <time>2026-05-09T19:53:58.734Z</time>
      </trkpt>
      <trkpt lat="47.86965" lon="6.92042">
        <ele>989</ele>
        <time>2026-05-09T19:53:59.734Z</time>
      </trkpt>
      <trkpt lat="47.86965" lon="6.92042">
        <ele>990</ele>
        <time>2026-05-09T19:54:00.735Z</time>
      </trkpt>
      <trkpt lat="47.86965" lon="6.92042">
        <ele>990</ele>
        <time>2026-05-09T19:54:01.735Z</time>
      </trkpt>
      <trkpt lat="47.86965" lon="6.92042">
        <ele>990</ele>
        <time>2026-05-09T19:54:02.735Z</time>
      </trkpt>
      <trkpt lat="47.86965" lon="6.92042">
        <ele>989</ele>
        <time>2026-05-09T19:54:03.735Z</time>
      </trkpt>
      <trkpt lat="47.86965" lon="6.92041">
        <ele>989</ele>
        <time>2026-05-09T19:54:04.735Z</time>
      </trkpt>
      <trkpt lat="47.86964" lon="6.92041">
        <ele>988</ele>
        <time>2026-05-09T19:54:05.734Z</time>
      </trkpt>
      <trkpt lat="47.86964" lon="6.92041">
        <ele>988</ele>
        <time>2026-05-09T19:54:06.735Z</time>
      </trkpt>
      <trkpt lat="47.86964" lon="6.92041">
        <ele>988</ele>
        <time>2026-05-09T19:54:07.734Z</time>
      </trkpt>
      <trkpt lat="47.86964" lon="6.92041">
        <ele>987</ele>
        <time>2026-05-09T19:54:08.735Z</time>
      </trkpt>
      <trkpt lat="47.86963" lon="6.92041">
        <ele>987</ele>
        <time>2026-05-09T19:54:09.735Z</time>
      </trkpt>
      <trkpt lat="47.86963" lon="6.92041">
        <ele>987</ele>
        <time>2026-05-09T19:54:10.734Z</time>
      </trkpt>
      <trkpt lat="47.86963" lon="6.9204">
        <ele>987</ele>
        <time>2026-05-09T19:54:11.735Z</time>
      </trkpt>
      <trkpt lat="47.86963" lon="6.92038">
        <ele>987</ele>
        <time>2026-05-09T19:54:12.734Z</time>
      </trkpt>
      <trkpt lat="47.86963" lon="6.92036">
        <ele>987</ele>
        <time>2026-05-09T19:54:13.734Z</time>
      </trkpt>
      <trkpt lat="47.86963" lon="6.92035">
        <ele>987</ele>
        <time>2026-05-09T19:54:14.734Z</time>
      </trkpt>
      <trkpt lat="47.86963" lon="6.92033">
        <ele>987</ele>
        <time>2026-05-09T19:54:15.734Z</time>
      </trkpt>
      <trkpt lat="47.86963" lon="6.92032">
        <ele>986</ele>
        <time>2026-05-09T19:54:16.735Z</time>
      </trkpt>
      <trkpt lat="47.86963" lon="6.9203">
        <ele>986</ele>
        <time>2026-05-09T19:54:17.734Z</time>
      </trkpt>
      <trkpt lat="47.86963" lon="6.92028">
        <ele>986</ele>
        <time>2026-05-09T19:54:18.734Z</time>
      </trkpt>
      <trkpt lat="47.86962" lon="6.92026">
        <ele>986</ele>
        <time>2026-05-09T19:54:19.734Z</time>
      </trkpt>
      <trkpt lat="47.86962" lon="6.92025">
        <ele>986</ele>
        <time>2026-05-09T19:54:20.734Z</time>
      </trkpt>
      <trkpt lat="47.86962" lon="6.92024">
        <ele>986</ele>
        <time>2026-05-09T19:54:21.735Z</time>
      </trkpt>
      <trkpt lat="47.86962" lon="6.92022">
        <ele>986</ele>
        <time>2026-05-09T19:54:22.734Z</time>
      </trkpt>
      <trkpt lat="47.86962" lon="6.92021">
        <ele>986</ele>
        <time>2026-05-09T19:54:23.734Z</time>
      </trkpt>
      <trkpt lat="47.86962" lon="6.92019">
        <ele>986</ele>
        <time>2026-05-09T19:54:24.734Z</time>
      </trkpt>
      <trkpt lat="47.86961" lon="6.92017">
        <ele>987</ele>
        <time>2026-05-09T19:54:25.734Z</time>
      </trkpt>
      <trkpt lat="47.8696" lon="6.92015">
        <ele>987</ele>
        <time>2026-05-09T19:54:26.735Z</time>
      </trkpt>
      <trkpt lat="47.8696" lon="6.92012">
        <ele>987</ele>
        <time>2026-05-09T19:54:27.735Z</time>
      </trkpt>
      <trkpt lat="47.8696" lon="6.92011">
        <ele>988</ele>
        <time>2026-05-09T19:54:28.735Z</time>
      </trkpt>
      <trkpt lat="47.8696" lon="6.92009">
        <ele>988</ele>
        <time>2026-05-09T19:54:29.735Z</time>
      </trkpt>
      <trkpt lat="47.8696" lon="6.92007">
        <ele>989</ele>
        <time>2026-05-09T19:54:30.734Z</time>
      </trkpt>
      <trkpt lat="47.8696" lon="6.92006">
        <ele>989</ele>
        <time>2026-05-09T19:54:31.735Z</time>
      </trkpt>
      <trkpt lat="47.86959" lon="6.92004">
        <ele>989</ele>
        <time>2026-05-09T19:54:32.734Z</time>
      </trkpt>
      <trkpt lat="47.86959" lon="6.92002">
        <ele>989</ele>
        <time>2026-05-09T19:54:33.735Z</time>
      </trkpt>
      <trkpt lat="47.86959" lon="6.92">
        <ele>990</ele>
        <time>2026-05-09T19:54:34.734Z</time>
      </trkpt>
      <trkpt lat="47.86959" lon="6.91999">
        <ele>990</ele>
        <time>2026-05-09T19:54:35.735Z</time>
      </trkpt>
      <trkpt lat="47.86959" lon="6.91997">
        <ele>990</ele>
        <time>2026-05-09T19:54:36.735Z</time>
      </trkpt>
      <trkpt lat="47.86959" lon="6.91995">
        <ele>990</ele>
        <time>2026-05-09T19:54:37.734Z</time>
      </trkpt>
      <trkpt lat="47.86959" lon="6.91994">
        <ele>990</ele>
        <time>2026-05-09T19:54:38.735Z</time>
      </trkpt>
      <trkpt lat="47.86959" lon="6.91992">
        <ele>991</ele>
        <time>2026-05-09T19:54:39.734Z</time>
      </trkpt>
      <trkpt lat="47.86959" lon="6.91991">
        <ele>991</ele>
        <time>2026-05-09T19:54:40.734Z</time>
      </trkpt>
      <trkpt lat="47.86959" lon="6.9199">
        <ele>991</ele>
        <time>2026-05-09T19:54:41.735Z</time>
      </trkpt>
      <trkpt lat="47.86958" lon="6.9199">
        <ele>991</ele>
        <time>2026-05-09T19:54:42.734Z</time>
      </trkpt>
      <trkpt lat="47.86958" lon="6.91988">
        <ele>991</ele>
        <time>2026-05-09T19:54:43.735Z</time>
      </trkpt>
      <trkpt lat="47.86958" lon="6.91986">
        <ele>991</ele>
        <time>2026-05-09T19:54:44.734Z</time>
      </trkpt>
      <trkpt lat="47.86959" lon="6.91984">
        <ele>991</ele>
        <time>2026-05-09T19:54:45.734Z</time>
      </trkpt>
      <trkpt lat="47.86959" lon="6.91983">
        <ele>991</ele>
        <time>2026-05-09T19:54:46.734Z</time>
      </trkpt>
      <trkpt lat="47.86958" lon="6.9198">
        <ele>991</ele>
        <time>2026-05-09T19:54:47.735Z</time>
      </trkpt>
      <trkpt lat="47.86957" lon="6.91979">
        <ele>992</ele>
        <time>2026-05-09T19:54:48.735Z</time>
      </trkpt>
      <trkpt lat="47.86957" lon="6.91977">
        <ele>992</ele>
        <time>2026-05-09T19:54:49.734Z</time>
      </trkpt>
      <trkpt lat="47.86956" lon="6.91976">
        <ele>992</ele>
        <time>2026-05-09T19:54:50.735Z</time>
      </trkpt>
      <trkpt lat="47.86955" lon="6.91975">
        <ele>992</ele>
        <time>2026-05-09T19:54:51.734Z</time>
      </trkpt>
      <trkpt lat="47.86955" lon="6.91973">
        <ele>992</ele>
        <time>2026-05-09T19:54:52.735Z</time>
      </trkpt>
      <trkpt lat="47.86954" lon="6.91971">
        <ele>992</ele>
        <time>2026-05-09T19:54:53.735Z</time>
      </trkpt>
      <trkpt lat="47.86954" lon="6.91968">
        <ele>993</ele>
        <time>2026-05-09T19:54:54.734Z</time>
      </trkpt>
      <trkpt lat="47.86954" lon="6.91966">
        <ele>993</ele>
        <time>2026-05-09T19:54:55.735Z</time>
      </trkpt>
      <trkpt lat="47.86954" lon="6.91964">
        <ele>994</ele>
        <time>2026-05-09T19:54:56.734Z</time>
      </trkpt>
      <trkpt lat="47.86955" lon="6.91962">
        <ele>994</ele>
        <time>2026-05-09T19:54:57.735Z</time>
      </trkpt>
      <trkpt lat="47.86955" lon="6.9196">
        <ele>994</ele>
        <time>2026-05-09T19:54:58.734Z</time>
      </trkpt>
      <trkpt lat="47.86956" lon="6.91959">
        <ele>995</ele>
        <time>2026-05-09T19:54:59.735Z</time>
      </trkpt>
      <trkpt lat="47.86956" lon="6.91957">
        <ele>995</ele>
        <time>2026-05-09T19:55:00.735Z</time>
      </trkpt>
      <trkpt lat="47.86956" lon="6.91956">
        <ele>995</ele>
        <time>2026-05-09T19:55:01.734Z</time>
      </trkpt>
      <trkpt lat="47.86956" lon="6.91955">
        <ele>995</ele>
        <time>2026-05-09T19:55:02.734Z</time>
      </trkpt>
      <trkpt lat="47.86957" lon="6.91953">
        <ele>995</ele>
        <time>2026-05-09T19:55:03.734Z</time>
      </trkpt>
      <trkpt lat="47.86957" lon="6.91951">
        <ele>995</ele>
        <time>2026-05-09T19:55:04.734Z</time>
      </trkpt>
      <trkpt lat="47.86958" lon="6.9195">
        <ele>994</ele>
        <time>2026-05-09T19:55:05.735Z</time>
      </trkpt>
      <trkpt lat="47.86958" lon="6.91948">
        <ele>994</ele>
        <time>2026-05-09T19:55:06.734Z</time>
      </trkpt>
      <trkpt lat="47.86958" lon="6.91947">
        <ele>994</ele>
        <time>2026-05-09T19:55:07.734Z</time>
      </trkpt>
      <trkpt lat="47.86959" lon="6.91945">
        <ele>994</ele>
        <time>2026-05-09T19:55:08.734Z</time>
      </trkpt>
      <trkpt lat="47.86959" lon="6.91943">
        <ele>994</ele>
        <time>2026-05-09T19:55:09.735Z</time>
      </trkpt>
      <trkpt lat="47.86959" lon="6.9194">
        <ele>994</ele>
        <time>2026-05-09T19:55:10.735Z</time>
      </trkpt>
      <trkpt lat="47.86958" lon="6.91939">
        <ele>994</ele>
        <time>2026-05-09T19:55:11.735Z</time>
      </trkpt>
      <trkpt lat="47.86958" lon="6.91938">
        <ele>994</ele>
        <time>2026-05-09T19:55:12.734Z</time>
      </trkpt>
      <trkpt lat="47.86958" lon="6.91937">
        <ele>994</ele>
        <time>2026-05-09T19:55:13.735Z</time>
      </trkpt>
      <trkpt lat="47.86959" lon="6.91935">
        <ele>993</ele>
        <time>2026-05-09T19:55:14.735Z</time>
      </trkpt>
      <trkpt lat="47.8696" lon="6.91933">
        <ele>993</ele>
        <time>2026-05-09T19:55:15.734Z</time>
      </trkpt>
      <trkpt lat="47.8696" lon="6.91931">
        <ele>993</ele>
        <time>2026-05-09T19:55:16.734Z</time>
      </trkpt>
      <trkpt lat="47.8696" lon="6.91929">
        <ele>993</ele>
        <time>2026-05-09T19:55:17.734Z</time>
      </trkpt>
      <trkpt lat="47.86961" lon="6.91927">
        <ele>993</ele>
        <time>2026-05-09T19:55:18.735Z</time>
      </trkpt>
      <trkpt lat="47.86961" lon="6.91925">
        <ele>993</ele>
        <time>2026-05-09T19:55:19.735Z</time>
      </trkpt>
      <trkpt lat="47.86961" lon="6.91924">
        <ele>993</ele>
        <time>2026-05-09T19:55:20.734Z</time>
      </trkpt>
      <trkpt lat="47.86961" lon="6.91922">
        <ele>993</ele>
        <time>2026-05-09T19:55:21.734Z</time>
      </trkpt>
      <trkpt lat="47.86961" lon="6.9192">
        <ele>993</ele>
        <time>2026-05-09T19:55:22.734Z</time>
      </trkpt>
      <trkpt lat="47.86961" lon="6.91918">
        <ele>993</ele>
        <time>2026-05-09T19:55:23.735Z</time>
      </trkpt>
      <trkpt lat="47.86961" lon="6.91917">
        <ele>993</ele>
        <time>2026-05-09T19:55:24.735Z</time>
      </trkpt>
      <trkpt lat="47.8696" lon="6.91916">
        <ele>993</ele>
        <time>2026-05-09T19:55:25.734Z</time>
      </trkpt>
      <trkpt lat="47.8696" lon="6.91915">
        <ele>993</ele>
        <time>2026-05-09T19:55:26.735Z</time>
      </trkpt>
      <trkpt lat="47.8696" lon="6.91914">
        <ele>993</ele>
        <time>2026-05-09T19:55:27.734Z</time>
      </trkpt>
      <trkpt lat="47.86961" lon="6.91912">
        <ele>993</ele>
        <time>2026-05-09T19:55:28.734Z</time>
      </trkpt>
      <trkpt lat="47.86961" lon="6.91912">
        <ele>993</ele>
        <time>2026-05-09T19:55:29.734Z</time>
      </trkpt>
      <trkpt lat="47.86962" lon="6.9191">
        <ele>993</ele>
        <time>2026-05-09T19:55:30.734Z</time>
      </trkpt>
      <trkpt lat="47.86962" lon="6.91909">
        <ele>993</ele>
        <time>2026-05-09T19:55:31.734Z</time>
      </trkpt>
      <trkpt lat="47.86963" lon="6.91909">
        <ele>993</ele>
        <time>2026-05-09T19:55:32.734Z</time>
      </trkpt>
      <trkpt lat="47.86963" lon="6.91908">
        <ele>993</ele>
        <time>2026-05-09T19:55:33.735Z</time>
      </trkpt>
      <trkpt lat="47.86963" lon="6.91907">
        <ele>993</ele>
        <time>2026-05-09T19:55:34.734Z</time>
      </trkpt>
      <trkpt lat="47.86963" lon="6.91907">
        <ele>993</ele>
        <time>2026-05-09T19:55:35.735Z</time>
      </trkpt>
      <trkpt lat="47.86962" lon="6.91906">
        <ele>994</ele>
        <time>2026-05-09T19:55:36.734Z</time>
      </trkpt>
      <trkpt lat="47.86962" lon="6.91906">
        <ele>994</ele>
        <time>2026-05-09T19:55:37.734Z</time>
      </trkpt>
      <trkpt lat="47.86962" lon="6.91906">
        <ele>994</ele>
        <time>2026-05-09T19:55:38.735Z</time>
      </trkpt>
      <trkpt lat="47.86962" lon="6.91904">
        <ele>995</ele>
        <time>2026-05-09T19:55:39.734Z</time>
      </trkpt>
      <trkpt lat="47.86962" lon="6.91903">
        <ele>995</ele>
        <time>2026-05-09T19:55:40.734Z</time>
      </trkpt>
      <trkpt lat="47.86961" lon="6.91902">
        <ele>995</ele>
        <time>2026-05-09T19:55:41.734Z</time>
      </trkpt>
      <trkpt lat="47.86961" lon="6.919">
        <ele>996</ele>
        <time>2026-05-09T19:55:42.734Z</time>
      </trkpt>
      <trkpt lat="47.86961" lon="6.919">
        <ele>996</ele>
        <time>2026-05-09T19:55:43.735Z</time>
      </trkpt>
      <trkpt lat="47.8696" lon="6.91899">
        <ele>996</ele>
        <time>2026-05-09T19:55:44.734Z</time>
      </trkpt>
      <trkpt lat="47.8696" lon="6.91897">
        <ele>996</ele>
        <time>2026-05-09T19:55:45.734Z</time>
      </trkpt>
      <trkpt lat="47.86961" lon="6.91896">
        <ele>997</ele>
        <time>2026-05-09T19:55:46.735Z</time>
      </trkpt>
      <trkpt lat="47.86961" lon="6.91893">
        <ele>997</ele>
        <time>2026-05-09T19:55:47.734Z</time>
      </trkpt>
      <trkpt lat="47.86961" lon="6.91891">
        <ele>997</ele>
        <time>2026-05-09T19:55:48.735Z</time>
      </trkpt>
      <trkpt lat="47.86961" lon="6.91889">
        <ele>997</ele>
        <time>2026-05-09T19:55:49.734Z</time>
      </trkpt>
      <trkpt lat="47.86962" lon="6.91887">
        <ele>997</ele>
        <time>2026-05-09T19:55:50.734Z</time>
      </trkpt>
      <trkpt lat="47.86962" lon="6.91887">
        <ele>997</ele>
        <time>2026-05-09T19:55:51.735Z</time>
      </trkpt>
      <trkpt lat="47.86962" lon="6.91886">
        <ele>997</ele>
        <time>2026-05-09T19:55:52.734Z</time>
      </trkpt>
      <trkpt lat="47.86962" lon="6.91885">
        <ele>997</ele>
        <time>2026-05-09T19:55:53.734Z</time>
      </trkpt>
      <trkpt lat="47.86963" lon="6.91884">
        <ele>998</ele>
        <time>2026-05-09T19:55:54.735Z</time>
      </trkpt>
      <trkpt lat="47.86964" lon="6.91883">
        <ele>998</ele>
        <time>2026-05-09T19:55:55.734Z</time>
      </trkpt>
      <trkpt lat="47.86964" lon="6.91882">
        <ele>998</ele>
        <time>2026-05-09T19:55:56.735Z</time>
      </trkpt>
      <trkpt lat="47.86964" lon="6.91881">
        <ele>998</ele>
        <time>2026-05-09T19:55:57.734Z</time>
      </trkpt>
      <trkpt lat="47.86962" lon="6.91869">
        <ele>998</ele>
        <time>2026-05-09T19:56:04.169Z</time>
      </trkpt>
      <trkpt lat="47.86961" lon="6.91868">
        <ele>998</ele>
        <time>2026-05-09T19:56:05.168Z</time>
      </trkpt>
      <trkpt lat="47.86961" lon="6.91866">
        <ele>997</ele>
        <time>2026-05-09T19:56:06.169Z</time>
      </trkpt>
      <trkpt lat="47.8696" lon="6.91864">
        <ele>997</ele>
        <time>2026-05-09T19:56:07.169Z</time>
      </trkpt>
      <trkpt lat="47.86959" lon="6.91862">
        <ele>997</ele>
        <time>2026-05-09T19:56:08.169Z</time>
      </trkpt>
      <trkpt lat="47.86959" lon="6.91861">
        <ele>997</ele>
        <time>2026-05-09T19:56:09.168Z</time>
      </trkpt>
      <trkpt lat="47.86958" lon="6.9186">
        <ele>997</ele>
        <time>2026-05-09T19:56:10.168Z</time>
      </trkpt>
      <trkpt lat="47.86958" lon="6.91859">
        <ele>997</ele>
        <time>2026-05-09T19:56:11.168Z</time>
      </trkpt>
      <trkpt lat="47.86958" lon="6.91857">
        <ele>997</ele>
        <time>2026-05-09T19:56:12.169Z</time>
      </trkpt>
      <trkpt lat="47.86958" lon="6.91856">
        <ele>997</ele>
        <time>2026-05-09T19:56:13.169Z</time>
      </trkpt>
      <trkpt lat="47.86957" lon="6.91856">
        <ele>997</ele>
        <time>2026-05-09T19:56:14.168Z</time>
      </trkpt>
      <trkpt lat="47.86957" lon="6.91854">
        <ele>998</ele>
        <time>2026-05-09T19:56:15.168Z</time>
      </trkpt>
      <trkpt lat="47.86957" lon="6.91852">
        <ele>998</ele>
        <time>2026-05-09T19:56:16.169Z</time>
      </trkpt>
      <trkpt lat="47.86957" lon="6.91851">
        <ele>998</ele>
        <time>2026-05-09T19:56:17.168Z</time>
      </trkpt>
      <trkpt lat="47.86958" lon="6.91849">
        <ele>998</ele>
        <time>2026-05-09T19:56:18.169Z</time>
      </trkpt>
      <trkpt lat="47.86958" lon="6.91848">
        <ele>998</ele>
        <time>2026-05-09T19:56:19.168Z</time>
      </trkpt>
      <trkpt lat="47.86958" lon="6.91847">
        <ele>999</ele>
        <time>2026-05-09T19:56:20.168Z</time>
      </trkpt>
      <trkpt lat="47.86959" lon="6.91846">
        <ele>999</ele>
        <time>2026-05-09T19:56:21.168Z</time>
      </trkpt>
      <trkpt lat="47.86959" lon="6.91845">
        <ele>999</ele>
        <time>2026-05-09T19:56:22.168Z</time>
      </trkpt>
      <trkpt lat="47.8696" lon="6.91844">
        <ele>999</ele>
        <time>2026-05-09T19:56:23.169Z</time>
      </trkpt>
      <trkpt lat="47.86961" lon="6.91842">
        <ele>1000</ele>
        <time>2026-05-09T19:56:24.169Z</time>
      </trkpt>
      <trkpt lat="47.86962" lon="6.91841">
        <ele>1000</ele>
        <time>2026-05-09T19:56:25.169Z</time>
      </trkpt>
      <trkpt lat="47.86962" lon="6.91841">
        <ele>1000</ele>
        <time>2026-05-09T19:56:26.169Z</time>
      </trkpt>
      <trkpt lat="47.86963" lon="6.9184">
        <ele>1000</ele>
        <time>2026-05-09T19:56:27.168Z</time>
      </trkpt>
      <trkpt lat="47.86962" lon="6.9184">
        <ele>1000</ele>
        <time>2026-05-09T19:56:28.169Z</time>
      </trkpt>
      <trkpt lat="47.86963" lon="6.91838">
        <ele>1000</ele>
        <time>2026-05-09T19:56:29.169Z</time>
      </trkpt>
      <trkpt lat="47.86963" lon="6.91836">
        <ele>999</ele>
        <time>2026-05-09T19:56:30.168Z</time>
      </trkpt>
      <trkpt lat="47.86964" lon="6.91835">
        <ele>999</ele>
        <time>2026-05-09T19:56:31.168Z</time>
      </trkpt>
      <trkpt lat="47.86964" lon="6.91834">
        <ele>999</ele>
        <time>2026-05-09T19:56:32.168Z</time>
      </trkpt>
      <trkpt lat="47.86964" lon="6.91833">
        <ele>999</ele>
        <time>2026-05-09T19:56:33.169Z</time>
      </trkpt>
      <trkpt lat="47.86964" lon="6.91831">
        <ele>999</ele>
        <time>2026-05-09T19:56:34.169Z</time>
      </trkpt>
      <trkpt lat="47.86965" lon="6.91828">
        <ele>999</ele>
        <time>2026-05-09T19:56:35.168Z</time>
      </trkpt>
      <trkpt lat="47.86965" lon="6.91826">
        <ele>999</ele>
        <time>2026-05-09T19:56:36.168Z</time>
      </trkpt>
      <trkpt lat="47.86965" lon="6.91824">
        <ele>999</ele>
        <time>2026-05-09T19:56:37.169Z</time>
      </trkpt>
      <trkpt lat="47.86965" lon="6.91822">
        <ele>999</ele>
        <time>2026-05-09T19:56:38.168Z</time>
      </trkpt>
      <trkpt lat="47.86966" lon="6.9182">
        <ele>999</ele>
        <time>2026-05-09T19:56:39.168Z</time>
      </trkpt>
      <trkpt lat="47.86966" lon="6.91818">
        <ele>999</ele>
        <time>2026-05-09T19:56:40.169Z</time>
      </trkpt>
      <trkpt lat="47.86967" lon="6.91816">
        <ele>999</ele>
        <time>2026-05-09T19:56:41.168Z</time>
      </trkpt>
      <trkpt lat="47.86967" lon="6.91814">
        <ele>999</ele>
        <time>2026-05-09T19:56:42.168Z</time>
      </trkpt>
      <trkpt lat="47.86967" lon="6.91812">
        <ele>999</ele>
        <time>2026-05-09T19:56:43.168Z</time>
      </trkpt>
      <trkpt lat="47.86966" lon="6.9181">
        <ele>999</ele>
        <time>2026-05-09T19:56:44.168Z</time>
      </trkpt>
      <trkpt lat="47.86966" lon="6.91808">
        <ele>999</ele>
        <time>2026-05-09T19:56:45.169Z</time>
      </trkpt>
      <trkpt lat="47.86966" lon="6.91808">
        <ele>1000</ele>
        <time>2026-05-09T19:56:46.169Z</time>
      </trkpt>
      <trkpt lat="47.86966" lon="6.91807">
        <ele>1000</ele>
        <time>2026-05-09T19:56:47.168Z</time>
      </trkpt>
      <trkpt lat="47.86966" lon="6.91805">
        <ele>1001</ele>
        <time>2026-05-09T19:56:48.168Z</time>
      </trkpt>
      <trkpt lat="47.86965" lon="6.91804">
        <ele>1001</ele>
        <time>2026-05-09T19:56:49.168Z</time>
      </trkpt>
      <trkpt lat="47.86965" lon="6.91803">
        <ele>1002</ele>
        <time>2026-05-09T19:56:50.168Z</time>
      </trkpt>
      <trkpt lat="47.86966" lon="6.91802">
        <ele>1002</ele>
        <time>2026-05-09T19:56:51.168Z</time>
      </trkpt>
      <trkpt lat="47.86966" lon="6.918">
        <ele>1003</ele>
        <time>2026-05-09T19:56:52.168Z</time>
      </trkpt>
      <trkpt lat="47.86966" lon="6.91799">
        <ele>1003</ele>
        <time>2026-05-09T19:56:53.168Z</time>
      </trkpt>
      <trkpt lat="47.86965" lon="6.91797">
        <ele>1003</ele>
        <time>2026-05-09T19:56:54.168Z</time>
      </trkpt>
      <trkpt lat="47.86965" lon="6.91795">
        <ele>1004</ele>
        <time>2026-05-09T19:56:55.168Z</time>
      </trkpt>
      <trkpt lat="47.86965" lon="6.91794">
        <ele>1004</ele>
        <time>2026-05-09T19:56:56.168Z</time>
      </trkpt>
      <trkpt lat="47.86965" lon="6.91793">
        <ele>1004</ele>
        <time>2026-05-09T19:56:57.168Z</time>
      </trkpt>
      <trkpt lat="47.86965" lon="6.91792">
        <ele>1004</ele>
        <time>2026-05-09T19:56:58.168Z</time>
      </trkpt>
      <trkpt lat="47.86965" lon="6.91792">
        <ele>1005</ele>
        <time>2026-05-09T19:56:59.168Z</time>
      </trkpt>
      <trkpt lat="47.86965" lon="6.91791">
        <ele>1005</ele>
        <time>2026-05-09T19:57:00.168Z</time>
      </trkpt>
      <trkpt lat="47.86965" lon="6.91789">
        <ele>1005</ele>
        <time>2026-05-09T19:57:01.168Z</time>
      </trkpt>
      <trkpt lat="47.86964" lon="6.91788">
        <ele>1005</ele>
        <time>2026-05-09T19:57:02.168Z</time>
      </trkpt>
      <trkpt lat="47.86964" lon="6.91786">
        <ele>1005</ele>
        <time>2026-05-09T19:57:03.168Z</time>
      </trkpt>
      <trkpt lat="47.86964" lon="6.91784">
        <ele>1005</ele>
        <time>2026-05-09T19:57:04.168Z</time>
      </trkpt>
      <trkpt lat="47.86964" lon="6.9178">
        <ele>1005</ele>
        <time>2026-05-09T19:57:05.168Z</time>
      </trkpt>
      <trkpt lat="47.86964" lon="6.91778">
        <ele>1005</ele>
        <time>2026-05-09T19:57:06.168Z</time>
      </trkpt>
      <trkpt lat="47.86964" lon="6.91777">
        <ele>1005</ele>
        <time>2026-05-09T19:57:07.169Z</time>
      </trkpt>
      <trkpt lat="47.86964" lon="6.91775">
        <ele>1005</ele>
        <time>2026-05-09T19:57:08.169Z</time>
      </trkpt>
      <trkpt lat="47.86964" lon="6.91774">
        <ele>1006</ele>
        <time>2026-05-09T19:57:09.169Z</time>
      </trkpt>
      <trkpt lat="47.86963" lon="6.91773">
        <ele>1006</ele>
        <time>2026-05-09T19:57:10.169Z</time>
      </trkpt>
      <trkpt lat="47.86963" lon="6.91772">
        <ele>1006</ele>
        <time>2026-05-09T19:57:11.168Z</time>
      </trkpt>
      <trkpt lat="47.86963" lon="6.91771">
        <ele>1006</ele>
        <time>2026-05-09T19:57:12.168Z</time>
      </trkpt>
      <trkpt lat="47.86963" lon="6.9177">
        <ele>1007</ele>
        <time>2026-05-09T19:57:13.169Z</time>
      </trkpt>
      <trkpt lat="47.86963" lon="6.91769">
        <ele>1007</ele>
        <time>2026-05-09T19:57:14.168Z</time>
      </trkpt>
      <trkpt lat="47.86963" lon="6.91768">
        <ele>1007</ele>
        <time>2026-05-09T19:57:15.168Z</time>
      </trkpt>
      <trkpt lat="47.86963" lon="6.91767">
        <ele>1008</ele>
        <time>2026-05-09T19:57:16.169Z</time>
      </trkpt>
      <trkpt lat="47.86964" lon="6.91767">
        <ele>1008</ele>
        <time>2026-05-09T19:57:17.169Z</time>
      </trkpt>
      <trkpt lat="47.86964" lon="6.91766">
        <ele>1008</ele>
        <time>2026-05-09T19:57:18.169Z</time>
      </trkpt>
      <trkpt lat="47.86963" lon="6.91765">
        <ele>1008</ele>
        <time>2026-05-09T19:57:19.168Z</time>
      </trkpt>
      <trkpt lat="47.86963" lon="6.91765">
        <ele>1008</ele>
        <time>2026-05-09T19:57:20.169Z</time>
      </trkpt>
      <trkpt lat="47.86962" lon="6.91764">
        <ele>1008</ele>
        <time>2026-05-09T19:57:21.168Z</time>
      </trkpt>
      <trkpt lat="47.86961" lon="6.91763">
        <ele>1008</ele>
        <time>2026-05-09T19:57:22.168Z</time>
      </trkpt>
      <trkpt lat="47.86961" lon="6.9176">
        <ele>1008</ele>
        <time>2026-05-09T19:57:23.168Z</time>
      </trkpt>
      <trkpt lat="47.86961" lon="6.91759">
        <ele>1008</ele>
        <time>2026-05-09T19:57:24.168Z</time>
      </trkpt>
      <trkpt lat="47.86961" lon="6.91757">
        <ele>1009</ele>
        <time>2026-05-09T19:57:25.169Z</time>
      </trkpt>
      <trkpt lat="47.86961" lon="6.91756">
        <ele>1009</ele>
        <time>2026-05-09T19:57:26.168Z</time>
      </trkpt>
      <trkpt lat="47.86961" lon="6.91753">
        <ele>1009</ele>
        <time>2026-05-09T19:57:27.168Z</time>
      </trkpt>
      <trkpt lat="47.8696" lon="6.91752">
        <ele>1009</ele>
        <time>2026-05-09T19:57:28.169Z</time>
      </trkpt>
      <trkpt lat="47.8696" lon="6.9175">
        <ele>1009</ele>
        <time>2026-05-09T19:57:29.169Z</time>
      </trkpt>
      <trkpt lat="47.8696" lon="6.91748">
        <ele>1009</ele>
        <time>2026-05-09T19:57:30.168Z</time>
      </trkpt>
      <trkpt lat="47.8696" lon="6.91747">
        <ele>1009</ele>
        <time>2026-05-09T19:57:31.168Z</time>
      </trkpt>
      <trkpt lat="47.8696" lon="6.91745">
        <ele>1009</ele>
        <time>2026-05-09T19:57:32.168Z</time>
      </trkpt>
      <trkpt lat="47.86961" lon="6.91742">
        <ele>1009</ele>
        <time>2026-05-09T19:57:33.168Z</time>
      </trkpt>
      <trkpt lat="47.86961" lon="6.9174">
        <ele>1009</ele>
        <time>2026-05-09T19:57:34.168Z</time>
      </trkpt>
      <trkpt lat="47.8696" lon="6.91738">
        <ele>1009</ele>
        <time>2026-05-09T19:57:35.169Z</time>
      </trkpt>
      <trkpt lat="47.8696" lon="6.91737">
        <ele>1008</ele>
        <time>2026-05-09T19:57:36.169Z</time>
      </trkpt>
      <trkpt lat="47.8696" lon="6.91736">
        <ele>1008</ele>
        <time>2026-05-09T19:57:37.169Z</time>
      </trkpt>
      <trkpt lat="47.8696" lon="6.91735">
        <ele>1008</ele>
        <time>2026-05-09T19:57:38.168Z</time>
      </trkpt>
      <trkpt lat="47.8696" lon="6.91734">
        <ele>1008</ele>
        <time>2026-05-09T19:57:39.169Z</time>
      </trkpt>
      <trkpt lat="47.8696" lon="6.91733">
        <ele>1008</ele>
        <time>2026-05-09T19:57:40.168Z</time>
      </trkpt>
      <trkpt lat="47.8696" lon="6.91731">
        <ele>1008</ele>
        <time>2026-05-09T19:57:41.168Z</time>
      </trkpt>
      <trkpt lat="47.8696" lon="6.91729">
        <ele>1007</ele>
        <time>2026-05-09T19:57:42.168Z</time>
      </trkpt>
      <trkpt lat="47.86959" lon="6.91728">
        <ele>1007</ele>
        <time>2026-05-09T19:57:43.169Z</time>
      </trkpt>
      <trkpt lat="47.86959" lon="6.91727">
        <ele>1007</ele>
        <time>2026-05-09T19:57:44.169Z</time>
      </trkpt>
      <trkpt lat="47.86959" lon="6.91725">
        <ele>1007</ele>
        <time>2026-05-09T19:57:45.168Z</time>
      </trkpt>
      <trkpt lat="47.86958" lon="6.91724">
        <ele>1007</ele>
        <time>2026-05-09T19:57:46.169Z</time>
      </trkpt>
      <trkpt lat="47.86958" lon="6.91722">
        <ele>1007</ele>
        <time>2026-05-09T19:57:47.169Z</time>
      </trkpt>
      <trkpt lat="47.86958" lon="6.91722">
        <ele>1007</ele>
        <time>2026-05-09T19:57:48.168Z</time>
      </trkpt>
      <trkpt lat="47.86957" lon="6.91721">
        <ele>1007</ele>
        <time>2026-05-09T19:57:49.169Z</time>
      </trkpt>
      <trkpt lat="47.86956" lon="6.9172">
        <ele>1007</ele>
        <time>2026-05-09T19:57:50.168Z</time>
      </trkpt>
      <trkpt lat="47.86956" lon="6.91718">
        <ele>1008</ele>
        <time>2026-05-09T19:57:51.168Z</time>
      </trkpt>
      <trkpt lat="47.86956" lon="6.91717">
        <ele>1008</ele>
        <time>2026-05-09T19:57:52.169Z</time>
      </trkpt>
      <trkpt lat="47.86955" lon="6.91715">
        <ele>1008</ele>
        <time>2026-05-09T19:57:53.168Z</time>
      </trkpt>
      <trkpt lat="47.86955" lon="6.91713">
        <ele>1008</ele>
        <time>2026-05-09T19:57:54.168Z</time>
      </trkpt>
      <trkpt lat="47.86955" lon="6.91711">
        <ele>1008</ele>
        <time>2026-05-09T19:57:55.169Z</time>
      </trkpt>
      <trkpt lat="47.86955" lon="6.91709">
        <ele>1008</ele>
        <time>2026-05-09T19:57:56.168Z</time>
      </trkpt>
      <trkpt lat="47.86956" lon="6.91708">
        <ele>1008</ele>
        <time>2026-05-09T19:57:57.168Z</time>
      </trkpt>
      <trkpt lat="47.86956" lon="6.91707">
        <ele>1008</ele>
        <time>2026-05-09T19:57:58.168Z</time>
      </trkpt>
      <trkpt lat="47.86956" lon="6.91707">
        <ele>1007</ele>
        <time>2026-05-09T19:57:59.168Z</time>
      </trkpt>
      <trkpt lat="47.86956" lon="6.91706">
        <ele>1007</ele>
        <time>2026-05-09T19:58:00.168Z</time>
      </trkpt>
      <trkpt lat="47.86956" lon="6.91704">
        <ele>1007</ele>
        <time>2026-05-09T19:58:01.168Z</time>
      </trkpt>
      <trkpt lat="47.86956" lon="6.91703">
        <ele>1007</ele>
        <time>2026-05-09T19:58:02.168Z</time>
      </trkpt>
      <trkpt lat="47.86956" lon="6.91701">
        <ele>1007</ele>
        <time>2026-05-09T19:58:03.168Z</time>
      </trkpt>
      <trkpt lat="47.86956" lon="6.91699">
        <ele>1007</ele>
        <time>2026-05-09T19:58:04.168Z</time>
      </trkpt>
      <trkpt lat="47.86956" lon="6.91698">
        <ele>1007</ele>
        <time>2026-05-09T19:58:05.169Z</time>
      </trkpt>
      <trkpt lat="47.86956" lon="6.91696">
        <ele>1007</ele>
        <time>2026-05-09T19:58:06.168Z</time>
      </trkpt>
      <trkpt lat="47.86956" lon="6.91694">
        <ele>1007</ele>
        <time>2026-05-09T19:58:07.168Z</time>
      </trkpt>
      <trkpt lat="47.86956" lon="6.91692">
        <ele>1007</ele>
        <time>2026-05-09T19:58:08.168Z</time>
      </trkpt>
      <trkpt lat="47.86955" lon="6.9169">
        <ele>1007</ele>
        <time>2026-05-09T19:58:09.169Z</time>
      </trkpt>
      <trkpt lat="47.86955" lon="6.91688">
        <ele>1007</ele>
        <time>2026-05-09T19:58:10.169Z</time>
      </trkpt>
      <trkpt lat="47.86955" lon="6.91687">
        <ele>1007</ele>
        <time>2026-05-09T19:58:11.168Z</time>
      </trkpt>
      <trkpt lat="47.86955" lon="6.91685">
        <ele>1007</ele>
        <time>2026-05-09T19:58:12.168Z</time>
      </trkpt>
      <trkpt lat="47.86955" lon="6.91684">
        <ele>1006</ele>
        <time>2026-05-09T19:58:13.169Z</time>
      </trkpt>
      <trkpt lat="47.86956" lon="6.91683">
        <ele>1006</ele>
        <time>2026-05-09T19:58:14.169Z</time>
      </trkpt>
      <trkpt lat="47.86957" lon="6.91682">
        <ele>1006</ele>
        <time>2026-05-09T19:58:15.168Z</time>
      </trkpt>
      <trkpt lat="47.86958" lon="6.91681">
        <ele>1006</ele>
        <time>2026-05-09T19:58:16.168Z</time>
      </trkpt>
      <trkpt lat="47.86959" lon="6.9168">
        <ele>1006</ele>
        <time>2026-05-09T19:58:17.168Z</time>
      </trkpt>
      <trkpt lat="47.8696" lon="6.91679">
        <ele>1006</ele>
        <time>2026-05-09T19:58:18.168Z</time>
      </trkpt>
      <trkpt lat="47.8696" lon="6.91678">
        <ele>1006</ele>
        <time>2026-05-09T19:58:19.168Z</time>
      </trkpt>
      <trkpt lat="47.86961" lon="6.91677">
        <ele>1006</ele>
        <time>2026-05-09T19:58:20.168Z</time>
      </trkpt>
      <trkpt lat="47.86961" lon="6.91677">
        <ele>1007</ele>
        <time>2026-05-09T19:58:21.168Z</time>
      </trkpt>
      <trkpt lat="47.86961" lon="6.91676">
        <ele>1007</ele>
        <time>2026-05-09T19:58:22.168Z</time>
      </trkpt>
      <trkpt lat="47.86961" lon="6.91676">
        <ele>1007</ele>
        <time>2026-05-09T19:58:23.169Z</time>
      </trkpt>
      <trkpt lat="47.86961" lon="6.91676">
        <ele>1007</ele>
        <time>2026-05-09T19:58:24.169Z</time>
      </trkpt>
      <trkpt lat="47.86962" lon="6.91674">
        <ele>1005</ele>
        <time>2026-05-09T19:58:37.372Z</time>
      </trkpt>
      <trkpt lat="47.86962" lon="6.91674">
        <ele>1005</ele>
        <time>2026-05-09T19:58:38.372Z</time>
      </trkpt>
      <trkpt lat="47.86962" lon="6.91674">
        <ele>1006</ele>
        <time>2026-05-09T19:58:39.373Z</time>
      </trkpt>
      <trkpt lat="47.86962" lon="6.91674">
        <ele>1006</ele>
        <time>2026-05-09T19:58:40.373Z</time>
      </trkpt>
      <trkpt lat="47.86962" lon="6.91675">
        <ele>1006</ele>
        <time>2026-05-09T19:58:41.373Z</time>
      </trkpt>
      <trkpt lat="47.86962" lon="6.91675">
        <ele>1006</ele>
        <time>2026-05-09T19:58:42.373Z</time>
      </trkpt>
      <trkpt lat="47.86962" lon="6.91675">
        <ele>1007</ele>
        <time>2026-05-09T19:58:43.373Z</time>
      </trkpt>
      <trkpt lat="47.86963" lon="6.91674">
        <ele>1007</ele>
        <time>2026-05-09T19:58:44.373Z</time>
      </trkpt>
      <trkpt lat="47.86963" lon="6.91674">
        <ele>1007</ele>
        <time>2026-05-09T19:58:45.373Z</time>
      </trkpt>
      <trkpt lat="47.86962" lon="6.91674">
        <ele>1008</ele>
        <time>2026-05-09T19:58:46.372Z</time>
      </trkpt>
      <trkpt lat="47.86962" lon="6.91674">
        <ele>1008</ele>
        <time>2026-05-09T19:58:47.372Z</time>
      </trkpt>
      <trkpt lat="47.86962" lon="6.91674">
        <ele>1009</ele>
        <time>2026-05-09T19:58:48.372Z</time>
      </trkpt>
      <trkpt lat="47.86963" lon="6.91674">
        <ele>1009</ele>
        <time>2026-05-09T19:58:49.372Z</time>
      </trkpt>
      <trkpt lat="47.86963" lon="6.91674">
        <ele>1010</ele>
        <time>2026-05-09T19:58:50.373Z</time>
      </trkpt>
      <trkpt lat="47.86963" lon="6.91674">
        <ele>1010</ele>
        <time>2026-05-09T19:58:51.372Z</time>
      </trkpt>
      <trkpt lat="47.86963" lon="6.91674">
        <ele>1010</ele>
        <time>2026-05-09T19:58:52.373Z</time>
      </trkpt>
      <trkpt lat="47.86963" lon="6.91674">
        <ele>1011</ele>
        <time>2026-05-09T19:58:53.373Z</time>
      </trkpt>
      <trkpt lat="47.86963" lon="6.91674">
        <ele>1011</ele>
        <time>2026-05-09T19:58:54.373Z</time>
      </trkpt>
      <trkpt lat="47.86962" lon="6.91675">
        <ele>1011</ele>
        <time>2026-05-09T19:58:55.372Z</time>
      </trkpt>
      <trkpt lat="47.86962" lon="6.91675">
        <ele>1012</ele>
        <time>2026-05-09T19:58:56.372Z</time>
      </trkpt>
      <trkpt lat="47.86962" lon="6.91675">
        <ele>1012</ele>
        <time>2026-05-09T19:58:57.372Z</time>
      </trkpt>
      <trkpt lat="47.86962" lon="6.91675">
        <ele>1013</ele>
        <time>2026-05-09T19:58:58.372Z</time>
      </trkpt>
      <trkpt lat="47.86962" lon="6.91676">
        <ele>1013</ele>
        <time>2026-05-09T19:58:59.373Z</time>
      </trkpt>
      <trkpt lat="47.86961" lon="6.91675">
        <ele>1014</ele>
        <time>2026-05-09T19:59:00.372Z</time>
      </trkpt>
      <trkpt lat="47.86961" lon="6.91675">
        <ele>1015</ele>
        <time>2026-05-09T19:59:01.372Z</time>
      </trkpt>
      <trkpt lat="47.86961" lon="6.91675">
        <ele>1015</ele>
        <time>2026-05-09T19:59:02.372Z</time>
      </trkpt>
      <trkpt lat="47.86961" lon="6.91675">
        <ele>1016</ele>
        <time>2026-05-09T19:59:03.372Z</time>
      </trkpt>
      <trkpt lat="47.8696" lon="6.91675">
        <ele>1016</ele>
        <time>2026-05-09T19:59:04.373Z</time>
      </trkpt>
      <trkpt lat="47.8696" lon="6.91675">
        <ele>1017</ele>
        <time>2026-05-09T19:59:05.373Z</time>
      </trkpt>
      <trkpt lat="47.8696" lon="6.91675">
        <ele>1017</ele>
        <time>2026-05-09T19:59:06.372Z</time>
      </trkpt>
      <trkpt lat="47.8696" lon="6.91675">
        <ele>1017</ele>
        <time>2026-05-09T19:59:07.372Z</time>
      </trkpt>
      <trkpt lat="47.8696" lon="6.91675">
        <ele>1017</ele>
        <time>2026-05-09T19:59:08.373Z</time>
      </trkpt>
      <trkpt lat="47.8696" lon="6.91676">
        <ele>1017</ele>
        <time>2026-05-09T19:59:09.373Z</time>
      </trkpt>
      <trkpt lat="47.86963" lon="6.91671">
        <ele>1017</ele>
        <time>2026-05-09T19:59:17.469Z</time>
      </trkpt>
      <trkpt lat="47.86964" lon="6.91669">
        <ele>1017</ele>
        <time>2026-05-09T19:59:18.469Z</time>
      </trkpt>
      <trkpt lat="47.86965" lon="6.91667">
        <ele>1017</ele>
        <time>2026-05-09T19:59:19.469Z</time>
      </trkpt>
      <trkpt lat="47.86965" lon="6.91665">
        <ele>1017</ele>
        <time>2026-05-09T19:59:20.469Z</time>
      </trkpt>
      <trkpt lat="47.86965" lon="6.91663">
        <ele>1017</ele>
        <time>2026-05-09T19:59:21.469Z</time>
      </trkpt>
      <trkpt lat="47.86965" lon="6.91661">
        <ele>1017</ele>
        <time>2026-05-09T19:59:22.469Z</time>
      </trkpt>
      <trkpt lat="47.86965" lon="6.91659">
        <ele>1017</ele>
        <time>2026-05-09T19:59:23.469Z</time>
      </trkpt>
      <trkpt lat="47.86966" lon="6.91657">
        <ele>1017</ele>
        <time>2026-05-09T19:59:24.469Z</time>
      </trkpt>
      <trkpt lat="47.86966" lon="6.91656">
        <ele>1017</ele>
        <time>2026-05-09T19:59:25.470Z</time>
      </trkpt>
      <trkpt lat="47.86966" lon="6.91655">
        <ele>1017</ele>
        <time>2026-05-09T19:59:26.469Z</time>
      </trkpt>
      <trkpt lat="47.86967" lon="6.91653">
        <ele>1017</ele>
        <time>2026-05-09T19:59:27.469Z</time>
      </trkpt>
      <trkpt lat="47.86967" lon="6.91651">
        <ele>1017</ele>
        <time>2026-05-09T19:59:28.469Z</time>
      </trkpt>
      <trkpt lat="47.86967" lon="6.9165">
        <ele>1017</ele>
        <time>2026-05-09T19:59:29.469Z</time>
      </trkpt>
      <trkpt lat="47.86967" lon="6.91649">
        <ele>1017</ele>
        <time>2026-05-09T19:59:30.469Z</time>
      </trkpt>
      <trkpt lat="47.86967" lon="6.91648">
        <ele>1017</ele>
        <time>2026-05-09T19:59:31.469Z</time>
      </trkpt>
      <trkpt lat="47.86967" lon="6.91648">
        <ele>1017</ele>
        <time>2026-05-09T19:59:32.469Z</time>
      </trkpt>
      <trkpt lat="47.86966" lon="6.91642">
        <ele>1017</ele>
        <time>2026-05-09T19:59:38.922Z</time>
      </trkpt>
      <trkpt lat="47.86966" lon="6.9164">
        <ele>1017</ele>
        <time>2026-05-09T19:59:39.922Z</time>
      </trkpt>
      <trkpt lat="47.86967" lon="6.91639">
        <ele>1017</ele>
        <time>2026-05-09T19:59:40.922Z</time>
      </trkpt>
      <trkpt lat="47.86967" lon="6.91637">
        <ele>1017</ele>
        <time>2026-05-09T19:59:41.922Z</time>
      </trkpt>
      <trkpt lat="47.86967" lon="6.91636">
        <ele>1017</ele>
        <time>2026-05-09T19:59:42.921Z</time>
      </trkpt>
      <trkpt lat="47.86967" lon="6.91635">
        <ele>1017</ele>
        <time>2026-05-09T19:59:43.922Z</time>
      </trkpt>
      <trkpt lat="47.86967" lon="6.91634">
        <ele>1017</ele>
        <time>2026-05-09T19:59:44.922Z</time>
      </trkpt>
      <trkpt lat="47.86967" lon="6.91632">
        <ele>1017</ele>
        <time>2026-05-09T19:59:45.922Z</time>
      </trkpt>
      <trkpt lat="47.86967" lon="6.9163">
        <ele>1017</ele>
        <time>2026-05-09T19:59:46.921Z</time>
      </trkpt>
      <trkpt lat="47.86967" lon="6.91627">
        <ele>1017</ele>
        <time>2026-05-09T19:59:47.921Z</time>
      </trkpt>
      <trkpt lat="47.86966" lon="6.91625">
        <ele>1017</ele>
        <time>2026-05-09T19:59:48.921Z</time>
      </trkpt>
      <trkpt lat="47.86966" lon="6.91623">
        <ele>1017</ele>
        <time>2026-05-09T19:59:49.922Z</time>
      </trkpt>
      <trkpt lat="47.86966" lon="6.91621">
        <ele>1017</ele>
        <time>2026-05-09T19:59:50.922Z</time>
      </trkpt>
      <trkpt lat="47.86966" lon="6.91618">
        <ele>1018</ele>
        <time>2026-05-09T19:59:51.922Z</time>
      </trkpt>
      <trkpt lat="47.86965" lon="6.91616">
        <ele>1018</ele>
        <time>2026-05-09T19:59:52.921Z</time>
      </trkpt>
      <trkpt lat="47.86965" lon="6.91614">
        <ele>1018</ele>
        <time>2026-05-09T19:59:53.922Z</time>
      </trkpt>
      <trkpt lat="47.86965" lon="6.91611">
        <ele>1018</ele>
        <time>2026-05-09T19:59:54.922Z</time>
      </trkpt>
      <trkpt lat="47.86965" lon="6.91609">
        <ele>1018</ele>
        <time>2026-05-09T19:59:55.922Z</time>
      </trkpt>
      <trkpt lat="47.86965" lon="6.91608">
        <ele>1018</ele>
        <time>2026-05-09T19:59:56.922Z</time>
      </trkpt>
      <trkpt lat="47.86965" lon="6.91606">
        <ele>1018</ele>
        <time>2026-05-09T19:59:57.922Z</time>
      </trkpt>
      <trkpt lat="47.86965" lon="6.91604">
        <ele>1018</ele>
        <time>2026-05-09T19:59:58.922Z</time>
      </trkpt>
      <trkpt lat="47.86964" lon="6.91603">
        <ele>1018</ele>
        <time>2026-05-09T19:59:59.921Z</time>
      </trkpt>
      <trkpt lat="47.86964" lon="6.91601">
        <ele>1018</ele>
        <time>2026-05-09T20:00:00.921Z</time>
      </trkpt>
      <trkpt lat="47.86964" lon="6.91599">
        <ele>1018</ele>
        <time>2026-05-09T20:00:01.921Z</time>
      </trkpt>
      <trkpt lat="47.86964" lon="6.91598">
        <ele>1019</ele>
        <time>2026-05-09T20:00:02.921Z</time>
      </trkpt>
      <trkpt lat="47.86964" lon="6.91596">
        <ele>1019</ele>
        <time>2026-05-09T20:00:03.921Z</time>
      </trkpt>
      <trkpt lat="47.86965" lon="6.91595">
        <ele>1019</ele>
        <time>2026-05-09T20:00:04.921Z</time>
      </trkpt>
      <trkpt lat="47.86965" lon="6.91593">
        <ele>1019</ele>
        <time>2026-05-09T20:00:05.921Z</time>
      </trkpt>
      <trkpt lat="47.86965" lon="6.91591">
        <ele>1019</ele>
        <time>2026-05-09T20:00:06.922Z</time>
      </trkpt>
      <trkpt lat="47.86964" lon="6.9159">
        <ele>1019</ele>
        <time>2026-05-09T20:00:07.922Z</time>
      </trkpt>
      <trkpt lat="47.86964" lon="6.91588">
        <ele>1019</ele>
        <time>2026-05-09T20:00:08.921Z</time>
      </trkpt>
      <trkpt lat="47.86964" lon="6.91587">
        <ele>1019</ele>
        <time>2026-05-09T20:00:09.922Z</time>
      </trkpt>
      <trkpt lat="47.86964" lon="6.91585">
        <ele>1019</ele>
        <time>2026-05-09T20:00:10.922Z</time>
      </trkpt>
      <trkpt lat="47.86964" lon="6.91582">
        <ele>1018</ele>
        <time>2026-05-09T20:00:11.922Z</time>
      </trkpt>
      <trkpt lat="47.86965" lon="6.9158">
        <ele>1018</ele>
        <time>2026-05-09T20:00:12.921Z</time>
      </trkpt>
      <trkpt lat="47.86964" lon="6.91577">
        <ele>1018</ele>
        <time>2026-05-09T20:00:13.921Z</time>
      </trkpt>
      <trkpt lat="47.86964" lon="6.91575">
        <ele>1018</ele>
        <time>2026-05-09T20:00:14.922Z</time>
      </trkpt>
      <trkpt lat="47.86964" lon="6.91573">
        <ele>1019</ele>
        <time>2026-05-09T20:00:15.922Z</time>
      </trkpt>
      <trkpt lat="47.86964" lon="6.91571">
        <ele>1019</ele>
        <time>2026-05-09T20:00:16.922Z</time>
      </trkpt>
      <trkpt lat="47.86964" lon="6.9157">
        <ele>1019</ele>
        <time>2026-05-09T20:00:17.921Z</time>
      </trkpt>
      <trkpt lat="47.86964" lon="6.91568">
        <ele>1019</ele>
        <time>2026-05-09T20:00:18.921Z</time>
      </trkpt>
      <trkpt lat="47.86964" lon="6.91566">
        <ele>1019</ele>
        <time>2026-05-09T20:00:19.921Z</time>
      </trkpt>
      <trkpt lat="47.86965" lon="6.91564">
        <ele>1019</ele>
        <time>2026-05-09T20:00:20.922Z</time>
      </trkpt>
      <trkpt lat="47.86965" lon="6.91562">
        <ele>1019</ele>
        <time>2026-05-09T20:00:21.922Z</time>
      </trkpt>
      <trkpt lat="47.86965" lon="6.9156">
        <ele>1019</ele>
        <time>2026-05-09T20:00:22.922Z</time>
      </trkpt>
      <trkpt lat="47.86965" lon="6.91558">
        <ele>1019</ele>
        <time>2026-05-09T20:00:23.921Z</time>
      </trkpt>
      <trkpt lat="47.86965" lon="6.91556">
        <ele>1020</ele>
        <time>2026-05-09T20:00:24.921Z</time>
      </trkpt>
      <trkpt lat="47.86965" lon="6.91554">
        <ele>1020</ele>
        <time>2026-05-09T20:00:25.922Z</time>
      </trkpt>
      <trkpt lat="47.86965" lon="6.91552">
        <ele>1020</ele>
        <time>2026-05-09T20:00:26.921Z</time>
      </trkpt>
      <trkpt lat="47.86966" lon="6.91551">
        <ele>1021</ele>
        <time>2026-05-09T20:00:27.922Z</time>
      </trkpt>
      <trkpt lat="47.86966" lon="6.9155">
        <ele>1021</ele>
        <time>2026-05-09T20:00:28.922Z</time>
      </trkpt>
      <trkpt lat="47.86966" lon="6.91549">
        <ele>1021</ele>
        <time>2026-05-09T20:00:29.922Z</time>
      </trkpt>
      <trkpt lat="47.86967" lon="6.91548">
        <ele>1021</ele>
        <time>2026-05-09T20:00:30.922Z</time>
      </trkpt>
      <trkpt lat="47.86967" lon="6.91547">
        <ele>1021</ele>
        <time>2026-05-09T20:00:31.922Z</time>
      </trkpt>
      <trkpt lat="47.86967" lon="6.91546">
        <ele>1021</ele>
        <time>2026-05-09T20:00:32.921Z</time>
      </trkpt>
      <trkpt lat="47.86967" lon="6.91545">
        <ele>1021</ele>
        <time>2026-05-09T20:00:33.921Z</time>
      </trkpt>
      <trkpt lat="47.86968" lon="6.91544">
        <ele>1021</ele>
        <time>2026-05-09T20:00:34.921Z</time>
      </trkpt>
      <trkpt lat="47.86968" lon="6.91543">
        <ele>1021</ele>
        <time>2026-05-09T20:00:35.921Z</time>
      </trkpt>
      <trkpt lat="47.86968" lon="6.91541">
        <ele>1021</ele>
        <time>2026-05-09T20:00:36.921Z</time>
      </trkpt>
      <trkpt lat="47.86969" lon="6.9154">
        <ele>1021</ele>
        <time>2026-05-09T20:00:37.921Z</time>
      </trkpt>
      <trkpt lat="47.8697" lon="6.91536">
        <ele>1022</ele>
        <time>2026-05-09T20:00:38.921Z</time>
      </trkpt>
      <trkpt lat="47.8697" lon="6.91533">
        <ele>1022</ele>
        <time>2026-05-09T20:00:39.921Z</time>
      </trkpt>
      <trkpt lat="47.8697" lon="6.91532">
        <ele>1022</ele>
        <time>2026-05-09T20:00:40.921Z</time>
      </trkpt>
      <trkpt lat="47.8697" lon="6.9153">
        <ele>1021</ele>
        <time>2026-05-09T20:00:41.921Z</time>
      </trkpt>
      <trkpt lat="47.8697" lon="6.91529">
        <ele>1021</ele>
        <time>2026-05-09T20:00:42.922Z</time>
      </trkpt>
      <trkpt lat="47.8697" lon="6.91527">
        <ele>1021</ele>
        <time>2026-05-09T20:00:43.921Z</time>
      </trkpt>
      <trkpt lat="47.86971" lon="6.91524">
        <ele>1021</ele>
        <time>2026-05-09T20:00:44.921Z</time>
      </trkpt>
      <trkpt lat="47.86971" lon="6.91522">
        <ele>1021</ele>
        <time>2026-05-09T20:00:45.921Z</time>
      </trkpt>
      <trkpt lat="47.86971" lon="6.91519">
        <ele>1021</ele>
        <time>2026-05-09T20:00:46.921Z</time>
      </trkpt>
      <trkpt lat="47.86972" lon="6.91517">
        <ele>1021</ele>
        <time>2026-05-09T20:00:47.921Z</time>
      </trkpt>
      <trkpt lat="47.86973" lon="6.91516">
        <ele>1021</ele>
        <time>2026-05-09T20:00:48.921Z</time>
      </trkpt>
      <trkpt lat="47.86974" lon="6.91514">
        <ele>1021</ele>
        <time>2026-05-09T20:00:49.921Z</time>
      </trkpt>
      <trkpt lat="47.86975" lon="6.91513">
        <ele>1021</ele>
        <time>2026-05-09T20:00:50.922Z</time>
      </trkpt>
      <trkpt lat="47.86975" lon="6.91511">
        <ele>1021</ele>
        <time>2026-05-09T20:00:51.921Z</time>
      </trkpt>
      <trkpt lat="47.86976" lon="6.9151">
        <ele>1021</ele>
        <time>2026-05-09T20:00:52.922Z</time>
      </trkpt>
      <trkpt lat="47.86977" lon="6.91508">
        <ele>1021</ele>
        <time>2026-05-09T20:00:53.922Z</time>
      </trkpt>
      <trkpt lat="47.86977" lon="6.91508">
        <ele>1021</ele>
        <time>2026-05-09T20:00:54.922Z</time>
      </trkpt>
      <trkpt lat="47.86976" lon="6.91507">
        <ele>1021</ele>
        <time>2026-05-09T20:00:55.922Z</time>
      </trkpt>
      <trkpt lat="47.86975" lon="6.91507">
        <ele>1021</ele>
        <time>2026-05-09T20:00:56.921Z</time>
      </trkpt>
      <trkpt lat="47.86975" lon="6.91506">
        <ele>1021</ele>
        <time>2026-05-09T20:00:57.921Z</time>
      </trkpt>
      <trkpt lat="47.86975" lon="6.91505">
        <ele>1021</ele>
        <time>2026-05-09T20:00:58.921Z</time>
      </trkpt>
      <trkpt lat="47.86975" lon="6.91504">
        <ele>1021</ele>
        <time>2026-05-09T20:00:59.921Z</time>
      </trkpt>
      <trkpt lat="47.86975" lon="6.91503">
        <ele>1021</ele>
        <time>2026-05-09T20:01:00.922Z</time>
      </trkpt>
      <trkpt lat="47.86975" lon="6.91502">
        <ele>1021</ele>
        <time>2026-05-09T20:01:01.921Z</time>
      </trkpt>
      <trkpt lat="47.86975" lon="6.91501">
        <ele>1022</ele>
        <time>2026-05-09T20:01:02.922Z</time>
      </trkpt>
      <trkpt lat="47.86975" lon="6.91501">
        <ele>1022</ele>
        <time>2026-05-09T20:01:03.922Z</time>
      </trkpt>
      <trkpt lat="47.86975" lon="6.915">
        <ele>1022</ele>
        <time>2026-05-09T20:01:04.921Z</time>
      </trkpt>
      <trkpt lat="47.86975" lon="6.91499">
        <ele>1022</ele>
        <time>2026-05-09T20:01:05.922Z</time>
      </trkpt>
      <trkpt lat="47.86976" lon="6.91498">
        <ele>1022</ele>
        <time>2026-05-09T20:01:06.921Z</time>
      </trkpt>
      <trkpt lat="47.86976" lon="6.91497">
        <ele>1022</ele>
        <time>2026-05-09T20:01:07.922Z</time>
      </trkpt>
      <trkpt lat="47.86976" lon="6.91496">
        <ele>1022</ele>
        <time>2026-05-09T20:01:08.921Z</time>
      </trkpt>
      <trkpt lat="47.86977" lon="6.91494">
        <ele>1022</ele>
        <time>2026-05-09T20:01:09.921Z</time>
      </trkpt>
      <trkpt lat="47.86977" lon="6.91493">
        <ele>1023</ele>
        <time>2026-05-09T20:01:10.921Z</time>
      </trkpt>
      <trkpt lat="47.86977" lon="6.91492">
        <ele>1023</ele>
        <time>2026-05-09T20:01:11.921Z</time>
      </trkpt>
      <trkpt lat="47.86977" lon="6.9149">
        <ele>1023</ele>
        <time>2026-05-09T20:01:12.921Z</time>
      </trkpt>
      <trkpt lat="47.86977" lon="6.91489">
        <ele>1023</ele>
        <time>2026-05-09T20:01:13.922Z</time>
      </trkpt>
      <trkpt lat="47.86977" lon="6.91487">
        <ele>1024</ele>
        <time>2026-05-09T20:01:14.921Z</time>
      </trkpt>
      <trkpt lat="47.86977" lon="6.91487">
        <ele>1024</ele>
        <time>2026-05-09T20:01:15.921Z</time>
      </trkpt>
      <trkpt lat="47.86977" lon="6.91487">
        <ele>1024</ele>
        <time>2026-05-09T20:01:16.921Z</time>
      </trkpt>
      <trkpt lat="47.86977" lon="6.91485">
        <ele>1024</ele>
        <time>2026-05-09T20:01:17.921Z</time>
      </trkpt>
      <trkpt lat="47.86977" lon="6.91483">
        <ele>1024</ele>
        <time>2026-05-09T20:01:18.921Z</time>
      </trkpt>
      <trkpt lat="47.86977" lon="6.91481">
        <ele>1024</ele>
        <time>2026-05-09T20:01:19.922Z</time>
      </trkpt>
      <trkpt lat="47.86976" lon="6.91479">
        <ele>1024</ele>
        <time>2026-05-09T20:01:20.922Z</time>
      </trkpt>
      <trkpt lat="47.86976" lon="6.91479">
        <ele>1024</ele>
        <time>2026-05-09T20:01:21.922Z</time>
      </trkpt>
      <trkpt lat="47.86976" lon="6.91479">
        <ele>1024</ele>
        <time>2026-05-09T20:01:22.922Z</time>
      </trkpt>
      <trkpt lat="47.86976" lon="6.91479">
        <ele>1025</ele>
        <time>2026-05-09T20:01:23.922Z</time>
      </trkpt>
      <trkpt lat="47.86975" lon="6.91479">
        <ele>1025</ele>
        <time>2026-05-09T20:01:24.921Z</time>
      </trkpt>
      <trkpt lat="47.86971" lon="6.91476">
        <ele>1027</ele>
        <time>2026-05-09T20:01:31.327Z</time>
      </trkpt>
      <trkpt lat="47.8697" lon="6.91476">
        <ele>1027</ele>
        <time>2026-05-09T20:01:32.328Z</time>
      </trkpt>
      <trkpt lat="47.86969" lon="6.91476">
        <ele>1027</ele>
        <time>2026-05-09T20:01:33.328Z</time>
      </trkpt>
      <trkpt lat="47.86968" lon="6.91475">
        <ele>1027</ele>
        <time>2026-05-09T20:01:34.328Z</time>
      </trkpt>
      <trkpt lat="47.86968" lon="6.91473">
        <ele>1027</ele>
        <time>2026-05-09T20:01:35.327Z</time>
      </trkpt>
      <trkpt lat="47.86967" lon="6.91471">
        <ele>1027</ele>
        <time>2026-05-09T20:01:36.327Z</time>
      </trkpt>
      <trkpt lat="47.86966" lon="6.91471">
        <ele>1027</ele>
        <time>2026-05-09T20:01:37.327Z</time>
      </trkpt>
      <trkpt lat="47.86965" lon="6.9147">
        <ele>1027</ele>
        <time>2026-05-09T20:01:38.327Z</time>
      </trkpt>
      <trkpt lat="47.86964" lon="6.91469">
        <ele>1027</ele>
        <time>2026-05-09T20:01:39.327Z</time>
      </trkpt>
      <trkpt lat="47.86963" lon="6.91468">
        <ele>1028</ele>
        <time>2026-05-09T20:01:40.328Z</time>
      </trkpt>
      <trkpt lat="47.86962" lon="6.91468">
        <ele>1028</ele>
        <time>2026-05-09T20:01:41.328Z</time>
      </trkpt>
      <trkpt lat="47.8696" lon="6.91468">
        <ele>1028</ele>
        <time>2026-05-09T20:01:42.327Z</time>
      </trkpt>
      <trkpt lat="47.8696" lon="6.91468">
        <ele>1029</ele>
        <time>2026-05-09T20:01:43.328Z</time>
      </trkpt>
      <trkpt lat="47.86959" lon="6.91467">
        <ele>1029</ele>
        <time>2026-05-09T20:01:44.327Z</time>
      </trkpt>
      <trkpt lat="47.86957" lon="6.91465">
        <ele>1029</ele>
        <time>2026-05-09T20:01:45.327Z</time>
      </trkpt>
      <trkpt lat="47.86955" lon="6.91464">
        <ele>1030</ele>
        <time>2026-05-09T20:01:46.327Z</time>
      </trkpt>
      <trkpt lat="47.86953" lon="6.91463">
        <ele>1030</ele>
        <time>2026-05-09T20:01:47.328Z</time>
      </trkpt>
      <trkpt lat="47.86952" lon="6.91462">
        <ele>1030</ele>
        <time>2026-05-09T20:01:48.328Z</time>
      </trkpt>
      <trkpt lat="47.86952" lon="6.91462">
        <ele>1031</ele>
        <time>2026-05-09T20:01:49.328Z</time>
      </trkpt>
      <trkpt lat="47.86952" lon="6.91461">
        <ele>1031</ele>
        <time>2026-05-09T20:01:50.328Z</time>
      </trkpt>
      <trkpt lat="47.86951" lon="6.9146">
        <ele>1031</ele>
        <time>2026-05-09T20:01:51.327Z</time>
      </trkpt>
      <trkpt lat="47.8695" lon="6.9146">
        <ele>1031</ele>
        <time>2026-05-09T20:01:52.327Z</time>
      </trkpt>
      <trkpt lat="47.86949" lon="6.9146">
        <ele>1032</ele>
        <time>2026-05-09T20:01:53.327Z</time>
      </trkpt>
      <trkpt lat="47.86948" lon="6.91461">
        <ele>1032</ele>
        <time>2026-05-09T20:01:54.327Z</time>
      </trkpt>
      <trkpt lat="47.86947" lon="6.91461">
        <ele>1032</ele>
        <time>2026-05-09T20:01:55.328Z</time>
      </trkpt>
      <trkpt lat="47.86946" lon="6.91461">
        <ele>1032</ele>
        <time>2026-05-09T20:01:56.327Z</time>
      </trkpt>
      <trkpt lat="47.86945" lon="6.9146">
        <ele>1032</ele>
        <time>2026-05-09T20:01:57.327Z</time>
      </trkpt>
      <trkpt lat="47.86944" lon="6.91459">
        <ele>1032</ele>
        <time>2026-05-09T20:01:58.328Z</time>
      </trkpt>
      <trkpt lat="47.86944" lon="6.91457">
        <ele>1032</ele>
        <time>2026-05-09T20:01:59.327Z</time>
      </trkpt>
      <trkpt lat="47.86943" lon="6.91456">
        <ele>1033</ele>
        <time>2026-05-09T20:02:00.328Z</time>
      </trkpt>
      <trkpt lat="47.86943" lon="6.91454">
        <ele>1033</ele>
        <time>2026-05-09T20:02:01.328Z</time>
      </trkpt>
      <trkpt lat="47.86942" lon="6.91453">
        <ele>1033</ele>
        <time>2026-05-09T20:02:02.328Z</time>
      </trkpt>
      <trkpt lat="47.86942" lon="6.91451">
        <ele>1034</ele>
        <time>2026-05-09T20:02:03.328Z</time>
      </trkpt>
      <trkpt lat="47.86941" lon="6.9145">
        <ele>1034</ele>
        <time>2026-05-09T20:02:04.327Z</time>
      </trkpt>
      <trkpt lat="47.8694" lon="6.91449">
        <ele>1035</ele>
        <time>2026-05-09T20:02:05.327Z</time>
      </trkpt>
      <trkpt lat="47.8694" lon="6.91448">
        <ele>1035</ele>
        <time>2026-05-09T20:02:06.327Z</time>
      </trkpt>
      <trkpt lat="47.86941" lon="6.91446">
        <ele>1036</ele>
        <time>2026-05-09T20:02:07.327Z</time>
      </trkpt>
      <trkpt lat="47.86941" lon="6.91444">
        <ele>1036</ele>
        <time>2026-05-09T20:02:08.328Z</time>
      </trkpt>
      <trkpt lat="47.86941" lon="6.91442">
        <ele>1036</ele>
        <time>2026-05-09T20:02:09.328Z</time>
      </trkpt>
      <trkpt lat="47.8694" lon="6.91441">
        <ele>1037</ele>
        <time>2026-05-09T20:02:10.328Z</time>
      </trkpt>
      <trkpt lat="47.8694" lon="6.91441">
        <ele>1037</ele>
        <time>2026-05-09T20:02:11.328Z</time>
      </trkpt>
      <trkpt lat="47.86939" lon="6.9144">
        <ele>1037</ele>
        <time>2026-05-09T20:02:12.327Z</time>
      </trkpt>
      <trkpt lat="47.86939" lon="6.91439">
        <ele>1037</ele>
        <time>2026-05-09T20:02:13.327Z</time>
      </trkpt>
      <trkpt lat="47.86937" lon="6.91439">
        <ele>1037</ele>
        <time>2026-05-09T20:02:14.327Z</time>
      </trkpt>
      <trkpt lat="47.86937" lon="6.91438">
        <ele>1037</ele>
        <time>2026-05-09T20:02:15.327Z</time>
      </trkpt>
      <trkpt lat="47.86936" lon="6.91436">
        <ele>1037</ele>
        <time>2026-05-09T20:02:16.328Z</time>
      </trkpt>
      <trkpt lat="47.86936" lon="6.91435">
        <ele>1037</ele>
        <time>2026-05-09T20:02:17.328Z</time>
      </trkpt>
      <trkpt lat="47.86935" lon="6.91434">
        <ele>1037</ele>
        <time>2026-05-09T20:02:18.328Z</time>
      </trkpt>
      <trkpt lat="47.86935" lon="6.91434">
        <ele>1036</ele>
        <time>2026-05-09T20:02:19.328Z</time>
      </trkpt>
      <trkpt lat="47.86934" lon="6.91433">
        <ele>1036</ele>
        <time>2026-05-09T20:02:20.328Z</time>
      </trkpt>
      <trkpt lat="47.86932" lon="6.91432">
        <ele>1035</ele>
        <time>2026-05-09T20:02:21.328Z</time>
      </trkpt>
      <trkpt lat="47.86931" lon="6.91432">
        <ele>1035</ele>
        <time>2026-05-09T20:02:22.328Z</time>
      </trkpt>
      <trkpt lat="47.86929" lon="6.91431">
        <ele>1035</ele>
        <time>2026-05-09T20:02:23.328Z</time>
      </trkpt>
      <trkpt lat="47.86928" lon="6.9143">
        <ele>1034</ele>
        <time>2026-05-09T20:02:24.328Z</time>
      </trkpt>
      <trkpt lat="47.86926" lon="6.91429">
        <ele>1034</ele>
        <time>2026-05-09T20:02:25.327Z</time>
      </trkpt>
      <trkpt lat="47.86924" lon="6.91428">
        <ele>1034</ele>
        <time>2026-05-09T20:02:26.328Z</time>
      </trkpt>
      <trkpt lat="47.86923" lon="6.91427">
        <ele>1034</ele>
        <time>2026-05-09T20:02:27.328Z</time>
      </trkpt>
      <trkpt lat="47.86921" lon="6.91426">
        <ele>1033</ele>
        <time>2026-05-09T20:02:28.328Z</time>
      </trkpt>
      <trkpt lat="47.8692" lon="6.91425">
        <ele>1033</ele>
        <time>2026-05-09T20:02:29.328Z</time>
      </trkpt>
      <trkpt lat="47.86919" lon="6.91424">
        <ele>1033</ele>
        <time>2026-05-09T20:02:30.328Z</time>
      </trkpt>
      <trkpt lat="47.86918" lon="6.91423">
        <ele>1033</ele>
        <time>2026-05-09T20:02:31.328Z</time>
      </trkpt>
      <trkpt lat="47.86917" lon="6.91422">
        <ele>1033</ele>
        <time>2026-05-09T20:02:32.327Z</time>
      </trkpt>
      <trkpt lat="47.86916" lon="6.9142">
        <ele>1033</ele>
        <time>2026-05-09T20:02:33.328Z</time>
      </trkpt>
      <trkpt lat="47.86915" lon="6.91419">
        <ele>1033</ele>
        <time>2026-05-09T20:02:34.328Z</time>
      </trkpt>
      <trkpt lat="47.86914" lon="6.91417">
        <ele>1033</ele>
        <time>2026-05-09T20:02:35.327Z</time>
      </trkpt>
      <trkpt lat="47.86913" lon="6.91417">
        <ele>1033</ele>
        <time>2026-05-09T20:02:36.327Z</time>
      </trkpt>
      <trkpt lat="47.86913" lon="6.91416">
        <ele>1033</ele>
        <time>2026-05-09T20:02:37.328Z</time>
      </trkpt>
      <trkpt lat="47.86913" lon="6.91415">
        <ele>1033</ele>
        <time>2026-05-09T20:02:38.328Z</time>
      </trkpt>
      <trkpt lat="47.86913" lon="6.91415">
        <ele>1033</ele>
        <time>2026-05-09T20:02:39.328Z</time>
      </trkpt>
      <trkpt lat="47.86913" lon="6.91414">
        <ele>1032</ele>
        <time>2026-05-09T20:02:40.327Z</time>
      </trkpt>
      <trkpt lat="47.86912" lon="6.91413">
        <ele>1032</ele>
        <time>2026-05-09T20:02:41.328Z</time>
      </trkpt>
      <trkpt lat="47.86912" lon="6.91412">
        <ele>1032</ele>
        <time>2026-05-09T20:02:42.328Z</time>
      </trkpt>
      <trkpt lat="47.86911" lon="6.91409">
        <ele>1032</ele>
        <time>2026-05-09T20:02:43.328Z</time>
      </trkpt>
      <trkpt lat="47.86909" lon="6.91408">
        <ele>1032</ele>
        <time>2026-05-09T20:02:44.328Z</time>
      </trkpt>
      <trkpt lat="47.86907" lon="6.91404">
        <ele>1031</ele>
        <time>2026-05-09T20:02:45.327Z</time>
      </trkpt>
      <trkpt lat="47.86906" lon="6.91403">
        <ele>1031</ele>
        <time>2026-05-09T20:02:46.328Z</time>
      </trkpt>
      <trkpt lat="47.86905" lon="6.91401">
        <ele>1031</ele>
        <time>2026-05-09T20:02:47.328Z</time>
      </trkpt>
      <trkpt lat="47.86905" lon="6.914">
        <ele>1031</ele>
        <time>2026-05-09T20:02:48.328Z</time>
      </trkpt>
      <trkpt lat="47.86903" lon="6.91397">
        <ele>1032</ele>
        <time>2026-05-09T20:02:49.328Z</time>
      </trkpt>
      <trkpt lat="47.86902" lon="6.91395">
        <ele>1032</ele>
        <time>2026-05-09T20:02:50.327Z</time>
      </trkpt>
      <trkpt lat="47.86901" lon="6.91392">
        <ele>1032</ele>
        <time>2026-05-09T20:02:51.328Z</time>
      </trkpt>
      <trkpt lat="47.869" lon="6.91389">
        <ele>1032</ele>
        <time>2026-05-09T20:02:52.328Z</time>
      </trkpt>
      <trkpt lat="47.86899" lon="6.91387">
        <ele>1033</ele>
        <time>2026-05-09T20:02:53.328Z</time>
      </trkpt>
      <trkpt lat="47.86897" lon="6.91384">
        <ele>1033</ele>
        <time>2026-05-09T20:02:54.328Z</time>
      </trkpt>
      <trkpt lat="47.86897" lon="6.91382">
        <ele>1033</ele>
        <time>2026-05-09T20:02:55.327Z</time>
      </trkpt>
      <trkpt lat="47.86893" lon="6.91383">
        <ele>1034</ele>
        <time>2026-05-09T20:02:56.327Z</time>
      </trkpt>
      <trkpt lat="47.86892" lon="6.91385">
        <ele>1034</ele>
        <time>2026-05-09T20:02:57.327Z</time>
      </trkpt>
      <trkpt lat="47.86892" lon="6.91384">
        <ele>1034</ele>
        <time>2026-05-09T20:02:58.327Z</time>
      </trkpt>
      <trkpt lat="47.86891" lon="6.91382">
        <ele>1034</ele>
        <time>2026-05-09T20:02:59.327Z</time>
      </trkpt>
      <trkpt lat="47.86895" lon="6.91381">
        <ele>1034</ele>
        <time>2026-05-09T20:03:00.327Z</time>
      </trkpt>
      <trkpt lat="47.86894" lon="6.91379">
        <ele>1035</ele>
        <time>2026-05-09T20:03:01.327Z</time>
      </trkpt>
      <trkpt lat="47.86896" lon="6.91378">
        <ele>1035</ele>
        <time>2026-05-09T20:03:02.328Z</time>
      </trkpt>
      <trkpt lat="47.86893" lon="6.91378">
        <ele>1035</ele>
        <time>2026-05-09T20:03:03.328Z</time>
      </trkpt>
      <trkpt lat="47.86891" lon="6.91378">
        <ele>1036</ele>
        <time>2026-05-09T20:03:04.328Z</time>
      </trkpt>
      <trkpt lat="47.86889" lon="6.91379">
        <ele>1036</ele>
        <time>2026-05-09T20:03:05.328Z</time>
      </trkpt>
      <trkpt lat="47.86887" lon="6.91379">
        <ele>1036</ele>
        <time>2026-05-09T20:03:06.328Z</time>
      </trkpt>
      <trkpt lat="47.86886" lon="6.9138">
        <ele>1037</ele>
        <time>2026-05-09T20:03:07.327Z</time>
      </trkpt>
      <trkpt lat="47.86886" lon="6.91379">
        <ele>1037</ele>
        <time>2026-05-09T20:03:08.328Z</time>
      </trkpt>
      <trkpt lat="47.86885" lon="6.9138">
        <ele>1037</ele>
        <time>2026-05-09T20:03:09.328Z</time>
      </trkpt>
      <trkpt lat="47.86885" lon="6.9138">
        <ele>1038</ele>
        <time>2026-05-09T20:03:10.328Z</time>
      </trkpt>
      <trkpt lat="47.86884" lon="6.9138">
        <ele>1038</ele>
        <time>2026-05-09T20:03:11.328Z</time>
      </trkpt>
      <trkpt lat="47.86884" lon="6.9138">
        <ele>1038</ele>
        <time>2026-05-09T20:03:12.327Z</time>
      </trkpt>
      <trkpt lat="47.86883" lon="6.91379">
        <ele>1038</ele>
        <time>2026-05-09T20:03:13.327Z</time>
      </trkpt>
      <trkpt lat="47.86883" lon="6.91379">
        <ele>1039</ele>
        <time>2026-05-09T20:03:14.327Z</time>
      </trkpt>
      <trkpt lat="47.86883" lon="6.91379">
        <ele>1039</ele>
        <time>2026-05-09T20:03:15.327Z</time>
      </trkpt>
      <trkpt lat="47.86882" lon="6.91378">
        <ele>1039</ele>
        <time>2026-05-09T20:03:16.327Z</time>
      </trkpt>
      <trkpt lat="47.86882" lon="6.91377">
        <ele>1039</ele>
        <time>2026-05-09T20:03:17.327Z</time>
      </trkpt>
      <trkpt lat="47.86882" lon="6.91375">
        <ele>1038</ele>
        <time>2026-05-09T20:03:18.327Z</time>
      </trkpt>
      <trkpt lat="47.86881" lon="6.91374">
        <ele>1038</ele>
        <time>2026-05-09T20:03:19.328Z</time>
      </trkpt>
      <trkpt lat="47.8688" lon="6.91373">
        <ele>1038</ele>
        <time>2026-05-09T20:03:20.328Z</time>
      </trkpt>
      <trkpt lat="47.86879" lon="6.91373">
        <ele>1038</ele>
        <time>2026-05-09T20:03:21.328Z</time>
      </trkpt>
      <trkpt lat="47.86879" lon="6.91372">
        <ele>1038</ele>
        <time>2026-05-09T20:03:22.328Z</time>
      </trkpt>
      <trkpt lat="47.86878" lon="6.91372">
        <ele>1038</ele>
        <time>2026-05-09T20:03:23.328Z</time>
      </trkpt>
      <trkpt lat="47.86878" lon="6.91369">
        <ele>1038</ele>
        <time>2026-05-09T20:03:24.327Z</time>
      </trkpt>
      <trkpt lat="47.86878" lon="6.91368">
        <ele>1038</ele>
        <time>2026-05-09T20:03:25.328Z</time>
      </trkpt>
      <trkpt lat="47.86877" lon="6.91367">
        <ele>1038</ele>
        <time>2026-05-09T20:03:26.327Z</time>
      </trkpt>
      <trkpt lat="47.86876" lon="6.91367">
        <ele>1038</ele>
        <time>2026-05-09T20:03:27.327Z</time>
      </trkpt>
      <trkpt lat="47.86875" lon="6.91366">
        <ele>1038</ele>
        <time>2026-05-09T20:03:28.328Z</time>
      </trkpt>
      <trkpt lat="47.86875" lon="6.91366">
        <ele>1038</ele>
        <time>2026-05-09T20:03:29.328Z</time>
      </trkpt>
      <trkpt lat="47.86874" lon="6.91365">
        <ele>1038</ele>
        <time>2026-05-09T20:03:30.328Z</time>
      </trkpt>
      <trkpt lat="47.86873" lon="6.91364">
        <ele>1038</ele>
        <time>2026-05-09T20:03:31.328Z</time>
      </trkpt>
      <trkpt lat="47.86872" lon="6.91363">
        <ele>1037</ele>
        <time>2026-05-09T20:03:32.328Z</time>
      </trkpt>
      <trkpt lat="47.86871" lon="6.91362">
        <ele>1037</ele>
        <time>2026-05-09T20:03:33.328Z</time>
      </trkpt>
      <trkpt lat="47.86871" lon="6.9136">
        <ele>1037</ele>
        <time>2026-05-09T20:03:34.327Z</time>
      </trkpt>
      <trkpt lat="47.8687" lon="6.91359">
        <ele>1037</ele>
        <time>2026-05-09T20:03:35.328Z</time>
      </trkpt>
      <trkpt lat="47.86869" lon="6.91358">
        <ele>1037</ele>
        <time>2026-05-09T20:03:36.328Z</time>
      </trkpt>
      <trkpt lat="47.86869" lon="6.91356">
        <ele>1037</ele>
        <time>2026-05-09T20:03:37.328Z</time>
      </trkpt>
      <trkpt lat="47.86869" lon="6.91355">
        <ele>1037</ele>
        <time>2026-05-09T20:03:38.327Z</time>
      </trkpt>
      <trkpt lat="47.86868" lon="6.91354">
        <ele>1037</ele>
        <time>2026-05-09T20:03:39.327Z</time>
      </trkpt>
      <trkpt lat="47.86868" lon="6.91353">
        <ele>1037</ele>
        <time>2026-05-09T20:03:40.328Z</time>
      </trkpt>
      <trkpt lat="47.86867" lon="6.91352">
        <ele>1037</ele>
        <time>2026-05-09T20:03:41.328Z</time>
      </trkpt>
      <trkpt lat="47.86867" lon="6.91351">
        <ele>1037</ele>
        <time>2026-05-09T20:03:42.327Z</time>
      </trkpt>
      <trkpt lat="47.86866" lon="6.91348">
        <ele>1037</ele>
        <time>2026-05-09T20:03:43.328Z</time>
      </trkpt>
      <trkpt lat="47.86866" lon="6.91346">
        <ele>1037</ele>
        <time>2026-05-09T20:03:44.327Z</time>
      </trkpt>
      <trkpt lat="47.86865" lon="6.91344">
        <ele>1037</ele>
        <time>2026-05-09T20:03:45.327Z</time>
      </trkpt>
      <trkpt lat="47.86865" lon="6.91342">
        <ele>1037</ele>
        <time>2026-05-09T20:03:46.327Z</time>
      </trkpt>
      <trkpt lat="47.86864" lon="6.91339">
        <ele>1037</ele>
        <time>2026-05-09T20:03:47.328Z</time>
      </trkpt>
      <trkpt lat="47.86863" lon="6.91338">
        <ele>1037</ele>
        <time>2026-05-09T20:03:48.327Z</time>
      </trkpt>
      <trkpt lat="47.86863" lon="6.91337">
        <ele>1037</ele>
        <time>2026-05-09T20:03:49.327Z</time>
      </trkpt>
      <trkpt lat="47.86862" lon="6.91336">
        <ele>1037</ele>
        <time>2026-05-09T20:03:50.328Z</time>
      </trkpt>
      <trkpt lat="47.86863" lon="6.91335">
        <ele>1036</ele>
        <time>2026-05-09T20:03:51.327Z</time>
      </trkpt>
      <trkpt lat="47.86863" lon="6.91333">
        <ele>1036</ele>
        <time>2026-05-09T20:03:52.328Z</time>
      </trkpt>
      <trkpt lat="47.86863" lon="6.91332">
        <ele>1036</ele>
        <time>2026-05-09T20:03:53.327Z</time>
      </trkpt>
      <trkpt lat="47.86862" lon="6.91331">
        <ele>1035</ele>
        <time>2026-05-09T20:03:54.328Z</time>
      </trkpt>
      <trkpt lat="47.86861" lon="6.9133">
        <ele>1035</ele>
        <time>2026-05-09T20:03:55.327Z</time>
      </trkpt>
      <trkpt lat="47.8686" lon="6.91329">
        <ele>1035</ele>
        <time>2026-05-09T20:03:56.328Z</time>
      </trkpt>
      <trkpt lat="47.8686" lon="6.91327">
        <ele>1035</ele>
        <time>2026-05-09T20:03:57.327Z</time>
      </trkpt>
      <trkpt lat="47.86859" lon="6.91325">
        <ele>1035</ele>
        <time>2026-05-09T20:03:58.328Z</time>
      </trkpt>
      <trkpt lat="47.86859" lon="6.91323">
        <ele>1035</ele>
        <time>2026-05-09T20:03:59.327Z</time>
      </trkpt>
      <trkpt lat="47.86859" lon="6.91321">
        <ele>1035</ele>
        <time>2026-05-09T20:04:00.328Z</time>
      </trkpt>
      <trkpt lat="47.86858" lon="6.9132">
        <ele>1035</ele>
        <time>2026-05-09T20:04:01.327Z</time>
      </trkpt>
      <trkpt lat="47.86858" lon="6.91319">
        <ele>1035</ele>
        <time>2026-05-09T20:04:02.328Z</time>
      </trkpt>
      <trkpt lat="47.86857" lon="6.91318">
        <ele>1036</ele>
        <time>2026-05-09T20:04:03.328Z</time>
      </trkpt>
      <trkpt lat="47.86856" lon="6.91318">
        <ele>1036</ele>
        <time>2026-05-09T20:04:04.328Z</time>
      </trkpt>
      <trkpt lat="47.86856" lon="6.91317">
        <ele>1036</ele>
        <time>2026-05-09T20:04:05.328Z</time>
      </trkpt>
      <trkpt lat="47.86856" lon="6.91316">
        <ele>1036</ele>
        <time>2026-05-09T20:04:06.328Z</time>
      </trkpt>
      <trkpt lat="47.86856" lon="6.91315">
        <ele>1037</ele>
        <time>2026-05-09T20:04:07.328Z</time>
      </trkpt>
      <trkpt lat="47.86856" lon="6.91314">
        <ele>1037</ele>
        <time>2026-05-09T20:04:08.327Z</time>
      </trkpt>
      <trkpt lat="47.86855" lon="6.91314">
        <ele>1037</ele>
        <time>2026-05-09T20:04:09.327Z</time>
      </trkpt>
      <trkpt lat="47.86855" lon="6.91313">
        <ele>1037</ele>
        <time>2026-05-09T20:04:10.327Z</time>
      </trkpt>
      <trkpt lat="47.86855" lon="6.9131">
        <ele>1037</ele>
        <time>2026-05-09T20:04:11.328Z</time>
      </trkpt>
      <trkpt lat="47.86855" lon="6.91307">
        <ele>1037</ele>
        <time>2026-05-09T20:04:12.327Z</time>
      </trkpt>
      <trkpt lat="47.86855" lon="6.91306">
        <ele>1037</ele>
        <time>2026-05-09T20:04:13.328Z</time>
      </trkpt>
      <trkpt lat="47.86853" lon="6.91305">
        <ele>1037</ele>
        <time>2026-05-09T20:04:14.327Z</time>
      </trkpt>
      <trkpt lat="47.86852" lon="6.91305">
        <ele>1037</ele>
        <time>2026-05-09T20:04:15.327Z</time>
      </trkpt>
      <trkpt lat="47.86851" lon="6.91305">
        <ele>1036</ele>
        <time>2026-05-09T20:04:16.327Z</time>
      </trkpt>
      <trkpt lat="47.86851" lon="6.91305">
        <ele>1036</ele>
        <time>2026-05-09T20:04:17.328Z</time>
      </trkpt>
      <trkpt lat="47.86851" lon="6.91304">
        <ele>1036</ele>
        <time>2026-05-09T20:04:18.327Z</time>
      </trkpt>
      <trkpt lat="47.8685" lon="6.91304">
        <ele>1036</ele>
        <time>2026-05-09T20:04:19.328Z</time>
      </trkpt>
      <trkpt lat="47.8685" lon="6.91303">
        <ele>1036</ele>
        <time>2026-05-09T20:04:20.328Z</time>
      </trkpt>
      <trkpt lat="47.8685" lon="6.91302">
        <ele>1036</ele>
        <time>2026-05-09T20:04:21.327Z</time>
      </trkpt>
      <trkpt lat="47.8685" lon="6.91301">
        <ele>1036</ele>
        <time>2026-05-09T20:04:22.328Z</time>
      </trkpt>
      <trkpt lat="47.8685" lon="6.91301">
        <ele>1036</ele>
        <time>2026-05-09T20:04:23.327Z</time>
      </trkpt>
      <trkpt lat="47.8685" lon="6.913">
        <ele>1036</ele>
        <time>2026-05-09T20:04:24.328Z</time>
      </trkpt>
      <trkpt lat="47.8685" lon="6.91299">
        <ele>1035</ele>
        <time>2026-05-09T20:04:25.327Z</time>
      </trkpt>
      <trkpt lat="47.86849" lon="6.91298">
        <ele>1035</ele>
        <time>2026-05-09T20:04:26.327Z</time>
      </trkpt>
      <trkpt lat="47.86849" lon="6.91296">
        <ele>1035</ele>
        <time>2026-05-09T20:04:27.327Z</time>
      </trkpt>
      <trkpt lat="47.86849" lon="6.91295">
        <ele>1036</ele>
        <time>2026-05-09T20:04:28.328Z</time>
      </trkpt>
      <trkpt lat="47.86848" lon="6.91294">
        <ele>1036</ele>
        <time>2026-05-09T20:04:29.327Z</time>
      </trkpt>
      <trkpt lat="47.86848" lon="6.91292">
        <ele>1036</ele>
        <time>2026-05-09T20:04:30.327Z</time>
      </trkpt>
      <trkpt lat="47.86847" lon="6.9129">
        <ele>1037</ele>
        <time>2026-05-09T20:04:31.327Z</time>
      </trkpt>
      <trkpt lat="47.86845" lon="6.91289">
        <ele>1037</ele>
        <time>2026-05-09T20:04:32.328Z</time>
      </trkpt>
      <trkpt lat="47.86845" lon="6.91286">
        <ele>1038</ele>
        <time>2026-05-09T20:04:33.327Z</time>
      </trkpt>
      <trkpt lat="47.86844" lon="6.91283">
        <ele>1038</ele>
        <time>2026-05-09T20:04:34.327Z</time>
      </trkpt>
      <trkpt lat="47.86845" lon="6.9128">
        <ele>1039</ele>
        <time>2026-05-09T20:04:35.328Z</time>
      </trkpt>
      <trkpt lat="47.86844" lon="6.91278">
        <ele>1039</ele>
        <time>2026-05-09T20:04:36.327Z</time>
      </trkpt>
      <trkpt lat="47.86845" lon="6.91276">
        <ele>1040</ele>
        <time>2026-05-09T20:04:37.328Z</time>
      </trkpt>
      <trkpt lat="47.86845" lon="6.91274">
        <ele>1040</ele>
        <time>2026-05-09T20:04:38.327Z</time>
      </trkpt>
      <trkpt lat="47.86845" lon="6.91274">
        <ele>1040</ele>
        <time>2026-05-09T20:04:39.328Z</time>
      </trkpt>
      <trkpt lat="47.86846" lon="6.91272">
        <ele>1041</ele>
        <time>2026-05-09T20:04:40.327Z</time>
      </trkpt>
      <trkpt lat="47.86846" lon="6.91271">
        <ele>1041</ele>
        <time>2026-05-09T20:04:41.328Z</time>
      </trkpt>
      <trkpt lat="47.86847" lon="6.91269">
        <ele>1041</ele>
        <time>2026-05-09T20:04:42.327Z</time>
      </trkpt>
      <trkpt lat="47.86848" lon="6.91267">
        <ele>1041</ele>
        <time>2026-05-09T20:04:43.327Z</time>
      </trkpt>
      <trkpt lat="47.86848" lon="6.91266">
        <ele>1041</ele>
        <time>2026-05-09T20:04:44.328Z</time>
      </trkpt>
      <trkpt lat="47.86848" lon="6.91264">
        <ele>1041</ele>
        <time>2026-05-09T20:04:45.327Z</time>
      </trkpt>
      <trkpt lat="47.86848" lon="6.91263">
        <ele>1040</ele>
        <time>2026-05-09T20:04:46.328Z</time>
      </trkpt>
      <trkpt lat="47.86847" lon="6.91261">
        <ele>1040</ele>
        <time>2026-05-09T20:04:47.327Z</time>
      </trkpt>
      <trkpt lat="47.86847" lon="6.91258">
        <ele>1040</ele>
        <time>2026-05-09T20:04:48.328Z</time>
      </trkpt>
      <trkpt lat="47.86847" lon="6.91255">
        <ele>1040</ele>
        <time>2026-05-09T20:04:49.327Z</time>
      </trkpt>
      <trkpt lat="47.86846" lon="6.91253">
        <ele>1040</ele>
        <time>2026-05-09T20:04:50.327Z</time>
      </trkpt>
      <trkpt lat="47.86846" lon="6.9125">
        <ele>1040</ele>
        <time>2026-05-09T20:04:51.327Z</time>
      </trkpt>
      <trkpt lat="47.86846" lon="6.91247">
        <ele>1040</ele>
        <time>2026-05-09T20:04:52.328Z</time>
      </trkpt>
      <trkpt lat="47.86847" lon="6.91246">
        <ele>1039</ele>
        <time>2026-05-09T20:04:53.328Z</time>
      </trkpt>
      <trkpt lat="47.86847" lon="6.91244">
        <ele>1039</ele>
        <time>2026-05-09T20:04:54.328Z</time>
      </trkpt>
      <trkpt lat="47.86847" lon="6.91243">
        <ele>1039</ele>
        <time>2026-05-09T20:04:55.327Z</time>
      </trkpt>
      <trkpt lat="47.86848" lon="6.91241">
        <ele>1040</ele>
        <time>2026-05-09T20:04:56.328Z</time>
      </trkpt>
      <trkpt lat="47.86848" lon="6.9124">
        <ele>1040</ele>
        <time>2026-05-09T20:04:57.327Z</time>
      </trkpt>
      <trkpt lat="47.86848" lon="6.91238">
        <ele>1040</ele>
        <time>2026-05-09T20:04:58.327Z</time>
      </trkpt>
      <trkpt lat="47.86849" lon="6.91235">
        <ele>1040</ele>
        <time>2026-05-09T20:04:59.328Z</time>
      </trkpt>
      <trkpt lat="47.8685" lon="6.91233">
        <ele>1040</ele>
        <time>2026-05-09T20:05:00.328Z</time>
      </trkpt>
      <trkpt lat="47.8685" lon="6.91232">
        <ele>1040</ele>
        <time>2026-05-09T20:05:01.327Z</time>
      </trkpt>
      <trkpt lat="47.86849" lon="6.9123">
        <ele>1041</ele>
        <time>2026-05-09T20:05:02.328Z</time>
      </trkpt>
      <trkpt lat="47.86849" lon="6.91228">
        <ele>1041</ele>
        <time>2026-05-09T20:05:03.328Z</time>
      </trkpt>
      <trkpt lat="47.86847" lon="6.91225">
        <ele>1041</ele>
        <time>2026-05-09T20:05:04.328Z</time>
      </trkpt>
      <trkpt lat="47.86846" lon="6.91222">
        <ele>1041</ele>
        <time>2026-05-09T20:05:05.327Z</time>
      </trkpt>
      <trkpt lat="47.86846" lon="6.91219">
        <ele>1041</ele>
        <time>2026-05-09T20:05:06.328Z</time>
      </trkpt>
      <trkpt lat="47.86846" lon="6.91217">
        <ele>1041</ele>
        <time>2026-05-09T20:05:07.328Z</time>
      </trkpt>
      <trkpt lat="47.86847" lon="6.91214">
        <ele>1042</ele>
        <time>2026-05-09T20:05:08.327Z</time>
      </trkpt>
      <trkpt lat="47.86847" lon="6.91212">
        <ele>1042</ele>
        <time>2026-05-09T20:05:09.328Z</time>
      </trkpt>
      <trkpt lat="47.86846" lon="6.91209">
        <ele>1042</ele>
        <time>2026-05-09T20:05:10.327Z</time>
      </trkpt>
      <trkpt lat="47.86845" lon="6.91207">
        <ele>1042</ele>
        <time>2026-05-09T20:05:11.328Z</time>
      </trkpt>
      <trkpt lat="47.86844" lon="6.91205">
        <ele>1042</ele>
        <time>2026-05-09T20:05:12.327Z</time>
      </trkpt>
      <trkpt lat="47.86841" lon="6.91202">
        <ele>1042</ele>
        <time>2026-05-09T20:05:13.328Z</time>
      </trkpt>
      <trkpt lat="47.86838" lon="6.91199">
        <ele>1042</ele>
        <time>2026-05-09T20:05:14.327Z</time>
      </trkpt>
      <trkpt lat="47.86836" lon="6.91197">
        <ele>1043</ele>
        <time>2026-05-09T20:05:15.328Z</time>
      </trkpt>
      <trkpt lat="47.86836" lon="6.91194">
        <ele>1043</ele>
        <time>2026-05-09T20:05:16.328Z</time>
      </trkpt>
      <trkpt lat="47.86835" lon="6.91192">
        <ele>1043</ele>
        <time>2026-05-09T20:05:17.328Z</time>
      </trkpt>
      <trkpt lat="47.86837" lon="6.91188">
        <ele>1044</ele>
        <time>2026-05-09T20:05:18.327Z</time>
      </trkpt>
      <trkpt lat="47.86838" lon="6.91185">
        <ele>1044</ele>
        <time>2026-05-09T20:05:19.328Z</time>
      </trkpt>
      <trkpt lat="47.86839" lon="6.91183">
        <ele>1044</ele>
        <time>2026-05-09T20:05:20.327Z</time>
      </trkpt>
      <trkpt lat="47.86838" lon="6.9118">
        <ele>1045</ele>
        <time>2026-05-09T20:05:21.328Z</time>
      </trkpt>
      <trkpt lat="47.86836" lon="6.9118">
        <ele>1045</ele>
        <time>2026-05-09T20:05:22.327Z</time>
      </trkpt>
      <trkpt lat="47.86836" lon="6.91176">
        <ele>1045</ele>
        <time>2026-05-09T20:05:23.327Z</time>
      </trkpt>
      <trkpt lat="47.86837" lon="6.91174">
        <ele>1046</ele>
        <time>2026-05-09T20:05:24.327Z</time>
      </trkpt>
      <trkpt lat="47.86838" lon="6.91175">
        <ele>1045</ele>
        <time>2026-05-09T20:05:25.328Z</time>
      </trkpt>
      <trkpt lat="47.86839" lon="6.91177">
        <ele>1045</ele>
        <time>2026-05-09T20:05:26.328Z</time>
      </trkpt>
      <trkpt lat="47.86836" lon="6.91178">
        <ele>1045</ele>
        <time>2026-05-09T20:05:27.327Z</time>
      </trkpt>
      <trkpt lat="47.86833" lon="6.91176">
        <ele>1045</ele>
        <time>2026-05-09T20:05:28.327Z</time>
      </trkpt>
      <trkpt lat="47.86832" lon="6.91172">
        <ele>1045</ele>
        <time>2026-05-09T20:05:29.327Z</time>
      </trkpt>
      <trkpt lat="47.86831" lon="6.9117">
        <ele>1044</ele>
        <time>2026-05-09T20:05:30.328Z</time>
      </trkpt>
      <trkpt lat="47.86833" lon="6.91167">
        <ele>1044</ele>
        <time>2026-05-09T20:05:31.327Z</time>
      </trkpt>
      <trkpt lat="47.86836" lon="6.91164">
        <ele>1044</ele>
        <time>2026-05-09T20:05:32.328Z</time>
      </trkpt>
      <trkpt lat="47.86838" lon="6.91162">
        <ele>1044</ele>
        <time>2026-05-09T20:05:33.327Z</time>
      </trkpt>
      <trkpt lat="47.86838" lon="6.91162">
        <ele>1043</ele>
        <time>2026-05-09T20:05:34.328Z</time>
      </trkpt>
      <trkpt lat="47.86837" lon="6.91162">
        <ele>1043</ele>
        <time>2026-05-09T20:05:35.327Z</time>
      </trkpt>
      <trkpt lat="47.86837" lon="6.91161">
        <ele>1043</ele>
        <time>2026-05-09T20:05:36.328Z</time>
      </trkpt>
      <trkpt lat="47.86837" lon="6.91159">
        <ele>1043</ele>
        <time>2026-05-09T20:05:37.327Z</time>
      </trkpt>
      <trkpt lat="47.86837" lon="6.91158">
        <ele>1042</ele>
        <time>2026-05-09T20:05:38.327Z</time>
      </trkpt>
      <trkpt lat="47.86837" lon="6.91157">
        <ele>1042</ele>
        <time>2026-05-09T20:05:39.327Z</time>
      </trkpt>
      <trkpt lat="47.86837" lon="6.91157">
        <ele>1042</ele>
        <time>2026-05-09T20:05:40.328Z</time>
      </trkpt>
      <trkpt lat="47.86836" lon="6.91156">
        <ele>1041</ele>
        <time>2026-05-09T20:05:41.327Z</time>
      </trkpt>
      <trkpt lat="47.86836" lon="6.91156">
        <ele>1041</ele>
        <time>2026-05-09T20:05:42.328Z</time>
      </trkpt>
      <trkpt lat="47.86835" lon="6.91155">
        <ele>1041</ele>
        <time>2026-05-09T20:05:43.327Z</time>
      </trkpt>
      <trkpt lat="47.86834" lon="6.91154">
        <ele>1041</ele>
        <time>2026-05-09T20:05:44.328Z</time>
      </trkpt>
      <trkpt lat="47.86834" lon="6.91153">
        <ele>1041</ele>
        <time>2026-05-09T20:05:45.327Z</time>
      </trkpt>
      <trkpt lat="47.86833" lon="6.91152">
        <ele>1040</ele>
        <time>2026-05-09T20:05:46.328Z</time>
      </trkpt>
      <trkpt lat="47.86832" lon="6.91151">
        <ele>1040</ele>
        <time>2026-05-09T20:05:47.328Z</time>
      </trkpt>
      <trkpt lat="47.86832" lon="6.91149">
        <ele>1040</ele>
        <time>2026-05-09T20:05:48.327Z</time>
      </trkpt>
      <trkpt lat="47.86831" lon="6.91147">
        <ele>1040</ele>
        <time>2026-05-09T20:05:49.328Z</time>
      </trkpt>
      <trkpt lat="47.8683" lon="6.91145">
        <ele>1040</ele>
        <time>2026-05-09T20:05:50.327Z</time>
      </trkpt>
      <trkpt lat="47.8683" lon="6.91144">
        <ele>1040</ele>
        <time>2026-05-09T20:05:51.328Z</time>
      </trkpt>
      <trkpt lat="47.86829" lon="6.91143">
        <ele>1040</ele>
        <time>2026-05-09T20:05:52.327Z</time>
      </trkpt>
      <trkpt lat="47.86829" lon="6.91142">
        <ele>1040</ele>
        <time>2026-05-09T20:05:53.327Z</time>
      </trkpt>
      <trkpt lat="47.86829" lon="6.91141">
        <ele>1040</ele>
        <time>2026-05-09T20:05:54.327Z</time>
      </trkpt>
      <trkpt lat="47.86829" lon="6.9114">
        <ele>1040</ele>
        <time>2026-05-09T20:05:55.327Z</time>
      </trkpt>
      <trkpt lat="47.86829" lon="6.9114">
        <ele>1040</ele>
        <time>2026-05-09T20:05:56.327Z</time>
      </trkpt>
      <trkpt lat="47.86828" lon="6.91139">
        <ele>1040</ele>
        <time>2026-05-09T20:05:57.328Z</time>
      </trkpt>
      <trkpt lat="47.86828" lon="6.91139">
        <ele>1040</ele>
        <time>2026-05-09T20:05:58.327Z</time>
      </trkpt>
      <trkpt lat="47.86827" lon="6.91138">
        <ele>1041</ele>
        <time>2026-05-09T20:05:59.327Z</time>
      </trkpt>
      <trkpt lat="47.86826" lon="6.91138">
        <ele>1041</ele>
        <time>2026-05-09T20:06:00.327Z</time>
      </trkpt>
      <trkpt lat="47.86825" lon="6.91138">
        <ele>1041</ele>
        <time>2026-05-09T20:06:01.328Z</time>
      </trkpt>
      <trkpt lat="47.86825" lon="6.91137">
        <ele>1041</ele>
        <time>2026-05-09T20:06:02.327Z</time>
      </trkpt>
      <trkpt lat="47.86825" lon="6.91137">
        <ele>1041</ele>
        <time>2026-05-09T20:06:03.328Z</time>
      </trkpt>
      <trkpt lat="47.86825" lon="6.91137">
        <ele>1041</ele>
        <time>2026-05-09T20:06:04.328Z</time>
      </trkpt>
      <trkpt lat="47.86824" lon="6.91136">
        <ele>1041</ele>
        <time>2026-05-09T20:06:05.327Z</time>
      </trkpt>
      <trkpt lat="47.86824" lon="6.91135">
        <ele>1041</ele>
        <time>2026-05-09T20:06:06.328Z</time>
      </trkpt>
      <trkpt lat="47.86824" lon="6.91134">
        <ele>1042</ele>
        <time>2026-05-09T20:06:07.327Z</time>
      </trkpt>
      <trkpt lat="47.86823" lon="6.91134">
        <ele>1042</ele>
        <time>2026-05-09T20:06:08.328Z</time>
      </trkpt>
      <trkpt lat="47.86823" lon="6.91134">
        <ele>1042</ele>
        <time>2026-05-09T20:06:09.327Z</time>
      </trkpt>
      <trkpt lat="47.86822" lon="6.91134">
        <ele>1042</ele>
        <time>2026-05-09T20:06:10.328Z</time>
      </trkpt>
      <trkpt lat="47.86821" lon="6.91133">
        <ele>1042</ele>
        <time>2026-05-09T20:06:11.327Z</time>
      </trkpt>
      <trkpt lat="47.86821" lon="6.91132">
        <ele>1042</ele>
        <time>2026-05-09T20:06:12.328Z</time>
      </trkpt>
      <trkpt lat="47.8682" lon="6.91131">
        <ele>1042</ele>
        <time>2026-05-09T20:06:13.328Z</time>
      </trkpt>
      <trkpt lat="47.8682" lon="6.9113">
        <ele>1043</ele>
        <time>2026-05-09T20:06:14.327Z</time>
      </trkpt>
      <trkpt lat="47.86819" lon="6.91131">
        <ele>1043</ele>
        <time>2026-05-09T20:06:15.327Z</time>
      </trkpt>
      <trkpt lat="47.86818" lon="6.91131">
        <ele>1043</ele>
        <time>2026-05-09T20:06:16.328Z</time>
      </trkpt>
      <trkpt lat="47.86817" lon="6.9113">
        <ele>1043</ele>
        <time>2026-05-09T20:06:17.327Z</time>
      </trkpt>
      <trkpt lat="47.86816" lon="6.9113">
        <ele>1043</ele>
        <time>2026-05-09T20:06:18.327Z</time>
      </trkpt>
      <trkpt lat="47.86815" lon="6.9113">
        <ele>1043</ele>
        <time>2026-05-09T20:06:19.328Z</time>
      </trkpt>
      <trkpt lat="47.86814" lon="6.9113">
        <ele>1043</ele>
        <time>2026-05-09T20:06:20.327Z</time>
      </trkpt>
      <trkpt lat="47.86814" lon="6.91129">
        <ele>1044</ele>
        <time>2026-05-09T20:06:21.328Z</time>
      </trkpt>
      <trkpt lat="47.86814" lon="6.91127">
        <ele>1044</ele>
        <time>2026-05-09T20:06:22.327Z</time>
      </trkpt>
      <trkpt lat="47.86814" lon="6.91126">
        <ele>1044</ele>
        <time>2026-05-09T20:06:23.328Z</time>
      </trkpt>
      <trkpt lat="47.86814" lon="6.91124">
        <ele>1044</ele>
        <time>2026-05-09T20:06:24.327Z</time>
      </trkpt>
      <trkpt lat="47.86814" lon="6.91122">
        <ele>1044</ele>
        <time>2026-05-09T20:06:25.328Z</time>
      </trkpt>
      <trkpt lat="47.86814" lon="6.91121">
        <ele>1045</ele>
        <time>2026-05-09T20:06:26.327Z</time>
      </trkpt>
      <trkpt lat="47.86814" lon="6.9112">
        <ele>1045</ele>
        <time>2026-05-09T20:06:27.328Z</time>
      </trkpt>
      <trkpt lat="47.86814" lon="6.9112">
        <ele>1045</ele>
        <time>2026-05-09T20:06:28.327Z</time>
      </trkpt>
      <trkpt lat="47.86814" lon="6.91119">
        <ele>1045</ele>
        <time>2026-05-09T20:06:29.328Z</time>
      </trkpt>
      <trkpt lat="47.86813" lon="6.91119">
        <ele>1046</ele>
        <time>2026-05-09T20:06:30.327Z</time>
      </trkpt>
      <trkpt lat="47.86813" lon="6.91118">
        <ele>1046</ele>
        <time>2026-05-09T20:06:31.327Z</time>
      </trkpt>
      <trkpt lat="47.86812" lon="6.91117">
        <ele>1046</ele>
        <time>2026-05-09T20:06:32.328Z</time>
      </trkpt>
      <trkpt lat="47.86812" lon="6.91117">
        <ele>1046</ele>
        <time>2026-05-09T20:06:33.327Z</time>
      </trkpt>
      <trkpt lat="47.86812" lon="6.91115">
        <ele>1046</ele>
        <time>2026-05-09T20:06:34.328Z</time>
      </trkpt>
      <trkpt lat="47.86812" lon="6.91114">
        <ele>1046</ele>
        <time>2026-05-09T20:06:35.328Z</time>
      </trkpt>
      <trkpt lat="47.86812" lon="6.91113">
        <ele>1046</ele>
        <time>2026-05-09T20:06:36.327Z</time>
      </trkpt>
      <trkpt lat="47.86811" lon="6.91112">
        <ele>1046</ele>
        <time>2026-05-09T20:06:37.327Z</time>
      </trkpt>
      <trkpt lat="47.86811" lon="6.91111">
        <ele>1046</ele>
        <time>2026-05-09T20:06:38.328Z</time>
      </trkpt>
      <trkpt lat="47.86811" lon="6.91111">
        <ele>1047</ele>
        <time>2026-05-09T20:06:39.327Z</time>
      </trkpt>
      <trkpt lat="47.8681" lon="6.9111">
        <ele>1047</ele>
        <time>2026-05-09T20:06:40.328Z</time>
      </trkpt>
      <trkpt lat="47.86809" lon="6.9111">
        <ele>1047</ele>
        <time>2026-05-09T20:06:41.327Z</time>
      </trkpt>
      <trkpt lat="47.86808" lon="6.91109">
        <ele>1047</ele>
        <time>2026-05-09T20:06:42.327Z</time>
      </trkpt>
      <trkpt lat="47.86807" lon="6.91108">
        <ele>1047</ele>
        <time>2026-05-09T20:06:43.327Z</time>
      </trkpt>
      <trkpt lat="47.86805" lon="6.91108">
        <ele>1047</ele>
        <time>2026-05-09T20:06:44.327Z</time>
      </trkpt>
      <trkpt lat="47.86805" lon="6.91107">
        <ele>1047</ele>
        <time>2026-05-09T20:06:45.327Z</time>
      </trkpt>
      <trkpt lat="47.86804" lon="6.91106">
        <ele>1047</ele>
        <time>2026-05-09T20:06:46.327Z</time>
      </trkpt>
      <trkpt lat="47.86803" lon="6.91105">
        <ele>1048</ele>
        <time>2026-05-09T20:06:47.328Z</time>
      </trkpt>
      <trkpt lat="47.86802" lon="6.91103">
        <ele>1048</ele>
        <time>2026-05-09T20:06:48.327Z</time>
      </trkpt>
      <trkpt lat="47.86801" lon="6.91101">
        <ele>1048</ele>
        <time>2026-05-09T20:06:49.328Z</time>
      </trkpt>
      <trkpt lat="47.868" lon="6.91099">
        <ele>1048</ele>
        <time>2026-05-09T20:06:50.327Z</time>
      </trkpt>
      <trkpt lat="47.868" lon="6.91099">
        <ele>1048</ele>
        <time>2026-05-09T20:06:51.327Z</time>
      </trkpt>
      <trkpt lat="47.868" lon="6.91098">
        <ele>1048</ele>
        <time>2026-05-09T20:06:52.328Z</time>
      </trkpt>
      <trkpt lat="47.868" lon="6.91098">
        <ele>1048</ele>
        <time>2026-05-09T20:06:53.327Z</time>
      </trkpt>
      <trkpt lat="47.86799" lon="6.91096">
        <ele>1048</ele>
        <time>2026-05-09T20:06:54.328Z</time>
      </trkpt>
      <trkpt lat="47.86798" lon="6.91096">
        <ele>1048</ele>
        <time>2026-05-09T20:06:55.327Z</time>
      </trkpt>
      <trkpt lat="47.86797" lon="6.91095">
        <ele>1048</ele>
        <time>2026-05-09T20:06:56.327Z</time>
      </trkpt>
      <trkpt lat="47.86796" lon="6.91094">
        <ele>1048</ele>
        <time>2026-05-09T20:06:57.327Z</time>
      </trkpt>
      <trkpt lat="47.86795" lon="6.91093">
        <ele>1048</ele>
        <time>2026-05-09T20:06:58.328Z</time>
      </trkpt>
      <trkpt lat="47.86795" lon="6.91092">
        <ele>1047</ele>
        <time>2026-05-09T20:06:59.327Z</time>
      </trkpt>
      <trkpt lat="47.86795" lon="6.9109">
        <ele>1047</ele>
        <time>2026-05-09T20:07:00.327Z</time>
      </trkpt>
      <trkpt lat="47.86795" lon="6.91088">
        <ele>1047</ele>
        <time>2026-05-09T20:07:01.328Z</time>
      </trkpt>
      <trkpt lat="47.86795" lon="6.91087">
        <ele>1047</ele>
        <time>2026-05-09T20:07:02.328Z</time>
      </trkpt>
      <trkpt lat="47.86794" lon="6.91087">
        <ele>1047</ele>
        <time>2026-05-09T20:07:03.327Z</time>
      </trkpt>
      <trkpt lat="47.86794" lon="6.91086">
        <ele>1047</ele>
        <time>2026-05-09T20:07:04.328Z</time>
      </trkpt>
      <trkpt lat="47.86793" lon="6.91085">
        <ele>1047</ele>
        <time>2026-05-09T20:07:05.327Z</time>
      </trkpt>
      <trkpt lat="47.86792" lon="6.91083">
        <ele>1047</ele>
        <time>2026-05-09T20:07:06.327Z</time>
      </trkpt>
      <trkpt lat="47.86792" lon="6.91082">
        <ele>1047</ele>
        <time>2026-05-09T20:07:07.328Z</time>
      </trkpt>
      <trkpt lat="47.86791" lon="6.91081">
        <ele>1047</ele>
        <time>2026-05-09T20:07:08.328Z</time>
      </trkpt>
      <trkpt lat="47.8679" lon="6.91079">
        <ele>1047</ele>
        <time>2026-05-09T20:07:09.327Z</time>
      </trkpt>
      <trkpt lat="47.8679" lon="6.91078">
        <ele>1047</ele>
        <time>2026-05-09T20:07:10.327Z</time>
      </trkpt>
      <trkpt lat="47.86789" lon="6.91076">
        <ele>1048</ele>
        <time>2026-05-09T20:07:11.328Z</time>
      </trkpt>
      <trkpt lat="47.86789" lon="6.91074">
        <ele>1048</ele>
        <time>2026-05-09T20:07:12.327Z</time>
      </trkpt>
      <trkpt lat="47.86788" lon="6.91072">
        <ele>1048</ele>
        <time>2026-05-09T20:07:13.327Z</time>
      </trkpt>
      <trkpt lat="47.86786" lon="6.91071">
        <ele>1049</ele>
        <time>2026-05-09T20:07:14.327Z</time>
      </trkpt>
      <trkpt lat="47.86785" lon="6.9107">
        <ele>1049</ele>
        <time>2026-05-09T20:07:15.327Z</time>
      </trkpt>
      <trkpt lat="47.86785" lon="6.91069">
        <ele>1049</ele>
        <time>2026-05-09T20:07:16.327Z</time>
      </trkpt>
      <trkpt lat="47.86784" lon="6.91068">
        <ele>1049</ele>
        <time>2026-05-09T20:07:17.327Z</time>
      </trkpt>
      <trkpt lat="47.86784" lon="6.91066">
        <ele>1050</ele>
        <time>2026-05-09T20:07:18.327Z</time>
      </trkpt>
      <trkpt lat="47.86783" lon="6.91065">
        <ele>1050</ele>
        <time>2026-05-09T20:07:19.328Z</time>
      </trkpt>
      <trkpt lat="47.86783" lon="6.91064">
        <ele>1050</ele>
        <time>2026-05-09T20:07:20.327Z</time>
      </trkpt>
      <trkpt lat="47.86782" lon="6.91063">
        <ele>1049</ele>
        <time>2026-05-09T20:07:21.327Z</time>
      </trkpt>
      <trkpt lat="47.86782" lon="6.91062">
        <ele>1049</ele>
        <time>2026-05-09T20:07:22.328Z</time>
      </trkpt>
      <trkpt lat="47.86782" lon="6.9106">
        <ele>1049</ele>
        <time>2026-05-09T20:07:23.327Z</time>
      </trkpt>
      <trkpt lat="47.86781" lon="6.9106">
        <ele>1049</ele>
        <time>2026-05-09T20:07:24.327Z</time>
      </trkpt>
      <trkpt lat="47.86781" lon="6.91059">
        <ele>1049</ele>
        <time>2026-05-09T20:07:25.327Z</time>
      </trkpt>
      <trkpt lat="47.8678" lon="6.9106">
        <ele>1049</ele>
        <time>2026-05-09T20:07:26.327Z</time>
      </trkpt>
      <trkpt lat="47.86779" lon="6.91059">
        <ele>1049</ele>
        <time>2026-05-09T20:07:27.327Z</time>
      </trkpt>
      <trkpt lat="47.86777" lon="6.91059">
        <ele>1049</ele>
        <time>2026-05-09T20:07:28.328Z</time>
      </trkpt>
      <trkpt lat="47.86777" lon="6.91058">
        <ele>1050</ele>
        <time>2026-05-09T20:07:29.328Z</time>
      </trkpt>
      <trkpt lat="47.86776" lon="6.91056">
        <ele>1050</ele>
        <time>2026-05-09T20:07:30.327Z</time>
      </trkpt>
      <trkpt lat="47.86776" lon="6.91056">
        <ele>1050</ele>
        <time>2026-05-09T20:07:31.327Z</time>
      </trkpt>
      <trkpt lat="47.86775" lon="6.91055">
        <ele>1050</ele>
        <time>2026-05-09T20:07:32.327Z</time>
      </trkpt>
      <trkpt lat="47.86775" lon="6.91054">
        <ele>1050</ele>
        <time>2026-05-09T20:07:33.327Z</time>
      </trkpt>
      <trkpt lat="47.86774" lon="6.91052">
        <ele>1051</ele>
        <time>2026-05-09T20:07:34.328Z</time>
      </trkpt>
      <trkpt lat="47.86773" lon="6.91051">
        <ele>1051</ele>
        <time>2026-05-09T20:07:35.327Z</time>
      </trkpt>
      <trkpt lat="47.86772" lon="6.9105">
        <ele>1051</ele>
        <time>2026-05-09T20:07:36.327Z</time>
      </trkpt>
      <trkpt lat="47.86771" lon="6.9105">
        <ele>1051</ele>
        <time>2026-05-09T20:07:37.327Z</time>
      </trkpt>
      <trkpt lat="47.8677" lon="6.91049">
        <ele>1051</ele>
        <time>2026-05-09T20:07:38.328Z</time>
      </trkpt>
      <trkpt lat="47.86769" lon="6.91049">
        <ele>1051</ele>
        <time>2026-05-09T20:07:39.327Z</time>
      </trkpt>
      <trkpt lat="47.86769" lon="6.91049">
        <ele>1050</ele>
        <time>2026-05-09T20:07:40.328Z</time>
      </trkpt>
      <trkpt lat="47.86768" lon="6.91048">
        <ele>1050</ele>
        <time>2026-05-09T20:07:41.327Z</time>
      </trkpt>
      <trkpt lat="47.86767" lon="6.91048">
        <ele>1050</ele>
        <time>2026-05-09T20:07:42.328Z</time>
      </trkpt>
      <trkpt lat="47.86766" lon="6.91047">
        <ele>1050</ele>
        <time>2026-05-09T20:07:43.327Z</time>
      </trkpt>
      <trkpt lat="47.86765" lon="6.91046">
        <ele>1049</ele>
        <time>2026-05-09T20:07:44.327Z</time>
      </trkpt>
      <trkpt lat="47.86765" lon="6.91045">
        <ele>1049</ele>
        <time>2026-05-09T20:07:45.328Z</time>
      </trkpt>
      <trkpt lat="47.86764" lon="6.91044">
        <ele>1049</ele>
        <time>2026-05-09T20:07:46.328Z</time>
      </trkpt>
      <trkpt lat="47.86763" lon="6.91043">
        <ele>1049</ele>
        <time>2026-05-09T20:07:47.328Z</time>
      </trkpt>
      <trkpt lat="47.86761" lon="6.91042">
        <ele>1048</ele>
        <time>2026-05-09T20:07:48.327Z</time>
      </trkpt>
      <trkpt lat="47.8676" lon="6.91042">
        <ele>1048</ele>
        <time>2026-05-09T20:07:49.327Z</time>
      </trkpt>
      <trkpt lat="47.86759" lon="6.91042">
        <ele>1048</ele>
        <time>2026-05-09T20:07:50.328Z</time>
      </trkpt>
      <trkpt lat="47.86759" lon="6.91042">
        <ele>1047</ele>
        <time>2026-05-09T20:07:51.327Z</time>
      </trkpt>
      <trkpt lat="47.86758" lon="6.91041">
        <ele>1047</ele>
        <time>2026-05-09T20:07:52.328Z</time>
      </trkpt>
      <trkpt lat="47.86758" lon="6.9104">
        <ele>1047</ele>
        <time>2026-05-09T20:07:53.327Z</time>
      </trkpt>
      <trkpt lat="47.86758" lon="6.91039">
        <ele>1047</ele>
        <time>2026-05-09T20:07:54.327Z</time>
      </trkpt>
      <trkpt lat="47.86757" lon="6.91039">
        <ele>1047</ele>
        <time>2026-05-09T20:07:55.328Z</time>
      </trkpt>
      <trkpt lat="47.86756" lon="6.91038">
        <ele>1046</ele>
        <time>2026-05-09T20:07:56.327Z</time>
      </trkpt>
      <trkpt lat="47.86755" lon="6.91038">
        <ele>1046</ele>
        <time>2026-05-09T20:07:57.327Z</time>
      </trkpt>
      <trkpt lat="47.86754" lon="6.91037">
        <ele>1046</ele>
        <time>2026-05-09T20:07:58.327Z</time>
      </trkpt>
      <trkpt lat="47.86752" lon="6.91037">
        <ele>1046</ele>
        <time>2026-05-09T20:07:59.327Z</time>
      </trkpt>
      <trkpt lat="47.86751" lon="6.91035">
        <ele>1046</ele>
        <time>2026-05-09T20:08:00.328Z</time>
      </trkpt>
      <trkpt lat="47.8675" lon="6.91034">
        <ele>1046</ele>
        <time>2026-05-09T20:08:01.327Z</time>
      </trkpt>
      <trkpt lat="47.86749" lon="6.91033">
        <ele>1046</ele>
        <time>2026-05-09T20:08:02.327Z</time>
      </trkpt>
      <trkpt lat="47.86747" lon="6.91032">
        <ele>1045</ele>
        <time>2026-05-09T20:08:03.327Z</time>
      </trkpt>
      <trkpt lat="47.86745" lon="6.91032">
        <ele>1045</ele>
        <time>2026-05-09T20:08:04.328Z</time>
      </trkpt>
      <trkpt lat="47.86743" lon="6.91032">
        <ele>1045</ele>
        <time>2026-05-09T20:08:05.327Z</time>
      </trkpt>
      <trkpt lat="47.86741" lon="6.91031">
        <ele>1045</ele>
        <time>2026-05-09T20:08:06.327Z</time>
      </trkpt>
      <trkpt lat="47.8674" lon="6.91029">
        <ele>1046</ele>
        <time>2026-05-09T20:08:07.327Z</time>
      </trkpt>
      <trkpt lat="47.8674" lon="6.91026">
        <ele>1046</ele>
        <time>2026-05-09T20:08:08.328Z</time>
      </trkpt>
      <trkpt lat="47.86739" lon="6.91024">
        <ele>1046</ele>
        <time>2026-05-09T20:08:09.328Z</time>
      </trkpt>
      <trkpt lat="47.86739" lon="6.91023">
        <ele>1046</ele>
        <time>2026-05-09T20:08:10.327Z</time>
      </trkpt>
      <trkpt lat="47.86738" lon="6.91021">
        <ele>1046</ele>
        <time>2026-05-09T20:08:11.328Z</time>
      </trkpt>
      <trkpt lat="47.86737" lon="6.9102">
        <ele>1047</ele>
        <time>2026-05-09T20:08:12.327Z</time>
      </trkpt>
      <trkpt lat="47.86736" lon="6.91019">
        <ele>1047</ele>
        <time>2026-05-09T20:08:13.327Z</time>
      </trkpt>
      <trkpt lat="47.86735" lon="6.91017">
        <ele>1048</ele>
        <time>2026-05-09T20:08:14.327Z</time>
      </trkpt>
      <trkpt lat="47.86734" lon="6.91015">
        <ele>1048</ele>
        <time>2026-05-09T20:08:15.327Z</time>
      </trkpt>
      <trkpt lat="47.86733" lon="6.91012">
        <ele>1048</ele>
        <time>2026-05-09T20:08:16.327Z</time>
      </trkpt>
      <trkpt lat="47.86732" lon="6.91011">
        <ele>1048</ele>
        <time>2026-05-09T20:08:17.327Z</time>
      </trkpt>
      <trkpt lat="47.86731" lon="6.9101">
        <ele>1048</ele>
        <time>2026-05-09T20:08:18.327Z</time>
      </trkpt>
      <trkpt lat="47.8673" lon="6.91008">
        <ele>1048</ele>
        <time>2026-05-09T20:08:19.328Z</time>
      </trkpt>
      <trkpt lat="47.86729" lon="6.91007">
        <ele>1048</ele>
        <time>2026-05-09T20:08:20.327Z</time>
      </trkpt>
      <trkpt lat="47.86726" lon="6.91005">
        <ele>1048</ele>
        <time>2026-05-09T20:08:21.327Z</time>
      </trkpt>
      <trkpt lat="47.86725" lon="6.91003">
        <ele>1048</ele>
        <time>2026-05-09T20:08:22.327Z</time>
      </trkpt>
      <trkpt lat="47.86723" lon="6.91003">
        <ele>1049</ele>
        <time>2026-05-09T20:08:23.328Z</time>
      </trkpt>
      <trkpt lat="47.86722" lon="6.91">
        <ele>1049</ele>
        <time>2026-05-09T20:08:24.327Z</time>
      </trkpt>
      <trkpt lat="47.86721" lon="6.90999">
        <ele>1048</ele>
        <time>2026-05-09T20:08:25.327Z</time>
      </trkpt>
      <trkpt lat="47.8672" lon="6.90995">
        <ele>1048</ele>
        <time>2026-05-09T20:08:26.327Z</time>
      </trkpt>
      <trkpt lat="47.86718" lon="6.90993">
        <ele>1048</ele>
        <time>2026-05-09T20:08:27.327Z</time>
      </trkpt>
      <trkpt lat="47.86718" lon="6.90991">
        <ele>1048</ele>
        <time>2026-05-09T20:08:28.328Z</time>
      </trkpt>
      <trkpt lat="47.86717" lon="6.90988">
        <ele>1047</ele>
        <time>2026-05-09T20:08:29.327Z</time>
      </trkpt>
      <trkpt lat="47.86713" lon="6.90986">
        <ele>1047</ele>
        <time>2026-05-09T20:08:30.327Z</time>
      </trkpt>
      <trkpt lat="47.86709" lon="6.90984">
        <ele>1048</ele>
        <time>2026-05-09T20:08:31.327Z</time>
      </trkpt>
      <trkpt lat="47.86706" lon="6.90979">
        <ele>1048</ele>
        <time>2026-05-09T20:08:32.328Z</time>
      </trkpt>
      <trkpt lat="47.86704" lon="6.90977">
        <ele>1048</ele>
        <time>2026-05-09T20:08:33.327Z</time>
      </trkpt>
      <trkpt lat="47.86702" lon="6.90971">
        <ele>1049</ele>
        <time>2026-05-09T20:08:34.327Z</time>
      </trkpt>
      <trkpt lat="47.86701" lon="6.90968">
        <ele>1049</ele>
        <time>2026-05-09T20:08:35.328Z</time>
      </trkpt>
      <trkpt lat="47.86699" lon="6.90966">
        <ele>1049</ele>
        <time>2026-05-09T20:08:36.328Z</time>
      </trkpt>
      <trkpt lat="47.86697" lon="6.90963">
        <ele>1049</ele>
        <time>2026-05-09T20:08:37.327Z</time>
      </trkpt>
      <trkpt lat="47.86695" lon="6.9096">
        <ele>1050</ele>
        <time>2026-05-09T20:08:38.327Z</time>
      </trkpt>
      <trkpt lat="47.86695" lon="6.9096">
        <ele>1050</ele>
        <time>2026-05-09T20:08:39.328Z</time>
      </trkpt>
      <trkpt lat="47.86695" lon="6.90958">
        <ele>1049</ele>
        <time>2026-05-09T20:08:51.641Z</time>
      </trkpt>
      <trkpt lat="47.86695" lon="6.90958">
        <ele>1049</ele>
        <time>2026-05-09T20:08:52.641Z</time>
      </trkpt>
      <trkpt lat="47.86695" lon="6.90957">
        <ele>1049</ele>
        <time>2026-05-09T20:08:53.641Z</time>
      </trkpt>
      <trkpt lat="47.86694" lon="6.90957">
        <ele>1049</ele>
        <time>2026-05-09T20:08:54.641Z</time>
      </trkpt>
      <trkpt lat="47.86695" lon="6.90958">
        <ele>1049</ele>
        <time>2026-05-09T20:08:55.642Z</time>
      </trkpt>
      <trkpt lat="47.86696" lon="6.90958">
        <ele>1049</ele>
        <time>2026-05-09T20:08:56.642Z</time>
      </trkpt>
      <trkpt lat="47.86696" lon="6.90957">
        <ele>1049</ele>
        <time>2026-05-09T20:08:57.642Z</time>
      </trkpt>
      <trkpt lat="47.86697" lon="6.90957">
        <ele>1049</ele>
        <time>2026-05-09T20:08:58.641Z</time>
      </trkpt>
      <trkpt lat="47.86697" lon="6.90955">
        <ele>1049</ele>
        <time>2026-05-09T20:08:59.642Z</time>
      </trkpt>
      <trkpt lat="47.86699" lon="6.90953">
        <ele>1050</ele>
        <time>2026-05-09T20:09:00.641Z</time>
      </trkpt>
      <trkpt lat="47.867" lon="6.90951">
        <ele>1050</ele>
        <time>2026-05-09T20:09:01.642Z</time>
      </trkpt>
      <trkpt lat="47.86701" lon="6.9095">
        <ele>1050</ele>
        <time>2026-05-09T20:09:02.641Z</time>
      </trkpt>
      <trkpt lat="47.86702" lon="6.90949">
        <ele>1050</ele>
        <time>2026-05-09T20:09:03.642Z</time>
      </trkpt>
      <trkpt lat="47.86702" lon="6.90948">
        <ele>1050</ele>
        <time>2026-05-09T20:09:04.641Z</time>
      </trkpt>
      <trkpt lat="47.86702" lon="6.90948">
        <ele>1050</ele>
        <time>2026-05-09T20:09:05.642Z</time>
      </trkpt>
      <trkpt lat="47.86703" lon="6.90947">
        <ele>1050</ele>
        <time>2026-05-09T20:09:06.642Z</time>
      </trkpt>
      <trkpt lat="47.86703" lon="6.90946">
        <ele>1050</ele>
        <time>2026-05-09T20:09:07.641Z</time>
      </trkpt>
      <trkpt lat="47.86704" lon="6.90946">
        <ele>1050</ele>
        <time>2026-05-09T20:09:08.642Z</time>
      </trkpt>
      <trkpt lat="47.86704" lon="6.90945">
        <ele>1050</ele>
        <time>2026-05-09T20:09:09.641Z</time>
      </trkpt>
      <trkpt lat="47.86705" lon="6.90943">
        <ele>1051</ele>
        <time>2026-05-09T20:09:10.642Z</time>
      </trkpt>
      <trkpt lat="47.86705" lon="6.90942">
        <ele>1051</ele>
        <time>2026-05-09T20:09:11.641Z</time>
      </trkpt>
      <trkpt lat="47.86706" lon="6.90941">
        <ele>1051</ele>
        <time>2026-05-09T20:09:12.642Z</time>
      </trkpt>
      <trkpt lat="47.86706" lon="6.9094">
        <ele>1051</ele>
        <time>2026-05-09T20:09:13.641Z</time>
      </trkpt>
      <trkpt lat="47.86707" lon="6.90938">
        <ele>1051</ele>
        <time>2026-05-09T20:09:14.641Z</time>
      </trkpt>
      <trkpt lat="47.86707" lon="6.90937">
        <ele>1051</ele>
        <time>2026-05-09T20:09:15.641Z</time>
      </trkpt>
      <trkpt lat="47.86707" lon="6.90935">
        <ele>1051</ele>
        <time>2026-05-09T20:09:16.642Z</time>
      </trkpt>
      <trkpt lat="47.86708" lon="6.90933">
        <ele>1052</ele>
        <time>2026-05-09T20:09:17.642Z</time>
      </trkpt>
      <trkpt lat="47.86708" lon="6.90931">
        <ele>1052</ele>
        <time>2026-05-09T20:09:18.642Z</time>
      </trkpt>
      <trkpt lat="47.86709" lon="6.9093">
        <ele>1053</ele>
        <time>2026-05-09T20:09:19.642Z</time>
      </trkpt>
      <trkpt lat="47.8671" lon="6.90929">
        <ele>1054</ele>
        <time>2026-05-09T20:09:20.641Z</time>
      </trkpt>
      <trkpt lat="47.8671" lon="6.90928">
        <ele>1054</ele>
        <time>2026-05-09T20:09:21.642Z</time>
      </trkpt>
      <trkpt lat="47.86711" lon="6.90926">
        <ele>1055</ele>
        <time>2026-05-09T20:09:22.642Z</time>
      </trkpt>
      <trkpt lat="47.86711" lon="6.90925">
        <ele>1055</ele>
        <time>2026-05-09T20:09:23.641Z</time>
      </trkpt>
      <trkpt lat="47.86711" lon="6.90925">
        <ele>1056</ele>
        <time>2026-05-09T20:09:24.642Z</time>
      </trkpt>
      <trkpt lat="47.86711" lon="6.90925">
        <ele>1056</ele>
        <time>2026-05-09T20:09:25.642Z</time>
      </trkpt>
      <trkpt lat="47.8671" lon="6.90924">
        <ele>1057</ele>
        <time>2026-05-09T20:09:26.641Z</time>
      </trkpt>
      <trkpt lat="47.86709" lon="6.90924">
        <ele>1057</ele>
        <time>2026-05-09T20:09:27.641Z</time>
      </trkpt>
      <trkpt lat="47.86709" lon="6.90923">
        <ele>1057</ele>
        <time>2026-05-09T20:09:28.642Z</time>
      </trkpt>
      <trkpt lat="47.86709" lon="6.90922">
        <ele>1057</ele>
        <time>2026-05-09T20:09:29.641Z</time>
      </trkpt>
      <trkpt lat="47.8671" lon="6.90921">
        <ele>1057</ele>
        <time>2026-05-09T20:09:30.642Z</time>
      </trkpt>
      <trkpt lat="47.86711" lon="6.90919">
        <ele>1056</ele>
        <time>2026-05-09T20:09:31.641Z</time>
      </trkpt>
      <trkpt lat="47.86711" lon="6.90918">
        <ele>1056</ele>
        <time>2026-05-09T20:09:32.642Z</time>
      </trkpt>
      <trkpt lat="47.86711" lon="6.90917">
        <ele>1056</ele>
        <time>2026-05-09T20:09:33.641Z</time>
      </trkpt>
      <trkpt lat="47.86711" lon="6.90917">
        <ele>1056</ele>
        <time>2026-05-09T20:09:34.641Z</time>
      </trkpt>
      <trkpt lat="47.86711" lon="6.90916">
        <ele>1056</ele>
        <time>2026-05-09T20:09:35.642Z</time>
      </trkpt>
      <trkpt lat="47.8671" lon="6.90915">
        <ele>1056</ele>
        <time>2026-05-09T20:09:36.641Z</time>
      </trkpt>
      <trkpt lat="47.86709" lon="6.90915">
        <ele>1057</ele>
        <time>2026-05-09T20:09:37.642Z</time>
      </trkpt>
      <trkpt lat="47.86708" lon="6.90915">
        <ele>1057</ele>
        <time>2026-05-09T20:09:38.641Z</time>
      </trkpt>
      <trkpt lat="47.86707" lon="6.90915">
        <ele>1057</ele>
        <time>2026-05-09T20:09:39.642Z</time>
      </trkpt>
      <trkpt lat="47.86706" lon="6.90915">
        <ele>1057</ele>
        <time>2026-05-09T20:09:40.641Z</time>
      </trkpt>
      <trkpt lat="47.86705" lon="6.90915">
        <ele>1057</ele>
        <time>2026-05-09T20:09:41.642Z</time>
      </trkpt>
      <trkpt lat="47.86704" lon="6.90914">
        <ele>1058</ele>
        <time>2026-05-09T20:09:42.641Z</time>
      </trkpt>
      <trkpt lat="47.86703" lon="6.90914">
        <ele>1058</ele>
        <time>2026-05-09T20:09:43.642Z</time>
      </trkpt>
      <trkpt lat="47.86702" lon="6.90914">
        <ele>1058</ele>
        <time>2026-05-09T20:09:44.641Z</time>
      </trkpt>
      <trkpt lat="47.86701" lon="6.90913">
        <ele>1059</ele>
        <time>2026-05-09T20:09:45.641Z</time>
      </trkpt>
      <trkpt lat="47.867" lon="6.90912">
        <ele>1059</ele>
        <time>2026-05-09T20:09:46.642Z</time>
      </trkpt>
      <trkpt lat="47.86699" lon="6.90911">
        <ele>1060</ele>
        <time>2026-05-09T20:09:47.641Z</time>
      </trkpt>
      <trkpt lat="47.86698" lon="6.9091">
        <ele>1060</ele>
        <time>2026-05-09T20:09:48.641Z</time>
      </trkpt>
      <trkpt lat="47.86697" lon="6.90909">
        <ele>1061</ele>
        <time>2026-05-09T20:09:49.641Z</time>
      </trkpt>
      <trkpt lat="47.86697" lon="6.90907">
        <ele>1061</ele>
        <time>2026-05-09T20:09:50.641Z</time>
      </trkpt>
      <trkpt lat="47.86696" lon="6.90905">
        <ele>1062</ele>
        <time>2026-05-09T20:09:51.642Z</time>
      </trkpt>
      <trkpt lat="47.86696" lon="6.90904">
        <ele>1063</ele>
        <time>2026-05-09T20:09:52.641Z</time>
      </trkpt>
      <trkpt lat="47.86696" lon="6.90903">
        <ele>1063</ele>
        <time>2026-05-09T20:09:53.642Z</time>
      </trkpt>
      <trkpt lat="47.86696" lon="6.90902">
        <ele>1063</ele>
        <time>2026-05-09T20:09:54.641Z</time>
      </trkpt>
      <trkpt lat="47.86696" lon="6.909">
        <ele>1064</ele>
        <time>2026-05-09T20:09:55.641Z</time>
      </trkpt>
      <trkpt lat="47.86695" lon="6.90898">
        <ele>1064</ele>
        <time>2026-05-09T20:09:56.642Z</time>
      </trkpt>
      <trkpt lat="47.86694" lon="6.90898">
        <ele>1065</ele>
        <time>2026-05-09T20:09:57.642Z</time>
      </trkpt>
      <trkpt lat="47.86693" lon="6.90897">
        <ele>1065</ele>
        <time>2026-05-09T20:09:58.641Z</time>
      </trkpt>
      <trkpt lat="47.86693" lon="6.90896">
        <ele>1066</ele>
        <time>2026-05-09T20:09:59.641Z</time>
      </trkpt>
      <trkpt lat="47.86692" lon="6.90896">
        <ele>1066</ele>
        <time>2026-05-09T20:10:00.641Z</time>
      </trkpt>
      <trkpt lat="47.86691" lon="6.90897">
        <ele>1067</ele>
        <time>2026-05-09T20:10:01.642Z</time>
      </trkpt>
      <trkpt lat="47.86691" lon="6.90896">
        <ele>1067</ele>
        <time>2026-05-09T20:10:02.641Z</time>
      </trkpt>
      <trkpt lat="47.86691" lon="6.90896">
        <ele>1068</ele>
        <time>2026-05-09T20:10:03.642Z</time>
      </trkpt>
      <trkpt lat="47.8669" lon="6.90896">
        <ele>1068</ele>
        <time>2026-05-09T20:10:04.641Z</time>
      </trkpt>
      <trkpt lat="47.86689" lon="6.90896">
        <ele>1068</ele>
        <time>2026-05-09T20:10:05.642Z</time>
      </trkpt>
      <trkpt lat="47.86688" lon="6.90896">
        <ele>1069</ele>
        <time>2026-05-09T20:10:06.641Z</time>
      </trkpt>
      <trkpt lat="47.86687" lon="6.90896">
        <ele>1069</ele>
        <time>2026-05-09T20:10:07.642Z</time>
      </trkpt>
      <trkpt lat="47.86686" lon="6.90897">
        <ele>1069</ele>
        <time>2026-05-09T20:10:08.641Z</time>
      </trkpt>
      <trkpt lat="47.86684" lon="6.90897">
        <ele>1070</ele>
        <time>2026-05-09T20:10:09.642Z</time>
      </trkpt>
      <trkpt lat="47.86683" lon="6.90897">
        <ele>1070</ele>
        <time>2026-05-09T20:10:10.641Z</time>
      </trkpt>
      <trkpt lat="47.86682" lon="6.90897">
        <ele>1071</ele>
        <time>2026-05-09T20:10:11.642Z</time>
      </trkpt>
      <trkpt lat="47.8668" lon="6.90897">
        <ele>1071</ele>
        <time>2026-05-09T20:10:12.641Z</time>
      </trkpt>
      <trkpt lat="47.86679" lon="6.90897">
        <ele>1071</ele>
        <time>2026-05-09T20:10:13.642Z</time>
      </trkpt>
      <trkpt lat="47.86677" lon="6.90896">
        <ele>1072</ele>
        <time>2026-05-09T20:10:14.641Z</time>
      </trkpt>
      <trkpt lat="47.86676" lon="6.90896">
        <ele>1072</ele>
        <time>2026-05-09T20:10:15.642Z</time>
      </trkpt>
      <trkpt lat="47.86675" lon="6.90896">
        <ele>1072</ele>
        <time>2026-05-09T20:10:16.642Z</time>
      </trkpt>
      <trkpt lat="47.86675" lon="6.90896">
        <ele>1072</ele>
        <time>2026-05-09T20:10:17.642Z</time>
      </trkpt>
      <trkpt lat="47.86674" lon="6.90896">
        <ele>1072</ele>
        <time>2026-05-09T20:10:18.642Z</time>
      </trkpt>
      <trkpt lat="47.86672" lon="6.90896">
        <ele>1072</ele>
        <time>2026-05-09T20:10:19.641Z</time>
      </trkpt>
      <trkpt lat="47.86671" lon="6.90897">
        <ele>1071</ele>
        <time>2026-05-09T20:10:20.642Z</time>
      </trkpt>
      <trkpt lat="47.8667" lon="6.90897">
        <ele>1071</ele>
        <time>2026-05-09T20:10:21.641Z</time>
      </trkpt>
      <trkpt lat="47.86669" lon="6.90897">
        <ele>1071</ele>
        <time>2026-05-09T20:10:22.642Z</time>
      </trkpt>
      <trkpt lat="47.86668" lon="6.90897">
        <ele>1071</ele>
        <time>2026-05-09T20:10:23.642Z</time>
      </trkpt>
      <trkpt lat="47.86668" lon="6.90897">
        <ele>1071</ele>
        <time>2026-05-09T20:10:24.641Z</time>
      </trkpt>
      <trkpt lat="47.86668" lon="6.90897">
        <ele>1071</ele>
        <time>2026-05-09T20:10:25.641Z</time>
      </trkpt>
      <trkpt lat="47.86667" lon="6.90897">
        <ele>1072</ele>
        <time>2026-05-09T20:10:26.641Z</time>
      </trkpt>
      <trkpt lat="47.86666" lon="6.90897">
        <ele>1072</ele>
        <time>2026-05-09T20:10:27.642Z</time>
      </trkpt>
      <trkpt lat="47.86665" lon="6.90897">
        <ele>1072</ele>
        <time>2026-05-09T20:10:28.641Z</time>
      </trkpt>
      <trkpt lat="47.86664" lon="6.90897">
        <ele>1072</ele>
        <time>2026-05-09T20:10:29.641Z</time>
      </trkpt>
      <trkpt lat="47.86663" lon="6.90896">
        <ele>1072</ele>
        <time>2026-05-09T20:10:30.641Z</time>
      </trkpt>
      <trkpt lat="47.86663" lon="6.90896">
        <ele>1072</ele>
        <time>2026-05-09T20:10:31.641Z</time>
      </trkpt>
      <trkpt lat="47.86662" lon="6.90896">
        <ele>1072</ele>
        <time>2026-05-09T20:10:32.642Z</time>
      </trkpt>
      <trkpt lat="47.86662" lon="6.90896">
        <ele>1072</ele>
        <time>2026-05-09T20:10:33.641Z</time>
      </trkpt>
      <trkpt lat="47.86661" lon="6.90895">
        <ele>1072</ele>
        <time>2026-05-09T20:10:34.642Z</time>
      </trkpt>
      <trkpt lat="47.86661" lon="6.90895">
        <ele>1072</ele>
        <time>2026-05-09T20:10:35.642Z</time>
      </trkpt>
      <trkpt lat="47.8666" lon="6.90896">
        <ele>1072</ele>
        <time>2026-05-09T20:10:36.641Z</time>
      </trkpt>
      <trkpt lat="47.86659" lon="6.90896">
        <ele>1073</ele>
        <time>2026-05-09T20:10:37.642Z</time>
      </trkpt>
      <trkpt lat="47.86658" lon="6.90897">
        <ele>1073</ele>
        <time>2026-05-09T20:10:38.641Z</time>
      </trkpt>
      <trkpt lat="47.86657" lon="6.90897">
        <ele>1073</ele>
        <time>2026-05-09T20:10:39.641Z</time>
      </trkpt>
      <trkpt lat="47.86656" lon="6.90897">
        <ele>1073</ele>
        <time>2026-05-09T20:10:40.642Z</time>
      </trkpt>
      <trkpt lat="47.86656" lon="6.90898">
        <ele>1073</ele>
        <time>2026-05-09T20:10:41.641Z</time>
      </trkpt>
      <trkpt lat="47.86655" lon="6.90898">
        <ele>1073</ele>
        <time>2026-05-09T20:10:42.642Z</time>
      </trkpt>
      <trkpt lat="47.86655" lon="6.90898">
        <ele>1073</ele>
        <time>2026-05-09T20:10:43.641Z</time>
      </trkpt>
      <trkpt lat="47.86653" lon="6.90899">
        <ele>1072</ele>
        <time>2026-05-09T20:10:44.642Z</time>
      </trkpt>
      <trkpt lat="47.86652" lon="6.909">
        <ele>1072</ele>
        <time>2026-05-09T20:10:45.641Z</time>
      </trkpt>
      <trkpt lat="47.86651" lon="6.90901">
        <ele>1072</ele>
        <time>2026-05-09T20:10:46.641Z</time>
      </trkpt>
      <trkpt lat="47.8665" lon="6.90902">
        <ele>1071</ele>
        <time>2026-05-09T20:10:47.641Z</time>
      </trkpt>
      <trkpt lat="47.86648" lon="6.90903">
        <ele>1071</ele>
        <time>2026-05-09T20:10:48.642Z</time>
      </trkpt>
      <trkpt lat="47.86646" lon="6.90904">
        <ele>1070</ele>
        <time>2026-05-09T20:10:49.641Z</time>
      </trkpt>
      <trkpt lat="47.86645" lon="6.90905">
        <ele>1070</ele>
        <time>2026-05-09T20:10:50.642Z</time>
      </trkpt>
      <trkpt lat="47.86643" lon="6.90905">
        <ele>1069</ele>
        <time>2026-05-09T20:10:51.642Z</time>
      </trkpt>
      <trkpt lat="47.86642" lon="6.90905">
        <ele>1068</ele>
        <time>2026-05-09T20:10:52.642Z</time>
      </trkpt>
      <trkpt lat="47.8664" lon="6.90906">
        <ele>1068</ele>
        <time>2026-05-09T20:10:53.641Z</time>
      </trkpt>
      <trkpt lat="47.86639" lon="6.90906">
        <ele>1067</ele>
        <time>2026-05-09T20:10:54.642Z</time>
      </trkpt>
      <trkpt lat="47.86637" lon="6.90906">
        <ele>1067</ele>
        <time>2026-05-09T20:10:55.641Z</time>
      </trkpt>
      <trkpt lat="47.86635" lon="6.90906">
        <ele>1067</ele>
        <time>2026-05-09T20:10:56.641Z</time>
      </trkpt>
      <trkpt lat="47.86633" lon="6.90907">
        <ele>1067</ele>
        <time>2026-05-09T20:10:57.641Z</time>
      </trkpt>
      <trkpt lat="47.86631" lon="6.90907">
        <ele>1067</ele>
        <time>2026-05-09T20:10:58.641Z</time>
      </trkpt>
      <trkpt lat="47.8663" lon="6.90908">
        <ele>1067</ele>
        <time>2026-05-09T20:10:59.641Z</time>
      </trkpt>
      <trkpt lat="47.86628" lon="6.90908">
        <ele>1067</ele>
        <time>2026-05-09T20:11:00.642Z</time>
      </trkpt>
      <trkpt lat="47.86626" lon="6.90908">
        <ele>1066</ele>
        <time>2026-05-09T20:11:01.641Z</time>
      </trkpt>
      <trkpt lat="47.86625" lon="6.90908">
        <ele>1066</ele>
        <time>2026-05-09T20:11:02.642Z</time>
      </trkpt>
      <trkpt lat="47.86624" lon="6.90908">
        <ele>1066</ele>
        <time>2026-05-09T20:11:03.642Z</time>
      </trkpt>
      <trkpt lat="47.86623" lon="6.90908">
        <ele>1066</ele>
        <time>2026-05-09T20:11:04.641Z</time>
      </trkpt>
      <trkpt lat="47.86622" lon="6.90908">
        <ele>1066</ele>
        <time>2026-05-09T20:11:05.641Z</time>
      </trkpt>
      <trkpt lat="47.86621" lon="6.90909">
        <ele>1065</ele>
        <time>2026-05-09T20:11:06.642Z</time>
      </trkpt>
      <trkpt lat="47.8662" lon="6.90908">
        <ele>1065</ele>
        <time>2026-05-09T20:11:07.641Z</time>
      </trkpt>
      <trkpt lat="47.86618" lon="6.90908">
        <ele>1065</ele>
        <time>2026-05-09T20:11:08.642Z</time>
      </trkpt>
      <trkpt lat="47.86617" lon="6.90908">
        <ele>1065</ele>
        <time>2026-05-09T20:11:09.641Z</time>
      </trkpt>
      <trkpt lat="47.86615" lon="6.90908">
        <ele>1065</ele>
        <time>2026-05-09T20:11:10.642Z</time>
      </trkpt>
      <trkpt lat="47.86614" lon="6.90907">
        <ele>1064</ele>
        <time>2026-05-09T20:11:11.642Z</time>
      </trkpt>
      <trkpt lat="47.86613" lon="6.90907">
        <ele>1063</ele>
        <time>2026-05-09T20:11:12.642Z</time>
      </trkpt>
      <trkpt lat="47.86612" lon="6.90907">
        <ele>1063</ele>
        <time>2026-05-09T20:11:13.641Z</time>
      </trkpt>
      <trkpt lat="47.86611" lon="6.90908">
        <ele>1062</ele>
        <time>2026-05-09T20:11:14.642Z</time>
      </trkpt>
      <trkpt lat="47.86609" lon="6.90908">
        <ele>1061</ele>
        <time>2026-05-09T20:11:15.641Z</time>
      </trkpt>
      <trkpt lat="47.86608" lon="6.90908">
        <ele>1061</ele>
        <time>2026-05-09T20:11:16.642Z</time>
      </trkpt>
      <trkpt lat="47.86606" lon="6.90909">
        <ele>1060</ele>
        <time>2026-05-09T20:11:17.641Z</time>
      </trkpt>
      <trkpt lat="47.86605" lon="6.9091">
        <ele>1060</ele>
        <time>2026-05-09T20:11:18.642Z</time>
      </trkpt>
      <trkpt lat="47.86605" lon="6.90912">
        <ele>1060</ele>
        <time>2026-05-09T20:11:19.641Z</time>
      </trkpt>
      <trkpt lat="47.86604" lon="6.90914">
        <ele>1060</ele>
        <time>2026-05-09T20:11:20.642Z</time>
      </trkpt>
      <trkpt lat="47.86603" lon="6.90914">
        <ele>1060</ele>
        <time>2026-05-09T20:11:21.641Z</time>
      </trkpt>
      <trkpt lat="47.86602" lon="6.90915">
        <ele>1060</ele>
        <time>2026-05-09T20:11:22.642Z</time>
      </trkpt>
      <trkpt lat="47.86601" lon="6.90915">
        <ele>1060</ele>
        <time>2026-05-09T20:11:23.641Z</time>
      </trkpt>
      <trkpt lat="47.86601" lon="6.90915">
        <ele>1061</ele>
        <time>2026-05-09T20:11:24.642Z</time>
      </trkpt>
      <trkpt lat="47.866" lon="6.90916">
        <ele>1061</ele>
        <time>2026-05-09T20:11:25.641Z</time>
      </trkpt>
      <trkpt lat="47.86598" lon="6.90917">
        <ele>1061</ele>
        <time>2026-05-09T20:11:26.641Z</time>
      </trkpt>
      <trkpt lat="47.86597" lon="6.90917">
        <ele>1061</ele>
        <time>2026-05-09T20:11:27.641Z</time>
      </trkpt>
      <trkpt lat="47.86597" lon="6.90918">
        <ele>1060</ele>
        <time>2026-05-09T20:11:28.641Z</time>
      </trkpt>
      <trkpt lat="47.86596" lon="6.90919">
        <ele>1060</ele>
        <time>2026-05-09T20:11:29.641Z</time>
      </trkpt>
      <trkpt lat="47.86595" lon="6.90919">
        <ele>1060</ele>
        <time>2026-05-09T20:11:30.642Z</time>
      </trkpt>
      <trkpt lat="47.86595" lon="6.90919">
        <ele>1059</ele>
        <time>2026-05-09T20:11:31.641Z</time>
      </trkpt>
      <trkpt lat="47.86594" lon="6.9092">
        <ele>1059</ele>
        <time>2026-05-09T20:11:32.642Z</time>
      </trkpt>
      <trkpt lat="47.86592" lon="6.90922">
        <ele>1059</ele>
        <time>2026-05-09T20:11:33.642Z</time>
      </trkpt>
      <trkpt lat="47.86592" lon="6.90923">
        <ele>1059</ele>
        <time>2026-05-09T20:11:34.642Z</time>
      </trkpt>
      <trkpt lat="47.86591" lon="6.90923">
        <ele>1059</ele>
        <time>2026-05-09T20:11:35.641Z</time>
      </trkpt>
      <trkpt lat="47.8659" lon="6.90924">
        <ele>1059</ele>
        <time>2026-05-09T20:11:36.642Z</time>
      </trkpt>
      <trkpt lat="47.86589" lon="6.90925">
        <ele>1059</ele>
        <time>2026-05-09T20:11:37.642Z</time>
      </trkpt>
      <trkpt lat="47.86587" lon="6.90926">
        <ele>1059</ele>
        <time>2026-05-09T20:11:38.641Z</time>
      </trkpt>
      <trkpt lat="47.86586" lon="6.90928">
        <ele>1059</ele>
        <time>2026-05-09T20:11:39.641Z</time>
      </trkpt>
      <trkpt lat="47.86584" lon="6.90928">
        <ele>1059</ele>
        <time>2026-05-09T20:11:40.641Z</time>
      </trkpt>
      <trkpt lat="47.86584" lon="6.90929">
        <ele>1059</ele>
        <time>2026-05-09T20:11:41.642Z</time>
      </trkpt>
      <trkpt lat="47.86583" lon="6.90929">
        <ele>1059</ele>
        <time>2026-05-09T20:11:42.641Z</time>
      </trkpt>
      <trkpt lat="47.86582" lon="6.9093">
        <ele>1059</ele>
        <time>2026-05-09T20:11:43.641Z</time>
      </trkpt>
      <trkpt lat="47.86582" lon="6.9093">
        <ele>1058</ele>
        <time>2026-05-09T20:11:44.641Z</time>
      </trkpt>
      <trkpt lat="47.86582" lon="6.9093">
        <ele>1059</ele>
        <time>2026-05-09T20:11:45.642Z</time>
      </trkpt>
      <trkpt lat="47.86581" lon="6.9093">
        <ele>1058</ele>
        <time>2026-05-09T20:11:46.641Z</time>
      </trkpt>
      <trkpt lat="47.8658" lon="6.9093">
        <ele>1058</ele>
        <time>2026-05-09T20:11:47.641Z</time>
      </trkpt>
      <trkpt lat="47.86579" lon="6.9093">
        <ele>1058</ele>
        <time>2026-05-09T20:11:48.641Z</time>
      </trkpt>
      <trkpt lat="47.86578" lon="6.9093">
        <ele>1058</ele>
        <time>2026-05-09T20:11:49.642Z</time>
      </trkpt>
      <trkpt lat="47.86577" lon="6.9093">
        <ele>1058</ele>
        <time>2026-05-09T20:11:50.641Z</time>
      </trkpt>
      <trkpt lat="47.86575" lon="6.9093">
        <ele>1058</ele>
        <time>2026-05-09T20:11:51.642Z</time>
      </trkpt>
      <trkpt lat="47.86574" lon="6.9093">
        <ele>1057</ele>
        <time>2026-05-09T20:11:52.641Z</time>
      </trkpt>
      <trkpt lat="47.86573" lon="6.9093">
        <ele>1057</ele>
        <time>2026-05-09T20:11:53.642Z</time>
      </trkpt>
      <trkpt lat="47.86571" lon="6.90931">
        <ele>1057</ele>
        <time>2026-05-09T20:11:54.641Z</time>
      </trkpt>
      <trkpt lat="47.86569" lon="6.90931">
        <ele>1056</ele>
        <time>2026-05-09T20:11:55.642Z</time>
      </trkpt>
      <trkpt lat="47.86568" lon="6.90932">
        <ele>1056</ele>
        <time>2026-05-09T20:11:56.641Z</time>
      </trkpt>
      <trkpt lat="47.86566" lon="6.90933">
        <ele>1056</ele>
        <time>2026-05-09T20:11:57.642Z</time>
      </trkpt>
      <trkpt lat="47.86563" lon="6.90934">
        <ele>1056</ele>
        <time>2026-05-09T20:11:58.641Z</time>
      </trkpt>
      <trkpt lat="47.86561" lon="6.90934">
        <ele>1056</ele>
        <time>2026-05-09T20:11:59.642Z</time>
      </trkpt>
      <trkpt lat="47.86558" lon="6.90935">
        <ele>1055</ele>
        <time>2026-05-09T20:12:00.641Z</time>
      </trkpt>
      <trkpt lat="47.86556" lon="6.90935">
        <ele>1054</ele>
        <time>2026-05-09T20:12:01.641Z</time>
      </trkpt>
      <trkpt lat="47.86555" lon="6.90935">
        <ele>1054</ele>
        <time>2026-05-09T20:12:02.641Z</time>
      </trkpt>
      <trkpt lat="47.86554" lon="6.90934">
        <ele>1053</ele>
        <time>2026-05-09T20:12:03.642Z</time>
      </trkpt>
      <trkpt lat="47.86553" lon="6.90934">
        <ele>1052</ele>
        <time>2026-05-09T20:12:04.641Z</time>
      </trkpt>
      <trkpt lat="47.86552" lon="6.90935">
        <ele>1051</ele>
        <time>2026-05-09T20:12:05.642Z</time>
      </trkpt>
      <trkpt lat="47.86552" lon="6.90934">
        <ele>1050</ele>
        <time>2026-05-09T20:12:06.641Z</time>
      </trkpt>
      <trkpt lat="47.86551" lon="6.90934">
        <ele>1050</ele>
        <time>2026-05-09T20:12:07.642Z</time>
      </trkpt>
      <trkpt lat="47.8655" lon="6.90935">
        <ele>1049</ele>
        <time>2026-05-09T20:12:08.642Z</time>
      </trkpt>
      <trkpt lat="47.86549" lon="6.90936">
        <ele>1049</ele>
        <time>2026-05-09T20:12:09.641Z</time>
      </trkpt>
      <trkpt lat="47.86548" lon="6.90937">
        <ele>1048</ele>
        <time>2026-05-09T20:12:10.641Z</time>
      </trkpt>
      <trkpt lat="47.86546" lon="6.90937">
        <ele>1048</ele>
        <time>2026-05-09T20:12:11.642Z</time>
      </trkpt>
      <trkpt lat="47.86545" lon="6.90938">
        <ele>1048</ele>
        <time>2026-05-09T20:12:12.641Z</time>
      </trkpt>
      <trkpt lat="47.86543" lon="6.90938">
        <ele>1047</ele>
        <time>2026-05-09T20:12:13.642Z</time>
      </trkpt>
      <trkpt lat="47.86542" lon="6.90937">
        <ele>1046</ele>
        <time>2026-05-09T20:12:14.642Z</time>
      </trkpt>
      <trkpt lat="47.86541" lon="6.90937">
        <ele>1045</ele>
        <time>2026-05-09T20:12:15.641Z</time>
      </trkpt>
      <trkpt lat="47.86539" lon="6.90937">
        <ele>1045</ele>
        <time>2026-05-09T20:12:16.642Z</time>
      </trkpt>
      <trkpt lat="47.86537" lon="6.90938">
        <ele>1044</ele>
        <time>2026-05-09T20:12:17.641Z</time>
      </trkpt>
      <trkpt lat="47.86535" lon="6.90939">
        <ele>1044</ele>
        <time>2026-05-09T20:12:18.642Z</time>
      </trkpt>
      <trkpt lat="47.86533" lon="6.90939">
        <ele>1044</ele>
        <time>2026-05-09T20:12:19.641Z</time>
      </trkpt>
      <trkpt lat="47.8653" lon="6.90939">
        <ele>1043</ele>
        <time>2026-05-09T20:12:20.642Z</time>
      </trkpt>
      <trkpt lat="47.86529" lon="6.90939">
        <ele>1043</ele>
        <time>2026-05-09T20:12:21.641Z</time>
      </trkpt>
      <trkpt lat="47.86528" lon="6.90938">
        <ele>1043</ele>
        <time>2026-05-09T20:12:22.642Z</time>
      </trkpt>
      <trkpt lat="47.86527" lon="6.90937">
        <ele>1042</ele>
        <time>2026-05-09T20:12:23.641Z</time>
      </trkpt>
      <trkpt lat="47.86526" lon="6.90936">
        <ele>1042</ele>
        <time>2026-05-09T20:12:24.642Z</time>
      </trkpt>
      <trkpt lat="47.86524" lon="6.90935">
        <ele>1042</ele>
        <time>2026-05-09T20:12:25.641Z</time>
      </trkpt>
      <trkpt lat="47.86523" lon="6.90933">
        <ele>1041</ele>
        <time>2026-05-09T20:12:26.642Z</time>
      </trkpt>
      <trkpt lat="47.86523" lon="6.90932">
        <ele>1041</ele>
        <time>2026-05-09T20:12:27.642Z</time>
      </trkpt>
      <trkpt lat="47.86522" lon="6.90931">
        <ele>1041</ele>
        <time>2026-05-09T20:12:28.641Z</time>
      </trkpt>
      <trkpt lat="47.86521" lon="6.9093">
        <ele>1040</ele>
        <time>2026-05-09T20:12:29.642Z</time>
      </trkpt>
      <trkpt lat="47.8652" lon="6.90928">
        <ele>1040</ele>
        <time>2026-05-09T20:12:30.641Z</time>
      </trkpt>
      <trkpt lat="47.8652" lon="6.90927">
        <ele>1040</ele>
        <time>2026-05-09T20:12:31.641Z</time>
      </trkpt>
      <trkpt lat="47.86519" lon="6.90925">
        <ele>1039</ele>
        <time>2026-05-09T20:12:32.641Z</time>
      </trkpt>
      <trkpt lat="47.86518" lon="6.90924">
        <ele>1039</ele>
        <time>2026-05-09T20:12:33.641Z</time>
      </trkpt>
      <trkpt lat="47.86517" lon="6.90923">
        <ele>1039</ele>
        <time>2026-05-09T20:12:34.642Z</time>
      </trkpt>
      <trkpt lat="47.86516" lon="6.90921">
        <ele>1039</ele>
        <time>2026-05-09T20:12:35.641Z</time>
      </trkpt>
      <trkpt lat="47.86515" lon="6.9092">
        <ele>1039</ele>
        <time>2026-05-09T20:12:36.642Z</time>
      </trkpt>
      <trkpt lat="47.86514" lon="6.90919">
        <ele>1039</ele>
        <time>2026-05-09T20:12:37.641Z</time>
      </trkpt>
      <trkpt lat="47.86513" lon="6.90917">
        <ele>1039</ele>
        <time>2026-05-09T20:12:38.641Z</time>
      </trkpt>
      <trkpt lat="47.86512" lon="6.90915">
        <ele>1039</ele>
        <time>2026-05-09T20:12:39.642Z</time>
      </trkpt>
      <trkpt lat="47.86511" lon="6.90914">
        <ele>1039</ele>
        <time>2026-05-09T20:12:40.642Z</time>
      </trkpt>
      <trkpt lat="47.86509" lon="6.90913">
        <ele>1039</ele>
        <time>2026-05-09T20:12:41.642Z</time>
      </trkpt>
      <trkpt lat="47.86509" lon="6.90911">
        <ele>1039</ele>
        <time>2026-05-09T20:12:42.641Z</time>
      </trkpt>
      <trkpt lat="47.86508" lon="6.9091">
        <ele>1039</ele>
        <time>2026-05-09T20:12:43.641Z</time>
      </trkpt>
      <trkpt lat="47.86507" lon="6.90909">
        <ele>1040</ele>
        <time>2026-05-09T20:12:44.641Z</time>
      </trkpt>
      <trkpt lat="47.86506" lon="6.90908">
        <ele>1039</ele>
        <time>2026-05-09T20:12:45.642Z</time>
      </trkpt>
      <trkpt lat="47.86504" lon="6.90907">
        <ele>1039</ele>
        <time>2026-05-09T20:12:46.641Z</time>
      </trkpt>
      <trkpt lat="47.86503" lon="6.90906">
        <ele>1040</ele>
        <time>2026-05-09T20:12:47.641Z</time>
      </trkpt>
      <trkpt lat="47.86502" lon="6.90905">
        <ele>1040</ele>
        <time>2026-05-09T20:12:48.642Z</time>
      </trkpt>
      <trkpt lat="47.865" lon="6.90904">
        <ele>1040</ele>
        <time>2026-05-09T20:12:49.641Z</time>
      </trkpt>
      <trkpt lat="47.86499" lon="6.90903">
        <ele>1040</ele>
        <time>2026-05-09T20:12:50.642Z</time>
      </trkpt>
      <trkpt lat="47.86499" lon="6.90902">
        <ele>1040</ele>
        <time>2026-05-09T20:12:51.641Z</time>
      </trkpt>
      <trkpt lat="47.86498" lon="6.909">
        <ele>1040</ele>
        <time>2026-05-09T20:12:52.641Z</time>
      </trkpt>
      <trkpt lat="47.86496" lon="6.90899">
        <ele>1040</ele>
        <time>2026-05-09T20:12:53.641Z</time>
      </trkpt>
      <trkpt lat="47.86495" lon="6.90898">
        <ele>1040</ele>
        <time>2026-05-09T20:12:54.642Z</time>
      </trkpt>
      <trkpt lat="47.86493" lon="6.90897">
        <ele>1040</ele>
        <time>2026-05-09T20:12:55.641Z</time>
      </trkpt>
      <trkpt lat="47.86493" lon="6.90895">
        <ele>1040</ele>
        <time>2026-05-09T20:12:56.641Z</time>
      </trkpt>
      <trkpt lat="47.86491" lon="6.90894">
        <ele>1040</ele>
        <time>2026-05-09T20:12:57.642Z</time>
      </trkpt>
      <trkpt lat="47.86489" lon="6.90893">
        <ele>1040</ele>
        <time>2026-05-09T20:12:58.641Z</time>
      </trkpt>
      <trkpt lat="47.86488" lon="6.90891">
        <ele>1040</ele>
        <time>2026-05-09T20:12:59.642Z</time>
      </trkpt>
      <trkpt lat="47.86488" lon="6.9089">
        <ele>1039</ele>
        <time>2026-05-09T20:13:00.642Z</time>
      </trkpt>
      <trkpt lat="47.86486" lon="6.9089">
        <ele>1039</ele>
        <time>2026-05-09T20:13:01.641Z</time>
      </trkpt>
      <trkpt lat="47.86485" lon="6.90889">
        <ele>1039</ele>
        <time>2026-05-09T20:13:02.642Z</time>
      </trkpt>
      <trkpt lat="47.86484" lon="6.90888">
        <ele>1039</ele>
        <time>2026-05-09T20:13:03.642Z</time>
      </trkpt>
      <trkpt lat="47.86483" lon="6.90887">
        <ele>1039</ele>
        <time>2026-05-09T20:13:04.642Z</time>
      </trkpt>
      <trkpt lat="47.86482" lon="6.90886">
        <ele>1039</ele>
        <time>2026-05-09T20:13:05.642Z</time>
      </trkpt>
      <trkpt lat="47.86481" lon="6.90885">
        <ele>1039</ele>
        <time>2026-05-09T20:13:06.642Z</time>
      </trkpt>
      <trkpt lat="47.8648" lon="6.90883">
        <ele>1039</ele>
        <time>2026-05-09T20:13:07.642Z</time>
      </trkpt>
      <trkpt lat="47.86479" lon="6.90882">
        <ele>1039</ele>
        <time>2026-05-09T20:13:08.641Z</time>
      </trkpt>
      <trkpt lat="47.86478" lon="6.90881">
        <ele>1040</ele>
        <time>2026-05-09T20:13:09.641Z</time>
      </trkpt>
      <trkpt lat="47.86477" lon="6.9088">
        <ele>1040</ele>
        <time>2026-05-09T20:13:10.642Z</time>
      </trkpt>
      <trkpt lat="47.86475" lon="6.90879">
        <ele>1040</ele>
        <time>2026-05-09T20:13:11.642Z</time>
      </trkpt>
      <trkpt lat="47.86474" lon="6.90878">
        <ele>1040</ele>
        <time>2026-05-09T20:13:12.642Z</time>
      </trkpt>
      <trkpt lat="47.86473" lon="6.90877">
        <ele>1040</ele>
        <time>2026-05-09T20:13:13.642Z</time>
      </trkpt>
      <trkpt lat="47.86472" lon="6.90877">
        <ele>1040</ele>
        <time>2026-05-09T20:13:14.642Z</time>
      </trkpt>
      <trkpt lat="47.86471" lon="6.90876">
        <ele>1040</ele>
        <time>2026-05-09T20:13:15.642Z</time>
      </trkpt>
      <trkpt lat="47.8647" lon="6.90876">
        <ele>1040</ele>
        <time>2026-05-09T20:13:16.641Z</time>
      </trkpt>
      <trkpt lat="47.86469" lon="6.90876">
        <ele>1041</ele>
        <time>2026-05-09T20:13:17.642Z</time>
      </trkpt>
      <trkpt lat="47.86468" lon="6.90876">
        <ele>1041</ele>
        <time>2026-05-09T20:13:18.641Z</time>
      </trkpt>
      <trkpt lat="47.86467" lon="6.90876">
        <ele>1041</ele>
        <time>2026-05-09T20:13:19.642Z</time>
      </trkpt>
      <trkpt lat="47.86466" lon="6.90876">
        <ele>1041</ele>
        <time>2026-05-09T20:13:20.641Z</time>
      </trkpt>
      <trkpt lat="47.86465" lon="6.90877">
        <ele>1041</ele>
        <time>2026-05-09T20:13:21.641Z</time>
      </trkpt>
      <trkpt lat="47.86463" lon="6.90877">
        <ele>1041</ele>
        <time>2026-05-09T20:13:22.641Z</time>
      </trkpt>
      <trkpt lat="47.86462" lon="6.90878">
        <ele>1041</ele>
        <time>2026-05-09T20:13:23.642Z</time>
      </trkpt>
      <trkpt lat="47.86461" lon="6.90878">
        <ele>1042</ele>
        <time>2026-05-09T20:13:24.642Z</time>
      </trkpt>
      <trkpt lat="47.8646" lon="6.90877">
        <ele>1042</ele>
        <time>2026-05-09T20:13:25.641Z</time>
      </trkpt>
      <trkpt lat="47.86459" lon="6.90878">
        <ele>1042</ele>
        <time>2026-05-09T20:13:26.642Z</time>
      </trkpt>
      <trkpt lat="47.86458" lon="6.90878">
        <ele>1042</ele>
        <time>2026-05-09T20:13:27.642Z</time>
      </trkpt>
      <trkpt lat="47.86457" lon="6.90879">
        <ele>1042</ele>
        <time>2026-05-09T20:13:28.641Z</time>
      </trkpt>
      <trkpt lat="47.86457" lon="6.9088">
        <ele>1042</ele>
        <time>2026-05-09T20:13:29.641Z</time>
      </trkpt>
      <trkpt lat="47.86456" lon="6.90881">
        <ele>1042</ele>
        <time>2026-05-09T20:13:30.642Z</time>
      </trkpt>
      <trkpt lat="47.86455" lon="6.90882">
        <ele>1042</ele>
        <time>2026-05-09T20:13:31.642Z</time>
      </trkpt>
      <trkpt lat="47.86454" lon="6.90883">
        <ele>1041</ele>
        <time>2026-05-09T20:13:32.642Z</time>
      </trkpt>
      <trkpt lat="47.86452" lon="6.90884">
        <ele>1042</ele>
        <time>2026-05-09T20:13:33.641Z</time>
      </trkpt>
      <trkpt lat="47.86451" lon="6.90885">
        <ele>1042</ele>
        <time>2026-05-09T20:13:34.641Z</time>
      </trkpt>
      <trkpt lat="47.8645" lon="6.90886">
        <ele>1042</ele>
        <time>2026-05-09T20:13:35.642Z</time>
      </trkpt>
      <trkpt lat="47.86449" lon="6.90887">
        <ele>1042</ele>
        <time>2026-05-09T20:13:36.642Z</time>
      </trkpt>
      <trkpt lat="47.86448" lon="6.90887">
        <ele>1043</ele>
        <time>2026-05-09T20:13:37.641Z</time>
      </trkpt>
      <trkpt lat="47.86447" lon="6.90888">
        <ele>1043</ele>
        <time>2026-05-09T20:13:38.642Z</time>
      </trkpt>
      <trkpt lat="47.86446" lon="6.90889">
        <ele>1043</ele>
        <time>2026-05-09T20:13:39.641Z</time>
      </trkpt>
      <trkpt lat="47.86445" lon="6.9089">
        <ele>1043</ele>
        <time>2026-05-09T20:13:40.641Z</time>
      </trkpt>
      <trkpt lat="47.86444" lon="6.90891">
        <ele>1043</ele>
        <time>2026-05-09T20:13:41.641Z</time>
      </trkpt>
      <trkpt lat="47.86443" lon="6.90891">
        <ele>1043</ele>
        <time>2026-05-09T20:13:42.642Z</time>
      </trkpt>
      <trkpt lat="47.86442" lon="6.90892">
        <ele>1043</ele>
        <time>2026-05-09T20:13:43.642Z</time>
      </trkpt>
      <trkpt lat="47.86441" lon="6.90893">
        <ele>1043</ele>
        <time>2026-05-09T20:13:44.642Z</time>
      </trkpt>
      <trkpt lat="47.86441" lon="6.90893">
        <ele>1044</ele>
        <time>2026-05-09T20:13:45.641Z</time>
      </trkpt>
      <trkpt lat="47.8644" lon="6.90894">
        <ele>1044</ele>
        <time>2026-05-09T20:13:46.642Z</time>
      </trkpt>
      <trkpt lat="47.86438" lon="6.90896">
        <ele>1043</ele>
        <time>2026-05-09T20:13:47.642Z</time>
      </trkpt>
      <trkpt lat="47.86436" lon="6.90897">
        <ele>1043</ele>
        <time>2026-05-09T20:13:48.642Z</time>
      </trkpt>
      <trkpt lat="47.86435" lon="6.90899">
        <ele>1043</ele>
        <time>2026-05-09T20:13:49.641Z</time>
      </trkpt>
      <trkpt lat="47.86434" lon="6.909">
        <ele>1043</ele>
        <time>2026-05-09T20:13:50.642Z</time>
      </trkpt>
      <trkpt lat="47.86434" lon="6.90902">
        <ele>1043</ele>
        <time>2026-05-09T20:13:51.641Z</time>
      </trkpt>
      <trkpt lat="47.86433" lon="6.90903">
        <ele>1043</ele>
        <time>2026-05-09T20:13:52.641Z</time>
      </trkpt>
      <trkpt lat="47.86433" lon="6.90904">
        <ele>1043</ele>
        <time>2026-05-09T20:13:53.642Z</time>
      </trkpt>
      <trkpt lat="47.86432" lon="6.90905">
        <ele>1043</ele>
        <time>2026-05-09T20:13:54.642Z</time>
      </trkpt>
      <trkpt lat="47.86431" lon="6.90907">
        <ele>1042</ele>
        <time>2026-05-09T20:13:55.642Z</time>
      </trkpt>
      <trkpt lat="47.86431" lon="6.90908">
        <ele>1042</ele>
        <time>2026-05-09T20:13:56.642Z</time>
      </trkpt>
      <trkpt lat="47.8643" lon="6.9091">
        <ele>1042</ele>
        <time>2026-05-09T20:13:57.641Z</time>
      </trkpt>
      <trkpt lat="47.86429" lon="6.90912">
        <ele>1042</ele>
        <time>2026-05-09T20:13:58.641Z</time>
      </trkpt>
      <trkpt lat="47.86428" lon="6.90914">
        <ele>1042</ele>
        <time>2026-05-09T20:13:59.642Z</time>
      </trkpt>
      <trkpt lat="47.86428" lon="6.90916">
        <ele>1042</ele>
        <time>2026-05-09T20:14:00.642Z</time>
      </trkpt>
      <trkpt lat="47.86427" lon="6.90917">
        <ele>1041</ele>
        <time>2026-05-09T20:14:01.642Z</time>
      </trkpt>
      <trkpt lat="47.86426" lon="6.90919">
        <ele>1041</ele>
        <time>2026-05-09T20:14:02.641Z</time>
      </trkpt>
      <trkpt lat="47.86425" lon="6.9092">
        <ele>1041</ele>
        <time>2026-05-09T20:14:03.641Z</time>
      </trkpt>
      <trkpt lat="47.86424" lon="6.90921">
        <ele>1040</ele>
        <time>2026-05-09T20:14:04.642Z</time>
      </trkpt>
      <trkpt lat="47.86422" lon="6.90922">
        <ele>1040</ele>
        <time>2026-05-09T20:14:05.642Z</time>
      </trkpt>
      <trkpt lat="47.86421" lon="6.90923">
        <ele>1040</ele>
        <time>2026-05-09T20:14:06.641Z</time>
      </trkpt>
      <trkpt lat="47.8642" lon="6.90924">
        <ele>1040</ele>
        <time>2026-05-09T20:14:07.641Z</time>
      </trkpt>
      <trkpt lat="47.86419" lon="6.90925">
        <ele>1040</ele>
        <time>2026-05-09T20:14:08.641Z</time>
      </trkpt>
      <trkpt lat="47.86418" lon="6.90927">
        <ele>1040</ele>
        <time>2026-05-09T20:14:09.641Z</time>
      </trkpt>
      <trkpt lat="47.86417" lon="6.90928">
        <ele>1040</ele>
        <time>2026-05-09T20:14:10.641Z</time>
      </trkpt>
      <trkpt lat="47.86416" lon="6.90929">
        <ele>1040</ele>
        <time>2026-05-09T20:14:11.641Z</time>
      </trkpt>
      <trkpt lat="47.86415" lon="6.9093">
        <ele>1040</ele>
        <time>2026-05-09T20:14:12.641Z</time>
      </trkpt>
      <trkpt lat="47.86414" lon="6.90931">
        <ele>1039</ele>
        <time>2026-05-09T20:14:13.641Z</time>
      </trkpt>
      <trkpt lat="47.86413" lon="6.90932">
        <ele>1039</ele>
        <time>2026-05-09T20:14:14.642Z</time>
      </trkpt>
      <trkpt lat="47.86412" lon="6.90933">
        <ele>1038</ele>
        <time>2026-05-09T20:14:15.641Z</time>
      </trkpt>
      <trkpt lat="47.8641" lon="6.90935">
        <ele>1037</ele>
        <time>2026-05-09T20:14:16.641Z</time>
      </trkpt>
      <trkpt lat="47.86409" lon="6.90936">
        <ele>1037</ele>
        <time>2026-05-09T20:14:17.641Z</time>
      </trkpt>
      <trkpt lat="47.86408" lon="6.90937">
        <ele>1036</ele>
        <time>2026-05-09T20:14:18.642Z</time>
      </trkpt>
      <trkpt lat="47.86406" lon="6.90938">
        <ele>1036</ele>
        <time>2026-05-09T20:14:19.642Z</time>
      </trkpt>
      <trkpt lat="47.86405" lon="6.90939">
        <ele>1036</ele>
        <time>2026-05-09T20:14:20.641Z</time>
      </trkpt>
      <trkpt lat="47.86404" lon="6.9094">
        <ele>1036</ele>
        <time>2026-05-09T20:14:21.642Z</time>
      </trkpt>
      <trkpt lat="47.86403" lon="6.90941">
        <ele>1036</ele>
        <time>2026-05-09T20:14:22.641Z</time>
      </trkpt>
      <trkpt lat="47.86402" lon="6.90942">
        <ele>1036</ele>
        <time>2026-05-09T20:14:23.641Z</time>
      </trkpt>
      <trkpt lat="47.86401" lon="6.90942">
        <ele>1036</ele>
        <time>2026-05-09T20:14:24.642Z</time>
      </trkpt>
      <trkpt lat="47.864" lon="6.90942">
        <ele>1036</ele>
        <time>2026-05-09T20:14:25.642Z</time>
      </trkpt>
      <trkpt lat="47.864" lon="6.90942">
        <ele>1036</ele>
        <time>2026-05-09T20:14:26.642Z</time>
      </trkpt>
      <trkpt lat="47.86398" lon="6.90945">
        <ele>1038</ele>
        <time>2026-05-09T20:14:36.814Z</time>
      </trkpt>
      <trkpt lat="47.86397" lon="6.90946">
        <ele>1039</ele>
        <time>2026-05-09T20:14:37.814Z</time>
      </trkpt>
      <trkpt lat="47.86397" lon="6.90947">
        <ele>1039</ele>
        <time>2026-05-09T20:14:38.813Z</time>
      </trkpt>
      <trkpt lat="47.86396" lon="6.90948">
        <ele>1040</ele>
        <time>2026-05-09T20:14:39.813Z</time>
      </trkpt>
      <trkpt lat="47.86395" lon="6.90949">
        <ele>1040</ele>
        <time>2026-05-09T20:14:40.813Z</time>
      </trkpt>
      <trkpt lat="47.86394" lon="6.90951">
        <ele>1041</ele>
        <time>2026-05-09T20:14:41.814Z</time>
      </trkpt>
      <trkpt lat="47.86393" lon="6.90952">
        <ele>1041</ele>
        <time>2026-05-09T20:14:42.814Z</time>
      </trkpt>
      <trkpt lat="47.86392" lon="6.90953">
        <ele>1042</ele>
        <time>2026-05-09T20:14:43.813Z</time>
      </trkpt>
      <trkpt lat="47.86391" lon="6.90954">
        <ele>1042</ele>
        <time>2026-05-09T20:14:44.814Z</time>
      </trkpt>
      <trkpt lat="47.8639" lon="6.90955">
        <ele>1042</ele>
        <time>2026-05-09T20:14:45.814Z</time>
      </trkpt>
      <trkpt lat="47.86389" lon="6.90957">
        <ele>1042</ele>
        <time>2026-05-09T20:14:46.814Z</time>
      </trkpt>
      <trkpt lat="47.86388" lon="6.90958">
        <ele>1043</ele>
        <time>2026-05-09T20:14:47.813Z</time>
      </trkpt>
      <trkpt lat="47.86387" lon="6.90958">
        <ele>1043</ele>
        <time>2026-05-09T20:14:48.814Z</time>
      </trkpt>
      <trkpt lat="47.86386" lon="6.90959">
        <ele>1043</ele>
        <time>2026-05-09T20:14:49.814Z</time>
      </trkpt>
      <trkpt lat="47.86385" lon="6.9096">
        <ele>1043</ele>
        <time>2026-05-09T20:14:50.814Z</time>
      </trkpt>
      <trkpt lat="47.86383" lon="6.90962">
        <ele>1043</ele>
        <time>2026-05-09T20:14:51.813Z</time>
      </trkpt>
      <trkpt lat="47.86382" lon="6.90963">
        <ele>1043</ele>
        <time>2026-05-09T20:14:52.813Z</time>
      </trkpt>
      <trkpt lat="47.86381" lon="6.90964">
        <ele>1044</ele>
        <time>2026-05-09T20:14:53.814Z</time>
      </trkpt>
      <trkpt lat="47.86379" lon="6.90965">
        <ele>1044</ele>
        <time>2026-05-09T20:14:54.814Z</time>
      </trkpt>
      <trkpt lat="47.86378" lon="6.90966">
        <ele>1044</ele>
        <time>2026-05-09T20:14:55.813Z</time>
      </trkpt>
      <trkpt lat="47.86377" lon="6.90966">
        <ele>1044</ele>
        <time>2026-05-09T20:14:56.813Z</time>
      </trkpt>
      <trkpt lat="47.86377" lon="6.90967">
        <ele>1044</ele>
        <time>2026-05-09T20:14:57.813Z</time>
      </trkpt>
      <trkpt lat="47.86376" lon="6.90969">
        <ele>1045</ele>
        <time>2026-05-09T20:14:58.813Z</time>
      </trkpt>
      <trkpt lat="47.86375" lon="6.90969">
        <ele>1045</ele>
        <time>2026-05-09T20:14:59.814Z</time>
      </trkpt>
      <trkpt lat="47.86374" lon="6.90969">
        <ele>1045</ele>
        <time>2026-05-09T20:15:00.813Z</time>
      </trkpt>
      <trkpt lat="47.86372" lon="6.9097">
        <ele>1045</ele>
        <time>2026-05-09T20:15:01.814Z</time>
      </trkpt>
      <trkpt lat="47.86372" lon="6.90971">
        <ele>1045</ele>
        <time>2026-05-09T20:15:02.813Z</time>
      </trkpt>
      <trkpt lat="47.8637" lon="6.90972">
        <ele>1045</ele>
        <time>2026-05-09T20:15:03.814Z</time>
      </trkpt>
      <trkpt lat="47.8637" lon="6.90972">
        <ele>1045</ele>
        <time>2026-05-09T20:15:04.813Z</time>
      </trkpt>
      <trkpt lat="47.86369" lon="6.90973">
        <ele>1045</ele>
        <time>2026-05-09T20:15:05.814Z</time>
      </trkpt>
      <trkpt lat="47.86369" lon="6.90974">
        <ele>1045</ele>
        <time>2026-05-09T20:15:06.813Z</time>
      </trkpt>
      <trkpt lat="47.86368" lon="6.90974">
        <ele>1046</ele>
        <time>2026-05-09T20:15:07.814Z</time>
      </trkpt>
      <trkpt lat="47.86367" lon="6.90975">
        <ele>1046</ele>
        <time>2026-05-09T20:15:08.813Z</time>
      </trkpt>
      <trkpt lat="47.86365" lon="6.90976">
        <ele>1047</ele>
        <time>2026-05-09T20:15:09.813Z</time>
      </trkpt>
      <trkpt lat="47.86364" lon="6.90977">
        <ele>1047</ele>
        <time>2026-05-09T20:15:10.813Z</time>
      </trkpt>
      <trkpt lat="47.86363" lon="6.90978">
        <ele>1047</ele>
        <time>2026-05-09T20:15:11.814Z</time>
      </trkpt>
      <trkpt lat="47.86361" lon="6.9098">
        <ele>1047</ele>
        <time>2026-05-09T20:15:12.813Z</time>
      </trkpt>
      <trkpt lat="47.86359" lon="6.9098">
        <ele>1048</ele>
        <time>2026-05-09T20:15:13.814Z</time>
      </trkpt>
      <trkpt lat="47.86358" lon="6.90981">
        <ele>1048</ele>
        <time>2026-05-09T20:15:14.814Z</time>
      </trkpt>
      <trkpt lat="47.86356" lon="6.90982">
        <ele>1048</ele>
        <time>2026-05-09T20:15:15.814Z</time>
      </trkpt>
      <trkpt lat="47.86356" lon="6.90981">
        <ele>1048</ele>
        <time>2026-05-09T20:15:16.814Z</time>
      </trkpt>
      <trkpt lat="47.86356" lon="6.90981">
        <ele>1049</ele>
        <time>2026-05-09T20:15:17.813Z</time>
      </trkpt>
      <trkpt lat="47.86355" lon="6.90981">
        <ele>1049</ele>
        <time>2026-05-09T20:15:18.814Z</time>
      </trkpt>
      <trkpt lat="47.86355" lon="6.90981">
        <ele>1049</ele>
        <time>2026-05-09T20:15:19.814Z</time>
      </trkpt>
      <trkpt lat="47.86354" lon="6.90981">
        <ele>1050</ele>
        <time>2026-05-09T20:15:25.416Z</time>
      </trkpt>
      <trkpt lat="47.86355" lon="6.90981">
        <ele>1050</ele>
        <time>2026-05-09T20:15:26.416Z</time>
      </trkpt>
      <trkpt lat="47.86356" lon="6.90982">
        <ele>1050</ele>
        <time>2026-05-09T20:15:27.417Z</time>
      </trkpt>
      <trkpt lat="47.86356" lon="6.90982">
        <ele>1050</ele>
        <time>2026-05-09T20:15:28.416Z</time>
      </trkpt>
      <trkpt lat="47.86356" lon="6.90982">
        <ele>1050</ele>
        <time>2026-05-09T20:15:29.416Z</time>
      </trkpt>
      <trkpt lat="47.86356" lon="6.90982">
        <ele>1050</ele>
        <time>2026-05-09T20:15:30.416Z</time>
      </trkpt>
      <trkpt lat="47.86356" lon="6.90982">
        <ele>1050</ele>
        <time>2026-05-09T20:15:31.416Z</time>
      </trkpt>
      <trkpt lat="47.86355" lon="6.90982">
        <ele>1050</ele>
        <time>2026-05-09T20:15:32.416Z</time>
      </trkpt>
      <trkpt lat="47.86355" lon="6.90981">
        <ele>1050</ele>
        <time>2026-05-09T20:15:33.416Z</time>
      </trkpt>
      <trkpt lat="47.86356" lon="6.90981">
        <ele>1049</ele>
        <time>2026-05-09T20:15:34.416Z</time>
      </trkpt>
      <trkpt lat="47.86356" lon="6.90981">
        <ele>1049</ele>
        <time>2026-05-09T20:15:35.417Z</time>
      </trkpt>
      <trkpt lat="47.86356" lon="6.90981">
        <ele>1049</ele>
        <time>2026-05-09T20:15:36.416Z</time>
      </trkpt>
      <trkpt lat="47.86355" lon="6.90981">
        <ele>1049</ele>
        <time>2026-05-09T20:15:37.417Z</time>
      </trkpt>
      <trkpt lat="47.86355" lon="6.90981">
        <ele>1049</ele>
        <time>2026-05-09T20:15:38.416Z</time>
      </trkpt>
      <trkpt lat="47.86355" lon="6.90981">
        <ele>1049</ele>
        <time>2026-05-09T20:15:39.416Z</time>
      </trkpt>
      <trkpt lat="47.86355" lon="6.90981">
        <ele>1049</ele>
        <time>2026-05-09T20:15:40.416Z</time>
      </trkpt>
      <trkpt lat="47.86355" lon="6.90981">
        <ele>1049</ele>
        <time>2026-05-09T20:15:41.416Z</time>
      </trkpt>
      <trkpt lat="47.86355" lon="6.90981">
        <ele>1049</ele>
        <time>2026-05-09T20:15:42.416Z</time>
      </trkpt>
      <trkpt lat="47.86355" lon="6.90982">
        <ele>1050</ele>
        <time>2026-05-09T20:15:43.416Z</time>
      </trkpt>
      <trkpt lat="47.86355" lon="6.90983">
        <ele>1050</ele>
        <time>2026-05-09T20:15:44.416Z</time>
      </trkpt>
      <trkpt lat="47.86356" lon="6.90984">
        <ele>1050</ele>
        <time>2026-05-09T20:15:45.417Z</time>
      </trkpt>
      <trkpt lat="47.86356" lon="6.90985">
        <ele>1050</ele>
        <time>2026-05-09T20:15:46.417Z</time>
      </trkpt>
      <trkpt lat="47.86357" lon="6.90987">
        <ele>1050</ele>
        <time>2026-05-09T20:15:47.416Z</time>
      </trkpt>
      <trkpt lat="47.86357" lon="6.90988">
        <ele>1050</ele>
        <time>2026-05-09T20:15:48.417Z</time>
      </trkpt>
      <trkpt lat="47.86357" lon="6.9099">
        <ele>1050</ele>
        <time>2026-05-09T20:15:49.416Z</time>
      </trkpt>
      <trkpt lat="47.86357" lon="6.90992">
        <ele>1050</ele>
        <time>2026-05-09T20:15:50.416Z</time>
      </trkpt>
      <trkpt lat="47.86357" lon="6.90995">
        <ele>1050</ele>
        <time>2026-05-09T20:15:51.416Z</time>
      </trkpt>
      <trkpt lat="47.86358" lon="6.90997">
        <ele>1049</ele>
        <time>2026-05-09T20:15:52.416Z</time>
      </trkpt>
      <trkpt lat="47.86358" lon="6.90999">
        <ele>1049</ele>
        <time>2026-05-09T20:15:53.416Z</time>
      </trkpt>
      <trkpt lat="47.86358" lon="6.91001">
        <ele>1049</ele>
        <time>2026-05-09T20:15:54.416Z</time>
      </trkpt>
      <trkpt lat="47.86358" lon="6.91003">
        <ele>1049</ele>
        <time>2026-05-09T20:15:55.417Z</time>
      </trkpt>
      <trkpt lat="47.86359" lon="6.91004">
        <ele>1049</ele>
        <time>2026-05-09T20:15:56.416Z</time>
      </trkpt>
      <trkpt lat="47.86359" lon="6.91007">
        <ele>1049</ele>
        <time>2026-05-09T20:15:57.417Z</time>
      </trkpt>
      <trkpt lat="47.86359" lon="6.91009">
        <ele>1049</ele>
        <time>2026-05-09T20:15:58.416Z</time>
      </trkpt>
      <trkpt lat="47.86358" lon="6.9101">
        <ele>1049</ele>
        <time>2026-05-09T20:15:59.416Z</time>
      </trkpt>
      <trkpt lat="47.86358" lon="6.91012">
        <ele>1050</ele>
        <time>2026-05-09T20:16:00.417Z</time>
      </trkpt>
      <trkpt lat="47.86357" lon="6.91013">
        <ele>1050</ele>
        <time>2026-05-09T20:16:01.416Z</time>
      </trkpt>
      <trkpt lat="47.86355" lon="6.91014">
        <ele>1050</ele>
        <time>2026-05-09T20:16:02.417Z</time>
      </trkpt>
      <trkpt lat="47.86355" lon="6.91015">
        <ele>1050</ele>
        <time>2026-05-09T20:16:03.417Z</time>
      </trkpt>
      <trkpt lat="47.86354" lon="6.91016">
        <ele>1050</ele>
        <time>2026-05-09T20:16:04.416Z</time>
      </trkpt>
      <trkpt lat="47.86353" lon="6.91017">
        <ele>1050</ele>
        <time>2026-05-09T20:16:05.417Z</time>
      </trkpt>
      <trkpt lat="47.86352" lon="6.91018">
        <ele>1050</ele>
        <time>2026-05-09T20:16:06.417Z</time>
      </trkpt>
      <trkpt lat="47.86351" lon="6.91019">
        <ele>1050</ele>
        <time>2026-05-09T20:16:07.417Z</time>
      </trkpt>
      <trkpt lat="47.8635" lon="6.9102">
        <ele>1050</ele>
        <time>2026-05-09T20:16:08.416Z</time>
      </trkpt>
      <trkpt lat="47.86349" lon="6.91021">
        <ele>1051</ele>
        <time>2026-05-09T20:16:09.417Z</time>
      </trkpt>
      <trkpt lat="47.86348" lon="6.91022">
        <ele>1051</ele>
        <time>2026-05-09T20:16:10.416Z</time>
      </trkpt>
      <trkpt lat="47.86347" lon="6.91023">
        <ele>1051</ele>
        <time>2026-05-09T20:16:11.417Z</time>
      </trkpt>
      <trkpt lat="47.86347" lon="6.91024">
        <ele>1051</ele>
        <time>2026-05-09T20:16:12.417Z</time>
      </trkpt>
      <trkpt lat="47.86346" lon="6.91025">
        <ele>1051</ele>
        <time>2026-05-09T20:16:13.416Z</time>
      </trkpt>
      <trkpt lat="47.86344" lon="6.91026">
        <ele>1051</ele>
        <time>2026-05-09T20:16:14.417Z</time>
      </trkpt>
      <trkpt lat="47.86344" lon="6.91027">
        <ele>1051</ele>
        <time>2026-05-09T20:16:15.416Z</time>
      </trkpt>
      <trkpt lat="47.86342" lon="6.91028">
        <ele>1052</ele>
        <time>2026-05-09T20:16:16.416Z</time>
      </trkpt>
      <trkpt lat="47.86341" lon="6.91029">
        <ele>1052</ele>
        <time>2026-05-09T20:16:17.417Z</time>
      </trkpt>
      <trkpt lat="47.8634" lon="6.9103">
        <ele>1053</ele>
        <time>2026-05-09T20:16:18.416Z</time>
      </trkpt>
      <trkpt lat="47.8634" lon="6.9103">
        <ele>1053</ele>
        <time>2026-05-09T20:16:19.416Z</time>
      </trkpt>
      <trkpt lat="47.86339" lon="6.91031">
        <ele>1053</ele>
        <time>2026-05-09T20:16:20.416Z</time>
      </trkpt>
      <trkpt lat="47.86338" lon="6.91031">
        <ele>1054</ele>
        <time>2026-05-09T20:16:21.417Z</time>
      </trkpt>
      <trkpt lat="47.86337" lon="6.91032">
        <ele>1054</ele>
        <time>2026-05-09T20:16:22.417Z</time>
      </trkpt>
      <trkpt lat="47.86337" lon="6.91032">
        <ele>1054</ele>
        <time>2026-05-09T20:16:23.416Z</time>
      </trkpt>
      <trkpt lat="47.86336" lon="6.91033">
        <ele>1055</ele>
        <time>2026-05-09T20:16:24.416Z</time>
      </trkpt>
      <trkpt lat="47.86335" lon="6.91033">
        <ele>1055</ele>
        <time>2026-05-09T20:16:25.417Z</time>
      </trkpt>
      <trkpt lat="47.86334" lon="6.91034">
        <ele>1056</ele>
        <time>2026-05-09T20:16:26.416Z</time>
      </trkpt>
      <trkpt lat="47.86333" lon="6.91035">
        <ele>1056</ele>
        <time>2026-05-09T20:16:27.417Z</time>
      </trkpt>
      <trkpt lat="47.86332" lon="6.91036">
        <ele>1057</ele>
        <time>2026-05-09T20:16:28.416Z</time>
      </trkpt>
      <trkpt lat="47.86332" lon="6.91035">
        <ele>1057</ele>
        <time>2026-05-09T20:16:29.416Z</time>
      </trkpt>
      <trkpt lat="47.86332" lon="6.91035">
        <ele>1058</ele>
        <time>2026-05-09T20:16:30.416Z</time>
      </trkpt>
      <trkpt lat="47.86331" lon="6.91035">
        <ele>1058</ele>
        <time>2026-05-09T20:16:31.417Z</time>
      </trkpt>
      <trkpt lat="47.86331" lon="6.91035">
        <ele>1058</ele>
        <time>2026-05-09T20:16:32.417Z</time>
      </trkpt>
      <trkpt lat="47.86326" lon="6.91038">
        <ele>1060</ele>
        <time>2026-05-09T20:16:40.825Z</time>
      </trkpt>
      <trkpt lat="47.86325" lon="6.91039">
        <ele>1060</ele>
        <time>2026-05-09T20:16:41.825Z</time>
      </trkpt>
      <trkpt lat="47.86324" lon="6.91039">
        <ele>1061</ele>
        <time>2026-05-09T20:16:42.826Z</time>
      </trkpt>
      <trkpt lat="47.86323" lon="6.9104">
        <ele>1061</ele>
        <time>2026-05-09T20:16:43.826Z</time>
      </trkpt>
      <trkpt lat="47.86322" lon="6.9104">
        <ele>1061</ele>
        <time>2026-05-09T20:16:44.825Z</time>
      </trkpt>
      <trkpt lat="47.86321" lon="6.91041">
        <ele>1061</ele>
        <time>2026-05-09T20:16:45.825Z</time>
      </trkpt>
      <trkpt lat="47.8632" lon="6.91041">
        <ele>1062</ele>
        <time>2026-05-09T20:16:46.825Z</time>
      </trkpt>
      <trkpt lat="47.86319" lon="6.91041">
        <ele>1062</ele>
        <time>2026-05-09T20:16:47.825Z</time>
      </trkpt>
      <trkpt lat="47.86318" lon="6.91041">
        <ele>1062</ele>
        <time>2026-05-09T20:16:48.825Z</time>
      </trkpt>
      <trkpt lat="47.86318" lon="6.91041">
        <ele>1062</ele>
        <time>2026-05-09T20:16:49.826Z</time>
      </trkpt>
      <trkpt lat="47.86317" lon="6.91041">
        <ele>1062</ele>
        <time>2026-05-09T20:16:50.826Z</time>
      </trkpt>
      <trkpt lat="47.86316" lon="6.91041">
        <ele>1063</ele>
        <time>2026-05-09T20:16:51.826Z</time>
      </trkpt>
      <trkpt lat="47.86315" lon="6.91041">
        <ele>1063</ele>
        <time>2026-05-09T20:16:52.826Z</time>
      </trkpt>
      <trkpt lat="47.86313" lon="6.91042">
        <ele>1063</ele>
        <time>2026-05-09T20:16:53.825Z</time>
      </trkpt>
      <trkpt lat="47.86312" lon="6.91042">
        <ele>1064</ele>
        <time>2026-05-09T20:16:54.825Z</time>
      </trkpt>
      <trkpt lat="47.86311" lon="6.91041">
        <ele>1064</ele>
        <time>2026-05-09T20:16:55.826Z</time>
      </trkpt>
      <trkpt lat="47.8631" lon="6.91041">
        <ele>1064</ele>
        <time>2026-05-09T20:16:56.825Z</time>
      </trkpt>
      <trkpt lat="47.86309" lon="6.91041">
        <ele>1063</ele>
        <time>2026-05-09T20:16:57.825Z</time>
      </trkpt>
      <trkpt lat="47.86308" lon="6.91041">
        <ele>1063</ele>
        <time>2026-05-09T20:16:58.825Z</time>
      </trkpt>
      <trkpt lat="47.86307" lon="6.91041">
        <ele>1063</ele>
        <time>2026-05-09T20:16:59.826Z</time>
      </trkpt>
      <trkpt lat="47.86306" lon="6.91041">
        <ele>1063</ele>
        <time>2026-05-09T20:17:00.825Z</time>
      </trkpt>
      <trkpt lat="47.86305" lon="6.91041">
        <ele>1063</ele>
        <time>2026-05-09T20:17:01.826Z</time>
      </trkpt>
      <trkpt lat="47.86304" lon="6.91042">
        <ele>1064</ele>
        <time>2026-05-09T20:17:02.826Z</time>
      </trkpt>
      <trkpt lat="47.86303" lon="6.91042">
        <ele>1064</ele>
        <time>2026-05-09T20:17:03.825Z</time>
      </trkpt>
      <trkpt lat="47.86302" lon="6.91042">
        <ele>1064</ele>
        <time>2026-05-09T20:17:04.825Z</time>
      </trkpt>
      <trkpt lat="47.86302" lon="6.91042">
        <ele>1064</ele>
        <time>2026-05-09T20:17:05.825Z</time>
      </trkpt>
      <trkpt lat="47.86301" lon="6.91042">
        <ele>1065</ele>
        <time>2026-05-09T20:17:06.826Z</time>
      </trkpt>
      <trkpt lat="47.863" lon="6.91043">
        <ele>1065</ele>
        <time>2026-05-09T20:17:07.826Z</time>
      </trkpt>
      <trkpt lat="47.86299" lon="6.91043">
        <ele>1065</ele>
        <time>2026-05-09T20:17:08.826Z</time>
      </trkpt>
      <trkpt lat="47.86298" lon="6.91043">
        <ele>1066</ele>
        <time>2026-05-09T20:17:09.825Z</time>
      </trkpt>
      <trkpt lat="47.86297" lon="6.91043">
        <ele>1066</ele>
        <time>2026-05-09T20:17:10.825Z</time>
      </trkpt>
      <trkpt lat="47.86296" lon="6.91043">
        <ele>1066</ele>
        <time>2026-05-09T20:17:11.825Z</time>
      </trkpt>
      <trkpt lat="47.86295" lon="6.91044">
        <ele>1066</ele>
        <time>2026-05-09T20:17:12.825Z</time>
      </trkpt>
      <trkpt lat="47.86295" lon="6.91044">
        <ele>1066</ele>
        <time>2026-05-09T20:17:13.825Z</time>
      </trkpt>
      <trkpt lat="47.86295" lon="6.91043">
        <ele>1066</ele>
        <time>2026-05-09T20:17:14.825Z</time>
      </trkpt>
      <trkpt lat="47.86294" lon="6.91043">
        <ele>1066</ele>
        <time>2026-05-09T20:17:15.826Z</time>
      </trkpt>
      <trkpt lat="47.86294" lon="6.91043">
        <ele>1066</ele>
        <time>2026-05-09T20:17:16.826Z</time>
      </trkpt>
      <trkpt lat="47.86293" lon="6.91044">
        <ele>1065</ele>
        <time>2026-05-09T20:17:17.825Z</time>
      </trkpt>
      <trkpt lat="47.86292" lon="6.91044">
        <ele>1065</ele>
        <time>2026-05-09T20:17:18.826Z</time>
      </trkpt>
      <trkpt lat="47.8629" lon="6.91045">
        <ele>1066</ele>
        <time>2026-05-09T20:17:19.826Z</time>
      </trkpt>
      <trkpt lat="47.8629" lon="6.91044">
        <ele>1066</ele>
        <time>2026-05-09T20:17:20.825Z</time>
      </trkpt>
      <trkpt lat="47.86288" lon="6.91045">
        <ele>1066</ele>
        <time>2026-05-09T20:17:21.826Z</time>
      </trkpt>
      <trkpt lat="47.86287" lon="6.91045">
        <ele>1065</ele>
        <time>2026-05-09T20:17:22.826Z</time>
      </trkpt>
      <trkpt lat="47.86285" lon="6.91046">
        <ele>1065</ele>
        <time>2026-05-09T20:17:23.826Z</time>
      </trkpt>
      <trkpt lat="47.86283" lon="6.91046">
        <ele>1065</ele>
        <time>2026-05-09T20:17:24.826Z</time>
      </trkpt>
      <trkpt lat="47.86282" lon="6.91046">
        <ele>1064</ele>
        <time>2026-05-09T20:17:25.825Z</time>
      </trkpt>
      <trkpt lat="47.86281" lon="6.91046">
        <ele>1064</ele>
        <time>2026-05-09T20:17:26.826Z</time>
      </trkpt>
      <trkpt lat="47.8628" lon="6.91046">
        <ele>1064</ele>
        <time>2026-05-09T20:17:27.826Z</time>
      </trkpt>
      <trkpt lat="47.8628" lon="6.91045">
        <ele>1064</ele>
        <time>2026-05-09T20:17:28.825Z</time>
      </trkpt>
      <trkpt lat="47.86279" lon="6.91045">
        <ele>1064</ele>
        <time>2026-05-09T20:17:29.825Z</time>
      </trkpt>
      <trkpt lat="47.86278" lon="6.91044">
        <ele>1064</ele>
        <time>2026-05-09T20:17:30.825Z</time>
      </trkpt>
      <trkpt lat="47.86276" lon="6.91044">
        <ele>1065</ele>
        <time>2026-05-09T20:17:31.825Z</time>
      </trkpt>
      <trkpt lat="47.86275" lon="6.91043">
        <ele>1065</ele>
        <time>2026-05-09T20:17:32.825Z</time>
      </trkpt>
      <trkpt lat="47.86274" lon="6.91043">
        <ele>1065</ele>
        <time>2026-05-09T20:17:33.825Z</time>
      </trkpt>
      <trkpt lat="47.86272" lon="6.91042">
        <ele>1065</ele>
        <time>2026-05-09T20:17:34.825Z</time>
      </trkpt>
      <trkpt lat="47.86271" lon="6.91041">
        <ele>1065</ele>
        <time>2026-05-09T20:17:35.826Z</time>
      </trkpt>
      <trkpt lat="47.86271" lon="6.9104">
        <ele>1065</ele>
        <time>2026-05-09T20:17:36.826Z</time>
      </trkpt>
      <trkpt lat="47.8627" lon="6.9104">
        <ele>1065</ele>
        <time>2026-05-09T20:17:37.826Z</time>
      </trkpt>
      <trkpt lat="47.86268" lon="6.91039">
        <ele>1065</ele>
        <time>2026-05-09T20:17:38.826Z</time>
      </trkpt>
      <trkpt lat="47.86267" lon="6.91039">
        <ele>1065</ele>
        <time>2026-05-09T20:17:39.826Z</time>
      </trkpt>
      <trkpt lat="47.86266" lon="6.91038">
        <ele>1066</ele>
        <time>2026-05-09T20:17:40.825Z</time>
      </trkpt>
      <trkpt lat="47.86265" lon="6.91037">
        <ele>1066</ele>
        <time>2026-05-09T20:17:41.825Z</time>
      </trkpt>
      <trkpt lat="47.86264" lon="6.91036">
        <ele>1066</ele>
        <time>2026-05-09T20:17:42.826Z</time>
      </trkpt>
      <trkpt lat="47.86263" lon="6.91035">
        <ele>1067</ele>
        <time>2026-05-09T20:17:43.825Z</time>
      </trkpt>
      <trkpt lat="47.86263" lon="6.91035">
        <ele>1067</ele>
        <time>2026-05-09T20:17:44.826Z</time>
      </trkpt>
      <trkpt lat="47.86262" lon="6.91036">
        <ele>1068</ele>
        <time>2026-05-09T20:17:45.825Z</time>
      </trkpt>
      <trkpt lat="47.86261" lon="6.91036">
        <ele>1069</ele>
        <time>2026-05-09T20:17:46.825Z</time>
      </trkpt>
      <trkpt lat="47.8626" lon="6.91036">
        <ele>1069</ele>
        <time>2026-05-09T20:17:47.825Z</time>
      </trkpt>
      <trkpt lat="47.86259" lon="6.91035">
        <ele>1070</ele>
        <time>2026-05-09T20:17:48.825Z</time>
      </trkpt>
      <trkpt lat="47.86258" lon="6.91035">
        <ele>1071</ele>
        <time>2026-05-09T20:17:49.825Z</time>
      </trkpt>
      <trkpt lat="47.86257" lon="6.91035">
        <ele>1071</ele>
        <time>2026-05-09T20:17:50.826Z</time>
      </trkpt>
      <trkpt lat="47.86256" lon="6.91034">
        <ele>1072</ele>
        <time>2026-05-09T20:17:51.825Z</time>
      </trkpt>
      <trkpt lat="47.86256" lon="6.91034">
        <ele>1072</ele>
        <time>2026-05-09T20:17:52.826Z</time>
      </trkpt>
      <trkpt lat="47.86256" lon="6.91034">
        <ele>1073</ele>
        <time>2026-05-09T20:17:53.826Z</time>
      </trkpt>
      <trkpt lat="47.86255" lon="6.91034">
        <ele>1073</ele>
        <time>2026-05-09T20:17:54.825Z</time>
      </trkpt>
      <trkpt lat="47.86257" lon="6.91033">
        <ele>1078</ele>
        <time>2026-05-09T20:18:01.169Z</time>
      </trkpt>
      <trkpt lat="47.86256" lon="6.91032">
        <ele>1078</ele>
        <time>2026-05-09T20:18:02.169Z</time>
      </trkpt>
      <trkpt lat="47.86256" lon="6.91032">
        <ele>1079</ele>
        <time>2026-05-09T20:18:03.169Z</time>
      </trkpt>
      <trkpt lat="47.86256" lon="6.91031">
        <ele>1079</ele>
        <time>2026-05-09T20:18:04.169Z</time>
      </trkpt>
      <trkpt lat="47.86255" lon="6.9103">
        <ele>1080</ele>
        <time>2026-05-09T20:18:05.169Z</time>
      </trkpt>
      <trkpt lat="47.86255" lon="6.91029">
        <ele>1080</ele>
        <time>2026-05-09T20:18:06.169Z</time>
      </trkpt>
      <trkpt lat="47.86255" lon="6.91029">
        <ele>1080</ele>
        <time>2026-05-09T20:18:07.169Z</time>
      </trkpt>
      <trkpt lat="47.86255" lon="6.91029">
        <ele>1081</ele>
        <time>2026-05-09T20:18:08.169Z</time>
      </trkpt>
      <trkpt lat="47.86254" lon="6.91029">
        <ele>1081</ele>
        <time>2026-05-09T20:18:09.169Z</time>
      </trkpt>
      <trkpt lat="47.86254" lon="6.91029">
        <ele>1080</ele>
        <time>2026-05-09T20:18:10.170Z</time>
      </trkpt>
      <trkpt lat="47.86254" lon="6.91029">
        <ele>1080</ele>
        <time>2026-05-09T20:18:11.170Z</time>
      </trkpt>
      <trkpt lat="47.86254" lon="6.91031">
        <ele>1079</ele>
        <time>2026-05-09T20:18:22.498Z</time>
      </trkpt>
      <trkpt lat="47.86254" lon="6.91032">
        <ele>1079</ele>
        <time>2026-05-09T20:18:23.498Z</time>
      </trkpt>
      <trkpt lat="47.86254" lon="6.91032">
        <ele>1079</ele>
        <time>2026-05-09T20:18:24.498Z</time>
      </trkpt>
      <trkpt lat="47.86254" lon="6.91032">
        <ele>1079</ele>
        <time>2026-05-09T20:18:25.499Z</time>
      </trkpt>
      <trkpt lat="47.86253" lon="6.91032">
        <ele>1079</ele>
        <time>2026-05-09T20:18:26.499Z</time>
      </trkpt>
      <trkpt lat="47.86252" lon="6.91031">
        <ele>1079</ele>
        <time>2026-05-09T20:18:27.498Z</time>
      </trkpt>
      <trkpt lat="47.86252" lon="6.91031">
        <ele>1080</ele>
        <time>2026-05-09T20:18:28.498Z</time>
      </trkpt>
      <trkpt lat="47.86251" lon="6.91032">
        <ele>1080</ele>
        <time>2026-05-09T20:18:29.499Z</time>
      </trkpt>
      <trkpt lat="47.8625" lon="6.91031">
        <ele>1080</ele>
        <time>2026-05-09T20:18:30.498Z</time>
      </trkpt>
      <trkpt lat="47.8625" lon="6.91031">
        <ele>1080</ele>
        <time>2026-05-09T20:18:31.498Z</time>
      </trkpt>
      <trkpt lat="47.86251" lon="6.91032">
        <ele>1080</ele>
        <time>2026-05-09T20:18:32.498Z</time>
      </trkpt>
      <trkpt lat="47.86251" lon="6.91032">
        <ele>1081</ele>
        <time>2026-05-09T20:18:33.498Z</time>
      </trkpt>
      <trkpt lat="47.86251" lon="6.91033">
        <ele>1081</ele>
        <time>2026-05-09T20:18:34.498Z</time>
      </trkpt>
      <trkpt lat="47.8625" lon="6.91032">
        <ele>1081</ele>
        <time>2026-05-09T20:18:35.499Z</time>
      </trkpt>
      <trkpt lat="47.8625" lon="6.91032">
        <ele>1081</ele>
        <time>2026-05-09T20:18:36.499Z</time>
      </trkpt>
      <trkpt lat="47.8625" lon="6.91032">
        <ele>1081</ele>
        <time>2026-05-09T20:18:37.499Z</time>
      </trkpt>
      <trkpt lat="47.8625" lon="6.91032">
        <ele>1081</ele>
        <time>2026-05-09T20:18:38.499Z</time>
      </trkpt>
      <trkpt lat="47.8625" lon="6.91032">
        <ele>1081</ele>
        <time>2026-05-09T20:18:39.499Z</time>
      </trkpt>
      <trkpt lat="47.8625" lon="6.91032">
        <ele>1082</ele>
        <time>2026-05-09T20:18:40.498Z</time>
      </trkpt>
      <trkpt lat="47.8625" lon="6.91032">
        <ele>1082</ele>
        <time>2026-05-09T20:18:41.498Z</time>
      </trkpt>
      <trkpt lat="47.8625" lon="6.91031">
        <ele>1082</ele>
        <time>2026-05-09T20:18:42.498Z</time>
      </trkpt>
      <trkpt lat="47.8625" lon="6.91032">
        <ele>1082</ele>
        <time>2026-05-09T20:18:43.498Z</time>
      </trkpt>
      <trkpt lat="47.8625" lon="6.91032">
        <ele>1083</ele>
        <time>2026-05-09T20:18:44.498Z</time>
      </trkpt>
      <trkpt lat="47.8625" lon="6.91032">
        <ele>1083</ele>
        <time>2026-05-09T20:18:45.498Z</time>
      </trkpt>
      <trkpt lat="47.8625" lon="6.91032">
        <ele>1083</ele>
        <time>2026-05-09T20:18:46.498Z</time>
      </trkpt>
      <trkpt lat="47.8625" lon="6.91032">
        <ele>1084</ele>
        <time>2026-05-09T20:18:47.498Z</time>
      </trkpt>
      <trkpt lat="47.8625" lon="6.91032">
        <ele>1084</ele>
        <time>2026-05-09T20:18:48.498Z</time>
      </trkpt>
      <trkpt lat="47.8625" lon="6.91032">
        <ele>1084</ele>
        <time>2026-05-09T20:18:49.498Z</time>
      </trkpt>
      <trkpt lat="47.8625" lon="6.91032">
        <ele>1084</ele>
        <time>2026-05-09T20:18:50.498Z</time>
      </trkpt>
      <trkpt lat="47.8625" lon="6.91032">
        <ele>1084</ele>
        <time>2026-05-09T20:18:51.499Z</time>
      </trkpt>
      <trkpt lat="47.8625" lon="6.91031">
        <ele>1084</ele>
        <time>2026-05-09T20:18:52.499Z</time>
      </trkpt>
      <trkpt lat="47.8625" lon="6.91031">
        <ele>1084</ele>
        <time>2026-05-09T20:18:53.499Z</time>
      </trkpt>
      <trkpt lat="47.86246" lon="6.91031">
        <ele>1083</ele>
        <time>2026-05-09T20:19:04.654Z</time>
      </trkpt>
      <trkpt lat="47.86247" lon="6.91031">
        <ele>1082</ele>
        <time>2026-05-09T20:19:05.653Z</time>
      </trkpt>
      <trkpt lat="47.86247" lon="6.91033">
        <ele>1079</ele>
        <time>2026-05-09T20:19:14.851Z</time>
      </trkpt>
      <trkpt lat="47.86245" lon="6.91033">
        <ele>1077</ele>
        <time>2026-05-09T20:19:21.171Z</time>
      </trkpt>
      <trkpt lat="47.86244" lon="6.91032">
        <ele>1077</ele>
        <time>2026-05-09T20:19:22.171Z</time>
      </trkpt>
      <trkpt lat="47.86244" lon="6.91033">
        <ele>1077</ele>
        <time>2026-05-09T20:19:23.171Z</time>
      </trkpt>
      <trkpt lat="47.86243" lon="6.91033">
        <ele>1077</ele>
        <time>2026-05-09T20:19:24.172Z</time>
      </trkpt>
      <trkpt lat="47.86241" lon="6.91033">
        <ele>1077</ele>
        <time>2026-05-09T20:19:25.171Z</time>
      </trkpt>
      <trkpt lat="47.8624" lon="6.91032">
        <ele>1077</ele>
        <time>2026-05-09T20:19:26.171Z</time>
      </trkpt>
      <trkpt lat="47.8624" lon="6.91033">
        <ele>1076</ele>
        <time>2026-05-09T20:19:27.171Z</time>
      </trkpt>
      <trkpt lat="47.86239" lon="6.91033">
        <ele>1076</ele>
        <time>2026-05-09T20:19:28.171Z</time>
      </trkpt>
      <trkpt lat="47.86239" lon="6.91033">
        <ele>1076</ele>
        <time>2026-05-09T20:19:29.171Z</time>
      </trkpt>
      <trkpt lat="47.86238" lon="6.91034">
        <ele>1075</ele>
        <time>2026-05-09T20:19:30.171Z</time>
      </trkpt>
      <trkpt lat="47.86238" lon="6.91034">
        <ele>1075</ele>
        <time>2026-05-09T20:19:31.171Z</time>
      </trkpt>
      <trkpt lat="47.86238" lon="6.91034">
        <ele>1075</ele>
        <time>2026-05-09T20:19:32.171Z</time>
      </trkpt>
      <trkpt lat="47.86238" lon="6.91034">
        <ele>1074</ele>
        <time>2026-05-09T20:19:33.171Z</time>
      </trkpt>
      <trkpt lat="47.86239" lon="6.91033">
        <ele>1068</ele>
        <time>2026-05-09T20:19:44.947Z</time>
      </trkpt>
      <trkpt lat="47.86239" lon="6.91033">
        <ele>1067</ele>
        <time>2026-05-09T20:19:45.947Z</time>
      </trkpt>
      <trkpt lat="47.86238" lon="6.91033">
        <ele>1066</ele>
        <time>2026-05-09T20:19:46.946Z</time>
      </trkpt>
      <trkpt lat="47.86237" lon="6.91033">
        <ele>1066</ele>
        <time>2026-05-09T20:19:47.946Z</time>
      </trkpt>
      <trkpt lat="47.86236" lon="6.91033">
        <ele>1065</ele>
        <time>2026-05-09T20:19:48.946Z</time>
      </trkpt>
      <trkpt lat="47.86236" lon="6.91032">
        <ele>1065</ele>
        <time>2026-05-09T20:19:49.946Z</time>
      </trkpt>
      <trkpt lat="47.86236" lon="6.91032">
        <ele>1065</ele>
        <time>2026-05-09T20:19:50.947Z</time>
      </trkpt>
      <trkpt lat="47.86235" lon="6.91031">
        <ele>1065</ele>
        <time>2026-05-09T20:19:51.946Z</time>
      </trkpt>
      <trkpt lat="47.86234" lon="6.9103">
        <ele>1065</ele>
        <time>2026-05-09T20:19:52.946Z</time>
      </trkpt>
      <trkpt lat="47.86233" lon="6.91029">
        <ele>1065</ele>
        <time>2026-05-09T20:19:53.947Z</time>
      </trkpt>
      <trkpt lat="47.86232" lon="6.91029">
        <ele>1065</ele>
        <time>2026-05-09T20:19:54.946Z</time>
      </trkpt>
      <trkpt lat="47.86231" lon="6.91029">
        <ele>1066</ele>
        <time>2026-05-09T20:19:55.946Z</time>
      </trkpt>
      <trkpt lat="47.8623" lon="6.91029">
        <ele>1066</ele>
        <time>2026-05-09T20:19:56.946Z</time>
      </trkpt>
      <trkpt lat="47.86229" lon="6.91029">
        <ele>1066</ele>
        <time>2026-05-09T20:19:57.947Z</time>
      </trkpt>
      <trkpt lat="47.86229" lon="6.91028">
        <ele>1067</ele>
        <time>2026-05-09T20:19:58.946Z</time>
      </trkpt>
      <trkpt lat="47.86228" lon="6.91028">
        <ele>1067</ele>
        <time>2026-05-09T20:19:59.946Z</time>
      </trkpt>
      <trkpt lat="47.86227" lon="6.91028">
        <ele>1068</ele>
        <time>2026-05-09T20:20:00.946Z</time>
      </trkpt>
      <trkpt lat="47.86227" lon="6.91028">
        <ele>1068</ele>
        <time>2026-05-09T20:20:01.946Z</time>
      </trkpt>
      <trkpt lat="47.86227" lon="6.91028">
        <ele>1069</ele>
        <time>2026-05-09T20:20:02.947Z</time>
      </trkpt>
      <trkpt lat="47.86225" lon="6.91028">
        <ele>1069</ele>
        <time>2026-05-09T20:20:03.947Z</time>
      </trkpt>
      <trkpt lat="47.86224" lon="6.91028">
        <ele>1069</ele>
        <time>2026-05-09T20:20:04.947Z</time>
      </trkpt>
      <trkpt lat="47.86222" lon="6.91028">
        <ele>1070</ele>
        <time>2026-05-09T20:20:05.947Z</time>
      </trkpt>
      <trkpt lat="47.86222" lon="6.91028">
        <ele>1070</ele>
        <time>2026-05-09T20:20:06.946Z</time>
      </trkpt>
      <trkpt lat="47.86222" lon="6.91027">
        <ele>1071</ele>
        <time>2026-05-09T20:20:07.947Z</time>
      </trkpt>
      <trkpt lat="47.86222" lon="6.91025">
        <ele>1071</ele>
        <time>2026-05-09T20:20:08.947Z</time>
      </trkpt>
      <trkpt lat="47.86221" lon="6.91024">
        <ele>1071</ele>
        <time>2026-05-09T20:20:09.947Z</time>
      </trkpt>
      <trkpt lat="47.8622" lon="6.91023">
        <ele>1072</ele>
        <time>2026-05-09T20:20:10.947Z</time>
      </trkpt>
      <trkpt lat="47.8622" lon="6.91022">
        <ele>1072</ele>
        <time>2026-05-09T20:20:11.946Z</time>
      </trkpt>
      <trkpt lat="47.86219" lon="6.91021">
        <ele>1073</ele>
        <time>2026-05-09T20:20:12.947Z</time>
      </trkpt>
      <trkpt lat="47.86218" lon="6.9102">
        <ele>1073</ele>
        <time>2026-05-09T20:20:13.946Z</time>
      </trkpt>
      <trkpt lat="47.86217" lon="6.91019">
        <ele>1073</ele>
        <time>2026-05-09T20:20:14.946Z</time>
      </trkpt>
      <trkpt lat="47.86216" lon="6.91018">
        <ele>1073</ele>
        <time>2026-05-09T20:20:15.947Z</time>
      </trkpt>
      <trkpt lat="47.86216" lon="6.91016">
        <ele>1073</ele>
        <time>2026-05-09T20:20:16.946Z</time>
      </trkpt>
      <trkpt lat="47.86215" lon="6.91015">
        <ele>1073</ele>
        <time>2026-05-09T20:20:17.946Z</time>
      </trkpt>
      <trkpt lat="47.86214" lon="6.91014">
        <ele>1073</ele>
        <time>2026-05-09T20:20:18.947Z</time>
      </trkpt>
      <trkpt lat="47.86213" lon="6.91013">
        <ele>1072</ele>
        <time>2026-05-09T20:20:19.946Z</time>
      </trkpt>
      <trkpt lat="47.86211" lon="6.91012">
        <ele>1072</ele>
        <time>2026-05-09T20:20:20.946Z</time>
      </trkpt>
      <trkpt lat="47.8621" lon="6.91011">
        <ele>1072</ele>
        <time>2026-05-09T20:20:21.947Z</time>
      </trkpt>
      <trkpt lat="47.86208" lon="6.91009">
        <ele>1071</ele>
        <time>2026-05-09T20:20:22.947Z</time>
      </trkpt>
      <trkpt lat="47.86206" lon="6.91008">
        <ele>1071</ele>
        <time>2026-05-09T20:20:23.947Z</time>
      </trkpt>
      <trkpt lat="47.86205" lon="6.91006">
        <ele>1071</ele>
        <time>2026-05-09T20:20:24.946Z</time>
      </trkpt>
      <trkpt lat="47.86203" lon="6.91006">
        <ele>1070</ele>
        <time>2026-05-09T20:20:25.947Z</time>
      </trkpt>
      <trkpt lat="47.86202" lon="6.91004">
        <ele>1070</ele>
        <time>2026-05-09T20:20:26.947Z</time>
      </trkpt>
      <trkpt lat="47.86202" lon="6.91002">
        <ele>1070</ele>
        <time>2026-05-09T20:20:27.947Z</time>
      </trkpt>
      <trkpt lat="47.862" lon="6.91001">
        <ele>1069</ele>
        <time>2026-05-09T20:20:28.947Z</time>
      </trkpt>
      <trkpt lat="47.862" lon="6.90999">
        <ele>1069</ele>
        <time>2026-05-09T20:20:29.947Z</time>
      </trkpt>
      <trkpt lat="47.86199" lon="6.90998">
        <ele>1068</ele>
        <time>2026-05-09T20:20:30.947Z</time>
      </trkpt>
      <trkpt lat="47.86198" lon="6.90997">
        <ele>1068</ele>
        <time>2026-05-09T20:20:31.947Z</time>
      </trkpt>
      <trkpt lat="47.86198" lon="6.90995">
        <ele>1067</ele>
        <time>2026-05-09T20:20:32.947Z</time>
      </trkpt>
      <trkpt lat="47.86197" lon="6.90993">
        <ele>1067</ele>
        <time>2026-05-09T20:20:33.947Z</time>
      </trkpt>
      <trkpt lat="47.86196" lon="6.90992">
        <ele>1067</ele>
        <time>2026-05-09T20:20:34.947Z</time>
      </trkpt>
      <trkpt lat="47.86195" lon="6.90991">
        <ele>1067</ele>
        <time>2026-05-09T20:20:35.947Z</time>
      </trkpt>
      <trkpt lat="47.86194" lon="6.90988">
        <ele>1067</ele>
        <time>2026-05-09T20:20:36.947Z</time>
      </trkpt>
      <trkpt lat="47.86193" lon="6.90986">
        <ele>1068</ele>
        <time>2026-05-09T20:20:37.947Z</time>
      </trkpt>
      <trkpt lat="47.86193" lon="6.90984">
        <ele>1068</ele>
        <time>2026-05-09T20:20:38.946Z</time>
      </trkpt>
      <trkpt lat="47.86192" lon="6.90982">
        <ele>1069</ele>
        <time>2026-05-09T20:20:39.947Z</time>
      </trkpt>
      <trkpt lat="47.86191" lon="6.90981">
        <ele>1069</ele>
        <time>2026-05-09T20:20:40.946Z</time>
      </trkpt>
      <trkpt lat="47.8619" lon="6.90981">
        <ele>1070</ele>
        <time>2026-05-09T20:20:41.947Z</time>
      </trkpt>
      <trkpt lat="47.86189" lon="6.9098">
        <ele>1070</ele>
        <time>2026-05-09T20:20:42.946Z</time>
      </trkpt>
      <trkpt lat="47.86187" lon="6.90978">
        <ele>1071</ele>
        <time>2026-05-09T20:20:43.946Z</time>
      </trkpt>
      <trkpt lat="47.86186" lon="6.90977">
        <ele>1071</ele>
        <time>2026-05-09T20:20:44.947Z</time>
      </trkpt>
      <trkpt lat="47.86185" lon="6.90977">
        <ele>1071</ele>
        <time>2026-05-09T20:20:45.947Z</time>
      </trkpt>
      <trkpt lat="47.86184" lon="6.90977">
        <ele>1071</ele>
        <time>2026-05-09T20:20:46.947Z</time>
      </trkpt>
      <trkpt lat="47.86183" lon="6.90977">
        <ele>1071</ele>
        <time>2026-05-09T20:20:47.947Z</time>
      </trkpt>
      <trkpt lat="47.86182" lon="6.90976">
        <ele>1071</ele>
        <time>2026-05-09T20:20:48.946Z</time>
      </trkpt>
      <trkpt lat="47.8618" lon="6.90976">
        <ele>1070</ele>
        <time>2026-05-09T20:20:49.947Z</time>
      </trkpt>
      <trkpt lat="47.86179" lon="6.90976">
        <ele>1069</ele>
        <time>2026-05-09T20:20:50.947Z</time>
      </trkpt>
      <trkpt lat="47.86178" lon="6.90975">
        <ele>1069</ele>
        <time>2026-05-09T20:20:51.947Z</time>
      </trkpt>
      <trkpt lat="47.86177" lon="6.90974">
        <ele>1068</ele>
        <time>2026-05-09T20:20:52.947Z</time>
      </trkpt>
      <trkpt lat="47.86176" lon="6.90973">
        <ele>1068</ele>
        <time>2026-05-09T20:20:53.947Z</time>
      </trkpt>
      <trkpt lat="47.86175" lon="6.90972">
        <ele>1068</ele>
        <time>2026-05-09T20:20:54.946Z</time>
      </trkpt>
      <trkpt lat="47.86175" lon="6.90972">
        <ele>1067</ele>
        <time>2026-05-09T20:20:55.946Z</time>
      </trkpt>
      <trkpt lat="47.86174" lon="6.90971">
        <ele>1068</ele>
        <time>2026-05-09T20:20:56.946Z</time>
      </trkpt>
      <trkpt lat="47.86173" lon="6.90971">
        <ele>1067</ele>
        <time>2026-05-09T20:20:57.946Z</time>
      </trkpt>
      <trkpt lat="47.86172" lon="6.9097">
        <ele>1067</ele>
        <time>2026-05-09T20:20:58.946Z</time>
      </trkpt>
      <trkpt lat="47.86171" lon="6.9097">
        <ele>1068</ele>
        <time>2026-05-09T20:20:59.946Z</time>
      </trkpt>
      <trkpt lat="47.8617" lon="6.90969">
        <ele>1068</ele>
        <time>2026-05-09T20:21:00.946Z</time>
      </trkpt>
      <trkpt lat="47.86169" lon="6.90968">
        <ele>1068</ele>
        <time>2026-05-09T20:21:01.947Z</time>
      </trkpt>
      <trkpt lat="47.86169" lon="6.90967">
        <ele>1068</ele>
        <time>2026-05-09T20:21:02.947Z</time>
      </trkpt>
      <trkpt lat="47.86168" lon="6.90965">
        <ele>1068</ele>
        <time>2026-05-09T20:21:03.946Z</time>
      </trkpt>
      <trkpt lat="47.86167" lon="6.90964">
        <ele>1068</ele>
        <time>2026-05-09T20:21:04.946Z</time>
      </trkpt>
      <trkpt lat="47.86166" lon="6.90963">
        <ele>1067</ele>
        <time>2026-05-09T20:21:05.946Z</time>
      </trkpt>
      <trkpt lat="47.86166" lon="6.90963">
        <ele>1067</ele>
        <time>2026-05-09T20:21:06.946Z</time>
      </trkpt>
      <trkpt lat="47.86165" lon="6.90962">
        <ele>1067</ele>
        <time>2026-05-09T20:21:07.946Z</time>
      </trkpt>
      <trkpt lat="47.86164" lon="6.90962">
        <ele>1066</ele>
        <time>2026-05-09T20:21:08.946Z</time>
      </trkpt>
      <trkpt lat="47.86163" lon="6.90962">
        <ele>1066</ele>
        <time>2026-05-09T20:21:09.947Z</time>
      </trkpt>
      <trkpt lat="47.86162" lon="6.90961">
        <ele>1065</ele>
        <time>2026-05-09T20:21:10.947Z</time>
      </trkpt>
      <trkpt lat="47.86161" lon="6.90961">
        <ele>1065</ele>
        <time>2026-05-09T20:21:11.947Z</time>
      </trkpt>
      <trkpt lat="47.8616" lon="6.9096">
        <ele>1065</ele>
        <time>2026-05-09T20:21:12.947Z</time>
      </trkpt>
      <trkpt lat="47.86159" lon="6.90959">
        <ele>1064</ele>
        <time>2026-05-09T20:21:13.947Z</time>
      </trkpt>
      <trkpt lat="47.86158" lon="6.90958">
        <ele>1064</ele>
        <time>2026-05-09T20:21:14.946Z</time>
      </trkpt>
      <trkpt lat="47.86157" lon="6.90957">
        <ele>1064</ele>
        <time>2026-05-09T20:21:15.946Z</time>
      </trkpt>
      <trkpt lat="47.86156" lon="6.90956">
        <ele>1064</ele>
        <time>2026-05-09T20:21:16.947Z</time>
      </trkpt>
      <trkpt lat="47.86155" lon="6.90955">
        <ele>1065</ele>
        <time>2026-05-09T20:21:17.946Z</time>
      </trkpt>
      <trkpt lat="47.86154" lon="6.90955">
        <ele>1065</ele>
        <time>2026-05-09T20:21:18.946Z</time>
      </trkpt>
      <trkpt lat="47.86153" lon="6.90955">
        <ele>1066</ele>
        <time>2026-05-09T20:21:19.947Z</time>
      </trkpt>
      <trkpt lat="47.86153" lon="6.90955">
        <ele>1066</ele>
        <time>2026-05-09T20:21:20.946Z</time>
      </trkpt>
      <trkpt lat="47.86152" lon="6.90954">
        <ele>1067</ele>
        <time>2026-05-09T20:21:21.946Z</time>
      </trkpt>
      <trkpt lat="47.8615" lon="6.90953">
        <ele>1067</ele>
        <time>2026-05-09T20:21:22.947Z</time>
      </trkpt>
      <trkpt lat="47.86149" lon="6.90952">
        <ele>1067</ele>
        <time>2026-05-09T20:21:23.946Z</time>
      </trkpt>
      <trkpt lat="47.86148" lon="6.90951">
        <ele>1068</ele>
        <time>2026-05-09T20:21:24.947Z</time>
      </trkpt>
      <trkpt lat="47.86148" lon="6.90949">
        <ele>1068</ele>
        <time>2026-05-09T20:21:25.946Z</time>
      </trkpt>
      <trkpt lat="47.86147" lon="6.90948">
        <ele>1069</ele>
        <time>2026-05-09T20:21:26.947Z</time>
      </trkpt>
      <trkpt lat="47.86146" lon="6.90947">
        <ele>1070</ele>
        <time>2026-05-09T20:21:27.946Z</time>
      </trkpt>
      <trkpt lat="47.86145" lon="6.90946">
        <ele>1070</ele>
        <time>2026-05-09T20:21:28.947Z</time>
      </trkpt>
      <trkpt lat="47.86143" lon="6.90945">
        <ele>1071</ele>
        <time>2026-05-09T20:21:29.947Z</time>
      </trkpt>
      <trkpt lat="47.86143" lon="6.90945">
        <ele>1071</ele>
        <time>2026-05-09T20:21:30.947Z</time>
      </trkpt>
      <trkpt lat="47.86141" lon="6.90944">
        <ele>1072</ele>
        <time>2026-05-09T20:21:31.947Z</time>
      </trkpt>
      <trkpt lat="47.8614" lon="6.90943">
        <ele>1072</ele>
        <time>2026-05-09T20:21:32.946Z</time>
      </trkpt>
      <trkpt lat="47.86139" lon="6.90942">
        <ele>1073</ele>
        <time>2026-05-09T20:21:33.947Z</time>
      </trkpt>
      <trkpt lat="47.86138" lon="6.9094">
        <ele>1073</ele>
        <time>2026-05-09T20:21:34.946Z</time>
      </trkpt>
      <trkpt lat="47.86137" lon="6.90939">
        <ele>1074</ele>
        <time>2026-05-09T20:21:35.947Z</time>
      </trkpt>
      <trkpt lat="47.86136" lon="6.90939">
        <ele>1075</ele>
        <time>2026-05-09T20:21:36.946Z</time>
      </trkpt>
      <trkpt lat="47.86134" lon="6.90938">
        <ele>1075</ele>
        <time>2026-05-09T20:21:37.947Z</time>
      </trkpt>
      <trkpt lat="47.86133" lon="6.90938">
        <ele>1076</ele>
        <time>2026-05-09T20:21:38.946Z</time>
      </trkpt>
      <trkpt lat="47.86132" lon="6.90937">
        <ele>1077</ele>
        <time>2026-05-09T20:21:39.947Z</time>
      </trkpt>
      <trkpt lat="47.86132" lon="6.90937">
        <ele>1077</ele>
        <time>2026-05-09T20:21:40.946Z</time>
      </trkpt>
      <trkpt lat="47.86132" lon="6.90937">
        <ele>1078</ele>
        <time>2026-05-09T20:21:41.947Z</time>
      </trkpt>
      <trkpt lat="47.86132" lon="6.90937">
        <ele>1078</ele>
        <time>2026-05-09T20:21:42.946Z</time>
      </trkpt>
      <trkpt lat="47.86132" lon="6.90935">
        <ele>1080</ele>
        <time>2026-05-09T20:21:55.280Z</time>
      </trkpt>
      <trkpt lat="47.86132" lon="6.90935">
        <ele>1079</ele>
        <time>2026-05-09T20:21:56.279Z</time>
      </trkpt>
      <trkpt lat="47.86132" lon="6.90935">
        <ele>1079</ele>
        <time>2026-05-09T20:21:57.279Z</time>
      </trkpt>
      <trkpt lat="47.86132" lon="6.90935">
        <ele>1079</ele>
        <time>2026-05-09T20:21:58.279Z</time>
      </trkpt>
      <trkpt lat="47.86132" lon="6.90935">
        <ele>1078</ele>
        <time>2026-05-09T20:21:59.280Z</time>
      </trkpt>
      <trkpt lat="47.86132" lon="6.90935">
        <ele>1078</ele>
        <time>2026-05-09T20:22:00.280Z</time>
      </trkpt>
      <trkpt lat="47.86132" lon="6.90935">
        <ele>1078</ele>
        <time>2026-05-09T20:22:01.280Z</time>
      </trkpt>
      <trkpt lat="47.86132" lon="6.90935">
        <ele>1079</ele>
        <time>2026-05-09T20:22:02.280Z</time>
      </trkpt>
      <trkpt lat="47.86131" lon="6.90935">
        <ele>1079</ele>
        <time>2026-05-09T20:22:03.279Z</time>
      </trkpt>
      <trkpt lat="47.8613" lon="6.90935">
        <ele>1078</ele>
        <time>2026-05-09T20:22:04.279Z</time>
      </trkpt>
      <trkpt lat="47.86128" lon="6.90934">
        <ele>1078</ele>
        <time>2026-05-09T20:22:05.279Z</time>
      </trkpt>
      <trkpt lat="47.86127" lon="6.90934">
        <ele>1078</ele>
        <time>2026-05-09T20:22:06.279Z</time>
      </trkpt>
      <trkpt lat="47.86127" lon="6.90934">
        <ele>1078</ele>
        <time>2026-05-09T20:22:07.279Z</time>
      </trkpt>
      <trkpt lat="47.86127" lon="6.90934">
        <ele>1078</ele>
        <time>2026-05-09T20:22:08.279Z</time>
      </trkpt>
      <trkpt lat="47.86126" lon="6.90934">
        <ele>1078</ele>
        <time>2026-05-09T20:22:09.279Z</time>
      </trkpt>
      <trkpt lat="47.86126" lon="6.90933">
        <ele>1078</ele>
        <time>2026-05-09T20:22:10.280Z</time>
      </trkpt>
      <trkpt lat="47.86125" lon="6.90933">
        <ele>1078</ele>
        <time>2026-05-09T20:22:11.280Z</time>
      </trkpt>
      <trkpt lat="47.86124" lon="6.90932">
        <ele>1078</ele>
        <time>2026-05-09T20:22:12.279Z</time>
      </trkpt>
      <trkpt lat="47.86123" lon="6.90933">
        <ele>1078</ele>
        <time>2026-05-09T20:22:13.280Z</time>
      </trkpt>
      <trkpt lat="47.86122" lon="6.90933">
        <ele>1078</ele>
        <time>2026-05-09T20:22:14.280Z</time>
      </trkpt>
      <trkpt lat="47.8612" lon="6.90933">
        <ele>1077</ele>
        <time>2026-05-09T20:22:15.280Z</time>
      </trkpt>
      <trkpt lat="47.86119" lon="6.90933">
        <ele>1077</ele>
        <time>2026-05-09T20:22:16.280Z</time>
      </trkpt>
      <trkpt lat="47.86117" lon="6.90932">
        <ele>1077</ele>
        <time>2026-05-09T20:22:17.280Z</time>
      </trkpt>
      <trkpt lat="47.86116" lon="6.90932">
        <ele>1077</ele>
        <time>2026-05-09T20:22:18.280Z</time>
      </trkpt>
      <trkpt lat="47.86114" lon="6.90932">
        <ele>1077</ele>
        <time>2026-05-09T20:22:19.280Z</time>
      </trkpt>
      <trkpt lat="47.86113" lon="6.90933">
        <ele>1077</ele>
        <time>2026-05-09T20:22:20.280Z</time>
      </trkpt>
      <trkpt lat="47.86111" lon="6.90933">
        <ele>1078</ele>
        <time>2026-05-09T20:22:21.280Z</time>
      </trkpt>
      <trkpt lat="47.86109" lon="6.90933">
        <ele>1078</ele>
        <time>2026-05-09T20:22:22.280Z</time>
      </trkpt>
      <trkpt lat="47.86108" lon="6.90933">
        <ele>1079</ele>
        <time>2026-05-09T20:22:23.280Z</time>
      </trkpt>
      <trkpt lat="47.86107" lon="6.90932">
        <ele>1079</ele>
        <time>2026-05-09T20:22:24.280Z</time>
      </trkpt>
      <trkpt lat="47.86105" lon="6.90932">
        <ele>1079</ele>
        <time>2026-05-09T20:22:25.279Z</time>
      </trkpt>
      <trkpt lat="47.86104" lon="6.90932">
        <ele>1079</ele>
        <time>2026-05-09T20:22:26.280Z</time>
      </trkpt>
      <trkpt lat="47.86103" lon="6.90932">
        <ele>1079</ele>
        <time>2026-05-09T20:22:27.279Z</time>
      </trkpt>
      <trkpt lat="47.86101" lon="6.90931">
        <ele>1079</ele>
        <time>2026-05-09T20:22:28.279Z</time>
      </trkpt>
      <trkpt lat="47.861" lon="6.90932">
        <ele>1079</ele>
        <time>2026-05-09T20:22:29.279Z</time>
      </trkpt>
      <trkpt lat="47.86099" lon="6.90932">
        <ele>1079</ele>
        <time>2026-05-09T20:22:30.279Z</time>
      </trkpt>
      <trkpt lat="47.86098" lon="6.90932">
        <ele>1079</ele>
        <time>2026-05-09T20:22:31.280Z</time>
      </trkpt>
      <trkpt lat="47.86098" lon="6.90932">
        <ele>1079</ele>
        <time>2026-05-09T20:22:32.280Z</time>
      </trkpt>
      <trkpt lat="47.86098" lon="6.90932">
        <ele>1079</ele>
        <time>2026-05-09T20:22:33.280Z</time>
      </trkpt>
      <trkpt lat="47.86097" lon="6.90933">
        <ele>1079</ele>
        <time>2026-05-09T20:22:34.280Z</time>
      </trkpt>
      <trkpt lat="47.86095" lon="6.90934">
        <ele>1079</ele>
        <time>2026-05-09T20:22:35.279Z</time>
      </trkpt>
      <trkpt lat="47.86094" lon="6.90934">
        <ele>1078</ele>
        <time>2026-05-09T20:22:36.280Z</time>
      </trkpt>
      <trkpt lat="47.86093" lon="6.90933">
        <ele>1078</ele>
        <time>2026-05-09T20:22:37.279Z</time>
      </trkpt>
      <trkpt lat="47.86093" lon="6.90932">
        <ele>1078</ele>
        <time>2026-05-09T20:22:38.279Z</time>
      </trkpt>
      <trkpt lat="47.86092" lon="6.90931">
        <ele>1078</ele>
        <time>2026-05-09T20:22:39.279Z</time>
      </trkpt>
      <trkpt lat="47.86091" lon="6.90931">
        <ele>1078</ele>
        <time>2026-05-09T20:22:40.279Z</time>
      </trkpt>
      <trkpt lat="47.86089" lon="6.9093">
        <ele>1078</ele>
        <time>2026-05-09T20:22:41.280Z</time>
      </trkpt>
      <trkpt lat="47.86087" lon="6.9093">
        <ele>1078</ele>
        <time>2026-05-09T20:22:42.280Z</time>
      </trkpt>
      <trkpt lat="47.86086" lon="6.90929">
        <ele>1079</ele>
        <time>2026-05-09T20:22:43.280Z</time>
      </trkpt>
      <trkpt lat="47.86084" lon="6.90929">
        <ele>1079</ele>
        <time>2026-05-09T20:22:44.279Z</time>
      </trkpt>
      <trkpt lat="47.86083" lon="6.90928">
        <ele>1079</ele>
        <time>2026-05-09T20:22:45.280Z</time>
      </trkpt>
      <trkpt lat="47.86082" lon="6.90928">
        <ele>1080</ele>
        <time>2026-05-09T20:22:46.279Z</time>
      </trkpt>
      <trkpt lat="47.86081" lon="6.90927">
        <ele>1080</ele>
        <time>2026-05-09T20:22:47.279Z</time>
      </trkpt>
      <trkpt lat="47.8608" lon="6.90927">
        <ele>1080</ele>
        <time>2026-05-09T20:22:48.279Z</time>
      </trkpt>
      <trkpt lat="47.86079" lon="6.90926">
        <ele>1081</ele>
        <time>2026-05-09T20:22:49.279Z</time>
      </trkpt>
      <trkpt lat="47.86077" lon="6.90926">
        <ele>1082</ele>
        <time>2026-05-09T20:22:50.280Z</time>
      </trkpt>
      <trkpt lat="47.86075" lon="6.90926">
        <ele>1083</ele>
        <time>2026-05-09T20:22:51.280Z</time>
      </trkpt>
      <trkpt lat="47.86073" lon="6.90925">
        <ele>1083</ele>
        <time>2026-05-09T20:22:52.280Z</time>
      </trkpt>
      <trkpt lat="47.86072" lon="6.90925">
        <ele>1084</ele>
        <time>2026-05-09T20:22:53.279Z</time>
      </trkpt>
      <trkpt lat="47.86069" lon="6.90926">
        <ele>1085</ele>
        <time>2026-05-09T20:22:54.279Z</time>
      </trkpt>
      <trkpt lat="47.86068" lon="6.90926">
        <ele>1085</ele>
        <time>2026-05-09T20:22:55.280Z</time>
      </trkpt>
      <trkpt lat="47.86066" lon="6.90926">
        <ele>1086</ele>
        <time>2026-05-09T20:22:56.280Z</time>
      </trkpt>
      <trkpt lat="47.86065" lon="6.90925">
        <ele>1087</ele>
        <time>2026-05-09T20:22:57.280Z</time>
      </trkpt>
      <trkpt lat="47.86063" lon="6.90925">
        <ele>1087</ele>
        <time>2026-05-09T20:22:58.280Z</time>
      </trkpt>
      <trkpt lat="47.86061" lon="6.90925">
        <ele>1088</ele>
        <time>2026-05-09T20:22:59.280Z</time>
      </trkpt>
      <trkpt lat="47.8606" lon="6.90924">
        <ele>1088</ele>
        <time>2026-05-09T20:23:00.280Z</time>
      </trkpt>
      <trkpt lat="47.86059" lon="6.90924">
        <ele>1088</ele>
        <time>2026-05-09T20:23:01.280Z</time>
      </trkpt>
      <trkpt lat="47.86058" lon="6.90923">
        <ele>1089</ele>
        <time>2026-05-09T20:23:02.279Z</time>
      </trkpt>
      <trkpt lat="47.86057" lon="6.90923">
        <ele>1089</ele>
        <time>2026-05-09T20:23:03.279Z</time>
      </trkpt>
      <trkpt lat="47.86055" lon="6.90923">
        <ele>1089</ele>
        <time>2026-05-09T20:23:04.280Z</time>
      </trkpt>
      <trkpt lat="47.86054" lon="6.90922">
        <ele>1089</ele>
        <time>2026-05-09T20:23:05.280Z</time>
      </trkpt>
      <trkpt lat="47.86053" lon="6.90921">
        <ele>1089</ele>
        <time>2026-05-09T20:23:06.279Z</time>
      </trkpt>
      <trkpt lat="47.8605" lon="6.90921">
        <ele>1089</ele>
        <time>2026-05-09T20:23:07.280Z</time>
      </trkpt>
      <trkpt lat="47.86049" lon="6.90921">
        <ele>1089</ele>
        <time>2026-05-09T20:23:08.279Z</time>
      </trkpt>
      <trkpt lat="47.86047" lon="6.90921">
        <ele>1088</ele>
        <time>2026-05-09T20:23:09.279Z</time>
      </trkpt>
      <trkpt lat="47.86045" lon="6.90921">
        <ele>1088</ele>
        <time>2026-05-09T20:23:10.280Z</time>
      </trkpt>
      <trkpt lat="47.86044" lon="6.9092">
        <ele>1087</ele>
        <time>2026-05-09T20:23:11.279Z</time>
      </trkpt>
      <trkpt lat="47.86043" lon="6.90919">
        <ele>1087</ele>
        <time>2026-05-09T20:23:12.279Z</time>
      </trkpt>
      <trkpt lat="47.86041" lon="6.90918">
        <ele>1086</ele>
        <time>2026-05-09T20:23:13.279Z</time>
      </trkpt>
      <trkpt lat="47.8604" lon="6.90916">
        <ele>1086</ele>
        <time>2026-05-09T20:23:14.279Z</time>
      </trkpt>
      <trkpt lat="47.8604" lon="6.90915">
        <ele>1086</ele>
        <time>2026-05-09T20:23:15.280Z</time>
      </trkpt>
      <trkpt lat="47.86039" lon="6.90913">
        <ele>1086</ele>
        <time>2026-05-09T20:23:16.280Z</time>
      </trkpt>
      <trkpt lat="47.86038" lon="6.90912">
        <ele>1085</ele>
        <time>2026-05-09T20:23:17.279Z</time>
      </trkpt>
      <trkpt lat="47.86037" lon="6.90911">
        <ele>1085</ele>
        <time>2026-05-09T20:23:18.279Z</time>
      </trkpt>
      <trkpt lat="47.86035" lon="6.9091">
        <ele>1085</ele>
        <time>2026-05-09T20:23:19.279Z</time>
      </trkpt>
      <trkpt lat="47.86035" lon="6.90909">
        <ele>1085</ele>
        <time>2026-05-09T20:23:20.280Z</time>
      </trkpt>
      <trkpt lat="47.86035" lon="6.90908">
        <ele>1085</ele>
        <time>2026-05-09T20:23:21.280Z</time>
      </trkpt>
      <trkpt lat="47.86035" lon="6.90905">
        <ele>1085</ele>
        <time>2026-05-09T20:23:22.280Z</time>
      </trkpt>
      <trkpt lat="47.86034" lon="6.90904">
        <ele>1084</ele>
        <time>2026-05-09T20:23:23.279Z</time>
      </trkpt>
      <trkpt lat="47.86034" lon="6.90902">
        <ele>1084</ele>
        <time>2026-05-09T20:23:24.279Z</time>
      </trkpt>
      <trkpt lat="47.86033" lon="6.909">
        <ele>1084</ele>
        <time>2026-05-09T20:23:25.279Z</time>
      </trkpt>
      <trkpt lat="47.86032" lon="6.90898">
        <ele>1085</ele>
        <time>2026-05-09T20:23:26.279Z</time>
      </trkpt>
      <trkpt lat="47.86032" lon="6.90895">
        <ele>1085</ele>
        <time>2026-05-09T20:23:27.280Z</time>
      </trkpt>
      <trkpt lat="47.86032" lon="6.90894">
        <ele>1086</ele>
        <time>2026-05-09T20:23:28.280Z</time>
      </trkpt>
      <trkpt lat="47.86031" lon="6.90893">
        <ele>1086</ele>
        <time>2026-05-09T20:23:29.280Z</time>
      </trkpt>
      <trkpt lat="47.86031" lon="6.90892">
        <ele>1086</ele>
        <time>2026-05-09T20:23:30.280Z</time>
      </trkpt>
      <trkpt lat="47.8603" lon="6.90891">
        <ele>1085</ele>
        <time>2026-05-09T20:23:31.279Z</time>
      </trkpt>
      <trkpt lat="47.86029" lon="6.9089">
        <ele>1085</ele>
        <time>2026-05-09T20:23:32.280Z</time>
      </trkpt>
      <trkpt lat="47.86028" lon="6.90889">
        <ele>1085</ele>
        <time>2026-05-09T20:23:33.280Z</time>
      </trkpt>
      <trkpt lat="47.86028" lon="6.90888">
        <ele>1085</ele>
        <time>2026-05-09T20:23:34.280Z</time>
      </trkpt>
      <trkpt lat="47.86027" lon="6.90886">
        <ele>1085</ele>
        <time>2026-05-09T20:23:35.279Z</time>
      </trkpt>
      <trkpt lat="47.86027" lon="6.90884">
        <ele>1084</ele>
        <time>2026-05-09T20:23:36.280Z</time>
      </trkpt>
      <trkpt lat="47.86026" lon="6.90883">
        <ele>1084</ele>
        <time>2026-05-09T20:23:37.280Z</time>
      </trkpt>
      <trkpt lat="47.86026" lon="6.90881">
        <ele>1084</ele>
        <time>2026-05-09T20:23:38.280Z</time>
      </trkpt>
      <trkpt lat="47.86026" lon="6.90879">
        <ele>1084</ele>
        <time>2026-05-09T20:23:39.280Z</time>
      </trkpt>
      <trkpt lat="47.86026" lon="6.90877">
        <ele>1084</ele>
        <time>2026-05-09T20:23:40.279Z</time>
      </trkpt>
      <trkpt lat="47.86025" lon="6.90876">
        <ele>1083</ele>
        <time>2026-05-09T20:23:41.280Z</time>
      </trkpt>
      <trkpt lat="47.86024" lon="6.90874">
        <ele>1083</ele>
        <time>2026-05-09T20:23:42.280Z</time>
      </trkpt>
      <trkpt lat="47.86024" lon="6.90873">
        <ele>1083</ele>
        <time>2026-05-09T20:23:43.280Z</time>
      </trkpt>
      <trkpt lat="47.86023" lon="6.90872">
        <ele>1083</ele>
        <time>2026-05-09T20:23:44.279Z</time>
      </trkpt>
      <trkpt lat="47.86022" lon="6.90871">
        <ele>1083</ele>
        <time>2026-05-09T20:23:45.280Z</time>
      </trkpt>
      <trkpt lat="47.86022" lon="6.9087">
        <ele>1084</ele>
        <time>2026-05-09T20:23:46.279Z</time>
      </trkpt>
      <trkpt lat="47.86021" lon="6.90869">
        <ele>1084</ele>
        <time>2026-05-09T20:23:47.279Z</time>
      </trkpt>
      <trkpt lat="47.8602" lon="6.90869">
        <ele>1084</ele>
        <time>2026-05-09T20:23:48.280Z</time>
      </trkpt>
      <trkpt lat="47.8602" lon="6.90867">
        <ele>1084</ele>
        <time>2026-05-09T20:23:49.280Z</time>
      </trkpt>
      <trkpt lat="47.8602" lon="6.90867">
        <ele>1084</ele>
        <time>2026-05-09T20:23:50.279Z</time>
      </trkpt>
      <trkpt lat="47.86019" lon="6.90866">
        <ele>1084</ele>
        <time>2026-05-09T20:23:51.280Z</time>
      </trkpt>
      <trkpt lat="47.86018" lon="6.90865">
        <ele>1084</ele>
        <time>2026-05-09T20:23:52.280Z</time>
      </trkpt>
      <trkpt lat="47.86017" lon="6.90864">
        <ele>1084</ele>
        <time>2026-05-09T20:23:53.279Z</time>
      </trkpt>
      <trkpt lat="47.86016" lon="6.90862">
        <ele>1085</ele>
        <time>2026-05-09T20:23:54.279Z</time>
      </trkpt>
      <trkpt lat="47.86016" lon="6.90861">
        <ele>1085</ele>
        <time>2026-05-09T20:23:55.279Z</time>
      </trkpt>
      <trkpt lat="47.86015" lon="6.9086">
        <ele>1085</ele>
        <time>2026-05-09T20:23:56.280Z</time>
      </trkpt>
      <trkpt lat="47.86014" lon="6.90858">
        <ele>1086</ele>
        <time>2026-05-09T20:23:57.280Z</time>
      </trkpt>
      <trkpt lat="47.86014" lon="6.90856">
        <ele>1086</ele>
        <time>2026-05-09T20:23:58.280Z</time>
      </trkpt>
      <trkpt lat="47.86013" lon="6.90854">
        <ele>1086</ele>
        <time>2026-05-09T20:23:59.280Z</time>
      </trkpt>
      <trkpt lat="47.86012" lon="6.90852">
        <ele>1087</ele>
        <time>2026-05-09T20:24:00.280Z</time>
      </trkpt>
      <trkpt lat="47.86012" lon="6.90849">
        <ele>1087</ele>
        <time>2026-05-09T20:24:01.279Z</time>
      </trkpt>
      <trkpt lat="47.86011" lon="6.90848">
        <ele>1088</ele>
        <time>2026-05-09T20:24:02.280Z</time>
      </trkpt>
      <trkpt lat="47.8601" lon="6.90847">
        <ele>1088</ele>
        <time>2026-05-09T20:24:03.279Z</time>
      </trkpt>
      <trkpt lat="47.86009" lon="6.90845">
        <ele>1088</ele>
        <time>2026-05-09T20:24:04.280Z</time>
      </trkpt>
      <trkpt lat="47.86008" lon="6.90845">
        <ele>1089</ele>
        <time>2026-05-09T20:24:05.279Z</time>
      </trkpt>
      <trkpt lat="47.86007" lon="6.90843">
        <ele>1089</ele>
        <time>2026-05-09T20:24:06.279Z</time>
      </trkpt>
      <trkpt lat="47.86007" lon="6.90842">
        <ele>1089</ele>
        <time>2026-05-09T20:24:07.280Z</time>
      </trkpt>
      <trkpt lat="47.86006" lon="6.90841">
        <ele>1089</ele>
        <time>2026-05-09T20:24:08.280Z</time>
      </trkpt>
      <trkpt lat="47.86006" lon="6.9084">
        <ele>1089</ele>
        <time>2026-05-09T20:24:09.280Z</time>
      </trkpt>
      <trkpt lat="47.86005" lon="6.90839">
        <ele>1089</ele>
        <time>2026-05-09T20:24:10.279Z</time>
      </trkpt>
      <trkpt lat="47.86004" lon="6.90838">
        <ele>1089</ele>
        <time>2026-05-09T20:24:11.280Z</time>
      </trkpt>
      <trkpt lat="47.86003" lon="6.90836">
        <ele>1089</ele>
        <time>2026-05-09T20:24:12.280Z</time>
      </trkpt>
      <trkpt lat="47.86002" lon="6.90834">
        <ele>1089</ele>
        <time>2026-05-09T20:24:13.280Z</time>
      </trkpt>
      <trkpt lat="47.86001" lon="6.90833">
        <ele>1089</ele>
        <time>2026-05-09T20:24:14.280Z</time>
      </trkpt>
      <trkpt lat="47.86001" lon="6.90831">
        <ele>1089</ele>
        <time>2026-05-09T20:24:15.280Z</time>
      </trkpt>
      <trkpt lat="47.86" lon="6.90829">
        <ele>1089</ele>
        <time>2026-05-09T20:24:16.280Z</time>
      </trkpt>
      <trkpt lat="47.85999" lon="6.90828">
        <ele>1089</ele>
        <time>2026-05-09T20:24:17.280Z</time>
      </trkpt>
      <trkpt lat="47.85998" lon="6.90827">
        <ele>1090</ele>
        <time>2026-05-09T20:24:18.280Z</time>
      </trkpt>
      <trkpt lat="47.85997" lon="6.90827">
        <ele>1090</ele>
        <time>2026-05-09T20:24:19.280Z</time>
      </trkpt>
      <trkpt lat="47.85996" lon="6.90826">
        <ele>1090</ele>
        <time>2026-05-09T20:24:20.279Z</time>
      </trkpt>
      <trkpt lat="47.85995" lon="6.90825">
        <ele>1090</ele>
        <time>2026-05-09T20:24:21.280Z</time>
      </trkpt>
      <trkpt lat="47.85995" lon="6.90824">
        <ele>1090</ele>
        <time>2026-05-09T20:24:22.280Z</time>
      </trkpt>
      <trkpt lat="47.85994" lon="6.90823">
        <ele>1090</ele>
        <time>2026-05-09T20:24:23.280Z</time>
      </trkpt>
      <trkpt lat="47.85994" lon="6.90821">
        <ele>1090</ele>
        <time>2026-05-09T20:24:24.279Z</time>
      </trkpt>
      <trkpt lat="47.85994" lon="6.90819">
        <ele>1090</ele>
        <time>2026-05-09T20:24:25.280Z</time>
      </trkpt>
      <trkpt lat="47.85993" lon="6.90817">
        <ele>1090</ele>
        <time>2026-05-09T20:24:26.280Z</time>
      </trkpt>
      <trkpt lat="47.85992" lon="6.90814">
        <ele>1090</ele>
        <time>2026-05-09T20:24:27.279Z</time>
      </trkpt>
      <trkpt lat="47.85991" lon="6.90812">
        <ele>1091</ele>
        <time>2026-05-09T20:24:28.280Z</time>
      </trkpt>
      <trkpt lat="47.8599" lon="6.9081">
        <ele>1091</ele>
        <time>2026-05-09T20:24:29.280Z</time>
      </trkpt>
      <trkpt lat="47.85988" lon="6.90809">
        <ele>1092</ele>
        <time>2026-05-09T20:24:30.280Z</time>
      </trkpt>
      <trkpt lat="47.85988" lon="6.90808">
        <ele>1091</ele>
        <time>2026-05-09T20:24:31.279Z</time>
      </trkpt>
      <trkpt lat="47.85987" lon="6.90808">
        <ele>1091</ele>
        <time>2026-05-09T20:24:32.279Z</time>
      </trkpt>
      <trkpt lat="47.85986" lon="6.90808">
        <ele>1091</ele>
        <time>2026-05-09T20:24:33.279Z</time>
      </trkpt>
      <trkpt lat="47.85984" lon="6.90808">
        <ele>1091</ele>
        <time>2026-05-09T20:24:34.279Z</time>
      </trkpt>
      <trkpt lat="47.85984" lon="6.90806">
        <ele>1091</ele>
        <time>2026-05-09T20:24:35.280Z</time>
      </trkpt>
      <trkpt lat="47.85983" lon="6.90805">
        <ele>1091</ele>
        <time>2026-05-09T20:24:36.280Z</time>
      </trkpt>
      <trkpt lat="47.85982" lon="6.90804">
        <ele>1091</ele>
        <time>2026-05-09T20:24:37.280Z</time>
      </trkpt>
      <trkpt lat="47.85981" lon="6.90803">
        <ele>1092</ele>
        <time>2026-05-09T20:24:38.279Z</time>
      </trkpt>
      <trkpt lat="47.8598" lon="6.90802">
        <ele>1092</ele>
        <time>2026-05-09T20:24:39.280Z</time>
      </trkpt>
      <trkpt lat="47.85979" lon="6.90801">
        <ele>1092</ele>
        <time>2026-05-09T20:24:40.279Z</time>
      </trkpt>
      <trkpt lat="47.85979" lon="6.90799">
        <ele>1092</ele>
        <time>2026-05-09T20:24:41.280Z</time>
      </trkpt>
      <trkpt lat="47.85978" lon="6.90797">
        <ele>1092</ele>
        <time>2026-05-09T20:24:42.280Z</time>
      </trkpt>
      <trkpt lat="47.85978" lon="6.90796">
        <ele>1092</ele>
        <time>2026-05-09T20:24:43.280Z</time>
      </trkpt>
      <trkpt lat="47.85977" lon="6.90794">
        <ele>1092</ele>
        <time>2026-05-09T20:24:44.279Z</time>
      </trkpt>
      <trkpt lat="47.85977" lon="6.90793">
        <ele>1092</ele>
        <time>2026-05-09T20:24:45.279Z</time>
      </trkpt>
      <trkpt lat="47.85976" lon="6.90791">
        <ele>1092</ele>
        <time>2026-05-09T20:24:46.280Z</time>
      </trkpt>
      <trkpt lat="47.85975" lon="6.9079">
        <ele>1092</ele>
        <time>2026-05-09T20:24:47.280Z</time>
      </trkpt>
      <trkpt lat="47.85974" lon="6.90789">
        <ele>1092</ele>
        <time>2026-05-09T20:24:48.280Z</time>
      </trkpt>
      <trkpt lat="47.85973" lon="6.90788">
        <ele>1093</ele>
        <time>2026-05-09T20:24:49.279Z</time>
      </trkpt>
      <trkpt lat="47.85972" lon="6.90787">
        <ele>1093</ele>
        <time>2026-05-09T20:24:50.280Z</time>
      </trkpt>
      <trkpt lat="47.85971" lon="6.90785">
        <ele>1094</ele>
        <time>2026-05-09T20:24:51.279Z</time>
      </trkpt>
      <trkpt lat="47.8597" lon="6.90783">
        <ele>1093</ele>
        <time>2026-05-09T20:24:52.280Z</time>
      </trkpt>
      <trkpt lat="47.85969" lon="6.90782">
        <ele>1094</ele>
        <time>2026-05-09T20:24:53.280Z</time>
      </trkpt>
      <trkpt lat="47.85969" lon="6.9078">
        <ele>1094</ele>
        <time>2026-05-09T20:24:54.280Z</time>
      </trkpt>
      <trkpt lat="47.85968" lon="6.90779">
        <ele>1094</ele>
        <time>2026-05-09T20:24:55.279Z</time>
      </trkpt>
      <trkpt lat="47.85967" lon="6.90779">
        <ele>1094</ele>
        <time>2026-05-09T20:24:56.280Z</time>
      </trkpt>
      <trkpt lat="47.85967" lon="6.90778">
        <ele>1094</ele>
        <time>2026-05-09T20:24:57.280Z</time>
      </trkpt>
      <trkpt lat="47.85966" lon="6.90776">
        <ele>1094</ele>
        <time>2026-05-09T20:24:58.280Z</time>
      </trkpt>
      <trkpt lat="47.85966" lon="6.90775">
        <ele>1094</ele>
        <time>2026-05-09T20:24:59.279Z</time>
      </trkpt>
      <trkpt lat="47.85966" lon="6.90773">
        <ele>1094</ele>
        <time>2026-05-09T20:25:00.280Z</time>
      </trkpt>
      <trkpt lat="47.85965" lon="6.90771">
        <ele>1094</ele>
        <time>2026-05-09T20:25:01.280Z</time>
      </trkpt>
      <trkpt lat="47.85965" lon="6.90769">
        <ele>1095</ele>
        <time>2026-05-09T20:25:02.280Z</time>
      </trkpt>
      <trkpt lat="47.85964" lon="6.90769">
        <ele>1095</ele>
        <time>2026-05-09T20:25:03.280Z</time>
      </trkpt>
      <trkpt lat="47.85964" lon="6.90768">
        <ele>1096</ele>
        <time>2026-05-09T20:25:04.280Z</time>
      </trkpt>
      <trkpt lat="47.85963" lon="6.90767">
        <ele>1096</ele>
        <time>2026-05-09T20:25:05.279Z</time>
      </trkpt>
      <trkpt lat="47.85962" lon="6.90765">
        <ele>1097</ele>
        <time>2026-05-09T20:25:06.279Z</time>
      </trkpt>
      <trkpt lat="47.85962" lon="6.90764">
        <ele>1098</ele>
        <time>2026-05-09T20:25:07.279Z</time>
      </trkpt>
      <trkpt lat="47.85961" lon="6.90762">
        <ele>1098</ele>
        <time>2026-05-09T20:25:08.279Z</time>
      </trkpt>
      <trkpt lat="47.8596" lon="6.90761">
        <ele>1099</ele>
        <time>2026-05-09T20:25:09.280Z</time>
      </trkpt>
      <trkpt lat="47.8596" lon="6.9076">
        <ele>1099</ele>
        <time>2026-05-09T20:25:10.279Z</time>
      </trkpt>
      <trkpt lat="47.8596" lon="6.90759">
        <ele>1100</ele>
        <time>2026-05-09T20:25:11.280Z</time>
      </trkpt>
      <trkpt lat="47.85959" lon="6.90758">
        <ele>1100</ele>
        <time>2026-05-09T20:25:12.280Z</time>
      </trkpt>
      <trkpt lat="47.8596" lon="6.90757">
        <ele>1100</ele>
        <time>2026-05-09T20:25:13.280Z</time>
      </trkpt>
      <trkpt lat="47.8596" lon="6.90755">
        <ele>1101</ele>
        <time>2026-05-09T20:25:14.280Z</time>
      </trkpt>
      <trkpt lat="47.85959" lon="6.90754">
        <ele>1101</ele>
        <time>2026-05-09T20:25:15.279Z</time>
      </trkpt>
      <trkpt lat="47.85959" lon="6.90752">
        <ele>1102</ele>
        <time>2026-05-09T20:25:16.280Z</time>
      </trkpt>
      <trkpt lat="47.85958" lon="6.9075">
        <ele>1102</ele>
        <time>2026-05-09T20:25:17.279Z</time>
      </trkpt>
      <trkpt lat="47.85958" lon="6.90747">
        <ele>1102</ele>
        <time>2026-05-09T20:25:18.280Z</time>
      </trkpt>
      <trkpt lat="47.85957" lon="6.90746">
        <ele>1102</ele>
        <time>2026-05-09T20:25:19.279Z</time>
      </trkpt>
      <trkpt lat="47.85956" lon="6.90744">
        <ele>1103</ele>
        <time>2026-05-09T20:25:20.280Z</time>
      </trkpt>
      <trkpt lat="47.85955" lon="6.90743">
        <ele>1103</ele>
        <time>2026-05-09T20:25:21.279Z</time>
      </trkpt>
      <trkpt lat="47.85954" lon="6.90742">
        <ele>1103</ele>
        <time>2026-05-09T20:25:22.279Z</time>
      </trkpt>
      <trkpt lat="47.85953" lon="6.90741">
        <ele>1103</ele>
        <time>2026-05-09T20:25:23.279Z</time>
      </trkpt>
      <trkpt lat="47.85953" lon="6.90739">
        <ele>1102</ele>
        <time>2026-05-09T20:25:24.279Z</time>
      </trkpt>
      <trkpt lat="47.85952" lon="6.90738">
        <ele>1102</ele>
        <time>2026-05-09T20:25:25.280Z</time>
      </trkpt>
      <trkpt lat="47.85951" lon="6.90736">
        <ele>1102</ele>
        <time>2026-05-09T20:25:26.279Z</time>
      </trkpt>
      <trkpt lat="47.8595" lon="6.90735">
        <ele>1102</ele>
        <time>2026-05-09T20:25:27.280Z</time>
      </trkpt>
      <trkpt lat="47.85949" lon="6.90734">
        <ele>1102</ele>
        <time>2026-05-09T20:25:28.280Z</time>
      </trkpt>
      <trkpt lat="47.85948" lon="6.90733">
        <ele>1101</ele>
        <time>2026-05-09T20:25:29.279Z</time>
      </trkpt>
      <trkpt lat="47.85947" lon="6.90731">
        <ele>1101</ele>
        <time>2026-05-09T20:25:30.279Z</time>
      </trkpt>
      <trkpt lat="47.85946" lon="6.90731">
        <ele>1102</ele>
        <time>2026-05-09T20:25:31.279Z</time>
      </trkpt>
      <trkpt lat="47.85945" lon="6.90731">
        <ele>1102</ele>
        <time>2026-05-09T20:25:32.280Z</time>
      </trkpt>
      <trkpt lat="47.85945" lon="6.9073">
        <ele>1102</ele>
        <time>2026-05-09T20:25:33.280Z</time>
      </trkpt>
      <trkpt lat="47.85945" lon="6.9073">
        <ele>1102</ele>
        <time>2026-05-09T20:25:34.279Z</time>
      </trkpt>
      <trkpt lat="47.85944" lon="6.90729">
        <ele>1102</ele>
        <time>2026-05-09T20:25:35.279Z</time>
      </trkpt>
      <trkpt lat="47.85943" lon="6.90728">
        <ele>1103</ele>
        <time>2026-05-09T20:25:36.280Z</time>
      </trkpt>
      <trkpt lat="47.85942" lon="6.90727">
        <ele>1103</ele>
        <time>2026-05-09T20:25:37.279Z</time>
      </trkpt>
      <trkpt lat="47.85941" lon="6.90727">
        <ele>1103</ele>
        <time>2026-05-09T20:25:38.279Z</time>
      </trkpt>
      <trkpt lat="47.85941" lon="6.90726">
        <ele>1103</ele>
        <time>2026-05-09T20:25:39.279Z</time>
      </trkpt>
      <trkpt lat="47.85941" lon="6.90726">
        <ele>1103</ele>
        <time>2026-05-09T20:25:40.280Z</time>
      </trkpt>
      <trkpt lat="47.8594" lon="6.90725">
        <ele>1103</ele>
        <time>2026-05-09T20:25:41.279Z</time>
      </trkpt>
      <trkpt lat="47.8594" lon="6.90725">
        <ele>1103</ele>
        <time>2026-05-09T20:25:42.279Z</time>
      </trkpt>
      <trkpt lat="47.85939" lon="6.90724">
        <ele>1103</ele>
        <time>2026-05-09T20:25:43.279Z</time>
      </trkpt>
      <trkpt lat="47.85937" lon="6.90723">
        <ele>1103</ele>
        <time>2026-05-09T20:25:44.279Z</time>
      </trkpt>
      <trkpt lat="47.85937" lon="6.90722">
        <ele>1103</ele>
        <time>2026-05-09T20:25:45.280Z</time>
      </trkpt>
      <trkpt lat="47.85935" lon="6.90722">
        <ele>1103</ele>
        <time>2026-05-09T20:25:46.280Z</time>
      </trkpt>
      <trkpt lat="47.85934" lon="6.90721">
        <ele>1103</ele>
        <time>2026-05-09T20:25:47.279Z</time>
      </trkpt>
      <trkpt lat="47.85932" lon="6.9072">
        <ele>1103</ele>
        <time>2026-05-09T20:25:48.280Z</time>
      </trkpt>
      <trkpt lat="47.85931" lon="6.9072">
        <ele>1103</ele>
        <time>2026-05-09T20:25:49.280Z</time>
      </trkpt>
      <trkpt lat="47.8593" lon="6.90719">
        <ele>1103</ele>
        <time>2026-05-09T20:25:50.279Z</time>
      </trkpt>
      <trkpt lat="47.85929" lon="6.90718">
        <ele>1103</ele>
        <time>2026-05-09T20:25:51.279Z</time>
      </trkpt>
      <trkpt lat="47.85927" lon="6.90718">
        <ele>1103</ele>
        <time>2026-05-09T20:25:52.279Z</time>
      </trkpt>
      <trkpt lat="47.85925" lon="6.90717">
        <ele>1103</ele>
        <time>2026-05-09T20:25:53.279Z</time>
      </trkpt>
      <trkpt lat="47.85924" lon="6.90717">
        <ele>1103</ele>
        <time>2026-05-09T20:25:54.280Z</time>
      </trkpt>
      <trkpt lat="47.85924" lon="6.90717">
        <ele>1103</ele>
        <time>2026-05-09T20:25:55.280Z</time>
      </trkpt>
      <trkpt lat="47.85923" lon="6.90718">
        <ele>1103</ele>
        <time>2026-05-09T20:25:56.280Z</time>
      </trkpt>
      <trkpt lat="47.85923" lon="6.90717">
        <ele>1103</ele>
        <time>2026-05-09T20:25:57.279Z</time>
      </trkpt>
      <trkpt lat="47.85922" lon="6.90718">
        <ele>1103</ele>
        <time>2026-05-09T20:25:58.280Z</time>
      </trkpt>
      <trkpt lat="47.8592" lon="6.90717">
        <ele>1103</ele>
        <time>2026-05-09T20:25:59.280Z</time>
      </trkpt>
      <trkpt lat="47.85918" lon="6.90716">
        <ele>1103</ele>
        <time>2026-05-09T20:26:00.280Z</time>
      </trkpt>
      <trkpt lat="47.85917" lon="6.90715">
        <ele>1103</ele>
        <time>2026-05-09T20:26:01.279Z</time>
      </trkpt>
      <trkpt lat="47.85916" lon="6.90715">
        <ele>1103</ele>
        <time>2026-05-09T20:26:02.279Z</time>
      </trkpt>
      <trkpt lat="47.85915" lon="6.90714">
        <ele>1103</ele>
        <time>2026-05-09T20:26:03.279Z</time>
      </trkpt>
      <trkpt lat="47.85914" lon="6.90714">
        <ele>1102</ele>
        <time>2026-05-09T20:26:04.280Z</time>
      </trkpt>
      <trkpt lat="47.85913" lon="6.90713">
        <ele>1102</ele>
        <time>2026-05-09T20:26:05.280Z</time>
      </trkpt>
      <trkpt lat="47.85912" lon="6.90712">
        <ele>1102</ele>
        <time>2026-05-09T20:26:06.279Z</time>
      </trkpt>
      <trkpt lat="47.85911" lon="6.90712">
        <ele>1101</ele>
        <time>2026-05-09T20:26:07.279Z</time>
      </trkpt>
      <trkpt lat="47.8591" lon="6.90712">
        <ele>1101</ele>
        <time>2026-05-09T20:26:08.280Z</time>
      </trkpt>
      <trkpt lat="47.85908" lon="6.90711">
        <ele>1101</ele>
        <time>2026-05-09T20:26:09.279Z</time>
      </trkpt>
      <trkpt lat="47.85906" lon="6.9071">
        <ele>1101</ele>
        <time>2026-05-09T20:26:10.279Z</time>
      </trkpt>
      <trkpt lat="47.85905" lon="6.9071">
        <ele>1101</ele>
        <time>2026-05-09T20:26:11.280Z</time>
      </trkpt>
      <trkpt lat="47.85904" lon="6.90709">
        <ele>1101</ele>
        <time>2026-05-09T20:26:12.280Z</time>
      </trkpt>
      <trkpt lat="47.85903" lon="6.90708">
        <ele>1101</ele>
        <time>2026-05-09T20:26:13.280Z</time>
      </trkpt>
      <trkpt lat="47.85902" lon="6.90707">
        <ele>1101</ele>
        <time>2026-05-09T20:26:14.280Z</time>
      </trkpt>
      <trkpt lat="47.85901" lon="6.90706">
        <ele>1101</ele>
        <time>2026-05-09T20:26:15.280Z</time>
      </trkpt>
      <trkpt lat="47.859" lon="6.90704">
        <ele>1101</ele>
        <time>2026-05-09T20:26:16.280Z</time>
      </trkpt>
      <trkpt lat="47.85899" lon="6.90703">
        <ele>1101</ele>
        <time>2026-05-09T20:26:17.280Z</time>
      </trkpt>
      <trkpt lat="47.85898" lon="6.90703">
        <ele>1101</ele>
        <time>2026-05-09T20:26:18.280Z</time>
      </trkpt>
      <trkpt lat="47.85897" lon="6.90702">
        <ele>1101</ele>
        <time>2026-05-09T20:26:19.280Z</time>
      </trkpt>
      <trkpt lat="47.85896" lon="6.90701">
        <ele>1102</ele>
        <time>2026-05-09T20:26:20.280Z</time>
      </trkpt>
      <trkpt lat="47.85895" lon="6.90701">
        <ele>1102</ele>
        <time>2026-05-09T20:26:21.280Z</time>
      </trkpt>
      <trkpt lat="47.85894" lon="6.907">
        <ele>1102</ele>
        <time>2026-05-09T20:26:22.280Z</time>
      </trkpt>
      <trkpt lat="47.85893" lon="6.90699">
        <ele>1102</ele>
        <time>2026-05-09T20:26:23.280Z</time>
      </trkpt>
      <trkpt lat="47.85892" lon="6.90698">
        <ele>1103</ele>
        <time>2026-05-09T20:26:24.280Z</time>
      </trkpt>
      <trkpt lat="47.85891" lon="6.90697">
        <ele>1104</ele>
        <time>2026-05-09T20:26:25.279Z</time>
      </trkpt>
      <trkpt lat="47.8589" lon="6.90696">
        <ele>1104</ele>
        <time>2026-05-09T20:26:26.280Z</time>
      </trkpt>
      <trkpt lat="47.85888" lon="6.90695">
        <ele>1104</ele>
        <time>2026-05-09T20:26:27.279Z</time>
      </trkpt>
      <trkpt lat="47.85887" lon="6.90694">
        <ele>1104</ele>
        <time>2026-05-09T20:26:28.280Z</time>
      </trkpt>
      <trkpt lat="47.85886" lon="6.90693">
        <ele>1104</ele>
        <time>2026-05-09T20:26:29.279Z</time>
      </trkpt>
      <trkpt lat="47.85885" lon="6.90693">
        <ele>1105</ele>
        <time>2026-05-09T20:26:30.279Z</time>
      </trkpt>
      <trkpt lat="47.85884" lon="6.90692">
        <ele>1105</ele>
        <time>2026-05-09T20:26:31.279Z</time>
      </trkpt>
      <trkpt lat="47.85883" lon="6.90692">
        <ele>1105</ele>
        <time>2026-05-09T20:26:32.279Z</time>
      </trkpt>
      <trkpt lat="47.85882" lon="6.90691">
        <ele>1106</ele>
        <time>2026-05-09T20:26:33.279Z</time>
      </trkpt>
      <trkpt lat="47.8588" lon="6.90692">
        <ele>1106</ele>
        <time>2026-05-09T20:26:34.279Z</time>
      </trkpt>
      <trkpt lat="47.8588" lon="6.90691">
        <ele>1106</ele>
        <time>2026-05-09T20:26:35.280Z</time>
      </trkpt>
      <trkpt lat="47.85878" lon="6.90691">
        <ele>1106</ele>
        <time>2026-05-09T20:26:36.279Z</time>
      </trkpt>
      <trkpt lat="47.85876" lon="6.90691">
        <ele>1106</ele>
        <time>2026-05-09T20:26:37.279Z</time>
      </trkpt>
      <trkpt lat="47.85874" lon="6.9069">
        <ele>1106</ele>
        <time>2026-05-09T20:26:38.279Z</time>
      </trkpt>
      <trkpt lat="47.85873" lon="6.9069">
        <ele>1107</ele>
        <time>2026-05-09T20:26:39.280Z</time>
      </trkpt>
      <trkpt lat="47.85873" lon="6.90688">
        <ele>1107</ele>
        <time>2026-05-09T20:26:40.279Z</time>
      </trkpt>
      <trkpt lat="47.85872" lon="6.90688">
        <ele>1108</ele>
        <time>2026-05-09T20:26:41.279Z</time>
      </trkpt>
      <trkpt lat="47.85871" lon="6.90688">
        <ele>1108</ele>
        <time>2026-05-09T20:26:42.279Z</time>
      </trkpt>
      <trkpt lat="47.8587" lon="6.90688">
        <ele>1109</ele>
        <time>2026-05-09T20:26:43.279Z</time>
      </trkpt>
      <trkpt lat="47.85869" lon="6.90688">
        <ele>1109</ele>
        <time>2026-05-09T20:26:44.279Z</time>
      </trkpt>
      <trkpt lat="47.85868" lon="6.90688">
        <ele>1110</ele>
        <time>2026-05-09T20:26:45.280Z</time>
      </trkpt>
      <trkpt lat="47.85867" lon="6.90688">
        <ele>1110</ele>
        <time>2026-05-09T20:26:46.279Z</time>
      </trkpt>
      <trkpt lat="47.85866" lon="6.90688">
        <ele>1110</ele>
        <time>2026-05-09T20:26:47.280Z</time>
      </trkpt>
      <trkpt lat="47.85866" lon="6.90688">
        <ele>1110</ele>
        <time>2026-05-09T20:26:48.280Z</time>
      </trkpt>
      <trkpt lat="47.85865" lon="6.90687">
        <ele>1110</ele>
        <time>2026-05-09T20:26:49.280Z</time>
      </trkpt>
      <trkpt lat="47.85864" lon="6.90687">
        <ele>1111</ele>
        <time>2026-05-09T20:26:50.280Z</time>
      </trkpt>
      <trkpt lat="47.85864" lon="6.90687">
        <ele>1111</ele>
        <time>2026-05-09T20:26:51.280Z</time>
      </trkpt>
      <trkpt lat="47.85864" lon="6.90687">
        <ele>1111</ele>
        <time>2026-05-09T20:26:52.280Z</time>
      </trkpt>
      <trkpt lat="47.85864" lon="6.90687">
        <ele>1111</ele>
        <time>2026-05-09T20:26:53.279Z</time>
      </trkpt>
      <trkpt lat="47.85863" lon="6.90686">
        <ele>1111</ele>
        <time>2026-05-09T20:27:02.554Z</time>
      </trkpt>
      <trkpt lat="47.85863" lon="6.90686">
        <ele>1111</ele>
        <time>2026-05-09T20:27:03.554Z</time>
      </trkpt>
      <trkpt lat="47.85862" lon="6.90686">
        <ele>1111</ele>
        <time>2026-05-09T20:27:04.554Z</time>
      </trkpt>
      <trkpt lat="47.85862" lon="6.90685">
        <ele>1111</ele>
        <time>2026-05-09T20:27:05.555Z</time>
      </trkpt>
      <trkpt lat="47.85861" lon="6.90684">
        <ele>1111</ele>
        <time>2026-05-09T20:27:06.555Z</time>
      </trkpt>
      <trkpt lat="47.8586" lon="6.90683">
        <ele>1110</ele>
        <time>2026-05-09T20:27:07.555Z</time>
      </trkpt>
      <trkpt lat="47.8586" lon="6.90683">
        <ele>1110</ele>
        <time>2026-05-09T20:27:08.554Z</time>
      </trkpt>
      <trkpt lat="47.85859" lon="6.90683">
        <ele>1110</ele>
        <time>2026-05-09T20:27:09.554Z</time>
      </trkpt>
      <trkpt lat="47.85858" lon="6.90682">
        <ele>1110</ele>
        <time>2026-05-09T20:27:10.555Z</time>
      </trkpt>
      <trkpt lat="47.85856" lon="6.90682">
        <ele>1110</ele>
        <time>2026-05-09T20:27:11.555Z</time>
      </trkpt>
      <trkpt lat="47.85855" lon="6.90681">
        <ele>1110</ele>
        <time>2026-05-09T20:27:12.555Z</time>
      </trkpt>
      <trkpt lat="47.85853" lon="6.9068">
        <ele>1110</ele>
        <time>2026-05-09T20:27:13.555Z</time>
      </trkpt>
      <trkpt lat="47.85852" lon="6.90679">
        <ele>1110</ele>
        <time>2026-05-09T20:27:14.555Z</time>
      </trkpt>
      <trkpt lat="47.85852" lon="6.90678">
        <ele>1110</ele>
        <time>2026-05-09T20:27:15.554Z</time>
      </trkpt>
      <trkpt lat="47.85851" lon="6.90678">
        <ele>1110</ele>
        <time>2026-05-09T20:27:16.554Z</time>
      </trkpt>
      <trkpt lat="47.8585" lon="6.90678">
        <ele>1111</ele>
        <time>2026-05-09T20:27:17.554Z</time>
      </trkpt>
      <trkpt lat="47.85849" lon="6.90678">
        <ele>1111</ele>
        <time>2026-05-09T20:27:18.554Z</time>
      </trkpt>
      <trkpt lat="47.85847" lon="6.90678">
        <ele>1111</ele>
        <time>2026-05-09T20:27:19.554Z</time>
      </trkpt>
      <trkpt lat="47.85846" lon="6.90677">
        <ele>1111</ele>
        <time>2026-05-09T20:27:20.555Z</time>
      </trkpt>
      <trkpt lat="47.85845" lon="6.90677">
        <ele>1111</ele>
        <time>2026-05-09T20:27:21.555Z</time>
      </trkpt>
      <trkpt lat="47.85844" lon="6.90678">
        <ele>1111</ele>
        <time>2026-05-09T20:27:22.555Z</time>
      </trkpt>
      <trkpt lat="47.85843" lon="6.90678">
        <ele>1111</ele>
        <time>2026-05-09T20:27:23.555Z</time>
      </trkpt>
      <trkpt lat="47.85843" lon="6.90678">
        <ele>1111</ele>
        <time>2026-05-09T20:27:24.554Z</time>
      </trkpt>
      <trkpt lat="47.8584" lon="6.90687">
        <ele>1112</ele>
        <time>2026-05-09T20:27:30.931Z</time>
      </trkpt>
      <trkpt lat="47.8584" lon="6.90688">
        <ele>1112</ele>
        <time>2026-05-09T20:27:31.931Z</time>
      </trkpt>
      <trkpt lat="47.8584" lon="6.90689">
        <ele>1112</ele>
        <time>2026-05-09T20:27:32.930Z</time>
      </trkpt>
      <trkpt lat="47.85841" lon="6.90691">
        <ele>1112</ele>
        <time>2026-05-09T20:27:33.930Z</time>
      </trkpt>
      <trkpt lat="47.85841" lon="6.90692">
        <ele>1112</ele>
        <time>2026-05-09T20:27:34.930Z</time>
      </trkpt>
      <trkpt lat="47.85841" lon="6.90694">
        <ele>1111</ele>
        <time>2026-05-09T20:27:35.930Z</time>
      </trkpt>
      <trkpt lat="47.85841" lon="6.90695">
        <ele>1110</ele>
        <time>2026-05-09T20:27:36.930Z</time>
      </trkpt>
      <trkpt lat="47.85841" lon="6.90697">
        <ele>1110</ele>
        <time>2026-05-09T20:27:37.930Z</time>
      </trkpt>
      <trkpt lat="47.85841" lon="6.90699">
        <ele>1109</ele>
        <time>2026-05-09T20:27:38.930Z</time>
      </trkpt>
      <trkpt lat="47.85841" lon="6.907">
        <ele>1109</ele>
        <time>2026-05-09T20:27:39.930Z</time>
      </trkpt>
      <trkpt lat="47.85841" lon="6.90701">
        <ele>1109</ele>
        <time>2026-05-09T20:27:40.930Z</time>
      </trkpt>
      <trkpt lat="47.85841" lon="6.90703">
        <ele>1108</ele>
        <time>2026-05-09T20:27:41.930Z</time>
      </trkpt>
      <trkpt lat="47.85842" lon="6.90705">
        <ele>1108</ele>
        <time>2026-05-09T20:27:42.930Z</time>
      </trkpt>
      <trkpt lat="47.85842" lon="6.90707">
        <ele>1107</ele>
        <time>2026-05-09T20:27:43.931Z</time>
      </trkpt>
      <trkpt lat="47.85843" lon="6.90709">
        <ele>1107</ele>
        <time>2026-05-09T20:27:44.931Z</time>
      </trkpt>
      <trkpt lat="47.85844" lon="6.90711">
        <ele>1107</ele>
        <time>2026-05-09T20:27:45.931Z</time>
      </trkpt>
      <trkpt lat="47.85843" lon="6.90713">
        <ele>1107</ele>
        <time>2026-05-09T20:27:46.931Z</time>
      </trkpt>
      <trkpt lat="47.85842" lon="6.90715">
        <ele>1107</ele>
        <time>2026-05-09T20:27:47.930Z</time>
      </trkpt>
      <trkpt lat="47.85842" lon="6.90716">
        <ele>1107</ele>
        <time>2026-05-09T20:27:48.930Z</time>
      </trkpt>
      <trkpt lat="47.85843" lon="6.90718">
        <ele>1107</ele>
        <time>2026-05-09T20:27:49.931Z</time>
      </trkpt>
      <trkpt lat="47.85843" lon="6.9072">
        <ele>1107</ele>
        <time>2026-05-09T20:27:50.931Z</time>
      </trkpt>
      <trkpt lat="47.85844" lon="6.90722">
        <ele>1107</ele>
        <time>2026-05-09T20:27:51.930Z</time>
      </trkpt>
      <trkpt lat="47.85845" lon="6.90723">
        <ele>1108</ele>
        <time>2026-05-09T20:27:52.931Z</time>
      </trkpt>
      <trkpt lat="47.85845" lon="6.90725">
        <ele>1108</ele>
        <time>2026-05-09T20:27:53.931Z</time>
      </trkpt>
      <trkpt lat="47.85846" lon="6.90727">
        <ele>1108</ele>
        <time>2026-05-09T20:27:54.930Z</time>
      </trkpt>
      <trkpt lat="47.85846" lon="6.90729">
        <ele>1109</ele>
        <time>2026-05-09T20:27:55.930Z</time>
      </trkpt>
      <trkpt lat="47.85846" lon="6.90731">
        <ele>1110</ele>
        <time>2026-05-09T20:27:56.930Z</time>
      </trkpt>
      <trkpt lat="47.85846" lon="6.90733">
        <ele>1110</ele>
        <time>2026-05-09T20:27:57.930Z</time>
      </trkpt>
      <trkpt lat="47.85846" lon="6.90735">
        <ele>1111</ele>
        <time>2026-05-09T20:27:58.930Z</time>
      </trkpt>
      <trkpt lat="47.85846" lon="6.90736">
        <ele>1112</ele>
        <time>2026-05-09T20:27:59.931Z</time>
      </trkpt>
      <trkpt lat="47.85846" lon="6.90738">
        <ele>1112</ele>
        <time>2026-05-09T20:28:00.931Z</time>
      </trkpt>
      <trkpt lat="47.85846" lon="6.9074">
        <ele>1112</ele>
        <time>2026-05-09T20:28:01.930Z</time>
      </trkpt>
      <trkpt lat="47.85847" lon="6.90741">
        <ele>1113</ele>
        <time>2026-05-09T20:28:02.930Z</time>
      </trkpt>
      <trkpt lat="47.85847" lon="6.90743">
        <ele>1113</ele>
        <time>2026-05-09T20:28:03.930Z</time>
      </trkpt>
      <trkpt lat="47.85848" lon="6.90745">
        <ele>1113</ele>
        <time>2026-05-09T20:28:04.930Z</time>
      </trkpt>
      <trkpt lat="47.85849" lon="6.90747">
        <ele>1113</ele>
        <time>2026-05-09T20:28:05.930Z</time>
      </trkpt>
      <trkpt lat="47.8585" lon="6.90749">
        <ele>1114</ele>
        <time>2026-05-09T20:28:06.930Z</time>
      </trkpt>
      <trkpt lat="47.85851" lon="6.90751">
        <ele>1114</ele>
        <time>2026-05-09T20:28:07.930Z</time>
      </trkpt>
      <trkpt lat="47.85852" lon="6.90753">
        <ele>1114</ele>
        <time>2026-05-09T20:28:08.930Z</time>
      </trkpt>
      <trkpt lat="47.85853" lon="6.90754">
        <ele>1114</ele>
        <time>2026-05-09T20:28:09.931Z</time>
      </trkpt>
      <trkpt lat="47.85853" lon="6.90756">
        <ele>1114</ele>
        <time>2026-05-09T20:28:10.930Z</time>
      </trkpt>
      <trkpt lat="47.85855" lon="6.90758">
        <ele>1114</ele>
        <time>2026-05-09T20:28:11.930Z</time>
      </trkpt>
      <trkpt lat="47.85855" lon="6.9076">
        <ele>1114</ele>
        <time>2026-05-09T20:28:12.930Z</time>
      </trkpt>
      <trkpt lat="47.85856" lon="6.90762">
        <ele>1114</ele>
        <time>2026-05-09T20:28:13.930Z</time>
      </trkpt>
      <trkpt lat="47.85857" lon="6.90764">
        <ele>1114</ele>
        <time>2026-05-09T20:28:14.931Z</time>
      </trkpt>
      <trkpt lat="47.85858" lon="6.90766">
        <ele>1114</ele>
        <time>2026-05-09T20:28:15.930Z</time>
      </trkpt>
      <trkpt lat="47.85858" lon="6.90768">
        <ele>1115</ele>
        <time>2026-05-09T20:28:16.930Z</time>
      </trkpt>
      <trkpt lat="47.85858" lon="6.9077">
        <ele>1115</ele>
        <time>2026-05-09T20:28:17.930Z</time>
      </trkpt>
      <trkpt lat="47.85858" lon="6.90771">
        <ele>1115</ele>
        <time>2026-05-09T20:28:18.931Z</time>
      </trkpt>
      <trkpt lat="47.85858" lon="6.90773">
        <ele>1115</ele>
        <time>2026-05-09T20:28:19.931Z</time>
      </trkpt>
      <trkpt lat="47.85858" lon="6.90775">
        <ele>1114</ele>
        <time>2026-05-09T20:28:20.930Z</time>
      </trkpt>
      <trkpt lat="47.85859" lon="6.90777">
        <ele>1114</ele>
        <time>2026-05-09T20:28:21.930Z</time>
      </trkpt>
      <trkpt lat="47.85859" lon="6.90778">
        <ele>1114</ele>
        <time>2026-05-09T20:28:22.930Z</time>
      </trkpt>
      <trkpt lat="47.8586" lon="6.9078">
        <ele>1115</ele>
        <time>2026-05-09T20:28:23.930Z</time>
      </trkpt>
      <trkpt lat="47.8586" lon="6.90781">
        <ele>1115</ele>
        <time>2026-05-09T20:28:24.930Z</time>
      </trkpt>
      <trkpt lat="47.85861" lon="6.90783">
        <ele>1115</ele>
        <time>2026-05-09T20:28:25.930Z</time>
      </trkpt>
      <trkpt lat="47.85861" lon="6.90785">
        <ele>1115</ele>
        <time>2026-05-09T20:28:26.931Z</time>
      </trkpt>
      <trkpt lat="47.85861" lon="6.90786">
        <ele>1116</ele>
        <time>2026-05-09T20:28:27.931Z</time>
      </trkpt>
      <trkpt lat="47.85861" lon="6.90788">
        <ele>1116</ele>
        <time>2026-05-09T20:28:28.931Z</time>
      </trkpt>
      <trkpt lat="47.85862" lon="6.90789">
        <ele>1116</ele>
        <time>2026-05-09T20:28:29.931Z</time>
      </trkpt>
      <trkpt lat="47.85863" lon="6.90791">
        <ele>1116</ele>
        <time>2026-05-09T20:28:30.931Z</time>
      </trkpt>
      <trkpt lat="47.85863" lon="6.90794">
        <ele>1116</ele>
        <time>2026-05-09T20:28:31.930Z</time>
      </trkpt>
      <trkpt lat="47.85864" lon="6.90796">
        <ele>1116</ele>
        <time>2026-05-09T20:28:32.930Z</time>
      </trkpt>
      <trkpt lat="47.85864" lon="6.90797">
        <ele>1116</ele>
        <time>2026-05-09T20:28:33.930Z</time>
      </trkpt>
      <trkpt lat="47.85864" lon="6.90798">
        <ele>1116</ele>
        <time>2026-05-09T20:28:34.931Z</time>
      </trkpt>
      <trkpt lat="47.85864" lon="6.90799">
        <ele>1116</ele>
        <time>2026-05-09T20:28:35.930Z</time>
      </trkpt>
      <trkpt lat="47.85864" lon="6.90801">
        <ele>1116</ele>
        <time>2026-05-09T20:28:36.930Z</time>
      </trkpt>
      <trkpt lat="47.85864" lon="6.90802">
        <ele>1116</ele>
        <time>2026-05-09T20:28:37.930Z</time>
      </trkpt>
      <trkpt lat="47.85864" lon="6.90803">
        <ele>1115</ele>
        <time>2026-05-09T20:28:38.930Z</time>
      </trkpt>
      <trkpt lat="47.85864" lon="6.90804">
        <ele>1115</ele>
        <time>2026-05-09T20:28:39.930Z</time>
      </trkpt>
      <trkpt lat="47.85864" lon="6.90806">
        <ele>1114</ele>
        <time>2026-05-09T20:28:40.930Z</time>
      </trkpt>
      <trkpt lat="47.85863" lon="6.90807">
        <ele>1114</ele>
        <time>2026-05-09T20:28:41.930Z</time>
      </trkpt>
      <trkpt lat="47.85863" lon="6.90808">
        <ele>1113</ele>
        <time>2026-05-09T20:28:42.931Z</time>
      </trkpt>
      <trkpt lat="47.85863" lon="6.9081">
        <ele>1113</ele>
        <time>2026-05-09T20:28:43.931Z</time>
      </trkpt>
      <trkpt lat="47.85863" lon="6.90813">
        <ele>1112</ele>
        <time>2026-05-09T20:28:44.931Z</time>
      </trkpt>
      <trkpt lat="47.85863" lon="6.90814">
        <ele>1112</ele>
        <time>2026-05-09T20:28:45.930Z</time>
      </trkpt>
      <trkpt lat="47.85863" lon="6.90815">
        <ele>1111</ele>
        <time>2026-05-09T20:28:46.930Z</time>
      </trkpt>
      <trkpt lat="47.85863" lon="6.90817">
        <ele>1111</ele>
        <time>2026-05-09T20:28:47.930Z</time>
      </trkpt>
      <trkpt lat="47.85864" lon="6.90818">
        <ele>1111</ele>
        <time>2026-05-09T20:28:48.931Z</time>
      </trkpt>
      <trkpt lat="47.85864" lon="6.90819">
        <ele>1112</ele>
        <time>2026-05-09T20:28:49.930Z</time>
      </trkpt>
      <trkpt lat="47.85865" lon="6.90821">
        <ele>1112</ele>
        <time>2026-05-09T20:28:50.931Z</time>
      </trkpt>
      <trkpt lat="47.85866" lon="6.90823">
        <ele>1112</ele>
        <time>2026-05-09T20:28:51.930Z</time>
      </trkpt>
      <trkpt lat="47.85867" lon="6.90825">
        <ele>1112</ele>
        <time>2026-05-09T20:28:52.931Z</time>
      </trkpt>
      <trkpt lat="47.85868" lon="6.90826">
        <ele>1113</ele>
        <time>2026-05-09T20:28:53.930Z</time>
      </trkpt>
      <trkpt lat="47.85869" lon="6.90828">
        <ele>1113</ele>
        <time>2026-05-09T20:28:54.931Z</time>
      </trkpt>
      <trkpt lat="47.8587" lon="6.90831">
        <ele>1114</ele>
        <time>2026-05-09T20:28:55.930Z</time>
      </trkpt>
      <trkpt lat="47.85869" lon="6.90833">
        <ele>1114</ele>
        <time>2026-05-09T20:28:56.931Z</time>
      </trkpt>
      <trkpt lat="47.85869" lon="6.90835">
        <ele>1115</ele>
        <time>2026-05-09T20:28:57.930Z</time>
      </trkpt>
      <trkpt lat="47.85868" lon="6.90838">
        <ele>1115</ele>
        <time>2026-05-09T20:28:58.931Z</time>
      </trkpt>
      <trkpt lat="47.8587" lon="6.9084">
        <ele>1116</ele>
        <time>2026-05-09T20:28:59.930Z</time>
      </trkpt>
      <trkpt lat="47.85871" lon="6.90841">
        <ele>1116</ele>
        <time>2026-05-09T20:29:00.931Z</time>
      </trkpt>
      <trkpt lat="47.85871" lon="6.90843">
        <ele>1117</ele>
        <time>2026-05-09T20:29:01.930Z</time>
      </trkpt>
      <trkpt lat="47.85871" lon="6.90844">
        <ele>1117</ele>
        <time>2026-05-09T20:29:02.931Z</time>
      </trkpt>
      <trkpt lat="47.85871" lon="6.90846">
        <ele>1118</ele>
        <time>2026-05-09T20:29:03.931Z</time>
      </trkpt>
      <trkpt lat="47.85872" lon="6.90848">
        <ele>1118</ele>
        <time>2026-05-09T20:29:04.930Z</time>
      </trkpt>
      <trkpt lat="47.85872" lon="6.9085">
        <ele>1118</ele>
        <time>2026-05-09T20:29:05.930Z</time>
      </trkpt>
      <trkpt lat="47.85873" lon="6.90851">
        <ele>1119</ele>
        <time>2026-05-09T20:29:06.930Z</time>
      </trkpt>
      <trkpt lat="47.85874" lon="6.90853">
        <ele>1119</ele>
        <time>2026-05-09T20:29:07.931Z</time>
      </trkpt>
      <trkpt lat="47.85875" lon="6.90855">
        <ele>1119</ele>
        <time>2026-05-09T20:29:08.930Z</time>
      </trkpt>
      <trkpt lat="47.85875" lon="6.90857">
        <ele>1118</ele>
        <time>2026-05-09T20:29:09.931Z</time>
      </trkpt>
      <trkpt lat="47.85876" lon="6.90859">
        <ele>1118</ele>
        <time>2026-05-09T20:29:10.930Z</time>
      </trkpt>
      <trkpt lat="47.85877" lon="6.9086">
        <ele>1118</ele>
        <time>2026-05-09T20:29:11.931Z</time>
      </trkpt>
      <trkpt lat="47.85877" lon="6.90862">
        <ele>1117</ele>
        <time>2026-05-09T20:29:12.930Z</time>
      </trkpt>
      <trkpt lat="47.85877" lon="6.90864">
        <ele>1117</ele>
        <time>2026-05-09T20:29:13.931Z</time>
      </trkpt>
      <trkpt lat="47.85878" lon="6.90866">
        <ele>1117</ele>
        <time>2026-05-09T20:29:14.930Z</time>
      </trkpt>
      <trkpt lat="47.85879" lon="6.90868">
        <ele>1117</ele>
        <time>2026-05-09T20:29:15.931Z</time>
      </trkpt>
      <trkpt lat="47.85879" lon="6.9087">
        <ele>1116</ele>
        <time>2026-05-09T20:29:16.930Z</time>
      </trkpt>
      <trkpt lat="47.8588" lon="6.90871">
        <ele>1116</ele>
        <time>2026-05-09T20:29:17.931Z</time>
      </trkpt>
      <trkpt lat="47.85881" lon="6.90873">
        <ele>1117</ele>
        <time>2026-05-09T20:29:18.930Z</time>
      </trkpt>
      <trkpt lat="47.85882" lon="6.90875">
        <ele>1117</ele>
        <time>2026-05-09T20:29:19.930Z</time>
      </trkpt>
      <trkpt lat="47.85882" lon="6.90877">
        <ele>1117</ele>
        <time>2026-05-09T20:29:20.930Z</time>
      </trkpt>
      <trkpt lat="47.85883" lon="6.90879">
        <ele>1117</ele>
        <time>2026-05-09T20:29:21.930Z</time>
      </trkpt>
      <trkpt lat="47.85883" lon="6.9088">
        <ele>1117</ele>
        <time>2026-05-09T20:29:22.930Z</time>
      </trkpt>
      <trkpt lat="47.85883" lon="6.90882">
        <ele>1117</ele>
        <time>2026-05-09T20:29:23.930Z</time>
      </trkpt>
      <trkpt lat="47.85884" lon="6.90884">
        <ele>1116</ele>
        <time>2026-05-09T20:29:24.931Z</time>
      </trkpt>
      <trkpt lat="47.85885" lon="6.90886">
        <ele>1116</ele>
        <time>2026-05-09T20:29:25.931Z</time>
      </trkpt>
      <trkpt lat="47.85886" lon="6.90888">
        <ele>1116</ele>
        <time>2026-05-09T20:29:26.931Z</time>
      </trkpt>
      <trkpt lat="47.85887" lon="6.9089">
        <ele>1116</ele>
        <time>2026-05-09T20:29:27.930Z</time>
      </trkpt>
      <trkpt lat="47.85888" lon="6.90892">
        <ele>1116</ele>
        <time>2026-05-09T20:29:28.931Z</time>
      </trkpt>
      <trkpt lat="47.85889" lon="6.90894">
        <ele>1116</ele>
        <time>2026-05-09T20:29:29.930Z</time>
      </trkpt>
      <trkpt lat="47.85889" lon="6.90896">
        <ele>1116</ele>
        <time>2026-05-09T20:29:30.930Z</time>
      </trkpt>
      <trkpt lat="47.8589" lon="6.90897">
        <ele>1116</ele>
        <time>2026-05-09T20:29:31.930Z</time>
      </trkpt>
      <trkpt lat="47.8589" lon="6.90899">
        <ele>1116</ele>
        <time>2026-05-09T20:29:32.931Z</time>
      </trkpt>
      <trkpt lat="47.8589" lon="6.90901">
        <ele>1116</ele>
        <time>2026-05-09T20:29:33.930Z</time>
      </trkpt>
      <trkpt lat="47.85891" lon="6.90902">
        <ele>1116</ele>
        <time>2026-05-09T20:29:34.930Z</time>
      </trkpt>
      <trkpt lat="47.85891" lon="6.90904">
        <ele>1116</ele>
        <time>2026-05-09T20:29:35.930Z</time>
      </trkpt>
      <trkpt lat="47.85892" lon="6.90906">
        <ele>1116</ele>
        <time>2026-05-09T20:29:36.931Z</time>
      </trkpt>
      <trkpt lat="47.85893" lon="6.90908">
        <ele>1116</ele>
        <time>2026-05-09T20:29:37.931Z</time>
      </trkpt>
      <trkpt lat="47.85893" lon="6.90909">
        <ele>1116</ele>
        <time>2026-05-09T20:29:38.930Z</time>
      </trkpt>
      <trkpt lat="47.85894" lon="6.90911">
        <ele>1116</ele>
        <time>2026-05-09T20:29:39.931Z</time>
      </trkpt>
      <trkpt lat="47.85894" lon="6.90913">
        <ele>1116</ele>
        <time>2026-05-09T20:29:40.930Z</time>
      </trkpt>
      <trkpt lat="47.85894" lon="6.90914">
        <ele>1116</ele>
        <time>2026-05-09T20:29:41.931Z</time>
      </trkpt>
      <trkpt lat="47.85894" lon="6.90916">
        <ele>1116</ele>
        <time>2026-05-09T20:29:42.930Z</time>
      </trkpt>
      <trkpt lat="47.85894" lon="6.90918">
        <ele>1116</ele>
        <time>2026-05-09T20:29:43.931Z</time>
      </trkpt>
      <trkpt lat="47.85894" lon="6.90919">
        <ele>1115</ele>
        <time>2026-05-09T20:29:44.930Z</time>
      </trkpt>
      <trkpt lat="47.85894" lon="6.90921">
        <ele>1115</ele>
        <time>2026-05-09T20:29:45.931Z</time>
      </trkpt>
      <trkpt lat="47.85894" lon="6.90922">
        <ele>1115</ele>
        <time>2026-05-09T20:29:46.930Z</time>
      </trkpt>
      <trkpt lat="47.85895" lon="6.90924">
        <ele>1115</ele>
        <time>2026-05-09T20:29:47.931Z</time>
      </trkpt>
      <trkpt lat="47.85895" lon="6.90926">
        <ele>1115</ele>
        <time>2026-05-09T20:29:48.930Z</time>
      </trkpt>
      <trkpt lat="47.85896" lon="6.90928">
        <ele>1115</ele>
        <time>2026-05-09T20:29:49.931Z</time>
      </trkpt>
      <trkpt lat="47.85896" lon="6.90929">
        <ele>1114</ele>
        <time>2026-05-09T20:29:50.930Z</time>
      </trkpt>
      <trkpt lat="47.85896" lon="6.90931">
        <ele>1114</ele>
        <time>2026-05-09T20:29:51.930Z</time>
      </trkpt>
      <trkpt lat="47.85896" lon="6.90933">
        <ele>1114</ele>
        <time>2026-05-09T20:29:52.930Z</time>
      </trkpt>
      <trkpt lat="47.85896" lon="6.90934">
        <ele>1114</ele>
        <time>2026-05-09T20:29:53.930Z</time>
      </trkpt>
      <trkpt lat="47.85897" lon="6.90936">
        <ele>1113</ele>
        <time>2026-05-09T20:29:54.930Z</time>
      </trkpt>
      <trkpt lat="47.85897" lon="6.90938">
        <ele>1113</ele>
        <time>2026-05-09T20:29:55.931Z</time>
      </trkpt>
      <trkpt lat="47.85898" lon="6.9094">
        <ele>1113</ele>
        <time>2026-05-09T20:29:56.930Z</time>
      </trkpt>
      <trkpt lat="47.85898" lon="6.90941">
        <ele>1113</ele>
        <time>2026-05-09T20:29:57.931Z</time>
      </trkpt>
      <trkpt lat="47.85898" lon="6.90943">
        <ele>1113</ele>
        <time>2026-05-09T20:29:58.930Z</time>
      </trkpt>
      <trkpt lat="47.85898" lon="6.90945">
        <ele>1113</ele>
        <time>2026-05-09T20:29:59.931Z</time>
      </trkpt>
      <trkpt lat="47.85899" lon="6.90947">
        <ele>1113</ele>
        <time>2026-05-09T20:30:00.931Z</time>
      </trkpt>
      <trkpt lat="47.85898" lon="6.90949">
        <ele>1113</ele>
        <time>2026-05-09T20:30:01.931Z</time>
      </trkpt>
      <trkpt lat="47.85898" lon="6.90951">
        <ele>1113</ele>
        <time>2026-05-09T20:30:02.931Z</time>
      </trkpt>
      <trkpt lat="47.85897" lon="6.90952">
        <ele>1113</ele>
        <time>2026-05-09T20:30:03.930Z</time>
      </trkpt>
      <trkpt lat="47.85897" lon="6.90954">
        <ele>1113</ele>
        <time>2026-05-09T20:30:04.931Z</time>
      </trkpt>
      <trkpt lat="47.85897" lon="6.90956">
        <ele>1113</ele>
        <time>2026-05-09T20:30:05.931Z</time>
      </trkpt>
      <trkpt lat="47.85897" lon="6.90958">
        <ele>1113</ele>
        <time>2026-05-09T20:30:06.930Z</time>
      </trkpt>
      <trkpt lat="47.85897" lon="6.9096">
        <ele>1113</ele>
        <time>2026-05-09T20:30:07.930Z</time>
      </trkpt>
      <trkpt lat="47.85897" lon="6.90963">
        <ele>1113</ele>
        <time>2026-05-09T20:30:08.931Z</time>
      </trkpt>
      <trkpt lat="47.85896" lon="6.90965">
        <ele>1113</ele>
        <time>2026-05-09T20:30:09.931Z</time>
      </trkpt>
      <trkpt lat="47.85896" lon="6.90967">
        <ele>1113</ele>
        <time>2026-05-09T20:30:10.931Z</time>
      </trkpt>
      <trkpt lat="47.85895" lon="6.90968">
        <ele>1113</ele>
        <time>2026-05-09T20:30:11.930Z</time>
      </trkpt>
      <trkpt lat="47.85895" lon="6.9097">
        <ele>1113</ele>
        <time>2026-05-09T20:30:12.931Z</time>
      </trkpt>
      <trkpt lat="47.85893" lon="6.90972">
        <ele>1113</ele>
        <time>2026-05-09T20:30:13.930Z</time>
      </trkpt>
      <trkpt lat="47.85893" lon="6.90973">
        <ele>1113</ele>
        <time>2026-05-09T20:30:14.931Z</time>
      </trkpt>
      <trkpt lat="47.85892" lon="6.90974">
        <ele>1113</ele>
        <time>2026-05-09T20:30:15.930Z</time>
      </trkpt>
      <trkpt lat="47.85891" lon="6.90976">
        <ele>1113</ele>
        <time>2026-05-09T20:30:16.931Z</time>
      </trkpt>
      <trkpt lat="47.8589" lon="6.90978">
        <ele>1113</ele>
        <time>2026-05-09T20:30:17.930Z</time>
      </trkpt>
      <trkpt lat="47.8589" lon="6.9098">
        <ele>1113</ele>
        <time>2026-05-09T20:30:18.931Z</time>
      </trkpt>
      <trkpt lat="47.85889" lon="6.90982">
        <ele>1114</ele>
        <time>2026-05-09T20:30:19.930Z</time>
      </trkpt>
      <trkpt lat="47.85889" lon="6.90984">
        <ele>1114</ele>
        <time>2026-05-09T20:30:20.931Z</time>
      </trkpt>
      <trkpt lat="47.85888" lon="6.90986">
        <ele>1114</ele>
        <time>2026-05-09T20:30:21.930Z</time>
      </trkpt>
      <trkpt lat="47.85887" lon="6.90987">
        <ele>1114</ele>
        <time>2026-05-09T20:30:22.931Z</time>
      </trkpt>
      <trkpt lat="47.85887" lon="6.90988">
        <ele>1114</ele>
        <time>2026-05-09T20:30:23.931Z</time>
      </trkpt>
      <trkpt lat="47.85885" lon="6.9099">
        <ele>1114</ele>
        <time>2026-05-09T20:30:24.931Z</time>
      </trkpt>
      <trkpt lat="47.85884" lon="6.90991">
        <ele>1114</ele>
        <time>2026-05-09T20:30:25.931Z</time>
      </trkpt>
      <trkpt lat="47.85883" lon="6.90992">
        <ele>1114</ele>
        <time>2026-05-09T20:30:26.930Z</time>
      </trkpt>
      <trkpt lat="47.85881" lon="6.90993">
        <ele>1114</ele>
        <time>2026-05-09T20:30:27.930Z</time>
      </trkpt>
      <trkpt lat="47.85881" lon="6.90995">
        <ele>1114</ele>
        <time>2026-05-09T20:30:28.930Z</time>
      </trkpt>
      <trkpt lat="47.8588" lon="6.90997">
        <ele>1114</ele>
        <time>2026-05-09T20:30:29.931Z</time>
      </trkpt>
      <trkpt lat="47.85879" lon="6.90998">
        <ele>1115</ele>
        <time>2026-05-09T20:30:30.931Z</time>
      </trkpt>
      <trkpt lat="47.85878" lon="6.90999">
        <ele>1115</ele>
        <time>2026-05-09T20:30:31.931Z</time>
      </trkpt>
      <trkpt lat="47.85877" lon="6.91">
        <ele>1115</ele>
        <time>2026-05-09T20:30:32.931Z</time>
      </trkpt>
      <trkpt lat="47.85876" lon="6.91002">
        <ele>1115</ele>
        <time>2026-05-09T20:30:33.930Z</time>
      </trkpt>
      <trkpt lat="47.85876" lon="6.91003">
        <ele>1115</ele>
        <time>2026-05-09T20:30:34.931Z</time>
      </trkpt>
      <trkpt lat="47.85875" lon="6.91004">
        <ele>1115</ele>
        <time>2026-05-09T20:30:35.930Z</time>
      </trkpt>
      <trkpt lat="47.85874" lon="6.91006">
        <ele>1115</ele>
        <time>2026-05-09T20:30:36.931Z</time>
      </trkpt>
      <trkpt lat="47.85873" lon="6.91007">
        <ele>1116</ele>
        <time>2026-05-09T20:30:37.930Z</time>
      </trkpt>
      <trkpt lat="47.85872" lon="6.91008">
        <ele>1116</ele>
        <time>2026-05-09T20:30:38.931Z</time>
      </trkpt>
      <trkpt lat="47.85871" lon="6.91009">
        <ele>1115</ele>
        <time>2026-05-09T20:30:39.930Z</time>
      </trkpt>
      <trkpt lat="47.8587" lon="6.91011">
        <ele>1115</ele>
        <time>2026-05-09T20:30:40.930Z</time>
      </trkpt>
      <trkpt lat="47.85869" lon="6.91012">
        <ele>1116</ele>
        <time>2026-05-09T20:30:41.930Z</time>
      </trkpt>
      <trkpt lat="47.85868" lon="6.91013">
        <ele>1116</ele>
        <time>2026-05-09T20:30:42.931Z</time>
      </trkpt>
      <trkpt lat="47.85867" lon="6.91015">
        <ele>1116</ele>
        <time>2026-05-09T20:30:43.930Z</time>
      </trkpt>
      <trkpt lat="47.85866" lon="6.91016">
        <ele>1116</ele>
        <time>2026-05-09T20:30:44.931Z</time>
      </trkpt>
      <trkpt lat="47.85866" lon="6.91017">
        <ele>1116</ele>
        <time>2026-05-09T20:30:45.930Z</time>
      </trkpt>
      <trkpt lat="47.85865" lon="6.91019">
        <ele>1116</ele>
        <time>2026-05-09T20:30:46.931Z</time>
      </trkpt>
      <trkpt lat="47.85865" lon="6.91021">
        <ele>1116</ele>
        <time>2026-05-09T20:30:47.930Z</time>
      </trkpt>
      <trkpt lat="47.85863" lon="6.91023">
        <ele>1116</ele>
        <time>2026-05-09T20:30:48.931Z</time>
      </trkpt>
      <trkpt lat="47.85861" lon="6.91024">
        <ele>1116</ele>
        <time>2026-05-09T20:30:49.931Z</time>
      </trkpt>
      <trkpt lat="47.8586" lon="6.91025">
        <ele>1116</ele>
        <time>2026-05-09T20:30:50.930Z</time>
      </trkpt>
      <trkpt lat="47.85858" lon="6.91026">
        <ele>1117</ele>
        <time>2026-05-09T20:30:51.931Z</time>
      </trkpt>
      <trkpt lat="47.85857" lon="6.91027">
        <ele>1117</ele>
        <time>2026-05-09T20:30:52.930Z</time>
      </trkpt>
      <trkpt lat="47.85856" lon="6.91028">
        <ele>1117</ele>
        <time>2026-05-09T20:30:53.930Z</time>
      </trkpt>
      <trkpt lat="47.85855" lon="6.91029">
        <ele>1117</ele>
        <time>2026-05-09T20:30:54.931Z</time>
      </trkpt>
      <trkpt lat="47.85854" lon="6.9103">
        <ele>1117</ele>
        <time>2026-05-09T20:30:55.931Z</time>
      </trkpt>
      <trkpt lat="47.85853" lon="6.91031">
        <ele>1117</ele>
        <time>2026-05-09T20:30:56.930Z</time>
      </trkpt>
      <trkpt lat="47.85852" lon="6.91032">
        <ele>1118</ele>
        <time>2026-05-09T20:30:57.930Z</time>
      </trkpt>
      <trkpt lat="47.8585" lon="6.91033">
        <ele>1118</ele>
        <time>2026-05-09T20:30:58.931Z</time>
      </trkpt>
      <trkpt lat="47.85849" lon="6.91034">
        <ele>1118</ele>
        <time>2026-05-09T20:30:59.931Z</time>
      </trkpt>
      <trkpt lat="47.85848" lon="6.91035">
        <ele>1119</ele>
        <time>2026-05-09T20:31:00.930Z</time>
      </trkpt>
      <trkpt lat="47.85847" lon="6.91036">
        <ele>1120</ele>
        <time>2026-05-09T20:31:01.930Z</time>
      </trkpt>
      <trkpt lat="47.85846" lon="6.91037">
        <ele>1120</ele>
        <time>2026-05-09T20:31:02.931Z</time>
      </trkpt>
      <trkpt lat="47.85845" lon="6.91039">
        <ele>1121</ele>
        <time>2026-05-09T20:31:03.931Z</time>
      </trkpt>
      <trkpt lat="47.85844" lon="6.9104">
        <ele>1121</ele>
        <time>2026-05-09T20:31:04.931Z</time>
      </trkpt>
      <trkpt lat="47.85843" lon="6.91041">
        <ele>1121</ele>
        <time>2026-05-09T20:31:05.931Z</time>
      </trkpt>
      <trkpt lat="47.85843" lon="6.91041">
        <ele>1121</ele>
        <time>2026-05-09T20:31:06.930Z</time>
      </trkpt>
      <trkpt lat="47.85842" lon="6.91042">
        <ele>1121</ele>
        <time>2026-05-09T20:31:07.931Z</time>
      </trkpt>
      <trkpt lat="47.85841" lon="6.91044">
        <ele>1121</ele>
        <time>2026-05-09T20:31:08.930Z</time>
      </trkpt>
      <trkpt lat="47.8584" lon="6.91045">
        <ele>1120</ele>
        <time>2026-05-09T20:31:09.931Z</time>
      </trkpt>
      <trkpt lat="47.8584" lon="6.91046">
        <ele>1120</ele>
        <time>2026-05-09T20:31:10.930Z</time>
      </trkpt>
      <trkpt lat="47.85839" lon="6.91047">
        <ele>1120</ele>
        <time>2026-05-09T20:31:11.931Z</time>
      </trkpt>
      <trkpt lat="47.85838" lon="6.91048">
        <ele>1120</ele>
        <time>2026-05-09T20:31:12.930Z</time>
      </trkpt>
      <trkpt lat="47.85837" lon="6.9105">
        <ele>1120</ele>
        <time>2026-05-09T20:31:13.931Z</time>
      </trkpt>
      <trkpt lat="47.85836" lon="6.91051">
        <ele>1120</ele>
        <time>2026-05-09T20:31:14.930Z</time>
      </trkpt>
      <trkpt lat="47.85835" lon="6.91053">
        <ele>1120</ele>
        <time>2026-05-09T20:31:15.931Z</time>
      </trkpt>
      <trkpt lat="47.85835" lon="6.91054">
        <ele>1120</ele>
        <time>2026-05-09T20:31:16.930Z</time>
      </trkpt>
      <trkpt lat="47.85834" lon="6.91055">
        <ele>1120</ele>
        <time>2026-05-09T20:31:17.931Z</time>
      </trkpt>
      <trkpt lat="47.85833" lon="6.91056">
        <ele>1119</ele>
        <time>2026-05-09T20:31:18.931Z</time>
      </trkpt>
      <trkpt lat="47.85832" lon="6.91057">
        <ele>1119</ele>
        <time>2026-05-09T20:31:19.930Z</time>
      </trkpt>
      <trkpt lat="47.85831" lon="6.91059">
        <ele>1119</ele>
        <time>2026-05-09T20:31:20.931Z</time>
      </trkpt>
      <trkpt lat="47.8583" lon="6.9106">
        <ele>1119</ele>
        <time>2026-05-09T20:31:21.930Z</time>
      </trkpt>
      <trkpt lat="47.85829" lon="6.91061">
        <ele>1119</ele>
        <time>2026-05-09T20:31:22.931Z</time>
      </trkpt>
      <trkpt lat="47.85828" lon="6.91063">
        <ele>1120</ele>
        <time>2026-05-09T20:31:23.930Z</time>
      </trkpt>
      <trkpt lat="47.85827" lon="6.91065">
        <ele>1120</ele>
        <time>2026-05-09T20:31:24.931Z</time>
      </trkpt>
      <trkpt lat="47.85826" lon="6.91066">
        <ele>1120</ele>
        <time>2026-05-09T20:31:25.930Z</time>
      </trkpt>
      <trkpt lat="47.85825" lon="6.91068">
        <ele>1120</ele>
        <time>2026-05-09T20:31:26.930Z</time>
      </trkpt>
      <trkpt lat="47.85824" lon="6.9107">
        <ele>1120</ele>
        <time>2026-05-09T20:31:27.930Z</time>
      </trkpt>
      <trkpt lat="47.85823" lon="6.91072">
        <ele>1120</ele>
        <time>2026-05-09T20:31:28.931Z</time>
      </trkpt>
      <trkpt lat="47.85822" lon="6.91073">
        <ele>1120</ele>
        <time>2026-05-09T20:31:29.930Z</time>
      </trkpt>
      <trkpt lat="47.85821" lon="6.91074">
        <ele>1120</ele>
        <time>2026-05-09T20:31:30.931Z</time>
      </trkpt>
      <trkpt lat="47.8582" lon="6.91076">
        <ele>1120</ele>
        <time>2026-05-09T20:31:31.930Z</time>
      </trkpt>
      <trkpt lat="47.8582" lon="6.91077">
        <ele>1120</ele>
        <time>2026-05-09T20:31:32.931Z</time>
      </trkpt>
      <trkpt lat="47.85819" lon="6.91079">
        <ele>1120</ele>
        <time>2026-05-09T20:31:33.930Z</time>
      </trkpt>
      <trkpt lat="47.85818" lon="6.91081">
        <ele>1120</ele>
        <time>2026-05-09T20:31:34.930Z</time>
      </trkpt>
      <trkpt lat="47.85817" lon="6.91083">
        <ele>1120</ele>
        <time>2026-05-09T20:31:35.930Z</time>
      </trkpt>
      <trkpt lat="47.85816" lon="6.91084">
        <ele>1120</ele>
        <time>2026-05-09T20:31:36.931Z</time>
      </trkpt>
      <trkpt lat="47.85817" lon="6.91086">
        <ele>1120</ele>
        <time>2026-05-09T20:31:37.930Z</time>
      </trkpt>
      <trkpt lat="47.85817" lon="6.91088">
        <ele>1120</ele>
        <time>2026-05-09T20:31:38.931Z</time>
      </trkpt>
      <trkpt lat="47.85816" lon="6.9109">
        <ele>1120</ele>
        <time>2026-05-09T20:31:39.931Z</time>
      </trkpt>
      <trkpt lat="47.85816" lon="6.91092">
        <ele>1120</ele>
        <time>2026-05-09T20:31:40.930Z</time>
      </trkpt>
      <trkpt lat="47.85815" lon="6.91094">
        <ele>1120</ele>
        <time>2026-05-09T20:31:41.931Z</time>
      </trkpt>
      <trkpt lat="47.85815" lon="6.91096">
        <ele>1120</ele>
        <time>2026-05-09T20:31:42.930Z</time>
      </trkpt>
      <trkpt lat="47.85814" lon="6.91097">
        <ele>1120</ele>
        <time>2026-05-09T20:31:43.931Z</time>
      </trkpt>
      <trkpt lat="47.85813" lon="6.91098">
        <ele>1121</ele>
        <time>2026-05-09T20:31:44.930Z</time>
      </trkpt>
      <trkpt lat="47.85812" lon="6.91099">
        <ele>1121</ele>
        <time>2026-05-09T20:31:45.931Z</time>
      </trkpt>
      <trkpt lat="47.8581" lon="6.911">
        <ele>1121</ele>
        <time>2026-05-09T20:31:46.930Z</time>
      </trkpt>
      <trkpt lat="47.8581" lon="6.91101">
        <ele>1121</ele>
        <time>2026-05-09T20:31:47.931Z</time>
      </trkpt>
      <trkpt lat="47.85808" lon="6.91102">
        <ele>1121</ele>
        <time>2026-05-09T20:31:48.930Z</time>
      </trkpt>
      <trkpt lat="47.85807" lon="6.91103">
        <ele>1121</ele>
        <time>2026-05-09T20:31:49.931Z</time>
      </trkpt>
      <trkpt lat="47.85806" lon="6.91105">
        <ele>1122</ele>
        <time>2026-05-09T20:31:50.930Z</time>
      </trkpt>
      <trkpt lat="47.85806" lon="6.91106">
        <ele>1122</ele>
        <time>2026-05-09T20:31:51.931Z</time>
      </trkpt>
      <trkpt lat="47.85805" lon="6.91108">
        <ele>1122</ele>
        <time>2026-05-09T20:31:52.930Z</time>
      </trkpt>
      <trkpt lat="47.85805" lon="6.91109">
        <ele>1122</ele>
        <time>2026-05-09T20:31:53.931Z</time>
      </trkpt>
      <trkpt lat="47.85804" lon="6.9111">
        <ele>1121</ele>
        <time>2026-05-09T20:31:54.931Z</time>
      </trkpt>
      <trkpt lat="47.85802" lon="6.91111">
        <ele>1121</ele>
        <time>2026-05-09T20:31:55.930Z</time>
      </trkpt>
      <trkpt lat="47.85801" lon="6.91113">
        <ele>1121</ele>
        <time>2026-05-09T20:31:56.931Z</time>
      </trkpt>
      <trkpt lat="47.858" lon="6.91114">
        <ele>1120</ele>
        <time>2026-05-09T20:31:57.930Z</time>
      </trkpt>
      <trkpt lat="47.858" lon="6.91116">
        <ele>1120</ele>
        <time>2026-05-09T20:31:58.931Z</time>
      </trkpt>
      <trkpt lat="47.85799" lon="6.91118">
        <ele>1120</ele>
        <time>2026-05-09T20:31:59.930Z</time>
      </trkpt>
      <trkpt lat="47.85799" lon="6.91119">
        <ele>1120</ele>
        <time>2026-05-09T20:32:00.931Z</time>
      </trkpt>
      <trkpt lat="47.85798" lon="6.9112">
        <ele>1120</ele>
        <time>2026-05-09T20:32:01.930Z</time>
      </trkpt>
      <trkpt lat="47.85797" lon="6.91122">
        <ele>1120</ele>
        <time>2026-05-09T20:32:02.931Z</time>
      </trkpt>
      <trkpt lat="47.85797" lon="6.91124">
        <ele>1119</ele>
        <time>2026-05-09T20:32:03.930Z</time>
      </trkpt>
      <trkpt lat="47.85796" lon="6.91126">
        <ele>1119</ele>
        <time>2026-05-09T20:32:04.931Z</time>
      </trkpt>
      <trkpt lat="47.85796" lon="6.91127">
        <ele>1118</ele>
        <time>2026-05-09T20:32:05.930Z</time>
      </trkpt>
      <trkpt lat="47.85795" lon="6.91129">
        <ele>1118</ele>
        <time>2026-05-09T20:32:06.930Z</time>
      </trkpt>
      <trkpt lat="47.85794" lon="6.91131">
        <ele>1117</ele>
        <time>2026-05-09T20:32:07.930Z</time>
      </trkpt>
      <trkpt lat="47.85793" lon="6.91132">
        <ele>1117</ele>
        <time>2026-05-09T20:32:08.930Z</time>
      </trkpt>
      <trkpt lat="47.85791" lon="6.91134">
        <ele>1117</ele>
        <time>2026-05-09T20:32:09.930Z</time>
      </trkpt>
      <trkpt lat="47.8579" lon="6.91135">
        <ele>1118</ele>
        <time>2026-05-09T20:32:10.931Z</time>
      </trkpt>
      <trkpt lat="47.85789" lon="6.91136">
        <ele>1118</ele>
        <time>2026-05-09T20:32:11.930Z</time>
      </trkpt>
      <trkpt lat="47.85788" lon="6.91137">
        <ele>1118</ele>
        <time>2026-05-09T20:32:12.931Z</time>
      </trkpt>
      <trkpt lat="47.85787" lon="6.91138">
        <ele>1118</ele>
        <time>2026-05-09T20:32:13.931Z</time>
      </trkpt>
      <trkpt lat="47.85787" lon="6.91139">
        <ele>1118</ele>
        <time>2026-05-09T20:32:14.930Z</time>
      </trkpt>
      <trkpt lat="47.85787" lon="6.91139">
        <ele>1118</ele>
        <time>2026-05-09T20:32:15.931Z</time>
      </trkpt>
      <trkpt lat="47.85787" lon="6.91139">
        <ele>1118</ele>
        <time>2026-05-09T20:32:16.930Z</time>
      </trkpt>
      <trkpt lat="47.85785" lon="6.91142">
        <ele>1122</ele>
        <time>2026-05-09T20:32:29.994Z</time>
      </trkpt>
      <trkpt lat="47.85785" lon="6.91143">
        <ele>1122</ele>
        <time>2026-05-09T20:32:30.993Z</time>
      </trkpt>
      <trkpt lat="47.85785" lon="6.91144">
        <ele>1122</ele>
        <time>2026-05-09T20:32:31.993Z</time>
      </trkpt>
      <trkpt lat="47.85784" lon="6.91145">
        <ele>1123</ele>
        <time>2026-05-09T20:32:32.993Z</time>
      </trkpt>
      <trkpt lat="47.85784" lon="6.91146">
        <ele>1123</ele>
        <time>2026-05-09T20:32:33.993Z</time>
      </trkpt>
      <trkpt lat="47.85783" lon="6.91147">
        <ele>1124</ele>
        <time>2026-05-09T20:32:34.993Z</time>
      </trkpt>
      <trkpt lat="47.85783" lon="6.91148">
        <ele>1124</ele>
        <time>2026-05-09T20:32:35.993Z</time>
      </trkpt>
      <trkpt lat="47.85782" lon="6.91149">
        <ele>1125</ele>
        <time>2026-05-09T20:32:36.993Z</time>
      </trkpt>
      <trkpt lat="47.85781" lon="6.9115">
        <ele>1125</ele>
        <time>2026-05-09T20:32:37.993Z</time>
      </trkpt>
      <trkpt lat="47.8578" lon="6.91151">
        <ele>1125</ele>
        <time>2026-05-09T20:32:38.994Z</time>
      </trkpt>
      <trkpt lat="47.8578" lon="6.91151">
        <ele>1125</ele>
        <time>2026-05-09T20:32:39.993Z</time>
      </trkpt>
      <trkpt lat="47.85779" lon="6.91152">
        <ele>1125</ele>
        <time>2026-05-09T20:32:40.993Z</time>
      </trkpt>
      <trkpt lat="47.85779" lon="6.91154">
        <ele>1125</ele>
        <time>2026-05-09T20:32:41.993Z</time>
      </trkpt>
      <trkpt lat="47.85779" lon="6.91155">
        <ele>1125</ele>
        <time>2026-05-09T20:32:42.993Z</time>
      </trkpt>
      <trkpt lat="47.85778" lon="6.91156">
        <ele>1125</ele>
        <time>2026-05-09T20:32:43.994Z</time>
      </trkpt>
      <trkpt lat="47.85777" lon="6.91157">
        <ele>1125</ele>
        <time>2026-05-09T20:32:44.993Z</time>
      </trkpt>
      <trkpt lat="47.85776" lon="6.91158">
        <ele>1125</ele>
        <time>2026-05-09T20:32:45.993Z</time>
      </trkpt>
      <trkpt lat="47.85775" lon="6.9116">
        <ele>1125</ele>
        <time>2026-05-09T20:32:46.994Z</time>
      </trkpt>
      <trkpt lat="47.85775" lon="6.91161">
        <ele>1125</ele>
        <time>2026-05-09T20:32:47.993Z</time>
      </trkpt>
      <trkpt lat="47.85775" lon="6.91162">
        <ele>1124</ele>
        <time>2026-05-09T20:32:48.993Z</time>
      </trkpt>
      <trkpt lat="47.85774" lon="6.91164">
        <ele>1124</ele>
        <time>2026-05-09T20:32:49.994Z</time>
      </trkpt>
      <trkpt lat="47.85773" lon="6.91165">
        <ele>1123</ele>
        <time>2026-05-09T20:32:50.994Z</time>
      </trkpt>
      <trkpt lat="47.85773" lon="6.91167">
        <ele>1123</ele>
        <time>2026-05-09T20:32:51.994Z</time>
      </trkpt>
      <trkpt lat="47.85772" lon="6.91168">
        <ele>1123</ele>
        <time>2026-05-09T20:32:52.994Z</time>
      </trkpt>
      <trkpt lat="47.85771" lon="6.9117">
        <ele>1122</ele>
        <time>2026-05-09T20:32:53.994Z</time>
      </trkpt>
      <trkpt lat="47.8577" lon="6.91172">
        <ele>1122</ele>
        <time>2026-05-09T20:32:54.994Z</time>
      </trkpt>
      <trkpt lat="47.85769" lon="6.91173">
        <ele>1122</ele>
        <time>2026-05-09T20:32:55.993Z</time>
      </trkpt>
      <trkpt lat="47.85768" lon="6.91175">
        <ele>1122</ele>
        <time>2026-05-09T20:32:56.993Z</time>
      </trkpt>
      <trkpt lat="47.85767" lon="6.91176">
        <ele>1122</ele>
        <time>2026-05-09T20:32:57.993Z</time>
      </trkpt>
      <trkpt lat="47.85766" lon="6.91177">
        <ele>1121</ele>
        <time>2026-05-09T20:32:58.994Z</time>
      </trkpt>
      <trkpt lat="47.85766" lon="6.91178">
        <ele>1121</ele>
        <time>2026-05-09T20:32:59.993Z</time>
      </trkpt>
      <trkpt lat="47.85765" lon="6.91179">
        <ele>1121</ele>
        <time>2026-05-09T20:33:00.993Z</time>
      </trkpt>
      <trkpt lat="47.85765" lon="6.9118">
        <ele>1120</ele>
        <time>2026-05-09T20:33:01.994Z</time>
      </trkpt>
      <trkpt lat="47.85764" lon="6.91181">
        <ele>1119</ele>
        <time>2026-05-09T20:33:02.994Z</time>
      </trkpt>
      <trkpt lat="47.85763" lon="6.91182">
        <ele>1119</ele>
        <time>2026-05-09T20:33:03.993Z</time>
      </trkpt>
      <trkpt lat="47.85763" lon="6.91183">
        <ele>1118</ele>
        <time>2026-05-09T20:33:04.993Z</time>
      </trkpt>
      <trkpt lat="47.85762" lon="6.91184">
        <ele>1118</ele>
        <time>2026-05-09T20:33:05.993Z</time>
      </trkpt>
      <trkpt lat="47.85761" lon="6.91185">
        <ele>1117</ele>
        <time>2026-05-09T20:33:06.993Z</time>
      </trkpt>
      <trkpt lat="47.8576" lon="6.91186">
        <ele>1117</ele>
        <time>2026-05-09T20:33:07.993Z</time>
      </trkpt>
      <trkpt lat="47.8576" lon="6.91188">
        <ele>1117</ele>
        <time>2026-05-09T20:33:08.993Z</time>
      </trkpt>
      <trkpt lat="47.8576" lon="6.91189">
        <ele>1116</ele>
        <time>2026-05-09T20:33:09.993Z</time>
      </trkpt>
      <trkpt lat="47.85759" lon="6.91191">
        <ele>1116</ele>
        <time>2026-05-09T20:33:10.993Z</time>
      </trkpt>
      <trkpt lat="47.85759" lon="6.91193">
        <ele>1115</ele>
        <time>2026-05-09T20:33:11.993Z</time>
      </trkpt>
      <trkpt lat="47.8576" lon="6.91194">
        <ele>1115</ele>
        <time>2026-05-09T20:33:12.993Z</time>
      </trkpt>
      <trkpt lat="47.85759" lon="6.91195">
        <ele>1115</ele>
        <time>2026-05-09T20:33:13.993Z</time>
      </trkpt>
      <trkpt lat="47.85759" lon="6.91195">
        <ele>1114</ele>
        <time>2026-05-09T20:33:14.993Z</time>
      </trkpt>
      <trkpt lat="47.85758" lon="6.91196">
        <ele>1114</ele>
        <time>2026-05-09T20:33:15.993Z</time>
      </trkpt>
      <trkpt lat="47.85758" lon="6.91197">
        <ele>1113</ele>
        <time>2026-05-09T20:33:16.993Z</time>
      </trkpt>
      <trkpt lat="47.85757" lon="6.91198">
        <ele>1112</ele>
        <time>2026-05-09T20:33:17.993Z</time>
      </trkpt>
      <trkpt lat="47.85757" lon="6.91199">
        <ele>1112</ele>
        <time>2026-05-09T20:33:18.993Z</time>
      </trkpt>
      <trkpt lat="47.85757" lon="6.91199">
        <ele>1112</ele>
        <time>2026-05-09T20:33:19.994Z</time>
      </trkpt>
      <trkpt lat="47.85757" lon="6.912">
        <ele>1111</ele>
        <time>2026-05-09T20:33:20.994Z</time>
      </trkpt>
      <trkpt lat="47.85757" lon="6.912">
        <ele>1111</ele>
        <time>2026-05-09T20:33:21.993Z</time>
      </trkpt>
      <trkpt lat="47.85757" lon="6.912">
        <ele>1111</ele>
        <time>2026-05-09T20:33:22.994Z</time>
      </trkpt>
      <trkpt lat="47.85758" lon="6.912">
        <ele>1110</ele>
        <time>2026-05-09T20:33:23.993Z</time>
      </trkpt>
      <trkpt lat="47.85758" lon="6.912">
        <ele>1110</ele>
        <time>2026-05-09T20:33:24.993Z</time>
      </trkpt>
      <trkpt lat="47.85758" lon="6.91201">
        <ele>1110</ele>
        <time>2026-05-09T20:33:25.993Z</time>
      </trkpt>
      <trkpt lat="47.85758" lon="6.912">
        <ele>1111</ele>
        <time>2026-05-09T20:33:26.994Z</time>
      </trkpt>
      <trkpt lat="47.85759" lon="6.912">
        <ele>1111</ele>
        <time>2026-05-09T20:33:27.993Z</time>
      </trkpt>
      <trkpt lat="47.85759" lon="6.912">
        <ele>1111</ele>
        <time>2026-05-09T20:33:28.993Z</time>
      </trkpt>
      <trkpt lat="47.8576" lon="6.912">
        <ele>1111</ele>
        <time>2026-05-09T20:33:29.993Z</time>
      </trkpt>
      <trkpt lat="47.85759" lon="6.91201">
        <ele>1111</ele>
        <time>2026-05-09T20:33:30.994Z</time>
      </trkpt>
      <trkpt lat="47.85758" lon="6.91203">
        <ele>1112</ele>
        <time>2026-05-09T20:33:31.993Z</time>
      </trkpt>
      <trkpt lat="47.85757" lon="6.91204">
        <ele>1112</ele>
        <time>2026-05-09T20:33:32.993Z</time>
      </trkpt>
      <trkpt lat="47.85757" lon="6.91206">
        <ele>1112</ele>
        <time>2026-05-09T20:33:33.994Z</time>
      </trkpt>
      <trkpt lat="47.85756" lon="6.91207">
        <ele>1112</ele>
        <time>2026-05-09T20:33:34.993Z</time>
      </trkpt>
      <trkpt lat="47.85755" lon="6.9121">
        <ele>1113</ele>
        <time>2026-05-09T20:33:35.993Z</time>
      </trkpt>
      <trkpt lat="47.85754" lon="6.91212">
        <ele>1113</ele>
        <time>2026-05-09T20:33:36.993Z</time>
      </trkpt>
      <trkpt lat="47.85753" lon="6.91213">
        <ele>1113</ele>
        <time>2026-05-09T20:33:37.993Z</time>
      </trkpt>
      <trkpt lat="47.85752" lon="6.91214">
        <ele>1113</ele>
        <time>2026-05-09T20:33:38.993Z</time>
      </trkpt>
      <trkpt lat="47.85751" lon="6.91216">
        <ele>1113</ele>
        <time>2026-05-09T20:33:39.994Z</time>
      </trkpt>
      <trkpt lat="47.85751" lon="6.91217">
        <ele>1114</ele>
        <time>2026-05-09T20:33:40.993Z</time>
      </trkpt>
      <trkpt lat="47.8575" lon="6.91219">
        <ele>1113</ele>
        <time>2026-05-09T20:33:41.993Z</time>
      </trkpt>
      <trkpt lat="47.8575" lon="6.91221">
        <ele>1113</ele>
        <time>2026-05-09T20:33:42.993Z</time>
      </trkpt>
      <trkpt lat="47.85749" lon="6.91223">
        <ele>1113</ele>
        <time>2026-05-09T20:33:43.994Z</time>
      </trkpt>
      <trkpt lat="47.85748" lon="6.91226">
        <ele>1113</ele>
        <time>2026-05-09T20:33:44.993Z</time>
      </trkpt>
      <trkpt lat="47.85747" lon="6.91228">
        <ele>1113</ele>
        <time>2026-05-09T20:33:45.993Z</time>
      </trkpt>
      <trkpt lat="47.85747" lon="6.91229">
        <ele>1112</ele>
        <time>2026-05-09T20:33:46.993Z</time>
      </trkpt>
      <trkpt lat="47.85746" lon="6.91232">
        <ele>1112</ele>
        <time>2026-05-09T20:33:47.994Z</time>
      </trkpt>
      <trkpt lat="47.85745" lon="6.91233">
        <ele>1112</ele>
        <time>2026-05-09T20:33:48.993Z</time>
      </trkpt>
      <trkpt lat="47.85744" lon="6.91235">
        <ele>1112</ele>
        <time>2026-05-09T20:33:49.993Z</time>
      </trkpt>
      <trkpt lat="47.85742" lon="6.91237">
        <ele>1112</ele>
        <time>2026-05-09T20:33:50.993Z</time>
      </trkpt>
      <trkpt lat="47.85742" lon="6.91239">
        <ele>1112</ele>
        <time>2026-05-09T20:33:51.993Z</time>
      </trkpt>
      <trkpt lat="47.85742" lon="6.91241">
        <ele>1112</ele>
        <time>2026-05-09T20:33:52.994Z</time>
      </trkpt>
      <trkpt lat="47.85741" lon="6.91243">
        <ele>1112</ele>
        <time>2026-05-09T20:33:53.993Z</time>
      </trkpt>
      <trkpt lat="47.85741" lon="6.91245">
        <ele>1112</ele>
        <time>2026-05-09T20:33:54.994Z</time>
      </trkpt>
      <trkpt lat="47.85741" lon="6.91247">
        <ele>1112</ele>
        <time>2026-05-09T20:33:55.994Z</time>
      </trkpt>
      <trkpt lat="47.85741" lon="6.91249">
        <ele>1112</ele>
        <time>2026-05-09T20:33:56.993Z</time>
      </trkpt>
      <trkpt lat="47.85741" lon="6.91251">
        <ele>1112</ele>
        <time>2026-05-09T20:33:57.993Z</time>
      </trkpt>
      <trkpt lat="47.8574" lon="6.91253">
        <ele>1112</ele>
        <time>2026-05-09T20:33:58.994Z</time>
      </trkpt>
      <trkpt lat="47.85739" lon="6.91255">
        <ele>1111</ele>
        <time>2026-05-09T20:33:59.994Z</time>
      </trkpt>
      <trkpt lat="47.85739" lon="6.91257">
        <ele>1111</ele>
        <time>2026-05-09T20:34:00.993Z</time>
      </trkpt>
      <trkpt lat="47.85739" lon="6.91259">
        <ele>1111</ele>
        <time>2026-05-09T20:34:01.993Z</time>
      </trkpt>
      <trkpt lat="47.85738" lon="6.9126">
        <ele>1111</ele>
        <time>2026-05-09T20:34:02.993Z</time>
      </trkpt>
      <trkpt lat="47.85737" lon="6.91262">
        <ele>1111</ele>
        <time>2026-05-09T20:34:03.993Z</time>
      </trkpt>
      <trkpt lat="47.85736" lon="6.91263">
        <ele>1111</ele>
        <time>2026-05-09T20:34:04.994Z</time>
      </trkpt>
      <trkpt lat="47.85735" lon="6.91264">
        <ele>1111</ele>
        <time>2026-05-09T20:34:05.994Z</time>
      </trkpt>
      <trkpt lat="47.85735" lon="6.91265">
        <ele>1111</ele>
        <time>2026-05-09T20:34:06.993Z</time>
      </trkpt>
      <trkpt lat="47.85734" lon="6.91267">
        <ele>1111</ele>
        <time>2026-05-09T20:34:07.994Z</time>
      </trkpt>
      <trkpt lat="47.85734" lon="6.91267">
        <ele>1111</ele>
        <time>2026-05-09T20:34:08.993Z</time>
      </trkpt>
      <trkpt lat="47.85732" lon="6.91267">
        <ele>1111</ele>
        <time>2026-05-09T20:34:09.994Z</time>
      </trkpt>
      <trkpt lat="47.85732" lon="6.91266">
        <ele>1110</ele>
        <time>2026-05-09T20:34:10.993Z</time>
      </trkpt>
      <trkpt lat="47.85732" lon="6.91266">
        <ele>1110</ele>
        <time>2026-05-09T20:34:11.993Z</time>
      </trkpt>
      <trkpt lat="47.85732" lon="6.91266">
        <ele>1110</ele>
        <time>2026-05-09T20:34:12.993Z</time>
      </trkpt>
      <trkpt lat="47.85732" lon="6.91266">
        <ele>1109</ele>
        <time>2026-05-09T20:34:13.994Z</time>
      </trkpt>
      <trkpt lat="47.8573" lon="6.91265">
        <ele>1109</ele>
        <time>2026-05-09T20:34:14.993Z</time>
      </trkpt>
      <trkpt lat="47.85731" lon="6.91265">
        <ele>1109</ele>
        <time>2026-05-09T20:34:15.993Z</time>
      </trkpt>
      <trkpt lat="47.8573" lon="6.91267">
        <ele>1108</ele>
        <time>2026-05-09T20:34:16.994Z</time>
      </trkpt>
      <trkpt lat="47.85729" lon="6.91268">
        <ele>1108</ele>
        <time>2026-05-09T20:34:17.994Z</time>
      </trkpt>
      <trkpt lat="47.85728" lon="6.9127">
        <ele>1108</ele>
        <time>2026-05-09T20:34:18.993Z</time>
      </trkpt>
      <trkpt lat="47.85726" lon="6.91271">
        <ele>1108</ele>
        <time>2026-05-09T20:34:19.994Z</time>
      </trkpt>
      <trkpt lat="47.85725" lon="6.91273">
        <ele>1108</ele>
        <time>2026-05-09T20:34:20.993Z</time>
      </trkpt>
      <trkpt lat="47.85726" lon="6.91275">
        <ele>1108</ele>
        <time>2026-05-09T20:34:21.994Z</time>
      </trkpt>
      <trkpt lat="47.85726" lon="6.91277">
        <ele>1108</ele>
        <time>2026-05-09T20:34:22.993Z</time>
      </trkpt>
      <trkpt lat="47.85727" lon="6.91279">
        <ele>1108</ele>
        <time>2026-05-09T20:34:23.993Z</time>
      </trkpt>
      <trkpt lat="47.85727" lon="6.91281">
        <ele>1108</ele>
        <time>2026-05-09T20:34:24.994Z</time>
      </trkpt>
      <trkpt lat="47.85727" lon="6.91282">
        <ele>1108</ele>
        <time>2026-05-09T20:34:25.994Z</time>
      </trkpt>
      <trkpt lat="47.85726" lon="6.91284">
        <ele>1108</ele>
        <time>2026-05-09T20:34:26.994Z</time>
      </trkpt>
      <trkpt lat="47.85726" lon="6.91285">
        <ele>1108</ele>
        <time>2026-05-09T20:34:27.993Z</time>
      </trkpt>
      <trkpt lat="47.85725" lon="6.91287">
        <ele>1108</ele>
        <time>2026-05-09T20:34:28.993Z</time>
      </trkpt>
      <trkpt lat="47.85723" lon="6.91288">
        <ele>1107</ele>
        <time>2026-05-09T20:34:29.994Z</time>
      </trkpt>
      <trkpt lat="47.85722" lon="6.91289">
        <ele>1108</ele>
        <time>2026-05-09T20:34:30.994Z</time>
      </trkpt>
      <trkpt lat="47.85721" lon="6.91291">
        <ele>1108</ele>
        <time>2026-05-09T20:34:31.994Z</time>
      </trkpt>
      <trkpt lat="47.8572" lon="6.91292">
        <ele>1108</ele>
        <time>2026-05-09T20:34:32.993Z</time>
      </trkpt>
      <trkpt lat="47.85719" lon="6.91293">
        <ele>1109</ele>
        <time>2026-05-09T20:34:33.994Z</time>
      </trkpt>
      <trkpt lat="47.85718" lon="6.91294">
        <ele>1109</ele>
        <time>2026-05-09T20:34:34.994Z</time>
      </trkpt>
      <trkpt lat="47.85718" lon="6.91296">
        <ele>1109</ele>
        <time>2026-05-09T20:34:35.993Z</time>
      </trkpt>
      <trkpt lat="47.85718" lon="6.91297">
        <ele>1109</ele>
        <time>2026-05-09T20:34:36.994Z</time>
      </trkpt>
      <trkpt lat="47.85718" lon="6.91298">
        <ele>1109</ele>
        <time>2026-05-09T20:34:37.993Z</time>
      </trkpt>
      <trkpt lat="47.85718" lon="6.91299">
        <ele>1109</ele>
        <time>2026-05-09T20:34:38.994Z</time>
      </trkpt>
      <trkpt lat="47.85718" lon="6.913">
        <ele>1109</ele>
        <time>2026-05-09T20:34:39.993Z</time>
      </trkpt>
      <trkpt lat="47.85718" lon="6.913">
        <ele>1109</ele>
        <time>2026-05-09T20:34:40.994Z</time>
      </trkpt>
      <trkpt lat="47.85718" lon="6.91301">
        <ele>1109</ele>
        <time>2026-05-09T20:34:41.993Z</time>
      </trkpt>
      <trkpt lat="47.85718" lon="6.91302">
        <ele>1109</ele>
        <time>2026-05-09T20:34:42.993Z</time>
      </trkpt>
      <trkpt lat="47.85718" lon="6.91303">
        <ele>1109</ele>
        <time>2026-05-09T20:34:43.994Z</time>
      </trkpt>
      <trkpt lat="47.85718" lon="6.91305">
        <ele>1109</ele>
        <time>2026-05-09T20:34:44.994Z</time>
      </trkpt>
      <trkpt lat="47.85718" lon="6.91306">
        <ele>1109</ele>
        <time>2026-05-09T20:34:45.993Z</time>
      </trkpt>
      <trkpt lat="47.85717" lon="6.91308">
        <ele>1108</ele>
        <time>2026-05-09T20:34:46.994Z</time>
      </trkpt>
      <trkpt lat="47.85716" lon="6.91309">
        <ele>1108</ele>
        <time>2026-05-09T20:34:47.994Z</time>
      </trkpt>
      <trkpt lat="47.85715" lon="6.91311">
        <ele>1108</ele>
        <time>2026-05-09T20:34:48.993Z</time>
      </trkpt>
      <trkpt lat="47.85714" lon="6.91313">
        <ele>1108</ele>
        <time>2026-05-09T20:34:49.994Z</time>
      </trkpt>
      <trkpt lat="47.85714" lon="6.91316">
        <ele>1108</ele>
        <time>2026-05-09T20:34:50.994Z</time>
      </trkpt>
      <trkpt lat="47.85713" lon="6.91318">
        <ele>1107</ele>
        <time>2026-05-09T20:34:51.994Z</time>
      </trkpt>
      <trkpt lat="47.85712" lon="6.9132">
        <ele>1107</ele>
        <time>2026-05-09T20:34:52.993Z</time>
      </trkpt>
      <trkpt lat="47.85712" lon="6.91322">
        <ele>1106</ele>
        <time>2026-05-09T20:34:53.994Z</time>
      </trkpt>
      <trkpt lat="47.85711" lon="6.91324">
        <ele>1106</ele>
        <time>2026-05-09T20:34:54.993Z</time>
      </trkpt>
      <trkpt lat="47.85711" lon="6.91326">
        <ele>1105</ele>
        <time>2026-05-09T20:34:55.994Z</time>
      </trkpt>
      <trkpt lat="47.8571" lon="6.91329">
        <ele>1105</ele>
        <time>2026-05-09T20:34:56.993Z</time>
      </trkpt>
      <trkpt lat="47.8571" lon="6.91331">
        <ele>1105</ele>
        <time>2026-05-09T20:34:57.993Z</time>
      </trkpt>
      <trkpt lat="47.85709" lon="6.91333">
        <ele>1104</ele>
        <time>2026-05-09T20:34:58.994Z</time>
      </trkpt>
      <trkpt lat="47.85709" lon="6.91335">
        <ele>1104</ele>
        <time>2026-05-09T20:34:59.994Z</time>
      </trkpt>
      <trkpt lat="47.85709" lon="6.91337">
        <ele>1104</ele>
        <time>2026-05-09T20:35:00.994Z</time>
      </trkpt>
      <trkpt lat="47.85708" lon="6.91338">
        <ele>1104</ele>
        <time>2026-05-09T20:35:01.994Z</time>
      </trkpt>
      <trkpt lat="47.85707" lon="6.9134">
        <ele>1103</ele>
        <time>2026-05-09T20:35:02.993Z</time>
      </trkpt>
      <trkpt lat="47.85707" lon="6.91342">
        <ele>1103</ele>
        <time>2026-05-09T20:35:03.994Z</time>
      </trkpt>
      <trkpt lat="47.85706" lon="6.91343">
        <ele>1103</ele>
        <time>2026-05-09T20:35:04.994Z</time>
      </trkpt>
      <trkpt lat="47.85706" lon="6.91345">
        <ele>1103</ele>
        <time>2026-05-09T20:35:05.993Z</time>
      </trkpt>
      <trkpt lat="47.85705" lon="6.91347">
        <ele>1102</ele>
        <time>2026-05-09T20:35:06.994Z</time>
      </trkpt>
      <trkpt lat="47.85704" lon="6.91349">
        <ele>1102</ele>
        <time>2026-05-09T20:35:07.994Z</time>
      </trkpt>
      <trkpt lat="47.85703" lon="6.91351">
        <ele>1102</ele>
        <time>2026-05-09T20:35:08.993Z</time>
      </trkpt>
      <trkpt lat="47.85703" lon="6.91352">
        <ele>1101</ele>
        <time>2026-05-09T20:35:09.994Z</time>
      </trkpt>
      <trkpt lat="47.85702" lon="6.91354">
        <ele>1101</ele>
        <time>2026-05-09T20:35:10.994Z</time>
      </trkpt>
      <trkpt lat="47.85702" lon="6.91356">
        <ele>1101</ele>
        <time>2026-05-09T20:35:11.993Z</time>
      </trkpt>
      <trkpt lat="47.85701" lon="6.91357">
        <ele>1101</ele>
        <time>2026-05-09T20:35:12.994Z</time>
      </trkpt>
      <trkpt lat="47.857" lon="6.91359">
        <ele>1101</ele>
        <time>2026-05-09T20:35:13.994Z</time>
      </trkpt>
      <trkpt lat="47.857" lon="6.91361">
        <ele>1101</ele>
        <time>2026-05-09T20:35:14.993Z</time>
      </trkpt>
      <trkpt lat="47.85699" lon="6.91363">
        <ele>1101</ele>
        <time>2026-05-09T20:35:15.993Z</time>
      </trkpt>
      <trkpt lat="47.85699" lon="6.91364">
        <ele>1101</ele>
        <time>2026-05-09T20:35:16.994Z</time>
      </trkpt>
      <trkpt lat="47.85698" lon="6.91366">
        <ele>1101</ele>
        <time>2026-05-09T20:35:17.993Z</time>
      </trkpt>
      <trkpt lat="47.85698" lon="6.91368">
        <ele>1101</ele>
        <time>2026-05-09T20:35:18.994Z</time>
      </trkpt>
      <trkpt lat="47.85697" lon="6.9137">
        <ele>1100</ele>
        <time>2026-05-09T20:35:19.993Z</time>
      </trkpt>
      <trkpt lat="47.85696" lon="6.91372">
        <ele>1100</ele>
        <time>2026-05-09T20:35:20.994Z</time>
      </trkpt>
      <trkpt lat="47.85695" lon="6.91374">
        <ele>1100</ele>
        <time>2026-05-09T20:35:21.993Z</time>
      </trkpt>
      <trkpt lat="47.85694" lon="6.91377">
        <ele>1099</ele>
        <time>2026-05-09T20:35:22.994Z</time>
      </trkpt>
      <trkpt lat="47.85693" lon="6.91379">
        <ele>1099</ele>
        <time>2026-05-09T20:35:23.994Z</time>
      </trkpt>
      <trkpt lat="47.85693" lon="6.91381">
        <ele>1099</ele>
        <time>2026-05-09T20:35:24.993Z</time>
      </trkpt>
      <trkpt lat="47.85692" lon="6.91382">
        <ele>1098</ele>
        <time>2026-05-09T20:35:25.993Z</time>
      </trkpt>
      <trkpt lat="47.85691" lon="6.91384">
        <ele>1098</ele>
        <time>2026-05-09T20:35:26.994Z</time>
      </trkpt>
      <trkpt lat="47.8569" lon="6.91386">
        <ele>1098</ele>
        <time>2026-05-09T20:35:27.993Z</time>
      </trkpt>
      <trkpt lat="47.85689" lon="6.91388">
        <ele>1097</ele>
        <time>2026-05-09T20:35:28.994Z</time>
      </trkpt>
      <trkpt lat="47.85688" lon="6.91389">
        <ele>1097</ele>
        <time>2026-05-09T20:35:29.994Z</time>
      </trkpt>
      <trkpt lat="47.85687" lon="6.91391">
        <ele>1097</ele>
        <time>2026-05-09T20:35:30.993Z</time>
      </trkpt>
      <trkpt lat="47.85686" lon="6.91393">
        <ele>1097</ele>
        <time>2026-05-09T20:35:31.994Z</time>
      </trkpt>
      <trkpt lat="47.85685" lon="6.91394">
        <ele>1097</ele>
        <time>2026-05-09T20:35:32.994Z</time>
      </trkpt>
      <trkpt lat="47.85684" lon="6.91396">
        <ele>1097</ele>
        <time>2026-05-09T20:35:33.993Z</time>
      </trkpt>
      <trkpt lat="47.85682" lon="6.91398">
        <ele>1097</ele>
        <time>2026-05-09T20:35:34.993Z</time>
      </trkpt>
      <trkpt lat="47.85681" lon="6.914">
        <ele>1097</ele>
        <time>2026-05-09T20:35:35.994Z</time>
      </trkpt>
      <trkpt lat="47.8568" lon="6.91402">
        <ele>1097</ele>
        <time>2026-05-09T20:35:36.994Z</time>
      </trkpt>
      <trkpt lat="47.85678" lon="6.91403">
        <ele>1097</ele>
        <time>2026-05-09T20:35:37.993Z</time>
      </trkpt>
      <trkpt lat="47.85677" lon="6.91404">
        <ele>1097</ele>
        <time>2026-05-09T20:35:38.994Z</time>
      </trkpt>
      <trkpt lat="47.85676" lon="6.91406">
        <ele>1097</ele>
        <time>2026-05-09T20:35:39.993Z</time>
      </trkpt>
      <trkpt lat="47.85675" lon="6.91407">
        <ele>1097</ele>
        <time>2026-05-09T20:35:40.994Z</time>
      </trkpt>
      <trkpt lat="47.85675" lon="6.91408">
        <ele>1097</ele>
        <time>2026-05-09T20:35:41.994Z</time>
      </trkpt>
      <trkpt lat="47.85674" lon="6.91409">
        <ele>1096</ele>
        <time>2026-05-09T20:35:42.994Z</time>
      </trkpt>
      <trkpt lat="47.85674" lon="6.91411">
        <ele>1096</ele>
        <time>2026-05-09T20:35:43.993Z</time>
      </trkpt>
      <trkpt lat="47.85673" lon="6.91412">
        <ele>1096</ele>
        <time>2026-05-09T20:35:44.993Z</time>
      </trkpt>
      <trkpt lat="47.85672" lon="6.91414">
        <ele>1096</ele>
        <time>2026-05-09T20:35:45.993Z</time>
      </trkpt>
      <trkpt lat="47.85671" lon="6.91415">
        <ele>1096</ele>
        <time>2026-05-09T20:35:46.994Z</time>
      </trkpt>
      <trkpt lat="47.8567" lon="6.91417">
        <ele>1095</ele>
        <time>2026-05-09T20:35:47.993Z</time>
      </trkpt>
      <trkpt lat="47.85669" lon="6.91419">
        <ele>1095</ele>
        <time>2026-05-09T20:35:48.994Z</time>
      </trkpt>
      <trkpt lat="47.85668" lon="6.91421">
        <ele>1094</ele>
        <time>2026-05-09T20:35:49.994Z</time>
      </trkpt>
      <trkpt lat="47.85667" lon="6.91422">
        <ele>1094</ele>
        <time>2026-05-09T20:35:50.993Z</time>
      </trkpt>
      <trkpt lat="47.85667" lon="6.91423">
        <ele>1093</ele>
        <time>2026-05-09T20:35:51.993Z</time>
      </trkpt>
      <trkpt lat="47.85666" lon="6.91424">
        <ele>1093</ele>
        <time>2026-05-09T20:35:52.994Z</time>
      </trkpt>
      <trkpt lat="47.85665" lon="6.91425">
        <ele>1093</ele>
        <time>2026-05-09T20:35:53.993Z</time>
      </trkpt>
      <trkpt lat="47.85665" lon="6.91427">
        <ele>1093</ele>
        <time>2026-05-09T20:35:54.993Z</time>
      </trkpt>
      <trkpt lat="47.85664" lon="6.91428">
        <ele>1093</ele>
        <time>2026-05-09T20:35:55.993Z</time>
      </trkpt>
      <trkpt lat="47.85663" lon="6.9143">
        <ele>1092</ele>
        <time>2026-05-09T20:35:56.993Z</time>
      </trkpt>
      <trkpt lat="47.85662" lon="6.91431">
        <ele>1092</ele>
        <time>2026-05-09T20:35:57.993Z</time>
      </trkpt>
      <trkpt lat="47.85662" lon="6.91432">
        <ele>1092</ele>
        <time>2026-05-09T20:35:58.994Z</time>
      </trkpt>
      <trkpt lat="47.85661" lon="6.91434">
        <ele>1092</ele>
        <time>2026-05-09T20:35:59.993Z</time>
      </trkpt>
      <trkpt lat="47.8566" lon="6.91436">
        <ele>1092</ele>
        <time>2026-05-09T20:36:00.993Z</time>
      </trkpt>
      <trkpt lat="47.85659" lon="6.91438">
        <ele>1093</ele>
        <time>2026-05-09T20:36:01.994Z</time>
      </trkpt>
      <trkpt lat="47.85658" lon="6.91439">
        <ele>1093</ele>
        <time>2026-05-09T20:36:02.994Z</time>
      </trkpt>
      <trkpt lat="47.85657" lon="6.9144">
        <ele>1093</ele>
        <time>2026-05-09T20:36:03.993Z</time>
      </trkpt>
      <trkpt lat="47.85656" lon="6.91442">
        <ele>1093</ele>
        <time>2026-05-09T20:36:04.994Z</time>
      </trkpt>
      <trkpt lat="47.85655" lon="6.91443">
        <ele>1093</ele>
        <time>2026-05-09T20:36:05.993Z</time>
      </trkpt>
      <trkpt lat="47.85654" lon="6.91445">
        <ele>1093</ele>
        <time>2026-05-09T20:36:06.994Z</time>
      </trkpt>
      <trkpt lat="47.85654" lon="6.91446">
        <ele>1093</ele>
        <time>2026-05-09T20:36:07.993Z</time>
      </trkpt>
      <trkpt lat="47.85653" lon="6.91447">
        <ele>1093</ele>
        <time>2026-05-09T20:36:08.993Z</time>
      </trkpt>
      <trkpt lat="47.85652" lon="6.91449">
        <ele>1093</ele>
        <time>2026-05-09T20:36:09.994Z</time>
      </trkpt>
      <trkpt lat="47.85652" lon="6.9145">
        <ele>1093</ele>
        <time>2026-05-09T20:36:10.993Z</time>
      </trkpt>
      <trkpt lat="47.85651" lon="6.91452">
        <ele>1093</ele>
        <time>2026-05-09T20:36:11.994Z</time>
      </trkpt>
      <trkpt lat="47.8565" lon="6.91454">
        <ele>1093</ele>
        <time>2026-05-09T20:36:12.994Z</time>
      </trkpt>
      <trkpt lat="47.85649" lon="6.91455">
        <ele>1092</ele>
        <time>2026-05-09T20:36:13.993Z</time>
      </trkpt>
      <trkpt lat="47.85648" lon="6.91456">
        <ele>1092</ele>
        <time>2026-05-09T20:36:14.993Z</time>
      </trkpt>
      <trkpt lat="47.85647" lon="6.91457">
        <ele>1092</ele>
        <time>2026-05-09T20:36:15.993Z</time>
      </trkpt>
      <trkpt lat="47.85646" lon="6.9146">
        <ele>1092</ele>
        <time>2026-05-09T20:36:16.993Z</time>
      </trkpt>
      <trkpt lat="47.85646" lon="6.91463">
        <ele>1092</ele>
        <time>2026-05-09T20:36:17.993Z</time>
      </trkpt>
      <trkpt lat="47.85645" lon="6.91464">
        <ele>1092</ele>
        <time>2026-05-09T20:36:18.993Z</time>
      </trkpt>
      <trkpt lat="47.85645" lon="6.91466">
        <ele>1093</ele>
        <time>2026-05-09T20:36:19.994Z</time>
      </trkpt>
      <trkpt lat="47.85644" lon="6.91468">
        <ele>1093</ele>
        <time>2026-05-09T20:36:20.993Z</time>
      </trkpt>
      <trkpt lat="47.85644" lon="6.9147">
        <ele>1093</ele>
        <time>2026-05-09T20:36:21.993Z</time>
      </trkpt>
      <trkpt lat="47.85643" lon="6.91472">
        <ele>1093</ele>
        <time>2026-05-09T20:36:22.993Z</time>
      </trkpt>
      <trkpt lat="47.85642" lon="6.91474">
        <ele>1094</ele>
        <time>2026-05-09T20:36:23.994Z</time>
      </trkpt>
      <trkpt lat="47.85641" lon="6.91475">
        <ele>1094</ele>
        <time>2026-05-09T20:36:24.993Z</time>
      </trkpt>
      <trkpt lat="47.85641" lon="6.91477">
        <ele>1094</ele>
        <time>2026-05-09T20:36:25.993Z</time>
      </trkpt>
      <trkpt lat="47.8564" lon="6.91479">
        <ele>1094</ele>
        <time>2026-05-09T20:36:26.993Z</time>
      </trkpt>
      <trkpt lat="47.85639" lon="6.9148">
        <ele>1094</ele>
        <time>2026-05-09T20:36:27.993Z</time>
      </trkpt>
      <trkpt lat="47.85638" lon="6.91482">
        <ele>1094</ele>
        <time>2026-05-09T20:36:28.993Z</time>
      </trkpt>
      <trkpt lat="47.85638" lon="6.91483">
        <ele>1094</ele>
        <time>2026-05-09T20:36:29.993Z</time>
      </trkpt>
      <trkpt lat="47.85637" lon="6.91486">
        <ele>1094</ele>
        <time>2026-05-09T20:36:30.994Z</time>
      </trkpt>
      <trkpt lat="47.85637" lon="6.91487">
        <ele>1094</ele>
        <time>2026-05-09T20:36:31.993Z</time>
      </trkpt>
      <trkpt lat="47.85636" lon="6.91489">
        <ele>1094</ele>
        <time>2026-05-09T20:36:32.993Z</time>
      </trkpt>
      <trkpt lat="47.85635" lon="6.91491">
        <ele>1094</ele>
        <time>2026-05-09T20:36:33.993Z</time>
      </trkpt>
      <trkpt lat="47.85635" lon="6.91493">
        <ele>1094</ele>
        <time>2026-05-09T20:36:34.994Z</time>
      </trkpt>
      <trkpt lat="47.85634" lon="6.91495">
        <ele>1094</ele>
        <time>2026-05-09T20:36:35.993Z</time>
      </trkpt>
      <trkpt lat="47.85634" lon="6.91497">
        <ele>1094</ele>
        <time>2026-05-09T20:36:36.993Z</time>
      </trkpt>
      <trkpt lat="47.85633" lon="6.91499">
        <ele>1094</ele>
        <time>2026-05-09T20:36:37.994Z</time>
      </trkpt>
      <trkpt lat="47.85633" lon="6.91501">
        <ele>1094</ele>
        <time>2026-05-09T20:36:38.994Z</time>
      </trkpt>
      <trkpt lat="47.85632" lon="6.91502">
        <ele>1093</ele>
        <time>2026-05-09T20:36:39.993Z</time>
      </trkpt>
      <trkpt lat="47.85631" lon="6.91505">
        <ele>1093</ele>
        <time>2026-05-09T20:36:40.994Z</time>
      </trkpt>
      <trkpt lat="47.8563" lon="6.91506">
        <ele>1093</ele>
        <time>2026-05-09T20:36:41.994Z</time>
      </trkpt>
      <trkpt lat="47.8563" lon="6.91508">
        <ele>1093</ele>
        <time>2026-05-09T20:36:42.994Z</time>
      </trkpt>
      <trkpt lat="47.85628" lon="6.9151">
        <ele>1093</ele>
        <time>2026-05-09T20:36:43.993Z</time>
      </trkpt>
      <trkpt lat="47.85628" lon="6.91512">
        <ele>1093</ele>
        <time>2026-05-09T20:36:44.993Z</time>
      </trkpt>
      <trkpt lat="47.85627" lon="6.91514">
        <ele>1093</ele>
        <time>2026-05-09T20:36:45.993Z</time>
      </trkpt>
      <trkpt lat="47.85627" lon="6.91516">
        <ele>1092</ele>
        <time>2026-05-09T20:36:46.994Z</time>
      </trkpt>
      <trkpt lat="47.85626" lon="6.91518">
        <ele>1092</ele>
        <time>2026-05-09T20:36:47.993Z</time>
      </trkpt>
      <trkpt lat="47.85626" lon="6.91519">
        <ele>1092</ele>
        <time>2026-05-09T20:36:48.994Z</time>
      </trkpt>
      <trkpt lat="47.85625" lon="6.91521">
        <ele>1092</ele>
        <time>2026-05-09T20:36:49.993Z</time>
      </trkpt>
      <trkpt lat="47.85624" lon="6.91523">
        <ele>1092</ele>
        <time>2026-05-09T20:36:50.993Z</time>
      </trkpt>
      <trkpt lat="47.85624" lon="6.91525">
        <ele>1092</ele>
        <time>2026-05-09T20:36:51.993Z</time>
      </trkpt>
      <trkpt lat="47.85623" lon="6.91526">
        <ele>1092</ele>
        <time>2026-05-09T20:36:52.994Z</time>
      </trkpt>
      <trkpt lat="47.85622" lon="6.91528">
        <ele>1092</ele>
        <time>2026-05-09T20:36:53.994Z</time>
      </trkpt>
      <trkpt lat="47.85622" lon="6.9153">
        <ele>1092</ele>
        <time>2026-05-09T20:36:54.993Z</time>
      </trkpt>
      <trkpt lat="47.85621" lon="6.91531">
        <ele>1092</ele>
        <time>2026-05-09T20:36:55.993Z</time>
      </trkpt>
      <trkpt lat="47.8562" lon="6.91533">
        <ele>1092</ele>
        <time>2026-05-09T20:36:56.994Z</time>
      </trkpt>
      <trkpt lat="47.85619" lon="6.91535">
        <ele>1092</ele>
        <time>2026-05-09T20:36:57.993Z</time>
      </trkpt>
      <trkpt lat="47.85619" lon="6.91537">
        <ele>1092</ele>
        <time>2026-05-09T20:36:58.993Z</time>
      </trkpt>
      <trkpt lat="47.85618" lon="6.91538">
        <ele>1092</ele>
        <time>2026-05-09T20:36:59.993Z</time>
      </trkpt>
      <trkpt lat="47.85618" lon="6.9154">
        <ele>1092</ele>
        <time>2026-05-09T20:37:00.993Z</time>
      </trkpt>
      <trkpt lat="47.85617" lon="6.91542">
        <ele>1092</ele>
        <time>2026-05-09T20:37:01.993Z</time>
      </trkpt>
      <trkpt lat="47.85616" lon="6.91544">
        <ele>1092</ele>
        <time>2026-05-09T20:37:02.993Z</time>
      </trkpt>
      <trkpt lat="47.85615" lon="6.91546">
        <ele>1092</ele>
        <time>2026-05-09T20:37:03.994Z</time>
      </trkpt>
      <trkpt lat="47.85615" lon="6.91547">
        <ele>1092</ele>
        <time>2026-05-09T20:37:04.993Z</time>
      </trkpt>
      <trkpt lat="47.85614" lon="6.91549">
        <ele>1092</ele>
        <time>2026-05-09T20:37:05.993Z</time>
      </trkpt>
      <trkpt lat="47.85613" lon="6.91551">
        <ele>1092</ele>
        <time>2026-05-09T20:37:06.994Z</time>
      </trkpt>
      <trkpt lat="47.85612" lon="6.91553">
        <ele>1092</ele>
        <time>2026-05-09T20:37:07.993Z</time>
      </trkpt>
      <trkpt lat="47.85612" lon="6.91555">
        <ele>1092</ele>
        <time>2026-05-09T20:37:08.994Z</time>
      </trkpt>
      <trkpt lat="47.85611" lon="6.91557">
        <ele>1092</ele>
        <time>2026-05-09T20:37:09.993Z</time>
      </trkpt>
      <trkpt lat="47.8561" lon="6.91559">
        <ele>1093</ele>
        <time>2026-05-09T20:37:10.994Z</time>
      </trkpt>
      <trkpt lat="47.8561" lon="6.91562">
        <ele>1093</ele>
        <time>2026-05-09T20:37:11.993Z</time>
      </trkpt>
      <trkpt lat="47.8561" lon="6.91564">
        <ele>1093</ele>
        <time>2026-05-09T20:37:12.994Z</time>
      </trkpt>
      <trkpt lat="47.85609" lon="6.91566">
        <ele>1093</ele>
        <time>2026-05-09T20:37:13.993Z</time>
      </trkpt>
      <trkpt lat="47.85609" lon="6.91567">
        <ele>1093</ele>
        <time>2026-05-09T20:37:14.993Z</time>
      </trkpt>
      <trkpt lat="47.85608" lon="6.9157">
        <ele>1093</ele>
        <time>2026-05-09T20:37:15.994Z</time>
      </trkpt>
      <trkpt lat="47.85608" lon="6.91572">
        <ele>1093</ele>
        <time>2026-05-09T20:37:16.994Z</time>
      </trkpt>
      <trkpt lat="47.85608" lon="6.91574">
        <ele>1093</ele>
        <time>2026-05-09T20:37:17.993Z</time>
      </trkpt>
      <trkpt lat="47.85607" lon="6.91576">
        <ele>1093</ele>
        <time>2026-05-09T20:37:18.993Z</time>
      </trkpt>
      <trkpt lat="47.85607" lon="6.91578">
        <ele>1093</ele>
        <time>2026-05-09T20:37:19.993Z</time>
      </trkpt>
      <trkpt lat="47.85607" lon="6.9158">
        <ele>1093</ele>
        <time>2026-05-09T20:37:20.993Z</time>
      </trkpt>
      <trkpt lat="47.85606" lon="6.91582">
        <ele>1093</ele>
        <time>2026-05-09T20:37:21.994Z</time>
      </trkpt>
      <trkpt lat="47.85606" lon="6.91584">
        <ele>1092</ele>
        <time>2026-05-09T20:37:22.993Z</time>
      </trkpt>
      <trkpt lat="47.85606" lon="6.91586">
        <ele>1092</ele>
        <time>2026-05-09T20:37:23.993Z</time>
      </trkpt>
      <trkpt lat="47.85606" lon="6.91588">
        <ele>1092</ele>
        <time>2026-05-09T20:37:24.994Z</time>
      </trkpt>
      <trkpt lat="47.85605" lon="6.9159">
        <ele>1093</ele>
        <time>2026-05-09T20:37:25.993Z</time>
      </trkpt>
      <trkpt lat="47.85604" lon="6.91591">
        <ele>1093</ele>
        <time>2026-05-09T20:37:26.993Z</time>
      </trkpt>
      <trkpt lat="47.85604" lon="6.91594">
        <ele>1093</ele>
        <time>2026-05-09T20:37:27.994Z</time>
      </trkpt>
      <trkpt lat="47.85604" lon="6.91596">
        <ele>1093</ele>
        <time>2026-05-09T20:37:28.993Z</time>
      </trkpt>
      <trkpt lat="47.85603" lon="6.91598">
        <ele>1094</ele>
        <time>2026-05-09T20:37:29.993Z</time>
      </trkpt>
      <trkpt lat="47.85603" lon="6.91601">
        <ele>1094</ele>
        <time>2026-05-09T20:37:30.994Z</time>
      </trkpt>
      <trkpt lat="47.85603" lon="6.91603">
        <ele>1093</ele>
        <time>2026-05-09T20:37:31.993Z</time>
      </trkpt>
      <trkpt lat="47.85604" lon="6.91605">
        <ele>1093</ele>
        <time>2026-05-09T20:37:32.993Z</time>
      </trkpt>
      <trkpt lat="47.85603" lon="6.91607">
        <ele>1093</ele>
        <time>2026-05-09T20:37:33.993Z</time>
      </trkpt>
      <trkpt lat="47.85603" lon="6.91609">
        <ele>1093</ele>
        <time>2026-05-09T20:37:34.994Z</time>
      </trkpt>
      <trkpt lat="47.85602" lon="6.9161">
        <ele>1093</ele>
        <time>2026-05-09T20:37:35.994Z</time>
      </trkpt>
      <trkpt lat="47.85601" lon="6.91613">
        <ele>1093</ele>
        <time>2026-05-09T20:37:36.993Z</time>
      </trkpt>
      <trkpt lat="47.85601" lon="6.91615">
        <ele>1093</ele>
        <time>2026-05-09T20:37:37.993Z</time>
      </trkpt>
      <trkpt lat="47.856" lon="6.91617">
        <ele>1093</ele>
        <time>2026-05-09T20:37:38.993Z</time>
      </trkpt>
      <trkpt lat="47.856" lon="6.91619">
        <ele>1093</ele>
        <time>2026-05-09T20:37:39.993Z</time>
      </trkpt>
      <trkpt lat="47.856" lon="6.91621">
        <ele>1094</ele>
        <time>2026-05-09T20:37:40.993Z</time>
      </trkpt>
      <trkpt lat="47.85599" lon="6.91623">
        <ele>1094</ele>
        <time>2026-05-09T20:37:41.993Z</time>
      </trkpt>
      <trkpt lat="47.85599" lon="6.91625">
        <ele>1094</ele>
        <time>2026-05-09T20:37:42.994Z</time>
      </trkpt>
      <trkpt lat="47.85599" lon="6.91628">
        <ele>1093</ele>
        <time>2026-05-09T20:37:43.993Z</time>
      </trkpt>
      <trkpt lat="47.85598" lon="6.91629">
        <ele>1093</ele>
        <time>2026-05-09T20:37:44.994Z</time>
      </trkpt>
      <trkpt lat="47.85598" lon="6.91632">
        <ele>1093</ele>
        <time>2026-05-09T20:37:45.994Z</time>
      </trkpt>
      <trkpt lat="47.85598" lon="6.91634">
        <ele>1093</ele>
        <time>2026-05-09T20:37:46.993Z</time>
      </trkpt>
      <trkpt lat="47.85598" lon="6.91636">
        <ele>1093</ele>
        <time>2026-05-09T20:37:47.993Z</time>
      </trkpt>
      <trkpt lat="47.85598" lon="6.91637">
        <ele>1093</ele>
        <time>2026-05-09T20:37:48.993Z</time>
      </trkpt>
      <trkpt lat="47.85597" lon="6.9164">
        <ele>1092</ele>
        <time>2026-05-09T20:37:49.993Z</time>
      </trkpt>
      <trkpt lat="47.85597" lon="6.91642">
        <ele>1092</ele>
        <time>2026-05-09T20:37:50.993Z</time>
      </trkpt>
      <trkpt lat="47.85597" lon="6.91644">
        <ele>1092</ele>
        <time>2026-05-09T20:37:51.994Z</time>
      </trkpt>
      <trkpt lat="47.85597" lon="6.91646">
        <ele>1091</ele>
        <time>2026-05-09T20:37:52.994Z</time>
      </trkpt>
      <trkpt lat="47.85596" lon="6.91648">
        <ele>1091</ele>
        <time>2026-05-09T20:37:53.993Z</time>
      </trkpt>
      <trkpt lat="47.85596" lon="6.9165">
        <ele>1091</ele>
        <time>2026-05-09T20:37:54.993Z</time>
      </trkpt>
      <trkpt lat="47.85596" lon="6.91653">
        <ele>1091</ele>
        <time>2026-05-09T20:37:55.994Z</time>
      </trkpt>
      <trkpt lat="47.85595" lon="6.91655">
        <ele>1091</ele>
        <time>2026-05-09T20:37:56.993Z</time>
      </trkpt>
      <trkpt lat="47.85595" lon="6.91657">
        <ele>1091</ele>
        <time>2026-05-09T20:37:57.993Z</time>
      </trkpt>
      <trkpt lat="47.85595" lon="6.9166">
        <ele>1091</ele>
        <time>2026-05-09T20:37:58.994Z</time>
      </trkpt>
      <trkpt lat="47.85594" lon="6.91662">
        <ele>1091</ele>
        <time>2026-05-09T20:37:59.993Z</time>
      </trkpt>
      <trkpt lat="47.85594" lon="6.91664">
        <ele>1091</ele>
        <time>2026-05-09T20:38:00.994Z</time>
      </trkpt>
      <trkpt lat="47.85593" lon="6.91666">
        <ele>1091</ele>
        <time>2026-05-09T20:38:01.994Z</time>
      </trkpt>
      <trkpt lat="47.85593" lon="6.91668">
        <ele>1091</ele>
        <time>2026-05-09T20:38:02.994Z</time>
      </trkpt>
      <trkpt lat="47.85592" lon="6.9167">
        <ele>1091</ele>
        <time>2026-05-09T20:38:03.993Z</time>
      </trkpt>
      <trkpt lat="47.85592" lon="6.91672">
        <ele>1091</ele>
        <time>2026-05-09T20:38:04.993Z</time>
      </trkpt>
      <trkpt lat="47.85592" lon="6.91673">
        <ele>1090</ele>
        <time>2026-05-09T20:38:05.993Z</time>
      </trkpt>
      <trkpt lat="47.85592" lon="6.91676">
        <ele>1090</ele>
        <time>2026-05-09T20:38:06.994Z</time>
      </trkpt>
      <trkpt lat="47.85591" lon="6.91678">
        <ele>1090</ele>
        <time>2026-05-09T20:38:07.993Z</time>
      </trkpt>
      <trkpt lat="47.85591" lon="6.9168">
        <ele>1089</ele>
        <time>2026-05-09T20:38:08.993Z</time>
      </trkpt>
      <trkpt lat="47.85591" lon="6.91682">
        <ele>1089</ele>
        <time>2026-05-09T20:38:09.994Z</time>
      </trkpt>
      <trkpt lat="47.85591" lon="6.91683">
        <ele>1089</ele>
        <time>2026-05-09T20:38:10.993Z</time>
      </trkpt>
      <trkpt lat="47.8559" lon="6.91686">
        <ele>1089</ele>
        <time>2026-05-09T20:38:11.993Z</time>
      </trkpt>
      <trkpt lat="47.8559" lon="6.91687">
        <ele>1089</ele>
        <time>2026-05-09T20:38:12.994Z</time>
      </trkpt>
      <trkpt lat="47.85589" lon="6.91689">
        <ele>1089</ele>
        <time>2026-05-09T20:38:13.993Z</time>
      </trkpt>
      <trkpt lat="47.85589" lon="6.91691">
        <ele>1089</ele>
        <time>2026-05-09T20:38:14.993Z</time>
      </trkpt>
      <trkpt lat="47.85588" lon="6.91693">
        <ele>1089</ele>
        <time>2026-05-09T20:38:15.994Z</time>
      </trkpt>
      <trkpt lat="47.85588" lon="6.91694">
        <ele>1088</ele>
        <time>2026-05-09T20:38:16.993Z</time>
      </trkpt>
      <trkpt lat="47.85587" lon="6.91696">
        <ele>1088</ele>
        <time>2026-05-09T20:38:17.993Z</time>
      </trkpt>
      <trkpt lat="47.85586" lon="6.91697">
        <ele>1088</ele>
        <time>2026-05-09T20:38:18.994Z</time>
      </trkpt>
      <trkpt lat="47.85586" lon="6.91698">
        <ele>1088</ele>
        <time>2026-05-09T20:38:19.993Z</time>
      </trkpt>
      <trkpt lat="47.85585" lon="6.917">
        <ele>1088</ele>
        <time>2026-05-09T20:38:20.993Z</time>
      </trkpt>
      <trkpt lat="47.85584" lon="6.91702">
        <ele>1088</ele>
        <time>2026-05-09T20:38:21.993Z</time>
      </trkpt>
      <trkpt lat="47.85583" lon="6.91704">
        <ele>1088</ele>
        <time>2026-05-09T20:38:22.993Z</time>
      </trkpt>
      <trkpt lat="47.85582" lon="6.91705">
        <ele>1088</ele>
        <time>2026-05-09T20:38:23.993Z</time>
      </trkpt>
      <trkpt lat="47.85581" lon="6.91707">
        <ele>1087</ele>
        <time>2026-05-09T20:38:24.993Z</time>
      </trkpt>
      <trkpt lat="47.8558" lon="6.91709">
        <ele>1087</ele>
        <time>2026-05-09T20:38:25.993Z</time>
      </trkpt>
      <trkpt lat="47.85579" lon="6.9171">
        <ele>1087</ele>
        <time>2026-05-09T20:38:26.993Z</time>
      </trkpt>
      <trkpt lat="47.85578" lon="6.91712">
        <ele>1087</ele>
        <time>2026-05-09T20:38:27.993Z</time>
      </trkpt>
      <trkpt lat="47.85578" lon="6.91713">
        <ele>1087</ele>
        <time>2026-05-09T20:38:28.994Z</time>
      </trkpt>
      <trkpt lat="47.85577" lon="6.91714">
        <ele>1087</ele>
        <time>2026-05-09T20:38:29.994Z</time>
      </trkpt>
      <trkpt lat="47.85577" lon="6.91714">
        <ele>1087</ele>
        <time>2026-05-09T20:38:30.994Z</time>
      </trkpt>
      <trkpt lat="47.85577" lon="6.91714">
        <ele>1089</ele>
        <time>2026-05-09T20:38:38.250Z</time>
      </trkpt>
      <trkpt lat="47.85577" lon="6.91714">
        <ele>1090</ele>
        <time>2026-05-09T20:38:39.250Z</time>
      </trkpt>
      <trkpt lat="47.85577" lon="6.91714">
        <ele>1090</ele>
        <time>2026-05-09T20:38:40.250Z</time>
      </trkpt>
      <trkpt lat="47.85577" lon="6.91714">
        <ele>1091</ele>
        <time>2026-05-09T20:38:41.250Z</time>
      </trkpt>
      <trkpt lat="47.85577" lon="6.91714">
        <ele>1092</ele>
        <time>2026-05-09T20:38:42.251Z</time>
      </trkpt>
      <trkpt lat="47.85577" lon="6.91714">
        <ele>1092</ele>
        <time>2026-05-09T20:38:43.251Z</time>
      </trkpt>
      <trkpt lat="47.85577" lon="6.91714">
        <ele>1093</ele>
        <time>2026-05-09T20:38:44.251Z</time>
      </trkpt>
      <trkpt lat="47.85577" lon="6.91714">
        <ele>1093</ele>
        <time>2026-05-09T20:38:45.250Z</time>
      </trkpt>
      <trkpt lat="47.85576" lon="6.91715">
        <ele>1093</ele>
        <time>2026-05-09T20:38:46.250Z</time>
      </trkpt>
      <trkpt lat="47.85576" lon="6.91715">
        <ele>1093</ele>
        <time>2026-05-09T20:38:47.250Z</time>
      </trkpt>
      <trkpt lat="47.85575" lon="6.91716">
        <ele>1093</ele>
        <time>2026-05-09T20:38:48.251Z</time>
      </trkpt>
      <trkpt lat="47.85574" lon="6.91718">
        <ele>1093</ele>
        <time>2026-05-09T20:38:49.250Z</time>
      </trkpt>
      <trkpt lat="47.85574" lon="6.91719">
        <ele>1093</ele>
        <time>2026-05-09T20:38:50.250Z</time>
      </trkpt>
      <trkpt lat="47.85573" lon="6.9172">
        <ele>1093</ele>
        <time>2026-05-09T20:38:51.251Z</time>
      </trkpt>
      <trkpt lat="47.85573" lon="6.91722">
        <ele>1093</ele>
        <time>2026-05-09T20:38:52.250Z</time>
      </trkpt>
      <trkpt lat="47.85572" lon="6.91723">
        <ele>1092</ele>
        <time>2026-05-09T20:38:53.250Z</time>
      </trkpt>
      <trkpt lat="47.85571" lon="6.91724">
        <ele>1092</ele>
        <time>2026-05-09T20:38:54.250Z</time>
      </trkpt>
      <trkpt lat="47.8557" lon="6.91726">
        <ele>1092</ele>
        <time>2026-05-09T20:38:55.250Z</time>
      </trkpt>
      <trkpt lat="47.85569" lon="6.91727">
        <ele>1091</ele>
        <time>2026-05-09T20:38:56.250Z</time>
      </trkpt>
      <trkpt lat="47.85568" lon="6.91728">
        <ele>1091</ele>
        <time>2026-05-09T20:38:57.250Z</time>
      </trkpt>
      <trkpt lat="47.85567" lon="6.91728">
        <ele>1090</ele>
        <time>2026-05-09T20:38:58.250Z</time>
      </trkpt>
      <trkpt lat="47.85566" lon="6.91728">
        <ele>1090</ele>
        <time>2026-05-09T20:38:59.250Z</time>
      </trkpt>
      <trkpt lat="47.85564" lon="6.91729">
        <ele>1090</ele>
        <time>2026-05-09T20:39:00.250Z</time>
      </trkpt>
      <trkpt lat="47.85563" lon="6.91729">
        <ele>1090</ele>
        <time>2026-05-09T20:39:01.251Z</time>
      </trkpt>
      <trkpt lat="47.85563" lon="6.91729">
        <ele>1089</ele>
        <time>2026-05-09T20:39:02.251Z</time>
      </trkpt>
      <trkpt lat="47.85562" lon="6.9173">
        <ele>1089</ele>
        <time>2026-05-09T20:39:03.250Z</time>
      </trkpt>
      <trkpt lat="47.85561" lon="6.91731">
        <ele>1089</ele>
        <time>2026-05-09T20:39:04.250Z</time>
      </trkpt>
      <trkpt lat="47.8556" lon="6.91731">
        <ele>1089</ele>
        <time>2026-05-09T20:39:05.250Z</time>
      </trkpt>
      <trkpt lat="47.85559" lon="6.91732">
        <ele>1089</ele>
        <time>2026-05-09T20:39:06.251Z</time>
      </trkpt>
      <trkpt lat="47.85558" lon="6.91733">
        <ele>1089</ele>
        <time>2026-05-09T20:39:07.250Z</time>
      </trkpt>
      <trkpt lat="47.85557" lon="6.91734">
        <ele>1089</ele>
        <time>2026-05-09T20:39:08.250Z</time>
      </trkpt>
      <trkpt lat="47.85556" lon="6.91734">
        <ele>1090</ele>
        <time>2026-05-09T20:39:09.250Z</time>
      </trkpt>
      <trkpt lat="47.85556" lon="6.91734">
        <ele>1090</ele>
        <time>2026-05-09T20:39:10.250Z</time>
      </trkpt>
      <trkpt lat="47.85555" lon="6.91734">
        <ele>1090</ele>
        <time>2026-05-09T20:39:11.251Z</time>
      </trkpt>
      <trkpt lat="47.85553" lon="6.91735">
        <ele>1090</ele>
        <time>2026-05-09T20:39:12.250Z</time>
      </trkpt>
      <trkpt lat="47.85552" lon="6.91736">
        <ele>1090</ele>
        <time>2026-05-09T20:39:13.250Z</time>
      </trkpt>
      <trkpt lat="47.85551" lon="6.91736">
        <ele>1090</ele>
        <time>2026-05-09T20:39:14.250Z</time>
      </trkpt>
      <trkpt lat="47.8555" lon="6.91737">
        <ele>1090</ele>
        <time>2026-05-09T20:39:15.250Z</time>
      </trkpt>
      <trkpt lat="47.85549" lon="6.91738">
        <ele>1090</ele>
        <time>2026-05-09T20:39:16.250Z</time>
      </trkpt>
      <trkpt lat="47.85547" lon="6.9174">
        <ele>1090</ele>
        <time>2026-05-09T20:39:17.250Z</time>
      </trkpt>
      <trkpt lat="47.85546" lon="6.91741">
        <ele>1090</ele>
        <time>2026-05-09T20:39:18.251Z</time>
      </trkpt>
      <trkpt lat="47.85546" lon="6.91742">
        <ele>1091</ele>
        <time>2026-05-09T20:39:19.250Z</time>
      </trkpt>
      <trkpt lat="47.85544" lon="6.91743">
        <ele>1091</ele>
        <time>2026-05-09T20:39:20.250Z</time>
      </trkpt>
      <trkpt lat="47.85543" lon="6.91744">
        <ele>1091</ele>
        <time>2026-05-09T20:39:21.251Z</time>
      </trkpt>
      <trkpt lat="47.85542" lon="6.91745">
        <ele>1091</ele>
        <time>2026-05-09T20:39:22.250Z</time>
      </trkpt>
      <trkpt lat="47.85541" lon="6.91747">
        <ele>1091</ele>
        <time>2026-05-09T20:39:23.251Z</time>
      </trkpt>
      <trkpt lat="47.8554" lon="6.91748">
        <ele>1091</ele>
        <time>2026-05-09T20:39:24.250Z</time>
      </trkpt>
      <trkpt lat="47.85539" lon="6.91749">
        <ele>1091</ele>
        <time>2026-05-09T20:39:25.250Z</time>
      </trkpt>
      <trkpt lat="47.85538" lon="6.91751">
        <ele>1090</ele>
        <time>2026-05-09T20:39:26.251Z</time>
      </trkpt>
      <trkpt lat="47.85537" lon="6.91752">
        <ele>1090</ele>
        <time>2026-05-09T20:39:27.250Z</time>
      </trkpt>
      <trkpt lat="47.85536" lon="6.91753">
        <ele>1090</ele>
        <time>2026-05-09T20:39:28.250Z</time>
      </trkpt>
      <trkpt lat="47.85535" lon="6.91754">
        <ele>1090</ele>
        <time>2026-05-09T20:39:29.250Z</time>
      </trkpt>
      <trkpt lat="47.85534" lon="6.91755">
        <ele>1090</ele>
        <time>2026-05-09T20:39:30.251Z</time>
      </trkpt>
      <trkpt lat="47.85533" lon="6.91756">
        <ele>1090</ele>
        <time>2026-05-09T20:39:31.251Z</time>
      </trkpt>
      <trkpt lat="47.85532" lon="6.91757">
        <ele>1090</ele>
        <time>2026-05-09T20:39:32.250Z</time>
      </trkpt>
      <trkpt lat="47.85531" lon="6.91758">
        <ele>1090</ele>
        <time>2026-05-09T20:39:33.250Z</time>
      </trkpt>
      <trkpt lat="47.8553" lon="6.91759">
        <ele>1090</ele>
        <time>2026-05-09T20:39:34.251Z</time>
      </trkpt>
      <trkpt lat="47.85529" lon="6.9176">
        <ele>1090</ele>
        <time>2026-05-09T20:39:35.250Z</time>
      </trkpt>
      <trkpt lat="47.85528" lon="6.91761">
        <ele>1090</ele>
        <time>2026-05-09T20:39:36.251Z</time>
      </trkpt>
      <trkpt lat="47.85527" lon="6.91762">
        <ele>1090</ele>
        <time>2026-05-09T20:39:37.250Z</time>
      </trkpt>
      <trkpt lat="47.85526" lon="6.91763">
        <ele>1090</ele>
        <time>2026-05-09T20:39:38.251Z</time>
      </trkpt>
      <trkpt lat="47.85525" lon="6.91764">
        <ele>1090</ele>
        <time>2026-05-09T20:39:39.250Z</time>
      </trkpt>
      <trkpt lat="47.85524" lon="6.91766">
        <ele>1090</ele>
        <time>2026-05-09T20:39:40.251Z</time>
      </trkpt>
      <trkpt lat="47.85524" lon="6.91767">
        <ele>1090</ele>
        <time>2026-05-09T20:39:41.251Z</time>
      </trkpt>
      <trkpt lat="47.85524" lon="6.91768">
        <ele>1090</ele>
        <time>2026-05-09T20:39:42.250Z</time>
      </trkpt>
      <trkpt lat="47.85523" lon="6.9177">
        <ele>1090</ele>
        <time>2026-05-09T20:39:43.250Z</time>
      </trkpt>
      <trkpt lat="47.85523" lon="6.91772">
        <ele>1090</ele>
        <time>2026-05-09T20:39:44.250Z</time>
      </trkpt>
      <trkpt lat="47.85523" lon="6.91773">
        <ele>1090</ele>
        <time>2026-05-09T20:39:45.250Z</time>
      </trkpt>
      <trkpt lat="47.85523" lon="6.91774">
        <ele>1090</ele>
        <time>2026-05-09T20:39:46.250Z</time>
      </trkpt>
      <trkpt lat="47.85522" lon="6.91775">
        <ele>1090</ele>
        <time>2026-05-09T20:39:47.250Z</time>
      </trkpt>
      <trkpt lat="47.85522" lon="6.91777">
        <ele>1090</ele>
        <time>2026-05-09T20:39:48.250Z</time>
      </trkpt>
      <trkpt lat="47.85521" lon="6.91777">
        <ele>1090</ele>
        <time>2026-05-09T20:39:49.250Z</time>
      </trkpt>
      <trkpt lat="47.85521" lon="6.91779">
        <ele>1090</ele>
        <time>2026-05-09T20:39:50.251Z</time>
      </trkpt>
      <trkpt lat="47.8552" lon="6.9178">
        <ele>1090</ele>
        <time>2026-05-09T20:39:51.250Z</time>
      </trkpt>
      <trkpt lat="47.8552" lon="6.91782">
        <ele>1090</ele>
        <time>2026-05-09T20:39:52.250Z</time>
      </trkpt>
      <trkpt lat="47.85519" lon="6.91783">
        <ele>1091</ele>
        <time>2026-05-09T20:39:53.250Z</time>
      </trkpt>
      <trkpt lat="47.85518" lon="6.91785">
        <ele>1091</ele>
        <time>2026-05-09T20:39:54.250Z</time>
      </trkpt>
      <trkpt lat="47.85517" lon="6.91786">
        <ele>1091</ele>
        <time>2026-05-09T20:39:55.251Z</time>
      </trkpt>
      <trkpt lat="47.85516" lon="6.91788">
        <ele>1091</ele>
        <time>2026-05-09T20:39:56.250Z</time>
      </trkpt>
      <trkpt lat="47.85515" lon="6.91789">
        <ele>1092</ele>
        <time>2026-05-09T20:39:57.251Z</time>
      </trkpt>
      <trkpt lat="47.85515" lon="6.91791">
        <ele>1092</ele>
        <time>2026-05-09T20:39:58.250Z</time>
      </trkpt>
      <trkpt lat="47.85514" lon="6.91792">
        <ele>1092</ele>
        <time>2026-05-09T20:39:59.250Z</time>
      </trkpt>
      <trkpt lat="47.85513" lon="6.91794">
        <ele>1093</ele>
        <time>2026-05-09T20:40:00.250Z</time>
      </trkpt>
      <trkpt lat="47.85512" lon="6.91795">
        <ele>1093</ele>
        <time>2026-05-09T20:40:01.250Z</time>
      </trkpt>
      <trkpt lat="47.85512" lon="6.91796">
        <ele>1093</ele>
        <time>2026-05-09T20:40:02.250Z</time>
      </trkpt>
      <trkpt lat="47.85511" lon="6.91798">
        <ele>1093</ele>
        <time>2026-05-09T20:40:03.250Z</time>
      </trkpt>
      <trkpt lat="47.8551" lon="6.91799">
        <ele>1093</ele>
        <time>2026-05-09T20:40:04.250Z</time>
      </trkpt>
      <trkpt lat="47.8551" lon="6.91801">
        <ele>1092</ele>
        <time>2026-05-09T20:40:05.250Z</time>
      </trkpt>
      <trkpt lat="47.8551" lon="6.91802">
        <ele>1092</ele>
        <time>2026-05-09T20:40:06.251Z</time>
      </trkpt>
      <trkpt lat="47.8551" lon="6.91804">
        <ele>1092</ele>
        <time>2026-05-09T20:40:07.250Z</time>
      </trkpt>
      <trkpt lat="47.8551" lon="6.91805">
        <ele>1092</ele>
        <time>2026-05-09T20:40:08.250Z</time>
      </trkpt>
      <trkpt lat="47.8551" lon="6.91807">
        <ele>1092</ele>
        <time>2026-05-09T20:40:09.250Z</time>
      </trkpt>
      <trkpt lat="47.8551" lon="6.91808">
        <ele>1092</ele>
        <time>2026-05-09T20:40:10.250Z</time>
      </trkpt>
      <trkpt lat="47.85509" lon="6.91809">
        <ele>1092</ele>
        <time>2026-05-09T20:40:11.250Z</time>
      </trkpt>
      <trkpt lat="47.85509" lon="6.91811">
        <ele>1092</ele>
        <time>2026-05-09T20:40:12.250Z</time>
      </trkpt>
      <trkpt lat="47.8551" lon="6.91812">
        <ele>1092</ele>
        <time>2026-05-09T20:40:13.250Z</time>
      </trkpt>
      <trkpt lat="47.8551" lon="6.91813">
        <ele>1092</ele>
        <time>2026-05-09T20:40:14.251Z</time>
      </trkpt>
      <trkpt lat="47.8551" lon="6.91814">
        <ele>1092</ele>
        <time>2026-05-09T20:40:15.251Z</time>
      </trkpt>
      <trkpt lat="47.8551" lon="6.91814">
        <ele>1092</ele>
        <time>2026-05-09T20:40:16.250Z</time>
      </trkpt>
      <trkpt lat="47.85507" lon="6.91814">
        <ele>1092</ele>
        <time>2026-05-09T20:40:22.599Z</time>
      </trkpt>
      <trkpt lat="47.85508" lon="6.91821">
        <ele>1093</ele>
        <time>2026-05-09T20:40:31.927Z</time>
      </trkpt>
      <trkpt lat="47.85507" lon="6.91823">
        <ele>1093</ele>
        <time>2026-05-09T20:40:32.928Z</time>
      </trkpt>
      <trkpt lat="47.85506" lon="6.91824">
        <ele>1093</ele>
        <time>2026-05-09T20:40:33.928Z</time>
      </trkpt>
      <trkpt lat="47.85506" lon="6.91826">
        <ele>1093</ele>
        <time>2026-05-09T20:40:34.928Z</time>
      </trkpt>
      <trkpt lat="47.85505" lon="6.91828">
        <ele>1094</ele>
        <time>2026-05-09T20:40:35.927Z</time>
      </trkpt>
      <trkpt lat="47.85505" lon="6.9183">
        <ele>1094</ele>
        <time>2026-05-09T20:40:36.927Z</time>
      </trkpt>
      <trkpt lat="47.85505" lon="6.91831">
        <ele>1094</ele>
        <time>2026-05-09T20:40:37.927Z</time>
      </trkpt>
      <trkpt lat="47.85504" lon="6.91833">
        <ele>1094</ele>
        <time>2026-05-09T20:40:38.928Z</time>
      </trkpt>
      <trkpt lat="47.85504" lon="6.91835">
        <ele>1094</ele>
        <time>2026-05-09T20:40:39.927Z</time>
      </trkpt>
      <trkpt lat="47.85504" lon="6.91837">
        <ele>1094</ele>
        <time>2026-05-09T20:40:40.928Z</time>
      </trkpt>
      <trkpt lat="47.85504" lon="6.91839">
        <ele>1094</ele>
        <time>2026-05-09T20:40:41.928Z</time>
      </trkpt>
      <trkpt lat="47.85504" lon="6.91842">
        <ele>1094</ele>
        <time>2026-05-09T20:40:42.928Z</time>
      </trkpt>
      <trkpt lat="47.85505" lon="6.91843">
        <ele>1094</ele>
        <time>2026-05-09T20:40:43.928Z</time>
      </trkpt>
      <trkpt lat="47.85506" lon="6.91845">
        <ele>1094</ele>
        <time>2026-05-09T20:40:44.927Z</time>
      </trkpt>
      <trkpt lat="47.85506" lon="6.91847">
        <ele>1094</ele>
        <time>2026-05-09T20:40:45.928Z</time>
      </trkpt>
      <trkpt lat="47.85505" lon="6.91848">
        <ele>1094</ele>
        <time>2026-05-09T20:40:46.928Z</time>
      </trkpt>
      <trkpt lat="47.85505" lon="6.91849">
        <ele>1095</ele>
        <time>2026-05-09T20:40:47.928Z</time>
      </trkpt>
      <trkpt lat="47.85505" lon="6.9185">
        <ele>1095</ele>
        <time>2026-05-09T20:40:48.928Z</time>
      </trkpt>
      <trkpt lat="47.85504" lon="6.91851">
        <ele>1095</ele>
        <time>2026-05-09T20:40:49.927Z</time>
      </trkpt>
      <trkpt lat="47.85504" lon="6.91852">
        <ele>1095</ele>
        <time>2026-05-09T20:40:50.928Z</time>
      </trkpt>
      <trkpt lat="47.85504" lon="6.91853">
        <ele>1096</ele>
        <time>2026-05-09T20:40:51.928Z</time>
      </trkpt>
      <trkpt lat="47.85503" lon="6.91853">
        <ele>1096</ele>
        <time>2026-05-09T20:40:52.928Z</time>
      </trkpt>
      <trkpt lat="47.855" lon="6.91854">
        <ele>1097</ele>
        <time>2026-05-09T20:41:15.117Z</time>
      </trkpt>
      <trkpt lat="47.85501" lon="6.91854">
        <ele>1097</ele>
        <time>2026-05-09T20:41:16.116Z</time>
      </trkpt>
      <trkpt lat="47.85502" lon="6.91854">
        <ele>1097</ele>
        <time>2026-05-09T20:41:17.116Z</time>
      </trkpt>
      <trkpt lat="47.85503" lon="6.91855">
        <ele>1097</ele>
        <time>2026-05-09T20:41:18.116Z</time>
      </trkpt>
      <trkpt lat="47.85504" lon="6.91855">
        <ele>1097</ele>
        <time>2026-05-09T20:41:19.116Z</time>
      </trkpt>
      <trkpt lat="47.85505" lon="6.91856">
        <ele>1097</ele>
        <time>2026-05-09T20:41:20.116Z</time>
      </trkpt>
      <trkpt lat="47.85506" lon="6.91858">
        <ele>1097</ele>
        <time>2026-05-09T20:41:21.116Z</time>
      </trkpt>
      <trkpt lat="47.85506" lon="6.91859">
        <ele>1097</ele>
        <time>2026-05-09T20:41:22.117Z</time>
      </trkpt>
      <trkpt lat="47.85507" lon="6.9186">
        <ele>1097</ele>
        <time>2026-05-09T20:41:23.116Z</time>
      </trkpt>
      <trkpt lat="47.85507" lon="6.91862">
        <ele>1098</ele>
        <time>2026-05-09T20:41:24.117Z</time>
      </trkpt>
      <trkpt lat="47.85507" lon="6.91863">
        <ele>1098</ele>
        <time>2026-05-09T20:41:25.116Z</time>
      </trkpt>
      <trkpt lat="47.85507" lon="6.91863">
        <ele>1098</ele>
        <time>2026-05-09T20:41:26.116Z</time>
      </trkpt>
      <trkpt lat="47.85507" lon="6.91863">
        <ele>1098</ele>
        <time>2026-05-09T20:41:27.116Z</time>
      </trkpt>
      <trkpt lat="47.85507" lon="6.91863">
        <ele>1098</ele>
        <time>2026-05-09T20:41:28.117Z</time>
      </trkpt>
      <trkpt lat="47.85507" lon="6.91863">
        <ele>1098</ele>
        <time>2026-05-09T20:41:29.116Z</time>
      </trkpt>
      <trkpt lat="47.85506" lon="6.91862">
        <ele>1097</ele>
        <time>2026-05-09T20:41:30.116Z</time>
      </trkpt>
      <trkpt lat="47.85506" lon="6.91861">
        <ele>1097</ele>
        <time>2026-05-09T20:41:31.116Z</time>
      </trkpt>
      <trkpt lat="47.85504" lon="6.9186">
        <ele>1097</ele>
        <time>2026-05-09T20:41:32.117Z</time>
      </trkpt>
      <trkpt lat="47.85503" lon="6.9186">
        <ele>1097</ele>
        <time>2026-05-09T20:41:33.116Z</time>
      </trkpt>
      <trkpt lat="47.85502" lon="6.91858">
        <ele>1097</ele>
        <time>2026-05-09T20:41:34.116Z</time>
      </trkpt>
      <trkpt lat="47.85501" lon="6.91857">
        <ele>1097</ele>
        <time>2026-05-09T20:41:35.116Z</time>
      </trkpt>
      <trkpt lat="47.855" lon="6.91856">
        <ele>1097</ele>
        <time>2026-05-09T20:41:36.116Z</time>
      </trkpt>
      <trkpt lat="47.85499" lon="6.91855">
        <ele>1097</ele>
        <time>2026-05-09T20:41:37.116Z</time>
      </trkpt>
      <trkpt lat="47.85498" lon="6.91854">
        <ele>1097</ele>
        <time>2026-05-09T20:41:38.116Z</time>
      </trkpt>
      <trkpt lat="47.85497" lon="6.91852">
        <ele>1097</ele>
        <time>2026-05-09T20:41:39.116Z</time>
      </trkpt>
      <trkpt lat="47.85496" lon="6.91851">
        <ele>1097</ele>
        <time>2026-05-09T20:41:40.116Z</time>
      </trkpt>
      <trkpt lat="47.85495" lon="6.91849">
        <ele>1097</ele>
        <time>2026-05-09T20:41:41.116Z</time>
      </trkpt>
      <trkpt lat="47.85494" lon="6.91848">
        <ele>1097</ele>
        <time>2026-05-09T20:41:42.116Z</time>
      </trkpt>
      <trkpt lat="47.85493" lon="6.91847">
        <ele>1097</ele>
        <time>2026-05-09T20:41:43.116Z</time>
      </trkpt>
      <trkpt lat="47.85492" lon="6.91845">
        <ele>1097</ele>
        <time>2026-05-09T20:41:44.116Z</time>
      </trkpt>
      <trkpt lat="47.85491" lon="6.91844">
        <ele>1097</ele>
        <time>2026-05-09T20:41:45.116Z</time>
      </trkpt>
      <trkpt lat="47.8549" lon="6.91843">
        <ele>1097</ele>
        <time>2026-05-09T20:41:46.116Z</time>
      </trkpt>
      <trkpt lat="47.85489" lon="6.91842">
        <ele>1097</ele>
        <time>2026-05-09T20:41:47.117Z</time>
      </trkpt>
      <trkpt lat="47.85488" lon="6.91841">
        <ele>1097</ele>
        <time>2026-05-09T20:41:48.116Z</time>
      </trkpt>
      <trkpt lat="47.85487" lon="6.91839">
        <ele>1096</ele>
        <time>2026-05-09T20:41:49.116Z</time>
      </trkpt>
      <trkpt lat="47.85486" lon="6.91837">
        <ele>1096</ele>
        <time>2026-05-09T20:41:50.116Z</time>
      </trkpt>
      <trkpt lat="47.85486" lon="6.91835">
        <ele>1097</ele>
        <time>2026-05-09T20:41:51.116Z</time>
      </trkpt>
      <trkpt lat="47.85485" lon="6.91833">
        <ele>1097</ele>
        <time>2026-05-09T20:41:52.116Z</time>
      </trkpt>
      <trkpt lat="47.85483" lon="6.91831">
        <ele>1097</ele>
        <time>2026-05-09T20:41:53.116Z</time>
      </trkpt>
      <trkpt lat="47.85482" lon="6.9183">
        <ele>1097</ele>
        <time>2026-05-09T20:41:54.117Z</time>
      </trkpt>
      <trkpt lat="47.85481" lon="6.91828">
        <ele>1097</ele>
        <time>2026-05-09T20:41:55.116Z</time>
      </trkpt>
      <trkpt lat="47.8548" lon="6.91826">
        <ele>1097</ele>
        <time>2026-05-09T20:41:56.116Z</time>
      </trkpt>
      <trkpt lat="47.85478" lon="6.91825">
        <ele>1097</ele>
        <time>2026-05-09T20:41:57.117Z</time>
      </trkpt>
      <trkpt lat="47.85477" lon="6.91823">
        <ele>1097</ele>
        <time>2026-05-09T20:41:58.116Z</time>
      </trkpt>
      <trkpt lat="47.85476" lon="6.91821">
        <ele>1097</ele>
        <time>2026-05-09T20:41:59.117Z</time>
      </trkpt>
      <trkpt lat="47.85476" lon="6.9182">
        <ele>1097</ele>
        <time>2026-05-09T20:42:00.117Z</time>
      </trkpt>
      <trkpt lat="47.85475" lon="6.91818">
        <ele>1097</ele>
        <time>2026-05-09T20:42:01.116Z</time>
      </trkpt>
      <trkpt lat="47.85473" lon="6.91817">
        <ele>1097</ele>
        <time>2026-05-09T20:42:02.116Z</time>
      </trkpt>
      <trkpt lat="47.85472" lon="6.91816">
        <ele>1097</ele>
        <time>2026-05-09T20:42:03.117Z</time>
      </trkpt>
      <trkpt lat="47.85471" lon="6.91815">
        <ele>1097</ele>
        <time>2026-05-09T20:42:04.116Z</time>
      </trkpt>
      <trkpt lat="47.8547" lon="6.91813">
        <ele>1097</ele>
        <time>2026-05-09T20:42:05.116Z</time>
      </trkpt>
      <trkpt lat="47.85469" lon="6.91812">
        <ele>1097</ele>
        <time>2026-05-09T20:42:06.116Z</time>
      </trkpt>
      <trkpt lat="47.85468" lon="6.91811">
        <ele>1097</ele>
        <time>2026-05-09T20:42:07.116Z</time>
      </trkpt>
      <trkpt lat="47.85467" lon="6.9181">
        <ele>1097</ele>
        <time>2026-05-09T20:42:08.117Z</time>
      </trkpt>
      <trkpt lat="47.85466" lon="6.91809">
        <ele>1097</ele>
        <time>2026-05-09T20:42:09.116Z</time>
      </trkpt>
      <trkpt lat="47.85465" lon="6.91809">
        <ele>1097</ele>
        <time>2026-05-09T20:42:10.116Z</time>
      </trkpt>
      <trkpt lat="47.85464" lon="6.91808">
        <ele>1097</ele>
        <time>2026-05-09T20:42:11.116Z</time>
      </trkpt>
      <trkpt lat="47.85463" lon="6.91807">
        <ele>1098</ele>
        <time>2026-05-09T20:42:12.116Z</time>
      </trkpt>
      <trkpt lat="47.85462" lon="6.91807">
        <ele>1098</ele>
        <time>2026-05-09T20:42:13.116Z</time>
      </trkpt>
      <trkpt lat="47.85461" lon="6.91806">
        <ele>1098</ele>
        <time>2026-05-09T20:42:14.116Z</time>
      </trkpt>
      <trkpt lat="47.8546" lon="6.91806">
        <ele>1098</ele>
        <time>2026-05-09T20:42:15.116Z</time>
      </trkpt>
      <trkpt lat="47.85459" lon="6.91805">
        <ele>1098</ele>
        <time>2026-05-09T20:42:16.116Z</time>
      </trkpt>
      <trkpt lat="47.85458" lon="6.91805">
        <ele>1099</ele>
        <time>2026-05-09T20:42:17.117Z</time>
      </trkpt>
      <trkpt lat="47.85457" lon="6.91805">
        <ele>1099</ele>
        <time>2026-05-09T20:42:18.117Z</time>
      </trkpt>
      <trkpt lat="47.85456" lon="6.91805">
        <ele>1099</ele>
        <time>2026-05-09T20:42:19.117Z</time>
      </trkpt>
      <trkpt lat="47.85456" lon="6.91805">
        <ele>1100</ele>
        <time>2026-05-09T20:42:20.116Z</time>
      </trkpt>
      <trkpt lat="47.85455" lon="6.91805">
        <ele>1100</ele>
        <time>2026-05-09T20:42:21.117Z</time>
      </trkpt>
      <trkpt lat="47.85455" lon="6.91805">
        <ele>1100</ele>
        <time>2026-05-09T20:42:22.116Z</time>
      </trkpt>
      <trkpt lat="47.85455" lon="6.91805">
        <ele>1100</ele>
        <time>2026-05-09T20:42:23.116Z</time>
      </trkpt>
      <trkpt lat="47.85455" lon="6.91812">
        <ele>1096</ele>
        <time>2026-05-09T20:42:34.264Z</time>
      </trkpt>
      <trkpt lat="47.85454" lon="6.91814">
        <ele>1096</ele>
        <time>2026-05-09T20:42:35.264Z</time>
      </trkpt>
      <trkpt lat="47.85453" lon="6.91816">
        <ele>1095</ele>
        <time>2026-05-09T20:42:36.265Z</time>
      </trkpt>
      <trkpt lat="47.85453" lon="6.91818">
        <ele>1094</ele>
        <time>2026-05-09T20:42:37.264Z</time>
      </trkpt>
      <trkpt lat="47.85453" lon="6.9182">
        <ele>1094</ele>
        <time>2026-05-09T20:42:38.264Z</time>
      </trkpt>
      <trkpt lat="47.85452" lon="6.91822">
        <ele>1093</ele>
        <time>2026-05-09T20:42:39.264Z</time>
      </trkpt>
      <trkpt lat="47.85452" lon="6.91824">
        <ele>1093</ele>
        <time>2026-05-09T20:42:40.264Z</time>
      </trkpt>
      <trkpt lat="47.85452" lon="6.91826">
        <ele>1092</ele>
        <time>2026-05-09T20:42:41.265Z</time>
      </trkpt>
      <trkpt lat="47.85451" lon="6.91828">
        <ele>1092</ele>
        <time>2026-05-09T20:42:42.265Z</time>
      </trkpt>
      <trkpt lat="47.85451" lon="6.91829">
        <ele>1092</ele>
        <time>2026-05-09T20:42:43.265Z</time>
      </trkpt>
      <trkpt lat="47.85451" lon="6.91831">
        <ele>1092</ele>
        <time>2026-05-09T20:42:44.264Z</time>
      </trkpt>
      <trkpt lat="47.8545" lon="6.91833">
        <ele>1092</ele>
        <time>2026-05-09T20:42:45.264Z</time>
      </trkpt>
      <trkpt lat="47.8545" lon="6.91835">
        <ele>1092</ele>
        <time>2026-05-09T20:42:46.264Z</time>
      </trkpt>
      <trkpt lat="47.85449" lon="6.91837">
        <ele>1092</ele>
        <time>2026-05-09T20:42:47.264Z</time>
      </trkpt>
      <trkpt lat="47.85449" lon="6.91838">
        <ele>1092</ele>
        <time>2026-05-09T20:42:48.264Z</time>
      </trkpt>
      <trkpt lat="47.85449" lon="6.91839">
        <ele>1092</ele>
        <time>2026-05-09T20:42:49.264Z</time>
      </trkpt>
      <trkpt lat="47.85448" lon="6.9184">
        <ele>1092</ele>
        <time>2026-05-09T20:42:50.265Z</time>
      </trkpt>
      <trkpt lat="47.85448" lon="6.9184">
        <ele>1091</ele>
        <time>2026-05-09T20:42:51.264Z</time>
      </trkpt>
      <trkpt lat="47.85448" lon="6.9184">
        <ele>1091</ele>
        <time>2026-05-09T20:42:52.265Z</time>
      </trkpt>
      <trkpt lat="47.85448" lon="6.91841">
        <ele>1091</ele>
        <time>2026-05-09T20:42:53.265Z</time>
      </trkpt>
      <trkpt lat="47.85447" lon="6.91841">
        <ele>1091</ele>
        <time>2026-05-09T20:42:54.265Z</time>
      </trkpt>
      <trkpt lat="47.85447" lon="6.91842">
        <ele>1091</ele>
        <time>2026-05-09T20:42:55.264Z</time>
      </trkpt>
      <trkpt lat="47.85447" lon="6.91844">
        <ele>1091</ele>
        <time>2026-05-09T20:42:56.264Z</time>
      </trkpt>
      <trkpt lat="47.85447" lon="6.91846">
        <ele>1091</ele>
        <time>2026-05-09T20:42:57.264Z</time>
      </trkpt>
      <trkpt lat="47.85447" lon="6.91848">
        <ele>1092</ele>
        <time>2026-05-09T20:42:58.265Z</time>
      </trkpt>
      <trkpt lat="47.85447" lon="6.91849">
        <ele>1092</ele>
        <time>2026-05-09T20:42:59.264Z</time>
      </trkpt>
      <trkpt lat="47.85446" lon="6.91851">
        <ele>1092</ele>
        <time>2026-05-09T20:43:00.264Z</time>
      </trkpt>
      <trkpt lat="47.85445" lon="6.91851">
        <ele>1092</ele>
        <time>2026-05-09T20:43:01.265Z</time>
      </trkpt>
      <trkpt lat="47.85444" lon="6.91852">
        <ele>1092</ele>
        <time>2026-05-09T20:43:02.265Z</time>
      </trkpt>
      <trkpt lat="47.85445" lon="6.91854">
        <ele>1092</ele>
        <time>2026-05-09T20:43:03.265Z</time>
      </trkpt>
      <trkpt lat="47.85444" lon="6.91855">
        <ele>1093</ele>
        <time>2026-05-09T20:43:04.264Z</time>
      </trkpt>
      <trkpt lat="47.85444" lon="6.91857">
        <ele>1093</ele>
        <time>2026-05-09T20:43:05.264Z</time>
      </trkpt>
      <trkpt lat="47.85444" lon="6.91859">
        <ele>1093</ele>
        <time>2026-05-09T20:43:06.264Z</time>
      </trkpt>
      <trkpt lat="47.85444" lon="6.91861">
        <ele>1094</ele>
        <time>2026-05-09T20:43:07.264Z</time>
      </trkpt>
      <trkpt lat="47.85444" lon="6.91863">
        <ele>1094</ele>
        <time>2026-05-09T20:43:08.264Z</time>
      </trkpt>
      <trkpt lat="47.85444" lon="6.91865">
        <ele>1094</ele>
        <time>2026-05-09T20:43:09.265Z</time>
      </trkpt>
      <trkpt lat="47.85445" lon="6.91866">
        <ele>1094</ele>
        <time>2026-05-09T20:43:10.264Z</time>
      </trkpt>
      <trkpt lat="47.85446" lon="6.91867">
        <ele>1095</ele>
        <time>2026-05-09T20:43:11.265Z</time>
      </trkpt>
      <trkpt lat="47.85447" lon="6.91869">
        <ele>1095</ele>
        <time>2026-05-09T20:43:12.265Z</time>
      </trkpt>
      <trkpt lat="47.85447" lon="6.91871">
        <ele>1095</ele>
        <time>2026-05-09T20:43:13.264Z</time>
      </trkpt>
      <trkpt lat="47.85447" lon="6.91872">
        <ele>1095</ele>
        <time>2026-05-09T20:43:14.264Z</time>
      </trkpt>
      <trkpt lat="47.85447" lon="6.91874">
        <ele>1096</ele>
        <time>2026-05-09T20:43:15.264Z</time>
      </trkpt>
      <trkpt lat="47.85447" lon="6.91875">
        <ele>1096</ele>
        <time>2026-05-09T20:43:16.264Z</time>
      </trkpt>
      <trkpt lat="47.85447" lon="6.91877">
        <ele>1096</ele>
        <time>2026-05-09T20:43:17.265Z</time>
      </trkpt>
      <trkpt lat="47.85447" lon="6.91879">
        <ele>1096</ele>
        <time>2026-05-09T20:43:18.265Z</time>
      </trkpt>
      <trkpt lat="47.85447" lon="6.9188">
        <ele>1096</ele>
        <time>2026-05-09T20:43:19.265Z</time>
      </trkpt>
      <trkpt lat="47.85447" lon="6.91882">
        <ele>1096</ele>
        <time>2026-05-09T20:43:20.264Z</time>
      </trkpt>
      <trkpt lat="47.85447" lon="6.91883">
        <ele>1096</ele>
        <time>2026-05-09T20:43:21.265Z</time>
      </trkpt>
      <trkpt lat="47.85448" lon="6.91885">
        <ele>1096</ele>
        <time>2026-05-09T20:43:22.264Z</time>
      </trkpt>
      <trkpt lat="47.85447" lon="6.91887">
        <ele>1096</ele>
        <time>2026-05-09T20:43:23.265Z</time>
      </trkpt>
      <trkpt lat="47.85447" lon="6.91888">
        <ele>1096</ele>
        <time>2026-05-09T20:43:24.264Z</time>
      </trkpt>
      <trkpt lat="47.85447" lon="6.9189">
        <ele>1096</ele>
        <time>2026-05-09T20:43:25.264Z</time>
      </trkpt>
      <trkpt lat="47.85447" lon="6.91892">
        <ele>1096</ele>
        <time>2026-05-09T20:43:26.264Z</time>
      </trkpt>
      <trkpt lat="47.85446" lon="6.91894">
        <ele>1097</ele>
        <time>2026-05-09T20:43:27.264Z</time>
      </trkpt>
      <trkpt lat="47.85446" lon="6.91895">
        <ele>1097</ele>
        <time>2026-05-09T20:43:28.265Z</time>
      </trkpt>
      <trkpt lat="47.85446" lon="6.91896">
        <ele>1097</ele>
        <time>2026-05-09T20:43:29.264Z</time>
      </trkpt>
      <trkpt lat="47.85445" lon="6.91897">
        <ele>1097</ele>
        <time>2026-05-09T20:43:30.264Z</time>
      </trkpt>
      <trkpt lat="47.85445" lon="6.91897">
        <ele>1097</ele>
        <time>2026-05-09T20:43:31.265Z</time>
      </trkpt>
      <trkpt lat="47.85445" lon="6.91898">
        <ele>1097</ele>
        <time>2026-05-09T20:43:32.264Z</time>
      </trkpt>
      <trkpt lat="47.85444" lon="6.91899">
        <ele>1098</ele>
        <time>2026-05-09T20:43:33.265Z</time>
      </trkpt>
      <trkpt lat="47.85443" lon="6.91901">
        <ele>1098</ele>
        <time>2026-05-09T20:43:34.264Z</time>
      </trkpt>
      <trkpt lat="47.85443" lon="6.91903">
        <ele>1098</ele>
        <time>2026-05-09T20:43:35.265Z</time>
      </trkpt>
      <trkpt lat="47.85443" lon="6.91904">
        <ele>1099</ele>
        <time>2026-05-09T20:43:36.264Z</time>
      </trkpt>
      <trkpt lat="47.85444" lon="6.91906">
        <ele>1099</ele>
        <time>2026-05-09T20:43:37.264Z</time>
      </trkpt>
      <trkpt lat="47.85444" lon="6.91909">
        <ele>1099</ele>
        <time>2026-05-09T20:43:38.265Z</time>
      </trkpt>
      <trkpt lat="47.85441" lon="6.91913">
        <ele>1099</ele>
        <time>2026-05-09T20:43:39.264Z</time>
      </trkpt>
      <trkpt lat="47.85439" lon="6.91915">
        <ele>1099</ele>
        <time>2026-05-09T20:43:40.265Z</time>
      </trkpt>
      <trkpt lat="47.85438" lon="6.91917">
        <ele>1099</ele>
        <time>2026-05-09T20:43:41.264Z</time>
      </trkpt>
      <trkpt lat="47.85437" lon="6.91918">
        <ele>1099</ele>
        <time>2026-05-09T20:43:42.265Z</time>
      </trkpt>
      <trkpt lat="47.85437" lon="6.9192">
        <ele>1099</ele>
        <time>2026-05-09T20:43:43.264Z</time>
      </trkpt>
      <trkpt lat="47.85436" lon="6.91921">
        <ele>1099</ele>
        <time>2026-05-09T20:43:44.264Z</time>
      </trkpt>
      <trkpt lat="47.85436" lon="6.91922">
        <ele>1099</ele>
        <time>2026-05-09T20:43:45.264Z</time>
      </trkpt>
      <trkpt lat="47.85436" lon="6.91922">
        <ele>1099</ele>
        <time>2026-05-09T20:43:46.265Z</time>
      </trkpt>
      <trkpt lat="47.85435" lon="6.91924">
        <ele>1099</ele>
        <time>2026-05-09T20:43:47.265Z</time>
      </trkpt>
      <trkpt lat="47.85435" lon="6.91925">
        <ele>1099</ele>
        <time>2026-05-09T20:43:48.264Z</time>
      </trkpt>
      <trkpt lat="47.85435" lon="6.91926">
        <ele>1099</ele>
        <time>2026-05-09T20:43:49.265Z</time>
      </trkpt>
      <trkpt lat="47.85434" lon="6.91926">
        <ele>1099</ele>
        <time>2026-05-09T20:43:50.264Z</time>
      </trkpt>
      <trkpt lat="47.85433" lon="6.91927">
        <ele>1099</ele>
        <time>2026-05-09T20:43:51.264Z</time>
      </trkpt>
      <trkpt lat="47.85432" lon="6.91928">
        <ele>1099</ele>
        <time>2026-05-09T20:43:52.265Z</time>
      </trkpt>
      <trkpt lat="47.85431" lon="6.91929">
        <ele>1100</ele>
        <time>2026-05-09T20:43:53.265Z</time>
      </trkpt>
      <trkpt lat="47.85431" lon="6.9193">
        <ele>1100</ele>
        <time>2026-05-09T20:43:54.265Z</time>
      </trkpt>
      <trkpt lat="47.8543" lon="6.91931">
        <ele>1099</ele>
        <time>2026-05-09T20:43:55.264Z</time>
      </trkpt>
      <trkpt lat="47.8543" lon="6.91932">
        <ele>1099</ele>
        <time>2026-05-09T20:43:56.264Z</time>
      </trkpt>
      <trkpt lat="47.85429" lon="6.91933">
        <ele>1099</ele>
        <time>2026-05-09T20:43:57.264Z</time>
      </trkpt>
      <trkpt lat="47.85428" lon="6.91934">
        <ele>1099</ele>
        <time>2026-05-09T20:43:58.264Z</time>
      </trkpt>
      <trkpt lat="47.85426" lon="6.91935">
        <ele>1099</ele>
        <time>2026-05-09T20:43:59.264Z</time>
      </trkpt>
      <trkpt lat="47.85426" lon="6.91936">
        <ele>1100</ele>
        <time>2026-05-09T20:44:00.264Z</time>
      </trkpt>
      <trkpt lat="47.85425" lon="6.91937">
        <ele>1100</ele>
        <time>2026-05-09T20:44:01.264Z</time>
      </trkpt>
      <trkpt lat="47.85425" lon="6.91938">
        <ele>1101</ele>
        <time>2026-05-09T20:44:02.264Z</time>
      </trkpt>
      <trkpt lat="47.85425" lon="6.91939">
        <ele>1101</ele>
        <time>2026-05-09T20:44:03.265Z</time>
      </trkpt>
      <trkpt lat="47.85425" lon="6.91939">
        <ele>1101</ele>
        <time>2026-05-09T20:44:04.264Z</time>
      </trkpt>
      <trkpt lat="47.85425" lon="6.91941">
        <ele>1101</ele>
        <time>2026-05-09T20:44:05.265Z</time>
      </trkpt>
      <trkpt lat="47.85424" lon="6.91942">
        <ele>1101</ele>
        <time>2026-05-09T20:44:06.264Z</time>
      </trkpt>
      <trkpt lat="47.85423" lon="6.91943">
        <ele>1100</ele>
        <time>2026-05-09T20:44:07.265Z</time>
      </trkpt>
      <trkpt lat="47.85421" lon="6.91945">
        <ele>1100</ele>
        <time>2026-05-09T20:44:08.264Z</time>
      </trkpt>
      <trkpt lat="47.8542" lon="6.91947">
        <ele>1100</ele>
        <time>2026-05-09T20:44:09.264Z</time>
      </trkpt>
      <trkpt lat="47.85419" lon="6.91948">
        <ele>1100</ele>
        <time>2026-05-09T20:44:10.265Z</time>
      </trkpt>
      <trkpt lat="47.85418" lon="6.91949">
        <ele>1100</ele>
        <time>2026-05-09T20:44:11.264Z</time>
      </trkpt>
      <trkpt lat="47.85417" lon="6.9195">
        <ele>1100</ele>
        <time>2026-05-09T20:44:12.264Z</time>
      </trkpt>
      <trkpt lat="47.85416" lon="6.9195">
        <ele>1100</ele>
        <time>2026-05-09T20:44:13.265Z</time>
      </trkpt>
      <trkpt lat="47.85414" lon="6.91952">
        <ele>1100</ele>
        <time>2026-05-09T20:44:14.264Z</time>
      </trkpt>
      <trkpt lat="47.85413" lon="6.91953">
        <ele>1101</ele>
        <time>2026-05-09T20:44:15.265Z</time>
      </trkpt>
      <trkpt lat="47.85411" lon="6.91954">
        <ele>1101</ele>
        <time>2026-05-09T20:44:16.265Z</time>
      </trkpt>
      <trkpt lat="47.85411" lon="6.91954">
        <ele>1101</ele>
        <time>2026-05-09T20:44:17.265Z</time>
      </trkpt>
      <trkpt lat="47.8541" lon="6.91955">
        <ele>1102</ele>
        <time>2026-05-09T20:44:18.264Z</time>
      </trkpt>
      <trkpt lat="47.85409" lon="6.91956">
        <ele>1102</ele>
        <time>2026-05-09T20:44:19.264Z</time>
      </trkpt>
      <trkpt lat="47.85408" lon="6.91957">
        <ele>1102</ele>
        <time>2026-05-09T20:44:20.265Z</time>
      </trkpt>
      <trkpt lat="47.85407" lon="6.91958">
        <ele>1102</ele>
        <time>2026-05-09T20:44:21.264Z</time>
      </trkpt>
      <trkpt lat="47.85406" lon="6.91959">
        <ele>1102</ele>
        <time>2026-05-09T20:44:22.264Z</time>
      </trkpt>
      <trkpt lat="47.85405" lon="6.9196">
        <ele>1102</ele>
        <time>2026-05-09T20:44:23.264Z</time>
      </trkpt>
      <trkpt lat="47.85404" lon="6.91961">
        <ele>1103</ele>
        <time>2026-05-09T20:44:24.265Z</time>
      </trkpt>
      <trkpt lat="47.85403" lon="6.91962">
        <ele>1103</ele>
        <time>2026-05-09T20:44:25.264Z</time>
      </trkpt>
      <trkpt lat="47.85402" lon="6.91964">
        <ele>1103</ele>
        <time>2026-05-09T20:44:26.265Z</time>
      </trkpt>
      <trkpt lat="47.85401" lon="6.91967">
        <ele>1104</ele>
        <time>2026-05-09T20:44:27.265Z</time>
      </trkpt>
      <trkpt lat="47.85399" lon="6.91969">
        <ele>1104</ele>
        <time>2026-05-09T20:44:28.264Z</time>
      </trkpt>
      <trkpt lat="47.85398" lon="6.9197">
        <ele>1105</ele>
        <time>2026-05-09T20:44:29.265Z</time>
      </trkpt>
      <trkpt lat="47.85397" lon="6.91972">
        <ele>1105</ele>
        <time>2026-05-09T20:44:30.265Z</time>
      </trkpt>
      <trkpt lat="47.85396" lon="6.91972">
        <ele>1105</ele>
        <time>2026-05-09T20:44:31.265Z</time>
      </trkpt>
      <trkpt lat="47.85395" lon="6.91973">
        <ele>1106</ele>
        <time>2026-05-09T20:44:32.264Z</time>
      </trkpt>
      <trkpt lat="47.85395" lon="6.91973">
        <ele>1106</ele>
        <time>2026-05-09T20:44:33.265Z</time>
      </trkpt>
      <trkpt lat="47.85394" lon="6.91974">
        <ele>1106</ele>
        <time>2026-05-09T20:44:34.264Z</time>
      </trkpt>
      <trkpt lat="47.85393" lon="6.91976">
        <ele>1106</ele>
        <time>2026-05-09T20:44:35.265Z</time>
      </trkpt>
      <trkpt lat="47.85393" lon="6.91977">
        <ele>1106</ele>
        <time>2026-05-09T20:44:36.265Z</time>
      </trkpt>
      <trkpt lat="47.85391" lon="6.91978">
        <ele>1106</ele>
        <time>2026-05-09T20:44:37.264Z</time>
      </trkpt>
      <trkpt lat="47.8539" lon="6.9198">
        <ele>1107</ele>
        <time>2026-05-09T20:44:38.265Z</time>
      </trkpt>
      <trkpt lat="47.85389" lon="6.91981">
        <ele>1107</ele>
        <time>2026-05-09T20:44:39.264Z</time>
      </trkpt>
      <trkpt lat="47.85389" lon="6.91983">
        <ele>1107</ele>
        <time>2026-05-09T20:44:40.264Z</time>
      </trkpt>
      <trkpt lat="47.85388" lon="6.91985">
        <ele>1107</ele>
        <time>2026-05-09T20:44:41.264Z</time>
      </trkpt>
      <trkpt lat="47.85386" lon="6.91986">
        <ele>1107</ele>
        <time>2026-05-09T20:44:42.264Z</time>
      </trkpt>
      <trkpt lat="47.85385" lon="6.91987">
        <ele>1108</ele>
        <time>2026-05-09T20:44:43.265Z</time>
      </trkpt>
      <trkpt lat="47.85385" lon="6.91988">
        <ele>1108</ele>
        <time>2026-05-09T20:44:44.264Z</time>
      </trkpt>
      <trkpt lat="47.85385" lon="6.9199">
        <ele>1108</ele>
        <time>2026-05-09T20:44:45.265Z</time>
      </trkpt>
      <trkpt lat="47.85385" lon="6.9199">
        <ele>1108</ele>
        <time>2026-05-09T20:44:46.264Z</time>
      </trkpt>
      <trkpt lat="47.85384" lon="6.9199">
        <ele>1108</ele>
        <time>2026-05-09T20:44:47.264Z</time>
      </trkpt>
      <trkpt lat="47.85383" lon="6.9199">
        <ele>1108</ele>
        <time>2026-05-09T20:44:48.264Z</time>
      </trkpt>
      <trkpt lat="47.85382" lon="6.91989">
        <ele>1108</ele>
        <time>2026-05-09T20:44:49.264Z</time>
      </trkpt>
      <trkpt lat="47.85382" lon="6.91989">
        <ele>1109</ele>
        <time>2026-05-09T20:44:50.265Z</time>
      </trkpt>
      <trkpt lat="47.85381" lon="6.91988">
        <ele>1109</ele>
        <time>2026-05-09T20:44:51.264Z</time>
      </trkpt>
      <trkpt lat="47.85381" lon="6.91987">
        <ele>1109</ele>
        <time>2026-05-09T20:44:52.265Z</time>
      </trkpt>
      <trkpt lat="47.85381" lon="6.91987">
        <ele>1109</ele>
        <time>2026-05-09T20:44:53.264Z</time>
      </trkpt>
      <trkpt lat="47.8538" lon="6.91987">
        <ele>1109</ele>
        <time>2026-05-09T20:44:54.264Z</time>
      </trkpt>
      <trkpt lat="47.8538" lon="6.91987">
        <ele>1109</ele>
        <time>2026-05-09T20:44:55.265Z</time>
      </trkpt>
      <trkpt lat="47.8538" lon="6.91986">
        <ele>1109</ele>
        <time>2026-05-09T20:44:56.264Z</time>
      </trkpt>
      <trkpt lat="47.85379" lon="6.91986">
        <ele>1108</ele>
        <time>2026-05-09T20:44:57.264Z</time>
      </trkpt>
      <trkpt lat="47.85378" lon="6.91986">
        <ele>1108</ele>
        <time>2026-05-09T20:44:58.264Z</time>
      </trkpt>
      <trkpt lat="47.85378" lon="6.91987">
        <ele>1108</ele>
        <time>2026-05-09T20:44:59.264Z</time>
      </trkpt>
      <trkpt lat="47.85377" lon="6.91987">
        <ele>1107</ele>
        <time>2026-05-09T20:45:00.264Z</time>
      </trkpt>
      <trkpt lat="47.85377" lon="6.91988">
        <ele>1107</ele>
        <time>2026-05-09T20:45:01.264Z</time>
      </trkpt>
      <trkpt lat="47.85377" lon="6.91988">
        <ele>1107</ele>
        <time>2026-05-09T20:45:02.265Z</time>
      </trkpt>
      <trkpt lat="47.85376" lon="6.91989">
        <ele>1106</ele>
        <time>2026-05-09T20:45:03.264Z</time>
      </trkpt>
      <trkpt lat="47.85376" lon="6.91989">
        <ele>1106</ele>
        <time>2026-05-09T20:45:04.265Z</time>
      </trkpt>
      <trkpt lat="47.85375" lon="6.91989">
        <ele>1106</ele>
        <time>2026-05-09T20:45:05.264Z</time>
      </trkpt>
      <trkpt lat="47.85375" lon="6.91989">
        <ele>1106</ele>
        <time>2026-05-09T20:45:06.265Z</time>
      </trkpt>
      <trkpt lat="47.85374" lon="6.91989">
        <ele>1106</ele>
        <time>2026-05-09T20:45:07.264Z</time>
      </trkpt>
      <trkpt lat="47.85374" lon="6.9199">
        <ele>1106</ele>
        <time>2026-05-09T20:45:08.264Z</time>
      </trkpt>
      <trkpt lat="47.85373" lon="6.91991">
        <ele>1106</ele>
        <time>2026-05-09T20:45:09.264Z</time>
      </trkpt>
      <trkpt lat="47.85372" lon="6.91991">
        <ele>1106</ele>
        <time>2026-05-09T20:45:10.264Z</time>
      </trkpt>
      <trkpt lat="47.8537" lon="6.91992">
        <ele>1107</ele>
        <time>2026-05-09T20:45:11.264Z</time>
      </trkpt>
      <trkpt lat="47.85369" lon="6.91993">
        <ele>1107</ele>
        <time>2026-05-09T20:45:12.264Z</time>
      </trkpt>
      <trkpt lat="47.85368" lon="6.91994">
        <ele>1108</ele>
        <time>2026-05-09T20:45:13.264Z</time>
      </trkpt>
      <trkpt lat="47.85367" lon="6.91995">
        <ele>1108</ele>
        <time>2026-05-09T20:45:14.264Z</time>
      </trkpt>
      <trkpt lat="47.85366" lon="6.91997">
        <ele>1108</ele>
        <time>2026-05-09T20:45:15.264Z</time>
      </trkpt>
      <trkpt lat="47.85365" lon="6.91998">
        <ele>1108</ele>
        <time>2026-05-09T20:45:16.264Z</time>
      </trkpt>
      <trkpt lat="47.85364" lon="6.91999">
        <ele>1108</ele>
        <time>2026-05-09T20:45:17.265Z</time>
      </trkpt>
      <trkpt lat="47.85364" lon="6.91999">
        <ele>1108</ele>
        <time>2026-05-09T20:45:18.264Z</time>
      </trkpt>
      <trkpt lat="47.85363" lon="6.91999">
        <ele>1107</ele>
        <time>2026-05-09T20:45:19.265Z</time>
      </trkpt>
      <trkpt lat="47.85363" lon="6.91999">
        <ele>1107</ele>
        <time>2026-05-09T20:45:20.264Z</time>
      </trkpt>
      <trkpt lat="47.85361" lon="6.92002">
        <ele>1105</ele>
        <time>2026-05-09T20:45:27.756Z</time>
      </trkpt>
      <trkpt lat="47.8536" lon="6.92003">
        <ele>1105</ele>
        <time>2026-05-09T20:45:28.756Z</time>
      </trkpt>
      <trkpt lat="47.85359" lon="6.92005">
        <ele>1106</ele>
        <time>2026-05-09T20:45:29.756Z</time>
      </trkpt>
      <trkpt lat="47.85358" lon="6.92007">
        <ele>1106</ele>
        <time>2026-05-09T20:45:30.756Z</time>
      </trkpt>
      <trkpt lat="47.85357" lon="6.92008">
        <ele>1106</ele>
        <time>2026-05-09T20:45:31.756Z</time>
      </trkpt>
      <trkpt lat="47.85356" lon="6.9201">
        <ele>1106</ele>
        <time>2026-05-09T20:45:32.757Z</time>
      </trkpt>
      <trkpt lat="47.85354" lon="6.92011">
        <ele>1106</ele>
        <time>2026-05-09T20:45:33.756Z</time>
      </trkpt>
      <trkpt lat="47.85353" lon="6.92013">
        <ele>1106</ele>
        <time>2026-05-09T20:45:34.756Z</time>
      </trkpt>
      <trkpt lat="47.85351" lon="6.92015">
        <ele>1106</ele>
        <time>2026-05-09T20:45:35.757Z</time>
      </trkpt>
      <trkpt lat="47.8535" lon="6.92016">
        <ele>1106</ele>
        <time>2026-05-09T20:45:36.756Z</time>
      </trkpt>
      <trkpt lat="47.85348" lon="6.92017">
        <ele>1106</ele>
        <time>2026-05-09T20:45:37.757Z</time>
      </trkpt>
      <trkpt lat="47.85347" lon="6.92018">
        <ele>1106</ele>
        <time>2026-05-09T20:45:38.756Z</time>
      </trkpt>
      <trkpt lat="47.85346" lon="6.92019">
        <ele>1106</ele>
        <time>2026-05-09T20:45:39.757Z</time>
      </trkpt>
      <trkpt lat="47.85345" lon="6.92019">
        <ele>1106</ele>
        <time>2026-05-09T20:45:40.757Z</time>
      </trkpt>
      <trkpt lat="47.85344" lon="6.9202">
        <ele>1106</ele>
        <time>2026-05-09T20:45:41.756Z</time>
      </trkpt>
      <trkpt lat="47.85342" lon="6.9202">
        <ele>1106</ele>
        <time>2026-05-09T20:45:42.757Z</time>
      </trkpt>
      <trkpt lat="47.85341" lon="6.9202">
        <ele>1106</ele>
        <time>2026-05-09T20:45:43.757Z</time>
      </trkpt>
      <trkpt lat="47.8534" lon="6.9202">
        <ele>1107</ele>
        <time>2026-05-09T20:45:44.756Z</time>
      </trkpt>
      <trkpt lat="47.85339" lon="6.9202">
        <ele>1107</ele>
        <time>2026-05-09T20:45:45.756Z</time>
      </trkpt>
      <trkpt lat="47.85338" lon="6.92021">
        <ele>1107</ele>
        <time>2026-05-09T20:45:46.756Z</time>
      </trkpt>
      <trkpt lat="47.85337" lon="6.92023">
        <ele>1107</ele>
        <time>2026-05-09T20:45:47.756Z</time>
      </trkpt>
      <trkpt lat="47.85335" lon="6.92024">
        <ele>1107</ele>
        <time>2026-05-09T20:45:48.757Z</time>
      </trkpt>
      <trkpt lat="47.85335" lon="6.92026">
        <ele>1108</ele>
        <time>2026-05-09T20:45:49.756Z</time>
      </trkpt>
      <trkpt lat="47.85333" lon="6.92027">
        <ele>1108</ele>
        <time>2026-05-09T20:45:50.757Z</time>
      </trkpt>
      <trkpt lat="47.85333" lon="6.92029">
        <ele>1108</ele>
        <time>2026-05-09T20:45:51.756Z</time>
      </trkpt>
      <trkpt lat="47.85331" lon="6.92031">
        <ele>1109</ele>
        <time>2026-05-09T20:45:52.757Z</time>
      </trkpt>
      <trkpt lat="47.8533" lon="6.92032">
        <ele>1109</ele>
        <time>2026-05-09T20:45:53.756Z</time>
      </trkpt>
      <trkpt lat="47.85329" lon="6.92032">
        <ele>1109</ele>
        <time>2026-05-09T20:45:54.757Z</time>
      </trkpt>
      <trkpt lat="47.85328" lon="6.92032">
        <ele>1109</ele>
        <time>2026-05-09T20:45:55.756Z</time>
      </trkpt>
      <trkpt lat="47.85328" lon="6.92032">
        <ele>1110</ele>
        <time>2026-05-09T20:45:56.757Z</time>
      </trkpt>
      <trkpt lat="47.85327" lon="6.92033">
        <ele>1110</ele>
        <time>2026-05-09T20:45:57.756Z</time>
      </trkpt>
      <trkpt lat="47.85327" lon="6.92034">
        <ele>1110</ele>
        <time>2026-05-09T20:45:58.757Z</time>
      </trkpt>
      <trkpt lat="47.85326" lon="6.92035">
        <ele>1111</ele>
        <time>2026-05-09T20:45:59.756Z</time>
      </trkpt>
      <trkpt lat="47.85325" lon="6.92037">
        <ele>1111</ele>
        <time>2026-05-09T20:46:00.756Z</time>
      </trkpt>
      <trkpt lat="47.85324" lon="6.92038">
        <ele>1112</ele>
        <time>2026-05-09T20:46:01.757Z</time>
      </trkpt>
      <trkpt lat="47.85322" lon="6.9204">
        <ele>1112</ele>
        <time>2026-05-09T20:46:02.756Z</time>
      </trkpt>
      <trkpt lat="47.85318" lon="6.92042">
        <ele>1112</ele>
        <time>2026-05-09T20:46:03.756Z</time>
      </trkpt>
      <trkpt lat="47.85317" lon="6.92044">
        <ele>1113</ele>
        <time>2026-05-09T20:46:04.757Z</time>
      </trkpt>
      <trkpt lat="47.85317" lon="6.92045">
        <ele>1113</ele>
        <time>2026-05-09T20:46:05.756Z</time>
      </trkpt>
      <trkpt lat="47.85316" lon="6.92046">
        <ele>1114</ele>
        <time>2026-05-09T20:46:06.757Z</time>
      </trkpt>
      <trkpt lat="47.85315" lon="6.92045">
        <ele>1114</ele>
        <time>2026-05-09T20:46:07.756Z</time>
      </trkpt>
      <trkpt lat="47.85314" lon="6.92045">
        <ele>1115</ele>
        <time>2026-05-09T20:46:08.757Z</time>
      </trkpt>
      <trkpt lat="47.85314" lon="6.92045">
        <ele>1115</ele>
        <time>2026-05-09T20:46:09.756Z</time>
      </trkpt>
      <trkpt lat="47.85313" lon="6.92046">
        <ele>1115</ele>
        <time>2026-05-09T20:46:10.757Z</time>
      </trkpt>
      <trkpt lat="47.85312" lon="6.92046">
        <ele>1116</ele>
        <time>2026-05-09T20:46:11.756Z</time>
      </trkpt>
      <trkpt lat="47.85312" lon="6.92046">
        <ele>1115</ele>
        <time>2026-05-09T20:46:12.756Z</time>
      </trkpt>
      <trkpt lat="47.85312" lon="6.92045">
        <ele>1115</ele>
        <time>2026-05-09T20:46:13.757Z</time>
      </trkpt>
      <trkpt lat="47.85311" lon="6.92046">
        <ele>1114</ele>
        <time>2026-05-09T20:46:14.757Z</time>
      </trkpt>
      <trkpt lat="47.8531" lon="6.92046">
        <ele>1114</ele>
        <time>2026-05-09T20:46:15.756Z</time>
      </trkpt>
      <trkpt lat="47.8531" lon="6.92046">
        <ele>1114</ele>
        <time>2026-05-09T20:46:16.757Z</time>
      </trkpt>
      <trkpt lat="47.8531" lon="6.92047">
        <ele>1113</ele>
        <time>2026-05-09T20:46:17.756Z</time>
      </trkpt>
      <trkpt lat="47.8531" lon="6.92048">
        <ele>1108</ele>
        <time>2026-05-09T20:46:30.708Z</time>
      </trkpt>
      <trkpt lat="47.8531" lon="6.92048">
        <ele>1107</ele>
        <time>2026-05-09T20:46:31.708Z</time>
      </trkpt>
      <trkpt lat="47.8531" lon="6.92048">
        <ele>1107</ele>
        <time>2026-05-09T20:46:32.708Z</time>
      </trkpt>
      <trkpt lat="47.8531" lon="6.92048">
        <ele>1107</ele>
        <time>2026-05-09T20:46:33.708Z</time>
      </trkpt>
      <trkpt lat="47.8531" lon="6.92048">
        <ele>1107</ele>
        <time>2026-05-09T20:46:34.708Z</time>
      </trkpt>
      <trkpt lat="47.8531" lon="6.92048">
        <ele>1106</ele>
        <time>2026-05-09T20:46:35.709Z</time>
      </trkpt>
      <trkpt lat="47.8531" lon="6.92048">
        <ele>1106</ele>
        <time>2026-05-09T20:46:36.708Z</time>
      </trkpt>
      <trkpt lat="47.8531" lon="6.92048">
        <ele>1106</ele>
        <time>2026-05-09T20:46:37.709Z</time>
      </trkpt>
      <trkpt lat="47.8531" lon="6.92049">
        <ele>1106</ele>
        <time>2026-05-09T20:46:38.708Z</time>
      </trkpt>
      <trkpt lat="47.85309" lon="6.92049">
        <ele>1106</ele>
        <time>2026-05-09T20:46:39.708Z</time>
      </trkpt>
      <trkpt lat="47.85309" lon="6.92049">
        <ele>1106</ele>
        <time>2026-05-09T20:46:40.709Z</time>
      </trkpt>
      <trkpt lat="47.85309" lon="6.92049">
        <ele>1106</ele>
        <time>2026-05-09T20:46:41.709Z</time>
      </trkpt>
      <trkpt lat="47.85308" lon="6.92049">
        <ele>1106</ele>
        <time>2026-05-09T20:46:42.709Z</time>
      </trkpt>
      <trkpt lat="47.85308" lon="6.92049">
        <ele>1106</ele>
        <time>2026-05-09T20:46:43.709Z</time>
      </trkpt>
      <trkpt lat="47.85307" lon="6.9205">
        <ele>1107</ele>
        <time>2026-05-09T20:46:44.708Z</time>
      </trkpt>
      <trkpt lat="47.85307" lon="6.92051">
        <ele>1107</ele>
        <time>2026-05-09T20:46:45.708Z</time>
      </trkpt>
      <trkpt lat="47.85306" lon="6.92051">
        <ele>1107</ele>
        <time>2026-05-09T20:46:46.709Z</time>
      </trkpt>
      <trkpt lat="47.85306" lon="6.92051">
        <ele>1108</ele>
        <time>2026-05-09T20:46:47.708Z</time>
      </trkpt>
      <trkpt lat="47.85305" lon="6.92051">
        <ele>1108</ele>
        <time>2026-05-09T20:46:48.709Z</time>
      </trkpt>
      <trkpt lat="47.85305" lon="6.92051">
        <ele>1108</ele>
        <time>2026-05-09T20:46:49.708Z</time>
      </trkpt>
      <trkpt lat="47.85305" lon="6.92052">
        <ele>1108</ele>
        <time>2026-05-09T20:46:50.708Z</time>
      </trkpt>
      <trkpt lat="47.85304" lon="6.92052">
        <ele>1109</ele>
        <time>2026-05-09T20:46:51.709Z</time>
      </trkpt>
      <trkpt lat="47.85303" lon="6.92053">
        <ele>1110</ele>
        <time>2026-05-09T20:46:52.709Z</time>
      </trkpt>
      <trkpt lat="47.853" lon="6.92054">
        <ele>1110</ele>
        <time>2026-05-09T20:46:53.708Z</time>
      </trkpt>
      <trkpt lat="47.85299" lon="6.92054">
        <ele>1111</ele>
        <time>2026-05-09T20:46:54.708Z</time>
      </trkpt>
      <trkpt lat="47.85298" lon="6.92056">
        <ele>1111</ele>
        <time>2026-05-09T20:46:55.708Z</time>
      </trkpt>
      <trkpt lat="47.85297" lon="6.92057">
        <ele>1112</ele>
        <time>2026-05-09T20:46:56.709Z</time>
      </trkpt>
      <trkpt lat="47.85297" lon="6.92057">
        <ele>1112</ele>
        <time>2026-05-09T20:46:57.708Z</time>
      </trkpt>
      <trkpt lat="47.85296" lon="6.92057">
        <ele>1113</ele>
        <time>2026-05-09T20:46:58.708Z</time>
      </trkpt>
      <trkpt lat="47.85295" lon="6.92058">
        <ele>1113</ele>
        <time>2026-05-09T20:46:59.709Z</time>
      </trkpt>
      <trkpt lat="47.85294" lon="6.92059">
        <ele>1113</ele>
        <time>2026-05-09T20:47:00.708Z</time>
      </trkpt>
      <trkpt lat="47.85293" lon="6.92059">
        <ele>1113</ele>
        <time>2026-05-09T20:47:01.708Z</time>
      </trkpt>
      <trkpt lat="47.85292" lon="6.92059">
        <ele>1113</ele>
        <time>2026-05-09T20:47:02.709Z</time>
      </trkpt>
      <trkpt lat="47.85292" lon="6.9206">
        <ele>1113</ele>
        <time>2026-05-09T20:47:03.708Z</time>
      </trkpt>
      <trkpt lat="47.85291" lon="6.9206">
        <ele>1114</ele>
        <time>2026-05-09T20:47:04.709Z</time>
      </trkpt>
      <trkpt lat="47.85291" lon="6.92061">
        <ele>1114</ele>
        <time>2026-05-09T20:47:05.709Z</time>
      </trkpt>
      <trkpt lat="47.85291" lon="6.92061">
        <ele>1114</ele>
        <time>2026-05-09T20:47:06.709Z</time>
      </trkpt>
      <trkpt lat="47.85291" lon="6.92061">
        <ele>1114</ele>
        <time>2026-05-09T20:47:07.709Z</time>
      </trkpt>
      <trkpt lat="47.8529" lon="6.92061">
        <ele>1113</ele>
        <time>2026-05-09T20:47:08.708Z</time>
      </trkpt>
      <trkpt lat="47.85289" lon="6.92062">
        <ele>1113</ele>
        <time>2026-05-09T20:47:09.708Z</time>
      </trkpt>
      <trkpt lat="47.85289" lon="6.92063">
        <ele>1113</ele>
        <time>2026-05-09T20:47:10.708Z</time>
      </trkpt>
      <trkpt lat="47.85288" lon="6.92064">
        <ele>1113</ele>
        <time>2026-05-09T20:47:11.708Z</time>
      </trkpt>
      <trkpt lat="47.85288" lon="6.92065">
        <ele>1112</ele>
        <time>2026-05-09T20:47:12.708Z</time>
      </trkpt>
      <trkpt lat="47.85288" lon="6.92066">
        <ele>1112</ele>
        <time>2026-05-09T20:47:13.709Z</time>
      </trkpt>
      <trkpt lat="47.85287" lon="6.92067">
        <ele>1112</ele>
        <time>2026-05-09T20:47:14.708Z</time>
      </trkpt>
      <trkpt lat="47.85286" lon="6.92067">
        <ele>1112</ele>
        <time>2026-05-09T20:47:15.708Z</time>
      </trkpt>
      <trkpt lat="47.85286" lon="6.92068">
        <ele>1112</ele>
        <time>2026-05-09T20:47:16.709Z</time>
      </trkpt>
      <trkpt lat="47.85285" lon="6.92068">
        <ele>1113</ele>
        <time>2026-05-09T20:47:17.708Z</time>
      </trkpt>
      <trkpt lat="47.85284" lon="6.92068">
        <ele>1113</ele>
        <time>2026-05-09T20:47:18.708Z</time>
      </trkpt>
      <trkpt lat="47.85282" lon="6.9207">
        <ele>1113</ele>
        <time>2026-05-09T20:47:19.709Z</time>
      </trkpt>
      <trkpt lat="47.8528" lon="6.92071">
        <ele>1112</ele>
        <time>2026-05-09T20:47:20.709Z</time>
      </trkpt>
      <trkpt lat="47.85279" lon="6.92072">
        <ele>1112</ele>
        <time>2026-05-09T20:47:21.708Z</time>
      </trkpt>
      <trkpt lat="47.85278" lon="6.92073">
        <ele>1112</ele>
        <time>2026-05-09T20:47:22.708Z</time>
      </trkpt>
      <trkpt lat="47.85278" lon="6.92075">
        <ele>1112</ele>
        <time>2026-05-09T20:47:23.708Z</time>
      </trkpt>
      <trkpt lat="47.85278" lon="6.92077">
        <ele>1113</ele>
        <time>2026-05-09T20:47:24.709Z</time>
      </trkpt>
      <trkpt lat="47.85278" lon="6.92078">
        <ele>1113</ele>
        <time>2026-05-09T20:47:25.708Z</time>
      </trkpt>
      <trkpt lat="47.85278" lon="6.9208">
        <ele>1113</ele>
        <time>2026-05-09T20:47:26.708Z</time>
      </trkpt>
      <trkpt lat="47.85277" lon="6.92081">
        <ele>1113</ele>
        <time>2026-05-09T20:47:27.708Z</time>
      </trkpt>
      <trkpt lat="47.85276" lon="6.92082">
        <ele>1114</ele>
        <time>2026-05-09T20:47:28.708Z</time>
      </trkpt>
      <trkpt lat="47.85276" lon="6.92083">
        <ele>1114</ele>
        <time>2026-05-09T20:47:29.708Z</time>
      </trkpt>
      <trkpt lat="47.85275" lon="6.92084">
        <ele>1114</ele>
        <time>2026-05-09T20:47:30.709Z</time>
      </trkpt>
      <trkpt lat="47.85275" lon="6.92085">
        <ele>1115</ele>
        <time>2026-05-09T20:47:31.709Z</time>
      </trkpt>
      <trkpt lat="47.85273" lon="6.92087">
        <ele>1115</ele>
        <time>2026-05-09T20:47:32.709Z</time>
      </trkpt>
      <trkpt lat="47.85273" lon="6.92088">
        <ele>1115</ele>
        <time>2026-05-09T20:47:33.709Z</time>
      </trkpt>
      <trkpt lat="47.85272" lon="6.92089">
        <ele>1115</ele>
        <time>2026-05-09T20:47:34.709Z</time>
      </trkpt>
      <trkpt lat="47.85271" lon="6.9209">
        <ele>1115</ele>
        <time>2026-05-09T20:47:35.709Z</time>
      </trkpt>
      <trkpt lat="47.8527" lon="6.92091">
        <ele>1115</ele>
        <time>2026-05-09T20:47:36.709Z</time>
      </trkpt>
      <trkpt lat="47.8527" lon="6.92093">
        <ele>1115</ele>
        <time>2026-05-09T20:47:37.708Z</time>
      </trkpt>
      <trkpt lat="47.85269" lon="6.92095">
        <ele>1115</ele>
        <time>2026-05-09T20:47:38.708Z</time>
      </trkpt>
      <trkpt lat="47.85268" lon="6.92096">
        <ele>1116</ele>
        <time>2026-05-09T20:47:39.708Z</time>
      </trkpt>
      <trkpt lat="47.85267" lon="6.92097">
        <ele>1116</ele>
        <time>2026-05-09T20:47:40.709Z</time>
      </trkpt>
      <trkpt lat="47.85267" lon="6.92098">
        <ele>1116</ele>
        <time>2026-05-09T20:47:41.709Z</time>
      </trkpt>
      <trkpt lat="47.85266" lon="6.92099">
        <ele>1116</ele>
        <time>2026-05-09T20:47:42.708Z</time>
      </trkpt>
      <trkpt lat="47.85266" lon="6.921">
        <ele>1116</ele>
        <time>2026-05-09T20:47:43.709Z</time>
      </trkpt>
      <trkpt lat="47.85266" lon="6.92101">
        <ele>1116</ele>
        <time>2026-05-09T20:47:44.709Z</time>
      </trkpt>
      <trkpt lat="47.85266" lon="6.92102">
        <ele>1116</ele>
        <time>2026-05-09T20:47:45.708Z</time>
      </trkpt>
      <trkpt lat="47.85266" lon="6.92103">
        <ele>1116</ele>
        <time>2026-05-09T20:47:46.708Z</time>
      </trkpt>
      <trkpt lat="47.85266" lon="6.92105">
        <ele>1117</ele>
        <time>2026-05-09T20:47:47.708Z</time>
      </trkpt>
      <trkpt lat="47.85266" lon="6.92106">
        <ele>1117</ele>
        <time>2026-05-09T20:47:48.708Z</time>
      </trkpt>
      <trkpt lat="47.85266" lon="6.92108">
        <ele>1118</ele>
        <time>2026-05-09T20:47:49.708Z</time>
      </trkpt>
      <trkpt lat="47.85266" lon="6.9211">
        <ele>1118</ele>
        <time>2026-05-09T20:47:50.709Z</time>
      </trkpt>
      <trkpt lat="47.85265" lon="6.92111">
        <ele>1119</ele>
        <time>2026-05-09T20:47:51.709Z</time>
      </trkpt>
      <trkpt lat="47.85265" lon="6.92112">
        <ele>1119</ele>
        <time>2026-05-09T20:47:52.709Z</time>
      </trkpt>
      <trkpt lat="47.85265" lon="6.92113">
        <ele>1119</ele>
        <time>2026-05-09T20:47:53.709Z</time>
      </trkpt>
      <trkpt lat="47.85265" lon="6.92113">
        <ele>1120</ele>
        <time>2026-05-09T20:47:54.708Z</time>
      </trkpt>
      <trkpt lat="47.85265" lon="6.92114">
        <ele>1120</ele>
        <time>2026-05-09T20:47:55.708Z</time>
      </trkpt>
      <trkpt lat="47.85265" lon="6.92114">
        <ele>1120</ele>
        <time>2026-05-09T20:47:56.708Z</time>
      </trkpt>
      <trkpt lat="47.85264" lon="6.92115">
        <ele>1121</ele>
        <time>2026-05-09T20:47:57.708Z</time>
      </trkpt>
      <trkpt lat="47.85264" lon="6.92116">
        <ele>1121</ele>
        <time>2026-05-09T20:47:58.708Z</time>
      </trkpt>
      <trkpt lat="47.85264" lon="6.92116">
        <ele>1121</ele>
        <time>2026-05-09T20:47:59.709Z</time>
      </trkpt>
      <trkpt lat="47.85264" lon="6.92117">
        <ele>1121</ele>
        <time>2026-05-09T20:48:00.708Z</time>
      </trkpt>
      <trkpt lat="47.85264" lon="6.92117">
        <ele>1121</ele>
        <time>2026-05-09T20:48:01.709Z</time>
      </trkpt>
      <trkpt lat="47.85264" lon="6.92118">
        <ele>1121</ele>
        <time>2026-05-09T20:48:02.709Z</time>
      </trkpt>
      <trkpt lat="47.85264" lon="6.92119">
        <ele>1121</ele>
        <time>2026-05-09T20:48:03.708Z</time>
      </trkpt>
      <trkpt lat="47.85263" lon="6.92119">
        <ele>1121</ele>
        <time>2026-05-09T20:48:04.709Z</time>
      </trkpt>
      <trkpt lat="47.85263" lon="6.9212">
        <ele>1121</ele>
        <time>2026-05-09T20:48:05.709Z</time>
      </trkpt>
      <trkpt lat="47.85262" lon="6.92121">
        <ele>1121</ele>
        <time>2026-05-09T20:48:06.709Z</time>
      </trkpt>
      <trkpt lat="47.85261" lon="6.92122">
        <ele>1121</ele>
        <time>2026-05-09T20:48:07.709Z</time>
      </trkpt>
      <trkpt lat="47.85261" lon="6.92122">
        <ele>1121</ele>
        <time>2026-05-09T20:48:08.708Z</time>
      </trkpt>
      <trkpt lat="47.8526" lon="6.92123">
        <ele>1121</ele>
        <time>2026-05-09T20:48:09.709Z</time>
      </trkpt>
      <trkpt lat="47.8526" lon="6.92123">
        <ele>1121</ele>
        <time>2026-05-09T20:48:10.708Z</time>
      </trkpt>
      <trkpt lat="47.85261" lon="6.92124">
        <ele>1121</ele>
        <time>2026-05-09T20:48:11.708Z</time>
      </trkpt>
      <trkpt lat="47.85259" lon="6.92125">
        <ele>1122</ele>
        <time>2026-05-09T20:48:12.708Z</time>
      </trkpt>
      <trkpt lat="47.85259" lon="6.92126">
        <ele>1122</ele>
        <time>2026-05-09T20:48:13.708Z</time>
      </trkpt>
      <trkpt lat="47.85259" lon="6.92126">
        <ele>1122</ele>
        <time>2026-05-09T20:48:14.708Z</time>
      </trkpt>
      <trkpt lat="47.85259" lon="6.92132">
        <ele>1125</ele>
        <time>2026-05-09T20:48:21.109Z</time>
      </trkpt>
      <trkpt lat="47.8526" lon="6.92134">
        <ele>1126</ele>
        <time>2026-05-09T20:48:22.108Z</time>
      </trkpt>
      <trkpt lat="47.85261" lon="6.92134">
        <ele>1127</ele>
        <time>2026-05-09T20:48:23.108Z</time>
      </trkpt>
      <trkpt lat="47.85262" lon="6.92135">
        <ele>1127</ele>
        <time>2026-05-09T20:48:24.109Z</time>
      </trkpt>
      <trkpt lat="47.85262" lon="6.92137">
        <ele>1127</ele>
        <time>2026-05-09T20:48:25.109Z</time>
      </trkpt>
      <trkpt lat="47.85262" lon="6.92137">
        <ele>1127</ele>
        <time>2026-05-09T20:48:26.108Z</time>
      </trkpt>
      <trkpt lat="47.85263" lon="6.92139">
        <ele>1127</ele>
        <time>2026-05-09T20:48:27.108Z</time>
      </trkpt>
      <trkpt lat="47.85263" lon="6.92141">
        <ele>1127</ele>
        <time>2026-05-09T20:48:28.108Z</time>
      </trkpt>
      <trkpt lat="47.85262" lon="6.92143">
        <ele>1127</ele>
        <time>2026-05-09T20:48:29.109Z</time>
      </trkpt>
      <trkpt lat="47.85262" lon="6.92144">
        <ele>1128</ele>
        <time>2026-05-09T20:48:30.109Z</time>
      </trkpt>
      <trkpt lat="47.85262" lon="6.92144">
        <ele>1128</ele>
        <time>2026-05-09T20:48:31.108Z</time>
      </trkpt>
      <trkpt lat="47.85261" lon="6.92144">
        <ele>1129</ele>
        <time>2026-05-09T20:48:32.108Z</time>
      </trkpt>
      <trkpt lat="47.85261" lon="6.92144">
        <ele>1129</ele>
        <time>2026-05-09T20:48:33.108Z</time>
      </trkpt>
      <trkpt lat="47.85262" lon="6.92148">
        <ele>1131</ele>
        <time>2026-05-09T20:48:39.440Z</time>
      </trkpt>
      <trkpt lat="47.85261" lon="6.9215">
        <ele>1131</ele>
        <time>2026-05-09T20:48:40.441Z</time>
      </trkpt>
      <trkpt lat="47.85261" lon="6.92151">
        <ele>1131</ele>
        <time>2026-05-09T20:48:41.440Z</time>
      </trkpt>
      <trkpt lat="47.85261" lon="6.92151">
        <ele>1132</ele>
        <time>2026-05-09T20:48:42.440Z</time>
      </trkpt>
      <trkpt lat="47.85167" lon="6.92301">
        <ele>1131</ele>
        <time>2026-05-09T20:51:47.546Z</time>
      </trkpt>
      <trkpt lat="47.85166" lon="6.92301">
        <ele>1131</ele>
        <time>2026-05-09T20:51:48.545Z</time>
      </trkpt>
      <trkpt lat="47.85165" lon="6.92301">
        <ele>1130</ele>
        <time>2026-05-09T20:51:49.546Z</time>
      </trkpt>
      <trkpt lat="47.85164" lon="6.92301">
        <ele>1129</ele>
        <time>2026-05-09T20:51:50.545Z</time>
      </trkpt>
      <trkpt lat="47.85163" lon="6.92301">
        <ele>1129</ele>
        <time>2026-05-09T20:51:51.546Z</time>
      </trkpt>
      <trkpt lat="47.85162" lon="6.92301">
        <ele>1128</ele>
        <time>2026-05-09T20:51:52.545Z</time>
      </trkpt>
      <trkpt lat="47.85161" lon="6.92301">
        <ele>1127</ele>
        <time>2026-05-09T20:51:53.545Z</time>
      </trkpt>
      <trkpt lat="47.8516" lon="6.92302">
        <ele>1127</ele>
        <time>2026-05-09T20:51:54.546Z</time>
      </trkpt>
      <trkpt lat="47.85159" lon="6.92302">
        <ele>1126</ele>
        <time>2026-05-09T20:51:55.545Z</time>
      </trkpt>
      <trkpt lat="47.85158" lon="6.92302">
        <ele>1126</ele>
        <time>2026-05-09T20:51:56.546Z</time>
      </trkpt>
      <trkpt lat="47.85157" lon="6.92303">
        <ele>1126</ele>
        <time>2026-05-09T20:51:57.545Z</time>
      </trkpt>
      <trkpt lat="47.85156" lon="6.92303">
        <ele>1126</ele>
        <time>2026-05-09T20:51:58.546Z</time>
      </trkpt>
      <trkpt lat="47.85155" lon="6.92303">
        <ele>1126</ele>
        <time>2026-05-09T20:51:59.545Z</time>
      </trkpt>
      <trkpt lat="47.85154" lon="6.92303">
        <ele>1126</ele>
        <time>2026-05-09T20:52:00.545Z</time>
      </trkpt>
      <trkpt lat="47.85153" lon="6.92304">
        <ele>1126</ele>
        <time>2026-05-09T20:52:01.546Z</time>
      </trkpt>
      <trkpt lat="47.85153" lon="6.92304">
        <ele>1125</ele>
        <time>2026-05-09T20:52:02.545Z</time>
      </trkpt>
      <trkpt lat="47.85152" lon="6.92305">
        <ele>1125</ele>
        <time>2026-05-09T20:52:03.546Z</time>
      </trkpt>
      <trkpt lat="47.85151" lon="6.92306">
        <ele>1125</ele>
        <time>2026-05-09T20:52:04.545Z</time>
      </trkpt>
      <trkpt lat="47.8515" lon="6.92308">
        <ele>1125</ele>
        <time>2026-05-09T20:52:05.545Z</time>
      </trkpt>
      <trkpt lat="47.85149" lon="6.92309">
        <ele>1124</ele>
        <time>2026-05-09T20:52:06.545Z</time>
      </trkpt>
      <trkpt lat="47.85147" lon="6.9231">
        <ele>1124</ele>
        <time>2026-05-09T20:52:07.545Z</time>
      </trkpt>
      <trkpt lat="47.85146" lon="6.92311">
        <ele>1124</ele>
        <time>2026-05-09T20:52:08.546Z</time>
      </trkpt>
      <trkpt lat="47.85145" lon="6.92312">
        <ele>1124</ele>
        <time>2026-05-09T20:52:09.545Z</time>
      </trkpt>
      <trkpt lat="47.85143" lon="6.92313">
        <ele>1124</ele>
        <time>2026-05-09T20:52:10.546Z</time>
      </trkpt>
      <trkpt lat="47.85142" lon="6.92314">
        <ele>1123</ele>
        <time>2026-05-09T20:52:11.545Z</time>
      </trkpt>
      <trkpt lat="47.8514" lon="6.92315">
        <ele>1123</ele>
        <time>2026-05-09T20:52:12.545Z</time>
      </trkpt>
      <trkpt lat="47.85139" lon="6.92316">
        <ele>1123</ele>
        <time>2026-05-09T20:52:13.545Z</time>
      </trkpt>
      <trkpt lat="47.85138" lon="6.92318">
        <ele>1123</ele>
        <time>2026-05-09T20:52:14.546Z</time>
      </trkpt>
      <trkpt lat="47.85137" lon="6.92318">
        <ele>1123</ele>
        <time>2026-05-09T20:52:15.545Z</time>
      </trkpt>
      <trkpt lat="47.85136" lon="6.92319">
        <ele>1122</ele>
        <time>2026-05-09T20:52:16.545Z</time>
      </trkpt>
      <trkpt lat="47.85134" lon="6.9232">
        <ele>1122</ele>
        <time>2026-05-09T20:52:17.546Z</time>
      </trkpt>
      <trkpt lat="47.85133" lon="6.92321">
        <ele>1122</ele>
        <time>2026-05-09T20:52:18.545Z</time>
      </trkpt>
      <trkpt lat="47.85132" lon="6.92322">
        <ele>1122</ele>
        <time>2026-05-09T20:52:19.546Z</time>
      </trkpt>
      <trkpt lat="47.85129" lon="6.92324">
        <ele>1122</ele>
        <time>2026-05-09T20:52:20.546Z</time>
      </trkpt>
      <trkpt lat="47.85127" lon="6.92327">
        <ele>1123</ele>
        <time>2026-05-09T20:52:21.545Z</time>
      </trkpt>
      <trkpt lat="47.85125" lon="6.92329">
        <ele>1123</ele>
        <time>2026-05-09T20:52:22.545Z</time>
      </trkpt>
      <trkpt lat="47.85123" lon="6.92331">
        <ele>1124</ele>
        <time>2026-05-09T20:52:23.546Z</time>
      </trkpt>
      <trkpt lat="47.85121" lon="6.92332">
        <ele>1125</ele>
        <time>2026-05-09T20:52:24.546Z</time>
      </trkpt>
      <trkpt lat="47.85119" lon="6.92333">
        <ele>1125</ele>
        <time>2026-05-09T20:52:25.546Z</time>
      </trkpt>
      <trkpt lat="47.85117" lon="6.92335">
        <ele>1126</ele>
        <time>2026-05-09T20:52:26.545Z</time>
      </trkpt>
      <trkpt lat="47.85117" lon="6.92336">
        <ele>1127</ele>
        <time>2026-05-09T20:52:27.545Z</time>
      </trkpt>
      <trkpt lat="47.85115" lon="6.92338">
        <ele>1127</ele>
        <time>2026-05-09T20:52:28.546Z</time>
      </trkpt>
      <trkpt lat="47.85114" lon="6.92339">
        <ele>1128</ele>
        <time>2026-05-09T20:52:29.545Z</time>
      </trkpt>
      <trkpt lat="47.85113" lon="6.9234">
        <ele>1129</ele>
        <time>2026-05-09T20:52:30.546Z</time>
      </trkpt>
      <trkpt lat="47.85112" lon="6.92341">
        <ele>1129</ele>
        <time>2026-05-09T20:52:31.545Z</time>
      </trkpt>
      <trkpt lat="47.85112" lon="6.92342">
        <ele>1130</ele>
        <time>2026-05-09T20:52:32.546Z</time>
      </trkpt>
      <trkpt lat="47.85111" lon="6.92342">
        <ele>1130</ele>
        <time>2026-05-09T20:52:33.546Z</time>
      </trkpt>
      <trkpt lat="47.85105" lon="6.92347">
        <ele>1131</ele>
        <time>2026-05-09T20:52:39.958Z</time>
      </trkpt>
      <trkpt lat="47.85104" lon="6.92348">
        <ele>1131</ele>
        <time>2026-05-09T20:52:40.958Z</time>
      </trkpt>
      <trkpt lat="47.85103" lon="6.92349">
        <ele>1131</ele>
        <time>2026-05-09T20:52:41.958Z</time>
      </trkpt>
      <trkpt lat="47.85102" lon="6.9235">
        <ele>1132</ele>
        <time>2026-05-09T20:52:42.959Z</time>
      </trkpt>
      <trkpt lat="47.85101" lon="6.92351">
        <ele>1131</ele>
        <time>2026-05-09T20:52:43.958Z</time>
      </trkpt>
      <trkpt lat="47.85099" lon="6.92353">
        <ele>1131</ele>
        <time>2026-05-09T20:52:44.958Z</time>
      </trkpt>
      <trkpt lat="47.85098" lon="6.92354">
        <ele>1131</ele>
        <time>2026-05-09T20:52:45.959Z</time>
      </trkpt>
      <trkpt lat="47.85097" lon="6.92356">
        <ele>1130</ele>
        <time>2026-05-09T20:52:46.958Z</time>
      </trkpt>
      <trkpt lat="47.85096" lon="6.92358">
        <ele>1130</ele>
        <time>2026-05-09T20:52:47.959Z</time>
      </trkpt>
      <trkpt lat="47.85095" lon="6.92359">
        <ele>1129</ele>
        <time>2026-05-09T20:52:48.959Z</time>
      </trkpt>
      <trkpt lat="47.85096" lon="6.92361">
        <ele>1129</ele>
        <time>2026-05-09T20:52:49.958Z</time>
      </trkpt>
      <trkpt lat="47.85097" lon="6.92362">
        <ele>1128</ele>
        <time>2026-05-09T20:52:50.958Z</time>
      </trkpt>
      <trkpt lat="47.85096" lon="6.92364">
        <ele>1127</ele>
        <time>2026-05-09T20:52:51.958Z</time>
      </trkpt>
      <trkpt lat="47.85096" lon="6.92366">
        <ele>1127</ele>
        <time>2026-05-09T20:52:52.959Z</time>
      </trkpt>
      <trkpt lat="47.85096" lon="6.92367">
        <ele>1126</ele>
        <time>2026-05-09T20:52:53.959Z</time>
      </trkpt>
      <trkpt lat="47.85095" lon="6.92368">
        <ele>1126</ele>
        <time>2026-05-09T20:52:54.959Z</time>
      </trkpt>
      <trkpt lat="47.85095" lon="6.92368">
        <ele>1125</ele>
        <time>2026-05-09T20:52:55.959Z</time>
      </trkpt>
      <trkpt lat="47.8509" lon="6.92371">
        <ele>1122</ele>
        <time>2026-05-09T20:53:02.342Z</time>
      </trkpt>
      <trkpt lat="47.85089" lon="6.92372">
        <ele>1122</ele>
        <time>2026-05-09T20:53:03.341Z</time>
      </trkpt>
      <trkpt lat="47.85088" lon="6.92374">
        <ele>1122</ele>
        <time>2026-05-09T20:53:04.342Z</time>
      </trkpt>
      <trkpt lat="47.85087" lon="6.92375">
        <ele>1121</ele>
        <time>2026-05-09T20:53:05.341Z</time>
      </trkpt>
      <trkpt lat="47.85086" lon="6.92376">
        <ele>1121</ele>
        <time>2026-05-09T20:53:06.342Z</time>
      </trkpt>
      <trkpt lat="47.85085" lon="6.92377">
        <ele>1121</ele>
        <time>2026-05-09T20:53:07.341Z</time>
      </trkpt>
      <trkpt lat="47.85084" lon="6.92377">
        <ele>1122</ele>
        <time>2026-05-09T20:53:08.341Z</time>
      </trkpt>
      <trkpt lat="47.85083" lon="6.92378">
        <ele>1122</ele>
        <time>2026-05-09T20:53:09.341Z</time>
      </trkpt>
      <trkpt lat="47.85082" lon="6.92378">
        <ele>1123</ele>
        <time>2026-05-09T20:53:10.341Z</time>
      </trkpt>
      <trkpt lat="47.85081" lon="6.92379">
        <ele>1123</ele>
        <time>2026-05-09T20:53:11.342Z</time>
      </trkpt>
      <trkpt lat="47.8508" lon="6.92379">
        <ele>1123</ele>
        <time>2026-05-09T20:53:12.341Z</time>
      </trkpt>
      <trkpt lat="47.8508" lon="6.92379">
        <ele>1123</ele>
        <time>2026-05-09T20:53:13.341Z</time>
      </trkpt>
      <trkpt lat="47.8508" lon="6.92379">
        <ele>1122</ele>
        <time>2026-05-09T20:53:14.342Z</time>
      </trkpt>
      <trkpt lat="47.85079" lon="6.9238">
        <ele>1121</ele>
        <time>2026-05-09T20:53:15.342Z</time>
      </trkpt>
      <trkpt lat="47.85078" lon="6.9238">
        <ele>1120</ele>
        <time>2026-05-09T20:53:16.341Z</time>
      </trkpt>
      <trkpt lat="47.85077" lon="6.92379">
        <ele>1119</ele>
        <time>2026-05-09T20:53:17.341Z</time>
      </trkpt>
      <trkpt lat="47.85076" lon="6.92379">
        <ele>1118</ele>
        <time>2026-05-09T20:53:18.341Z</time>
      </trkpt>
      <trkpt lat="47.85075" lon="6.9238">
        <ele>1118</ele>
        <time>2026-05-09T20:53:19.341Z</time>
      </trkpt>
      <trkpt lat="47.85074" lon="6.92381">
        <ele>1117</ele>
        <time>2026-05-09T20:53:20.341Z</time>
      </trkpt>
      <trkpt lat="47.85073" lon="6.92382">
        <ele>1116</ele>
        <time>2026-05-09T20:53:21.341Z</time>
      </trkpt>
      <trkpt lat="47.85072" lon="6.92383">
        <ele>1116</ele>
        <time>2026-05-09T20:53:22.342Z</time>
      </trkpt>
      <trkpt lat="47.85071" lon="6.92384">
        <ele>1116</ele>
        <time>2026-05-09T20:53:23.341Z</time>
      </trkpt>
      <trkpt lat="47.8507" lon="6.92384">
        <ele>1116</ele>
        <time>2026-05-09T20:53:24.341Z</time>
      </trkpt>
      <trkpt lat="47.85069" lon="6.92385">
        <ele>1117</ele>
        <time>2026-05-09T20:53:25.342Z</time>
      </trkpt>
      <trkpt lat="47.85067" lon="6.92386">
        <ele>1117</ele>
        <time>2026-05-09T20:53:26.341Z</time>
      </trkpt>
      <trkpt lat="47.85066" lon="6.92386">
        <ele>1117</ele>
        <time>2026-05-09T20:53:27.341Z</time>
      </trkpt>
      <trkpt lat="47.85065" lon="6.92387">
        <ele>1118</ele>
        <time>2026-05-09T20:53:28.341Z</time>
      </trkpt>
      <trkpt lat="47.85064" lon="6.92388">
        <ele>1118</ele>
        <time>2026-05-09T20:53:29.342Z</time>
      </trkpt>
      <trkpt lat="47.85064" lon="6.92388">
        <ele>1118</ele>
        <time>2026-05-09T20:53:30.342Z</time>
      </trkpt>
      <trkpt lat="47.85063" lon="6.92389">
        <ele>1119</ele>
        <time>2026-05-09T20:53:31.341Z</time>
      </trkpt>
      <trkpt lat="47.85062" lon="6.9239">
        <ele>1119</ele>
        <time>2026-05-09T20:53:32.342Z</time>
      </trkpt>
      <trkpt lat="47.85061" lon="6.92391">
        <ele>1119</ele>
        <time>2026-05-09T20:53:33.341Z</time>
      </trkpt>
      <trkpt lat="47.8506" lon="6.92392">
        <ele>1119</ele>
        <time>2026-05-09T20:53:34.342Z</time>
      </trkpt>
      <trkpt lat="47.85059" lon="6.92393">
        <ele>1119</ele>
        <time>2026-05-09T20:53:35.341Z</time>
      </trkpt>
      <trkpt lat="47.85058" lon="6.92393">
        <ele>1119</ele>
        <time>2026-05-09T20:53:36.342Z</time>
      </trkpt>
      <trkpt lat="47.85056" lon="6.92395">
        <ele>1119</ele>
        <time>2026-05-09T20:53:37.341Z</time>
      </trkpt>
      <trkpt lat="47.85054" lon="6.92396">
        <ele>1120</ele>
        <time>2026-05-09T20:53:38.341Z</time>
      </trkpt>
      <trkpt lat="47.85052" lon="6.92397">
        <ele>1120</ele>
        <time>2026-05-09T20:53:39.341Z</time>
      </trkpt>
      <trkpt lat="47.8505" lon="6.92398">
        <ele>1121</ele>
        <time>2026-05-09T20:53:40.341Z</time>
      </trkpt>
      <trkpt lat="47.85048" lon="6.92399">
        <ele>1121</ele>
        <time>2026-05-09T20:53:41.342Z</time>
      </trkpt>
      <trkpt lat="47.85047" lon="6.92399">
        <ele>1122</ele>
        <time>2026-05-09T20:53:42.341Z</time>
      </trkpt>
      <trkpt lat="47.85046" lon="6.92399">
        <ele>1122</ele>
        <time>2026-05-09T20:53:43.342Z</time>
      </trkpt>
      <trkpt lat="47.85044" lon="6.924">
        <ele>1122</ele>
        <time>2026-05-09T20:53:44.341Z</time>
      </trkpt>
      <trkpt lat="47.85043" lon="6.924">
        <ele>1122</ele>
        <time>2026-05-09T20:53:45.342Z</time>
      </trkpt>
      <trkpt lat="47.85041" lon="6.92401">
        <ele>1123</ele>
        <time>2026-05-09T20:53:46.342Z</time>
      </trkpt>
      <trkpt lat="47.85039" lon="6.92403">
        <ele>1123</ele>
        <time>2026-05-09T20:53:47.342Z</time>
      </trkpt>
      <trkpt lat="47.85036" lon="6.92405">
        <ele>1123</ele>
        <time>2026-05-09T20:53:48.342Z</time>
      </trkpt>
      <trkpt lat="47.85035" lon="6.92406">
        <ele>1123</ele>
        <time>2026-05-09T20:53:49.342Z</time>
      </trkpt>
      <trkpt lat="47.85033" lon="6.92408">
        <ele>1124</ele>
        <time>2026-05-09T20:53:50.342Z</time>
      </trkpt>
      <trkpt lat="47.85032" lon="6.9241">
        <ele>1124</ele>
        <time>2026-05-09T20:53:51.341Z</time>
      </trkpt>
      <trkpt lat="47.8503" lon="6.92413">
        <ele>1125</ele>
        <time>2026-05-09T20:53:52.341Z</time>
      </trkpt>
      <trkpt lat="47.85029" lon="6.92414">
        <ele>1126</ele>
        <time>2026-05-09T20:53:53.342Z</time>
      </trkpt>
      <trkpt lat="47.85028" lon="6.92414">
        <ele>1126</ele>
        <time>2026-05-09T20:53:54.342Z</time>
      </trkpt>
      <trkpt lat="47.85027" lon="6.92416">
        <ele>1126</ele>
        <time>2026-05-09T20:53:55.342Z</time>
      </trkpt>
      <trkpt lat="47.85027" lon="6.92419">
        <ele>1126</ele>
        <time>2026-05-09T20:53:56.341Z</time>
      </trkpt>
      <trkpt lat="47.85025" lon="6.92421">
        <ele>1126</ele>
        <time>2026-05-09T20:53:57.342Z</time>
      </trkpt>
      <trkpt lat="47.85023" lon="6.92423">
        <ele>1126</ele>
        <time>2026-05-09T20:53:58.342Z</time>
      </trkpt>
      <trkpt lat="47.85023" lon="6.92424">
        <ele>1126</ele>
        <time>2026-05-09T20:53:59.342Z</time>
      </trkpt>
      <trkpt lat="47.85021" lon="6.92427">
        <ele>1125</ele>
        <time>2026-05-09T20:54:00.341Z</time>
      </trkpt>
      <trkpt lat="47.8502" lon="6.9243">
        <ele>1125</ele>
        <time>2026-05-09T20:54:01.342Z</time>
      </trkpt>
      <trkpt lat="47.85018" lon="6.92431">
        <ele>1125</ele>
        <time>2026-05-09T20:54:02.342Z</time>
      </trkpt>
      <trkpt lat="47.85015" lon="6.92432">
        <ele>1124</ele>
        <time>2026-05-09T20:54:03.341Z</time>
      </trkpt>
      <trkpt lat="47.85014" lon="6.92431">
        <ele>1124</ele>
        <time>2026-05-09T20:54:04.341Z</time>
      </trkpt>
      <trkpt lat="47.85014" lon="6.92431">
        <ele>1124</ele>
        <time>2026-05-09T20:54:05.341Z</time>
      </trkpt>
      <trkpt lat="47.85013" lon="6.92431">
        <ele>1124</ele>
        <time>2026-05-09T20:54:06.342Z</time>
      </trkpt>
      <trkpt lat="47.85011" lon="6.92432">
        <ele>1123</ele>
        <time>2026-05-09T20:54:07.341Z</time>
      </trkpt>
      <trkpt lat="47.85008" lon="6.92434">
        <ele>1123</ele>
        <time>2026-05-09T20:54:08.342Z</time>
      </trkpt>
      <trkpt lat="47.85006" lon="6.92434">
        <ele>1123</ele>
        <time>2026-05-09T20:54:09.342Z</time>
      </trkpt>
      <trkpt lat="47.85002" lon="6.92434">
        <ele>1122</ele>
        <time>2026-05-09T20:54:10.342Z</time>
      </trkpt>
      <trkpt lat="47.85001" lon="6.92436">
        <ele>1122</ele>
        <time>2026-05-09T20:54:11.342Z</time>
      </trkpt>
      <trkpt lat="47.85001" lon="6.92439">
        <ele>1122</ele>
        <time>2026-05-09T20:54:12.342Z</time>
      </trkpt>
      <trkpt lat="47.84998" lon="6.92442">
        <ele>1122</ele>
        <time>2026-05-09T20:54:13.342Z</time>
      </trkpt>
      <trkpt lat="47.84996" lon="6.92444">
        <ele>1122</ele>
        <time>2026-05-09T20:54:14.341Z</time>
      </trkpt>
      <trkpt lat="47.84995" lon="6.92446">
        <ele>1122</ele>
        <time>2026-05-09T20:54:15.341Z</time>
      </trkpt>
      <trkpt lat="47.84993" lon="6.92446">
        <ele>1123</ele>
        <time>2026-05-09T20:54:16.342Z</time>
      </trkpt>
      <trkpt lat="47.84991" lon="6.92448">
        <ele>1123</ele>
        <time>2026-05-09T20:54:17.341Z</time>
      </trkpt>
      <trkpt lat="47.84988" lon="6.92449">
        <ele>1124</ele>
        <time>2026-05-09T20:54:18.341Z</time>
      </trkpt>
      <trkpt lat="47.84986" lon="6.92451">
        <ele>1124</ele>
        <time>2026-05-09T20:54:19.341Z</time>
      </trkpt>
      <trkpt lat="47.84984" lon="6.92453">
        <ele>1125</ele>
        <time>2026-05-09T20:54:20.342Z</time>
      </trkpt>
      <trkpt lat="47.84982" lon="6.92454">
        <ele>1125</ele>
        <time>2026-05-09T20:54:21.341Z</time>
      </trkpt>
      <trkpt lat="47.84981" lon="6.92455">
        <ele>1126</ele>
        <time>2026-05-09T20:54:22.342Z</time>
      </trkpt>
      <trkpt lat="47.8498" lon="6.92455">
        <ele>1126</ele>
        <time>2026-05-09T20:54:23.342Z</time>
      </trkpt>
      <trkpt lat="47.8498" lon="6.92455">
        <ele>1126</ele>
        <time>2026-05-09T20:54:24.342Z</time>
      </trkpt>
      <trkpt lat="47.84981" lon="6.92454">
        <ele>1126</ele>
        <time>2026-05-09T20:54:25.341Z</time>
      </trkpt>
      <trkpt lat="47.84982" lon="6.9245">
        <ele>1126</ele>
        <time>2026-05-09T20:54:26.342Z</time>
      </trkpt>
      <trkpt lat="47.84982" lon="6.92451">
        <ele>1126</ele>
        <time>2026-05-09T20:54:27.342Z</time>
      </trkpt>
      <trkpt lat="47.84983" lon="6.92452">
        <ele>1126</ele>
        <time>2026-05-09T20:54:28.341Z</time>
      </trkpt>
      <trkpt lat="47.84983" lon="6.92453">
        <ele>1126</ele>
        <time>2026-05-09T20:54:29.341Z</time>
      </trkpt>
      <trkpt lat="47.84984" lon="6.92454">
        <ele>1126</ele>
        <time>2026-05-09T20:54:30.342Z</time>
      </trkpt>
      <trkpt lat="47.84984" lon="6.92455">
        <ele>1125</ele>
        <time>2026-05-09T20:54:31.342Z</time>
      </trkpt>
      <trkpt lat="47.84984" lon="6.92455">
        <ele>1124</ele>
        <time>2026-05-09T20:54:32.341Z</time>
      </trkpt>
      <trkpt lat="47.84984" lon="6.92455">
        <ele>1124</ele>
        <time>2026-05-09T20:54:33.341Z</time>
      </trkpt>
      <trkpt lat="47.84983" lon="6.92456">
        <ele>1123</ele>
        <time>2026-05-09T20:54:34.341Z</time>
      </trkpt>
      <trkpt lat="47.84982" lon="6.92457">
        <ele>1122</ele>
        <time>2026-05-09T20:54:35.341Z</time>
      </trkpt>
      <trkpt lat="47.84981" lon="6.92457">
        <ele>1121</ele>
        <time>2026-05-09T20:54:36.342Z</time>
      </trkpt>
      <trkpt lat="47.8498" lon="6.92456">
        <ele>1120</ele>
        <time>2026-05-09T20:54:37.342Z</time>
      </trkpt>
      <trkpt lat="47.84979" lon="6.92456">
        <ele>1120</ele>
        <time>2026-05-09T20:54:38.342Z</time>
      </trkpt>
      <trkpt lat="47.84977" lon="6.92456">
        <ele>1119</ele>
        <time>2026-05-09T20:54:39.342Z</time>
      </trkpt>
      <trkpt lat="47.84976" lon="6.92457">
        <ele>1119</ele>
        <time>2026-05-09T20:54:40.341Z</time>
      </trkpt>
      <trkpt lat="47.84975" lon="6.92457">
        <ele>1118</ele>
        <time>2026-05-09T20:54:41.341Z</time>
      </trkpt>
      <trkpt lat="47.84974" lon="6.92456">
        <ele>1118</ele>
        <time>2026-05-09T20:54:42.341Z</time>
      </trkpt>
      <trkpt lat="47.84973" lon="6.92455">
        <ele>1117</ele>
        <time>2026-05-09T20:54:43.341Z</time>
      </trkpt>
      <trkpt lat="47.84973" lon="6.92455">
        <ele>1117</ele>
        <time>2026-05-09T20:54:44.341Z</time>
      </trkpt>
      <trkpt lat="47.84973" lon="6.92455">
        <ele>1116</ele>
        <time>2026-05-09T20:54:45.341Z</time>
      </trkpt>
      <trkpt lat="47.84973" lon="6.92455">
        <ele>1115</ele>
        <time>2026-05-09T20:54:46.341Z</time>
      </trkpt>
      <trkpt lat="47.84969" lon="6.92455">
        <ele>1115</ele>
        <time>2026-05-09T20:54:53.558Z</time>
      </trkpt>
      <trkpt lat="47.84968" lon="6.92456">
        <ele>1116</ele>
        <time>2026-05-09T20:54:54.557Z</time>
      </trkpt>
      <trkpt lat="47.84967" lon="6.92456">
        <ele>1116</ele>
        <time>2026-05-09T20:54:55.557Z</time>
      </trkpt>
      <trkpt lat="47.84967" lon="6.92456">
        <ele>1116</ele>
        <time>2026-05-09T20:54:56.558Z</time>
      </trkpt>
      <trkpt lat="47.84966" lon="6.92456">
        <ele>1116</ele>
        <time>2026-05-09T20:54:57.558Z</time>
      </trkpt>
      <trkpt lat="47.84965" lon="6.92456">
        <ele>1116</ele>
        <time>2026-05-09T20:54:58.557Z</time>
      </trkpt>
      <trkpt lat="47.84965" lon="6.92455">
        <ele>1115</ele>
        <time>2026-05-09T20:54:59.557Z</time>
      </trkpt>
      <trkpt lat="47.84964" lon="6.92454">
        <ele>1115</ele>
        <time>2026-05-09T20:55:00.557Z</time>
      </trkpt>
      <trkpt lat="47.84964" lon="6.92454">
        <ele>1115</ele>
        <time>2026-05-09T20:55:01.557Z</time>
      </trkpt>
      <trkpt lat="47.84963" lon="6.92453">
        <ele>1115</ele>
        <time>2026-05-09T20:55:02.558Z</time>
      </trkpt>
      <trkpt lat="47.84962" lon="6.92453">
        <ele>1114</ele>
        <time>2026-05-09T20:55:03.558Z</time>
      </trkpt>
      <trkpt lat="47.84961" lon="6.92453">
        <ele>1114</ele>
        <time>2026-05-09T20:55:04.558Z</time>
      </trkpt>
      <trkpt lat="47.84959" lon="6.92453">
        <ele>1114</ele>
        <time>2026-05-09T20:55:05.558Z</time>
      </trkpt>
      <trkpt lat="47.84958" lon="6.92453">
        <ele>1114</ele>
        <time>2026-05-09T20:55:06.558Z</time>
      </trkpt>
      <trkpt lat="47.84957" lon="6.92453">
        <ele>1114</ele>
        <time>2026-05-09T20:55:07.558Z</time>
      </trkpt>
      <trkpt lat="47.84956" lon="6.92452">
        <ele>1114</ele>
        <time>2026-05-09T20:55:08.557Z</time>
      </trkpt>
      <trkpt lat="47.84956" lon="6.92452">
        <ele>1113</ele>
        <time>2026-05-09T20:55:09.557Z</time>
      </trkpt>
      <trkpt lat="47.84955" lon="6.92453">
        <ele>1113</ele>
        <time>2026-05-09T20:55:10.558Z</time>
      </trkpt>
      <trkpt lat="47.84954" lon="6.92453">
        <ele>1113</ele>
        <time>2026-05-09T20:55:11.557Z</time>
      </trkpt>
      <trkpt lat="47.84953" lon="6.92454">
        <ele>1113</ele>
        <time>2026-05-09T20:55:12.557Z</time>
      </trkpt>
      <trkpt lat="47.84952" lon="6.92455">
        <ele>1113</ele>
        <time>2026-05-09T20:55:13.557Z</time>
      </trkpt>
      <trkpt lat="47.84951" lon="6.92454">
        <ele>1113</ele>
        <time>2026-05-09T20:55:14.557Z</time>
      </trkpt>
      <trkpt lat="47.84949" lon="6.92454">
        <ele>1113</ele>
        <time>2026-05-09T20:55:15.558Z</time>
      </trkpt>
      <trkpt lat="47.84948" lon="6.92452">
        <ele>1113</ele>
        <time>2026-05-09T20:55:16.558Z</time>
      </trkpt>
      <trkpt lat="47.84947" lon="6.92451">
        <ele>1112</ele>
        <time>2026-05-09T20:55:17.557Z</time>
      </trkpt>
      <trkpt lat="47.84946" lon="6.92451">
        <ele>1112</ele>
        <time>2026-05-09T20:55:18.557Z</time>
      </trkpt>
      <trkpt lat="47.84944" lon="6.92451">
        <ele>1111</ele>
        <time>2026-05-09T20:55:19.557Z</time>
      </trkpt>
      <trkpt lat="47.84943" lon="6.92451">
        <ele>1111</ele>
        <time>2026-05-09T20:55:20.557Z</time>
      </trkpt>
      <trkpt lat="47.84942" lon="6.92451">
        <ele>1111</ele>
        <time>2026-05-09T20:55:21.558Z</time>
      </trkpt>
      <trkpt lat="47.8494" lon="6.92452">
        <ele>1110</ele>
        <time>2026-05-09T20:55:22.558Z</time>
      </trkpt>
      <trkpt lat="47.8494" lon="6.92452">
        <ele>1110</ele>
        <time>2026-05-09T20:55:23.558Z</time>
      </trkpt>
      <trkpt lat="47.84939" lon="6.92452">
        <ele>1110</ele>
        <time>2026-05-09T20:55:24.558Z</time>
      </trkpt>
      <trkpt lat="47.84938" lon="6.92452">
        <ele>1110</ele>
        <time>2026-05-09T20:55:25.558Z</time>
      </trkpt>
      <trkpt lat="47.84937" lon="6.92452">
        <ele>1110</ele>
        <time>2026-05-09T20:55:26.557Z</time>
      </trkpt>
      <trkpt lat="47.84936" lon="6.92452">
        <ele>1110</ele>
        <time>2026-05-09T20:55:27.557Z</time>
      </trkpt>
      <trkpt lat="47.84935" lon="6.92451">
        <ele>1110</ele>
        <time>2026-05-09T20:55:28.557Z</time>
      </trkpt>
      <trkpt lat="47.84934" lon="6.9245">
        <ele>1110</ele>
        <time>2026-05-09T20:55:29.557Z</time>
      </trkpt>
      <trkpt lat="47.84933" lon="6.92449">
        <ele>1109</ele>
        <time>2026-05-09T20:55:30.557Z</time>
      </trkpt>
      <trkpt lat="47.84931" lon="6.92448">
        <ele>1109</ele>
        <time>2026-05-09T20:55:31.558Z</time>
      </trkpt>
      <trkpt lat="47.8493" lon="6.92448">
        <ele>1109</ele>
        <time>2026-05-09T20:55:32.558Z</time>
      </trkpt>
      <trkpt lat="47.84929" lon="6.92447">
        <ele>1108</ele>
        <time>2026-05-09T20:55:33.558Z</time>
      </trkpt>
      <trkpt lat="47.84927" lon="6.92448">
        <ele>1108</ele>
        <time>2026-05-09T20:55:34.558Z</time>
      </trkpt>
      <trkpt lat="47.84926" lon="6.92448">
        <ele>1108</ele>
        <time>2026-05-09T20:55:35.557Z</time>
      </trkpt>
      <trkpt lat="47.84924" lon="6.92449">
        <ele>1108</ele>
        <time>2026-05-09T20:55:36.557Z</time>
      </trkpt>
      <trkpt lat="47.84921" lon="6.92449">
        <ele>1108</ele>
        <time>2026-05-09T20:55:37.557Z</time>
      </trkpt>
      <trkpt lat="47.8492" lon="6.92449">
        <ele>1108</ele>
        <time>2026-05-09T20:55:38.557Z</time>
      </trkpt>
      <trkpt lat="47.84918" lon="6.92449">
        <ele>1108</ele>
        <time>2026-05-09T20:55:39.557Z</time>
      </trkpt>
      <trkpt lat="47.84916" lon="6.92448">
        <ele>1107</ele>
        <time>2026-05-09T20:55:40.557Z</time>
      </trkpt>
      <trkpt lat="47.84915" lon="6.92448">
        <ele>1107</ele>
        <time>2026-05-09T20:55:41.557Z</time>
      </trkpt>
      <trkpt lat="47.84913" lon="6.92447">
        <ele>1106</ele>
        <time>2026-05-09T20:55:42.557Z</time>
      </trkpt>
      <trkpt lat="47.84911" lon="6.92447">
        <ele>1106</ele>
        <time>2026-05-09T20:55:43.558Z</time>
      </trkpt>
      <trkpt lat="47.84909" lon="6.92446">
        <ele>1105</ele>
        <time>2026-05-09T20:55:44.558Z</time>
      </trkpt>
      <trkpt lat="47.84908" lon="6.92446">
        <ele>1105</ele>
        <time>2026-05-09T20:55:45.558Z</time>
      </trkpt>
      <trkpt lat="47.84906" lon="6.92446">
        <ele>1105</ele>
        <time>2026-05-09T20:55:46.557Z</time>
      </trkpt>
      <trkpt lat="47.84904" lon="6.92447">
        <ele>1104</ele>
        <time>2026-05-09T20:55:47.557Z</time>
      </trkpt>
      <trkpt lat="47.84902" lon="6.92447">
        <ele>1104</ele>
        <time>2026-05-09T20:55:48.557Z</time>
      </trkpt>
      <trkpt lat="47.849" lon="6.92446">
        <ele>1104</ele>
        <time>2026-05-09T20:55:49.557Z</time>
      </trkpt>
      <trkpt lat="47.84899" lon="6.92446">
        <ele>1103</ele>
        <time>2026-05-09T20:55:50.557Z</time>
      </trkpt>
      <trkpt lat="47.84897" lon="6.92447">
        <ele>1103</ele>
        <time>2026-05-09T20:55:51.557Z</time>
      </trkpt>
      <trkpt lat="47.84896" lon="6.92448">
        <ele>1102</ele>
        <time>2026-05-09T20:55:52.558Z</time>
      </trkpt>
      <trkpt lat="47.84894" lon="6.92449">
        <ele>1102</ele>
        <time>2026-05-09T20:55:53.558Z</time>
      </trkpt>
      <trkpt lat="47.84893" lon="6.9245">
        <ele>1101</ele>
        <time>2026-05-09T20:55:54.557Z</time>
      </trkpt>
      <trkpt lat="47.84893" lon="6.9245">
        <ele>1101</ele>
        <time>2026-05-09T20:55:55.558Z</time>
      </trkpt>
      <trkpt lat="47.84892" lon="6.9245">
        <ele>1101</ele>
        <time>2026-05-09T20:55:56.558Z</time>
      </trkpt>
      <trkpt lat="47.84892" lon="6.9245">
        <ele>1100</ele>
        <time>2026-05-09T20:55:57.558Z</time>
      </trkpt>
      <trkpt lat="47.84892" lon="6.9245">
        <ele>1100</ele>
        <time>2026-05-09T20:55:58.558Z</time>
      </trkpt>
      <trkpt lat="47.84891" lon="6.9245">
        <ele>1099</ele>
        <time>2026-05-09T20:55:59.558Z</time>
      </trkpt>
      <trkpt lat="47.84891" lon="6.9245">
        <ele>1099</ele>
        <time>2026-05-09T20:56:00.558Z</time>
      </trkpt>
      <trkpt lat="47.8489" lon="6.92451">
        <ele>1098</ele>
        <time>2026-05-09T20:56:01.557Z</time>
      </trkpt>
      <trkpt lat="47.84889" lon="6.92451">
        <ele>1098</ele>
        <time>2026-05-09T20:56:02.557Z</time>
      </trkpt>
      <trkpt lat="47.84888" lon="6.92452">
        <ele>1097</ele>
        <time>2026-05-09T20:56:03.557Z</time>
      </trkpt>
      <trkpt lat="47.84887" lon="6.92452">
        <ele>1097</ele>
        <time>2026-05-09T20:56:04.557Z</time>
      </trkpt>
      <trkpt lat="47.84887" lon="6.92453">
        <ele>1096</ele>
        <time>2026-05-09T20:56:05.557Z</time>
      </trkpt>
      <trkpt lat="47.84886" lon="6.92453">
        <ele>1096</ele>
        <time>2026-05-09T20:56:06.558Z</time>
      </trkpt>
      <trkpt lat="47.84885" lon="6.92453">
        <ele>1095</ele>
        <time>2026-05-09T20:56:07.557Z</time>
      </trkpt>
      <trkpt lat="47.84884" lon="6.92453">
        <ele>1094</ele>
        <time>2026-05-09T20:56:08.558Z</time>
      </trkpt>
      <trkpt lat="47.84883" lon="6.92453">
        <ele>1093</ele>
        <time>2026-05-09T20:56:09.558Z</time>
      </trkpt>
      <trkpt lat="47.84882" lon="6.92453">
        <ele>1093</ele>
        <time>2026-05-09T20:56:10.558Z</time>
      </trkpt>
      <trkpt lat="47.84882" lon="6.92453">
        <ele>1092</ele>
        <time>2026-05-09T20:56:11.557Z</time>
      </trkpt>
      <trkpt lat="47.84881" lon="6.92453">
        <ele>1091</ele>
        <time>2026-05-09T20:56:12.557Z</time>
      </trkpt>
      <trkpt lat="47.8488" lon="6.92453">
        <ele>1090</ele>
        <time>2026-05-09T20:56:13.557Z</time>
      </trkpt>
      <trkpt lat="47.84879" lon="6.92453">
        <ele>1090</ele>
        <time>2026-05-09T20:56:14.557Z</time>
      </trkpt>
      <trkpt lat="47.84878" lon="6.92454">
        <ele>1089</ele>
        <time>2026-05-09T20:56:15.557Z</time>
      </trkpt>
      <trkpt lat="47.84877" lon="6.92454">
        <ele>1088</ele>
        <time>2026-05-09T20:56:16.558Z</time>
      </trkpt>
      <trkpt lat="47.84876" lon="6.92455">
        <ele>1088</ele>
        <time>2026-05-09T20:56:17.558Z</time>
      </trkpt>
      <trkpt lat="47.84875" lon="6.92456">
        <ele>1088</ele>
        <time>2026-05-09T20:56:18.558Z</time>
      </trkpt>
      <trkpt lat="47.84874" lon="6.92456">
        <ele>1088</ele>
        <time>2026-05-09T20:56:19.558Z</time>
      </trkpt>
      <trkpt lat="47.84874" lon="6.92456">
        <ele>1088</ele>
        <time>2026-05-09T20:56:20.558Z</time>
      </trkpt>
      <trkpt lat="47.84874" lon="6.92457">
        <ele>1088</ele>
        <time>2026-05-09T20:56:21.558Z</time>
      </trkpt>
      <trkpt lat="47.84873" lon="6.92458">
        <ele>1088</ele>
        <time>2026-05-09T20:56:22.558Z</time>
      </trkpt>
      <trkpt lat="47.84873" lon="6.9246">
        <ele>1087</ele>
        <time>2026-05-09T20:56:23.558Z</time>
      </trkpt>
      <trkpt lat="47.84872" lon="6.92461">
        <ele>1087</ele>
        <time>2026-05-09T20:56:24.557Z</time>
      </trkpt>
      <trkpt lat="47.84871" lon="6.92462">
        <ele>1087</ele>
        <time>2026-05-09T20:56:25.557Z</time>
      </trkpt>
      <trkpt lat="47.84871" lon="6.92463">
        <ele>1087</ele>
        <time>2026-05-09T20:56:26.557Z</time>
      </trkpt>
      <trkpt lat="47.84871" lon="6.92464">
        <ele>1087</ele>
        <time>2026-05-09T20:56:27.557Z</time>
      </trkpt>
      <trkpt lat="47.8487" lon="6.92466">
        <ele>1087</ele>
        <time>2026-05-09T20:56:28.557Z</time>
      </trkpt>
      <trkpt lat="47.84869" lon="6.92467">
        <ele>1087</ele>
        <time>2026-05-09T20:56:29.557Z</time>
      </trkpt>
      <trkpt lat="47.84868" lon="6.92469">
        <ele>1087</ele>
        <time>2026-05-09T20:56:30.557Z</time>
      </trkpt>
      <trkpt lat="47.84867" lon="6.9247">
        <ele>1087</ele>
        <time>2026-05-09T20:56:31.557Z</time>
      </trkpt>
      <trkpt lat="47.84866" lon="6.92471">
        <ele>1087</ele>
        <time>2026-05-09T20:56:32.557Z</time>
      </trkpt>
      <trkpt lat="47.84866" lon="6.92471">
        <ele>1087</ele>
        <time>2026-05-09T20:56:33.558Z</time>
      </trkpt>
      <trkpt lat="47.84866" lon="6.92471">
        <ele>1087</ele>
        <time>2026-05-09T20:56:34.558Z</time>
      </trkpt>
      <trkpt lat="47.84866" lon="6.9247">
        <ele>1087</ele>
        <time>2026-05-09T20:56:35.558Z</time>
      </trkpt>
      <trkpt lat="47.84865" lon="6.92468">
        <ele>1090</ele>
        <time>2026-05-09T20:57:03.218Z</time>
      </trkpt>
      <trkpt lat="47.84864" lon="6.92469">
        <ele>1090</ele>
        <time>2026-05-09T20:57:04.217Z</time>
      </trkpt>
      <trkpt lat="47.84863" lon="6.9247">
        <ele>1090</ele>
        <time>2026-05-09T20:57:05.218Z</time>
      </trkpt>
      <trkpt lat="47.84863" lon="6.9247">
        <ele>1090</ele>
        <time>2026-05-09T20:57:06.218Z</time>
      </trkpt>
      <trkpt lat="47.84862" lon="6.9247">
        <ele>1090</ele>
        <time>2026-05-09T20:57:07.218Z</time>
      </trkpt>
      <trkpt lat="47.84862" lon="6.9247">
        <ele>1090</ele>
        <time>2026-05-09T20:57:08.217Z</time>
      </trkpt>
      <trkpt lat="47.84861" lon="6.92463">
        <ele>1086</ele>
        <time>2026-05-09T20:57:18.532Z</time>
      </trkpt>
      <trkpt lat="47.8486" lon="6.92462">
        <ele>1085</ele>
        <time>2026-05-09T20:57:19.532Z</time>
      </trkpt>
      <trkpt lat="47.8486" lon="6.92462">
        <ele>1085</ele>
        <time>2026-05-09T20:57:20.533Z</time>
      </trkpt>
      <trkpt lat="47.8486" lon="6.92461">
        <ele>1084</ele>
        <time>2026-05-09T20:57:21.532Z</time>
      </trkpt>
      <trkpt lat="47.84859" lon="6.9246">
        <ele>1083</ele>
        <time>2026-05-09T20:57:22.533Z</time>
      </trkpt>
      <trkpt lat="47.84859" lon="6.92458">
        <ele>1082</ele>
        <time>2026-05-09T20:57:23.533Z</time>
      </trkpt>
      <trkpt lat="47.84858" lon="6.92457">
        <ele>1082</ele>
        <time>2026-05-09T20:57:24.533Z</time>
      </trkpt>
      <trkpt lat="47.84858" lon="6.92456">
        <ele>1081</ele>
        <time>2026-05-09T20:57:25.533Z</time>
      </trkpt>
      <trkpt lat="47.84858" lon="6.92455">
        <ele>1081</ele>
        <time>2026-05-09T20:57:26.533Z</time>
      </trkpt>
      <trkpt lat="47.84858" lon="6.92455">
        <ele>1080</ele>
        <time>2026-05-09T20:57:27.533Z</time>
      </trkpt>
      <trkpt lat="47.84858" lon="6.92454">
        <ele>1080</ele>
        <time>2026-05-09T20:57:28.533Z</time>
      </trkpt>
      <trkpt lat="47.84859" lon="6.92455">
        <ele>1075</ele>
        <time>2026-05-09T20:57:37.003Z</time>
      </trkpt>
      <trkpt lat="47.8486" lon="6.92454">
        <ele>1075</ele>
        <time>2026-05-09T20:57:38.003Z</time>
      </trkpt>
      <trkpt lat="47.8486" lon="6.92453">
        <ele>1074</ele>
        <time>2026-05-09T20:57:39.003Z</time>
      </trkpt>
      <trkpt lat="47.8486" lon="6.92453">
        <ele>1073</ele>
        <time>2026-05-09T20:57:40.003Z</time>
      </trkpt>
      <trkpt lat="47.8486" lon="6.92453">
        <ele>1073</ele>
        <time>2026-05-09T20:57:41.004Z</time>
      </trkpt>
      <trkpt lat="47.84859" lon="6.92455">
        <ele>1074</ele>
        <time>2026-05-09T20:57:46.452Z</time>
      </trkpt>
      <trkpt lat="47.84859" lon="6.92455">
        <ele>1073</ele>
        <time>2026-05-09T20:57:47.452Z</time>
      </trkpt>
      <trkpt lat="47.84859" lon="6.92455">
        <ele>1073</ele>
        <time>2026-05-09T20:57:48.452Z</time>
      </trkpt>
      <trkpt lat="47.84859" lon="6.92455">
        <ele>1073</ele>
        <time>2026-05-09T20:57:49.452Z</time>
      </trkpt>
      <trkpt lat="47.84858" lon="6.92455">
        <ele>1074</ele>
        <time>2026-05-09T20:57:50.452Z</time>
      </trkpt>
      <trkpt lat="47.84858" lon="6.92455">
        <ele>1074</ele>
        <time>2026-05-09T20:57:51.452Z</time>
      </trkpt>
      <trkpt lat="47.84858" lon="6.92455">
        <ele>1074</ele>
        <time>2026-05-09T20:57:52.451Z</time>
      </trkpt>
      <trkpt lat="47.84858" lon="6.92455">
        <ele>1075</ele>
        <time>2026-05-09T20:57:53.451Z</time>
      </trkpt>
      <trkpt lat="47.84858" lon="6.92455">
        <ele>1075</ele>
        <time>2026-05-09T20:57:54.451Z</time>
      </trkpt>
      <trkpt lat="47.84858" lon="6.92455">
        <ele>1075</ele>
        <time>2026-05-09T20:57:55.451Z</time>
      </trkpt>
      <trkpt lat="47.84858" lon="6.92455">
        <ele>1075</ele>
        <time>2026-05-09T20:57:56.452Z</time>
      </trkpt>
      <trkpt lat="47.84857" lon="6.92455">
        <ele>1075</ele>
        <time>2026-05-09T20:57:57.451Z</time>
      </trkpt>
      <trkpt lat="47.84857" lon="6.92456">
        <ele>1075</ele>
        <time>2026-05-09T20:57:58.451Z</time>
      </trkpt>
      <trkpt lat="47.84857" lon="6.92456">
        <ele>1075</ele>
        <time>2026-05-09T20:57:59.451Z</time>
      </trkpt>
      <trkpt lat="47.84857" lon="6.92456">
        <ele>1075</ele>
        <time>2026-05-09T20:58:00.451Z</time>
      </trkpt>
      <trkpt lat="47.84857" lon="6.92456">
        <ele>1074</ele>
        <time>2026-05-09T20:58:01.451Z</time>
      </trkpt>
      <trkpt lat="47.84857" lon="6.92456">
        <ele>1073</ele>
        <time>2026-05-09T20:58:02.452Z</time>
      </trkpt>
      <trkpt lat="47.84857" lon="6.92456">
        <ele>1073</ele>
        <time>2026-05-09T20:58:03.451Z</time>
      </trkpt>
      <trkpt lat="47.84857" lon="6.92456">
        <ele>1072</ele>
        <time>2026-05-09T20:58:04.452Z</time>
      </trkpt>
      <trkpt lat="47.84857" lon="6.92456">
        <ele>1072</ele>
        <time>2026-05-09T20:58:05.452Z</time>
      </trkpt>
      <trkpt lat="47.84857" lon="6.92456">
        <ele>1072</ele>
        <time>2026-05-09T20:58:06.452Z</time>
      </trkpt>
      <trkpt lat="47.84857" lon="6.92456">
        <ele>1072</ele>
        <time>2026-05-09T20:58:07.452Z</time>
      </trkpt>
      <trkpt lat="47.84857" lon="6.92456">
        <ele>1072</ele>
        <time>2026-05-09T20:58:08.452Z</time>
      </trkpt>
      <trkpt lat="47.84856" lon="6.92455">
        <ele>1072</ele>
        <time>2026-05-09T20:58:09.452Z</time>
      </trkpt>
      <trkpt lat="47.84856" lon="6.92455">
        <ele>1072</ele>
        <time>2026-05-09T20:58:10.452Z</time>
      </trkpt>
      <trkpt lat="47.84856" lon="6.92455">
        <ele>1072</ele>
        <time>2026-05-09T20:58:11.451Z</time>
      </trkpt>
      <trkpt lat="47.84856" lon="6.92455">
        <ele>1072</ele>
        <time>2026-05-09T20:58:12.452Z</time>
      </trkpt>
      <trkpt lat="47.84856" lon="6.92455">
        <ele>1073</ele>
        <time>2026-05-09T20:58:13.452Z</time>
      </trkpt>
      <trkpt lat="47.84856" lon="6.92455">
        <ele>1073</ele>
        <time>2026-05-09T20:58:14.451Z</time>
      </trkpt>
      <trkpt lat="47.84855" lon="6.92455">
        <ele>1073</ele>
        <time>2026-05-09T20:58:15.451Z</time>
      </trkpt>
      <trkpt lat="47.84855" lon="6.92454">
        <ele>1073</ele>
        <time>2026-05-09T20:58:16.451Z</time>
      </trkpt>
      <trkpt lat="47.84855" lon="6.92454">
        <ele>1073</ele>
        <time>2026-05-09T20:58:17.452Z</time>
      </trkpt>
      <trkpt lat="47.84855" lon="6.92454">
        <ele>1073</ele>
        <time>2026-05-09T20:58:18.452Z</time>
      </trkpt>
      <trkpt lat="47.84855" lon="6.92454">
        <ele>1073</ele>
        <time>2026-05-09T20:58:19.452Z</time>
      </trkpt>
      <trkpt lat="47.84855" lon="6.92454">
        <ele>1073</ele>
        <time>2026-05-09T20:58:20.452Z</time>
      </trkpt>
      <trkpt lat="47.84855" lon="6.92454">
        <ele>1073</ele>
        <time>2026-05-09T20:58:21.452Z</time>
      </trkpt>
      <trkpt lat="47.84854" lon="6.92454">
        <ele>1073</ele>
        <time>2026-05-09T20:58:22.452Z</time>
      </trkpt>
      <trkpt lat="47.84854" lon="6.92454">
        <ele>1072</ele>
        <time>2026-05-09T20:58:23.452Z</time>
      </trkpt>
      <trkpt lat="47.84854" lon="6.92454">
        <ele>1071</ele>
        <time>2026-05-09T20:58:24.451Z</time>
      </trkpt>
      <trkpt lat="47.84854" lon="6.92454">
        <ele>1070</ele>
        <time>2026-05-09T20:58:25.451Z</time>
      </trkpt>
      <trkpt lat="47.84852" lon="6.92456">
        <ele>1066</ele>
        <time>2026-05-09T20:58:50.801Z</time>
      </trkpt>
      <trkpt lat="47.84851" lon="6.92457">
        <ele>1067</ele>
        <time>2026-05-09T20:58:51.802Z</time>
      </trkpt>
      <trkpt lat="47.84851" lon="6.92458">
        <ele>1067</ele>
        <time>2026-05-09T20:58:52.801Z</time>
      </trkpt>
      <trkpt lat="47.8485" lon="6.92459">
        <ele>1067</ele>
        <time>2026-05-09T20:58:53.802Z</time>
      </trkpt>
      <trkpt lat="47.84849" lon="6.9246">
        <ele>1067</ele>
        <time>2026-05-09T20:58:54.802Z</time>
      </trkpt>
      <trkpt lat="47.84848" lon="6.9246">
        <ele>1068</ele>
        <time>2026-05-09T20:58:55.801Z</time>
      </trkpt>
      <trkpt lat="47.84847" lon="6.9246">
        <ele>1068</ele>
        <time>2026-05-09T20:58:56.802Z</time>
      </trkpt>
      <trkpt lat="47.84846" lon="6.9246">
        <ele>1068</ele>
        <time>2026-05-09T20:58:57.802Z</time>
      </trkpt>
      <trkpt lat="47.84845" lon="6.92461">
        <ele>1069</ele>
        <time>2026-05-09T20:58:58.801Z</time>
      </trkpt>
      <trkpt lat="47.84844" lon="6.92461">
        <ele>1069</ele>
        <time>2026-05-09T20:58:59.801Z</time>
      </trkpt>
      <trkpt lat="47.84844" lon="6.92461">
        <ele>1069</ele>
        <time>2026-05-09T20:59:00.801Z</time>
      </trkpt>
      <trkpt lat="47.84844" lon="6.9246">
        <ele>1070</ele>
        <time>2026-05-09T20:59:01.801Z</time>
      </trkpt>
      <trkpt lat="47.84843" lon="6.92458">
        <ele>1070</ele>
        <time>2026-05-09T20:59:02.801Z</time>
      </trkpt>
      <trkpt lat="47.84844" lon="6.92457">
        <ele>1070</ele>
        <time>2026-05-09T20:59:03.801Z</time>
      </trkpt>
      <trkpt lat="47.84844" lon="6.92455">
        <ele>1070</ele>
        <time>2026-05-09T20:59:04.802Z</time>
      </trkpt>
      <trkpt lat="47.84844" lon="6.92453">
        <ele>1069</ele>
        <time>2026-05-09T20:59:05.801Z</time>
      </trkpt>
      <trkpt lat="47.84845" lon="6.92452">
        <ele>1069</ele>
        <time>2026-05-09T20:59:06.801Z</time>
      </trkpt>
      <trkpt lat="47.84844" lon="6.9245">
        <ele>1069</ele>
        <time>2026-05-09T20:59:07.802Z</time>
      </trkpt>
      <trkpt lat="47.84844" lon="6.92448">
        <ele>1069</ele>
        <time>2026-05-09T20:59:08.802Z</time>
      </trkpt>
      <trkpt lat="47.84844" lon="6.92446">
        <ele>1069</ele>
        <time>2026-05-09T20:59:09.802Z</time>
      </trkpt>
      <trkpt lat="47.84843" lon="6.92444">
        <ele>1070</ele>
        <time>2026-05-09T20:59:10.801Z</time>
      </trkpt>
      <trkpt lat="47.84842" lon="6.92442">
        <ele>1070</ele>
        <time>2026-05-09T20:59:11.801Z</time>
      </trkpt>
      <trkpt lat="47.84842" lon="6.92441">
        <ele>1070</ele>
        <time>2026-05-09T20:59:12.801Z</time>
      </trkpt>
      <trkpt lat="47.84841" lon="6.9244">
        <ele>1071</ele>
        <time>2026-05-09T20:59:13.801Z</time>
      </trkpt>
      <trkpt lat="47.84842" lon="6.92439">
        <ele>1071</ele>
        <time>2026-05-09T20:59:14.801Z</time>
      </trkpt>
      <trkpt lat="47.84842" lon="6.92439">
        <ele>1071</ele>
        <time>2026-05-09T20:59:15.801Z</time>
      </trkpt>
      <trkpt lat="47.84842" lon="6.92439">
        <ele>1070</ele>
        <time>2026-05-09T20:59:16.801Z</time>
      </trkpt>
      <trkpt lat="47.84842" lon="6.92439">
        <ele>1070</ele>
        <time>2026-05-09T20:59:17.802Z</time>
      </trkpt>
      <trkpt lat="47.84841" lon="6.92433">
        <ele>1067</ele>
        <time>2026-05-09T20:59:25.948Z</time>
      </trkpt>
      <trkpt lat="47.8484" lon="6.92433">
        <ele>1066</ele>
        <time>2026-05-09T20:59:26.947Z</time>
      </trkpt>
      <trkpt lat="47.8484" lon="6.92432">
        <ele>1066</ele>
        <time>2026-05-09T20:59:27.948Z</time>
      </trkpt>
      <trkpt lat="47.84839" lon="6.92432">
        <ele>1066</ele>
        <time>2026-05-09T20:59:28.947Z</time>
      </trkpt>
      <trkpt lat="47.84837" lon="6.92433">
        <ele>1066</ele>
        <time>2026-05-09T20:59:36.164Z</time>
      </trkpt>
      <trkpt lat="47.84836" lon="6.92433">
        <ele>1066</ele>
        <time>2026-05-09T20:59:37.165Z</time>
      </trkpt>
      <trkpt lat="47.84836" lon="6.92433">
        <ele>1066</ele>
        <time>2026-05-09T20:59:38.164Z</time>
      </trkpt>
      <trkpt lat="47.84838" lon="6.92434">
        <ele>1064</ele>
        <time>2026-05-09T20:59:44.348Z</time>
      </trkpt>
      <trkpt lat="47.84833" lon="6.92437">
        <ele>1062</ele>
        <time>2026-05-09T20:59:55.523Z</time>
      </trkpt>
      <trkpt lat="47.84832" lon="6.92438">
        <ele>1061</ele>
        <time>2026-05-09T20:59:56.523Z</time>
      </trkpt>
      <trkpt lat="47.84832" lon="6.92438">
        <ele>1061</ele>
        <time>2026-05-09T20:59:57.523Z</time>
      </trkpt>
      <trkpt lat="47.84831" lon="6.92438">
        <ele>1061</ele>
        <time>2026-05-09T20:59:58.523Z</time>
      </trkpt>
      <trkpt lat="47.84831" lon="6.92438">
        <ele>1061</ele>
        <time>2026-05-09T20:59:59.522Z</time>
      </trkpt>
      <trkpt lat="47.84831" lon="6.92438">
        <ele>1061</ele>
        <time>2026-05-09T21:00:00.523Z</time>
      </trkpt>
      <trkpt lat="47.84831" lon="6.92438">
        <ele>1061</ele>
        <time>2026-05-09T21:00:01.523Z</time>
      </trkpt>
      <trkpt lat="47.84829" lon="6.92437">
        <ele>1060</ele>
        <time>2026-05-09T21:00:02.522Z</time>
      </trkpt>
      <trkpt lat="47.84828" lon="6.92437">
        <ele>1060</ele>
        <time>2026-05-09T21:00:03.522Z</time>
      </trkpt>
      <trkpt lat="47.84828" lon="6.92436">
        <ele>1060</ele>
        <time>2026-05-09T21:00:04.523Z</time>
      </trkpt>
      <trkpt lat="47.84827" lon="6.92436">
        <ele>1059</ele>
        <time>2026-05-09T21:00:05.523Z</time>
      </trkpt>
      <trkpt lat="47.84827" lon="6.92436">
        <ele>1059</ele>
        <time>2026-05-09T21:00:06.522Z</time>
      </trkpt>
      <trkpt lat="47.84827" lon="6.92436">
        <ele>1059</ele>
        <time>2026-05-09T21:00:07.523Z</time>
      </trkpt>
      <trkpt lat="47.84827" lon="6.92436">
        <ele>1059</ele>
        <time>2026-05-09T21:00:08.523Z</time>
      </trkpt>
      <trkpt lat="47.84826" lon="6.92436">
        <ele>1058</ele>
        <time>2026-05-09T21:00:09.523Z</time>
      </trkpt>
      <trkpt lat="47.84825" lon="6.92436">
        <ele>1058</ele>
        <time>2026-05-09T21:00:10.523Z</time>
      </trkpt>
      <trkpt lat="47.84824" lon="6.92435">
        <ele>1057</ele>
        <time>2026-05-09T21:00:11.522Z</time>
      </trkpt>
      <trkpt lat="47.84823" lon="6.92435">
        <ele>1056</ele>
        <time>2026-05-09T21:00:12.522Z</time>
      </trkpt>
      <trkpt lat="47.84823" lon="6.92435">
        <ele>1056</ele>
        <time>2026-05-09T21:00:13.523Z</time>
      </trkpt>
      <trkpt lat="47.84822" lon="6.92435">
        <ele>1055</ele>
        <time>2026-05-09T21:00:14.522Z</time>
      </trkpt>
      <trkpt lat="47.84821" lon="6.92435">
        <ele>1055</ele>
        <time>2026-05-09T21:00:15.523Z</time>
      </trkpt>
      <trkpt lat="47.8482" lon="6.92435">
        <ele>1054</ele>
        <time>2026-05-09T21:00:16.522Z</time>
      </trkpt>
      <trkpt lat="47.84819" lon="6.92435">
        <ele>1054</ele>
        <time>2026-05-09T21:00:17.523Z</time>
      </trkpt>
      <trkpt lat="47.84818" lon="6.92434">
        <ele>1053</ele>
        <time>2026-05-09T21:00:18.523Z</time>
      </trkpt>
      <trkpt lat="47.84817" lon="6.92435">
        <ele>1053</ele>
        <time>2026-05-09T21:00:19.523Z</time>
      </trkpt>
      <trkpt lat="47.84815" lon="6.92435">
        <ele>1053</ele>
        <time>2026-05-09T21:00:20.522Z</time>
      </trkpt>
      <trkpt lat="47.84814" lon="6.92435">
        <ele>1052</ele>
        <time>2026-05-09T21:00:21.522Z</time>
      </trkpt>
      <trkpt lat="47.84813" lon="6.92436">
        <ele>1052</ele>
        <time>2026-05-09T21:00:22.523Z</time>
      </trkpt>
      <trkpt lat="47.84813" lon="6.92436">
        <ele>1052</ele>
        <time>2026-05-09T21:00:23.523Z</time>
      </trkpt>
      <trkpt lat="47.84811" lon="6.92436">
        <ele>1052</ele>
        <time>2026-05-09T21:00:24.522Z</time>
      </trkpt>
      <trkpt lat="47.84809" lon="6.92436">
        <ele>1052</ele>
        <time>2026-05-09T21:00:25.522Z</time>
      </trkpt>
      <trkpt lat="47.84808" lon="6.92435">
        <ele>1051</ele>
        <time>2026-05-09T21:00:26.523Z</time>
      </trkpt>
      <trkpt lat="47.84806" lon="6.92435">
        <ele>1051</ele>
        <time>2026-05-09T21:00:27.523Z</time>
      </trkpt>
      <trkpt lat="47.84805" lon="6.92434">
        <ele>1051</ele>
        <time>2026-05-09T21:00:28.523Z</time>
      </trkpt>
      <trkpt lat="47.84803" lon="6.92434">
        <ele>1051</ele>
        <time>2026-05-09T21:00:29.523Z</time>
      </trkpt>
      <trkpt lat="47.84802" lon="6.92435">
        <ele>1051</ele>
        <time>2026-05-09T21:00:30.522Z</time>
      </trkpt>
      <trkpt lat="47.84802" lon="6.92437">
        <ele>1051</ele>
        <time>2026-05-09T21:00:31.523Z</time>
      </trkpt>
      <trkpt lat="47.84801" lon="6.92437">
        <ele>1051</ele>
        <time>2026-05-09T21:00:32.522Z</time>
      </trkpt>
      <trkpt lat="47.84802" lon="6.92436">
        <ele>1051</ele>
        <time>2026-05-09T21:00:33.523Z</time>
      </trkpt>
      <trkpt lat="47.84802" lon="6.92434">
        <ele>1051</ele>
        <time>2026-05-09T21:00:34.522Z</time>
      </trkpt>
      <trkpt lat="47.84803" lon="6.92432">
        <ele>1051</ele>
        <time>2026-05-09T21:00:35.523Z</time>
      </trkpt>
      <trkpt lat="47.84803" lon="6.9243">
        <ele>1051</ele>
        <time>2026-05-09T21:00:36.522Z</time>
      </trkpt>
      <trkpt lat="47.84804" lon="6.92428">
        <ele>1051</ele>
        <time>2026-05-09T21:00:37.523Z</time>
      </trkpt>
      <trkpt lat="47.84805" lon="6.92428">
        <ele>1051</ele>
        <time>2026-05-09T21:00:38.522Z</time>
      </trkpt>
      <trkpt lat="47.84806" lon="6.92427">
        <ele>1051</ele>
        <time>2026-05-09T21:00:39.523Z</time>
      </trkpt>
      <trkpt lat="47.84807" lon="6.92426">
        <ele>1051</ele>
        <time>2026-05-09T21:00:40.522Z</time>
      </trkpt>
      <trkpt lat="47.84808" lon="6.92425">
        <ele>1051</ele>
        <time>2026-05-09T21:00:41.523Z</time>
      </trkpt>
      <trkpt lat="47.84808" lon="6.92424">
        <ele>1051</ele>
        <time>2026-05-09T21:00:42.522Z</time>
      </trkpt>
      <trkpt lat="47.84809" lon="6.92423">
        <ele>1051</ele>
        <time>2026-05-09T21:00:43.523Z</time>
      </trkpt>
      <trkpt lat="47.8481" lon="6.92423">
        <ele>1050</ele>
        <time>2026-05-09T21:00:44.522Z</time>
      </trkpt>
      <trkpt lat="47.8481" lon="6.92422">
        <ele>1049</ele>
        <time>2026-05-09T21:00:45.523Z</time>
      </trkpt>
      <trkpt lat="47.84804" lon="6.92422">
        <ele>1045</ele>
        <time>2026-05-09T21:00:52.743Z</time>
      </trkpt>
      <trkpt lat="47.84803" lon="6.92422">
        <ele>1045</ele>
        <time>2026-05-09T21:00:53.744Z</time>
      </trkpt>
      <trkpt lat="47.84802" lon="6.92422">
        <ele>1045</ele>
        <time>2026-05-09T21:00:54.743Z</time>
      </trkpt>
      <trkpt lat="47.84801" lon="6.92421">
        <ele>1045</ele>
        <time>2026-05-09T21:00:55.744Z</time>
      </trkpt>
      <trkpt lat="47.848" lon="6.92421">
        <ele>1045</ele>
        <time>2026-05-09T21:00:56.744Z</time>
      </trkpt>
      <trkpt lat="47.848" lon="6.92421">
        <ele>1045</ele>
        <time>2026-05-09T21:00:57.744Z</time>
      </trkpt>
      <trkpt lat="47.848" lon="6.9242">
        <ele>1045</ele>
        <time>2026-05-09T21:00:58.743Z</time>
      </trkpt>
      <trkpt lat="47.84799" lon="6.92419">
        <ele>1045</ele>
        <time>2026-05-09T21:00:59.744Z</time>
      </trkpt>
      <trkpt lat="47.84798" lon="6.92419">
        <ele>1045</ele>
        <time>2026-05-09T21:01:00.743Z</time>
      </trkpt>
      <trkpt lat="47.84798" lon="6.92419">
        <ele>1044</ele>
        <time>2026-05-09T21:01:01.744Z</time>
      </trkpt>
      <trkpt lat="47.84796" lon="6.92419">
        <ele>1044</ele>
        <time>2026-05-09T21:01:02.743Z</time>
      </trkpt>
      <trkpt lat="47.84796" lon="6.92418">
        <ele>1044</ele>
        <time>2026-05-09T21:01:03.744Z</time>
      </trkpt>
      <trkpt lat="47.84795" lon="6.92417">
        <ele>1044</ele>
        <time>2026-05-09T21:01:04.743Z</time>
      </trkpt>
      <trkpt lat="47.84795" lon="6.92415">
        <ele>1043</ele>
        <time>2026-05-09T21:01:05.744Z</time>
      </trkpt>
      <trkpt lat="47.84795" lon="6.92414">
        <ele>1043</ele>
        <time>2026-05-09T21:01:06.743Z</time>
      </trkpt>
      <trkpt lat="47.84796" lon="6.92413">
        <ele>1042</ele>
        <time>2026-05-09T21:01:07.744Z</time>
      </trkpt>
      <trkpt lat="47.84796" lon="6.92413">
        <ele>1042</ele>
        <time>2026-05-09T21:01:08.743Z</time>
      </trkpt>
      <trkpt lat="47.84796" lon="6.92412">
        <ele>1041</ele>
        <time>2026-05-09T21:01:09.744Z</time>
      </trkpt>
      <trkpt lat="47.84796" lon="6.92411">
        <ele>1041</ele>
        <time>2026-05-09T21:01:10.743Z</time>
      </trkpt>
      <trkpt lat="47.84796" lon="6.9241">
        <ele>1040</ele>
        <time>2026-05-09T21:01:11.744Z</time>
      </trkpt>
      <trkpt lat="47.84796" lon="6.92408">
        <ele>1040</ele>
        <time>2026-05-09T21:01:12.744Z</time>
      </trkpt>
      <trkpt lat="47.84796" lon="6.92406">
        <ele>1039</ele>
        <time>2026-05-09T21:01:13.743Z</time>
      </trkpt>
      <trkpt lat="47.84796" lon="6.92404">
        <ele>1039</ele>
        <time>2026-05-09T21:01:14.744Z</time>
      </trkpt>
      <trkpt lat="47.84797" lon="6.92404">
        <ele>1038</ele>
        <time>2026-05-09T21:01:15.743Z</time>
      </trkpt>
      <trkpt lat="47.84797" lon="6.92403">
        <ele>1038</ele>
        <time>2026-05-09T21:01:16.744Z</time>
      </trkpt>
      <trkpt lat="47.84797" lon="6.92402">
        <ele>1038</ele>
        <time>2026-05-09T21:01:17.743Z</time>
      </trkpt>
      <trkpt lat="47.84798" lon="6.92402">
        <ele>1038</ele>
        <time>2026-05-09T21:01:18.744Z</time>
      </trkpt>
      <trkpt lat="47.84798" lon="6.92401">
        <ele>1038</ele>
        <time>2026-05-09T21:01:19.743Z</time>
      </trkpt>
      <trkpt lat="47.84797" lon="6.924">
        <ele>1038</ele>
        <time>2026-05-09T21:01:20.744Z</time>
      </trkpt>
      <trkpt lat="47.84797" lon="6.924">
        <ele>1038</ele>
        <time>2026-05-09T21:01:21.743Z</time>
      </trkpt>
      <trkpt lat="47.84795" lon="6.924">
        <ele>1038</ele>
        <time>2026-05-09T21:01:22.743Z</time>
      </trkpt>
      <trkpt lat="47.84794" lon="6.924">
        <ele>1039</ele>
        <time>2026-05-09T21:01:23.743Z</time>
      </trkpt>
      <trkpt lat="47.84793" lon="6.924">
        <ele>1039</ele>
        <time>2026-05-09T21:01:24.744Z</time>
      </trkpt>
      <trkpt lat="47.84793" lon="6.92401">
        <ele>1039</ele>
        <time>2026-05-09T21:01:25.743Z</time>
      </trkpt>
      <trkpt lat="47.84792" lon="6.92401">
        <ele>1039</ele>
        <time>2026-05-09T21:01:26.744Z</time>
      </trkpt>
      <trkpt lat="47.84791" lon="6.92401">
        <ele>1039</ele>
        <time>2026-05-09T21:01:27.744Z</time>
      </trkpt>
      <trkpt lat="47.84791" lon="6.924">
        <ele>1039</ele>
        <time>2026-05-09T21:01:28.744Z</time>
      </trkpt>
      <trkpt lat="47.8479" lon="6.924">
        <ele>1039</ele>
        <time>2026-05-09T21:01:29.744Z</time>
      </trkpt>
      <trkpt lat="47.8479" lon="6.924">
        <ele>1039</ele>
        <time>2026-05-09T21:01:30.743Z</time>
      </trkpt>
      <trkpt lat="47.8479" lon="6.924">
        <ele>1039</ele>
        <time>2026-05-09T21:01:31.743Z</time>
      </trkpt>
      <trkpt lat="47.84787" lon="6.92395">
        <ele>1037</ele>
        <time>2026-05-09T21:01:38.976Z</time>
      </trkpt>
      <trkpt lat="47.84788" lon="6.92393">
        <ele>1036</ele>
        <time>2026-05-09T21:01:39.976Z</time>
      </trkpt>
      <trkpt lat="47.84788" lon="6.92392">
        <ele>1036</ele>
        <time>2026-05-09T21:01:40.976Z</time>
      </trkpt>
      <trkpt lat="47.84788" lon="6.9239">
        <ele>1035</ele>
        <time>2026-05-09T21:01:41.976Z</time>
      </trkpt>
      <trkpt lat="47.84789" lon="6.9239">
        <ele>1034</ele>
        <time>2026-05-09T21:01:42.976Z</time>
      </trkpt>
      <trkpt lat="47.84788" lon="6.92388">
        <ele>1034</ele>
        <time>2026-05-09T21:01:43.976Z</time>
      </trkpt>
      <trkpt lat="47.84788" lon="6.92386">
        <ele>1033</ele>
        <time>2026-05-09T21:01:44.976Z</time>
      </trkpt>
      <trkpt lat="47.84788" lon="6.92383">
        <ele>1033</ele>
        <time>2026-05-09T21:01:45.976Z</time>
      </trkpt>
      <trkpt lat="47.84787" lon="6.92382">
        <ele>1033</ele>
        <time>2026-05-09T21:01:46.976Z</time>
      </trkpt>
      <trkpt lat="47.84787" lon="6.92381">
        <ele>1033</ele>
        <time>2026-05-09T21:01:47.976Z</time>
      </trkpt>
      <trkpt lat="47.84788" lon="6.92381">
        <ele>1033</ele>
        <time>2026-05-09T21:01:48.976Z</time>
      </trkpt>
      <trkpt lat="47.84787" lon="6.92381">
        <ele>1032</ele>
        <time>2026-05-09T21:01:49.976Z</time>
      </trkpt>
      <trkpt lat="47.84779" lon="6.92384">
        <ele>1030</ele>
        <time>2026-05-09T21:01:56.256Z</time>
      </trkpt>
      <trkpt lat="47.84778" lon="6.92384">
        <ele>1030</ele>
        <time>2026-05-09T21:01:57.256Z</time>
      </trkpt>
      <trkpt lat="47.84777" lon="6.92384">
        <ele>1030</ele>
        <time>2026-05-09T21:01:58.257Z</time>
      </trkpt>
      <trkpt lat="47.84776" lon="6.92385">
        <ele>1030</ele>
        <time>2026-05-09T21:01:59.256Z</time>
      </trkpt>
      <trkpt lat="47.84775" lon="6.92386">
        <ele>1030</ele>
        <time>2026-05-09T21:02:00.256Z</time>
      </trkpt>
      <trkpt lat="47.84774" lon="6.92386">
        <ele>1030</ele>
        <time>2026-05-09T21:02:01.257Z</time>
      </trkpt>
      <trkpt lat="47.84773" lon="6.92387">
        <ele>1030</ele>
        <time>2026-05-09T21:02:02.256Z</time>
      </trkpt>
      <trkpt lat="47.84772" lon="6.92387">
        <ele>1029</ele>
        <time>2026-05-09T21:02:03.256Z</time>
      </trkpt>
      <trkpt lat="47.84771" lon="6.92386">
        <ele>1029</ele>
        <time>2026-05-09T21:02:04.257Z</time>
      </trkpt>
      <trkpt lat="47.84771" lon="6.92386">
        <ele>1028</ele>
        <time>2026-05-09T21:02:05.257Z</time>
      </trkpt>
      <trkpt lat="47.8477" lon="6.92387">
        <ele>1028</ele>
        <time>2026-05-09T21:02:06.256Z</time>
      </trkpt>
      <trkpt lat="47.84768" lon="6.92388">
        <ele>1027</ele>
        <time>2026-05-09T21:02:07.257Z</time>
      </trkpt>
      <trkpt lat="47.84767" lon="6.92388">
        <ele>1026</ele>
        <time>2026-05-09T21:02:08.257Z</time>
      </trkpt>
      <trkpt lat="47.84766" lon="6.92389">
        <ele>1026</ele>
        <time>2026-05-09T21:02:09.256Z</time>
      </trkpt>
      <trkpt lat="47.84766" lon="6.92389">
        <ele>1025</ele>
        <time>2026-05-09T21:02:10.256Z</time>
      </trkpt>
      <trkpt lat="47.84764" lon="6.92389">
        <ele>1024</ele>
        <time>2026-05-09T21:02:11.256Z</time>
      </trkpt>
      <trkpt lat="47.84764" lon="6.92388">
        <ele>1024</ele>
        <time>2026-05-09T21:02:12.257Z</time>
      </trkpt>
      <trkpt lat="47.84762" lon="6.92388">
        <ele>1023</ele>
        <time>2026-05-09T21:02:13.256Z</time>
      </trkpt>
      <trkpt lat="47.8476" lon="6.92388">
        <ele>1023</ele>
        <time>2026-05-09T21:02:14.256Z</time>
      </trkpt>
      <trkpt lat="47.84759" lon="6.92387">
        <ele>1022</ele>
        <time>2026-05-09T21:02:15.256Z</time>
      </trkpt>
      <trkpt lat="47.84758" lon="6.92388">
        <ele>1022</ele>
        <time>2026-05-09T21:02:16.257Z</time>
      </trkpt>
      <trkpt lat="47.84757" lon="6.92388">
        <ele>1021</ele>
        <time>2026-05-09T21:02:17.257Z</time>
      </trkpt>
      <trkpt lat="47.84747" lon="6.92393">
        <ele>1019</ele>
        <time>2026-05-09T21:02:25.321Z</time>
      </trkpt>
      <trkpt lat="47.84746" lon="6.92394">
        <ele>1019</ele>
        <time>2026-05-09T21:02:26.320Z</time>
      </trkpt>
      <trkpt lat="47.84746" lon="6.92395">
        <ele>1018</ele>
        <time>2026-05-09T21:02:27.321Z</time>
      </trkpt>
      <trkpt lat="47.84745" lon="6.92395">
        <ele>1018</ele>
        <time>2026-05-09T21:02:28.320Z</time>
      </trkpt>
      <trkpt lat="47.84744" lon="6.92395">
        <ele>1018</ele>
        <time>2026-05-09T21:02:29.320Z</time>
      </trkpt>
      <trkpt lat="47.84744" lon="6.92396">
        <ele>1018</ele>
        <time>2026-05-09T21:02:30.320Z</time>
      </trkpt>
      <trkpt lat="47.84743" lon="6.92396">
        <ele>1017</ele>
        <time>2026-05-09T21:02:31.320Z</time>
      </trkpt>
      <trkpt lat="47.84741" lon="6.92396">
        <ele>1017</ele>
        <time>2026-05-09T21:02:32.321Z</time>
      </trkpt>
      <trkpt lat="47.8474" lon="6.92397">
        <ele>1017</ele>
        <time>2026-05-09T21:02:33.320Z</time>
      </trkpt>
      <trkpt lat="47.8474" lon="6.92397">
        <ele>1017</ele>
        <time>2026-05-09T21:02:34.320Z</time>
      </trkpt>
      <trkpt lat="47.84738" lon="6.92398">
        <ele>1017</ele>
        <time>2026-05-09T21:02:35.321Z</time>
      </trkpt>
      <trkpt lat="47.84736" lon="6.92398">
        <ele>1016</ele>
        <time>2026-05-09T21:02:36.320Z</time>
      </trkpt>
      <trkpt lat="47.84735" lon="6.92399">
        <ele>1016</ele>
        <time>2026-05-09T21:02:37.321Z</time>
      </trkpt>
      <trkpt lat="47.84734" lon="6.92398">
        <ele>1016</ele>
        <time>2026-05-09T21:02:38.321Z</time>
      </trkpt>
      <trkpt lat="47.84732" lon="6.92398">
        <ele>1016</ele>
        <time>2026-05-09T21:02:39.321Z</time>
      </trkpt>
      <trkpt lat="47.84731" lon="6.92398">
        <ele>1015</ele>
        <time>2026-05-09T21:02:40.320Z</time>
      </trkpt>
      <trkpt lat="47.8473" lon="6.92398">
        <ele>1015</ele>
        <time>2026-05-09T21:02:41.321Z</time>
      </trkpt>
      <trkpt lat="47.84729" lon="6.92398">
        <ele>1015</ele>
        <time>2026-05-09T21:02:42.320Z</time>
      </trkpt>
      <trkpt lat="47.84729" lon="6.92399">
        <ele>1014</ele>
        <time>2026-05-09T21:02:43.320Z</time>
      </trkpt>
      <trkpt lat="47.84727" lon="6.92399">
        <ele>1014</ele>
        <time>2026-05-09T21:02:44.320Z</time>
      </trkpt>
      <trkpt lat="47.84726" lon="6.92399">
        <ele>1013</ele>
        <time>2026-05-09T21:02:45.320Z</time>
      </trkpt>
      <trkpt lat="47.84725" lon="6.92399">
        <ele>1012</ele>
        <time>2026-05-09T21:02:46.320Z</time>
      </trkpt>
      <trkpt lat="47.84724" lon="6.92399">
        <ele>1012</ele>
        <time>2026-05-09T21:02:47.321Z</time>
      </trkpt>
      <trkpt lat="47.84724" lon="6.92398">
        <ele>1011</ele>
        <time>2026-05-09T21:02:48.320Z</time>
      </trkpt>
      <trkpt lat="47.84719" lon="6.924">
        <ele>1009</ele>
        <time>2026-05-09T21:02:54.763Z</time>
      </trkpt>
      <trkpt lat="47.84719" lon="6.924">
        <ele>1009</ele>
        <time>2026-05-09T21:02:55.763Z</time>
      </trkpt>
      <trkpt lat="47.84714" lon="6.92403">
        <ele>1006</ele>
        <time>2026-05-09T21:03:04.366Z</time>
      </trkpt>
      <trkpt lat="47.84714" lon="6.92404">
        <ele>1006</ele>
        <time>2026-05-09T21:03:05.367Z</time>
      </trkpt>
      <trkpt lat="47.84714" lon="6.92405">
        <ele>1005</ele>
        <time>2026-05-09T21:03:06.366Z</time>
      </trkpt>
      <trkpt lat="47.84713" lon="6.92406">
        <ele>1005</ele>
        <time>2026-05-09T21:03:07.367Z</time>
      </trkpt>
      <trkpt lat="47.84712" lon="6.92406">
        <ele>1005</ele>
        <time>2026-05-09T21:03:08.366Z</time>
      </trkpt>
      <trkpt lat="47.84712" lon="6.92406">
        <ele>1004</ele>
        <time>2026-05-09T21:03:09.367Z</time>
      </trkpt>
      <trkpt lat="47.84711" lon="6.92406">
        <ele>1004</ele>
        <time>2026-05-09T21:03:10.366Z</time>
      </trkpt>
      <trkpt lat="47.84707" lon="6.92411">
        <ele>1002</ele>
        <time>2026-05-09T21:03:19.588Z</time>
      </trkpt>
      <trkpt lat="47.84706" lon="6.92412">
        <ele>1002</ele>
        <time>2026-05-09T21:03:20.588Z</time>
      </trkpt>
      <trkpt lat="47.84705" lon="6.92413">
        <ele>1002</ele>
        <time>2026-05-09T21:03:21.588Z</time>
      </trkpt>
      <trkpt lat="47.84704" lon="6.92414">
        <ele>1002</ele>
        <time>2026-05-09T21:03:22.589Z</time>
      </trkpt>
      <trkpt lat="47.84704" lon="6.92415">
        <ele>1002</ele>
        <time>2026-05-09T21:03:23.588Z</time>
      </trkpt>
      <trkpt lat="47.84703" lon="6.92416">
        <ele>1002</ele>
        <time>2026-05-09T21:03:24.589Z</time>
      </trkpt>
      <trkpt lat="47.84703" lon="6.92416">
        <ele>1001</ele>
        <time>2026-05-09T21:03:25.588Z</time>
      </trkpt>
      <trkpt lat="47.84702" lon="6.92417">
        <ele>1001</ele>
        <time>2026-05-09T21:03:26.589Z</time>
      </trkpt>
      <trkpt lat="47.84701" lon="6.92418">
        <ele>1001</ele>
        <time>2026-05-09T21:03:27.588Z</time>
      </trkpt>
      <trkpt lat="47.847" lon="6.92418">
        <ele>1001</ele>
        <time>2026-05-09T21:03:28.589Z</time>
      </trkpt>
      <trkpt lat="47.847" lon="6.92418">
        <ele>1001</ele>
        <time>2026-05-09T21:03:29.588Z</time>
      </trkpt>
      <trkpt lat="47.84699" lon="6.92417">
        <ele>1001</ele>
        <time>2026-05-09T21:03:30.588Z</time>
      </trkpt>
      <trkpt lat="47.84698" lon="6.92417">
        <ele>1001</ele>
        <time>2026-05-09T21:03:31.588Z</time>
      </trkpt>
      <trkpt lat="47.84698" lon="6.92417">
        <ele>1002</ele>
        <time>2026-05-09T21:03:32.589Z</time>
      </trkpt>
      <trkpt lat="47.84694" lon="6.92418">
        <ele>1005</ele>
        <time>2026-05-09T21:03:42.684Z</time>
      </trkpt>
      <trkpt lat="47.84693" lon="6.92418">
        <ele>1005</ele>
        <time>2026-05-09T21:03:43.683Z</time>
      </trkpt>
      <trkpt lat="47.84693" lon="6.92418">
        <ele>1006</ele>
        <time>2026-05-09T21:03:44.684Z</time>
      </trkpt>
      <trkpt lat="47.84691" lon="6.92419">
        <ele>1007</ele>
        <time>2026-05-09T21:03:45.683Z</time>
      </trkpt>
      <trkpt lat="47.84691" lon="6.9242">
        <ele>1007</ele>
        <time>2026-05-09T21:03:46.683Z</time>
      </trkpt>
      <trkpt lat="47.84691" lon="6.92419">
        <ele>1007</ele>
        <time>2026-05-09T21:03:47.684Z</time>
      </trkpt>
      <trkpt lat="47.8469" lon="6.92419">
        <ele>1007</ele>
        <time>2026-05-09T21:03:48.683Z</time>
      </trkpt>
      <trkpt lat="47.8469" lon="6.92419">
        <ele>1008</ele>
        <time>2026-05-09T21:03:49.684Z</time>
      </trkpt>
      <trkpt lat="47.84689" lon="6.92419">
        <ele>1008</ele>
        <time>2026-05-09T21:03:50.684Z</time>
      </trkpt>
      <trkpt lat="47.84688" lon="6.92419">
        <ele>1008</ele>
        <time>2026-05-09T21:03:51.684Z</time>
      </trkpt>
      <trkpt lat="47.84687" lon="6.9242">
        <ele>1009</ele>
        <time>2026-05-09T21:03:52.684Z</time>
      </trkpt>
      <trkpt lat="47.84686" lon="6.9242">
        <ele>1009</ele>
        <time>2026-05-09T21:03:53.684Z</time>
      </trkpt>
      <trkpt lat="47.84685" lon="6.9242">
        <ele>1010</ele>
        <time>2026-05-09T21:03:54.683Z</time>
      </trkpt>
      <trkpt lat="47.84684" lon="6.92421">
        <ele>1010</ele>
        <time>2026-05-09T21:03:55.683Z</time>
      </trkpt>
      <trkpt lat="47.84683" lon="6.92421">
        <ele>1011</ele>
        <time>2026-05-09T21:03:56.683Z</time>
      </trkpt>
      <trkpt lat="47.84682" lon="6.9242">
        <ele>1012</ele>
        <time>2026-05-09T21:03:57.684Z</time>
      </trkpt>
      <trkpt lat="47.84682" lon="6.9242">
        <ele>1012</ele>
        <time>2026-05-09T21:03:58.684Z</time>
      </trkpt>
      <trkpt lat="47.84682" lon="6.9242">
        <ele>1013</ele>
        <time>2026-05-09T21:03:59.683Z</time>
      </trkpt>
      <trkpt lat="47.84682" lon="6.92421">
        <ele>1013</ele>
        <time>2026-05-09T21:04:00.684Z</time>
      </trkpt>
      <trkpt lat="47.8468" lon="6.92421">
        <ele>1013</ele>
        <time>2026-05-09T21:04:01.683Z</time>
      </trkpt>
      <trkpt lat="47.84679" lon="6.92421">
        <ele>1014</ele>
        <time>2026-05-09T21:04:02.684Z</time>
      </trkpt>
      <trkpt lat="47.84677" lon="6.92421">
        <ele>1014</ele>
        <time>2026-05-09T21:04:03.683Z</time>
      </trkpt>
      <trkpt lat="47.84675" lon="6.92422">
        <ele>1015</ele>
        <time>2026-05-09T21:04:04.684Z</time>
      </trkpt>
      <trkpt lat="47.84673" lon="6.92422">
        <ele>1015</ele>
        <time>2026-05-09T21:04:05.683Z</time>
      </trkpt>
      <trkpt lat="47.84672" lon="6.92423">
        <ele>1016</ele>
        <time>2026-05-09T21:04:06.684Z</time>
      </trkpt>
      <trkpt lat="47.84672" lon="6.92424">
        <ele>1016</ele>
        <time>2026-05-09T21:04:07.684Z</time>
      </trkpt>
      <trkpt lat="47.84671" lon="6.92424">
        <ele>1016</ele>
        <time>2026-05-09T21:04:08.684Z</time>
      </trkpt>
      <trkpt lat="47.8467" lon="6.92425">
        <ele>1016</ele>
        <time>2026-05-09T21:04:09.684Z</time>
      </trkpt>
      <trkpt lat="47.84668" lon="6.92425">
        <ele>1016</ele>
        <time>2026-05-09T21:04:10.683Z</time>
      </trkpt>
      <trkpt lat="47.84667" lon="6.92425">
        <ele>1016</ele>
        <time>2026-05-09T21:04:11.684Z</time>
      </trkpt>
      <trkpt lat="47.84665" lon="6.92425">
        <ele>1015</ele>
        <time>2026-05-09T21:04:12.683Z</time>
      </trkpt>
      <trkpt lat="47.84664" lon="6.92425">
        <ele>1015</ele>
        <time>2026-05-09T21:04:13.684Z</time>
      </trkpt>
      <trkpt lat="47.84663" lon="6.92425">
        <ele>1015</ele>
        <time>2026-05-09T21:04:14.683Z</time>
      </trkpt>
      <trkpt lat="47.84662" lon="6.92426">
        <ele>1015</ele>
        <time>2026-05-09T21:04:15.684Z</time>
      </trkpt>
      <trkpt lat="47.84661" lon="6.92426">
        <ele>1015</ele>
        <time>2026-05-09T21:04:16.684Z</time>
      </trkpt>
      <trkpt lat="47.8466" lon="6.92427">
        <ele>1015</ele>
        <time>2026-05-09T21:04:17.684Z</time>
      </trkpt>
      <trkpt lat="47.84658" lon="6.92427">
        <ele>1014</ele>
        <time>2026-05-09T21:04:18.683Z</time>
      </trkpt>
      <trkpt lat="47.84656" lon="6.92427">
        <ele>1014</ele>
        <time>2026-05-09T21:04:19.684Z</time>
      </trkpt>
      <trkpt lat="47.84654" lon="6.92427">
        <ele>1014</ele>
        <time>2026-05-09T21:04:20.683Z</time>
      </trkpt>
      <trkpt lat="47.84652" lon="6.92427">
        <ele>1014</ele>
        <time>2026-05-09T21:04:21.684Z</time>
      </trkpt>
      <trkpt lat="47.8465" lon="6.92427">
        <ele>1014</ele>
        <time>2026-05-09T21:04:22.683Z</time>
      </trkpt>
      <trkpt lat="47.84648" lon="6.92427">
        <ele>1014</ele>
        <time>2026-05-09T21:04:23.683Z</time>
      </trkpt>
      <trkpt lat="47.84646" lon="6.92427">
        <ele>1014</ele>
        <time>2026-05-09T21:04:24.683Z</time>
      </trkpt>
      <trkpt lat="47.84645" lon="6.92427">
        <ele>1014</ele>
        <time>2026-05-09T21:04:25.683Z</time>
      </trkpt>
      <trkpt lat="47.84643" lon="6.92427">
        <ele>1014</ele>
        <time>2026-05-09T21:04:26.683Z</time>
      </trkpt>
      <trkpt lat="47.84642" lon="6.92428">
        <ele>1014</ele>
        <time>2026-05-09T21:04:27.683Z</time>
      </trkpt>
      <trkpt lat="47.84641" lon="6.92428">
        <ele>1014</ele>
        <time>2026-05-09T21:04:28.684Z</time>
      </trkpt>
      <trkpt lat="47.84639" lon="6.92427">
        <ele>1014</ele>
        <time>2026-05-09T21:04:29.683Z</time>
      </trkpt>
      <trkpt lat="47.84638" lon="6.92426">
        <ele>1014</ele>
        <time>2026-05-09T21:04:30.684Z</time>
      </trkpt>
      <trkpt lat="47.84637" lon="6.92426">
        <ele>1014</ele>
        <time>2026-05-09T21:04:31.684Z</time>
      </trkpt>
      <trkpt lat="47.84636" lon="6.92426">
        <ele>1014</ele>
        <time>2026-05-09T21:04:32.684Z</time>
      </trkpt>
      <trkpt lat="47.84635" lon="6.92426">
        <ele>1014</ele>
        <time>2026-05-09T21:04:33.683Z</time>
      </trkpt>
      <trkpt lat="47.84634" lon="6.92425">
        <ele>1013</ele>
        <time>2026-05-09T21:04:34.684Z</time>
      </trkpt>
      <trkpt lat="47.84632" lon="6.92425">
        <ele>1013</ele>
        <time>2026-05-09T21:04:35.683Z</time>
      </trkpt>
      <trkpt lat="47.8463" lon="6.92424">
        <ele>1012</ele>
        <time>2026-05-09T21:04:36.683Z</time>
      </trkpt>
      <trkpt lat="47.84626" lon="6.92422">
        <ele>1011</ele>
        <time>2026-05-09T21:04:37.683Z</time>
      </trkpt>
      <trkpt lat="47.84623" lon="6.92421">
        <ele>1011</ele>
        <time>2026-05-09T21:04:38.684Z</time>
      </trkpt>
      <trkpt lat="47.84621" lon="6.9242">
        <ele>1010</ele>
        <time>2026-05-09T21:04:39.683Z</time>
      </trkpt>
      <trkpt lat="47.8462" lon="6.9242">
        <ele>1010</ele>
        <time>2026-05-09T21:04:40.683Z</time>
      </trkpt>
      <trkpt lat="47.84619" lon="6.9242">
        <ele>1009</ele>
        <time>2026-05-09T21:04:41.683Z</time>
      </trkpt>
      <trkpt lat="47.84618" lon="6.92419">
        <ele>1008</ele>
        <time>2026-05-09T21:04:42.684Z</time>
      </trkpt>
      <trkpt lat="47.84617" lon="6.92418">
        <ele>1007</ele>
        <time>2026-05-09T21:04:43.684Z</time>
      </trkpt>
      <trkpt lat="47.84616" lon="6.92418">
        <ele>1006</ele>
        <time>2026-05-09T21:04:44.683Z</time>
      </trkpt>
      <trkpt lat="47.84615" lon="6.92418">
        <ele>1006</ele>
        <time>2026-05-09T21:04:45.684Z</time>
      </trkpt>
      <trkpt lat="47.84613" lon="6.92418">
        <ele>1005</ele>
        <time>2026-05-09T21:04:46.683Z</time>
      </trkpt>
      <trkpt lat="47.84612" lon="6.92418">
        <ele>1005</ele>
        <time>2026-05-09T21:04:47.684Z</time>
      </trkpt>
      <trkpt lat="47.84611" lon="6.92418">
        <ele>1005</ele>
        <time>2026-05-09T21:04:48.683Z</time>
      </trkpt>
      <trkpt lat="47.84611" lon="6.92419">
        <ele>1004</ele>
        <time>2026-05-09T21:04:49.684Z</time>
      </trkpt>
      <trkpt lat="47.8461" lon="6.92419">
        <ele>1004</ele>
        <time>2026-05-09T21:04:50.683Z</time>
      </trkpt>
      <trkpt lat="47.84609" lon="6.92419">
        <ele>1003</ele>
        <time>2026-05-09T21:04:51.684Z</time>
      </trkpt>
      <trkpt lat="47.84608" lon="6.92419">
        <ele>1003</ele>
        <time>2026-05-09T21:04:52.683Z</time>
      </trkpt>
      <trkpt lat="47.84605" lon="6.92417">
        <ele>1003</ele>
        <time>2026-05-09T21:04:53.684Z</time>
      </trkpt>
      <trkpt lat="47.84603" lon="6.92415">
        <ele>1002</ele>
        <time>2026-05-09T21:04:54.683Z</time>
      </trkpt>
      <trkpt lat="47.846" lon="6.92414">
        <ele>1002</ele>
        <time>2026-05-09T21:04:55.684Z</time>
      </trkpt>
      <trkpt lat="47.84599" lon="6.92414">
        <ele>1002</ele>
        <time>2026-05-09T21:04:56.683Z</time>
      </trkpt>
      <trkpt lat="47.84598" lon="6.92412">
        <ele>1001</ele>
        <time>2026-05-09T21:04:57.683Z</time>
      </trkpt>
      <trkpt lat="47.84597" lon="6.92409">
        <ele>1001</ele>
        <time>2026-05-09T21:04:58.683Z</time>
      </trkpt>
      <trkpt lat="47.84596" lon="6.92408">
        <ele>1000</ele>
        <time>2026-05-09T21:04:59.684Z</time>
      </trkpt>
      <trkpt lat="47.84595" lon="6.92407">
        <ele>1000</ele>
        <time>2026-05-09T21:05:00.683Z</time>
      </trkpt>
      <trkpt lat="47.84593" lon="6.92408">
        <ele>1000</ele>
        <time>2026-05-09T21:05:01.684Z</time>
      </trkpt>
      <trkpt lat="47.84593" lon="6.92407">
        <ele>1000</ele>
        <time>2026-05-09T21:05:02.683Z</time>
      </trkpt>
      <trkpt lat="47.84593" lon="6.92408">
        <ele>1000</ele>
        <time>2026-05-09T21:05:03.684Z</time>
      </trkpt>
      <trkpt lat="47.84592" lon="6.92408">
        <ele>1000</ele>
        <time>2026-05-09T21:05:04.683Z</time>
      </trkpt>
      <trkpt lat="47.84592" lon="6.92408">
        <ele>1000</ele>
        <time>2026-05-09T21:05:05.684Z</time>
      </trkpt>
      <trkpt lat="47.8459" lon="6.92407">
        <ele>998</ele>
        <time>2026-05-09T21:05:12.016Z</time>
      </trkpt>
      <trkpt lat="47.84589" lon="6.92407">
        <ele>998</ele>
        <time>2026-05-09T21:05:13.016Z</time>
      </trkpt>
      <trkpt lat="47.84588" lon="6.92407">
        <ele>998</ele>
        <time>2026-05-09T21:05:14.016Z</time>
      </trkpt>
      <trkpt lat="47.84588" lon="6.92406">
        <ele>998</ele>
        <time>2026-05-09T21:05:15.016Z</time>
      </trkpt>
      <trkpt lat="47.84588" lon="6.92406">
        <ele>997</ele>
        <time>2026-05-09T21:05:16.016Z</time>
      </trkpt>
      <trkpt lat="47.84588" lon="6.92406">
        <ele>997</ele>
        <time>2026-05-09T21:05:17.017Z</time>
      </trkpt>
      <trkpt lat="47.84588" lon="6.92405">
        <ele>997</ele>
        <time>2026-05-09T21:05:18.017Z</time>
      </trkpt>
      <trkpt lat="47.84588" lon="6.92405">
        <ele>997</ele>
        <time>2026-05-09T21:05:19.017Z</time>
      </trkpt>
      <trkpt lat="47.84586" lon="6.92408">
        <ele>995</ele>
        <time>2026-05-09T21:05:26.202Z</time>
      </trkpt>
      <trkpt lat="47.84586" lon="6.92408">
        <ele>995</ele>
        <time>2026-05-09T21:05:27.202Z</time>
      </trkpt>
      <trkpt lat="47.84585" lon="6.92408">
        <ele>995</ele>
        <time>2026-05-09T21:05:28.202Z</time>
      </trkpt>
      <trkpt lat="47.84585" lon="6.92409">
        <ele>995</ele>
        <time>2026-05-09T21:05:29.202Z</time>
      </trkpt>
      <trkpt lat="47.84584" lon="6.92409">
        <ele>995</ele>
        <time>2026-05-09T21:05:30.202Z</time>
      </trkpt>
      <trkpt lat="47.84583" lon="6.9241">
        <ele>996</ele>
        <time>2026-05-09T21:05:31.203Z</time>
      </trkpt>
      <trkpt lat="47.84582" lon="6.92411">
        <ele>996</ele>
        <time>2026-05-09T21:05:32.202Z</time>
      </trkpt>
      <trkpt lat="47.84581" lon="6.9241">
        <ele>996</ele>
        <time>2026-05-09T21:05:33.202Z</time>
      </trkpt>
      <trkpt lat="47.8458" lon="6.9241">
        <ele>996</ele>
        <time>2026-05-09T21:05:34.203Z</time>
      </trkpt>
      <trkpt lat="47.84579" lon="6.92411">
        <ele>996</ele>
        <time>2026-05-09T21:05:35.203Z</time>
      </trkpt>
      <trkpt lat="47.84578" lon="6.92411">
        <ele>995</ele>
        <time>2026-05-09T21:05:36.202Z</time>
      </trkpt>
      <trkpt lat="47.84577" lon="6.92412">
        <ele>995</ele>
        <time>2026-05-09T21:05:37.202Z</time>
      </trkpt>
      <trkpt lat="47.84576" lon="6.92412">
        <ele>995</ele>
        <time>2026-05-09T21:05:38.203Z</time>
      </trkpt>
      <trkpt lat="47.84575" lon="6.92412">
        <ele>995</ele>
        <time>2026-05-09T21:05:39.203Z</time>
      </trkpt>
      <trkpt lat="47.84575" lon="6.92412">
        <ele>994</ele>
        <time>2026-05-09T21:05:40.202Z</time>
      </trkpt>
      <trkpt lat="47.84574" lon="6.92411">
        <ele>994</ele>
        <time>2026-05-09T21:05:41.203Z</time>
      </trkpt>
      <trkpt lat="47.84574" lon="6.92411">
        <ele>994</ele>
        <time>2026-05-09T21:05:42.203Z</time>
      </trkpt>
      <trkpt lat="47.84573" lon="6.92411">
        <ele>993</ele>
        <time>2026-05-09T21:05:43.203Z</time>
      </trkpt>
      <trkpt lat="47.84572" lon="6.92411">
        <ele>993</ele>
        <time>2026-05-09T21:05:44.203Z</time>
      </trkpt>
      <trkpt lat="47.84572" lon="6.92411">
        <ele>992</ele>
        <time>2026-05-09T21:05:45.202Z</time>
      </trkpt>
      <trkpt lat="47.84572" lon="6.92411">
        <ele>991</ele>
        <time>2026-05-09T21:05:46.202Z</time>
      </trkpt>
      <trkpt lat="47.84571" lon="6.92411">
        <ele>991</ele>
        <time>2026-05-09T21:05:47.202Z</time>
      </trkpt>
      <trkpt lat="47.84571" lon="6.92411">
        <ele>991</ele>
        <time>2026-05-09T21:05:48.202Z</time>
      </trkpt>
      <trkpt lat="47.8457" lon="6.92412">
        <ele>991</ele>
        <time>2026-05-09T21:05:49.203Z</time>
      </trkpt>
      <trkpt lat="47.84569" lon="6.92413">
        <ele>991</ele>
        <time>2026-05-09T21:05:50.202Z</time>
      </trkpt>
      <trkpt lat="47.84568" lon="6.92413">
        <ele>991</ele>
        <time>2026-05-09T21:05:51.203Z</time>
      </trkpt>
      <trkpt lat="47.84565" lon="6.92412">
        <ele>991</ele>
        <time>2026-05-09T21:05:52.202Z</time>
      </trkpt>
      <trkpt lat="47.84563" lon="6.92412">
        <ele>991</ele>
        <time>2026-05-09T21:05:53.202Z</time>
      </trkpt>
      <trkpt lat="47.84562" lon="6.92412">
        <ele>991</ele>
        <time>2026-05-09T21:05:54.202Z</time>
      </trkpt>
      <trkpt lat="47.8456" lon="6.92411">
        <ele>992</ele>
        <time>2026-05-09T21:05:55.202Z</time>
      </trkpt>
      <trkpt lat="47.84559" lon="6.92411">
        <ele>992</ele>
        <time>2026-05-09T21:05:56.202Z</time>
      </trkpt>
      <trkpt lat="47.84558" lon="6.92411">
        <ele>992</ele>
        <time>2026-05-09T21:05:57.202Z</time>
      </trkpt>
      <trkpt lat="47.84557" lon="6.92411">
        <ele>992</ele>
        <time>2026-05-09T21:05:58.202Z</time>
      </trkpt>
      <trkpt lat="47.84556" lon="6.92412">
        <ele>992</ele>
        <time>2026-05-09T21:05:59.203Z</time>
      </trkpt>
      <trkpt lat="47.84554" lon="6.92413">
        <ele>992</ele>
        <time>2026-05-09T21:06:00.203Z</time>
      </trkpt>
      <trkpt lat="47.84553" lon="6.92414">
        <ele>992</ele>
        <time>2026-05-09T21:06:01.203Z</time>
      </trkpt>
      <trkpt lat="47.84552" lon="6.92414">
        <ele>992</ele>
        <time>2026-05-09T21:06:02.202Z</time>
      </trkpt>
      <trkpt lat="47.84552" lon="6.92415">
        <ele>993</ele>
        <time>2026-05-09T21:06:03.202Z</time>
      </trkpt>
      <trkpt lat="47.84551" lon="6.92417">
        <ele>993</ele>
        <time>2026-05-09T21:06:04.203Z</time>
      </trkpt>
      <trkpt lat="47.8455" lon="6.92418">
        <ele>993</ele>
        <time>2026-05-09T21:06:05.202Z</time>
      </trkpt>
      <trkpt lat="47.84549" lon="6.9242">
        <ele>993</ele>
        <time>2026-05-09T21:06:06.202Z</time>
      </trkpt>
      <trkpt lat="47.84548" lon="6.92422">
        <ele>993</ele>
        <time>2026-05-09T21:06:07.202Z</time>
      </trkpt>
      <trkpt lat="47.84548" lon="6.92423">
        <ele>993</ele>
        <time>2026-05-09T21:06:08.203Z</time>
      </trkpt>
      <trkpt lat="47.84548" lon="6.92424">
        <ele>993</ele>
        <time>2026-05-09T21:06:09.203Z</time>
      </trkpt>
      <trkpt lat="47.84548" lon="6.92426">
        <ele>993</ele>
        <time>2026-05-09T21:06:10.203Z</time>
      </trkpt>
      <trkpt lat="47.84548" lon="6.92427">
        <ele>993</ele>
        <time>2026-05-09T21:06:11.202Z</time>
      </trkpt>
      <trkpt lat="47.84548" lon="6.9243">
        <ele>993</ele>
        <time>2026-05-09T21:06:12.202Z</time>
      </trkpt>
      <trkpt lat="47.84547" lon="6.92432">
        <ele>993</ele>
        <time>2026-05-09T21:06:13.202Z</time>
      </trkpt>
      <trkpt lat="47.84547" lon="6.92434">
        <ele>993</ele>
        <time>2026-05-09T21:06:14.203Z</time>
      </trkpt>
      <trkpt lat="47.84547" lon="6.92435">
        <ele>994</ele>
        <time>2026-05-09T21:06:15.203Z</time>
      </trkpt>
      <trkpt lat="47.84547" lon="6.92437">
        <ele>994</ele>
        <time>2026-05-09T21:06:16.203Z</time>
      </trkpt>
      <trkpt lat="47.84547" lon="6.92438">
        <ele>994</ele>
        <time>2026-05-09T21:06:17.203Z</time>
      </trkpt>
      <trkpt lat="47.84547" lon="6.9244">
        <ele>994</ele>
        <time>2026-05-09T21:06:18.202Z</time>
      </trkpt>
      <trkpt lat="47.84547" lon="6.92441">
        <ele>994</ele>
        <time>2026-05-09T21:06:19.203Z</time>
      </trkpt>
      <trkpt lat="47.84547" lon="6.92442">
        <ele>994</ele>
        <time>2026-05-09T21:06:20.202Z</time>
      </trkpt>
      <trkpt lat="47.84548" lon="6.92444">
        <ele>995</ele>
        <time>2026-05-09T21:06:21.203Z</time>
      </trkpt>
      <trkpt lat="47.84548" lon="6.92447">
        <ele>995</ele>
        <time>2026-05-09T21:06:22.202Z</time>
      </trkpt>
      <trkpt lat="47.84548" lon="6.92449">
        <ele>995</ele>
        <time>2026-05-09T21:06:23.203Z</time>
      </trkpt>
      <trkpt lat="47.84548" lon="6.92451">
        <ele>996</ele>
        <time>2026-05-09T21:06:24.202Z</time>
      </trkpt>
      <trkpt lat="47.84548" lon="6.92453">
        <ele>996</ele>
        <time>2026-05-09T21:06:25.203Z</time>
      </trkpt>
      <trkpt lat="47.84548" lon="6.92455">
        <ele>996</ele>
        <time>2026-05-09T21:06:26.202Z</time>
      </trkpt>
      <trkpt lat="47.84548" lon="6.92457">
        <ele>997</ele>
        <time>2026-05-09T21:06:27.203Z</time>
      </trkpt>
      <trkpt lat="47.84548" lon="6.92458">
        <ele>997</ele>
        <time>2026-05-09T21:06:28.202Z</time>
      </trkpt>
      <trkpt lat="47.84548" lon="6.92459">
        <ele>998</ele>
        <time>2026-05-09T21:06:29.203Z</time>
      </trkpt>
      <trkpt lat="47.84548" lon="6.9246">
        <ele>998</ele>
        <time>2026-05-09T21:06:30.202Z</time>
      </trkpt>
      <trkpt lat="47.84548" lon="6.92461">
        <ele>998</ele>
        <time>2026-05-09T21:06:31.202Z</time>
      </trkpt>
      <trkpt lat="47.84548" lon="6.92462">
        <ele>998</ele>
        <time>2026-05-09T21:06:32.203Z</time>
      </trkpt>
      <trkpt lat="47.84547" lon="6.92463">
        <ele>998</ele>
        <time>2026-05-09T21:06:33.203Z</time>
      </trkpt>
      <trkpt lat="47.84547" lon="6.92464">
        <ele>999</ele>
        <time>2026-05-09T21:06:34.202Z</time>
      </trkpt>
      <trkpt lat="47.84546" lon="6.92465">
        <ele>999</ele>
        <time>2026-05-09T21:06:35.202Z</time>
      </trkpt>
      <trkpt lat="47.84546" lon="6.92466">
        <ele>999</ele>
        <time>2026-05-09T21:06:36.202Z</time>
      </trkpt>
      <trkpt lat="47.84546" lon="6.92467">
        <ele>999</ele>
        <time>2026-05-09T21:06:37.203Z</time>
      </trkpt>
      <trkpt lat="47.84546" lon="6.92469">
        <ele>999</ele>
        <time>2026-05-09T21:06:38.202Z</time>
      </trkpt>
      <trkpt lat="47.84547" lon="6.92471">
        <ele>999</ele>
        <time>2026-05-09T21:06:39.203Z</time>
      </trkpt>
      <trkpt lat="47.84546" lon="6.92472">
        <ele>999</ele>
        <time>2026-05-09T21:06:40.202Z</time>
      </trkpt>
      <trkpt lat="47.84546" lon="6.92473">
        <ele>999</ele>
        <time>2026-05-09T21:06:41.203Z</time>
      </trkpt>
      <trkpt lat="47.84546" lon="6.92475">
        <ele>999</ele>
        <time>2026-05-09T21:06:42.202Z</time>
      </trkpt>
      <trkpt lat="47.84545" lon="6.92478">
        <ele>1000</ele>
        <time>2026-05-09T21:06:43.202Z</time>
      </trkpt>
      <trkpt lat="47.84543" lon="6.9248">
        <ele>1000</ele>
        <time>2026-05-09T21:06:44.202Z</time>
      </trkpt>
      <trkpt lat="47.84542" lon="6.92482">
        <ele>1000</ele>
        <time>2026-05-09T21:06:45.202Z</time>
      </trkpt>
      <trkpt lat="47.84542" lon="6.92483">
        <ele>999</ele>
        <time>2026-05-09T21:06:46.203Z</time>
      </trkpt>
      <trkpt lat="47.84541" lon="6.92484">
        <ele>998</ele>
        <time>2026-05-09T21:06:47.202Z</time>
      </trkpt>
      <trkpt lat="47.8454" lon="6.92486">
        <ele>998</ele>
        <time>2026-05-09T21:06:48.202Z</time>
      </trkpt>
      <trkpt lat="47.8454" lon="6.92488">
        <ele>997</ele>
        <time>2026-05-09T21:06:49.202Z</time>
      </trkpt>
      <trkpt lat="47.84539" lon="6.9249">
        <ele>997</ele>
        <time>2026-05-09T21:06:50.202Z</time>
      </trkpt>
      <trkpt lat="47.84539" lon="6.92493">
        <ele>996</ele>
        <time>2026-05-09T21:06:51.203Z</time>
      </trkpt>
      <trkpt lat="47.84539" lon="6.92495">
        <ele>996</ele>
        <time>2026-05-09T21:06:52.203Z</time>
      </trkpt>
      <trkpt lat="47.84539" lon="6.92497">
        <ele>995</ele>
        <time>2026-05-09T21:06:53.202Z</time>
      </trkpt>
      <trkpt lat="47.84539" lon="6.925">
        <ele>995</ele>
        <time>2026-05-09T21:06:54.202Z</time>
      </trkpt>
      <trkpt lat="47.84539" lon="6.92502">
        <ele>995</ele>
        <time>2026-05-09T21:06:55.202Z</time>
      </trkpt>
      <trkpt lat="47.84539" lon="6.92504">
        <ele>994</ele>
        <time>2026-05-09T21:06:56.202Z</time>
      </trkpt>
      <trkpt lat="47.84539" lon="6.92506">
        <ele>994</ele>
        <time>2026-05-09T21:06:57.202Z</time>
      </trkpt>
      <trkpt lat="47.84539" lon="6.92508">
        <ele>994</ele>
        <time>2026-05-09T21:06:58.202Z</time>
      </trkpt>
      <trkpt lat="47.84538" lon="6.92511">
        <ele>993</ele>
        <time>2026-05-09T21:06:59.202Z</time>
      </trkpt>
      <trkpt lat="47.84538" lon="6.92514">
        <ele>993</ele>
        <time>2026-05-09T21:07:00.203Z</time>
      </trkpt>
      <trkpt lat="47.84538" lon="6.92517">
        <ele>992</ele>
        <time>2026-05-09T21:07:01.202Z</time>
      </trkpt>
      <trkpt lat="47.84538" lon="6.92521">
        <ele>992</ele>
        <time>2026-05-09T21:07:02.203Z</time>
      </trkpt>
      <trkpt lat="47.84539" lon="6.92524">
        <ele>992</ele>
        <time>2026-05-09T21:07:03.202Z</time>
      </trkpt>
      <trkpt lat="47.84538" lon="6.92528">
        <ele>992</ele>
        <time>2026-05-09T21:07:04.202Z</time>
      </trkpt>
      <trkpt lat="47.84536" lon="6.9253">
        <ele>992</ele>
        <time>2026-05-09T21:07:05.202Z</time>
      </trkpt>
      <trkpt lat="47.84533" lon="6.92533">
        <ele>992</ele>
        <time>2026-05-09T21:07:06.202Z</time>
      </trkpt>
      <trkpt lat="47.84531" lon="6.92537">
        <ele>992</ele>
        <time>2026-05-09T21:07:07.203Z</time>
      </trkpt>
      <trkpt lat="47.8453" lon="6.92542">
        <ele>992</ele>
        <time>2026-05-09T21:07:08.202Z</time>
      </trkpt>
      <trkpt lat="47.84529" lon="6.92543">
        <ele>993</ele>
        <time>2026-05-09T21:07:09.202Z</time>
      </trkpt>
      <trkpt lat="47.8453" lon="6.92544">
        <ele>993</ele>
        <time>2026-05-09T21:07:10.203Z</time>
      </trkpt>
      <trkpt lat="47.84532" lon="6.92545">
        <ele>993</ele>
        <time>2026-05-09T21:07:11.203Z</time>
      </trkpt>
      <trkpt lat="47.84533" lon="6.92546">
        <ele>993</ele>
        <time>2026-05-09T21:07:12.203Z</time>
      </trkpt>
      <trkpt lat="47.84534" lon="6.9255">
        <ele>993</ele>
        <time>2026-05-09T21:07:13.202Z</time>
      </trkpt>
      <trkpt lat="47.84534" lon="6.92552">
        <ele>993</ele>
        <time>2026-05-09T21:07:14.203Z</time>
      </trkpt>
      <trkpt lat="47.84534" lon="6.92555">
        <ele>993</ele>
        <time>2026-05-09T21:07:15.202Z</time>
      </trkpt>
      <trkpt lat="47.84534" lon="6.92558">
        <ele>993</ele>
        <time>2026-05-09T21:07:16.202Z</time>
      </trkpt>
      <trkpt lat="47.84534" lon="6.92561">
        <ele>993</ele>
        <time>2026-05-09T21:07:17.202Z</time>
      </trkpt>
      <trkpt lat="47.84534" lon="6.92561">
        <ele>994</ele>
        <time>2026-05-09T21:07:18.202Z</time>
      </trkpt>
      <trkpt lat="47.84534" lon="6.92562">
        <ele>994</ele>
        <time>2026-05-09T21:07:19.202Z</time>
      </trkpt>
      <trkpt lat="47.84533" lon="6.92564">
        <ele>994</ele>
        <time>2026-05-09T21:07:20.202Z</time>
      </trkpt>
      <trkpt lat="47.84533" lon="6.92563">
        <ele>995</ele>
        <time>2026-05-09T21:07:21.203Z</time>
      </trkpt>
      <trkpt lat="47.84534" lon="6.92565">
        <ele>995</ele>
        <time>2026-05-09T21:07:22.203Z</time>
      </trkpt>
      <trkpt lat="47.84536" lon="6.92567">
        <ele>995</ele>
        <time>2026-05-09T21:07:23.202Z</time>
      </trkpt>
      <trkpt lat="47.84536" lon="6.92569">
        <ele>996</ele>
        <time>2026-05-09T21:07:24.202Z</time>
      </trkpt>
      <trkpt lat="47.84536" lon="6.92571">
        <ele>996</ele>
        <time>2026-05-09T21:07:25.202Z</time>
      </trkpt>
      <trkpt lat="47.84536" lon="6.92572">
        <ele>996</ele>
        <time>2026-05-09T21:07:26.202Z</time>
      </trkpt>
      <trkpt lat="47.84536" lon="6.92573">
        <ele>996</ele>
        <time>2026-05-09T21:07:27.202Z</time>
      </trkpt>
      <trkpt lat="47.84536" lon="6.92574">
        <ele>996</ele>
        <time>2026-05-09T21:07:28.203Z</time>
      </trkpt>
      <trkpt lat="47.84536" lon="6.92576">
        <ele>996</ele>
        <time>2026-05-09T21:07:29.202Z</time>
      </trkpt>
      <trkpt lat="47.84537" lon="6.92577">
        <ele>996</ele>
        <time>2026-05-09T21:07:30.203Z</time>
      </trkpt>
      <trkpt lat="47.84537" lon="6.92579">
        <ele>995</ele>
        <time>2026-05-09T21:07:31.202Z</time>
      </trkpt>
      <trkpt lat="47.84537" lon="6.92581">
        <ele>995</ele>
        <time>2026-05-09T21:07:32.202Z</time>
      </trkpt>
      <trkpt lat="47.84536" lon="6.92583">
        <ele>995</ele>
        <time>2026-05-09T21:07:33.202Z</time>
      </trkpt>
      <trkpt lat="47.84536" lon="6.92585">
        <ele>995</ele>
        <time>2026-05-09T21:07:34.202Z</time>
      </trkpt>
      <trkpt lat="47.84536" lon="6.92587">
        <ele>995</ele>
        <time>2026-05-09T21:07:35.202Z</time>
      </trkpt>
      <trkpt lat="47.84537" lon="6.92589">
        <ele>995</ele>
        <time>2026-05-09T21:07:36.202Z</time>
      </trkpt>
      <trkpt lat="47.84537" lon="6.92592">
        <ele>995</ele>
        <time>2026-05-09T21:07:37.202Z</time>
      </trkpt>
      <trkpt lat="47.84537" lon="6.92593">
        <ele>995</ele>
        <time>2026-05-09T21:07:38.202Z</time>
      </trkpt>
      <trkpt lat="47.84537" lon="6.92595">
        <ele>995</ele>
        <time>2026-05-09T21:07:39.202Z</time>
      </trkpt>
      <trkpt lat="47.84538" lon="6.92596">
        <ele>995</ele>
        <time>2026-05-09T21:07:40.202Z</time>
      </trkpt>
      <trkpt lat="47.84538" lon="6.92596">
        <ele>995</ele>
        <time>2026-05-09T21:07:41.203Z</time>
      </trkpt>
      <trkpt lat="47.84539" lon="6.92597">
        <ele>995</ele>
        <time>2026-05-09T21:07:42.202Z</time>
      </trkpt>
      <trkpt lat="47.8454" lon="6.92597">
        <ele>995</ele>
        <time>2026-05-09T21:07:43.203Z</time>
      </trkpt>
      <trkpt lat="47.84541" lon="6.92599">
        <ele>995</ele>
        <time>2026-05-09T21:07:44.202Z</time>
      </trkpt>
      <trkpt lat="47.84542" lon="6.926">
        <ele>995</ele>
        <time>2026-05-09T21:07:45.202Z</time>
      </trkpt>
      <trkpt lat="47.84543" lon="6.926">
        <ele>995</ele>
        <time>2026-05-09T21:07:46.202Z</time>
      </trkpt>
      <trkpt lat="47.84544" lon="6.92601">
        <ele>995</ele>
        <time>2026-05-09T21:07:47.203Z</time>
      </trkpt>
      <trkpt lat="47.84545" lon="6.92603">
        <ele>995</ele>
        <time>2026-05-09T21:07:48.202Z</time>
      </trkpt>
      <trkpt lat="47.84546" lon="6.92604">
        <ele>995</ele>
        <time>2026-05-09T21:07:49.203Z</time>
      </trkpt>
      <trkpt lat="47.84548" lon="6.92605">
        <ele>996</ele>
        <time>2026-05-09T21:07:50.202Z</time>
      </trkpt>
      <trkpt lat="47.84549" lon="6.92606">
        <ele>996</ele>
        <time>2026-05-09T21:07:51.203Z</time>
      </trkpt>
      <trkpt lat="47.84549" lon="6.92608">
        <ele>996</ele>
        <time>2026-05-09T21:07:52.202Z</time>
      </trkpt>
      <trkpt lat="47.8455" lon="6.9261">
        <ele>996</ele>
        <time>2026-05-09T21:07:53.202Z</time>
      </trkpt>
      <trkpt lat="47.84551" lon="6.92611">
        <ele>996</ele>
        <time>2026-05-09T21:07:54.203Z</time>
      </trkpt>
      <trkpt lat="47.84552" lon="6.92613">
        <ele>996</ele>
        <time>2026-05-09T21:07:55.202Z</time>
      </trkpt>
      <trkpt lat="47.84553" lon="6.92615">
        <ele>996</ele>
        <time>2026-05-09T21:07:56.203Z</time>
      </trkpt>
      <trkpt lat="47.84553" lon="6.92617">
        <ele>996</ele>
        <time>2026-05-09T21:07:57.202Z</time>
      </trkpt>
      <trkpt lat="47.84554" lon="6.92618">
        <ele>996</ele>
        <time>2026-05-09T21:07:58.203Z</time>
      </trkpt>
      <trkpt lat="47.84556" lon="6.9262">
        <ele>995</ele>
        <time>2026-05-09T21:07:59.202Z</time>
      </trkpt>
      <trkpt lat="47.84557" lon="6.92621">
        <ele>995</ele>
        <time>2026-05-09T21:08:00.203Z</time>
      </trkpt>
      <trkpt lat="47.84558" lon="6.92623">
        <ele>995</ele>
        <time>2026-05-09T21:08:01.202Z</time>
      </trkpt>
      <trkpt lat="47.84558" lon="6.92624">
        <ele>994</ele>
        <time>2026-05-09T21:08:02.202Z</time>
      </trkpt>
      <trkpt lat="47.84559" lon="6.92626">
        <ele>994</ele>
        <time>2026-05-09T21:08:03.203Z</time>
      </trkpt>
      <trkpt lat="47.84559" lon="6.92627">
        <ele>994</ele>
        <time>2026-05-09T21:08:04.202Z</time>
      </trkpt>
      <trkpt lat="47.8456" lon="6.92628">
        <ele>993</ele>
        <time>2026-05-09T21:08:05.203Z</time>
      </trkpt>
      <trkpt lat="47.84561" lon="6.92629">
        <ele>993</ele>
        <time>2026-05-09T21:08:06.202Z</time>
      </trkpt>
      <trkpt lat="47.84561" lon="6.92631">
        <ele>992</ele>
        <time>2026-05-09T21:08:07.202Z</time>
      </trkpt>
      <trkpt lat="47.84561" lon="6.92632">
        <ele>992</ele>
        <time>2026-05-09T21:08:08.203Z</time>
      </trkpt>
      <trkpt lat="47.84562" lon="6.92632">
        <ele>992</ele>
        <time>2026-05-09T21:08:09.202Z</time>
      </trkpt>
      <trkpt lat="47.84562" lon="6.92633">
        <ele>992</ele>
        <time>2026-05-09T21:08:10.203Z</time>
      </trkpt>
      <trkpt lat="47.84563" lon="6.92634">
        <ele>992</ele>
        <time>2026-05-09T21:08:11.202Z</time>
      </trkpt>
      <trkpt lat="47.84563" lon="6.92635">
        <ele>992</ele>
        <time>2026-05-09T21:08:12.202Z</time>
      </trkpt>
      <trkpt lat="47.84563" lon="6.92635">
        <ele>993</ele>
        <time>2026-05-09T21:08:13.203Z</time>
      </trkpt>
      <trkpt lat="47.84564" lon="6.92638">
        <ele>993</ele>
        <time>2026-05-09T21:08:14.203Z</time>
      </trkpt>
      <trkpt lat="47.84564" lon="6.92641">
        <ele>993</ele>
        <time>2026-05-09T21:08:15.202Z</time>
      </trkpt>
      <trkpt lat="47.84565" lon="6.92644">
        <ele>993</ele>
        <time>2026-05-09T21:08:16.202Z</time>
      </trkpt>
      <trkpt lat="47.84565" lon="6.92647">
        <ele>993</ele>
        <time>2026-05-09T21:08:17.202Z</time>
      </trkpt>
      <trkpt lat="47.84565" lon="6.9265">
        <ele>993</ele>
        <time>2026-05-09T21:08:18.203Z</time>
      </trkpt>
      <trkpt lat="47.84565" lon="6.92652">
        <ele>993</ele>
        <time>2026-05-09T21:08:19.202Z</time>
      </trkpt>
      <trkpt lat="47.84565" lon="6.92654">
        <ele>993</ele>
        <time>2026-05-09T21:08:20.202Z</time>
      </trkpt>
      <trkpt lat="47.84565" lon="6.92656">
        <ele>993</ele>
        <time>2026-05-09T21:08:21.203Z</time>
      </trkpt>
      <trkpt lat="47.84565" lon="6.92656">
        <ele>993</ele>
        <time>2026-05-09T21:08:22.203Z</time>
      </trkpt>
      <trkpt lat="47.84565" lon="6.92657">
        <ele>993</ele>
        <time>2026-05-09T21:08:23.202Z</time>
      </trkpt>
      <trkpt lat="47.84564" lon="6.92658">
        <ele>993</ele>
        <time>2026-05-09T21:08:24.202Z</time>
      </trkpt>
      <trkpt lat="47.84564" lon="6.9266">
        <ele>994</ele>
        <time>2026-05-09T21:08:25.203Z</time>
      </trkpt>
      <trkpt lat="47.84564" lon="6.92662">
        <ele>994</ele>
        <time>2026-05-09T21:08:26.202Z</time>
      </trkpt>
      <trkpt lat="47.84564" lon="6.92663">
        <ele>994</ele>
        <time>2026-05-09T21:08:27.203Z</time>
      </trkpt>
      <trkpt lat="47.84564" lon="6.92664">
        <ele>994</ele>
        <time>2026-05-09T21:08:28.202Z</time>
      </trkpt>
      <trkpt lat="47.84563" lon="6.92666">
        <ele>994</ele>
        <time>2026-05-09T21:08:29.202Z</time>
      </trkpt>
      <trkpt lat="47.84563" lon="6.92668">
        <ele>994</ele>
        <time>2026-05-09T21:08:30.202Z</time>
      </trkpt>
      <trkpt lat="47.84563" lon="6.92668">
        <ele>994</ele>
        <time>2026-05-09T21:08:31.202Z</time>
      </trkpt>
      <trkpt lat="47.84562" lon="6.9267">
        <ele>993</ele>
        <time>2026-05-09T21:08:32.202Z</time>
      </trkpt>
      <trkpt lat="47.84562" lon="6.92672">
        <ele>993</ele>
        <time>2026-05-09T21:08:33.202Z</time>
      </trkpt>
      <trkpt lat="47.84562" lon="6.92673">
        <ele>993</ele>
        <time>2026-05-09T21:08:34.203Z</time>
      </trkpt>
      <trkpt lat="47.84562" lon="6.92676">
        <ele>993</ele>
        <time>2026-05-09T21:08:35.202Z</time>
      </trkpt>
      <trkpt lat="47.84562" lon="6.92679">
        <ele>992</ele>
        <time>2026-05-09T21:08:36.202Z</time>
      </trkpt>
      <trkpt lat="47.84562" lon="6.92687">
        <ele>992</ele>
        <time>2026-05-09T21:08:37.202Z</time>
      </trkpt>
      <trkpt lat="47.84563" lon="6.92695">
        <ele>991</ele>
        <time>2026-05-09T21:08:38.202Z</time>
      </trkpt>
      <trkpt lat="47.84563" lon="6.92699">
        <ele>991</ele>
        <time>2026-05-09T21:08:39.203Z</time>
      </trkpt>
      <trkpt lat="47.84563" lon="6.92703">
        <ele>990</ele>
        <time>2026-05-09T21:08:40.202Z</time>
      </trkpt>
      <trkpt lat="47.84562" lon="6.92705">
        <ele>990</ele>
        <time>2026-05-09T21:08:41.203Z</time>
      </trkpt>
      <trkpt lat="47.84562" lon="6.92706">
        <ele>990</ele>
        <time>2026-05-09T21:08:42.202Z</time>
      </trkpt>
      <trkpt lat="47.84562" lon="6.92709">
        <ele>990</ele>
        <time>2026-05-09T21:08:43.202Z</time>
      </trkpt>
      <trkpt lat="47.84562" lon="6.92712">
        <ele>990</ele>
        <time>2026-05-09T21:08:44.203Z</time>
      </trkpt>
      <trkpt lat="47.84559" lon="6.92717">
        <ele>990</ele>
        <time>2026-05-09T21:08:45.202Z</time>
      </trkpt>
      <trkpt lat="47.84557" lon="6.92721">
        <ele>990</ele>
        <time>2026-05-09T21:08:46.202Z</time>
      </trkpt>
      <trkpt lat="47.84556" lon="6.92721">
        <ele>990</ele>
        <time>2026-05-09T21:08:47.202Z</time>
      </trkpt>
      <trkpt lat="47.84555" lon="6.92721">
        <ele>991</ele>
        <time>2026-05-09T21:08:48.202Z</time>
      </trkpt>
      <trkpt lat="47.84552" lon="6.92718">
        <ele>991</ele>
        <time>2026-05-09T21:08:49.202Z</time>
      </trkpt>
      <trkpt lat="47.8455" lon="6.92714">
        <ele>991</ele>
        <time>2026-05-09T21:08:50.202Z</time>
      </trkpt>
      <trkpt lat="47.84551" lon="6.92713">
        <ele>991</ele>
        <time>2026-05-09T21:08:51.203Z</time>
      </trkpt>
      <trkpt lat="47.84551" lon="6.92713">
        <ele>991</ele>
        <time>2026-05-09T21:08:52.203Z</time>
      </trkpt>
      <trkpt lat="47.84551" lon="6.92714">
        <ele>991</ele>
        <time>2026-05-09T21:08:53.202Z</time>
      </trkpt>
      <trkpt lat="47.84552" lon="6.92715">
        <ele>991</ele>
        <time>2026-05-09T21:08:54.202Z</time>
      </trkpt>
      <trkpt lat="47.84552" lon="6.92716">
        <ele>991</ele>
        <time>2026-05-09T21:08:55.202Z</time>
      </trkpt>
      <trkpt lat="47.84552" lon="6.92716">
        <ele>991</ele>
        <time>2026-05-09T21:08:56.202Z</time>
      </trkpt>
      <trkpt lat="47.84552" lon="6.92716">
        <ele>991</ele>
        <time>2026-05-09T21:08:57.202Z</time>
      </trkpt>
      <trkpt lat="47.84552" lon="6.92716">
        <ele>992</ele>
        <time>2026-05-09T21:08:58.203Z</time>
      </trkpt>
      <trkpt lat="47.84552" lon="6.92715">
        <ele>992</ele>
        <time>2026-05-09T21:08:59.202Z</time>
      </trkpt>
      <trkpt lat="47.84552" lon="6.92715">
        <ele>992</ele>
        <time>2026-05-09T21:09:00.203Z</time>
      </trkpt>
      <trkpt lat="47.84553" lon="6.92715">
        <ele>993</ele>
        <time>2026-05-09T21:09:01.202Z</time>
      </trkpt>
      <trkpt lat="47.84552" lon="6.92715">
        <ele>993</ele>
        <time>2026-05-09T21:09:02.202Z</time>
      </trkpt>
      <trkpt lat="47.84553" lon="6.92718">
        <ele>993</ele>
        <time>2026-05-09T21:09:03.202Z</time>
      </trkpt>
      <trkpt lat="47.84554" lon="6.92719">
        <ele>993</ele>
        <time>2026-05-09T21:09:04.202Z</time>
      </trkpt>
      <trkpt lat="47.84553" lon="6.92721">
        <ele>993</ele>
        <time>2026-05-09T21:09:05.202Z</time>
      </trkpt>
      <trkpt lat="47.84553" lon="6.92721">
        <ele>992</ele>
        <time>2026-05-09T21:09:06.203Z</time>
      </trkpt>
      <trkpt lat="47.84552" lon="6.92722">
        <ele>992</ele>
        <time>2026-05-09T21:09:07.202Z</time>
      </trkpt>
      <trkpt lat="47.84551" lon="6.92724">
        <ele>991</ele>
        <time>2026-05-09T21:09:08.202Z</time>
      </trkpt>
      <trkpt lat="47.84551" lon="6.92726">
        <ele>990</ele>
        <time>2026-05-09T21:09:09.203Z</time>
      </trkpt>
      <trkpt lat="47.8455" lon="6.92728">
        <ele>990</ele>
        <time>2026-05-09T21:09:10.202Z</time>
      </trkpt>
      <trkpt lat="47.84549" lon="6.92731">
        <ele>989</ele>
        <time>2026-05-09T21:09:11.202Z</time>
      </trkpt>
      <trkpt lat="47.84548" lon="6.92733">
        <ele>988</ele>
        <time>2026-05-09T21:09:12.202Z</time>
      </trkpt>
      <trkpt lat="47.84547" lon="6.92735">
        <ele>988</ele>
        <time>2026-05-09T21:09:13.202Z</time>
      </trkpt>
      <trkpt lat="47.84546" lon="6.92736">
        <ele>987</ele>
        <time>2026-05-09T21:09:14.203Z</time>
      </trkpt>
      <trkpt lat="47.84546" lon="6.92738">
        <ele>987</ele>
        <time>2026-05-09T21:09:15.203Z</time>
      </trkpt>
      <trkpt lat="47.84546" lon="6.92738">
        <ele>986</ele>
        <time>2026-05-09T21:09:16.202Z</time>
      </trkpt>
      <trkpt lat="47.84544" lon="6.92738">
        <ele>986</ele>
        <time>2026-05-09T21:09:17.202Z</time>
      </trkpt>
      <trkpt lat="47.84543" lon="6.92739">
        <ele>985</ele>
        <time>2026-05-09T21:09:18.202Z</time>
      </trkpt>
      <trkpt lat="47.84542" lon="6.9274">
        <ele>985</ele>
        <time>2026-05-09T21:09:19.202Z</time>
      </trkpt>
      <trkpt lat="47.84541" lon="6.92742">
        <ele>984</ele>
        <time>2026-05-09T21:09:20.202Z</time>
      </trkpt>
      <trkpt lat="47.8454" lon="6.92743">
        <ele>983</ele>
        <time>2026-05-09T21:09:21.202Z</time>
      </trkpt>
      <trkpt lat="47.84539" lon="6.92745">
        <ele>983</ele>
        <time>2026-05-09T21:09:22.203Z</time>
      </trkpt>
      <trkpt lat="47.84538" lon="6.92746">
        <ele>982</ele>
        <time>2026-05-09T21:09:23.202Z</time>
      </trkpt>
      <trkpt lat="47.84537" lon="6.92747">
        <ele>982</ele>
        <time>2026-05-09T21:09:24.202Z</time>
      </trkpt>
      <trkpt lat="47.84537" lon="6.92748">
        <ele>982</ele>
        <time>2026-05-09T21:09:25.202Z</time>
      </trkpt>
      <trkpt lat="47.84537" lon="6.92749">
        <ele>982</ele>
        <time>2026-05-09T21:09:26.202Z</time>
      </trkpt>
      <trkpt lat="47.84536" lon="6.92751">
        <ele>982</ele>
        <time>2026-05-09T21:09:27.202Z</time>
      </trkpt>
      <trkpt lat="47.84536" lon="6.92753">
        <ele>982</ele>
        <time>2026-05-09T21:09:28.203Z</time>
      </trkpt>
      <trkpt lat="47.84535" lon="6.92754">
        <ele>982</ele>
        <time>2026-05-09T21:09:29.202Z</time>
      </trkpt>
      <trkpt lat="47.84535" lon="6.92756">
        <ele>982</ele>
        <time>2026-05-09T21:09:30.202Z</time>
      </trkpt>
      <trkpt lat="47.84534" lon="6.92757">
        <ele>982</ele>
        <time>2026-05-09T21:09:31.203Z</time>
      </trkpt>
      <trkpt lat="47.84532" lon="6.92759">
        <ele>982</ele>
        <time>2026-05-09T21:09:32.202Z</time>
      </trkpt>
      <trkpt lat="47.84531" lon="6.92762">
        <ele>981</ele>
        <time>2026-05-09T21:09:33.202Z</time>
      </trkpt>
      <trkpt lat="47.8453" lon="6.92764">
        <ele>981</ele>
        <time>2026-05-09T21:09:34.202Z</time>
      </trkpt>
      <trkpt lat="47.8453" lon="6.92765">
        <ele>982</ele>
        <time>2026-05-09T21:09:35.202Z</time>
      </trkpt>
      <trkpt lat="47.84529" lon="6.92766">
        <ele>982</ele>
        <time>2026-05-09T21:09:36.203Z</time>
      </trkpt>
      <trkpt lat="47.84527" lon="6.92767">
        <ele>982</ele>
        <time>2026-05-09T21:09:37.202Z</time>
      </trkpt>
      <trkpt lat="47.84525" lon="6.92769">
        <ele>983</ele>
        <time>2026-05-09T21:09:38.202Z</time>
      </trkpt>
      <trkpt lat="47.84524" lon="6.9277">
        <ele>983</ele>
        <time>2026-05-09T21:09:39.202Z</time>
      </trkpt>
      <trkpt lat="47.84523" lon="6.92772">
        <ele>983</ele>
        <time>2026-05-09T21:09:40.202Z</time>
      </trkpt>
      <trkpt lat="47.84522" lon="6.92774">
        <ele>984</ele>
        <time>2026-05-09T21:09:41.202Z</time>
      </trkpt>
      <trkpt lat="47.84522" lon="6.92776">
        <ele>984</ele>
        <time>2026-05-09T21:09:42.202Z</time>
      </trkpt>
      <trkpt lat="47.84521" lon="6.92777">
        <ele>984</ele>
        <time>2026-05-09T21:09:43.203Z</time>
      </trkpt>
      <trkpt lat="47.84521" lon="6.92777">
        <ele>984</ele>
        <time>2026-05-09T21:09:44.202Z</time>
      </trkpt>
      <trkpt lat="47.84521" lon="6.92778">
        <ele>984</ele>
        <time>2026-05-09T21:09:45.202Z</time>
      </trkpt>
      <trkpt lat="47.84521" lon="6.9278">
        <ele>984</ele>
        <time>2026-05-09T21:09:46.202Z</time>
      </trkpt>
      <trkpt lat="47.8452" lon="6.92782">
        <ele>984</ele>
        <time>2026-05-09T21:09:47.202Z</time>
      </trkpt>
      <trkpt lat="47.8452" lon="6.92784">
        <ele>983</ele>
        <time>2026-05-09T21:09:48.202Z</time>
      </trkpt>
      <trkpt lat="47.84519" lon="6.92786">
        <ele>983</ele>
        <time>2026-05-09T21:09:49.202Z</time>
      </trkpt>
      <trkpt lat="47.84518" lon="6.92788">
        <ele>983</ele>
        <time>2026-05-09T21:09:50.203Z</time>
      </trkpt>
      <trkpt lat="47.84518" lon="6.92789">
        <ele>983</ele>
        <time>2026-05-09T21:09:51.202Z</time>
      </trkpt>
      <trkpt lat="47.84516" lon="6.92791">
        <ele>983</ele>
        <time>2026-05-09T21:09:52.202Z</time>
      </trkpt>
      <trkpt lat="47.84515" lon="6.92792">
        <ele>983</ele>
        <time>2026-05-09T21:09:53.202Z</time>
      </trkpt>
      <trkpt lat="47.84515" lon="6.92795">
        <ele>982</ele>
        <time>2026-05-09T21:09:54.202Z</time>
      </trkpt>
      <trkpt lat="47.84515" lon="6.92797">
        <ele>982</ele>
        <time>2026-05-09T21:09:55.202Z</time>
      </trkpt>
      <trkpt lat="47.84515" lon="6.928">
        <ele>981</ele>
        <time>2026-05-09T21:09:56.202Z</time>
      </trkpt>
      <trkpt lat="47.84514" lon="6.92802">
        <ele>980</ele>
        <time>2026-05-09T21:09:57.203Z</time>
      </trkpt>
      <trkpt lat="47.84514" lon="6.92804">
        <ele>980</ele>
        <time>2026-05-09T21:09:58.202Z</time>
      </trkpt>
      <trkpt lat="47.84514" lon="6.92805">
        <ele>979</ele>
        <time>2026-05-09T21:09:59.202Z</time>
      </trkpt>
      <trkpt lat="47.84514" lon="6.92807">
        <ele>979</ele>
        <time>2026-05-09T21:10:00.202Z</time>
      </trkpt>
      <trkpt lat="47.84514" lon="6.9281">
        <ele>979</ele>
        <time>2026-05-09T21:10:01.202Z</time>
      </trkpt>
      <trkpt lat="47.84514" lon="6.92812">
        <ele>980</ele>
        <time>2026-05-09T21:10:02.202Z</time>
      </trkpt>
      <trkpt lat="47.84514" lon="6.92813">
        <ele>980</ele>
        <time>2026-05-09T21:10:03.203Z</time>
      </trkpt>
      <trkpt lat="47.84514" lon="6.92815">
        <ele>980</ele>
        <time>2026-05-09T21:10:04.202Z</time>
      </trkpt>
      <trkpt lat="47.84513" lon="6.92817">
        <ele>980</ele>
        <time>2026-05-09T21:10:05.202Z</time>
      </trkpt>
      <trkpt lat="47.84513" lon="6.92819">
        <ele>981</ele>
        <time>2026-05-09T21:10:06.202Z</time>
      </trkpt>
      <trkpt lat="47.84512" lon="6.9282">
        <ele>981</ele>
        <time>2026-05-09T21:10:07.202Z</time>
      </trkpt>
      <trkpt lat="47.84512" lon="6.92821">
        <ele>981</ele>
        <time>2026-05-09T21:10:08.203Z</time>
      </trkpt>
      <trkpt lat="47.84511" lon="6.92822">
        <ele>981</ele>
        <time>2026-05-09T21:10:09.202Z</time>
      </trkpt>
      <trkpt lat="47.84511" lon="6.92823">
        <ele>981</ele>
        <time>2026-05-09T21:10:10.202Z</time>
      </trkpt>
      <trkpt lat="47.8451" lon="6.92825">
        <ele>981</ele>
        <time>2026-05-09T21:10:11.202Z</time>
      </trkpt>
      <trkpt lat="47.84509" lon="6.92826">
        <ele>980</ele>
        <time>2026-05-09T21:10:12.202Z</time>
      </trkpt>
      <trkpt lat="47.84509" lon="6.92828">
        <ele>980</ele>
        <time>2026-05-09T21:10:13.203Z</time>
      </trkpt>
      <trkpt lat="47.84508" lon="6.9283">
        <ele>979</ele>
        <time>2026-05-09T21:10:14.202Z</time>
      </trkpt>
      <trkpt lat="47.84508" lon="6.92831">
        <ele>979</ele>
        <time>2026-05-09T21:10:15.202Z</time>
      </trkpt>
      <trkpt lat="47.84507" lon="6.92833">
        <ele>979</ele>
        <time>2026-05-09T21:10:16.202Z</time>
      </trkpt>
      <trkpt lat="47.84507" lon="6.92834">
        <ele>978</ele>
        <time>2026-05-09T21:10:17.202Z</time>
      </trkpt>
      <trkpt lat="47.84507" lon="6.92835">
        <ele>978</ele>
        <time>2026-05-09T21:10:18.202Z</time>
      </trkpt>
      <trkpt lat="47.84507" lon="6.92835">
        <ele>978</ele>
        <time>2026-05-09T21:10:19.202Z</time>
      </trkpt>
      <trkpt lat="47.84506" lon="6.92837">
        <ele>978</ele>
        <time>2026-05-09T21:10:20.202Z</time>
      </trkpt>
      <trkpt lat="47.84505" lon="6.92838">
        <ele>978</ele>
        <time>2026-05-09T21:10:21.202Z</time>
      </trkpt>
      <trkpt lat="47.84503" lon="6.92839">
        <ele>978</ele>
        <time>2026-05-09T21:10:22.203Z</time>
      </trkpt>
      <trkpt lat="47.84503" lon="6.92841">
        <ele>978</ele>
        <time>2026-05-09T21:10:23.202Z</time>
      </trkpt>
      <trkpt lat="47.84503" lon="6.92843">
        <ele>977</ele>
        <time>2026-05-09T21:10:24.202Z</time>
      </trkpt>
      <trkpt lat="47.84502" lon="6.92845">
        <ele>977</ele>
        <time>2026-05-09T21:10:25.203Z</time>
      </trkpt>
      <trkpt lat="47.84501" lon="6.92848">
        <ele>976</ele>
        <time>2026-05-09T21:10:26.202Z</time>
      </trkpt>
      <trkpt lat="47.845" lon="6.9285">
        <ele>975</ele>
        <time>2026-05-09T21:10:27.202Z</time>
      </trkpt>
      <trkpt lat="47.845" lon="6.92852">
        <ele>974</ele>
        <time>2026-05-09T21:10:28.202Z</time>
      </trkpt>
      <trkpt lat="47.84499" lon="6.92854">
        <ele>974</ele>
        <time>2026-05-09T21:10:29.202Z</time>
      </trkpt>
      <trkpt lat="47.84499" lon="6.92855">
        <ele>974</ele>
        <time>2026-05-09T21:10:30.203Z</time>
      </trkpt>
      <trkpt lat="47.84498" lon="6.92857">
        <ele>974</ele>
        <time>2026-05-09T21:10:31.202Z</time>
      </trkpt>
      <trkpt lat="47.84498" lon="6.92859">
        <ele>974</ele>
        <time>2026-05-09T21:10:32.202Z</time>
      </trkpt>
      <trkpt lat="47.84498" lon="6.92859">
        <ele>974</ele>
        <time>2026-05-09T21:10:33.203Z</time>
      </trkpt>
      <trkpt lat="47.84498" lon="6.92862">
        <ele>973</ele>
        <time>2026-05-09T21:10:34.203Z</time>
      </trkpt>
      <trkpt lat="47.84497" lon="6.92864">
        <ele>973</ele>
        <time>2026-05-09T21:10:35.202Z</time>
      </trkpt>
      <trkpt lat="47.84496" lon="6.92866">
        <ele>973</ele>
        <time>2026-05-09T21:10:36.202Z</time>
      </trkpt>
      <trkpt lat="47.84496" lon="6.92869">
        <ele>973</ele>
        <time>2026-05-09T21:10:37.203Z</time>
      </trkpt>
      <trkpt lat="47.84494" lon="6.92872">
        <ele>973</ele>
        <time>2026-05-09T21:10:38.202Z</time>
      </trkpt>
      <trkpt lat="47.84494" lon="6.92878">
        <ele>973</ele>
        <time>2026-05-09T21:10:39.202Z</time>
      </trkpt>
      <trkpt lat="47.84494" lon="6.92884">
        <ele>973</ele>
        <time>2026-05-09T21:10:40.203Z</time>
      </trkpt>
      <trkpt lat="47.84492" lon="6.9289">
        <ele>973</ele>
        <time>2026-05-09T21:10:41.202Z</time>
      </trkpt>
      <trkpt lat="47.8449" lon="6.92894">
        <ele>973</ele>
        <time>2026-05-09T21:10:42.202Z</time>
      </trkpt>
      <trkpt lat="47.84489" lon="6.92899">
        <ele>973</ele>
        <time>2026-05-09T21:10:43.202Z</time>
      </trkpt>
      <trkpt lat="47.84489" lon="6.92902">
        <ele>973</ele>
        <time>2026-05-09T21:10:44.202Z</time>
      </trkpt>
      <trkpt lat="47.84492" lon="6.92901">
        <ele>973</ele>
        <time>2026-05-09T21:10:45.202Z</time>
      </trkpt>
      <trkpt lat="47.84495" lon="6.92901">
        <ele>973</ele>
        <time>2026-05-09T21:10:46.202Z</time>
      </trkpt>
      <trkpt lat="47.84496" lon="6.92901">
        <ele>973</ele>
        <time>2026-05-09T21:10:47.202Z</time>
      </trkpt>
      <trkpt lat="47.84497" lon="6.92902">
        <ele>973</ele>
        <time>2026-05-09T21:10:48.202Z</time>
      </trkpt>
      <trkpt lat="47.84498" lon="6.92902">
        <ele>972</ele>
        <time>2026-05-09T21:10:49.202Z</time>
      </trkpt>
      <trkpt lat="47.84498" lon="6.92904">
        <ele>972</ele>
        <time>2026-05-09T21:10:50.202Z</time>
      </trkpt>
      <trkpt lat="47.84497" lon="6.92908">
        <ele>972</ele>
        <time>2026-05-09T21:10:51.203Z</time>
      </trkpt>
      <trkpt lat="47.84494" lon="6.92912">
        <ele>972</ele>
        <time>2026-05-09T21:10:52.203Z</time>
      </trkpt>
      <trkpt lat="47.84492" lon="6.92916">
        <ele>972</ele>
        <time>2026-05-09T21:10:53.202Z</time>
      </trkpt>
      <trkpt lat="47.84491" lon="6.9292">
        <ele>972</ele>
        <time>2026-05-09T21:10:54.203Z</time>
      </trkpt>
      <trkpt lat="47.84489" lon="6.9292">
        <ele>972</ele>
        <time>2026-05-09T21:10:55.203Z</time>
      </trkpt>
      <trkpt lat="47.84488" lon="6.9292">
        <ele>972</ele>
        <time>2026-05-09T21:10:56.202Z</time>
      </trkpt>
      <trkpt lat="47.84486" lon="6.92921">
        <ele>972</ele>
        <time>2026-05-09T21:10:57.203Z</time>
      </trkpt>
      <trkpt lat="47.84486" lon="6.9292">
        <ele>972</ele>
        <time>2026-05-09T21:10:58.202Z</time>
      </trkpt>
      <trkpt lat="47.84485" lon="6.9292">
        <ele>972</ele>
        <time>2026-05-09T21:10:59.202Z</time>
      </trkpt>
      <trkpt lat="47.84484" lon="6.92921">
        <ele>972</ele>
        <time>2026-05-09T21:11:00.202Z</time>
      </trkpt>
      <trkpt lat="47.84484" lon="6.92922">
        <ele>972</ele>
        <time>2026-05-09T21:11:01.203Z</time>
      </trkpt>
      <trkpt lat="47.84484" lon="6.92924">
        <ele>972</ele>
        <time>2026-05-09T21:11:02.203Z</time>
      </trkpt>
      <trkpt lat="47.84484" lon="6.92925">
        <ele>972</ele>
        <time>2026-05-09T21:11:03.202Z</time>
      </trkpt>
      <trkpt lat="47.84484" lon="6.92926">
        <ele>972</ele>
        <time>2026-05-09T21:11:04.203Z</time>
      </trkpt>
      <trkpt lat="47.84485" lon="6.92928">
        <ele>972</ele>
        <time>2026-05-09T21:11:05.202Z</time>
      </trkpt>
      <trkpt lat="47.84485" lon="6.92929">
        <ele>972</ele>
        <time>2026-05-09T21:11:06.202Z</time>
      </trkpt>
      <trkpt lat="47.84485" lon="6.92931">
        <ele>972</ele>
        <time>2026-05-09T21:11:07.203Z</time>
      </trkpt>
      <trkpt lat="47.84485" lon="6.92931">
        <ele>972</ele>
        <time>2026-05-09T21:11:08.203Z</time>
      </trkpt>
      <trkpt lat="47.84485" lon="6.92931">
        <ele>972</ele>
        <time>2026-05-09T21:11:09.202Z</time>
      </trkpt>
      <trkpt lat="47.84484" lon="6.92933">
        <ele>972</ele>
        <time>2026-05-09T21:11:10.202Z</time>
      </trkpt>
      <trkpt lat="47.84484" lon="6.92935">
        <ele>972</ele>
        <time>2026-05-09T21:11:11.202Z</time>
      </trkpt>
      <trkpt lat="47.84483" lon="6.92936">
        <ele>971</ele>
        <time>2026-05-09T21:11:12.203Z</time>
      </trkpt>
      <trkpt lat="47.84483" lon="6.92936">
        <ele>971</ele>
        <time>2026-05-09T21:11:13.202Z</time>
      </trkpt>
      <trkpt lat="47.84483" lon="6.92938">
        <ele>971</ele>
        <time>2026-05-09T21:11:14.202Z</time>
      </trkpt>
      <trkpt lat="47.84483" lon="6.9294">
        <ele>970</ele>
        <time>2026-05-09T21:11:15.203Z</time>
      </trkpt>
      <trkpt lat="47.84483" lon="6.92942">
        <ele>970</ele>
        <time>2026-05-09T21:11:16.203Z</time>
      </trkpt>
      <trkpt lat="47.84483" lon="6.92942">
        <ele>969</ele>
        <time>2026-05-09T21:11:17.202Z</time>
      </trkpt>
      <trkpt lat="47.84481" lon="6.92943">
        <ele>968</ele>
        <time>2026-05-09T21:11:18.202Z</time>
      </trkpt>
      <trkpt lat="47.84479" lon="6.92943">
        <ele>968</ele>
        <time>2026-05-09T21:11:19.202Z</time>
      </trkpt>
      <trkpt lat="47.84477" lon="6.92944">
        <ele>968</ele>
        <time>2026-05-09T21:11:20.202Z</time>
      </trkpt>
      <trkpt lat="47.84475" lon="6.92945">
        <ele>967</ele>
        <time>2026-05-09T21:11:21.202Z</time>
      </trkpt>
      <trkpt lat="47.84474" lon="6.92946">
        <ele>967</ele>
        <time>2026-05-09T21:11:22.202Z</time>
      </trkpt>
      <trkpt lat="47.84474" lon="6.92947">
        <ele>966</ele>
        <time>2026-05-09T21:11:23.202Z</time>
      </trkpt>
      <trkpt lat="47.84473" lon="6.92948">
        <ele>966</ele>
        <time>2026-05-09T21:11:24.202Z</time>
      </trkpt>
      <trkpt lat="47.84472" lon="6.92949">
        <ele>965</ele>
        <time>2026-05-09T21:11:25.203Z</time>
      </trkpt>
      <trkpt lat="47.84471" lon="6.9295">
        <ele>965</ele>
        <time>2026-05-09T21:11:26.202Z</time>
      </trkpt>
      <trkpt lat="47.84471" lon="6.92951">
        <ele>964</ele>
        <time>2026-05-09T21:11:27.203Z</time>
      </trkpt>
      <trkpt lat="47.8447" lon="6.92952">
        <ele>964</ele>
        <time>2026-05-09T21:11:28.202Z</time>
      </trkpt>
      <trkpt lat="47.84469" lon="6.92953">
        <ele>964</ele>
        <time>2026-05-09T21:11:29.202Z</time>
      </trkpt>
      <trkpt lat="47.84467" lon="6.92953">
        <ele>963</ele>
        <time>2026-05-09T21:11:30.202Z</time>
      </trkpt>
      <trkpt lat="47.84466" lon="6.92954">
        <ele>963</ele>
        <time>2026-05-09T21:11:31.202Z</time>
      </trkpt>
      <trkpt lat="47.84465" lon="6.92956">
        <ele>963</ele>
        <time>2026-05-09T21:11:32.203Z</time>
      </trkpt>
      <trkpt lat="47.84464" lon="6.92959">
        <ele>963</ele>
        <time>2026-05-09T21:11:33.203Z</time>
      </trkpt>
      <trkpt lat="47.84463" lon="6.9296">
        <ele>963</ele>
        <time>2026-05-09T21:11:34.202Z</time>
      </trkpt>
      <trkpt lat="47.84463" lon="6.92963">
        <ele>962</ele>
        <time>2026-05-09T21:11:35.202Z</time>
      </trkpt>
      <trkpt lat="47.84463" lon="6.92966">
        <ele>962</ele>
        <time>2026-05-09T21:11:36.202Z</time>
      </trkpt>
      <trkpt lat="47.84462" lon="6.92966">
        <ele>962</ele>
        <time>2026-05-09T21:11:37.202Z</time>
      </trkpt>
      <trkpt lat="47.84461" lon="6.92967">
        <ele>962</ele>
        <time>2026-05-09T21:11:38.202Z</time>
      </trkpt>
      <trkpt lat="47.84459" lon="6.92968">
        <ele>962</ele>
        <time>2026-05-09T21:11:39.202Z</time>
      </trkpt>
      <trkpt lat="47.84456" lon="6.92969">
        <ele>962</ele>
        <time>2026-05-09T21:11:40.203Z</time>
      </trkpt>
      <trkpt lat="47.84454" lon="6.92971">
        <ele>962</ele>
        <time>2026-05-09T21:11:41.202Z</time>
      </trkpt>
      <trkpt lat="47.84453" lon="6.92974">
        <ele>962</ele>
        <time>2026-05-09T21:11:42.202Z</time>
      </trkpt>
      <trkpt lat="47.84453" lon="6.92977">
        <ele>962</ele>
        <time>2026-05-09T21:11:43.202Z</time>
      </trkpt>
      <trkpt lat="47.84451" lon="6.92979">
        <ele>963</ele>
        <time>2026-05-09T21:11:44.202Z</time>
      </trkpt>
      <trkpt lat="47.84449" lon="6.92981">
        <ele>963</ele>
        <time>2026-05-09T21:11:45.202Z</time>
      </trkpt>
      <trkpt lat="47.84446" lon="6.92985">
        <ele>963</ele>
        <time>2026-05-09T21:11:46.202Z</time>
      </trkpt>
      <trkpt lat="47.84445" lon="6.92987">
        <ele>964</ele>
        <time>2026-05-09T21:11:47.202Z</time>
      </trkpt>
      <trkpt lat="47.84444" lon="6.92992">
        <ele>964</ele>
        <time>2026-05-09T21:11:48.202Z</time>
      </trkpt>
      <trkpt lat="47.84444" lon="6.92997">
        <ele>965</ele>
        <time>2026-05-09T21:11:49.202Z</time>
      </trkpt>
      <trkpt lat="47.84444" lon="6.93">
        <ele>965</ele>
        <time>2026-05-09T21:11:50.202Z</time>
      </trkpt>
      <trkpt lat="47.84442" lon="6.92997">
        <ele>965</ele>
        <time>2026-05-09T21:11:51.203Z</time>
      </trkpt>
      <trkpt lat="47.84441" lon="6.92999">
        <ele>966</ele>
        <time>2026-05-09T21:11:52.202Z</time>
      </trkpt>
      <trkpt lat="47.84441" lon="6.93">
        <ele>966</ele>
        <time>2026-05-09T21:11:53.202Z</time>
      </trkpt>
      <trkpt lat="47.8444" lon="6.93001">
        <ele>967</ele>
        <time>2026-05-09T21:11:54.203Z</time>
      </trkpt>
      <trkpt lat="47.8444" lon="6.93002">
        <ele>967</ele>
        <time>2026-05-09T21:11:55.203Z</time>
      </trkpt>
      <trkpt lat="47.84439" lon="6.93002">
        <ele>967</ele>
        <time>2026-05-09T21:11:56.202Z</time>
      </trkpt>
      <trkpt lat="47.84438" lon="6.93004">
        <ele>968</ele>
        <time>2026-05-09T21:11:57.202Z</time>
      </trkpt>
      <trkpt lat="47.84437" lon="6.93004">
        <ele>968</ele>
        <time>2026-05-09T21:11:58.202Z</time>
      </trkpt>
      <trkpt lat="47.84436" lon="6.93005">
        <ele>968</ele>
        <time>2026-05-09T21:11:59.202Z</time>
      </trkpt>
      <trkpt lat="47.84436" lon="6.93007">
        <ele>968</ele>
        <time>2026-05-09T21:12:00.203Z</time>
      </trkpt>
      <trkpt lat="47.84435" lon="6.93008">
        <ele>968</ele>
        <time>2026-05-09T21:12:01.202Z</time>
      </trkpt>
      <trkpt lat="47.84435" lon="6.9301">
        <ele>969</ele>
        <time>2026-05-09T21:12:02.203Z</time>
      </trkpt>
      <trkpt lat="47.84435" lon="6.93011">
        <ele>969</ele>
        <time>2026-05-09T21:12:03.202Z</time>
      </trkpt>
      <trkpt lat="47.84435" lon="6.93012">
        <ele>969</ele>
        <time>2026-05-09T21:12:04.202Z</time>
      </trkpt>
      <trkpt lat="47.84434" lon="6.93013">
        <ele>969</ele>
        <time>2026-05-09T21:12:05.202Z</time>
      </trkpt>
      <trkpt lat="47.84434" lon="6.93014">
        <ele>969</ele>
        <time>2026-05-09T21:12:06.202Z</time>
      </trkpt>
      <trkpt lat="47.84433" lon="6.93015">
        <ele>969</ele>
        <time>2026-05-09T21:12:07.203Z</time>
      </trkpt>
      <trkpt lat="47.84433" lon="6.93016">
        <ele>969</ele>
        <time>2026-05-09T21:12:08.202Z</time>
      </trkpt>
      <trkpt lat="47.84433" lon="6.93017">
        <ele>968</ele>
        <time>2026-05-09T21:12:09.202Z</time>
      </trkpt>
      <trkpt lat="47.84432" lon="6.93018">
        <ele>968</ele>
        <time>2026-05-09T21:12:10.202Z</time>
      </trkpt>
      <trkpt lat="47.84432" lon="6.9302">
        <ele>968</ele>
        <time>2026-05-09T21:12:11.202Z</time>
      </trkpt>
      <trkpt lat="47.84431" lon="6.93021">
        <ele>968</ele>
        <time>2026-05-09T21:12:12.202Z</time>
      </trkpt>
      <trkpt lat="47.84431" lon="6.93022">
        <ele>967</ele>
        <time>2026-05-09T21:12:13.202Z</time>
      </trkpt>
      <trkpt lat="47.84431" lon="6.93024">
        <ele>966</ele>
        <time>2026-05-09T21:12:14.202Z</time>
      </trkpt>
      <trkpt lat="47.8443" lon="6.93026">
        <ele>966</ele>
        <time>2026-05-09T21:12:15.203Z</time>
      </trkpt>
      <trkpt lat="47.84429" lon="6.93028">
        <ele>965</ele>
        <time>2026-05-09T21:12:16.202Z</time>
      </trkpt>
      <trkpt lat="47.84428" lon="6.93029">
        <ele>965</ele>
        <time>2026-05-09T21:12:17.202Z</time>
      </trkpt>
      <trkpt lat="47.84426" lon="6.9303">
        <ele>965</ele>
        <time>2026-05-09T21:12:18.202Z</time>
      </trkpt>
      <trkpt lat="47.84425" lon="6.93031">
        <ele>965</ele>
        <time>2026-05-09T21:12:19.202Z</time>
      </trkpt>
      <trkpt lat="47.84425" lon="6.93033">
        <ele>964</ele>
        <time>2026-05-09T21:12:20.202Z</time>
      </trkpt>
      <trkpt lat="47.84424" lon="6.93034">
        <ele>964</ele>
        <time>2026-05-09T21:12:21.202Z</time>
      </trkpt>
      <trkpt lat="47.84423" lon="6.93035">
        <ele>963</ele>
        <time>2026-05-09T21:12:22.203Z</time>
      </trkpt>
      <trkpt lat="47.84422" lon="6.93037">
        <ele>963</ele>
        <time>2026-05-09T21:12:23.202Z</time>
      </trkpt>
      <trkpt lat="47.84422" lon="6.93038">
        <ele>963</ele>
        <time>2026-05-09T21:12:24.202Z</time>
      </trkpt>
      <trkpt lat="47.84422" lon="6.93039">
        <ele>963</ele>
        <time>2026-05-09T21:12:25.202Z</time>
      </trkpt>
      <trkpt lat="47.84422" lon="6.9304">
        <ele>963</ele>
        <time>2026-05-09T21:12:26.202Z</time>
      </trkpt>
      <trkpt lat="47.84421" lon="6.93041">
        <ele>963</ele>
        <time>2026-05-09T21:12:27.202Z</time>
      </trkpt>
      <trkpt lat="47.8442" lon="6.93043">
        <ele>963</ele>
        <time>2026-05-09T21:12:28.203Z</time>
      </trkpt>
      <trkpt lat="47.8442" lon="6.93043">
        <ele>963</ele>
        <time>2026-05-09T21:12:29.202Z</time>
      </trkpt>
      <trkpt lat="47.8442" lon="6.93045">
        <ele>963</ele>
        <time>2026-05-09T21:12:30.202Z</time>
      </trkpt>
      <trkpt lat="47.84419" lon="6.93046">
        <ele>963</ele>
        <time>2026-05-09T21:12:31.202Z</time>
      </trkpt>
      <trkpt lat="47.84418" lon="6.93047">
        <ele>962</ele>
        <time>2026-05-09T21:12:32.202Z</time>
      </trkpt>
      <trkpt lat="47.84418" lon="6.93049">
        <ele>962</ele>
        <time>2026-05-09T21:12:33.203Z</time>
      </trkpt>
      <trkpt lat="47.84417" lon="6.93051">
        <ele>962</ele>
        <time>2026-05-09T21:12:34.202Z</time>
      </trkpt>
      <trkpt lat="47.84416" lon="6.93054">
        <ele>962</ele>
        <time>2026-05-09T21:12:35.203Z</time>
      </trkpt>
      <trkpt lat="47.84415" lon="6.93056">
        <ele>962</ele>
        <time>2026-05-09T21:12:36.202Z</time>
      </trkpt>
      <trkpt lat="47.84415" lon="6.93059">
        <ele>961</ele>
        <time>2026-05-09T21:12:37.203Z</time>
      </trkpt>
      <trkpt lat="47.84414" lon="6.93061">
        <ele>961</ele>
        <time>2026-05-09T21:12:38.202Z</time>
      </trkpt>
      <trkpt lat="47.84413" lon="6.93063">
        <ele>961</ele>
        <time>2026-05-09T21:12:39.202Z</time>
      </trkpt>
      <trkpt lat="47.84413" lon="6.93065">
        <ele>961</ele>
        <time>2026-05-09T21:12:40.202Z</time>
      </trkpt>
      <trkpt lat="47.84412" lon="6.93066">
        <ele>960</ele>
        <time>2026-05-09T21:12:41.203Z</time>
      </trkpt>
      <trkpt lat="47.84412" lon="6.93069">
        <ele>960</ele>
        <time>2026-05-09T21:12:42.202Z</time>
      </trkpt>
      <trkpt lat="47.84412" lon="6.93071">
        <ele>959</ele>
        <time>2026-05-09T21:12:43.202Z</time>
      </trkpt>
      <trkpt lat="47.84412" lon="6.93073">
        <ele>959</ele>
        <time>2026-05-09T21:12:44.202Z</time>
      </trkpt>
      <trkpt lat="47.84411" lon="6.93075">
        <ele>958</ele>
        <time>2026-05-09T21:12:45.202Z</time>
      </trkpt>
      <trkpt lat="47.8441" lon="6.93076">
        <ele>958</ele>
        <time>2026-05-09T21:12:46.202Z</time>
      </trkpt>
      <trkpt lat="47.84409" lon="6.93077">
        <ele>957</ele>
        <time>2026-05-09T21:12:47.202Z</time>
      </trkpt>
      <trkpt lat="47.84408" lon="6.93078">
        <ele>957</ele>
        <time>2026-05-09T21:12:48.202Z</time>
      </trkpt>
      <trkpt lat="47.84407" lon="6.9308">
        <ele>957</ele>
        <time>2026-05-09T21:12:49.202Z</time>
      </trkpt>
      <trkpt lat="47.84407" lon="6.93082">
        <ele>957</ele>
        <time>2026-05-09T21:12:50.202Z</time>
      </trkpt>
      <trkpt lat="47.84406" lon="6.93084">
        <ele>957</ele>
        <time>2026-05-09T21:12:51.202Z</time>
      </trkpt>
      <trkpt lat="47.84405" lon="6.93088">
        <ele>957</ele>
        <time>2026-05-09T21:12:52.202Z</time>
      </trkpt>
      <trkpt lat="47.84405" lon="6.93091">
        <ele>957</ele>
        <time>2026-05-09T21:12:53.202Z</time>
      </trkpt>
      <trkpt lat="47.84407" lon="6.93092">
        <ele>957</ele>
        <time>2026-05-09T21:12:54.202Z</time>
      </trkpt>
      <trkpt lat="47.84409" lon="6.93092">
        <ele>957</ele>
        <time>2026-05-09T21:12:55.202Z</time>
      </trkpt>
      <trkpt lat="47.8441" lon="6.93093">
        <ele>957</ele>
        <time>2026-05-09T21:12:56.202Z</time>
      </trkpt>
      <trkpt lat="47.84412" lon="6.93095">
        <ele>957</ele>
        <time>2026-05-09T21:12:57.202Z</time>
      </trkpt>
      <trkpt lat="47.84413" lon="6.93096">
        <ele>957</ele>
        <time>2026-05-09T21:12:58.202Z</time>
      </trkpt>
      <trkpt lat="47.84414" lon="6.93098">
        <ele>957</ele>
        <time>2026-05-09T21:12:59.202Z</time>
      </trkpt>
      <trkpt lat="47.84413" lon="6.93099">
        <ele>957</ele>
        <time>2026-05-09T21:13:00.202Z</time>
      </trkpt>
      <trkpt lat="47.84412" lon="6.93099">
        <ele>957</ele>
        <time>2026-05-09T21:13:01.202Z</time>
      </trkpt>
      <trkpt lat="47.84412" lon="6.93101">
        <ele>957</ele>
        <time>2026-05-09T21:13:02.202Z</time>
      </trkpt>
      <trkpt lat="47.84411" lon="6.93102">
        <ele>957</ele>
        <time>2026-05-09T21:13:03.202Z</time>
      </trkpt>
      <trkpt lat="47.84412" lon="6.93103">
        <ele>958</ele>
        <time>2026-05-09T21:13:04.202Z</time>
      </trkpt>
      <trkpt lat="47.84412" lon="6.93104">
        <ele>958</ele>
        <time>2026-05-09T21:13:05.203Z</time>
      </trkpt>
      <trkpt lat="47.84411" lon="6.93106">
        <ele>958</ele>
        <time>2026-05-09T21:13:06.203Z</time>
      </trkpt>
      <trkpt lat="47.8441" lon="6.93107">
        <ele>958</ele>
        <time>2026-05-09T21:13:07.202Z</time>
      </trkpt>
      <trkpt lat="47.8441" lon="6.93109">
        <ele>958</ele>
        <time>2026-05-09T21:13:08.202Z</time>
      </trkpt>
      <trkpt lat="47.8441" lon="6.93111">
        <ele>958</ele>
        <time>2026-05-09T21:13:09.203Z</time>
      </trkpt>
      <trkpt lat="47.84411" lon="6.93112">
        <ele>958</ele>
        <time>2026-05-09T21:13:10.202Z</time>
      </trkpt>
      <trkpt lat="47.8441" lon="6.93115">
        <ele>958</ele>
        <time>2026-05-09T21:13:11.202Z</time>
      </trkpt>
      <trkpt lat="47.84411" lon="6.93116">
        <ele>957</ele>
        <time>2026-05-09T21:13:12.203Z</time>
      </trkpt>
      <trkpt lat="47.84412" lon="6.93119">
        <ele>956</ele>
        <time>2026-05-09T21:13:13.202Z</time>
      </trkpt>
      <trkpt lat="47.84412" lon="6.93121">
        <ele>956</ele>
        <time>2026-05-09T21:13:14.202Z</time>
      </trkpt>
      <trkpt lat="47.84412" lon="6.93123">
        <ele>955</ele>
        <time>2026-05-09T21:13:15.202Z</time>
      </trkpt>
      <trkpt lat="47.84412" lon="6.93124">
        <ele>955</ele>
        <time>2026-05-09T21:13:16.202Z</time>
      </trkpt>
      <trkpt lat="47.84413" lon="6.93125">
        <ele>954</ele>
        <time>2026-05-09T21:13:17.203Z</time>
      </trkpt>
      <trkpt lat="47.84414" lon="6.93127">
        <ele>954</ele>
        <time>2026-05-09T21:13:18.202Z</time>
      </trkpt>
      <trkpt lat="47.84415" lon="6.93129">
        <ele>953</ele>
        <time>2026-05-09T21:13:19.202Z</time>
      </trkpt>
      <trkpt lat="47.84416" lon="6.93131">
        <ele>953</ele>
        <time>2026-05-09T21:13:20.202Z</time>
      </trkpt>
      <trkpt lat="47.84416" lon="6.93133">
        <ele>953</ele>
        <time>2026-05-09T21:13:21.202Z</time>
      </trkpt>
      <trkpt lat="47.84415" lon="6.93134">
        <ele>952</ele>
        <time>2026-05-09T21:13:22.203Z</time>
      </trkpt>
      <trkpt lat="47.84414" lon="6.93136">
        <ele>952</ele>
        <time>2026-05-09T21:13:23.202Z</time>
      </trkpt>
      <trkpt lat="47.84414" lon="6.93138">
        <ele>952</ele>
        <time>2026-05-09T21:13:24.202Z</time>
      </trkpt>
      <trkpt lat="47.84413" lon="6.9314">
        <ele>951</ele>
        <time>2026-05-09T21:13:25.202Z</time>
      </trkpt>
      <trkpt lat="47.84413" lon="6.93142">
        <ele>951</ele>
        <time>2026-05-09T21:13:26.202Z</time>
      </trkpt>
      <trkpt lat="47.84412" lon="6.93144">
        <ele>951</ele>
        <time>2026-05-09T21:13:27.202Z</time>
      </trkpt>
      <trkpt lat="47.84412" lon="6.93146">
        <ele>951</ele>
        <time>2026-05-09T21:13:28.202Z</time>
      </trkpt>
      <trkpt lat="47.84412" lon="6.93147">
        <ele>951</ele>
        <time>2026-05-09T21:13:29.203Z</time>
      </trkpt>
      <trkpt lat="47.84413" lon="6.9315">
        <ele>951</ele>
        <time>2026-05-09T21:13:30.203Z</time>
      </trkpt>
      <trkpt lat="47.84414" lon="6.93152">
        <ele>950</ele>
        <time>2026-05-09T21:13:31.203Z</time>
      </trkpt>
      <trkpt lat="47.84415" lon="6.93156">
        <ele>950</ele>
        <time>2026-05-09T21:13:32.203Z</time>
      </trkpt>
      <trkpt lat="47.84415" lon="6.9316">
        <ele>950</ele>
        <time>2026-05-09T21:13:33.202Z</time>
      </trkpt>
      <trkpt lat="47.84416" lon="6.93164">
        <ele>949</ele>
        <time>2026-05-09T21:13:34.202Z</time>
      </trkpt>
      <trkpt lat="47.84415" lon="6.93166">
        <ele>949</ele>
        <time>2026-05-09T21:13:35.203Z</time>
      </trkpt>
      <trkpt lat="47.84415" lon="6.93169">
        <ele>948</ele>
        <time>2026-05-09T21:13:36.203Z</time>
      </trkpt>
      <trkpt lat="47.84414" lon="6.93171">
        <ele>948</ele>
        <time>2026-05-09T21:13:37.202Z</time>
      </trkpt>
      <trkpt lat="47.84414" lon="6.93173">
        <ele>948</ele>
        <time>2026-05-09T21:13:38.202Z</time>
      </trkpt>
      <trkpt lat="47.84414" lon="6.93176">
        <ele>947</ele>
        <time>2026-05-09T21:13:39.202Z</time>
      </trkpt>
      <trkpt lat="47.84414" lon="6.93181">
        <ele>947</ele>
        <time>2026-05-09T21:13:40.203Z</time>
      </trkpt>
      <trkpt lat="47.84412" lon="6.93184">
        <ele>946</ele>
        <time>2026-05-09T21:13:41.202Z</time>
      </trkpt>
      <trkpt lat="47.84411" lon="6.93186">
        <ele>946</ele>
        <time>2026-05-09T21:13:42.202Z</time>
      </trkpt>
      <trkpt lat="47.84409" lon="6.93187">
        <ele>946</ele>
        <time>2026-05-09T21:13:43.202Z</time>
      </trkpt>
      <trkpt lat="47.84408" lon="6.93189">
        <ele>946</ele>
        <time>2026-05-09T21:13:44.202Z</time>
      </trkpt>
      <trkpt lat="47.84406" lon="6.93189">
        <ele>945</ele>
        <time>2026-05-09T21:13:45.202Z</time>
      </trkpt>
      <trkpt lat="47.84406" lon="6.93189">
        <ele>945</ele>
        <time>2026-05-09T21:13:46.202Z</time>
      </trkpt>
      <trkpt lat="47.84406" lon="6.93189">
        <ele>945</ele>
        <time>2026-05-09T21:13:47.202Z</time>
      </trkpt>
      <trkpt lat="47.84406" lon="6.93191">
        <ele>945</ele>
        <time>2026-05-09T21:13:48.203Z</time>
      </trkpt>
      <trkpt lat="47.84405" lon="6.93193">
        <ele>945</ele>
        <time>2026-05-09T21:13:49.203Z</time>
      </trkpt>
      <trkpt lat="47.84404" lon="6.93195">
        <ele>945</ele>
        <time>2026-05-09T21:13:50.202Z</time>
      </trkpt>
      <trkpt lat="47.84404" lon="6.93197">
        <ele>945</ele>
        <time>2026-05-09T21:13:51.202Z</time>
      </trkpt>
      <trkpt lat="47.84403" lon="6.93198">
        <ele>945</ele>
        <time>2026-05-09T21:13:52.202Z</time>
      </trkpt>
      <trkpt lat="47.84402" lon="6.93199">
        <ele>945</ele>
        <time>2026-05-09T21:13:53.202Z</time>
      </trkpt>
      <trkpt lat="47.84403" lon="6.93203">
        <ele>944</ele>
        <time>2026-05-09T21:13:54.202Z</time>
      </trkpt>
      <trkpt lat="47.84403" lon="6.93206">
        <ele>944</ele>
        <time>2026-05-09T21:13:55.202Z</time>
      </trkpt>
      <trkpt lat="47.84403" lon="6.93209">
        <ele>944</ele>
        <time>2026-05-09T21:13:56.202Z</time>
      </trkpt>
      <trkpt lat="47.84402" lon="6.93213">
        <ele>944</ele>
        <time>2026-05-09T21:13:57.202Z</time>
      </trkpt>
      <trkpt lat="47.84402" lon="6.93218">
        <ele>944</ele>
        <time>2026-05-09T21:13:58.202Z</time>
      </trkpt>
      <trkpt lat="47.84403" lon="6.9322">
        <ele>943</ele>
        <time>2026-05-09T21:13:59.202Z</time>
      </trkpt>
      <trkpt lat="47.84404" lon="6.93223">
        <ele>943</ele>
        <time>2026-05-09T21:14:00.203Z</time>
      </trkpt>
      <trkpt lat="47.84405" lon="6.93223">
        <ele>943</ele>
        <time>2026-05-09T21:14:01.203Z</time>
      </trkpt>
      <trkpt lat="47.84404" lon="6.93223">
        <ele>943</ele>
        <time>2026-05-09T21:14:02.202Z</time>
      </trkpt>
      <trkpt lat="47.84404" lon="6.93223">
        <ele>942</ele>
        <time>2026-05-09T21:14:03.203Z</time>
      </trkpt>
      <trkpt lat="47.84403" lon="6.93224">
        <ele>942</ele>
        <time>2026-05-09T21:14:04.202Z</time>
      </trkpt>
      <trkpt lat="47.84395" lon="6.93241">
        <ele>942</ele>
        <time>2026-05-09T21:14:12.220Z</time>
      </trkpt>
      <trkpt lat="47.84394" lon="6.93243">
        <ele>942</ele>
        <time>2026-05-09T21:14:13.220Z</time>
      </trkpt>
      <trkpt lat="47.84394" lon="6.93244">
        <ele>942</ele>
        <time>2026-05-09T21:14:14.221Z</time>
      </trkpt>
      <trkpt lat="47.84392" lon="6.93246">
        <ele>941</ele>
        <time>2026-05-09T21:14:15.221Z</time>
      </trkpt>
      <trkpt lat="47.84391" lon="6.93247">
        <ele>941</ele>
        <time>2026-05-09T21:14:16.220Z</time>
      </trkpt>
      <trkpt lat="47.84389" lon="6.93249">
        <ele>941</ele>
        <time>2026-05-09T21:14:17.220Z</time>
      </trkpt>
      <trkpt lat="47.84387" lon="6.93251">
        <ele>941</ele>
        <time>2026-05-09T21:14:18.221Z</time>
      </trkpt>
      <trkpt lat="47.84386" lon="6.93253">
        <ele>940</ele>
        <time>2026-05-09T21:14:19.220Z</time>
      </trkpt>
      <trkpt lat="47.84385" lon="6.93254">
        <ele>940</ele>
        <time>2026-05-09T21:14:20.220Z</time>
      </trkpt>
      <trkpt lat="47.84385" lon="6.93254">
        <ele>939</ele>
        <time>2026-05-09T21:14:21.220Z</time>
      </trkpt>
      <trkpt lat="47.84385" lon="6.93256">
        <ele>939</ele>
        <time>2026-05-09T21:14:22.221Z</time>
      </trkpt>
      <trkpt lat="47.84385" lon="6.93259">
        <ele>938</ele>
        <time>2026-05-09T21:14:23.221Z</time>
      </trkpt>
      <trkpt lat="47.84385" lon="6.93261">
        <ele>937</ele>
        <time>2026-05-09T21:14:24.220Z</time>
      </trkpt>
      <trkpt lat="47.84385" lon="6.93262">
        <ele>937</ele>
        <time>2026-05-09T21:14:25.220Z</time>
      </trkpt>
      <trkpt lat="47.84383" lon="6.93263">
        <ele>936</ele>
        <time>2026-05-09T21:14:26.220Z</time>
      </trkpt>
      <trkpt lat="47.84383" lon="6.93264">
        <ele>935</ele>
        <time>2026-05-09T21:14:27.221Z</time>
      </trkpt>
      <trkpt lat="47.84382" lon="6.93265">
        <ele>934</ele>
        <time>2026-05-09T21:14:28.220Z</time>
      </trkpt>
      <trkpt lat="47.84381" lon="6.93268">
        <ele>934</ele>
        <time>2026-05-09T21:14:29.220Z</time>
      </trkpt>
      <trkpt lat="47.84379" lon="6.93269">
        <ele>933</ele>
        <time>2026-05-09T21:14:30.220Z</time>
      </trkpt>
      <trkpt lat="47.84378" lon="6.93271">
        <ele>933</ele>
        <time>2026-05-09T21:14:31.220Z</time>
      </trkpt>
      <trkpt lat="47.84377" lon="6.93272">
        <ele>933</ele>
        <time>2026-05-09T21:14:32.220Z</time>
      </trkpt>
      <trkpt lat="47.84375" lon="6.93273">
        <ele>933</ele>
        <time>2026-05-09T21:14:33.221Z</time>
      </trkpt>
      <trkpt lat="47.84374" lon="6.93275">
        <ele>933</ele>
        <time>2026-05-09T21:14:34.220Z</time>
      </trkpt>
      <trkpt lat="47.84373" lon="6.93278">
        <ele>932</ele>
        <time>2026-05-09T21:14:35.220Z</time>
      </trkpt>
      <trkpt lat="47.84372" lon="6.9328">
        <ele>932</ele>
        <time>2026-05-09T21:14:36.220Z</time>
      </trkpt>
      <trkpt lat="47.84371" lon="6.93282">
        <ele>932</ele>
        <time>2026-05-09T21:14:37.221Z</time>
      </trkpt>
      <trkpt lat="47.8437" lon="6.93284">
        <ele>932</ele>
        <time>2026-05-09T21:14:38.221Z</time>
      </trkpt>
      <trkpt lat="47.8437" lon="6.93286">
        <ele>932</ele>
        <time>2026-05-09T21:14:39.221Z</time>
      </trkpt>
      <trkpt lat="47.8437" lon="6.93288">
        <ele>932</ele>
        <time>2026-05-09T21:14:40.220Z</time>
      </trkpt>
      <trkpt lat="47.84369" lon="6.9329">
        <ele>931</ele>
        <time>2026-05-09T21:14:41.220Z</time>
      </trkpt>
      <trkpt lat="47.84368" lon="6.93291">
        <ele>931</ele>
        <time>2026-05-09T21:14:42.220Z</time>
      </trkpt>
      <trkpt lat="47.84368" lon="6.93292">
        <ele>931</ele>
        <time>2026-05-09T21:14:43.220Z</time>
      </trkpt>
      <trkpt lat="47.84369" lon="6.93294">
        <ele>930</ele>
        <time>2026-05-09T21:14:44.220Z</time>
      </trkpt>
      <trkpt lat="47.8437" lon="6.93295">
        <ele>930</ele>
        <time>2026-05-09T21:14:45.220Z</time>
      </trkpt>
      <trkpt lat="47.84369" lon="6.93297">
        <ele>930</ele>
        <time>2026-05-09T21:14:46.221Z</time>
      </trkpt>
      <trkpt lat="47.84367" lon="6.93298">
        <ele>930</ele>
        <time>2026-05-09T21:14:47.220Z</time>
      </trkpt>
      <trkpt lat="47.84366" lon="6.93299">
        <ele>930</ele>
        <time>2026-05-09T21:14:48.220Z</time>
      </trkpt>
      <trkpt lat="47.84367" lon="6.933">
        <ele>930</ele>
        <time>2026-05-09T21:14:49.220Z</time>
      </trkpt>
      <trkpt lat="47.84366" lon="6.933">
        <ele>930</ele>
        <time>2026-05-09T21:14:50.220Z</time>
      </trkpt>
      <trkpt lat="47.84367" lon="6.933">
        <ele>930</ele>
        <time>2026-05-09T21:14:51.221Z</time>
      </trkpt>
      <trkpt lat="47.84367" lon="6.933">
        <ele>929</ele>
        <time>2026-05-09T21:14:52.220Z</time>
      </trkpt>
      <trkpt lat="47.84368" lon="6.933">
        <ele>929</ele>
        <time>2026-05-09T21:14:53.220Z</time>
      </trkpt>
      <trkpt lat="47.84368" lon="6.933">
        <ele>929</ele>
        <time>2026-05-09T21:14:54.220Z</time>
      </trkpt>
      <trkpt lat="47.84365" lon="6.93306">
        <ele>930</ele>
        <time>2026-05-09T21:15:00.665Z</time>
      </trkpt>
      <trkpt lat="47.84364" lon="6.93308">
        <ele>930</ele>
        <time>2026-05-09T21:15:01.664Z</time>
      </trkpt>
      <trkpt lat="47.84364" lon="6.9331">
        <ele>929</ele>
        <time>2026-05-09T21:15:02.664Z</time>
      </trkpt>
      <trkpt lat="47.84363" lon="6.93312">
        <ele>929</ele>
        <time>2026-05-09T21:15:03.664Z</time>
      </trkpt>
      <trkpt lat="47.84363" lon="6.93314">
        <ele>929</ele>
        <time>2026-05-09T21:15:04.664Z</time>
      </trkpt>
      <trkpt lat="47.84363" lon="6.93317">
        <ele>928</ele>
        <time>2026-05-09T21:15:05.664Z</time>
      </trkpt>
      <trkpt lat="47.84363" lon="6.93319">
        <ele>928</ele>
        <time>2026-05-09T21:15:06.665Z</time>
      </trkpt>
      <trkpt lat="47.84363" lon="6.9332">
        <ele>927</ele>
        <time>2026-05-09T21:15:07.665Z</time>
      </trkpt>
      <trkpt lat="47.84362" lon="6.93321">
        <ele>927</ele>
        <time>2026-05-09T21:15:08.665Z</time>
      </trkpt>
      <trkpt lat="47.84362" lon="6.93323">
        <ele>926</ele>
        <time>2026-05-09T21:15:09.664Z</time>
      </trkpt>
      <trkpt lat="47.84362" lon="6.93325">
        <ele>925</ele>
        <time>2026-05-09T21:15:10.664Z</time>
      </trkpt>
      <trkpt lat="47.84362" lon="6.93327">
        <ele>925</ele>
        <time>2026-05-09T21:15:11.664Z</time>
      </trkpt>
      <trkpt lat="47.84362" lon="6.93329">
        <ele>924</ele>
        <time>2026-05-09T21:15:12.664Z</time>
      </trkpt>
      <trkpt lat="47.84361" lon="6.93332">
        <ele>924</ele>
        <time>2026-05-09T21:15:13.664Z</time>
      </trkpt>
      <trkpt lat="47.84361" lon="6.93334">
        <ele>923</ele>
        <time>2026-05-09T21:15:14.664Z</time>
      </trkpt>
      <trkpt lat="47.84361" lon="6.93336">
        <ele>923</ele>
        <time>2026-05-09T21:15:15.664Z</time>
      </trkpt>
      <trkpt lat="47.8436" lon="6.93339">
        <ele>923</ele>
        <time>2026-05-09T21:15:16.664Z</time>
      </trkpt>
      <trkpt lat="47.84359" lon="6.93342">
        <ele>923</ele>
        <time>2026-05-09T21:15:17.664Z</time>
      </trkpt>
      <trkpt lat="47.8436" lon="6.93345">
        <ele>923</ele>
        <time>2026-05-09T21:15:18.664Z</time>
      </trkpt>
      <trkpt lat="47.8436" lon="6.93346">
        <ele>923</ele>
        <time>2026-05-09T21:15:19.664Z</time>
      </trkpt>
      <trkpt lat="47.8436" lon="6.93348">
        <ele>923</ele>
        <time>2026-05-09T21:15:20.664Z</time>
      </trkpt>
      <trkpt lat="47.84359" lon="6.93349">
        <ele>923</ele>
        <time>2026-05-09T21:15:21.665Z</time>
      </trkpt>
      <trkpt lat="47.84359" lon="6.9335">
        <ele>923</ele>
        <time>2026-05-09T21:15:22.664Z</time>
      </trkpt>
      <trkpt lat="47.84359" lon="6.93352">
        <ele>923</ele>
        <time>2026-05-09T21:15:23.665Z</time>
      </trkpt>
      <trkpt lat="47.8436" lon="6.93354">
        <ele>923</ele>
        <time>2026-05-09T21:15:24.665Z</time>
      </trkpt>
      <trkpt lat="47.84359" lon="6.93356">
        <ele>923</ele>
        <time>2026-05-09T21:15:25.665Z</time>
      </trkpt>
      <trkpt lat="47.84359" lon="6.93359">
        <ele>923</ele>
        <time>2026-05-09T21:15:26.665Z</time>
      </trkpt>
      <trkpt lat="47.84359" lon="6.93361">
        <ele>923</ele>
        <time>2026-05-09T21:15:27.664Z</time>
      </trkpt>
      <trkpt lat="47.8436" lon="6.93363">
        <ele>923</ele>
        <time>2026-05-09T21:15:28.664Z</time>
      </trkpt>
      <trkpt lat="47.84361" lon="6.93366">
        <ele>923</ele>
        <time>2026-05-09T21:15:29.664Z</time>
      </trkpt>
      <trkpt lat="47.84362" lon="6.93369">
        <ele>923</ele>
        <time>2026-05-09T21:15:30.664Z</time>
      </trkpt>
      <trkpt lat="47.84363" lon="6.93375">
        <ele>923</ele>
        <time>2026-05-09T21:15:31.664Z</time>
      </trkpt>
      <trkpt lat="47.84363" lon="6.93378">
        <ele>923</ele>
        <time>2026-05-09T21:15:32.664Z</time>
      </trkpt>
      <trkpt lat="47.84362" lon="6.93383">
        <ele>923</ele>
        <time>2026-05-09T21:15:33.664Z</time>
      </trkpt>
      <trkpt lat="47.8436" lon="6.93387">
        <ele>923</ele>
        <time>2026-05-09T21:15:34.664Z</time>
      </trkpt>
      <trkpt lat="47.84359" lon="6.93391">
        <ele>923</ele>
        <time>2026-05-09T21:15:35.664Z</time>
      </trkpt>
      <trkpt lat="47.84359" lon="6.93394">
        <ele>923</ele>
        <time>2026-05-09T21:15:36.664Z</time>
      </trkpt>
      <trkpt lat="47.8436" lon="6.93397">
        <ele>923</ele>
        <time>2026-05-09T21:15:37.664Z</time>
      </trkpt>
      <trkpt lat="47.84362" lon="6.93396">
        <ele>924</ele>
        <time>2026-05-09T21:15:38.664Z</time>
      </trkpt>
      <trkpt lat="47.84362" lon="6.93396">
        <ele>924</ele>
        <time>2026-05-09T21:15:39.664Z</time>
      </trkpt>
      <trkpt lat="47.84362" lon="6.93398">
        <ele>924</ele>
        <time>2026-05-09T21:15:40.664Z</time>
      </trkpt>
      <trkpt lat="47.8436" lon="6.93399">
        <ele>924</ele>
        <time>2026-05-09T21:15:41.664Z</time>
      </trkpt>
      <trkpt lat="47.8436" lon="6.93401">
        <ele>923</ele>
        <time>2026-05-09T21:15:42.664Z</time>
      </trkpt>
      <trkpt lat="47.84361" lon="6.93403">
        <ele>923</ele>
        <time>2026-05-09T21:15:43.664Z</time>
      </trkpt>
      <trkpt lat="47.84361" lon="6.93405">
        <ele>923</ele>
        <time>2026-05-09T21:15:44.665Z</time>
      </trkpt>
      <trkpt lat="47.84361" lon="6.93408">
        <ele>923</ele>
        <time>2026-05-09T21:15:45.664Z</time>
      </trkpt>
      <trkpt lat="47.84361" lon="6.93409">
        <ele>923</ele>
        <time>2026-05-09T21:15:46.664Z</time>
      </trkpt>
      <trkpt lat="47.84362" lon="6.93409">
        <ele>922</ele>
        <time>2026-05-09T21:15:47.664Z</time>
      </trkpt>
      <trkpt lat="47.84362" lon="6.93409">
        <ele>922</ele>
        <time>2026-05-09T21:15:48.665Z</time>
      </trkpt>
      <trkpt lat="47.84362" lon="6.93411">
        <ele>922</ele>
        <time>2026-05-09T21:15:49.665Z</time>
      </trkpt>
      <trkpt lat="47.84363" lon="6.93413">
        <ele>921</ele>
        <time>2026-05-09T21:15:50.665Z</time>
      </trkpt>
      <trkpt lat="47.84363" lon="6.93414">
        <ele>921</ele>
        <time>2026-05-09T21:15:51.664Z</time>
      </trkpt>
      <trkpt lat="47.84364" lon="6.93416">
        <ele>920</ele>
        <time>2026-05-09T21:15:52.665Z</time>
      </trkpt>
      <trkpt lat="47.84364" lon="6.93418">
        <ele>920</ele>
        <time>2026-05-09T21:15:53.664Z</time>
      </trkpt>
      <trkpt lat="47.84365" lon="6.93419">
        <ele>920</ele>
        <time>2026-05-09T21:15:54.665Z</time>
      </trkpt>
      <trkpt lat="47.84365" lon="6.9342">
        <ele>919</ele>
        <time>2026-05-09T21:15:55.664Z</time>
      </trkpt>
      <trkpt lat="47.84365" lon="6.93422">
        <ele>919</ele>
        <time>2026-05-09T21:15:56.664Z</time>
      </trkpt>
      <trkpt lat="47.84365" lon="6.93424">
        <ele>918</ele>
        <time>2026-05-09T21:15:57.665Z</time>
      </trkpt>
      <trkpt lat="47.84366" lon="6.93425">
        <ele>918</ele>
        <time>2026-05-09T21:15:58.664Z</time>
      </trkpt>
      <trkpt lat="47.84366" lon="6.93426">
        <ele>917</ele>
        <time>2026-05-09T21:15:59.664Z</time>
      </trkpt>
      <trkpt lat="47.84366" lon="6.93427">
        <ele>917</ele>
        <time>2026-05-09T21:16:00.664Z</time>
      </trkpt>
      <trkpt lat="47.84366" lon="6.93428">
        <ele>916</ele>
        <time>2026-05-09T21:16:01.665Z</time>
      </trkpt>
      <trkpt lat="47.84366" lon="6.9343">
        <ele>916</ele>
        <time>2026-05-09T21:16:02.664Z</time>
      </trkpt>
      <trkpt lat="47.84366" lon="6.93432">
        <ele>915</ele>
        <time>2026-05-09T21:16:03.664Z</time>
      </trkpt>
      <trkpt lat="47.84366" lon="6.93433">
        <ele>915</ele>
        <time>2026-05-09T21:16:04.664Z</time>
      </trkpt>
      <trkpt lat="47.84366" lon="6.93435">
        <ele>915</ele>
        <time>2026-05-09T21:16:05.664Z</time>
      </trkpt>
      <trkpt lat="47.84366" lon="6.93437">
        <ele>914</ele>
        <time>2026-05-09T21:16:06.664Z</time>
      </trkpt>
      <trkpt lat="47.84367" lon="6.93439">
        <ele>914</ele>
        <time>2026-05-09T21:16:07.664Z</time>
      </trkpt>
      <trkpt lat="47.84366" lon="6.93442">
        <ele>914</ele>
        <time>2026-05-09T21:16:08.664Z</time>
      </trkpt>
      <trkpt lat="47.84367" lon="6.93444">
        <ele>914</ele>
        <time>2026-05-09T21:16:09.664Z</time>
      </trkpt>
      <trkpt lat="47.84367" lon="6.93445">
        <ele>913</ele>
        <time>2026-05-09T21:16:10.664Z</time>
      </trkpt>
      <trkpt lat="47.84367" lon="6.93446">
        <ele>913</ele>
        <time>2026-05-09T21:16:11.665Z</time>
      </trkpt>
      <trkpt lat="47.84367" lon="6.93448">
        <ele>912</ele>
        <time>2026-05-09T21:16:12.664Z</time>
      </trkpt>
      <trkpt lat="47.84367" lon="6.9345">
        <ele>912</ele>
        <time>2026-05-09T21:16:13.664Z</time>
      </trkpt>
      <trkpt lat="47.84367" lon="6.93452">
        <ele>911</ele>
        <time>2026-05-09T21:16:14.664Z</time>
      </trkpt>
      <trkpt lat="47.84367" lon="6.93454">
        <ele>911</ele>
        <time>2026-05-09T21:16:15.664Z</time>
      </trkpt>
      <trkpt lat="47.84368" lon="6.93456">
        <ele>911</ele>
        <time>2026-05-09T21:16:16.664Z</time>
      </trkpt>
      <trkpt lat="47.84368" lon="6.93459">
        <ele>911</ele>
        <time>2026-05-09T21:16:17.664Z</time>
      </trkpt>
      <trkpt lat="47.84367" lon="6.93463">
        <ele>911</ele>
        <time>2026-05-09T21:16:18.664Z</time>
      </trkpt>
      <trkpt lat="47.84368" lon="6.93466">
        <ele>910</ele>
        <time>2026-05-09T21:16:19.664Z</time>
      </trkpt>
      <trkpt lat="47.84368" lon="6.93468">
        <ele>910</ele>
        <time>2026-05-09T21:16:20.664Z</time>
      </trkpt>
      <trkpt lat="47.84368" lon="6.93472">
        <ele>910</ele>
        <time>2026-05-09T21:16:21.664Z</time>
      </trkpt>
      <trkpt lat="47.84368" lon="6.93475">
        <ele>910</ele>
        <time>2026-05-09T21:16:22.664Z</time>
      </trkpt>
      <trkpt lat="47.84369" lon="6.93477">
        <ele>910</ele>
        <time>2026-05-09T21:16:23.664Z</time>
      </trkpt>
      <trkpt lat="47.84369" lon="6.93479">
        <ele>910</ele>
        <time>2026-05-09T21:16:24.665Z</time>
      </trkpt>
      <trkpt lat="47.84369" lon="6.93482">
        <ele>910</ele>
        <time>2026-05-09T21:16:25.665Z</time>
      </trkpt>
      <trkpt lat="47.84368" lon="6.93484">
        <ele>910</ele>
        <time>2026-05-09T21:16:26.665Z</time>
      </trkpt>
      <trkpt lat="47.84367" lon="6.93486">
        <ele>910</ele>
        <time>2026-05-09T21:16:27.665Z</time>
      </trkpt>
      <trkpt lat="47.84366" lon="6.93489">
        <ele>910</ele>
        <time>2026-05-09T21:16:28.664Z</time>
      </trkpt>
      <trkpt lat="47.84366" lon="6.93493">
        <ele>910</ele>
        <time>2026-05-09T21:16:29.664Z</time>
      </trkpt>
      <trkpt lat="47.84366" lon="6.93496">
        <ele>910</ele>
        <time>2026-05-09T21:16:30.665Z</time>
      </trkpt>
      <trkpt lat="47.84367" lon="6.93498">
        <ele>910</ele>
        <time>2026-05-09T21:16:31.664Z</time>
      </trkpt>
      <trkpt lat="47.84368" lon="6.935">
        <ele>910</ele>
        <time>2026-05-09T21:16:32.664Z</time>
      </trkpt>
      <trkpt lat="47.8437" lon="6.93501">
        <ele>910</ele>
        <time>2026-05-09T21:16:33.665Z</time>
      </trkpt>
      <trkpt lat="47.84371" lon="6.93502">
        <ele>910</ele>
        <time>2026-05-09T21:16:34.664Z</time>
      </trkpt>
      <trkpt lat="47.84372" lon="6.93504">
        <ele>910</ele>
        <time>2026-05-09T21:16:35.664Z</time>
      </trkpt>
      <trkpt lat="47.84372" lon="6.93508">
        <ele>910</ele>
        <time>2026-05-09T21:16:36.664Z</time>
      </trkpt>
      <trkpt lat="47.84372" lon="6.93511">
        <ele>910</ele>
        <time>2026-05-09T21:16:37.665Z</time>
      </trkpt>
      <trkpt lat="47.84373" lon="6.93512">
        <ele>910</ele>
        <time>2026-05-09T21:16:38.664Z</time>
      </trkpt>
      <trkpt lat="47.84374" lon="6.93512">
        <ele>910</ele>
        <time>2026-05-09T21:16:39.664Z</time>
      </trkpt>
      <trkpt lat="47.84375" lon="6.93515">
        <ele>910</ele>
        <time>2026-05-09T21:16:40.664Z</time>
      </trkpt>
      <trkpt lat="47.84378" lon="6.93518">
        <ele>910</ele>
        <time>2026-05-09T21:16:41.664Z</time>
      </trkpt>
      <trkpt lat="47.84378" lon="6.93519">
        <ele>910</ele>
        <time>2026-05-09T21:16:42.664Z</time>
      </trkpt>
      <trkpt lat="47.84379" lon="6.9352">
        <ele>910</ele>
        <time>2026-05-09T21:16:43.664Z</time>
      </trkpt>
      <trkpt lat="47.8438" lon="6.93521">
        <ele>910</ele>
        <time>2026-05-09T21:16:44.664Z</time>
      </trkpt>
      <trkpt lat="47.8438" lon="6.93522">
        <ele>910</ele>
        <time>2026-05-09T21:16:45.664Z</time>
      </trkpt>
      <trkpt lat="47.84381" lon="6.93524">
        <ele>910</ele>
        <time>2026-05-09T21:16:46.665Z</time>
      </trkpt>
      <trkpt lat="47.84381" lon="6.93527">
        <ele>910</ele>
        <time>2026-05-09T21:16:47.664Z</time>
      </trkpt>
      <trkpt lat="47.84381" lon="6.9353">
        <ele>910</ele>
        <time>2026-05-09T21:16:48.665Z</time>
      </trkpt>
      <trkpt lat="47.8438" lon="6.93533">
        <ele>910</ele>
        <time>2026-05-09T21:16:49.665Z</time>
      </trkpt>
      <trkpt lat="47.84379" lon="6.93536">
        <ele>910</ele>
        <time>2026-05-09T21:16:50.665Z</time>
      </trkpt>
      <trkpt lat="47.84381" lon="6.93537">
        <ele>909</ele>
        <time>2026-05-09T21:16:51.665Z</time>
      </trkpt>
      <trkpt lat="47.84381" lon="6.93539">
        <ele>909</ele>
        <time>2026-05-09T21:16:52.664Z</time>
      </trkpt>
      <trkpt lat="47.84381" lon="6.9354">
        <ele>908</ele>
        <time>2026-05-09T21:16:53.664Z</time>
      </trkpt>
      <trkpt lat="47.84381" lon="6.93541">
        <ele>908</ele>
        <time>2026-05-09T21:16:54.664Z</time>
      </trkpt>
      <trkpt lat="47.84381" lon="6.93543">
        <ele>908</ele>
        <time>2026-05-09T21:16:55.664Z</time>
      </trkpt>
      <trkpt lat="47.84381" lon="6.93544">
        <ele>907</ele>
        <time>2026-05-09T21:16:56.665Z</time>
      </trkpt>
      <trkpt lat="47.84381" lon="6.93546">
        <ele>907</ele>
        <time>2026-05-09T21:16:57.664Z</time>
      </trkpt>
      <trkpt lat="47.84382" lon="6.93547">
        <ele>906</ele>
        <time>2026-05-09T21:16:58.664Z</time>
      </trkpt>
      <trkpt lat="47.84383" lon="6.93548">
        <ele>906</ele>
        <time>2026-05-09T21:16:59.664Z</time>
      </trkpt>
      <trkpt lat="47.84384" lon="6.93549">
        <ele>906</ele>
        <time>2026-05-09T21:17:00.664Z</time>
      </trkpt>
      <trkpt lat="47.84385" lon="6.93551">
        <ele>906</ele>
        <time>2026-05-09T21:17:01.664Z</time>
      </trkpt>
      <trkpt lat="47.84385" lon="6.93552">
        <ele>905</ele>
        <time>2026-05-09T21:17:02.664Z</time>
      </trkpt>
      <trkpt lat="47.84386" lon="6.93553">
        <ele>905</ele>
        <time>2026-05-09T21:17:03.664Z</time>
      </trkpt>
      <trkpt lat="47.84386" lon="6.93556">
        <ele>905</ele>
        <time>2026-05-09T21:17:04.664Z</time>
      </trkpt>
      <trkpt lat="47.84387" lon="6.93558">
        <ele>905</ele>
        <time>2026-05-09T21:17:05.664Z</time>
      </trkpt>
      <trkpt lat="47.84387" lon="6.93559">
        <ele>905</ele>
        <time>2026-05-09T21:17:06.664Z</time>
      </trkpt>
      <trkpt lat="47.84387" lon="6.93561">
        <ele>905</ele>
        <time>2026-05-09T21:17:07.664Z</time>
      </trkpt>
      <trkpt lat="47.84387" lon="6.93563">
        <ele>905</ele>
        <time>2026-05-09T21:17:08.664Z</time>
      </trkpt>
      <trkpt lat="47.84387" lon="6.93565">
        <ele>906</ele>
        <time>2026-05-09T21:17:09.664Z</time>
      </trkpt>
      <trkpt lat="47.84387" lon="6.93568">
        <ele>906</ele>
        <time>2026-05-09T21:17:10.664Z</time>
      </trkpt>
      <trkpt lat="47.84387" lon="6.9357">
        <ele>906</ele>
        <time>2026-05-09T21:17:11.664Z</time>
      </trkpt>
      <trkpt lat="47.84387" lon="6.93573">
        <ele>906</ele>
        <time>2026-05-09T21:17:12.664Z</time>
      </trkpt>
      <trkpt lat="47.84388" lon="6.93575">
        <ele>906</ele>
        <time>2026-05-09T21:17:13.664Z</time>
      </trkpt>
      <trkpt lat="47.84389" lon="6.93577">
        <ele>906</ele>
        <time>2026-05-09T21:17:14.664Z</time>
      </trkpt>
      <trkpt lat="47.8439" lon="6.93579">
        <ele>906</ele>
        <time>2026-05-09T21:17:15.664Z</time>
      </trkpt>
      <trkpt lat="47.84392" lon="6.93582">
        <ele>905</ele>
        <time>2026-05-09T21:17:16.664Z</time>
      </trkpt>
      <trkpt lat="47.84393" lon="6.93584">
        <ele>905</ele>
        <time>2026-05-09T21:17:17.664Z</time>
      </trkpt>
      <trkpt lat="47.84394" lon="6.93587">
        <ele>905</ele>
        <time>2026-05-09T21:17:18.664Z</time>
      </trkpt>
      <trkpt lat="47.84395" lon="6.9359">
        <ele>905</ele>
        <time>2026-05-09T21:17:19.664Z</time>
      </trkpt>
      <trkpt lat="47.84397" lon="6.93592">
        <ele>905</ele>
        <time>2026-05-09T21:17:20.664Z</time>
      </trkpt>
      <trkpt lat="47.84398" lon="6.93594">
        <ele>905</ele>
        <time>2026-05-09T21:17:21.664Z</time>
      </trkpt>
      <trkpt lat="47.84398" lon="6.93597">
        <ele>905</ele>
        <time>2026-05-09T21:17:22.665Z</time>
      </trkpt>
      <trkpt lat="47.84399" lon="6.936">
        <ele>905</ele>
        <time>2026-05-09T21:17:23.664Z</time>
      </trkpt>
      <trkpt lat="47.84398" lon="6.93604">
        <ele>905</ele>
        <time>2026-05-09T21:17:24.665Z</time>
      </trkpt>
      <trkpt lat="47.84398" lon="6.93608">
        <ele>905</ele>
        <time>2026-05-09T21:17:25.665Z</time>
      </trkpt>
      <trkpt lat="47.84398" lon="6.93609">
        <ele>905</ele>
        <time>2026-05-09T21:17:26.664Z</time>
      </trkpt>
      <trkpt lat="47.84398" lon="6.93611">
        <ele>904</ele>
        <time>2026-05-09T21:17:27.664Z</time>
      </trkpt>
      <trkpt lat="47.84399" lon="6.93613">
        <ele>904</ele>
        <time>2026-05-09T21:17:28.665Z</time>
      </trkpt>
      <trkpt lat="47.844" lon="6.93618">
        <ele>903</ele>
        <time>2026-05-09T21:17:29.665Z</time>
      </trkpt>
      <trkpt lat="47.844" lon="6.93623">
        <ele>903</ele>
        <time>2026-05-09T21:17:30.665Z</time>
      </trkpt>
      <trkpt lat="47.84401" lon="6.93625">
        <ele>902</ele>
        <time>2026-05-09T21:17:31.664Z</time>
      </trkpt>
      <trkpt lat="47.84401" lon="6.93627">
        <ele>902</ele>
        <time>2026-05-09T21:17:32.665Z</time>
      </trkpt>
      <trkpt lat="47.84401" lon="6.93629">
        <ele>901</ele>
        <time>2026-05-09T21:17:33.664Z</time>
      </trkpt>
      <trkpt lat="47.84401" lon="6.93629">
        <ele>901</ele>
        <time>2026-05-09T21:17:34.665Z</time>
      </trkpt>
      <trkpt lat="47.84402" lon="6.9363">
        <ele>901</ele>
        <time>2026-05-09T21:17:35.664Z</time>
      </trkpt>
      <trkpt lat="47.84403" lon="6.9363">
        <ele>900</ele>
        <time>2026-05-09T21:17:36.665Z</time>
      </trkpt>
      <trkpt lat="47.84405" lon="6.93631">
        <ele>900</ele>
        <time>2026-05-09T21:17:37.665Z</time>
      </trkpt>
      <trkpt lat="47.84406" lon="6.93633">
        <ele>900</ele>
        <time>2026-05-09T21:17:38.665Z</time>
      </trkpt>
      <trkpt lat="47.84407" lon="6.93635">
        <ele>899</ele>
        <time>2026-05-09T21:17:39.665Z</time>
      </trkpt>
      <trkpt lat="47.84406" lon="6.93635">
        <ele>899</ele>
        <time>2026-05-09T21:17:40.665Z</time>
      </trkpt>
      <trkpt lat="47.84406" lon="6.93637">
        <ele>899</ele>
        <time>2026-05-09T21:17:41.664Z</time>
      </trkpt>
      <trkpt lat="47.84406" lon="6.93638">
        <ele>898</ele>
        <time>2026-05-09T21:17:42.664Z</time>
      </trkpt>
      <trkpt lat="47.84406" lon="6.9364">
        <ele>898</ele>
        <time>2026-05-09T21:17:43.665Z</time>
      </trkpt>
      <trkpt lat="47.84405" lon="6.93642">
        <ele>898</ele>
        <time>2026-05-09T21:17:44.664Z</time>
      </trkpt>
      <trkpt lat="47.84405" lon="6.93644">
        <ele>898</ele>
        <time>2026-05-09T21:17:45.665Z</time>
      </trkpt>
      <trkpt lat="47.84405" lon="6.93646">
        <ele>898</ele>
        <time>2026-05-09T21:17:46.664Z</time>
      </trkpt>
      <trkpt lat="47.84405" lon="6.93647">
        <ele>898</ele>
        <time>2026-05-09T21:17:47.664Z</time>
      </trkpt>
      <trkpt lat="47.84405" lon="6.93648">
        <ele>897</ele>
        <time>2026-05-09T21:17:48.664Z</time>
      </trkpt>
      <trkpt lat="47.84405" lon="6.93649">
        <ele>897</ele>
        <time>2026-05-09T21:17:49.665Z</time>
      </trkpt>
      <trkpt lat="47.84405" lon="6.9365">
        <ele>897</ele>
        <time>2026-05-09T21:17:50.664Z</time>
      </trkpt>
      <trkpt lat="47.84405" lon="6.93652">
        <ele>896</ele>
        <time>2026-05-09T21:17:51.665Z</time>
      </trkpt>
      <trkpt lat="47.84404" lon="6.93653">
        <ele>896</ele>
        <time>2026-05-09T21:17:52.664Z</time>
      </trkpt>
      <trkpt lat="47.84404" lon="6.93655">
        <ele>896</ele>
        <time>2026-05-09T21:17:53.665Z</time>
      </trkpt>
      <trkpt lat="47.84405" lon="6.93656">
        <ele>896</ele>
        <time>2026-05-09T21:17:54.664Z</time>
      </trkpt>
      <trkpt lat="47.84405" lon="6.93657">
        <ele>896</ele>
        <time>2026-05-09T21:17:55.665Z</time>
      </trkpt>
      <trkpt lat="47.84406" lon="6.93659">
        <ele>896</ele>
        <time>2026-05-09T21:17:56.664Z</time>
      </trkpt>
      <trkpt lat="47.84406" lon="6.93661">
        <ele>896</ele>
        <time>2026-05-09T21:17:57.665Z</time>
      </trkpt>
      <trkpt lat="47.84406" lon="6.93663">
        <ele>896</ele>
        <time>2026-05-09T21:17:58.664Z</time>
      </trkpt>
      <trkpt lat="47.84406" lon="6.93665">
        <ele>896</ele>
        <time>2026-05-09T21:17:59.664Z</time>
      </trkpt>
      <trkpt lat="47.84407" lon="6.93667">
        <ele>895</ele>
        <time>2026-05-09T21:18:00.664Z</time>
      </trkpt>
      <trkpt lat="47.84407" lon="6.93669">
        <ele>895</ele>
        <time>2026-05-09T21:18:01.665Z</time>
      </trkpt>
      <trkpt lat="47.84407" lon="6.93672">
        <ele>895</ele>
        <time>2026-05-09T21:18:02.665Z</time>
      </trkpt>
      <trkpt lat="47.84407" lon="6.93678">
        <ele>895</ele>
        <time>2026-05-09T21:18:03.664Z</time>
      </trkpt>
      <trkpt lat="47.84408" lon="6.93683">
        <ele>895</ele>
        <time>2026-05-09T21:18:04.665Z</time>
      </trkpt>
      <trkpt lat="47.84408" lon="6.93686">
        <ele>895</ele>
        <time>2026-05-09T21:18:05.664Z</time>
      </trkpt>
      <trkpt lat="47.84408" lon="6.93689">
        <ele>894</ele>
        <time>2026-05-09T21:18:06.664Z</time>
      </trkpt>
      <trkpt lat="47.84407" lon="6.93692">
        <ele>894</ele>
        <time>2026-05-09T21:18:07.664Z</time>
      </trkpt>
      <trkpt lat="47.84406" lon="6.93697">
        <ele>893</ele>
        <time>2026-05-09T21:18:08.665Z</time>
      </trkpt>
      <trkpt lat="47.84406" lon="6.937">
        <ele>893</ele>
        <time>2026-05-09T21:18:09.664Z</time>
      </trkpt>
      <trkpt lat="47.84406" lon="6.93702">
        <ele>893</ele>
        <time>2026-05-09T21:18:10.665Z</time>
      </trkpt>
      <trkpt lat="47.84406" lon="6.93703">
        <ele>892</ele>
        <time>2026-05-09T21:18:11.664Z</time>
      </trkpt>
      <trkpt lat="47.84406" lon="6.93704">
        <ele>892</ele>
        <time>2026-05-09T21:18:12.664Z</time>
      </trkpt>
      <trkpt lat="47.84406" lon="6.93705">
        <ele>891</ele>
        <time>2026-05-09T21:18:13.664Z</time>
      </trkpt>
      <trkpt lat="47.84408" lon="6.93708">
        <ele>891</ele>
        <time>2026-05-09T21:18:14.665Z</time>
      </trkpt>
      <trkpt lat="47.84409" lon="6.93711">
        <ele>890</ele>
        <time>2026-05-09T21:18:15.664Z</time>
      </trkpt>
      <trkpt lat="47.84411" lon="6.93716">
        <ele>889</ele>
        <time>2026-05-09T21:18:16.664Z</time>
      </trkpt>
      <trkpt lat="47.8441" lon="6.93722">
        <ele>889</ele>
        <time>2026-05-09T21:18:17.664Z</time>
      </trkpt>
      <trkpt lat="47.8441" lon="6.93726">
        <ele>888</ele>
        <time>2026-05-09T21:18:18.664Z</time>
      </trkpt>
      <trkpt lat="47.8441" lon="6.93729">
        <ele>888</ele>
        <time>2026-05-09T21:18:19.665Z</time>
      </trkpt>
      <trkpt lat="47.84412" lon="6.93728">
        <ele>887</ele>
        <time>2026-05-09T21:18:20.665Z</time>
      </trkpt>
      <trkpt lat="47.84413" lon="6.93726">
        <ele>886</ele>
        <time>2026-05-09T21:18:21.665Z</time>
      </trkpt>
      <trkpt lat="47.84415" lon="6.93725">
        <ele>886</ele>
        <time>2026-05-09T21:18:22.665Z</time>
      </trkpt>
      <trkpt lat="47.84416" lon="6.93725">
        <ele>886</ele>
        <time>2026-05-09T21:18:23.665Z</time>
      </trkpt>
      <trkpt lat="47.84417" lon="6.93726">
        <ele>885</ele>
        <time>2026-05-09T21:18:24.664Z</time>
      </trkpt>
      <trkpt lat="47.84417" lon="6.93729">
        <ele>885</ele>
        <time>2026-05-09T21:18:25.665Z</time>
      </trkpt>
      <trkpt lat="47.84416" lon="6.93731">
        <ele>885</ele>
        <time>2026-05-09T21:18:26.664Z</time>
      </trkpt>
      <trkpt lat="47.84416" lon="6.93733">
        <ele>885</ele>
        <time>2026-05-09T21:18:27.665Z</time>
      </trkpt>
      <trkpt lat="47.84417" lon="6.93735">
        <ele>885</ele>
        <time>2026-05-09T21:18:28.664Z</time>
      </trkpt>
      <trkpt lat="47.84418" lon="6.93735">
        <ele>884</ele>
        <time>2026-05-09T21:18:29.665Z</time>
      </trkpt>
      <trkpt lat="47.84418" lon="6.93736">
        <ele>884</ele>
        <time>2026-05-09T21:18:30.664Z</time>
      </trkpt>
      <trkpt lat="47.84419" lon="6.93737">
        <ele>884</ele>
        <time>2026-05-09T21:18:31.665Z</time>
      </trkpt>
      <trkpt lat="47.84419" lon="6.93737">
        <ele>883</ele>
        <time>2026-05-09T21:18:32.665Z</time>
      </trkpt>
      <trkpt lat="47.84419" lon="6.93739">
        <ele>883</ele>
        <time>2026-05-09T21:18:33.664Z</time>
      </trkpt>
      <trkpt lat="47.84419" lon="6.9374">
        <ele>882</ele>
        <time>2026-05-09T21:18:34.664Z</time>
      </trkpt>
      <trkpt lat="47.84419" lon="6.93742">
        <ele>881</ele>
        <time>2026-05-09T21:18:35.664Z</time>
      </trkpt>
      <trkpt lat="47.84418" lon="6.93743">
        <ele>881</ele>
        <time>2026-05-09T21:18:36.665Z</time>
      </trkpt>
      <trkpt lat="47.84418" lon="6.93744">
        <ele>880</ele>
        <time>2026-05-09T21:18:37.664Z</time>
      </trkpt>
      <trkpt lat="47.84418" lon="6.93745">
        <ele>880</ele>
        <time>2026-05-09T21:18:38.664Z</time>
      </trkpt>
      <trkpt lat="47.84417" lon="6.93746">
        <ele>879</ele>
        <time>2026-05-09T21:18:39.665Z</time>
      </trkpt>
      <trkpt lat="47.84417" lon="6.93748">
        <ele>879</ele>
        <time>2026-05-09T21:18:40.664Z</time>
      </trkpt>
      <trkpt lat="47.84416" lon="6.93749">
        <ele>878</ele>
        <time>2026-05-09T21:18:41.665Z</time>
      </trkpt>
      <trkpt lat="47.84415" lon="6.93752">
        <ele>878</ele>
        <time>2026-05-09T21:18:42.664Z</time>
      </trkpt>
      <trkpt lat="47.84415" lon="6.93754">
        <ele>878</ele>
        <time>2026-05-09T21:18:43.664Z</time>
      </trkpt>
      <trkpt lat="47.84414" lon="6.93756">
        <ele>877</ele>
        <time>2026-05-09T21:18:44.665Z</time>
      </trkpt>
      <trkpt lat="47.84414" lon="6.93758">
        <ele>877</ele>
        <time>2026-05-09T21:18:45.665Z</time>
      </trkpt>
      <trkpt lat="47.84414" lon="6.9376">
        <ele>877</ele>
        <time>2026-05-09T21:18:46.665Z</time>
      </trkpt>
      <trkpt lat="47.84415" lon="6.93762">
        <ele>877</ele>
        <time>2026-05-09T21:18:47.664Z</time>
      </trkpt>
      <trkpt lat="47.84414" lon="6.93763">
        <ele>876</ele>
        <time>2026-05-09T21:18:48.665Z</time>
      </trkpt>
      <trkpt lat="47.84414" lon="6.93764">
        <ele>876</ele>
        <time>2026-05-09T21:18:49.665Z</time>
      </trkpt>
      <trkpt lat="47.84414" lon="6.93766">
        <ele>875</ele>
        <time>2026-05-09T21:18:50.665Z</time>
      </trkpt>
      <trkpt lat="47.84414" lon="6.93767">
        <ele>875</ele>
        <time>2026-05-09T21:18:51.664Z</time>
      </trkpt>
      <trkpt lat="47.84414" lon="6.93769">
        <ele>875</ele>
        <time>2026-05-09T21:18:52.665Z</time>
      </trkpt>
      <trkpt lat="47.84414" lon="6.93771">
        <ele>874</ele>
        <time>2026-05-09T21:18:53.664Z</time>
      </trkpt>
      <trkpt lat="47.84413" lon="6.93773">
        <ele>874</ele>
        <time>2026-05-09T21:18:54.665Z</time>
      </trkpt>
      <trkpt lat="47.84413" lon="6.93775">
        <ele>874</ele>
        <time>2026-05-09T21:18:55.664Z</time>
      </trkpt>
      <trkpt lat="47.84413" lon="6.93778">
        <ele>874</ele>
        <time>2026-05-09T21:18:56.665Z</time>
      </trkpt>
      <trkpt lat="47.84414" lon="6.9378">
        <ele>874</ele>
        <time>2026-05-09T21:18:57.664Z</time>
      </trkpt>
      <trkpt lat="47.84414" lon="6.93782">
        <ele>874</ele>
        <time>2026-05-09T21:18:58.665Z</time>
      </trkpt>
      <trkpt lat="47.84414" lon="6.93785">
        <ele>874</ele>
        <time>2026-05-09T21:18:59.664Z</time>
      </trkpt>
      <trkpt lat="47.84414" lon="6.93788">
        <ele>875</ele>
        <time>2026-05-09T21:19:00.665Z</time>
      </trkpt>
      <trkpt lat="47.84414" lon="6.9379">
        <ele>875</ele>
        <time>2026-05-09T21:19:01.664Z</time>
      </trkpt>
      <trkpt lat="47.84414" lon="6.93793">
        <ele>875</ele>
        <time>2026-05-09T21:19:02.665Z</time>
      </trkpt>
      <trkpt lat="47.84415" lon="6.93794">
        <ele>875</ele>
        <time>2026-05-09T21:19:03.665Z</time>
      </trkpt>
      <trkpt lat="47.84415" lon="6.93797">
        <ele>875</ele>
        <time>2026-05-09T21:19:04.664Z</time>
      </trkpt>
      <trkpt lat="47.84415" lon="6.938">
        <ele>876</ele>
        <time>2026-05-09T21:19:05.665Z</time>
      </trkpt>
      <trkpt lat="47.84415" lon="6.93802">
        <ele>876</ele>
        <time>2026-05-09T21:19:06.664Z</time>
      </trkpt>
      <trkpt lat="47.84416" lon="6.93804">
        <ele>876</ele>
        <time>2026-05-09T21:19:07.664Z</time>
      </trkpt>
      <trkpt lat="47.84416" lon="6.93806">
        <ele>876</ele>
        <time>2026-05-09T21:19:08.664Z</time>
      </trkpt>
      <trkpt lat="47.84416" lon="6.93808">
        <ele>877</ele>
        <time>2026-05-09T21:19:09.665Z</time>
      </trkpt>
      <trkpt lat="47.84417" lon="6.9381">
        <ele>877</ele>
        <time>2026-05-09T21:19:10.664Z</time>
      </trkpt>
      <trkpt lat="47.84417" lon="6.93812">
        <ele>877</ele>
        <time>2026-05-09T21:19:11.665Z</time>
      </trkpt>
      <trkpt lat="47.84417" lon="6.93814">
        <ele>877</ele>
        <time>2026-05-09T21:19:12.664Z</time>
      </trkpt>
      <trkpt lat="47.84418" lon="6.93817">
        <ele>878</ele>
        <time>2026-05-09T21:19:13.665Z</time>
      </trkpt>
      <trkpt lat="47.84419" lon="6.93819">
        <ele>878</ele>
        <time>2026-05-09T21:19:14.664Z</time>
      </trkpt>
      <trkpt lat="47.84421" lon="6.93821">
        <ele>879</ele>
        <time>2026-05-09T21:19:15.665Z</time>
      </trkpt>
      <trkpt lat="47.84422" lon="6.93823">
        <ele>879</ele>
        <time>2026-05-09T21:19:16.664Z</time>
      </trkpt>
      <trkpt lat="47.84423" lon="6.93824">
        <ele>880</ele>
        <time>2026-05-09T21:19:17.665Z</time>
      </trkpt>
      <trkpt lat="47.84424" lon="6.93826">
        <ele>880</ele>
        <time>2026-05-09T21:19:18.664Z</time>
      </trkpt>
      <trkpt lat="47.84424" lon="6.93828">
        <ele>880</ele>
        <time>2026-05-09T21:19:19.665Z</time>
      </trkpt>
      <trkpt lat="47.84425" lon="6.93829">
        <ele>880</ele>
        <time>2026-05-09T21:19:20.665Z</time>
      </trkpt>
      <trkpt lat="47.84426" lon="6.93831">
        <ele>880</ele>
        <time>2026-05-09T21:19:21.664Z</time>
      </trkpt>
      <trkpt lat="47.84427" lon="6.93833">
        <ele>880</ele>
        <time>2026-05-09T21:19:22.664Z</time>
      </trkpt>
      <trkpt lat="47.84427" lon="6.93835">
        <ele>880</ele>
        <time>2026-05-09T21:19:23.664Z</time>
      </trkpt>
      <trkpt lat="47.84428" lon="6.93837">
        <ele>880</ele>
        <time>2026-05-09T21:19:24.665Z</time>
      </trkpt>
      <trkpt lat="47.84428" lon="6.93839">
        <ele>880</ele>
        <time>2026-05-09T21:19:25.664Z</time>
      </trkpt>
      <trkpt lat="47.84429" lon="6.93841">
        <ele>879</ele>
        <time>2026-05-09T21:19:26.664Z</time>
      </trkpt>
      <trkpt lat="47.84429" lon="6.93843">
        <ele>879</ele>
        <time>2026-05-09T21:19:27.664Z</time>
      </trkpt>
      <trkpt lat="47.84428" lon="6.93845">
        <ele>878</ele>
        <time>2026-05-09T21:19:28.664Z</time>
      </trkpt>
      <trkpt lat="47.84428" lon="6.93847">
        <ele>877</ele>
        <time>2026-05-09T21:19:29.664Z</time>
      </trkpt>
      <trkpt lat="47.84428" lon="6.93849">
        <ele>877</ele>
        <time>2026-05-09T21:19:30.665Z</time>
      </trkpt>
      <trkpt lat="47.84428" lon="6.93852">
        <ele>876</ele>
        <time>2026-05-09T21:19:31.664Z</time>
      </trkpt>
      <trkpt lat="47.84428" lon="6.93853">
        <ele>876</ele>
        <time>2026-05-09T21:19:32.665Z</time>
      </trkpt>
      <trkpt lat="47.84428" lon="6.93855">
        <ele>875</ele>
        <time>2026-05-09T21:19:33.665Z</time>
      </trkpt>
      <trkpt lat="47.84427" lon="6.93859">
        <ele>875</ele>
        <time>2026-05-09T21:19:34.664Z</time>
      </trkpt>
      <trkpt lat="47.84426" lon="6.93861">
        <ele>874</ele>
        <time>2026-05-09T21:19:35.665Z</time>
      </trkpt>
      <trkpt lat="47.84424" lon="6.93863">
        <ele>874</ele>
        <time>2026-05-09T21:19:36.664Z</time>
      </trkpt>
      <trkpt lat="47.84424" lon="6.93864">
        <ele>874</ele>
        <time>2026-05-09T21:19:37.665Z</time>
      </trkpt>
      <trkpt lat="47.84423" lon="6.93865">
        <ele>874</ele>
        <time>2026-05-09T21:19:38.664Z</time>
      </trkpt>
      <trkpt lat="47.84421" lon="6.93867">
        <ele>873</ele>
        <time>2026-05-09T21:19:39.665Z</time>
      </trkpt>
      <trkpt lat="47.8442" lon="6.93868">
        <ele>873</ele>
        <time>2026-05-09T21:19:40.664Z</time>
      </trkpt>
      <trkpt lat="47.84418" lon="6.9387">
        <ele>872</ele>
        <time>2026-05-09T21:19:41.664Z</time>
      </trkpt>
      <trkpt lat="47.84416" lon="6.93871">
        <ele>871</ele>
        <time>2026-05-09T21:19:42.664Z</time>
      </trkpt>
      <trkpt lat="47.84415" lon="6.93871">
        <ele>871</ele>
        <time>2026-05-09T21:19:43.665Z</time>
      </trkpt>
      <trkpt lat="47.84414" lon="6.93873">
        <ele>870</ele>
        <time>2026-05-09T21:19:44.664Z</time>
      </trkpt>
      <trkpt lat="47.84413" lon="6.93874">
        <ele>870</ele>
        <time>2026-05-09T21:19:45.665Z</time>
      </trkpt>
      <trkpt lat="47.84412" lon="6.93876">
        <ele>869</ele>
        <time>2026-05-09T21:19:46.664Z</time>
      </trkpt>
      <trkpt lat="47.84411" lon="6.93878">
        <ele>868</ele>
        <time>2026-05-09T21:19:47.665Z</time>
      </trkpt>
      <trkpt lat="47.84408" lon="6.9388">
        <ele>868</ele>
        <time>2026-05-09T21:19:48.664Z</time>
      </trkpt>
      <trkpt lat="47.84406" lon="6.93881">
        <ele>867</ele>
        <time>2026-05-09T21:19:49.664Z</time>
      </trkpt>
      <trkpt lat="47.84404" lon="6.93882">
        <ele>867</ele>
        <time>2026-05-09T21:19:50.664Z</time>
      </trkpt>
      <trkpt lat="47.84403" lon="6.93883">
        <ele>867</ele>
        <time>2026-05-09T21:19:51.665Z</time>
      </trkpt>
      <trkpt lat="47.84401" lon="6.93884">
        <ele>867</ele>
        <time>2026-05-09T21:19:52.665Z</time>
      </trkpt>
      <trkpt lat="47.844" lon="6.93885">
        <ele>867</ele>
        <time>2026-05-09T21:19:53.664Z</time>
      </trkpt>
      <trkpt lat="47.84398" lon="6.93887">
        <ele>866</ele>
        <time>2026-05-09T21:19:54.665Z</time>
      </trkpt>
      <trkpt lat="47.84396" lon="6.93889">
        <ele>866</ele>
        <time>2026-05-09T21:19:55.664Z</time>
      </trkpt>
      <trkpt lat="47.84394" lon="6.93892">
        <ele>865</ele>
        <time>2026-05-09T21:19:56.665Z</time>
      </trkpt>
      <trkpt lat="47.84392" lon="6.93896">
        <ele>864</ele>
        <time>2026-05-09T21:19:57.664Z</time>
      </trkpt>
      <trkpt lat="47.8439" lon="6.939">
        <ele>864</ele>
        <time>2026-05-09T21:19:58.665Z</time>
      </trkpt>
      <trkpt lat="47.84388" lon="6.93901">
        <ele>863</ele>
        <time>2026-05-09T21:19:59.664Z</time>
      </trkpt>
      <trkpt lat="47.84386" lon="6.93902">
        <ele>863</ele>
        <time>2026-05-09T21:20:00.665Z</time>
      </trkpt>
      <trkpt lat="47.84384" lon="6.93903">
        <ele>862</ele>
        <time>2026-05-09T21:20:01.664Z</time>
      </trkpt>
      <trkpt lat="47.84382" lon="6.93904">
        <ele>862</ele>
        <time>2026-05-09T21:20:02.665Z</time>
      </trkpt>
      <trkpt lat="47.84376" lon="6.93901">
        <ele>862</ele>
        <time>2026-05-09T21:20:03.664Z</time>
      </trkpt>
      <trkpt lat="47.84372" lon="6.93902">
        <ele>861</ele>
        <time>2026-05-09T21:20:04.665Z</time>
      </trkpt>
      <trkpt lat="47.8437" lon="6.93903">
        <ele>861</ele>
        <time>2026-05-09T21:20:05.664Z</time>
      </trkpt>
      <trkpt lat="47.84367" lon="6.93902">
        <ele>861</ele>
        <time>2026-05-09T21:20:06.665Z</time>
      </trkpt>
      <trkpt lat="47.84364" lon="6.93897">
        <ele>861</ele>
        <time>2026-05-09T21:20:07.665Z</time>
      </trkpt>
      <trkpt lat="47.84361" lon="6.93895">
        <ele>860</ele>
        <time>2026-05-09T21:20:08.664Z</time>
      </trkpt>
      <trkpt lat="47.84357" lon="6.93895">
        <ele>860</ele>
        <time>2026-05-09T21:20:09.665Z</time>
      </trkpt>
      <trkpt lat="47.84356" lon="6.93896">
        <ele>860</ele>
        <time>2026-05-09T21:20:10.664Z</time>
      </trkpt>
      <trkpt lat="47.84354" lon="6.93896">
        <ele>859</ele>
        <time>2026-05-09T21:20:11.665Z</time>
      </trkpt>
      <trkpt lat="47.84355" lon="6.93898">
        <ele>859</ele>
        <time>2026-05-09T21:20:12.664Z</time>
      </trkpt>
      <trkpt lat="47.84354" lon="6.93899">
        <ele>859</ele>
        <time>2026-05-09T21:20:13.665Z</time>
      </trkpt>
      <trkpt lat="47.84353" lon="6.93899">
        <ele>859</ele>
        <time>2026-05-09T21:20:14.664Z</time>
      </trkpt>
      <trkpt lat="47.84352" lon="6.93899">
        <ele>859</ele>
        <time>2026-05-09T21:20:15.664Z</time>
      </trkpt>
      <trkpt lat="47.84351" lon="6.93899">
        <ele>859</ele>
        <time>2026-05-09T21:20:16.664Z</time>
      </trkpt>
      <trkpt lat="47.8435" lon="6.939">
        <ele>859</ele>
        <time>2026-05-09T21:20:17.665Z</time>
      </trkpt>
      <trkpt lat="47.84349" lon="6.939">
        <ele>858</ele>
        <time>2026-05-09T21:20:18.664Z</time>
      </trkpt>
      <trkpt lat="47.84348" lon="6.939">
        <ele>858</ele>
        <time>2026-05-09T21:20:19.665Z</time>
      </trkpt>
      <trkpt lat="47.84347" lon="6.93901">
        <ele>857</ele>
        <time>2026-05-09T21:20:20.665Z</time>
      </trkpt>
      <trkpt lat="47.84346" lon="6.93901">
        <ele>857</ele>
        <time>2026-05-09T21:20:21.665Z</time>
      </trkpt>
      <trkpt lat="47.84345" lon="6.93901">
        <ele>857</ele>
        <time>2026-05-09T21:20:22.665Z</time>
      </trkpt>
      <trkpt lat="47.84344" lon="6.93901">
        <ele>856</ele>
        <time>2026-05-09T21:20:23.665Z</time>
      </trkpt>
      <trkpt lat="47.84343" lon="6.93901">
        <ele>856</ele>
        <time>2026-05-09T21:20:24.664Z</time>
      </trkpt>
      <trkpt lat="47.84342" lon="6.93901">
        <ele>855</ele>
        <time>2026-05-09T21:20:25.664Z</time>
      </trkpt>
      <trkpt lat="47.84341" lon="6.93902">
        <ele>855</ele>
        <time>2026-05-09T21:20:26.665Z</time>
      </trkpt>
      <trkpt lat="47.8434" lon="6.93902">
        <ele>854</ele>
        <time>2026-05-09T21:20:27.664Z</time>
      </trkpt>
      <trkpt lat="47.84339" lon="6.93903">
        <ele>854</ele>
        <time>2026-05-09T21:20:28.665Z</time>
      </trkpt>
      <trkpt lat="47.84338" lon="6.93903">
        <ele>853</ele>
        <time>2026-05-09T21:20:29.664Z</time>
      </trkpt>
      <trkpt lat="47.84337" lon="6.93905">
        <ele>852</ele>
        <time>2026-05-09T21:20:30.665Z</time>
      </trkpt>
      <trkpt lat="47.84336" lon="6.93906">
        <ele>852</ele>
        <time>2026-05-09T21:20:31.664Z</time>
      </trkpt>
      <trkpt lat="47.84335" lon="6.93906">
        <ele>851</ele>
        <time>2026-05-09T21:20:32.665Z</time>
      </trkpt>
      <trkpt lat="47.84333" lon="6.93907">
        <ele>851</ele>
        <time>2026-05-09T21:20:33.665Z</time>
      </trkpt>
      <trkpt lat="47.84331" lon="6.93908">
        <ele>851</ele>
        <time>2026-05-09T21:20:34.664Z</time>
      </trkpt>
      <trkpt lat="47.84329" lon="6.93909">
        <ele>851</ele>
        <time>2026-05-09T21:20:35.664Z</time>
      </trkpt>
      <trkpt lat="47.84327" lon="6.93909">
        <ele>851</ele>
        <time>2026-05-09T21:20:36.665Z</time>
      </trkpt>
      <trkpt lat="47.84326" lon="6.93908">
        <ele>850</ele>
        <time>2026-05-09T21:20:37.664Z</time>
      </trkpt>
      <trkpt lat="47.84326" lon="6.93908">
        <ele>850</ele>
        <time>2026-05-09T21:20:38.664Z</time>
      </trkpt>
      <trkpt lat="47.84325" lon="6.93908">
        <ele>849</ele>
        <time>2026-05-09T21:20:39.664Z</time>
      </trkpt>
      <trkpt lat="47.84325" lon="6.93908">
        <ele>849</ele>
        <time>2026-05-09T21:20:40.665Z</time>
      </trkpt>
      <trkpt lat="47.84324" lon="6.93909">
        <ele>848</ele>
        <time>2026-05-09T21:20:41.664Z</time>
      </trkpt>
      <trkpt lat="47.84322" lon="6.93909">
        <ele>848</ele>
        <time>2026-05-09T21:20:42.665Z</time>
      </trkpt>
      <trkpt lat="47.84321" lon="6.9391">
        <ele>848</ele>
        <time>2026-05-09T21:20:43.665Z</time>
      </trkpt>
      <trkpt lat="47.84319" lon="6.93911">
        <ele>848</ele>
        <time>2026-05-09T21:20:44.665Z</time>
      </trkpt>
      <trkpt lat="47.84318" lon="6.93911">
        <ele>848</ele>
        <time>2026-05-09T21:20:45.665Z</time>
      </trkpt>
      <trkpt lat="47.84317" lon="6.93913">
        <ele>848</ele>
        <time>2026-05-09T21:20:46.664Z</time>
      </trkpt>
      <trkpt lat="47.84316" lon="6.93915">
        <ele>848</ele>
        <time>2026-05-09T21:20:47.665Z</time>
      </trkpt>
      <trkpt lat="47.84315" lon="6.93916">
        <ele>847</ele>
        <time>2026-05-09T21:20:48.664Z</time>
      </trkpt>
      <trkpt lat="47.84313" lon="6.93918">
        <ele>846</ele>
        <time>2026-05-09T21:20:49.664Z</time>
      </trkpt>
      <trkpt lat="47.84312" lon="6.93918">
        <ele>845</ele>
        <time>2026-05-09T21:20:50.664Z</time>
      </trkpt>
      <trkpt lat="47.8431" lon="6.93919">
        <ele>844</ele>
        <time>2026-05-09T21:20:51.665Z</time>
      </trkpt>
      <trkpt lat="47.84308" lon="6.9392">
        <ele>843</ele>
        <time>2026-05-09T21:20:52.664Z</time>
      </trkpt>
      <trkpt lat="47.84307" lon="6.93921">
        <ele>843</ele>
        <time>2026-05-09T21:20:53.664Z</time>
      </trkpt>
      <trkpt lat="47.84305" lon="6.93922">
        <ele>842</ele>
        <time>2026-05-09T21:20:54.664Z</time>
      </trkpt>
      <trkpt lat="47.84304" lon="6.93924">
        <ele>841</ele>
        <time>2026-05-09T21:20:55.665Z</time>
      </trkpt>
      <trkpt lat="47.84302" lon="6.93926">
        <ele>841</ele>
        <time>2026-05-09T21:20:56.664Z</time>
      </trkpt>
      <trkpt lat="47.843" lon="6.93927">
        <ele>840</ele>
        <time>2026-05-09T21:20:57.664Z</time>
      </trkpt>
      <trkpt lat="47.84299" lon="6.93929">
        <ele>840</ele>
        <time>2026-05-09T21:20:58.665Z</time>
      </trkpt>
      <trkpt lat="47.84297" lon="6.9393">
        <ele>839</ele>
        <time>2026-05-09T21:20:59.664Z</time>
      </trkpt>
      <trkpt lat="47.84295" lon="6.93931">
        <ele>839</ele>
        <time>2026-05-09T21:21:00.665Z</time>
      </trkpt>
      <trkpt lat="47.84293" lon="6.93933">
        <ele>839</ele>
        <time>2026-05-09T21:21:01.665Z</time>
      </trkpt>
      <trkpt lat="47.84291" lon="6.93936">
        <ele>839</ele>
        <time>2026-05-09T21:21:02.665Z</time>
      </trkpt>
      <trkpt lat="47.84289" lon="6.93939">
        <ele>839</ele>
        <time>2026-05-09T21:21:03.664Z</time>
      </trkpt>
      <trkpt lat="47.84287" lon="6.93941">
        <ele>839</ele>
        <time>2026-05-09T21:21:04.665Z</time>
      </trkpt>
      <trkpt lat="47.84286" lon="6.93942">
        <ele>839</ele>
        <time>2026-05-09T21:21:05.664Z</time>
      </trkpt>
      <trkpt lat="47.84285" lon="6.93943">
        <ele>839</ele>
        <time>2026-05-09T21:21:06.665Z</time>
      </trkpt>
      <trkpt lat="47.84284" lon="6.93944">
        <ele>840</ele>
        <time>2026-05-09T21:21:07.664Z</time>
      </trkpt>
      <trkpt lat="47.84283" lon="6.93944">
        <ele>840</ele>
        <time>2026-05-09T21:21:08.665Z</time>
      </trkpt>
      <trkpt lat="47.84283" lon="6.93945">
        <ele>840</ele>
        <time>2026-05-09T21:21:09.664Z</time>
      </trkpt>
      <trkpt lat="47.84282" lon="6.93946">
        <ele>841</ele>
        <time>2026-05-09T21:21:10.665Z</time>
      </trkpt>
      <trkpt lat="47.84282" lon="6.93948">
        <ele>841</ele>
        <time>2026-05-09T21:21:11.664Z</time>
      </trkpt>
      <trkpt lat="47.8428" lon="6.93951">
        <ele>841</ele>
        <time>2026-05-09T21:21:12.665Z</time>
      </trkpt>
      <trkpt lat="47.84278" lon="6.93953">
        <ele>841</ele>
        <time>2026-05-09T21:21:13.664Z</time>
      </trkpt>
      <trkpt lat="47.84277" lon="6.93955">
        <ele>841</ele>
        <time>2026-05-09T21:21:14.665Z</time>
      </trkpt>
      <trkpt lat="47.84276" lon="6.93957">
        <ele>840</ele>
        <time>2026-05-09T21:21:15.665Z</time>
      </trkpt>
      <trkpt lat="47.84275" lon="6.93959">
        <ele>840</ele>
        <time>2026-05-09T21:21:16.665Z</time>
      </trkpt>
      <trkpt lat="47.84273" lon="6.9396">
        <ele>840</ele>
        <time>2026-05-09T21:21:17.665Z</time>
      </trkpt>
      <trkpt lat="47.84272" lon="6.93961">
        <ele>840</ele>
        <time>2026-05-09T21:21:18.664Z</time>
      </trkpt>
      <trkpt lat="47.84271" lon="6.93963">
        <ele>840</ele>
        <time>2026-05-09T21:21:19.664Z</time>
      </trkpt>
      <trkpt lat="47.8427" lon="6.93964">
        <ele>840</ele>
        <time>2026-05-09T21:21:20.665Z</time>
      </trkpt>
      <trkpt lat="47.84269" lon="6.93966">
        <ele>840</ele>
        <time>2026-05-09T21:21:21.664Z</time>
      </trkpt>
      <trkpt lat="47.84268" lon="6.93968">
        <ele>840</ele>
        <time>2026-05-09T21:21:22.664Z</time>
      </trkpt>
      <trkpt lat="47.84266" lon="6.9397">
        <ele>839</ele>
        <time>2026-05-09T21:21:23.665Z</time>
      </trkpt>
      <trkpt lat="47.84264" lon="6.93971">
        <ele>839</ele>
        <time>2026-05-09T21:21:24.664Z</time>
      </trkpt>
      <trkpt lat="47.84262" lon="6.93973">
        <ele>839</ele>
        <time>2026-05-09T21:21:25.665Z</time>
      </trkpt>
      <trkpt lat="47.8426" lon="6.93976">
        <ele>839</ele>
        <time>2026-05-09T21:21:26.664Z</time>
      </trkpt>
      <trkpt lat="47.84258" lon="6.93978">
        <ele>839</ele>
        <time>2026-05-09T21:21:27.665Z</time>
      </trkpt>
      <trkpt lat="47.84257" lon="6.93979">
        <ele>839</ele>
        <time>2026-05-09T21:21:28.664Z</time>
      </trkpt>
      <trkpt lat="47.84255" lon="6.9398">
        <ele>839</ele>
        <time>2026-05-09T21:21:29.665Z</time>
      </trkpt>
      <trkpt lat="47.84253" lon="6.93982">
        <ele>839</ele>
        <time>2026-05-09T21:21:30.664Z</time>
      </trkpt>
      <trkpt lat="47.84252" lon="6.93984">
        <ele>839</ele>
        <time>2026-05-09T21:21:31.665Z</time>
      </trkpt>
      <trkpt lat="47.84249" lon="6.93986">
        <ele>839</ele>
        <time>2026-05-09T21:21:32.664Z</time>
      </trkpt>
      <trkpt lat="47.84247" lon="6.93987">
        <ele>839</ele>
        <time>2026-05-09T21:21:33.665Z</time>
      </trkpt>
      <trkpt lat="47.84246" lon="6.93988">
        <ele>838</ele>
        <time>2026-05-09T21:21:34.664Z</time>
      </trkpt>
      <trkpt lat="47.84245" lon="6.93989">
        <ele>838</ele>
        <time>2026-05-09T21:21:35.665Z</time>
      </trkpt>
      <trkpt lat="47.84243" lon="6.93991">
        <ele>838</ele>
        <time>2026-05-09T21:21:36.664Z</time>
      </trkpt>
      <trkpt lat="47.84242" lon="6.93998">
        <ele>837</ele>
        <time>2026-05-09T21:21:37.665Z</time>
      </trkpt>
      <trkpt lat="47.84241" lon="6.94004">
        <ele>837</ele>
        <time>2026-05-09T21:21:38.664Z</time>
      </trkpt>
      <trkpt lat="47.8424" lon="6.94009">
        <ele>836</ele>
        <time>2026-05-09T21:21:39.665Z</time>
      </trkpt>
      <trkpt lat="47.84238" lon="6.94015">
        <ele>836</ele>
        <time>2026-05-09T21:21:40.665Z</time>
      </trkpt>
      <trkpt lat="47.84236" lon="6.94018">
        <ele>835</ele>
        <time>2026-05-09T21:21:41.664Z</time>
      </trkpt>
      <trkpt lat="47.84235" lon="6.94018">
        <ele>835</ele>
        <time>2026-05-09T21:21:42.665Z</time>
      </trkpt>
      <trkpt lat="47.84233" lon="6.9402">
        <ele>834</ele>
        <time>2026-05-09T21:21:43.664Z</time>
      </trkpt>
      <trkpt lat="47.84231" lon="6.94021">
        <ele>834</ele>
        <time>2026-05-09T21:21:44.665Z</time>
      </trkpt>
      <trkpt lat="47.84229" lon="6.94023">
        <ele>833</ele>
        <time>2026-05-09T21:21:45.664Z</time>
      </trkpt>
      <trkpt lat="47.84226" lon="6.94026">
        <ele>832</ele>
        <time>2026-05-09T21:21:46.665Z</time>
      </trkpt>
      <trkpt lat="47.84224" lon="6.94029">
        <ele>832</ele>
        <time>2026-05-09T21:21:47.664Z</time>
      </trkpt>
      <trkpt lat="47.84224" lon="6.94032">
        <ele>831</ele>
        <time>2026-05-09T21:21:48.665Z</time>
      </trkpt>
    </trkseg>
  </trk>
</gpx>